<?xml version="1.0" encoding="UTF-8"?>
<gpx creator="Garmin Connect" version="1.1"
  xsi:schemaLocation="http://www.topografix.com/GPX/1/1 http://www.topografix.com/GPX/11.xsd"
  xmlns:ns3="http://www.garmin.com/xmlschemas/TrackPointExtension/v1"
  xmlns="http://www.topografix.com/GPX/1/1"
  xmlns:xsi="http://www.w3.org/2001/XMLSchema-instance" xmlns:ns2="http://www.garmin.com/xmlschemas/GpxExtensions/v3">
  <metadata>
    <link href="connect.garmin.com">
      <text>Garmin Connect</text>
    </link>
    <time>2026-06-16T06:18:19.000Z</time>
  </metadata>
  <trk>
    <name>Plav Mountainbiken</name>
    <type>mountain_biking</type>
    <trkseg>
      <trkpt lat="42.59420695714652538299560546875" lon="19.942795336246490478515625">
        <ele>959.4000244140625</ele>
        <time>2026-06-16T06:18:19.000Z</time>
        <extensions>
          <ns3:TrackPointExtension>
            <ns3:atemp>17.0</ns3:atemp>
          </ns3:TrackPointExtension>
        </extensions>
      </trkpt>
      <trkpt lat="42.59422439150512218475341796875" lon="19.9427951686084270477294921875">
        <ele>959.4000244140625</ele>
        <time>2026-06-16T06:18:20.000Z</time>
        <extensions>
          <ns3:TrackPointExtension>
            <ns3:atemp>17.0</ns3:atemp>
          </ns3:TrackPointExtension>
        </extensions>
      </trkpt>
      <trkpt lat="42.5942487828433513641357421875" lon="19.94278955273330211639404296875">
        <ele>959.20001220703125</ele>
        <time>2026-06-16T06:18:21.000Z</time>
        <extensions>
          <ns3:TrackPointExtension>
            <ns3:atemp>17.0</ns3:atemp>
          </ns3:TrackPointExtension>
        </extensions>
      </trkpt>
      <trkpt lat="42.59427300654351711273193359375" lon="19.94278066791594028472900390625">
        <ele>959.4000244140625</ele>
        <time>2026-06-16T06:18:22.000Z</time>
        <extensions>
          <ns3:TrackPointExtension>
            <ns3:atemp>17.0</ns3:atemp>
          </ns3:TrackPointExtension>
        </extensions>
      </trkpt>
      <trkpt lat="42.59429790079593658447265625" lon="19.94277379475533962249755859375">
        <ele>959.4000244140625</ele>
        <time>2026-06-16T06:18:23.000Z</time>
        <extensions>
          <ns3:TrackPointExtension>
            <ns3:atemp>17.0</ns3:atemp>
          </ns3:TrackPointExtension>
        </extensions>
      </trkpt>
      <trkpt lat="42.59432480670511722564697265625" lon="19.94276591576635837554931640625">
        <ele>959.4000244140625</ele>
        <time>2026-06-16T06:18:24.000Z</time>
        <extensions>
          <ns3:TrackPointExtension>
            <ns3:atemp>17.0</ns3:atemp>
          </ns3:TrackPointExtension>
        </extensions>
      </trkpt>
      <trkpt lat="42.59434752166271209716796875" lon="19.942761473357677459716796875">
        <ele>959.4000244140625</ele>
        <time>2026-06-16T06:18:25.000Z</time>
        <extensions>
          <ns3:TrackPointExtension>
            <ns3:atemp>17.0</ns3:atemp>
          </ns3:TrackPointExtension>
        </extensions>
      </trkpt>
      <trkpt lat="42.59436537511646747589111328125" lon="19.9427609704434871673583984375">
        <ele>959.20001220703125</ele>
        <time>2026-06-16T06:18:26.000Z</time>
        <extensions>
          <ns3:TrackPointExtension>
            <ns3:atemp>17.0</ns3:atemp>
          </ns3:TrackPointExtension>
        </extensions>
      </trkpt>
      <trkpt lat="42.59438113309442996978759765625" lon="19.9427646584808826446533203125">
        <ele>959</ele>
        <time>2026-06-16T06:18:27.000Z</time>
        <extensions>
          <ns3:TrackPointExtension>
            <ns3:atemp>17.0</ns3:atemp>
          </ns3:TrackPointExtension>
        </extensions>
      </trkpt>
      <trkpt lat="42.594398818910121917724609375" lon="19.94277966208755970001220703125">
        <ele>958.79998779296875</ele>
        <time>2026-06-16T06:18:28.000Z</time>
        <extensions>
          <ns3:TrackPointExtension>
            <ns3:atemp>17.0</ns3:atemp>
          </ns3:TrackPointExtension>
        </extensions>
      </trkpt>
      <trkpt lat="42.59441248141229152679443359375" lon="19.94280899874866008758544921875">
        <ele>958.5999755859375</ele>
        <time>2026-06-16T06:18:29.000Z</time>
        <extensions>
          <ns3:TrackPointExtension>
            <ns3:atemp>17.0</ns3:atemp>
          </ns3:TrackPointExtension>
        </extensions>
      </trkpt>
      <trkpt lat="42.59442153386771678924560546875" lon="19.94283934123814105987548828125">
        <ele>958.4000244140625</ele>
        <time>2026-06-16T06:18:30.000Z</time>
        <extensions>
          <ns3:TrackPointExtension>
            <ns3:atemp>17.0</ns3:atemp>
          </ns3:TrackPointExtension>
        </extensions>
      </trkpt>
      <trkpt lat="42.5944291613996028900146484375" lon="19.9428773112595081329345703125">
        <ele>958.4000244140625</ele>
        <time>2026-06-16T06:18:31.000Z</time>
        <extensions>
          <ns3:TrackPointExtension>
            <ns3:atemp>17.0</ns3:atemp>
          </ns3:TrackPointExtension>
        </extensions>
      </trkpt>
      <trkpt lat="42.5944355316460132598876953125" lon="19.94291846640408039093017578125">
        <ele>958.4000244140625</ele>
        <time>2026-06-16T06:18:32.000Z</time>
        <extensions>
          <ns3:TrackPointExtension>
            <ns3:atemp>17.0</ns3:atemp>
          </ns3:TrackPointExtension>
        </extensions>
      </trkpt>
      <trkpt lat="42.59444232098758220672607421875" lon="19.94296389631927013397216796875">
        <ele>958.4000244140625</ele>
        <time>2026-06-16T06:18:33.000Z</time>
        <extensions>
          <ns3:TrackPointExtension>
            <ns3:atemp>17.0</ns3:atemp>
          </ns3:TrackPointExtension>
        </extensions>
      </trkpt>
      <trkpt lat="42.5944516249001026153564453125" lon="19.94300982914865016937255859375">
        <ele>958.4000244140625</ele>
        <time>2026-06-16T06:18:34.000Z</time>
        <extensions>
          <ns3:TrackPointExtension>
            <ns3:atemp>17.0</ns3:atemp>
          </ns3:TrackPointExtension>
        </extensions>
      </trkpt>
      <trkpt lat="42.594462521374225616455078125" lon="19.94305827654898166656494140625">
        <ele>958.5999755859375</ele>
        <time>2026-06-16T06:18:35.000Z</time>
        <extensions>
          <ns3:TrackPointExtension>
            <ns3:atemp>17.0</ns3:atemp>
          </ns3:TrackPointExtension>
        </extensions>
      </trkpt>
      <trkpt lat="42.59447668679058551788330078125" lon="19.94310236535966396331787109375">
        <ele>958.5999755859375</ele>
        <time>2026-06-16T06:18:36.000Z</time>
        <extensions>
          <ns3:TrackPointExtension>
            <ns3:atemp>17.0</ns3:atemp>
          </ns3:TrackPointExtension>
        </extensions>
      </trkpt>
      <trkpt lat="42.59449345059692859649658203125" lon="19.943145699799060821533203125">
        <ele>958.5999755859375</ele>
        <time>2026-06-16T06:18:37.000Z</time>
        <extensions>
          <ns3:TrackPointExtension>
            <ns3:atemp>17.0</ns3:atemp>
          </ns3:TrackPointExtension>
        </extensions>
      </trkpt>
      <trkpt lat="42.59451289661228656768798828125" lon="19.9431847594678401947021484375">
        <ele>958.79998779296875</ele>
        <time>2026-06-16T06:18:38.000Z</time>
        <extensions>
          <ns3:TrackPointExtension>
            <ns3:atemp>17.0</ns3:atemp>
          </ns3:TrackPointExtension>
        </extensions>
      </trkpt>
      <trkpt lat="42.59453200735151767730712890625" lon="19.9432258307933807373046875">
        <ele>958.79998779296875</ele>
        <time>2026-06-16T06:18:39.000Z</time>
        <extensions>
          <ns3:TrackPointExtension>
            <ns3:atemp>17.0</ns3:atemp>
          </ns3:TrackPointExtension>
        </extensions>
      </trkpt>
      <trkpt lat="42.5945498608052730560302734375" lon="19.94326966814696788787841796875">
        <ele>959</ele>
        <time>2026-06-16T06:18:40.000Z</time>
        <extensions>
          <ns3:TrackPointExtension>
            <ns3:atemp>17.0</ns3:atemp>
          </ns3:TrackPointExtension>
        </extensions>
      </trkpt>
      <trkpt lat="42.5945696420967578887939453125" lon="19.94331979192793369293212890625">
        <ele>959</ele>
        <time>2026-06-16T06:18:41.000Z</time>
        <extensions>
          <ns3:TrackPointExtension>
            <ns3:atemp>17.0</ns3:atemp>
          </ns3:TrackPointExtension>
        </extensions>
      </trkpt>
      <trkpt lat="42.5945887528359889984130859375" lon="19.94335927069187164306640625">
        <ele>959</ele>
        <time>2026-06-16T06:18:42.000Z</time>
        <extensions>
          <ns3:TrackPointExtension>
            <ns3:atemp>17.0</ns3:atemp>
          </ns3:TrackPointExtension>
        </extensions>
      </trkpt>
      <trkpt lat="42.594613395631313323974609375" lon="19.94339807890355587005615234375">
        <ele>959</ele>
        <time>2026-06-16T06:18:43.000Z</time>
        <extensions>
          <ns3:TrackPointExtension>
            <ns3:atemp>17.0</ns3:atemp>
          </ns3:TrackPointExtension>
        </extensions>
      </trkpt>
      <trkpt lat="42.59463460184633731842041015625" lon="19.94343412108719348907470703125">
        <ele>958.79998779296875</ele>
        <time>2026-06-16T06:18:44.000Z</time>
        <extensions>
          <ns3:TrackPointExtension>
            <ns3:atemp>18.0</ns3:atemp>
          </ns3:TrackPointExtension>
        </extensions>
      </trkpt>
      <trkpt lat="42.59465522132813930511474609375" lon="19.94346463121473789215087890625">
        <ele>958.79998779296875</ele>
        <time>2026-06-16T06:18:45.000Z</time>
        <extensions>
          <ns3:TrackPointExtension>
            <ns3:atemp>18.0</ns3:atemp>
          </ns3:TrackPointExtension>
        </extensions>
      </trkpt>
      <trkpt lat="42.5946806184947490692138671875" lon="19.94348625652492046356201171875">
        <ele>959</ele>
        <time>2026-06-16T06:18:46.000Z</time>
        <extensions>
          <ns3:TrackPointExtension>
            <ns3:atemp>18.0</ns3:atemp>
          </ns3:TrackPointExtension>
        </extensions>
      </trkpt>
      <trkpt lat="42.59471037425100803375244140625" lon="19.9434865079820156097412109375">
        <ele>959</ele>
        <time>2026-06-16T06:18:47.000Z</time>
        <extensions>
          <ns3:TrackPointExtension>
            <ns3:atemp>18.0</ns3:atemp>
          </ns3:TrackPointExtension>
        </extensions>
      </trkpt>
      <trkpt lat="42.594734765589237213134765625" lon="19.94347385130822658538818359375">
        <ele>959</ele>
        <time>2026-06-16T06:18:48.000Z</time>
        <extensions>
          <ns3:TrackPointExtension>
            <ns3:atemp>18.0</ns3:atemp>
          </ns3:TrackPointExtension>
        </extensions>
      </trkpt>
      <trkpt lat="42.59475680999457836151123046875" lon="19.9434429220855236053466796875">
        <ele>959</ele>
        <time>2026-06-16T06:18:49.000Z</time>
        <extensions>
          <ns3:TrackPointExtension>
            <ns3:atemp>18.0</ns3:atemp>
          </ns3:TrackPointExtension>
        </extensions>
      </trkpt>
      <trkpt lat="42.594781033694744110107421875" lon="19.9434026889503002166748046875">
        <ele>959</ele>
        <time>2026-06-16T06:18:50.000Z</time>
        <extensions>
          <ns3:TrackPointExtension>
            <ns3:atemp>18.0</ns3:atemp>
          </ns3:TrackPointExtension>
        </extensions>
      </trkpt>
      <trkpt lat="42.59481154382228851318359375" lon="19.94335214607417583465576171875">
        <ele>958.79998779296875</ele>
        <time>2026-06-16T06:18:51.000Z</time>
        <extensions>
          <ns3:TrackPointExtension>
            <ns3:atemp>18.0</ns3:atemp>
          </ns3:TrackPointExtension>
        </extensions>
      </trkpt>
      <trkpt lat="42.59484716691076755523681640625" lon="19.94329917244613170623779296875">
        <ele>958.5999755859375</ele>
        <time>2026-06-16T06:18:52.000Z</time>
        <extensions>
          <ns3:TrackPointExtension>
            <ns3:atemp>18.0</ns3:atemp>
          </ns3:TrackPointExtension>
        </extensions>
      </trkpt>
      <trkpt lat="42.5948868133127689361572265625" lon="19.9432427622377872467041015625">
        <ele>958.20001220703125</ele>
        <time>2026-06-16T06:18:53.000Z</time>
        <extensions>
          <ns3:TrackPointExtension>
            <ns3:atemp>18.0</ns3:atemp>
          </ns3:TrackPointExtension>
        </extensions>
      </trkpt>
      <trkpt lat="42.59492729790508747100830078125" lon="19.943182580173015594482421875">
        <ele>958</ele>
        <time>2026-06-16T06:18:54.000Z</time>
        <extensions>
          <ns3:TrackPointExtension>
            <ns3:atemp>18.0</ns3:atemp>
          </ns3:TrackPointExtension>
        </extensions>
      </trkpt>
      <trkpt lat="42.59496769867837429046630859375" lon="19.943119548261165618896484375">
        <ele>957.5999755859375</ele>
        <time>2026-06-16T06:18:55.000Z</time>
        <extensions>
          <ns3:TrackPointExtension>
            <ns3:atemp>18.0</ns3:atemp>
          </ns3:TrackPointExtension>
        </extensions>
      </trkpt>
      <trkpt lat="42.5950132124125957489013671875" lon="19.9430516548454761505126953125">
        <ele>957.20001220703125</ele>
        <time>2026-06-16T06:18:56.000Z</time>
        <extensions>
          <ns3:TrackPointExtension>
            <ns3:atemp>18.0</ns3:atemp>
          </ns3:TrackPointExtension>
        </extensions>
      </trkpt>
      <trkpt lat="42.59505839087069034576416015625" lon="19.94297931902110576629638671875">
        <ele>956.79998779296875</ele>
        <time>2026-06-16T06:18:57.000Z</time>
        <extensions>
          <ns3:TrackPointExtension>
            <ns3:atemp>18.0</ns3:atemp>
          </ns3:TrackPointExtension>
        </extensions>
      </trkpt>
      <trkpt lat="42.5951040722429752349853515625" lon="19.94290907867252826690673828125">
        <ele>956.5999755859375</ele>
        <time>2026-06-16T06:18:58.000Z</time>
        <extensions>
          <ns3:TrackPointExtension>
            <ns3:atemp>18.0</ns3:atemp>
          </ns3:TrackPointExtension>
        </extensions>
      </trkpt>
      <trkpt lat="42.595153190195560455322265625" lon="19.94283380918204784393310546875">
        <ele>956.20001220703125</ele>
        <time>2026-06-16T06:18:59.000Z</time>
        <extensions>
          <ns3:TrackPointExtension>
            <ns3:atemp>18.0</ns3:atemp>
          </ns3:TrackPointExtension>
        </extensions>
      </trkpt>
      <trkpt lat="42.5952039845287799835205078125" lon="19.94275116361677646636962890625">
        <ele>955.79998779296875</ele>
        <time>2026-06-16T06:19:00.000Z</time>
        <extensions>
          <ns3:TrackPointExtension>
            <ns3:atemp>18.0</ns3:atemp>
          </ns3:TrackPointExtension>
        </extensions>
      </trkpt>
      <trkpt lat="42.59525620378553867340087890625" lon="19.94267539121210575103759765625">
        <ele>955.4000244140625</ele>
        <time>2026-06-16T06:19:01.000Z</time>
        <extensions>
          <ns3:TrackPointExtension>
            <ns3:atemp>18.0</ns3:atemp>
          </ns3:TrackPointExtension>
        </extensions>
      </trkpt>
      <trkpt lat="42.5953062437474727630615234375" lon="19.94259660132229328155517578125">
        <ele>955</ele>
        <time>2026-06-16T06:19:02.000Z</time>
        <extensions>
          <ns3:TrackPointExtension>
            <ns3:atemp>18.0</ns3:atemp>
          </ns3:TrackPointExtension>
        </extensions>
      </trkpt>
      <trkpt lat="42.5953511707484722137451171875" lon="19.94250859133899211883544921875">
        <ele>954.4000244140625</ele>
        <time>2026-06-16T06:19:03.000Z</time>
        <extensions>
          <ns3:TrackPointExtension>
            <ns3:atemp>18.0</ns3:atemp>
          </ns3:TrackPointExtension>
        </extensions>
      </trkpt>
      <trkpt lat="42.5953873805701732635498046875" lon="19.9424139596521854400634765625">
        <ele>953.79998779296875</ele>
        <time>2026-06-16T06:19:04.000Z</time>
        <extensions>
          <ns3:TrackPointExtension>
            <ns3:atemp>18.0</ns3:atemp>
          </ns3:TrackPointExtension>
        </extensions>
      </trkpt>
      <trkpt lat="42.59541914798319339752197265625" lon="19.94230776093900203704833984375">
        <ele>953.4000244140625</ele>
        <time>2026-06-16T06:19:05.000Z</time>
        <extensions>
          <ns3:TrackPointExtension>
            <ns3:atemp>18.0</ns3:atemp>
          </ns3:TrackPointExtension>
        </extensions>
      </trkpt>
      <trkpt lat="42.5954413600265979766845703125" lon="19.9421906657516956329345703125">
        <ele>952.79998779296875</ele>
        <time>2026-06-16T06:19:06.000Z</time>
        <extensions>
          <ns3:TrackPointExtension>
            <ns3:atemp>18.0</ns3:atemp>
          </ns3:TrackPointExtension>
        </extensions>
      </trkpt>
      <trkpt lat="42.59546223096549510955810546875" lon="19.9420697987079620361328125">
        <ele>952.20001220703125</ele>
        <time>2026-06-16T06:19:07.000Z</time>
        <extensions>
          <ns3:TrackPointExtension>
            <ns3:atemp>18.0</ns3:atemp>
          </ns3:TrackPointExtension>
        </extensions>
      </trkpt>
      <trkpt lat="42.59548586793243885040283203125" lon="19.94194566272199153900146484375">
        <ele>951.5999755859375</ele>
        <time>2026-06-16T06:19:08.000Z</time>
        <extensions>
          <ns3:TrackPointExtension>
            <ns3:atemp>18.0</ns3:atemp>
          </ns3:TrackPointExtension>
        </extensions>
      </trkpt>
      <trkpt lat="42.59550263173878192901611328125" lon="19.941834099590778350830078125">
        <ele>950.79998779296875</ele>
        <time>2026-06-16T06:19:09.000Z</time>
        <extensions>
          <ns3:TrackPointExtension>
            <ns3:atemp>18.0</ns3:atemp>
          </ns3:TrackPointExtension>
        </extensions>
      </trkpt>
      <trkpt lat="42.59551956318318843841552734375" lon="19.94173586368560791015625">
        <ele>950.20001220703125</ele>
        <time>2026-06-16T06:19:10.000Z</time>
        <extensions>
          <ns3:TrackPointExtension>
            <ns3:atemp>18.0</ns3:atemp>
          </ns3:TrackPointExtension>
        </extensions>
      </trkpt>
      <trkpt lat="42.59554185904562473297119140625" lon="19.94164089672267436981201171875">
        <ele>949.79998779296875</ele>
        <time>2026-06-16T06:19:11.000Z</time>
        <extensions>
          <ns3:TrackPointExtension>
            <ns3:atemp>18.0</ns3:atemp>
          </ns3:TrackPointExtension>
        </extensions>
      </trkpt>
      <trkpt lat="42.595573626458644866943359375" lon="19.94154752232134342193603515625">
        <ele>949.20001220703125</ele>
        <time>2026-06-16T06:19:12.000Z</time>
        <extensions>
          <ns3:TrackPointExtension>
            <ns3:atemp>18.0</ns3:atemp>
          </ns3:TrackPointExtension>
        </extensions>
      </trkpt>
      <trkpt lat="42.59561360813677310943603515625" lon="19.94145884178578853607177734375">
        <ele>948.5999755859375</ele>
        <time>2026-06-16T06:19:13.000Z</time>
        <extensions>
          <ns3:TrackPointExtension>
            <ns3:atemp>18.0</ns3:atemp>
          </ns3:TrackPointExtension>
        </extensions>
      </trkpt>
      <trkpt lat="42.59565887041389942169189453125" lon="19.94138172827661037445068359375">
        <ele>948</ele>
        <time>2026-06-16T06:19:14.000Z</time>
        <extensions>
          <ns3:TrackPointExtension>
            <ns3:atemp>18.0</ns3:atemp>
          </ns3:TrackPointExtension>
        </extensions>
      </trkpt>
      <trkpt lat="42.595707736909389495849609375" lon="19.94132121093571186065673828125">
        <ele>947.4000244140625</ele>
        <time>2026-06-16T06:19:15.000Z</time>
        <extensions>
          <ns3:TrackPointExtension>
            <ns3:atemp>18.0</ns3:atemp>
          </ns3:TrackPointExtension>
        </extensions>
      </trkpt>
      <trkpt lat="42.59575677104294300079345703125" lon="19.941278882324695587158203125">
        <ele>946.79998779296875</ele>
        <time>2026-06-16T06:19:16.000Z</time>
        <extensions>
          <ns3:TrackPointExtension>
            <ns3:atemp>18.0</ns3:atemp>
          </ns3:TrackPointExtension>
        </extensions>
      </trkpt>
      <trkpt lat="42.59580421261489391326904296875" lon="19.94124242104589939117431640625">
        <ele>946.4000244140625</ele>
        <time>2026-06-16T06:19:17.000Z</time>
        <extensions>
          <ns3:TrackPointExtension>
            <ns3:atemp>18.0</ns3:atemp>
          </ns3:TrackPointExtension>
        </extensions>
      </trkpt>
      <trkpt lat="42.59583656676113605499267578125" lon="19.94118877686560153961181640625">
        <ele>946</ele>
        <time>2026-06-16T06:19:18.000Z</time>
        <extensions>
          <ns3:TrackPointExtension>
            <ns3:atemp>18.0</ns3:atemp>
          </ns3:TrackPointExtension>
        </extensions>
      </trkpt>
      <trkpt lat="42.59585760533809661865234375" lon="19.94112591259181499481201171875">
        <ele>945.5999755859375</ele>
        <time>2026-06-16T06:19:19.000Z</time>
        <extensions>
          <ns3:TrackPointExtension>
            <ns3:atemp>18.0</ns3:atemp>
          </ns3:TrackPointExtension>
        </extensions>
      </trkpt>
      <trkpt lat="42.59587101638317108154296875" lon="19.9410534091293811798095703125">
        <ele>945.4000244140625</ele>
        <time>2026-06-16T06:19:20.000Z</time>
        <extensions>
          <ns3:TrackPointExtension>
            <ns3:atemp>18.0</ns3:atemp>
          </ns3:TrackPointExtension>
        </extensions>
      </trkpt>
      <trkpt lat="42.59588467888534069061279296875" lon="19.94096933864057064056396484375">
        <ele>945</ele>
        <time>2026-06-16T06:19:21.000Z</time>
        <extensions>
          <ns3:TrackPointExtension>
            <ns3:atemp>18.0</ns3:atemp>
          </ns3:TrackPointExtension>
        </extensions>
      </trkpt>
      <trkpt lat="42.59589373134076595306396484375" lon="19.9408747069537639617919921875">
        <ele>944.5999755859375</ele>
        <time>2026-06-16T06:19:22.000Z</time>
        <extensions>
          <ns3:TrackPointExtension>
            <ns3:atemp>18.0</ns3:atemp>
          </ns3:TrackPointExtension>
        </extensions>
      </trkpt>
      <trkpt lat="42.5958980061113834381103515625" lon="19.94077085517346858978271484375">
        <ele>944</ele>
        <time>2026-06-16T06:19:23.000Z</time>
        <extensions>
          <ns3:TrackPointExtension>
            <ns3:atemp>18.0</ns3:atemp>
          </ns3:TrackPointExtension>
        </extensions>
      </trkpt>
      <trkpt lat="42.59589473716914653778076171875" lon="19.9406591244041919708251953125">
        <ele>943.5999755859375</ele>
        <time>2026-06-16T06:19:24.000Z</time>
        <extensions>
          <ns3:TrackPointExtension>
            <ns3:atemp>18.0</ns3:atemp>
          </ns3:TrackPointExtension>
        </extensions>
      </trkpt>
      <trkpt lat="42.595886103808879852294921875" lon="19.940543957054615020751953125">
        <ele>943</ele>
        <time>2026-06-16T06:19:25.000Z</time>
        <extensions>
          <ns3:TrackPointExtension>
            <ns3:atemp>18.0</ns3:atemp>
          </ns3:TrackPointExtension>
        </extensions>
      </trkpt>
      <trkpt lat="42.59587629698216915130615234375" lon="19.9404261074960231781005859375">
        <ele>942.20001220703125</ele>
        <time>2026-06-16T06:19:26.000Z</time>
        <extensions>
          <ns3:TrackPointExtension>
            <ns3:atemp>18.0</ns3:atemp>
          </ns3:TrackPointExtension>
        </extensions>
      </trkpt>
      <trkpt lat="42.59586372412741184234619140625" lon="19.9403067491948604583740234375">
        <ele>941.4000244140625</ele>
        <time>2026-06-16T06:19:27.000Z</time>
        <extensions>
          <ns3:TrackPointExtension>
            <ns3:atemp>18.0</ns3:atemp>
          </ns3:TrackPointExtension>
        </extensions>
      </trkpt>
      <trkpt lat="42.5958503969013690948486328125" lon="19.94018697179853916168212890625">
        <ele>940.5999755859375</ele>
        <time>2026-06-16T06:19:28.000Z</time>
        <extensions>
          <ns3:TrackPointExtension>
            <ns3:atemp>18.0</ns3:atemp>
          </ns3:TrackPointExtension>
        </extensions>
      </trkpt>
      <trkpt lat="42.59584193117916584014892578125" lon="19.9400676973164081573486328125">
        <ele>940</ele>
        <time>2026-06-16T06:19:29.000Z</time>
        <extensions>
          <ns3:TrackPointExtension>
            <ns3:atemp>18.0</ns3:atemp>
          </ns3:TrackPointExtension>
        </extensions>
      </trkpt>
      <trkpt lat="42.5958383269608020782470703125" lon="19.93994540534913539886474609375">
        <ele>939.20001220703125</ele>
        <time>2026-06-16T06:19:30.000Z</time>
        <extensions>
          <ns3:TrackPointExtension>
            <ns3:atemp>18.0</ns3:atemp>
          </ns3:TrackPointExtension>
        </extensions>
      </trkpt>
      <trkpt lat="42.59584511630237102508544921875" lon="19.93982034735381603240966796875">
        <ele>938.5999755859375</ele>
        <time>2026-06-16T06:19:31.000Z</time>
        <extensions>
          <ns3:TrackPointExtension>
            <ns3:atemp>18.0</ns3:atemp>
          </ns3:TrackPointExtension>
        </extensions>
      </trkpt>
      <trkpt lat="42.59585760533809661865234375" lon="19.93969478644430637359619140625">
        <ele>937.79998779296875</ele>
        <time>2026-06-16T06:19:32.000Z</time>
        <extensions>
          <ns3:TrackPointExtension>
            <ns3:atemp>18.0</ns3:atemp>
          </ns3:TrackPointExtension>
        </extensions>
      </trkpt>
      <trkpt lat="42.59585760533809661865234375" lon="19.93956419639289379119873046875">
        <ele>937</ele>
        <time>2026-06-16T06:19:33.000Z</time>
        <extensions>
          <ns3:TrackPointExtension>
            <ns3:atemp>18.0</ns3:atemp>
          </ns3:TrackPointExtension>
        </extensions>
      </trkpt>
      <trkpt lat="42.595847211778163909912109375" lon="19.93943117558956146240234375">
        <ele>936.20001220703125</ele>
        <time>2026-06-16T06:19:34.000Z</time>
        <extensions>
          <ns3:TrackPointExtension>
            <ns3:atemp>18.0</ns3:atemp>
          </ns3:TrackPointExtension>
        </extensions>
      </trkpt>
      <trkpt lat="42.59584511630237102508544921875" lon="19.9392968975007534027099609375">
        <ele>935.5999755859375</ele>
        <time>2026-06-16T06:19:35.000Z</time>
        <extensions>
          <ns3:TrackPointExtension>
            <ns3:atemp>18.0</ns3:atemp>
          </ns3:TrackPointExtension>
        </extensions>
      </trkpt>
      <trkpt lat="42.59584285318851470947265625" lon="19.93915683589875698089599609375">
        <ele>934.79998779296875</ele>
        <time>2026-06-16T06:19:36.000Z</time>
        <extensions>
          <ns3:TrackPointExtension>
            <ns3:atemp>18.0</ns3:atemp>
          </ns3:TrackPointExtension>
        </extensions>
      </trkpt>
      <trkpt lat="42.5958346389234066009521484375" lon="19.939014427363872528076171875">
        <ele>934</ele>
        <time>2026-06-16T06:19:37.000Z</time>
        <extensions>
          <ns3:TrackPointExtension>
            <ns3:atemp>18.0</ns3:atemp>
          </ns3:TrackPointExtension>
        </extensions>
      </trkpt>
      <trkpt lat="42.59583170525729656219482421875" lon="19.9388724379241466522216796875">
        <ele>933.4000244140625</ele>
        <time>2026-06-16T06:19:38.000Z</time>
        <extensions>
          <ns3:TrackPointExtension>
            <ns3:atemp>18.0</ns3:atemp>
          </ns3:TrackPointExtension>
        </extensions>
      </trkpt>
      <trkpt lat="42.5958329625427722930908203125" lon="19.938728101551532745361328125">
        <ele>932.4000244140625</ele>
        <time>2026-06-16T06:19:39.000Z</time>
        <extensions>
          <ns3:TrackPointExtension>
            <ns3:atemp>18.0</ns3:atemp>
          </ns3:TrackPointExtension>
        </extensions>
      </trkpt>
      <trkpt lat="42.59583354927599430084228515625" lon="19.938579909503459930419921875">
        <ele>931.5999755859375</ele>
        <time>2026-06-16T06:19:40.000Z</time>
        <extensions>
          <ns3:TrackPointExtension>
            <ns3:atemp>18.0</ns3:atemp>
          </ns3:TrackPointExtension>
        </extensions>
      </trkpt>
      <trkpt lat="42.59583421982824802398681640625" lon="19.93843347765505313873291015625">
        <ele>930.79998779296875</ele>
        <time>2026-06-16T06:19:41.000Z</time>
        <extensions>
          <ns3:TrackPointExtension>
            <ns3:atemp>18.0</ns3:atemp>
          </ns3:TrackPointExtension>
        </extensions>
      </trkpt>
      <trkpt lat="42.59583606384694576263427734375" lon="19.93828461505472660064697265625">
        <ele>930</ele>
        <time>2026-06-16T06:19:42.000Z</time>
        <extensions>
          <ns3:TrackPointExtension>
            <ns3:atemp>18.0</ns3:atemp>
          </ns3:TrackPointExtension>
        </extensions>
      </trkpt>
      <trkpt lat="42.5958356447517871856689453125" lon="19.9381401948630809783935546875">
        <ele>929.20001220703125</ele>
        <time>2026-06-16T06:19:43.000Z</time>
        <extensions>
          <ns3:TrackPointExtension>
            <ns3:atemp>18.0</ns3:atemp>
          </ns3:TrackPointExtension>
        </extensions>
      </trkpt>
      <trkpt lat="42.59583556093275547027587890625" lon="19.93800197727978229522705078125">
        <ele>928.4000244140625</ele>
        <time>2026-06-16T06:19:44.000Z</time>
        <extensions>
          <ns3:TrackPointExtension>
            <ns3:atemp>18.0</ns3:atemp>
          </ns3:TrackPointExtension>
        </extensions>
      </trkpt>
      <trkpt lat="42.59583656676113605499267578125" lon="19.93787155486643314361572265625">
        <ele>927.5999755859375</ele>
        <time>2026-06-16T06:19:45.000Z</time>
        <extensions>
          <ns3:TrackPointExtension>
            <ns3:atemp>18.0</ns3:atemp>
          </ns3:TrackPointExtension>
        </extensions>
      </trkpt>
      <trkpt lat="42.595837824046611785888671875" lon="19.9377418868243694305419921875">
        <ele>926.79998779296875</ele>
        <time>2026-06-16T06:19:46.000Z</time>
        <extensions>
          <ns3:TrackPointExtension>
            <ns3:atemp>18.0</ns3:atemp>
          </ns3:TrackPointExtension>
        </extensions>
      </trkpt>
      <trkpt lat="42.59583421982824802398681640625" lon="19.9376124702394008636474609375">
        <ele>926.20001220703125</ele>
        <time>2026-06-16T06:19:47.000Z</time>
        <extensions>
          <ns3:TrackPointExtension>
            <ns3:atemp>18.0</ns3:atemp>
          </ns3:TrackPointExtension>
        </extensions>
      </trkpt>
      <trkpt lat="42.59582650847733020782470703125" lon="19.93748447857797145843505859375">
        <ele>925.4000244140625</ele>
        <time>2026-06-16T06:19:48.000Z</time>
        <extensions>
          <ns3:TrackPointExtension>
            <ns3:atemp>18.0</ns3:atemp>
          </ns3:TrackPointExtension>
        </extensions>
      </trkpt>
      <trkpt lat="42.5958195514976978302001953125" lon="19.93735757656395435333251953125">
        <ele>924.79998779296875</ele>
        <time>2026-06-16T06:19:49.000Z</time>
        <extensions>
          <ns3:TrackPointExtension>
            <ns3:atemp>18.0</ns3:atemp>
          </ns3:TrackPointExtension>
        </extensions>
      </trkpt>
      <trkpt lat="42.59582005441188812255859375" lon="19.9372364580631256103515625">
        <ele>924.20001220703125</ele>
        <time>2026-06-16T06:19:50.000Z</time>
        <extensions>
          <ns3:TrackPointExtension>
            <ns3:atemp>18.0</ns3:atemp>
          </ns3:TrackPointExtension>
        </extensions>
      </trkpt>
      <trkpt lat="42.59582273662090301513671875" lon="19.9371236376464366912841796875">
        <ele>923.5999755859375</ele>
        <time>2026-06-16T06:19:51.000Z</time>
        <extensions>
          <ns3:TrackPointExtension>
            <ns3:atemp>18.0</ns3:atemp>
          </ns3:TrackPointExtension>
        </extensions>
      </trkpt>
      <trkpt lat="42.59582935832440853118896484375" lon="19.93701224215328693389892578125">
        <ele>923.20001220703125</ele>
        <time>2026-06-16T06:19:52.000Z</time>
        <extensions>
          <ns3:TrackPointExtension>
            <ns3:atemp>18.0</ns3:atemp>
          </ns3:TrackPointExtension>
        </extensions>
      </trkpt>
      <trkpt lat="42.5958571024239063262939453125" lon="19.936910234391689300537109375">
        <ele>922.5999755859375</ele>
        <time>2026-06-16T06:19:53.000Z</time>
        <extensions>
          <ns3:TrackPointExtension>
            <ns3:atemp>18.0</ns3:atemp>
          </ns3:TrackPointExtension>
        </extensions>
      </trkpt>
      <trkpt lat="42.59589649736881256103515625" lon="19.93682230822741985321044921875">
        <ele>922.4000244140625</ele>
        <time>2026-06-16T06:19:54.000Z</time>
        <extensions>
          <ns3:TrackPointExtension>
            <ns3:atemp>18.0</ns3:atemp>
          </ns3:TrackPointExtension>
        </extensions>
      </trkpt>
      <trkpt lat="42.59594117291271686553955078125" lon="19.93675927631556987762451171875">
        <ele>922</ele>
        <time>2026-06-16T06:19:55.000Z</time>
        <extensions>
          <ns3:TrackPointExtension>
            <ns3:atemp>18.0</ns3:atemp>
          </ns3:TrackPointExtension>
        </extensions>
      </trkpt>
      <trkpt lat="42.595991380512714385986328125" lon="19.93672038428485393524169921875">
        <ele>921.79998779296875</ele>
        <time>2026-06-16T06:19:56.000Z</time>
        <extensions>
          <ns3:TrackPointExtension>
            <ns3:atemp>18.0</ns3:atemp>
          </ns3:TrackPointExtension>
        </extensions>
      </trkpt>
      <trkpt lat="42.596043013036251068115234375" lon="19.9367021955549716949462890625">
        <ele>921.79998779296875</ele>
        <time>2026-06-16T06:19:57.000Z</time>
        <extensions>
          <ns3:TrackPointExtension>
            <ns3:atemp>18.0</ns3:atemp>
          </ns3:TrackPointExtension>
        </extensions>
      </trkpt>
      <trkpt lat="42.596093304455280303955078125" lon="19.936692975461483001708984375">
        <ele>922</ele>
        <time>2026-06-16T06:19:58.000Z</time>
        <extensions>
          <ns3:TrackPointExtension>
            <ns3:atemp>18.0</ns3:atemp>
          </ns3:TrackPointExtension>
        </extensions>
      </trkpt>
      <trkpt lat="42.59614250622689723968505859375" lon="19.9366918019950389862060546875">
        <ele>922.20001220703125</ele>
        <time>2026-06-16T06:19:59.000Z</time>
        <extensions>
          <ns3:TrackPointExtension>
            <ns3:atemp>18.0</ns3:atemp>
          </ns3:TrackPointExtension>
        </extensions>
      </trkpt>
      <trkpt lat="42.59619413875043392181396484375" lon="19.93668727576732635498046875">
        <ele>922.4000244140625</ele>
        <time>2026-06-16T06:20:00.000Z</time>
        <extensions>
          <ns3:TrackPointExtension>
            <ns3:atemp>18.0</ns3:atemp>
          </ns3:TrackPointExtension>
        </extensions>
      </trkpt>
      <trkpt lat="42.59624116122722625732421875" lon="19.9366793967783451080322265625">
        <ele>922.4000244140625</ele>
        <time>2026-06-16T06:20:01.000Z</time>
        <extensions>
          <ns3:TrackPointExtension>
            <ns3:atemp>18.0</ns3:atemp>
          </ns3:TrackPointExtension>
        </extensions>
      </trkpt>
      <trkpt lat="42.59628675878047943115234375" lon="19.93667210452258586883544921875">
        <ele>922.5999755859375</ele>
        <time>2026-06-16T06:20:02.000Z</time>
        <extensions>
          <ns3:TrackPointExtension>
            <ns3:atemp>18.0</ns3:atemp>
          </ns3:TrackPointExtension>
        </extensions>
      </trkpt>
      <trkpt lat="42.59632891975343227386474609375" lon="19.93666539900004863739013671875">
        <ele>922.5999755859375</ele>
        <time>2026-06-16T06:20:03.000Z</time>
        <extensions>
          <ns3:TrackPointExtension>
            <ns3:atemp>18.0</ns3:atemp>
          </ns3:TrackPointExtension>
        </extensions>
      </trkpt>
      <trkpt lat="42.596367560327053070068359375" lon="19.93666355498135089874267578125">
        <ele>922.5999755859375</ele>
        <time>2026-06-16T06:20:04.000Z</time>
        <extensions>
          <ns3:TrackPointExtension>
            <ns3:atemp>18.0</ns3:atemp>
          </ns3:TrackPointExtension>
        </extensions>
      </trkpt>
      <trkpt lat="42.59640569798648357391357421875" lon="19.9366609565913677215576171875">
        <ele>922.79998779296875</ele>
        <time>2026-06-16T06:20:05.000Z</time>
        <extensions>
          <ns3:TrackPointExtension>
            <ns3:atemp>18.0</ns3:atemp>
          </ns3:TrackPointExtension>
        </extensions>
      </trkpt>
      <trkpt lat="42.5964441709220409393310546875" lon="19.936658777296543121337890625">
        <ele>922.79998779296875</ele>
        <time>2026-06-16T06:20:06.000Z</time>
        <extensions>
          <ns3:TrackPointExtension>
            <ns3:atemp>18.0</ns3:atemp>
          </ns3:TrackPointExtension>
        </extensions>
      </trkpt>
      <trkpt lat="42.59647862054407596588134765625" lon="19.93666154332458972930908203125">
        <ele>923</ele>
        <time>2026-06-16T06:20:07.000Z</time>
        <extensions>
          <ns3:TrackPointExtension>
            <ns3:atemp>18.0</ns3:atemp>
          </ns3:TrackPointExtension>
        </extensions>
      </trkpt>
      <trkpt lat="42.59651348926126956939697265625" lon="19.9366679973900318145751953125">
        <ele>923.20001220703125</ele>
        <time>2026-06-16T06:20:08.000Z</time>
        <extensions>
          <ns3:TrackPointExtension>
            <ns3:atemp>18.0</ns3:atemp>
          </ns3:TrackPointExtension>
        </extensions>
      </trkpt>
      <trkpt lat="42.596547603607177734375" lon="19.936672188341617584228515625">
        <ele>923.20001220703125</ele>
        <time>2026-06-16T06:20:09.000Z</time>
        <extensions>
          <ns3:TrackPointExtension>
            <ns3:atemp>18.0</ns3:atemp>
          </ns3:TrackPointExtension>
        </extensions>
      </trkpt>
      <trkpt lat="42.5965809635818004608154296875" lon="19.93667847476899623870849609375">
        <ele>923.5999755859375</ele>
        <time>2026-06-16T06:20:10.000Z</time>
        <extensions>
          <ns3:TrackPointExtension>
            <ns3:atemp>18.0</ns3:atemp>
          </ns3:TrackPointExtension>
        </extensions>
      </trkpt>
      <trkpt lat="42.5966144911944866180419921875" lon="19.9366866052150726318359375">
        <ele>923.79998779296875</ele>
        <time>2026-06-16T06:20:11.000Z</time>
        <extensions>
          <ns3:TrackPointExtension>
            <ns3:atemp>18.0</ns3:atemp>
          </ns3:TrackPointExtension>
        </extensions>
      </trkpt>
      <trkpt lat="42.59664885699748992919921875" lon="19.93669129908084869384765625">
        <ele>924</ele>
        <time>2026-06-16T06:20:12.000Z</time>
        <extensions>
          <ns3:TrackPointExtension>
            <ns3:atemp>18.0</ns3:atemp>
          </ns3:TrackPointExtension>
        </extensions>
      </trkpt>
      <trkpt lat="42.59668682701885700225830078125" lon="19.9366978369653224945068359375">
        <ele>924.20001220703125</ele>
        <time>2026-06-16T06:20:13.000Z</time>
        <extensions>
          <ns3:TrackPointExtension>
            <ns3:atemp>18.0</ns3:atemp>
          </ns3:TrackPointExtension>
        </extensions>
      </trkpt>
      <trkpt lat="42.5967237912118434906005859375" lon="19.93670563213527202606201171875">
        <ele>924.4000244140625</ele>
        <time>2026-06-16T06:20:14.000Z</time>
        <extensions>
          <ns3:TrackPointExtension>
            <ns3:atemp>18.0</ns3:atemp>
          </ns3:TrackPointExtension>
        </extensions>
      </trkpt>
      <trkpt lat="42.59676259942352771759033203125" lon="19.93671636097133159637451171875">
        <ele>924.4000244140625</ele>
        <time>2026-06-16T06:20:15.000Z</time>
        <extensions>
          <ns3:TrackPointExtension>
            <ns3:atemp>18.0</ns3:atemp>
          </ns3:TrackPointExtension>
        </extensions>
      </trkpt>
      <trkpt lat="42.596800066530704498291015625" lon="19.93672977201640605926513671875">
        <ele>924.5999755859375</ele>
        <time>2026-06-16T06:20:16.000Z</time>
        <extensions>
          <ns3:TrackPointExtension>
            <ns3:atemp>18.0</ns3:atemp>
          </ns3:TrackPointExtension>
        </extensions>
      </trkpt>
      <trkpt lat="42.5968364439904689788818359375" lon="19.93674226105213165283203125">
        <ele>924.79998779296875</ele>
        <time>2026-06-16T06:20:17.000Z</time>
        <extensions>
          <ns3:TrackPointExtension>
            <ns3:atemp>18.0</ns3:atemp>
          </ns3:TrackPointExtension>
        </extensions>
      </trkpt>
      <trkpt lat="42.596872150897979736328125" lon="19.9367571808397769927978515625">
        <ele>925.20001220703125</ele>
        <time>2026-06-16T06:20:18.000Z</time>
        <extensions>
          <ns3:TrackPointExtension>
            <ns3:atemp>18.0</ns3:atemp>
          </ns3:TrackPointExtension>
        </extensions>
      </trkpt>
      <trkpt lat="42.59690903127193450927734375" lon="19.93677134625613689422607421875">
        <ele>925.4000244140625</ele>
        <time>2026-06-16T06:20:19.000Z</time>
        <extensions>
          <ns3:TrackPointExtension>
            <ns3:atemp>18.0</ns3:atemp>
          </ns3:TrackPointExtension>
        </extensions>
      </trkpt>
      <trkpt lat="42.596946246922016143798828125" lon="19.936781823635101318359375">
        <ele>925.5999755859375</ele>
        <time>2026-06-16T06:20:20.000Z</time>
        <extensions>
          <ns3:TrackPointExtension>
            <ns3:atemp>18.0</ns3:atemp>
          </ns3:TrackPointExtension>
        </extensions>
      </trkpt>
      <trkpt lat="42.59698354639112949371337890625" lon="19.93679079227149486541748046875">
        <ele>925.79998779296875</ele>
        <time>2026-06-16T06:20:21.000Z</time>
        <extensions>
          <ns3:TrackPointExtension>
            <ns3:atemp>18.0</ns3:atemp>
          </ns3:TrackPointExtension>
        </extensions>
      </trkpt>
      <trkpt lat="42.59702193550765514373779296875" lon="19.93679682724177837371826171875">
        <ele>926</ele>
        <time>2026-06-16T06:20:22.000Z</time>
        <extensions>
          <ns3:TrackPointExtension>
            <ns3:atemp>18.0</ns3:atemp>
          </ns3:TrackPointExtension>
        </extensions>
      </trkpt>
      <trkpt lat="42.597055546939373016357421875" lon="19.936798252165317535400390625">
        <ele>926.20001220703125</ele>
        <time>2026-06-16T06:20:23.000Z</time>
        <extensions>
          <ns3:TrackPointExtension>
            <ns3:atemp>18.0</ns3:atemp>
          </ns3:TrackPointExtension>
        </extensions>
      </trkpt>
      <trkpt lat="42.597088403999805450439453125" lon="19.9368057958781719207763671875">
        <ele>926.4000244140625</ele>
        <time>2026-06-16T06:20:24.000Z</time>
        <extensions>
          <ns3:TrackPointExtension>
            <ns3:atemp>18.0</ns3:atemp>
          </ns3:TrackPointExtension>
        </extensions>
      </trkpt>
      <trkpt lat="42.59711899794638156890869140625" lon="19.9368126690387725830078125">
        <ele>926.5999755859375</ele>
        <time>2026-06-16T06:20:25.000Z</time>
        <extensions>
          <ns3:TrackPointExtension>
            <ns3:atemp>18.0</ns3:atemp>
          </ns3:TrackPointExtension>
        </extensions>
      </trkpt>
      <trkpt lat="42.5971536152064800262451171875" lon="19.936819039285182952880859375">
        <ele>927</ele>
        <time>2026-06-16T06:20:26.000Z</time>
        <extensions>
          <ns3:TrackPointExtension>
            <ns3:atemp>18.0</ns3:atemp>
          </ns3:TrackPointExtension>
        </extensions>
      </trkpt>
      <trkpt lat="42.59719108231365680694580078125" lon="19.93682465516030788421630859375">
        <ele>927.20001220703125</ele>
        <time>2026-06-16T06:20:27.000Z</time>
        <extensions>
          <ns3:TrackPointExtension>
            <ns3:atemp>18.0</ns3:atemp>
          </ns3:TrackPointExtension>
        </extensions>
      </trkpt>
      <trkpt lat="42.59722963906824588775634765625" lon="19.93682716973125934600830078125">
        <ele>927.4000244140625</ele>
        <time>2026-06-16T06:20:28.000Z</time>
        <extensions>
          <ns3:TrackPointExtension>
            <ns3:atemp>18.0</ns3:atemp>
          </ns3:TrackPointExtension>
        </extensions>
      </trkpt>
      <trkpt lat="42.5972689501941204071044921875" lon="19.9368314445018768310546875">
        <ele>927.5999755859375</ele>
        <time>2026-06-16T06:20:29.000Z</time>
        <extensions>
          <ns3:TrackPointExtension>
            <ns3:atemp>18.0</ns3:atemp>
          </ns3:TrackPointExtension>
        </extensions>
      </trkpt>
      <trkpt lat="42.59730868041515350341796875" lon="19.9368386529386043548583984375">
        <ele>927.79998779296875</ele>
        <time>2026-06-16T06:20:30.000Z</time>
        <extensions>
          <ns3:TrackPointExtension>
            <ns3:atemp>18.0</ns3:atemp>
          </ns3:TrackPointExtension>
        </extensions>
      </trkpt>
      <trkpt lat="42.5973484106361865997314453125" lon="19.93684351444244384765625">
        <ele>928</ele>
        <time>2026-06-16T06:20:31.000Z</time>
        <extensions>
          <ns3:TrackPointExtension>
            <ns3:atemp>18.0</ns3:atemp>
          </ns3:TrackPointExtension>
        </extensions>
      </trkpt>
      <trkpt lat="42.59738646447658538818359375" lon="19.936850555241107940673828125">
        <ele>928</ele>
        <time>2026-06-16T06:20:32.000Z</time>
        <extensions>
          <ns3:TrackPointExtension>
            <ns3:atemp>18.0</ns3:atemp>
          </ns3:TrackPointExtension>
        </extensions>
      </trkpt>
      <trkpt lat="42.59742091409862041473388671875" lon="19.93685491383075714111328125">
        <ele>928.20001220703125</ele>
        <time>2026-06-16T06:20:33.000Z</time>
        <extensions>
          <ns3:TrackPointExtension>
            <ns3:atemp>18.0</ns3:atemp>
          </ns3:TrackPointExtension>
        </extensions>
      </trkpt>
      <trkpt lat="42.59745729155838489532470703125" lon="19.93686052970588207244873046875">
        <ele>928.4000244140625</ele>
        <time>2026-06-16T06:20:34.000Z</time>
        <extensions>
          <ns3:TrackPointExtension>
            <ns3:atemp>18.0</ns3:atemp>
          </ns3:TrackPointExtension>
        </extensions>
      </trkpt>
      <trkpt lat="42.59749375283718109130859375" lon="19.93686991743743419647216796875">
        <ele>928.4000244140625</ele>
        <time>2026-06-16T06:20:35.000Z</time>
        <extensions>
          <ns3:TrackPointExtension>
            <ns3:atemp>18.0</ns3:atemp>
          </ns3:TrackPointExtension>
        </extensions>
      </trkpt>
      <trkpt lat="42.59752954356372356414794921875" lon="19.936876036226749420166015625">
        <ele>928.5999755859375</ele>
        <time>2026-06-16T06:20:36.000Z</time>
        <extensions>
          <ns3:TrackPointExtension>
            <ns3:atemp>18.0</ns3:atemp>
          </ns3:TrackPointExtension>
        </extensions>
      </trkpt>
      <trkpt lat="42.59756390936672687530517578125" lon="19.93688014335930347442626953125">
        <ele>928.79998779296875</ele>
        <time>2026-06-16T06:20:37.000Z</time>
        <extensions>
          <ns3:TrackPointExtension>
            <ns3:atemp>18.0</ns3:atemp>
          </ns3:TrackPointExtension>
        </extensions>
      </trkpt>
      <trkpt lat="42.59760062210261821746826171875" lon="19.93688466958701610565185546875">
        <ele>929</ele>
        <time>2026-06-16T06:20:38.000Z</time>
        <extensions>
          <ns3:TrackPointExtension>
            <ns3:atemp>18.0</ns3:atemp>
          </ns3:TrackPointExtension>
        </extensions>
      </trkpt>
      <trkpt lat="42.59763465262949466705322265625" lon="19.93688701651990413665771484375">
        <ele>929.20001220703125</ele>
        <time>2026-06-16T06:20:39.000Z</time>
        <extensions>
          <ns3:TrackPointExtension>
            <ns3:atemp>18.0</ns3:atemp>
          </ns3:TrackPointExtension>
        </extensions>
      </trkpt>
      <trkpt lat="42.59766943752765655517578125" lon="19.93688634596765041351318359375">
        <ele>929.5999755859375</ele>
        <time>2026-06-16T06:20:40.000Z</time>
        <extensions>
          <ns3:TrackPointExtension>
            <ns3:atemp>18.0</ns3:atemp>
          </ns3:TrackPointExtension>
        </extensions>
      </trkpt>
      <trkpt lat="42.597704641520977020263671875" lon="19.936885423958301544189453125">
        <ele>929.79998779296875</ele>
        <time>2026-06-16T06:20:41.000Z</time>
        <extensions>
          <ns3:TrackPointExtension>
            <ns3:atemp>18.0</ns3:atemp>
          </ns3:TrackPointExtension>
        </extensions>
      </trkpt>
      <trkpt lat="42.5977410189807415008544921875" lon="19.936884082853794097900390625">
        <ele>930.20001220703125</ele>
        <time>2026-06-16T06:20:42.000Z</time>
        <extensions>
          <ns3:TrackPointExtension>
            <ns3:atemp>18.0</ns3:atemp>
          </ns3:TrackPointExtension>
        </extensions>
      </trkpt>
      <trkpt lat="42.59777764789760112762451171875" lon="19.9368832446634769439697265625">
        <ele>930.4000244140625</ele>
        <time>2026-06-16T06:20:43.000Z</time>
        <extensions>
          <ns3:TrackPointExtension>
            <ns3:atemp>18.0</ns3:atemp>
          </ns3:TrackPointExtension>
        </extensions>
      </trkpt>
      <trkpt lat="42.597814612090587615966796875" lon="19.93687729351222515106201171875">
        <ele>930.5999755859375</ele>
        <time>2026-06-16T06:20:44.000Z</time>
        <extensions>
          <ns3:TrackPointExtension>
            <ns3:atemp>18.0</ns3:atemp>
          </ns3:TrackPointExtension>
        </extensions>
      </trkpt>
      <trkpt lat="42.59784805588424205780029296875" lon="19.93687092326581478118896484375">
        <ele>930.79998779296875</ele>
        <time>2026-06-16T06:20:45.000Z</time>
        <extensions>
          <ns3:TrackPointExtension>
            <ns3:atemp>18.0</ns3:atemp>
          </ns3:TrackPointExtension>
        </extensions>
      </trkpt>
      <trkpt lat="42.59788074530661106109619140625" lon="19.93686187081038951873779296875">
        <ele>931</ele>
        <time>2026-06-16T06:20:46.000Z</time>
        <extensions>
          <ns3:TrackPointExtension>
            <ns3:atemp>18.0</ns3:atemp>
          </ns3:TrackPointExtension>
        </extensions>
      </trkpt>
      <trkpt lat="42.59791360236704349517822265625" lon="19.936850555241107940673828125">
        <ele>931.20001220703125</ele>
        <time>2026-06-16T06:20:47.000Z</time>
        <extensions>
          <ns3:TrackPointExtension>
            <ns3:atemp>18.0</ns3:atemp>
          </ns3:TrackPointExtension>
        </extensions>
      </trkpt>
      <trkpt lat="42.59794545359909534454345703125" lon="19.9368386529386043548583984375">
        <ele>931.4000244140625</ele>
        <time>2026-06-16T06:20:48.000Z</time>
        <extensions>
          <ns3:TrackPointExtension>
            <ns3:atemp>18.0</ns3:atemp>
          </ns3:TrackPointExtension>
        </extensions>
      </trkpt>
      <trkpt lat="42.5979773886501789093017578125" lon="19.93682943284511566162109375">
        <ele>931.5999755859375</ele>
        <time>2026-06-16T06:20:49.000Z</time>
        <extensions>
          <ns3:TrackPointExtension>
            <ns3:atemp>18.0</ns3:atemp>
          </ns3:TrackPointExtension>
        </extensions>
      </trkpt>
      <trkpt lat="42.59801133535802364349365234375" lon="19.936821050941944122314453125">
        <ele>931.79998779296875</ele>
        <time>2026-06-16T06:20:50.000Z</time>
        <extensions>
          <ns3:TrackPointExtension>
            <ns3:atemp>18.0</ns3:atemp>
          </ns3:TrackPointExtension>
        </extensions>
      </trkpt>
      <trkpt lat="42.5980427674949169158935546875" lon="19.93680931627750396728515625">
        <ele>932.20001220703125</ele>
        <time>2026-06-16T06:20:51.000Z</time>
        <extensions>
          <ns3:TrackPointExtension>
            <ns3:atemp>18.0</ns3:atemp>
          </ns3:TrackPointExtension>
        </extensions>
      </trkpt>
      <trkpt lat="42.5980716012418270111083984375" lon="19.9367950670421123504638671875">
        <ele>932.5999755859375</ele>
        <time>2026-06-16T06:20:52.000Z</time>
        <extensions>
          <ns3:TrackPointExtension>
            <ns3:atemp>18.0</ns3:atemp>
          </ns3:TrackPointExtension>
        </extensions>
      </trkpt>
      <trkpt lat="42.5980992615222930908203125" lon="19.93678039871156215667724609375">
        <ele>933</ele>
        <time>2026-06-16T06:20:53.000Z</time>
        <extensions>
          <ns3:TrackPointExtension>
            <ns3:atemp>18.0</ns3:atemp>
          </ns3:TrackPointExtension>
        </extensions>
      </trkpt>
      <trkpt lat="42.59812952019274234771728515625" lon="19.93676648475229740142822265625">
        <ele>933.20001220703125</ele>
        <time>2026-06-16T06:20:54.000Z</time>
        <extensions>
          <ns3:TrackPointExtension>
            <ns3:atemp>18.0</ns3:atemp>
          </ns3:TrackPointExtension>
        </extensions>
      </trkpt>
      <trkpt lat="42.59816103614866733551025390625" lon="19.93675374425947666168212890625">
        <ele>933.5999755859375</ele>
        <time>2026-06-16T06:20:55.000Z</time>
        <extensions>
          <ns3:TrackPointExtension>
            <ns3:atemp>18.0</ns3:atemp>
          </ns3:TrackPointExtension>
        </extensions>
      </trkpt>
      <trkpt lat="42.5981939770281314849853515625" lon="19.936744607985019683837890625">
        <ele>933.79998779296875</ele>
        <time>2026-06-16T06:20:56.000Z</time>
        <extensions>
          <ns3:TrackPointExtension>
            <ns3:atemp>18.0</ns3:atemp>
          </ns3:TrackPointExtension>
        </extensions>
      </trkpt>
      <trkpt lat="42.59822859428822994232177734375" lon="19.93673547171056270599365234375">
        <ele>934</ele>
        <time>2026-06-16T06:20:57.000Z</time>
        <extensions>
          <ns3:TrackPointExtension>
            <ns3:atemp>18.0</ns3:atemp>
          </ns3:TrackPointExtension>
        </extensions>
      </trkpt>
      <trkpt lat="42.59826145134866237640380859375" lon="19.93672675453126430511474609375">
        <ele>934.20001220703125</ele>
        <time>2026-06-16T06:20:58.000Z</time>
        <extensions>
          <ns3:TrackPointExtension>
            <ns3:atemp>18.0</ns3:atemp>
          </ns3:TrackPointExtension>
        </extensions>
      </trkpt>
      <trkpt lat="42.59829497896134853363037109375" lon="19.9367209710180759429931640625">
        <ele>934.4000244140625</ele>
        <time>2026-06-16T06:20:59.000Z</time>
        <extensions>
          <ns3:TrackPointExtension>
            <ns3:atemp>18.0</ns3:atemp>
          </ns3:TrackPointExtension>
        </extensions>
      </trkpt>
      <trkpt lat="42.59832733310759067535400390625" lon="19.9367119185626506805419921875">
        <ele>934.79998779296875</ele>
        <time>2026-06-16T06:21:00.000Z</time>
        <extensions>
          <ns3:TrackPointExtension>
            <ns3:atemp>18.0</ns3:atemp>
          </ns3:TrackPointExtension>
        </extensions>
      </trkpt>
      <trkpt lat="42.5983589328825473785400390625" lon="19.936699010431766510009765625">
        <ele>935</ele>
        <time>2026-06-16T06:21:01.000Z</time>
        <extensions>
          <ns3:TrackPointExtension>
            <ns3:atemp>18.0</ns3:atemp>
          </ns3:TrackPointExtension>
        </extensions>
      </trkpt>
      <trkpt lat="42.59839120320975780487060546875" lon="19.93668719194829463958740234375">
        <ele>935.20001220703125</ele>
        <time>2026-06-16T06:21:02.000Z</time>
        <extensions>
          <ns3:TrackPointExtension>
            <ns3:atemp>18.0</ns3:atemp>
          </ns3:TrackPointExtension>
        </extensions>
      </trkpt>
      <trkpt lat="42.59842104278504848480224609375" lon="19.93668015114963054656982421875">
        <ele>935.4000244140625</ele>
        <time>2026-06-16T06:21:03.000Z</time>
        <extensions>
          <ns3:TrackPointExtension>
            <ns3:atemp>18.0</ns3:atemp>
          </ns3:TrackPointExtension>
        </extensions>
      </trkpt>
      <trkpt lat="42.5984511338174343109130859375" lon="19.9366770498454570770263671875">
        <ele>935.5999755859375</ele>
        <time>2026-06-16T06:21:04.000Z</time>
        <extensions>
          <ns3:TrackPointExtension>
            <ns3:atemp>18.0</ns3:atemp>
          </ns3:TrackPointExtension>
        </extensions>
      </trkpt>
      <trkpt lat="42.59847812354564666748046875" lon="19.9366812407970428466796875">
        <ele>935.79998779296875</ele>
        <time>2026-06-16T06:21:05.000Z</time>
        <extensions>
          <ns3:TrackPointExtension>
            <ns3:atemp>18.0</ns3:atemp>
          </ns3:TrackPointExtension>
        </extensions>
      </trkpt>
      <trkpt lat="42.59850804693996906280517578125" lon="19.93669331073760986328125">
        <ele>936</ele>
        <time>2026-06-16T06:21:06.000Z</time>
        <extensions>
          <ns3:TrackPointExtension>
            <ns3:atemp>18.0</ns3:atemp>
          </ns3:TrackPointExtension>
        </extensions>
      </trkpt>
      <trkpt lat="42.5985356234014034271240234375" lon="19.9367139302194118499755859375">
        <ele>936</ele>
        <time>2026-06-16T06:21:07.000Z</time>
        <extensions>
          <ns3:TrackPointExtension>
            <ns3:atemp>18.0</ns3:atemp>
          </ns3:TrackPointExtension>
        </extensions>
      </trkpt>
      <trkpt lat="42.598562948405742645263671875" lon="19.93673614226281642913818359375">
        <ele>936.20001220703125</ele>
        <time>2026-06-16T06:21:08.000Z</time>
        <extensions>
          <ns3:TrackPointExtension>
            <ns3:atemp>18.0</ns3:atemp>
          </ns3:TrackPointExtension>
        </extensions>
      </trkpt>
      <trkpt lat="42.5985869206488132476806640625" lon="19.93675843812525272369384765625">
        <ele>936.4000244140625</ele>
        <time>2026-06-16T06:21:09.000Z</time>
        <extensions>
          <ns3:TrackPointExtension>
            <ns3:atemp>18.0</ns3:atemp>
          </ns3:TrackPointExtension>
        </extensions>
      </trkpt>
      <trkpt lat="42.59860913269221782684326171875" lon="19.936785511672496795654296875">
        <ele>936.79998779296875</ele>
        <time>2026-06-16T06:21:10.000Z</time>
        <extensions>
          <ns3:TrackPointExtension>
            <ns3:atemp>18.0</ns3:atemp>
          </ns3:TrackPointExtension>
        </extensions>
      </trkpt>
      <trkpt lat="42.59862237609922885894775390625" lon="19.93681744672358036041259765625">
        <ele>937</ele>
        <time>2026-06-16T06:21:11.000Z</time>
        <extensions>
          <ns3:TrackPointExtension>
            <ns3:atemp>18.0</ns3:atemp>
          </ns3:TrackPointExtension>
        </extensions>
      </trkpt>
      <trkpt lat="42.59864039719104766845703125" lon="19.9368490464985370635986328125">
        <ele>937.20001220703125</ele>
        <time>2026-06-16T06:21:12.000Z</time>
        <extensions>
          <ns3:TrackPointExtension>
            <ns3:atemp>18.0</ns3:atemp>
          </ns3:TrackPointExtension>
        </extensions>
      </trkpt>
      <trkpt lat="42.5986606813967227935791015625" lon="19.936884082853794097900390625">
        <ele>937.4000244140625</ele>
        <time>2026-06-16T06:21:13.000Z</time>
        <extensions>
          <ns3:TrackPointExtension>
            <ns3:atemp>18.0</ns3:atemp>
          </ns3:TrackPointExtension>
        </extensions>
      </trkpt>
      <trkpt lat="42.598684318363666534423828125" lon="19.93691149167716503143310546875">
        <ele>937.5999755859375</ele>
        <time>2026-06-16T06:21:14.000Z</time>
        <extensions>
          <ns3:TrackPointExtension>
            <ns3:atemp>18.0</ns3:atemp>
          </ns3:TrackPointExtension>
        </extensions>
      </trkpt>
      <trkpt lat="42.59870669804513454437255859375" lon="19.93693931959569454193115234375">
        <ele>937.79998779296875</ele>
        <time>2026-06-16T06:21:15.000Z</time>
        <extensions>
          <ns3:TrackPointExtension>
            <ns3:atemp>18.0</ns3:atemp>
          </ns3:TrackPointExtension>
        </extensions>
      </trkpt>
      <trkpt lat="42.5987297482788562774658203125" lon="19.93696681223809719085693359375">
        <ele>937.79998779296875</ele>
        <time>2026-06-16T06:21:16.000Z</time>
        <extensions>
          <ns3:TrackPointExtension>
            <ns3:atemp>18.0</ns3:atemp>
          </ns3:TrackPointExtension>
        </extensions>
      </trkpt>
      <trkpt lat="42.59875564835965633392333984375" lon="19.9369871802628040313720703125">
        <ele>938</ele>
        <time>2026-06-16T06:21:17.000Z</time>
        <extensions>
          <ns3:TrackPointExtension>
            <ns3:atemp>18.0</ns3:atemp>
          </ns3:TrackPointExtension>
        </extensions>
      </trkpt>
      <trkpt lat="42.5987837277352809906005859375" lon="19.93700352497398853302001953125">
        <ele>938.20001220703125</ele>
        <time>2026-06-16T06:21:18.000Z</time>
        <extensions>
          <ns3:TrackPointExtension>
            <ns3:atemp>18.0</ns3:atemp>
          </ns3:TrackPointExtension>
        </extensions>
      </trkpt>
      <trkpt lat="42.598812393844127655029296875" lon="19.93701475672423839569091796875">
        <ele>938.20001220703125</ele>
        <time>2026-06-16T06:21:19.000Z</time>
        <extensions>
          <ns3:TrackPointExtension>
            <ns3:atemp>18.0</ns3:atemp>
          </ns3:TrackPointExtension>
        </extensions>
      </trkpt>
      <trkpt lat="42.59884349070489406585693359375" lon="19.93702531792223453521728515625">
        <ele>938.20001220703125</ele>
        <time>2026-06-16T06:21:20.000Z</time>
        <extensions>
          <ns3:TrackPointExtension>
            <ns3:atemp>18.0</ns3:atemp>
          </ns3:TrackPointExtension>
        </extensions>
      </trkpt>
      <trkpt lat="42.5988759286701679229736328125" lon="19.93702925741672515869140625">
        <ele>938.20001220703125</ele>
        <time>2026-06-16T06:21:21.000Z</time>
        <extensions>
          <ns3:TrackPointExtension>
            <ns3:atemp>18.0</ns3:atemp>
          </ns3:TrackPointExtension>
        </extensions>
      </trkpt>
      <trkpt lat="42.5989124737679958343505859375" lon="19.9370299279689788818359375">
        <ele>938.20001220703125</ele>
        <time>2026-06-16T06:21:22.000Z</time>
        <extensions>
          <ns3:TrackPointExtension>
            <ns3:atemp>18.0</ns3:atemp>
          </ns3:TrackPointExtension>
        </extensions>
      </trkpt>
      <trkpt lat="42.59894910268485546112060546875" lon="19.9370257370173931121826171875">
        <ele>938.20001220703125</ele>
        <time>2026-06-16T06:21:23.000Z</time>
        <extensions>
          <ns3:TrackPointExtension>
            <ns3:atemp>18.0</ns3:atemp>
          </ns3:TrackPointExtension>
        </extensions>
      </trkpt>
      <trkpt lat="42.598985396325588226318359375" lon="19.93702095933258533477783203125">
        <ele>938.20001220703125</ele>
        <time>2026-06-16T06:21:24.000Z</time>
        <extensions>
          <ns3:TrackPointExtension>
            <ns3:atemp>18.0</ns3:atemp>
          </ns3:TrackPointExtension>
        </extensions>
      </trkpt>
      <trkpt lat="42.59902286343276500701904296875" lon="19.93701718747615814208984375">
        <ele>938.4000244140625</ele>
        <time>2026-06-16T06:21:25.000Z</time>
        <extensions>
          <ns3:TrackPointExtension>
            <ns3:atemp>18.0</ns3:atemp>
          </ns3:TrackPointExtension>
        </extensions>
      </trkpt>
      <trkpt lat="42.5990593247115612030029296875" lon="19.93701308034360408782958984375">
        <ele>938.4000244140625</ele>
        <time>2026-06-16T06:21:26.000Z</time>
        <extensions>
          <ns3:TrackPointExtension>
            <ns3:atemp>18.0</ns3:atemp>
          </ns3:TrackPointExtension>
        </extensions>
      </trkpt>
      <trkpt lat="42.5990992225706577301025390625" lon="19.9370031058788299560546875">
        <ele>938.5999755859375</ele>
        <time>2026-06-16T06:21:27.000Z</time>
        <extensions>
          <ns3:TrackPointExtension>
            <ns3:atemp>18.0</ns3:atemp>
          </ns3:TrackPointExtension>
        </extensions>
      </trkpt>
      <trkpt lat="42.59913836605846881866455078125" lon="19.936993382871150970458984375">
        <ele>938.5999755859375</ele>
        <time>2026-06-16T06:21:28.000Z</time>
        <extensions>
          <ns3:TrackPointExtension>
            <ns3:atemp>18.0</ns3:atemp>
          </ns3:TrackPointExtension>
        </extensions>
      </trkpt>
      <trkpt lat="42.59917407296597957611083984375" lon="19.9369851686060428619384765625">
        <ele>938.79998779296875</ele>
        <time>2026-06-16T06:21:29.000Z</time>
        <extensions>
          <ns3:TrackPointExtension>
            <ns3:atemp>18.0</ns3:atemp>
          </ns3:TrackPointExtension>
        </extensions>
      </trkpt>
      <trkpt lat="42.599210701882839202880859375" lon="19.93697335012257099151611328125">
        <ele>939</ele>
        <time>2026-06-16T06:21:30.000Z</time>
        <extensions>
          <ns3:TrackPointExtension>
            <ns3:atemp>18.0</ns3:atemp>
          </ns3:TrackPointExtension>
        </extensions>
      </trkpt>
      <trkpt lat="42.5992464087903499603271484375" lon="19.9369616992771625518798828125">
        <ele>939</ele>
        <time>2026-06-16T06:21:31.000Z</time>
        <extensions>
          <ns3:TrackPointExtension>
            <ns3:atemp>18.0</ns3:atemp>
          </ns3:TrackPointExtension>
        </extensions>
      </trkpt>
      <trkpt lat="42.5992749072611331939697265625" lon="19.9369536526501178741455078125">
        <ele>939</ele>
        <time>2026-06-16T06:21:32.000Z</time>
        <extensions>
          <ns3:TrackPointExtension>
            <ns3:atemp>18.0</ns3:atemp>
          </ns3:TrackPointExtension>
        </extensions>
      </trkpt>
      <trkpt lat="42.599304579198360443115234375" lon="19.93694636039435863494873046875">
        <ele>939.20001220703125</ele>
        <time>2026-06-16T06:21:33.000Z</time>
        <extensions>
          <ns3:TrackPointExtension>
            <ns3:atemp>18.0</ns3:atemp>
          </ns3:TrackPointExtension>
        </extensions>
      </trkpt>
      <trkpt lat="42.5993349216878414154052734375" lon="19.93694283999502658843994140625">
        <ele>939.20001220703125</ele>
        <time>2026-06-16T06:21:34.000Z</time>
        <extensions>
          <ns3:TrackPointExtension>
            <ns3:atemp>18.0</ns3:atemp>
          </ns3:TrackPointExtension>
        </extensions>
      </trkpt>
      <trkpt lat="42.59935881011188030242919921875" lon="19.93694367818534374237060546875">
        <ele>939.4000244140625</ele>
        <time>2026-06-16T06:21:35.000Z</time>
        <extensions>
          <ns3:TrackPointExtension>
            <ns3:atemp>18.0</ns3:atemp>
          </ns3:TrackPointExtension>
        </extensions>
      </trkpt>
      <trkpt lat="42.5993840396404266357421875" lon="19.9369502998888492584228515625">
        <ele>939.4000244140625</ele>
        <time>2026-06-16T06:21:36.000Z</time>
        <extensions>
          <ns3:TrackPointExtension>
            <ns3:atemp>18.0</ns3:atemp>
          </ns3:TrackPointExtension>
        </extensions>
      </trkpt>
      <trkpt lat="42.59940407238900661468505859375" lon="19.93696153163909912109375">
        <ele>939.4000244140625</ele>
        <time>2026-06-16T06:21:37.000Z</time>
        <extensions>
          <ns3:TrackPointExtension>
            <ns3:atemp>18.0</ns3:atemp>
          </ns3:TrackPointExtension>
        </extensions>
      </trkpt>
      <trkpt lat="42.59941664524376392364501953125" lon="19.93697083555161952972412109375">
        <ele>939.4000244140625</ele>
        <time>2026-06-16T06:21:38.000Z</time>
        <extensions>
          <ns3:TrackPointExtension>
            <ns3:atemp>18.0</ns3:atemp>
          </ns3:TrackPointExtension>
        </extensions>
      </trkpt>
      <trkpt lat="42.59942854754626750946044921875" lon="19.93697703815996646881103515625">
        <ele>939.4000244140625</ele>
        <time>2026-06-16T06:21:39.000Z</time>
        <extensions>
          <ns3:TrackPointExtension>
            <ns3:atemp>18.0</ns3:atemp>
          </ns3:TrackPointExtension>
        </extensions>
      </trkpt>
      <trkpt lat="42.5994452275335788726806640625" lon="19.9369801394641399383544921875">
        <ele>939.4000244140625</ele>
        <time>2026-06-16T06:21:40.000Z</time>
        <extensions>
          <ns3:TrackPointExtension>
            <ns3:atemp>18.0</ns3:atemp>
          </ns3:TrackPointExtension>
        </extensions>
      </trkpt>
      <trkpt lat="42.5994636677205562591552734375" lon="19.936976619064807891845703125">
        <ele>939.5999755859375</ele>
        <time>2026-06-16T06:21:41.000Z</time>
        <extensions>
          <ns3:TrackPointExtension>
            <ns3:atemp>18.0</ns3:atemp>
          </ns3:TrackPointExtension>
        </extensions>
      </trkpt>
      <trkpt lat="42.59948923252522945404052734375" lon="19.93696899153292179107666015625">
        <ele>939.5999755859375</ele>
        <time>2026-06-16T06:21:42.000Z</time>
        <extensions>
          <ns3:TrackPointExtension>
            <ns3:atemp>18.0</ns3:atemp>
          </ns3:TrackPointExtension>
        </extensions>
      </trkpt>
      <trkpt lat="42.59951806627213954925537109375" lon="19.936954490840435028076171875">
        <ele>939.4000244140625</ele>
        <time>2026-06-16T06:21:43.000Z</time>
        <extensions>
          <ns3:TrackPointExtension>
            <ns3:atemp>18.0</ns3:atemp>
          </ns3:TrackPointExtension>
        </extensions>
      </trkpt>
      <trkpt lat="42.59954430162906646728515625" lon="19.93693244643509387969970703125">
        <ele>939.4000244140625</ele>
        <time>2026-06-16T06:21:44.000Z</time>
        <extensions>
          <ns3:TrackPointExtension>
            <ns3:atemp>18.0</ns3:atemp>
          </ns3:TrackPointExtension>
        </extensions>
      </trkpt>
      <trkpt lat="42.5995722971856594085693359375" lon="19.93690595962107181549072265625">
        <ele>939.4000244140625</ele>
        <time>2026-06-16T06:21:45.000Z</time>
        <extensions>
          <ns3:TrackPointExtension>
            <ns3:atemp>18.0</ns3:atemp>
          </ns3:TrackPointExtension>
        </extensions>
      </trkpt>
      <trkpt lat="42.59959886781871318817138671875" lon="19.93687259964644908905029296875">
        <ele>939.4000244140625</ele>
        <time>2026-06-16T06:21:46.000Z</time>
        <extensions>
          <ns3:TrackPointExtension>
            <ns3:atemp>18.0</ns3:atemp>
          </ns3:TrackPointExtension>
        </extensions>
      </trkpt>
      <trkpt lat="42.5996296294033527374267578125" lon="19.93683907203376293182373046875">
        <ele>939.4000244140625</ele>
        <time>2026-06-16T06:21:47.000Z</time>
        <extensions>
          <ns3:TrackPointExtension>
            <ns3:atemp>18.0</ns3:atemp>
          </ns3:TrackPointExtension>
        </extensions>
      </trkpt>
      <trkpt lat="42.59965720586478710174560546875" lon="19.93680235929787158966064453125">
        <ele>939.5999755859375</ele>
        <time>2026-06-16T06:21:48.000Z</time>
        <extensions>
          <ns3:TrackPointExtension>
            <ns3:atemp>18.0</ns3:atemp>
          </ns3:TrackPointExtension>
        </extensions>
      </trkpt>
      <trkpt lat="42.59968352504074573516845703125" lon="19.93676614947617053985595703125">
        <ele>939.79998779296875</ele>
        <time>2026-06-16T06:21:49.000Z</time>
        <extensions>
          <ns3:TrackPointExtension>
            <ns3:atemp>18.0</ns3:atemp>
          </ns3:TrackPointExtension>
        </extensions>
      </trkpt>
      <trkpt lat="42.59971017949283123016357421875" lon="19.93672390468418598175048828125">
        <ele>939.79998779296875</ele>
        <time>2026-06-16T06:21:50.000Z</time>
        <extensions>
          <ns3:TrackPointExtension>
            <ns3:atemp>18.0</ns3:atemp>
          </ns3:TrackPointExtension>
        </extensions>
      </trkpt>
      <trkpt lat="42.599735744297504425048828125" lon="19.9366760440170764923095703125">
        <ele>940</ele>
        <time>2026-06-16T06:21:51.000Z</time>
        <extensions>
          <ns3:TrackPointExtension>
            <ns3:atemp>18.0</ns3:atemp>
          </ns3:TrackPointExtension>
        </extensions>
      </trkpt>
      <trkpt lat="42.5997637398540973663330078125" lon="19.93662902154028415679931640625">
        <ele>940</ele>
        <time>2026-06-16T06:21:52.000Z</time>
        <extensions>
          <ns3:TrackPointExtension>
            <ns3:atemp>18.0</ns3:atemp>
          </ns3:TrackPointExtension>
        </extensions>
      </trkpt>
      <trkpt lat="42.599793411791324615478515625" lon="19.93658401072025299072265625">
        <ele>940</ele>
        <time>2026-06-16T06:21:53.000Z</time>
        <extensions>
          <ns3:TrackPointExtension>
            <ns3:atemp>18.0</ns3:atemp>
          </ns3:TrackPointExtension>
        </extensions>
      </trkpt>
      <trkpt lat="42.59982517920434474945068359375" lon="19.93653665296733379364013671875">
        <ele>940.20001220703125</ele>
        <time>2026-06-16T06:21:54.000Z</time>
        <extensions>
          <ns3:TrackPointExtension>
            <ns3:atemp>18.0</ns3:atemp>
          </ns3:TrackPointExtension>
        </extensions>
      </trkpt>
      <trkpt lat="42.59985501877963542938232421875" lon="19.9364908039569854736328125">
        <ele>940.20001220703125</ele>
        <time>2026-06-16T06:21:55.000Z</time>
        <extensions>
          <ns3:TrackPointExtension>
            <ns3:atemp>18.0</ns3:atemp>
          </ns3:TrackPointExtension>
        </extensions>
      </trkpt>
      <trkpt lat="42.5998844392597675323486328125" lon="19.93643992580473423004150390625">
        <ele>940.20001220703125</ele>
        <time>2026-06-16T06:21:56.000Z</time>
        <extensions>
          <ns3:TrackPointExtension>
            <ns3:atemp>18.0</ns3:atemp>
          </ns3:TrackPointExtension>
        </extensions>
      </trkpt>
      <trkpt lat="42.5999149493873119354248046875" lon="19.93638846091926097869873046875">
        <ele>940.4000244140625</ele>
        <time>2026-06-16T06:21:57.000Z</time>
        <extensions>
          <ns3:TrackPointExtension>
            <ns3:atemp>18.0</ns3:atemp>
          </ns3:TrackPointExtension>
        </extensions>
      </trkpt>
      <trkpt lat="42.59994369931519031524658203125" lon="19.9363360740244388580322265625">
        <ele>940.4000244140625</ele>
        <time>2026-06-16T06:21:58.000Z</time>
        <extensions>
          <ns3:TrackPointExtension>
            <ns3:atemp>18.0</ns3:atemp>
          </ns3:TrackPointExtension>
        </extensions>
      </trkpt>
      <trkpt lat="42.59997068904340267181396484375" lon="19.93628804571926593780517578125">
        <ele>940.4000244140625</ele>
        <time>2026-06-16T06:21:59.000Z</time>
        <extensions>
          <ns3:TrackPointExtension>
            <ns3:atemp>18.0</ns3:atemp>
          </ns3:TrackPointExtension>
        </extensions>
      </trkpt>
      <trkpt lat="42.600001282989978790283203125" lon="19.9362440407276153564453125">
        <ele>940.4000244140625</ele>
        <time>2026-06-16T06:22:00.000Z</time>
        <extensions>
          <ns3:TrackPointExtension>
            <ns3:atemp>18.0</ns3:atemp>
          </ns3:TrackPointExtension>
        </extensions>
      </trkpt>
      <trkpt lat="42.60003237985074520111083984375" lon="19.9361965991556644439697265625">
        <ele>940.4000244140625</ele>
        <time>2026-06-16T06:22:01.000Z</time>
        <extensions>
          <ns3:TrackPointExtension>
            <ns3:atemp>18.0</ns3:atemp>
          </ns3:TrackPointExtension>
        </extensions>
      </trkpt>
      <trkpt lat="42.60006733238697052001953125" lon="19.93614505045115947723388671875">
        <ele>940.4000244140625</ele>
        <time>2026-06-16T06:22:02.000Z</time>
        <extensions>
          <ns3:TrackPointExtension>
            <ns3:atemp>18.0</ns3:atemp>
          </ns3:TrackPointExtension>
        </extensions>
      </trkpt>
      <trkpt lat="42.6001020334661006927490234375" lon="19.93609459139406681060791015625">
        <ele>940.4000244140625</ele>
        <time>2026-06-16T06:22:03.000Z</time>
        <extensions>
          <ns3:TrackPointExtension>
            <ns3:atemp>18.0</ns3:atemp>
          </ns3:TrackPointExtension>
        </extensions>
      </trkpt>
      <trkpt lat="42.6001389138400554656982421875" lon="19.936045221984386444091796875">
        <ele>940.20001220703125</ele>
        <time>2026-06-16T06:22:04.000Z</time>
        <extensions>
          <ns3:TrackPointExtension>
            <ns3:atemp>18.0</ns3:atemp>
          </ns3:TrackPointExtension>
        </extensions>
      </trkpt>
      <trkpt lat="42.60017772205173969268798828125" lon="19.93599870242178440093994140625">
        <ele>940.20001220703125</ele>
        <time>2026-06-16T06:22:05.000Z</time>
        <extensions>
          <ns3:TrackPointExtension>
            <ns3:atemp>18.0</ns3:atemp>
          </ns3:TrackPointExtension>
        </extensions>
      </trkpt>
      <trkpt lat="42.60022080503404140472412109375" lon="19.9359562061727046966552734375">
        <ele>940.20001220703125</ele>
        <time>2026-06-16T06:22:06.000Z</time>
        <extensions>
          <ns3:TrackPointExtension>
            <ns3:atemp>18.0</ns3:atemp>
          </ns3:TrackPointExtension>
        </extensions>
      </trkpt>
      <trkpt lat="42.6002646423876285552978515625" lon="19.9359176494181156158447265625">
        <ele>940</ele>
        <time>2026-06-16T06:22:07.000Z</time>
        <extensions>
          <ns3:TrackPointExtension>
            <ns3:atemp>18.0</ns3:atemp>
          </ns3:TrackPointExtension>
        </extensions>
      </trkpt>
      <trkpt lat="42.6003095693886280059814453125" lon="19.9358834512531757354736328125">
        <ele>939.79998779296875</ele>
        <time>2026-06-16T06:22:08.000Z</time>
        <extensions>
          <ns3:TrackPointExtension>
            <ns3:atemp>18.0</ns3:atemp>
          </ns3:TrackPointExtension>
        </extensions>
      </trkpt>
      <trkpt lat="42.60035441257059574127197265625" lon="19.9358539469540119171142578125">
        <ele>939.79998779296875</ele>
        <time>2026-06-16T06:22:09.000Z</time>
        <extensions>
          <ns3:TrackPointExtension>
            <ns3:atemp>18.0</ns3:atemp>
          </ns3:TrackPointExtension>
        </extensions>
      </trkpt>
      <trkpt lat="42.6004014350473880767822265625" lon="19.93582134135067462921142578125">
        <ele>939.5999755859375</ele>
        <time>2026-06-16T06:22:10.000Z</time>
        <extensions>
          <ns3:TrackPointExtension>
            <ns3:atemp>18.0</ns3:atemp>
          </ns3:TrackPointExtension>
        </extensions>
      </trkpt>
      <trkpt lat="42.6004477031528949737548828125" lon="19.93579284287989139556884765625">
        <ele>939.5999755859375</ele>
        <time>2026-06-16T06:22:11.000Z</time>
        <extensions>
          <ns3:TrackPointExtension>
            <ns3:atemp>18.0</ns3:atemp>
          </ns3:TrackPointExtension>
        </extensions>
      </trkpt>
      <trkpt lat="42.60049338452517986297607421875" lon="19.93576300330460071563720703125">
        <ele>939.4000244140625</ele>
        <time>2026-06-16T06:22:12.000Z</time>
        <extensions>
          <ns3:TrackPointExtension>
            <ns3:atemp>18.0</ns3:atemp>
          </ns3:TrackPointExtension>
        </extensions>
      </trkpt>
      <trkpt lat="42.600540407001972198486328125" lon="19.9357339181005954742431640625">
        <ele>939.4000244140625</ele>
        <time>2026-06-16T06:22:13.000Z</time>
        <extensions>
          <ns3:TrackPointExtension>
            <ns3:atemp>18.0</ns3:atemp>
          </ns3:TrackPointExtension>
        </extensions>
      </trkpt>
      <trkpt lat="42.6005895249545574188232421875" lon="19.93570734746754169464111328125">
        <ele>939.20001220703125</ele>
        <time>2026-06-16T06:22:14.000Z</time>
        <extensions>
          <ns3:TrackPointExtension>
            <ns3:atemp>18.0</ns3:atemp>
          </ns3:TrackPointExtension>
        </extensions>
      </trkpt>
      <trkpt lat="42.60063956491649150848388671875" lon="19.93567968718707561492919921875">
        <ele>939</ele>
        <time>2026-06-16T06:22:15.000Z</time>
        <extensions>
          <ns3:TrackPointExtension>
            <ns3:atemp>18.0</ns3:atemp>
          </ns3:TrackPointExtension>
        </extensions>
      </trkpt>
      <trkpt lat="42.6006891019642353057861328125" lon="19.9356485903263092041015625">
        <ele>939</ele>
        <time>2026-06-16T06:22:16.000Z</time>
        <extensions>
          <ns3:TrackPointExtension>
            <ns3:atemp>18.0</ns3:atemp>
          </ns3:TrackPointExtension>
        </extensions>
      </trkpt>
      <trkpt lat="42.60073813609778881072998046875" lon="19.93561631999909877777099609375">
        <ele>938.79998779296875</ele>
        <time>2026-06-16T06:22:17.000Z</time>
        <extensions>
          <ns3:TrackPointExtension>
            <ns3:atemp>18.0</ns3:atemp>
          </ns3:TrackPointExtension>
        </extensions>
      </trkpt>
      <trkpt lat="42.60078893043100833892822265625" lon="19.935584552586078643798828125">
        <ele>938.79998779296875</ele>
        <time>2026-06-16T06:22:18.000Z</time>
        <extensions>
          <ns3:TrackPointExtension>
            <ns3:atemp>18.0</ns3:atemp>
          </ns3:TrackPointExtension>
        </extensions>
      </trkpt>
      <trkpt lat="42.600838802754878997802734375" lon="19.93555027060210704803466796875">
        <ele>938.79998779296875</ele>
        <time>2026-06-16T06:22:19.000Z</time>
        <extensions>
          <ns3:TrackPointExtension>
            <ns3:atemp>18.0</ns3:atemp>
          </ns3:TrackPointExtension>
        </extensions>
      </trkpt>
      <trkpt lat="42.600889094173908233642578125" lon="19.93551573716104030609130859375">
        <ele>938.5999755859375</ele>
        <time>2026-06-16T06:22:20.000Z</time>
        <extensions>
          <ns3:TrackPointExtension>
            <ns3:atemp>18.0</ns3:atemp>
          </ns3:TrackPointExtension>
        </extensions>
      </trkpt>
      <trkpt lat="42.600938379764556884765625" lon="19.9354801140725612640380859375">
        <ele>938.5999755859375</ele>
        <time>2026-06-16T06:22:21.000Z</time>
        <extensions>
          <ns3:TrackPointExtension>
            <ns3:atemp>18.0</ns3:atemp>
          </ns3:TrackPointExtension>
        </extensions>
      </trkpt>
      <trkpt lat="42.6009871624410152435302734375" lon="19.9354418925940990447998046875">
        <ele>938.5999755859375</ele>
        <time>2026-06-16T06:22:22.000Z</time>
        <extensions>
          <ns3:TrackPointExtension>
            <ns3:atemp>18.0</ns3:atemp>
          </ns3:TrackPointExtension>
        </extensions>
      </trkpt>
      <trkpt lat="42.6010335981845855712890625" lon="19.935397803783416748046875">
        <ele>938.4000244140625</ele>
        <time>2026-06-16T06:22:23.000Z</time>
        <extensions>
          <ns3:TrackPointExtension>
            <ns3:atemp>18.0</ns3:atemp>
          </ns3:TrackPointExtension>
        </extensions>
      </trkpt>
      <trkpt lat="42.60107927955687046051025390625" lon="19.93535421788692474365234375">
        <ele>938.4000244140625</ele>
        <time>2026-06-16T06:22:24.000Z</time>
        <extensions>
          <ns3:TrackPointExtension>
            <ns3:atemp>18.0</ns3:atemp>
          </ns3:TrackPointExtension>
        </extensions>
      </trkpt>
      <trkpt lat="42.60112772695720195770263671875" lon="19.9353128112852573394775390625">
        <ele>938.20001220703125</ele>
        <time>2026-06-16T06:22:25.000Z</time>
        <extensions>
          <ns3:TrackPointExtension>
            <ns3:atemp>18.0</ns3:atemp>
          </ns3:TrackPointExtension>
        </extensions>
      </trkpt>
      <trkpt lat="42.6011739112436771392822265625" lon="19.93526595644652843475341796875">
        <ele>938.20001220703125</ele>
        <time>2026-06-16T06:22:26.000Z</time>
        <extensions>
          <ns3:TrackPointExtension>
            <ns3:atemp>18.0</ns3:atemp>
          </ns3:TrackPointExtension>
        </extensions>
      </trkpt>
      <trkpt lat="42.60122068226337432861328125" lon="19.93522069416940212249755859375">
        <ele>938</ele>
        <time>2026-06-16T06:22:27.000Z</time>
        <extensions>
          <ns3:TrackPointExtension>
            <ns3:atemp>18.0</ns3:atemp>
          </ns3:TrackPointExtension>
        </extensions>
      </trkpt>
      <trkpt lat="42.60126971639692783355712890625" lon="19.935177862644195556640625">
        <ele>938</ele>
        <time>2026-06-16T06:22:28.000Z</time>
        <extensions>
          <ns3:TrackPointExtension>
            <ns3:atemp>18.0</ns3:atemp>
          </ns3:TrackPointExtension>
        </extensions>
      </trkpt>
      <trkpt lat="42.6013180799782276153564453125" lon="19.9351361207664012908935546875">
        <ele>937.79998779296875</ele>
        <time>2026-06-16T06:22:29.000Z</time>
        <extensions>
          <ns3:TrackPointExtension>
            <ns3:atemp>18.0</ns3:atemp>
          </ns3:TrackPointExtension>
        </extensions>
      </trkpt>
      <trkpt lat="42.60136552155017852783203125" lon="19.93509404361248016357421875">
        <ele>937.79998779296875</ele>
        <time>2026-06-16T06:22:30.000Z</time>
        <extensions>
          <ns3:TrackPointExtension>
            <ns3:atemp>18.0</ns3:atemp>
          </ns3:TrackPointExtension>
        </extensions>
      </trkpt>
      <trkpt lat="42.6014126278460025787353515625" lon="19.9350553192198276519775390625">
        <ele>937.79998779296875</ele>
        <time>2026-06-16T06:22:31.000Z</time>
        <extensions>
          <ns3:TrackPointExtension>
            <ns3:atemp>18.0</ns3:atemp>
          </ns3:TrackPointExtension>
        </extensions>
      </trkpt>
      <trkpt lat="42.60146317072212696075439453125" lon="19.9350174330174922943115234375">
        <ele>937.5999755859375</ele>
        <time>2026-06-16T06:22:32.000Z</time>
        <extensions>
          <ns3:TrackPointExtension>
            <ns3:atemp>18.0</ns3:atemp>
          </ns3:TrackPointExtension>
        </extensions>
      </trkpt>
      <trkpt lat="42.6015135459601879119873046875" lon="19.9349771998822689056396484375">
        <ele>937.5999755859375</ele>
        <time>2026-06-16T06:22:33.000Z</time>
        <extensions>
          <ns3:TrackPointExtension>
            <ns3:atemp>18.0</ns3:atemp>
          </ns3:TrackPointExtension>
        </extensions>
      </trkpt>
      <trkpt lat="42.60156291536986827850341796875" lon="19.93493889458477497100830078125">
        <ele>937.5999755859375</ele>
        <time>2026-06-16T06:22:34.000Z</time>
        <extensions>
          <ns3:TrackPointExtension>
            <ns3:atemp>18.0</ns3:atemp>
          </ns3:TrackPointExtension>
        </extensions>
      </trkpt>
      <trkpt lat="42.601613961160182952880859375" lon="19.934905283153057098388671875">
        <ele>937.4000244140625</ele>
        <time>2026-06-16T06:22:35.000Z</time>
        <extensions>
          <ns3:TrackPointExtension>
            <ns3:atemp>18.0</ns3:atemp>
          </ns3:TrackPointExtension>
        </extensions>
      </trkpt>
      <trkpt lat="42.60166190564632415771484375" lon="19.934874437749385833740234375">
        <ele>937.4000244140625</ele>
        <time>2026-06-16T06:22:36.000Z</time>
        <extensions>
          <ns3:TrackPointExtension>
            <ns3:atemp>18.0</ns3:atemp>
          </ns3:TrackPointExtension>
        </extensions>
      </trkpt>
      <trkpt lat="42.601709179580211639404296875" lon="19.934843592345714569091796875">
        <ele>937.20001220703125</ele>
        <time>2026-06-16T06:22:37.000Z</time>
        <extensions>
          <ns3:TrackPointExtension>
            <ns3:atemp>18.0</ns3:atemp>
          </ns3:TrackPointExtension>
        </extensions>
      </trkpt>
      <trkpt lat="42.60175905190408229827880859375" lon="19.9348135851323604583740234375">
        <ele>937.20001220703125</ele>
        <time>2026-06-16T06:22:38.000Z</time>
        <extensions>
          <ns3:TrackPointExtension>
            <ns3:atemp>18.0</ns3:atemp>
          </ns3:TrackPointExtension>
        </extensions>
      </trkpt>
      <trkpt lat="42.6018082536756992340087890625" lon="19.93478349409997463226318359375">
        <ele>937</ele>
        <time>2026-06-16T06:22:39.000Z</time>
        <extensions>
          <ns3:TrackPointExtension>
            <ns3:atemp>18.0</ns3:atemp>
          </ns3:TrackPointExtension>
        </extensions>
      </trkpt>
      <trkpt lat="42.60185678489506244659423828125" lon="19.934753738343715667724609375">
        <ele>937</ele>
        <time>2026-06-16T06:22:40.000Z</time>
        <extensions>
          <ns3:TrackPointExtension>
            <ns3:atemp>18.0</ns3:atemp>
          </ns3:TrackPointExtension>
        </extensions>
      </trkpt>
      <trkpt lat="42.6019054837524890899658203125" lon="19.934722222387790679931640625">
        <ele>937</ele>
        <time>2026-06-16T06:22:41.000Z</time>
        <extensions>
          <ns3:TrackPointExtension>
            <ns3:atemp>18.0</ns3:atemp>
          </ns3:TrackPointExtension>
        </extensions>
      </trkpt>
      <trkpt lat="42.60195384733378887176513671875" lon="19.9346875213086605072021484375">
        <ele>936.79998779296875</ele>
        <time>2026-06-16T06:22:42.000Z</time>
        <extensions>
          <ns3:TrackPointExtension>
            <ns3:atemp>18.0</ns3:atemp>
          </ns3:TrackPointExtension>
        </extensions>
      </trkpt>
      <trkpt lat="42.602003552019596099853515625" lon="19.934653155505657196044921875">
        <ele>936.79998779296875</ele>
        <time>2026-06-16T06:22:43.000Z</time>
        <extensions>
          <ns3:TrackPointExtension>
            <ns3:atemp>18.0</ns3:atemp>
          </ns3:TrackPointExtension>
        </extensions>
      </trkpt>
      <trkpt lat="42.60205392725765705108642578125" lon="19.93461535312235355377197265625">
        <ele>936.79998779296875</ele>
        <time>2026-06-16T06:22:44.000Z</time>
        <extensions>
          <ns3:TrackPointExtension>
            <ns3:atemp>18.0</ns3:atemp>
          </ns3:TrackPointExtension>
        </extensions>
      </trkpt>
      <trkpt lat="42.60210220701992511749267578125" lon="19.93457696400582790374755859375">
        <ele>936.5999755859375</ele>
        <time>2026-06-16T06:22:45.000Z</time>
        <extensions>
          <ns3:TrackPointExtension>
            <ns3:atemp>18.0</ns3:atemp>
          </ns3:TrackPointExtension>
        </extensions>
      </trkpt>
      <trkpt lat="42.60215015150606632232666015625" lon="19.93453622795641422271728515625">
        <ele>936.5999755859375</ele>
        <time>2026-06-16T06:22:46.000Z</time>
        <extensions>
          <ns3:TrackPointExtension>
            <ns3:atemp>18.0</ns3:atemp>
          </ns3:TrackPointExtension>
        </extensions>
      </trkpt>
      <trkpt lat="42.60219792835414409637451171875" lon="19.93449389934539794921875">
        <ele>936.5999755859375</ele>
        <time>2026-06-16T06:22:47.000Z</time>
        <extensions>
          <ns3:TrackPointExtension>
            <ns3:atemp>18.0</ns3:atemp>
          </ns3:TrackPointExtension>
        </extensions>
      </trkpt>
      <trkpt lat="42.602245621383190155029296875" lon="19.93445375002920627593994140625">
        <ele>936.4000244140625</ele>
        <time>2026-06-16T06:22:48.000Z</time>
        <extensions>
          <ns3:TrackPointExtension>
            <ns3:atemp>18.0</ns3:atemp>
          </ns3:TrackPointExtension>
        </extensions>
      </trkpt>
      <trkpt lat="42.60229415260255336761474609375" lon="19.934413097798824310302734375">
        <ele>936.4000244140625</ele>
        <time>2026-06-16T06:22:49.000Z</time>
        <extensions>
          <ns3:TrackPointExtension>
            <ns3:atemp>18.0</ns3:atemp>
          </ns3:TrackPointExtension>
        </extensions>
      </trkpt>
      <trkpt lat="42.602342180907726287841796875" lon="19.934370182454586029052734375">
        <ele>936.4000244140625</ele>
        <time>2026-06-16T06:22:50.000Z</time>
        <extensions>
          <ns3:TrackPointExtension>
            <ns3:atemp>18.0</ns3:atemp>
          </ns3:TrackPointExtension>
        </extensions>
      </trkpt>
      <trkpt lat="42.60239104740321636199951171875" lon="19.93432349525392055511474609375">
        <ele>936.20001220703125</ele>
        <time>2026-06-16T06:22:51.000Z</time>
        <extensions>
          <ns3:TrackPointExtension>
            <ns3:atemp>18.0</ns3:atemp>
          </ns3:TrackPointExtension>
        </extensions>
      </trkpt>
      <trkpt lat="42.6024395786225795745849609375" lon="19.9342778138816356658935546875">
        <ele>936</ele>
        <time>2026-06-16T06:22:52.000Z</time>
        <extensions>
          <ns3:TrackPointExtension>
            <ns3:atemp>18.0</ns3:atemp>
          </ns3:TrackPointExtension>
        </extensions>
      </trkpt>
      <trkpt lat="42.6024905405938625335693359375" lon="19.93423079140484333038330078125">
        <ele>936</ele>
        <time>2026-06-16T06:22:53.000Z</time>
        <extensions>
          <ns3:TrackPointExtension>
            <ns3:atemp>18.0</ns3:atemp>
          </ns3:TrackPointExtension>
        </extensions>
      </trkpt>
      <trkpt lat="42.6025438494980335235595703125" lon="19.93418200872838497161865234375">
        <ele>935.79998779296875</ele>
        <time>2026-06-16T06:22:54.000Z</time>
        <extensions>
          <ns3:TrackPointExtension>
            <ns3:atemp>18.0</ns3:atemp>
          </ns3:TrackPointExtension>
        </extensions>
      </trkpt>
      <trkpt lat="42.6025984995067119598388671875" lon="19.93413121439516544342041015625">
        <ele>935.5999755859375</ele>
        <time>2026-06-16T06:22:55.000Z</time>
        <extensions>
          <ns3:TrackPointExtension>
            <ns3:atemp>18.0</ns3:atemp>
          </ns3:TrackPointExtension>
        </extensions>
      </trkpt>
      <trkpt lat="42.60265574790537357330322265625" lon="19.93407958187162876129150390625">
        <ele>935.20001220703125</ele>
        <time>2026-06-16T06:22:56.000Z</time>
        <extensions>
          <ns3:TrackPointExtension>
            <ns3:atemp>18.0</ns3:atemp>
          </ns3:TrackPointExtension>
        </extensions>
      </trkpt>
      <trkpt lat="42.602715007960796356201171875" lon="19.93402794934809207916259765625">
        <ele>935</ele>
        <time>2026-06-16T06:22:57.000Z</time>
        <extensions>
          <ns3:TrackPointExtension>
            <ns3:atemp>18.0</ns3:atemp>
          </ns3:TrackPointExtension>
        </extensions>
      </trkpt>
      <trkpt lat="42.60277510620653629302978515625" lon="19.933970533311367034912109375">
        <ele>934.79998779296875</ele>
        <time>2026-06-16T06:22:58.000Z</time>
        <extensions>
          <ns3:TrackPointExtension>
            <ns3:atemp>18.0</ns3:atemp>
          </ns3:TrackPointExtension>
        </extensions>
      </trkpt>
      <trkpt lat="42.6028362102806568145751953125" lon="19.93391529656946659088134765625">
        <ele>934.4000244140625</ele>
        <time>2026-06-16T06:22:59.000Z</time>
        <extensions>
          <ns3:TrackPointExtension>
            <ns3:atemp>18.0</ns3:atemp>
          </ns3:TrackPointExtension>
        </extensions>
      </trkpt>
      <trkpt lat="42.60289999656379222869873046875" lon="19.93386232294142246246337890625">
        <ele>934</ele>
        <time>2026-06-16T06:23:00.000Z</time>
        <extensions>
          <ns3:TrackPointExtension>
            <ns3:atemp>18.0</ns3:atemp>
          </ns3:TrackPointExtension>
        </extensions>
      </trkpt>
      <trkpt lat="42.6029647886753082275390625" lon="19.93380792438983917236328125">
        <ele>933.5999755859375</ele>
        <time>2026-06-16T06:23:01.000Z</time>
        <extensions>
          <ns3:TrackPointExtension>
            <ns3:atemp>18.0</ns3:atemp>
          </ns3:TrackPointExtension>
        </extensions>
      </trkpt>
      <trkpt lat="42.60303326882421970367431640625" lon="19.93375419639050960540771484375">
        <ele>933.20001220703125</ele>
        <time>2026-06-16T06:23:02.000Z</time>
        <extensions>
          <ns3:TrackPointExtension>
            <ns3:atemp>18.0</ns3:atemp>
          </ns3:TrackPointExtension>
        </extensions>
      </trkpt>
      <trkpt lat="42.60310384444892406463623046875" lon="19.93370709009468555450439453125">
        <ele>933</ele>
        <time>2026-06-16T06:23:03.000Z</time>
        <extensions>
          <ns3:TrackPointExtension>
            <ns3:atemp>18.0</ns3:atemp>
          </ns3:TrackPointExtension>
        </extensions>
      </trkpt>
      <trkpt lat="42.6031740009784698486328125" lon="19.93365772068500518798828125">
        <ele>932.4000244140625</ele>
        <time>2026-06-16T06:23:04.000Z</time>
        <extensions>
          <ns3:TrackPointExtension>
            <ns3:atemp>18.0</ns3:atemp>
          </ns3:TrackPointExtension>
        </extensions>
      </trkpt>
      <trkpt lat="42.60324616916477680206298828125" lon="19.93361203931272029876708984375">
        <ele>932</ele>
        <time>2026-06-16T06:23:05.000Z</time>
        <extensions>
          <ns3:TrackPointExtension>
            <ns3:atemp>18.0</ns3:atemp>
          </ns3:TrackPointExtension>
        </extensions>
      </trkpt>
      <trkpt lat="42.60332076810300350189208984375" lon="19.9335603229701519012451171875">
        <ele>931.5999755859375</ele>
        <time>2026-06-16T06:23:06.000Z</time>
        <extensions>
          <ns3:TrackPointExtension>
            <ns3:atemp>18.0</ns3:atemp>
          </ns3:TrackPointExtension>
        </extensions>
      </trkpt>
      <trkpt lat="42.6033934392035007476806640625" lon="19.9335056729614734649658203125">
        <ele>931.20001220703125</ele>
        <time>2026-06-16T06:23:07.000Z</time>
        <extensions>
          <ns3:TrackPointExtension>
            <ns3:atemp>18.0</ns3:atemp>
          </ns3:TrackPointExtension>
        </extensions>
      </trkpt>
      <trkpt lat="42.6034651882946491241455078125" lon="19.933445490896701812744140625">
        <ele>930.79998779296875</ele>
        <time>2026-06-16T06:23:08.000Z</time>
        <extensions>
          <ns3:TrackPointExtension>
            <ns3:atemp>18.0</ns3:atemp>
          </ns3:TrackPointExtension>
        </extensions>
      </trkpt>
      <trkpt lat="42.60352914221584796905517578125" lon="19.93337483145296573638916015625">
        <ele>930.4000244140625</ele>
        <time>2026-06-16T06:23:09.000Z</time>
        <extensions>
          <ns3:TrackPointExtension>
            <ns3:atemp>18.0</ns3:atemp>
          </ns3:TrackPointExtension>
        </extensions>
      </trkpt>
      <trkpt lat="42.60358764789998531341552734375" lon="19.933299310505390167236328125">
        <ele>930</ele>
        <time>2026-06-16T06:23:10.000Z</time>
        <extensions>
          <ns3:TrackPointExtension>
            <ns3:atemp>18.0</ns3:atemp>
          </ns3:TrackPointExtension>
        </extensions>
      </trkpt>
      <trkpt lat="42.6036433875560760498046875" lon="19.933219514787197113037109375">
        <ele>929.5999755859375</ele>
        <time>2026-06-16T06:23:11.000Z</time>
        <extensions>
          <ns3:TrackPointExtension>
            <ns3:atemp>18.0</ns3:atemp>
          </ns3:TrackPointExtension>
        </extensions>
      </trkpt>
      <trkpt lat="42.6036985404789447784423828125" lon="19.933141730725765228271484375">
        <ele>929</ele>
        <time>2026-06-16T06:23:12.000Z</time>
        <extensions>
          <ns3:TrackPointExtension>
            <ns3:atemp>18.0</ns3:atemp>
          </ns3:TrackPointExtension>
        </extensions>
      </trkpt>
      <trkpt lat="42.60374707169830799102783203125" lon="19.93305715732276439666748046875">
        <ele>928.5999755859375</ele>
        <time>2026-06-16T06:23:13.000Z</time>
        <extensions>
          <ns3:TrackPointExtension>
            <ns3:atemp>18.0</ns3:atemp>
          </ns3:TrackPointExtension>
        </extensions>
      </trkpt>
      <trkpt lat="42.6037937588989734649658203125" lon="19.93297384120523929595947265625">
        <ele>928.20001220703125</ele>
        <time>2026-06-16T06:23:14.000Z</time>
        <extensions>
          <ns3:TrackPointExtension>
            <ns3:atemp>18.0</ns3:atemp>
          </ns3:TrackPointExtension>
        </extensions>
      </trkpt>
      <trkpt lat="42.6038403622806072235107421875" lon="19.9328934587538242340087890625">
        <ele>928</ele>
        <time>2026-06-16T06:23:15.000Z</time>
        <extensions>
          <ns3:TrackPointExtension>
            <ns3:atemp>18.0</ns3:atemp>
          </ns3:TrackPointExtension>
        </extensions>
      </trkpt>
      <trkpt lat="42.60388813912868499755859375" lon="19.932812154293060302734375">
        <ele>927.5999755859375</ele>
        <time>2026-06-16T06:23:16.000Z</time>
        <extensions>
          <ns3:TrackPointExtension>
            <ns3:atemp>18.0</ns3:atemp>
          </ns3:TrackPointExtension>
        </extensions>
      </trkpt>
      <trkpt lat="42.60393432341516017913818359375" lon="19.9327303469181060791015625">
        <ele>927.5999755859375</ele>
        <time>2026-06-16T06:23:17.000Z</time>
        <extensions>
          <ns3:TrackPointExtension>
            <ns3:atemp>18.0</ns3:atemp>
          </ns3:TrackPointExtension>
        </extensions>
      </trkpt>
      <trkpt lat="42.6039781607687473297119140625" lon="19.932652227580547332763671875">
        <ele>927.4000244140625</ele>
        <time>2026-06-16T06:23:18.000Z</time>
        <extensions>
          <ns3:TrackPointExtension>
            <ns3:atemp>18.0</ns3:atemp>
          </ns3:TrackPointExtension>
        </extensions>
      </trkpt>
      <trkpt lat="42.60402183048427104949951171875" lon="19.93257553316652774810791015625">
        <ele>927.4000244140625</ele>
        <time>2026-06-16T06:23:19.000Z</time>
        <extensions>
          <ns3:TrackPointExtension>
            <ns3:atemp>18.0</ns3:atemp>
          </ns3:TrackPointExtension>
        </extensions>
      </trkpt>
      <trkpt lat="42.60406692512333393096923828125" lon="19.93250529281795024871826171875">
        <ele>927.4000244140625</ele>
        <time>2026-06-16T06:23:20.000Z</time>
        <extensions>
          <ns3:TrackPointExtension>
            <ns3:atemp>18.0</ns3:atemp>
          </ns3:TrackPointExtension>
        </extensions>
      </trkpt>
      <trkpt lat="42.604110427200794219970703125" lon="19.93243597447872161865234375">
        <ele>927.4000244140625</ele>
        <time>2026-06-16T06:23:21.000Z</time>
        <extensions>
          <ns3:TrackPointExtension>
            <ns3:atemp>18.0</ns3:atemp>
          </ns3:TrackPointExtension>
        </extensions>
      </trkpt>
      <trkpt lat="42.60415594093501567840576171875" lon="19.932371266186237335205078125">
        <ele>927.20001220703125</ele>
        <time>2026-06-16T06:23:22.000Z</time>
        <extensions>
          <ns3:TrackPointExtension>
            <ns3:atemp>18.0</ns3:atemp>
          </ns3:TrackPointExtension>
        </extensions>
      </trkpt>
      <trkpt lat="42.60420304723083972930908203125" lon="19.93231167085468769073486328125">
        <ele>927</ele>
        <time>2026-06-16T06:23:23.000Z</time>
        <extensions>
          <ns3:TrackPointExtension>
            <ns3:atemp>18.0</ns3:atemp>
          </ns3:TrackPointExtension>
        </extensions>
      </trkpt>
      <trkpt lat="42.6042500697076320648193359375" lon="19.93225215934216976165771484375">
        <ele>927</ele>
        <time>2026-06-16T06:23:24.000Z</time>
        <extensions>
          <ns3:TrackPointExtension>
            <ns3:atemp>18.0</ns3:atemp>
          </ns3:TrackPointExtension>
        </extensions>
      </trkpt>
      <trkpt lat="42.6042973436415195465087890625" lon="19.93219725787639617919921875">
        <ele>926.79998779296875</ele>
        <time>2026-06-16T06:23:25.000Z</time>
        <extensions>
          <ns3:TrackPointExtension>
            <ns3:atemp>18.0</ns3:atemp>
          </ns3:TrackPointExtension>
        </extensions>
      </trkpt>
      <trkpt lat="42.604347802698612213134765625" lon="19.9321424402296543121337890625">
        <ele>926.79998779296875</ele>
        <time>2026-06-16T06:23:26.000Z</time>
        <extensions>
          <ns3:TrackPointExtension>
            <ns3:atemp>18.0</ns3:atemp>
          </ns3:TrackPointExtension>
        </extensions>
      </trkpt>
      <trkpt lat="42.60439733974635601043701171875" lon="19.9320901371538639068603515625">
        <ele>926.5999755859375</ele>
        <time>2026-06-16T06:23:27.000Z</time>
        <extensions>
          <ns3:TrackPointExtension>
            <ns3:atemp>18.0</ns3:atemp>
          </ns3:TrackPointExtension>
        </extensions>
      </trkpt>
      <trkpt lat="42.60444880463182926177978515625" lon="19.93204303085803985595703125">
        <ele>926.5999755859375</ele>
        <time>2026-06-16T06:23:28.000Z</time>
        <extensions>
          <ns3:TrackPointExtension>
            <ns3:atemp>18.0</ns3:atemp>
          </ns3:TrackPointExtension>
        </extensions>
      </trkpt>
      <trkpt lat="42.60450303554534912109375" lon="19.93200480937957763671875">
        <ele>926.79998779296875</ele>
        <time>2026-06-16T06:23:29.000Z</time>
        <extensions>
          <ns3:TrackPointExtension>
            <ns3:atemp>18.0</ns3:atemp>
          </ns3:TrackPointExtension>
        </extensions>
      </trkpt>
      <trkpt lat="42.604558356106281280517578125" lon="19.93196985684335231781005859375">
        <ele>926.79998779296875</ele>
        <time>2026-06-16T06:23:30.000Z</time>
        <extensions>
          <ns3:TrackPointExtension>
            <ns3:atemp>18.0</ns3:atemp>
          </ns3:TrackPointExtension>
        </extensions>
      </trkpt>
      <trkpt lat="42.6046108268201351165771484375" lon="19.93193465285003185272216796875">
        <ele>927</ele>
        <time>2026-06-16T06:23:31.000Z</time>
        <extensions>
          <ns3:TrackPointExtension>
            <ns3:atemp>18.0</ns3:atemp>
          </ns3:TrackPointExtension>
        </extensions>
      </trkpt>
      <trkpt lat="42.60466572828590869903564453125" lon="19.9318990297615528106689453125">
        <ele>927</ele>
        <time>2026-06-16T06:23:32.000Z</time>
        <extensions>
          <ns3:TrackPointExtension>
            <ns3:atemp>18.0</ns3:atemp>
          </ns3:TrackPointExtension>
        </extensions>
      </trkpt>
      <trkpt lat="42.6047191210091114044189453125" lon="19.93186558596789836883544921875">
        <ele>927</ele>
        <time>2026-06-16T06:23:33.000Z</time>
        <extensions>
          <ns3:TrackPointExtension>
            <ns3:atemp>18.0</ns3:atemp>
          </ns3:TrackPointExtension>
        </extensions>
      </trkpt>
      <trkpt lat="42.60477184318006038665771484375" lon="19.93183256126940250396728515625">
        <ele>927</ele>
        <time>2026-06-16T06:23:34.000Z</time>
        <extensions>
          <ns3:TrackPointExtension>
            <ns3:atemp>17.0</ns3:atemp>
          </ns3:TrackPointExtension>
        </extensions>
      </trkpt>
      <trkpt lat="42.6048217155039310455322265625" lon="19.93180372752249240875244140625">
        <ele>927</ele>
        <time>2026-06-16T06:23:35.000Z</time>
        <extensions>
          <ns3:TrackPointExtension>
            <ns3:atemp>18.0</ns3:atemp>
          </ns3:TrackPointExtension>
        </extensions>
      </trkpt>
      <trkpt lat="42.60487376712262630462646484375" lon="19.93177522905170917510986328125">
        <ele>926.79998779296875</ele>
        <time>2026-06-16T06:23:36.000Z</time>
        <extensions>
          <ns3:TrackPointExtension>
            <ns3:atemp>17.0</ns3:atemp>
          </ns3:TrackPointExtension>
        </extensions>
      </trkpt>
      <trkpt lat="42.6049239747226238250732421875" lon="19.9317424558103084564208984375">
        <ele>926.79998779296875</ele>
        <time>2026-06-16T06:23:37.000Z</time>
        <extensions>
          <ns3:TrackPointExtension>
            <ns3:atemp>17.0</ns3:atemp>
          </ns3:TrackPointExtension>
        </extensions>
      </trkpt>
      <trkpt lat="42.60497535578906536102294921875" lon="19.93170515634119510650634765625">
        <ele>926.79998779296875</ele>
        <time>2026-06-16T06:23:38.000Z</time>
        <extensions>
          <ns3:TrackPointExtension>
            <ns3:atemp>17.0</ns3:atemp>
          </ns3:TrackPointExtension>
        </extensions>
      </trkpt>
      <trkpt lat="42.6050235517323017120361328125" lon="19.93166760541498661041259765625">
        <ele>926.79998779296875</ele>
        <time>2026-06-16T06:23:39.000Z</time>
        <extensions>
          <ns3:TrackPointExtension>
            <ns3:atemp>17.0</ns3:atemp>
          </ns3:TrackPointExtension>
        </extensions>
      </trkpt>
      <trkpt lat="42.60506906546652317047119140625" lon="19.93162703700363636016845703125">
        <ele>926.79998779296875</ele>
        <time>2026-06-16T06:23:40.000Z</time>
        <extensions>
          <ns3:TrackPointExtension>
            <ns3:atemp>17.0</ns3:atemp>
          </ns3:TrackPointExtension>
        </extensions>
      </trkpt>
      <trkpt lat="42.60511650703847408294677734375" lon="19.93158571422100067138671875">
        <ele>926.79998779296875</ele>
        <time>2026-06-16T06:23:41.000Z</time>
        <extensions>
          <ns3:TrackPointExtension>
            <ns3:atemp>17.0</ns3:atemp>
          </ns3:TrackPointExtension>
        </extensions>
      </trkpt>
      <trkpt lat="42.60516352951526641845703125" lon="19.9315426312386989593505859375">
        <ele>926.79998779296875</ele>
        <time>2026-06-16T06:23:42.000Z</time>
        <extensions>
          <ns3:TrackPointExtension>
            <ns3:atemp>17.0</ns3:atemp>
          </ns3:TrackPointExtension>
        </extensions>
      </trkpt>
      <trkpt lat="42.6052086241543292999267578125" lon="19.93149762041866779327392578125">
        <ele>926.79998779296875</ele>
        <time>2026-06-16T06:23:43.000Z</time>
        <extensions>
          <ns3:TrackPointExtension>
            <ns3:atemp>17.0</ns3:atemp>
          </ns3:TrackPointExtension>
        </extensions>
      </trkpt>
      <trkpt lat="42.60524910874664783477783203125" lon="19.93144900538027286529541015625">
        <ele>926.79998779296875</ele>
        <time>2026-06-16T06:23:44.000Z</time>
        <extensions>
          <ns3:TrackPointExtension>
            <ns3:atemp>17.0</ns3:atemp>
          </ns3:TrackPointExtension>
        </extensions>
      </trkpt>
      <trkpt lat="42.60528615675866603851318359375" lon="19.93139385245740413665771484375">
        <ele>926.5999755859375</ele>
        <time>2026-06-16T06:23:45.000Z</time>
        <extensions>
          <ns3:TrackPointExtension>
            <ns3:atemp>17.0</ns3:atemp>
          </ns3:TrackPointExtension>
        </extensions>
      </trkpt>
      <trkpt lat="42.605325467884540557861328125" lon="19.93133953772485256195068359375">
        <ele>926.79998779296875</ele>
        <time>2026-06-16T06:23:46.000Z</time>
        <extensions>
          <ns3:TrackPointExtension>
            <ns3:atemp>17.0</ns3:atemp>
          </ns3:TrackPointExtension>
        </extensions>
      </trkpt>
      <trkpt lat="42.60536603629589080810546875" lon="19.931282959878444671630859375">
        <ele>926.79998779296875</ele>
        <time>2026-06-16T06:23:47.000Z</time>
        <extensions>
          <ns3:TrackPointExtension>
            <ns3:atemp>17.0</ns3:atemp>
          </ns3:TrackPointExtension>
        </extensions>
      </trkpt>
      <trkpt lat="42.6054029166698455810546875" lon="19.93122487328946590423583984375">
        <ele>926.79998779296875</ele>
        <time>2026-06-16T06:23:48.000Z</time>
        <extensions>
          <ns3:TrackPointExtension>
            <ns3:atemp>17.0</ns3:atemp>
          </ns3:TrackPointExtension>
        </extensions>
      </trkpt>
      <trkpt lat="42.60543870739638805389404296875" lon="19.93116670288145542144775390625">
        <ele>926.79998779296875</ele>
        <time>2026-06-16T06:23:49.000Z</time>
        <extensions>
          <ns3:TrackPointExtension>
            <ns3:atemp>17.0</ns3:atemp>
          </ns3:TrackPointExtension>
        </extensions>
      </trkpt>
      <trkpt lat="42.6054771803319454193115234375" lon="19.93110853247344493865966796875">
        <ele>926.79998779296875</ele>
        <time>2026-06-16T06:23:50.000Z</time>
        <extensions>
          <ns3:TrackPointExtension>
            <ns3:atemp>17.0</ns3:atemp>
          </ns3:TrackPointExtension>
        </extensions>
      </trkpt>
      <trkpt lat="42.6055170781910419464111328125" lon="19.93104617111384868621826171875">
        <ele>926.5999755859375</ele>
        <time>2026-06-16T06:23:51.000Z</time>
        <extensions>
          <ns3:TrackPointExtension>
            <ns3:atemp>17.0</ns3:atemp>
          </ns3:TrackPointExtension>
        </extensions>
      </trkpt>
      <trkpt lat="42.60555705986917018890380859375" lon="19.9309820495545864105224609375">
        <ele>926.4000244140625</ele>
        <time>2026-06-16T06:23:52.000Z</time>
        <extensions>
          <ns3:TrackPointExtension>
            <ns3:atemp>17.0</ns3:atemp>
          </ns3:TrackPointExtension>
        </extensions>
      </trkpt>
      <trkpt lat="42.6055948622524738311767578125" lon="19.9309156648814678192138671875">
        <ele>926.4000244140625</ele>
        <time>2026-06-16T06:23:53.000Z</time>
        <extensions>
          <ns3:TrackPointExtension>
            <ns3:atemp>17.0</ns3:atemp>
          </ns3:TrackPointExtension>
        </extensions>
      </trkpt>
      <trkpt lat="42.60563568212091922760009765625" lon="19.9308489449322223663330078125">
        <ele>926.20001220703125</ele>
        <time>2026-06-16T06:23:54.000Z</time>
        <extensions>
          <ns3:TrackPointExtension>
            <ns3:atemp>17.0</ns3:atemp>
          </ns3:TrackPointExtension>
        </extensions>
      </trkpt>
      <trkpt lat="42.605678178369998931884765625" lon="19.9307792074978351593017578125">
        <ele>925.79998779296875</ele>
        <time>2026-06-16T06:23:55.000Z</time>
        <extensions>
          <ns3:TrackPointExtension>
            <ns3:atemp>17.0</ns3:atemp>
          </ns3:TrackPointExtension>
        </extensions>
      </trkpt>
      <trkpt lat="42.605720423161983489990234375" lon="19.9307067878544330596923828125">
        <ele>925.5999755859375</ele>
        <time>2026-06-16T06:23:56.000Z</time>
        <extensions>
          <ns3:TrackPointExtension>
            <ns3:atemp>17.0</ns3:atemp>
          </ns3:TrackPointExtension>
        </extensions>
      </trkpt>
      <trkpt lat="42.6057638414204120635986328125" lon="19.930633194744586944580078125">
        <ele>925.4000244140625</ele>
        <time>2026-06-16T06:23:57.000Z</time>
        <extensions>
          <ns3:TrackPointExtension>
            <ns3:atemp>17.0</ns3:atemp>
          </ns3:TrackPointExtension>
        </extensions>
      </trkpt>
      <trkpt lat="42.60580969043076038360595703125" lon="19.9305617809295654296875">
        <ele>925</ele>
        <time>2026-06-16T06:23:58.000Z</time>
        <extensions>
          <ns3:TrackPointExtension>
            <ns3:atemp>17.0</ns3:atemp>
          </ns3:TrackPointExtension>
        </extensions>
      </trkpt>
      <trkpt lat="42.60585478506982326507568359375" lon="19.93049204349517822265625">
        <ele>924.79998779296875</ele>
        <time>2026-06-16T06:23:59.000Z</time>
        <extensions>
          <ns3:TrackPointExtension>
            <ns3:atemp>17.0</ns3:atemp>
          </ns3:TrackPointExtension>
        </extensions>
      </trkpt>
      <trkpt lat="42.605899460613727569580078125" lon="19.93042037822306156158447265625">
        <ele>924.4000244140625</ele>
        <time>2026-06-16T06:24:00.000Z</time>
        <extensions>
          <ns3:TrackPointExtension>
            <ns3:atemp>17.0</ns3:atemp>
          </ns3:TrackPointExtension>
        </extensions>
      </trkpt>
      <trkpt lat="42.60594539344310760498046875" lon="19.93034846149384975433349609375">
        <ele>924.20001220703125</ele>
        <time>2026-06-16T06:24:01.000Z</time>
        <extensions>
          <ns3:TrackPointExtension>
            <ns3:atemp>17.0</ns3:atemp>
          </ns3:TrackPointExtension>
        </extensions>
      </trkpt>
      <trkpt lat="42.6059903204441070556640625" lon="19.9302759580314159393310546875">
        <ele>923.79998779296875</ele>
        <time>2026-06-16T06:24:02.000Z</time>
        <extensions>
          <ns3:TrackPointExtension>
            <ns3:atemp>17.0</ns3:atemp>
          </ns3:TrackPointExtension>
        </extensions>
      </trkpt>
      <trkpt lat="42.606034576892852783203125" lon="19.93020244874060153961181640625">
        <ele>923.5999755859375</ele>
        <time>2026-06-16T06:24:03.000Z</time>
        <extensions>
          <ns3:TrackPointExtension>
            <ns3:atemp>17.0</ns3:atemp>
          </ns3:TrackPointExtension>
        </extensions>
      </trkpt>
      <trkpt lat="42.606078498065471649169921875" lon="19.9301321245729923248291015625">
        <ele>923.4000244140625</ele>
        <time>2026-06-16T06:24:04.000Z</time>
        <extensions>
          <ns3:TrackPointExtension>
            <ns3:atemp>17.0</ns3:atemp>
          </ns3:TrackPointExtension>
        </extensions>
      </trkpt>
      <trkpt lat="42.60612669400870800018310546875" lon="19.93006548844277858734130859375">
        <ele>923</ele>
        <time>2026-06-16T06:24:05.000Z</time>
        <extensions>
          <ns3:TrackPointExtension>
            <ns3:atemp>17.0</ns3:atemp>
          </ns3:TrackPointExtension>
        </extensions>
      </trkpt>
      <trkpt lat="42.60617648251354694366455078125" lon="19.92999910376965999603271484375">
        <ele>922.79998779296875</ele>
        <time>2026-06-16T06:24:06.000Z</time>
        <extensions>
          <ns3:TrackPointExtension>
            <ns3:atemp>17.0</ns3:atemp>
          </ns3:TrackPointExtension>
        </extensions>
      </trkpt>
      <trkpt lat="42.60622727684676647186279296875" lon="19.929926432669162750244140625">
        <ele>922.5999755859375</ele>
        <time>2026-06-16T06:24:07.000Z</time>
        <extensions>
          <ns3:TrackPointExtension>
            <ns3:atemp>17.0</ns3:atemp>
          </ns3:TrackPointExtension>
        </extensions>
      </trkpt>
      <trkpt lat="42.6062786579132080078125" lon="19.92985141463577747344970703125">
        <ele>922.4000244140625</ele>
        <time>2026-06-16T06:24:08.000Z</time>
        <extensions>
          <ns3:TrackPointExtension>
            <ns3:atemp>17.0</ns3:atemp>
          </ns3:TrackPointExtension>
        </extensions>
      </trkpt>
      <trkpt lat="42.60633431375026702880859375" lon="19.9297825992107391357421875">
        <ele>922.20001220703125</ele>
        <time>2026-06-16T06:24:09.000Z</time>
        <extensions>
          <ns3:TrackPointExtension>
            <ns3:atemp>17.0</ns3:atemp>
          </ns3:TrackPointExtension>
        </extensions>
      </trkpt>
      <trkpt lat="42.6063928194344043731689453125" lon="19.92971361614763736724853515625">
        <ele>921.79998779296875</ele>
        <time>2026-06-16T06:24:10.000Z</time>
        <extensions>
          <ns3:TrackPointExtension>
            <ns3:atemp>17.0</ns3:atemp>
          </ns3:TrackPointExtension>
        </extensions>
      </trkpt>
      <trkpt lat="42.60645409114658832550048828125" lon="19.92964656092226505279541015625">
        <ele>921.4000244140625</ele>
        <time>2026-06-16T06:24:11.000Z</time>
        <extensions>
          <ns3:TrackPointExtension>
            <ns3:atemp>17.0</ns3:atemp>
          </ns3:TrackPointExtension>
        </extensions>
      </trkpt>
      <trkpt lat="42.606512345373630523681640625" lon="19.92957950569689273834228515625">
        <ele>921.20001220703125</ele>
        <time>2026-06-16T06:24:12.000Z</time>
        <extensions>
          <ns3:TrackPointExtension>
            <ns3:atemp>17.0</ns3:atemp>
          </ns3:TrackPointExtension>
        </extensions>
      </trkpt>
      <trkpt lat="42.60657143779098987579345703125" lon="19.92951144464313983917236328125">
        <ele>920.79998779296875</ele>
        <time>2026-06-16T06:24:13.000Z</time>
        <extensions>
          <ns3:TrackPointExtension>
            <ns3:atemp>17.0</ns3:atemp>
          </ns3:TrackPointExtension>
        </extensions>
      </trkpt>
      <trkpt lat="42.60663094930350780487060546875" lon="19.929446987807750701904296875">
        <ele>920.4000244140625</ele>
        <time>2026-06-16T06:24:14.000Z</time>
        <extensions>
          <ns3:TrackPointExtension>
            <ns3:atemp>17.0</ns3:atemp>
          </ns3:TrackPointExtension>
        </extensions>
      </trkpt>
      <trkpt lat="42.60669297538697719573974609375" lon="19.92938571609556674957275390625">
        <ele>920.20001220703125</ele>
        <time>2026-06-16T06:24:15.000Z</time>
        <extensions>
          <ns3:TrackPointExtension>
            <ns3:atemp>17.0</ns3:atemp>
          </ns3:TrackPointExtension>
        </extensions>
      </trkpt>
      <trkpt lat="42.60675500147044658660888671875" lon="19.92933089844882488250732421875">
        <ele>920</ele>
        <time>2026-06-16T06:24:16.000Z</time>
        <extensions>
          <ns3:TrackPointExtension>
            <ns3:atemp>17.0</ns3:atemp>
          </ns3:TrackPointExtension>
        </extensions>
      </trkpt>
      <trkpt lat="42.60681484825909137725830078125" lon="19.92927323095500469207763671875">
        <ele>919.5999755859375</ele>
        <time>2026-06-16T06:24:17.000Z</time>
        <extensions>
          <ns3:TrackPointExtension>
            <ns3:atemp>17.0</ns3:atemp>
          </ns3:TrackPointExtension>
        </extensions>
      </trkpt>
      <trkpt lat="42.60687075555324554443359375" lon="19.92921573109924793243408203125">
        <ele>919</ele>
        <time>2026-06-16T06:24:18.000Z</time>
        <extensions>
          <ns3:TrackPointExtension>
            <ns3:atemp>17.0</ns3:atemp>
          </ns3:TrackPointExtension>
        </extensions>
      </trkpt>
      <trkpt lat="42.6069269143044948577880859375" lon="19.92916108109056949615478515625">
        <ele>918.5999755859375</ele>
        <time>2026-06-16T06:24:19.000Z</time>
        <extensions>
          <ns3:TrackPointExtension>
            <ns3:atemp>17.0</ns3:atemp>
          </ns3:TrackPointExtension>
        </extensions>
      </trkpt>
      <trkpt lat="42.606982402503490447998046875" lon="19.9291048385202884674072265625">
        <ele>918.5999755859375</ele>
        <time>2026-06-16T06:24:20.000Z</time>
        <extensions>
          <ns3:TrackPointExtension>
            <ns3:atemp>17.0</ns3:atemp>
          </ns3:TrackPointExtension>
        </extensions>
      </trkpt>
      <trkpt lat="42.6070365495979785919189453125" lon="19.929051697254180908203125">
        <ele>918.5999755859375</ele>
        <time>2026-06-16T06:24:21.000Z</time>
        <extensions>
          <ns3:TrackPointExtension>
            <ns3:atemp>17.0</ns3:atemp>
          </ns3:TrackPointExtension>
        </extensions>
      </trkpt>
      <trkpt lat="42.60708860121667385101318359375" lon="19.92899713106453418731689453125">
        <ele>918.5999755859375</ele>
        <time>2026-06-16T06:24:22.000Z</time>
        <extensions>
          <ns3:TrackPointExtension>
            <ns3:atemp>17.0</ns3:atemp>
          </ns3:TrackPointExtension>
        </extensions>
      </trkpt>
      <trkpt lat="42.60714325122535228729248046875" lon="19.92894683964550495147705078125">
        <ele>918.5999755859375</ele>
        <time>2026-06-16T06:24:23.000Z</time>
        <extensions>
          <ns3:TrackPointExtension>
            <ns3:atemp>17.0</ns3:atemp>
          </ns3:TrackPointExtension>
        </extensions>
      </trkpt>
      <trkpt lat="42.60719798505306243896484375" lon="19.92889302782714366912841796875">
        <ele>918.5999755859375</ele>
        <time>2026-06-16T06:24:24.000Z</time>
        <extensions>
          <ns3:TrackPointExtension>
            <ns3:atemp>17.0</ns3:atemp>
          </ns3:TrackPointExtension>
        </extensions>
      </trkpt>
      <trkpt lat="42.6072534732520580291748046875" lon="19.9288389645516872406005859375">
        <ele>918.5999755859375</ele>
        <time>2026-06-16T06:24:25.000Z</time>
        <extensions>
          <ns3:TrackPointExtension>
            <ns3:atemp>17.0</ns3:atemp>
          </ns3:TrackPointExtension>
        </extensions>
      </trkpt>
      <trkpt lat="42.60730518959462642669677734375" lon="19.92878708057105541229248046875">
        <ele>918.5999755859375</ele>
        <time>2026-06-16T06:24:26.000Z</time>
        <extensions>
          <ns3:TrackPointExtension>
            <ns3:atemp>17.0</ns3:atemp>
          </ns3:TrackPointExtension>
        </extensions>
      </trkpt>
      <trkpt lat="42.6073567382991313934326171875" lon="19.9287350289523601531982421875">
        <ele>918.5999755859375</ele>
        <time>2026-06-16T06:24:27.000Z</time>
        <extensions>
          <ns3:TrackPointExtension>
            <ns3:atemp>17.0</ns3:atemp>
          </ns3:TrackPointExtension>
        </extensions>
      </trkpt>
      <trkpt lat="42.607407532632350921630859375" lon="19.92868624627590179443359375">
        <ele>918.5999755859375</ele>
        <time>2026-06-16T06:24:28.000Z</time>
        <extensions>
          <ns3:TrackPointExtension>
            <ns3:atemp>17.0</ns3:atemp>
          </ns3:TrackPointExtension>
        </extensions>
      </trkpt>
      <trkpt lat="42.60745740495622158050537109375" lon="19.92863687686622142791748046875">
        <ele>918.5999755859375</ele>
        <time>2026-06-16T06:24:29.000Z</time>
        <extensions>
          <ns3:TrackPointExtension>
            <ns3:atemp>17.0</ns3:atemp>
          </ns3:TrackPointExtension>
        </extensions>
      </trkpt>
      <trkpt lat="42.60750836692750453948974609375" lon="19.92858993820846080780029296875">
        <ele>918.4000244140625</ele>
        <time>2026-06-16T06:24:30.000Z</time>
        <extensions>
          <ns3:TrackPointExtension>
            <ns3:atemp>17.0</ns3:atemp>
          </ns3:TrackPointExtension>
        </extensions>
      </trkpt>
      <trkpt lat="42.60755899362266063690185546875" lon="19.928536713123321533203125">
        <ele>918.20001220703125</ele>
        <time>2026-06-16T06:24:31.000Z</time>
        <extensions>
          <ns3:TrackPointExtension>
            <ns3:atemp>17.0</ns3:atemp>
          </ns3:TrackPointExtension>
        </extensions>
      </trkpt>
      <trkpt lat="42.60760945267975330352783203125" lon="19.92848365567624568939208984375">
        <ele>918.20001220703125</ele>
        <time>2026-06-16T06:24:32.000Z</time>
        <extensions>
          <ns3:TrackPointExtension>
            <ns3:atemp>17.0</ns3:atemp>
          </ns3:TrackPointExtension>
        </extensions>
      </trkpt>
      <trkpt lat="42.60766066610813140869140625" lon="19.9284299276769161224365234375">
        <ele>918</ele>
        <time>2026-06-16T06:24:33.000Z</time>
        <extensions>
          <ns3:TrackPointExtension>
            <ns3:atemp>17.0</ns3:atemp>
          </ns3:TrackPointExtension>
        </extensions>
      </trkpt>
      <trkpt lat="42.60771187953650951385498046875" lon="19.92837519384920597076416015625">
        <ele>917.79998779296875</ele>
        <time>2026-06-16T06:24:34.000Z</time>
        <extensions>
          <ns3:TrackPointExtension>
            <ns3:atemp>17.0</ns3:atemp>
          </ns3:TrackPointExtension>
        </extensions>
      </trkpt>
      <trkpt lat="42.60776418261229991912841796875" lon="19.92832372896373271942138671875">
        <ele>917.79998779296875</ele>
        <time>2026-06-16T06:24:35.000Z</time>
        <extensions>
          <ns3:TrackPointExtension>
            <ns3:atemp>17.0</ns3:atemp>
          </ns3:TrackPointExtension>
        </extensions>
      </trkpt>
      <trkpt lat="42.60781715624034404754638671875" lon="19.92827226407825946807861328125">
        <ele>917.5999755859375</ele>
        <time>2026-06-16T06:24:36.000Z</time>
        <extensions>
          <ns3:TrackPointExtension>
            <ns3:atemp>17.0</ns3:atemp>
          </ns3:TrackPointExtension>
        </extensions>
      </trkpt>
      <trkpt lat="42.60786878876388072967529296875" lon="19.9282183684408664703369140625">
        <ele>917.4000244140625</ele>
        <time>2026-06-16T06:24:37.000Z</time>
        <extensions>
          <ns3:TrackPointExtension>
            <ns3:atemp>17.0</ns3:atemp>
          </ns3:TrackPointExtension>
        </extensions>
      </trkpt>
      <trkpt lat="42.6079223491251468658447265625" lon="19.92816430516541004180908203125">
        <ele>917.20001220703125</ele>
        <time>2026-06-16T06:24:38.000Z</time>
        <extensions>
          <ns3:TrackPointExtension>
            <ns3:atemp>17.0</ns3:atemp>
          </ns3:TrackPointExtension>
        </extensions>
      </trkpt>
      <trkpt lat="42.60797339491546154022216796875" lon="19.92810479365289211273193359375">
        <ele>917.20001220703125</ele>
        <time>2026-06-16T06:24:39.000Z</time>
        <extensions>
          <ns3:TrackPointExtension>
            <ns3:atemp>17.0</ns3:atemp>
          </ns3:TrackPointExtension>
        </extensions>
      </trkpt>
      <trkpt lat="42.608017064630985260009765625" lon="19.928038828074932098388671875">
        <ele>917.20001220703125</ele>
        <time>2026-06-16T06:24:40.000Z</time>
        <extensions>
          <ns3:TrackPointExtension>
            <ns3:atemp>17.0</ns3:atemp>
          </ns3:TrackPointExtension>
        </extensions>
      </trkpt>
      <trkpt lat="42.6080537773668766021728515625" lon="19.92796548642218112945556640625">
        <ele>917.20001220703125</ele>
        <time>2026-06-16T06:24:41.000Z</time>
        <extensions>
          <ns3:TrackPointExtension>
            <ns3:atemp>17.0</ns3:atemp>
          </ns3:TrackPointExtension>
        </extensions>
      </trkpt>
      <trkpt lat="42.6080836169421672821044921875" lon="19.9278877861797809600830078125">
        <ele>917</ele>
        <time>2026-06-16T06:24:42.000Z</time>
        <extensions>
          <ns3:TrackPointExtension>
            <ns3:atemp>17.0</ns3:atemp>
          </ns3:TrackPointExtension>
        </extensions>
      </trkpt>
      <trkpt lat="42.60810733772814273834228515625" lon="19.92780757136642932891845703125">
        <ele>917</ele>
        <time>2026-06-16T06:24:43.000Z</time>
        <extensions>
          <ns3:TrackPointExtension>
            <ns3:atemp>17.0</ns3:atemp>
          </ns3:TrackPointExtension>
        </extensions>
      </trkpt>
      <trkpt lat="42.60812527500092983245849609375" lon="19.92773029021918773651123046875">
        <ele>917</ele>
        <time>2026-06-16T06:24:44.000Z</time>
        <extensions>
          <ns3:TrackPointExtension>
            <ns3:atemp>17.0</ns3:atemp>
          </ns3:TrackPointExtension>
        </extensions>
      </trkpt>
      <trkpt lat="42.608141787350177764892578125" lon="19.92765082977712154388427734375">
        <ele>917</ele>
        <time>2026-06-16T06:24:45.000Z</time>
        <extensions>
          <ns3:TrackPointExtension>
            <ns3:atemp>17.0</ns3:atemp>
          </ns3:TrackPointExtension>
        </extensions>
      </trkpt>
      <trkpt lat="42.6081614010035991668701171875" lon="19.92756768129765987396240234375">
        <ele>916.79998779296875</ele>
        <time>2026-06-16T06:24:46.000Z</time>
        <extensions>
          <ns3:TrackPointExtension>
            <ns3:atemp>17.0</ns3:atemp>
          </ns3:TrackPointExtension>
        </extensions>
      </trkpt>
      <trkpt lat="42.60817539878189563751220703125" lon="19.9274854548275470733642578125">
        <ele>916.79998779296875</ele>
        <time>2026-06-16T06:24:47.000Z</time>
        <extensions>
          <ns3:TrackPointExtension>
            <ns3:atemp>17.0</ns3:atemp>
          </ns3:TrackPointExtension>
        </extensions>
      </trkpt>
      <trkpt lat="42.6081865467131137847900390625" lon="19.92740071378648281097412109375">
        <ele>916.79998779296875</ele>
        <time>2026-06-16T06:24:48.000Z</time>
        <extensions>
          <ns3:TrackPointExtension>
            <ns3:atemp>17.0</ns3:atemp>
          </ns3:TrackPointExtension>
        </extensions>
      </trkpt>
      <trkpt lat="42.608197443187236785888671875" lon="19.927318990230560302734375">
        <ele>916.79998779296875</ele>
        <time>2026-06-16T06:24:49.000Z</time>
        <extensions>
          <ns3:TrackPointExtension>
            <ns3:atemp>17.0</ns3:atemp>
          </ns3:TrackPointExtension>
        </extensions>
      </trkpt>
      <trkpt lat="42.608208842575550079345703125" lon="19.92724363692104816436767578125">
        <ele>916.79998779296875</ele>
        <time>2026-06-16T06:24:50.000Z</time>
        <extensions>
          <ns3:TrackPointExtension>
            <ns3:atemp>17.0</ns3:atemp>
          </ns3:TrackPointExtension>
        </extensions>
      </trkpt>
      <trkpt lat="42.608217559754848480224609375" lon="19.927169792354106903076171875">
        <ele>916.79998779296875</ele>
        <time>2026-06-16T06:24:51.000Z</time>
        <extensions>
          <ns3:TrackPointExtension>
            <ns3:atemp>17.0</ns3:atemp>
          </ns3:TrackPointExtension>
        </extensions>
      </trkpt>
      <trkpt lat="42.60822803713381290435791015625" lon="19.9270968697965145111083984375">
        <ele>917</ele>
        <time>2026-06-16T06:24:52.000Z</time>
        <extensions>
          <ns3:TrackPointExtension>
            <ns3:atemp>17.0</ns3:atemp>
          </ns3:TrackPointExtension>
        </extensions>
      </trkpt>
      <trkpt lat="42.60823977179825305938720703125" lon="19.92702503688633441925048828125">
        <ele>917</ele>
        <time>2026-06-16T06:24:53.000Z</time>
        <extensions>
          <ns3:TrackPointExtension>
            <ns3:atemp>17.0</ns3:atemp>
          </ns3:TrackPointExtension>
        </extensions>
      </trkpt>
      <trkpt lat="42.60825033299624919891357421875" lon="19.9269543774425983428955078125">
        <ele>917</ele>
        <time>2026-06-16T06:24:54.000Z</time>
        <extensions>
          <ns3:TrackPointExtension>
            <ns3:atemp>17.0</ns3:atemp>
          </ns3:TrackPointExtension>
        </extensions>
      </trkpt>
      <trkpt lat="42.60826474986970424652099609375" lon="19.9268822930753231048583984375">
        <ele>917.20001220703125</ele>
        <time>2026-06-16T06:24:55.000Z</time>
        <extensions>
          <ns3:TrackPointExtension>
            <ns3:atemp>17.0</ns3:atemp>
          </ns3:TrackPointExtension>
        </extensions>
      </trkpt>
      <trkpt lat="42.60828427970409393310546875" lon="19.92681515403091907501220703125">
        <ele>917.20001220703125</ele>
        <time>2026-06-16T06:24:56.000Z</time>
        <extensions>
          <ns3:TrackPointExtension>
            <ns3:atemp>17.0</ns3:atemp>
          </ns3:TrackPointExtension>
        </extensions>
      </trkpt>
      <trkpt lat="42.60830439627170562744140625" lon="19.9267505295574665069580078125">
        <ele>917.4000244140625</ele>
        <time>2026-06-16T06:24:57.000Z</time>
        <extensions>
          <ns3:TrackPointExtension>
            <ns3:atemp>17.0</ns3:atemp>
          </ns3:TrackPointExtension>
        </extensions>
      </trkpt>
      <trkpt lat="42.60833079926669597625732421875" lon="19.9266898445785045623779296875">
        <ele>917.4000244140625</ele>
        <time>2026-06-16T06:24:58.000Z</time>
        <extensions>
          <ns3:TrackPointExtension>
            <ns3:atemp>17.0</ns3:atemp>
          </ns3:TrackPointExtension>
        </extensions>
      </trkpt>
      <trkpt lat="42.60836818255484104156494140625" lon="19.9266398884356021881103515625">
        <ele>917.4000244140625</ele>
        <time>2026-06-16T06:24:59.000Z</time>
        <extensions>
          <ns3:TrackPointExtension>
            <ns3:atemp>17.0</ns3:atemp>
          </ns3:TrackPointExtension>
        </extensions>
      </trkpt>
      <trkpt lat="42.6084141992032527923583984375" lon="19.92660258896648883819580078125">
        <ele>917.4000244140625</ele>
        <time>2026-06-16T06:25:00.000Z</time>
        <extensions>
          <ns3:TrackPointExtension>
            <ns3:atemp>17.0</ns3:atemp>
          </ns3:TrackPointExtension>
        </extensions>
      </trkpt>
      <trkpt lat="42.60846524499356746673583984375" lon="19.92657895199954509735107421875">
        <ele>917.4000244140625</ele>
        <time>2026-06-16T06:25:01.000Z</time>
        <extensions>
          <ns3:TrackPointExtension>
            <ns3:atemp>17.0</ns3:atemp>
          </ns3:TrackPointExtension>
        </extensions>
      </trkpt>
      <trkpt lat="42.60851721279323101043701171875" lon="19.92655866779386997222900390625">
        <ele>917.20001220703125</ele>
        <time>2026-06-16T06:25:02.000Z</time>
        <extensions>
          <ns3:TrackPointExtension>
            <ns3:atemp>17.0</ns3:atemp>
          </ns3:TrackPointExtension>
        </extensions>
      </trkpt>
      <trkpt lat="42.60856649838387966156005859375" lon="19.926541149616241455078125">
        <ele>917.20001220703125</ele>
        <time>2026-06-16T06:25:03.000Z</time>
        <extensions>
          <ns3:TrackPointExtension>
            <ns3:atemp>17.0</ns3:atemp>
          </ns3:TrackPointExtension>
        </extensions>
      </trkpt>
      <trkpt lat="42.6086146943271160125732421875" lon="19.92652170360088348388671875">
        <ele>917.20001220703125</ele>
        <time>2026-06-16T06:25:04.000Z</time>
        <extensions>
          <ns3:TrackPointExtension>
            <ns3:atemp>17.0</ns3:atemp>
          </ns3:TrackPointExtension>
        </extensions>
      </trkpt>
      <trkpt lat="42.6086636446416378021240234375" lon="19.92650183849036693572998046875">
        <ele>917.20001220703125</ele>
        <time>2026-06-16T06:25:05.000Z</time>
        <extensions>
          <ns3:TrackPointExtension>
            <ns3:atemp>17.0</ns3:atemp>
          </ns3:TrackPointExtension>
        </extensions>
      </trkpt>
      <trkpt lat="42.60871200822293758392333984375" lon="19.92647971026599407196044921875">
        <ele>917.4000244140625</ele>
        <time>2026-06-16T06:25:06.000Z</time>
        <extensions>
          <ns3:TrackPointExtension>
            <ns3:atemp>17.0</ns3:atemp>
          </ns3:TrackPointExtension>
        </extensions>
      </trkpt>
      <trkpt lat="42.60875701904296875" lon="19.92645322345197200775146484375">
        <ele>917.5999755859375</ele>
        <time>2026-06-16T06:25:07.000Z</time>
        <extensions>
          <ns3:TrackPointExtension>
            <ns3:atemp>17.0</ns3:atemp>
          </ns3:TrackPointExtension>
        </extensions>
      </trkpt>
      <trkpt lat="42.60880001820623874664306640625" lon="19.92642405442893505096435546875">
        <ele>918</ele>
        <time>2026-06-16T06:25:08.000Z</time>
        <extensions>
          <ns3:TrackPointExtension>
            <ns3:atemp>17.0</ns3:atemp>
          </ns3:TrackPointExtension>
        </extensions>
      </trkpt>
      <trkpt lat="42.608841173350811004638671875" lon="19.926395975053310394287109375">
        <ele>918.4000244140625</ele>
        <time>2026-06-16T06:25:09.000Z</time>
        <extensions>
          <ns3:TrackPointExtension>
            <ns3:atemp>17.0</ns3:atemp>
          </ns3:TrackPointExtension>
        </extensions>
      </trkpt>
      <trkpt lat="42.60888040065765380859375" lon="19.92636479437351226806640625">
        <ele>918.5999755859375</ele>
        <time>2026-06-16T06:25:10.000Z</time>
        <extensions>
          <ns3:TrackPointExtension>
            <ns3:atemp>17.0</ns3:atemp>
          </ns3:TrackPointExtension>
        </extensions>
      </trkpt>
      <trkpt lat="42.60892004705965518951416015625" lon="19.9263378046452999114990234375">
        <ele>918.79998779296875</ele>
        <time>2026-06-16T06:25:11.000Z</time>
        <extensions>
          <ns3:TrackPointExtension>
            <ns3:atemp>17.0</ns3:atemp>
          </ns3:TrackPointExtension>
        </extensions>
      </trkpt>
      <trkpt lat="42.60896145366132259368896484375" lon="19.92630821652710437774658203125">
        <ele>919</ele>
        <time>2026-06-16T06:25:12.000Z</time>
        <extensions>
          <ns3:TrackPointExtension>
            <ns3:atemp>17.0</ns3:atemp>
          </ns3:TrackPointExtension>
        </extensions>
      </trkpt>
      <trkpt lat="42.609003446996212005615234375" lon="19.926277957856655120849609375">
        <ele>919</ele>
        <time>2026-06-16T06:25:13.000Z</time>
        <extensions>
          <ns3:TrackPointExtension>
            <ns3:atemp>17.0</ns3:atemp>
          </ns3:TrackPointExtension>
        </extensions>
      </trkpt>
      <trkpt lat="42.60904560796916484832763671875" lon="19.92625138722360134124755859375">
        <ele>919</ele>
        <time>2026-06-16T06:25:14.000Z</time>
        <extensions>
          <ns3:TrackPointExtension>
            <ns3:atemp>17.0</ns3:atemp>
          </ns3:TrackPointExtension>
        </extensions>
      </trkpt>
      <trkpt lat="42.60908718220889568328857421875" lon="19.9262273311614990234375">
        <ele>919.20001220703125</ele>
        <time>2026-06-16T06:25:15.000Z</time>
        <extensions>
          <ns3:TrackPointExtension>
            <ns3:atemp>17.0</ns3:atemp>
          </ns3:TrackPointExtension>
        </extensions>
      </trkpt>
      <trkpt lat="42.60913051664829254150390625" lon="19.9262083880603313446044921875">
        <ele>919.4000244140625</ele>
        <time>2026-06-16T06:25:16.000Z</time>
        <extensions>
          <ns3:TrackPointExtension>
            <ns3:atemp>17.0</ns3:atemp>
          </ns3:TrackPointExtension>
        </extensions>
      </trkpt>
      <trkpt lat="42.6091739349067211151123046875" lon="19.92618852294981479644775390625">
        <ele>919.5999755859375</ele>
        <time>2026-06-16T06:25:17.000Z</time>
        <extensions>
          <ns3:TrackPointExtension>
            <ns3:atemp>17.0</ns3:atemp>
          </ns3:TrackPointExtension>
        </extensions>
      </trkpt>
      <trkpt lat="42.6092170178890228271484375" lon="19.92616756819188594818115234375">
        <ele>919.5999755859375</ele>
        <time>2026-06-16T06:25:18.000Z</time>
        <extensions>
          <ns3:TrackPointExtension>
            <ns3:atemp>17.0</ns3:atemp>
          </ns3:TrackPointExtension>
        </extensions>
      </trkpt>
      <trkpt lat="42.60925783775746822357177734375" lon="19.926152564585208892822265625">
        <ele>919.79998779296875</ele>
        <time>2026-06-16T06:25:19.000Z</time>
        <extensions>
          <ns3:TrackPointExtension>
            <ns3:atemp>17.0</ns3:atemp>
          </ns3:TrackPointExtension>
        </extensions>
      </trkpt>
      <trkpt lat="42.609303183853626251220703125" lon="19.92615130729973316192626953125">
        <ele>919.79998779296875</ele>
        <time>2026-06-16T06:25:20.000Z</time>
        <extensions>
          <ns3:TrackPointExtension>
            <ns3:atemp>17.0</ns3:atemp>
          </ns3:TrackPointExtension>
        </extensions>
      </trkpt>
      <trkpt lat="42.609351463615894317626953125" lon="19.926147870719432830810546875">
        <ele>919.79998779296875</ele>
        <time>2026-06-16T06:25:21.000Z</time>
        <extensions>
          <ns3:TrackPointExtension>
            <ns3:atemp>17.0</ns3:atemp>
          </ns3:TrackPointExtension>
        </extensions>
      </trkpt>
      <trkpt lat="42.60939898900687694549560546875" lon="19.9261483736336231231689453125">
        <ele>919.79998779296875</ele>
        <time>2026-06-16T06:25:22.000Z</time>
        <extensions>
          <ns3:TrackPointExtension>
            <ns3:atemp>17.0</ns3:atemp>
          </ns3:TrackPointExtension>
        </extensions>
      </trkpt>
      <trkpt lat="42.60944559238851070404052734375" lon="19.9261517263948917388916015625">
        <ele>919.79998779296875</ele>
        <time>2026-06-16T06:25:23.000Z</time>
        <extensions>
          <ns3:TrackPointExtension>
            <ns3:atemp>17.0</ns3:atemp>
          </ns3:TrackPointExtension>
        </extensions>
      </trkpt>
      <trkpt lat="42.6094904355704784393310546875" lon="19.92615717463195323944091796875">
        <ele>919.79998779296875</ele>
        <time>2026-06-16T06:25:24.000Z</time>
        <extensions>
          <ns3:TrackPointExtension>
            <ns3:atemp>17.0</ns3:atemp>
          </ns3:TrackPointExtension>
        </extensions>
      </trkpt>
      <trkpt lat="42.60953645221889019012451171875" lon="19.92616991512477397918701171875">
        <ele>920</ele>
        <time>2026-06-16T06:25:25.000Z</time>
        <extensions>
          <ns3:TrackPointExtension>
            <ns3:atemp>17.0</ns3:atemp>
          </ns3:TrackPointExtension>
        </extensions>
      </trkpt>
      <trkpt lat="42.6095846481621265411376953125" lon="19.92618047632277011871337890625">
        <ele>920</ele>
        <time>2026-06-16T06:25:26.000Z</time>
        <extensions>
          <ns3:TrackPointExtension>
            <ns3:atemp>17.0</ns3:atemp>
          </ns3:TrackPointExtension>
        </extensions>
      </trkpt>
      <trkpt lat="42.60963611304759979248046875" lon="19.92619137279689311981201171875">
        <ele>920</ele>
        <time>2026-06-16T06:25:27.000Z</time>
        <extensions>
          <ns3:TrackPointExtension>
            <ns3:atemp>17.0</ns3:atemp>
          </ns3:TrackPointExtension>
        </extensions>
      </trkpt>
      <trkpt lat="42.60968732647597789764404296875" lon="19.92619841359555721282958984375">
        <ele>920.20001220703125</ele>
        <time>2026-06-16T06:25:28.000Z</time>
        <extensions>
          <ns3:TrackPointExtension>
            <ns3:atemp>17.0</ns3:atemp>
          </ns3:TrackPointExtension>
        </extensions>
      </trkpt>
      <trkpt lat="42.6097405515611171722412109375" lon="19.92620578967034816741943359375">
        <ele>920.20001220703125</ele>
        <time>2026-06-16T06:25:29.000Z</time>
        <extensions>
          <ns3:TrackPointExtension>
            <ns3:atemp>17.0</ns3:atemp>
          </ns3:TrackPointExtension>
        </extensions>
      </trkpt>
      <trkpt lat="42.609791345894336700439453125" lon="19.9262137524783611297607421875">
        <ele>920.20001220703125</ele>
        <time>2026-06-16T06:25:30.000Z</time>
        <extensions>
          <ns3:TrackPointExtension>
            <ns3:atemp>17.0</ns3:atemp>
          </ns3:TrackPointExtension>
        </extensions>
      </trkpt>
      <trkpt lat="42.6098444871604442596435546875" lon="19.92622473277151584625244140625">
        <ele>920.20001220703125</ele>
        <time>2026-06-16T06:25:31.000Z</time>
        <extensions>
          <ns3:TrackPointExtension>
            <ns3:atemp>17.0</ns3:atemp>
          </ns3:TrackPointExtension>
        </extensions>
      </trkpt>
      <trkpt lat="42.6098988018929958343505859375" lon="19.9262355454266071319580078125">
        <ele>920</ele>
        <time>2026-06-16T06:25:32.000Z</time>
        <extensions>
          <ns3:TrackPointExtension>
            <ns3:atemp>17.0</ns3:atemp>
          </ns3:TrackPointExtension>
        </extensions>
      </trkpt>
      <trkpt lat="42.60995395481586456298828125" lon="19.92624317295849323272705078125">
        <ele>920</ele>
        <time>2026-06-16T06:25:33.000Z</time>
        <extensions>
          <ns3:TrackPointExtension>
            <ns3:atemp>17.0</ns3:atemp>
          </ns3:TrackPointExtension>
        </extensions>
      </trkpt>
      <trkpt lat="42.61001103557646274566650390625" lon="19.9262499623000621795654296875">
        <ele>919.79998779296875</ele>
        <time>2026-06-16T06:25:34.000Z</time>
        <extensions>
          <ns3:TrackPointExtension>
            <ns3:atemp>17.0</ns3:atemp>
          </ns3:TrackPointExtension>
        </extensions>
      </trkpt>
      <trkpt lat="42.6100697927176952362060546875" lon="19.92625490762293338775634765625">
        <ele>919.5999755859375</ele>
        <time>2026-06-16T06:25:35.000Z</time>
        <extensions>
          <ns3:TrackPointExtension>
            <ns3:atemp>17.0</ns3:atemp>
          </ns3:TrackPointExtension>
        </extensions>
      </trkpt>
      <trkpt lat="42.61012871749699115753173828125" lon="19.92626178078353404998779296875">
        <ele>919.5999755859375</ele>
        <time>2026-06-16T06:25:36.000Z</time>
        <extensions>
          <ns3:TrackPointExtension>
            <ns3:atemp>17.0</ns3:atemp>
          </ns3:TrackPointExtension>
        </extensions>
      </trkpt>
      <trkpt lat="42.6101879775524139404296875" lon="19.9262717552483081817626953125">
        <ele>919.4000244140625</ele>
        <time>2026-06-16T06:25:37.000Z</time>
        <extensions>
          <ns3:TrackPointExtension>
            <ns3:atemp>17.0</ns3:atemp>
          </ns3:TrackPointExtension>
        </extensions>
      </trkpt>
      <trkpt lat="42.61024296283721923828125" lon="19.9262794665992259979248046875">
        <ele>919.4000244140625</ele>
        <time>2026-06-16T06:25:38.000Z</time>
        <extensions>
          <ns3:TrackPointExtension>
            <ns3:atemp>17.0</ns3:atemp>
          </ns3:TrackPointExtension>
        </extensions>
      </trkpt>
      <trkpt lat="42.61030222289264202117919921875" lon="19.926286675035953521728515625">
        <ele>919.20001220703125</ele>
        <time>2026-06-16T06:25:39.000Z</time>
        <extensions>
          <ns3:TrackPointExtension>
            <ns3:atemp>17.0</ns3:atemp>
          </ns3:TrackPointExtension>
        </extensions>
      </trkpt>
      <trkpt lat="42.61036039330065250396728515625" lon="19.9262938834726810455322265625">
        <ele>919.20001220703125</ele>
        <time>2026-06-16T06:25:40.000Z</time>
        <extensions>
          <ns3:TrackPointExtension>
            <ns3:atemp>17.0</ns3:atemp>
          </ns3:TrackPointExtension>
        </extensions>
      </trkpt>
      <trkpt lat="42.61041822843253612518310546875" lon="19.92630821652710437774658203125">
        <ele>919</ele>
        <time>2026-06-16T06:25:41.000Z</time>
        <extensions>
          <ns3:TrackPointExtension>
            <ns3:atemp>17.0</ns3:atemp>
          </ns3:TrackPointExtension>
        </extensions>
      </trkpt>
      <trkpt lat="42.6104798354208469390869140625" lon="19.92632414214313030242919921875">
        <ele>918.79998779296875</ele>
        <time>2026-06-16T06:25:42.000Z</time>
        <extensions>
          <ns3:TrackPointExtension>
            <ns3:atemp>17.0</ns3:atemp>
          </ns3:TrackPointExtension>
        </extensions>
      </trkpt>
      <trkpt lat="42.61054093949496746063232421875" lon="19.92634392343461513519287109375">
        <ele>918.5999755859375</ele>
        <time>2026-06-16T06:25:43.000Z</time>
        <extensions>
          <ns3:TrackPointExtension>
            <ns3:atemp>17.0</ns3:atemp>
          </ns3:TrackPointExtension>
        </extensions>
      </trkpt>
      <trkpt lat="42.61059894226491451263427734375" lon="19.9263676442205905914306640625">
        <ele>918.5999755859375</ele>
        <time>2026-06-16T06:25:44.000Z</time>
        <extensions>
          <ns3:TrackPointExtension>
            <ns3:atemp>17.0</ns3:atemp>
          </ns3:TrackPointExtension>
        </extensions>
      </trkpt>
      <trkpt lat="42.61065761558711528778076171875" lon="19.92639387957751750946044921875">
        <ele>918.5999755859375</ele>
        <time>2026-06-16T06:25:45.000Z</time>
        <extensions>
          <ns3:TrackPointExtension>
            <ns3:atemp>17.0</ns3:atemp>
          </ns3:TrackPointExtension>
        </extensions>
      </trkpt>
      <trkpt lat="42.610718049108982086181640625" lon="19.92642246186733245849609375">
        <ele>918.4000244140625</ele>
        <time>2026-06-16T06:25:46.000Z</time>
        <extensions>
          <ns3:TrackPointExtension>
            <ns3:atemp>17.0</ns3:atemp>
          </ns3:TrackPointExtension>
        </extensions>
      </trkpt>
      <trkpt lat="42.61077873408794403076171875" lon="19.9264591746032238006591796875">
        <ele>918.20001220703125</ele>
        <time>2026-06-16T06:25:47.000Z</time>
        <extensions>
          <ns3:TrackPointExtension>
            <ns3:atemp>17.0</ns3:atemp>
          </ns3:TrackPointExtension>
        </extensions>
      </trkpt>
      <trkpt lat="42.6108362339437007904052734375" lon="19.92649882100522518157958984375">
        <ele>918</ele>
        <time>2026-06-16T06:25:48.000Z</time>
        <extensions>
          <ns3:TrackPointExtension>
            <ns3:atemp>17.0</ns3:atemp>
          </ns3:TrackPointExtension>
        </extensions>
      </trkpt>
      <trkpt lat="42.61089197359979152679443359375" lon="19.9265379644930362701416015625">
        <ele>918</ele>
        <time>2026-06-16T06:25:49.000Z</time>
        <extensions>
          <ns3:TrackPointExtension>
            <ns3:atemp>17.0</ns3:atemp>
          </ns3:TrackPointExtension>
        </extensions>
      </trkpt>
      <trkpt lat="42.61095039546489715576171875" lon="19.92658196948468685150146484375">
        <ele>917.79998779296875</ele>
        <time>2026-06-16T06:25:50.000Z</time>
        <extensions>
          <ns3:TrackPointExtension>
            <ns3:atemp>17.0</ns3:atemp>
          </ns3:TrackPointExtension>
        </extensions>
      </trkpt>
      <trkpt lat="42.61100932024419307708740234375" lon="19.92662337608635425567626953125">
        <ele>917.5999755859375</ele>
        <time>2026-06-16T06:25:51.000Z</time>
        <extensions>
          <ns3:TrackPointExtension>
            <ns3:atemp>17.0</ns3:atemp>
          </ns3:TrackPointExtension>
        </extensions>
      </trkpt>
      <trkpt lat="42.61106849648058414459228515625" lon="19.92666394449770450592041015625">
        <ele>917.4000244140625</ele>
        <time>2026-06-16T06:25:52.000Z</time>
        <extensions>
          <ns3:TrackPointExtension>
            <ns3:atemp>17.0</ns3:atemp>
          </ns3:TrackPointExtension>
        </extensions>
      </trkpt>
      <trkpt lat="42.61112817563116550445556640625" lon="19.92670803330838680267333984375">
        <ele>917.20001220703125</ele>
        <time>2026-06-16T06:25:53.000Z</time>
        <extensions>
          <ns3:TrackPointExtension>
            <ns3:atemp>17.0</ns3:atemp>
          </ns3:TrackPointExtension>
        </extensions>
      </trkpt>
      <trkpt lat="42.61118768714368343353271484375" lon="19.92675228975713253021240234375">
        <ele>917</ele>
        <time>2026-06-16T06:25:54.000Z</time>
        <extensions>
          <ns3:TrackPointExtension>
            <ns3:atemp>17.0</ns3:atemp>
          </ns3:TrackPointExtension>
        </extensions>
      </trkpt>
      <trkpt lat="42.61124585755169391632080078125" lon="19.92679336108267307281494140625">
        <ele>917</ele>
        <time>2026-06-16T06:25:55.000Z</time>
        <extensions>
          <ns3:TrackPointExtension>
            <ns3:atemp>17.0</ns3:atemp>
          </ns3:TrackPointExtension>
        </extensions>
      </trkpt>
      <trkpt lat="42.61130419559776782989501953125" lon="19.92683091200888156890869140625">
        <ele>916.79998779296875</ele>
        <time>2026-06-16T06:25:56.000Z</time>
        <extensions>
          <ns3:TrackPointExtension>
            <ns3:atemp>17.0</ns3:atemp>
          </ns3:TrackPointExtension>
        </extensions>
      </trkpt>
      <trkpt lat="42.61136622168123722076416015625" lon="19.9268702231347560882568359375">
        <ele>916.5999755859375</ele>
        <time>2026-06-16T06:25:57.000Z</time>
        <extensions>
          <ns3:TrackPointExtension>
            <ns3:atemp>17.0</ns3:atemp>
          </ns3:TrackPointExtension>
        </extensions>
      </trkpt>
      <trkpt lat="42.6114279963076114654541015625" lon="19.92691196501255035400390625">
        <ele>916.5999755859375</ele>
        <time>2026-06-16T06:25:58.000Z</time>
        <extensions>
          <ns3:TrackPointExtension>
            <ns3:atemp>17.0</ns3:atemp>
          </ns3:TrackPointExtension>
        </extensions>
      </trkpt>
      <trkpt lat="42.6114886812865734100341796875" lon="19.92695488035678863525390625">
        <ele>916.4000244140625</ele>
        <time>2026-06-16T06:25:59.000Z</time>
        <extensions>
          <ns3:TrackPointExtension>
            <ns3:atemp>17.0</ns3:atemp>
          </ns3:TrackPointExtension>
        </extensions>
      </trkpt>
      <trkpt lat="42.61154718697071075439453125" lon="19.92699888534843921661376953125">
        <ele>916</ele>
        <time>2026-06-16T06:26:00.000Z</time>
        <extensions>
          <ns3:TrackPointExtension>
            <ns3:atemp>17.0</ns3:atemp>
          </ns3:TrackPointExtension>
        </extensions>
      </trkpt>
      <trkpt lat="42.6116040162742137908935546875" lon="19.92704062722623348236083984375">
        <ele>915.79998779296875</ele>
        <time>2026-06-16T06:26:01.000Z</time>
        <extensions>
          <ns3:TrackPointExtension>
            <ns3:atemp>17.0</ns3:atemp>
          </ns3:TrackPointExtension>
        </extensions>
      </trkpt>
      <trkpt lat="42.61166310869157314300537109375" lon="19.92707884870469570159912109375">
        <ele>915.5999755859375</ele>
        <time>2026-06-16T06:26:02.000Z</time>
        <extensions>
          <ns3:TrackPointExtension>
            <ns3:atemp>17.0</ns3:atemp>
          </ns3:TrackPointExtension>
        </extensions>
      </trkpt>
      <trkpt lat="42.61172312311828136444091796875" lon="19.9271112866699695587158203125">
        <ele>915.4000244140625</ele>
        <time>2026-06-16T06:26:03.000Z</time>
        <extensions>
          <ns3:TrackPointExtension>
            <ns3:atemp>17.0</ns3:atemp>
          </ns3:TrackPointExtension>
        </extensions>
      </trkpt>
      <trkpt lat="42.611785233020782470703125" lon="19.92713936604559421539306640625">
        <ele>915.20001220703125</ele>
        <time>2026-06-16T06:26:04.000Z</time>
        <extensions>
          <ns3:TrackPointExtension>
            <ns3:atemp>17.0</ns3:atemp>
          </ns3:TrackPointExtension>
        </extensions>
      </trkpt>
      <trkpt lat="42.61185086332261562347412109375" lon="19.92716032080352306365966796875">
        <ele>915</ele>
        <time>2026-06-16T06:26:05.000Z</time>
        <extensions>
          <ns3:TrackPointExtension>
            <ns3:atemp>17.0</ns3:atemp>
          </ns3:TrackPointExtension>
        </extensions>
      </trkpt>
      <trkpt lat="42.61192076839506626129150390625" lon="19.927167780697345733642578125">
        <ele>914.79998779296875</ele>
        <time>2026-06-16T06:26:06.000Z</time>
        <extensions>
          <ns3:TrackPointExtension>
            <ns3:atemp>17.0</ns3:atemp>
          </ns3:TrackPointExtension>
        </extensions>
      </trkpt>
      <trkpt lat="42.6119904220104217529296875" lon="19.927162416279315948486328125">
        <ele>914.5999755859375</ele>
        <time>2026-06-16T06:26:07.000Z</time>
        <extensions>
          <ns3:TrackPointExtension>
            <ns3:atemp>17.0</ns3:atemp>
          </ns3:TrackPointExtension>
        </extensions>
      </trkpt>
      <trkpt lat="42.6120599918067455291748046875" lon="19.9271458201110363006591796875">
        <ele>914.5999755859375</ele>
        <time>2026-06-16T06:26:08.000Z</time>
        <extensions>
          <ns3:TrackPointExtension>
            <ns3:atemp>17.0</ns3:atemp>
          </ns3:TrackPointExtension>
        </extensions>
      </trkpt>
      <trkpt lat="42.61212922632694244384765625" lon="19.9271240271627902984619140625">
        <ele>914.4000244140625</ele>
        <time>2026-06-16T06:26:09.000Z</time>
        <extensions>
          <ns3:TrackPointExtension>
            <ns3:atemp>17.0</ns3:atemp>
          </ns3:TrackPointExtension>
        </extensions>
      </trkpt>
      <trkpt lat="42.61219569481909275054931640625" lon="19.9270961992442607879638671875">
        <ele>914.20001220703125</ele>
        <time>2026-06-16T06:26:10.000Z</time>
        <extensions>
          <ns3:TrackPointExtension>
            <ns3:atemp>17.0</ns3:atemp>
          </ns3:TrackPointExtension>
        </extensions>
      </trkpt>
      <trkpt lat="42.6122618280351161956787109375" lon="19.9270640127360820770263671875">
        <ele>914.20001220703125</ele>
        <time>2026-06-16T06:26:11.000Z</time>
        <extensions>
          <ns3:TrackPointExtension>
            <ns3:atemp>17.0</ns3:atemp>
          </ns3:TrackPointExtension>
        </extensions>
      </trkpt>
      <trkpt lat="42.61232636868953704833984375" lon="19.92703266441822052001953125">
        <ele>914</ele>
        <time>2026-06-16T06:26:12.000Z</time>
        <extensions>
          <ns3:TrackPointExtension>
            <ns3:atemp>17.0</ns3:atemp>
          </ns3:TrackPointExtension>
        </extensions>
      </trkpt>
      <trkpt lat="42.61239099316298961639404296875" lon="19.92699938826262950897216796875">
        <ele>913.79998779296875</ele>
        <time>2026-06-16T06:26:13.000Z</time>
        <extensions>
          <ns3:TrackPointExtension>
            <ns3:atemp>17.0</ns3:atemp>
          </ns3:TrackPointExtension>
        </extensions>
      </trkpt>
      <trkpt lat="42.61245385743677616119384765625" lon="19.92696519009768962860107421875">
        <ele>913.5999755859375</ele>
        <time>2026-06-16T06:26:14.000Z</time>
        <extensions>
          <ns3:TrackPointExtension>
            <ns3:atemp>17.0</ns3:atemp>
          </ns3:TrackPointExtension>
        </extensions>
      </trkpt>
      <trkpt lat="42.6125183142721652984619140625" lon="19.92693216539919376373291015625">
        <ele>913.4000244140625</ele>
        <time>2026-06-16T06:26:15.000Z</time>
        <extensions>
          <ns3:TrackPointExtension>
            <ns3:atemp>17.0</ns3:atemp>
          </ns3:TrackPointExtension>
        </extensions>
      </trkpt>
      <trkpt lat="42.61258461512625217437744140625" lon="19.9268983863294124603271484375">
        <ele>913.20001220703125</ele>
        <time>2026-06-16T06:26:16.000Z</time>
        <extensions>
          <ns3:TrackPointExtension>
            <ns3:atemp>17.0</ns3:atemp>
          </ns3:TrackPointExtension>
        </extensions>
      </trkpt>
      <trkpt lat="42.612649910151958465576171875" lon="19.9268628470599651336669921875">
        <ele>913</ele>
        <time>2026-06-16T06:26:17.000Z</time>
        <extensions>
          <ns3:TrackPointExtension>
            <ns3:atemp>17.0</ns3:atemp>
          </ns3:TrackPointExtension>
        </extensions>
      </trkpt>
      <trkpt lat="42.61271369643509387969970703125" lon="19.92683074437081813812255859375">
        <ele>912.79998779296875</ele>
        <time>2026-06-16T06:26:18.000Z</time>
        <extensions>
          <ns3:TrackPointExtension>
            <ns3:atemp>17.0</ns3:atemp>
          </ns3:TrackPointExtension>
        </extensions>
      </trkpt>
      <trkpt lat="42.61277622543275356292724609375" lon="19.9267954565584659576416015625">
        <ele>912.79998779296875</ele>
        <time>2026-06-16T06:26:19.000Z</time>
        <extensions>
          <ns3:TrackPointExtension>
            <ns3:atemp>17.0</ns3:atemp>
          </ns3:TrackPointExtension>
        </extensions>
      </trkpt>
      <trkpt lat="42.6128380000591278076171875" lon="19.92676016874611377716064453125">
        <ele>912.5999755859375</ele>
        <time>2026-06-16T06:26:20.000Z</time>
        <extensions>
          <ns3:TrackPointExtension>
            <ns3:atemp>17.0</ns3:atemp>
          </ns3:TrackPointExtension>
        </extensions>
      </trkpt>
      <trkpt lat="42.61289910413324832916259765625" lon="19.9267277307808399200439453125">
        <ele>912.5999755859375</ele>
        <time>2026-06-16T06:26:21.000Z</time>
        <extensions>
          <ns3:TrackPointExtension>
            <ns3:atemp>17.0</ns3:atemp>
          </ns3:TrackPointExtension>
        </extensions>
      </trkpt>
      <trkpt lat="42.61296029202640056610107421875" lon="19.92669462226331233978271484375">
        <ele>912.4000244140625</ele>
        <time>2026-06-16T06:26:22.000Z</time>
        <extensions>
          <ns3:TrackPointExtension>
            <ns3:atemp>17.0</ns3:atemp>
          </ns3:TrackPointExtension>
        </extensions>
      </trkpt>
      <trkpt lat="42.61302349157631397247314453125" lon="19.92666184902191162109375">
        <ele>912.4000244140625</ele>
        <time>2026-06-16T06:26:23.000Z</time>
        <extensions>
          <ns3:TrackPointExtension>
            <ns3:atemp>17.0</ns3:atemp>
          </ns3:TrackPointExtension>
        </extensions>
      </trkpt>
      <trkpt lat="42.61308652348816394805908203125" lon="19.92663242854177951812744140625">
        <ele>912.4000244140625</ele>
        <time>2026-06-16T06:26:24.000Z</time>
        <extensions>
          <ns3:TrackPointExtension>
            <ns3:atemp>17.0</ns3:atemp>
          </ns3:TrackPointExtension>
        </extensions>
      </trkpt>
      <trkpt lat="42.613147795200347900390625" lon="19.92660007439553737640380859375">
        <ele>912.4000244140625</ele>
        <time>2026-06-16T06:26:25.000Z</time>
        <extensions>
          <ns3:TrackPointExtension>
            <ns3:atemp>17.0</ns3:atemp>
          </ns3:TrackPointExtension>
        </extensions>
      </trkpt>
      <trkpt lat="42.61320822872221469879150390625" lon="19.92656671442091464996337890625">
        <ele>912.4000244140625</ele>
        <time>2026-06-16T06:26:26.000Z</time>
        <extensions>
          <ns3:TrackPointExtension>
            <ns3:atemp>17.0</ns3:atemp>
          </ns3:TrackPointExtension>
        </extensions>
      </trkpt>
      <trkpt lat="42.6132669858634471893310546875" lon="19.92653469555079936981201171875">
        <ele>912.20001220703125</ele>
        <time>2026-06-16T06:26:27.000Z</time>
        <extensions>
          <ns3:TrackPointExtension>
            <ns3:atemp>17.0</ns3:atemp>
          </ns3:TrackPointExtension>
        </extensions>
      </trkpt>
      <trkpt lat="42.61332473717629909515380859375" lon="19.9265027604997158050537109375">
        <ele>912.20001220703125</ele>
        <time>2026-06-16T06:26:28.000Z</time>
        <extensions>
          <ns3:TrackPointExtension>
            <ns3:atemp>17.0</ns3:atemp>
          </ns3:TrackPointExtension>
        </extensions>
      </trkpt>
      <trkpt lat="42.6133826561272144317626953125" lon="19.92646940052509307861328125">
        <ele>912.20001220703125</ele>
        <time>2026-06-16T06:26:29.000Z</time>
        <extensions>
          <ns3:TrackPointExtension>
            <ns3:atemp>17.0</ns3:atemp>
          </ns3:TrackPointExtension>
        </extensions>
      </trkpt>
      <trkpt lat="42.61343973688781261444091796875" lon="19.92643947713077068328857421875">
        <ele>912.20001220703125</ele>
        <time>2026-06-16T06:26:30.000Z</time>
        <extensions>
          <ns3:TrackPointExtension>
            <ns3:atemp>17.0</ns3:atemp>
          </ns3:TrackPointExtension>
        </extensions>
      </trkpt>
      <trkpt lat="42.61349975131452083587646484375" lon="19.9264110624790191650390625">
        <ele>912.4000244140625</ele>
        <time>2026-06-16T06:26:31.000Z</time>
        <extensions>
          <ns3:TrackPointExtension>
            <ns3:atemp>17.0</ns3:atemp>
          </ns3:TrackPointExtension>
        </extensions>
      </trkpt>
      <trkpt lat="42.6135580055415630340576171875" lon="19.92638113908469676971435546875">
        <ele>912.4000244140625</ele>
        <time>2026-06-16T06:26:32.000Z</time>
        <extensions>
          <ns3:TrackPointExtension>
            <ns3:atemp>17.0</ns3:atemp>
          </ns3:TrackPointExtension>
        </extensions>
      </trkpt>
      <trkpt lat="42.61361592449247837066650390625" lon="19.92634777911007404327392578125">
        <ele>912.4000244140625</ele>
        <time>2026-06-16T06:26:33.000Z</time>
        <extensions>
          <ns3:TrackPointExtension>
            <ns3:atemp>17.0</ns3:atemp>
          </ns3:TrackPointExtension>
        </extensions>
      </trkpt>
      <trkpt lat="42.613673843443393707275390625" lon="19.92631743662059307098388671875">
        <ele>912.5999755859375</ele>
        <time>2026-06-16T06:26:34.000Z</time>
        <extensions>
          <ns3:TrackPointExtension>
            <ns3:atemp>17.0</ns3:atemp>
          </ns3:TrackPointExtension>
        </extensions>
      </trkpt>
      <trkpt lat="42.61373394168913364410400390625" lon="19.9262881837785243988037109375">
        <ele>912.5999755859375</ele>
        <time>2026-06-16T06:26:35.000Z</time>
        <extensions>
          <ns3:TrackPointExtension>
            <ns3:atemp>17.0</ns3:atemp>
          </ns3:TrackPointExtension>
        </extensions>
      </trkpt>
      <trkpt lat="42.61379110626876354217529296875" lon="19.92625876329839229583740234375">
        <ele>912.4000244140625</ele>
        <time>2026-06-16T06:26:36.000Z</time>
        <extensions>
          <ns3:TrackPointExtension>
            <ns3:atemp>17.0</ns3:atemp>
          </ns3:TrackPointExtension>
        </extensions>
      </trkpt>
      <trkpt lat="42.613845504820346832275390625" lon="19.926225654780864715576171875">
        <ele>912.4000244140625</ele>
        <time>2026-06-16T06:26:37.000Z</time>
        <extensions>
          <ns3:TrackPointExtension>
            <ns3:atemp>17.0</ns3:atemp>
          </ns3:TrackPointExtension>
        </extensions>
      </trkpt>
      <trkpt lat="42.6139001548290252685546875" lon="19.92619589902460575103759765625">
        <ele>912.4000244140625</ele>
        <time>2026-06-16T06:26:38.000Z</time>
        <extensions>
          <ns3:TrackPointExtension>
            <ns3:atemp>17.0</ns3:atemp>
          </ns3:TrackPointExtension>
        </extensions>
      </trkpt>
      <trkpt lat="42.6139559783041477203369140625" lon="19.92616404779255390167236328125">
        <ele>912.4000244140625</ele>
        <time>2026-06-16T06:26:39.000Z</time>
        <extensions>
          <ns3:TrackPointExtension>
            <ns3:atemp>17.0</ns3:atemp>
          </ns3:TrackPointExtension>
        </extensions>
      </trkpt>
      <trkpt lat="42.614012472331523895263671875" lon="19.92613353766500949859619140625">
        <ele>912.4000244140625</ele>
        <time>2026-06-16T06:26:40.000Z</time>
        <extensions>
          <ns3:TrackPointExtension>
            <ns3:atemp>17.0</ns3:atemp>
          </ns3:TrackPointExtension>
        </extensions>
      </trkpt>
      <trkpt lat="42.61406787671148777008056640625" lon="19.9261034466326236724853515625">
        <ele>912.5999755859375</ele>
        <time>2026-06-16T06:26:41.000Z</time>
        <extensions>
          <ns3:TrackPointExtension>
            <ns3:atemp>17.0</ns3:atemp>
          </ns3:TrackPointExtension>
        </extensions>
      </trkpt>
      <trkpt lat="42.61412235908210277557373046875" lon="19.92607436142861843109130859375">
        <ele>912.5999755859375</ele>
        <time>2026-06-16T06:26:42.000Z</time>
        <extensions>
          <ns3:TrackPointExtension>
            <ns3:atemp>17.0</ns3:atemp>
          </ns3:TrackPointExtension>
        </extensions>
      </trkpt>
      <trkpt lat="42.61417617090046405792236328125" lon="19.9260451085865497589111328125">
        <ele>912.5999755859375</ele>
        <time>2026-06-16T06:26:43.000Z</time>
        <extensions>
          <ns3:TrackPointExtension>
            <ns3:atemp>17.0</ns3:atemp>
          </ns3:TrackPointExtension>
        </extensions>
      </trkpt>
      <trkpt lat="42.6142309047281742095947265625" lon="19.92601610720157623291015625">
        <ele>912.5999755859375</ele>
        <time>2026-06-16T06:26:44.000Z</time>
        <extensions>
          <ns3:TrackPointExtension>
            <ns3:atemp>17.0</ns3:atemp>
          </ns3:TrackPointExtension>
        </extensions>
      </trkpt>
      <trkpt lat="42.61428563855588436126708984375" lon="19.9259871058166027069091796875">
        <ele>912.5999755859375</ele>
        <time>2026-06-16T06:26:45.000Z</time>
        <extensions>
          <ns3:TrackPointExtension>
            <ns3:atemp>17.0</ns3:atemp>
          </ns3:TrackPointExtension>
        </extensions>
      </trkpt>
      <trkpt lat="42.61433894746005535125732421875" lon="19.92595751769840717315673828125">
        <ele>912.5999755859375</ele>
        <time>2026-06-16T06:26:46.000Z</time>
        <extensions>
          <ns3:TrackPointExtension>
            <ns3:atemp>17.0</ns3:atemp>
          </ns3:TrackPointExtension>
        </extensions>
      </trkpt>
      <trkpt lat="42.6143911667168140411376953125" lon="19.92592834867537021636962890625">
        <ele>912.5999755859375</ele>
        <time>2026-06-16T06:26:47.000Z</time>
        <extensions>
          <ns3:TrackPointExtension>
            <ns3:atemp>17.0</ns3:atemp>
          </ns3:TrackPointExtension>
        </extensions>
      </trkpt>
      <trkpt lat="42.6144419610500335693359375" lon="19.92590152658522129058837890625">
        <ele>912.5999755859375</ele>
        <time>2026-06-16T06:26:48.000Z</time>
        <extensions>
          <ns3:TrackPointExtension>
            <ns3:atemp>17.0</ns3:atemp>
          </ns3:TrackPointExtension>
        </extensions>
      </trkpt>
      <trkpt lat="42.6144927553832530975341796875" lon="19.9258773028850555419921875">
        <ele>912.79998779296875</ele>
        <time>2026-06-16T06:26:49.000Z</time>
        <extensions>
          <ns3:TrackPointExtension>
            <ns3:atemp>17.0</ns3:atemp>
          </ns3:TrackPointExtension>
        </extensions>
      </trkpt>
      <trkpt lat="42.6145433820784091949462890625" lon="19.9258533306419849395751953125">
        <ele>912.79998779296875</ele>
        <time>2026-06-16T06:26:50.000Z</time>
        <extensions>
          <ns3:TrackPointExtension>
            <ns3:atemp>17.0</ns3:atemp>
          </ns3:TrackPointExtension>
        </extensions>
      </trkpt>
      <trkpt lat="42.6145953498780727386474609375" lon="19.925835393369197845458984375">
        <ele>912.79998779296875</ele>
        <time>2026-06-16T06:26:51.000Z</time>
        <extensions>
          <ns3:TrackPointExtension>
            <ns3:atemp>17.0</ns3:atemp>
          </ns3:TrackPointExtension>
        </extensions>
      </trkpt>
      <trkpt lat="42.61464991606771945953369140625" lon="19.92582558654248714447021484375">
        <ele>912.79998779296875</ele>
        <time>2026-06-16T06:26:52.000Z</time>
        <extensions>
          <ns3:TrackPointExtension>
            <ns3:atemp>17.0</ns3:atemp>
          </ns3:TrackPointExtension>
        </extensions>
      </trkpt>
      <trkpt lat="42.614706493914127349853515625" lon="19.92581435479223728179931640625">
        <ele>913</ele>
        <time>2026-06-16T06:26:53.000Z</time>
        <extensions>
          <ns3:TrackPointExtension>
            <ns3:atemp>17.0</ns3:atemp>
          </ns3:TrackPointExtension>
        </extensions>
      </trkpt>
      <trkpt lat="42.6147606410086154937744140625" lon="19.9258050508797168731689453125">
        <ele>913</ele>
        <time>2026-06-16T06:26:54.000Z</time>
        <extensions>
          <ns3:TrackPointExtension>
            <ns3:atemp>17.0</ns3:atemp>
          </ns3:TrackPointExtension>
        </extensions>
      </trkpt>
      <trkpt lat="42.614811770617961883544921875" lon="19.9258000217378139495849609375">
        <ele>913</ele>
        <time>2026-06-16T06:26:55.000Z</time>
        <extensions>
          <ns3:TrackPointExtension>
            <ns3:atemp>17.0</ns3:atemp>
          </ns3:TrackPointExtension>
        </extensions>
      </trkpt>
      <trkpt lat="42.6148612238466739654541015625" lon="19.92579893209040164947509765625">
        <ele>913</ele>
        <time>2026-06-16T06:26:56.000Z</time>
        <extensions>
          <ns3:TrackPointExtension>
            <ns3:atemp>17.0</ns3:atemp>
          </ns3:TrackPointExtension>
        </extensions>
      </trkpt>
      <trkpt lat="42.6149140298366546630859375" lon="19.925805218517780303955078125">
        <ele>913</ele>
        <time>2026-06-16T06:26:57.000Z</time>
        <extensions>
          <ns3:TrackPointExtension>
            <ns3:atemp>17.0</ns3:atemp>
          </ns3:TrackPointExtension>
        </extensions>
      </trkpt>
      <trkpt lat="42.6149651594460010528564453125" lon="19.92581435479223728179931640625">
        <ele>913</ele>
        <time>2026-06-16T06:26:58.000Z</time>
        <extensions>
          <ns3:TrackPointExtension>
            <ns3:atemp>17.0</ns3:atemp>
          </ns3:TrackPointExtension>
        </extensions>
      </trkpt>
      <trkpt lat="42.61501519940793514251708984375" lon="19.92583178915083408355712890625">
        <ele>913</ele>
        <time>2026-06-16T06:26:59.000Z</time>
        <extensions>
          <ns3:TrackPointExtension>
            <ns3:atemp>17.0</ns3:atemp>
          </ns3:TrackPointExtension>
        </extensions>
      </trkpt>
      <trkpt lat="42.61506498791277408599853515625" lon="19.9258486367762088775634765625">
        <ele>913</ele>
        <time>2026-06-16T06:27:00.000Z</time>
        <extensions>
          <ns3:TrackPointExtension>
            <ns3:atemp>17.0</ns3:atemp>
          </ns3:TrackPointExtension>
        </extensions>
      </trkpt>
      <trkpt lat="42.6151163689792156219482421875" lon="19.9258680827915668487548828125">
        <ele>913</ele>
        <time>2026-06-16T06:27:01.000Z</time>
        <extensions>
          <ns3:TrackPointExtension>
            <ns3:atemp>17.0</ns3:atemp>
          </ns3:TrackPointExtension>
        </extensions>
      </trkpt>
      <trkpt lat="42.61516548693180084228515625" lon="19.9258928932249546051025390625">
        <ele>913.20001220703125</ele>
        <time>2026-06-16T06:27:02.000Z</time>
        <extensions>
          <ns3:TrackPointExtension>
            <ns3:atemp>17.0</ns3:atemp>
          </ns3:TrackPointExtension>
        </extensions>
      </trkpt>
      <trkpt lat="42.61521368287503719329833984375" lon="19.92591912858188152313232421875">
        <ele>913.20001220703125</ele>
        <time>2026-06-16T06:27:03.000Z</time>
        <extensions>
          <ns3:TrackPointExtension>
            <ns3:atemp>17.0</ns3:atemp>
          </ns3:TrackPointExtension>
        </extensions>
      </trkpt>
      <trkpt lat="42.6152591966092586517333984375" lon="19.9259465374052524566650390625">
        <ele>913.20001220703125</ele>
        <time>2026-06-16T06:27:04.000Z</time>
        <extensions>
          <ns3:TrackPointExtension>
            <ns3:atemp>17.0</ns3:atemp>
          </ns3:TrackPointExtension>
        </extensions>
      </trkpt>
      <trkpt lat="42.61530605144798755645751953125" lon="19.92597511969506740570068359375">
        <ele>913.20001220703125</ele>
        <time>2026-06-16T06:27:05.000Z</time>
        <extensions>
          <ns3:TrackPointExtension>
            <ns3:atemp>17.0</ns3:atemp>
          </ns3:TrackPointExtension>
        </extensions>
      </trkpt>
      <trkpt lat="42.61535483412444591522216796875" lon="19.92600462399423122406005859375">
        <ele>913.20001220703125</ele>
        <time>2026-06-16T06:27:06.000Z</time>
        <extensions>
          <ns3:TrackPointExtension>
            <ns3:atemp>17.0</ns3:atemp>
          </ns3:TrackPointExtension>
        </extensions>
      </trkpt>
      <trkpt lat="42.6154020242393016815185546875" lon="19.92603111080825328826904296875">
        <ele>913.4000244140625</ele>
        <time>2026-06-16T06:27:07.000Z</time>
        <extensions>
          <ns3:TrackPointExtension>
            <ns3:atemp>17.0</ns3:atemp>
          </ns3:TrackPointExtension>
        </extensions>
      </trkpt>
      <trkpt lat="42.61544720269739627838134765625" lon="19.92606044746935367584228515625">
        <ele>913.4000244140625</ele>
        <time>2026-06-16T06:27:08.000Z</time>
        <extensions>
          <ns3:TrackPointExtension>
            <ns3:atemp>17.0</ns3:atemp>
          </ns3:TrackPointExtension>
        </extensions>
      </trkpt>
      <trkpt lat="42.61549062095582485198974609375" lon="19.92609648965299129486083984375">
        <ele>913.5999755859375</ele>
        <time>2026-06-16T06:27:09.000Z</time>
        <extensions>
          <ns3:TrackPointExtension>
            <ns3:atemp>17.0</ns3:atemp>
          </ns3:TrackPointExtension>
        </extensions>
      </trkpt>
      <trkpt lat="42.61553571559488773345947265625" lon="19.9261285923421382904052734375">
        <ele>913.5999755859375</ele>
        <time>2026-06-16T06:27:10.000Z</time>
        <extensions>
          <ns3:TrackPointExtension>
            <ns3:atemp>17.0</ns3:atemp>
          </ns3:TrackPointExtension>
        </extensions>
      </trkpt>
      <trkpt lat="42.61557695455849170684814453125" lon="19.926152564585208892822265625">
        <ele>913.79998779296875</ele>
        <time>2026-06-16T06:27:11.000Z</time>
        <extensions>
          <ns3:TrackPointExtension>
            <ns3:atemp>17.0</ns3:atemp>
          </ns3:TrackPointExtension>
        </extensions>
      </trkpt>
      <trkpt lat="42.6156206242740154266357421875" lon="19.92617997340857982635498046875">
        <ele>913.79998779296875</ele>
        <time>2026-06-16T06:27:12.000Z</time>
        <extensions>
          <ns3:TrackPointExtension>
            <ns3:atemp>17.0</ns3:atemp>
          </ns3:TrackPointExtension>
        </extensions>
      </trkpt>
      <trkpt lat="42.61566295288503170013427734375" lon="19.92620922625064849853515625">
        <ele>913.79998779296875</ele>
        <time>2026-06-16T06:27:13.000Z</time>
        <extensions>
          <ns3:TrackPointExtension>
            <ns3:atemp>17.0</ns3:atemp>
          </ns3:TrackPointExtension>
        </extensions>
      </trkpt>
      <trkpt lat="42.61570871807634830474853515625" lon="19.926241077482700347900390625">
        <ele>913.79998779296875</ele>
        <time>2026-06-16T06:27:14.000Z</time>
        <extensions>
          <ns3:TrackPointExtension>
            <ns3:atemp>17.0</ns3:atemp>
          </ns3:TrackPointExtension>
        </extensions>
      </trkpt>
      <trkpt lat="42.6157557405531406402587890625" lon="19.92627628147602081298828125">
        <ele>913.79998779296875</ele>
        <time>2026-06-16T06:27:15.000Z</time>
        <extensions>
          <ns3:TrackPointExtension>
            <ns3:atemp>17.0</ns3:atemp>
          </ns3:TrackPointExtension>
        </extensions>
      </trkpt>
      <trkpt lat="42.6158006675541400909423828125" lon="19.9263103120028972625732421875">
        <ele>913.79998779296875</ele>
        <time>2026-06-16T06:27:16.000Z</time>
        <extensions>
          <ns3:TrackPointExtension>
            <ns3:atemp>17.0</ns3:atemp>
          </ns3:TrackPointExtension>
        </extensions>
      </trkpt>
      <trkpt lat="42.615843750536441802978515625" lon="19.9263445101678371429443359375">
        <ele>913.79998779296875</ele>
        <time>2026-06-16T06:27:17.000Z</time>
        <extensions>
          <ns3:TrackPointExtension>
            <ns3:atemp>17.0</ns3:atemp>
          </ns3:TrackPointExtension>
        </extensions>
      </trkpt>
      <trkpt lat="42.6158895157277584075927734375" lon="19.9263800494372844696044921875">
        <ele>914</ele>
        <time>2026-06-16T06:27:18.000Z</time>
        <extensions>
          <ns3:TrackPointExtension>
            <ns3:atemp>17.0</ns3:atemp>
          </ns3:TrackPointExtension>
        </extensions>
      </trkpt>
      <trkpt lat="42.61593553237617015838623046875" lon="19.9264159239828586578369140625">
        <ele>914</ele>
        <time>2026-06-16T06:27:19.000Z</time>
        <extensions>
          <ns3:TrackPointExtension>
            <ns3:atemp>17.0</ns3:atemp>
          </ns3:TrackPointExtension>
        </extensions>
      </trkpt>
      <trkpt lat="42.615980543196201324462890625" lon="19.92645154707133769989013671875">
        <ele>914</ele>
        <time>2026-06-16T06:27:20.000Z</time>
        <extensions>
          <ns3:TrackPointExtension>
            <ns3:atemp>17.0</ns3:atemp>
          </ns3:TrackPointExtension>
        </extensions>
      </trkpt>
      <trkpt lat="42.61602588929235935211181640625" lon="19.92648373357951641082763671875">
        <ele>914</ele>
        <time>2026-06-16T06:27:21.000Z</time>
        <extensions>
          <ns3:TrackPointExtension>
            <ns3:atemp>17.0</ns3:atemp>
          </ns3:TrackPointExtension>
        </extensions>
      </trkpt>
      <trkpt lat="42.6160685531795024871826171875" lon="19.92651457898318767547607421875">
        <ele>914</ele>
        <time>2026-06-16T06:27:22.000Z</time>
        <extensions>
          <ns3:TrackPointExtension>
            <ns3:atemp>17.0</ns3:atemp>
          </ns3:TrackPointExtension>
        </extensions>
      </trkpt>
      <trkpt lat="42.6161134801805019378662109375" lon="19.92654290981590747833251953125">
        <ele>914</ele>
        <time>2026-06-16T06:27:23.000Z</time>
        <extensions>
          <ns3:TrackPointExtension>
            <ns3:atemp>17.0</ns3:atemp>
          </ns3:TrackPointExtension>
        </extensions>
      </trkpt>
      <trkpt lat="42.61616058647632598876953125" lon="19.926569648087024688720703125">
        <ele>914</ele>
        <time>2026-06-16T06:27:24.000Z</time>
        <extensions>
          <ns3:TrackPointExtension>
            <ns3:atemp>17.0</ns3:atemp>
          </ns3:TrackPointExtension>
        </extensions>
      </trkpt>
      <trkpt lat="42.61620995588600635528564453125" lon="19.92659269832074642181396484375">
        <ele>914</ele>
        <time>2026-06-16T06:27:25.000Z</time>
        <extensions>
          <ns3:TrackPointExtension>
            <ns3:atemp>17.0</ns3:atemp>
          </ns3:TrackPointExtension>
        </extensions>
      </trkpt>
      <trkpt lat="42.61625974439084529876708984375" lon="19.92661650292575359344482421875">
        <ele>914</ele>
        <time>2026-06-16T06:27:26.000Z</time>
        <extensions>
          <ns3:TrackPointExtension>
            <ns3:atemp>17.0</ns3:atemp>
          </ns3:TrackPointExtension>
        </extensions>
      </trkpt>
      <trkpt lat="42.616308443248271942138671875" lon="19.92664399556815624237060546875">
        <ele>914.20001220703125</ele>
        <time>2026-06-16T06:27:27.000Z</time>
        <extensions>
          <ns3:TrackPointExtension>
            <ns3:atemp>17.0</ns3:atemp>
          </ns3:TrackPointExtension>
        </extensions>
      </trkpt>
      <trkpt lat="42.61635747738182544708251953125" lon="19.92667333222925662994384765625">
        <ele>914.20001220703125</ele>
        <time>2026-06-16T06:27:28.000Z</time>
        <extensions>
          <ns3:TrackPointExtension>
            <ns3:atemp>17.0</ns3:atemp>
          </ns3:TrackPointExtension>
        </extensions>
      </trkpt>
      <trkpt lat="42.61640542186796665191650390625" lon="19.92669864557683467864990234375">
        <ele>914.4000244140625</ele>
        <time>2026-06-16T06:27:29.000Z</time>
        <extensions>
          <ns3:TrackPointExtension>
            <ns3:atemp>17.0</ns3:atemp>
          </ns3:TrackPointExtension>
        </extensions>
      </trkpt>
      <trkpt lat="42.61645152233541011810302734375" lon="19.926724545657634735107421875">
        <ele>914.4000244140625</ele>
        <time>2026-06-16T06:27:30.000Z</time>
        <extensions>
          <ns3:TrackPointExtension>
            <ns3:atemp>17.0</ns3:atemp>
          </ns3:TrackPointExtension>
        </extensions>
      </trkpt>
      <trkpt lat="42.61650047264993190765380859375" lon="19.9267505295574665069580078125">
        <ele>914.5999755859375</ele>
        <time>2026-06-16T06:27:31.000Z</time>
        <extensions>
          <ns3:TrackPointExtension>
            <ns3:atemp>17.0</ns3:atemp>
          </ns3:TrackPointExtension>
        </extensions>
      </trkpt>
      <trkpt lat="42.61655059643089771270751953125" lon="19.92677458561956882476806640625">
        <ele>914.5999755859375</ele>
        <time>2026-06-16T06:27:32.000Z</time>
        <extensions>
          <ns3:TrackPointExtension>
            <ns3:atemp>17.0</ns3:atemp>
          </ns3:TrackPointExtension>
        </extensions>
      </trkpt>
      <trkpt lat="42.616602480411529541015625" lon="19.926792271435260772705078125">
        <ele>914.79998779296875</ele>
        <time>2026-06-16T06:27:33.000Z</time>
        <extensions>
          <ns3:TrackPointExtension>
            <ns3:atemp>17.0</ns3:atemp>
          </ns3:TrackPointExtension>
        </extensions>
      </trkpt>
      <trkpt lat="42.61665386147797107696533203125" lon="19.9268145672976970672607421875">
        <ele>914.79998779296875</ele>
        <time>2026-06-16T06:27:34.000Z</time>
        <extensions>
          <ns3:TrackPointExtension>
            <ns3:atemp>17.0</ns3:atemp>
          </ns3:TrackPointExtension>
        </extensions>
      </trkpt>
      <trkpt lat="42.61670130304992198944091796875" lon="19.9268346838653087615966796875">
        <ele>915</ele>
        <time>2026-06-16T06:27:35.000Z</time>
        <extensions>
          <ns3:TrackPointExtension>
            <ns3:atemp>17.0</ns3:atemp>
          </ns3:TrackPointExtension>
        </extensions>
      </trkpt>
      <trkpt lat="42.6167488284409046173095703125" lon="19.92685354314744472503662109375">
        <ele>914.79998779296875</ele>
        <time>2026-06-16T06:27:36.000Z</time>
        <extensions>
          <ns3:TrackPointExtension>
            <ns3:atemp>17.0</ns3:atemp>
          </ns3:TrackPointExtension>
        </extensions>
      </trkpt>
      <trkpt lat="42.61679953895509243011474609375" lon="19.9268705584108829498291015625">
        <ele>914.79998779296875</ele>
        <time>2026-06-16T06:27:37.000Z</time>
        <extensions>
          <ns3:TrackPointExtension>
            <ns3:atemp>17.0</ns3:atemp>
          </ns3:TrackPointExtension>
        </extensions>
      </trkpt>
      <trkpt lat="42.61685301549732685089111328125" lon="19.92689193226397037506103515625">
        <ele>914.79998779296875</ele>
        <time>2026-06-16T06:27:38.000Z</time>
        <extensions>
          <ns3:TrackPointExtension>
            <ns3:atemp>17.0</ns3:atemp>
          </ns3:TrackPointExtension>
        </extensions>
      </trkpt>
      <trkpt lat="42.6169087551534175872802734375" lon="19.92691506631672382354736328125">
        <ele>914.5999755859375</ele>
        <time>2026-06-16T06:27:39.000Z</time>
        <extensions>
          <ns3:TrackPointExtension>
            <ns3:atemp>17.0</ns3:atemp>
          </ns3:TrackPointExtension>
        </extensions>
      </trkpt>
      <trkpt lat="42.61696248315274715423583984375" lon="19.9269386194646358489990234375">
        <ele>914.5999755859375</ele>
        <time>2026-06-16T06:27:40.000Z</time>
        <extensions>
          <ns3:TrackPointExtension>
            <ns3:atemp>17.0</ns3:atemp>
          </ns3:TrackPointExtension>
        </extensions>
      </trkpt>
      <trkpt lat="42.617014534771442413330078125" lon="19.9269614182412624359130859375">
        <ele>914.5999755859375</ele>
        <time>2026-06-16T06:27:41.000Z</time>
        <extensions>
          <ns3:TrackPointExtension>
            <ns3:atemp>17.0</ns3:atemp>
          </ns3:TrackPointExtension>
        </extensions>
      </trkpt>
      <trkpt lat="42.6170678436756134033203125" lon="19.92698295973241329193115234375">
        <ele>914.4000244140625</ele>
        <time>2026-06-16T06:27:42.000Z</time>
        <extensions>
          <ns3:TrackPointExtension>
            <ns3:atemp>17.0</ns3:atemp>
          </ns3:TrackPointExtension>
        </extensions>
      </trkpt>
      <trkpt lat="42.61712006293237209320068359375" lon="19.92700844071805477142333984375">
        <ele>914.4000244140625</ele>
        <time>2026-06-16T06:27:43.000Z</time>
        <extensions>
          <ns3:TrackPointExtension>
            <ns3:atemp>17.0</ns3:atemp>
          </ns3:TrackPointExtension>
        </extensions>
      </trkpt>
      <trkpt lat="42.617172114551067352294921875" lon="19.92703459225594997406005859375">
        <ele>914.4000244140625</ele>
        <time>2026-06-16T06:27:44.000Z</time>
        <extensions>
          <ns3:TrackPointExtension>
            <ns3:atemp>17.0</ns3:atemp>
          </ns3:TrackPointExtension>
        </extensions>
      </trkpt>
      <trkpt lat="42.61722835712134838104248046875" lon="19.92706074379384517669677734375">
        <ele>914.20001220703125</ele>
        <time>2026-06-16T06:27:45.000Z</time>
        <extensions>
          <ns3:TrackPointExtension>
            <ns3:atemp>17.0</ns3:atemp>
          </ns3:TrackPointExtension>
        </extensions>
      </trkpt>
      <trkpt lat="42.61728568933904170989990234375" lon="19.927088655531406402587890625">
        <ele>914.20001220703125</ele>
        <time>2026-06-16T06:27:46.000Z</time>
        <extensions>
          <ns3:TrackPointExtension>
            <ns3:atemp>17.0</ns3:atemp>
          </ns3:TrackPointExtension>
        </extensions>
      </trkpt>
      <trkpt lat="42.617342770099639892578125" lon="19.9271139688789844512939453125">
        <ele>914</ele>
        <time>2026-06-16T06:27:47.000Z</time>
        <extensions>
          <ns3:TrackPointExtension>
            <ns3:atemp>17.0</ns3:atemp>
          </ns3:TrackPointExtension>
        </extensions>
      </trkpt>
      <trkpt lat="42.61739951558411121368408203125" lon="19.927135594189167022705078125">
        <ele>914</ele>
        <time>2026-06-16T06:27:48.000Z</time>
        <extensions>
          <ns3:TrackPointExtension>
            <ns3:atemp>17.0</ns3:atemp>
          </ns3:TrackPointExtension>
        </extensions>
      </trkpt>
      <trkpt lat="42.6174559257924556732177734375" lon="19.927158392965793609619140625">
        <ele>913.79998779296875</ele>
        <time>2026-06-16T06:27:49.000Z</time>
        <extensions>
          <ns3:TrackPointExtension>
            <ns3:atemp>17.0</ns3:atemp>
          </ns3:TrackPointExtension>
        </extensions>
      </trkpt>
      <trkpt lat="42.61751401238143444061279296875" lon="19.92718060500919818878173828125">
        <ele>913.79998779296875</ele>
        <time>2026-06-16T06:27:50.000Z</time>
        <extensions>
          <ns3:TrackPointExtension>
            <ns3:atemp>17.0</ns3:atemp>
          </ns3:TrackPointExtension>
        </extensions>
      </trkpt>
      <trkpt lat="42.61757369153201580047607421875" lon="19.927203319966793060302734375">
        <ele>913.5999755859375</ele>
        <time>2026-06-16T06:27:51.000Z</time>
        <extensions>
          <ns3:TrackPointExtension>
            <ns3:atemp>17.0</ns3:atemp>
          </ns3:TrackPointExtension>
        </extensions>
      </trkpt>
      <trkpt lat="42.61763311922550201416015625" lon="19.92722310125827789306640625">
        <ele>913.5999755859375</ele>
        <time>2026-06-16T06:27:52.000Z</time>
        <extensions>
          <ns3:TrackPointExtension>
            <ns3:atemp>17.0</ns3:atemp>
          </ns3:TrackPointExtension>
        </extensions>
      </trkpt>
      <trkpt lat="42.61769271455705165863037109375" lon="19.92723877541720867156982421875">
        <ele>913.4000244140625</ele>
        <time>2026-06-16T06:27:53.000Z</time>
        <extensions>
          <ns3:TrackPointExtension>
            <ns3:atemp>17.0</ns3:atemp>
          </ns3:TrackPointExtension>
        </extensions>
      </trkpt>
      <trkpt lat="42.6177513040602207183837890625" lon="19.92725201882421970367431640625">
        <ele>913.20001220703125</ele>
        <time>2026-06-16T06:27:54.000Z</time>
        <extensions>
          <ns3:TrackPointExtension>
            <ns3:atemp>17.0</ns3:atemp>
          </ns3:TrackPointExtension>
        </extensions>
      </trkpt>
      <trkpt lat="42.6178103126585483551025390625" lon="19.927260987460613250732421875">
        <ele>913</ele>
        <time>2026-06-16T06:27:55.000Z</time>
        <extensions>
          <ns3:TrackPointExtension>
            <ns3:atemp>17.0</ns3:atemp>
          </ns3:TrackPointExtension>
        </extensions>
      </trkpt>
      <trkpt lat="42.6178699918091297149658203125" lon="19.92726693861186504364013671875">
        <ele>913</ele>
        <time>2026-06-16T06:27:56.000Z</time>
        <extensions>
          <ns3:TrackPointExtension>
            <ns3:atemp>17.0</ns3:atemp>
          </ns3:TrackPointExtension>
        </extensions>
      </trkpt>
      <trkpt lat="42.61793176643550395965576171875" lon="19.92727247066795825958251953125">
        <ele>912.79998779296875</ele>
        <time>2026-06-16T06:27:57.000Z</time>
        <extensions>
          <ns3:TrackPointExtension>
            <ns3:atemp>17.0</ns3:atemp>
          </ns3:TrackPointExtension>
        </extensions>
      </trkpt>
      <trkpt lat="42.61799597181379795074462890625" lon="19.9272789247334003448486328125">
        <ele>912.5999755859375</ele>
        <time>2026-06-16T06:27:58.000Z</time>
        <extensions>
          <ns3:TrackPointExtension>
            <ns3:atemp>17.0</ns3:atemp>
          </ns3:TrackPointExtension>
        </extensions>
      </trkpt>
      <trkpt lat="42.61805959045886993408203125" lon="19.9272849597036838531494140625">
        <ele>912.5999755859375</ele>
        <time>2026-06-16T06:27:59.000Z</time>
        <extensions>
          <ns3:TrackPointExtension>
            <ns3:atemp>17.0</ns3:atemp>
          </ns3:TrackPointExtension>
        </extensions>
      </trkpt>
      <trkpt lat="42.6181224547326564788818359375" lon="19.92729124613106250762939453125">
        <ele>912.4000244140625</ele>
        <time>2026-06-16T06:28:00.000Z</time>
        <extensions>
          <ns3:TrackPointExtension>
            <ns3:atemp>17.0</ns3:atemp>
          </ns3:TrackPointExtension>
        </extensions>
      </trkpt>
      <trkpt lat="42.61818590573966503143310546875" lon="19.9272966943681240081787109375">
        <ele>912.4000244140625</ele>
        <time>2026-06-16T06:28:01.000Z</time>
        <extensions>
          <ns3:TrackPointExtension>
            <ns3:atemp>17.0</ns3:atemp>
          </ns3:TrackPointExtension>
        </extensions>
      </trkpt>
      <trkpt lat="42.61824734508991241455078125" lon="19.92730381898581981658935546875">
        <ele>912.4000244140625</ele>
        <time>2026-06-16T06:28:02.000Z</time>
        <extensions>
          <ns3:TrackPointExtension>
            <ns3:atemp>17.0</ns3:atemp>
          </ns3:TrackPointExtension>
        </extensions>
      </trkpt>
      <trkpt lat="42.61830945499241352081298828125" lon="19.927314631640911102294921875">
        <ele>912.20001220703125</ele>
        <time>2026-06-16T06:28:03.000Z</time>
        <extensions>
          <ns3:TrackPointExtension>
            <ns3:atemp>17.0</ns3:atemp>
          </ns3:TrackPointExtension>
        </extensions>
      </trkpt>
      <trkpt lat="42.618372738361358642578125" lon="19.92732896469533443450927734375">
        <ele>912.20001220703125</ele>
        <time>2026-06-16T06:28:04.000Z</time>
        <extensions>
          <ns3:TrackPointExtension>
            <ns3:atemp>17.0</ns3:atemp>
          </ns3:TrackPointExtension>
        </extensions>
      </trkpt>
      <trkpt lat="42.6184359379112720489501953125" lon="19.9273473210632801055908203125">
        <ele>912</ele>
        <time>2026-06-16T06:28:05.000Z</time>
        <extensions>
          <ns3:TrackPointExtension>
            <ns3:atemp>17.0</ns3:atemp>
          </ns3:TrackPointExtension>
        </extensions>
      </trkpt>
      <trkpt lat="42.6184972934424877166748046875" lon="19.9273734726011753082275390625">
        <ele>911.79998779296875</ele>
        <time>2026-06-16T06:28:06.000Z</time>
        <extensions>
          <ns3:TrackPointExtension>
            <ns3:atemp>17.0</ns3:atemp>
          </ns3:TrackPointExtension>
        </extensions>
      </trkpt>
      <trkpt lat="42.61855923570692539215087890625" lon="19.92740574292838573455810546875">
        <ele>911.79998779296875</ele>
        <time>2026-06-16T06:28:07.000Z</time>
        <extensions>
          <ns3:TrackPointExtension>
            <ns3:atemp>17.0</ns3:atemp>
          </ns3:TrackPointExtension>
        </extensions>
      </trkpt>
      <trkpt lat="42.61862159706652164459228515625" lon="19.9274398572742938995361328125">
        <ele>911.5999755859375</ele>
        <time>2026-06-16T06:28:08.000Z</time>
        <extensions>
          <ns3:TrackPointExtension>
            <ns3:atemp>17.0</ns3:atemp>
          </ns3:TrackPointExtension>
        </extensions>
      </trkpt>
      <trkpt lat="42.61868060566484928131103515625" lon="19.92747983895242214202880859375">
        <ele>911.5999755859375</ele>
        <time>2026-06-16T06:28:09.000Z</time>
        <extensions>
          <ns3:TrackPointExtension>
            <ns3:atemp>17.0</ns3:atemp>
          </ns3:TrackPointExtension>
        </extensions>
      </trkpt>
      <trkpt lat="42.61873592622578144073486328125" lon="19.9275206588208675384521484375">
        <ele>911.5999755859375</ele>
        <time>2026-06-16T06:28:10.000Z</time>
        <extensions>
          <ns3:TrackPointExtension>
            <ns3:atemp>17.0</ns3:atemp>
          </ns3:TrackPointExtension>
        </extensions>
      </trkpt>
      <trkpt lat="42.61878940276801586151123046875" lon="19.92756449617445468902587890625">
        <ele>911.5999755859375</ele>
        <time>2026-06-16T06:28:11.000Z</time>
        <extensions>
          <ns3:TrackPointExtension>
            <ns3:atemp>17.0</ns3:atemp>
          </ns3:TrackPointExtension>
        </extensions>
      </trkpt>
      <trkpt lat="42.61884204111993312835693359375" lon="19.9276068247854709625244140625">
        <ele>911.5999755859375</ele>
        <time>2026-06-16T06:28:12.000Z</time>
        <extensions>
          <ns3:TrackPointExtension>
            <ns3:atemp>17.0</ns3:atemp>
          </ns3:TrackPointExtension>
        </extensions>
      </trkpt>
      <trkpt lat="42.6188945956528186798095703125" lon="19.92764982394874095916748046875">
        <ele>911.5999755859375</ele>
        <time>2026-06-16T06:28:13.000Z</time>
        <extensions>
          <ns3:TrackPointExtension>
            <ns3:atemp>17.0</ns3:atemp>
          </ns3:TrackPointExtension>
        </extensions>
      </trkpt>
      <trkpt lat="42.61894446797668933868408203125" lon="19.92769642733037471771240234375">
        <ele>911.5999755859375</ele>
        <time>2026-06-16T06:28:14.000Z</time>
        <extensions>
          <ns3:TrackPointExtension>
            <ns3:atemp>17.0</ns3:atemp>
          </ns3:TrackPointExtension>
        </extensions>
      </trkpt>
      <trkpt lat="42.61899341829121112823486328125" lon="19.92774185724556446075439453125">
        <ele>911.79998779296875</ele>
        <time>2026-06-16T06:28:15.000Z</time>
        <extensions>
          <ns3:TrackPointExtension>
            <ns3:atemp>17.0</ns3:atemp>
          </ns3:TrackPointExtension>
        </extensions>
      </trkpt>
      <trkpt lat="42.61904270388185977935791015625" lon="19.92778711952269077301025390625">
        <ele>912</ele>
        <time>2026-06-16T06:28:16.000Z</time>
        <extensions>
          <ns3:TrackPointExtension>
            <ns3:atemp>17.0</ns3:atemp>
          </ns3:TrackPointExtension>
        </extensions>
      </trkpt>
      <trkpt lat="42.619091905653476715087890625" lon="19.927828274667263031005859375">
        <ele>912.20001220703125</ele>
        <time>2026-06-16T06:28:17.000Z</time>
        <extensions>
          <ns3:TrackPointExtension>
            <ns3:atemp>17.0</ns3:atemp>
          </ns3:TrackPointExtension>
        </extensions>
      </trkpt>
      <trkpt lat="42.61914026923477649688720703125" lon="19.92787026800215244293212890625">
        <ele>912.20001220703125</ele>
        <time>2026-06-16T06:28:18.000Z</time>
        <extensions>
          <ns3:TrackPointExtension>
            <ns3:atemp>17.0</ns3:atemp>
          </ns3:TrackPointExtension>
        </extensions>
      </trkpt>
      <trkpt lat="42.619188465178012847900390625" lon="19.9279115907847881317138671875">
        <ele>912.4000244140625</ele>
        <time>2026-06-16T06:28:19.000Z</time>
        <extensions>
          <ns3:TrackPointExtension>
            <ns3:atemp>17.0</ns3:atemp>
          </ns3:TrackPointExtension>
        </extensions>
      </trkpt>
      <trkpt lat="42.61923464946448802947998046875" lon="19.92795391939580440521240234375">
        <ele>912.4000244140625</ele>
        <time>2026-06-16T06:28:20.000Z</time>
        <extensions>
          <ns3:TrackPointExtension>
            <ns3:atemp>17.0</ns3:atemp>
          </ns3:TrackPointExtension>
        </extensions>
      </trkpt>
      <trkpt lat="42.61928041465580463409423828125" lon="19.927994906902313232421875">
        <ele>912.4000244140625</ele>
        <time>2026-06-16T06:28:21.000Z</time>
        <extensions>
          <ns3:TrackPointExtension>
            <ns3:atemp>17.0</ns3:atemp>
          </ns3:TrackPointExtension>
        </extensions>
      </trkpt>
      <trkpt lat="42.61932550929486751556396484375" lon="19.92803103290498256683349609375">
        <ele>912.4000244140625</ele>
        <time>2026-06-16T06:28:22.000Z</time>
        <extensions>
          <ns3:TrackPointExtension>
            <ns3:atemp>17.0</ns3:atemp>
          </ns3:TrackPointExtension>
        </extensions>
      </trkpt>
      <trkpt lat="42.61937010101974010467529296875" lon="19.9280711822211742401123046875">
        <ele>912.4000244140625</ele>
        <time>2026-06-16T06:28:23.000Z</time>
        <extensions>
          <ns3:TrackPointExtension>
            <ns3:atemp>17.0</ns3:atemp>
          </ns3:TrackPointExtension>
        </extensions>
      </trkpt>
      <trkpt lat="42.619416452944278717041015625" lon="19.9281047098338603973388671875">
        <ele>912.5999755859375</ele>
        <time>2026-06-16T06:28:24.000Z</time>
        <extensions>
          <ns3:TrackPointExtension>
            <ns3:atemp>18.0</ns3:atemp>
          </ns3:TrackPointExtension>
        </extensions>
      </trkpt>
      <trkpt lat="42.61946112848818302154541015625" lon="19.9281372316181659698486328125">
        <ele>912.5999755859375</ele>
        <time>2026-06-16T06:28:25.000Z</time>
        <extensions>
          <ns3:TrackPointExtension>
            <ns3:atemp>17.0</ns3:atemp>
          </ns3:TrackPointExtension>
        </extensions>
      </trkpt>
      <trkpt lat="42.619507648050785064697265625" lon="19.928166903555393218994140625">
        <ele>912.5999755859375</ele>
        <time>2026-06-16T06:28:26.000Z</time>
        <extensions>
          <ns3:TrackPointExtension>
            <ns3:atemp>17.0</ns3:atemp>
          </ns3:TrackPointExtension>
        </extensions>
      </trkpt>
      <trkpt lat="42.61955483816564083099365234375" lon="19.92819062434136867523193359375">
        <ele>912.79998779296875</ele>
        <time>2026-06-16T06:28:27.000Z</time>
        <extensions>
          <ns3:TrackPointExtension>
            <ns3:atemp>17.0</ns3:atemp>
          </ns3:TrackPointExtension>
        </extensions>
      </trkpt>
      <trkpt lat="42.61960445903241634368896484375" lon="19.92820386774837970733642578125">
        <ele>912.79998779296875</ele>
        <time>2026-06-16T06:28:28.000Z</time>
        <extensions>
          <ns3:TrackPointExtension>
            <ns3:atemp>17.0</ns3:atemp>
          </ns3:TrackPointExtension>
        </extensions>
      </trkpt>
      <trkpt lat="42.6196561753749847412109375" lon="19.9282180331647396087646484375">
        <ele>912.79998779296875</ele>
        <time>2026-06-16T06:28:29.000Z</time>
        <extensions>
          <ns3:TrackPointExtension>
            <ns3:atemp>17.0</ns3:atemp>
          </ns3:TrackPointExtension>
        </extensions>
      </trkpt>
      <trkpt lat="42.61970738880336284637451171875" lon="19.92822599597275257110595703125">
        <ele>912.79998779296875</ele>
        <time>2026-06-16T06:28:30.000Z</time>
        <extensions>
          <ns3:TrackPointExtension>
            <ns3:atemp>17.0</ns3:atemp>
          </ns3:TrackPointExtension>
        </extensions>
      </trkpt>
      <trkpt lat="42.61976220645010471343994140625" lon="19.9282260797917842864990234375">
        <ele>913</ele>
        <time>2026-06-16T06:28:31.000Z</time>
        <extensions>
          <ns3:TrackPointExtension>
            <ns3:atemp>17.0</ns3:atemp>
          </ns3:TrackPointExtension>
        </extensions>
      </trkpt>
      <trkpt lat="42.619816102087497711181640625" lon="19.92822163738310337066650390625">
        <ele>913</ele>
        <time>2026-06-16T06:28:32.000Z</time>
        <extensions>
          <ns3:TrackPointExtension>
            <ns3:atemp>17.0</ns3:atemp>
          </ns3:TrackPointExtension>
        </extensions>
      </trkpt>
      <trkpt lat="42.61986832134425640106201171875" lon="19.9282190389931201934814453125">
        <ele>913.20001220703125</ele>
        <time>2026-06-16T06:28:33.000Z</time>
        <extensions>
          <ns3:TrackPointExtension>
            <ns3:atemp>17.0</ns3:atemp>
          </ns3:TrackPointExtension>
        </extensions>
      </trkpt>
      <trkpt lat="42.6199202053248882293701171875" lon="19.92821509949862957000732421875">
        <ele>913.4000244140625</ele>
        <time>2026-06-16T06:28:34.000Z</time>
        <extensions>
          <ns3:TrackPointExtension>
            <ns3:atemp>17.0</ns3:atemp>
          </ns3:TrackPointExtension>
        </extensions>
      </trkpt>
      <trkpt lat="42.61997108347713947296142578125" lon="19.92820738814771175384521484375">
        <ele>913.4000244140625</ele>
        <time>2026-06-16T06:28:35.000Z</time>
        <extensions>
          <ns3:TrackPointExtension>
            <ns3:atemp>17.0</ns3:atemp>
          </ns3:TrackPointExtension>
        </extensions>
      </trkpt>
      <trkpt lat="42.620021291077136993408203125" lon="19.92820051498711109161376953125">
        <ele>913.5999755859375</ele>
        <time>2026-06-16T06:28:36.000Z</time>
        <extensions>
          <ns3:TrackPointExtension>
            <ns3:atemp>17.0</ns3:atemp>
          </ns3:TrackPointExtension>
        </extensions>
      </trkpt>
      <trkpt lat="42.620070911943912506103515625" lon="19.9281885288655757904052734375">
        <ele>913.79998779296875</ele>
        <time>2026-06-16T06:28:37.000Z</time>
        <extensions>
          <ns3:TrackPointExtension>
            <ns3:atemp>17.0</ns3:atemp>
          </ns3:TrackPointExtension>
        </extensions>
      </trkpt>
      <trkpt lat="42.6201201975345611572265625" lon="19.9281731061637401580810546875">
        <ele>913.79998779296875</ele>
        <time>2026-06-16T06:28:38.000Z</time>
        <extensions>
          <ns3:TrackPointExtension>
            <ns3:atemp>17.0</ns3:atemp>
          </ns3:TrackPointExtension>
        </extensions>
      </trkpt>
      <trkpt lat="42.620169818401336669921875" lon="19.92816061712801456451416015625">
        <ele>914</ele>
        <time>2026-06-16T06:28:39.000Z</time>
        <extensions>
          <ns3:TrackPointExtension>
            <ns3:atemp>17.0</ns3:atemp>
          </ns3:TrackPointExtension>
        </extensions>
      </trkpt>
      <trkpt lat="42.6202192716300487518310546875" lon="19.92814888246357440948486328125">
        <ele>914</ele>
        <time>2026-06-16T06:28:40.000Z</time>
        <extensions>
          <ns3:TrackPointExtension>
            <ns3:atemp>17.0</ns3:atemp>
          </ns3:TrackPointExtension>
        </extensions>
      </trkpt>
      <trkpt lat="42.62026696465909481048583984375" lon="19.9281372316181659698486328125">
        <ele>914.20001220703125</ele>
        <time>2026-06-16T06:28:41.000Z</time>
        <extensions>
          <ns3:TrackPointExtension>
            <ns3:atemp>17.0</ns3:atemp>
          </ns3:TrackPointExtension>
        </extensions>
      </trkpt>
      <trkpt lat="42.62031591497361660003662109375" lon="19.928125999867916107177734375">
        <ele>914.4000244140625</ele>
        <time>2026-06-16T06:28:42.000Z</time>
        <extensions>
          <ns3:TrackPointExtension>
            <ns3:atemp>17.0</ns3:atemp>
          </ns3:TrackPointExtension>
        </extensions>
      </trkpt>
      <trkpt lat="42.62036486528813838958740234375" lon="19.92811493575572967529296875">
        <ele>914.5999755859375</ele>
        <time>2026-06-16T06:28:43.000Z</time>
        <extensions>
          <ns3:TrackPointExtension>
            <ns3:atemp>18.0</ns3:atemp>
          </ns3:TrackPointExtension>
        </extensions>
      </trkpt>
      <trkpt lat="42.62041381560266017913818359375" lon="19.9281060509383678436279296875">
        <ele>914.5999755859375</ele>
        <time>2026-06-16T06:28:44.000Z</time>
        <extensions>
          <ns3:TrackPointExtension>
            <ns3:atemp>17.0</ns3:atemp>
          </ns3:TrackPointExtension>
        </extensions>
      </trkpt>
      <trkpt lat="42.62046494521200656890869140625" lon="19.92809490300714969635009765625">
        <ele>914.79998779296875</ele>
        <time>2026-06-16T06:28:45.000Z</time>
        <extensions>
          <ns3:TrackPointExtension>
            <ns3:atemp>18.0</ns3:atemp>
          </ns3:TrackPointExtension>
        </extensions>
      </trkpt>
      <trkpt lat="42.62051372788846492767333984375" lon="19.9280862696468830108642578125">
        <ele>915</ele>
        <time>2026-06-16T06:28:46.000Z</time>
        <extensions>
          <ns3:TrackPointExtension>
            <ns3:atemp>18.0</ns3:atemp>
          </ns3:TrackPointExtension>
        </extensions>
      </trkpt>
      <trkpt lat="42.6205622591078281402587890625" lon="19.92807629518210887908935546875">
        <ele>915.20001220703125</ele>
        <time>2026-06-16T06:28:47.000Z</time>
        <extensions>
          <ns3:TrackPointExtension>
            <ns3:atemp>17.0</ns3:atemp>
          </ns3:TrackPointExtension>
        </extensions>
      </trkpt>
      <trkpt lat="42.6206125505268573760986328125" lon="19.92806539870798587799072265625">
        <ele>915.4000244140625</ele>
        <time>2026-06-16T06:28:48.000Z</time>
        <extensions>
          <ns3:TrackPointExtension>
            <ns3:atemp>18.0</ns3:atemp>
          </ns3:TrackPointExtension>
        </extensions>
      </trkpt>
      <trkpt lat="42.620663009583950042724609375" lon="19.92805860936641693115234375">
        <ele>915.4000244140625</ele>
        <time>2026-06-16T06:28:49.000Z</time>
        <extensions>
          <ns3:TrackPointExtension>
            <ns3:atemp>18.0</ns3:atemp>
          </ns3:TrackPointExtension>
        </extensions>
      </trkpt>
      <trkpt lat="42.62071304954588413238525390625" lon="19.92805098183453083038330078125">
        <ele>915.5999755859375</ele>
        <time>2026-06-16T06:28:50.000Z</time>
        <extensions>
          <ns3:TrackPointExtension>
            <ns3:atemp>18.0</ns3:atemp>
          </ns3:TrackPointExtension>
        </extensions>
      </trkpt>
      <trkpt lat="42.620762921869754791259765625" lon="19.928043186664581298828125">
        <ele>915.79998779296875</ele>
        <time>2026-06-16T06:28:51.000Z</time>
        <extensions>
          <ns3:TrackPointExtension>
            <ns3:atemp>18.0</ns3:atemp>
          </ns3:TrackPointExtension>
        </extensions>
      </trkpt>
      <trkpt lat="42.62081363238394260406494140625" lon="19.92803505621850490570068359375">
        <ele>915.79998779296875</ele>
        <time>2026-06-16T06:28:52.000Z</time>
        <extensions>
          <ns3:TrackPointExtension>
            <ns3:atemp>18.0</ns3:atemp>
          </ns3:TrackPointExtension>
        </extensions>
      </trkpt>
      <trkpt lat="42.62086425907909870147705078125" lon="19.9280249141156673431396484375">
        <ele>916</ele>
        <time>2026-06-16T06:28:53.000Z</time>
        <extensions>
          <ns3:TrackPointExtension>
            <ns3:atemp>17.0</ns3:atemp>
          </ns3:TrackPointExtension>
        </extensions>
      </trkpt>
      <trkpt lat="42.6209142990410327911376953125" lon="19.92801762185990810394287109375">
        <ele>916.20001220703125</ele>
        <time>2026-06-16T06:28:54.000Z</time>
        <extensions>
          <ns3:TrackPointExtension>
            <ns3:atemp>17.0</ns3:atemp>
          </ns3:TrackPointExtension>
        </extensions>
      </trkpt>
      <trkpt lat="42.62096467427909374237060546875" lon="19.92801259271800518035888671875">
        <ele>916.4000244140625</ele>
        <time>2026-06-16T06:28:55.000Z</time>
        <extensions>
          <ns3:TrackPointExtension>
            <ns3:atemp>17.0</ns3:atemp>
          </ns3:TrackPointExtension>
        </extensions>
      </trkpt>
      <trkpt lat="42.62101471424102783203125" lon="19.92800940759479999542236328125">
        <ele>916.5999755859375</ele>
        <time>2026-06-16T06:28:56.000Z</time>
        <extensions>
          <ns3:TrackPointExtension>
            <ns3:atemp>17.0</ns3:atemp>
          </ns3:TrackPointExtension>
        </extensions>
      </trkpt>
      <trkpt lat="42.621065340936183929443359375" lon="19.9280069768428802490234375">
        <ele>916.79998779296875</ele>
        <time>2026-06-16T06:28:57.000Z</time>
        <extensions>
          <ns3:TrackPointExtension>
            <ns3:atemp>17.0</ns3:atemp>
          </ns3:TrackPointExtension>
        </extensions>
      </trkpt>
      <trkpt lat="42.6211178116500377655029296875" lon="19.92800940759479999542236328125">
        <ele>917</ele>
        <time>2026-06-16T06:28:58.000Z</time>
        <extensions>
          <ns3:TrackPointExtension>
            <ns3:atemp>18.0</ns3:atemp>
          </ns3:TrackPointExtension>
        </extensions>
      </trkpt>
      <trkpt lat="42.62116952799260616302490234375" lon="19.9280094914138317108154296875">
        <ele>917.20001220703125</ele>
        <time>2026-06-16T06:28:59.000Z</time>
        <extensions>
          <ns3:TrackPointExtension>
            <ns3:atemp>18.0</ns3:atemp>
          </ns3:TrackPointExtension>
        </extensions>
      </trkpt>
      <trkpt lat="42.62122057378292083740234375" lon="19.92800907231867313385009765625">
        <ele>917.4000244140625</ele>
        <time>2026-06-16T06:29:00.000Z</time>
        <extensions>
          <ns3:TrackPointExtension>
            <ns3:atemp>18.0</ns3:atemp>
          </ns3:TrackPointExtension>
        </extensions>
      </trkpt>
      <trkpt lat="42.621267847716808319091796875" lon="19.92801309563219547271728515625">
        <ele>917.5999755859375</ele>
        <time>2026-06-16T06:29:01.000Z</time>
        <extensions>
          <ns3:TrackPointExtension>
            <ns3:atemp>18.0</ns3:atemp>
          </ns3:TrackPointExtension>
        </extensions>
      </trkpt>
      <trkpt lat="42.6213166303932666778564453125" lon="19.92802097462117671966552734375">
        <ele>918</ele>
        <time>2026-06-16T06:29:02.000Z</time>
        <extensions>
          <ns3:TrackPointExtension>
            <ns3:atemp>18.0</ns3:atemp>
          </ns3:TrackPointExtension>
        </extensions>
      </trkpt>
      <trkpt lat="42.62136314995586872100830078125" lon="19.928028769791126251220703125">
        <ele>918.20001220703125</ele>
        <time>2026-06-16T06:29:03.000Z</time>
        <extensions>
          <ns3:TrackPointExtension>
            <ns3:atemp>18.0</ns3:atemp>
          </ns3:TrackPointExtension>
        </extensions>
      </trkpt>
      <trkpt lat="42.62141025625169277191162109375" lon="19.92803891189396381378173828125">
        <ele>918.4000244140625</ele>
        <time>2026-06-16T06:29:04.000Z</time>
        <extensions>
          <ns3:TrackPointExtension>
            <ns3:atemp>18.0</ns3:atemp>
          </ns3:TrackPointExtension>
        </extensions>
      </trkpt>
      <trkpt lat="42.62145903892815113067626953125" lon="19.92805064655840396881103515625">
        <ele>918.5999755859375</ele>
        <time>2026-06-16T06:29:05.000Z</time>
        <extensions>
          <ns3:TrackPointExtension>
            <ns3:atemp>18.0</ns3:atemp>
          </ns3:TrackPointExtension>
        </extensions>
      </trkpt>
      <trkpt lat="42.6215053908526897430419921875" lon="19.92806673981249332427978515625">
        <ele>918.79998779296875</ele>
        <time>2026-06-16T06:29:06.000Z</time>
        <extensions>
          <ns3:TrackPointExtension>
            <ns3:atemp>18.0</ns3:atemp>
          </ns3:TrackPointExtension>
        </extensions>
      </trkpt>
      <trkpt lat="42.6215513236820697784423828125" lon="19.92808350361883640289306640625">
        <ele>919</ele>
        <time>2026-06-16T06:29:07.000Z</time>
        <extensions>
          <ns3:TrackPointExtension>
            <ns3:atemp>18.0</ns3:atemp>
          </ns3:TrackPointExtension>
        </extensions>
      </trkpt>
      <trkpt lat="42.62159683741629123687744140625" lon="19.92810529656708240509033203125">
        <ele>919.20001220703125</ele>
        <time>2026-06-16T06:29:08.000Z</time>
        <extensions>
          <ns3:TrackPointExtension>
            <ns3:atemp>18.0</ns3:atemp>
          </ns3:TrackPointExtension>
        </extensions>
      </trkpt>
      <trkpt lat="42.6216445304453372955322265625" lon="19.92812977172434329986572265625">
        <ele>919.4000244140625</ele>
        <time>2026-06-16T06:29:09.000Z</time>
        <extensions>
          <ns3:TrackPointExtension>
            <ns3:atemp>18.0</ns3:atemp>
          </ns3:TrackPointExtension>
        </extensions>
      </trkpt>
      <trkpt lat="42.62168987654149532318115234375" lon="19.928155504167079925537109375">
        <ele>919.5999755859375</ele>
        <time>2026-06-16T06:29:10.000Z</time>
        <extensions>
          <ns3:TrackPointExtension>
            <ns3:atemp>18.0</ns3:atemp>
          </ns3:TrackPointExtension>
        </extensions>
      </trkpt>
      <trkpt lat="42.6217348873615264892578125" lon="19.92818861268460750579833984375">
        <ele>919.79998779296875</ele>
        <time>2026-06-16T06:29:11.000Z</time>
        <extensions>
          <ns3:TrackPointExtension>
            <ns3:atemp>18.0</ns3:atemp>
          </ns3:TrackPointExtension>
        </extensions>
      </trkpt>
      <trkpt lat="42.62178157456219196319580078125" lon="19.9282190389931201934814453125">
        <ele>920.20001220703125</ele>
        <time>2026-06-16T06:29:12.000Z</time>
        <extensions>
          <ns3:TrackPointExtension>
            <ns3:atemp>18.0</ns3:atemp>
          </ns3:TrackPointExtension>
        </extensions>
      </trkpt>
      <trkpt lat="42.62182633392512798309326171875" lon="19.9282505549490451812744140625">
        <ele>920.4000244140625</ele>
        <time>2026-06-16T06:29:13.000Z</time>
        <extensions>
          <ns3:TrackPointExtension>
            <ns3:atemp>18.0</ns3:atemp>
          </ns3:TrackPointExtension>
        </extensions>
      </trkpt>
      <trkpt lat="42.62186908163130283355712890625" lon="19.9282891117036342620849609375">
        <ele>920.5999755859375</ele>
        <time>2026-06-16T06:29:14.000Z</time>
        <extensions>
          <ns3:TrackPointExtension>
            <ns3:atemp>18.0</ns3:atemp>
          </ns3:TrackPointExtension>
        </extensions>
      </trkpt>
      <trkpt lat="42.62190847657620906829833984375" lon="19.92833060212433338165283203125">
        <ele>920.5999755859375</ele>
        <time>2026-06-16T06:29:15.000Z</time>
        <extensions>
          <ns3:TrackPointExtension>
            <ns3:atemp>18.0</ns3:atemp>
          </ns3:TrackPointExtension>
        </extensions>
      </trkpt>
      <trkpt lat="42.621946446597576141357421875" lon="19.92837200872600078582763671875">
        <ele>920.79998779296875</ele>
        <time>2026-06-16T06:29:16.000Z</time>
        <extensions>
          <ns3:TrackPointExtension>
            <ns3:atemp>18.0</ns3:atemp>
          </ns3:TrackPointExtension>
        </extensions>
      </trkpt>
      <trkpt lat="42.6219838298857212066650390625" lon="19.92841207422316074371337890625">
        <ele>920.79998779296875</ele>
        <time>2026-06-16T06:29:17.000Z</time>
        <extensions>
          <ns3:TrackPointExtension>
            <ns3:atemp>18.0</ns3:atemp>
          </ns3:TrackPointExtension>
        </extensions>
      </trkpt>
      <trkpt lat="42.6220217160880565643310546875" lon="19.92845381610095500946044921875">
        <ele>921</ele>
        <time>2026-06-16T06:29:18.000Z</time>
        <extensions>
          <ns3:TrackPointExtension>
            <ns3:atemp>18.0</ns3:atemp>
          </ns3:TrackPointExtension>
        </extensions>
      </trkpt>
      <trkpt lat="42.62205951847136020660400390625" lon="19.928497485816478729248046875">
        <ele>921.20001220703125</ele>
        <time>2026-06-16T06:29:19.000Z</time>
        <extensions>
          <ns3:TrackPointExtension>
            <ns3:atemp>18.0</ns3:atemp>
          </ns3:TrackPointExtension>
        </extensions>
      </trkpt>
      <trkpt lat="42.62209438718855381011962890625" lon="19.9285405687987804412841796875">
        <ele>921.4000244140625</ele>
        <time>2026-06-16T06:29:20.000Z</time>
        <extensions>
          <ns3:TrackPointExtension>
            <ns3:atemp>18.0</ns3:atemp>
          </ns3:TrackPointExtension>
        </extensions>
      </trkpt>
      <trkpt lat="42.6221290044486522674560546875" lon="19.92858692072331905364990234375">
        <ele>921.5999755859375</ele>
        <time>2026-06-16T06:29:21.000Z</time>
        <extensions>
          <ns3:TrackPointExtension>
            <ns3:atemp>18.0</ns3:atemp>
          </ns3:TrackPointExtension>
        </extensions>
      </trkpt>
      <trkpt lat="42.6221611909568309783935546875" lon="19.92863251827657222747802734375">
        <ele>921.79998779296875</ele>
        <time>2026-06-16T06:29:22.000Z</time>
        <extensions>
          <ns3:TrackPointExtension>
            <ns3:atemp>18.0</ns3:atemp>
          </ns3:TrackPointExtension>
        </extensions>
      </trkpt>
      <trkpt lat="42.6221935451030731201171875" lon="19.92867811582982540130615234375">
        <ele>922</ele>
        <time>2026-06-16T06:29:23.000Z</time>
        <extensions>
          <ns3:TrackPointExtension>
            <ns3:atemp>18.0</ns3:atemp>
          </ns3:TrackPointExtension>
        </extensions>
      </trkpt>
      <trkpt lat="42.62222531251609325408935546875" lon="19.92872052825987339019775390625">
        <ele>922.4000244140625</ele>
        <time>2026-06-16T06:29:24.000Z</time>
        <extensions>
          <ns3:TrackPointExtension>
            <ns3:atemp>18.0</ns3:atemp>
          </ns3:TrackPointExtension>
        </extensions>
      </trkpt>
      <trkpt lat="42.62225716374814510345458984375" lon="19.928763024508953094482421875">
        <ele>922.79998779296875</ele>
        <time>2026-06-16T06:29:25.000Z</time>
        <extensions>
          <ns3:TrackPointExtension>
            <ns3:atemp>18.0</ns3:atemp>
          </ns3:TrackPointExtension>
        </extensions>
      </trkpt>
      <trkpt lat="42.622288763523101806640625" lon="19.92880560457706451416015625">
        <ele>923</ele>
        <time>2026-06-16T06:29:26.000Z</time>
        <extensions>
          <ns3:TrackPointExtension>
            <ns3:atemp>18.0</ns3:atemp>
          </ns3:TrackPointExtension>
        </extensions>
      </trkpt>
      <trkpt lat="42.622318267822265625" lon="19.92885011248290538787841796875">
        <ele>923.20001220703125</ele>
        <time>2026-06-16T06:29:27.000Z</time>
        <extensions>
          <ns3:TrackPointExtension>
            <ns3:atemp>18.0</ns3:atemp>
          </ns3:TrackPointExtension>
        </extensions>
      </trkpt>
      <trkpt lat="42.62234969995915889739990234375" lon="19.92889638058841228485107421875">
        <ele>923.5999755859375</ele>
        <time>2026-06-16T06:29:28.000Z</time>
        <extensions>
          <ns3:TrackPointExtension>
            <ns3:atemp>18.0</ns3:atemp>
          </ns3:TrackPointExtension>
        </extensions>
      </trkpt>
      <trkpt lat="42.6223801262676715850830078125" lon="19.92893896065652370452880859375">
        <ele>923.79998779296875</ele>
        <time>2026-06-16T06:29:29.000Z</time>
        <extensions>
          <ns3:TrackPointExtension>
            <ns3:atemp>18.0</ns3:atemp>
          </ns3:TrackPointExtension>
        </extensions>
      </trkpt>
      <trkpt lat="42.62241206131875514984130859375" lon="19.9289814569056034088134765625">
        <ele>924.20001220703125</ele>
        <time>2026-06-16T06:29:30.000Z</time>
        <extensions>
          <ns3:TrackPointExtension>
            <ns3:atemp>18.0</ns3:atemp>
          </ns3:TrackPointExtension>
        </extensions>
      </trkpt>
      <trkpt lat="42.62244558893144130706787109375" lon="19.9290233664214611053466796875">
        <ele>924.4000244140625</ele>
        <time>2026-06-16T06:29:31.000Z</time>
        <extensions>
          <ns3:TrackPointExtension>
            <ns3:atemp>18.0</ns3:atemp>
          </ns3:TrackPointExtension>
        </extensions>
      </trkpt>
      <trkpt lat="42.62247861362993717193603515625" lon="19.92906519211828708648681640625">
        <ele>924.79998779296875</ele>
        <time>2026-06-16T06:29:32.000Z</time>
        <extensions>
          <ns3:TrackPointExtension>
            <ns3:atemp>18.0</ns3:atemp>
          </ns3:TrackPointExtension>
        </extensions>
      </trkpt>
      <trkpt lat="42.62251147069036960601806640625" lon="19.929107017815113067626953125">
        <ele>925</ele>
        <time>2026-06-16T06:29:33.000Z</time>
        <extensions>
          <ns3:TrackPointExtension>
            <ns3:atemp>18.0</ns3:atemp>
          </ns3:TrackPointExtension>
        </extensions>
      </trkpt>
      <trkpt lat="42.6225434057414531707763671875" lon="19.92914716713130474090576171875">
        <ele>925.20001220703125</ele>
        <time>2026-06-16T06:29:34.000Z</time>
        <extensions>
          <ns3:TrackPointExtension>
            <ns3:atemp>18.0</ns3:atemp>
          </ns3:TrackPointExtension>
        </extensions>
      </trkpt>
      <trkpt lat="42.62257643043994903564453125" lon="19.92918320931494235992431640625">
        <ele>925.4000244140625</ele>
        <time>2026-06-16T06:29:35.000Z</time>
        <extensions>
          <ns3:TrackPointExtension>
            <ns3:atemp>18.0</ns3:atemp>
          </ns3:TrackPointExtension>
        </extensions>
      </trkpt>
      <trkpt lat="42.62261289171874523162841796875" lon="19.92921656928956508636474609375">
        <ele>925.5999755859375</ele>
        <time>2026-06-16T06:29:36.000Z</time>
        <extensions>
          <ns3:TrackPointExtension>
            <ns3:atemp>18.0</ns3:atemp>
          </ns3:TrackPointExtension>
        </extensions>
      </trkpt>
      <trkpt lat="42.622648514807224273681640625" lon="19.92925127036869525909423828125">
        <ele>925.79998779296875</ele>
        <time>2026-06-16T06:29:37.000Z</time>
        <extensions>
          <ns3:TrackPointExtension>
            <ns3:atemp>18.0</ns3:atemp>
          </ns3:TrackPointExtension>
        </extensions>
      </trkpt>
      <trkpt lat="42.62268413789570331573486328125" lon="19.929284714162349700927734375">
        <ele>926</ele>
        <time>2026-06-16T06:29:38.000Z</time>
        <extensions>
          <ns3:TrackPointExtension>
            <ns3:atemp>18.0</ns3:atemp>
          </ns3:TrackPointExtension>
        </extensions>
      </trkpt>
      <trkpt lat="42.62272126972675323486328125" lon="19.92931790649890899658203125">
        <ele>926.20001220703125</ele>
        <time>2026-06-16T06:29:39.000Z</time>
        <extensions>
          <ns3:TrackPointExtension>
            <ns3:atemp>18.0</ns3:atemp>
          </ns3:TrackPointExtension>
        </extensions>
      </trkpt>
      <trkpt lat="42.62275907211005687713623046875" lon="19.9293480813503265380859375">
        <ele>926.4000244140625</ele>
        <time>2026-06-16T06:29:40.000Z</time>
        <extensions>
          <ns3:TrackPointExtension>
            <ns3:atemp>18.0</ns3:atemp>
          </ns3:TrackPointExtension>
        </extensions>
      </trkpt>
      <trkpt lat="42.62279896996915340423583984375" lon="19.9293767474591732025146484375">
        <ele>926.5999755859375</ele>
        <time>2026-06-16T06:29:41.000Z</time>
        <extensions>
          <ns3:TrackPointExtension>
            <ns3:atemp>18.0</ns3:atemp>
          </ns3:TrackPointExtension>
        </extensions>
      </trkpt>
      <trkpt lat="42.6228401251137256622314453125" lon="19.92940482683479785919189453125">
        <ele>927</ele>
        <time>2026-06-16T06:29:42.000Z</time>
        <extensions>
          <ns3:TrackPointExtension>
            <ns3:atemp>18.0</ns3:atemp>
          </ns3:TrackPointExtension>
        </extensions>
      </trkpt>
      <trkpt lat="42.6228813640773296356201171875" lon="19.92942997254431247711181640625">
        <ele>927.20001220703125</ele>
        <time>2026-06-16T06:29:43.000Z</time>
        <extensions>
          <ns3:TrackPointExtension>
            <ns3:atemp>18.0</ns3:atemp>
          </ns3:TrackPointExtension>
        </extensions>
      </trkpt>
      <trkpt lat="42.622924111783504486083984375" lon="19.92944975383579730987548828125">
        <ele>927.4000244140625</ele>
        <time>2026-06-16T06:29:44.000Z</time>
        <extensions>
          <ns3:TrackPointExtension>
            <ns3:atemp>18.0</ns3:atemp>
          </ns3:TrackPointExtension>
        </extensions>
      </trkpt>
      <trkpt lat="42.6229678653180599212646484375" lon="19.92946366779506206512451171875">
        <ele>927.5999755859375</ele>
        <time>2026-06-16T06:29:45.000Z</time>
        <extensions>
          <ns3:TrackPointExtension>
            <ns3:atemp>18.0</ns3:atemp>
          </ns3:TrackPointExtension>
        </extensions>
      </trkpt>
      <trkpt lat="42.62301287613809108734130859375" lon="19.92947355844080448150634765625">
        <ele>927.79998779296875</ele>
        <time>2026-06-16T06:29:46.000Z</time>
        <extensions>
          <ns3:TrackPointExtension>
            <ns3:atemp>18.0</ns3:atemp>
          </ns3:TrackPointExtension>
        </extensions>
      </trkpt>
      <trkpt lat="42.62305998243391513824462890625" lon="19.92948420345783233642578125">
        <ele>927.79998779296875</ele>
        <time>2026-06-16T06:29:47.000Z</time>
        <extensions>
          <ns3:TrackPointExtension>
            <ns3:atemp>18.0</ns3:atemp>
          </ns3:TrackPointExtension>
        </extensions>
      </trkpt>
      <trkpt lat="42.6231049932539463043212890625" lon="19.929495267570018768310546875">
        <ele>928</ele>
        <time>2026-06-16T06:29:48.000Z</time>
        <extensions>
          <ns3:TrackPointExtension>
            <ns3:atemp>18.0</ns3:atemp>
          </ns3:TrackPointExtension>
        </extensions>
      </trkpt>
      <trkpt lat="42.623147405683994293212890625" lon="19.9295036494731903076171875">
        <ele>928.20001220703125</ele>
        <time>2026-06-16T06:29:49.000Z</time>
        <extensions>
          <ns3:TrackPointExtension>
            <ns3:atemp>18.0</ns3:atemp>
          </ns3:TrackPointExtension>
        </extensions>
      </trkpt>
      <trkpt lat="42.62319208122789859771728515625" lon="19.92950893007218837738037109375">
        <ele>928.4000244140625</ele>
        <time>2026-06-16T06:29:50.000Z</time>
        <extensions>
          <ns3:TrackPointExtension>
            <ns3:atemp>18.0</ns3:atemp>
          </ns3:TrackPointExtension>
        </extensions>
      </trkpt>
      <trkpt lat="42.62323818169534206390380859375" lon="19.9295148812234401702880859375">
        <ele>928.4000244140625</ele>
        <time>2026-06-16T06:29:51.000Z</time>
        <extensions>
          <ns3:TrackPointExtension>
            <ns3:atemp>18.0</ns3:atemp>
          </ns3:TrackPointExtension>
        </extensions>
      </trkpt>
      <trkpt lat="42.62328444980084896087646484375" lon="19.92952041327953338623046875">
        <ele>928.5999755859375</ele>
        <time>2026-06-16T06:29:52.000Z</time>
        <extensions>
          <ns3:TrackPointExtension>
            <ns3:atemp>18.0</ns3:atemp>
          </ns3:TrackPointExtension>
        </extensions>
      </trkpt>
      <trkpt lat="42.62332937680184841156005859375" lon="19.92952452041208744049072265625">
        <ele>928.79998779296875</ele>
        <time>2026-06-16T06:29:53.000Z</time>
        <extensions>
          <ns3:TrackPointExtension>
            <ns3:atemp>18.0</ns3:atemp>
          </ns3:TrackPointExtension>
        </extensions>
      </trkpt>
      <trkpt lat="42.62337564490735530853271484375" lon="19.9295286275446414947509765625">
        <ele>929</ele>
        <time>2026-06-16T06:29:54.000Z</time>
        <extensions>
          <ns3:TrackPointExtension>
            <ns3:atemp>18.0</ns3:atemp>
          </ns3:TrackPointExtension>
        </extensions>
      </trkpt>
      <trkpt lat="42.623423673212528228759765625" lon="19.92953038774430751800537109375">
        <ele>929</ele>
        <time>2026-06-16T06:29:55.000Z</time>
        <extensions>
          <ns3:TrackPointExtension>
            <ns3:atemp>18.0</ns3:atemp>
          </ns3:TrackPointExtension>
        </extensions>
      </trkpt>
      <trkpt lat="42.623472623527050018310546875" lon="19.92952971719205379486083984375">
        <ele>929.20001220703125</ele>
        <time>2026-06-16T06:29:56.000Z</time>
        <extensions>
          <ns3:TrackPointExtension>
            <ns3:atemp>18.0</ns3:atemp>
          </ns3:TrackPointExtension>
        </extensions>
      </trkpt>
      <trkpt lat="42.623520903289318084716796875" lon="19.9295319803059101104736328125">
        <ele>929.20001220703125</ele>
        <time>2026-06-16T06:29:57.000Z</time>
        <extensions>
          <ns3:TrackPointExtension>
            <ns3:atemp>18.0</ns3:atemp>
          </ns3:TrackPointExtension>
        </extensions>
      </trkpt>
      <trkpt lat="42.62356809340417385101318359375" lon="19.9295339919626712799072265625">
        <ele>929.4000244140625</ele>
        <time>2026-06-16T06:29:58.000Z</time>
        <extensions>
          <ns3:TrackPointExtension>
            <ns3:atemp>18.0</ns3:atemp>
          </ns3:TrackPointExtension>
        </extensions>
      </trkpt>
      <trkpt lat="42.623614780604839324951171875" lon="19.9295360036194324493408203125">
        <ele>929.5999755859375</ele>
        <time>2026-06-16T06:29:59.000Z</time>
        <extensions>
          <ns3:TrackPointExtension>
            <ns3:atemp>18.0</ns3:atemp>
          </ns3:TrackPointExtension>
        </extensions>
      </trkpt>
      <trkpt lat="42.623661048710346221923828125" lon="19.92953516542911529541015625">
        <ele>929.79998779296875</ele>
        <time>2026-06-16T06:30:00.000Z</time>
        <extensions>
          <ns3:TrackPointExtension>
            <ns3:atemp>18.0</ns3:atemp>
          </ns3:TrackPointExtension>
        </extensions>
      </trkpt>
      <trkpt lat="42.6237054727971553802490234375" lon="19.92953608743846416473388671875">
        <ele>930</ele>
        <time>2026-06-16T06:30:01.000Z</time>
        <extensions>
          <ns3:TrackPointExtension>
            <ns3:atemp>18.0</ns3:atemp>
          </ns3:TrackPointExtension>
        </extensions>
      </trkpt>
      <trkpt lat="42.62374981306493282318115234375" lon="19.92954212240874767303466796875">
        <ele>930.20001220703125</ele>
        <time>2026-06-16T06:30:02.000Z</time>
        <extensions>
          <ns3:TrackPointExtension>
            <ns3:atemp>18.0</ns3:atemp>
          </ns3:TrackPointExtension>
        </extensions>
      </trkpt>
      <trkpt lat="42.6237959973514080047607421875" lon="19.92954966612160205841064453125">
        <ele>930.4000244140625</ele>
        <time>2026-06-16T06:30:03.000Z</time>
        <extensions>
          <ns3:TrackPointExtension>
            <ns3:atemp>18.0</ns3:atemp>
          </ns3:TrackPointExtension>
        </extensions>
      </trkpt>
      <trkpt lat="42.62384469620883464813232421875" lon="19.92955100722610950469970703125">
        <ele>930.4000244140625</ele>
        <time>2026-06-16T06:30:04.000Z</time>
        <extensions>
          <ns3:TrackPointExtension>
            <ns3:atemp>18.0</ns3:atemp>
          </ns3:TrackPointExtension>
        </extensions>
      </trkpt>
      <trkpt lat="42.623896412551403045654296875" lon="19.9295547790825366973876953125">
        <ele>930.4000244140625</ele>
        <time>2026-06-16T06:30:05.000Z</time>
        <extensions>
          <ns3:TrackPointExtension>
            <ns3:atemp>18.0</ns3:atemp>
          </ns3:TrackPointExtension>
        </extensions>
      </trkpt>
      <trkpt lat="42.62394838035106658935546875" lon="19.9295601435005664825439453125">
        <ele>930.4000244140625</ele>
        <time>2026-06-16T06:30:06.000Z</time>
        <extensions>
          <ns3:TrackPointExtension>
            <ns3:atemp>18.0</ns3:atemp>
          </ns3:TrackPointExtension>
        </extensions>
      </trkpt>
      <trkpt lat="42.62399808503687381744384765625" lon="19.9295651726424694061279296875">
        <ele>930.4000244140625</ele>
        <time>2026-06-16T06:30:07.000Z</time>
        <extensions>
          <ns3:TrackPointExtension>
            <ns3:atemp>18.0</ns3:atemp>
          </ns3:TrackPointExtension>
        </extensions>
      </trkpt>
      <trkpt lat="42.6240481249988079071044921875" lon="19.92957062087953090667724609375">
        <ele>930.4000244140625</ele>
        <time>2026-06-16T06:30:08.000Z</time>
        <extensions>
          <ns3:TrackPointExtension>
            <ns3:atemp>18.0</ns3:atemp>
          </ns3:TrackPointExtension>
        </extensions>
      </trkpt>
      <trkpt lat="42.6240984164178371429443359375" lon="19.929573722183704376220703125">
        <ele>930.4000244140625</ele>
        <time>2026-06-16T06:30:09.000Z</time>
        <extensions>
          <ns3:TrackPointExtension>
            <ns3:atemp>18.0</ns3:atemp>
          </ns3:TrackPointExtension>
        </extensions>
      </trkpt>
      <trkpt lat="42.62414912693202495574951171875" lon="19.92958076298236846923828125">
        <ele>930.4000244140625</ele>
        <time>2026-06-16T06:30:10.000Z</time>
        <extensions>
          <ns3:TrackPointExtension>
            <ns3:atemp>18.0</ns3:atemp>
          </ns3:TrackPointExtension>
        </extensions>
      </trkpt>
      <trkpt lat="42.624198161065578460693359375" lon="19.929585121572017669677734375">
        <ele>930.5999755859375</ele>
        <time>2026-06-16T06:30:11.000Z</time>
        <extensions>
          <ns3:TrackPointExtension>
            <ns3:atemp>18.0</ns3:atemp>
          </ns3:TrackPointExtension>
        </extensions>
      </trkpt>
      <trkpt lat="42.62424652464687824249267578125" lon="19.92958822287619113922119140625">
        <ele>930.5999755859375</ele>
        <time>2026-06-16T06:30:12.000Z</time>
        <extensions>
          <ns3:TrackPointExtension>
            <ns3:atemp>18.0</ns3:atemp>
          </ns3:TrackPointExtension>
        </extensions>
      </trkpt>
      <trkpt lat="42.62429815717041492462158203125" lon="19.92959056980907917022705078125">
        <ele>930.5999755859375</ele>
        <time>2026-06-16T06:30:13.000Z</time>
        <extensions>
          <ns3:TrackPointExtension>
            <ns3:atemp>18.0</ns3:atemp>
          </ns3:TrackPointExtension>
        </extensions>
      </trkpt>
      <trkpt lat="42.62434928677976131439208984375" lon="19.929593838751316070556640625">
        <ele>930.5999755859375</ele>
        <time>2026-06-16T06:30:14.000Z</time>
        <extensions>
          <ns3:TrackPointExtension>
            <ns3:atemp>18.0</ns3:atemp>
          </ns3:TrackPointExtension>
        </extensions>
      </trkpt>
      <trkpt lat="42.6243984885513782501220703125" lon="19.92959291674196720123291015625">
        <ele>930.5999755859375</ele>
        <time>2026-06-16T06:30:15.000Z</time>
        <extensions>
          <ns3:TrackPointExtension>
            <ns3:atemp>18.0</ns3:atemp>
          </ns3:TrackPointExtension>
        </extensions>
      </trkpt>
      <trkpt lat="42.62445003725588321685791015625" lon="19.9295980297029018402099609375">
        <ele>930.5999755859375</ele>
        <time>2026-06-16T06:30:16.000Z</time>
        <extensions>
          <ns3:TrackPointExtension>
            <ns3:atemp>18.0</ns3:atemp>
          </ns3:TrackPointExtension>
        </extensions>
      </trkpt>
      <trkpt lat="42.62450150214135646820068359375" lon="19.92960087954998016357421875">
        <ele>930.79998779296875</ele>
        <time>2026-06-16T06:30:17.000Z</time>
        <extensions>
          <ns3:TrackPointExtension>
            <ns3:atemp>18.0</ns3:atemp>
          </ns3:TrackPointExtension>
        </extensions>
      </trkpt>
      <trkpt lat="42.62455112300813198089599609375" lon="19.9296023882925510406494140625">
        <ele>930.79998779296875</ele>
        <time>2026-06-16T06:30:18.000Z</time>
        <extensions>
          <ns3:TrackPointExtension>
            <ns3:atemp>18.0</ns3:atemp>
          </ns3:TrackPointExtension>
        </extensions>
      </trkpt>
      <trkpt lat="42.62460376136004924774169921875" lon="19.9296017177402973175048828125">
        <ele>931</ele>
        <time>2026-06-16T06:30:19.000Z</time>
        <extensions>
          <ns3:TrackPointExtension>
            <ns3:atemp>18.0</ns3:atemp>
          </ns3:TrackPointExtension>
        </extensions>
      </trkpt>
      <trkpt lat="42.6246556453406810760498046875" lon="19.92960532195866107940673828125">
        <ele>931</ele>
        <time>2026-06-16T06:30:20.000Z</time>
        <extensions>
          <ns3:TrackPointExtension>
            <ns3:atemp>18.0</ns3:atemp>
          </ns3:TrackPointExtension>
        </extensions>
      </trkpt>
      <trkpt lat="42.624708451330661773681640625" lon="19.929608590900897979736328125">
        <ele>931</ele>
        <time>2026-06-16T06:30:21.000Z</time>
        <extensions>
          <ns3:TrackPointExtension>
            <ns3:atemp>18.0</ns3:atemp>
          </ns3:TrackPointExtension>
        </extensions>
      </trkpt>
      <trkpt lat="42.6247595809400081634521484375" lon="19.9296121113002300262451171875">
        <ele>931</ele>
        <time>2026-06-16T06:30:22.000Z</time>
        <extensions>
          <ns3:TrackPointExtension>
            <ns3:atemp>18.0</ns3:atemp>
          </ns3:TrackPointExtension>
        </extensions>
      </trkpt>
      <trkpt lat="42.624810039997100830078125" lon="19.92961906827986240386962890625">
        <ele>930.79998779296875</ele>
        <time>2026-06-16T06:30:23.000Z</time>
        <extensions>
          <ns3:TrackPointExtension>
            <ns3:atemp>18.0</ns3:atemp>
          </ns3:TrackPointExtension>
        </extensions>
      </trkpt>
      <trkpt lat="42.624861337244510650634765625" lon="19.92962158285081386566162109375">
        <ele>930.79998779296875</ele>
        <time>2026-06-16T06:30:24.000Z</time>
        <extensions>
          <ns3:TrackPointExtension>
            <ns3:atemp>18.0</ns3:atemp>
          </ns3:TrackPointExtension>
        </extensions>
      </trkpt>
      <trkpt lat="42.6249128021299839019775390625" lon="19.9296238459646701812744140625">
        <ele>930.79998779296875</ele>
        <time>2026-06-16T06:30:25.000Z</time>
        <extensions>
          <ns3:TrackPointExtension>
            <ns3:atemp>18.0</ns3:atemp>
          </ns3:TrackPointExtension>
        </extensions>
      </trkpt>
      <trkpt lat="42.62496485374867916107177734375" lon="19.9296258576214313507080078125">
        <ele>930.79998779296875</ele>
        <time>2026-06-16T06:30:26.000Z</time>
        <extensions>
          <ns3:TrackPointExtension>
            <ns3:atemp>18.0</ns3:atemp>
          </ns3:TrackPointExtension>
        </extensions>
      </trkpt>
      <trkpt lat="42.6250184141099452972412109375" lon="19.92962895892560482025146484375">
        <ele>930.79998779296875</ele>
        <time>2026-06-16T06:30:27.000Z</time>
        <extensions>
          <ns3:TrackPointExtension>
            <ns3:atemp>18.0</ns3:atemp>
          </ns3:TrackPointExtension>
        </extensions>
      </trkpt>
      <trkpt lat="42.625073231756687164306640625" lon="19.92963382042944431304931640625">
        <ele>930.79998779296875</ele>
        <time>2026-06-16T06:30:28.000Z</time>
        <extensions>
          <ns3:TrackPointExtension>
            <ns3:atemp>18.0</ns3:atemp>
          </ns3:TrackPointExtension>
        </extensions>
      </trkpt>
      <trkpt lat="42.62512763030827045440673828125" lon="19.929641447961330413818359375">
        <ele>930.79998779296875</ele>
        <time>2026-06-16T06:30:29.000Z</time>
        <extensions>
          <ns3:TrackPointExtension>
            <ns3:atemp>18.0</ns3:atemp>
          </ns3:TrackPointExtension>
        </extensions>
      </trkpt>
      <trkpt lat="42.6251800172030925750732421875" lon="19.92965477518737316131591796875">
        <ele>930.79998779296875</ele>
        <time>2026-06-16T06:30:30.000Z</time>
        <extensions>
          <ns3:TrackPointExtension>
            <ns3:atemp>18.0</ns3:atemp>
          </ns3:TrackPointExtension>
        </extensions>
      </trkpt>
      <trkpt lat="42.6252339966595172882080078125" lon="19.92966818623244762420654296875">
        <ele>930.5999755859375</ele>
        <time>2026-06-16T06:30:31.000Z</time>
        <extensions>
          <ns3:TrackPointExtension>
            <ns3:atemp>18.0</ns3:atemp>
          </ns3:TrackPointExtension>
        </extensions>
      </trkpt>
      <trkpt lat="42.6252869702875614166259765625" lon="19.92968511767685413360595703125">
        <ele>930.5999755859375</ele>
        <time>2026-06-16T06:30:32.000Z</time>
        <extensions>
          <ns3:TrackPointExtension>
            <ns3:atemp>18.0</ns3:atemp>
          </ns3:TrackPointExtension>
        </extensions>
      </trkpt>
      <trkpt lat="42.6253397762775421142578125" lon="19.92970523424446582794189453125">
        <ele>930.5999755859375</ele>
        <time>2026-06-16T06:30:33.000Z</time>
        <extensions>
          <ns3:TrackPointExtension>
            <ns3:atemp>18.0</ns3:atemp>
          </ns3:TrackPointExtension>
        </extensions>
      </trkpt>
      <trkpt lat="42.6253909058868885040283203125" lon="19.92972920648753643035888671875">
        <ele>930.5999755859375</ele>
        <time>2026-06-16T06:30:34.000Z</time>
        <extensions>
          <ns3:TrackPointExtension>
            <ns3:atemp>18.0</ns3:atemp>
          </ns3:TrackPointExtension>
        </extensions>
      </trkpt>
      <trkpt lat="42.625440694391727447509765625" lon="19.92975954897701740264892578125">
        <ele>930.5999755859375</ele>
        <time>2026-06-16T06:30:35.000Z</time>
        <extensions>
          <ns3:TrackPointExtension>
            <ns3:atemp>18.0</ns3:atemp>
          </ns3:TrackPointExtension>
        </extensions>
      </trkpt>
      <trkpt lat="42.6254894770681858062744140625" lon="19.92979399859905242919921875">
        <ele>930.79998779296875</ele>
        <time>2026-06-16T06:30:36.000Z</time>
        <extensions>
          <ns3:TrackPointExtension>
            <ns3:atemp>18.0</ns3:atemp>
          </ns3:TrackPointExtension>
        </extensions>
      </trkpt>
      <trkpt lat="42.62553599663078784942626953125" lon="19.9298317171633243560791015625">
        <ele>930.79998779296875</ele>
        <time>2026-06-16T06:30:37.000Z</time>
        <extensions>
          <ns3:TrackPointExtension>
            <ns3:atemp>18.0</ns3:atemp>
          </ns3:TrackPointExtension>
        </extensions>
      </trkpt>
      <trkpt lat="42.625579833984375" lon="19.92987178266048431396484375">
        <ele>930.79998779296875</ele>
        <time>2026-06-16T06:30:38.000Z</time>
        <extensions>
          <ns3:TrackPointExtension>
            <ns3:atemp>18.0</ns3:atemp>
          </ns3:TrackPointExtension>
        </extensions>
      </trkpt>
      <trkpt lat="42.625622414052486419677734375" lon="19.9299138598144054412841796875">
        <ele>930.79998779296875</ele>
        <time>2026-06-16T06:30:39.000Z</time>
        <extensions>
          <ns3:TrackPointExtension>
            <ns3:atemp>18.0</ns3:atemp>
          </ns3:TrackPointExtension>
        </extensions>
      </trkpt>
      <trkpt lat="42.6256641559302806854248046875" lon="19.9299604631960391998291015625">
        <ele>930.79998779296875</ele>
        <time>2026-06-16T06:30:40.000Z</time>
        <extensions>
          <ns3:TrackPointExtension>
            <ns3:atemp>18.0</ns3:atemp>
          </ns3:TrackPointExtension>
        </extensions>
      </trkpt>
      <trkpt lat="42.62570195831358432769775390625" lon="19.930011928081512451171875">
        <ele>930.79998779296875</ele>
        <time>2026-06-16T06:30:41.000Z</time>
        <extensions>
          <ns3:TrackPointExtension>
            <ns3:atemp>18.0</ns3:atemp>
          </ns3:TrackPointExtension>
        </extensions>
      </trkpt>
      <trkpt lat="42.6257352344691753387451171875" lon="19.93007160723209381103515625">
        <ele>930.79998779296875</ele>
        <time>2026-06-16T06:30:42.000Z</time>
        <extensions>
          <ns3:TrackPointExtension>
            <ns3:atemp>18.0</ns3:atemp>
          </ns3:TrackPointExtension>
        </extensions>
      </trkpt>
      <trkpt lat="42.6257716119289398193359375" lon="19.93013153783977031707763671875">
        <ele>930.79998779296875</ele>
        <time>2026-06-16T06:30:43.000Z</time>
        <extensions>
          <ns3:TrackPointExtension>
            <ns3:atemp>18.0</ns3:atemp>
          </ns3:TrackPointExtension>
        </extensions>
      </trkpt>
      <trkpt lat="42.62580539099872112274169921875" lon="19.930193312466144561767578125">
        <ele>930.79998779296875</ele>
        <time>2026-06-16T06:30:44.000Z</time>
        <extensions>
          <ns3:TrackPointExtension>
            <ns3:atemp>18.0</ns3:atemp>
          </ns3:TrackPointExtension>
        </extensions>
      </trkpt>
      <trkpt lat="42.6258341409265995025634765625" lon="19.93025994859635829925537109375">
        <ele>931</ele>
        <time>2026-06-16T06:30:45.000Z</time>
        <extensions>
          <ns3:TrackPointExtension>
            <ns3:atemp>18.0</ns3:atemp>
          </ns3:TrackPointExtension>
        </extensions>
      </trkpt>
      <trkpt lat="42.625861130654811859130859375" lon="19.930328764021396636962890625">
        <ele>931</ele>
        <time>2026-06-16T06:30:46.000Z</time>
        <extensions>
          <ns3:TrackPointExtension>
            <ns3:atemp>18.0</ns3:atemp>
          </ns3:TrackPointExtension>
        </extensions>
      </trkpt>
      <trkpt lat="42.62588803656399250030517578125" lon="19.93039489723742008209228515625">
        <ele>931</ele>
        <time>2026-06-16T06:30:47.000Z</time>
        <extensions>
          <ns3:TrackPointExtension>
            <ns3:atemp>18.0</ns3:atemp>
          </ns3:TrackPointExtension>
        </extensions>
      </trkpt>
      <trkpt lat="42.62591184116899967193603515625" lon="19.9304600246250629425048828125">
        <ele>931</ele>
        <time>2026-06-16T06:30:48.000Z</time>
        <extensions>
          <ns3:TrackPointExtension>
            <ns3:atemp>18.0</ns3:atemp>
          </ns3:TrackPointExtension>
        </extensions>
      </trkpt>
      <trkpt lat="42.62593681924045085906982421875" lon="19.93053034879267215728759765625">
        <ele>930.79998779296875</ele>
        <time>2026-06-16T06:30:49.000Z</time>
        <extensions>
          <ns3:TrackPointExtension>
            <ns3:atemp>18.0</ns3:atemp>
          </ns3:TrackPointExtension>
        </extensions>
      </trkpt>
      <trkpt lat="42.62596380896866321563720703125" lon="19.93060377426445484161376953125">
        <ele>930.79998779296875</ele>
        <time>2026-06-16T06:30:50.000Z</time>
        <extensions>
          <ns3:TrackPointExtension>
            <ns3:atemp>18.0</ns3:atemp>
          </ns3:TrackPointExtension>
        </extensions>
      </trkpt>
      <trkpt lat="42.62598778121173381805419921875" lon="19.9306826479732990264892578125">
        <ele>930.5999755859375</ele>
        <time>2026-06-16T06:30:51.000Z</time>
        <extensions>
          <ns3:TrackPointExtension>
            <ns3:atemp>18.0</ns3:atemp>
          </ns3:TrackPointExtension>
        </extensions>
      </trkpt>
      <trkpt lat="42.62601359747350215911865234375" lon="19.93075833655893802642822265625">
        <ele>930.4000244140625</ele>
        <time>2026-06-16T06:30:52.000Z</time>
        <extensions>
          <ns3:TrackPointExtension>
            <ns3:atemp>18.0</ns3:atemp>
          </ns3:TrackPointExtension>
        </extensions>
      </trkpt>
      <trkpt lat="42.6260410062968730926513671875" lon="19.93083477951586246490478515625">
        <ele>930.4000244140625</ele>
        <time>2026-06-16T06:30:53.000Z</time>
        <extensions>
          <ns3:TrackPointExtension>
            <ns3:atemp>18.0</ns3:atemp>
          </ns3:TrackPointExtension>
        </extensions>
      </trkpt>
      <trkpt lat="42.6260688342154026031494140625" lon="19.93091524578630924224853515625">
        <ele>930.20001220703125</ele>
        <time>2026-06-16T06:30:54.000Z</time>
        <extensions>
          <ns3:TrackPointExtension>
            <ns3:atemp>18.0</ns3:atemp>
          </ns3:TrackPointExtension>
        </extensions>
      </trkpt>
      <trkpt lat="42.62609607540071010589599609375" lon="19.93099269457161426544189453125">
        <ele>930</ele>
        <time>2026-06-16T06:30:55.000Z</time>
        <extensions>
          <ns3:TrackPointExtension>
            <ns3:atemp>18.0</ns3:atemp>
          </ns3:TrackPointExtension>
        </extensions>
      </trkpt>
      <trkpt lat="42.6261251606047153472900390625" lon="19.93107433430850505828857421875">
        <ele>929.79998779296875</ele>
        <time>2026-06-16T06:30:56.000Z</time>
        <extensions>
          <ns3:TrackPointExtension>
            <ns3:atemp>18.0</ns3:atemp>
          </ns3:TrackPointExtension>
        </extensions>
      </trkpt>
      <trkpt lat="42.626151144504547119140625" lon="19.9311547167599201202392578125">
        <ele>929.5999755859375</ele>
        <time>2026-06-16T06:30:57.000Z</time>
        <extensions>
          <ns3:TrackPointExtension>
            <ns3:atemp>18.0</ns3:atemp>
          </ns3:TrackPointExtension>
        </extensions>
      </trkpt>
      <trkpt lat="42.62617595493793487548828125" lon="19.9312351830303668975830078125">
        <ele>929.4000244140625</ele>
        <time>2026-06-16T06:30:58.000Z</time>
        <extensions>
          <ns3:TrackPointExtension>
            <ns3:atemp>18.0</ns3:atemp>
          </ns3:TrackPointExtension>
        </extensions>
      </trkpt>
      <trkpt lat="42.62620135210454463958740234375" lon="19.931315146386623382568359375">
        <ele>929.20001220703125</ele>
        <time>2026-06-16T06:30:59.000Z</time>
        <extensions>
          <ns3:TrackPointExtension>
            <ns3:atemp>18.0</ns3:atemp>
          </ns3:TrackPointExtension>
        </extensions>
      </trkpt>
      <trkpt lat="42.62622683309018611907958984375" lon="19.9313961155712604522705078125">
        <ele>929</ele>
        <time>2026-06-16T06:31:00.000Z</time>
        <extensions>
          <ns3:TrackPointExtension>
            <ns3:atemp>18.0</ns3:atemp>
          </ns3:TrackPointExtension>
        </extensions>
      </trkpt>
      <trkpt lat="42.62625616975128650665283203125" lon="19.931469373404979705810546875">
        <ele>928.79998779296875</ele>
        <time>2026-06-16T06:31:01.000Z</time>
        <extensions>
          <ns3:TrackPointExtension>
            <ns3:atemp>18.0</ns3:atemp>
          </ns3:TrackPointExtension>
        </extensions>
      </trkpt>
      <trkpt lat="42.626287937164306640625" lon="19.9315466545522212982177734375">
        <ele>928.5999755859375</ele>
        <time>2026-06-16T06:31:02.000Z</time>
        <extensions>
          <ns3:TrackPointExtension>
            <ns3:atemp>18.0</ns3:atemp>
          </ns3:TrackPointExtension>
        </extensions>
      </trkpt>
      <trkpt lat="42.6263223029673099517822265625" lon="19.93161815218627452850341796875">
        <ele>928.4000244140625</ele>
        <time>2026-06-16T06:31:03.000Z</time>
        <extensions>
          <ns3:TrackPointExtension>
            <ns3:atemp>18.0</ns3:atemp>
          </ns3:TrackPointExtension>
        </extensions>
      </trkpt>
      <trkpt lat="42.62635909952223300933837890625" lon="19.9316878058016300201416015625">
        <ele>928.20001220703125</ele>
        <time>2026-06-16T06:31:04.000Z</time>
        <extensions>
          <ns3:TrackPointExtension>
            <ns3:atemp>18.0</ns3:atemp>
          </ns3:TrackPointExtension>
        </extensions>
      </trkpt>
      <trkpt lat="42.6263997517526149749755859375" lon="19.931754358112812042236328125">
        <ele>928</ele>
        <time>2026-06-16T06:31:05.000Z</time>
        <extensions>
          <ns3:TrackPointExtension>
            <ns3:atemp>18.0</ns3:atemp>
          </ns3:TrackPointExtension>
        </extensions>
      </trkpt>
      <trkpt lat="42.62644342146813869476318359375" lon="19.93181931786239147186279296875">
        <ele>927.5999755859375</ele>
        <time>2026-06-16T06:31:06.000Z</time>
        <extensions>
          <ns3:TrackPointExtension>
            <ns3:atemp>18.0</ns3:atemp>
          </ns3:TrackPointExtension>
        </extensions>
      </trkpt>
      <trkpt lat="42.626490779221057891845703125" lon="19.9318822659552097320556640625">
        <ele>927.4000244140625</ele>
        <time>2026-06-16T06:31:07.000Z</time>
        <extensions>
          <ns3:TrackPointExtension>
            <ns3:atemp>18.0</ns3:atemp>
          </ns3:TrackPointExtension>
        </extensions>
      </trkpt>
      <trkpt lat="42.62654299847781658172607421875" lon="19.93193917907774448394775390625">
        <ele>927.20001220703125</ele>
        <time>2026-06-16T06:31:08.000Z</time>
        <extensions>
          <ns3:TrackPointExtension>
            <ns3:atemp>18.0</ns3:atemp>
          </ns3:TrackPointExtension>
        </extensions>
      </trkpt>
      <trkpt lat="42.62659882195293903350830078125" lon="19.931987039744853973388671875">
        <ele>927</ele>
        <time>2026-06-16T06:31:09.000Z</time>
        <extensions>
          <ns3:TrackPointExtension>
            <ns3:atemp>18.0</ns3:atemp>
          </ns3:TrackPointExtension>
        </extensions>
      </trkpt>
      <trkpt lat="42.62665615417063236236572265625" lon="19.9320311285555362701416015625">
        <ele>927</ele>
        <time>2026-06-16T06:31:10.000Z</time>
        <extensions>
          <ns3:TrackPointExtension>
            <ns3:atemp>18.0</ns3:atemp>
          </ns3:TrackPointExtension>
        </extensions>
      </trkpt>
      <trkpt lat="42.6267139054834842681884765625" lon="19.9320727027952671051025390625">
        <ele>926.79998779296875</ele>
        <time>2026-06-16T06:31:11.000Z</time>
        <extensions>
          <ns3:TrackPointExtension>
            <ns3:atemp>18.0</ns3:atemp>
          </ns3:TrackPointExtension>
        </extensions>
      </trkpt>
      <trkpt lat="42.62677408754825592041015625" lon="19.93211008608341217041015625">
        <ele>926.5999755859375</ele>
        <time>2026-06-16T06:31:12.000Z</time>
        <extensions>
          <ns3:TrackPointExtension>
            <ns3:atemp>18.0</ns3:atemp>
          </ns3:TrackPointExtension>
        </extensions>
      </trkpt>
      <trkpt lat="42.62683753855526447296142578125" lon="19.93214386515319347381591796875">
        <ele>926.4000244140625</ele>
        <time>2026-06-16T06:31:13.000Z</time>
        <extensions>
          <ns3:TrackPointExtension>
            <ns3:atemp>18.0</ns3:atemp>
          </ns3:TrackPointExtension>
        </extensions>
      </trkpt>
      <trkpt lat="42.626902163028717041015625" lon="19.932176135480403900146484375">
        <ele>926.4000244140625</ele>
        <time>2026-06-16T06:31:14.000Z</time>
        <extensions>
          <ns3:TrackPointExtension>
            <ns3:atemp>18.0</ns3:atemp>
          </ns3:TrackPointExtension>
        </extensions>
      </trkpt>
      <trkpt lat="42.62696879915893077850341796875" lon="19.9322078190743923187255859375">
        <ele>926.20001220703125</ele>
        <time>2026-06-16T06:31:15.000Z</time>
        <extensions>
          <ns3:TrackPointExtension>
            <ns3:atemp>18.0</ns3:atemp>
          </ns3:TrackPointExtension>
        </extensions>
      </trkpt>
      <trkpt lat="42.62703484855592250823974609375" lon="19.93223656900227069854736328125">
        <ele>926</ele>
        <time>2026-06-16T06:31:16.000Z</time>
        <extensions>
          <ns3:TrackPointExtension>
            <ns3:atemp>18.0</ns3:atemp>
          </ns3:TrackPointExtension>
        </extensions>
      </trkpt>
      <trkpt lat="42.6271008141338825225830078125" lon="19.9322651512920856475830078125">
        <ele>925.79998779296875</ele>
        <time>2026-06-16T06:31:17.000Z</time>
        <extensions>
          <ns3:TrackPointExtension>
            <ns3:atemp>18.0</ns3:atemp>
          </ns3:TrackPointExtension>
        </extensions>
      </trkpt>
      <trkpt lat="42.62716703116893768310546875" lon="19.93229306302964687347412109375">
        <ele>925.5999755859375</ele>
        <time>2026-06-16T06:31:18.000Z</time>
        <extensions>
          <ns3:TrackPointExtension>
            <ns3:atemp>18.0</ns3:atemp>
          </ns3:TrackPointExtension>
        </extensions>
      </trkpt>
      <trkpt lat="42.6272332482039928436279296875" lon="19.9323211424052715301513671875">
        <ele>925.4000244140625</ele>
        <time>2026-06-16T06:31:19.000Z</time>
        <extensions>
          <ns3:TrackPointExtension>
            <ns3:atemp>18.0</ns3:atemp>
          </ns3:TrackPointExtension>
        </extensions>
      </trkpt>
      <trkpt lat="42.62729837559163570404052734375" lon="19.93235014379024505615234375">
        <ele>925.20001220703125</ele>
        <time>2026-06-16T06:31:20.000Z</time>
        <extensions>
          <ns3:TrackPointExtension>
            <ns3:atemp>18.0</ns3:atemp>
          </ns3:TrackPointExtension>
        </extensions>
      </trkpt>
      <trkpt lat="42.6273621618747711181640625" lon="19.93237922899425029754638671875">
        <ele>925.20001220703125</ele>
        <time>2026-06-16T06:31:21.000Z</time>
        <extensions>
          <ns3:TrackPointExtension>
            <ns3:atemp>18.0</ns3:atemp>
          </ns3:TrackPointExtension>
        </extensions>
      </trkpt>
      <trkpt lat="42.627427875995635986328125" lon="19.93240387178957462310791015625">
        <ele>925</ele>
        <time>2026-06-16T06:31:22.000Z</time>
        <extensions>
          <ns3:TrackPointExtension>
            <ns3:atemp>18.0</ns3:atemp>
          </ns3:TrackPointExtension>
        </extensions>
      </trkpt>
      <trkpt lat="42.62749132700264453887939453125" lon="19.932429604232311248779296875">
        <ele>924.79998779296875</ele>
        <time>2026-06-16T06:31:23.000Z</time>
        <extensions>
          <ns3:TrackPointExtension>
            <ns3:atemp>18.0</ns3:atemp>
          </ns3:TrackPointExtension>
        </extensions>
      </trkpt>
      <trkpt lat="42.62755335308611392974853515625" lon="19.93245315738022327423095703125">
        <ele>924.79998779296875</ele>
        <time>2026-06-16T06:31:24.000Z</time>
        <extensions>
          <ns3:TrackPointExtension>
            <ns3:atemp>18.0</ns3:atemp>
          </ns3:TrackPointExtension>
        </extensions>
      </trkpt>
      <trkpt lat="42.6276134513318538665771484375" lon="19.9324810691177845001220703125">
        <ele>924.79998779296875</ele>
        <time>2026-06-16T06:31:25.000Z</time>
        <extensions>
          <ns3:TrackPointExtension>
            <ns3:atemp>18.0</ns3:atemp>
          </ns3:TrackPointExtension>
        </extensions>
      </trkpt>
      <trkpt lat="42.6276731304824352264404296875" lon="19.9325075559318065643310546875">
        <ele>924.5999755859375</ele>
        <time>2026-06-16T06:31:26.000Z</time>
        <extensions>
          <ns3:TrackPointExtension>
            <ns3:atemp>18.0</ns3:atemp>
          </ns3:TrackPointExtension>
        </extensions>
      </trkpt>
      <trkpt lat="42.6277314685285091400146484375" lon="19.93253312073647975921630859375">
        <ele>924.5999755859375</ele>
        <time>2026-06-16T06:31:27.000Z</time>
        <extensions>
          <ns3:TrackPointExtension>
            <ns3:atemp>18.0</ns3:atemp>
          </ns3:TrackPointExtension>
        </extensions>
      </trkpt>
      <trkpt lat="42.62779123149812221527099609375" lon="19.93255960755050182342529296875">
        <ele>924.5999755859375</ele>
        <time>2026-06-16T06:31:28.000Z</time>
        <extensions>
          <ns3:TrackPointExtension>
            <ns3:atemp>18.0</ns3:atemp>
          </ns3:TrackPointExtension>
        </extensions>
      </trkpt>
      <trkpt lat="42.62785107828676700592041015625" lon="19.93258617818355560302734375">
        <ele>924.5999755859375</ele>
        <time>2026-06-16T06:31:29.000Z</time>
        <extensions>
          <ns3:TrackPointExtension>
            <ns3:atemp>18.0</ns3:atemp>
          </ns3:TrackPointExtension>
        </extensions>
      </trkpt>
      <trkpt lat="42.627909667789936065673828125" lon="19.93261392228305339813232421875">
        <ele>924.5999755859375</ele>
        <time>2026-06-16T06:31:30.000Z</time>
        <extensions>
          <ns3:TrackPointExtension>
            <ns3:atemp>18.0</ns3:atemp>
          </ns3:TrackPointExtension>
        </extensions>
      </trkpt>
      <trkpt lat="42.62796700000762939453125" lon="19.93263822980225086212158203125">
        <ele>924.5999755859375</ele>
        <time>2026-06-16T06:31:31.000Z</time>
        <extensions>
          <ns3:TrackPointExtension>
            <ns3:atemp>18.0</ns3:atemp>
          </ns3:TrackPointExtension>
        </extensions>
      </trkpt>
      <trkpt lat="42.6280251704156398773193359375" lon="19.93266262114048004150390625">
        <ele>924.5999755859375</ele>
        <time>2026-06-16T06:31:32.000Z</time>
        <extensions>
          <ns3:TrackPointExtension>
            <ns3:atemp>18.0</ns3:atemp>
          </ns3:TrackPointExtension>
        </extensions>
      </trkpt>
      <trkpt lat="42.62808292172849178314208984375" lon="19.93268768303096294403076171875">
        <ele>924.79998779296875</ele>
        <time>2026-06-16T06:31:33.000Z</time>
        <extensions>
          <ns3:TrackPointExtension>
            <ns3:atemp>18.0</ns3:atemp>
          </ns3:TrackPointExtension>
        </extensions>
      </trkpt>
      <trkpt lat="42.6281415112316608428955078125" lon="19.93271131999790668487548828125">
        <ele>924.79998779296875</ele>
        <time>2026-06-16T06:31:34.000Z</time>
        <extensions>
          <ns3:TrackPointExtension>
            <ns3:atemp>18.0</ns3:atemp>
          </ns3:TrackPointExtension>
        </extensions>
      </trkpt>
      <trkpt lat="42.628200016915798187255859375" lon="19.9327357113361358642578125">
        <ele>924.79998779296875</ele>
        <time>2026-06-16T06:31:35.000Z</time>
        <extensions>
          <ns3:TrackPointExtension>
            <ns3:atemp>18.0</ns3:atemp>
          </ns3:TrackPointExtension>
        </extensions>
      </trkpt>
      <trkpt lat="42.6282561756670475006103515625" lon="19.93276052176952362060546875">
        <ele>924.79998779296875</ele>
        <time>2026-06-16T06:31:36.000Z</time>
        <extensions>
          <ns3:TrackPointExtension>
            <ns3:atemp>18.0</ns3:atemp>
          </ns3:TrackPointExtension>
        </extensions>
      </trkpt>
      <trkpt lat="42.628311999142169952392578125" lon="19.9327821470797061920166015625">
        <ele>924.79998779296875</ele>
        <time>2026-06-16T06:31:37.000Z</time>
        <extensions>
          <ns3:TrackPointExtension>
            <ns3:atemp>18.0</ns3:atemp>
          </ns3:TrackPointExtension>
        </extensions>
      </trkpt>
      <trkpt lat="42.628366313874721527099609375" lon="19.932802431285381317138671875">
        <ele>924.79998779296875</ele>
        <time>2026-06-16T06:31:38.000Z</time>
        <extensions>
          <ns3:TrackPointExtension>
            <ns3:atemp>18.0</ns3:atemp>
          </ns3:TrackPointExtension>
        </extensions>
      </trkpt>
      <trkpt lat="42.6284194551408290863037109375" lon="19.9328250624239444732666015625">
        <ele>924.79998779296875</ele>
        <time>2026-06-16T06:31:39.000Z</time>
        <extensions>
          <ns3:TrackPointExtension>
            <ns3:atemp>18.0</ns3:atemp>
          </ns3:TrackPointExtension>
        </extensions>
      </trkpt>
      <trkpt lat="42.62847125530242919921875" lon="19.9328456819057464599609375">
        <ele>924.79998779296875</ele>
        <time>2026-06-16T06:31:40.000Z</time>
        <extensions>
          <ns3:TrackPointExtension>
            <ns3:atemp>18.0</ns3:atemp>
          </ns3:TrackPointExtension>
        </extensions>
      </trkpt>
      <trkpt lat="42.628522217273712158203125" lon="19.932867474853992462158203125">
        <ele>925</ele>
        <time>2026-06-16T06:31:41.000Z</time>
        <extensions>
          <ns3:TrackPointExtension>
            <ns3:atemp>18.0</ns3:atemp>
          </ns3:TrackPointExtension>
        </extensions>
      </trkpt>
      <trkpt lat="42.6285733468830585479736328125" lon="19.93289052508771419525146484375">
        <ele>925</ele>
        <time>2026-06-16T06:31:42.000Z</time>
        <extensions>
          <ns3:TrackPointExtension>
            <ns3:atemp>18.0</ns3:atemp>
          </ns3:TrackPointExtension>
        </extensions>
      </trkpt>
      <trkpt lat="42.62862388975918292999267578125" lon="19.93290896527469158172607421875">
        <ele>925</ele>
        <time>2026-06-16T06:31:43.000Z</time>
        <extensions>
          <ns3:TrackPointExtension>
            <ns3:atemp>18.0</ns3:atemp>
          </ns3:TrackPointExtension>
        </extensions>
      </trkpt>
      <trkpt lat="42.6286776177585124969482421875" lon="19.9329269863665103912353515625">
        <ele>925</ele>
        <time>2026-06-16T06:31:44.000Z</time>
        <extensions>
          <ns3:TrackPointExtension>
            <ns3:atemp>18.0</ns3:atemp>
          </ns3:TrackPointExtension>
        </extensions>
      </trkpt>
      <trkpt lat="42.6287322677671909332275390625" lon="19.932943247258663177490234375">
        <ele>925.20001220703125</ele>
        <time>2026-06-16T06:31:45.000Z</time>
        <extensions>
          <ns3:TrackPointExtension>
            <ns3:atemp>18.0</ns3:atemp>
          </ns3:TrackPointExtension>
        </extensions>
      </trkpt>
      <trkpt lat="42.62878800742328166961669921875" lon="19.932960011065006256103515625">
        <ele>925.20001220703125</ele>
        <time>2026-06-16T06:31:46.000Z</time>
        <extensions>
          <ns3:TrackPointExtension>
            <ns3:atemp>18.0</ns3:atemp>
          </ns3:TrackPointExtension>
        </extensions>
      </trkpt>
      <trkpt lat="42.62884550727903842926025390625" lon="19.9329745955765247344970703125">
        <ele>925.20001220703125</ele>
        <time>2026-06-16T06:31:47.000Z</time>
        <extensions>
          <ns3:TrackPointExtension>
            <ns3:atemp>18.0</ns3:atemp>
          </ns3:TrackPointExtension>
        </extensions>
      </trkpt>
      <trkpt lat="42.62890267185866832733154296875" lon="19.9329863302409648895263671875">
        <ele>925.20001220703125</ele>
        <time>2026-06-16T06:31:48.000Z</time>
        <extensions>
          <ns3:TrackPointExtension>
            <ns3:atemp>18.0</ns3:atemp>
          </ns3:TrackPointExtension>
        </extensions>
      </trkpt>
      <trkpt lat="42.6289585791528224945068359375" lon="19.93299513123929500579833984375">
        <ele>925.4000244140625</ele>
        <time>2026-06-16T06:31:49.000Z</time>
        <extensions>
          <ns3:TrackPointExtension>
            <ns3:atemp>18.0</ns3:atemp>
          </ns3:TrackPointExtension>
        </extensions>
      </trkpt>
      <trkpt lat="42.6290138997137546539306640625" lon="19.93300267495214939117431640625">
        <ele>925.4000244140625</ele>
        <time>2026-06-16T06:31:50.000Z</time>
        <extensions>
          <ns3:TrackPointExtension>
            <ns3:atemp>18.0</ns3:atemp>
          </ns3:TrackPointExtension>
        </extensions>
      </trkpt>
      <trkpt lat="42.62906880117952823638916015625" lon="19.93300770409405231475830078125">
        <ele>925.5999755859375</ele>
        <time>2026-06-16T06:31:51.000Z</time>
        <extensions>
          <ns3:TrackPointExtension>
            <ns3:atemp>18.0</ns3:atemp>
          </ns3:TrackPointExtension>
        </extensions>
      </trkpt>
      <trkpt lat="42.6291242055594921112060546875" lon="19.933005608618259429931640625">
        <ele>925.5999755859375</ele>
        <time>2026-06-16T06:31:52.000Z</time>
        <extensions>
          <ns3:TrackPointExtension>
            <ns3:atemp>18.0</ns3:atemp>
          </ns3:TrackPointExtension>
        </extensions>
      </trkpt>
      <trkpt lat="42.62918095104396343231201171875" lon="19.9330037645995616912841796875">
        <ele>925.79998779296875</ele>
        <time>2026-06-16T06:31:53.000Z</time>
        <extensions>
          <ns3:TrackPointExtension>
            <ns3:atemp>18.0</ns3:atemp>
          </ns3:TrackPointExtension>
        </extensions>
      </trkpt>
      <trkpt lat="42.62923677451908588409423828125" lon="19.9330051057040691375732421875">
        <ele>925.79998779296875</ele>
        <time>2026-06-16T06:31:54.000Z</time>
        <extensions>
          <ns3:TrackPointExtension>
            <ns3:atemp>18.0</ns3:atemp>
          </ns3:TrackPointExtension>
        </extensions>
      </trkpt>
      <trkpt lat="42.62929276563227176666259765625" lon="19.93300326168537139892578125">
        <ele>925.79998779296875</ele>
        <time>2026-06-16T06:31:55.000Z</time>
        <extensions>
          <ns3:TrackPointExtension>
            <ns3:atemp>18.0</ns3:atemp>
          </ns3:TrackPointExtension>
        </extensions>
      </trkpt>
      <trkpt lat="42.62934724800288677215576171875" lon="19.932997226715087890625">
        <ele>925.79998779296875</ele>
        <time>2026-06-16T06:31:56.000Z</time>
        <extensions>
          <ns3:TrackPointExtension>
            <ns3:atemp>18.0</ns3:atemp>
          </ns3:TrackPointExtension>
        </extensions>
      </trkpt>
      <trkpt lat="42.62940206564962863922119140625" lon="19.932990185916423797607421875">
        <ele>925.79998779296875</ele>
        <time>2026-06-16T06:31:57.000Z</time>
        <extensions>
          <ns3:TrackPointExtension>
            <ns3:atemp>18.0</ns3:atemp>
          </ns3:TrackPointExtension>
        </extensions>
      </trkpt>
      <trkpt lat="42.62945822440087795257568359375" lon="19.9329851567745208740234375">
        <ele>925.5999755859375</ele>
        <time>2026-06-16T06:31:58.000Z</time>
        <extensions>
          <ns3:TrackPointExtension>
            <ns3:atemp>18.0</ns3:atemp>
          </ns3:TrackPointExtension>
        </extensions>
      </trkpt>
      <trkpt lat="42.6295144669711589813232421875" lon="19.93298180401325225830078125">
        <ele>925.5999755859375</ele>
        <time>2026-06-16T06:31:59.000Z</time>
        <extensions>
          <ns3:TrackPointExtension>
            <ns3:atemp>18.0</ns3:atemp>
          </ns3:TrackPointExtension>
        </extensions>
      </trkpt>
      <trkpt lat="42.6295684464275836944580078125" lon="19.93297551758587360382080078125">
        <ele>925.79998779296875</ele>
        <time>2026-06-16T06:32:00.000Z</time>
        <extensions>
          <ns3:TrackPointExtension>
            <ns3:atemp>18.0</ns3:atemp>
          </ns3:TrackPointExtension>
        </extensions>
      </trkpt>
      <trkpt lat="42.62962284497916698455810546875" lon="19.93296830914914608001708984375">
        <ele>925.79998779296875</ele>
        <time>2026-06-16T06:32:01.000Z</time>
        <extensions>
          <ns3:TrackPointExtension>
            <ns3:atemp>18.0</ns3:atemp>
          </ns3:TrackPointExtension>
        </extensions>
      </trkpt>
      <trkpt lat="42.629678249359130859375" lon="19.932961352169513702392578125">
        <ele>926</ele>
        <time>2026-06-16T06:32:02.000Z</time>
        <extensions>
          <ns3:TrackPointExtension>
            <ns3:atemp>18.0</ns3:atemp>
          </ns3:TrackPointExtension>
        </extensions>
      </trkpt>
      <trkpt lat="42.62973130680620670318603515625" lon="19.9329534731805324554443359375">
        <ele>926</ele>
        <time>2026-06-16T06:32:03.000Z</time>
        <extensions>
          <ns3:TrackPointExtension>
            <ns3:atemp>18.0</ns3:atemp>
          </ns3:TrackPointExtension>
        </extensions>
      </trkpt>
      <trkpt lat="42.6297820173203945159912109375" lon="19.93294500745832920074462890625">
        <ele>926</ele>
        <time>2026-06-16T06:32:04.000Z</time>
        <extensions>
          <ns3:TrackPointExtension>
            <ns3:atemp>18.0</ns3:atemp>
          </ns3:TrackPointExtension>
        </extensions>
      </trkpt>
      <trkpt lat="42.62983323074877262115478515625" lon="19.93293796665966510772705078125">
        <ele>926</ele>
        <time>2026-06-16T06:32:05.000Z</time>
        <extensions>
          <ns3:TrackPointExtension>
            <ns3:atemp>18.0</ns3:atemp>
          </ns3:TrackPointExtension>
        </extensions>
      </trkpt>
      <trkpt lat="42.62988410890102386474609375" lon="19.93293293751776218414306640625">
        <ele>926</ele>
        <time>2026-06-16T06:32:06.000Z</time>
        <extensions>
          <ns3:TrackPointExtension>
            <ns3:atemp>18.0</ns3:atemp>
          </ns3:TrackPointExtension>
        </extensions>
      </trkpt>
      <trkpt lat="42.6299344003200531005859375" lon="19.93292472325265407562255859375">
        <ele>926</ele>
        <time>2026-06-16T06:32:07.000Z</time>
        <extensions>
          <ns3:TrackPointExtension>
            <ns3:atemp>18.0</ns3:atemp>
          </ns3:TrackPointExtension>
        </extensions>
      </trkpt>
      <trkpt lat="42.62998603284358978271484375" lon="19.93291818536818027496337890625">
        <ele>926</ele>
        <time>2026-06-16T06:32:08.000Z</time>
        <extensions>
          <ns3:TrackPointExtension>
            <ns3:atemp>18.0</ns3:atemp>
          </ns3:TrackPointExtension>
        </extensions>
      </trkpt>
      <trkpt lat="42.630039341747760772705078125" lon="19.93291298858821392059326171875">
        <ele>926</ele>
        <time>2026-06-16T06:32:09.000Z</time>
        <extensions>
          <ns3:TrackPointExtension>
            <ns3:atemp>18.0</ns3:atemp>
          </ns3:TrackPointExtension>
        </extensions>
      </trkpt>
      <trkpt lat="42.63009340502321720123291015625" lon="19.9329078756272792816162109375">
        <ele>926</ele>
        <time>2026-06-16T06:32:10.000Z</time>
        <extensions>
          <ns3:TrackPointExtension>
            <ns3:atemp>18.0</ns3:atemp>
          </ns3:TrackPointExtension>
        </extensions>
      </trkpt>
      <trkpt lat="42.63014671392738819122314453125" lon="19.93290427140891551971435546875">
        <ele>926.20001220703125</ele>
        <time>2026-06-16T06:32:11.000Z</time>
        <extensions>
          <ns3:TrackPointExtension>
            <ns3:atemp>18.0</ns3:atemp>
          </ns3:TrackPointExtension>
        </extensions>
      </trkpt>
      <trkpt lat="42.63019683770835399627685546875" lon="19.93289790116250514984130859375">
        <ele>926.20001220703125</ele>
        <time>2026-06-16T06:32:12.000Z</time>
        <extensions>
          <ns3:TrackPointExtension>
            <ns3:atemp>18.0</ns3:atemp>
          </ns3:TrackPointExtension>
        </extensions>
      </trkpt>
      <trkpt lat="42.63025064952671527862548828125" lon="19.93289002217352390289306640625">
        <ele>926.4000244140625</ele>
        <time>2026-06-16T06:32:13.000Z</time>
        <extensions>
          <ns3:TrackPointExtension>
            <ns3:atemp>18.0</ns3:atemp>
          </ns3:TrackPointExtension>
        </extensions>
      </trkpt>
      <trkpt lat="42.630306221544742584228515625" lon="19.93288457393646240234375">
        <ele>926.4000244140625</ele>
        <time>2026-06-16T06:32:14.000Z</time>
        <extensions>
          <ns3:TrackPointExtension>
            <ns3:atemp>18.0</ns3:atemp>
          </ns3:TrackPointExtension>
        </extensions>
      </trkpt>
      <trkpt lat="42.6303613744676113128662109375" lon="19.93287862278521060943603515625">
        <ele>926.5999755859375</ele>
        <time>2026-06-16T06:32:15.000Z</time>
        <extensions>
          <ns3:TrackPointExtension>
            <ns3:atemp>18.0</ns3:atemp>
          </ns3:TrackPointExtension>
        </extensions>
      </trkpt>
      <trkpt lat="42.63041786849498748779296875" lon="19.93287107907235622406005859375">
        <ele>926.5999755859375</ele>
        <time>2026-06-16T06:32:16.000Z</time>
        <extensions>
          <ns3:TrackPointExtension>
            <ns3:atemp>18.0</ns3:atemp>
          </ns3:TrackPointExtension>
        </extensions>
      </trkpt>
      <trkpt lat="42.630475871264934539794921875" lon="19.93286303244531154632568359375">
        <ele>926.5999755859375</ele>
        <time>2026-06-16T06:32:17.000Z</time>
        <extensions>
          <ns3:TrackPointExtension>
            <ns3:atemp>18.0</ns3:atemp>
          </ns3:TrackPointExtension>
        </extensions>
      </trkpt>
      <trkpt lat="42.6305343769490718841552734375" lon="19.93285817094147205352783203125">
        <ele>926.4000244140625</ele>
        <time>2026-06-16T06:32:18.000Z</time>
        <extensions>
          <ns3:TrackPointExtension>
            <ns3:atemp>18.0</ns3:atemp>
          </ns3:TrackPointExtension>
        </extensions>
      </trkpt>
      <trkpt lat="42.63059112243354320526123046875" lon="19.93285305798053741455078125">
        <ele>926.20001220703125</ele>
        <time>2026-06-16T06:32:19.000Z</time>
        <extensions>
          <ns3:TrackPointExtension>
            <ns3:atemp>18.0</ns3:atemp>
          </ns3:TrackPointExtension>
        </extensions>
      </trkpt>
      <trkpt lat="42.630648203194141387939453125" lon="19.932848028838634490966796875">
        <ele>926</ele>
        <time>2026-06-16T06:32:20.000Z</time>
        <extensions>
          <ns3:TrackPointExtension>
            <ns3:atemp>18.0</ns3:atemp>
          </ns3:TrackPointExtension>
        </extensions>
      </trkpt>
      <trkpt lat="42.63070645742118358612060546875" lon="19.932841993868350982666015625">
        <ele>926</ele>
        <time>2026-06-16T06:32:21.000Z</time>
        <extensions>
          <ns3:TrackPointExtension>
            <ns3:atemp>18.0</ns3:atemp>
          </ns3:TrackPointExtension>
        </extensions>
      </trkpt>
      <trkpt lat="42.63076429255306720733642578125" lon="19.9328357912600040435791015625">
        <ele>926</ele>
        <time>2026-06-16T06:32:22.000Z</time>
        <extensions>
          <ns3:TrackPointExtension>
            <ns3:atemp>18.0</ns3:atemp>
          </ns3:TrackPointExtension>
        </extensions>
      </trkpt>
      <trkpt lat="42.6308203674852848052978515625" lon="19.93282833136618137359619140625">
        <ele>926.20001220703125</ele>
        <time>2026-06-16T06:32:23.000Z</time>
        <extensions>
          <ns3:TrackPointExtension>
            <ns3:atemp>18.0</ns3:atemp>
          </ns3:TrackPointExtension>
        </extensions>
      </trkpt>
      <trkpt lat="42.63087451457977294921875" lon="19.93281961418688297271728515625">
        <ele>926.20001220703125</ele>
        <time>2026-06-16T06:32:24.000Z</time>
        <extensions>
          <ns3:TrackPointExtension>
            <ns3:atemp>18.0</ns3:atemp>
          </ns3:TrackPointExtension>
        </extensions>
      </trkpt>
      <trkpt lat="42.63092924840748310089111328125" lon="19.93281257338821887969970703125">
        <ele>926.20001220703125</ele>
        <time>2026-06-16T06:32:25.000Z</time>
        <extensions>
          <ns3:TrackPointExtension>
            <ns3:atemp>18.0</ns3:atemp>
          </ns3:TrackPointExtension>
        </extensions>
      </trkpt>
      <trkpt lat="42.63098591007292270660400390625" lon="19.93280687369406223297119140625">
        <ele>926.20001220703125</ele>
        <time>2026-06-16T06:32:26.000Z</time>
        <extensions>
          <ns3:TrackPointExtension>
            <ns3:atemp>18.0</ns3:atemp>
          </ns3:TrackPointExtension>
        </extensions>
      </trkpt>
      <trkpt lat="42.6310421526432037353515625" lon="19.9328019283711910247802734375">
        <ele>926.20001220703125</ele>
        <time>2026-06-16T06:32:27.000Z</time>
        <extensions>
          <ns3:TrackPointExtension>
            <ns3:atemp>18.0</ns3:atemp>
          </ns3:TrackPointExtension>
        </extensions>
      </trkpt>
      <trkpt lat="42.6310973055660724639892578125" lon="19.93279731832444667816162109375">
        <ele>926</ele>
        <time>2026-06-16T06:32:28.000Z</time>
        <extensions>
          <ns3:TrackPointExtension>
            <ns3:atemp>18.0</ns3:atemp>
          </ns3:TrackPointExtension>
        </extensions>
      </trkpt>
      <trkpt lat="42.63115589506924152374267578125" lon="19.93278927169740200042724609375">
        <ele>926</ele>
        <time>2026-06-16T06:32:29.000Z</time>
        <extensions>
          <ns3:TrackPointExtension>
            <ns3:atemp>18.0</ns3:atemp>
          </ns3:TrackPointExtension>
        </extensions>
      </trkpt>
      <trkpt lat="42.63121171854436397552490234375" lon="19.93278273381292819976806640625">
        <ele>926</ele>
        <time>2026-06-16T06:32:30.000Z</time>
        <extensions>
          <ns3:TrackPointExtension>
            <ns3:atemp>18.0</ns3:atemp>
          </ns3:TrackPointExtension>
        </extensions>
      </trkpt>
      <trkpt lat="42.6312674582004547119140625" lon="19.93277653120458126068115234375">
        <ele>926.20001220703125</ele>
        <time>2026-06-16T06:32:31.000Z</time>
        <extensions>
          <ns3:TrackPointExtension>
            <ns3:atemp>18.0</ns3:atemp>
          </ns3:TrackPointExtension>
        </extensions>
      </trkpt>
      <trkpt lat="42.63132336549460887908935546875" lon="19.9327700771391391754150390625">
        <ele>926.20001220703125</ele>
        <time>2026-06-16T06:32:32.000Z</time>
        <extensions>
          <ns3:TrackPointExtension>
            <ns3:atemp>18.0</ns3:atemp>
          </ns3:TrackPointExtension>
        </extensions>
      </trkpt>
      <trkpt lat="42.63138053007423877716064453125" lon="19.93276194669306278228759765625">
        <ele>926.20001220703125</ele>
        <time>2026-06-16T06:32:33.000Z</time>
        <extensions>
          <ns3:TrackPointExtension>
            <ns3:atemp>18.0</ns3:atemp>
          </ns3:TrackPointExtension>
        </extensions>
      </trkpt>
      <trkpt lat="42.63143786229193210601806640625" lon="19.93275381624698638916015625">
        <ele>926.20001220703125</ele>
        <time>2026-06-16T06:32:34.000Z</time>
        <extensions>
          <ns3:TrackPointExtension>
            <ns3:atemp>18.0</ns3:atemp>
          </ns3:TrackPointExtension>
        </extensions>
      </trkpt>
      <trkpt lat="42.631497122347354888916015625" lon="19.93274970911443233489990234375">
        <ele>926.20001220703125</ele>
        <time>2026-06-16T06:32:35.000Z</time>
        <extensions>
          <ns3:TrackPointExtension>
            <ns3:atemp>18.0</ns3:atemp>
          </ns3:TrackPointExtension>
        </extensions>
      </trkpt>
      <trkpt lat="42.63155487366020679473876953125" lon="19.93274518288671970367431640625">
        <ele>926</ele>
        <time>2026-06-16T06:32:36.000Z</time>
        <extensions>
          <ns3:TrackPointExtension>
            <ns3:atemp>18.0</ns3:atemp>
          </ns3:TrackPointExtension>
        </extensions>
      </trkpt>
      <trkpt lat="42.6316129602491855621337890625" lon="19.932737052440643310546875">
        <ele>926</ele>
        <time>2026-06-16T06:32:37.000Z</time>
        <extensions>
          <ns3:TrackPointExtension>
            <ns3:atemp>18.0</ns3:atemp>
          </ns3:TrackPointExtension>
        </extensions>
      </trkpt>
      <trkpt lat="42.63167339377105236053466796875" lon="19.9327308498322963714599609375">
        <ele>925.79998779296875</ele>
        <time>2026-06-16T06:32:38.000Z</time>
        <extensions>
          <ns3:TrackPointExtension>
            <ns3:atemp>18.0</ns3:atemp>
          </ns3:TrackPointExtension>
        </extensions>
      </trkpt>
      <trkpt lat="42.631733156740665435791015625" lon="19.9327197857201099395751953125">
        <ele>925.79998779296875</ele>
        <time>2026-06-16T06:32:39.000Z</time>
        <extensions>
          <ns3:TrackPointExtension>
            <ns3:atemp>18.0</ns3:atemp>
          </ns3:TrackPointExtension>
        </extensions>
      </trkpt>
      <trkpt lat="42.631792835891246795654296875" lon="19.93271115235984325408935546875">
        <ele>925.79998779296875</ele>
        <time>2026-06-16T06:32:40.000Z</time>
        <extensions>
          <ns3:TrackPointExtension>
            <ns3:atemp>18.0</ns3:atemp>
          </ns3:TrackPointExtension>
        </extensions>
      </trkpt>
      <trkpt lat="42.6318536885082721710205078125" lon="19.932705871760845184326171875">
        <ele>925.5999755859375</ele>
        <time>2026-06-16T06:32:41.000Z</time>
        <extensions>
          <ns3:TrackPointExtension>
            <ns3:atemp>18.0</ns3:atemp>
          </ns3:TrackPointExtension>
        </extensions>
      </trkpt>
      <trkpt lat="42.63191462494432926177978515625" lon="19.9326986633241176605224609375">
        <ele>925.5999755859375</ele>
        <time>2026-06-16T06:32:42.000Z</time>
        <extensions>
          <ns3:TrackPointExtension>
            <ns3:atemp>18.0</ns3:atemp>
          </ns3:TrackPointExtension>
        </extensions>
      </trkpt>
      <trkpt lat="42.63197648338973522186279296875" lon="19.932689107954502105712890625">
        <ele>925.4000244140625</ele>
        <time>2026-06-16T06:32:43.000Z</time>
        <extensions>
          <ns3:TrackPointExtension>
            <ns3:atemp>18.0</ns3:atemp>
          </ns3:TrackPointExtension>
        </extensions>
      </trkpt>
      <trkpt lat="42.63203850947320461273193359375" lon="19.93268433026969432830810546875">
        <ele>925.4000244140625</ele>
        <time>2026-06-16T06:32:44.000Z</time>
        <extensions>
          <ns3:TrackPointExtension>
            <ns3:atemp>18.0</ns3:atemp>
          </ns3:TrackPointExtension>
        </extensions>
      </trkpt>
      <trkpt lat="42.63210187666118144989013671875" lon="19.9326820671558380126953125">
        <ele>925.20001220703125</ele>
        <time>2026-06-16T06:32:45.000Z</time>
        <extensions>
          <ns3:TrackPointExtension>
            <ns3:atemp>18.0</ns3:atemp>
          </ns3:TrackPointExtension>
        </extensions>
      </trkpt>
      <trkpt lat="42.6321641542017459869384765625" lon="19.9326768703758716583251953125">
        <ele>925.20001220703125</ele>
        <time>2026-06-16T06:32:46.000Z</time>
        <extensions>
          <ns3:TrackPointExtension>
            <ns3:atemp>18.0</ns3:atemp>
          </ns3:TrackPointExtension>
        </extensions>
      </trkpt>
      <trkpt lat="42.63222928158938884735107421875" lon="19.93267091922461986541748046875">
        <ele>925</ele>
        <time>2026-06-16T06:32:47.000Z</time>
        <extensions>
          <ns3:TrackPointExtension>
            <ns3:atemp>18.0</ns3:atemp>
          </ns3:TrackPointExtension>
        </extensions>
      </trkpt>
      <trkpt lat="42.63229281641542911529541015625" lon="19.9326631240546703338623046875">
        <ele>925</ele>
        <time>2026-06-16T06:32:48.000Z</time>
        <extensions>
          <ns3:TrackPointExtension>
            <ns3:atemp>18.0</ns3:atemp>
          </ns3:TrackPointExtension>
        </extensions>
      </trkpt>
      <trkpt lat="42.63235869817435741424560546875" lon="19.9326567538082599639892578125">
        <ele>924.79998779296875</ele>
        <time>2026-06-16T06:32:49.000Z</time>
        <extensions>
          <ns3:TrackPointExtension>
            <ns3:atemp>18.0</ns3:atemp>
          </ns3:TrackPointExtension>
        </extensions>
      </trkpt>
      <trkpt lat="42.63242323882877826690673828125" lon="19.93265013210475444793701171875">
        <ele>924.79998779296875</ele>
        <time>2026-06-16T06:32:50.000Z</time>
        <extensions>
          <ns3:TrackPointExtension>
            <ns3:atemp>18.0</ns3:atemp>
          </ns3:TrackPointExtension>
        </extensions>
      </trkpt>
      <trkpt lat="42.63248928822576999664306640625" lon="19.93264091201126575469970703125">
        <ele>924.79998779296875</ele>
        <time>2026-06-16T06:32:51.000Z</time>
        <extensions>
          <ns3:TrackPointExtension>
            <ns3:atemp>18.0</ns3:atemp>
          </ns3:TrackPointExtension>
        </extensions>
      </trkpt>
      <trkpt lat="42.63255382888019084930419921875" lon="19.93263202719390392303466796875">
        <ele>924.5999755859375</ele>
        <time>2026-06-16T06:32:52.000Z</time>
        <extensions>
          <ns3:TrackPointExtension>
            <ns3:atemp>18.0</ns3:atemp>
          </ns3:TrackPointExtension>
        </extensions>
      </trkpt>
      <trkpt lat="42.632618285715579986572265625" lon="19.93262381292879581451416015625">
        <ele>924.5999755859375</ele>
        <time>2026-06-16T06:32:53.000Z</time>
        <extensions>
          <ns3:TrackPointExtension>
            <ns3:atemp>18.0</ns3:atemp>
          </ns3:TrackPointExtension>
        </extensions>
      </trkpt>
      <trkpt lat="42.6326848380267620086669921875" lon="19.9326168559491634368896484375">
        <ele>924.4000244140625</ele>
        <time>2026-06-16T06:32:54.000Z</time>
        <extensions>
          <ns3:TrackPointExtension>
            <ns3:atemp>18.0</ns3:atemp>
          </ns3:TrackPointExtension>
        </extensions>
      </trkpt>
      <trkpt lat="42.63275013305246829986572265625" lon="19.932611994445323944091796875">
        <ele>924.20001220703125</ele>
        <time>2026-06-16T06:32:55.000Z</time>
        <extensions>
          <ns3:TrackPointExtension>
            <ns3:atemp>18.0</ns3:atemp>
          </ns3:TrackPointExtension>
        </extensions>
      </trkpt>
      <trkpt lat="42.632813751697540283203125" lon="19.93260554037988185882568359375">
        <ele>924</ele>
        <time>2026-06-16T06:32:56.000Z</time>
        <extensions>
          <ns3:TrackPointExtension>
            <ns3:atemp>18.0</ns3:atemp>
          </ns3:TrackPointExtension>
        </extensions>
      </trkpt>
      <trkpt lat="42.63287619687616825103759765625" lon="19.9325977452099323272705078125">
        <ele>923.79998779296875</ele>
        <time>2026-06-16T06:32:57.000Z</time>
        <extensions>
          <ns3:TrackPointExtension>
            <ns3:atemp>18.0</ns3:atemp>
          </ns3:TrackPointExtension>
        </extensions>
      </trkpt>
      <trkpt lat="42.63293704949319362640380859375" lon="19.93258927948772907257080078125">
        <ele>923.5999755859375</ele>
        <time>2026-06-16T06:32:58.000Z</time>
        <extensions>
          <ns3:TrackPointExtension>
            <ns3:atemp>18.0</ns3:atemp>
          </ns3:TrackPointExtension>
        </extensions>
      </trkpt>
      <trkpt lat="42.63300192542374134063720703125" lon="19.932581819593906402587890625">
        <ele>923.5999755859375</ele>
        <time>2026-06-16T06:32:59.000Z</time>
        <extensions>
          <ns3:TrackPointExtension>
            <ns3:atemp>18.0</ns3:atemp>
          </ns3:TrackPointExtension>
        </extensions>
      </trkpt>
      <trkpt lat="42.63306847773492336273193359375" lon="19.9325725995004177093505859375">
        <ele>923.4000244140625</ele>
        <time>2026-06-16T06:33:00.000Z</time>
        <extensions>
          <ns3:TrackPointExtension>
            <ns3:atemp>18.0</ns3:atemp>
          </ns3:TrackPointExtension>
        </extensions>
      </trkpt>
      <trkpt lat="42.6331344433128833770751953125" lon="19.93256312794983386993408203125">
        <ele>923.20001220703125</ele>
        <time>2026-06-16T06:33:01.000Z</time>
        <extensions>
          <ns3:TrackPointExtension>
            <ns3:atemp>18.0</ns3:atemp>
          </ns3:TrackPointExtension>
        </extensions>
      </trkpt>
      <trkpt lat="42.63320007361471652984619140625" lon="19.9325551651418209075927734375">
        <ele>923.20001220703125</ele>
        <time>2026-06-16T06:33:02.000Z</time>
        <extensions>
          <ns3:TrackPointExtension>
            <ns3:atemp>18.0</ns3:atemp>
          </ns3:TrackPointExtension>
        </extensions>
      </trkpt>
      <trkpt lat="42.6332641951739788055419921875" lon="19.9325494654476642608642578125">
        <ele>923</ele>
        <time>2026-06-16T06:33:03.000Z</time>
        <extensions>
          <ns3:TrackPointExtension>
            <ns3:atemp>18.0</ns3:atemp>
          </ns3:TrackPointExtension>
        </extensions>
      </trkpt>
      <trkpt lat="42.6333295740187168121337890625" lon="19.9325430952012538909912109375">
        <ele>923</ele>
        <time>2026-06-16T06:33:04.000Z</time>
        <extensions>
          <ns3:TrackPointExtension>
            <ns3:atemp>18.0</ns3:atemp>
          </ns3:TrackPointExtension>
        </extensions>
      </trkpt>
      <trkpt lat="42.6333944499492645263671875" lon="19.932534880936145782470703125">
        <ele>922.79998779296875</ele>
        <time>2026-06-16T06:33:05.000Z</time>
        <extensions>
          <ns3:TrackPointExtension>
            <ns3:atemp>18.0</ns3:atemp>
          </ns3:TrackPointExtension>
        </extensions>
      </trkpt>
      <trkpt lat="42.63345739804208278656005859375" lon="19.93252716958522796630859375">
        <ele>922.79998779296875</ele>
        <time>2026-06-16T06:33:06.000Z</time>
        <extensions>
          <ns3:TrackPointExtension>
            <ns3:atemp>18.0</ns3:atemp>
          </ns3:TrackPointExtension>
        </extensions>
      </trkpt>
      <trkpt lat="42.633519507944583892822265625" lon="19.932520128786563873291015625">
        <ele>922.5999755859375</ele>
        <time>2026-06-16T06:33:07.000Z</time>
        <extensions>
          <ns3:TrackPointExtension>
            <ns3:atemp>18.0</ns3:atemp>
          </ns3:TrackPointExtension>
        </extensions>
      </trkpt>
      <trkpt lat="42.63358128257095813751220703125" lon="19.93251199834048748016357421875">
        <ele>922.4000244140625</ele>
        <time>2026-06-16T06:33:08.000Z</time>
        <extensions>
          <ns3:TrackPointExtension>
            <ns3:atemp>18.0</ns3:atemp>
          </ns3:TrackPointExtension>
        </extensions>
      </trkpt>
      <trkpt lat="42.63364347629249095916748046875" lon="19.93250395171344280242919921875">
        <ele>922.4000244140625</ele>
        <time>2026-06-16T06:33:09.000Z</time>
        <extensions>
          <ns3:TrackPointExtension>
            <ns3:atemp>18.0</ns3:atemp>
          </ns3:TrackPointExtension>
        </extensions>
      </trkpt>
      <trkpt lat="42.63370701111853122711181640625" lon="19.93249498307704925537109375">
        <ele>922.4000244140625</ele>
        <time>2026-06-16T06:33:10.000Z</time>
        <extensions>
          <ns3:TrackPointExtension>
            <ns3:atemp>18.0</ns3:atemp>
          </ns3:TrackPointExtension>
        </extensions>
      </trkpt>
      <trkpt lat="42.6337699592113494873046875" lon="19.9324891157448291778564453125">
        <ele>922.20001220703125</ele>
        <time>2026-06-16T06:33:11.000Z</time>
        <extensions>
          <ns3:TrackPointExtension>
            <ns3:atemp>18.0</ns3:atemp>
          </ns3:TrackPointExtension>
        </extensions>
      </trkpt>
      <trkpt lat="42.6338311471045017242431640625" lon="19.9324824102222919464111328125">
        <ele>922.20001220703125</ele>
        <time>2026-06-16T06:33:12.000Z</time>
        <extensions>
          <ns3:TrackPointExtension>
            <ns3:atemp>18.0</ns3:atemp>
          </ns3:TrackPointExtension>
        </extensions>
      </trkpt>
      <trkpt lat="42.63389267027378082275390625" lon="19.9324767105281352996826171875">
        <ele>922.20001220703125</ele>
        <time>2026-06-16T06:33:13.000Z</time>
        <extensions>
          <ns3:TrackPointExtension>
            <ns3:atemp>18.0</ns3:atemp>
          </ns3:TrackPointExtension>
        </extensions>
      </trkpt>
      <trkpt lat="42.6339550316333770751953125" lon="19.932471849024295806884765625">
        <ele>922</ele>
        <time>2026-06-16T06:33:14.000Z</time>
        <extensions>
          <ns3:TrackPointExtension>
            <ns3:atemp>18.0</ns3:atemp>
          </ns3:TrackPointExtension>
        </extensions>
      </trkpt>
      <trkpt lat="42.6340185664594173431396484375" lon="19.9324646405875682830810546875">
        <ele>921.79998779296875</ele>
        <time>2026-06-16T06:33:15.000Z</time>
        <extensions>
          <ns3:TrackPointExtension>
            <ns3:atemp>18.0</ns3:atemp>
          </ns3:TrackPointExtension>
        </extensions>
      </trkpt>
      <trkpt lat="42.63408402912318706512451171875" lon="19.932456426322460174560546875">
        <ele>921.79998779296875</ele>
        <time>2026-06-16T06:33:16.000Z</time>
        <extensions>
          <ns3:TrackPointExtension>
            <ns3:atemp>18.0</ns3:atemp>
          </ns3:TrackPointExtension>
        </extensions>
      </trkpt>
      <trkpt lat="42.63414823450148105621337890625" lon="19.9324482120573520660400390625">
        <ele>921.5999755859375</ele>
        <time>2026-06-16T06:33:17.000Z</time>
        <extensions>
          <ns3:TrackPointExtension>
            <ns3:atemp>18.0</ns3:atemp>
          </ns3:TrackPointExtension>
        </extensions>
      </trkpt>
      <trkpt lat="42.6342125236988067626953125" lon="19.9324374832212924957275390625">
        <ele>921.4000244140625</ele>
        <time>2026-06-16T06:33:18.000Z</time>
        <extensions>
          <ns3:TrackPointExtension>
            <ns3:atemp>18.0</ns3:atemp>
          </ns3:TrackPointExtension>
        </extensions>
      </trkpt>
      <trkpt lat="42.634278573095798492431640625" lon="19.93243086151778697967529296875">
        <ele>921.20001220703125</ele>
        <time>2026-06-16T06:33:19.000Z</time>
        <extensions>
          <ns3:TrackPointExtension>
            <ns3:atemp>18.0</ns3:atemp>
          </ns3:TrackPointExtension>
        </extensions>
      </trkpt>
      <trkpt lat="42.63434437103569507598876953125" lon="19.93242398835718631744384765625">
        <ele>921.20001220703125</ele>
        <time>2026-06-16T06:33:20.000Z</time>
        <extensions>
          <ns3:TrackPointExtension>
            <ns3:atemp>18.0</ns3:atemp>
          </ns3:TrackPointExtension>
        </extensions>
      </trkpt>
      <trkpt lat="42.63440974988043308258056640625" lon="19.93241585791110992431640625">
        <ele>921</ele>
        <time>2026-06-16T06:33:21.000Z</time>
        <extensions>
          <ns3:TrackPointExtension>
            <ns3:atemp>18.0</ns3:atemp>
          </ns3:TrackPointExtension>
        </extensions>
      </trkpt>
      <trkpt lat="42.63447579927742481231689453125" lon="19.9324069730937480926513671875">
        <ele>920.79998779296875</ele>
        <time>2026-06-16T06:33:22.000Z</time>
        <extensions>
          <ns3:TrackPointExtension>
            <ns3:atemp>18.0</ns3:atemp>
          </ns3:TrackPointExtension>
        </extensions>
      </trkpt>
      <trkpt lat="42.6345419324934482574462890625" lon="19.93240186013281345367431640625">
        <ele>920.79998779296875</ele>
        <time>2026-06-16T06:33:23.000Z</time>
        <extensions>
          <ns3:TrackPointExtension>
            <ns3:atemp>18.0</ns3:atemp>
          </ns3:TrackPointExtension>
        </extensions>
      </trkpt>
      <trkpt lat="42.6346099935472011566162109375" lon="19.93239574134349822998046875">
        <ele>920.5999755859375</ele>
        <time>2026-06-16T06:33:24.000Z</time>
        <extensions>
          <ns3:TrackPointExtension>
            <ns3:atemp>18.0</ns3:atemp>
          </ns3:TrackPointExtension>
        </extensions>
      </trkpt>
      <trkpt lat="42.63467931188642978668212890625" lon="19.93239230476319789886474609375">
        <ele>920.5999755859375</ele>
        <time>2026-06-16T06:33:25.000Z</time>
        <extensions>
          <ns3:TrackPointExtension>
            <ns3:atemp>18.0</ns3:atemp>
          </ns3:TrackPointExtension>
        </extensions>
      </trkpt>
      <trkpt lat="42.634743936359882354736328125" lon="19.93239079602062702178955078125">
        <ele>920.4000244140625</ele>
        <time>2026-06-16T06:33:26.000Z</time>
        <extensions>
          <ns3:TrackPointExtension>
            <ns3:atemp>18.0</ns3:atemp>
          </ns3:TrackPointExtension>
        </extensions>
      </trkpt>
      <trkpt lat="42.6348106563091278076171875" lon="19.93239314295351505279541015625">
        <ele>920.20001220703125</ele>
        <time>2026-06-16T06:33:27.000Z</time>
        <extensions>
          <ns3:TrackPointExtension>
            <ns3:atemp>18.0</ns3:atemp>
          </ns3:TrackPointExtension>
        </extensions>
      </trkpt>
      <trkpt lat="42.63487746007740497589111328125" lon="19.932396411895751953125">
        <ele>920</ele>
        <time>2026-06-16T06:33:28.000Z</time>
        <extensions>
          <ns3:TrackPointExtension>
            <ns3:atemp>18.0</ns3:atemp>
          </ns3:TrackPointExtension>
        </extensions>
      </trkpt>
      <trkpt lat="42.63494451530277729034423828125" lon="19.9324004352092742919921875">
        <ele>919.79998779296875</ele>
        <time>2026-06-16T06:33:29.000Z</time>
        <extensions>
          <ns3:TrackPointExtension>
            <ns3:atemp>18.0</ns3:atemp>
          </ns3:TrackPointExtension>
        </extensions>
      </trkpt>
      <trkpt lat="42.63501089997589588165283203125" lon="19.932404793798923492431640625">
        <ele>919.5999755859375</ele>
        <time>2026-06-16T06:33:30.000Z</time>
        <extensions>
          <ns3:TrackPointExtension>
            <ns3:atemp>18.0</ns3:atemp>
          </ns3:TrackPointExtension>
        </extensions>
      </trkpt>
      <trkpt lat="42.6350766979157924652099609375" lon="19.9324109964072704315185546875">
        <ele>919.4000244140625</ele>
        <time>2026-06-16T06:33:31.000Z</time>
        <extensions>
          <ns3:TrackPointExtension>
            <ns3:atemp>18.0</ns3:atemp>
          </ns3:TrackPointExtension>
        </extensions>
      </trkpt>
      <trkpt lat="42.6351420767605304718017578125" lon="19.9324153549969196319580078125">
        <ele>919.20001220703125</ele>
        <time>2026-06-16T06:33:32.000Z</time>
        <extensions>
          <ns3:TrackPointExtension>
            <ns3:atemp>18.0</ns3:atemp>
          </ns3:TrackPointExtension>
        </extensions>
      </trkpt>
      <trkpt lat="42.63520787470042705535888671875" lon="19.9324227310717105865478515625">
        <ele>919</ele>
        <time>2026-06-16T06:33:33.000Z</time>
        <extensions>
          <ns3:TrackPointExtension>
            <ns3:atemp>18.0</ns3:atemp>
          </ns3:TrackPointExtension>
        </extensions>
      </trkpt>
      <trkpt lat="42.63527409173548221588134765625" lon="19.932428933680057525634765625">
        <ele>919</ele>
        <time>2026-06-16T06:33:34.000Z</time>
        <extensions>
          <ns3:TrackPointExtension>
            <ns3:atemp>18.0</ns3:atemp>
          </ns3:TrackPointExtension>
        </extensions>
      </trkpt>
      <trkpt lat="42.6353402249515056610107421875" lon="19.93243463337421417236328125">
        <ele>918.79998779296875</ele>
        <time>2026-06-16T06:33:35.000Z</time>
        <extensions>
          <ns3:TrackPointExtension>
            <ns3:atemp>18.0</ns3:atemp>
          </ns3:TrackPointExtension>
        </extensions>
      </trkpt>
      <trkpt lat="42.63540551997721195220947265625" lon="19.9324405007064342498779296875">
        <ele>918.5999755859375</ele>
        <time>2026-06-16T06:33:36.000Z</time>
        <extensions>
          <ns3:TrackPointExtension>
            <ns3:atemp>18.0</ns3:atemp>
          </ns3:TrackPointExtension>
        </extensions>
      </trkpt>
      <trkpt lat="42.635469473898410797119140625" lon="19.9324462004005908966064453125">
        <ele>918.5999755859375</ele>
        <time>2026-06-16T06:33:37.000Z</time>
        <extensions>
          <ns3:TrackPointExtension>
            <ns3:atemp>18.0</ns3:atemp>
          </ns3:TrackPointExtension>
        </extensions>
      </trkpt>
      <trkpt lat="42.63553527183830738067626953125" lon="19.932451732456684112548828125">
        <ele>918.4000244140625</ele>
        <time>2026-06-16T06:33:38.000Z</time>
        <extensions>
          <ns3:TrackPointExtension>
            <ns3:atemp>18.0</ns3:atemp>
          </ns3:TrackPointExtension>
        </extensions>
      </trkpt>
      <trkpt lat="42.63560098595917224884033203125" lon="19.93245818652212619781494140625">
        <ele>918.20001220703125</ele>
        <time>2026-06-16T06:33:39.000Z</time>
        <extensions>
          <ns3:TrackPointExtension>
            <ns3:atemp>18.0</ns3:atemp>
          </ns3:TrackPointExtension>
        </extensions>
      </trkpt>
      <trkpt lat="42.635666616261005401611328125" lon="19.932464472949504852294921875">
        <ele>918</ele>
        <time>2026-06-16T06:33:40.000Z</time>
        <extensions>
          <ns3:TrackPointExtension>
            <ns3:atemp>18.0</ns3:atemp>
          </ns3:TrackPointExtension>
        </extensions>
      </trkpt>
      <trkpt lat="42.635733671486377716064453125" lon="19.93246958591043949127197265625">
        <ele>918</ele>
        <time>2026-06-16T06:33:41.000Z</time>
        <extensions>
          <ns3:TrackPointExtension>
            <ns3:atemp>18.0</ns3:atemp>
          </ns3:TrackPointExtension>
        </extensions>
      </trkpt>
      <trkpt lat="42.63579997234046459197998046875" lon="19.9324753694236278533935546875">
        <ele>917.79998779296875</ele>
        <time>2026-06-16T06:33:42.000Z</time>
        <extensions>
          <ns3:TrackPointExtension>
            <ns3:atemp>18.0</ns3:atemp>
          </ns3:TrackPointExtension>
        </extensions>
      </trkpt>
      <trkpt lat="42.63586384244263172149658203125" lon="19.93247930891811847686767578125">
        <ele>917.79998779296875</ele>
        <time>2026-06-16T06:33:43.000Z</time>
        <extensions>
          <ns3:TrackPointExtension>
            <ns3:atemp>18.0</ns3:atemp>
          </ns3:TrackPointExtension>
        </extensions>
      </trkpt>
      <trkpt lat="42.63592620380222797393798828125" lon="19.93248291313648223876953125">
        <ele>917.79998779296875</ele>
        <time>2026-06-16T06:33:44.000Z</time>
        <extensions>
          <ns3:TrackPointExtension>
            <ns3:atemp>18.0</ns3:atemp>
          </ns3:TrackPointExtension>
        </extensions>
      </trkpt>
      <trkpt lat="42.63598940335214138031005859375" lon="19.93248559534549713134765625">
        <ele>917.5999755859375</ele>
        <time>2026-06-16T06:33:45.000Z</time>
        <extensions>
          <ns3:TrackPointExtension>
            <ns3:atemp>18.0</ns3:atemp>
          </ns3:TrackPointExtension>
        </extensions>
      </trkpt>
      <trkpt lat="42.6360520161688327789306640625" lon="19.9324881099164485931396484375">
        <ele>917.4000244140625</ele>
        <time>2026-06-16T06:33:46.000Z</time>
        <extensions>
          <ns3:TrackPointExtension>
            <ns3:atemp>18.0</ns3:atemp>
          </ns3:TrackPointExtension>
        </extensions>
      </trkpt>
      <trkpt lat="42.63611328788101673126220703125" lon="19.93249020539224147796630859375">
        <ele>917.4000244140625</ele>
        <time>2026-06-16T06:33:47.000Z</time>
        <extensions>
          <ns3:TrackPointExtension>
            <ns3:atemp>18.0</ns3:atemp>
          </ns3:TrackPointExtension>
        </extensions>
      </trkpt>
      <trkpt lat="42.63617816381156444549560546875" lon="19.93249498307704925537109375">
        <ele>917.20001220703125</ele>
        <time>2026-06-16T06:33:48.000Z</time>
        <extensions>
          <ns3:TrackPointExtension>
            <ns3:atemp>18.0</ns3:atemp>
          </ns3:TrackPointExtension>
        </extensions>
      </trkpt>
      <trkpt lat="42.63624094426631927490234375" lon="19.9325011856853961944580078125">
        <ele>917</ele>
        <time>2026-06-16T06:33:49.000Z</time>
        <extensions>
          <ns3:TrackPointExtension>
            <ns3:atemp>18.0</ns3:atemp>
          </ns3:TrackPointExtension>
        </extensions>
      </trkpt>
      <trkpt lat="42.63630506582558155059814453125" lon="19.93250797502696514129638671875">
        <ele>917</ele>
        <time>2026-06-16T06:33:50.000Z</time>
        <extensions>
          <ns3:TrackPointExtension>
            <ns3:atemp>18.0</ns3:atemp>
          </ns3:TrackPointExtension>
        </extensions>
      </trkpt>
      <trkpt lat="42.63637061230838298797607421875" lon="19.93251451291143894195556640625">
        <ele>916.79998779296875</ele>
        <time>2026-06-16T06:33:51.000Z</time>
        <extensions>
          <ns3:TrackPointExtension>
            <ns3:atemp>18.0</ns3:atemp>
          </ns3:TrackPointExtension>
        </extensions>
      </trkpt>
      <trkpt lat="42.6364362426102161407470703125" lon="19.9325196258723735809326171875">
        <ele>916.79998779296875</ele>
        <time>2026-06-16T06:33:52.000Z</time>
        <extensions>
          <ns3:TrackPointExtension>
            <ns3:atemp>18.0</ns3:atemp>
          </ns3:TrackPointExtension>
        </extensions>
      </trkpt>
      <trkpt lat="42.63650086708366870880126953125" lon="19.93252708576619625091552734375">
        <ele>916.5999755859375</ele>
        <time>2026-06-16T06:33:53.000Z</time>
        <extensions>
          <ns3:TrackPointExtension>
            <ns3:atemp>18.0</ns3:atemp>
          </ns3:TrackPointExtension>
        </extensions>
      </trkpt>
      <trkpt lat="42.63656373135745525360107421875" lon="19.932533204555511474609375">
        <ele>916.5999755859375</ele>
        <time>2026-06-16T06:33:54.000Z</time>
        <extensions>
          <ns3:TrackPointExtension>
            <ns3:atemp>18.0</ns3:atemp>
          </ns3:TrackPointExtension>
        </extensions>
      </trkpt>
      <trkpt lat="42.63662575744092464447021484375" lon="19.93253655731678009033203125">
        <ele>916.4000244140625</ele>
        <time>2026-06-16T06:33:55.000Z</time>
        <extensions>
          <ns3:TrackPointExtension>
            <ns3:atemp>18.0</ns3:atemp>
          </ns3:TrackPointExtension>
        </extensions>
      </trkpt>
      <trkpt lat="42.6366880349814891815185546875" lon="19.932538568973541259765625">
        <ele>916.4000244140625</ele>
        <time>2026-06-16T06:33:56.000Z</time>
        <extensions>
          <ns3:TrackPointExtension>
            <ns3:atemp>18.0</ns3:atemp>
          </ns3:TrackPointExtension>
        </extensions>
      </trkpt>
      <trkpt lat="42.6367507316172122955322265625" lon="19.93254066444933414459228515625">
        <ele>916.4000244140625</ele>
        <time>2026-06-16T06:33:57.000Z</time>
        <extensions>
          <ns3:TrackPointExtension>
            <ns3:atemp>18.0</ns3:atemp>
          </ns3:TrackPointExtension>
        </extensions>
      </trkpt>
      <trkpt lat="42.6368151046335697174072265625" lon="19.93254301138222217559814453125">
        <ele>916.20001220703125</ele>
        <time>2026-06-16T06:33:58.000Z</time>
        <extensions>
          <ns3:TrackPointExtension>
            <ns3:atemp>18.0</ns3:atemp>
          </ns3:TrackPointExtension>
        </extensions>
      </trkpt>
      <trkpt lat="42.636878974735736846923828125" lon="19.93254728615283966064453125">
        <ele>916</ele>
        <time>2026-06-16T06:33:59.000Z</time>
        <extensions>
          <ns3:TrackPointExtension>
            <ns3:atemp>18.0</ns3:atemp>
          </ns3:TrackPointExtension>
        </extensions>
      </trkpt>
      <trkpt lat="42.63694209046661853790283203125" lon="19.9325560033321380615234375">
        <ele>915.79998779296875</ele>
        <time>2026-06-16T06:34:00.000Z</time>
        <extensions>
          <ns3:TrackPointExtension>
            <ns3:atemp>18.0</ns3:atemp>
          </ns3:TrackPointExtension>
        </extensions>
      </trkpt>
      <trkpt lat="42.6370025239884853363037109375" lon="19.93256363086402416229248046875">
        <ele>915.5999755859375</ele>
        <time>2026-06-16T06:34:01.000Z</time>
        <extensions>
          <ns3:TrackPointExtension>
            <ns3:atemp>18.0</ns3:atemp>
          </ns3:TrackPointExtension>
        </extensions>
      </trkpt>
      <trkpt lat="42.637064717710018157958984375" lon="19.93256983347237110137939453125">
        <ele>915.4000244140625</ele>
        <time>2026-06-16T06:34:02.000Z</time>
        <extensions>
          <ns3:TrackPointExtension>
            <ns3:atemp>18.0</ns3:atemp>
          </ns3:TrackPointExtension>
        </extensions>
      </trkpt>
      <trkpt lat="42.63712649233639240264892578125" lon="19.932575114071369171142578125">
        <ele>915.4000244140625</ele>
        <time>2026-06-16T06:34:03.000Z</time>
        <extensions>
          <ns3:TrackPointExtension>
            <ns3:atemp>18.0</ns3:atemp>
          </ns3:TrackPointExtension>
        </extensions>
      </trkpt>
      <trkpt lat="42.637188434600830078125" lon="19.93257955648005008697509765625">
        <ele>915.20001220703125</ele>
        <time>2026-06-16T06:34:04.000Z</time>
        <extensions>
          <ns3:TrackPointExtension>
            <ns3:atemp>18.0</ns3:atemp>
          </ns3:TrackPointExtension>
        </extensions>
      </trkpt>
      <trkpt lat="42.63724987395107746124267578125" lon="19.932582490146160125732421875">
        <ele>915.20001220703125</ele>
        <time>2026-06-16T06:34:05.000Z</time>
        <extensions>
          <ns3:TrackPointExtension>
            <ns3:atemp>18.0</ns3:atemp>
          </ns3:TrackPointExtension>
        </extensions>
      </trkpt>
      <trkpt lat="42.6373103074729442596435546875" lon="19.932586848735809326171875">
        <ele>915</ele>
        <time>2026-06-16T06:34:06.000Z</time>
        <extensions>
          <ns3:TrackPointExtension>
            <ns3:atemp>18.0</ns3:atemp>
          </ns3:TrackPointExtension>
        </extensions>
      </trkpt>
      <trkpt lat="42.63737208209931850433349609375" lon="19.93259229697287082672119140625">
        <ele>915</ele>
        <time>2026-06-16T06:34:07.000Z</time>
        <extensions>
          <ns3:TrackPointExtension>
            <ns3:atemp>18.0</ns3:atemp>
          </ns3:TrackPointExtension>
        </extensions>
      </trkpt>
      <trkpt lat="42.6374350301921367645263671875" lon="19.93259564973413944244384765625">
        <ele>914.79998779296875</ele>
        <time>2026-06-16T06:34:08.000Z</time>
        <extensions>
          <ns3:TrackPointExtension>
            <ns3:atemp>18.0</ns3:atemp>
          </ns3:TrackPointExtension>
        </extensions>
      </trkpt>
      <trkpt lat="42.6374977268278598785400390625" lon="19.9325935542583465576171875">
        <ele>914.79998779296875</ele>
        <time>2026-06-16T06:34:09.000Z</time>
        <extensions>
          <ns3:TrackPointExtension>
            <ns3:atemp>18.0</ns3:atemp>
          </ns3:TrackPointExtension>
        </extensions>
      </trkpt>
      <trkpt lat="42.63756084255874156951904296875" lon="19.93259581737220287322998046875">
        <ele>914.5999755859375</ele>
        <time>2026-06-16T06:34:10.000Z</time>
        <extensions>
          <ns3:TrackPointExtension>
            <ns3:atemp>18.0</ns3:atemp>
          </ns3:TrackPointExtension>
        </extensions>
      </trkpt>
      <trkpt lat="42.63762362301349639892578125" lon="19.93259984068572521209716796875">
        <ele>914.5999755859375</ele>
        <time>2026-06-16T06:34:11.000Z</time>
        <extensions>
          <ns3:TrackPointExtension>
            <ns3:atemp>18.0</ns3:atemp>
          </ns3:TrackPointExtension>
        </extensions>
      </trkpt>
      <trkpt lat="42.63768539763987064361572265625" lon="19.93260403163731098175048828125">
        <ele>914.4000244140625</ele>
        <time>2026-06-16T06:34:12.000Z</time>
        <extensions>
          <ns3:TrackPointExtension>
            <ns3:atemp>18.0</ns3:atemp>
          </ns3:TrackPointExtension>
        </extensions>
      </trkpt>
      <trkpt lat="42.6377476751804351806640625" lon="19.93260554037988185882568359375">
        <ele>914.20001220703125</ele>
        <time>2026-06-16T06:34:13.000Z</time>
        <extensions>
          <ns3:TrackPointExtension>
            <ns3:atemp>18.0</ns3:atemp>
          </ns3:TrackPointExtension>
        </extensions>
      </trkpt>
      <trkpt lat="42.63780861161649227142333984375" lon="19.9326021037995815277099609375">
        <ele>914.20001220703125</ele>
        <time>2026-06-16T06:34:14.000Z</time>
        <extensions>
          <ns3:TrackPointExtension>
            <ns3:atemp>18.0</ns3:atemp>
          </ns3:TrackPointExtension>
        </extensions>
      </trkpt>
      <trkpt lat="42.63786963187158107757568359375" lon="19.9325989186763763427734375">
        <ele>914</ele>
        <time>2026-06-16T06:34:15.000Z</time>
        <extensions>
          <ns3:TrackPointExtension>
            <ns3:atemp>18.0</ns3:atemp>
          </ns3:TrackPointExtension>
        </extensions>
      </trkpt>
      <trkpt lat="42.63793283142149448394775390625" lon="19.93259531445801258087158203125">
        <ele>914.20001220703125</ele>
        <time>2026-06-16T06:34:16.000Z</time>
        <extensions>
          <ns3:TrackPointExtension>
            <ns3:atemp>18.0</ns3:atemp>
          </ns3:TrackPointExtension>
        </extensions>
      </trkpt>
      <trkpt lat="42.63799603097140789031982421875" lon="19.93258961476385593414306640625">
        <ele>914.20001220703125</ele>
        <time>2026-06-16T06:34:17.000Z</time>
        <extensions>
          <ns3:TrackPointExtension>
            <ns3:atemp>18.0</ns3:atemp>
          </ns3:TrackPointExtension>
        </extensions>
      </trkpt>
      <trkpt lat="42.6380579732358455657958984375" lon="19.932580478489398956298828125">
        <ele>914.20001220703125</ele>
        <time>2026-06-16T06:34:18.000Z</time>
        <extensions>
          <ns3:TrackPointExtension>
            <ns3:atemp>18.0</ns3:atemp>
          </ns3:TrackPointExtension>
        </extensions>
      </trkpt>
      <trkpt lat="42.63812092132866382598876953125" lon="19.9325692467391490936279296875">
        <ele>914</ele>
        <time>2026-06-16T06:34:19.000Z</time>
        <extensions>
          <ns3:TrackPointExtension>
            <ns3:atemp>18.0</ns3:atemp>
          </ns3:TrackPointExtension>
        </extensions>
      </trkpt>
      <trkpt lat="42.638183534145355224609375" lon="19.9325586855411529541015625">
        <ele>914</ele>
        <time>2026-06-16T06:34:20.000Z</time>
        <extensions>
          <ns3:TrackPointExtension>
            <ns3:atemp>18.0</ns3:atemp>
          </ns3:TrackPointExtension>
        </extensions>
      </trkpt>
      <trkpt lat="42.63824581168591976165771484375" lon="19.93254636414349079132080078125">
        <ele>913.5999755859375</ele>
        <time>2026-06-16T06:34:21.000Z</time>
        <extensions>
          <ns3:TrackPointExtension>
            <ns3:atemp>18.0</ns3:atemp>
          </ns3:TrackPointExtension>
        </extensions>
      </trkpt>
      <trkpt lat="42.63830951415002346038818359375" lon="19.9325345456600189208984375">
        <ele>913.4000244140625</ele>
        <time>2026-06-16T06:34:22.000Z</time>
        <extensions>
          <ns3:TrackPointExtension>
            <ns3:atemp>18.0</ns3:atemp>
          </ns3:TrackPointExtension>
        </extensions>
      </trkpt>
      <trkpt lat="42.63837019912898540496826171875" lon="19.93251903913915157318115234375">
        <ele>913.20001220703125</ele>
        <time>2026-06-16T06:34:23.000Z</time>
        <extensions>
          <ns3:TrackPointExtension>
            <ns3:atemp>18.0</ns3:atemp>
          </ns3:TrackPointExtension>
        </extensions>
      </trkpt>
      <trkpt lat="42.63843222521245479583740234375" lon="19.9325008504092693328857421875">
        <ele>913.20001220703125</ele>
        <time>2026-06-16T06:34:24.000Z</time>
        <extensions>
          <ns3:TrackPointExtension>
            <ns3:atemp>18.0</ns3:atemp>
          </ns3:TrackPointExtension>
        </extensions>
      </trkpt>
      <trkpt lat="42.638492994010448455810546875" lon="19.93248702026903629302978515625">
        <ele>913</ele>
        <time>2026-06-16T06:34:25.000Z</time>
        <extensions>
          <ns3:TrackPointExtension>
            <ns3:atemp>18.0</ns3:atemp>
          </ns3:TrackPointExtension>
        </extensions>
      </trkpt>
      <trkpt lat="42.63855393044650554656982421875" lon="19.93247218430042266845703125">
        <ele>913.20001220703125</ele>
        <time>2026-06-16T06:34:26.000Z</time>
        <extensions>
          <ns3:TrackPointExtension>
            <ns3:atemp>18.0</ns3:atemp>
          </ns3:TrackPointExtension>
        </extensions>
      </trkpt>
      <trkpt lat="42.63861545361578464508056640625" lon="19.93245382793247699737548828125">
        <ele>913</ele>
        <time>2026-06-16T06:34:27.000Z</time>
        <extensions>
          <ns3:TrackPointExtension>
            <ns3:atemp>18.0</ns3:atemp>
          </ns3:TrackPointExtension>
        </extensions>
      </trkpt>
      <trkpt lat="42.63867639005184173583984375" lon="19.93243287317454814910888671875">
        <ele>913</ele>
        <time>2026-06-16T06:34:28.000Z</time>
        <extensions>
          <ns3:TrackPointExtension>
            <ns3:atemp>18.0</ns3:atemp>
          </ns3:TrackPointExtension>
        </extensions>
      </trkpt>
      <trkpt lat="42.6387365721166133880615234375" lon="19.9324109964072704315185546875">
        <ele>912.79998779296875</ele>
        <time>2026-06-16T06:34:29.000Z</time>
        <extensions>
          <ns3:TrackPointExtension>
            <ns3:atemp>18.0</ns3:atemp>
          </ns3:TrackPointExtension>
        </extensions>
      </trkpt>
      <trkpt lat="42.638795413076877593994140625" lon="19.93238979019224643707275390625">
        <ele>912.79998779296875</ele>
        <time>2026-06-16T06:34:30.000Z</time>
        <extensions>
          <ns3:TrackPointExtension>
            <ns3:atemp>18.0</ns3:atemp>
          </ns3:TrackPointExtension>
        </extensions>
      </trkpt>
      <trkpt lat="42.63885702006518840789794921875" lon="19.93237000890076160430908203125">
        <ele>912.5999755859375</ele>
        <time>2026-06-16T06:34:31.000Z</time>
        <extensions>
          <ns3:TrackPointExtension>
            <ns3:atemp>18.0</ns3:atemp>
          </ns3:TrackPointExtension>
        </extensions>
      </trkpt>
      <trkpt lat="42.6389186270534992218017578125" lon="19.93235014379024505615234375">
        <ele>912.4000244140625</ele>
        <time>2026-06-16T06:34:32.000Z</time>
        <extensions>
          <ns3:TrackPointExtension>
            <ns3:atemp>18.0</ns3:atemp>
          </ns3:TrackPointExtension>
        </extensions>
      </trkpt>
      <trkpt lat="42.638978473842144012451171875" lon="19.93232994340360164642333984375">
        <ele>912.4000244140625</ele>
        <time>2026-06-16T06:34:33.000Z</time>
        <extensions>
          <ns3:TrackPointExtension>
            <ns3:atemp>18.0</ns3:atemp>
          </ns3:TrackPointExtension>
        </extensions>
      </trkpt>
      <trkpt lat="42.63903890736401081085205078125" lon="19.93230949155986309051513671875">
        <ele>912.20001220703125</ele>
        <time>2026-06-16T06:34:34.000Z</time>
        <extensions>
          <ns3:TrackPointExtension>
            <ns3:atemp>18.0</ns3:atemp>
          </ns3:TrackPointExtension>
        </extensions>
      </trkpt>
      <trkpt lat="42.63910076580941677093505859375" lon="19.93228535167872905731201171875">
        <ele>912.20001220703125</ele>
        <time>2026-06-16T06:34:35.000Z</time>
        <extensions>
          <ns3:TrackPointExtension>
            <ns3:atemp>18.0</ns3:atemp>
          </ns3:TrackPointExtension>
        </extensions>
      </trkpt>
      <trkpt lat="42.6391620375216007232666015625" lon="19.9322636425495147705078125">
        <ele>912</ele>
        <time>2026-06-16T06:34:36.000Z</time>
        <extensions>
          <ns3:TrackPointExtension>
            <ns3:atemp>18.0</ns3:atemp>
          </ns3:TrackPointExtension>
        </extensions>
      </trkpt>
      <trkpt lat="42.63922330923378467559814453125" lon="19.93223941884934902191162109375">
        <ele>912</ele>
        <time>2026-06-16T06:34:37.000Z</time>
        <extensions>
          <ns3:TrackPointExtension>
            <ns3:atemp>18.0</ns3:atemp>
          </ns3:TrackPointExtension>
        </extensions>
      </trkpt>
      <trkpt lat="42.63928416185081005096435546875" lon="19.93221477605402469635009765625">
        <ele>912</ele>
        <time>2026-06-16T06:34:38.000Z</time>
        <extensions>
          <ns3:TrackPointExtension>
            <ns3:atemp>18.0</ns3:atemp>
          </ns3:TrackPointExtension>
        </extensions>
      </trkpt>
      <trkpt lat="42.63934426009654998779296875" lon="19.93219365365803241729736328125">
        <ele>912</ele>
        <time>2026-06-16T06:34:39.000Z</time>
        <extensions>
          <ns3:TrackPointExtension>
            <ns3:atemp>18.0</ns3:atemp>
          </ns3:TrackPointExtension>
        </extensions>
      </trkpt>
      <trkpt lat="42.6394061185419559478759765625" lon="19.9321695975959300994873046875">
        <ele>912</ele>
        <time>2026-06-16T06:34:40.000Z</time>
        <extensions>
          <ns3:TrackPointExtension>
            <ns3:atemp>18.0</ns3:atemp>
          </ns3:TrackPointExtension>
        </extensions>
      </trkpt>
      <trkpt lat="42.6394669711589813232421875" lon="19.9321424402296543121337890625">
        <ele>912</ele>
        <time>2026-06-16T06:34:41.000Z</time>
        <extensions>
          <ns3:TrackPointExtension>
            <ns3:atemp>18.0</ns3:atemp>
          </ns3:TrackPointExtension>
        </extensions>
      </trkpt>
      <trkpt lat="42.6395274884998798370361328125" lon="19.9321189709007740020751953125">
        <ele>912</ele>
        <time>2026-06-16T06:34:42.000Z</time>
        <extensions>
          <ns3:TrackPointExtension>
            <ns3:atemp>18.0</ns3:atemp>
          </ns3:TrackPointExtension>
        </extensions>
      </trkpt>
      <trkpt lat="42.639589346945285797119140625" lon="19.9321001954376697540283203125">
        <ele>911.79998779296875</ele>
        <time>2026-06-16T06:34:43.000Z</time>
        <extensions>
          <ns3:TrackPointExtension>
            <ns3:atemp>18.0</ns3:atemp>
          </ns3:TrackPointExtension>
        </extensions>
      </trkpt>
      <trkpt lat="42.63965313322842121124267578125" lon="19.93207932449877262115478515625">
        <ele>911.5999755859375</ele>
        <time>2026-06-16T06:34:44.000Z</time>
        <extensions>
          <ns3:TrackPointExtension>
            <ns3:atemp>18.0</ns3:atemp>
          </ns3:TrackPointExtension>
        </extensions>
      </trkpt>
      <trkpt lat="42.63971616514027118682861328125" lon="19.9320569448173046112060546875">
        <ele>911.4000244140625</ele>
        <time>2026-06-16T06:34:45.000Z</time>
        <extensions>
          <ns3:TrackPointExtension>
            <ns3:atemp>18.0</ns3:atemp>
          </ns3:TrackPointExtension>
        </extensions>
      </trkpt>
      <trkpt lat="42.639778442680835723876953125" lon="19.93203540332615375518798828125">
        <ele>911.4000244140625</ele>
        <time>2026-06-16T06:34:46.000Z</time>
        <extensions>
          <ns3:TrackPointExtension>
            <ns3:atemp>18.0</ns3:atemp>
          </ns3:TrackPointExtension>
        </extensions>
      </trkpt>
      <trkpt lat="42.63984055258333683013916015625" lon="19.9320140294730663299560546875">
        <ele>911.20001220703125</ele>
        <time>2026-06-16T06:34:47.000Z</time>
        <extensions>
          <ns3:TrackPointExtension>
            <ns3:atemp>18.0</ns3:atemp>
          </ns3:TrackPointExtension>
        </extensions>
      </trkpt>
      <trkpt lat="42.63990215957164764404296875" lon="19.93199164979159832000732421875">
        <ele>911.20001220703125</ele>
        <time>2026-06-16T06:34:48.000Z</time>
        <extensions>
          <ns3:TrackPointExtension>
            <ns3:atemp>18.0</ns3:atemp>
          </ns3:TrackPointExtension>
        </extensions>
      </trkpt>
      <trkpt lat="42.6399620063602924346923828125" lon="19.93196750991046428680419921875">
        <ele>911.20001220703125</ele>
        <time>2026-06-16T06:34:49.000Z</time>
        <extensions>
          <ns3:TrackPointExtension>
            <ns3:atemp>18.0</ns3:atemp>
          </ns3:TrackPointExtension>
        </extensions>
      </trkpt>
      <trkpt lat="42.64002411626279354095458984375" lon="19.93194353766739368438720703125">
        <ele>911</ele>
        <time>2026-06-16T06:34:50.000Z</time>
        <extensions>
          <ns3:TrackPointExtension>
            <ns3:atemp>18.0</ns3:atemp>
          </ns3:TrackPointExtension>
        </extensions>
      </trkpt>
      <trkpt lat="42.64008630998432636260986328125" lon="19.93191721849143505096435546875">
        <ele>911</ele>
        <time>2026-06-16T06:34:51.000Z</time>
        <extensions>
          <ns3:TrackPointExtension>
            <ns3:atemp>18.0</ns3:atemp>
          </ns3:TrackPointExtension>
        </extensions>
      </trkpt>
      <trkpt lat="42.6401474140584468841552734375" lon="19.931893832981586456298828125">
        <ele>910.79998779296875</ele>
        <time>2026-06-16T06:34:52.000Z</time>
        <extensions>
          <ns3:TrackPointExtension>
            <ns3:atemp>18.0</ns3:atemp>
          </ns3:TrackPointExtension>
        </extensions>
      </trkpt>
      <trkpt lat="42.64021019451320171356201171875" lon="19.9318681843578815460205078125">
        <ele>910.79998779296875</ele>
        <time>2026-06-16T06:34:53.000Z</time>
        <extensions>
          <ns3:TrackPointExtension>
            <ns3:atemp>18.0</ns3:atemp>
          </ns3:TrackPointExtension>
        </extensions>
      </trkpt>
      <trkpt lat="42.6402721367776393890380859375" lon="19.9318406917154788970947265625">
        <ele>910.5999755859375</ele>
        <time>2026-06-16T06:34:54.000Z</time>
        <extensions>
          <ns3:TrackPointExtension>
            <ns3:atemp>18.0</ns3:atemp>
          </ns3:TrackPointExtension>
        </extensions>
      </trkpt>
      <trkpt lat="42.640333659946918487548828125" lon="19.931814707815647125244140625">
        <ele>910.4000244140625</ele>
        <time>2026-06-16T06:34:55.000Z</time>
        <extensions>
          <ns3:TrackPointExtension>
            <ns3:atemp>18.0</ns3:atemp>
          </ns3:TrackPointExtension>
        </extensions>
      </trkpt>
      <trkpt lat="42.6403950154781341552734375" lon="19.9317867122590541839599609375">
        <ele>910.4000244140625</ele>
        <time>2026-06-16T06:34:56.000Z</time>
        <extensions>
          <ns3:TrackPointExtension>
            <ns3:atemp>18.0</ns3:atemp>
          </ns3:TrackPointExtension>
        </extensions>
      </trkpt>
      <trkpt lat="42.64045645482838153839111328125" lon="19.93175662122666835784912109375">
        <ele>910.4000244140625</ele>
        <time>2026-06-16T06:34:57.000Z</time>
        <extensions>
          <ns3:TrackPointExtension>
            <ns3:atemp>18.0</ns3:atemp>
          </ns3:TrackPointExtension>
        </extensions>
      </trkpt>
      <trkpt lat="42.64051730744540691375732421875" lon="19.93172787129878997802734375">
        <ele>910.20001220703125</ele>
        <time>2026-06-16T06:34:58.000Z</time>
        <extensions>
          <ns3:TrackPointExtension>
            <ns3:atemp>18.0</ns3:atemp>
          </ns3:TrackPointExtension>
        </extensions>
      </trkpt>
      <trkpt lat="42.64057715423405170440673828125" lon="19.93170247413218021392822265625">
        <ele>910.20001220703125</ele>
        <time>2026-06-16T06:34:59.000Z</time>
        <extensions>
          <ns3:TrackPointExtension>
            <ns3:atemp>18.0</ns3:atemp>
          </ns3:TrackPointExtension>
        </extensions>
      </trkpt>
      <trkpt lat="42.6406389288604259490966796875" lon="19.93167556822299957275390625">
        <ele>910.20001220703125</ele>
        <time>2026-06-16T06:35:00.000Z</time>
        <extensions>
          <ns3:TrackPointExtension>
            <ns3:atemp>18.0</ns3:atemp>
          </ns3:TrackPointExtension>
        </extensions>
      </trkpt>
      <trkpt lat="42.64070221222937107086181640625" lon="19.93164598010480403900146484375">
        <ele>910.20001220703125</ele>
        <time>2026-06-16T06:35:01.000Z</time>
        <extensions>
          <ns3:TrackPointExtension>
            <ns3:atemp>18.0</ns3:atemp>
          </ns3:TrackPointExtension>
        </extensions>
      </trkpt>
      <trkpt lat="42.640762142837047576904296875" lon="19.93161748163402080535888671875">
        <ele>910.20001220703125</ele>
        <time>2026-06-16T06:35:02.000Z</time>
        <extensions>
          <ns3:TrackPointExtension>
            <ns3:atemp>18.0</ns3:atemp>
          </ns3:TrackPointExtension>
        </extensions>
      </trkpt>
      <trkpt lat="42.6408206485211849212646484375" lon="19.9315882287919521331787109375">
        <ele>910.20001220703125</ele>
        <time>2026-06-16T06:35:03.000Z</time>
        <extensions>
          <ns3:TrackPointExtension>
            <ns3:atemp>18.0</ns3:atemp>
          </ns3:TrackPointExtension>
        </extensions>
      </trkpt>
      <trkpt lat="42.6408806629478931427001953125" lon="19.93155646137893199920654296875">
        <ele>910.20001220703125</ele>
        <time>2026-06-16T06:35:04.000Z</time>
        <extensions>
          <ns3:TrackPointExtension>
            <ns3:atemp>18.0</ns3:atemp>
          </ns3:TrackPointExtension>
        </extensions>
      </trkpt>
      <trkpt lat="42.64094025827944278717041015625" lon="19.93152461014688014984130859375">
        <ele>910.20001220703125</ele>
        <time>2026-06-16T06:35:05.000Z</time>
        <extensions>
          <ns3:TrackPointExtension>
            <ns3:atemp>18.0</ns3:atemp>
          </ns3:TrackPointExtension>
        </extensions>
      </trkpt>
      <trkpt lat="42.6409996859729290008544921875" lon="19.93149627931416034698486328125">
        <ele>910.20001220703125</ele>
        <time>2026-06-16T06:35:06.000Z</time>
        <extensions>
          <ns3:TrackPointExtension>
            <ns3:atemp>18.0</ns3:atemp>
          </ns3:TrackPointExtension>
        </extensions>
      </trkpt>
      <trkpt lat="42.641059197485446929931640625" lon="19.93146778084337711334228515625">
        <ele>910.20001220703125</ele>
        <time>2026-06-16T06:35:07.000Z</time>
        <extensions>
          <ns3:TrackPointExtension>
            <ns3:atemp>18.0</ns3:atemp>
          </ns3:TrackPointExtension>
        </extensions>
      </trkpt>
      <trkpt lat="42.64111828990280628204345703125" lon="19.9314373545348644256591796875">
        <ele>910</ele>
        <time>2026-06-16T06:35:08.000Z</time>
        <extensions>
          <ns3:TrackPointExtension>
            <ns3:atemp>18.0</ns3:atemp>
          </ns3:TrackPointExtension>
        </extensions>
      </trkpt>
      <trkpt lat="42.64117998071014881134033203125" lon="19.9314061738550662994384765625">
        <ele>909.79998779296875</ele>
        <time>2026-06-16T06:35:09.000Z</time>
        <extensions>
          <ns3:TrackPointExtension>
            <ns3:atemp>18.0</ns3:atemp>
          </ns3:TrackPointExtension>
        </extensions>
      </trkpt>
      <trkpt lat="42.64124049805104732513427734375" lon="19.93137591518461704254150390625">
        <ele>909.79998779296875</ele>
        <time>2026-06-16T06:35:10.000Z</time>
        <extensions>
          <ns3:TrackPointExtension>
            <ns3:atemp>18.0</ns3:atemp>
          </ns3:TrackPointExtension>
        </extensions>
      </trkpt>
      <trkpt lat="42.64130017720162868499755859375" lon="19.93134305812418460845947265625">
        <ele>909.5999755859375</ele>
        <time>2026-06-16T06:35:11.000Z</time>
        <extensions>
          <ns3:TrackPointExtension>
            <ns3:atemp>18.0</ns3:atemp>
          </ns3:TrackPointExtension>
        </extensions>
      </trkpt>
      <trkpt lat="42.64136035926640033721923828125" lon="19.931310117244720458984375">
        <ele>909.4000244140625</ele>
        <time>2026-06-16T06:35:12.000Z</time>
        <extensions>
          <ns3:TrackPointExtension>
            <ns3:atemp>18.0</ns3:atemp>
          </ns3:TrackPointExtension>
        </extensions>
      </trkpt>
      <trkpt lat="42.641420625150203704833984375" lon="19.9312774278223514556884765625">
        <ele>909.20001220703125</ele>
        <time>2026-06-16T06:35:13.000Z</time>
        <extensions>
          <ns3:TrackPointExtension>
            <ns3:atemp>18.0</ns3:atemp>
          </ns3:TrackPointExtension>
        </extensions>
      </trkpt>
      <trkpt lat="42.64148022048175334930419921875" lon="19.93124633096158504486083984375">
        <ele>909.20001220703125</ele>
        <time>2026-06-16T06:35:14.000Z</time>
        <extensions>
          <ns3:TrackPointExtension>
            <ns3:atemp>18.0</ns3:atemp>
          </ns3:TrackPointExtension>
        </extensions>
      </trkpt>
      <trkpt lat="42.641539983451366424560546875" lon="19.93121632374823093414306640625">
        <ele>909</ele>
        <time>2026-06-16T06:35:15.000Z</time>
        <extensions>
          <ns3:TrackPointExtension>
            <ns3:atemp>18.0</ns3:atemp>
          </ns3:TrackPointExtension>
        </extensions>
      </trkpt>
      <trkpt lat="42.6415979862213134765625" lon="19.93118145503103733062744140625">
        <ele>908.79998779296875</ele>
        <time>2026-06-16T06:35:16.000Z</time>
        <extensions>
          <ns3:TrackPointExtension>
            <ns3:atemp>18.0</ns3:atemp>
          </ns3:TrackPointExtension>
        </extensions>
      </trkpt>
      <trkpt lat="42.64165556989610195159912109375" lon="19.93114314973354339599609375">
        <ele>908.5999755859375</ele>
        <time>2026-06-16T06:35:17.000Z</time>
        <extensions>
          <ns3:TrackPointExtension>
            <ns3:atemp>18.0</ns3:atemp>
          </ns3:TrackPointExtension>
        </extensions>
      </trkpt>
      <trkpt lat="42.64171407558023929595947265625" lon="19.9311040900647640228271484375">
        <ele>908.5999755859375</ele>
        <time>2026-06-16T06:35:18.000Z</time>
        <extensions>
          <ns3:TrackPointExtension>
            <ns3:atemp>18.0</ns3:atemp>
          </ns3:TrackPointExtension>
        </extensions>
      </trkpt>
      <trkpt lat="42.641771994531154632568359375" lon="19.93106762878596782684326171875">
        <ele>908.4000244140625</ele>
        <time>2026-06-16T06:35:19.000Z</time>
        <extensions>
          <ns3:TrackPointExtension>
            <ns3:atemp>18.0</ns3:atemp>
          </ns3:TrackPointExtension>
        </extensions>
      </trkpt>
      <trkpt lat="42.64182756654918193817138671875" lon="19.9310293234884738922119140625">
        <ele>908.4000244140625</ele>
        <time>2026-06-16T06:35:20.000Z</time>
        <extensions>
          <ns3:TrackPointExtension>
            <ns3:atemp>18.0</ns3:atemp>
          </ns3:TrackPointExtension>
        </extensions>
      </trkpt>
      <trkpt lat="42.64188355766236782073974609375" lon="19.93098733015358448028564453125">
        <ele>908.20001220703125</ele>
        <time>2026-06-16T06:35:21.000Z</time>
        <extensions>
          <ns3:TrackPointExtension>
            <ns3:atemp>18.0</ns3:atemp>
          </ns3:TrackPointExtension>
        </extensions>
      </trkpt>
      <trkpt lat="42.64193854294717311859130859375" lon="19.930942319333553314208984375">
        <ele>908.20001220703125</ele>
        <time>2026-06-16T06:35:22.000Z</time>
        <extensions>
          <ns3:TrackPointExtension>
            <ns3:atemp>18.0</ns3:atemp>
          </ns3:TrackPointExtension>
        </extensions>
      </trkpt>
      <trkpt lat="42.64199160039424896240234375" lon="19.9308957159519195556640625">
        <ele>908</ele>
        <time>2026-06-16T06:35:23.000Z</time>
        <extensions>
          <ns3:TrackPointExtension>
            <ns3:atemp>18.0</ns3:atemp>
          </ns3:TrackPointExtension>
        </extensions>
      </trkpt>
      <trkpt lat="42.64204432256519794464111328125" lon="19.930853135883808135986328125">
        <ele>908</ele>
        <time>2026-06-16T06:35:24.000Z</time>
        <extensions>
          <ns3:TrackPointExtension>
            <ns3:atemp>18.0</ns3:atemp>
          </ns3:TrackPointExtension>
        </extensions>
      </trkpt>
      <trkpt lat="42.6420980505645275115966796875" lon="19.93080778978765010833740234375">
        <ele>908</ele>
        <time>2026-06-16T06:35:25.000Z</time>
        <extensions>
          <ns3:TrackPointExtension>
            <ns3:atemp>18.0</ns3:atemp>
          </ns3:TrackPointExtension>
        </extensions>
      </trkpt>
      <trkpt lat="42.64215110801160335540771484375" lon="19.93075967766344547271728515625">
        <ele>908</ele>
        <time>2026-06-16T06:35:26.000Z</time>
        <extensions>
          <ns3:TrackPointExtension>
            <ns3:atemp>18.0</ns3:atemp>
          </ns3:TrackPointExtension>
        </extensions>
      </trkpt>
      <trkpt lat="42.6422023214399814605712890625" lon="19.93070720694959163665771484375">
        <ele>907.79998779296875</ele>
        <time>2026-06-16T06:35:27.000Z</time>
        <extensions>
          <ns3:TrackPointExtension>
            <ns3:atemp>18.0</ns3:atemp>
          </ns3:TrackPointExtension>
        </extensions>
      </trkpt>
      <trkpt lat="42.64225420542061328887939453125" lon="19.93065339513123035430908203125">
        <ele>907.79998779296875</ele>
        <time>2026-06-16T06:35:28.000Z</time>
        <extensions>
          <ns3:TrackPointExtension>
            <ns3:atemp>18.0</ns3:atemp>
          </ns3:TrackPointExtension>
        </extensions>
      </trkpt>
      <trkpt lat="42.6423039101064205169677734375" lon="19.93059723637998104095458984375">
        <ele>907.79998779296875</ele>
        <time>2026-06-16T06:35:29.000Z</time>
        <extensions>
          <ns3:TrackPointExtension>
            <ns3:atemp>18.0</ns3:atemp>
          </ns3:TrackPointExtension>
        </extensions>
      </trkpt>
      <trkpt lat="42.642350681126117706298828125" lon="19.93053604848682880401611328125">
        <ele>907.5999755859375</ele>
        <time>2026-06-16T06:35:30.000Z</time>
        <extensions>
          <ns3:TrackPointExtension>
            <ns3:atemp>18.0</ns3:atemp>
          </ns3:TrackPointExtension>
        </extensions>
      </trkpt>
      <trkpt lat="42.6423971168696880340576171875" lon="19.93047653697431087493896484375">
        <ele>907.4000244140625</ele>
        <time>2026-06-16T06:35:31.000Z</time>
        <extensions>
          <ns3:TrackPointExtension>
            <ns3:atemp>18.0</ns3:atemp>
          </ns3:TrackPointExtension>
        </extensions>
      </trkpt>
      <trkpt lat="42.6424437202513217926025390625" lon="19.93041853420436382293701171875">
        <ele>907.20001220703125</ele>
        <time>2026-06-16T06:35:32.000Z</time>
        <extensions>
          <ns3:TrackPointExtension>
            <ns3:atemp>18.0</ns3:atemp>
          </ns3:TrackPointExtension>
        </extensions>
      </trkpt>
      <trkpt lat="42.64249107800424098968505859375" lon="19.93035860359668731689453125">
        <ele>907.20001220703125</ele>
        <time>2026-06-16T06:35:33.000Z</time>
        <extensions>
          <ns3:TrackPointExtension>
            <ns3:atemp>18.0</ns3:atemp>
          </ns3:TrackPointExtension>
        </extensions>
      </trkpt>
      <trkpt lat="42.64253684319555759429931640625" lon="19.93029884062707424163818359375">
        <ele>906.79998779296875</ele>
        <time>2026-06-16T06:35:34.000Z</time>
        <extensions>
          <ns3:TrackPointExtension>
            <ns3:atemp>18.0</ns3:atemp>
          </ns3:TrackPointExtension>
        </extensions>
      </trkpt>
      <trkpt lat="42.64258143492043018341064453125" lon="19.9302390776574611663818359375">
        <ele>907</ele>
        <time>2026-06-16T06:35:35.000Z</time>
        <extensions>
          <ns3:TrackPointExtension>
            <ns3:atemp>18.0</ns3:atemp>
          </ns3:TrackPointExtension>
        </extensions>
      </trkpt>
      <trkpt lat="42.64262552373111248016357421875" lon="19.93018090724945068359375">
        <ele>907</ele>
        <time>2026-06-16T06:35:36.000Z</time>
        <extensions>
          <ns3:TrackPointExtension>
            <ns3:atemp>18.0</ns3:atemp>
          </ns3:TrackPointExtension>
        </extensions>
      </trkpt>
      <trkpt lat="42.6426673494279384613037109375" lon="19.93012080900371074676513671875">
        <ele>907</ele>
        <time>2026-06-16T06:35:37.000Z</time>
        <extensions>
          <ns3:TrackPointExtension>
            <ns3:atemp>18.0</ns3:atemp>
          </ns3:TrackPointExtension>
        </extensions>
      </trkpt>
      <trkpt lat="42.6427072472870349884033203125" lon="19.9300593696534633636474609375">
        <ele>907.20001220703125</ele>
        <time>2026-06-16T06:35:38.000Z</time>
        <extensions>
          <ns3:TrackPointExtension>
            <ns3:atemp>18.0</ns3:atemp>
          </ns3:TrackPointExtension>
        </extensions>
      </trkpt>
      <trkpt lat="42.6427481509745121002197265625" lon="19.9299963377416133880615234375">
        <ele>907.20001220703125</ele>
        <time>2026-06-16T06:35:39.000Z</time>
        <extensions>
          <ns3:TrackPointExtension>
            <ns3:atemp>18.0</ns3:atemp>
          </ns3:TrackPointExtension>
        </extensions>
      </trkpt>
      <trkpt lat="42.64278796501457691192626953125" lon="19.9299346469342708587646484375">
        <ele>907.20001220703125</ele>
        <time>2026-06-16T06:35:40.000Z</time>
        <extensions>
          <ns3:TrackPointExtension>
            <ns3:atemp>18.0</ns3:atemp>
          </ns3:TrackPointExtension>
        </extensions>
      </trkpt>
      <trkpt lat="42.64282836578786373138427734375" lon="19.92987580597400665283203125">
        <ele>907.4000244140625</ele>
        <time>2026-06-16T06:35:41.000Z</time>
        <extensions>
          <ns3:TrackPointExtension>
            <ns3:atemp>18.0</ns3:atemp>
          </ns3:TrackPointExtension>
        </extensions>
      </trkpt>
      <trkpt lat="42.64286859892308712005615234375" lon="19.92981419898569583892822265625">
        <ele>907.4000244140625</ele>
        <time>2026-06-16T06:35:42.000Z</time>
        <extensions>
          <ns3:TrackPointExtension>
            <ns3:atemp>18.0</ns3:atemp>
          </ns3:TrackPointExtension>
        </extensions>
      </trkpt>
      <trkpt lat="42.64291151426732540130615234375" lon="19.92975016124546527862548828125">
        <ele>907.4000244140625</ele>
        <time>2026-06-16T06:35:43.000Z</time>
        <extensions>
          <ns3:TrackPointExtension>
            <ns3:atemp>18.0</ns3:atemp>
          </ns3:TrackPointExtension>
        </extensions>
      </trkpt>
      <trkpt lat="42.6429536752402782440185546875" lon="19.9296887218952178955078125">
        <ele>907.4000244140625</ele>
        <time>2026-06-16T06:35:44.000Z</time>
        <extensions>
          <ns3:TrackPointExtension>
            <ns3:atemp>18.0</ns3:atemp>
          </ns3:TrackPointExtension>
        </extensions>
      </trkpt>
      <trkpt lat="42.6429949142038822174072265625" lon="19.9296258576214313507080078125">
        <ele>907.4000244140625</ele>
        <time>2026-06-16T06:35:45.000Z</time>
        <extensions>
          <ns3:TrackPointExtension>
            <ns3:atemp>18.0</ns3:atemp>
          </ns3:TrackPointExtension>
        </extensions>
      </trkpt>
      <trkpt lat="42.643036656081676483154296875" lon="19.92956324480473995208740234375">
        <ele>907.4000244140625</ele>
        <time>2026-06-16T06:35:46.000Z</time>
        <extensions>
          <ns3:TrackPointExtension>
            <ns3:atemp>18.0</ns3:atemp>
          </ns3:TrackPointExtension>
        </extensions>
      </trkpt>
      <trkpt lat="42.64307613484561443328857421875" lon="19.92950205691158771514892578125">
        <ele>907.4000244140625</ele>
        <time>2026-06-16T06:35:47.000Z</time>
        <extensions>
          <ns3:TrackPointExtension>
            <ns3:atemp>18.0</ns3:atemp>
          </ns3:TrackPointExtension>
        </extensions>
      </trkpt>
      <trkpt lat="42.64311544597148895263671875" lon="19.92944137193262577056884765625">
        <ele>907.4000244140625</ele>
        <time>2026-06-16T06:35:48.000Z</time>
        <extensions>
          <ns3:TrackPointExtension>
            <ns3:atemp>18.0</ns3:atemp>
          </ns3:TrackPointExtension>
        </extensions>
      </trkpt>
      <trkpt lat="42.643156014382839202880859375" lon="19.92938018403947353363037109375">
        <ele>907.4000244140625</ele>
        <time>2026-06-16T06:35:49.000Z</time>
        <extensions>
          <ns3:TrackPointExtension>
            <ns3:atemp>18.0</ns3:atemp>
          </ns3:TrackPointExtension>
        </extensions>
      </trkpt>
      <trkpt lat="42.643196247518062591552734375" lon="19.9293210916221141815185546875">
        <ele>907.4000244140625</ele>
        <time>2026-06-16T06:35:50.000Z</time>
        <extensions>
          <ns3:TrackPointExtension>
            <ns3:atemp>18.0</ns3:atemp>
          </ns3:TrackPointExtension>
        </extensions>
      </trkpt>
      <trkpt lat="42.64323539100587368011474609375" lon="19.929260909557342529296875">
        <ele>907.5999755859375</ele>
        <time>2026-06-16T06:35:51.000Z</time>
        <extensions>
          <ns3:TrackPointExtension>
            <ns3:atemp>18.0</ns3:atemp>
          </ns3:TrackPointExtension>
        </extensions>
      </trkpt>
      <trkpt lat="42.6432758755981922149658203125" lon="19.9292000569403171539306640625">
        <ele>907.79998779296875</ele>
        <time>2026-06-16T06:35:52.000Z</time>
        <extensions>
          <ns3:TrackPointExtension>
            <ns3:atemp>18.0</ns3:atemp>
          </ns3:TrackPointExtension>
        </extensions>
      </trkpt>
      <trkpt lat="42.64331568963825702667236328125" lon="19.92913979105651378631591796875">
        <ele>907.79998779296875</ele>
        <time>2026-06-16T06:35:53.000Z</time>
        <extensions>
          <ns3:TrackPointExtension>
            <ns3:atemp>18.0</ns3:atemp>
          </ns3:TrackPointExtension>
        </extensions>
      </trkpt>
      <trkpt lat="42.643355168402194976806640625" lon="19.92907994426786899566650390625">
        <ele>908</ele>
        <time>2026-06-16T06:35:54.000Z</time>
        <extensions>
          <ns3:TrackPointExtension>
            <ns3:atemp>18.0</ns3:atemp>
          </ns3:TrackPointExtension>
        </extensions>
      </trkpt>
      <trkpt lat="42.6433938927948474884033203125" lon="19.9290203489363193511962890625">
        <ele>908.20001220703125</ele>
        <time>2026-06-16T06:35:55.000Z</time>
        <extensions>
          <ns3:TrackPointExtension>
            <ns3:atemp>18.0</ns3:atemp>
          </ns3:TrackPointExtension>
        </extensions>
      </trkpt>
      <trkpt lat="42.643430270254611968994140625" lon="19.92896611802279949188232421875">
        <ele>908.20001220703125</ele>
        <time>2026-06-16T06:35:56.000Z</time>
        <extensions>
          <ns3:TrackPointExtension>
            <ns3:atemp>18.0</ns3:atemp>
          </ns3:TrackPointExtension>
        </extensions>
      </trkpt>
      <trkpt lat="42.643465138971805572509765625" lon="19.92891331203281879425048828125">
        <ele>908.20001220703125</ele>
        <time>2026-06-16T06:35:57.000Z</time>
        <extensions>
          <ns3:TrackPointExtension>
            <ns3:atemp>18.0</ns3:atemp>
          </ns3:TrackPointExtension>
        </extensions>
      </trkpt>
      <trkpt lat="42.64349908567965030670166015625" lon="19.92885983549058437347412109375">
        <ele>908.20001220703125</ele>
        <time>2026-06-16T06:35:58.000Z</time>
        <extensions>
          <ns3:TrackPointExtension>
            <ns3:atemp>18.0</ns3:atemp>
          </ns3:TrackPointExtension>
        </extensions>
      </trkpt>
      <trkpt lat="42.64353328384459018707275390625" lon="19.928806610405445098876953125">
        <ele>908.4000244140625</ele>
        <time>2026-06-16T06:35:59.000Z</time>
        <extensions>
          <ns3:TrackPointExtension>
            <ns3:atemp>18.0</ns3:atemp>
          </ns3:TrackPointExtension>
        </extensions>
      </trkpt>
      <trkpt lat="42.6435680687427520751953125" lon="19.928752295672893524169921875">
        <ele>908.4000244140625</ele>
        <time>2026-06-16T06:36:00.000Z</time>
        <extensions>
          <ns3:TrackPointExtension>
            <ns3:atemp>18.0</ns3:atemp>
          </ns3:TrackPointExtension>
        </extensions>
      </trkpt>
      <trkpt lat="42.643604613840579986572265625" lon="19.928695298731327056884765625">
        <ele>908.4000244140625</ele>
        <time>2026-06-16T06:36:01.000Z</time>
        <extensions>
          <ns3:TrackPointExtension>
            <ns3:atemp>18.0</ns3:atemp>
          </ns3:TrackPointExtension>
        </extensions>
      </trkpt>
      <trkpt lat="42.643643505871295928955078125" lon="19.92863888852298259735107421875">
        <ele>908.4000244140625</ele>
        <time>2026-06-16T06:36:02.000Z</time>
        <extensions>
          <ns3:TrackPointExtension>
            <ns3:atemp>18.0</ns3:atemp>
          </ns3:TrackPointExtension>
        </extensions>
      </trkpt>
      <trkpt lat="42.64368164353072643280029296875" lon="19.9285794608294963836669921875">
        <ele>908.4000244140625</ele>
        <time>2026-06-16T06:36:03.000Z</time>
        <extensions>
          <ns3:TrackPointExtension>
            <ns3:atemp>18.0</ns3:atemp>
          </ns3:TrackPointExtension>
        </extensions>
      </trkpt>
      <trkpt lat="42.64371894299983978271484375" lon="19.92852254770696163177490234375">
        <ele>908.4000244140625</ele>
        <time>2026-06-16T06:36:04.000Z</time>
        <extensions>
          <ns3:TrackPointExtension>
            <ns3:atemp>18.0</ns3:atemp>
          </ns3:TrackPointExtension>
        </extensions>
      </trkpt>
      <trkpt lat="42.643756158649921417236328125" lon="19.9284656345844268798828125">
        <ele>908.4000244140625</ele>
        <time>2026-06-16T06:36:05.000Z</time>
        <extensions>
          <ns3:TrackPointExtension>
            <ns3:atemp>18.0</ns3:atemp>
          </ns3:TrackPointExtension>
        </extensions>
      </trkpt>
      <trkpt lat="42.6437938772141933441162109375" lon="19.9284084700047969818115234375">
        <ele>908.4000244140625</ele>
        <time>2026-06-16T06:36:06.000Z</time>
        <extensions>
          <ns3:TrackPointExtension>
            <ns3:atemp>18.0</ns3:atemp>
          </ns3:TrackPointExtension>
        </extensions>
      </trkpt>
      <trkpt lat="42.64383235014975070953369140625" lon="19.9283528141677379608154296875">
        <ele>908.4000244140625</ele>
        <time>2026-06-16T06:36:07.000Z</time>
        <extensions>
          <ns3:TrackPointExtension>
            <ns3:atemp>18.0</ns3:atemp>
          </ns3:TrackPointExtension>
        </extensions>
      </trkpt>
      <trkpt lat="42.6438706554472446441650390625" lon="19.92829506285488605499267578125">
        <ele>908.4000244140625</ele>
        <time>2026-06-16T06:36:08.000Z</time>
        <extensions>
          <ns3:TrackPointExtension>
            <ns3:atemp>18.0</ns3:atemp>
          </ns3:TrackPointExtension>
        </extensions>
      </trkpt>
      <trkpt lat="42.6439072005450725555419921875" lon="19.9282358027994632720947265625">
        <ele>908.4000244140625</ele>
        <time>2026-06-16T06:36:09.000Z</time>
        <extensions>
          <ns3:TrackPointExtension>
            <ns3:atemp>18.0</ns3:atemp>
          </ns3:TrackPointExtension>
        </extensions>
      </trkpt>
      <trkpt lat="42.64394416473805904388427734375" lon="19.92817989550530910491943359375">
        <ele>908.5999755859375</ele>
        <time>2026-06-16T06:36:10.000Z</time>
        <extensions>
          <ns3:TrackPointExtension>
            <ns3:atemp>18.0</ns3:atemp>
          </ns3:TrackPointExtension>
        </extensions>
      </trkpt>
      <trkpt lat="42.64398188330233097076416015625" lon="19.92812323383986949920654296875">
        <ele>908.5999755859375</ele>
        <time>2026-06-16T06:36:11.000Z</time>
        <extensions>
          <ns3:TrackPointExtension>
            <ns3:atemp>18.0</ns3:atemp>
          </ns3:TrackPointExtension>
        </extensions>
      </trkpt>
      <trkpt lat="42.6440191827714443206787109375" lon="19.9280664883553981781005859375">
        <ele>908.5999755859375</ele>
        <time>2026-06-16T06:36:12.000Z</time>
        <extensions>
          <ns3:TrackPointExtension>
            <ns3:atemp>18.0</ns3:atemp>
          </ns3:TrackPointExtension>
        </extensions>
      </trkpt>
      <trkpt lat="42.64405556023120880126953125" lon="19.9280096590518951416015625">
        <ele>908.79998779296875</ele>
        <time>2026-06-16T06:36:13.000Z</time>
        <extensions>
          <ns3:TrackPointExtension>
            <ns3:atemp>18.0</ns3:atemp>
          </ns3:TrackPointExtension>
        </extensions>
      </trkpt>
      <trkpt lat="42.64409353025257587432861328125" lon="19.9279538355767726898193359375">
        <ele>908.79998779296875</ele>
        <time>2026-06-16T06:36:14.000Z</time>
        <extensions>
          <ns3:TrackPointExtension>
            <ns3:atemp>18.0</ns3:atemp>
          </ns3:TrackPointExtension>
        </extensions>
      </trkpt>
      <trkpt lat="42.644130997359752655029296875" lon="19.92789759300649166107177734375">
        <ele>908.79998779296875</ele>
        <time>2026-06-16T06:36:15.000Z</time>
        <extensions>
          <ns3:TrackPointExtension>
            <ns3:atemp>18.0</ns3:atemp>
          </ns3:TrackPointExtension>
        </extensions>
      </trkpt>
      <trkpt lat="42.64416796155273914337158203125" lon="19.92784042842686176300048828125">
        <ele>908.79998779296875</ele>
        <time>2026-06-16T06:36:16.000Z</time>
        <extensions>
          <ns3:TrackPointExtension>
            <ns3:atemp>18.0</ns3:atemp>
          </ns3:TrackPointExtension>
        </extensions>
      </trkpt>
      <trkpt lat="42.64420668594539165496826171875" lon="19.927782006561756134033203125">
        <ele>908.79998779296875</ele>
        <time>2026-06-16T06:36:17.000Z</time>
        <extensions>
          <ns3:TrackPointExtension>
            <ns3:atemp>18.0</ns3:atemp>
          </ns3:TrackPointExtension>
        </extensions>
      </trkpt>
      <trkpt lat="42.64424390159547328948974609375" lon="19.92772526107728481292724609375">
        <ele>908.79998779296875</ele>
        <time>2026-06-16T06:36:18.000Z</time>
        <extensions>
          <ns3:TrackPointExtension>
            <ns3:atemp>18.0</ns3:atemp>
          </ns3:TrackPointExtension>
        </extensions>
      </trkpt>
      <trkpt lat="42.64428279362618923187255859375" lon="19.92766968905925750732421875">
        <ele>909</ele>
        <time>2026-06-16T06:36:19.000Z</time>
        <extensions>
          <ns3:TrackPointExtension>
            <ns3:atemp>18.0</ns3:atemp>
          </ns3:TrackPointExtension>
        </extensions>
      </trkpt>
      <trkpt lat="42.64432101510465145111083984375" lon="19.9276128597557544708251953125">
        <ele>909.20001220703125</ele>
        <time>2026-06-16T06:36:20.000Z</time>
        <extensions>
          <ns3:TrackPointExtension>
            <ns3:atemp>18.0</ns3:atemp>
          </ns3:TrackPointExtension>
        </extensions>
      </trkpt>
      <trkpt lat="42.64436024241149425506591796875" lon="19.927556030452251434326171875">
        <ele>909.20001220703125</ele>
        <time>2026-06-16T06:36:21.000Z</time>
        <extensions>
          <ns3:TrackPointExtension>
            <ns3:atemp>18.0</ns3:atemp>
          </ns3:TrackPointExtension>
        </extensions>
      </trkpt>
      <trkpt lat="42.64439712278544902801513671875" lon="19.92749526165425777435302734375">
        <ele>909.4000244140625</ele>
        <time>2026-06-16T06:36:22.000Z</time>
        <extensions>
          <ns3:TrackPointExtension>
            <ns3:atemp>18.0</ns3:atemp>
          </ns3:TrackPointExtension>
        </extensions>
      </trkpt>
      <trkpt lat="42.64443635009229183197021484375" lon="19.9274358339607715606689453125">
        <ele>909.4000244140625</ele>
        <time>2026-06-16T06:36:23.000Z</time>
        <extensions>
          <ns3:TrackPointExtension>
            <ns3:atemp>18.0</ns3:atemp>
          </ns3:TrackPointExtension>
        </extensions>
      </trkpt>
      <trkpt lat="42.6444754935801029205322265625" lon="19.92738026194274425506591796875">
        <ele>909.4000244140625</ele>
        <time>2026-06-16T06:36:24.000Z</time>
        <extensions>
          <ns3:TrackPointExtension>
            <ns3:atemp>18.0</ns3:atemp>
          </ns3:TrackPointExtension>
        </extensions>
      </trkpt>
      <trkpt lat="42.64451664872467517852783203125" lon="19.9273268692195415496826171875">
        <ele>909.5999755859375</ele>
        <time>2026-06-16T06:36:25.000Z</time>
        <extensions>
          <ns3:TrackPointExtension>
            <ns3:atemp>18.0</ns3:atemp>
          </ns3:TrackPointExtension>
        </extensions>
      </trkpt>
      <trkpt lat="42.64455939643085002899169921875" lon="19.92727397941052913665771484375">
        <ele>909.5999755859375</ele>
        <time>2026-06-16T06:36:26.000Z</time>
        <extensions>
          <ns3:TrackPointExtension>
            <ns3:atemp>18.0</ns3:atemp>
          </ns3:TrackPointExtension>
        </extensions>
      </trkpt>
      <trkpt lat="42.64460675418376922607421875" lon="19.92722352035343647003173828125">
        <ele>909.5999755859375</ele>
        <time>2026-06-16T06:36:27.000Z</time>
        <extensions>
          <ns3:TrackPointExtension>
            <ns3:atemp>18.0</ns3:atemp>
          </ns3:TrackPointExtension>
        </extensions>
      </trkpt>
      <trkpt lat="42.64465712942183017730712890625" lon="19.92717574350535869598388671875">
        <ele>909.5999755859375</ele>
        <time>2026-06-16T06:36:28.000Z</time>
        <extensions>
          <ns3:TrackPointExtension>
            <ns3:atemp>18.0</ns3:atemp>
          </ns3:TrackPointExtension>
        </extensions>
      </trkpt>
      <trkpt lat="42.64470792375504970550537109375" lon="19.92713190615177154541015625">
        <ele>909.5999755859375</ele>
        <time>2026-06-16T06:36:29.000Z</time>
        <extensions>
          <ns3:TrackPointExtension>
            <ns3:atemp>18.0</ns3:atemp>
          </ns3:TrackPointExtension>
        </extensions>
      </trkpt>
      <trkpt lat="42.64475972391664981842041015625" lon="19.9270923435688018798828125">
        <ele>909.4000244140625</ele>
        <time>2026-06-16T06:36:30.000Z</time>
        <extensions>
          <ns3:TrackPointExtension>
            <ns3:atemp>18.0</ns3:atemp>
          </ns3:TrackPointExtension>
        </extensions>
      </trkpt>
      <trkpt lat="42.64481127262115478515625" lon="19.9270589835941791534423828125">
        <ele>909.4000244140625</ele>
        <time>2026-06-16T06:36:31.000Z</time>
        <extensions>
          <ns3:TrackPointExtension>
            <ns3:atemp>18.0</ns3:atemp>
          </ns3:TrackPointExtension>
        </extensions>
      </trkpt>
      <trkpt lat="42.64486768282949924468994140625" lon="19.927027635276317596435546875">
        <ele>909.20001220703125</ele>
        <time>2026-06-16T06:36:32.000Z</time>
        <extensions>
          <ns3:TrackPointExtension>
            <ns3:atemp>18.0</ns3:atemp>
          </ns3:TrackPointExtension>
        </extensions>
      </trkpt>
      <trkpt lat="42.6449214108288288116455078125" lon="19.9270023219287395477294921875">
        <ele>909.20001220703125</ele>
        <time>2026-06-16T06:36:33.000Z</time>
        <extensions>
          <ns3:TrackPointExtension>
            <ns3:atemp>18.0</ns3:atemp>
          </ns3:TrackPointExtension>
        </extensions>
      </trkpt>
      <trkpt lat="42.64497715048491954803466796875" lon="19.92698145098984241485595703125">
        <ele>909.4000244140625</ele>
        <time>2026-06-16T06:36:34.000Z</time>
        <extensions>
          <ns3:TrackPointExtension>
            <ns3:atemp>18.0</ns3:atemp>
          </ns3:TrackPointExtension>
        </extensions>
      </trkpt>
      <trkpt lat="42.64503129757940769195556640625" lon="19.9269671179354190826416015625">
        <ele>909.4000244140625</ele>
        <time>2026-06-16T06:36:35.000Z</time>
        <extensions>
          <ns3:TrackPointExtension>
            <ns3:atemp>18.0</ns3:atemp>
          </ns3:TrackPointExtension>
        </extensions>
      </trkpt>
      <trkpt lat="42.6450877077877521514892578125" lon="19.926957227289676666259765625">
        <ele>909.4000244140625</ele>
        <time>2026-06-16T06:36:36.000Z</time>
        <extensions>
          <ns3:TrackPointExtension>
            <ns3:atemp>18.0</ns3:atemp>
          </ns3:TrackPointExtension>
        </extensions>
      </trkpt>
      <trkpt lat="42.64514562673866748809814453125" lon="19.9269500188529491424560546875">
        <ele>909.4000244140625</ele>
        <time>2026-06-16T06:36:37.000Z</time>
        <extensions>
          <ns3:TrackPointExtension>
            <ns3:atemp>18.0</ns3:atemp>
          </ns3:TrackPointExtension>
        </extensions>
      </trkpt>
      <trkpt lat="42.6452030427753925323486328125" lon="19.9269443191587924957275390625">
        <ele>909.4000244140625</ele>
        <time>2026-06-16T06:36:38.000Z</time>
        <extensions>
          <ns3:TrackPointExtension>
            <ns3:atemp>18.0</ns3:atemp>
          </ns3:TrackPointExtension>
        </extensions>
      </trkpt>
      <trkpt lat="42.645260207355022430419921875" lon="19.926939792931079864501953125">
        <ele>909.4000244140625</ele>
        <time>2026-06-16T06:36:39.000Z</time>
        <extensions>
          <ns3:TrackPointExtension>
            <ns3:atemp>18.0</ns3:atemp>
          </ns3:TrackPointExtension>
        </extensions>
      </trkpt>
      <trkpt lat="42.6453163661062717437744140625" lon="19.92693467997014522552490234375">
        <ele>909.5999755859375</ele>
        <time>2026-06-16T06:36:40.000Z</time>
        <extensions>
          <ns3:TrackPointExtension>
            <ns3:atemp>18.0</ns3:atemp>
          </ns3:TrackPointExtension>
        </extensions>
      </trkpt>
      <trkpt lat="42.64537244103848934173583984375" lon="19.92692939937114715576171875">
        <ele>909.5999755859375</ele>
        <time>2026-06-16T06:36:41.000Z</time>
        <extensions>
          <ns3:TrackPointExtension>
            <ns3:atemp>18.0</ns3:atemp>
          </ns3:TrackPointExtension>
        </extensions>
      </trkpt>
      <trkpt lat="42.64543019235134124755859375" lon="19.92691992782056331634521484375">
        <ele>909.5999755859375</ele>
        <time>2026-06-16T06:36:42.000Z</time>
        <extensions>
          <ns3:TrackPointExtension>
            <ns3:atemp>18.0</ns3:atemp>
          </ns3:TrackPointExtension>
        </extensions>
      </trkpt>
      <trkpt lat="42.64548962004482746124267578125" lon="19.926910959184169769287109375">
        <ele>909.5999755859375</ele>
        <time>2026-06-16T06:36:43.000Z</time>
        <extensions>
          <ns3:TrackPointExtension>
            <ns3:atemp>18.0</ns3:atemp>
          </ns3:TrackPointExtension>
        </extensions>
      </trkpt>
      <trkpt lat="42.6455470360815525054931640625" lon="19.92690333165228366851806640625">
        <ele>909.79998779296875</ele>
        <time>2026-06-16T06:36:44.000Z</time>
        <extensions>
          <ns3:TrackPointExtension>
            <ns3:atemp>18.0</ns3:atemp>
          </ns3:TrackPointExtension>
        </extensions>
      </trkpt>
      <trkpt lat="42.64560478739440441131591796875" lon="19.926896207034587860107421875">
        <ele>909.79998779296875</ele>
        <time>2026-06-16T06:36:45.000Z</time>
        <extensions>
          <ns3:TrackPointExtension>
            <ns3:atemp>18.0</ns3:atemp>
          </ns3:TrackPointExtension>
        </extensions>
      </trkpt>
      <trkpt lat="42.6456610299646854400634765625" lon="19.9268886633217334747314453125">
        <ele>909.79998779296875</ele>
        <time>2026-06-16T06:36:46.000Z</time>
        <extensions>
          <ns3:TrackPointExtension>
            <ns3:atemp>18.0</ns3:atemp>
          </ns3:TrackPointExtension>
        </extensions>
      </trkpt>
      <trkpt lat="42.64571852982044219970703125" lon="19.92688036523759365081787109375">
        <ele>910</ele>
        <time>2026-06-16T06:36:47.000Z</time>
        <extensions>
          <ns3:TrackPointExtension>
            <ns3:atemp>18.0</ns3:atemp>
          </ns3:TrackPointExtension>
        </extensions>
      </trkpt>
      <trkpt lat="42.64577695168554782867431640625" lon="19.92687282152473926544189453125">
        <ele>910</ele>
        <time>2026-06-16T06:36:48.000Z</time>
        <extensions>
          <ns3:TrackPointExtension>
            <ns3:atemp>18.0</ns3:atemp>
          </ns3:TrackPointExtension>
        </extensions>
      </trkpt>
      <trkpt lat="42.645835541188716888427734375" lon="19.92686041630804538726806640625">
        <ele>910</ele>
        <time>2026-06-16T06:36:49.000Z</time>
        <extensions>
          <ns3:TrackPointExtension>
            <ns3:atemp>18.0</ns3:atemp>
          </ns3:TrackPointExtension>
        </extensions>
      </trkpt>
      <trkpt lat="42.64589555561542510986328125" lon="19.92684331722557544708251953125">
        <ele>910</ele>
        <time>2026-06-16T06:36:50.000Z</time>
        <extensions>
          <ns3:TrackPointExtension>
            <ns3:atemp>18.0</ns3:atemp>
          </ns3:TrackPointExtension>
        </extensions>
      </trkpt>
      <trkpt lat="42.64595280401408672332763671875" lon="19.926825128495693206787109375">
        <ele>910</ele>
        <time>2026-06-16T06:36:51.000Z</time>
        <extensions>
          <ns3:TrackPointExtension>
            <ns3:atemp>18.0</ns3:atemp>
          </ns3:TrackPointExtension>
        </extensions>
      </trkpt>
      <trkpt lat="42.646007873117923736572265625" lon="19.92680090479552745819091796875">
        <ele>910.20001220703125</ele>
        <time>2026-06-16T06:36:52.000Z</time>
        <extensions>
          <ns3:TrackPointExtension>
            <ns3:atemp>18.0</ns3:atemp>
          </ns3:TrackPointExtension>
        </extensions>
      </trkpt>
      <trkpt lat="42.6460625231266021728515625" lon="19.92676871828734874725341796875">
        <ele>910.20001220703125</ele>
        <time>2026-06-16T06:36:53.000Z</time>
        <extensions>
          <ns3:TrackPointExtension>
            <ns3:atemp>18.0</ns3:atemp>
          </ns3:TrackPointExtension>
        </extensions>
      </trkpt>
      <trkpt lat="42.64611625112593173980712890625" lon="19.9267357774078845977783203125">
        <ele>910.20001220703125</ele>
        <time>2026-06-16T06:36:54.000Z</time>
        <extensions>
          <ns3:TrackPointExtension>
            <ns3:atemp>18.0</ns3:atemp>
          </ns3:TrackPointExtension>
        </extensions>
      </trkpt>
      <trkpt lat="42.64616972766816616058349609375" lon="19.9266982264816761016845703125">
        <ele>910.20001220703125</ele>
        <time>2026-06-16T06:36:55.000Z</time>
        <extensions>
          <ns3:TrackPointExtension>
            <ns3:atemp>18.0</ns3:atemp>
          </ns3:TrackPointExtension>
        </extensions>
      </trkpt>
      <trkpt lat="42.64622236602008342742919921875" lon="19.92665908299386501312255859375">
        <ele>910.20001220703125</ele>
        <time>2026-06-16T06:36:56.000Z</time>
        <extensions>
          <ns3:TrackPointExtension>
            <ns3:atemp>18.0</ns3:atemp>
          </ns3:TrackPointExtension>
        </extensions>
      </trkpt>
      <trkpt lat="42.646275423467159271240234375" lon="19.9266174249351024627685546875">
        <ele>910.20001220703125</ele>
        <time>2026-06-16T06:36:57.000Z</time>
        <extensions>
          <ns3:TrackPointExtension>
            <ns3:atemp>18.0</ns3:atemp>
          </ns3:TrackPointExtension>
        </extensions>
      </trkpt>
      <trkpt lat="42.64632739126682281494140625" lon="19.92657727561891078948974609375">
        <ele>910.20001220703125</ele>
        <time>2026-06-16T06:36:58.000Z</time>
        <extensions>
          <ns3:TrackPointExtension>
            <ns3:atemp>18.0</ns3:atemp>
          </ns3:TrackPointExtension>
        </extensions>
      </trkpt>
      <trkpt lat="42.64637835323810577392578125" lon="19.926535449922084808349609375">
        <ele>910.20001220703125</ele>
        <time>2026-06-16T06:36:59.000Z</time>
        <extensions>
          <ns3:TrackPointExtension>
            <ns3:atemp>18.0</ns3:atemp>
          </ns3:TrackPointExtension>
        </extensions>
      </trkpt>
      <trkpt lat="42.646428979933261871337890625" lon="19.92648943327367305755615234375">
        <ele>910.20001220703125</ele>
        <time>2026-06-16T06:37:00.000Z</time>
        <extensions>
          <ns3:TrackPointExtension>
            <ns3:atemp>18.0</ns3:atemp>
          </ns3:TrackPointExtension>
        </extensions>
      </trkpt>
      <trkpt lat="42.64648002572357654571533203125" lon="19.92644266225397586822509765625">
        <ele>910.20001220703125</ele>
        <time>2026-06-16T06:37:01.000Z</time>
        <extensions>
          <ns3:TrackPointExtension>
            <ns3:atemp>18.0</ns3:atemp>
          </ns3:TrackPointExtension>
        </extensions>
      </trkpt>
      <trkpt lat="42.64653182588517665863037109375" lon="19.92639429867267608642578125">
        <ele>910.20001220703125</ele>
        <time>2026-06-16T06:37:02.000Z</time>
        <extensions>
          <ns3:TrackPointExtension>
            <ns3:atemp>18.0</ns3:atemp>
          </ns3:TrackPointExtension>
        </extensions>
      </trkpt>
      <trkpt lat="42.64658446423709392547607421875" lon="19.92634777911007404327392578125">
        <ele>910.20001220703125</ele>
        <time>2026-06-16T06:37:03.000Z</time>
        <extensions>
          <ns3:TrackPointExtension>
            <ns3:atemp>18.0</ns3:atemp>
          </ns3:TrackPointExtension>
        </extensions>
      </trkpt>
      <trkpt lat="42.64663609676063060760498046875" lon="19.9262992478907108306884765625">
        <ele>910.20001220703125</ele>
        <time>2026-06-16T06:37:04.000Z</time>
        <extensions>
          <ns3:TrackPointExtension>
            <ns3:atemp>18.0</ns3:atemp>
          </ns3:TrackPointExtension>
        </extensions>
      </trkpt>
      <trkpt lat="42.64668672345578670501708984375" lon="19.9262513034045696258544921875">
        <ele>910.20001220703125</ele>
        <time>2026-06-16T06:37:05.000Z</time>
        <extensions>
          <ns3:TrackPointExtension>
            <ns3:atemp>18.0</ns3:atemp>
          </ns3:TrackPointExtension>
        </extensions>
      </trkpt>
      <trkpt lat="42.64673835597932338714599609375" lon="19.92620411328971385955810546875">
        <ele>910</ele>
        <time>2026-06-16T06:37:06.000Z</time>
        <extensions>
          <ns3:TrackPointExtension>
            <ns3:atemp>18.0</ns3:atemp>
          </ns3:TrackPointExtension>
        </extensions>
      </trkpt>
      <trkpt lat="42.64679149724543094635009765625" lon="19.92615750990808010101318359375">
        <ele>910</ele>
        <time>2026-06-16T06:37:07.000Z</time>
        <extensions>
          <ns3:TrackPointExtension>
            <ns3:atemp>18.0</ns3:atemp>
          </ns3:TrackPointExtension>
        </extensions>
      </trkpt>
      <trkpt lat="42.6468442194163799285888671875" lon="19.92610755376517772674560546875">
        <ele>910</ele>
        <time>2026-06-16T06:37:08.000Z</time>
        <extensions>
          <ns3:TrackPointExtension>
            <ns3:atemp>18.0</ns3:atemp>
          </ns3:TrackPointExtension>
        </extensions>
      </trkpt>
      <trkpt lat="42.64689979143440723419189453125" lon="19.926058016717433929443359375">
        <ele>909.79998779296875</ele>
        <time>2026-06-16T06:37:09.000Z</time>
        <extensions>
          <ns3:TrackPointExtension>
            <ns3:atemp>18.0</ns3:atemp>
          </ns3:TrackPointExtension>
        </extensions>
      </trkpt>
      <trkpt lat="42.64695494435727596282958984375" lon="19.92600613273680210113525390625">
        <ele>909.79998779296875</ele>
        <time>2026-06-16T06:37:10.000Z</time>
        <extensions>
          <ns3:TrackPointExtension>
            <ns3:atemp>18.0</ns3:atemp>
          </ns3:TrackPointExtension>
        </extensions>
      </trkpt>
      <trkpt lat="42.64701068401336669921875" lon="19.9259529076516628265380859375">
        <ele>909.5999755859375</ele>
        <time>2026-06-16T06:37:11.000Z</time>
        <extensions>
          <ns3:TrackPointExtension>
            <ns3:atemp>18.0</ns3:atemp>
          </ns3:TrackPointExtension>
        </extensions>
      </trkpt>
      <trkpt lat="42.64706457965075969696044921875" lon="19.9258995987474918365478515625">
        <ele>909.5999755859375</ele>
        <time>2026-06-16T06:37:12.000Z</time>
        <extensions>
          <ns3:TrackPointExtension>
            <ns3:atemp>18.0</ns3:atemp>
          </ns3:TrackPointExtension>
        </extensions>
      </trkpt>
      <trkpt lat="42.64711956493556499481201171875" lon="19.92584721185266971588134765625">
        <ele>909.4000244140625</ele>
        <time>2026-06-16T06:37:13.000Z</time>
        <extensions>
          <ns3:TrackPointExtension>
            <ns3:atemp>18.0</ns3:atemp>
          </ns3:TrackPointExtension>
        </extensions>
      </trkpt>
      <trkpt lat="42.64717656187713146209716796875" lon="19.92579809390008449554443359375">
        <ele>909.20001220703125</ele>
        <time>2026-06-16T06:37:14.000Z</time>
        <extensions>
          <ns3:TrackPointExtension>
            <ns3:atemp>18.0</ns3:atemp>
          </ns3:TrackPointExtension>
        </extensions>
      </trkpt>
      <trkpt lat="42.6472351513803005218505859375" lon="19.92574897594749927520751953125">
        <ele>909.20001220703125</ele>
        <time>2026-06-16T06:37:15.000Z</time>
        <extensions>
          <ns3:TrackPointExtension>
            <ns3:atemp>18.0</ns3:atemp>
          </ns3:TrackPointExtension>
        </extensions>
      </trkpt>
      <trkpt lat="42.64729223214089870452880859375" lon="19.92569784633815288543701171875">
        <ele>909.20001220703125</ele>
        <time>2026-06-16T06:37:16.000Z</time>
        <extensions>
          <ns3:TrackPointExtension>
            <ns3:atemp>18.0</ns3:atemp>
          </ns3:TrackPointExtension>
        </extensions>
      </trkpt>
      <trkpt lat="42.64735124073922634124755859375" lon="19.9256464652717113494873046875">
        <ele>909.20001220703125</ele>
        <time>2026-06-16T06:37:17.000Z</time>
        <extensions>
          <ns3:TrackPointExtension>
            <ns3:atemp>18.0</ns3:atemp>
          </ns3:TrackPointExtension>
        </extensions>
      </trkpt>
      <trkpt lat="42.64740739949047565460205078125" lon="19.92559139616787433624267578125">
        <ele>909</ele>
        <time>2026-06-16T06:37:18.000Z</time>
        <extensions>
          <ns3:TrackPointExtension>
            <ns3:atemp>18.0</ns3:atemp>
          </ns3:TrackPointExtension>
        </extensions>
      </trkpt>
      <trkpt lat="42.64746330678462982177734375" lon="19.92553238756954669952392578125">
        <ele>909</ele>
        <time>2026-06-16T06:37:19.000Z</time>
        <extensions>
          <ns3:TrackPointExtension>
            <ns3:atemp>18.0</ns3:atemp>
          </ns3:TrackPointExtension>
        </extensions>
      </trkpt>
      <trkpt lat="42.64752206392586231231689453125" lon="19.9254776537418365478515625">
        <ele>908.79998779296875</ele>
        <time>2026-06-16T06:37:20.000Z</time>
        <extensions>
          <ns3:TrackPointExtension>
            <ns3:atemp>18.0</ns3:atemp>
          </ns3:TrackPointExtension>
        </extensions>
      </trkpt>
      <trkpt lat="42.64757855795323848724365234375" lon="19.92542342282831668853759765625">
        <ele>908.5999755859375</ele>
        <time>2026-06-16T06:37:21.000Z</time>
        <extensions>
          <ns3:TrackPointExtension>
            <ns3:atemp>18.0</ns3:atemp>
          </ns3:TrackPointExtension>
        </extensions>
      </trkpt>
      <trkpt lat="42.647634632885456085205078125" lon="19.92537179030478000640869140625">
        <ele>908.4000244140625</ele>
        <time>2026-06-16T06:37:22.000Z</time>
        <extensions>
          <ns3:TrackPointExtension>
            <ns3:atemp>18.0</ns3:atemp>
          </ns3:TrackPointExtension>
        </extensions>
      </trkpt>
      <trkpt lat="42.647690288722515106201171875" lon="19.92531596682965755462646484375">
        <ele>908</ele>
        <time>2026-06-16T06:37:23.000Z</time>
        <extensions>
          <ns3:TrackPointExtension>
            <ns3:atemp>18.0</ns3:atemp>
          </ns3:TrackPointExtension>
        </extensions>
      </trkpt>
      <trkpt lat="42.64774787239730358123779296875" lon="19.92527036927640438079833984375">
        <ele>908</ele>
        <time>2026-06-16T06:37:24.000Z</time>
        <extensions>
          <ns3:TrackPointExtension>
            <ns3:atemp>18.0</ns3:atemp>
          </ns3:TrackPointExtension>
        </extensions>
      </trkpt>
      <trkpt lat="42.6478094793856143951416015625" lon="19.9252163060009479522705078125">
        <ele>907.5999755859375</ele>
        <time>2026-06-16T06:37:25.000Z</time>
        <extensions>
          <ns3:TrackPointExtension>
            <ns3:atemp>18.0</ns3:atemp>
          </ns3:TrackPointExtension>
        </extensions>
      </trkpt>
      <trkpt lat="42.64786806888878345489501953125" lon="19.92516123689711093902587890625">
        <ele>907.4000244140625</ele>
        <time>2026-06-16T06:37:26.000Z</time>
        <extensions>
          <ns3:TrackPointExtension>
            <ns3:atemp>18.0</ns3:atemp>
          </ns3:TrackPointExtension>
        </extensions>
      </trkpt>
      <trkpt lat="42.6479281671345233917236328125" lon="19.92510558106005191802978515625">
        <ele>907</ele>
        <time>2026-06-16T06:37:27.000Z</time>
        <extensions>
          <ns3:TrackPointExtension>
            <ns3:atemp>18.0</ns3:atemp>
          </ns3:TrackPointExtension>
        </extensions>
      </trkpt>
      <trkpt lat="42.64798893593251705169677734375" lon="19.92505210451781749725341796875">
        <ele>906.79998779296875</ele>
        <time>2026-06-16T06:37:28.000Z</time>
        <extensions>
          <ns3:TrackPointExtension>
            <ns3:atemp>18.0</ns3:atemp>
          </ns3:TrackPointExtension>
        </extensions>
      </trkpt>
      <trkpt lat="42.6480522193014621734619140625" lon="19.9249956943094730377197265625">
        <ele>906.4000244140625</ele>
        <time>2026-06-16T06:37:29.000Z</time>
        <extensions>
          <ns3:TrackPointExtension>
            <ns3:atemp>18.0</ns3:atemp>
          </ns3:TrackPointExtension>
        </extensions>
      </trkpt>
      <trkpt lat="42.6481170952320098876953125" lon="19.92493526078760623931884765625">
        <ele>906</ele>
        <time>2026-06-16T06:37:30.000Z</time>
        <extensions>
          <ns3:TrackPointExtension>
            <ns3:atemp>18.0</ns3:atemp>
          </ns3:TrackPointExtension>
        </extensions>
      </trkpt>
      <trkpt lat="42.64818306080996990203857421875" lon="19.9248763360083103179931640625">
        <ele>905.5999755859375</ele>
        <time>2026-06-16T06:37:31.000Z</time>
        <extensions>
          <ns3:TrackPointExtension>
            <ns3:atemp>18.0</ns3:atemp>
          </ns3:TrackPointExtension>
        </extensions>
      </trkpt>
      <trkpt lat="42.64824860729277133941650390625" lon="19.92481422610580921173095703125">
        <ele>905.20001220703125</ele>
        <time>2026-06-16T06:37:32.000Z</time>
        <extensions>
          <ns3:TrackPointExtension>
            <ns3:atemp>18.0</ns3:atemp>
          </ns3:TrackPointExtension>
        </extensions>
      </trkpt>
      <trkpt lat="42.6483142375946044921875" lon="19.924751780927181243896484375">
        <ele>905</ele>
        <time>2026-06-16T06:37:33.000Z</time>
        <extensions>
          <ns3:TrackPointExtension>
            <ns3:atemp>18.0</ns3:atemp>
          </ns3:TrackPointExtension>
        </extensions>
      </trkpt>
      <trkpt lat="42.6483834721148014068603515625" lon="19.9246902577579021453857421875">
        <ele>904.5999755859375</ele>
        <time>2026-06-16T06:37:34.000Z</time>
        <extensions>
          <ns3:TrackPointExtension>
            <ns3:atemp>18.0</ns3:atemp>
          </ns3:TrackPointExtension>
        </extensions>
      </trkpt>
      <trkpt lat="42.648450024425983428955078125" lon="19.92463015951216220855712890625">
        <ele>904.20001220703125</ele>
        <time>2026-06-16T06:37:35.000Z</time>
        <extensions>
          <ns3:TrackPointExtension>
            <ns3:atemp>18.0</ns3:atemp>
          </ns3:TrackPointExtension>
        </extensions>
      </trkpt>
      <trkpt lat="42.64851515181362628936767578125" lon="19.92457031272351741790771484375">
        <ele>904</ele>
        <time>2026-06-16T06:37:36.000Z</time>
        <extensions>
          <ns3:TrackPointExtension>
            <ns3:atemp>18.0</ns3:atemp>
          </ns3:TrackPointExtension>
        </extensions>
      </trkpt>
      <trkpt lat="42.64858053065836429595947265625" lon="19.92451281286776065826416015625">
        <ele>903.5999755859375</ele>
        <time>2026-06-16T06:37:37.000Z</time>
        <extensions>
          <ns3:TrackPointExtension>
            <ns3:atemp>18.0</ns3:atemp>
          </ns3:TrackPointExtension>
        </extensions>
      </trkpt>
      <trkpt lat="42.6486456580460071563720703125" lon="19.92445170879364013671875">
        <ele>903.20001220703125</ele>
        <time>2026-06-16T06:37:38.000Z</time>
        <extensions>
          <ns3:TrackPointExtension>
            <ns3:atemp>18.0</ns3:atemp>
          </ns3:TrackPointExtension>
        </extensions>
      </trkpt>
      <trkpt lat="42.64871053397655487060546875" lon="19.9243915267288684844970703125">
        <ele>903</ele>
        <time>2026-06-16T06:37:39.000Z</time>
        <extensions>
          <ns3:TrackPointExtension>
            <ns3:atemp>18.0</ns3:atemp>
          </ns3:TrackPointExtension>
        </extensions>
      </trkpt>
      <trkpt lat="42.64877197332680225372314453125" lon="19.9243338592350482940673828125">
        <ele>902.79998779296875</ele>
        <time>2026-06-16T06:37:40.000Z</time>
        <extensions>
          <ns3:TrackPointExtension>
            <ns3:atemp>18.0</ns3:atemp>
          </ns3:TrackPointExtension>
        </extensions>
      </trkpt>
      <trkpt lat="42.64883081428706645965576171875" lon="19.9242760241031646728515625">
        <ele>902.79998779296875</ele>
        <time>2026-06-16T06:37:41.000Z</time>
        <extensions>
          <ns3:TrackPointExtension>
            <ns3:atemp>18.0</ns3:atemp>
          </ns3:TrackPointExtension>
        </extensions>
      </trkpt>
      <trkpt lat="42.64888781122863292694091796875" lon="19.92421844042837619781494140625">
        <ele>902.5999755859375</ele>
        <time>2026-06-16T06:37:42.000Z</time>
        <extensions>
          <ns3:TrackPointExtension>
            <ns3:atemp>18.0</ns3:atemp>
          </ns3:TrackPointExtension>
        </extensions>
      </trkpt>
      <trkpt lat="42.648945562541484832763671875" lon="19.92416395805776119232177734375">
        <ele>902.4000244140625</ele>
        <time>2026-06-16T06:37:43.000Z</time>
        <extensions>
          <ns3:TrackPointExtension>
            <ns3:atemp>18.0</ns3:atemp>
          </ns3:TrackPointExtension>
        </extensions>
      </trkpt>
      <trkpt lat="42.64900029636919498443603515625" lon="19.92410981096327304840087890625">
        <ele>902.4000244140625</ele>
        <time>2026-06-16T06:37:44.000Z</time>
        <extensions>
          <ns3:TrackPointExtension>
            <ns3:atemp>18.0</ns3:atemp>
          </ns3:TrackPointExtension>
        </extensions>
      </trkpt>
      <trkpt lat="42.64905075542628765106201171875" lon="19.92405298165977001190185546875">
        <ele>902.20001220703125</ele>
        <time>2026-06-16T06:37:45.000Z</time>
        <extensions>
          <ns3:TrackPointExtension>
            <ns3:atemp>18.0</ns3:atemp>
          </ns3:TrackPointExtension>
        </extensions>
      </trkpt>
      <trkpt lat="42.64909920282661914825439453125" lon="19.923994056880474090576171875">
        <ele>902.20001220703125</ele>
        <time>2026-06-16T06:37:46.000Z</time>
        <extensions>
          <ns3:TrackPointExtension>
            <ns3:atemp>18.0</ns3:atemp>
          </ns3:TrackPointExtension>
        </extensions>
      </trkpt>
      <trkpt lat="42.64914496801793575286865234375" lon="19.92393747903406620025634765625">
        <ele>902.20001220703125</ele>
        <time>2026-06-16T06:37:47.000Z</time>
        <extensions>
          <ns3:TrackPointExtension>
            <ns3:atemp>18.0</ns3:atemp>
          </ns3:TrackPointExtension>
        </extensions>
      </trkpt>
      <trkpt lat="42.64918872155249118804931640625" lon="19.92387847043573856353759765625">
        <ele>902.4000244140625</ele>
        <time>2026-06-16T06:37:48.000Z</time>
        <extensions>
          <ns3:TrackPointExtension>
            <ns3:atemp>18.0</ns3:atemp>
          </ns3:TrackPointExtension>
        </extensions>
      </trkpt>
      <trkpt lat="42.6492313854396343231201171875" lon="19.92381870746612548828125">
        <ele>902.4000244140625</ele>
        <time>2026-06-16T06:37:49.000Z</time>
        <extensions>
          <ns3:TrackPointExtension>
            <ns3:atemp>18.0</ns3:atemp>
          </ns3:TrackPointExtension>
        </extensions>
      </trkpt>
      <trkpt lat="42.64927036128938198089599609375" lon="19.9237588606774806976318359375">
        <ele>902.5999755859375</ele>
        <time>2026-06-16T06:37:50.000Z</time>
        <extensions>
          <ns3:TrackPointExtension>
            <ns3:atemp>18.0</ns3:atemp>
          </ns3:TrackPointExtension>
        </extensions>
      </trkpt>
      <trkpt lat="42.64930791221559047698974609375" lon="19.92370001971721649169921875">
        <ele>902.5999755859375</ele>
        <time>2026-06-16T06:37:51.000Z</time>
        <extensions>
          <ns3:TrackPointExtension>
            <ns3:atemp>18.0</ns3:atemp>
          </ns3:TrackPointExtension>
        </extensions>
      </trkpt>
      <trkpt lat="42.64934764243662357330322265625" lon="19.92364109493792057037353515625">
        <ele>902.79998779296875</ele>
        <time>2026-06-16T06:37:52.000Z</time>
        <extensions>
          <ns3:TrackPointExtension>
            <ns3:atemp>18.0</ns3:atemp>
          </ns3:TrackPointExtension>
        </extensions>
      </trkpt>
      <trkpt lat="42.64938603155314922332763671875" lon="19.923583008348941802978515625">
        <ele>903</ele>
        <time>2026-06-16T06:37:53.000Z</time>
        <extensions>
          <ns3:TrackPointExtension>
            <ns3:atemp>18.0</ns3:atemp>
          </ns3:TrackPointExtension>
        </extensions>
      </trkpt>
      <trkpt lat="42.649421654641628265380859375" lon="19.92352123372256755828857421875">
        <ele>903.20001220703125</ele>
        <time>2026-06-16T06:37:54.000Z</time>
        <extensions>
          <ns3:TrackPointExtension>
            <ns3:atemp>18.0</ns3:atemp>
          </ns3:TrackPointExtension>
        </extensions>
      </trkpt>
      <trkpt lat="42.6494570262730121612548828125" lon="19.9234597943723201751708984375">
        <ele>903.4000244140625</ele>
        <time>2026-06-16T06:37:55.000Z</time>
        <extensions>
          <ns3:TrackPointExtension>
            <ns3:atemp>18.0</ns3:atemp>
          </ns3:TrackPointExtension>
        </extensions>
      </trkpt>
      <trkpt lat="42.64949264936149120330810546875" lon="19.9234014563262462615966796875">
        <ele>903.5999755859375</ele>
        <time>2026-06-16T06:37:56.000Z</time>
        <extensions>
          <ns3:TrackPointExtension>
            <ns3:atemp>18.0</ns3:atemp>
          </ns3:TrackPointExtension>
        </extensions>
      </trkpt>
      <trkpt lat="42.649529613554477691650390625" lon="19.92334638722240924835205078125">
        <ele>903.79998779296875</ele>
        <time>2026-06-16T06:37:57.000Z</time>
        <extensions>
          <ns3:TrackPointExtension>
            <ns3:atemp>18.0</ns3:atemp>
          </ns3:TrackPointExtension>
        </extensions>
      </trkpt>
      <trkpt lat="42.64956607483327388763427734375" lon="19.923284612596035003662109375">
        <ele>904</ele>
        <time>2026-06-16T06:37:58.000Z</time>
        <extensions>
          <ns3:TrackPointExtension>
            <ns3:atemp>18.0</ns3:atemp>
          </ns3:TrackPointExtension>
        </extensions>
      </trkpt>
      <trkpt lat="42.6496015302836894989013671875" lon="19.923223592340946197509765625">
        <ele>904</ele>
        <time>2026-06-16T06:37:59.000Z</time>
        <extensions>
          <ns3:TrackPointExtension>
            <ns3:atemp>18.0</ns3:atemp>
          </ns3:TrackPointExtension>
        </extensions>
      </trkpt>
      <trkpt lat="42.6496387459337711334228515625" lon="19.92316701449453830718994140625">
        <ele>904.20001220703125</ele>
        <time>2026-06-16T06:38:00.000Z</time>
        <extensions>
          <ns3:TrackPointExtension>
            <ns3:atemp>18.0</ns3:atemp>
          </ns3:TrackPointExtension>
        </extensions>
      </trkpt>
      <trkpt lat="42.64967839233577251434326171875" lon="19.92310850881040096282958984375">
        <ele>904.5999755859375</ele>
        <time>2026-06-16T06:38:01.000Z</time>
        <extensions>
          <ns3:TrackPointExtension>
            <ns3:atemp>18.0</ns3:atemp>
          </ns3:TrackPointExtension>
        </extensions>
      </trkpt>
      <trkpt lat="42.6497192122042179107666015625" lon="19.92305092513561248779296875">
        <ele>904.5999755859375</ele>
        <time>2026-06-16T06:38:02.000Z</time>
        <extensions>
          <ns3:TrackPointExtension>
            <ns3:atemp>18.0</ns3:atemp>
          </ns3:TrackPointExtension>
        </extensions>
      </trkpt>
      <trkpt lat="42.6497614569962024688720703125" lon="19.92299267090857028961181640625">
        <ele>904.79998779296875</ele>
        <time>2026-06-16T06:38:03.000Z</time>
        <extensions>
          <ns3:TrackPointExtension>
            <ns3:atemp>18.0</ns3:atemp>
          </ns3:TrackPointExtension>
        </extensions>
      </trkpt>
      <trkpt lat="42.6498067192733287811279296875" lon="19.9229387752711772918701171875">
        <ele>905</ele>
        <time>2026-06-16T06:38:04.000Z</time>
        <extensions>
          <ns3:TrackPointExtension>
            <ns3:atemp>18.0</ns3:atemp>
          </ns3:TrackPointExtension>
        </extensions>
      </trkpt>
      <trkpt lat="42.6498536579310894012451171875" lon="19.92289007641375064849853515625">
        <ele>905.20001220703125</ele>
        <time>2026-06-16T06:38:05.000Z</time>
        <extensions>
          <ns3:TrackPointExtension>
            <ns3:atemp>18.0</ns3:atemp>
          </ns3:TrackPointExtension>
        </extensions>
      </trkpt>
      <trkpt lat="42.64990277588367462158203125" lon="19.92284246720373630523681640625">
        <ele>905.4000244140625</ele>
        <time>2026-06-16T06:38:06.000Z</time>
        <extensions>
          <ns3:TrackPointExtension>
            <ns3:atemp>18.0</ns3:atemp>
          </ns3:TrackPointExtension>
        </extensions>
      </trkpt>
      <trkpt lat="42.64995315112173557281494140625" lon="19.92279904894530773162841796875">
        <ele>905.5999755859375</ele>
        <time>2026-06-16T06:38:07.000Z</time>
        <extensions>
          <ns3:TrackPointExtension>
            <ns3:atemp>18.0</ns3:atemp>
          </ns3:TrackPointExtension>
        </extensions>
      </trkpt>
      <trkpt lat="42.6500041969120502471923828125" lon="19.92275831289589405059814453125">
        <ele>905.79998779296875</ele>
        <time>2026-06-16T06:38:08.000Z</time>
        <extensions>
          <ns3:TrackPointExtension>
            <ns3:atemp>18.0</ns3:atemp>
          </ns3:TrackPointExtension>
        </extensions>
      </trkpt>
      <trkpt lat="42.6500544883310794830322265625" lon="19.92272042669355869293212890625">
        <ele>906</ele>
        <time>2026-06-16T06:38:09.000Z</time>
        <extensions>
          <ns3:TrackPointExtension>
            <ns3:atemp>18.0</ns3:atemp>
          </ns3:TrackPointExtension>
        </extensions>
      </trkpt>
      <trkpt lat="42.6501027680933475494384765625" lon="19.92268480360507965087890625">
        <ele>906</ele>
        <time>2026-06-16T06:38:10.000Z</time>
        <extensions>
          <ns3:TrackPointExtension>
            <ns3:atemp>18.0</ns3:atemp>
          </ns3:TrackPointExtension>
        </extensions>
      </trkpt>
      <trkpt lat="42.65015356242656707763671875" lon="19.922652952373027801513671875">
        <ele>906</ele>
        <time>2026-06-16T06:38:11.000Z</time>
        <extensions>
          <ns3:TrackPointExtension>
            <ns3:atemp>18.0</ns3:atemp>
          </ns3:TrackPointExtension>
        </extensions>
      </trkpt>
      <trkpt lat="42.65020645223557949066162109375" lon="19.92262252606451511383056640625">
        <ele>906.20001220703125</ele>
        <time>2026-06-16T06:38:12.000Z</time>
        <extensions>
          <ns3:TrackPointExtension>
            <ns3:atemp>18.0</ns3:atemp>
          </ns3:TrackPointExtension>
        </extensions>
      </trkpt>
      <trkpt lat="42.6502576656639575958251953125" lon="19.92259201593697071075439453125">
        <ele>906.20001220703125</ele>
        <time>2026-06-16T06:38:13.000Z</time>
        <extensions>
          <ns3:TrackPointExtension>
            <ns3:atemp>18.0</ns3:atemp>
          </ns3:TrackPointExtension>
        </extensions>
      </trkpt>
      <trkpt lat="42.6503082923591136932373046875" lon="19.922563098371028900146484375">
        <ele>906.20001220703125</ele>
        <time>2026-06-16T06:38:14.000Z</time>
        <extensions>
          <ns3:TrackPointExtension>
            <ns3:atemp>18.0</ns3:atemp>
          </ns3:TrackPointExtension>
        </extensions>
      </trkpt>
      <trkpt lat="42.65035984106361865997314453125" lon="19.9225366115570068359375">
        <ele>906.20001220703125</ele>
        <time>2026-06-16T06:38:15.000Z</time>
        <extensions>
          <ns3:TrackPointExtension>
            <ns3:atemp>18.0</ns3:atemp>
          </ns3:TrackPointExtension>
        </extensions>
      </trkpt>
      <trkpt lat="42.6504125632345676422119140625" lon="19.922506101429462432861328125">
        <ele>906.20001220703125</ele>
        <time>2026-06-16T06:38:16.000Z</time>
        <extensions>
          <ns3:TrackPointExtension>
            <ns3:atemp>18.0</ns3:atemp>
          </ns3:TrackPointExtension>
        </extensions>
      </trkpt>
      <trkpt lat="42.6504645310342311859130859375" lon="19.92247248999774456024169921875">
        <ele>906.20001220703125</ele>
        <time>2026-06-16T06:38:17.000Z</time>
        <extensions>
          <ns3:TrackPointExtension>
            <ns3:atemp>18.0</ns3:atemp>
          </ns3:TrackPointExtension>
        </extensions>
      </trkpt>
      <trkpt lat="42.65051859430968761444091796875" lon="19.92244072258472442626953125">
        <ele>906</ele>
        <time>2026-06-16T06:38:18.000Z</time>
        <extensions>
          <ns3:TrackPointExtension>
            <ns3:atemp>18.0</ns3:atemp>
          </ns3:TrackPointExtension>
        </extensions>
      </trkpt>
      <trkpt lat="42.65057525597512722015380859375" lon="19.92241029627621173858642578125">
        <ele>906.20001220703125</ele>
        <time>2026-06-16T06:38:19.000Z</time>
        <extensions>
          <ns3:TrackPointExtension>
            <ns3:atemp>18.0</ns3:atemp>
          </ns3:TrackPointExtension>
        </extensions>
      </trkpt>
      <trkpt lat="42.6506318338215351104736328125" lon="19.92238297127187252044677734375">
        <ele>906.20001220703125</ele>
        <time>2026-06-16T06:38:20.000Z</time>
        <extensions>
          <ns3:TrackPointExtension>
            <ns3:atemp>18.0</ns3:atemp>
          </ns3:TrackPointExtension>
        </extensions>
      </trkpt>
      <trkpt lat="42.6506901718676090240478515625" lon="19.92235514335334300994873046875">
        <ele>906.20001220703125</ele>
        <time>2026-06-16T06:38:21.000Z</time>
        <extensions>
          <ns3:TrackPointExtension>
            <ns3:atemp>18.0</ns3:atemp>
          </ns3:TrackPointExtension>
        </extensions>
      </trkpt>
      <trkpt lat="42.65074423514306545257568359375" lon="19.92232463322579860687255859375">
        <ele>906.20001220703125</ele>
        <time>2026-06-16T06:38:22.000Z</time>
        <extensions>
          <ns3:TrackPointExtension>
            <ns3:atemp>18.0</ns3:atemp>
          </ns3:TrackPointExtension>
        </extensions>
      </trkpt>
      <trkpt lat="42.6507984660565853118896484375" lon="19.9222910217940807342529296875">
        <ele>906.4000244140625</ele>
        <time>2026-06-16T06:38:23.000Z</time>
        <extensions>
          <ns3:TrackPointExtension>
            <ns3:atemp>18.0</ns3:atemp>
          </ns3:TrackPointExtension>
        </extensions>
      </trkpt>
      <trkpt lat="42.6508534513413906097412109375" lon="19.9222576618194580078125">
        <ele>906.5999755859375</ele>
        <time>2026-06-16T06:38:24.000Z</time>
        <extensions>
          <ns3:TrackPointExtension>
            <ns3:atemp>18.0</ns3:atemp>
          </ns3:TrackPointExtension>
        </extensions>
      </trkpt>
      <trkpt lat="42.6509081013500690460205078125" lon="19.92221985943615436553955078125">
        <ele>906.5999755859375</ele>
        <time>2026-06-16T06:38:25.000Z</time>
        <extensions>
          <ns3:TrackPointExtension>
            <ns3:atemp>18.0</ns3:atemp>
          </ns3:TrackPointExtension>
        </extensions>
      </trkpt>
      <trkpt lat="42.6509624160826206207275390625" lon="19.92217761464416980743408203125">
        <ele>906.79998779296875</ele>
        <time>2026-06-16T06:38:26.000Z</time>
        <extensions>
          <ns3:TrackPointExtension>
            <ns3:atemp>18.0</ns3:atemp>
          </ns3:TrackPointExtension>
        </extensions>
      </trkpt>
      <trkpt lat="42.65101362951099872589111328125" lon="19.9221334420144557952880859375">
        <ele>906.79998779296875</ele>
        <time>2026-06-16T06:38:27.000Z</time>
        <extensions>
          <ns3:TrackPointExtension>
            <ns3:atemp>18.0</ns3:atemp>
          </ns3:TrackPointExtension>
        </extensions>
      </trkpt>
      <trkpt lat="42.65106777660548686981201171875" lon="19.92208876647055149078369140625">
        <ele>906.5999755859375</ele>
        <time>2026-06-16T06:38:28.000Z</time>
        <extensions>
          <ns3:TrackPointExtension>
            <ns3:atemp>18.0</ns3:atemp>
          </ns3:TrackPointExtension>
        </extensions>
      </trkpt>
      <trkpt lat="42.65112041495740413665771484375" lon="19.9220409058034420013427734375">
        <ele>906.4000244140625</ele>
        <time>2026-06-16T06:38:29.000Z</time>
        <extensions>
          <ns3:TrackPointExtension>
            <ns3:atemp>18.0</ns3:atemp>
          </ns3:TrackPointExtension>
        </extensions>
      </trkpt>
      <trkpt lat="42.65117338858544826507568359375" lon="19.92198650725185871124267578125">
        <ele>906.4000244140625</ele>
        <time>2026-06-16T06:38:30.000Z</time>
        <extensions>
          <ns3:TrackPointExtension>
            <ns3:atemp>18.0</ns3:atemp>
          </ns3:TrackPointExtension>
        </extensions>
      </trkpt>
      <trkpt lat="42.65122233889997005462646484375" lon="19.92193386889994144439697265625">
        <ele>906.20001220703125</ele>
        <time>2026-06-16T06:38:31.000Z</time>
        <extensions>
          <ns3:TrackPointExtension>
            <ns3:atemp>18.0</ns3:atemp>
          </ns3:TrackPointExtension>
        </extensions>
      </trkpt>
      <trkpt lat="42.65127330087125301361083984375" lon="19.92188508622348308563232421875">
        <ele>906</ele>
        <time>2026-06-16T06:38:32.000Z</time>
        <extensions>
          <ns3:TrackPointExtension>
            <ns3:atemp>18.0</ns3:atemp>
          </ns3:TrackPointExtension>
        </extensions>
      </trkpt>
      <trkpt lat="42.651326693594455718994140625" lon="19.92182976566255092620849609375">
        <ele>905.79998779296875</ele>
        <time>2026-06-16T06:38:33.000Z</time>
        <extensions>
          <ns3:TrackPointExtension>
            <ns3:atemp>18.0</ns3:atemp>
          </ns3:TrackPointExtension>
        </extensions>
      </trkpt>
      <trkpt lat="42.65138058923184871673583984375" lon="19.92176891304552555084228515625">
        <ele>905.5999755859375</ele>
        <time>2026-06-16T06:38:34.000Z</time>
        <extensions>
          <ns3:TrackPointExtension>
            <ns3:atemp>18.0</ns3:atemp>
          </ns3:TrackPointExtension>
        </extensions>
      </trkpt>
      <trkpt lat="42.65143607743084430694580078125" lon="19.9217042885720729827880859375">
        <ele>905.4000244140625</ele>
        <time>2026-06-16T06:38:35.000Z</time>
        <extensions>
          <ns3:TrackPointExtension>
            <ns3:atemp>18.0</ns3:atemp>
          </ns3:TrackPointExtension>
        </extensions>
      </trkpt>
      <trkpt lat="42.6514918170869350433349609375" lon="19.921640418469905853271484375">
        <ele>905</ele>
        <time>2026-06-16T06:38:36.000Z</time>
        <extensions>
          <ns3:TrackPointExtension>
            <ns3:atemp>18.0</ns3:atemp>
          </ns3:TrackPointExtension>
        </extensions>
      </trkpt>
      <trkpt lat="42.6515464670956134796142578125" lon="19.92157998494803905487060546875">
        <ele>904.5999755859375</ele>
        <time>2026-06-16T06:38:37.000Z</time>
        <extensions>
          <ns3:TrackPointExtension>
            <ns3:atemp>19.0</ns3:atemp>
          </ns3:TrackPointExtension>
        </extensions>
      </trkpt>
      <trkpt lat="42.65160270966589450836181640625" lon="19.92151661776006221771240234375">
        <ele>904.20001220703125</ele>
        <time>2026-06-16T06:38:38.000Z</time>
        <extensions>
          <ns3:TrackPointExtension>
            <ns3:atemp>18.0</ns3:atemp>
          </ns3:TrackPointExtension>
        </extensions>
      </trkpt>
      <trkpt lat="42.65166205354034900665283203125" lon="19.9214541725814342498779296875">
        <ele>903.79998779296875</ele>
        <time>2026-06-16T06:38:39.000Z</time>
        <extensions>
          <ns3:TrackPointExtension>
            <ns3:atemp>19.0</ns3:atemp>
          </ns3:TrackPointExtension>
        </extensions>
      </trkpt>
      <trkpt lat="42.65172265470027923583984375" lon="19.9213891290128231048583984375">
        <ele>903.4000244140625</ele>
        <time>2026-06-16T06:38:40.000Z</time>
        <extensions>
          <ns3:TrackPointExtension>
            <ns3:atemp>19.0</ns3:atemp>
          </ns3:TrackPointExtension>
        </extensions>
      </trkpt>
      <trkpt lat="42.65178442932665348052978515625" lon="19.921322576701641082763671875">
        <ele>903.20001220703125</ele>
        <time>2026-06-16T06:38:41.000Z</time>
        <extensions>
          <ns3:TrackPointExtension>
            <ns3:atemp>19.0</ns3:atemp>
          </ns3:TrackPointExtension>
        </extensions>
      </trkpt>
      <trkpt lat="42.65184712596237659454345703125" lon="19.92125040851533412933349609375">
        <ele>902.79998779296875</ele>
        <time>2026-06-16T06:38:42.000Z</time>
        <extensions>
          <ns3:TrackPointExtension>
            <ns3:atemp>19.0</ns3:atemp>
          </ns3:TrackPointExtension>
        </extensions>
      </trkpt>
      <trkpt lat="42.65191133134067058563232421875" lon="19.921181090176105499267578125">
        <ele>902.20001220703125</ele>
        <time>2026-06-16T06:38:43.000Z</time>
        <extensions>
          <ns3:TrackPointExtension>
            <ns3:atemp>19.0</ns3:atemp>
          </ns3:TrackPointExtension>
        </extensions>
      </trkpt>
      <trkpt lat="42.6519766263663768768310546875" lon="19.92110791616141796112060546875">
        <ele>901.79998779296875</ele>
        <time>2026-06-16T06:38:44.000Z</time>
        <extensions>
          <ns3:TrackPointExtension>
            <ns3:atemp>19.0</ns3:atemp>
          </ns3:TrackPointExtension>
        </extensions>
      </trkpt>
      <trkpt lat="42.652042172849178314208984375" lon="19.92103583179414272308349609375">
        <ele>901.20001220703125</ele>
        <time>2026-06-16T06:38:45.000Z</time>
        <extensions>
          <ns3:TrackPointExtension>
            <ns3:atemp>19.0</ns3:atemp>
          </ns3:TrackPointExtension>
        </extensions>
      </trkpt>
      <trkpt lat="42.6521082222461700439453125" lon="19.9209629930555820465087890625">
        <ele>900.79998779296875</ele>
        <time>2026-06-16T06:38:46.000Z</time>
        <extensions>
          <ns3:TrackPointExtension>
            <ns3:atemp>19.0</ns3:atemp>
          </ns3:TrackPointExtension>
        </extensions>
      </trkpt>
      <trkpt lat="42.65217301435768604278564453125" lon="19.92088965140283107757568359375">
        <ele>900.4000244140625</ele>
        <time>2026-06-16T06:38:47.000Z</time>
        <extensions>
          <ns3:TrackPointExtension>
            <ns3:atemp>19.0</ns3:atemp>
          </ns3:TrackPointExtension>
        </extensions>
      </trkpt>
      <trkpt lat="42.65223839320242404937744140625" lon="19.920810945332050323486328125">
        <ele>899.79998779296875</ele>
        <time>2026-06-16T06:38:48.000Z</time>
        <extensions>
          <ns3:TrackPointExtension>
            <ns3:atemp>19.0</ns3:atemp>
          </ns3:TrackPointExtension>
        </extensions>
      </trkpt>
      <trkpt lat="42.65230561606585979461669921875" lon="19.920736514031887054443359375">
        <ele>899.20001220703125</ele>
        <time>2026-06-16T06:38:49.000Z</time>
        <extensions>
          <ns3:TrackPointExtension>
            <ns3:atemp>19.0</ns3:atemp>
          </ns3:TrackPointExtension>
        </extensions>
      </trkpt>
      <trkpt lat="42.65237501822412014007568359375" lon="19.920664094388484954833984375">
        <ele>898.79998779296875</ele>
        <time>2026-06-16T06:38:50.000Z</time>
        <extensions>
          <ns3:TrackPointExtension>
            <ns3:atemp>19.0</ns3:atemp>
          </ns3:TrackPointExtension>
        </extensions>
      </trkpt>
      <trkpt lat="42.65244425274431705474853515625" lon="19.9205884896218776702880859375">
        <ele>898.4000244140625</ele>
        <time>2026-06-16T06:38:51.000Z</time>
        <extensions>
          <ns3:TrackPointExtension>
            <ns3:atemp>19.0</ns3:atemp>
          </ns3:TrackPointExtension>
        </extensions>
      </trkpt>
      <trkpt lat="42.65251281671226024627685546875" lon="19.92051028646528720855712890625">
        <ele>898</ele>
        <time>2026-06-16T06:38:52.000Z</time>
        <extensions>
          <ns3:TrackPointExtension>
            <ns3:atemp>19.0</ns3:atemp>
          </ns3:TrackPointExtension>
        </extensions>
      </trkpt>
      <trkpt lat="42.652578614652156829833984375" lon="19.92043468169867992401123046875">
        <ele>897.5999755859375</ele>
        <time>2026-06-16T06:38:53.000Z</time>
        <extensions>
          <ns3:TrackPointExtension>
            <ns3:atemp>19.0</ns3:atemp>
          </ns3:TrackPointExtension>
        </extensions>
      </trkpt>
      <trkpt lat="42.65264533460140228271484375" lon="19.9203611724078655242919921875">
        <ele>897.20001220703125</ele>
        <time>2026-06-16T06:38:54.000Z</time>
        <extensions>
          <ns3:TrackPointExtension>
            <ns3:atemp>19.0</ns3:atemp>
          </ns3:TrackPointExtension>
        </extensions>
      </trkpt>
      <trkpt lat="42.65271347947418689727783203125" lon="19.92029101587831974029541015625">
        <ele>896.79998779296875</ele>
        <time>2026-06-16T06:38:55.000Z</time>
        <extensions>
          <ns3:TrackPointExtension>
            <ns3:atemp>19.0</ns3:atemp>
          </ns3:TrackPointExtension>
        </extensions>
      </trkpt>
      <trkpt lat="42.65278304927051067352294921875" lon="19.92021725513041019439697265625">
        <ele>896.4000244140625</ele>
        <time>2026-06-16T06:38:56.000Z</time>
        <extensions>
          <ns3:TrackPointExtension>
            <ns3:atemp>19.0</ns3:atemp>
          </ns3:TrackPointExtension>
        </extensions>
      </trkpt>
      <trkpt lat="42.65284708701074123382568359375" lon="19.92014315910637378692626953125">
        <ele>896.20001220703125</ele>
        <time>2026-06-16T06:38:57.000Z</time>
        <extensions>
          <ns3:TrackPointExtension>
            <ns3:atemp>19.0</ns3:atemp>
          </ns3:TrackPointExtension>
        </extensions>
      </trkpt>
      <trkpt lat="42.65291062183678150177001953125" lon="19.9200681410729885101318359375">
        <ele>896</ele>
        <time>2026-06-16T06:38:58.000Z</time>
        <extensions>
          <ns3:TrackPointExtension>
            <ns3:atemp>19.0</ns3:atemp>
          </ns3:TrackPointExtension>
        </extensions>
      </trkpt>
      <trkpt lat="42.65297080390155315399169921875" lon="19.91999312303960323333740234375">
        <ele>895.79998779296875</ele>
        <time>2026-06-16T06:38:59.000Z</time>
        <extensions>
          <ns3:TrackPointExtension>
            <ns3:atemp>19.0</ns3:atemp>
          </ns3:TrackPointExtension>
        </extensions>
      </trkpt>
      <trkpt lat="42.65303333289921283721923828125" lon="19.919913075864315032958984375">
        <ele>895.4000244140625</ele>
        <time>2026-06-16T06:39:00.000Z</time>
        <extensions>
          <ns3:TrackPointExtension>
            <ns3:atemp>19.0</ns3:atemp>
          </ns3:TrackPointExtension>
        </extensions>
      </trkpt>
      <trkpt lat="42.653096616268157958984375" lon="19.91983638145029544830322265625">
        <ele>895.20001220703125</ele>
        <time>2026-06-16T06:39:01.000Z</time>
        <extensions>
          <ns3:TrackPointExtension>
            <ns3:atemp>19.0</ns3:atemp>
          </ns3:TrackPointExtension>
        </extensions>
      </trkpt>
      <trkpt lat="42.6531596481800079345703125" lon="19.9197583459317684173583984375">
        <ele>895</ele>
        <time>2026-06-16T06:39:02.000Z</time>
        <extensions>
          <ns3:TrackPointExtension>
            <ns3:atemp>19.0</ns3:atemp>
          </ns3:TrackPointExtension>
        </extensions>
      </trkpt>
      <trkpt lat="42.65321706421673297882080078125" lon="19.9196760356426239013671875">
        <ele>894.79998779296875</ele>
        <time>2026-06-16T06:39:03.000Z</time>
        <extensions>
          <ns3:TrackPointExtension>
            <ns3:atemp>19.0</ns3:atemp>
          </ns3:TrackPointExtension>
        </extensions>
      </trkpt>
      <trkpt lat="42.6532734744250774383544921875" lon="19.91959548555314540863037109375">
        <ele>894.4000244140625</ele>
        <time>2026-06-16T06:39:04.000Z</time>
        <extensions>
          <ns3:TrackPointExtension>
            <ns3:atemp>19.0</ns3:atemp>
          </ns3:TrackPointExtension>
        </extensions>
      </trkpt>
      <trkpt lat="42.6533286273479461669921875" lon="19.9195186235010623931884765625">
        <ele>894.20001220703125</ele>
        <time>2026-06-16T06:39:05.000Z</time>
        <extensions>
          <ns3:TrackPointExtension>
            <ns3:atemp>19.0</ns3:atemp>
          </ns3:TrackPointExtension>
        </extensions>
      </trkpt>
      <trkpt lat="42.65338336117565631866455078125" lon="19.91944628767669200897216796875">
        <ele>894</ele>
        <time>2026-06-16T06:39:06.000Z</time>
        <extensions>
          <ns3:TrackPointExtension>
            <ns3:atemp>19.0</ns3:atemp>
          </ns3:TrackPointExtension>
        </extensions>
      </trkpt>
      <trkpt lat="42.65343683771789073944091796875" lon="19.91937302984297275543212890625">
        <ele>893.79998779296875</ele>
        <time>2026-06-16T06:39:07.000Z</time>
        <extensions>
          <ns3:TrackPointExtension>
            <ns3:atemp>19.0</ns3:atemp>
          </ns3:TrackPointExtension>
        </extensions>
      </trkpt>
      <trkpt lat="42.65349132008850574493408203125" lon="19.91930815391242504119873046875">
        <ele>893.79998779296875</ele>
        <time>2026-06-16T06:39:08.000Z</time>
        <extensions>
          <ns3:TrackPointExtension>
            <ns3:atemp>19.0</ns3:atemp>
          </ns3:TrackPointExtension>
        </extensions>
      </trkpt>
      <trkpt lat="42.65354664064943790435791015625" lon="19.9192433618009090423583984375">
        <ele>893.5999755859375</ele>
        <time>2026-06-16T06:39:09.000Z</time>
        <extensions>
          <ns3:TrackPointExtension>
            <ns3:atemp>19.0</ns3:atemp>
          </ns3:TrackPointExtension>
        </extensions>
      </trkpt>
      <trkpt lat="42.65360363759100437164306640625" lon="19.91917354054749011993408203125">
        <ele>893.5999755859375</ele>
        <time>2026-06-16T06:39:10.000Z</time>
        <extensions>
          <ns3:TrackPointExtension>
            <ns3:atemp>19.0</ns3:atemp>
          </ns3:TrackPointExtension>
        </extensions>
      </trkpt>
      <trkpt lat="42.6536607183516025543212890625" lon="19.91911000572144985198974609375">
        <ele>893.5999755859375</ele>
        <time>2026-06-16T06:39:11.000Z</time>
        <extensions>
          <ns3:TrackPointExtension>
            <ns3:atemp>19.0</ns3:atemp>
          </ns3:TrackPointExtension>
        </extensions>
      </trkpt>
      <trkpt lat="42.65371662564575672149658203125" lon="19.919046051800251007080078125">
        <ele>893.4000244140625</ele>
        <time>2026-06-16T06:39:12.000Z</time>
        <extensions>
          <ns3:TrackPointExtension>
            <ns3:atemp>19.0</ns3:atemp>
          </ns3:TrackPointExtension>
        </extensions>
      </trkpt>
      <trkpt lat="42.65377261675894260406494140625" lon="19.9189831875264644622802734375">
        <ele>893.4000244140625</ele>
        <time>2026-06-16T06:39:13.000Z</time>
        <extensions>
          <ns3:TrackPointExtension>
            <ns3:atemp>19.0</ns3:atemp>
          </ns3:TrackPointExtension>
        </extensions>
      </trkpt>
      <trkpt lat="42.6538310386240482330322265625" lon="19.9189250171184539794921875">
        <ele>893.4000244140625</ele>
        <time>2026-06-16T06:39:14.000Z</time>
        <extensions>
          <ns3:TrackPointExtension>
            <ns3:atemp>19.0</ns3:atemp>
          </ns3:TrackPointExtension>
        </extensions>
      </trkpt>
      <trkpt lat="42.65388811938464641571044921875" lon="19.9188660085201263427734375">
        <ele>893.20001220703125</ele>
        <time>2026-06-16T06:39:15.000Z</time>
        <extensions>
          <ns3:TrackPointExtension>
            <ns3:atemp>19.0</ns3:atemp>
          </ns3:TrackPointExtension>
        </extensions>
      </trkpt>
      <trkpt lat="42.6539410091936588287353515625" lon="19.918814040720462799072265625">
        <ele>893.20001220703125</ele>
        <time>2026-06-16T06:39:16.000Z</time>
        <extensions>
          <ns3:TrackPointExtension>
            <ns3:atemp>19.0</ns3:atemp>
          </ns3:TrackPointExtension>
        </extensions>
      </trkpt>
      <trkpt lat="42.65399557538330554962158203125" lon="19.91875846870243549346923828125">
        <ele>893</ele>
        <time>2026-06-16T06:39:17.000Z</time>
        <extensions>
          <ns3:TrackPointExtension>
            <ns3:atemp>19.0</ns3:atemp>
          </ns3:TrackPointExtension>
        </extensions>
      </trkpt>
      <trkpt lat="42.654047794640064239501953125" lon="19.91870599798858165740966796875">
        <ele>893</ele>
        <time>2026-06-16T06:39:18.000Z</time>
        <extensions>
          <ns3:TrackPointExtension>
            <ns3:atemp>19.0</ns3:atemp>
          </ns3:TrackPointExtension>
        </extensions>
      </trkpt>
      <trkpt lat="42.6540979184210300445556640625" lon="19.9186514317989349365234375">
        <ele>893</ele>
        <time>2026-06-16T06:39:19.000Z</time>
        <extensions>
          <ns3:TrackPointExtension>
            <ns3:atemp>19.0</ns3:atemp>
          </ns3:TrackPointExtension>
        </extensions>
      </trkpt>
      <trkpt lat="42.65415064059197902679443359375" lon="19.91859912872314453125">
        <ele>893</ele>
        <time>2026-06-16T06:39:20.000Z</time>
        <extensions>
          <ns3:TrackPointExtension>
            <ns3:atemp>19.0</ns3:atemp>
          </ns3:TrackPointExtension>
        </extensions>
      </trkpt>
      <trkpt lat="42.65420177020132541656494140625" lon="19.91855126805603504180908203125">
        <ele>893</ele>
        <time>2026-06-16T06:39:21.000Z</time>
        <extensions>
          <ns3:TrackPointExtension>
            <ns3:atemp>19.0</ns3:atemp>
          </ns3:TrackPointExtension>
        </extensions>
      </trkpt>
      <trkpt lat="42.65424929559230804443359375" lon="19.9185060895979404449462890625">
        <ele>893</ele>
        <time>2026-06-16T06:39:22.000Z</time>
        <extensions>
          <ns3:TrackPointExtension>
            <ns3:atemp>19.0</ns3:atemp>
          </ns3:TrackPointExtension>
        </extensions>
      </trkpt>
      <trkpt lat="42.65430034138262271881103515625" lon="19.9184568040072917938232421875">
        <ele>893</ele>
        <time>2026-06-16T06:39:23.000Z</time>
        <extensions>
          <ns3:TrackPointExtension>
            <ns3:atemp>19.0</ns3:atemp>
          </ns3:TrackPointExtension>
        </extensions>
      </trkpt>
      <trkpt lat="42.65434543602168560028076171875" lon="19.91840240545570850372314453125">
        <ele>893</ele>
        <time>2026-06-16T06:39:24.000Z</time>
        <extensions>
          <ns3:TrackPointExtension>
            <ns3:atemp>19.0</ns3:atemp>
          </ns3:TrackPointExtension>
        </extensions>
      </trkpt>
      <trkpt lat="42.65439254231750965118408203125" lon="19.91834809072315692901611328125">
        <ele>893</ele>
        <time>2026-06-16T06:39:25.000Z</time>
        <extensions>
          <ns3:TrackPointExtension>
            <ns3:atemp>19.0</ns3:atemp>
          </ns3:TrackPointExtension>
        </extensions>
      </trkpt>
      <trkpt lat="42.65443705022335052490234375" lon="19.9182911776006221771240234375">
        <ele>893</ele>
        <time>2026-06-16T06:39:26.000Z</time>
        <extensions>
          <ns3:TrackPointExtension>
            <ns3:atemp>19.0</ns3:atemp>
          </ns3:TrackPointExtension>
        </extensions>
      </trkpt>
      <trkpt lat="42.65448306687176227569580078125" lon="19.91822906769812107086181640625">
        <ele>892.79998779296875</ele>
        <time>2026-06-16T06:39:27.000Z</time>
        <extensions>
          <ns3:TrackPointExtension>
            <ns3:atemp>19.0</ns3:atemp>
          </ns3:TrackPointExtension>
        </extensions>
      </trkpt>
      <trkpt lat="42.65452598221600055694580078125" lon="19.9181651137769222259521484375">
        <ele>892.5999755859375</ele>
        <time>2026-06-16T06:39:28.000Z</time>
        <extensions>
          <ns3:TrackPointExtension>
            <ns3:atemp>19.0</ns3:atemp>
          </ns3:TrackPointExtension>
        </extensions>
      </trkpt>
      <trkpt lat="42.6545676402747631072998046875" lon="19.91810132749378681182861328125">
        <ele>892.4000244140625</ele>
        <time>2026-06-16T06:39:29.000Z</time>
        <extensions>
          <ns3:TrackPointExtension>
            <ns3:atemp>19.0</ns3:atemp>
          </ns3:TrackPointExtension>
        </extensions>
      </trkpt>
      <trkpt lat="42.6546125672757625579833984375" lon="19.91803343407809734344482421875">
        <ele>892.4000244140625</ele>
        <time>2026-06-16T06:39:30.000Z</time>
        <extensions>
          <ns3:TrackPointExtension>
            <ns3:atemp>19.0</ns3:atemp>
          </ns3:TrackPointExtension>
        </extensions>
      </trkpt>
      <trkpt lat="42.65465254895389080047607421875" lon="19.91796788759529590606689453125">
        <ele>892.20001220703125</ele>
        <time>2026-06-16T06:39:31.000Z</time>
        <extensions>
          <ns3:TrackPointExtension>
            <ns3:atemp>19.0</ns3:atemp>
          </ns3:TrackPointExtension>
        </extensions>
      </trkpt>
      <trkpt lat="42.6546938717365264892578125" lon="19.91789949126541614532470703125">
        <ele>892.20001220703125</ele>
        <time>2026-06-16T06:39:32.000Z</time>
        <extensions>
          <ns3:TrackPointExtension>
            <ns3:atemp>19.0</ns3:atemp>
          </ns3:TrackPointExtension>
        </extensions>
      </trkpt>
      <trkpt lat="42.654731087386608123779296875" lon="19.9178301729261875152587890625">
        <ele>892.20001220703125</ele>
        <time>2026-06-16T06:39:33.000Z</time>
        <extensions>
          <ns3:TrackPointExtension>
            <ns3:atemp>19.0</ns3:atemp>
          </ns3:TrackPointExtension>
        </extensions>
      </trkpt>
      <trkpt lat="42.6547634415328502655029296875" lon="19.91775758564472198486328125">
        <ele>892.20001220703125</ele>
        <time>2026-06-16T06:39:34.000Z</time>
        <extensions>
          <ns3:TrackPointExtension>
            <ns3:atemp>19.0</ns3:atemp>
          </ns3:TrackPointExtension>
        </extensions>
      </trkpt>
      <trkpt lat="42.6547931134700775146484375" lon="19.9176836572587490081787109375">
        <ele>892.20001220703125</ele>
        <time>2026-06-16T06:39:35.000Z</time>
        <extensions>
          <ns3:TrackPointExtension>
            <ns3:atemp>19.0</ns3:atemp>
          </ns3:TrackPointExtension>
        </extensions>
      </trkpt>
      <trkpt lat="42.65482253395020961761474609375" lon="19.91761065088212490081787109375">
        <ele>892.20001220703125</ele>
        <time>2026-06-16T06:39:36.000Z</time>
        <extensions>
          <ns3:TrackPointExtension>
            <ns3:atemp>19.0</ns3:atemp>
          </ns3:TrackPointExtension>
        </extensions>
      </trkpt>
      <trkpt lat="42.65485304407775402069091796875" lon="19.91753638722002506256103515625">
        <ele>892.4000244140625</ele>
        <time>2026-06-16T06:39:37.000Z</time>
        <extensions>
          <ns3:TrackPointExtension>
            <ns3:atemp>19.0</ns3:atemp>
          </ns3:TrackPointExtension>
        </extensions>
      </trkpt>
      <trkpt lat="42.65488154254853725433349609375" lon="19.917460866272449493408203125">
        <ele>892.4000244140625</ele>
        <time>2026-06-16T06:39:38.000Z</time>
        <extensions>
          <ns3:TrackPointExtension>
            <ns3:atemp>19.0</ns3:atemp>
          </ns3:TrackPointExtension>
        </extensions>
      </trkpt>
      <trkpt lat="42.65490501187741756439208984375" lon="19.9173819087445735931396484375">
        <ele>892.4000244140625</ele>
        <time>2026-06-16T06:39:39.000Z</time>
        <extensions>
          <ns3:TrackPointExtension>
            <ns3:atemp>19.0</ns3:atemp>
          </ns3:TrackPointExtension>
        </extensions>
      </trkpt>
      <trkpt lat="42.65492697246372699737548828125" lon="19.91730487905442714691162109375">
        <ele>892.4000244140625</ele>
        <time>2026-06-16T06:39:40.000Z</time>
        <extensions>
          <ns3:TrackPointExtension>
            <ns3:atemp>19.0</ns3:atemp>
          </ns3:TrackPointExtension>
        </extensions>
      </trkpt>
      <trkpt lat="42.65494759194552898406982421875" lon="19.91722156293690204620361328125">
        <ele>892.4000244140625</ele>
        <time>2026-06-16T06:39:41.000Z</time>
        <extensions>
          <ns3:TrackPointExtension>
            <ns3:atemp>19.0</ns3:atemp>
          </ns3:TrackPointExtension>
        </extensions>
      </trkpt>
      <trkpt lat="42.65496318228542804718017578125" lon="19.917138330638408660888671875">
        <ele>892.4000244140625</ele>
        <time>2026-06-16T06:39:42.000Z</time>
        <extensions>
          <ns3:TrackPointExtension>
            <ns3:atemp>19.0</ns3:atemp>
          </ns3:TrackPointExtension>
        </extensions>
      </trkpt>
      <trkpt lat="42.65497810207307338714599609375" lon="19.91706113331019878387451171875">
        <ele>892.4000244140625</ele>
        <time>2026-06-16T06:39:43.000Z</time>
        <extensions>
          <ns3:TrackPointExtension>
            <ns3:atemp>19.0</ns3:atemp>
          </ns3:TrackPointExtension>
        </extensions>
      </trkpt>
      <trkpt lat="42.65499151311814785003662109375" lon="19.91698234342038631439208984375">
        <ele>892.5999755859375</ele>
        <time>2026-06-16T06:39:44.000Z</time>
        <extensions>
          <ns3:TrackPointExtension>
            <ns3:atemp>19.0</ns3:atemp>
          </ns3:TrackPointExtension>
        </extensions>
      </trkpt>
      <trkpt lat="42.65500324778258800506591796875" lon="19.91690422408282756805419921875">
        <ele>892.5999755859375</ele>
        <time>2026-06-16T06:39:45.000Z</time>
        <extensions>
          <ns3:TrackPointExtension>
            <ns3:atemp>19.0</ns3:atemp>
          </ns3:TrackPointExtension>
        </extensions>
      </trkpt>
      <trkpt lat="42.655013389885425567626953125" lon="19.91682954132556915283203125">
        <ele>892.79998779296875</ele>
        <time>2026-06-16T06:39:46.000Z</time>
        <extensions>
          <ns3:TrackPointExtension>
            <ns3:atemp>19.0</ns3:atemp>
          </ns3:TrackPointExtension>
        </extensions>
      </trkpt>
      <trkpt lat="42.65501632355153560638427734375" lon="19.91675133816897869110107421875">
        <ele>892.79998779296875</ele>
        <time>2026-06-16T06:39:47.000Z</time>
        <extensions>
          <ns3:TrackPointExtension>
            <ns3:atemp>19.0</ns3:atemp>
          </ns3:TrackPointExtension>
        </extensions>
      </trkpt>
      <trkpt lat="42.65502286143600940704345703125" lon="19.91667539812624454498291015625">
        <ele>892.79998779296875</ele>
        <time>2026-06-16T06:39:48.000Z</time>
        <extensions>
          <ns3:TrackPointExtension>
            <ns3:atemp>19.0</ns3:atemp>
          </ns3:TrackPointExtension>
        </extensions>
      </trkpt>
      <trkpt lat="42.65502738766372203826904296875" lon="19.91660331375896930694580078125">
        <ele>892.79998779296875</ele>
        <time>2026-06-16T06:39:49.000Z</time>
        <extensions>
          <ns3:TrackPointExtension>
            <ns3:atemp>19.0</ns3:atemp>
          </ns3:TrackPointExtension>
        </extensions>
      </trkpt>
      <trkpt lat="42.65503157861530780792236328125" lon="19.91653089411556720733642578125">
        <ele>892.79998779296875</ele>
        <time>2026-06-16T06:39:50.000Z</time>
        <extensions>
          <ns3:TrackPointExtension>
            <ns3:atemp>19.0</ns3:atemp>
          </ns3:TrackPointExtension>
        </extensions>
      </trkpt>
      <trkpt lat="42.65503392554819583892822265625" lon="19.91645495407283306121826171875">
        <ele>893</ele>
        <time>2026-06-16T06:39:51.000Z</time>
        <extensions>
          <ns3:TrackPointExtension>
            <ns3:atemp>19.0</ns3:atemp>
          </ns3:TrackPointExtension>
        </extensions>
      </trkpt>
      <trkpt lat="42.65502604655921459197998046875" lon="19.91638370789587497711181640625">
        <ele>893</ele>
        <time>2026-06-16T06:39:52.000Z</time>
        <extensions>
          <ns3:TrackPointExtension>
            <ns3:atemp>19.0</ns3:atemp>
          </ns3:TrackPointExtension>
        </extensions>
      </trkpt>
      <trkpt lat="42.655024789273738861083984375" lon="19.9163056723773479461669921875">
        <ele>893</ele>
        <time>2026-06-16T06:39:53.000Z</time>
        <extensions>
          <ns3:TrackPointExtension>
            <ns3:atemp>19.0</ns3:atemp>
          </ns3:TrackPointExtension>
        </extensions>
      </trkpt>
      <trkpt lat="42.65501967631280422210693359375" lon="19.91622512228786945343017578125">
        <ele>893</ele>
        <time>2026-06-16T06:39:54.000Z</time>
        <extensions>
          <ns3:TrackPointExtension>
            <ns3:atemp>19.0</ns3:atemp>
          </ns3:TrackPointExtension>
        </extensions>
      </trkpt>
      <trkpt lat="42.655016072094440460205078125" lon="19.91614867933094501495361328125">
        <ele>893.20001220703125</ele>
        <time>2026-06-16T06:39:55.000Z</time>
        <extensions>
          <ns3:TrackPointExtension>
            <ns3:atemp>19.0</ns3:atemp>
          </ns3:TrackPointExtension>
        </extensions>
      </trkpt>
      <trkpt lat="42.65500743873417377471923828125" lon="19.91607793606817722320556640625">
        <ele>893.20001220703125</ele>
        <time>2026-06-16T06:39:56.000Z</time>
        <extensions>
          <ns3:TrackPointExtension>
            <ns3:atemp>19.0</ns3:atemp>
          </ns3:TrackPointExtension>
        </extensions>
      </trkpt>
      <trkpt lat="42.65499888919293880462646484375" lon="19.91600668989121913909912109375">
        <ele>893.20001220703125</ele>
        <time>2026-06-16T06:39:57.000Z</time>
        <extensions>
          <ns3:TrackPointExtension>
            <ns3:atemp>19.0</ns3:atemp>
          </ns3:TrackPointExtension>
        </extensions>
      </trkpt>
      <trkpt lat="42.65499503351747989654541015625" lon="19.91592563688755035400390625">
        <ele>893.4000244140625</ele>
        <time>2026-06-16T06:39:58.000Z</time>
        <extensions>
          <ns3:TrackPointExtension>
            <ns3:atemp>19.0</ns3:atemp>
          </ns3:TrackPointExtension>
        </extensions>
      </trkpt>
      <trkpt lat="42.654992602765560150146484375" lon="19.9158426560461521148681640625">
        <ele>893.4000244140625</ele>
        <time>2026-06-16T06:39:59.000Z</time>
        <extensions>
          <ns3:TrackPointExtension>
            <ns3:atemp>19.0</ns3:atemp>
          </ns3:TrackPointExtension>
        </extensions>
      </trkpt>
      <trkpt lat="42.65498782508075237274169921875" lon="19.91576135158538818359375">
        <ele>893.5999755859375</ele>
        <time>2026-06-16T06:40:00.000Z</time>
        <extensions>
          <ns3:TrackPointExtension>
            <ns3:atemp>19.0</ns3:atemp>
          </ns3:TrackPointExtension>
        </extensions>
      </trkpt>
      <trkpt lat="42.65497793443500995635986328125" lon="19.91568465717136859893798828125">
        <ele>893.79998779296875</ele>
        <time>2026-06-16T06:40:01.000Z</time>
        <extensions>
          <ns3:TrackPointExtension>
            <ns3:atemp>19.0</ns3:atemp>
          </ns3:TrackPointExtension>
        </extensions>
      </trkpt>
      <trkpt lat="42.65496653504669666290283203125" lon="19.91560368798673152923583984375">
        <ele>893.79998779296875</ele>
        <time>2026-06-16T06:40:02.000Z</time>
        <extensions>
          <ns3:TrackPointExtension>
            <ns3:atemp>19.0</ns3:atemp>
          </ns3:TrackPointExtension>
        </extensions>
      </trkpt>
      <trkpt lat="42.65496050007641315460205078125" lon="19.915524981915950775146484375">
        <ele>894</ele>
        <time>2026-06-16T06:40:03.000Z</time>
        <extensions>
          <ns3:TrackPointExtension>
            <ns3:atemp>19.0</ns3:atemp>
          </ns3:TrackPointExtension>
        </extensions>
      </trkpt>
      <trkpt lat="42.654958404600620269775390625" lon="19.9154453538358211517333984375">
        <ele>894</ele>
        <time>2026-06-16T06:40:04.000Z</time>
        <extensions>
          <ns3:TrackPointExtension>
            <ns3:atemp>19.0</ns3:atemp>
          </ns3:TrackPointExtension>
        </extensions>
      </trkpt>
      <trkpt lat="42.65495580621063709259033203125" lon="19.915369413793087005615234375">
        <ele>894.20001220703125</ele>
        <time>2026-06-16T06:40:05.000Z</time>
        <extensions>
          <ns3:TrackPointExtension>
            <ns3:atemp>19.0</ns3:atemp>
          </ns3:TrackPointExtension>
        </extensions>
      </trkpt>
      <trkpt lat="42.65495295636355876922607421875" lon="19.915292300283908843994140625">
        <ele>894.20001220703125</ele>
        <time>2026-06-16T06:40:06.000Z</time>
        <extensions>
          <ns3:TrackPointExtension>
            <ns3:atemp>19.0</ns3:atemp>
          </ns3:TrackPointExtension>
        </extensions>
      </trkpt>
      <trkpt lat="42.65495446510612964630126953125" lon="19.915211834013462066650390625">
        <ele>894.20001220703125</ele>
        <time>2026-06-16T06:40:07.000Z</time>
        <extensions>
          <ns3:TrackPointExtension>
            <ns3:atemp>19.0</ns3:atemp>
          </ns3:TrackPointExtension>
        </extensions>
      </trkpt>
      <trkpt lat="42.654955722391605377197265625" lon="19.91513279266655445098876953125">
        <ele>894</ele>
        <time>2026-06-16T06:40:08.000Z</time>
        <extensions>
          <ns3:TrackPointExtension>
            <ns3:atemp>19.0</ns3:atemp>
          </ns3:TrackPointExtension>
        </extensions>
      </trkpt>
      <trkpt lat="42.6549548842012882232666015625" lon="19.91505123674869537353515625">
        <ele>894.20001220703125</ele>
        <time>2026-06-16T06:40:09.000Z</time>
        <extensions>
          <ns3:TrackPointExtension>
            <ns3:atemp>19.0</ns3:atemp>
          </ns3:TrackPointExtension>
        </extensions>
      </trkpt>
      <trkpt lat="42.6549555547535419464111328125" lon="19.91496850736439228057861328125">
        <ele>894.20001220703125</ele>
        <time>2026-06-16T06:40:10.000Z</time>
        <extensions>
          <ns3:TrackPointExtension>
            <ns3:atemp>19.0</ns3:atemp>
          </ns3:TrackPointExtension>
        </extensions>
      </trkpt>
      <trkpt lat="42.6549567282199859619140625" lon="19.91488359868526458740234375">
        <ele>894.20001220703125</ele>
        <time>2026-06-16T06:40:11.000Z</time>
        <extensions>
          <ns3:TrackPointExtension>
            <ns3:atemp>19.0</ns3:atemp>
          </ns3:TrackPointExtension>
        </extensions>
      </trkpt>
      <trkpt lat="42.65495873987674713134765625" lon="19.914802797138690948486328125">
        <ele>894.20001220703125</ele>
        <time>2026-06-16T06:40:12.000Z</time>
        <extensions>
          <ns3:TrackPointExtension>
            <ns3:atemp>19.0</ns3:atemp>
          </ns3:TrackPointExtension>
        </extensions>
      </trkpt>
      <trkpt lat="42.65496217645704746246337890625" lon="19.91472207941114902496337890625">
        <ele>894.20001220703125</ele>
        <time>2026-06-16T06:40:13.000Z</time>
        <extensions>
          <ns3:TrackPointExtension>
            <ns3:atemp>19.0</ns3:atemp>
          </ns3:TrackPointExtension>
        </extensions>
      </trkpt>
      <trkpt lat="42.654966451227664947509765625" lon="19.91463976912200450897216796875">
        <ele>894.20001220703125</ele>
        <time>2026-06-16T06:40:14.000Z</time>
        <extensions>
          <ns3:TrackPointExtension>
            <ns3:atemp>19.0</ns3:atemp>
          </ns3:TrackPointExtension>
        </extensions>
      </trkpt>
      <trkpt lat="42.65497122891247272491455078125" lon="19.9145575426518917083740234375">
        <ele>894.20001220703125</ele>
        <time>2026-06-16T06:40:15.000Z</time>
        <extensions>
          <ns3:TrackPointExtension>
            <ns3:atemp>19.0</ns3:atemp>
          </ns3:TrackPointExtension>
        </extensions>
      </trkpt>
      <trkpt lat="42.65497776679694652557373046875" lon="19.91447447799146175384521484375">
        <ele>894.20001220703125</ele>
        <time>2026-06-16T06:40:16.000Z</time>
        <extensions>
          <ns3:TrackPointExtension>
            <ns3:atemp>19.0</ns3:atemp>
          </ns3:TrackPointExtension>
        </extensions>
      </trkpt>
      <trkpt lat="42.65498497523367404937744140625" lon="19.91439535282552242279052734375">
        <ele>894.20001220703125</ele>
        <time>2026-06-16T06:40:17.000Z</time>
        <extensions>
          <ns3:TrackPointExtension>
            <ns3:atemp>19.0</ns3:atemp>
          </ns3:TrackPointExtension>
        </extensions>
      </trkpt>
      <trkpt lat="42.6549915969371795654296875" lon="19.91431404836475849151611328125">
        <ele>894.20001220703125</ele>
        <time>2026-06-16T06:40:18.000Z</time>
        <extensions>
          <ns3:TrackPointExtension>
            <ns3:atemp>19.0</ns3:atemp>
          </ns3:TrackPointExtension>
        </extensions>
      </trkpt>
      <trkpt lat="42.6549971289932727813720703125" lon="19.9142316542565822601318359375">
        <ele>894</ele>
        <time>2026-06-16T06:40:19.000Z</time>
        <extensions>
          <ns3:TrackPointExtension>
            <ns3:atemp>19.0</ns3:atemp>
          </ns3:TrackPointExtension>
        </extensions>
      </trkpt>
      <trkpt lat="42.65500140376389026641845703125" lon="19.91414959542453289031982421875">
        <ele>893.79998779296875</ele>
        <time>2026-06-16T06:40:20.000Z</time>
        <extensions>
          <ns3:TrackPointExtension>
            <ns3:atemp>19.0</ns3:atemp>
          </ns3:TrackPointExtension>
        </extensions>
      </trkpt>
      <trkpt lat="42.65500693581998348236083984375" lon="19.914067871868610382080078125">
        <ele>893.79998779296875</ele>
        <time>2026-06-16T06:40:21.000Z</time>
        <extensions>
          <ns3:TrackPointExtension>
            <ns3:atemp>19.0</ns3:atemp>
          </ns3:TrackPointExtension>
        </extensions>
      </trkpt>
      <trkpt lat="42.6550165750086307525634765625" lon="19.91398447193205356597900390625">
        <ele>893.5999755859375</ele>
        <time>2026-06-16T06:40:22.000Z</time>
        <extensions>
          <ns3:TrackPointExtension>
            <ns3:atemp>19.0</ns3:atemp>
          </ns3:TrackPointExtension>
        </extensions>
      </trkpt>
      <trkpt lat="42.6550252921879291534423828125" lon="19.91390283219516277313232421875">
        <ele>893.4000244140625</ele>
        <time>2026-06-16T06:40:23.000Z</time>
        <extensions>
          <ns3:TrackPointExtension>
            <ns3:atemp>19.0</ns3:atemp>
          </ns3:TrackPointExtension>
        </extensions>
      </trkpt>
      <trkpt lat="42.6550291478633880615234375" lon="19.913823120296001434326171875">
        <ele>893.4000244140625</ele>
        <time>2026-06-16T06:40:24.000Z</time>
        <extensions>
          <ns3:TrackPointExtension>
            <ns3:atemp>19.0</ns3:atemp>
          </ns3:TrackPointExtension>
        </extensions>
      </trkpt>
      <trkpt lat="42.65503291971981525421142578125" lon="19.91373829543590545654296875">
        <ele>893.20001220703125</ele>
        <time>2026-06-16T06:40:25.000Z</time>
        <extensions>
          <ns3:TrackPointExtension>
            <ns3:atemp>19.0</ns3:atemp>
          </ns3:TrackPointExtension>
        </extensions>
      </trkpt>
      <trkpt lat="42.6550407148897647857666015625" lon="19.913661517202854156494140625">
        <ele>893</ele>
        <time>2026-06-16T06:40:26.000Z</time>
        <extensions>
          <ns3:TrackPointExtension>
            <ns3:atemp>19.0</ns3:atemp>
          </ns3:TrackPointExtension>
        </extensions>
      </trkpt>
      <trkpt lat="42.6550467498600482940673828125" lon="19.9135912768542766571044921875">
        <ele>893</ele>
        <time>2026-06-16T06:40:27.000Z</time>
        <extensions>
          <ns3:TrackPointExtension>
            <ns3:atemp>19.0</ns3:atemp>
          </ns3:TrackPointExtension>
        </extensions>
      </trkpt>
      <trkpt lat="42.6550501026213169097900390625" lon="19.91352698765695095062255859375">
        <ele>892.79998779296875</ele>
        <time>2026-06-16T06:40:28.000Z</time>
        <extensions>
          <ns3:TrackPointExtension>
            <ns3:atemp>19.0</ns3:atemp>
          </ns3:TrackPointExtension>
        </extensions>
      </trkpt>
      <trkpt lat="42.6550537906587123870849609375" lon="19.91346579976379871368408203125">
        <ele>892.79998779296875</ele>
        <time>2026-06-16T06:40:29.000Z</time>
        <extensions>
          <ns3:TrackPointExtension>
            <ns3:atemp>19.0</ns3:atemp>
          </ns3:TrackPointExtension>
        </extensions>
      </trkpt>
      <trkpt lat="42.65505488030612468719482421875" lon="19.9134058691561222076416015625">
        <ele>892.5999755859375</ele>
        <time>2026-06-16T06:40:30.000Z</time>
        <extensions>
          <ns3:TrackPointExtension>
            <ns3:atemp>19.0</ns3:atemp>
          </ns3:TrackPointExtension>
        </extensions>
      </trkpt>
      <trkpt lat="42.6550568081438541412353515625" lon="19.913341663777828216552734375">
        <ele>892.5999755859375</ele>
        <time>2026-06-16T06:40:31.000Z</time>
        <extensions>
          <ns3:TrackPointExtension>
            <ns3:atemp>19.0</ns3:atemp>
          </ns3:TrackPointExtension>
        </extensions>
      </trkpt>
      <trkpt lat="42.6550581492483615875244140625" lon="19.913269244134426116943359375">
        <ele>892.5999755859375</ele>
        <time>2026-06-16T06:40:32.000Z</time>
        <extensions>
          <ns3:TrackPointExtension>
            <ns3:atemp>19.0</ns3:atemp>
          </ns3:TrackPointExtension>
        </extensions>
      </trkpt>
      <trkpt lat="42.65506225638091564178466796875" lon="19.91319087333977222442626953125">
        <ele>892.4000244140625</ele>
        <time>2026-06-16T06:40:33.000Z</time>
        <extensions>
          <ns3:TrackPointExtension>
            <ns3:atemp>19.0</ns3:atemp>
          </ns3:TrackPointExtension>
        </extensions>
      </trkpt>
      <trkpt lat="42.65506711788475513458251953125" lon="19.9131088145077228546142578125">
        <ele>892.4000244140625</ele>
        <time>2026-06-16T06:40:34.000Z</time>
        <extensions>
          <ns3:TrackPointExtension>
            <ns3:atemp>19.0</ns3:atemp>
          </ns3:TrackPointExtension>
        </extensions>
      </trkpt>
      <trkpt lat="42.65507114119827747344970703125" lon="19.9130286835134029388427734375">
        <ele>892.20001220703125</ele>
        <time>2026-06-16T06:40:35.000Z</time>
        <extensions>
          <ns3:TrackPointExtension>
            <ns3:atemp>19.0</ns3:atemp>
          </ns3:TrackPointExtension>
        </extensions>
      </trkpt>
      <trkpt lat="42.65506829135119915008544921875" lon="19.91294813342392444610595703125">
        <ele>892</ele>
        <time>2026-06-16T06:40:36.000Z</time>
        <extensions>
          <ns3:TrackPointExtension>
            <ns3:atemp>19.0</ns3:atemp>
          </ns3:TrackPointExtension>
        </extensions>
      </trkpt>
      <trkpt lat="42.655056975781917572021484375" lon="19.9128838442265987396240234375">
        <ele>892</ele>
        <time>2026-06-16T06:40:37.000Z</time>
        <extensions>
          <ns3:TrackPointExtension>
            <ns3:atemp>19.0</ns3:atemp>
          </ns3:TrackPointExtension>
        </extensions>
      </trkpt>
      <trkpt lat="42.6550343446433544158935546875" lon="19.91284118033945560455322265625">
        <ele>892</ele>
        <time>2026-06-16T06:40:38.000Z</time>
        <extensions>
          <ns3:TrackPointExtension>
            <ns3:atemp>19.0</ns3:atemp>
          </ns3:TrackPointExtension>
        </extensions>
      </trkpt>
      <trkpt lat="42.6550105400383472442626953125" lon="19.91280832327902317047119140625">
        <ele>891.79998779296875</ele>
        <time>2026-06-16T06:40:39.000Z</time>
        <extensions>
          <ns3:TrackPointExtension>
            <ns3:atemp>19.0</ns3:atemp>
          </ns3:TrackPointExtension>
        </extensions>
      </trkpt>
      <trkpt lat="42.654987908899784088134765625" lon="19.91277814842760562896728515625">
        <ele>891.79998779296875</ele>
        <time>2026-06-16T06:40:40.000Z</time>
        <extensions>
          <ns3:TrackPointExtension>
            <ns3:atemp>19.0</ns3:atemp>
          </ns3:TrackPointExtension>
        </extensions>
      </trkpt>
      <trkpt lat="42.654965110123157501220703125" lon="19.91275484673678874969482421875">
        <ele>891.79998779296875</ele>
        <time>2026-06-16T06:40:41.000Z</time>
        <extensions>
          <ns3:TrackPointExtension>
            <ns3:atemp>19.0</ns3:atemp>
          </ns3:TrackPointExtension>
        </extensions>
      </trkpt>
      <trkpt lat="42.6549471728503704071044921875" lon="19.91273380815982818603515625">
        <ele>891.79998779296875</ele>
        <time>2026-06-16T06:40:42.000Z</time>
        <extensions>
          <ns3:TrackPointExtension>
            <ns3:atemp>19.0</ns3:atemp>
          </ns3:TrackPointExtension>
        </extensions>
      </trkpt>
      <trkpt lat="42.65493870712816715240478515625" lon="19.91271293722093105316162109375">
        <ele>892</ele>
        <time>2026-06-16T06:40:43.000Z</time>
        <extensions>
          <ns3:TrackPointExtension>
            <ns3:atemp>19.0</ns3:atemp>
          </ns3:TrackPointExtension>
        </extensions>
      </trkpt>
      <trkpt lat="42.6549354381859302520751953125" lon="19.91269223392009735107421875">
        <ele>892.20001220703125</ele>
        <time>2026-06-16T06:40:44.000Z</time>
        <extensions>
          <ns3:TrackPointExtension>
            <ns3:atemp>19.0</ns3:atemp>
          </ns3:TrackPointExtension>
        </extensions>
      </trkpt>
      <trkpt lat="42.65492856502532958984375" lon="19.91267069242894649505615234375">
        <ele>892.4000244140625</ele>
        <time>2026-06-16T06:40:45.000Z</time>
        <extensions>
          <ns3:TrackPointExtension>
            <ns3:atemp>19.0</ns3:atemp>
          </ns3:TrackPointExtension>
        </extensions>
      </trkpt>
      <trkpt lat="42.654926218092441558837890625" lon="19.9126406013965606689453125">
        <ele>893</ele>
        <time>2026-06-16T06:40:46.000Z</time>
        <extensions>
          <ns3:TrackPointExtension>
            <ns3:atemp>19.0</ns3:atemp>
          </ns3:TrackPointExtension>
        </extensions>
      </trkpt>
      <trkpt lat="42.6549232006072998046875" lon="19.912610091269016265869140625">
        <ele>893.20001220703125</ele>
        <time>2026-06-16T06:40:47.000Z</time>
        <extensions>
          <ns3:TrackPointExtension>
            <ns3:atemp>19.0</ns3:atemp>
          </ns3:TrackPointExtension>
        </extensions>
      </trkpt>
      <trkpt lat="42.65491875819861888885498046875" lon="19.91257832385599613189697265625">
        <ele>893.5999755859375</ele>
        <time>2026-06-16T06:40:48.000Z</time>
        <extensions>
          <ns3:TrackPointExtension>
            <ns3:atemp>19.0</ns3:atemp>
          </ns3:TrackPointExtension>
        </extensions>
      </trkpt>
      <trkpt lat="42.654915153980255126953125" lon="19.91254261694848537445068359375">
        <ele>894.20001220703125</ele>
        <time>2026-06-16T06:40:49.000Z</time>
        <extensions>
          <ns3:TrackPointExtension>
            <ns3:atemp>19.0</ns3:atemp>
          </ns3:TrackPointExtension>
        </extensions>
      </trkpt>
      <trkpt lat="42.65491314232349395751953125" lon="19.91250875405967235565185546875">
        <ele>894.5999755859375</ele>
        <time>2026-06-16T06:40:50.000Z</time>
        <extensions>
          <ns3:TrackPointExtension>
            <ns3:atemp>19.0</ns3:atemp>
          </ns3:TrackPointExtension>
        </extensions>
      </trkpt>
      <trkpt lat="42.654908113181591033935546875" lon="19.9124811775982379913330078125">
        <ele>894.79998779296875</ele>
        <time>2026-06-16T06:40:51.000Z</time>
        <extensions>
          <ns3:TrackPointExtension>
            <ns3:atemp>19.0</ns3:atemp>
          </ns3:TrackPointExtension>
        </extensions>
      </trkpt>
      <trkpt lat="42.6549062691628932952880859375" lon="19.91245628334581851959228515625">
        <ele>895.20001220703125</ele>
        <time>2026-06-16T06:40:52.000Z</time>
        <extensions>
          <ns3:TrackPointExtension>
            <ns3:atemp>19.0</ns3:atemp>
          </ns3:TrackPointExtension>
        </extensions>
      </trkpt>
      <trkpt lat="42.654906101524829864501953125" lon="19.9124318920075893402099609375">
        <ele>895.5999755859375</ele>
        <time>2026-06-16T06:40:53.000Z</time>
        <extensions>
          <ns3:TrackPointExtension>
            <ns3:atemp>19.0</ns3:atemp>
          </ns3:TrackPointExtension>
        </extensions>
      </trkpt>
      <trkpt lat="42.6549052633345127105712890625" lon="19.9124072492122650146484375">
        <ele>895.79998779296875</ele>
        <time>2026-06-16T06:40:54.000Z</time>
        <extensions>
          <ns3:TrackPointExtension>
            <ns3:atemp>19.0</ns3:atemp>
          </ns3:TrackPointExtension>
        </extensions>
      </trkpt>
      <trkpt lat="42.65490316785871982574462890625" lon="19.91238101385533809661865234375">
        <ele>896.20001220703125</ele>
        <time>2026-06-16T06:40:55.000Z</time>
        <extensions>
          <ns3:TrackPointExtension>
            <ns3:atemp>19.0</ns3:atemp>
          </ns3:TrackPointExtension>
        </extensions>
      </trkpt>
      <trkpt lat="42.65489545650780200958251953125" lon="19.9123534373939037322998046875">
        <ele>896.4000244140625</ele>
        <time>2026-06-16T06:40:56.000Z</time>
        <extensions>
          <ns3:TrackPointExtension>
            <ns3:atemp>19.0</ns3:atemp>
          </ns3:TrackPointExtension>
        </extensions>
      </trkpt>
      <trkpt lat="42.6548888348042964935302734375" lon="19.91232854314148426055908203125">
        <ele>896.79998779296875</ele>
        <time>2026-06-16T06:40:57.000Z</time>
        <extensions>
          <ns3:TrackPointExtension>
            <ns3:atemp>19.0</ns3:atemp>
          </ns3:TrackPointExtension>
        </extensions>
      </trkpt>
      <trkpt lat="42.6548807881772518157958984375" lon="19.912302978336811065673828125">
        <ele>897</ele>
        <time>2026-06-16T06:40:58.000Z</time>
        <extensions>
          <ns3:TrackPointExtension>
            <ns3:atemp>19.0</ns3:atemp>
          </ns3:TrackPointExtension>
        </extensions>
      </trkpt>
      <trkpt lat="42.654875256121158599853515625" lon="19.91227875463664531707763671875">
        <ele>897.20001220703125</ele>
        <time>2026-06-16T06:40:59.000Z</time>
        <extensions>
          <ns3:TrackPointExtension>
            <ns3:atemp>19.0</ns3:atemp>
          </ns3:TrackPointExtension>
        </extensions>
      </trkpt>
      <trkpt lat="42.65486980788409709930419921875" lon="19.91225511766970157623291015625">
        <ele>897.5999755859375</ele>
        <time>2026-06-16T06:41:00.000Z</time>
        <extensions>
          <ns3:TrackPointExtension>
            <ns3:atemp>19.0</ns3:atemp>
          </ns3:TrackPointExtension>
        </extensions>
      </trkpt>
      <trkpt lat="42.6548630185425281524658203125" lon="19.9122360907495021820068359375">
        <ele>897.79998779296875</ele>
        <time>2026-06-16T06:41:01.000Z</time>
        <extensions>
          <ns3:TrackPointExtension>
            <ns3:atemp>19.0</ns3:atemp>
          </ns3:TrackPointExtension>
        </extensions>
      </trkpt>
      <trkpt lat="42.65485455282032489776611328125" lon="19.91221521981060504913330078125">
        <ele>898.20001220703125</ele>
        <time>2026-06-16T06:41:02.000Z</time>
        <extensions>
          <ns3:TrackPointExtension>
            <ns3:atemp>19.0</ns3:atemp>
          </ns3:TrackPointExtension>
        </extensions>
      </trkpt>
      <trkpt lat="42.6548449136316776275634765625" lon="19.91219258867204189300537109375">
        <ele>898.4000244140625</ele>
        <time>2026-06-16T06:41:03.000Z</time>
        <extensions>
          <ns3:TrackPointExtension>
            <ns3:atemp>19.0</ns3:atemp>
          </ns3:TrackPointExtension>
        </extensions>
      </trkpt>
      <trkpt lat="42.6548331789672374725341796875" lon="19.91217515431344509124755859375">
        <ele>898.5999755859375</ele>
        <time>2026-06-16T06:41:04.000Z</time>
        <extensions>
          <ns3:TrackPointExtension>
            <ns3:atemp>19.0</ns3:atemp>
          </ns3:TrackPointExtension>
        </extensions>
      </trkpt>
      <trkpt lat="42.654822953045368194580078125" lon="19.9121536128222942352294921875">
        <ele>899</ele>
        <time>2026-06-16T06:41:05.000Z</time>
        <extensions>
          <ns3:TrackPointExtension>
            <ns3:atemp>19.0</ns3:atemp>
          </ns3:TrackPointExtension>
        </extensions>
      </trkpt>
      <trkpt lat="42.65481063164770603179931640625" lon="19.91213425062596797943115234375">
        <ele>899.20001220703125</ele>
        <time>2026-06-16T06:41:06.000Z</time>
        <extensions>
          <ns3:TrackPointExtension>
            <ns3:atemp>19.0</ns3:atemp>
          </ns3:TrackPointExtension>
        </extensions>
      </trkpt>
      <trkpt lat="42.65479805879294872283935546875" lon="19.91211564280092716217041015625">
        <ele>899.4000244140625</ele>
        <time>2026-06-16T06:41:07.000Z</time>
        <extensions>
          <ns3:TrackPointExtension>
            <ns3:atemp>19.0</ns3:atemp>
          </ns3:TrackPointExtension>
        </extensions>
      </trkpt>
      <trkpt lat="42.6547859050333499908447265625" lon="19.91209887899458408355712890625">
        <ele>899.5999755859375</ele>
        <time>2026-06-16T06:41:08.000Z</time>
        <extensions>
          <ns3:TrackPointExtension>
            <ns3:atemp>19.0</ns3:atemp>
          </ns3:TrackPointExtension>
        </extensions>
      </trkpt>
      <trkpt lat="42.6547741703689098358154296875" lon="19.91208379156887531280517578125">
        <ele>899.79998779296875</ele>
        <time>2026-06-16T06:41:09.000Z</time>
        <extensions>
          <ns3:TrackPointExtension>
            <ns3:atemp>19.0</ns3:atemp>
          </ns3:TrackPointExtension>
        </extensions>
      </trkpt>
      <trkpt lat="42.65476151369512081146240234375" lon="19.91206283681094646453857421875">
        <ele>900.20001220703125</ele>
        <time>2026-06-16T06:41:10.000Z</time>
        <extensions>
          <ns3:TrackPointExtension>
            <ns3:atemp>19.0</ns3:atemp>
          </ns3:TrackPointExtension>
        </extensions>
      </trkpt>
      <trkpt lat="42.65474793501198291778564453125" lon="19.912042804062366485595703125">
        <ele>900.4000244140625</ele>
        <time>2026-06-16T06:41:11.000Z</time>
        <extensions>
          <ns3:TrackPointExtension>
            <ns3:atemp>19.0</ns3:atemp>
          </ns3:TrackPointExtension>
        </extensions>
      </trkpt>
      <trkpt lat="42.65473544597625732421875" lon="19.91202880628407001495361328125">
        <ele>900.79998779296875</ele>
        <time>2026-06-16T06:41:12.000Z</time>
        <extensions>
          <ns3:TrackPointExtension>
            <ns3:atemp>19.0</ns3:atemp>
          </ns3:TrackPointExtension>
        </extensions>
      </trkpt>
      <trkpt lat="42.65472245402634143829345703125" lon="19.91201321594417095184326171875">
        <ele>901.20001220703125</ele>
        <time>2026-06-16T06:41:13.000Z</time>
        <extensions>
          <ns3:TrackPointExtension>
            <ns3:atemp>19.0</ns3:atemp>
          </ns3:TrackPointExtension>
        </extensions>
      </trkpt>
      <trkpt lat="42.65470971353352069854736328125" lon="19.911995194852352142333984375">
        <ele>901.4000244140625</ele>
        <time>2026-06-16T06:41:14.000Z</time>
        <extensions>
          <ns3:TrackPointExtension>
            <ns3:atemp>19.0</ns3:atemp>
          </ns3:TrackPointExtension>
        </extensions>
      </trkpt>
      <trkpt lat="42.6546957157552242279052734375" lon="19.91197516210377216339111328125">
        <ele>901.5999755859375</ele>
        <time>2026-06-16T06:41:15.000Z</time>
        <extensions>
          <ns3:TrackPointExtension>
            <ns3:atemp>19.0</ns3:atemp>
          </ns3:TrackPointExtension>
        </extensions>
      </trkpt>
      <trkpt lat="42.65468238852918148040771484375" lon="19.911958985030651092529296875">
        <ele>901.79998779296875</ele>
        <time>2026-06-16T06:41:16.000Z</time>
        <extensions>
          <ns3:TrackPointExtension>
            <ns3:atemp>19.0</ns3:atemp>
          </ns3:TrackPointExtension>
        </extensions>
      </trkpt>
      <trkpt lat="42.65467048622667789459228515625" lon="19.91194180212914943695068359375">
        <ele>902.20001220703125</ele>
        <time>2026-06-16T06:41:17.000Z</time>
        <extensions>
          <ns3:TrackPointExtension>
            <ns3:atemp>19.0</ns3:atemp>
          </ns3:TrackPointExtension>
        </extensions>
      </trkpt>
      <trkpt lat="42.6546611823141574859619140625" lon="19.91192369721829891204833984375">
        <ele>902.4000244140625</ele>
        <time>2026-06-16T06:41:18.000Z</time>
        <extensions>
          <ns3:TrackPointExtension>
            <ns3:atemp>19.0</ns3:atemp>
          </ns3:TrackPointExtension>
        </extensions>
      </trkpt>
      <trkpt lat="42.65465070493519306182861328125" lon="19.9119058437645435333251953125">
        <ele>902.5999755859375</ele>
        <time>2026-06-16T06:41:19.000Z</time>
        <extensions>
          <ns3:TrackPointExtension>
            <ns3:atemp>19.0</ns3:atemp>
          </ns3:TrackPointExtension>
        </extensions>
      </trkpt>
      <trkpt lat="42.65464081428945064544677734375" lon="19.9118904210627079010009765625">
        <ele>903</ele>
        <time>2026-06-16T06:41:20.000Z</time>
        <extensions>
          <ns3:TrackPointExtension>
            <ns3:atemp>19.0</ns3:atemp>
          </ns3:TrackPointExtension>
        </extensions>
      </trkpt>
      <trkpt lat="42.654628492891788482666015625" lon="19.9118681252002716064453125">
        <ele>903.20001220703125</ele>
        <time>2026-06-16T06:41:21.000Z</time>
        <extensions>
          <ns3:TrackPointExtension>
            <ns3:atemp>19.0</ns3:atemp>
          </ns3:TrackPointExtension>
        </extensions>
      </trkpt>
      <trkpt lat="42.65461382456123828887939453125" lon="19.91184876300394535064697265625">
        <ele>903.4000244140625</ele>
        <time>2026-06-16T06:41:22.000Z</time>
        <extensions>
          <ns3:TrackPointExtension>
            <ns3:atemp>19.0</ns3:atemp>
          </ns3:TrackPointExtension>
        </extensions>
      </trkpt>
      <trkpt lat="42.65459907241165637969970703125" lon="19.91183099336922168731689453125">
        <ele>903.5999755859375</ele>
        <time>2026-06-16T06:41:23.000Z</time>
        <extensions>
          <ns3:TrackPointExtension>
            <ns3:atemp>19.0</ns3:atemp>
          </ns3:TrackPointExtension>
        </extensions>
      </trkpt>
      <trkpt lat="42.65458834357559680938720703125" lon="19.9118077754974365234375">
        <ele>903.79998779296875</ele>
        <time>2026-06-16T06:41:24.000Z</time>
        <extensions>
          <ns3:TrackPointExtension>
            <ns3:atemp>19.0</ns3:atemp>
          </ns3:TrackPointExtension>
        </extensions>
      </trkpt>
      <trkpt lat="42.65457543544471263885498046875" lon="19.91178858093917369842529296875">
        <ele>904</ele>
        <time>2026-06-16T06:41:25.000Z</time>
        <extensions>
          <ns3:TrackPointExtension>
            <ns3:atemp>19.0</ns3:atemp>
          </ns3:TrackPointExtension>
        </extensions>
      </trkpt>
      <trkpt lat="42.654562108218669891357421875" lon="19.91176779381930828094482421875">
        <ele>904.20001220703125</ele>
        <time>2026-06-16T06:41:26.000Z</time>
        <extensions>
          <ns3:TrackPointExtension>
            <ns3:atemp>19.0</ns3:atemp>
          </ns3:TrackPointExtension>
        </extensions>
      </trkpt>
      <trkpt lat="42.65455096028745174407958984375" lon="19.9117501080036163330078125">
        <ele>904.5999755859375</ele>
        <time>2026-06-16T06:41:27.000Z</time>
        <extensions>
          <ns3:TrackPointExtension>
            <ns3:atemp>19.0</ns3:atemp>
          </ns3:TrackPointExtension>
        </extensions>
      </trkpt>
      <trkpt lat="42.65454257838428020477294921875" lon="19.91172932088375091552734375">
        <ele>904.79998779296875</ele>
        <time>2026-06-16T06:41:28.000Z</time>
        <extensions>
          <ns3:TrackPointExtension>
            <ns3:atemp>19.0</ns3:atemp>
          </ns3:TrackPointExtension>
        </extensions>
      </trkpt>
      <trkpt lat="42.6545277424156665802001953125" lon="19.91171188652515411376953125">
        <ele>905</ele>
        <time>2026-06-16T06:41:29.000Z</time>
        <extensions>
          <ns3:TrackPointExtension>
            <ns3:atemp>19.0</ns3:atemp>
          </ns3:TrackPointExtension>
        </extensions>
      </trkpt>
      <trkpt lat="42.6545133255422115325927734375" lon="19.91168917156755924224853515625">
        <ele>905.20001220703125</ele>
        <time>2026-06-16T06:41:30.000Z</time>
        <extensions>
          <ns3:TrackPointExtension>
            <ns3:atemp>19.0</ns3:atemp>
          </ns3:TrackPointExtension>
        </extensions>
      </trkpt>
      <trkpt lat="42.65449932776391506195068359375" lon="19.91166989319026470184326171875">
        <ele>905.5999755859375</ele>
        <time>2026-06-16T06:41:31.000Z</time>
        <extensions>
          <ns3:TrackPointExtension>
            <ns3:atemp>19.0</ns3:atemp>
          </ns3:TrackPointExtension>
        </extensions>
      </trkpt>
      <trkpt lat="42.65448130667209625244140625" lon="19.911655895411968231201171875">
        <ele>905.79998779296875</ele>
        <time>2026-06-16T06:41:32.000Z</time>
        <extensions>
          <ns3:TrackPointExtension>
            <ns3:atemp>19.0</ns3:atemp>
          </ns3:TrackPointExtension>
        </extensions>
      </trkpt>
      <trkpt lat="42.6544632017612457275390625" lon="19.911639802157878875732421875">
        <ele>906</ele>
        <time>2026-06-16T06:41:33.000Z</time>
        <extensions>
          <ns3:TrackPointExtension>
            <ns3:atemp>19.0</ns3:atemp>
          </ns3:TrackPointExtension>
        </extensions>
      </trkpt>
      <trkpt lat="42.6544429175555706024169921875" lon="19.91162337362766265869140625">
        <ele>906.20001220703125</ele>
        <time>2026-06-16T06:41:34.000Z</time>
        <extensions>
          <ns3:TrackPointExtension>
            <ns3:atemp>19.0</ns3:atemp>
          </ns3:TrackPointExtension>
        </extensions>
      </trkpt>
      <trkpt lat="42.6544204540550708770751953125" lon="19.911604262888431549072265625">
        <ele>906.4000244140625</ele>
        <time>2026-06-16T06:41:35.000Z</time>
        <extensions>
          <ns3:TrackPointExtension>
            <ns3:atemp>19.0</ns3:atemp>
          </ns3:TrackPointExtension>
        </extensions>
      </trkpt>
      <trkpt lat="42.65439941547811031341552734375" lon="19.91158590652048587799072265625">
        <ele>906.79998779296875</ele>
        <time>2026-06-16T06:41:36.000Z</time>
        <extensions>
          <ns3:TrackPointExtension>
            <ns3:atemp>19.0</ns3:atemp>
          </ns3:TrackPointExtension>
        </extensions>
      </trkpt>
      <trkpt lat="42.6543815620243549346923828125" lon="19.91156729869544506072998046875">
        <ele>907</ele>
        <time>2026-06-16T06:41:37.000Z</time>
        <extensions>
          <ns3:TrackPointExtension>
            <ns3:atemp>19.0</ns3:atemp>
          </ns3:TrackPointExtension>
        </extensions>
      </trkpt>
      <trkpt lat="42.6543644629418849945068359375" lon="19.91154399700462818145751953125">
        <ele>907.4000244140625</ele>
        <time>2026-06-16T06:41:38.000Z</time>
        <extensions>
          <ns3:TrackPointExtension>
            <ns3:atemp>19.0</ns3:atemp>
          </ns3:TrackPointExtension>
        </extensions>
      </trkpt>
      <trkpt lat="42.6543483696877956390380859375" lon="19.91152413189411163330078125">
        <ele>907.5999755859375</ele>
        <time>2026-06-16T06:41:39.000Z</time>
        <extensions>
          <ns3:TrackPointExtension>
            <ns3:atemp>19.0</ns3:atemp>
          </ns3:TrackPointExtension>
        </extensions>
      </trkpt>
      <trkpt lat="42.65433185733854770660400390625" lon="19.91150594316422939300537109375">
        <ele>907.79998779296875</ele>
        <time>2026-06-16T06:41:40.000Z</time>
        <extensions>
          <ns3:TrackPointExtension>
            <ns3:atemp>19.0</ns3:atemp>
          </ns3:TrackPointExtension>
        </extensions>
      </trkpt>
      <trkpt lat="42.654319703578948974609375" lon="19.91149269975721836090087890625">
        <ele>908</ele>
        <time>2026-06-16T06:41:41.000Z</time>
        <extensions>
          <ns3:TrackPointExtension>
            <ns3:atemp>19.0</ns3:atemp>
          </ns3:TrackPointExtension>
        </extensions>
      </trkpt>
      <trkpt lat="42.65430872328579425811767578125" lon="19.91147677414119243621826171875">
        <ele>908.20001220703125</ele>
        <time>2026-06-16T06:41:42.000Z</time>
        <extensions>
          <ns3:TrackPointExtension>
            <ns3:atemp>19.0</ns3:atemp>
          </ns3:TrackPointExtension>
        </extensions>
      </trkpt>
      <trkpt lat="42.654297910630702972412109375" lon="19.91146017797291278839111328125">
        <ele>908.5999755859375</ele>
        <time>2026-06-16T06:41:43.000Z</time>
        <extensions>
          <ns3:TrackPointExtension>
            <ns3:atemp>19.0</ns3:atemp>
          </ns3:TrackPointExtension>
        </extensions>
      </trkpt>
      <trkpt lat="42.6542850024998188018798828125" lon="19.911442659795284271240234375">
        <ele>909</ele>
        <time>2026-06-16T06:41:44.000Z</time>
        <extensions>
          <ns3:TrackPointExtension>
            <ns3:atemp>19.0</ns3:atemp>
          </ns3:TrackPointExtension>
        </extensions>
      </trkpt>
      <trkpt lat="42.6542729325592517852783203125" lon="19.911425225436687469482421875">
        <ele>909.20001220703125</ele>
        <time>2026-06-16T06:41:45.000Z</time>
        <extensions>
          <ns3:TrackPointExtension>
            <ns3:atemp>19.0</ns3:atemp>
          </ns3:TrackPointExtension>
        </extensions>
      </trkpt>
      <trkpt lat="42.6542568393051624298095703125" lon="19.91140686906874179840087890625">
        <ele>909.4000244140625</ele>
        <time>2026-06-16T06:41:46.000Z</time>
        <extensions>
          <ns3:TrackPointExtension>
            <ns3:atemp>19.0</ns3:atemp>
          </ns3:TrackPointExtension>
        </extensions>
      </trkpt>
      <trkpt lat="42.6542481221258640289306640625" lon="19.91138775832951068878173828125">
        <ele>909.5999755859375</ele>
        <time>2026-06-16T06:41:47.000Z</time>
        <extensions>
          <ns3:TrackPointExtension>
            <ns3:atemp>19.0</ns3:atemp>
          </ns3:TrackPointExtension>
        </extensions>
      </trkpt>
      <trkpt lat="42.65423798002302646636962890625" lon="19.91136931814253330230712890625">
        <ele>910</ele>
        <time>2026-06-16T06:41:48.000Z</time>
        <extensions>
          <ns3:TrackPointExtension>
            <ns3:atemp>19.0</ns3:atemp>
          </ns3:TrackPointExtension>
        </extensions>
      </trkpt>
      <trkpt lat="42.65422515571117401123046875" lon="19.91135515272617340087890625">
        <ele>910.20001220703125</ele>
        <time>2026-06-16T06:41:49.000Z</time>
        <extensions>
          <ns3:TrackPointExtension>
            <ns3:atemp>19.0</ns3:atemp>
          </ns3:TrackPointExtension>
        </extensions>
      </trkpt>
      <trkpt lat="42.6542099006474018096923828125" lon="19.9113412387669086456298828125">
        <ele>910.4000244140625</ele>
        <time>2026-06-16T06:41:50.000Z</time>
        <extensions>
          <ns3:TrackPointExtension>
            <ns3:atemp>19.0</ns3:atemp>
          </ns3:TrackPointExtension>
        </extensions>
      </trkpt>
      <trkpt lat="42.654193975031375885009765625" lon="19.91132120601832866668701171875">
        <ele>910.79998779296875</ele>
        <time>2026-06-16T06:41:51.000Z</time>
        <extensions>
          <ns3:TrackPointExtension>
            <ns3:atemp>19.0</ns3:atemp>
          </ns3:TrackPointExtension>
        </extensions>
      </trkpt>
      <trkpt lat="42.6541820727288722991943359375" lon="19.91130150854587554931640625">
        <ele>911</ele>
        <time>2026-06-16T06:41:52.000Z</time>
        <extensions>
          <ns3:TrackPointExtension>
            <ns3:atemp>19.0</ns3:atemp>
          </ns3:TrackPointExtension>
        </extensions>
      </trkpt>
      <trkpt lat="42.654169499874114990234375" lon="19.911279380321502685546875">
        <ele>911.20001220703125</ele>
        <time>2026-06-16T06:41:53.000Z</time>
        <extensions>
          <ns3:TrackPointExtension>
            <ns3:atemp>19.0</ns3:atemp>
          </ns3:TrackPointExtension>
        </extensions>
      </trkpt>
      <trkpt lat="42.65415986068546772003173828125" lon="19.9112570844590663909912109375">
        <ele>911.5999755859375</ele>
        <time>2026-06-16T06:41:54.000Z</time>
        <extensions>
          <ns3:TrackPointExtension>
            <ns3:atemp>19.0</ns3:atemp>
          </ns3:TrackPointExtension>
        </extensions>
      </trkpt>
      <trkpt lat="42.65414871275424957275390625" lon="19.91123235784471035003662109375">
        <ele>911.79998779296875</ele>
        <time>2026-06-16T06:41:55.000Z</time>
        <extensions>
          <ns3:TrackPointExtension>
            <ns3:atemp>19.0</ns3:atemp>
          </ns3:TrackPointExtension>
        </extensions>
      </trkpt>
      <trkpt lat="42.6541428454220294952392578125" lon="19.91120419465005397796630859375">
        <ele>912</ele>
        <time>2026-06-16T06:41:56.000Z</time>
        <extensions>
          <ns3:TrackPointExtension>
            <ns3:atemp>19.0</ns3:atemp>
          </ns3:TrackPointExtension>
        </extensions>
      </trkpt>
      <trkpt lat="42.65413974411785602569580078125" lon="19.91118206642568111419677734375">
        <ele>912.4000244140625</ele>
        <time>2026-06-16T06:41:57.000Z</time>
        <extensions>
          <ns3:TrackPointExtension>
            <ns3:atemp>19.0</ns3:atemp>
          </ns3:TrackPointExtension>
        </extensions>
      </trkpt>
      <trkpt lat="42.65413320623338222503662109375" lon="19.911154322326183319091796875">
        <ele>912.5999755859375</ele>
        <time>2026-06-16T06:41:58.000Z</time>
        <extensions>
          <ns3:TrackPointExtension>
            <ns3:atemp>19.0</ns3:atemp>
          </ns3:TrackPointExtension>
        </extensions>
      </trkpt>
      <trkpt lat="42.65412733890116214752197265625" lon="19.91113127209246158599853515625">
        <ele>912.79998779296875</ele>
        <time>2026-06-16T06:41:59.000Z</time>
        <extensions>
          <ns3:TrackPointExtension>
            <ns3:atemp>19.0</ns3:atemp>
          </ns3:TrackPointExtension>
        </extensions>
      </trkpt>
      <trkpt lat="42.654122896492481231689453125" lon="19.9111025221645832061767578125">
        <ele>913</ele>
        <time>2026-06-16T06:42:00.000Z</time>
        <extensions>
          <ns3:TrackPointExtension>
            <ns3:atemp>19.0</ns3:atemp>
          </ns3:TrackPointExtension>
        </extensions>
      </trkpt>
      <trkpt lat="42.654121220111846923828125" lon="19.9110736884176731109619140625">
        <ele>913.20001220703125</ele>
        <time>2026-06-16T06:42:01.000Z</time>
        <extensions>
          <ns3:TrackPointExtension>
            <ns3:atemp>19.0</ns3:atemp>
          </ns3:TrackPointExtension>
        </extensions>
      </trkpt>
      <trkpt lat="42.6541217230260372161865234375" lon="19.91105474531650543212890625">
        <ele>913.5999755859375</ele>
        <time>2026-06-16T06:42:02.000Z</time>
        <extensions>
          <ns3:TrackPointExtension>
            <ns3:atemp>19.0</ns3:atemp>
          </ns3:TrackPointExtension>
        </extensions>
      </trkpt>
      <trkpt lat="42.6541173644363880157470703125" lon="19.91103454492986202239990234375">
        <ele>913.5999755859375</ele>
        <time>2026-06-16T06:42:03.000Z</time>
        <extensions>
          <ns3:TrackPointExtension>
            <ns3:atemp>19.0</ns3:atemp>
          </ns3:TrackPointExtension>
        </extensions>
      </trkpt>
      <trkpt lat="42.6541130058467388153076171875" lon="19.911010824143886566162109375">
        <ele>914</ele>
        <time>2026-06-16T06:42:04.000Z</time>
        <extensions>
          <ns3:TrackPointExtension>
            <ns3:atemp>19.0</ns3:atemp>
          </ns3:TrackPointExtension>
        </extensions>
      </trkpt>
      <trkpt lat="42.65410588122904300689697265625" lon="19.91099079139530658721923828125">
        <ele>914.20001220703125</ele>
        <time>2026-06-16T06:42:05.000Z</time>
        <extensions>
          <ns3:TrackPointExtension>
            <ns3:atemp>19.0</ns3:atemp>
          </ns3:TrackPointExtension>
        </extensions>
      </trkpt>
      <trkpt lat="42.6540942303836345672607421875" lon="19.91097168065607547760009765625">
        <ele>914.4000244140625</ele>
        <time>2026-06-16T06:42:06.000Z</time>
        <extensions>
          <ns3:TrackPointExtension>
            <ns3:atemp>19.0</ns3:atemp>
          </ns3:TrackPointExtension>
        </extensions>
      </trkpt>
      <trkpt lat="42.65408274717628955841064453125" lon="19.9109529890120029449462890625">
        <ele>914.5999755859375</ele>
        <time>2026-06-16T06:42:07.000Z</time>
        <extensions>
          <ns3:TrackPointExtension>
            <ns3:atemp>19.0</ns3:atemp>
          </ns3:TrackPointExtension>
        </extensions>
      </trkpt>
      <trkpt lat="42.65406749211251735687255859375" lon="19.9109325371682643890380859375">
        <ele>915</ele>
        <time>2026-06-16T06:42:08.000Z</time>
        <extensions>
          <ns3:TrackPointExtension>
            <ns3:atemp>19.0</ns3:atemp>
          </ns3:TrackPointExtension>
        </extensions>
      </trkpt>
      <trkpt lat="42.65405273996293544769287109375" lon="19.91090881638228893280029296875">
        <ele>915.20001220703125</ele>
        <time>2026-06-16T06:42:09.000Z</time>
        <extensions>
          <ns3:TrackPointExtension>
            <ns3:atemp>19.0</ns3:atemp>
          </ns3:TrackPointExtension>
        </extensions>
      </trkpt>
      <trkpt lat="42.654042430222034454345703125" lon="19.9108859337866306304931640625">
        <ele>915.4000244140625</ele>
        <time>2026-06-16T06:42:10.000Z</time>
        <extensions>
          <ns3:TrackPointExtension>
            <ns3:atemp>19.0</ns3:atemp>
          </ns3:TrackPointExtension>
        </extensions>
      </trkpt>
      <trkpt lat="42.6540265046060085296630859375" lon="19.91085835732519626617431640625">
        <ele>915.79998779296875</ele>
        <time>2026-06-16T06:42:11.000Z</time>
        <extensions>
          <ns3:TrackPointExtension>
            <ns3:atemp>19.0</ns3:atemp>
          </ns3:TrackPointExtension>
        </extensions>
      </trkpt>
      <trkpt lat="42.654015608131885528564453125" lon="19.9108366481959819793701171875">
        <ele>916</ele>
        <time>2026-06-16T06:42:12.000Z</time>
        <extensions>
          <ns3:TrackPointExtension>
            <ns3:atemp>19.0</ns3:atemp>
          </ns3:TrackPointExtension>
        </extensions>
      </trkpt>
      <trkpt lat="42.65400110743939876556396484375" lon="19.9108108319342136383056640625">
        <ele>916.20001220703125</ele>
        <time>2026-06-16T06:42:13.000Z</time>
        <extensions>
          <ns3:TrackPointExtension>
            <ns3:atemp>19.0</ns3:atemp>
          </ns3:TrackPointExtension>
        </extensions>
      </trkpt>
      <trkpt lat="42.65399180352687835693359375" lon="19.91078560240566730499267578125">
        <ele>916.5999755859375</ele>
        <time>2026-06-16T06:42:14.000Z</time>
        <extensions>
          <ns3:TrackPointExtension>
            <ns3:atemp>19.0</ns3:atemp>
          </ns3:TrackPointExtension>
        </extensions>
      </trkpt>
      <trkpt lat="42.65397629700601100921630859375" lon="19.91075961850583553314208984375">
        <ele>916.79998779296875</ele>
        <time>2026-06-16T06:42:15.000Z</time>
        <extensions>
          <ns3:TrackPointExtension>
            <ns3:atemp>19.0</ns3:atemp>
          </ns3:TrackPointExtension>
        </extensions>
      </trkpt>
      <trkpt lat="42.6539614610373973846435546875" lon="19.91073246113955974578857421875">
        <ele>917.20001220703125</ele>
        <time>2026-06-16T06:42:16.000Z</time>
        <extensions>
          <ns3:TrackPointExtension>
            <ns3:atemp>19.0</ns3:atemp>
          </ns3:TrackPointExtension>
        </extensions>
      </trkpt>
      <trkpt lat="42.65395165421068668365478515625" lon="19.91070832125842571258544921875">
        <ele>917.4000244140625</ele>
        <time>2026-06-16T06:42:17.000Z</time>
        <extensions>
          <ns3:TrackPointExtension>
            <ns3:atemp>19.0</ns3:atemp>
          </ns3:TrackPointExtension>
        </extensions>
      </trkpt>
      <trkpt lat="42.653938494622707366943359375" lon="19.910683594644069671630859375">
        <ele>917.79998779296875</ele>
        <time>2026-06-16T06:42:18.000Z</time>
        <extensions>
          <ns3:TrackPointExtension>
            <ns3:atemp>19.0</ns3:atemp>
          </ns3:TrackPointExtension>
        </extensions>
      </trkpt>
      <trkpt lat="42.6539272628724575042724609375" lon="19.910661466419696807861328125">
        <ele>918</ele>
        <time>2026-06-16T06:42:19.000Z</time>
        <extensions>
          <ns3:TrackPointExtension>
            <ns3:atemp>19.0</ns3:atemp>
          </ns3:TrackPointExtension>
        </extensions>
      </trkpt>
      <trkpt lat="42.65391477383673191070556640625" lon="19.9106421880424022674560546875">
        <ele>918.4000244140625</ele>
        <time>2026-06-16T06:42:20.000Z</time>
        <extensions>
          <ns3:TrackPointExtension>
            <ns3:atemp>19.0</ns3:atemp>
          </ns3:TrackPointExtension>
        </extensions>
      </trkpt>
      <trkpt lat="42.65390387736260890960693359375" lon="19.91062290966510772705078125">
        <ele>918.5999755859375</ele>
        <time>2026-06-16T06:42:21.000Z</time>
        <extensions>
          <ns3:TrackPointExtension>
            <ns3:atemp>19.0</ns3:atemp>
          </ns3:TrackPointExtension>
        </extensions>
      </trkpt>
      <trkpt lat="42.6538918912410736083984375" lon="19.91060421802103519439697265625">
        <ele>918.79998779296875</ele>
        <time>2026-06-16T06:42:22.000Z</time>
        <extensions>
          <ns3:TrackPointExtension>
            <ns3:atemp>19.0</ns3:atemp>
          </ns3:TrackPointExtension>
        </extensions>
      </trkpt>
      <trkpt lat="42.65387780964374542236328125" lon="19.9105855263769626617431640625">
        <ele>919.20001220703125</ele>
        <time>2026-06-16T06:42:23.000Z</time>
        <extensions>
          <ns3:TrackPointExtension>
            <ns3:atemp>19.0</ns3:atemp>
          </ns3:TrackPointExtension>
        </extensions>
      </trkpt>
      <trkpt lat="42.65386573970317840576171875" lon="19.91056582890450954437255859375">
        <ele>919.4000244140625</ele>
        <time>2026-06-16T06:42:24.000Z</time>
        <extensions>
          <ns3:TrackPointExtension>
            <ns3:atemp>19.0</ns3:atemp>
          </ns3:TrackPointExtension>
        </extensions>
      </trkpt>
      <trkpt lat="42.65385425649583339691162109375" lon="19.91054688580334186553955078125">
        <ele>919.5999755859375</ele>
        <time>2026-06-16T06:42:25.000Z</time>
        <extensions>
          <ns3:TrackPointExtension>
            <ns3:atemp>19.0</ns3:atemp>
          </ns3:TrackPointExtension>
        </extensions>
      </trkpt>
      <trkpt lat="42.65383983962237834930419921875" lon="19.91052710451185703277587890625">
        <ele>920</ele>
        <time>2026-06-16T06:42:26.000Z</time>
        <extensions>
          <ns3:TrackPointExtension>
            <ns3:atemp>19.0</ns3:atemp>
          </ns3:TrackPointExtension>
        </extensions>
      </trkpt>
      <trkpt lat="42.653821147978305816650390625" lon="19.91051117889583110809326171875">
        <ele>920.20001220703125</ele>
        <time>2026-06-16T06:42:27.000Z</time>
        <extensions>
          <ns3:TrackPointExtension>
            <ns3:atemp>19.0</ns3:atemp>
          </ns3:TrackPointExtension>
        </extensions>
      </trkpt>
      <trkpt lat="42.6538075692951679229736328125" lon="19.910493157804012298583984375">
        <ele>920.4000244140625</ele>
        <time>2026-06-16T06:42:28.000Z</time>
        <extensions>
          <ns3:TrackPointExtension>
            <ns3:atemp>19.0</ns3:atemp>
          </ns3:TrackPointExtension>
        </extensions>
      </trkpt>
      <trkpt lat="42.6537931524217128753662109375" lon="19.91047832183539867401123046875">
        <ele>920.5999755859375</ele>
        <time>2026-06-16T06:42:29.000Z</time>
        <extensions>
          <ns3:TrackPointExtension>
            <ns3:atemp>19.0</ns3:atemp>
          </ns3:TrackPointExtension>
        </extensions>
      </trkpt>
      <trkpt lat="42.65377781353890895843505859375" lon="19.9104638211429119110107421875">
        <ele>921</ele>
        <time>2026-06-16T06:42:30.000Z</time>
        <extensions>
          <ns3:TrackPointExtension>
            <ns3:atemp>19.0</ns3:atemp>
          </ns3:TrackPointExtension>
        </extensions>
      </trkpt>
      <trkpt lat="42.65375954098999500274658203125" lon="19.91044764406979084014892578125">
        <ele>921.20001220703125</ele>
        <time>2026-06-16T06:42:31.000Z</time>
        <extensions>
          <ns3:TrackPointExtension>
            <ns3:atemp>19.0</ns3:atemp>
          </ns3:TrackPointExtension>
        </extensions>
      </trkpt>
      <trkpt lat="42.65373942442238330841064453125" lon="19.91043741814792156219482421875">
        <ele>921.4000244140625</ele>
        <time>2026-06-16T06:42:32.000Z</time>
        <extensions>
          <ns3:TrackPointExtension>
            <ns3:atemp>19.0</ns3:atemp>
          </ns3:TrackPointExtension>
        </extensions>
      </trkpt>
      <trkpt lat="42.65372500754892826080322265625" lon="19.91042819805443286895751953125">
        <ele>921.79998779296875</ele>
        <time>2026-06-16T06:42:33.000Z</time>
        <extensions>
          <ns3:TrackPointExtension>
            <ns3:atemp>19.0</ns3:atemp>
          </ns3:TrackPointExtension>
        </extensions>
      </trkpt>
      <trkpt lat="42.65370824374258518218994140625" lon="19.91041428409516811370849609375">
        <ele>922</ele>
        <time>2026-06-16T06:42:34.000Z</time>
        <extensions>
          <ns3:TrackPointExtension>
            <ns3:atemp>19.0</ns3:atemp>
          </ns3:TrackPointExtension>
        </extensions>
      </trkpt>
      <trkpt lat="42.65369684435427188873291015625" lon="19.910399280488491058349609375">
        <ele>922.4000244140625</ele>
        <time>2026-06-16T06:42:35.000Z</time>
        <extensions>
          <ns3:TrackPointExtension>
            <ns3:atemp>19.0</ns3:atemp>
          </ns3:TrackPointExtension>
        </extensions>
      </trkpt>
      <trkpt lat="42.6536841876804828643798828125" lon="19.9103806726634502410888671875">
        <ele>922.5999755859375</ele>
        <time>2026-06-16T06:42:36.000Z</time>
        <extensions>
          <ns3:TrackPointExtension>
            <ns3:atemp>19.0</ns3:atemp>
          </ns3:TrackPointExtension>
        </extensions>
      </trkpt>
      <trkpt lat="42.6536719501018524169921875" lon="19.91036265157163143157958984375">
        <ele>922.79998779296875</ele>
        <time>2026-06-16T06:42:37.000Z</time>
        <extensions>
          <ns3:TrackPointExtension>
            <ns3:atemp>19.0</ns3:atemp>
          </ns3:TrackPointExtension>
        </extensions>
      </trkpt>
      <trkpt lat="42.653659544885158538818359375" lon="19.91034521721303462982177734375">
        <ele>923.20001220703125</ele>
        <time>2026-06-16T06:42:38.000Z</time>
        <extensions>
          <ns3:TrackPointExtension>
            <ns3:atemp>19.0</ns3:atemp>
          </ns3:TrackPointExtension>
        </extensions>
      </trkpt>
      <trkpt lat="42.65364554710686206817626953125" lon="19.91032510064542293548583984375">
        <ele>923.4000244140625</ele>
        <time>2026-06-16T06:42:39.000Z</time>
        <extensions>
          <ns3:TrackPointExtension>
            <ns3:atemp>19.0</ns3:atemp>
          </ns3:TrackPointExtension>
        </extensions>
      </trkpt>
      <trkpt lat="42.6536288671195507049560546875" lon="19.9103069119155406951904296875">
        <ele>923.5999755859375</ele>
        <time>2026-06-16T06:42:40.000Z</time>
        <extensions>
          <ns3:TrackPointExtension>
            <ns3:atemp>19.0</ns3:atemp>
          </ns3:TrackPointExtension>
        </extensions>
      </trkpt>
      <trkpt lat="42.6536156237125396728515625" lon="19.91028469987213611602783203125">
        <ele>924</ele>
        <time>2026-06-16T06:42:41.000Z</time>
        <extensions>
          <ns3:TrackPointExtension>
            <ns3:atemp>19.0</ns3:atemp>
          </ns3:TrackPointExtension>
        </extensions>
      </trkpt>
      <trkpt lat="42.65359642915427684783935546875" lon="19.9102639965713024139404296875">
        <ele>924.20001220703125</ele>
        <time>2026-06-16T06:42:42.000Z</time>
        <extensions>
          <ns3:TrackPointExtension>
            <ns3:atemp>19.0</ns3:atemp>
          </ns3:TrackPointExtension>
        </extensions>
      </trkpt>
      <trkpt lat="42.653581090271472930908203125" lon="19.91023725830018520355224609375">
        <ele>924.5999755859375</ele>
        <time>2026-06-16T06:42:43.000Z</time>
        <extensions>
          <ns3:TrackPointExtension>
            <ns3:atemp>19.0</ns3:atemp>
          </ns3:TrackPointExtension>
        </extensions>
      </trkpt>
      <trkpt lat="42.653567679226398468017578125" lon="19.910214878618717193603515625">
        <ele>924.79998779296875</ele>
        <time>2026-06-16T06:42:44.000Z</time>
        <extensions>
          <ns3:TrackPointExtension>
            <ns3:atemp>19.0</ns3:atemp>
          </ns3:TrackPointExtension>
        </extensions>
      </trkpt>
      <trkpt lat="42.6535557769238948822021484375" lon="19.9101939238607883453369140625">
        <ele>925</ele>
        <time>2026-06-16T06:42:45.000Z</time>
        <extensions>
          <ns3:TrackPointExtension>
            <ns3:atemp>19.0</ns3:atemp>
          </ns3:TrackPointExtension>
        </extensions>
      </trkpt>
      <trkpt lat="42.6535437069833278656005859375" lon="19.91017405875027179718017578125">
        <ele>925.4000244140625</ele>
        <time>2026-06-16T06:42:46.000Z</time>
        <extensions>
          <ns3:TrackPointExtension>
            <ns3:atemp>19.0</ns3:atemp>
          </ns3:TrackPointExtension>
        </extensions>
      </trkpt>
      <trkpt lat="42.65352836810052394866943359375" lon="19.9101546965539455413818359375">
        <ele>925.5999755859375</ele>
        <time>2026-06-16T06:42:47.000Z</time>
        <extensions>
          <ns3:TrackPointExtension>
            <ns3:atemp>19.0</ns3:atemp>
          </ns3:TrackPointExtension>
        </extensions>
      </trkpt>
      <trkpt lat="42.65351512469351291656494140625" lon="19.9101389385759830474853515625">
        <ele>925.79998779296875</ele>
        <time>2026-06-16T06:42:48.000Z</time>
        <extensions>
          <ns3:TrackPointExtension>
            <ns3:atemp>19.0</ns3:atemp>
          </ns3:TrackPointExtension>
        </extensions>
      </trkpt>
      <trkpt lat="42.65350171364843845367431640625" lon="19.910118319094181060791015625">
        <ele>926.20001220703125</ele>
        <time>2026-06-16T06:42:49.000Z</time>
        <extensions>
          <ns3:TrackPointExtension>
            <ns3:atemp>19.0</ns3:atemp>
          </ns3:TrackPointExtension>
        </extensions>
      </trkpt>
      <trkpt lat="42.6534850336611270904541015625" lon="19.910099543631076812744140625">
        <ele>926.4000244140625</ele>
        <time>2026-06-16T06:42:50.000Z</time>
        <extensions>
          <ns3:TrackPointExtension>
            <ns3:atemp>19.0</ns3:atemp>
          </ns3:TrackPointExtension>
        </extensions>
      </trkpt>
      <trkpt lat="42.65347405336797237396240234375" lon="19.910077415406703948974609375">
        <ele>926.5999755859375</ele>
        <time>2026-06-16T06:42:51.000Z</time>
        <extensions>
          <ns3:TrackPointExtension>
            <ns3:atemp>19.0</ns3:atemp>
          </ns3:TrackPointExtension>
        </extensions>
      </trkpt>
      <trkpt lat="42.65346206724643707275390625" lon="19.91005151532590389251708984375">
        <ele>926.79998779296875</ele>
        <time>2026-06-16T06:42:52.000Z</time>
        <extensions>
          <ns3:TrackPointExtension>
            <ns3:atemp>19.0</ns3:atemp>
          </ns3:TrackPointExtension>
        </extensions>
      </trkpt>
      <trkpt lat="42.653449662029743194580078125" lon="19.910025112330913543701171875">
        <ele>927</ele>
        <time>2026-06-16T06:42:53.000Z</time>
        <extensions>
          <ns3:TrackPointExtension>
            <ns3:atemp>19.0</ns3:atemp>
          </ns3:TrackPointExtension>
        </extensions>
      </trkpt>
      <trkpt lat="42.653436250984668731689453125" lon="19.91000256501138210296630859375">
        <ele>927</ele>
        <time>2026-06-16T06:42:54.000Z</time>
        <extensions>
          <ns3:TrackPointExtension>
            <ns3:atemp>19.0</ns3:atemp>
          </ns3:TrackPointExtension>
        </extensions>
      </trkpt>
      <trkpt lat="42.6534240134060382843017578125" lon="19.909979514777660369873046875">
        <ele>927.20001220703125</ele>
        <time>2026-06-16T06:42:55.000Z</time>
        <extensions>
          <ns3:TrackPointExtension>
            <ns3:atemp>19.0</ns3:atemp>
          </ns3:TrackPointExtension>
        </extensions>
      </trkpt>
      <trkpt lat="42.6534132845699787139892578125" lon="19.90995545871555805206298828125">
        <ele>927.4000244140625</ele>
        <time>2026-06-16T06:42:56.000Z</time>
        <extensions>
          <ns3:TrackPointExtension>
            <ns3:atemp>19.0</ns3:atemp>
          </ns3:TrackPointExtension>
        </extensions>
      </trkpt>
      <trkpt lat="42.65340381301939487457275390625" lon="19.909927211701869964599609375">
        <ele>927.5999755859375</ele>
        <time>2026-06-16T06:42:57.000Z</time>
        <extensions>
          <ns3:TrackPointExtension>
            <ns3:atemp>19.0</ns3:atemp>
          </ns3:TrackPointExtension>
        </extensions>
      </trkpt>
      <trkpt lat="42.6533898152410984039306640625" lon="19.9098992161452770233154296875">
        <ele>927.5999755859375</ele>
        <time>2026-06-16T06:42:58.000Z</time>
        <extensions>
          <ns3:TrackPointExtension>
            <ns3:atemp>19.0</ns3:atemp>
          </ns3:TrackPointExtension>
        </extensions>
      </trkpt>
      <trkpt lat="42.65338428318500518798828125" lon="19.9098733998835086822509765625">
        <ele>927.79998779296875</ele>
        <time>2026-06-16T06:42:59.000Z</time>
        <extensions>
          <ns3:TrackPointExtension>
            <ns3:atemp>19.0</ns3:atemp>
          </ns3:TrackPointExtension>
        </extensions>
      </trkpt>
      <trkpt lat="42.6533730514347553253173828125" lon="19.90984045900404453277587890625">
        <ele>928</ele>
        <time>2026-06-16T06:43:00.000Z</time>
        <extensions>
          <ns3:TrackPointExtension>
            <ns3:atemp>19.0</ns3:atemp>
          </ns3:TrackPointExtension>
        </extensions>
      </trkpt>
      <trkpt lat="42.65337757766246795654296875" lon="19.90981833077967166900634765625">
        <ele>928.20001220703125</ele>
        <time>2026-06-16T06:43:01.000Z</time>
        <extensions>
          <ns3:TrackPointExtension>
            <ns3:atemp>19.0</ns3:atemp>
          </ns3:TrackPointExtension>
        </extensions>
      </trkpt>
      <trkpt lat="42.65338134951889514923095703125" lon="19.90978782065212726593017578125">
        <ele>928.4000244140625</ele>
        <time>2026-06-16T06:43:02.000Z</time>
        <extensions>
          <ns3:TrackPointExtension>
            <ns3:atemp>19.0</ns3:atemp>
          </ns3:TrackPointExtension>
        </extensions>
      </trkpt>
      <trkpt lat="42.653379924595355987548828125" lon="19.90975244902074337005615234375">
        <ele>928.5999755859375</ele>
        <time>2026-06-16T06:43:03.000Z</time>
        <extensions>
          <ns3:TrackPointExtension>
            <ns3:atemp>19.0</ns3:atemp>
          </ns3:TrackPointExtension>
        </extensions>
      </trkpt>
      <trkpt lat="42.6533753983676433563232421875" lon="19.90972076542675495147705078125">
        <ele>928.79998779296875</ele>
        <time>2026-06-16T06:43:04.000Z</time>
        <extensions>
          <ns3:TrackPointExtension>
            <ns3:atemp>19.0</ns3:atemp>
          </ns3:TrackPointExtension>
        </extensions>
      </trkpt>
      <trkpt lat="42.65337833203375339508056640625" lon="19.90968606434762477874755859375">
        <ele>928.79998779296875</ele>
        <time>2026-06-16T06:43:05.000Z</time>
        <extensions>
          <ns3:TrackPointExtension>
            <ns3:atemp>19.0</ns3:atemp>
          </ns3:TrackPointExtension>
        </extensions>
      </trkpt>
      <trkpt lat="42.65338185243308544158935546875" lon="19.9096564762294292449951171875">
        <ele>929</ele>
        <time>2026-06-16T06:43:06.000Z</time>
        <extensions>
          <ns3:TrackPointExtension>
            <ns3:atemp>19.0</ns3:atemp>
          </ns3:TrackPointExtension>
        </extensions>
      </trkpt>
      <trkpt lat="42.65339073725044727325439453125" lon="19.9096232838928699493408203125">
        <ele>929.20001220703125</ele>
        <time>2026-06-16T06:43:07.000Z</time>
        <extensions>
          <ns3:TrackPointExtension>
            <ns3:atemp>19.0</ns3:atemp>
          </ns3:TrackPointExtension>
        </extensions>
      </trkpt>
      <trkpt lat="42.65339769423007965087890625" lon="19.90959185175597667694091796875">
        <ele>929.20001220703125</ele>
        <time>2026-06-16T06:43:08.000Z</time>
        <extensions>
          <ns3:TrackPointExtension>
            <ns3:atemp>19.0</ns3:atemp>
          </ns3:TrackPointExtension>
        </extensions>
      </trkpt>
      <trkpt lat="42.65340079553425312042236328125" lon="19.90955916233360767364501953125">
        <ele>929.4000244140625</ele>
        <time>2026-06-16T06:43:09.000Z</time>
        <extensions>
          <ns3:TrackPointExtension>
            <ns3:atemp>19.0</ns3:atemp>
          </ns3:TrackPointExtension>
        </extensions>
      </trkpt>
      <trkpt lat="42.6533971913158893585205078125" lon="19.90953401662409305572509765625">
        <ele>929.5999755859375</ele>
        <time>2026-06-16T06:43:10.000Z</time>
        <extensions>
          <ns3:TrackPointExtension>
            <ns3:atemp>19.0</ns3:atemp>
          </ns3:TrackPointExtension>
        </extensions>
      </trkpt>
      <trkpt lat="42.65339828096330165863037109375" lon="19.90950367413461208343505859375">
        <ele>929.79998779296875</ele>
        <time>2026-06-16T06:43:11.000Z</time>
        <extensions>
          <ns3:TrackPointExtension>
            <ns3:atemp>19.0</ns3:atemp>
          </ns3:TrackPointExtension>
        </extensions>
      </trkpt>
      <trkpt lat="42.653402723371982574462890625" lon="19.90946981124579906463623046875">
        <ele>930</ele>
        <time>2026-06-16T06:43:12.000Z</time>
        <extensions>
          <ns3:TrackPointExtension>
            <ns3:atemp>19.0</ns3:atemp>
          </ns3:TrackPointExtension>
        </extensions>
      </trkpt>
      <trkpt lat="42.653404735028743743896484375" lon="19.9094315059483051300048828125">
        <ele>930.20001220703125</ele>
        <time>2026-06-16T06:43:13.000Z</time>
        <extensions>
          <ns3:TrackPointExtension>
            <ns3:atemp>19.0</ns3:atemp>
          </ns3:TrackPointExtension>
        </extensions>
      </trkpt>
      <trkpt lat="42.65340213663876056671142578125" lon="19.90940292365849018096923828125">
        <ele>930.4000244140625</ele>
        <time>2026-06-16T06:43:14.000Z</time>
        <extensions>
          <ns3:TrackPointExtension>
            <ns3:atemp>19.0</ns3:atemp>
          </ns3:TrackPointExtension>
        </extensions>
      </trkpt>
      <trkpt lat="42.65339962206780910491943359375" lon="19.9093724973499774932861328125">
        <ele>930.5999755859375</ele>
        <time>2026-06-16T06:43:15.000Z</time>
        <extensions>
          <ns3:TrackPointExtension>
            <ns3:atemp>19.0</ns3:atemp>
          </ns3:TrackPointExtension>
        </extensions>
      </trkpt>
      <trkpt lat="42.65339341945946216583251953125" lon="19.9093376286327838897705078125">
        <ele>930.79998779296875</ele>
        <time>2026-06-16T06:43:16.000Z</time>
        <extensions>
          <ns3:TrackPointExtension>
            <ns3:atemp>19.0</ns3:atemp>
          </ns3:TrackPointExtension>
        </extensions>
      </trkpt>
      <trkpt lat="42.65339056961238384246826171875" lon="19.90930519066751003265380859375">
        <ele>931</ele>
        <time>2026-06-16T06:43:17.000Z</time>
        <extensions>
          <ns3:TrackPointExtension>
            <ns3:atemp>19.0</ns3:atemp>
          </ns3:TrackPointExtension>
        </extensions>
      </trkpt>
      <trkpt lat="42.6533849537372589111328125" lon="19.909280128777027130126953125">
        <ele>931.4000244140625</ele>
        <time>2026-06-16T06:43:18.000Z</time>
        <extensions>
          <ns3:TrackPointExtension>
            <ns3:atemp>19.0</ns3:atemp>
          </ns3:TrackPointExtension>
        </extensions>
      </trkpt>
      <trkpt lat="42.653380595147609710693359375" lon="19.9092497862875461578369140625">
        <ele>931.5999755859375</ele>
        <time>2026-06-16T06:43:19.000Z</time>
        <extensions>
          <ns3:TrackPointExtension>
            <ns3:atemp>19.0</ns3:atemp>
          </ns3:TrackPointExtension>
        </extensions>
      </trkpt>
      <trkpt lat="42.65337615273892879486083984375" lon="19.90921868942677974700927734375">
        <ele>931.79998779296875</ele>
        <time>2026-06-16T06:43:20.000Z</time>
        <extensions>
          <ns3:TrackPointExtension>
            <ns3:atemp>19.0</ns3:atemp>
          </ns3:TrackPointExtension>
        </extensions>
      </trkpt>
      <trkpt lat="42.65337464399635791778564453125" lon="19.9091832339763641357421875">
        <ele>932</ele>
        <time>2026-06-16T06:43:21.000Z</time>
        <extensions>
          <ns3:TrackPointExtension>
            <ns3:atemp>19.0</ns3:atemp>
          </ns3:TrackPointExtension>
        </extensions>
      </trkpt>
      <trkpt lat="42.65336760319769382476806640625" lon="19.90914476104080677032470703125">
        <ele>932.20001220703125</ele>
        <time>2026-06-16T06:43:22.000Z</time>
        <extensions>
          <ns3:TrackPointExtension>
            <ns3:atemp>19.0</ns3:atemp>
          </ns3:TrackPointExtension>
        </extensions>
      </trkpt>
      <trkpt lat="42.6533616520464420318603515625" lon="19.90910880267620086669921875">
        <ele>932.4000244140625</ele>
        <time>2026-06-16T06:43:23.000Z</time>
        <extensions>
          <ns3:TrackPointExtension>
            <ns3:atemp>19.0</ns3:atemp>
          </ns3:TrackPointExtension>
        </extensions>
      </trkpt>
      <trkpt lat="42.6533512584865093231201171875" lon="19.90907066501677036285400390625">
        <ele>932.5999755859375</ele>
        <time>2026-06-16T06:43:24.000Z</time>
        <extensions>
          <ns3:TrackPointExtension>
            <ns3:atemp>19.0</ns3:atemp>
          </ns3:TrackPointExtension>
        </extensions>
      </trkpt>
      <trkpt lat="42.65334664843976497650146484375" lon="19.90903764031827449798583984375">
        <ele>933</ele>
        <time>2026-06-16T06:43:25.000Z</time>
        <extensions>
          <ns3:TrackPointExtension>
            <ns3:atemp>19.0</ns3:atemp>
          </ns3:TrackPointExtension>
        </extensions>
      </trkpt>
      <trkpt lat="42.653338350355625152587890625" lon="19.90900696255266666412353515625">
        <ele>933.20001220703125</ele>
        <time>2026-06-16T06:43:26.000Z</time>
        <extensions>
          <ns3:TrackPointExtension>
            <ns3:atemp>19.0</ns3:atemp>
          </ns3:TrackPointExtension>
        </extensions>
      </trkpt>
      <trkpt lat="42.65333332121372222900390625" lon="19.9089762009680271148681640625">
        <ele>933.4000244140625</ele>
        <time>2026-06-16T06:43:27.000Z</time>
        <extensions>
          <ns3:TrackPointExtension>
            <ns3:atemp>19.0</ns3:atemp>
          </ns3:TrackPointExtension>
        </extensions>
      </trkpt>
      <trkpt lat="42.65332820825278759002685546875" lon="19.90894342772662639617919921875">
        <ele>933.4000244140625</ele>
        <time>2026-06-16T06:43:28.000Z</time>
        <extensions>
          <ns3:TrackPointExtension>
            <ns3:atemp>19.0</ns3:atemp>
          </ns3:TrackPointExtension>
        </extensions>
      </trkpt>
      <trkpt lat="42.65332317911088466644287109375" lon="19.90891308523714542388916015625">
        <ele>933.5999755859375</ele>
        <time>2026-06-16T06:43:29.000Z</time>
        <extensions>
          <ns3:TrackPointExtension>
            <ns3:atemp>19.0</ns3:atemp>
          </ns3:TrackPointExtension>
        </extensions>
      </trkpt>
      <trkpt lat="42.653314210474491119384765625" lon="19.908881820738315582275390625">
        <ele>933.79998779296875</ele>
        <time>2026-06-16T06:43:30.000Z</time>
        <extensions>
          <ns3:TrackPointExtension>
            <ns3:atemp>19.0</ns3:atemp>
          </ns3:TrackPointExtension>
        </extensions>
      </trkpt>
      <trkpt lat="42.65330524183809757232666015625" lon="19.908848293125629425048828125">
        <ele>934</ele>
        <time>2026-06-16T06:43:31.000Z</time>
        <extensions>
          <ns3:TrackPointExtension>
            <ns3:atemp>19.0</ns3:atemp>
          </ns3:TrackPointExtension>
        </extensions>
      </trkpt>
      <trkpt lat="42.65329719521105289459228515625" lon="19.908812083303928375244140625">
        <ele>934</ele>
        <time>2026-06-16T06:43:32.000Z</time>
        <extensions>
          <ns3:TrackPointExtension>
            <ns3:atemp>19.0</ns3:atemp>
          </ns3:TrackPointExtension>
        </extensions>
      </trkpt>
      <trkpt lat="42.65328562818467617034912109375" lon="19.90878299809992313385009765625">
        <ele>934.20001220703125</ele>
        <time>2026-06-16T06:43:33.000Z</time>
        <extensions>
          <ns3:TrackPointExtension>
            <ns3:atemp>19.0</ns3:atemp>
          </ns3:TrackPointExtension>
        </extensions>
      </trkpt>
      <trkpt lat="42.6532687805593013763427734375" lon="19.908747039735317230224609375">
        <ele>934.4000244140625</ele>
        <time>2026-06-16T06:43:34.000Z</time>
        <extensions>
          <ns3:TrackPointExtension>
            <ns3:atemp>19.0</ns3:atemp>
          </ns3:TrackPointExtension>
        </extensions>
      </trkpt>
      <trkpt lat="42.65325151383876800537109375" lon="19.9087197147309780120849609375">
        <ele>934.5999755859375</ele>
        <time>2026-06-16T06:43:35.000Z</time>
        <extensions>
          <ns3:TrackPointExtension>
            <ns3:atemp>19.0</ns3:atemp>
          </ns3:TrackPointExtension>
        </extensions>
      </trkpt>
      <trkpt lat="42.653232403099536895751953125" lon="19.90869197063148021697998046875">
        <ele>934.79998779296875</ele>
        <time>2026-06-16T06:43:36.000Z</time>
        <extensions>
          <ns3:TrackPointExtension>
            <ns3:atemp>19.0</ns3:atemp>
          </ns3:TrackPointExtension>
        </extensions>
      </trkpt>
      <trkpt lat="42.653211615979671478271484375" lon="19.90867218933999538421630859375">
        <ele>935</ele>
        <time>2026-06-16T06:43:37.000Z</time>
        <extensions>
          <ns3:TrackPointExtension>
            <ns3:atemp>19.0</ns3:atemp>
          </ns3:TrackPointExtension>
        </extensions>
      </trkpt>
      <trkpt lat="42.65319057740271091461181640625" lon="19.90864880383014678955078125">
        <ele>935.20001220703125</ele>
        <time>2026-06-16T06:43:38.000Z</time>
        <extensions>
          <ns3:TrackPointExtension>
            <ns3:atemp>19.0</ns3:atemp>
          </ns3:TrackPointExtension>
        </extensions>
      </trkpt>
      <trkpt lat="42.65316425822675228118896484375" lon="19.90863497368991374969482421875">
        <ele>935.4000244140625</ele>
        <time>2026-06-16T06:43:39.000Z</time>
        <extensions>
          <ns3:TrackPointExtension>
            <ns3:atemp>19.0</ns3:atemp>
          </ns3:TrackPointExtension>
        </extensions>
      </trkpt>
      <trkpt lat="42.6531417109072208404541015625" lon="19.9086191318929195404052734375">
        <ele>935.5999755859375</ele>
        <time>2026-06-16T06:43:40.000Z</time>
        <extensions>
          <ns3:TrackPointExtension>
            <ns3:atemp>19.0</ns3:atemp>
          </ns3:TrackPointExtension>
        </extensions>
      </trkpt>
      <trkpt lat="42.6531175710260868072509765625" lon="19.90861351601779460906982421875">
        <ele>935.79998779296875</ele>
        <time>2026-06-16T06:43:41.000Z</time>
        <extensions>
          <ns3:TrackPointExtension>
            <ns3:atemp>19.0</ns3:atemp>
          </ns3:TrackPointExtension>
        </extensions>
      </trkpt>
      <trkpt lat="42.653093598783016204833984375" lon="19.90861217491328716278076171875">
        <ele>936</ele>
        <time>2026-06-16T06:43:42.000Z</time>
        <extensions>
          <ns3:TrackPointExtension>
            <ns3:atemp>19.0</ns3:atemp>
          </ns3:TrackPointExtension>
        </extensions>
      </trkpt>
      <trkpt lat="42.65306987799704074859619140625" lon="19.90860781632363796234130859375">
        <ele>936.20001220703125</ele>
        <time>2026-06-16T06:43:43.000Z</time>
        <extensions>
          <ns3:TrackPointExtension>
            <ns3:atemp>19.0</ns3:atemp>
          </ns3:TrackPointExtension>
        </extensions>
      </trkpt>
      <trkpt lat="42.653045989573001861572265625" lon="19.908603541553020477294921875">
        <ele>936.4000244140625</ele>
        <time>2026-06-16T06:43:44.000Z</time>
        <extensions>
          <ns3:TrackPointExtension>
            <ns3:atemp>19.0</ns3:atemp>
          </ns3:TrackPointExtension>
        </extensions>
      </trkpt>
      <trkpt lat="42.65301874838769435882568359375" lon="19.9086043797433376312255859375">
        <ele>936.5999755859375</ele>
        <time>2026-06-16T06:43:45.000Z</time>
        <extensions>
          <ns3:TrackPointExtension>
            <ns3:atemp>19.0</ns3:atemp>
          </ns3:TrackPointExtension>
        </extensions>
      </trkpt>
      <trkpt lat="42.65299536287784576416015625" lon="19.90859876386821269989013671875">
        <ele>936.79998779296875</ele>
        <time>2026-06-16T06:43:46.000Z</time>
        <extensions>
          <ns3:TrackPointExtension>
            <ns3:atemp>19.0</ns3:atemp>
          </ns3:TrackPointExtension>
        </extensions>
      </trkpt>
      <trkpt lat="42.652967870235443115234375" lon="19.90860010497272014617919921875">
        <ele>936.79998779296875</ele>
        <time>2026-06-16T06:43:47.000Z</time>
        <extensions>
          <ns3:TrackPointExtension>
            <ns3:atemp>19.0</ns3:atemp>
          </ns3:TrackPointExtension>
        </extensions>
      </trkpt>
      <trkpt lat="42.65293727628886699676513671875" lon="19.90859759040176868438720703125">
        <ele>937.20001220703125</ele>
        <time>2026-06-16T06:43:48.000Z</time>
        <extensions>
          <ns3:TrackPointExtension>
            <ns3:atemp>19.0</ns3:atemp>
          </ns3:TrackPointExtension>
        </extensions>
      </trkpt>
      <trkpt lat="42.652909196913242340087890625" lon="19.908594824373722076416015625">
        <ele>937.4000244140625</ele>
        <time>2026-06-16T06:43:49.000Z</time>
        <extensions>
          <ns3:TrackPointExtension>
            <ns3:atemp>19.0</ns3:atemp>
          </ns3:TrackPointExtension>
        </extensions>
      </trkpt>
      <trkpt lat="42.65288748778402805328369140625" lon="19.9085970036685466766357421875">
        <ele>937.5999755859375</ele>
        <time>2026-06-16T06:43:50.000Z</time>
        <extensions>
          <ns3:TrackPointExtension>
            <ns3:atemp>19.0</ns3:atemp>
          </ns3:TrackPointExtension>
        </extensions>
      </trkpt>
      <trkpt lat="42.652862258255481719970703125" lon="19.90859675221145153045654296875">
        <ele>937.79998779296875</ele>
        <time>2026-06-16T06:43:51.000Z</time>
        <extensions>
          <ns3:TrackPointExtension>
            <ns3:atemp>19.0</ns3:atemp>
          </ns3:TrackPointExtension>
        </extensions>
      </trkpt>
      <trkpt lat="42.6528351008892059326171875" lon="19.90858979523181915283203125">
        <ele>938</ele>
        <time>2026-06-16T06:43:52.000Z</time>
        <extensions>
          <ns3:TrackPointExtension>
            <ns3:atemp>19.0</ns3:atemp>
          </ns3:TrackPointExtension>
        </extensions>
      </trkpt>
      <trkpt lat="42.6528040878474712371826171875" lon="19.90858367644250392913818359375">
        <ele>938.20001220703125</ele>
        <time>2026-06-16T06:43:53.000Z</time>
        <extensions>
          <ns3:TrackPointExtension>
            <ns3:atemp>19.0</ns3:atemp>
          </ns3:TrackPointExtension>
        </extensions>
      </trkpt>
      <trkpt lat="42.65277139842510223388671875" lon="19.90857772529125213623046875">
        <ele>938.4000244140625</ele>
        <time>2026-06-16T06:43:54.000Z</time>
        <extensions>
          <ns3:TrackPointExtension>
            <ns3:atemp>19.0</ns3:atemp>
          </ns3:TrackPointExtension>
        </extensions>
      </trkpt>
      <trkpt lat="42.65274432487785816192626953125" lon="19.9085785634815692901611328125">
        <ele>938.79998779296875</ele>
        <time>2026-06-16T06:43:55.000Z</time>
        <extensions>
          <ns3:TrackPointExtension>
            <ns3:atemp>19.0</ns3:atemp>
          </ns3:TrackPointExtension>
        </extensions>
      </trkpt>
      <trkpt lat="42.65271800570189952850341796875" lon="19.908573366701602935791015625">
        <ele>939</ele>
        <time>2026-06-16T06:43:56.000Z</time>
        <extensions>
          <ns3:TrackPointExtension>
            <ns3:atemp>19.0</ns3:atemp>
          </ns3:TrackPointExtension>
        </extensions>
      </trkpt>
      <trkpt lat="42.65269361436367034912109375" lon="19.9085748754441738128662109375">
        <ele>939.4000244140625</ele>
        <time>2026-06-16T06:43:57.000Z</time>
        <extensions>
          <ns3:TrackPointExtension>
            <ns3:atemp>19.0</ns3:atemp>
          </ns3:TrackPointExtension>
        </extensions>
      </trkpt>
      <trkpt lat="42.6526683010160923004150390625" lon="19.90857412107288837432861328125">
        <ele>939.5999755859375</ele>
        <time>2026-06-16T06:43:58.000Z</time>
        <extensions>
          <ns3:TrackPointExtension>
            <ns3:atemp>19.0</ns3:atemp>
          </ns3:TrackPointExtension>
        </extensions>
      </trkpt>
      <trkpt lat="42.65264474786818027496337890625" lon="19.90857780911028385162353515625">
        <ele>939.79998779296875</ele>
        <time>2026-06-16T06:43:59.000Z</time>
        <extensions>
          <ns3:TrackPointExtension>
            <ns3:atemp>19.0</ns3:atemp>
          </ns3:TrackPointExtension>
        </extensions>
      </trkpt>
      <trkpt lat="42.652619518339633941650390625" lon="19.90857881493866443634033203125">
        <ele>940</ele>
        <time>2026-06-16T06:44:00.000Z</time>
        <extensions>
          <ns3:TrackPointExtension>
            <ns3:atemp>19.0</ns3:atemp>
          </ns3:TrackPointExtension>
        </extensions>
      </trkpt>
      <trkpt lat="42.65259060077369213104248046875" lon="19.908581413328647613525390625">
        <ele>940.20001220703125</ele>
        <time>2026-06-16T06:44:01.000Z</time>
        <extensions>
          <ns3:TrackPointExtension>
            <ns3:atemp>19.0</ns3:atemp>
          </ns3:TrackPointExtension>
        </extensions>
      </trkpt>
      <trkpt lat="42.65255992300808429718017578125" lon="19.90858367644250392913818359375">
        <ele>940.4000244140625</ele>
        <time>2026-06-16T06:44:02.000Z</time>
        <extensions>
          <ns3:TrackPointExtension>
            <ns3:atemp>19.0</ns3:atemp>
          </ns3:TrackPointExtension>
        </extensions>
      </trkpt>
      <trkpt lat="42.6525346934795379638671875" lon="19.908584095537662506103515625">
        <ele>940.5999755859375</ele>
        <time>2026-06-16T06:44:03.000Z</time>
        <extensions>
          <ns3:TrackPointExtension>
            <ns3:atemp>19.0</ns3:atemp>
          </ns3:TrackPointExtension>
        </extensions>
      </trkpt>
      <trkpt lat="42.6525107212364673614501953125" lon="19.9085851013660430908203125">
        <ele>940.79998779296875</ele>
        <time>2026-06-16T06:44:04.000Z</time>
        <extensions>
          <ns3:TrackPointExtension>
            <ns3:atemp>19.0</ns3:atemp>
          </ns3:TrackPointExtension>
        </extensions>
      </trkpt>
      <trkpt lat="42.65248666517436504364013671875" lon="19.90858753211796283721923828125">
        <ele>941</ele>
        <time>2026-06-16T06:44:05.000Z</time>
        <extensions>
          <ns3:TrackPointExtension>
            <ns3:atemp>19.0</ns3:atemp>
          </ns3:TrackPointExtension>
        </extensions>
      </trkpt>
      <trkpt lat="42.6524627767503261566162109375" lon="19.9085902981460094451904296875">
        <ele>941.20001220703125</ele>
        <time>2026-06-16T06:44:06.000Z</time>
        <extensions>
          <ns3:TrackPointExtension>
            <ns3:atemp>19.0</ns3:atemp>
          </ns3:TrackPointExtension>
        </extensions>
      </trkpt>
      <trkpt lat="42.65243612229824066162109375" lon="19.9085822515189647674560546875">
        <ele>941.4000244140625</ele>
        <time>2026-06-16T06:44:07.000Z</time>
        <extensions>
          <ns3:TrackPointExtension>
            <ns3:atemp>19.0</ns3:atemp>
          </ns3:TrackPointExtension>
        </extensions>
      </trkpt>
      <trkpt lat="42.652408964931964874267578125" lon="19.90857479162514209747314453125">
        <ele>941.5999755859375</ele>
        <time>2026-06-16T06:44:08.000Z</time>
        <extensions>
          <ns3:TrackPointExtension>
            <ns3:atemp>19.0</ns3:atemp>
          </ns3:TrackPointExtension>
        </extensions>
      </trkpt>
      <trkpt lat="42.65238859690725803375244140625" lon="19.908568002283573150634765625">
        <ele>942</ele>
        <time>2026-06-16T06:44:09.000Z</time>
        <extensions>
          <ns3:TrackPointExtension>
            <ns3:atemp>19.0</ns3:atemp>
          </ns3:TrackPointExtension>
        </extensions>
      </trkpt>
      <trkpt lat="42.65236462466418743133544921875" lon="19.9085644818842411041259765625">
        <ele>942.20001220703125</ele>
        <time>2026-06-16T06:44:10.000Z</time>
        <extensions>
          <ns3:TrackPointExtension>
            <ns3:atemp>19.0</ns3:atemp>
          </ns3:TrackPointExtension>
        </extensions>
      </trkpt>
      <trkpt lat="42.6523415744304656982421875" lon="19.90855433978140354156494140625">
        <ele>942.4000244140625</ele>
        <time>2026-06-16T06:44:11.000Z</time>
        <extensions>
          <ns3:TrackPointExtension>
            <ns3:atemp>19.0</ns3:atemp>
          </ns3:TrackPointExtension>
        </extensions>
      </trkpt>
      <trkpt lat="42.65231408178806304931640625" lon="19.908550567924976348876953125">
        <ele>942.5999755859375</ele>
        <time>2026-06-16T06:44:12.000Z</time>
        <extensions>
          <ns3:TrackPointExtension>
            <ns3:atemp>19.0</ns3:atemp>
          </ns3:TrackPointExtension>
        </extensions>
      </trkpt>
      <trkpt lat="42.65228918753564357757568359375" lon="19.9085386656224727630615234375">
        <ele>943</ele>
        <time>2026-06-16T06:44:13.000Z</time>
        <extensions>
          <ns3:TrackPointExtension>
            <ns3:atemp>19.0</ns3:atemp>
          </ns3:TrackPointExtension>
        </extensions>
      </trkpt>
      <trkpt lat="42.65226781368255615234375" lon="19.90852600894868373870849609375">
        <ele>943.20001220703125</ele>
        <time>2026-06-16T06:44:14.000Z</time>
        <extensions>
          <ns3:TrackPointExtension>
            <ns3:atemp>19.0</ns3:atemp>
          </ns3:TrackPointExtension>
        </extensions>
      </trkpt>
      <trkpt lat="42.65224442817270755767822265625" lon="19.90851008333265781402587890625">
        <ele>943.5999755859375</ele>
        <time>2026-06-16T06:44:15.000Z</time>
        <extensions>
          <ns3:TrackPointExtension>
            <ns3:atemp>19.0</ns3:atemp>
          </ns3:TrackPointExtension>
        </extensions>
      </trkpt>
      <trkpt lat="42.652221210300922393798828125" lon="19.90849851630628108978271484375">
        <ele>943.79998779296875</ele>
        <time>2026-06-16T06:44:16.000Z</time>
        <extensions>
          <ns3:TrackPointExtension>
            <ns3:atemp>19.0</ns3:atemp>
          </ns3:TrackPointExtension>
        </extensions>
      </trkpt>
      <trkpt lat="42.65219665132462978363037109375" lon="19.90848745219409465789794921875">
        <ele>944.20001220703125</ele>
        <time>2026-06-16T06:44:17.000Z</time>
        <extensions>
          <ns3:TrackPointExtension>
            <ns3:atemp>19.0</ns3:atemp>
          </ns3:TrackPointExtension>
        </extensions>
      </trkpt>
      <trkpt lat="42.6521727629005908966064453125" lon="19.90847471170127391815185546875">
        <ele>944.4000244140625</ele>
        <time>2026-06-16T06:44:18.000Z</time>
        <extensions>
          <ns3:TrackPointExtension>
            <ns3:atemp>19.0</ns3:atemp>
          </ns3:TrackPointExtension>
        </extensions>
      </trkpt>
      <trkpt lat="42.65215055085718631744384765625" lon="19.9084632284939289093017578125">
        <ele>944.79998779296875</ele>
        <time>2026-06-16T06:44:19.000Z</time>
        <extensions>
          <ns3:TrackPointExtension>
            <ns3:atemp>19.0</ns3:atemp>
          </ns3:TrackPointExtension>
        </extensions>
      </trkpt>
      <trkpt lat="42.6521248184144496917724609375" lon="19.9084494821727275848388671875">
        <ele>945</ele>
        <time>2026-06-16T06:44:20.000Z</time>
        <extensions>
          <ns3:TrackPointExtension>
            <ns3:atemp>19.0</ns3:atemp>
          </ns3:TrackPointExtension>
        </extensions>
      </trkpt>
      <trkpt lat="42.65210059471428394317626953125" lon="19.90843917243182659149169921875">
        <ele>945.20001220703125</ele>
        <time>2026-06-16T06:44:21.000Z</time>
        <extensions>
          <ns3:TrackPointExtension>
            <ns3:atemp>19.0</ns3:atemp>
          </ns3:TrackPointExtension>
        </extensions>
      </trkpt>
      <trkpt lat="42.6520748622715473175048828125" lon="19.90843112580478191375732421875">
        <ele>945.5999755859375</ele>
        <time>2026-06-16T06:44:22.000Z</time>
        <extensions>
          <ns3:TrackPointExtension>
            <ns3:atemp>19.0</ns3:atemp>
          </ns3:TrackPointExtension>
        </extensions>
      </trkpt>
      <trkpt lat="42.652051560580730438232421875" lon="19.908425509929656982421875">
        <ele>945.79998779296875</ele>
        <time>2026-06-16T06:44:23.000Z</time>
        <extensions>
          <ns3:TrackPointExtension>
            <ns3:atemp>19.0</ns3:atemp>
          </ns3:TrackPointExtension>
        </extensions>
      </trkpt>
      <trkpt lat="42.65202532522380352020263671875" lon="19.9084166251122951507568359375">
        <ele>946</ele>
        <time>2026-06-16T06:44:24.000Z</time>
        <extensions>
          <ns3:TrackPointExtension>
            <ns3:atemp>19.0</ns3:atemp>
          </ns3:TrackPointExtension>
        </extensions>
      </trkpt>
      <trkpt lat="42.65199489891529083251953125" lon="19.90841503255069255828857421875">
        <ele>946.20001220703125</ele>
        <time>2026-06-16T06:44:25.000Z</time>
        <extensions>
          <ns3:TrackPointExtension>
            <ns3:atemp>19.0</ns3:atemp>
          </ns3:TrackPointExtension>
        </extensions>
      </trkpt>
      <trkpt lat="42.65196614898741245269775390625" lon="19.908410422503948211669921875">
        <ele>946.4000244140625</ele>
        <time>2026-06-16T06:44:26.000Z</time>
        <extensions>
          <ns3:TrackPointExtension>
            <ns3:atemp>19.0</ns3:atemp>
          </ns3:TrackPointExtension>
        </extensions>
      </trkpt>
      <trkpt lat="42.6519343815743923187255859375" lon="19.90840866230428218841552734375">
        <ele>946.5999755859375</ele>
        <time>2026-06-16T06:44:27.000Z</time>
        <extensions>
          <ns3:TrackPointExtension>
            <ns3:atemp>19.0</ns3:atemp>
          </ns3:TrackPointExtension>
        </extensions>
      </trkpt>
      <trkpt lat="42.65190144069492816925048828125" lon="19.908405728638172149658203125">
        <ele>946.79998779296875</ele>
        <time>2026-06-16T06:44:28.000Z</time>
        <extensions>
          <ns3:TrackPointExtension>
            <ns3:atemp>19.0</ns3:atemp>
          </ns3:TrackPointExtension>
        </extensions>
      </trkpt>
      <trkpt lat="42.6518720202147960662841796875" lon="19.908406399190425872802734375">
        <ele>946.79998779296875</ele>
        <time>2026-06-16T06:44:29.000Z</time>
        <extensions>
          <ns3:TrackPointExtension>
            <ns3:atemp>19.0</ns3:atemp>
          </ns3:TrackPointExtension>
        </extensions>
      </trkpt>
      <trkpt lat="42.65184528194367885589599609375" lon="19.90841302089393138885498046875">
        <ele>947</ele>
        <time>2026-06-16T06:44:30.000Z</time>
        <extensions>
          <ns3:TrackPointExtension>
            <ns3:atemp>19.0</ns3:atemp>
          </ns3:TrackPointExtension>
        </extensions>
      </trkpt>
      <trkpt lat="42.65181711874902248382568359375" lon="19.90841947495937347412109375">
        <ele>947</ele>
        <time>2026-06-16T06:44:31.000Z</time>
        <extensions>
          <ns3:TrackPointExtension>
            <ns3:atemp>19.0</ns3:atemp>
          </ns3:TrackPointExtension>
        </extensions>
      </trkpt>
      <trkpt lat="42.65178979374468326568603515625" lon="19.90842492319643497467041015625">
        <ele>947.20001220703125</ele>
        <time>2026-06-16T06:44:32.000Z</time>
        <extensions>
          <ns3:TrackPointExtension>
            <ns3:atemp>19.0</ns3:atemp>
          </ns3:TrackPointExtension>
        </extensions>
      </trkpt>
      <trkpt lat="42.6517610438168048858642578125" lon="19.90842827595770359039306640625">
        <ele>947.20001220703125</ele>
        <time>2026-06-16T06:44:33.000Z</time>
        <extensions>
          <ns3:TrackPointExtension>
            <ns3:atemp>19.0</ns3:atemp>
          </ns3:TrackPointExtension>
        </extensions>
      </trkpt>
      <trkpt lat="42.65173162333667278289794921875" lon="19.90842777304351329803466796875">
        <ele>947.4000244140625</ele>
        <time>2026-06-16T06:44:34.000Z</time>
        <extensions>
          <ns3:TrackPointExtension>
            <ns3:atemp>19.0</ns3:atemp>
          </ns3:TrackPointExtension>
        </extensions>
      </trkpt>
      <trkpt lat="42.65169943682849407196044921875" lon="19.90842559374868869781494140625">
        <ele>947.4000244140625</ele>
        <time>2026-06-16T06:44:35.000Z</time>
        <extensions>
          <ns3:TrackPointExtension>
            <ns3:atemp>19.0</ns3:atemp>
          </ns3:TrackPointExtension>
        </extensions>
      </trkpt>
      <trkpt lat="42.6516644842922687530517578125" lon="19.9084216542541980743408203125">
        <ele>947.5999755859375</ele>
        <time>2026-06-16T06:44:36.000Z</time>
        <extensions>
          <ns3:TrackPointExtension>
            <ns3:atemp>19.0</ns3:atemp>
          </ns3:TrackPointExtension>
        </extensions>
      </trkpt>
      <trkpt lat="42.651636488735675811767578125" lon="19.908416457474231719970703125">
        <ele>947.5999755859375</ele>
        <time>2026-06-16T06:44:37.000Z</time>
        <extensions>
          <ns3:TrackPointExtension>
            <ns3:atemp>19.0</ns3:atemp>
          </ns3:TrackPointExtension>
        </extensions>
      </trkpt>
      <trkpt lat="42.6516081579029560089111328125" lon="19.90841134451329708099365234375">
        <ele>947.79998779296875</ele>
        <time>2026-06-16T06:44:38.000Z</time>
        <extensions>
          <ns3:TrackPointExtension>
            <ns3:atemp>19.0</ns3:atemp>
          </ns3:TrackPointExtension>
        </extensions>
      </trkpt>
      <trkpt lat="42.65157806687057018280029296875" lon="19.908405058085918426513671875">
        <ele>948</ele>
        <time>2026-06-16T06:44:39.000Z</time>
        <extensions>
          <ns3:TrackPointExtension>
            <ns3:atemp>19.0</ns3:atemp>
          </ns3:TrackPointExtension>
        </extensions>
      </trkpt>
      <trkpt lat="42.65154940076172351837158203125" lon="19.908393323421478271484375">
        <ele>948.20001220703125</ele>
        <time>2026-06-16T06:44:40.000Z</time>
        <extensions>
          <ns3:TrackPointExtension>
            <ns3:atemp>19.0</ns3:atemp>
          </ns3:TrackPointExtension>
        </extensions>
      </trkpt>
      <trkpt lat="42.6515183039009571075439453125" lon="19.908379577100276947021484375">
        <ele>948.4000244140625</ele>
        <time>2026-06-16T06:44:41.000Z</time>
        <extensions>
          <ns3:TrackPointExtension>
            <ns3:atemp>19.0</ns3:atemp>
          </ns3:TrackPointExtension>
        </extensions>
      </trkpt>
      <trkpt lat="42.6514886319637298583984375" lon="19.90836826153099536895751953125">
        <ele>948.5999755859375</ele>
        <time>2026-06-16T06:44:42.000Z</time>
        <extensions>
          <ns3:TrackPointExtension>
            <ns3:atemp>19.0</ns3:atemp>
          </ns3:TrackPointExtension>
        </extensions>
      </trkpt>
      <trkpt lat="42.65145468525588512420654296875" lon="19.908361472189426422119140625">
        <ele>948.79998779296875</ele>
        <time>2026-06-16T06:44:43.000Z</time>
        <extensions>
          <ns3:TrackPointExtension>
            <ns3:atemp>19.0</ns3:atemp>
          </ns3:TrackPointExtension>
        </extensions>
      </trkpt>
      <trkpt lat="42.65142761170864105224609375" lon="19.90835350938141345977783203125">
        <ele>949</ele>
        <time>2026-06-16T06:44:44.000Z</time>
        <extensions>
          <ns3:TrackPointExtension>
            <ns3:atemp>19.0</ns3:atemp>
          </ns3:TrackPointExtension>
        </extensions>
      </trkpt>
      <trkpt lat="42.65140037052333354949951171875" lon="19.90834437310695648193359375">
        <ele>949.20001220703125</ele>
        <time>2026-06-16T06:44:45.000Z</time>
        <extensions>
          <ns3:TrackPointExtension>
            <ns3:atemp>19.0</ns3:atemp>
          </ns3:TrackPointExtension>
        </extensions>
      </trkpt>
      <trkpt lat="42.65137338079512119293212890625" lon="19.9083368293941020965576171875">
        <ele>949.4000244140625</ele>
        <time>2026-06-16T06:44:46.000Z</time>
        <extensions>
          <ns3:TrackPointExtension>
            <ns3:atemp>19.0</ns3:atemp>
          </ns3:TrackPointExtension>
        </extensions>
      </trkpt>
      <trkpt lat="42.65134119428694248199462890625" lon="19.9083294533193111419677734375">
        <ele>949.5999755859375</ele>
        <time>2026-06-16T06:44:47.000Z</time>
        <extensions>
          <ns3:TrackPointExtension>
            <ns3:atemp>19.0</ns3:atemp>
          </ns3:TrackPointExtension>
        </extensions>
      </trkpt>
      <trkpt lat="42.6513114385306835174560546875" lon="19.908323585987091064453125">
        <ele>950</ele>
        <time>2026-06-16T06:44:48.000Z</time>
        <extensions>
          <ns3:TrackPointExtension>
            <ns3:atemp>19.0</ns3:atemp>
          </ns3:TrackPointExtension>
        </extensions>
      </trkpt>
      <trkpt lat="42.651282437145709991455078125" lon="19.90831755101680755615234375">
        <ele>950.20001220703125</ele>
        <time>2026-06-16T06:44:49.000Z</time>
        <extensions>
          <ns3:TrackPointExtension>
            <ns3:atemp>19.0</ns3:atemp>
          </ns3:TrackPointExtension>
        </extensions>
      </trkpt>
      <trkpt lat="42.65125192701816558837890625" lon="19.90831377916038036346435546875">
        <ele>950.4000244140625</ele>
        <time>2026-06-16T06:44:50.000Z</time>
        <extensions>
          <ns3:TrackPointExtension>
            <ns3:atemp>19.0</ns3:atemp>
          </ns3:TrackPointExtension>
        </extensions>
      </trkpt>
      <trkpt lat="42.65121915377676486968994140625" lon="19.90831193514168262481689453125">
        <ele>950.5999755859375</ele>
        <time>2026-06-16T06:44:51.000Z</time>
        <extensions>
          <ns3:TrackPointExtension>
            <ns3:atemp>19.0</ns3:atemp>
          </ns3:TrackPointExtension>
        </extensions>
      </trkpt>
      <trkpt lat="42.6511920802295207977294921875" lon="19.908303804695606231689453125">
        <ele>950.79998779296875</ele>
        <time>2026-06-16T06:44:52.000Z</time>
        <extensions>
          <ns3:TrackPointExtension>
            <ns3:atemp>19.0</ns3:atemp>
          </ns3:TrackPointExtension>
        </extensions>
      </trkpt>
      <trkpt lat="42.651165090501308441162109375" lon="19.90829366259276866912841796875">
        <ele>951.20001220703125</ele>
        <time>2026-06-16T06:44:53.000Z</time>
        <extensions>
          <ns3:TrackPointExtension>
            <ns3:atemp>19.0</ns3:atemp>
          </ns3:TrackPointExtension>
        </extensions>
      </trkpt>
      <trkpt lat="42.65113818459212779998779296875" lon="19.90828804671764373779296875">
        <ele>951.4000244140625</ele>
        <time>2026-06-16T06:44:54.000Z</time>
        <extensions>
          <ns3:TrackPointExtension>
            <ns3:atemp>19.0</ns3:atemp>
          </ns3:TrackPointExtension>
        </extensions>
      </trkpt>
      <trkpt lat="42.65111069194972515106201171875" lon="19.908280670642852783203125">
        <ele>951.79998779296875</ele>
        <time>2026-06-16T06:44:55.000Z</time>
        <extensions>
          <ns3:TrackPointExtension>
            <ns3:atemp>19.0</ns3:atemp>
          </ns3:TrackPointExtension>
        </extensions>
      </trkpt>
      <trkpt lat="42.6510874740779399871826171875" lon="19.90827287547290325164794921875">
        <ele>952</ele>
        <time>2026-06-16T06:44:56.000Z</time>
        <extensions>
          <ns3:TrackPointExtension>
            <ns3:atemp>19.0</ns3:atemp>
          </ns3:TrackPointExtension>
        </extensions>
      </trkpt>
      <trkpt lat="42.65106006525456905364990234375" lon="19.9082670919597148895263671875">
        <ele>952.20001220703125</ele>
        <time>2026-06-16T06:44:57.000Z</time>
        <extensions>
          <ns3:TrackPointExtension>
            <ns3:atemp>19.0</ns3:atemp>
          </ns3:TrackPointExtension>
        </extensions>
      </trkpt>
      <trkpt lat="42.65103911049664020538330078125" lon="19.90826164372265338897705078125">
        <ele>952.4000244140625</ele>
        <time>2026-06-16T06:44:58.000Z</time>
        <extensions>
          <ns3:TrackPointExtension>
            <ns3:atemp>19.0</ns3:atemp>
          </ns3:TrackPointExtension>
        </extensions>
      </trkpt>
      <trkpt lat="42.65101815573871135711669921875" lon="19.90825560875236988067626953125">
        <ele>952.79998779296875</ele>
        <time>2026-06-16T06:44:59.000Z</time>
        <extensions>
          <ns3:TrackPointExtension>
            <ns3:atemp>19.0</ns3:atemp>
          </ns3:TrackPointExtension>
        </extensions>
      </trkpt>
      <trkpt lat="42.65099585987627506256103515625" lon="19.90824789740145206451416015625">
        <ele>953</ele>
        <time>2026-06-16T06:45:00.000Z</time>
        <extensions>
          <ns3:TrackPointExtension>
            <ns3:atemp>19.0</ns3:atemp>
          </ns3:TrackPointExtension>
        </extensions>
      </trkpt>
      <trkpt lat="42.6509682834148406982421875" lon="19.90824018605053424835205078125">
        <ele>953.4000244140625</ele>
        <time>2026-06-16T06:45:01.000Z</time>
        <extensions>
          <ns3:TrackPointExtension>
            <ns3:atemp>19.0</ns3:atemp>
          </ns3:TrackPointExtension>
        </extensions>
      </trkpt>
      <trkpt lat="42.650943137705326080322265625" lon="19.9082395993173122406005859375">
        <ele>953.5999755859375</ele>
        <time>2026-06-16T06:45:02.000Z</time>
        <extensions>
          <ns3:TrackPointExtension>
            <ns3:atemp>19.0</ns3:atemp>
          </ns3:TrackPointExtension>
        </extensions>
      </trkpt>
      <trkpt lat="42.65091774053871631622314453125" lon="19.90822962485253810882568359375">
        <ele>954</ele>
        <time>2026-06-16T06:45:03.000Z</time>
        <extensions>
          <ns3:TrackPointExtension>
            <ns3:atemp>19.0</ns3:atemp>
          </ns3:TrackPointExtension>
        </extensions>
      </trkpt>
      <trkpt lat="42.65089385211467742919921875" lon="19.9082225002348423004150390625">
        <ele>954.20001220703125</ele>
        <time>2026-06-16T06:45:04.000Z</time>
        <extensions>
          <ns3:TrackPointExtension>
            <ns3:atemp>19.0</ns3:atemp>
          </ns3:TrackPointExtension>
        </extensions>
      </trkpt>
      <trkpt lat="42.65087373554706573486328125" lon="19.90822233259677886962890625">
        <ele>954.5999755859375</ele>
        <time>2026-06-16T06:45:05.000Z</time>
        <extensions>
          <ns3:TrackPointExtension>
            <ns3:atemp>18.0</ns3:atemp>
          </ns3:TrackPointExtension>
        </extensions>
      </trkpt>
      <trkpt lat="42.65085135586559772491455078125" lon="19.90821436978876590728759765625">
        <ele>954.79998779296875</ele>
        <time>2026-06-16T06:45:06.000Z</time>
        <extensions>
          <ns3:TrackPointExtension>
            <ns3:atemp>18.0</ns3:atemp>
          </ns3:TrackPointExtension>
        </extensions>
      </trkpt>
      <trkpt lat="42.65083073638379573822021484375" lon="19.90820380859076976776123046875">
        <ele>955.20001220703125</ele>
        <time>2026-06-16T06:45:07.000Z</time>
        <extensions>
          <ns3:TrackPointExtension>
            <ns3:atemp>19.0</ns3:atemp>
          </ns3:TrackPointExtension>
        </extensions>
      </trkpt>
      <trkpt lat="42.6508091948926448822021484375" lon="19.90819752216339111328125">
        <ele>955.5999755859375</ele>
        <time>2026-06-16T06:45:08.000Z</time>
        <extensions>
          <ns3:TrackPointExtension>
            <ns3:atemp>18.0</ns3:atemp>
          </ns3:TrackPointExtension>
        </extensions>
      </trkpt>
      <trkpt lat="42.65079016797244548797607421875" lon="19.90818955935537815093994140625">
        <ele>955.79998779296875</ele>
        <time>2026-06-16T06:45:09.000Z</time>
        <extensions>
          <ns3:TrackPointExtension>
            <ns3:atemp>18.0</ns3:atemp>
          </ns3:TrackPointExtension>
        </extensions>
      </trkpt>
      <trkpt lat="42.65077290125191211700439453125" lon="19.90818704478442668914794921875">
        <ele>956</ele>
        <time>2026-06-16T06:45:10.000Z</time>
        <extensions>
          <ns3:TrackPointExtension>
            <ns3:atemp>18.0</ns3:atemp>
          </ns3:TrackPointExtension>
        </extensions>
      </trkpt>
      <trkpt lat="42.65075915493071079254150390625" lon="19.908184446394443511962890625">
        <ele>956.4000244140625</ele>
        <time>2026-06-16T06:45:11.000Z</time>
        <extensions>
          <ns3:TrackPointExtension>
            <ns3:atemp>18.0</ns3:atemp>
          </ns3:TrackPointExtension>
        </extensions>
      </trkpt>
      <trkpt lat="42.6507451571524143218994140625" lon="19.90818050689995288848876953125">
        <ele>956.5999755859375</ele>
        <time>2026-06-16T06:45:12.000Z</time>
        <extensions>
          <ns3:TrackPointExtension>
            <ns3:atemp>18.0</ns3:atemp>
          </ns3:TrackPointExtension>
        </extensions>
      </trkpt>
      <trkpt lat="42.65073157846927642822265625" lon="19.908185116946697235107421875">
        <ele>956.79998779296875</ele>
        <time>2026-06-16T06:45:13.000Z</time>
        <extensions>
          <ns3:TrackPointExtension>
            <ns3:atemp>18.0</ns3:atemp>
          </ns3:TrackPointExtension>
        </extensions>
      </trkpt>
      <trkpt lat="42.65071758069097995758056640625" lon="19.90818209946155548095703125">
        <ele>957</ele>
        <time>2026-06-16T06:45:14.000Z</time>
        <extensions>
          <ns3:TrackPointExtension>
            <ns3:atemp>18.0</ns3:atemp>
          </ns3:TrackPointExtension>
        </extensions>
      </trkpt>
      <trkpt lat="42.65070014633238315582275390625" lon="19.9081772379577159881591796875">
        <ele>957.20001220703125</ele>
        <time>2026-06-16T06:45:15.000Z</time>
        <extensions>
          <ns3:TrackPointExtension>
            <ns3:atemp>18.0</ns3:atemp>
          </ns3:TrackPointExtension>
        </extensions>
      </trkpt>
      <trkpt lat="42.650683633983135223388671875" lon="19.90817983634769916534423828125">
        <ele>957.4000244140625</ele>
        <time>2026-06-16T06:45:16.000Z</time>
        <extensions>
          <ns3:TrackPointExtension>
            <ns3:atemp>18.0</ns3:atemp>
          </ns3:TrackPointExtension>
        </extensions>
      </trkpt>
      <trkpt lat="42.650663852691650390625" lon="19.908184446394443511962890625">
        <ele>957.4000244140625</ele>
        <time>2026-06-16T06:45:17.000Z</time>
        <extensions>
          <ns3:TrackPointExtension>
            <ns3:atemp>18.0</ns3:atemp>
          </ns3:TrackPointExtension>
        </extensions>
      </trkpt>
      <trkpt lat="42.6506485976278781890869140625" lon="19.90818905644118785858154296875">
        <ele>957.5999755859375</ele>
        <time>2026-06-16T06:45:18.000Z</time>
        <extensions>
          <ns3:TrackPointExtension>
            <ns3:atemp>18.0</ns3:atemp>
          </ns3:TrackPointExtension>
        </extensions>
      </trkpt>
      <trkpt lat="42.65063904225826263427734375" lon="19.90818939171731472015380859375">
        <ele>957.5999755859375</ele>
        <time>2026-06-16T06:45:19.000Z</time>
        <extensions>
          <ns3:TrackPointExtension>
            <ns3:atemp>18.0</ns3:atemp>
          </ns3:TrackPointExtension>
        </extensions>
      </trkpt>
      <trkpt lat="42.6506382040679454803466796875" lon="19.908187128603458404541015625">
        <ele>957.79998779296875</ele>
        <time>2026-06-16T06:45:20.000Z</time>
        <extensions>
          <ns3:TrackPointExtension>
            <ns3:atemp>18.0</ns3:atemp>
          </ns3:TrackPointExtension>
        </extensions>
      </trkpt>
      <trkpt lat="42.6506382040679454803466796875" lon="19.908187128603458404541015625">
        <ele>958</ele>
        <time>2026-06-16T06:45:21.000Z</time>
        <extensions>
          <ns3:TrackPointExtension>
            <ns3:atemp>18.0</ns3:atemp>
          </ns3:TrackPointExtension>
        </extensions>
      </trkpt>
      <trkpt lat="42.6506382040679454803466796875" lon="19.908187128603458404541015625">
        <ele>958</ele>
        <time>2026-06-16T06:45:22.000Z</time>
        <extensions>
          <ns3:TrackPointExtension>
            <ns3:atemp>18.0</ns3:atemp>
          </ns3:TrackPointExtension>
        </extensions>
      </trkpt>
      <trkpt lat="42.6506382040679454803466796875" lon="19.908187128603458404541015625">
        <ele>958</ele>
        <time>2026-06-16T06:45:23.000Z</time>
        <extensions>
          <ns3:TrackPointExtension>
            <ns3:atemp>18.0</ns3:atemp>
          </ns3:TrackPointExtension>
        </extensions>
      </trkpt>
      <trkpt lat="42.6506382040679454803466796875" lon="19.908187128603458404541015625">
        <ele>958.20001220703125</ele>
        <time>2026-06-16T06:45:24.000Z</time>
        <extensions>
          <ns3:TrackPointExtension>
            <ns3:atemp>18.0</ns3:atemp>
          </ns3:TrackPointExtension>
        </extensions>
      </trkpt>
      <trkpt lat="42.6506382040679454803466796875" lon="19.908187128603458404541015625">
        <ele>958.20001220703125</ele>
        <time>2026-06-16T06:45:25.000Z</time>
        <extensions>
          <ns3:TrackPointExtension>
            <ns3:atemp>18.0</ns3:atemp>
          </ns3:TrackPointExtension>
        </extensions>
      </trkpt>
      <trkpt lat="42.6506382040679454803466796875" lon="19.908187128603458404541015625">
        <ele>958</ele>
        <time>2026-06-16T06:45:26.000Z</time>
        <extensions>
          <ns3:TrackPointExtension>
            <ns3:atemp>18.0</ns3:atemp>
          </ns3:TrackPointExtension>
        </extensions>
      </trkpt>
      <trkpt lat="42.6506382040679454803466796875" lon="19.908187128603458404541015625">
        <ele>958</ele>
        <time>2026-06-16T06:45:27.000Z</time>
        <extensions>
          <ns3:TrackPointExtension>
            <ns3:atemp>18.0</ns3:atemp>
          </ns3:TrackPointExtension>
        </extensions>
      </trkpt>
      <trkpt lat="42.6506382040679454803466796875" lon="19.908187128603458404541015625">
        <ele>958</ele>
        <time>2026-06-16T06:45:28.000Z</time>
        <extensions>
          <ns3:TrackPointExtension>
            <ns3:atemp>18.0</ns3:atemp>
          </ns3:TrackPointExtension>
        </extensions>
      </trkpt>
      <trkpt lat="42.6506382040679454803466796875" lon="19.908187128603458404541015625">
        <ele>958</ele>
        <time>2026-06-16T06:45:29.000Z</time>
        <extensions>
          <ns3:TrackPointExtension>
            <ns3:atemp>18.0</ns3:atemp>
          </ns3:TrackPointExtension>
        </extensions>
      </trkpt>
      <trkpt lat="42.6506382040679454803466796875" lon="19.908187128603458404541015625">
        <ele>958</ele>
        <time>2026-06-16T06:45:30.000Z</time>
        <extensions>
          <ns3:TrackPointExtension>
            <ns3:atemp>18.0</ns3:atemp>
          </ns3:TrackPointExtension>
        </extensions>
      </trkpt>
      <trkpt lat="42.6506382040679454803466796875" lon="19.908187128603458404541015625">
        <ele>958</ele>
        <time>2026-06-16T06:45:31.000Z</time>
        <extensions>
          <ns3:TrackPointExtension>
            <ns3:atemp>18.0</ns3:atemp>
          </ns3:TrackPointExtension>
        </extensions>
      </trkpt>
      <trkpt lat="42.6506382040679454803466796875" lon="19.908187128603458404541015625">
        <ele>958</ele>
        <time>2026-06-16T06:45:32.000Z</time>
        <extensions>
          <ns3:TrackPointExtension>
            <ns3:atemp>18.0</ns3:atemp>
          </ns3:TrackPointExtension>
        </extensions>
      </trkpt>
      <trkpt lat="42.6506382040679454803466796875" lon="19.908187128603458404541015625">
        <ele>958</ele>
        <time>2026-06-16T06:45:33.000Z</time>
        <extensions>
          <ns3:TrackPointExtension>
            <ns3:atemp>18.0</ns3:atemp>
          </ns3:TrackPointExtension>
        </extensions>
      </trkpt>
      <trkpt lat="42.6506382040679454803466796875" lon="19.908187128603458404541015625">
        <ele>958</ele>
        <time>2026-06-16T06:45:34.000Z</time>
        <extensions>
          <ns3:TrackPointExtension>
            <ns3:atemp>18.0</ns3:atemp>
          </ns3:TrackPointExtension>
        </extensions>
      </trkpt>
      <trkpt lat="42.6506382040679454803466796875" lon="19.908187128603458404541015625">
        <ele>958</ele>
        <time>2026-06-16T06:45:35.000Z</time>
        <extensions>
          <ns3:TrackPointExtension>
            <ns3:atemp>18.0</ns3:atemp>
          </ns3:TrackPointExtension>
        </extensions>
      </trkpt>
      <trkpt lat="42.6506382040679454803466796875" lon="19.908187128603458404541015625">
        <ele>958</ele>
        <time>2026-06-16T06:45:36.000Z</time>
        <extensions>
          <ns3:TrackPointExtension>
            <ns3:atemp>18.0</ns3:atemp>
          </ns3:TrackPointExtension>
        </extensions>
      </trkpt>
      <trkpt lat="42.6506382040679454803466796875" lon="19.908187128603458404541015625">
        <ele>958</ele>
        <time>2026-06-16T06:45:37.000Z</time>
        <extensions>
          <ns3:TrackPointExtension>
            <ns3:atemp>18.0</ns3:atemp>
          </ns3:TrackPointExtension>
        </extensions>
      </trkpt>
      <trkpt lat="42.6506382040679454803466796875" lon="19.908187128603458404541015625">
        <ele>958</ele>
        <time>2026-06-16T06:45:38.000Z</time>
        <extensions>
          <ns3:TrackPointExtension>
            <ns3:atemp>18.0</ns3:atemp>
          </ns3:TrackPointExtension>
        </extensions>
      </trkpt>
      <trkpt lat="42.6506382040679454803466796875" lon="19.908187128603458404541015625">
        <ele>958</ele>
        <time>2026-06-16T06:45:39.000Z</time>
        <extensions>
          <ns3:TrackPointExtension>
            <ns3:atemp>18.0</ns3:atemp>
          </ns3:TrackPointExtension>
        </extensions>
      </trkpt>
      <trkpt lat="42.6506382040679454803466796875" lon="19.908187128603458404541015625">
        <ele>958</ele>
        <time>2026-06-16T06:45:40.000Z</time>
        <extensions>
          <ns3:TrackPointExtension>
            <ns3:atemp>18.0</ns3:atemp>
          </ns3:TrackPointExtension>
        </extensions>
      </trkpt>
      <trkpt lat="42.6506382040679454803466796875" lon="19.908187128603458404541015625">
        <ele>958</ele>
        <time>2026-06-16T06:45:41.000Z</time>
        <extensions>
          <ns3:TrackPointExtension>
            <ns3:atemp>18.0</ns3:atemp>
          </ns3:TrackPointExtension>
        </extensions>
      </trkpt>
      <trkpt lat="42.6506382040679454803466796875" lon="19.908187128603458404541015625">
        <ele>958</ele>
        <time>2026-06-16T06:45:42.000Z</time>
        <extensions>
          <ns3:TrackPointExtension>
            <ns3:atemp>18.0</ns3:atemp>
          </ns3:TrackPointExtension>
        </extensions>
      </trkpt>
      <trkpt lat="42.6506382040679454803466796875" lon="19.908187128603458404541015625">
        <ele>958</ele>
        <time>2026-06-16T06:45:43.000Z</time>
        <extensions>
          <ns3:TrackPointExtension>
            <ns3:atemp>18.0</ns3:atemp>
          </ns3:TrackPointExtension>
        </extensions>
      </trkpt>
      <trkpt lat="42.6506382040679454803466796875" lon="19.908187128603458404541015625">
        <ele>958</ele>
        <time>2026-06-16T06:45:44.000Z</time>
        <extensions>
          <ns3:TrackPointExtension>
            <ns3:atemp>18.0</ns3:atemp>
          </ns3:TrackPointExtension>
        </extensions>
      </trkpt>
      <trkpt lat="42.6506382040679454803466796875" lon="19.908187128603458404541015625">
        <ele>958</ele>
        <time>2026-06-16T06:45:45.000Z</time>
        <extensions>
          <ns3:TrackPointExtension>
            <ns3:atemp>18.0</ns3:atemp>
          </ns3:TrackPointExtension>
        </extensions>
      </trkpt>
      <trkpt lat="42.6506382040679454803466796875" lon="19.908187128603458404541015625">
        <ele>958</ele>
        <time>2026-06-16T06:45:46.000Z</time>
        <extensions>
          <ns3:TrackPointExtension>
            <ns3:atemp>18.0</ns3:atemp>
          </ns3:TrackPointExtension>
        </extensions>
      </trkpt>
      <trkpt lat="42.6506382040679454803466796875" lon="19.908187128603458404541015625">
        <ele>958</ele>
        <time>2026-06-16T06:45:47.000Z</time>
        <extensions>
          <ns3:TrackPointExtension>
            <ns3:atemp>18.0</ns3:atemp>
          </ns3:TrackPointExtension>
        </extensions>
      </trkpt>
      <trkpt lat="42.6506382040679454803466796875" lon="19.908187128603458404541015625">
        <ele>958</ele>
        <time>2026-06-16T06:45:48.000Z</time>
        <extensions>
          <ns3:TrackPointExtension>
            <ns3:atemp>18.0</ns3:atemp>
          </ns3:TrackPointExtension>
        </extensions>
      </trkpt>
      <trkpt lat="42.6506382040679454803466796875" lon="19.908187128603458404541015625">
        <ele>958</ele>
        <time>2026-06-16T06:45:49.000Z</time>
        <extensions>
          <ns3:TrackPointExtension>
            <ns3:atemp>18.0</ns3:atemp>
          </ns3:TrackPointExtension>
        </extensions>
      </trkpt>
      <trkpt lat="42.6506382040679454803466796875" lon="19.908187128603458404541015625">
        <ele>958</ele>
        <time>2026-06-16T06:45:50.000Z</time>
        <extensions>
          <ns3:TrackPointExtension>
            <ns3:atemp>18.0</ns3:atemp>
          </ns3:TrackPointExtension>
        </extensions>
      </trkpt>
      <trkpt lat="42.6506382040679454803466796875" lon="19.908187128603458404541015625">
        <ele>958</ele>
        <time>2026-06-16T06:45:51.000Z</time>
        <extensions>
          <ns3:TrackPointExtension>
            <ns3:atemp>18.0</ns3:atemp>
          </ns3:TrackPointExtension>
        </extensions>
      </trkpt>
      <trkpt lat="42.6506382040679454803466796875" lon="19.908187128603458404541015625">
        <ele>958</ele>
        <time>2026-06-16T06:45:52.000Z</time>
        <extensions>
          <ns3:TrackPointExtension>
            <ns3:atemp>18.0</ns3:atemp>
          </ns3:TrackPointExtension>
        </extensions>
      </trkpt>
      <trkpt lat="42.6506382040679454803466796875" lon="19.908187128603458404541015625">
        <ele>958</ele>
        <time>2026-06-16T06:45:53.000Z</time>
        <extensions>
          <ns3:TrackPointExtension>
            <ns3:atemp>18.0</ns3:atemp>
          </ns3:TrackPointExtension>
        </extensions>
      </trkpt>
      <trkpt lat="42.6506382040679454803466796875" lon="19.908187128603458404541015625">
        <ele>958</ele>
        <time>2026-06-16T06:45:54.000Z</time>
        <extensions>
          <ns3:TrackPointExtension>
            <ns3:atemp>18.0</ns3:atemp>
          </ns3:TrackPointExtension>
        </extensions>
      </trkpt>
      <trkpt lat="42.6506382040679454803466796875" lon="19.908187128603458404541015625">
        <ele>958</ele>
        <time>2026-06-16T06:45:55.000Z</time>
        <extensions>
          <ns3:TrackPointExtension>
            <ns3:atemp>18.0</ns3:atemp>
          </ns3:TrackPointExtension>
        </extensions>
      </trkpt>
      <trkpt lat="42.6506382040679454803466796875" lon="19.908187128603458404541015625">
        <ele>958</ele>
        <time>2026-06-16T06:45:56.000Z</time>
        <extensions>
          <ns3:TrackPointExtension>
            <ns3:atemp>18.0</ns3:atemp>
          </ns3:TrackPointExtension>
        </extensions>
      </trkpt>
      <trkpt lat="42.6506382040679454803466796875" lon="19.908187128603458404541015625">
        <ele>958</ele>
        <time>2026-06-16T06:45:57.000Z</time>
        <extensions>
          <ns3:TrackPointExtension>
            <ns3:atemp>18.0</ns3:atemp>
          </ns3:TrackPointExtension>
        </extensions>
      </trkpt>
      <trkpt lat="42.6506382040679454803466796875" lon="19.908187128603458404541015625">
        <ele>958</ele>
        <time>2026-06-16T06:45:58.000Z</time>
        <extensions>
          <ns3:TrackPointExtension>
            <ns3:atemp>18.0</ns3:atemp>
          </ns3:TrackPointExtension>
        </extensions>
      </trkpt>
      <trkpt lat="42.6506382040679454803466796875" lon="19.908187128603458404541015625">
        <ele>958</ele>
        <time>2026-06-16T06:45:59.000Z</time>
        <extensions>
          <ns3:TrackPointExtension>
            <ns3:atemp>18.0</ns3:atemp>
          </ns3:TrackPointExtension>
        </extensions>
      </trkpt>
      <trkpt lat="42.6506382040679454803466796875" lon="19.908187128603458404541015625">
        <ele>958</ele>
        <time>2026-06-16T06:46:00.000Z</time>
        <extensions>
          <ns3:TrackPointExtension>
            <ns3:atemp>18.0</ns3:atemp>
          </ns3:TrackPointExtension>
        </extensions>
      </trkpt>
      <trkpt lat="42.6506382040679454803466796875" lon="19.908187128603458404541015625">
        <ele>958</ele>
        <time>2026-06-16T06:46:01.000Z</time>
        <extensions>
          <ns3:TrackPointExtension>
            <ns3:atemp>18.0</ns3:atemp>
          </ns3:TrackPointExtension>
        </extensions>
      </trkpt>
      <trkpt lat="42.6506382040679454803466796875" lon="19.908187128603458404541015625">
        <ele>958</ele>
        <time>2026-06-16T06:46:02.000Z</time>
        <extensions>
          <ns3:TrackPointExtension>
            <ns3:atemp>18.0</ns3:atemp>
          </ns3:TrackPointExtension>
        </extensions>
      </trkpt>
      <trkpt lat="42.6506382040679454803466796875" lon="19.908187128603458404541015625">
        <ele>958</ele>
        <time>2026-06-16T06:46:03.000Z</time>
        <extensions>
          <ns3:TrackPointExtension>
            <ns3:atemp>18.0</ns3:atemp>
          </ns3:TrackPointExtension>
        </extensions>
      </trkpt>
      <trkpt lat="42.6506382040679454803466796875" lon="19.908187128603458404541015625">
        <ele>958</ele>
        <time>2026-06-16T06:46:04.000Z</time>
        <extensions>
          <ns3:TrackPointExtension>
            <ns3:atemp>18.0</ns3:atemp>
          </ns3:TrackPointExtension>
        </extensions>
      </trkpt>
      <trkpt lat="42.6506382040679454803466796875" lon="19.908187128603458404541015625">
        <ele>958</ele>
        <time>2026-06-16T06:46:05.000Z</time>
        <extensions>
          <ns3:TrackPointExtension>
            <ns3:atemp>18.0</ns3:atemp>
          </ns3:TrackPointExtension>
        </extensions>
      </trkpt>
      <trkpt lat="42.6506382040679454803466796875" lon="19.908187128603458404541015625">
        <ele>958</ele>
        <time>2026-06-16T06:46:06.000Z</time>
        <extensions>
          <ns3:TrackPointExtension>
            <ns3:atemp>18.0</ns3:atemp>
          </ns3:TrackPointExtension>
        </extensions>
      </trkpt>
      <trkpt lat="42.6506382040679454803466796875" lon="19.908187128603458404541015625">
        <ele>958</ele>
        <time>2026-06-16T06:46:07.000Z</time>
        <extensions>
          <ns3:TrackPointExtension>
            <ns3:atemp>18.0</ns3:atemp>
          </ns3:TrackPointExtension>
        </extensions>
      </trkpt>
      <trkpt lat="42.6506382040679454803466796875" lon="19.908187128603458404541015625">
        <ele>958</ele>
        <time>2026-06-16T06:46:08.000Z</time>
        <extensions>
          <ns3:TrackPointExtension>
            <ns3:atemp>18.0</ns3:atemp>
          </ns3:TrackPointExtension>
        </extensions>
      </trkpt>
      <trkpt lat="42.6506382040679454803466796875" lon="19.908187128603458404541015625">
        <ele>958</ele>
        <time>2026-06-16T06:46:09.000Z</time>
        <extensions>
          <ns3:TrackPointExtension>
            <ns3:atemp>18.0</ns3:atemp>
          </ns3:TrackPointExtension>
        </extensions>
      </trkpt>
      <trkpt lat="42.6506382040679454803466796875" lon="19.908187128603458404541015625">
        <ele>958</ele>
        <time>2026-06-16T06:46:10.000Z</time>
        <extensions>
          <ns3:TrackPointExtension>
            <ns3:atemp>18.0</ns3:atemp>
          </ns3:TrackPointExtension>
        </extensions>
      </trkpt>
      <trkpt lat="42.6506382040679454803466796875" lon="19.908187128603458404541015625">
        <ele>958</ele>
        <time>2026-06-16T06:46:11.000Z</time>
        <extensions>
          <ns3:TrackPointExtension>
            <ns3:atemp>18.0</ns3:atemp>
          </ns3:TrackPointExtension>
        </extensions>
      </trkpt>
      <trkpt lat="42.6506382040679454803466796875" lon="19.908187128603458404541015625">
        <ele>958</ele>
        <time>2026-06-16T06:46:12.000Z</time>
        <extensions>
          <ns3:TrackPointExtension>
            <ns3:atemp>18.0</ns3:atemp>
          </ns3:TrackPointExtension>
        </extensions>
      </trkpt>
      <trkpt lat="42.6506382040679454803466796875" lon="19.908187128603458404541015625">
        <ele>958</ele>
        <time>2026-06-16T06:46:13.000Z</time>
        <extensions>
          <ns3:TrackPointExtension>
            <ns3:atemp>18.0</ns3:atemp>
          </ns3:TrackPointExtension>
        </extensions>
      </trkpt>
      <trkpt lat="42.6506382040679454803466796875" lon="19.908187128603458404541015625">
        <ele>958</ele>
        <time>2026-06-16T06:46:14.000Z</time>
        <extensions>
          <ns3:TrackPointExtension>
            <ns3:atemp>18.0</ns3:atemp>
          </ns3:TrackPointExtension>
        </extensions>
      </trkpt>
      <trkpt lat="42.6506382040679454803466796875" lon="19.908187128603458404541015625">
        <ele>958</ele>
        <time>2026-06-16T06:46:15.000Z</time>
        <extensions>
          <ns3:TrackPointExtension>
            <ns3:atemp>18.0</ns3:atemp>
          </ns3:TrackPointExtension>
        </extensions>
      </trkpt>
      <trkpt lat="42.6506382040679454803466796875" lon="19.908187128603458404541015625">
        <ele>958</ele>
        <time>2026-06-16T06:46:16.000Z</time>
        <extensions>
          <ns3:TrackPointExtension>
            <ns3:atemp>18.0</ns3:atemp>
          </ns3:TrackPointExtension>
        </extensions>
      </trkpt>
      <trkpt lat="42.6506382040679454803466796875" lon="19.908187128603458404541015625">
        <ele>958</ele>
        <time>2026-06-16T06:46:17.000Z</time>
        <extensions>
          <ns3:TrackPointExtension>
            <ns3:atemp>18.0</ns3:atemp>
          </ns3:TrackPointExtension>
        </extensions>
      </trkpt>
      <trkpt lat="42.6506382040679454803466796875" lon="19.908187128603458404541015625">
        <ele>958</ele>
        <time>2026-06-16T06:46:18.000Z</time>
        <extensions>
          <ns3:TrackPointExtension>
            <ns3:atemp>18.0</ns3:atemp>
          </ns3:TrackPointExtension>
        </extensions>
      </trkpt>
      <trkpt lat="42.6506382040679454803466796875" lon="19.908187128603458404541015625">
        <ele>958</ele>
        <time>2026-06-16T06:46:19.000Z</time>
        <extensions>
          <ns3:TrackPointExtension>
            <ns3:atemp>18.0</ns3:atemp>
          </ns3:TrackPointExtension>
        </extensions>
      </trkpt>
      <trkpt lat="42.6506382040679454803466796875" lon="19.908187128603458404541015625">
        <ele>958</ele>
        <time>2026-06-16T06:46:20.000Z</time>
        <extensions>
          <ns3:TrackPointExtension>
            <ns3:atemp>18.0</ns3:atemp>
          </ns3:TrackPointExtension>
        </extensions>
      </trkpt>
      <trkpt lat="42.6506382040679454803466796875" lon="19.908187128603458404541015625">
        <ele>958</ele>
        <time>2026-06-16T06:46:21.000Z</time>
        <extensions>
          <ns3:TrackPointExtension>
            <ns3:atemp>18.0</ns3:atemp>
          </ns3:TrackPointExtension>
        </extensions>
      </trkpt>
      <trkpt lat="42.6506382040679454803466796875" lon="19.908187128603458404541015625">
        <ele>958</ele>
        <time>2026-06-16T06:46:22.000Z</time>
        <extensions>
          <ns3:TrackPointExtension>
            <ns3:atemp>18.0</ns3:atemp>
          </ns3:TrackPointExtension>
        </extensions>
      </trkpt>
      <trkpt lat="42.6506382040679454803466796875" lon="19.908187128603458404541015625">
        <ele>958</ele>
        <time>2026-06-16T06:46:23.000Z</time>
        <extensions>
          <ns3:TrackPointExtension>
            <ns3:atemp>18.0</ns3:atemp>
          </ns3:TrackPointExtension>
        </extensions>
      </trkpt>
      <trkpt lat="42.6506382040679454803466796875" lon="19.908187128603458404541015625">
        <ele>958</ele>
        <time>2026-06-16T06:46:24.000Z</time>
        <extensions>
          <ns3:TrackPointExtension>
            <ns3:atemp>18.0</ns3:atemp>
          </ns3:TrackPointExtension>
        </extensions>
      </trkpt>
      <trkpt lat="42.6506382040679454803466796875" lon="19.908187128603458404541015625">
        <ele>958</ele>
        <time>2026-06-16T06:46:25.000Z</time>
        <extensions>
          <ns3:TrackPointExtension>
            <ns3:atemp>18.0</ns3:atemp>
          </ns3:TrackPointExtension>
        </extensions>
      </trkpt>
      <trkpt lat="42.6506382040679454803466796875" lon="19.908187128603458404541015625">
        <ele>958</ele>
        <time>2026-06-16T06:46:26.000Z</time>
        <extensions>
          <ns3:TrackPointExtension>
            <ns3:atemp>18.0</ns3:atemp>
          </ns3:TrackPointExtension>
        </extensions>
      </trkpt>
      <trkpt lat="42.6506382040679454803466796875" lon="19.908187128603458404541015625">
        <ele>958</ele>
        <time>2026-06-16T06:46:27.000Z</time>
        <extensions>
          <ns3:TrackPointExtension>
            <ns3:atemp>18.0</ns3:atemp>
          </ns3:TrackPointExtension>
        </extensions>
      </trkpt>
      <trkpt lat="42.6506382040679454803466796875" lon="19.908187128603458404541015625">
        <ele>958</ele>
        <time>2026-06-16T06:46:28.000Z</time>
        <extensions>
          <ns3:TrackPointExtension>
            <ns3:atemp>18.0</ns3:atemp>
          </ns3:TrackPointExtension>
        </extensions>
      </trkpt>
      <trkpt lat="42.6506382040679454803466796875" lon="19.908187128603458404541015625">
        <ele>958</ele>
        <time>2026-06-16T06:46:29.000Z</time>
        <extensions>
          <ns3:TrackPointExtension>
            <ns3:atemp>18.0</ns3:atemp>
          </ns3:TrackPointExtension>
        </extensions>
      </trkpt>
      <trkpt lat="42.6506382040679454803466796875" lon="19.908187128603458404541015625">
        <ele>958</ele>
        <time>2026-06-16T06:46:30.000Z</time>
        <extensions>
          <ns3:TrackPointExtension>
            <ns3:atemp>18.0</ns3:atemp>
          </ns3:TrackPointExtension>
        </extensions>
      </trkpt>
      <trkpt lat="42.6506382040679454803466796875" lon="19.908187128603458404541015625">
        <ele>958</ele>
        <time>2026-06-16T06:46:31.000Z</time>
        <extensions>
          <ns3:TrackPointExtension>
            <ns3:atemp>18.0</ns3:atemp>
          </ns3:TrackPointExtension>
        </extensions>
      </trkpt>
      <trkpt lat="42.6506382040679454803466796875" lon="19.908187128603458404541015625">
        <ele>958</ele>
        <time>2026-06-16T06:46:32.000Z</time>
        <extensions>
          <ns3:TrackPointExtension>
            <ns3:atemp>18.0</ns3:atemp>
          </ns3:TrackPointExtension>
        </extensions>
      </trkpt>
      <trkpt lat="42.6506382040679454803466796875" lon="19.908187128603458404541015625">
        <ele>958</ele>
        <time>2026-06-16T06:46:33.000Z</time>
        <extensions>
          <ns3:TrackPointExtension>
            <ns3:atemp>18.0</ns3:atemp>
          </ns3:TrackPointExtension>
        </extensions>
      </trkpt>
      <trkpt lat="42.6506382040679454803466796875" lon="19.908187128603458404541015625">
        <ele>958</ele>
        <time>2026-06-16T06:46:34.000Z</time>
        <extensions>
          <ns3:TrackPointExtension>
            <ns3:atemp>18.0</ns3:atemp>
          </ns3:TrackPointExtension>
        </extensions>
      </trkpt>
      <trkpt lat="42.6506382040679454803466796875" lon="19.908187128603458404541015625">
        <ele>958</ele>
        <time>2026-06-16T06:46:35.000Z</time>
        <extensions>
          <ns3:TrackPointExtension>
            <ns3:atemp>18.0</ns3:atemp>
          </ns3:TrackPointExtension>
        </extensions>
      </trkpt>
      <trkpt lat="42.6506382040679454803466796875" lon="19.908187128603458404541015625">
        <ele>958</ele>
        <time>2026-06-16T06:46:36.000Z</time>
        <extensions>
          <ns3:TrackPointExtension>
            <ns3:atemp>18.0</ns3:atemp>
          </ns3:TrackPointExtension>
        </extensions>
      </trkpt>
      <trkpt lat="42.6506382040679454803466796875" lon="19.908187128603458404541015625">
        <ele>958</ele>
        <time>2026-06-16T06:46:37.000Z</time>
        <extensions>
          <ns3:TrackPointExtension>
            <ns3:atemp>18.0</ns3:atemp>
          </ns3:TrackPointExtension>
        </extensions>
      </trkpt>
      <trkpt lat="42.6506382040679454803466796875" lon="19.908187128603458404541015625">
        <ele>958</ele>
        <time>2026-06-16T06:46:38.000Z</time>
        <extensions>
          <ns3:TrackPointExtension>
            <ns3:atemp>18.0</ns3:atemp>
          </ns3:TrackPointExtension>
        </extensions>
      </trkpt>
      <trkpt lat="42.6506382040679454803466796875" lon="19.908187128603458404541015625">
        <ele>958</ele>
        <time>2026-06-16T06:46:39.000Z</time>
        <extensions>
          <ns3:TrackPointExtension>
            <ns3:atemp>18.0</ns3:atemp>
          </ns3:TrackPointExtension>
        </extensions>
      </trkpt>
      <trkpt lat="42.6506382040679454803466796875" lon="19.908187128603458404541015625">
        <ele>958</ele>
        <time>2026-06-16T06:46:40.000Z</time>
        <extensions>
          <ns3:TrackPointExtension>
            <ns3:atemp>18.0</ns3:atemp>
          </ns3:TrackPointExtension>
        </extensions>
      </trkpt>
      <trkpt lat="42.6506382040679454803466796875" lon="19.908187128603458404541015625">
        <ele>958</ele>
        <time>2026-06-16T06:46:41.000Z</time>
        <extensions>
          <ns3:TrackPointExtension>
            <ns3:atemp>18.0</ns3:atemp>
          </ns3:TrackPointExtension>
        </extensions>
      </trkpt>
      <trkpt lat="42.6506382040679454803466796875" lon="19.908187128603458404541015625">
        <ele>958</ele>
        <time>2026-06-16T06:46:42.000Z</time>
        <extensions>
          <ns3:TrackPointExtension>
            <ns3:atemp>18.0</ns3:atemp>
          </ns3:TrackPointExtension>
        </extensions>
      </trkpt>
      <trkpt lat="42.6506382040679454803466796875" lon="19.908187128603458404541015625">
        <ele>958</ele>
        <time>2026-06-16T06:46:43.000Z</time>
        <extensions>
          <ns3:TrackPointExtension>
            <ns3:atemp>18.0</ns3:atemp>
          </ns3:TrackPointExtension>
        </extensions>
      </trkpt>
      <trkpt lat="42.6506382040679454803466796875" lon="19.908187128603458404541015625">
        <ele>958</ele>
        <time>2026-06-16T06:46:44.000Z</time>
        <extensions>
          <ns3:TrackPointExtension>
            <ns3:atemp>18.0</ns3:atemp>
          </ns3:TrackPointExtension>
        </extensions>
      </trkpt>
      <trkpt lat="42.6506382040679454803466796875" lon="19.908187128603458404541015625">
        <ele>958</ele>
        <time>2026-06-16T06:46:45.000Z</time>
        <extensions>
          <ns3:TrackPointExtension>
            <ns3:atemp>18.0</ns3:atemp>
          </ns3:TrackPointExtension>
        </extensions>
      </trkpt>
      <trkpt lat="42.6506382040679454803466796875" lon="19.908187128603458404541015625">
        <ele>958</ele>
        <time>2026-06-16T06:46:46.000Z</time>
        <extensions>
          <ns3:TrackPointExtension>
            <ns3:atemp>18.0</ns3:atemp>
          </ns3:TrackPointExtension>
        </extensions>
      </trkpt>
      <trkpt lat="42.6506382040679454803466796875" lon="19.908187128603458404541015625">
        <ele>958</ele>
        <time>2026-06-16T06:46:47.000Z</time>
        <extensions>
          <ns3:TrackPointExtension>
            <ns3:atemp>18.0</ns3:atemp>
          </ns3:TrackPointExtension>
        </extensions>
      </trkpt>
      <trkpt lat="42.6506382040679454803466796875" lon="19.908187128603458404541015625">
        <ele>958</ele>
        <time>2026-06-16T06:46:48.000Z</time>
        <extensions>
          <ns3:TrackPointExtension>
            <ns3:atemp>18.0</ns3:atemp>
          </ns3:TrackPointExtension>
        </extensions>
      </trkpt>
      <trkpt lat="42.6506382040679454803466796875" lon="19.908187128603458404541015625">
        <ele>958</ele>
        <time>2026-06-16T06:46:49.000Z</time>
        <extensions>
          <ns3:TrackPointExtension>
            <ns3:atemp>18.0</ns3:atemp>
          </ns3:TrackPointExtension>
        </extensions>
      </trkpt>
      <trkpt lat="42.6506382040679454803466796875" lon="19.908187128603458404541015625">
        <ele>958</ele>
        <time>2026-06-16T06:46:50.000Z</time>
        <extensions>
          <ns3:TrackPointExtension>
            <ns3:atemp>18.0</ns3:atemp>
          </ns3:TrackPointExtension>
        </extensions>
      </trkpt>
      <trkpt lat="42.6506382040679454803466796875" lon="19.908187128603458404541015625">
        <ele>958</ele>
        <time>2026-06-16T06:46:51.000Z</time>
        <extensions>
          <ns3:TrackPointExtension>
            <ns3:atemp>18.0</ns3:atemp>
          </ns3:TrackPointExtension>
        </extensions>
      </trkpt>
      <trkpt lat="42.6506382040679454803466796875" lon="19.908187128603458404541015625">
        <ele>958</ele>
        <time>2026-06-16T06:46:52.000Z</time>
        <extensions>
          <ns3:TrackPointExtension>
            <ns3:atemp>18.0</ns3:atemp>
          </ns3:TrackPointExtension>
        </extensions>
      </trkpt>
      <trkpt lat="42.6506382040679454803466796875" lon="19.908187128603458404541015625">
        <ele>958</ele>
        <time>2026-06-16T06:46:53.000Z</time>
        <extensions>
          <ns3:TrackPointExtension>
            <ns3:atemp>18.0</ns3:atemp>
          </ns3:TrackPointExtension>
        </extensions>
      </trkpt>
      <trkpt lat="42.6506382040679454803466796875" lon="19.908187128603458404541015625">
        <ele>958</ele>
        <time>2026-06-16T06:46:54.000Z</time>
        <extensions>
          <ns3:TrackPointExtension>
            <ns3:atemp>18.0</ns3:atemp>
          </ns3:TrackPointExtension>
        </extensions>
      </trkpt>
      <trkpt lat="42.6506382040679454803466796875" lon="19.908187128603458404541015625">
        <ele>958</ele>
        <time>2026-06-16T06:46:55.000Z</time>
        <extensions>
          <ns3:TrackPointExtension>
            <ns3:atemp>18.0</ns3:atemp>
          </ns3:TrackPointExtension>
        </extensions>
      </trkpt>
      <trkpt lat="42.6506382040679454803466796875" lon="19.908187128603458404541015625">
        <ele>958</ele>
        <time>2026-06-16T06:46:56.000Z</time>
        <extensions>
          <ns3:TrackPointExtension>
            <ns3:atemp>18.0</ns3:atemp>
          </ns3:TrackPointExtension>
        </extensions>
      </trkpt>
      <trkpt lat="42.6506382040679454803466796875" lon="19.908187128603458404541015625">
        <ele>958</ele>
        <time>2026-06-16T06:46:57.000Z</time>
        <extensions>
          <ns3:TrackPointExtension>
            <ns3:atemp>18.0</ns3:atemp>
          </ns3:TrackPointExtension>
        </extensions>
      </trkpt>
      <trkpt lat="42.6506382040679454803466796875" lon="19.908187128603458404541015625">
        <ele>958</ele>
        <time>2026-06-16T06:46:58.000Z</time>
        <extensions>
          <ns3:TrackPointExtension>
            <ns3:atemp>18.0</ns3:atemp>
          </ns3:TrackPointExtension>
        </extensions>
      </trkpt>
      <trkpt lat="42.6506382040679454803466796875" lon="19.908187128603458404541015625">
        <ele>958</ele>
        <time>2026-06-16T06:46:59.000Z</time>
        <extensions>
          <ns3:TrackPointExtension>
            <ns3:atemp>18.0</ns3:atemp>
          </ns3:TrackPointExtension>
        </extensions>
      </trkpt>
      <trkpt lat="42.6506382040679454803466796875" lon="19.908187128603458404541015625">
        <ele>958</ele>
        <time>2026-06-16T06:47:00.000Z</time>
        <extensions>
          <ns3:TrackPointExtension>
            <ns3:atemp>18.0</ns3:atemp>
          </ns3:TrackPointExtension>
        </extensions>
      </trkpt>
      <trkpt lat="42.6506382040679454803466796875" lon="19.908187128603458404541015625">
        <ele>958</ele>
        <time>2026-06-16T06:47:01.000Z</time>
        <extensions>
          <ns3:TrackPointExtension>
            <ns3:atemp>18.0</ns3:atemp>
          </ns3:TrackPointExtension>
        </extensions>
      </trkpt>
      <trkpt lat="42.6506382040679454803466796875" lon="19.908187128603458404541015625">
        <ele>958</ele>
        <time>2026-06-16T06:47:02.000Z</time>
        <extensions>
          <ns3:TrackPointExtension>
            <ns3:atemp>18.0</ns3:atemp>
          </ns3:TrackPointExtension>
        </extensions>
      </trkpt>
      <trkpt lat="42.6506382040679454803466796875" lon="19.908187128603458404541015625">
        <ele>958</ele>
        <time>2026-06-16T06:47:03.000Z</time>
        <extensions>
          <ns3:TrackPointExtension>
            <ns3:atemp>18.0</ns3:atemp>
          </ns3:TrackPointExtension>
        </extensions>
      </trkpt>
      <trkpt lat="42.6506382040679454803466796875" lon="19.908187128603458404541015625">
        <ele>958</ele>
        <time>2026-06-16T06:47:04.000Z</time>
        <extensions>
          <ns3:TrackPointExtension>
            <ns3:atemp>18.0</ns3:atemp>
          </ns3:TrackPointExtension>
        </extensions>
      </trkpt>
      <trkpt lat="42.6506382040679454803466796875" lon="19.908187128603458404541015625">
        <ele>958</ele>
        <time>2026-06-16T06:47:05.000Z</time>
        <extensions>
          <ns3:TrackPointExtension>
            <ns3:atemp>18.0</ns3:atemp>
          </ns3:TrackPointExtension>
        </extensions>
      </trkpt>
      <trkpt lat="42.6506382040679454803466796875" lon="19.908187128603458404541015625">
        <ele>958</ele>
        <time>2026-06-16T06:47:06.000Z</time>
        <extensions>
          <ns3:TrackPointExtension>
            <ns3:atemp>18.0</ns3:atemp>
          </ns3:TrackPointExtension>
        </extensions>
      </trkpt>
      <trkpt lat="42.6506382040679454803466796875" lon="19.908187128603458404541015625">
        <ele>958</ele>
        <time>2026-06-16T06:47:07.000Z</time>
        <extensions>
          <ns3:TrackPointExtension>
            <ns3:atemp>18.0</ns3:atemp>
          </ns3:TrackPointExtension>
        </extensions>
      </trkpt>
      <trkpt lat="42.6506382040679454803466796875" lon="19.908187128603458404541015625">
        <ele>958</ele>
        <time>2026-06-16T06:47:08.000Z</time>
        <extensions>
          <ns3:TrackPointExtension>
            <ns3:atemp>18.0</ns3:atemp>
          </ns3:TrackPointExtension>
        </extensions>
      </trkpt>
      <trkpt lat="42.6506382040679454803466796875" lon="19.908187128603458404541015625">
        <ele>958</ele>
        <time>2026-06-16T06:47:09.000Z</time>
        <extensions>
          <ns3:TrackPointExtension>
            <ns3:atemp>18.0</ns3:atemp>
          </ns3:TrackPointExtension>
        </extensions>
      </trkpt>
      <trkpt lat="42.6506382040679454803466796875" lon="19.908187128603458404541015625">
        <ele>958</ele>
        <time>2026-06-16T06:47:10.000Z</time>
        <extensions>
          <ns3:TrackPointExtension>
            <ns3:atemp>18.0</ns3:atemp>
          </ns3:TrackPointExtension>
        </extensions>
      </trkpt>
      <trkpt lat="42.6506382040679454803466796875" lon="19.908187128603458404541015625">
        <ele>958</ele>
        <time>2026-06-16T06:47:11.000Z</time>
        <extensions>
          <ns3:TrackPointExtension>
            <ns3:atemp>18.0</ns3:atemp>
          </ns3:TrackPointExtension>
        </extensions>
      </trkpt>
      <trkpt lat="42.6506382040679454803466796875" lon="19.908187128603458404541015625">
        <ele>958</ele>
        <time>2026-06-16T06:47:12.000Z</time>
        <extensions>
          <ns3:TrackPointExtension>
            <ns3:atemp>18.0</ns3:atemp>
          </ns3:TrackPointExtension>
        </extensions>
      </trkpt>
      <trkpt lat="42.65063761733472347259521484375" lon="19.90818922407925128936767578125">
        <ele>958</ele>
        <time>2026-06-16T06:47:13.000Z</time>
        <extensions>
          <ns3:TrackPointExtension>
            <ns3:atemp>18.0</ns3:atemp>
          </ns3:TrackPointExtension>
        </extensions>
      </trkpt>
      <trkpt lat="42.6506382040679454803466796875" lon="19.908187128603458404541015625">
        <ele>958</ele>
        <time>2026-06-16T06:47:14.000Z</time>
        <extensions>
          <ns3:TrackPointExtension>
            <ns3:atemp>18.0</ns3:atemp>
          </ns3:TrackPointExtension>
        </extensions>
      </trkpt>
      <trkpt lat="42.6506382040679454803466796875" lon="19.908187128603458404541015625">
        <ele>958</ele>
        <time>2026-06-16T06:47:15.000Z</time>
        <extensions>
          <ns3:TrackPointExtension>
            <ns3:atemp>18.0</ns3:atemp>
          </ns3:TrackPointExtension>
        </extensions>
      </trkpt>
      <trkpt lat="42.6506382040679454803466796875" lon="19.908187128603458404541015625">
        <ele>958</ele>
        <time>2026-06-16T06:47:16.000Z</time>
        <extensions>
          <ns3:TrackPointExtension>
            <ns3:atemp>18.0</ns3:atemp>
          </ns3:TrackPointExtension>
        </extensions>
      </trkpt>
      <trkpt lat="42.6506382040679454803466796875" lon="19.908187128603458404541015625">
        <ele>958</ele>
        <time>2026-06-16T06:47:17.000Z</time>
        <extensions>
          <ns3:TrackPointExtension>
            <ns3:atemp>18.0</ns3:atemp>
          </ns3:TrackPointExtension>
        </extensions>
      </trkpt>
      <trkpt lat="42.6506382040679454803466796875" lon="19.908187128603458404541015625">
        <ele>958</ele>
        <time>2026-06-16T06:47:18.000Z</time>
        <extensions>
          <ns3:TrackPointExtension>
            <ns3:atemp>18.0</ns3:atemp>
          </ns3:TrackPointExtension>
        </extensions>
      </trkpt>
      <trkpt lat="42.6506382040679454803466796875" lon="19.908187128603458404541015625">
        <ele>958</ele>
        <time>2026-06-16T06:47:19.000Z</time>
        <extensions>
          <ns3:TrackPointExtension>
            <ns3:atemp>18.0</ns3:atemp>
          </ns3:TrackPointExtension>
        </extensions>
      </trkpt>
      <trkpt lat="42.6506382040679454803466796875" lon="19.908187128603458404541015625">
        <ele>958</ele>
        <time>2026-06-16T06:47:20.000Z</time>
        <extensions>
          <ns3:TrackPointExtension>
            <ns3:atemp>18.0</ns3:atemp>
          </ns3:TrackPointExtension>
        </extensions>
      </trkpt>
      <trkpt lat="42.6506382040679454803466796875" lon="19.908187128603458404541015625">
        <ele>958</ele>
        <time>2026-06-16T06:47:21.000Z</time>
        <extensions>
          <ns3:TrackPointExtension>
            <ns3:atemp>18.0</ns3:atemp>
          </ns3:TrackPointExtension>
        </extensions>
      </trkpt>
      <trkpt lat="42.6506382040679454803466796875" lon="19.908187128603458404541015625">
        <ele>958</ele>
        <time>2026-06-16T06:47:22.000Z</time>
        <extensions>
          <ns3:TrackPointExtension>
            <ns3:atemp>18.0</ns3:atemp>
          </ns3:TrackPointExtension>
        </extensions>
      </trkpt>
      <trkpt lat="42.6506382040679454803466796875" lon="19.908187128603458404541015625">
        <ele>958</ele>
        <time>2026-06-16T06:47:23.000Z</time>
        <extensions>
          <ns3:TrackPointExtension>
            <ns3:atemp>18.0</ns3:atemp>
          </ns3:TrackPointExtension>
        </extensions>
      </trkpt>
      <trkpt lat="42.6506382040679454803466796875" lon="19.908187128603458404541015625">
        <ele>958</ele>
        <time>2026-06-16T06:47:24.000Z</time>
        <extensions>
          <ns3:TrackPointExtension>
            <ns3:atemp>18.0</ns3:atemp>
          </ns3:TrackPointExtension>
        </extensions>
      </trkpt>
      <trkpt lat="42.6506382040679454803466796875" lon="19.908187128603458404541015625">
        <ele>958</ele>
        <time>2026-06-16T06:47:25.000Z</time>
        <extensions>
          <ns3:TrackPointExtension>
            <ns3:atemp>18.0</ns3:atemp>
          </ns3:TrackPointExtension>
        </extensions>
      </trkpt>
      <trkpt lat="42.6506382040679454803466796875" lon="19.908187128603458404541015625">
        <ele>958</ele>
        <time>2026-06-16T06:47:26.000Z</time>
        <extensions>
          <ns3:TrackPointExtension>
            <ns3:atemp>18.0</ns3:atemp>
          </ns3:TrackPointExtension>
        </extensions>
      </trkpt>
      <trkpt lat="42.6506382040679454803466796875" lon="19.908187128603458404541015625">
        <ele>958</ele>
        <time>2026-06-16T06:47:27.000Z</time>
        <extensions>
          <ns3:TrackPointExtension>
            <ns3:atemp>18.0</ns3:atemp>
          </ns3:TrackPointExtension>
        </extensions>
      </trkpt>
      <trkpt lat="42.6506382040679454803466796875" lon="19.908187128603458404541015625">
        <ele>958</ele>
        <time>2026-06-16T06:47:28.000Z</time>
        <extensions>
          <ns3:TrackPointExtension>
            <ns3:atemp>18.0</ns3:atemp>
          </ns3:TrackPointExtension>
        </extensions>
      </trkpt>
      <trkpt lat="42.6506382040679454803466796875" lon="19.908187128603458404541015625">
        <ele>958</ele>
        <time>2026-06-16T06:47:29.000Z</time>
        <extensions>
          <ns3:TrackPointExtension>
            <ns3:atemp>18.0</ns3:atemp>
          </ns3:TrackPointExtension>
        </extensions>
      </trkpt>
      <trkpt lat="42.6506382040679454803466796875" lon="19.908187128603458404541015625">
        <ele>958</ele>
        <time>2026-06-16T06:47:30.000Z</time>
        <extensions>
          <ns3:TrackPointExtension>
            <ns3:atemp>18.0</ns3:atemp>
          </ns3:TrackPointExtension>
        </extensions>
      </trkpt>
      <trkpt lat="42.6506382040679454803466796875" lon="19.908187128603458404541015625">
        <ele>958</ele>
        <time>2026-06-16T06:47:31.000Z</time>
        <extensions>
          <ns3:TrackPointExtension>
            <ns3:atemp>18.0</ns3:atemp>
          </ns3:TrackPointExtension>
        </extensions>
      </trkpt>
      <trkpt lat="42.6506382040679454803466796875" lon="19.908187128603458404541015625">
        <ele>958</ele>
        <time>2026-06-16T06:47:32.000Z</time>
        <extensions>
          <ns3:TrackPointExtension>
            <ns3:atemp>18.0</ns3:atemp>
          </ns3:TrackPointExtension>
        </extensions>
      </trkpt>
      <trkpt lat="42.6506382040679454803466796875" lon="19.908187128603458404541015625">
        <ele>958</ele>
        <time>2026-06-16T06:47:33.000Z</time>
        <extensions>
          <ns3:TrackPointExtension>
            <ns3:atemp>18.0</ns3:atemp>
          </ns3:TrackPointExtension>
        </extensions>
      </trkpt>
      <trkpt lat="42.6506382040679454803466796875" lon="19.908187128603458404541015625">
        <ele>958</ele>
        <time>2026-06-16T06:47:34.000Z</time>
        <extensions>
          <ns3:TrackPointExtension>
            <ns3:atemp>18.0</ns3:atemp>
          </ns3:TrackPointExtension>
        </extensions>
      </trkpt>
      <trkpt lat="42.6506382040679454803466796875" lon="19.908187128603458404541015625">
        <ele>958</ele>
        <time>2026-06-16T06:47:35.000Z</time>
        <extensions>
          <ns3:TrackPointExtension>
            <ns3:atemp>18.0</ns3:atemp>
          </ns3:TrackPointExtension>
        </extensions>
      </trkpt>
      <trkpt lat="42.6506371982395648956298828125" lon="19.9081896431744098663330078125">
        <ele>958</ele>
        <time>2026-06-16T06:47:36.000Z</time>
        <extensions>
          <ns3:TrackPointExtension>
            <ns3:atemp>18.0</ns3:atemp>
          </ns3:TrackPointExtension>
        </extensions>
      </trkpt>
      <trkpt lat="42.650623284280300140380859375" lon="19.908190481364727020263671875">
        <ele>958</ele>
        <time>2026-06-16T06:47:37.000Z</time>
        <extensions>
          <ns3:TrackPointExtension>
            <ns3:atemp>18.0</ns3:atemp>
          </ns3:TrackPointExtension>
        </extensions>
      </trkpt>
      <trkpt lat="42.6506107114255428314208984375" lon="19.90818838588893413543701171875">
        <ele>958</ele>
        <time>2026-06-16T06:47:38.000Z</time>
        <extensions>
          <ns3:TrackPointExtension>
            <ns3:atemp>18.0</ns3:atemp>
          </ns3:TrackPointExtension>
        </extensions>
      </trkpt>
      <trkpt lat="42.65059403143823146820068359375" lon="19.90818939171731472015380859375">
        <ele>958</ele>
        <time>2026-06-16T06:47:39.000Z</time>
        <extensions>
          <ns3:TrackPointExtension>
            <ns3:atemp>18.0</ns3:atemp>
          </ns3:TrackPointExtension>
        </extensions>
      </trkpt>
      <trkpt lat="42.6505766808986663818359375" lon="19.90819140337407588958740234375">
        <ele>958</ele>
        <time>2026-06-16T06:47:40.000Z</time>
        <extensions>
          <ns3:TrackPointExtension>
            <ns3:atemp>18.0</ns3:atemp>
          </ns3:TrackPointExtension>
        </extensions>
      </trkpt>
      <trkpt lat="42.6505565643310546875" lon="19.90819576196372509002685546875">
        <ele>958</ele>
        <time>2026-06-16T06:47:41.000Z</time>
        <extensions>
          <ns3:TrackPointExtension>
            <ns3:atemp>18.0</ns3:atemp>
          </ns3:TrackPointExtension>
        </extensions>
      </trkpt>
      <trkpt lat="42.650532759726047515869140625" lon="19.9081983603537082672119140625">
        <ele>958</ele>
        <time>2026-06-16T06:47:42.000Z</time>
        <extensions>
          <ns3:TrackPointExtension>
            <ns3:atemp>18.0</ns3:atemp>
          </ns3:TrackPointExtension>
        </extensions>
      </trkpt>
      <trkpt lat="42.65050987713038921356201171875" lon="19.90819928236305713653564453125">
        <ele>958.20001220703125</ele>
        <time>2026-06-16T06:47:43.000Z</time>
        <extensions>
          <ns3:TrackPointExtension>
            <ns3:atemp>18.0</ns3:atemp>
          </ns3:TrackPointExtension>
        </extensions>
      </trkpt>
      <trkpt lat="42.65049043111503124237060546875" lon="19.908200204372406005859375">
        <ele>958.4000244140625</ele>
        <time>2026-06-16T06:47:44.000Z</time>
        <extensions>
          <ns3:TrackPointExtension>
            <ns3:atemp>18.0</ns3:atemp>
          </ns3:TrackPointExtension>
        </extensions>
      </trkpt>
      <trkpt lat="42.65047182328999042510986328125" lon="19.90820825099945068359375">
        <ele>958.5999755859375</ele>
        <time>2026-06-16T06:47:45.000Z</time>
        <extensions>
          <ns3:TrackPointExtension>
            <ns3:atemp>18.0</ns3:atemp>
          </ns3:TrackPointExtension>
        </extensions>
      </trkpt>
      <trkpt lat="42.65045288018882274627685546875" lon="19.9082131125032901763916015625">
        <ele>958.79998779296875</ele>
        <time>2026-06-16T06:47:46.000Z</time>
        <extensions>
          <ns3:TrackPointExtension>
            <ns3:atemp>18.0</ns3:atemp>
          </ns3:TrackPointExtension>
        </extensions>
      </trkpt>
      <trkpt lat="42.65043075196444988250732421875" lon="19.9082122743129730224609375">
        <ele>959</ele>
        <time>2026-06-16T06:47:47.000Z</time>
        <extensions>
          <ns3:TrackPointExtension>
            <ns3:atemp>18.0</ns3:atemp>
          </ns3:TrackPointExtension>
        </extensions>
      </trkpt>
      <trkpt lat="42.65040661208331584930419921875" lon="19.9082122743129730224609375">
        <ele>959.20001220703125</ele>
        <time>2026-06-16T06:47:48.000Z</time>
        <extensions>
          <ns3:TrackPointExtension>
            <ns3:atemp>18.0</ns3:atemp>
          </ns3:TrackPointExtension>
        </extensions>
      </trkpt>
      <trkpt lat="42.65038465149700641632080078125" lon="19.90820531733334064483642578125">
        <ele>959.4000244140625</ele>
        <time>2026-06-16T06:47:49.000Z</time>
        <extensions>
          <ns3:TrackPointExtension>
            <ns3:atemp>18.0</ns3:atemp>
          </ns3:TrackPointExtension>
        </extensions>
      </trkpt>
      <trkpt lat="42.65036084689199924468994140625" lon="19.9081940017640590667724609375">
        <ele>959.79998779296875</ele>
        <time>2026-06-16T06:47:50.000Z</time>
        <extensions>
          <ns3:TrackPointExtension>
            <ns3:atemp>18.0</ns3:atemp>
          </ns3:TrackPointExtension>
        </extensions>
      </trkpt>
      <trkpt lat="42.6503357850015163421630859375" lon="19.908181764185428619384765625">
        <ele>960</ele>
        <time>2026-06-16T06:47:51.000Z</time>
        <extensions>
          <ns3:TrackPointExtension>
            <ns3:atemp>18.0</ns3:atemp>
          </ns3:TrackPointExtension>
        </extensions>
      </trkpt>
      <trkpt lat="42.65031307004392147064208984375" lon="19.908175729215145111083984375">
        <ele>960.20001220703125</ele>
        <time>2026-06-16T06:47:52.000Z</time>
        <extensions>
          <ns3:TrackPointExtension>
            <ns3:atemp>18.0</ns3:atemp>
          </ns3:TrackPointExtension>
        </extensions>
      </trkpt>
      <trkpt lat="42.65029446221888065338134765625" lon="19.9081698618829250335693359375">
        <ele>960.4000244140625</ele>
        <time>2026-06-16T06:47:53.000Z</time>
        <extensions>
          <ns3:TrackPointExtension>
            <ns3:atemp>18.0</ns3:atemp>
          </ns3:TrackPointExtension>
        </extensions>
      </trkpt>
      <trkpt lat="42.6502762734889984130859375" lon="19.90815754048526287078857421875">
        <ele>960.79998779296875</ele>
        <time>2026-06-16T06:47:54.000Z</time>
        <extensions>
          <ns3:TrackPointExtension>
            <ns3:atemp>18.0</ns3:atemp>
          </ns3:TrackPointExtension>
        </extensions>
      </trkpt>
      <trkpt lat="42.65025925822556018829345703125" lon="19.908150248229503631591796875">
        <ele>961</ele>
        <time>2026-06-16T06:47:55.000Z</time>
        <extensions>
          <ns3:TrackPointExtension>
            <ns3:atemp>18.0</ns3:atemp>
          </ns3:TrackPointExtension>
        </extensions>
      </trkpt>
      <trkpt lat="42.6502382196485996246337890625" lon="19.90814345888793468475341796875">
        <ele>961.4000244140625</ele>
        <time>2026-06-16T06:47:56.000Z</time>
        <extensions>
          <ns3:TrackPointExtension>
            <ns3:atemp>18.0</ns3:atemp>
          </ns3:TrackPointExtension>
        </extensions>
      </trkpt>
      <trkpt lat="42.6502194441854953765869140625" lon="19.9081386812031269073486328125">
        <ele>961.5999755859375</ele>
        <time>2026-06-16T06:47:57.000Z</time>
        <extensions>
          <ns3:TrackPointExtension>
            <ns3:atemp>18.0</ns3:atemp>
          </ns3:TrackPointExtension>
        </extensions>
      </trkpt>
      <trkpt lat="42.6501966454088687896728515625" lon="19.90813591517508029937744140625">
        <ele>961.79998779296875</ele>
        <time>2026-06-16T06:47:58.000Z</time>
        <extensions>
          <ns3:TrackPointExtension>
            <ns3:atemp>18.0</ns3:atemp>
          </ns3:TrackPointExtension>
        </extensions>
      </trkpt>
      <trkpt lat="42.6501711644232273101806640625" lon="19.90813306532800197601318359375">
        <ele>962.20001220703125</ele>
        <time>2026-06-16T06:47:59.000Z</time>
        <extensions>
          <ns3:TrackPointExtension>
            <ns3:atemp>18.0</ns3:atemp>
          </ns3:TrackPointExtension>
        </extensions>
      </trkpt>
      <trkpt lat="42.65014476142823696136474609375" lon="19.90813172422349452972412109375">
        <ele>962.4000244140625</ele>
        <time>2026-06-16T06:48:00.000Z</time>
        <extensions>
          <ns3:TrackPointExtension>
            <ns3:atemp>18.0</ns3:atemp>
          </ns3:TrackPointExtension>
        </extensions>
      </trkpt>
      <trkpt lat="42.650116346776485443115234375" lon="19.908131472766399383544921875">
        <ele>962.79998779296875</ele>
        <time>2026-06-16T06:48:01.000Z</time>
        <extensions>
          <ns3:TrackPointExtension>
            <ns3:atemp>18.0</ns3:atemp>
          </ns3:TrackPointExtension>
        </extensions>
      </trkpt>
      <trkpt lat="42.65008994378149509429931640625" lon="19.908130466938018798828125">
        <ele>963</ele>
        <time>2026-06-16T06:48:02.000Z</time>
        <extensions>
          <ns3:TrackPointExtension>
            <ns3:atemp>18.0</ns3:atemp>
          </ns3:TrackPointExtension>
        </extensions>
      </trkpt>
      <trkpt lat="42.65006328932940959930419921875" lon="19.9081286229193210601806640625">
        <ele>963.20001220703125</ele>
        <time>2026-06-16T06:48:03.000Z</time>
        <extensions>
          <ns3:TrackPointExtension>
            <ns3:atemp>18.0</ns3:atemp>
          </ns3:TrackPointExtension>
        </extensions>
      </trkpt>
      <trkpt lat="42.6500407420098781585693359375" lon="19.9081192351877689361572265625">
        <ele>963.4000244140625</ele>
        <time>2026-06-16T06:48:04.000Z</time>
        <extensions>
          <ns3:TrackPointExtension>
            <ns3:atemp>18.0</ns3:atemp>
          </ns3:TrackPointExtension>
        </extensions>
      </trkpt>
      <trkpt lat="42.65001836232841014862060546875" lon="19.908109344542026519775390625">
        <ele>963.79998779296875</ele>
        <time>2026-06-16T06:48:05.000Z</time>
        <extensions>
          <ns3:TrackPointExtension>
            <ns3:atemp>18.0</ns3:atemp>
          </ns3:TrackPointExtension>
        </extensions>
      </trkpt>
      <trkpt lat="42.6499968208372592926025390625" lon="19.90809853188693523406982421875">
        <ele>964</ele>
        <time>2026-06-16T06:48:06.000Z</time>
        <extensions>
          <ns3:TrackPointExtension>
            <ns3:atemp>18.0</ns3:atemp>
          </ns3:TrackPointExtension>
        </extensions>
      </trkpt>
      <trkpt lat="42.6499812304973602294921875" lon="19.90808847360312938690185546875">
        <ele>964.20001220703125</ele>
        <time>2026-06-16T06:48:07.000Z</time>
        <extensions>
          <ns3:TrackPointExtension>
            <ns3:atemp>18.0</ns3:atemp>
          </ns3:TrackPointExtension>
        </extensions>
      </trkpt>
      <trkpt lat="42.64996170066297054290771484375" lon="19.9080803431570529937744140625">
        <ele>964.5999755859375</ele>
        <time>2026-06-16T06:48:08.000Z</time>
        <extensions>
          <ns3:TrackPointExtension>
            <ns3:atemp>18.0</ns3:atemp>
          </ns3:TrackPointExtension>
        </extensions>
      </trkpt>
      <trkpt lat="42.6499388180673122406005859375" lon="19.90806802175939083099365234375">
        <ele>965</ele>
        <time>2026-06-16T06:48:09.000Z</time>
        <extensions>
          <ns3:TrackPointExtension>
            <ns3:atemp>18.0</ns3:atemp>
          </ns3:TrackPointExtension>
        </extensions>
      </trkpt>
      <trkpt lat="42.649919874966144561767578125" lon="19.9080511741340160369873046875">
        <ele>965.20001220703125</ele>
        <time>2026-06-16T06:48:10.000Z</time>
        <extensions>
          <ns3:TrackPointExtension>
            <ns3:atemp>18.0</ns3:atemp>
          </ns3:TrackPointExtension>
        </extensions>
      </trkpt>
      <trkpt lat="42.64990252442657947540283203125" lon="19.90804128348827362060546875">
        <ele>965.5999755859375</ele>
        <time>2026-06-16T06:48:11.000Z</time>
        <extensions>
          <ns3:TrackPointExtension>
            <ns3:atemp>18.0</ns3:atemp>
          </ns3:TrackPointExtension>
        </extensions>
      </trkpt>
      <trkpt lat="42.6498824916779994964599609375" lon="19.90803323686122894287109375">
        <ele>965.79998779296875</ele>
        <time>2026-06-16T06:48:12.000Z</time>
        <extensions>
          <ns3:TrackPointExtension>
            <ns3:atemp>18.0</ns3:atemp>
          </ns3:TrackPointExtension>
        </extensions>
      </trkpt>
      <trkpt lat="42.64986128546297550201416015625" lon="19.9080277048051357269287109375">
        <ele>966.20001220703125</ele>
        <time>2026-06-16T06:48:13.000Z</time>
        <extensions>
          <ns3:TrackPointExtension>
            <ns3:atemp>18.0</ns3:atemp>
          </ns3:TrackPointExtension>
        </extensions>
      </trkpt>
      <trkpt lat="42.649839408695697784423828125" lon="19.90801521576941013336181640625">
        <ele>966.5999755859375</ele>
        <time>2026-06-16T06:48:14.000Z</time>
        <extensions>
          <ns3:TrackPointExtension>
            <ns3:atemp>18.0</ns3:atemp>
          </ns3:TrackPointExtension>
        </extensions>
      </trkpt>
      <trkpt lat="42.64981954358518123626708984375" lon="19.90800297819077968597412109375">
        <ele>966.79998779296875</ele>
        <time>2026-06-16T06:48:15.000Z</time>
        <extensions>
          <ns3:TrackPointExtension>
            <ns3:atemp>18.0</ns3:atemp>
          </ns3:TrackPointExtension>
        </extensions>
      </trkpt>
      <trkpt lat="42.64979992993175983428955078125" lon="19.907993339002132415771484375">
        <ele>967.20001220703125</ele>
        <time>2026-06-16T06:48:16.000Z</time>
        <extensions>
          <ns3:TrackPointExtension>
            <ns3:atemp>18.0</ns3:atemp>
          </ns3:TrackPointExtension>
        </extensions>
      </trkpt>
      <trkpt lat="42.6497800648212432861328125" lon="19.90798571147024631500244140625">
        <ele>967.4000244140625</ele>
        <time>2026-06-16T06:48:17.000Z</time>
        <extensions>
          <ns3:TrackPointExtension>
            <ns3:atemp>18.0</ns3:atemp>
          </ns3:TrackPointExtension>
        </extensions>
      </trkpt>
      <trkpt lat="42.64975919388234615325927734375" lon="19.90797691047191619873046875">
        <ele>967.5999755859375</ele>
        <time>2026-06-16T06:48:18.000Z</time>
        <extensions>
          <ns3:TrackPointExtension>
            <ns3:atemp>18.0</ns3:atemp>
          </ns3:TrackPointExtension>
        </extensions>
      </trkpt>
      <trkpt lat="42.64973756857216358184814453125" lon="19.907969199120998382568359375">
        <ele>968</ele>
        <time>2026-06-16T06:48:19.000Z</time>
        <extensions>
          <ns3:TrackPointExtension>
            <ns3:atemp>18.0</ns3:atemp>
          </ns3:TrackPointExtension>
        </extensions>
      </trkpt>
      <trkpt lat="42.649719715118408203125" lon="19.90795972757041454315185546875">
        <ele>968.20001220703125</ele>
        <time>2026-06-16T06:48:20.000Z</time>
        <extensions>
          <ns3:TrackPointExtension>
            <ns3:atemp>18.0</ns3:atemp>
          </ns3:TrackPointExtension>
        </extensions>
      </trkpt>
      <trkpt lat="42.64970161020755767822265625" lon="19.907953441143035888671875">
        <ele>968.4000244140625</ele>
        <time>2026-06-16T06:48:21.000Z</time>
        <extensions>
          <ns3:TrackPointExtension>
            <ns3:atemp>18.0</ns3:atemp>
          </ns3:TrackPointExtension>
        </extensions>
      </trkpt>
      <trkpt lat="42.6496786437928676605224609375" lon="19.90794338285923004150390625">
        <ele>968.79998779296875</ele>
        <time>2026-06-16T06:48:22.000Z</time>
        <extensions>
          <ns3:TrackPointExtension>
            <ns3:atemp>18.0</ns3:atemp>
          </ns3:TrackPointExtension>
        </extensions>
      </trkpt>
      <trkpt lat="42.64965894632041454315185546875" lon="19.9079361744225025177001953125">
        <ele>969</ele>
        <time>2026-06-16T06:48:23.000Z</time>
        <extensions>
          <ns3:TrackPointExtension>
            <ns3:atemp>18.0</ns3:atemp>
          </ns3:TrackPointExtension>
        </extensions>
      </trkpt>
      <trkpt lat="42.64963547699153423309326171875" lon="19.90792938508093357086181640625">
        <ele>969.4000244140625</ele>
        <time>2026-06-16T06:48:24.000Z</time>
        <extensions>
          <ns3:TrackPointExtension>
            <ns3:atemp>18.0</ns3:atemp>
          </ns3:TrackPointExtension>
        </extensions>
      </trkpt>
      <trkpt lat="42.6496166177093982696533203125" lon="19.9079173989593982696533203125">
        <ele>969.5999755859375</ele>
        <time>2026-06-16T06:48:25.000Z</time>
        <extensions>
          <ns3:TrackPointExtension>
            <ns3:atemp>18.0</ns3:atemp>
          </ns3:TrackPointExtension>
        </extensions>
      </trkpt>
      <trkpt lat="42.6495931483805179595947265625" lon="19.90790943615138530731201171875">
        <ele>970</ele>
        <time>2026-06-16T06:48:26.000Z</time>
        <extensions>
          <ns3:TrackPointExtension>
            <ns3:atemp>18.0</ns3:atemp>
          </ns3:TrackPointExtension>
        </extensions>
      </trkpt>
      <trkpt lat="42.64956959523260593414306640625" lon="19.907902143895626068115234375">
        <ele>970.20001220703125</ele>
        <time>2026-06-16T06:48:27.000Z</time>
        <extensions>
          <ns3:TrackPointExtension>
            <ns3:atemp>18.0</ns3:atemp>
          </ns3:TrackPointExtension>
        </extensions>
      </trkpt>
      <trkpt lat="42.6495472155511379241943359375" lon="19.90789149887859821319580078125">
        <ele>970.5999755859375</ele>
        <time>2026-06-16T06:48:28.000Z</time>
        <extensions>
          <ns3:TrackPointExtension>
            <ns3:atemp>18.0</ns3:atemp>
          </ns3:TrackPointExtension>
        </extensions>
      </trkpt>
      <trkpt lat="42.64953103847801685333251953125" lon="19.90788261406123638153076171875">
        <ele>970.79998779296875</ele>
        <time>2026-06-16T06:48:29.000Z</time>
        <extensions>
          <ns3:TrackPointExtension>
            <ns3:atemp>18.0</ns3:atemp>
          </ns3:TrackPointExtension>
        </extensions>
      </trkpt>
      <trkpt lat="42.6495156995952129364013671875" lon="19.90787356160581111907958984375">
        <ele>971</ele>
        <time>2026-06-16T06:48:30.000Z</time>
        <extensions>
          <ns3:TrackPointExtension>
            <ns3:atemp>18.0</ns3:atemp>
          </ns3:TrackPointExtension>
        </extensions>
      </trkpt>
      <trkpt lat="42.64949466101825237274169921875" lon="19.907862581312656402587890625">
        <ele>971.20001220703125</ele>
        <time>2026-06-16T06:48:31.000Z</time>
        <extensions>
          <ns3:TrackPointExtension>
            <ns3:atemp>18.0</ns3:atemp>
          </ns3:TrackPointExtension>
        </extensions>
      </trkpt>
      <trkpt lat="42.64947705902159214019775390625" lon="19.90785352885723114013671875">
        <ele>971.5999755859375</ele>
        <time>2026-06-16T06:48:32.000Z</time>
        <extensions>
          <ns3:TrackPointExtension>
            <ns3:atemp>18.0</ns3:atemp>
          </ns3:TrackPointExtension>
        </extensions>
      </trkpt>
      <trkpt lat="42.64945342205464839935302734375" lon="19.90783986635506153106689453125">
        <ele>971.79998779296875</ele>
        <time>2026-06-16T06:48:33.000Z</time>
        <extensions>
          <ns3:TrackPointExtension>
            <ns3:atemp>18.0</ns3:atemp>
          </ns3:TrackPointExtension>
        </extensions>
      </trkpt>
      <trkpt lat="42.6494305394589900970458984375" lon="19.90782762877643108367919921875">
        <ele>972</ele>
        <time>2026-06-16T06:48:34.000Z</time>
        <extensions>
          <ns3:TrackPointExtension>
            <ns3:atemp>18.0</ns3:atemp>
          </ns3:TrackPointExtension>
        </extensions>
      </trkpt>
      <trkpt lat="42.64940178953111171722412109375" lon="19.90782293491065502166748046875">
        <ele>972.4000244140625</ele>
        <time>2026-06-16T06:48:35.000Z</time>
        <extensions>
          <ns3:TrackPointExtension>
            <ns3:atemp>18.0</ns3:atemp>
          </ns3:TrackPointExtension>
        </extensions>
      </trkpt>
      <trkpt lat="42.649378739297389984130859375" lon="19.90781488828361034393310546875">
        <ele>972.5999755859375</ele>
        <time>2026-06-16T06:48:36.000Z</time>
        <extensions>
          <ns3:TrackPointExtension>
            <ns3:atemp>18.0</ns3:atemp>
          </ns3:TrackPointExtension>
        </extensions>
      </trkpt>
      <trkpt lat="42.64935426414012908935546875" lon="19.90781136788427829742431640625">
        <ele>973</ele>
        <time>2026-06-16T06:48:37.000Z</time>
        <extensions>
          <ns3:TrackPointExtension>
            <ns3:atemp>18.0</ns3:atemp>
          </ns3:TrackPointExtension>
        </extensions>
      </trkpt>
      <trkpt lat="42.64933087863028049468994140625" lon="19.90781572647392749786376953125">
        <ele>973.20001220703125</ele>
        <time>2026-06-16T06:48:38.000Z</time>
        <extensions>
          <ns3:TrackPointExtension>
            <ns3:atemp>18.0</ns3:atemp>
          </ns3:TrackPointExtension>
        </extensions>
      </trkpt>
      <trkpt lat="42.64930958859622478485107421875" lon="19.90782159380614757537841796875">
        <ele>973.4000244140625</ele>
        <time>2026-06-16T06:48:39.000Z</time>
        <extensions>
          <ns3:TrackPointExtension>
            <ns3:atemp>18.0</ns3:atemp>
          </ns3:TrackPointExtension>
        </extensions>
      </trkpt>
      <trkpt lat="42.64929031021893024444580078125" lon="19.9078221805393695831298828125">
        <ele>973.5999755859375</ele>
        <time>2026-06-16T06:48:40.000Z</time>
        <extensions>
          <ns3:TrackPointExtension>
            <ns3:atemp>18.0</ns3:atemp>
          </ns3:TrackPointExtension>
        </extensions>
      </trkpt>
      <trkpt lat="42.6492689363658428192138671875" lon="19.9078238569200038909912109375">
        <ele>973.79998779296875</ele>
        <time>2026-06-16T06:48:41.000Z</time>
        <extensions>
          <ns3:TrackPointExtension>
            <ns3:atemp>18.0</ns3:atemp>
          </ns3:TrackPointExtension>
        </extensions>
      </trkpt>
      <trkpt lat="42.64924722723662853240966796875" lon="19.90782025270164012908935546875">
        <ele>974</ele>
        <time>2026-06-16T06:48:42.000Z</time>
        <extensions>
          <ns3:TrackPointExtension>
            <ns3:atemp>18.0</ns3:atemp>
          </ns3:TrackPointExtension>
        </extensions>
      </trkpt>
      <trkpt lat="42.64922308735549449920654296875" lon="19.9078099429607391357421875">
        <ele>974.4000244140625</ele>
        <time>2026-06-16T06:48:43.000Z</time>
        <extensions>
          <ns3:TrackPointExtension>
            <ns3:atemp>18.0</ns3:atemp>
          </ns3:TrackPointExtension>
        </extensions>
      </trkpt>
      <trkpt lat="42.6492062397301197052001953125" lon="19.90779628045856952667236328125">
        <ele>974.5999755859375</ele>
        <time>2026-06-16T06:48:44.000Z</time>
        <extensions>
          <ns3:TrackPointExtension>
            <ns3:atemp>18.0</ns3:atemp>
          </ns3:TrackPointExtension>
        </extensions>
      </trkpt>
      <trkpt lat="42.64918553642928600311279296875" lon="19.90778370760381221771240234375">
        <ele>974.79998779296875</ele>
        <time>2026-06-16T06:48:45.000Z</time>
        <extensions>
          <ns3:TrackPointExtension>
            <ns3:atemp>18.0</ns3:atemp>
          </ns3:TrackPointExtension>
        </extensions>
      </trkpt>
      <trkpt lat="42.649168856441974639892578125" lon="19.90776878781616687774658203125">
        <ele>975</ele>
        <time>2026-06-16T06:48:46.000Z</time>
        <extensions>
          <ns3:TrackPointExtension>
            <ns3:atemp>18.0</ns3:atemp>
          </ns3:TrackPointExtension>
        </extensions>
      </trkpt>
      <trkpt lat="42.6491482369601726531982421875" lon="19.90775420330464839935302734375">
        <ele>975.20001220703125</ele>
        <time>2026-06-16T06:48:47.000Z</time>
        <extensions>
          <ns3:TrackPointExtension>
            <ns3:atemp>18.0</ns3:atemp>
          </ns3:TrackPointExtension>
        </extensions>
      </trkpt>
      <trkpt lat="42.64913088642060756683349609375" lon="19.9077356792986392974853515625">
        <ele>975.5999755859375</ele>
        <time>2026-06-16T06:48:48.000Z</time>
        <extensions>
          <ns3:TrackPointExtension>
            <ns3:atemp>18.0</ns3:atemp>
          </ns3:TrackPointExtension>
        </extensions>
      </trkpt>
      <trkpt lat="42.64911328442394733428955078125" lon="19.907717071473598480224609375">
        <ele>975.79998779296875</ele>
        <time>2026-06-16T06:48:49.000Z</time>
        <extensions>
          <ns3:TrackPointExtension>
            <ns3:atemp>18.0</ns3:atemp>
          </ns3:TrackPointExtension>
        </extensions>
      </trkpt>
      <trkpt lat="42.64909869991242885589599609375" lon="19.90769586525857448577880859375">
        <ele>976.20001220703125</ele>
        <time>2026-06-16T06:48:50.000Z</time>
        <extensions>
          <ns3:TrackPointExtension>
            <ns3:atemp>18.0</ns3:atemp>
          </ns3:TrackPointExtension>
        </extensions>
      </trkpt>
      <trkpt lat="42.64907808043062686920166015625" lon="19.90767742507159709930419921875">
        <ele>976.4000244140625</ele>
        <time>2026-06-16T06:48:51.000Z</time>
        <extensions>
          <ns3:TrackPointExtension>
            <ns3:atemp>18.0</ns3:atemp>
          </ns3:TrackPointExtension>
        </extensions>
      </trkpt>
      <trkpt lat="42.64906148426234722137451171875" lon="19.90765412338078022003173828125">
        <ele>976.79998779296875</ele>
        <time>2026-06-16T06:48:52.000Z</time>
        <extensions>
          <ns3:TrackPointExtension>
            <ns3:atemp>18.0</ns3:atemp>
          </ns3:TrackPointExtension>
        </extensions>
      </trkpt>
      <trkpt lat="42.64904790557920932769775390625" lon="19.907630570232868194580078125">
        <ele>977</ele>
        <time>2026-06-16T06:48:53.000Z</time>
        <extensions>
          <ns3:TrackPointExtension>
            <ns3:atemp>18.0</ns3:atemp>
          </ns3:TrackPointExtension>
        </extensions>
      </trkpt>
      <trkpt lat="42.649028711020946502685546875" lon="19.907605759799480438232421875">
        <ele>977.4000244140625</ele>
        <time>2026-06-16T06:48:54.000Z</time>
        <extensions>
          <ns3:TrackPointExtension>
            <ns3:atemp>18.0</ns3:atemp>
          </ns3:TrackPointExtension>
        </extensions>
      </trkpt>
      <trkpt lat="42.64901035465300083160400390625" lon="19.907579608261585235595703125">
        <ele>977.5999755859375</ele>
        <time>2026-06-16T06:48:55.000Z</time>
        <extensions>
          <ns3:TrackPointExtension>
            <ns3:atemp>18.0</ns3:atemp>
          </ns3:TrackPointExtension>
        </extensions>
      </trkpt>
      <trkpt lat="42.648997195065021514892578125" lon="19.90755312144756317138671875">
        <ele>978</ele>
        <time>2026-06-16T06:48:56.000Z</time>
        <extensions>
          <ns3:TrackPointExtension>
            <ns3:atemp>18.0</ns3:atemp>
          </ns3:TrackPointExtension>
        </extensions>
      </trkpt>
      <trkpt lat="42.64898353256285190582275390625" lon="19.90752906538546085357666015625">
        <ele>978.20001220703125</ele>
        <time>2026-06-16T06:48:57.000Z</time>
        <extensions>
          <ns3:TrackPointExtension>
            <ns3:atemp>18.0</ns3:atemp>
          </ns3:TrackPointExtension>
        </extensions>
      </trkpt>
      <trkpt lat="42.64896928332746028900146484375" lon="19.90750056691467761993408203125">
        <ele>978.4000244140625</ele>
        <time>2026-06-16T06:48:58.000Z</time>
        <extensions>
          <ns3:TrackPointExtension>
            <ns3:atemp>18.0</ns3:atemp>
          </ns3:TrackPointExtension>
        </extensions>
      </trkpt>
      <trkpt lat="42.6489531062543392181396484375" lon="19.90747961215674877166748046875">
        <ele>978.5999755859375</ele>
        <time>2026-06-16T06:48:59.000Z</time>
        <extensions>
          <ns3:TrackPointExtension>
            <ns3:atemp>18.0</ns3:atemp>
          </ns3:TrackPointExtension>
        </extensions>
      </trkpt>
      <trkpt lat="42.64893592335283756256103515625" lon="19.90746435709297657012939453125">
        <ele>978.79998779296875</ele>
        <time>2026-06-16T06:49:00.000Z</time>
        <extensions>
          <ns3:TrackPointExtension>
            <ns3:atemp>17.0</ns3:atemp>
          </ns3:TrackPointExtension>
        </extensions>
      </trkpt>
      <trkpt lat="42.64891932718455791473388671875" lon="19.90744440816342830657958984375">
        <ele>979.20001220703125</ele>
        <time>2026-06-16T06:49:01.000Z</time>
        <extensions>
          <ns3:TrackPointExtension>
            <ns3:atemp>17.0</ns3:atemp>
          </ns3:TrackPointExtension>
        </extensions>
      </trkpt>
      <trkpt lat="42.64889971353113651275634765625" lon="19.90742831490933895111083984375">
        <ele>979.4000244140625</ele>
        <time>2026-06-16T06:49:02.000Z</time>
        <extensions>
          <ns3:TrackPointExtension>
            <ns3:atemp>17.0</ns3:atemp>
          </ns3:TrackPointExtension>
        </extensions>
      </trkpt>
      <trkpt lat="42.6488806866109371185302734375" lon="19.907420016825199127197265625">
        <ele>979.79998779296875</ele>
        <time>2026-06-16T06:49:03.000Z</time>
        <extensions>
          <ns3:TrackPointExtension>
            <ns3:atemp>18.0</ns3:atemp>
          </ns3:TrackPointExtension>
        </extensions>
      </trkpt>
      <trkpt lat="42.64885830692946910858154296875" lon="19.907412640750408172607421875">
        <ele>980</ele>
        <time>2026-06-16T06:49:04.000Z</time>
        <extensions>
          <ns3:TrackPointExtension>
            <ns3:atemp>17.0</ns3:atemp>
          </ns3:TrackPointExtension>
        </extensions>
      </trkpt>
      <trkpt lat="42.648836262524127960205078125" lon="19.90740618668496608734130859375">
        <ele>980.20001220703125</ele>
        <time>2026-06-16T06:49:05.000Z</time>
        <extensions>
          <ns3:TrackPointExtension>
            <ns3:atemp>17.0</ns3:atemp>
          </ns3:TrackPointExtension>
        </extensions>
      </trkpt>
      <trkpt lat="42.648814804852008819580078125" lon="19.90740400739014148712158203125">
        <ele>980.4000244140625</ele>
        <time>2026-06-16T06:49:06.000Z</time>
        <extensions>
          <ns3:TrackPointExtension>
            <ns3:atemp>17.0</ns3:atemp>
          </ns3:TrackPointExtension>
        </extensions>
      </trkpt>
      <trkpt lat="42.64879091642796993255615234375" lon="19.907406605780124664306640625">
        <ele>980.79998779296875</ele>
        <time>2026-06-16T06:49:07.000Z</time>
        <extensions>
          <ns3:TrackPointExtension>
            <ns3:atemp>17.0</ns3:atemp>
          </ns3:TrackPointExtension>
        </extensions>
      </trkpt>
      <trkpt lat="42.64876560308039188385009765625" lon="19.90740937180817127227783203125">
        <ele>981</ele>
        <time>2026-06-16T06:49:08.000Z</time>
        <extensions>
          <ns3:TrackPointExtension>
            <ns3:atemp>17.0</ns3:atemp>
          </ns3:TrackPointExtension>
        </extensions>
      </trkpt>
      <trkpt lat="42.64874263666570186614990234375" lon="19.907409958541393280029296875">
        <ele>981.20001220703125</ele>
        <time>2026-06-16T06:49:09.000Z</time>
        <extensions>
          <ns3:TrackPointExtension>
            <ns3:atemp>17.0</ns3:atemp>
          </ns3:TrackPointExtension>
        </extensions>
      </trkpt>
      <trkpt lat="42.64871899969875812530517578125" lon="19.90741289220750331878662109375">
        <ele>981.4000244140625</ele>
        <time>2026-06-16T06:49:10.000Z</time>
        <extensions>
          <ns3:TrackPointExtension>
            <ns3:atemp>17.0</ns3:atemp>
          </ns3:TrackPointExtension>
        </extensions>
      </trkpt>
      <trkpt lat="42.6486942730844020843505859375" lon="19.90741423331201076507568359375">
        <ele>981.5999755859375</ele>
        <time>2026-06-16T06:49:11.000Z</time>
        <extensions>
          <ns3:TrackPointExtension>
            <ns3:atemp>17.0</ns3:atemp>
          </ns3:TrackPointExtension>
        </extensions>
      </trkpt>
      <trkpt lat="42.64866820536553859710693359375" lon="19.90741976536810398101806640625">
        <ele>981.79998779296875</ele>
        <time>2026-06-16T06:49:12.000Z</time>
        <extensions>
          <ns3:TrackPointExtension>
            <ns3:atemp>17.0</ns3:atemp>
          </ns3:TrackPointExtension>
        </extensions>
      </trkpt>
      <trkpt lat="42.64864481985569000244140625" lon="19.90742026828229427337646484375">
        <ele>981.79998779296875</ele>
        <time>2026-06-16T06:49:13.000Z</time>
        <extensions>
          <ns3:TrackPointExtension>
            <ns3:atemp>17.0</ns3:atemp>
          </ns3:TrackPointExtension>
        </extensions>
      </trkpt>
      <trkpt lat="42.64861841686069965362548828125" lon="19.9074211902916431427001953125">
        <ele>982</ele>
        <time>2026-06-16T06:49:14.000Z</time>
        <extensions>
          <ns3:TrackPointExtension>
            <ns3:atemp>17.0</ns3:atemp>
          </ns3:TrackPointExtension>
        </extensions>
      </trkpt>
      <trkpt lat="42.6485957019031047821044921875" lon="19.90742378868162631988525390625">
        <ele>982.20001220703125</ele>
        <time>2026-06-16T06:49:15.000Z</time>
        <extensions>
          <ns3:TrackPointExtension>
            <ns3:atemp>17.0</ns3:atemp>
          </ns3:TrackPointExtension>
        </extensions>
      </trkpt>
      <trkpt lat="42.648576088249683380126953125" lon="19.90742546506226062774658203125">
        <ele>982.5999755859375</ele>
        <time>2026-06-16T06:49:16.000Z</time>
        <extensions>
          <ns3:TrackPointExtension>
            <ns3:atemp>17.0</ns3:atemp>
          </ns3:TrackPointExtension>
        </extensions>
      </trkpt>
      <trkpt lat="42.64855387620627880096435546875" lon="19.90742563270032405853271484375">
        <ele>982.79998779296875</ele>
        <time>2026-06-16T06:49:17.000Z</time>
        <extensions>
          <ns3:TrackPointExtension>
            <ns3:atemp>17.0</ns3:atemp>
          </ns3:TrackPointExtension>
        </extensions>
      </trkpt>
      <trkpt lat="42.64853644184768199920654296875" lon="19.9074263870716094970703125">
        <ele>983</ele>
        <time>2026-06-16T06:49:18.000Z</time>
        <extensions>
          <ns3:TrackPointExtension>
            <ns3:atemp>17.0</ns3:atemp>
          </ns3:TrackPointExtension>
        </extensions>
      </trkpt>
      <trkpt lat="42.64852143824100494384765625" lon="19.90742630325257778167724609375">
        <ele>983.20001220703125</ele>
        <time>2026-06-16T06:49:19.000Z</time>
        <extensions>
          <ns3:TrackPointExtension>
            <ns3:atemp>17.0</ns3:atemp>
          </ns3:TrackPointExtension>
        </extensions>
      </trkpt>
      <trkpt lat="42.648508362472057342529296875" lon="19.90742596797645092010498046875">
        <ele>983.5999755859375</ele>
        <time>2026-06-16T06:49:20.000Z</time>
        <extensions>
          <ns3:TrackPointExtension>
            <ns3:atemp>17.0</ns3:atemp>
          </ns3:TrackPointExtension>
        </extensions>
      </trkpt>
      <trkpt lat="42.64849017374217510223388671875" lon="19.9074175022542476654052734375">
        <ele>983.79998779296875</ele>
        <time>2026-06-16T06:49:21.000Z</time>
        <extensions>
          <ns3:TrackPointExtension>
            <ns3:atemp>17.0</ns3:atemp>
          </ns3:TrackPointExtension>
        </extensions>
      </trkpt>
      <trkpt lat="42.6484672911465167999267578125" lon="19.90741456858813762664794921875">
        <ele>984</ele>
        <time>2026-06-16T06:49:22.000Z</time>
        <extensions>
          <ns3:TrackPointExtension>
            <ns3:atemp>17.0</ns3:atemp>
          </ns3:TrackPointExtension>
        </extensions>
      </trkpt>
      <trkpt lat="42.64844658784568309783935546875" lon="19.9074097909033298492431640625">
        <ele>984.20001220703125</ele>
        <time>2026-06-16T06:49:23.000Z</time>
        <extensions>
          <ns3:TrackPointExtension>
            <ns3:atemp>17.0</ns3:atemp>
          </ns3:TrackPointExtension>
        </extensions>
      </trkpt>
      <trkpt lat="42.64842362143099308013916015625" lon="19.90740383975207805633544921875">
        <ele>984.4000244140625</ele>
        <time>2026-06-16T06:49:24.000Z</time>
        <extensions>
          <ns3:TrackPointExtension>
            <ns3:atemp>17.0</ns3:atemp>
          </ns3:TrackPointExtension>
        </extensions>
      </trkpt>
      <trkpt lat="42.64839814044535160064697265625" lon="19.9074077792465686798095703125">
        <ele>984.5999755859375</ele>
        <time>2026-06-16T06:49:25.000Z</time>
        <extensions>
          <ns3:TrackPointExtension>
            <ns3:atemp>17.0</ns3:atemp>
          </ns3:TrackPointExtension>
        </extensions>
      </trkpt>
      <trkpt lat="42.64837819151580333709716796875" lon="19.90740702487528324127197265625">
        <ele>984.79998779296875</ele>
        <time>2026-06-16T06:49:26.000Z</time>
        <extensions>
          <ns3:TrackPointExtension>
            <ns3:atemp>17.0</ns3:atemp>
          </ns3:TrackPointExtension>
        </extensions>
      </trkpt>
      <trkpt lat="42.6483526267111301422119140625" lon="19.90740467794239521026611328125">
        <ele>985.20001220703125</ele>
        <time>2026-06-16T06:49:27.000Z</time>
        <extensions>
          <ns3:TrackPointExtension>
            <ns3:atemp>17.0</ns3:atemp>
          </ns3:TrackPointExtension>
        </extensions>
      </trkpt>
      <trkpt lat="42.6483294926583766937255859375" lon="19.9074138142168521881103515625">
        <ele>985.4000244140625</ele>
        <time>2026-06-16T06:49:28.000Z</time>
        <extensions>
          <ns3:TrackPointExtension>
            <ns3:atemp>17.0</ns3:atemp>
          </ns3:TrackPointExtension>
        </extensions>
      </trkpt>
      <trkpt lat="42.64830895699560642242431640625" lon="19.9074235372245311737060546875">
        <ele>985.5999755859375</ele>
        <time>2026-06-16T06:49:29.000Z</time>
        <extensions>
          <ns3:TrackPointExtension>
            <ns3:atemp>17.0</ns3:atemp>
          </ns3:TrackPointExtension>
        </extensions>
      </trkpt>
      <trkpt lat="42.64829437248408794403076171875" lon="19.90743988193571567535400390625">
        <ele>985.79998779296875</ele>
        <time>2026-06-16T06:49:30.000Z</time>
        <extensions>
          <ns3:TrackPointExtension>
            <ns3:atemp>17.0</ns3:atemp>
          </ns3:TrackPointExtension>
        </extensions>
      </trkpt>
      <trkpt lat="42.64828079380095005035400390625" lon="19.90745161660015583038330078125">
        <ele>986.20001220703125</ele>
        <time>2026-06-16T06:49:31.000Z</time>
        <extensions>
          <ns3:TrackPointExtension>
            <ns3:atemp>17.0</ns3:atemp>
          </ns3:TrackPointExtension>
        </extensions>
      </trkpt>
      <trkpt lat="42.64827006496489048004150390625" lon="19.90746997296810150146484375">
        <ele>986.4000244140625</ele>
        <time>2026-06-16T06:49:32.000Z</time>
        <extensions>
          <ns3:TrackPointExtension>
            <ns3:atemp>17.0</ns3:atemp>
          </ns3:TrackPointExtension>
        </extensions>
      </trkpt>
      <trkpt lat="42.64826570637524127960205078125" lon="19.90749402903020381927490234375">
        <ele>986.5999755859375</ele>
        <time>2026-06-16T06:49:33.000Z</time>
        <extensions>
          <ns3:TrackPointExtension>
            <ns3:atemp>17.0</ns3:atemp>
          </ns3:TrackPointExtension>
        </extensions>
      </trkpt>
      <trkpt lat="42.64827073551714420318603515625" lon="19.9075157381594181060791015625">
        <ele>986.79998779296875</ele>
        <time>2026-06-16T06:49:34.000Z</time>
        <extensions>
          <ns3:TrackPointExtension>
            <ns3:atemp>17.0</ns3:atemp>
          </ns3:TrackPointExtension>
        </extensions>
      </trkpt>
      <trkpt lat="42.64828314073383808135986328125" lon="19.90753510035574436187744140625">
        <ele>987.20001220703125</ele>
        <time>2026-06-16T06:49:35.000Z</time>
        <extensions>
          <ns3:TrackPointExtension>
            <ns3:atemp>17.0</ns3:atemp>
          </ns3:TrackPointExtension>
        </extensions>
      </trkpt>
      <trkpt lat="42.64828934334218502044677734375" lon="19.9075506068766117095947265625">
        <ele>987.4000244140625</ele>
        <time>2026-06-16T06:49:36.000Z</time>
        <extensions>
          <ns3:TrackPointExtension>
            <ns3:atemp>17.0</ns3:atemp>
          </ns3:TrackPointExtension>
        </extensions>
      </trkpt>
      <trkpt lat="42.64829956926405429840087890625" lon="19.90756745450198650360107421875">
        <ele>987.79998779296875</ele>
        <time>2026-06-16T06:49:37.000Z</time>
        <extensions>
          <ns3:TrackPointExtension>
            <ns3:atemp>17.0</ns3:atemp>
          </ns3:TrackPointExtension>
        </extensions>
      </trkpt>
      <trkpt lat="42.64830979518592357635498046875" lon="19.9075854755938053131103515625">
        <ele>988.20001220703125</ele>
        <time>2026-06-16T06:49:38.000Z</time>
        <extensions>
          <ns3:TrackPointExtension>
            <ns3:atemp>17.0</ns3:atemp>
          </ns3:TrackPointExtension>
        </extensions>
      </trkpt>
      <trkpt lat="42.64832421205937862396240234375" lon="19.90760617889463901519775390625">
        <ele>988.4000244140625</ele>
        <time>2026-06-16T06:49:39.000Z</time>
        <extensions>
          <ns3:TrackPointExtension>
            <ns3:atemp>17.0</ns3:atemp>
          </ns3:TrackPointExtension>
        </extensions>
      </trkpt>
      <trkpt lat="42.64832974411547183990478515625" lon="19.907629899680614471435546875">
        <ele>988.79998779296875</ele>
        <time>2026-06-16T06:49:40.000Z</time>
        <extensions>
          <ns3:TrackPointExtension>
            <ns3:atemp>17.0</ns3:atemp>
          </ns3:TrackPointExtension>
        </extensions>
      </trkpt>
      <trkpt lat="42.6483372040092945098876953125" lon="19.9076525308191776275634765625">
        <ele>989</ele>
        <time>2026-06-16T06:49:41.000Z</time>
        <extensions>
          <ns3:TrackPointExtension>
            <ns3:atemp>17.0</ns3:atemp>
          </ns3:TrackPointExtension>
        </extensions>
      </trkpt>
      <trkpt lat="42.64834650792181491851806640625" lon="19.9076719768345355987548828125">
        <ele>989.4000244140625</ele>
        <time>2026-06-16T06:49:42.000Z</time>
        <extensions>
          <ns3:TrackPointExtension>
            <ns3:atemp>17.0</ns3:atemp>
          </ns3:TrackPointExtension>
        </extensions>
      </trkpt>
      <trkpt lat="42.64835388399660587310791015625" lon="19.9076907522976398468017578125">
        <ele>989.5999755859375</ele>
        <time>2026-06-16T06:49:43.000Z</time>
        <extensions>
          <ns3:TrackPointExtension>
            <ns3:atemp>17.0</ns3:atemp>
          </ns3:TrackPointExtension>
        </extensions>
      </trkpt>
      <trkpt lat="42.64836260117590427398681640625" lon="19.90771044977009296417236328125">
        <ele>990</ele>
        <time>2026-06-16T06:49:44.000Z</time>
        <extensions>
          <ns3:TrackPointExtension>
            <ns3:atemp>17.0</ns3:atemp>
          </ns3:TrackPointExtension>
        </extensions>
      </trkpt>
      <trkpt lat="42.64837098307907581329345703125" lon="19.90773257799446582794189453125">
        <ele>990.4000244140625</ele>
        <time>2026-06-16T06:49:45.000Z</time>
        <extensions>
          <ns3:TrackPointExtension>
            <ns3:atemp>17.0</ns3:atemp>
          </ns3:TrackPointExtension>
        </extensions>
      </trkpt>
      <trkpt lat="42.648379616439342498779296875" lon="19.9077524431049823760986328125">
        <ele>990.5999755859375</ele>
        <time>2026-06-16T06:49:46.000Z</time>
        <extensions>
          <ns3:TrackPointExtension>
            <ns3:atemp>17.0</ns3:atemp>
          </ns3:TrackPointExtension>
        </extensions>
      </trkpt>
      <trkpt lat="42.648386992514133453369140625" lon="19.90777985192835330963134765625">
        <ele>991</ele>
        <time>2026-06-16T06:49:47.000Z</time>
        <extensions>
          <ns3:TrackPointExtension>
            <ns3:atemp>17.0</ns3:atemp>
          </ns3:TrackPointExtension>
        </extensions>
      </trkpt>
      <trkpt lat="42.64839109964668750762939453125" lon="19.9078007228672504425048828125">
        <ele>991.20001220703125</ele>
        <time>2026-06-16T06:49:48.000Z</time>
        <extensions>
          <ns3:TrackPointExtension>
            <ns3:atemp>17.0</ns3:atemp>
          </ns3:TrackPointExtension>
        </extensions>
      </trkpt>
      <trkpt lat="42.64839981682598590850830078125" lon="19.9078272096812725067138671875">
        <ele>991.5999755859375</ele>
        <time>2026-06-16T06:49:49.000Z</time>
        <extensions>
          <ns3:TrackPointExtension>
            <ns3:atemp>17.0</ns3:atemp>
          </ns3:TrackPointExtension>
        </extensions>
      </trkpt>
      <trkpt lat="42.64841021038591861724853515625" lon="19.907851517200469970703125">
        <ele>992</ele>
        <time>2026-06-16T06:49:50.000Z</time>
        <extensions>
          <ns3:TrackPointExtension>
            <ns3:atemp>17.0</ns3:atemp>
          </ns3:TrackPointExtension>
        </extensions>
      </trkpt>
      <trkpt lat="42.64842010103166103363037109375" lon="19.90787071175873279571533203125">
        <ele>992.4000244140625</ele>
        <time>2026-06-16T06:49:51.000Z</time>
        <extensions>
          <ns3:TrackPointExtension>
            <ns3:atemp>17.0</ns3:atemp>
          </ns3:TrackPointExtension>
        </extensions>
      </trkpt>
      <trkpt lat="42.648433260619640350341796875" lon="19.90789032541215419769287109375">
        <ele>992.79998779296875</ele>
        <time>2026-06-16T06:49:52.000Z</time>
        <extensions>
          <ns3:TrackPointExtension>
            <ns3:atemp>17.0</ns3:atemp>
          </ns3:TrackPointExtension>
        </extensions>
      </trkpt>
      <trkpt lat="42.64844407327473163604736328125" lon="19.907907508313655853271484375">
        <ele>993</ele>
        <time>2026-06-16T06:49:53.000Z</time>
        <extensions>
          <ns3:TrackPointExtension>
            <ns3:atemp>17.0</ns3:atemp>
          </ns3:TrackPointExtension>
        </extensions>
      </trkpt>
      <trkpt lat="42.64845714904367923736572265625" lon="19.90792335011065006256103515625">
        <ele>993.4000244140625</ele>
        <time>2026-06-16T06:49:54.000Z</time>
        <extensions>
          <ns3:TrackPointExtension>
            <ns3:atemp>17.0</ns3:atemp>
          </ns3:TrackPointExtension>
        </extensions>
      </trkpt>
      <trkpt lat="42.64847340993583202362060546875" lon="19.9079422093927860260009765625">
        <ele>993.5999755859375</ele>
        <time>2026-06-16T06:49:55.000Z</time>
        <extensions>
          <ns3:TrackPointExtension>
            <ns3:atemp>17.0</ns3:atemp>
          </ns3:TrackPointExtension>
        </extensions>
      </trkpt>
      <trkpt lat="42.648486234247684478759765625" lon="19.90795989520847797393798828125">
        <ele>993.79998779296875</ele>
        <time>2026-06-16T06:49:56.000Z</time>
        <extensions>
          <ns3:TrackPointExtension>
            <ns3:atemp>17.0</ns3:atemp>
          </ns3:TrackPointExtension>
        </extensions>
      </trkpt>
      <trkpt lat="42.648500315845012664794921875" lon="19.90798084996640682220458984375">
        <ele>994.20001220703125</ele>
        <time>2026-06-16T06:49:57.000Z</time>
        <extensions>
          <ns3:TrackPointExtension>
            <ns3:atemp>17.0</ns3:atemp>
          </ns3:TrackPointExtension>
        </extensions>
      </trkpt>
      <trkpt lat="42.64851548708975315093994140625" lon="19.9079988710582256317138671875">
        <ele>994.5999755859375</ele>
        <time>2026-06-16T06:49:58.000Z</time>
        <extensions>
          <ns3:TrackPointExtension>
            <ns3:atemp>17.0</ns3:atemp>
          </ns3:TrackPointExtension>
        </extensions>
      </trkpt>
      <trkpt lat="42.64853057451546192169189453125" lon="19.9080152995884418487548828125">
        <ele>994.79998779296875</ele>
        <time>2026-06-16T06:49:59.000Z</time>
        <extensions>
          <ns3:TrackPointExtension>
            <ns3:atemp>17.0</ns3:atemp>
          </ns3:TrackPointExtension>
        </extensions>
      </trkpt>
      <trkpt lat="42.6485467515885829925537109375" lon="19.90802963264286518096923828125">
        <ele>995</ele>
        <time>2026-06-16T06:50:00.000Z</time>
        <extensions>
          <ns3:TrackPointExtension>
            <ns3:atemp>17.0</ns3:atemp>
          </ns3:TrackPointExtension>
        </extensions>
      </trkpt>
      <trkpt lat="42.648563347756862640380859375" lon="19.9080432951450347900390625">
        <ele>995.4000244140625</ele>
        <time>2026-06-16T06:50:01.000Z</time>
        <extensions>
          <ns3:TrackPointExtension>
            <ns3:atemp>17.0</ns3:atemp>
          </ns3:TrackPointExtension>
        </extensions>
      </trkpt>
      <trkpt lat="42.64857717789709568023681640625" lon="19.90805410780012607574462890625">
        <ele>995.5999755859375</ele>
        <time>2026-06-16T06:50:02.000Z</time>
        <extensions>
          <ns3:TrackPointExtension>
            <ns3:atemp>17.0</ns3:atemp>
          </ns3:TrackPointExtension>
        </extensions>
      </trkpt>
      <trkpt lat="42.6485931873321533203125" lon="19.908064417541027069091796875">
        <ele>996</ele>
        <time>2026-06-16T06:50:03.000Z</time>
        <extensions>
          <ns3:TrackPointExtension>
            <ns3:atemp>17.0</ns3:atemp>
          </ns3:TrackPointExtension>
        </extensions>
      </trkpt>
      <trkpt lat="42.64861238189041614532470703125" lon="19.9080810137093067169189453125">
        <ele>996.20001220703125</ele>
        <time>2026-06-16T06:50:04.000Z</time>
        <extensions>
          <ns3:TrackPointExtension>
            <ns3:atemp>17.0</ns3:atemp>
          </ns3:TrackPointExtension>
        </extensions>
      </trkpt>
      <trkpt lat="42.64863132499158382415771484375" lon="19.9080996215343475341796875">
        <ele>996.4000244140625</ele>
        <time>2026-06-16T06:50:05.000Z</time>
        <extensions>
          <ns3:TrackPointExtension>
            <ns3:atemp>17.0</ns3:atemp>
          </ns3:TrackPointExtension>
        </extensions>
      </trkpt>
      <trkpt lat="42.64864574186503887176513671875" lon="19.90811579860746860504150390625">
        <ele>996.5999755859375</ele>
        <time>2026-06-16T06:50:06.000Z</time>
        <extensions>
          <ns3:TrackPointExtension>
            <ns3:atemp>17.0</ns3:atemp>
          </ns3:TrackPointExtension>
        </extensions>
      </trkpt>
      <trkpt lat="42.648658566176891326904296875" lon="19.90812954492866992950439453125">
        <ele>997</ele>
        <time>2026-06-16T06:50:07.000Z</time>
        <extensions>
          <ns3:TrackPointExtension>
            <ns3:atemp>17.0</ns3:atemp>
          </ns3:TrackPointExtension>
        </extensions>
      </trkpt>
      <trkpt lat="42.64866887591779232025146484375" lon="19.908140860497951507568359375">
        <ele>997.20001220703125</ele>
        <time>2026-06-16T06:50:08.000Z</time>
        <extensions>
          <ns3:TrackPointExtension>
            <ns3:atemp>17.0</ns3:atemp>
          </ns3:TrackPointExtension>
        </extensions>
      </trkpt>
      <trkpt lat="42.64868144877254962921142578125" lon="19.90815988741815090179443359375">
        <ele>997.4000244140625</ele>
        <time>2026-06-16T06:50:09.000Z</time>
        <extensions>
          <ns3:TrackPointExtension>
            <ns3:atemp>17.0</ns3:atemp>
          </ns3:TrackPointExtension>
        </extensions>
      </trkpt>
      <trkpt lat="42.648698128759860992431640625" lon="19.9081852845847606658935546875">
        <ele>997.5999755859375</ele>
        <time>2026-06-16T06:50:10.000Z</time>
        <extensions>
          <ns3:TrackPointExtension>
            <ns3:atemp>17.0</ns3:atemp>
          </ns3:TrackPointExtension>
        </extensions>
      </trkpt>
      <trkpt lat="42.64871296472847461700439453125" lon="19.9082107655704021453857421875">
        <ele>998</ele>
        <time>2026-06-16T06:50:11.000Z</time>
        <extensions>
          <ns3:TrackPointExtension>
            <ns3:atemp>17.0</ns3:atemp>
          </ns3:TrackPointExtension>
        </extensions>
      </trkpt>
      <trkpt lat="42.6487257890403270721435546875" lon="19.9082302115857601165771484375">
        <ele>998.4000244140625</ele>
        <time>2026-06-16T06:50:12.000Z</time>
        <extensions>
          <ns3:TrackPointExtension>
            <ns3:atemp>17.0</ns3:atemp>
          </ns3:TrackPointExtension>
        </extensions>
      </trkpt>
      <trkpt lat="42.6487381942570209503173828125" lon="19.90825829096138477325439453125">
        <ele>998.5999755859375</ele>
        <time>2026-06-16T06:50:13.000Z</time>
        <extensions>
          <ns3:TrackPointExtension>
            <ns3:atemp>17.0</ns3:atemp>
          </ns3:TrackPointExtension>
        </extensions>
      </trkpt>
      <trkpt lat="42.648749090731143951416015625" lon="19.90828393958508968353271484375">
        <ele>999</ele>
        <time>2026-06-16T06:50:14.000Z</time>
        <extensions>
          <ns3:TrackPointExtension>
            <ns3:atemp>17.0</ns3:atemp>
          </ns3:TrackPointExtension>
        </extensions>
      </trkpt>
      <trkpt lat="42.64876023866236209869384765625" lon="19.9083076603710651397705078125">
        <ele>999.20001220703125</ele>
        <time>2026-06-16T06:50:15.000Z</time>
        <extensions>
          <ns3:TrackPointExtension>
            <ns3:atemp>17.0</ns3:atemp>
          </ns3:TrackPointExtension>
        </extensions>
      </trkpt>
      <trkpt lat="42.648772895336151123046875" lon="19.908329285681247711181640625">
        <ele>999.4000244140625</ele>
        <time>2026-06-16T06:50:16.000Z</time>
        <extensions>
          <ns3:TrackPointExtension>
            <ns3:atemp>17.0</ns3:atemp>
          </ns3:TrackPointExtension>
        </extensions>
      </trkpt>
      <trkpt lat="42.64878429472446441650390625" lon="19.90836046636104583740234375">
        <ele>999.79998779296875</ele>
        <time>2026-06-16T06:50:17.000Z</time>
        <extensions>
          <ns3:TrackPointExtension>
            <ns3:atemp>17.0</ns3:atemp>
          </ns3:TrackPointExtension>
        </extensions>
      </trkpt>
      <trkpt lat="42.64879745431244373321533203125" lon="19.90839357487857341766357421875">
        <ele>1000</ele>
        <time>2026-06-16T06:50:18.000Z</time>
        <extensions>
          <ns3:TrackPointExtension>
            <ns3:atemp>17.0</ns3:atemp>
          </ns3:TrackPointExtension>
        </extensions>
      </trkpt>
      <trkpt lat="42.648808099329471588134765625" lon="19.9084166251122951507568359375">
        <ele>1000.4000244140625</ele>
        <time>2026-06-16T06:50:19.000Z</time>
        <extensions>
          <ns3:TrackPointExtension>
            <ns3:atemp>17.0</ns3:atemp>
          </ns3:TrackPointExtension>
        </extensions>
      </trkpt>
      <trkpt lat="42.6488196663558483123779296875" lon="19.9084357358515262603759765625">
        <ele>1000.5999755859375</ele>
        <time>2026-06-16T06:50:20.000Z</time>
        <extensions>
          <ns3:TrackPointExtension>
            <ns3:atemp>17.0</ns3:atemp>
          </ns3:TrackPointExtension>
        </extensions>
      </trkpt>
      <trkpt lat="42.64883165247738361358642578125" lon="19.90845409221947193145751953125">
        <ele>1000.79998779296875</ele>
        <time>2026-06-16T06:50:21.000Z</time>
        <extensions>
          <ns3:TrackPointExtension>
            <ns3:atemp>17.0</ns3:atemp>
          </ns3:TrackPointExtension>
        </extensions>
      </trkpt>
      <trkpt lat="42.6488438062369823455810546875" lon="19.908468760550022125244140625">
        <ele>1001</ele>
        <time>2026-06-16T06:50:22.000Z</time>
        <extensions>
          <ns3:TrackPointExtension>
            <ns3:atemp>17.0</ns3:atemp>
          </ns3:TrackPointExtension>
        </extensions>
      </trkpt>
      <trkpt lat="42.64885830692946910858154296875" lon="19.908484853804111480712890625">
        <ele>1001.4000244140625</ele>
        <time>2026-06-16T06:50:23.000Z</time>
        <extensions>
          <ns3:TrackPointExtension>
            <ns3:atemp>17.0</ns3:atemp>
          </ns3:TrackPointExtension>
        </extensions>
      </trkpt>
      <trkpt lat="42.64887280762195587158203125" lon="19.90849600173532962799072265625">
        <ele>1001.5999755859375</ele>
        <time>2026-06-16T06:50:24.000Z</time>
        <extensions>
          <ns3:TrackPointExtension>
            <ns3:atemp>17.0</ns3:atemp>
          </ns3:TrackPointExtension>
        </extensions>
      </trkpt>
      <trkpt lat="42.6488907448947429656982421875" lon="19.90850723348557949066162109375">
        <ele>1002</ele>
        <time>2026-06-16T06:50:25.000Z</time>
        <extensions>
          <ns3:TrackPointExtension>
            <ns3:atemp>17.0</ns3:atemp>
          </ns3:TrackPointExtension>
        </extensions>
      </trkpt>
      <trkpt lat="42.6489065028727054595947265625" lon="19.908519722521305084228515625">
        <ele>1002.4000244140625</ele>
        <time>2026-06-16T06:50:26.000Z</time>
        <extensions>
          <ns3:TrackPointExtension>
            <ns3:atemp>17.0</ns3:atemp>
          </ns3:TrackPointExtension>
        </extensions>
      </trkpt>
      <trkpt lat="42.64892578125" lon="19.9085322953760623931884765625">
        <ele>1002.5999755859375</ele>
        <time>2026-06-16T06:50:27.000Z</time>
        <extensions>
          <ns3:TrackPointExtension>
            <ns3:atemp>17.0</ns3:atemp>
          </ns3:TrackPointExtension>
        </extensions>
      </trkpt>
      <trkpt lat="42.648944221436977386474609375" lon="19.9085443653166294097900390625">
        <ele>1003</ele>
        <time>2026-06-16T06:50:28.000Z</time>
        <extensions>
          <ns3:TrackPointExtension>
            <ns3:atemp>17.0</ns3:atemp>
          </ns3:TrackPointExtension>
        </extensions>
      </trkpt>
      <trkpt lat="42.64896425418555736541748046875" lon="19.9085567705333232879638671875">
        <ele>1003.20001220703125</ele>
        <time>2026-06-16T06:50:29.000Z</time>
        <extensions>
          <ns3:TrackPointExtension>
            <ns3:atemp>17.0</ns3:atemp>
          </ns3:TrackPointExtension>
        </extensions>
      </trkpt>
      <trkpt lat="42.6489809341728687286376953125" lon="19.90856674499809741973876953125">
        <ele>1003.4000244140625</ele>
        <time>2026-06-16T06:50:30.000Z</time>
        <extensions>
          <ns3:TrackPointExtension>
            <ns3:atemp>17.0</ns3:atemp>
          </ns3:TrackPointExtension>
        </extensions>
      </trkpt>
      <trkpt lat="42.64900146983563899993896484375" lon="19.90857663564383983612060546875">
        <ele>1003.5999755859375</ele>
        <time>2026-06-16T06:50:31.000Z</time>
        <extensions>
          <ns3:TrackPointExtension>
            <ns3:atemp>17.0</ns3:atemp>
          </ns3:TrackPointExtension>
        </extensions>
      </trkpt>
      <trkpt lat="42.6490209996700286865234375" lon="19.90858417935669422149658203125">
        <ele>1004</ele>
        <time>2026-06-16T06:50:32.000Z</time>
        <extensions>
          <ns3:TrackPointExtension>
            <ns3:atemp>17.0</ns3:atemp>
          </ns3:TrackPointExtension>
        </extensions>
      </trkpt>
      <trkpt lat="42.64904438517987728118896484375" lon="19.9085926450788974761962890625">
        <ele>1004.4000244140625</ele>
        <time>2026-06-16T06:50:33.000Z</time>
        <extensions>
          <ns3:TrackPointExtension>
            <ns3:atemp>17.0</ns3:atemp>
          </ns3:TrackPointExtension>
        </extensions>
      </trkpt>
      <trkpt lat="42.64906584285199642181396484375" lon="19.90860412828624248504638671875">
        <ele>1004.5999755859375</ele>
        <time>2026-06-16T06:50:34.000Z</time>
        <extensions>
          <ns3:TrackPointExtension>
            <ns3:atemp>17.0</ns3:atemp>
          </ns3:TrackPointExtension>
        </extensions>
      </trkpt>
      <trkpt lat="42.64908512122929096221923828125" lon="19.9086117558181285858154296875">
        <ele>1005</ele>
        <time>2026-06-16T06:50:35.000Z</time>
        <extensions>
          <ns3:TrackPointExtension>
            <ns3:atemp>17.0</ns3:atemp>
          </ns3:TrackPointExtension>
        </extensions>
      </trkpt>
      <trkpt lat="42.6491036452353000640869140625" lon="19.90862407721579074859619140625">
        <ele>1005.4000244140625</ele>
        <time>2026-06-16T06:50:36.000Z</time>
        <extensions>
          <ns3:TrackPointExtension>
            <ns3:atemp>17.0</ns3:atemp>
          </ns3:TrackPointExtension>
        </extensions>
      </trkpt>
      <trkpt lat="42.64912535436451435089111328125" lon="19.90863530896604061126708984375">
        <ele>1005.5999755859375</ele>
        <time>2026-06-16T06:50:37.000Z</time>
        <extensions>
          <ns3:TrackPointExtension>
            <ns3:atemp>17.0</ns3:atemp>
          </ns3:TrackPointExtension>
        </extensions>
      </trkpt>
      <trkpt lat="42.649147398769855499267578125" lon="19.90864570252597332000732421875">
        <ele>1006</ele>
        <time>2026-06-16T06:50:38.000Z</time>
        <extensions>
          <ns3:TrackPointExtension>
            <ns3:atemp>17.0</ns3:atemp>
          </ns3:TrackPointExtension>
        </extensions>
      </trkpt>
      <trkpt lat="42.64916944317519664764404296875" lon="19.90864855237305164337158203125">
        <ele>1006.20001220703125</ele>
        <time>2026-06-16T06:50:39.000Z</time>
        <extensions>
          <ns3:TrackPointExtension>
            <ns3:atemp>17.0</ns3:atemp>
          </ns3:TrackPointExtension>
        </extensions>
      </trkpt>
      <trkpt lat="42.6491921581327915191650390625" lon="19.9086462892591953277587890625">
        <ele>1006.5999755859375</ele>
        <time>2026-06-16T06:50:40.000Z</time>
        <extensions>
          <ns3:TrackPointExtension>
            <ns3:atemp>17.0</ns3:atemp>
          </ns3:TrackPointExtension>
        </extensions>
      </trkpt>
      <trkpt lat="42.64921939931809902191162109375" lon="19.90865173749625682830810546875">
        <ele>1006.5999755859375</ele>
        <time>2026-06-16T06:50:41.000Z</time>
        <extensions>
          <ns3:TrackPointExtension>
            <ns3:atemp>17.0</ns3:atemp>
          </ns3:TrackPointExtension>
        </extensions>
      </trkpt>
      <trkpt lat="42.64923951588571071624755859375" lon="19.90865961648523807525634765625">
        <ele>1007</ele>
        <time>2026-06-16T06:50:42.000Z</time>
        <extensions>
          <ns3:TrackPointExtension>
            <ns3:atemp>17.0</ns3:atemp>
          </ns3:TrackPointExtension>
        </extensions>
      </trkpt>
      <trkpt lat="42.64926038682460784912109375" lon="19.90866615436971187591552734375">
        <ele>1007.20001220703125</ele>
        <time>2026-06-16T06:50:43.000Z</time>
        <extensions>
          <ns3:TrackPointExtension>
            <ns3:atemp>17.0</ns3:atemp>
          </ns3:TrackPointExtension>
        </extensions>
      </trkpt>
      <trkpt lat="42.6492853648960590362548828125" lon="19.908674620091915130615234375">
        <ele>1007.4000244140625</ele>
        <time>2026-06-16T06:50:44.000Z</time>
        <extensions>
          <ns3:TrackPointExtension>
            <ns3:atemp>17.0</ns3:atemp>
          </ns3:TrackPointExtension>
        </extensions>
      </trkpt>
      <trkpt lat="42.6493095047771930694580078125" lon="19.90868912078440189361572265625">
        <ele>1007.5999755859375</ele>
        <time>2026-06-16T06:50:45.000Z</time>
        <extensions>
          <ns3:TrackPointExtension>
            <ns3:atemp>17.0</ns3:atemp>
          </ns3:TrackPointExtension>
        </extensions>
      </trkpt>
      <trkpt lat="42.6493272744119167327880859375" lon="19.90871108137071132659912109375">
        <ele>1008</ele>
        <time>2026-06-16T06:50:46.000Z</time>
        <extensions>
          <ns3:TrackPointExtension>
            <ns3:atemp>17.0</ns3:atemp>
          </ns3:TrackPointExtension>
        </extensions>
      </trkpt>
      <trkpt lat="42.64934646897017955780029296875" lon="19.90874025039374828338623046875">
        <ele>1008.20001220703125</ele>
        <time>2026-06-16T06:50:47.000Z</time>
        <extensions>
          <ns3:TrackPointExtension>
            <ns3:atemp>17.0</ns3:atemp>
          </ns3:TrackPointExtension>
        </extensions>
      </trkpt>
      <trkpt lat="42.64936524443328380584716796875" lon="19.908764474093914031982421875">
        <ele>1008.4000244140625</ele>
        <time>2026-06-16T06:50:48.000Z</time>
        <extensions>
          <ns3:TrackPointExtension>
            <ns3:atemp>17.0</ns3:atemp>
          </ns3:TrackPointExtension>
        </extensions>
      </trkpt>
      <trkpt lat="42.64938049949705600738525390625" lon="19.90878752432763576507568359375">
        <ele>1008.5999755859375</ele>
        <time>2026-06-16T06:50:49.000Z</time>
        <extensions>
          <ns3:TrackPointExtension>
            <ns3:atemp>17.0</ns3:atemp>
          </ns3:TrackPointExtension>
        </extensions>
      </trkpt>
      <trkpt lat="42.6493911445140838623046875" lon="19.9088139273226261138916015625">
        <ele>1008.79998779296875</ele>
        <time>2026-06-16T06:50:50.000Z</time>
        <extensions>
          <ns3:TrackPointExtension>
            <ns3:atemp>17.0</ns3:atemp>
          </ns3:TrackPointExtension>
        </extensions>
      </trkpt>
      <trkpt lat="42.64940380118787288665771484375" lon="19.908835552632808685302734375">
        <ele>1009</ele>
        <time>2026-06-16T06:50:51.000Z</time>
        <extensions>
          <ns3:TrackPointExtension>
            <ns3:atemp>17.0</ns3:atemp>
          </ns3:TrackPointExtension>
        </extensions>
      </trkpt>
      <trkpt lat="42.649416625499725341796875" lon="19.90885273553431034088134765625">
        <ele>1009.20001220703125</ele>
        <time>2026-06-16T06:50:52.000Z</time>
        <extensions>
          <ns3:TrackPointExtension>
            <ns3:atemp>17.0</ns3:atemp>
          </ns3:TrackPointExtension>
        </extensions>
      </trkpt>
      <trkpt lat="42.649432383477687835693359375" lon="19.90887100808322429656982421875">
        <ele>1009.4000244140625</ele>
        <time>2026-06-16T06:50:53.000Z</time>
        <extensions>
          <ns3:TrackPointExtension>
            <ns3:atemp>17.0</ns3:atemp>
          </ns3:TrackPointExtension>
        </extensions>
      </trkpt>
      <trkpt lat="42.6494483090937137603759765625" lon="19.90888492204248905181884765625">
        <ele>1009.79998779296875</ele>
        <time>2026-06-16T06:50:54.000Z</time>
        <extensions>
          <ns3:TrackPointExtension>
            <ns3:atemp>17.0</ns3:atemp>
          </ns3:TrackPointExtension>
        </extensions>
      </trkpt>
      <trkpt lat="42.64946146868169307708740234375" lon="19.9088980816304683685302734375">
        <ele>1010</ele>
        <time>2026-06-16T06:50:55.000Z</time>
        <extensions>
          <ns3:TrackPointExtension>
            <ns3:atemp>17.0</ns3:atemp>
          </ns3:TrackPointExtension>
        </extensions>
      </trkpt>
      <trkpt lat="42.64947806484997272491455078125" lon="19.90891090594232082366943359375">
        <ele>1010.20001220703125</ele>
        <time>2026-06-16T06:50:56.000Z</time>
        <extensions>
          <ns3:TrackPointExtension>
            <ns3:atemp>17.0</ns3:atemp>
          </ns3:TrackPointExtension>
        </extensions>
      </trkpt>
      <trkpt lat="42.64949331991374492645263671875" lon="19.90892431698739528656005859375">
        <ele>1010.4000244140625</ele>
        <time>2026-06-16T06:50:57.000Z</time>
        <extensions>
          <ns3:TrackPointExtension>
            <ns3:atemp>17.0</ns3:atemp>
          </ns3:TrackPointExtension>
        </extensions>
      </trkpt>
      <trkpt lat="42.6495056413114070892333984375" lon="19.90894158370792865753173828125">
        <ele>1010.5999755859375</ele>
        <time>2026-06-16T06:50:58.000Z</time>
        <extensions>
          <ns3:TrackPointExtension>
            <ns3:atemp>17.0</ns3:atemp>
          </ns3:TrackPointExtension>
        </extensions>
      </trkpt>
      <trkpt lat="42.649518214166164398193359375" lon="19.908958934247493743896484375">
        <ele>1010.79998779296875</ele>
        <time>2026-06-16T06:50:59.000Z</time>
        <extensions>
          <ns3:TrackPointExtension>
            <ns3:atemp>17.0</ns3:atemp>
          </ns3:TrackPointExtension>
        </extensions>
      </trkpt>
      <trkpt lat="42.6495284400880336761474609375" lon="19.90897879935801029205322265625">
        <ele>1011</ele>
        <time>2026-06-16T06:51:00.000Z</time>
        <extensions>
          <ns3:TrackPointExtension>
            <ns3:atemp>17.0</ns3:atemp>
          </ns3:TrackPointExtension>
        </extensions>
      </trkpt>
      <trkpt lat="42.64953975565731525421142578125" lon="19.9089946411550045013427734375">
        <ele>1011.4000244140625</ele>
        <time>2026-06-16T06:51:01.000Z</time>
        <extensions>
          <ns3:TrackPointExtension>
            <ns3:atemp>17.0</ns3:atemp>
          </ns3:TrackPointExtension>
        </extensions>
      </trkpt>
      <trkpt lat="42.649547718465328216552734375" lon="19.9090187810361385345458984375">
        <ele>1011.5999755859375</ele>
        <time>2026-06-16T06:51:02.000Z</time>
        <extensions>
          <ns3:TrackPointExtension>
            <ns3:atemp>17.0</ns3:atemp>
          </ns3:TrackPointExtension>
        </extensions>
      </trkpt>
      <trkpt lat="42.649553082883358001708984375" lon="19.909042418003082275390625">
        <ele>1012</ele>
        <time>2026-06-16T06:51:03.000Z</time>
        <extensions>
          <ns3:TrackPointExtension>
            <ns3:atemp>17.0</ns3:atemp>
          </ns3:TrackPointExtension>
        </extensions>
      </trkpt>
      <trkpt lat="42.64954964630305767059326171875" lon="19.90906815044581890106201171875">
        <ele>1012.20001220703125</ele>
        <time>2026-06-16T06:51:04.000Z</time>
        <extensions>
          <ns3:TrackPointExtension>
            <ns3:atemp>17.0</ns3:atemp>
          </ns3:TrackPointExtension>
        </extensions>
      </trkpt>
      <trkpt lat="42.64954377897083759307861328125" lon="19.90909011103212833404541015625">
        <ele>1012.5999755859375</ele>
        <time>2026-06-16T06:51:05.000Z</time>
        <extensions>
          <ns3:TrackPointExtension>
            <ns3:atemp>17.0</ns3:atemp>
          </ns3:TrackPointExtension>
        </extensions>
      </trkpt>
      <trkpt lat="42.64953237958252429962158203125" lon="19.909111820161342620849609375">
        <ele>1012.79998779296875</ele>
        <time>2026-06-16T06:51:06.000Z</time>
        <extensions>
          <ns3:TrackPointExtension>
            <ns3:atemp>17.0</ns3:atemp>
          </ns3:TrackPointExtension>
        </extensions>
      </trkpt>
      <trkpt lat="42.6495187170803546905517578125" lon="19.9091247282922267913818359375">
        <ele>1013.20001220703125</ele>
        <time>2026-06-16T06:51:07.000Z</time>
        <extensions>
          <ns3:TrackPointExtension>
            <ns3:atemp>17.0</ns3:atemp>
          </ns3:TrackPointExtension>
        </extensions>
      </trkpt>
      <trkpt lat="42.649500109255313873291015625" lon="19.90913436748087406158447265625">
        <ele>1013.4000244140625</ele>
        <time>2026-06-16T06:51:08.000Z</time>
        <extensions>
          <ns3:TrackPointExtension>
            <ns3:atemp>17.0</ns3:atemp>
          </ns3:TrackPointExtension>
        </extensions>
      </trkpt>
      <trkpt lat="42.6494768075644969940185546875" lon="19.9091310985386371612548828125">
        <ele>1013.5999755859375</ele>
        <time>2026-06-16T06:51:09.000Z</time>
        <extensions>
          <ns3:TrackPointExtension>
            <ns3:atemp>17.0</ns3:atemp>
          </ns3:TrackPointExtension>
        </extensions>
      </trkpt>
      <trkpt lat="42.6494587026536464691162109375" lon="19.90912280045449733734130859375">
        <ele>1014</ele>
        <time>2026-06-16T06:51:10.000Z</time>
        <extensions>
          <ns3:TrackPointExtension>
            <ns3:atemp>17.0</ns3:atemp>
          </ns3:TrackPointExtension>
        </extensions>
      </trkpt>
      <trkpt lat="42.64944143593311309814453125" lon="19.90911684930324554443359375">
        <ele>1014.20001220703125</ele>
        <time>2026-06-16T06:51:11.000Z</time>
        <extensions>
          <ns3:TrackPointExtension>
            <ns3:atemp>17.0</ns3:atemp>
          </ns3:TrackPointExtension>
        </extensions>
      </trkpt>
      <trkpt lat="42.6494211517274379730224609375" lon="19.9091108143329620361328125">
        <ele>1014.4000244140625</ele>
        <time>2026-06-16T06:51:12.000Z</time>
        <extensions>
          <ns3:TrackPointExtension>
            <ns3:atemp>17.0</ns3:atemp>
          </ns3:TrackPointExtension>
        </extensions>
      </trkpt>
      <trkpt lat="42.64939558692276477813720703125" lon="19.90911290980875492095947265625">
        <ele>1014.5999755859375</ele>
        <time>2026-06-16T06:51:13.000Z</time>
        <extensions>
          <ns3:TrackPointExtension>
            <ns3:atemp>17.0</ns3:atemp>
          </ns3:TrackPointExtension>
        </extensions>
      </trkpt>
      <trkpt lat="42.64937010593712329864501953125" lon="19.90911022759974002838134765625">
        <ele>1015</ele>
        <time>2026-06-16T06:51:14.000Z</time>
        <extensions>
          <ns3:TrackPointExtension>
            <ns3:atemp>17.0</ns3:atemp>
          </ns3:TrackPointExtension>
        </extensions>
      </trkpt>
      <trkpt lat="42.64934445731341838836669921875" lon="19.90911416709423065185546875">
        <ele>1015.20001220703125</ele>
        <time>2026-06-16T06:51:15.000Z</time>
        <extensions>
          <ns3:TrackPointExtension>
            <ns3:atemp>17.0</ns3:atemp>
          </ns3:TrackPointExtension>
        </extensions>
      </trkpt>
      <trkpt lat="42.649322412908077239990234375" lon="19.909112490713596343994140625">
        <ele>1015.4000244140625</ele>
        <time>2026-06-16T06:51:16.000Z</time>
        <extensions>
          <ns3:TrackPointExtension>
            <ns3:atemp>17.0</ns3:atemp>
          </ns3:TrackPointExtension>
        </extensions>
      </trkpt>
      <trkpt lat="42.64930238015949726104736328125" lon="19.9091173522174358367919921875">
        <ele>1016.20001220703125</ele>
        <time>2026-06-16T06:51:17.000Z</time>
        <extensions>
          <ns3:TrackPointExtension>
            <ns3:atemp>17.0</ns3:atemp>
          </ns3:TrackPointExtension>
        </extensions>
      </trkpt>
      <trkpt lat="42.6492786593735218048095703125" lon="19.90912330336868762969970703125">
        <ele>1016.4000244140625</ele>
        <time>2026-06-16T06:51:18.000Z</time>
        <extensions>
          <ns3:TrackPointExtension>
            <ns3:atemp>17.0</ns3:atemp>
          </ns3:TrackPointExtension>
        </extensions>
      </trkpt>
      <trkpt lat="42.64925309456884860992431640625" lon="19.9091274105012416839599609375">
        <ele>1016.5999755859375</ele>
        <time>2026-06-16T06:51:19.000Z</time>
        <extensions>
          <ns3:TrackPointExtension>
            <ns3:atemp>17.0</ns3:atemp>
          </ns3:TrackPointExtension>
        </extensions>
      </trkpt>
      <trkpt lat="42.64922820031642913818359375" lon="19.90912757813930511474609375">
        <ele>1016.79998779296875</ele>
        <time>2026-06-16T06:51:20.000Z</time>
        <extensions>
          <ns3:TrackPointExtension>
            <ns3:atemp>17.0</ns3:atemp>
          </ns3:TrackPointExtension>
        </extensions>
      </trkpt>
      <trkpt lat="42.64920699410140514373779296875" lon="19.90913285873830318450927734375">
        <ele>1016.5999755859375</ele>
        <time>2026-06-16T06:51:21.000Z</time>
        <extensions>
          <ns3:TrackPointExtension>
            <ns3:atemp>17.0</ns3:atemp>
          </ns3:TrackPointExtension>
        </extensions>
      </trkpt>
      <trkpt lat="42.649182938039302825927734375" lon="19.9091349542140960693359375">
        <ele>1016</ele>
        <time>2026-06-16T06:51:22.000Z</time>
        <extensions>
          <ns3:TrackPointExtension>
            <ns3:atemp>17.0</ns3:atemp>
          </ns3:TrackPointExtension>
        </extensions>
      </trkpt>
      <trkpt lat="42.64915972016751766204833984375" lon="19.90914274938404560089111328125">
        <ele>1016</ele>
        <time>2026-06-16T06:51:23.000Z</time>
        <extensions>
          <ns3:TrackPointExtension>
            <ns3:atemp>17.0</ns3:atemp>
          </ns3:TrackPointExtension>
        </extensions>
      </trkpt>
      <trkpt lat="42.649139352142810821533203125" lon="19.90913839079439640045166015625">
        <ele>1016.20001220703125</ele>
        <time>2026-06-16T06:51:24.000Z</time>
        <extensions>
          <ns3:TrackPointExtension>
            <ns3:atemp>17.0</ns3:atemp>
          </ns3:TrackPointExtension>
        </extensions>
      </trkpt>
      <trkpt lat="42.649119235575199127197265625" lon="19.909136295318603515625">
        <ele>1016.79998779296875</ele>
        <time>2026-06-16T06:51:25.000Z</time>
        <extensions>
          <ns3:TrackPointExtension>
            <ns3:atemp>17.0</ns3:atemp>
          </ns3:TrackPointExtension>
        </extensions>
      </trkpt>
      <trkpt lat="42.64909551478922367095947265625" lon="19.9091378040611743927001953125">
        <ele>1017.20001220703125</ele>
        <time>2026-06-16T06:51:26.000Z</time>
        <extensions>
          <ns3:TrackPointExtension>
            <ns3:atemp>17.0</ns3:atemp>
          </ns3:TrackPointExtension>
        </extensions>
      </trkpt>
      <trkpt lat="42.64906592667102813720703125" lon="19.90913654677569866180419921875">
        <ele>1017.4000244140625</ele>
        <time>2026-06-16T06:51:27.000Z</time>
        <extensions>
          <ns3:TrackPointExtension>
            <ns3:atemp>17.0</ns3:atemp>
          </ns3:TrackPointExtension>
        </extensions>
      </trkpt>
      <trkpt lat="42.64904606156051158905029296875" lon="19.909137301146984100341796875">
        <ele>1017.79998779296875</ele>
        <time>2026-06-16T06:51:28.000Z</time>
        <extensions>
          <ns3:TrackPointExtension>
            <ns3:atemp>17.0</ns3:atemp>
          </ns3:TrackPointExtension>
        </extensions>
      </trkpt>
      <trkpt lat="42.64902192167937755584716796875" lon="19.909138977527618408203125">
        <ele>1018</ele>
        <time>2026-06-16T06:51:29.000Z</time>
        <extensions>
          <ns3:TrackPointExtension>
            <ns3:atemp>17.0</ns3:atemp>
          </ns3:TrackPointExtension>
        </extensions>
      </trkpt>
      <trkpt lat="42.64900113455951213836669921875" lon="19.90914157591760158538818359375">
        <ele>1018.4000244140625</ele>
        <time>2026-06-16T06:51:30.000Z</time>
        <extensions>
          <ns3:TrackPointExtension>
            <ns3:atemp>17.0</ns3:atemp>
          </ns3:TrackPointExtension>
        </extensions>
      </trkpt>
      <trkpt lat="42.64897548593580722808837890625" lon="19.90913839079439640045166015625">
        <ele>1018.5999755859375</ele>
        <time>2026-06-16T06:51:31.000Z</time>
        <extensions>
          <ns3:TrackPointExtension>
            <ns3:atemp>17.0</ns3:atemp>
          </ns3:TrackPointExtension>
        </extensions>
      </trkpt>
      <trkpt lat="42.64895059168338775634765625" lon="19.9091347865760326385498046875">
        <ele>1018.79998779296875</ele>
        <time>2026-06-16T06:51:32.000Z</time>
        <extensions>
          <ns3:TrackPointExtension>
            <ns3:atemp>17.0</ns3:atemp>
          </ns3:TrackPointExtension>
        </extensions>
      </trkpt>
      <trkpt lat="42.64892301522195339202880859375" lon="19.909136295318603515625">
        <ele>1019</ele>
        <time>2026-06-16T06:51:33.000Z</time>
        <extensions>
          <ns3:TrackPointExtension>
            <ns3:atemp>17.0</ns3:atemp>
          </ns3:TrackPointExtension>
        </extensions>
      </trkpt>
      <trkpt lat="42.6489003002643585205078125" lon="19.90913964807987213134765625">
        <ele>1019.20001220703125</ele>
        <time>2026-06-16T06:51:34.000Z</time>
        <extensions>
          <ns3:TrackPointExtension>
            <ns3:atemp>17.0</ns3:atemp>
          </ns3:TrackPointExtension>
        </extensions>
      </trkpt>
      <trkpt lat="42.64887523837387561798095703125" lon="19.9091421626508235931396484375">
        <ele>1019.5999755859375</ele>
        <time>2026-06-16T06:51:35.000Z</time>
        <extensions>
          <ns3:TrackPointExtension>
            <ns3:atemp>17.0</ns3:atemp>
          </ns3:TrackPointExtension>
        </extensions>
      </trkpt>
      <trkpt lat="42.64885311014950275421142578125" lon="19.90914241410791873931884765625">
        <ele>1019.79998779296875</ele>
        <time>2026-06-16T06:51:36.000Z</time>
        <extensions>
          <ns3:TrackPointExtension>
            <ns3:atemp>17.0</ns3:atemp>
          </ns3:TrackPointExtension>
        </extensions>
      </trkpt>
      <trkpt lat="42.64883081428706645965576171875" lon="19.90914274938404560089111328125">
        <ele>1020</ele>
        <time>2026-06-16T06:51:37.000Z</time>
        <extensions>
          <ns3:TrackPointExtension>
            <ns3:atemp>17.0</ns3:atemp>
          </ns3:TrackPointExtension>
        </extensions>
      </trkpt>
      <trkpt lat="42.64881111681461334228515625" lon="19.90913654677569866180419921875">
        <ele>1020.20001220703125</ele>
        <time>2026-06-16T06:51:38.000Z</time>
        <extensions>
          <ns3:TrackPointExtension>
            <ns3:atemp>17.0</ns3:atemp>
          </ns3:TrackPointExtension>
        </extensions>
      </trkpt>
      <trkpt lat="42.6487956941127777099609375" lon="19.90913000889122486114501953125">
        <ele>1020.4000244140625</ele>
        <time>2026-06-16T06:51:39.000Z</time>
        <extensions>
          <ns3:TrackPointExtension>
            <ns3:atemp>17.0</ns3:atemp>
          </ns3:TrackPointExtension>
        </extensions>
      </trkpt>
      <trkpt lat="42.648779265582561492919921875" lon="19.9091220460832118988037109375">
        <ele>1020.5999755859375</ele>
        <time>2026-06-16T06:51:40.000Z</time>
        <extensions>
          <ns3:TrackPointExtension>
            <ns3:atemp>17.0</ns3:atemp>
          </ns3:TrackPointExtension>
        </extensions>
      </trkpt>
      <trkpt lat="42.64876426197588443756103515625" lon="19.9091134965419769287109375">
        <ele>1020.5999755859375</ele>
        <time>2026-06-16T06:51:41.000Z</time>
        <extensions>
          <ns3:TrackPointExtension>
            <ns3:atemp>17.0</ns3:atemp>
          </ns3:TrackPointExtension>
        </extensions>
      </trkpt>
      <trkpt lat="42.64875269494950771331787109375" lon="19.90910637192428112030029296875">
        <ele>1020.79998779296875</ele>
        <time>2026-06-16T06:51:42.000Z</time>
        <extensions>
          <ns3:TrackPointExtension>
            <ns3:atemp>17.0</ns3:atemp>
          </ns3:TrackPointExtension>
        </extensions>
      </trkpt>
      <trkpt lat="42.6487398706376552581787109375" lon="19.9090922065079212188720703125">
        <ele>1021</ele>
        <time>2026-06-16T06:51:43.000Z</time>
        <extensions>
          <ns3:TrackPointExtension>
            <ns3:atemp>17.0</ns3:atemp>
          </ns3:TrackPointExtension>
        </extensions>
      </trkpt>
      <trkpt lat="42.64872662723064422607421875" lon="19.909079968929290771484375">
        <ele>1021.20001220703125</ele>
        <time>2026-06-16T06:51:44.000Z</time>
        <extensions>
          <ns3:TrackPointExtension>
            <ns3:atemp>17.0</ns3:atemp>
          </ns3:TrackPointExtension>
        </extensions>
      </trkpt>
      <trkpt lat="42.6487147249281406402587890625" lon="19.90906831808388233184814453125">
        <ele>1021.4000244140625</ele>
        <time>2026-06-16T06:51:45.000Z</time>
        <extensions>
          <ns3:TrackPointExtension>
            <ns3:atemp>17.0</ns3:atemp>
          </ns3:TrackPointExtension>
        </extensions>
      </trkpt>
      <trkpt lat="42.6487019844353199005126953125" lon="19.90905809216201305389404296875">
        <ele>1021.5999755859375</ele>
        <time>2026-06-16T06:51:46.000Z</time>
        <extensions>
          <ns3:TrackPointExtension>
            <ns3:atemp>17.0</ns3:atemp>
          </ns3:TrackPointExtension>
        </extensions>
      </trkpt>
      <trkpt lat="42.64868748374283313751220703125" lon="19.90905105136334896087646484375">
        <ele>1021.79998779296875</ele>
        <time>2026-06-16T06:51:47.000Z</time>
        <extensions>
          <ns3:TrackPointExtension>
            <ns3:atemp>17.0</ns3:atemp>
          </ns3:TrackPointExtension>
        </extensions>
      </trkpt>
      <trkpt lat="42.64867675490677356719970703125" lon="19.909040741622447967529296875">
        <ele>1022</ele>
        <time>2026-06-16T06:51:48.000Z</time>
        <extensions>
          <ns3:TrackPointExtension>
            <ns3:atemp>17.0</ns3:atemp>
          </ns3:TrackPointExtension>
        </extensions>
      </trkpt>
      <trkpt lat="42.64866719953715801239013671875" lon="19.90903370082378387451171875">
        <ele>1022.20001220703125</ele>
        <time>2026-06-16T06:51:49.000Z</time>
        <extensions>
          <ns3:TrackPointExtension>
            <ns3:atemp>17.0</ns3:atemp>
          </ns3:TrackPointExtension>
        </extensions>
      </trkpt>
      <trkpt lat="42.6486443169414997100830078125" lon="19.9090221337974071502685546875">
        <ele>1022.5999755859375</ele>
        <time>2026-06-16T06:51:50.000Z</time>
        <extensions>
          <ns3:TrackPointExtension>
            <ns3:atemp>17.0</ns3:atemp>
          </ns3:TrackPointExtension>
        </extensions>
      </trkpt>
      <trkpt lat="42.64862260781228542327880859375" lon="19.90901081822812557220458984375">
        <ele>1022.79998779296875</ele>
        <time>2026-06-16T06:51:51.000Z</time>
        <extensions>
          <ns3:TrackPointExtension>
            <ns3:atemp>17.0</ns3:atemp>
          </ns3:TrackPointExtension>
        </extensions>
      </trkpt>
      <trkpt lat="42.64860467053949832916259765625" lon="19.9090030230581760406494140625">
        <ele>1023.20001220703125</ele>
        <time>2026-06-16T06:51:52.000Z</time>
        <extensions>
          <ns3:TrackPointExtension>
            <ns3:atemp>17.0</ns3:atemp>
          </ns3:TrackPointExtension>
        </extensions>
      </trkpt>
      <trkpt lat="42.64857910573482513427734375" lon="19.9089902825653553009033203125">
        <ele>1023.4000244140625</ele>
        <time>2026-06-16T06:51:53.000Z</time>
        <extensions>
          <ns3:TrackPointExtension>
            <ns3:atemp>17.0</ns3:atemp>
          </ns3:TrackPointExtension>
        </extensions>
      </trkpt>
      <trkpt lat="42.6485601626336574554443359375" lon="19.9089782126247882843017578125">
        <ele>1023.79998779296875</ele>
        <time>2026-06-16T06:51:54.000Z</time>
        <extensions>
          <ns3:TrackPointExtension>
            <ns3:atemp>17.0</ns3:atemp>
          </ns3:TrackPointExtension>
        </extensions>
      </trkpt>
      <trkpt lat="42.64853845350444316864013671875" lon="19.9089698307216167449951171875">
        <ele>1024</ele>
        <time>2026-06-16T06:51:55.000Z</time>
        <extensions>
          <ns3:TrackPointExtension>
            <ns3:atemp>17.0</ns3:atemp>
          </ns3:TrackPointExtension>
        </extensions>
      </trkpt>
      <trkpt lat="42.6485169120132923126220703125" lon="19.9089611135423183441162109375">
        <ele>1024.199951171875</ele>
        <time>2026-06-16T06:51:56.000Z</time>
        <extensions>
          <ns3:TrackPointExtension>
            <ns3:atemp>17.0</ns3:atemp>
          </ns3:TrackPointExtension>
        </extensions>
      </trkpt>
      <trkpt lat="42.64850090257823467254638671875" lon="19.908951558172702789306640625">
        <ele>1024.4000244140625</ele>
        <time>2026-06-16T06:51:57.000Z</time>
        <extensions>
          <ns3:TrackPointExtension>
            <ns3:atemp>17.0</ns3:atemp>
          </ns3:TrackPointExtension>
        </extensions>
      </trkpt>
      <trkpt lat="42.64848112128674983978271484375" lon="19.90893839858472347259521484375">
        <ele>1024.800048828125</ele>
        <time>2026-06-16T06:51:58.000Z</time>
        <extensions>
          <ns3:TrackPointExtension>
            <ns3:atemp>17.0</ns3:atemp>
          </ns3:TrackPointExtension>
        </extensions>
      </trkpt>
      <trkpt lat="42.64845983125269412994384765625" lon="19.90892783738672733306884765625">
        <ele>1025</ele>
        <time>2026-06-16T06:51:59.000Z</time>
        <extensions>
          <ns3:TrackPointExtension>
            <ns3:atemp>17.0</ns3:atemp>
          </ns3:TrackPointExtension>
        </extensions>
      </trkpt>
      <trkpt lat="42.64843820594251155853271484375" lon="19.9089225567877292633056640625">
        <ele>1025.199951171875</ele>
        <time>2026-06-16T06:52:00.000Z</time>
        <extensions>
          <ns3:TrackPointExtension>
            <ns3:atemp>17.0</ns3:atemp>
          </ns3:TrackPointExtension>
        </extensions>
      </trkpt>
      <trkpt lat="42.6484149880707263946533203125" lon="19.90891928784549236297607421875">
        <ele>1025.4000244140625</ele>
        <time>2026-06-16T06:52:01.000Z</time>
        <extensions>
          <ns3:TrackPointExtension>
            <ns3:atemp>17.0</ns3:atemp>
          </ns3:TrackPointExtension>
        </extensions>
      </trkpt>
      <trkpt lat="42.64839059673249721527099609375" lon="19.90892096422612667083740234375">
        <ele>1025.5999755859375</ele>
        <time>2026-06-16T06:52:02.000Z</time>
        <extensions>
          <ns3:TrackPointExtension>
            <ns3:atemp>17.0</ns3:atemp>
          </ns3:TrackPointExtension>
        </extensions>
      </trkpt>
      <trkpt lat="42.6483636908233165740966796875" lon="19.9089295975863933563232421875">
        <ele>1026</ele>
        <time>2026-06-16T06:52:03.000Z</time>
        <extensions>
          <ns3:TrackPointExtension>
            <ns3:atemp>17.0</ns3:atemp>
          </ns3:TrackPointExtension>
        </extensions>
      </trkpt>
      <trkpt lat="42.64833695255219936370849609375" lon="19.90893588401377201080322265625">
        <ele>1026.199951171875</ele>
        <time>2026-06-16T06:52:04.000Z</time>
        <extensions>
          <ns3:TrackPointExtension>
            <ns3:atemp>17.0</ns3:atemp>
          </ns3:TrackPointExtension>
        </extensions>
      </trkpt>
      <trkpt lat="42.64831624925136566162109375" lon="19.908940158784389495849609375">
        <ele>1026.4000244140625</ele>
        <time>2026-06-16T06:52:05.000Z</time>
        <extensions>
          <ns3:TrackPointExtension>
            <ns3:atemp>17.0</ns3:atemp>
          </ns3:TrackPointExtension>
        </extensions>
      </trkpt>
      <trkpt lat="42.64829202555119991302490234375" lon="19.9089500494301319122314453125">
        <ele>1026.5999755859375</ele>
        <time>2026-06-16T06:52:06.000Z</time>
        <extensions>
          <ns3:TrackPointExtension>
            <ns3:atemp>17.0</ns3:atemp>
          </ns3:TrackPointExtension>
        </extensions>
      </trkpt>
      <trkpt lat="42.648270316421985626220703125" lon="19.908958934247493743896484375">
        <ele>1026.800048828125</ele>
        <time>2026-06-16T06:52:07.000Z</time>
        <extensions>
          <ns3:TrackPointExtension>
            <ns3:atemp>17.0</ns3:atemp>
          </ns3:TrackPointExtension>
        </extensions>
      </trkpt>
      <trkpt lat="42.64824894256889820098876953125" lon="19.908966980874538421630859375">
        <ele>1027</ele>
        <time>2026-06-16T06:52:08.000Z</time>
        <extensions>
          <ns3:TrackPointExtension>
            <ns3:atemp>17.0</ns3:atemp>
          </ns3:TrackPointExtension>
        </extensions>
      </trkpt>
      <trkpt lat="42.64823519624769687652587890625" lon="19.90897293202579021453857421875">
        <ele>1027.199951171875</ele>
        <time>2026-06-16T06:52:09.000Z</time>
        <extensions>
          <ns3:TrackPointExtension>
            <ns3:atemp>17.0</ns3:atemp>
          </ns3:TrackPointExtension>
        </extensions>
      </trkpt>
      <trkpt lat="42.648213990032672882080078125" lon="19.9089765362441539764404296875">
        <ele>1027.4000244140625</ele>
        <time>2026-06-16T06:52:10.000Z</time>
        <extensions>
          <ns3:TrackPointExtension>
            <ns3:atemp>17.0</ns3:atemp>
          </ns3:TrackPointExtension>
        </extensions>
      </trkpt>
      <trkpt lat="42.648193538188934326171875" lon="19.9089772067964076995849609375">
        <ele>1027.5999755859375</ele>
        <time>2026-06-16T06:52:11.000Z</time>
        <extensions>
          <ns3:TrackPointExtension>
            <ns3:atemp>17.0</ns3:atemp>
          </ns3:TrackPointExtension>
        </extensions>
      </trkpt>
      <trkpt lat="42.64817434363067150115966796875" lon="19.9089802242815494537353515625">
        <ele>1027.800048828125</ele>
        <time>2026-06-16T06:52:12.000Z</time>
        <extensions>
          <ns3:TrackPointExtension>
            <ns3:atemp>17.0</ns3:atemp>
          </ns3:TrackPointExtension>
        </extensions>
      </trkpt>
      <trkpt lat="42.64815808273851871490478515625" lon="19.90898407995700836181640625">
        <ele>1028</ele>
        <time>2026-06-16T06:52:13.000Z</time>
        <extensions>
          <ns3:TrackPointExtension>
            <ns3:atemp>17.0</ns3:atemp>
          </ns3:TrackPointExtension>
        </extensions>
      </trkpt>
      <trkpt lat="42.648139894008636474609375" lon="19.9089812301099300384521484375">
        <ele>1028.199951171875</ele>
        <time>2026-06-16T06:52:14.000Z</time>
        <extensions>
          <ns3:TrackPointExtension>
            <ns3:atemp>17.0</ns3:atemp>
          </ns3:TrackPointExtension>
        </extensions>
      </trkpt>
      <trkpt lat="42.64811935834586620330810546875" lon="19.90898081101477146148681640625">
        <ele>1028.4000244140625</ele>
        <time>2026-06-16T06:52:15.000Z</time>
        <extensions>
          <ns3:TrackPointExtension>
            <ns3:atemp>17.0</ns3:atemp>
          </ns3:TrackPointExtension>
        </extensions>
      </trkpt>
      <trkpt lat="42.64810125343501567840576171875" lon="19.90898164920508861541748046875">
        <ele>1028.5999755859375</ele>
        <time>2026-06-16T06:52:16.000Z</time>
        <extensions>
          <ns3:TrackPointExtension>
            <ns3:atemp>17.0</ns3:atemp>
          </ns3:TrackPointExtension>
        </extensions>
      </trkpt>
      <trkpt lat="42.648079209029674530029296875" lon="19.9089798890054225921630859375">
        <ele>1028.800048828125</ele>
        <time>2026-06-16T06:52:17.000Z</time>
        <extensions>
          <ns3:TrackPointExtension>
            <ns3:atemp>17.0</ns3:atemp>
          </ns3:TrackPointExtension>
        </extensions>
      </trkpt>
      <trkpt lat="42.64806152321398258209228515625" lon="19.9089708365499973297119140625">
        <ele>1029</ele>
        <time>2026-06-16T06:52:18.000Z</time>
        <extensions>
          <ns3:TrackPointExtension>
            <ns3:atemp>17.0</ns3:atemp>
          </ns3:TrackPointExtension>
        </extensions>
      </trkpt>
      <trkpt lat="42.6480424962937831878662109375" lon="19.90896304138004779815673828125">
        <ele>1029.199951171875</ele>
        <time>2026-06-16T06:52:19.000Z</time>
        <extensions>
          <ns3:TrackPointExtension>
            <ns3:atemp>17.0</ns3:atemp>
          </ns3:TrackPointExtension>
        </extensions>
      </trkpt>
      <trkpt lat="42.6480227150022983551025390625" lon="19.90895516239106655120849609375">
        <ele>1029.4000244140625</ele>
        <time>2026-06-16T06:52:20.000Z</time>
        <extensions>
          <ns3:TrackPointExtension>
            <ns3:atemp>17.0</ns3:atemp>
          </ns3:TrackPointExtension>
        </extensions>
      </trkpt>
      <trkpt lat="42.64800067059695720672607421875" lon="19.908945523202419281005859375">
        <ele>1029.5999755859375</ele>
        <time>2026-06-16T06:52:21.000Z</time>
        <extensions>
          <ns3:TrackPointExtension>
            <ns3:atemp>17.0</ns3:atemp>
          </ns3:TrackPointExtension>
        </extensions>
      </trkpt>
      <trkpt lat="42.6479764468967914581298828125" lon="19.90893202833831310272216796875">
        <ele>1029.800048828125</ele>
        <time>2026-06-16T06:52:22.000Z</time>
        <extensions>
          <ns3:TrackPointExtension>
            <ns3:atemp>17.0</ns3:atemp>
          </ns3:TrackPointExtension>
        </extensions>
      </trkpt>
      <trkpt lat="42.64795482158660888671875" lon="19.90891568362712860107421875">
        <ele>1030.199951171875</ele>
        <time>2026-06-16T06:52:23.000Z</time>
        <extensions>
          <ns3:TrackPointExtension>
            <ns3:atemp>17.0</ns3:atemp>
          </ns3:TrackPointExtension>
        </extensions>
      </trkpt>
      <trkpt lat="42.6479320228099822998046875" lon="19.90889766253530979156494140625">
        <ele>1030.4000244140625</ele>
        <time>2026-06-16T06:52:24.000Z</time>
        <extensions>
          <ns3:TrackPointExtension>
            <ns3:atemp>17.0</ns3:atemp>
          </ns3:TrackPointExtension>
        </extensions>
      </trkpt>
      <trkpt lat="42.64790863730013370513916015625" lon="19.90888106636703014373779296875">
        <ele>1030.4000244140625</ele>
        <time>2026-06-16T06:52:25.000Z</time>
        <extensions>
          <ns3:TrackPointExtension>
            <ns3:atemp>17.0</ns3:atemp>
          </ns3:TrackPointExtension>
        </extensions>
      </trkpt>
      <trkpt lat="42.6478825695812702178955078125" lon="19.90886815823614597320556640625">
        <ele>1030.5999755859375</ele>
        <time>2026-06-16T06:52:26.000Z</time>
        <extensions>
          <ns3:TrackPointExtension>
            <ns3:atemp>17.0</ns3:atemp>
          </ns3:TrackPointExtension>
        </extensions>
      </trkpt>
      <trkpt lat="42.64785951934754848480224609375" lon="19.9088538251817226409912109375">
        <ele>1030.800048828125</ele>
        <time>2026-06-16T06:52:27.000Z</time>
        <extensions>
          <ns3:TrackPointExtension>
            <ns3:atemp>17.0</ns3:atemp>
          </ns3:TrackPointExtension>
        </extensions>
      </trkpt>
      <trkpt lat="42.64783588238060474395751953125" lon="19.90884401835501194000244140625">
        <ele>1031</ele>
        <time>2026-06-16T06:52:28.000Z</time>
        <extensions>
          <ns3:TrackPointExtension>
            <ns3:atemp>17.0</ns3:atemp>
          </ns3:TrackPointExtension>
        </extensions>
      </trkpt>
      <trkpt lat="42.647819705307483673095703125" lon="19.9088377319276332855224609375">
        <ele>1031.199951171875</ele>
        <time>2026-06-16T06:52:29.000Z</time>
        <extensions>
          <ns3:TrackPointExtension>
            <ns3:atemp>17.0</ns3:atemp>
          </ns3:TrackPointExtension>
        </extensions>
      </trkpt>
      <trkpt lat="42.64779849909245967864990234375" lon="19.90882809273898601531982421875">
        <ele>1031.5999755859375</ele>
        <time>2026-06-16T06:52:30.000Z</time>
        <extensions>
          <ns3:TrackPointExtension>
            <ns3:atemp>17.0</ns3:atemp>
          </ns3:TrackPointExtension>
        </extensions>
      </trkpt>
      <trkpt lat="42.6477806456387042999267578125" lon="19.9088162742555141448974609375">
        <ele>1031.800048828125</ele>
        <time>2026-06-16T06:52:31.000Z</time>
        <extensions>
          <ns3:TrackPointExtension>
            <ns3:atemp>17.0</ns3:atemp>
          </ns3:TrackPointExtension>
        </extensions>
      </trkpt>
      <trkpt lat="42.647762037813663482666015625" lon="19.90880437195301055908203125">
        <ele>1032</ele>
        <time>2026-06-16T06:52:32.000Z</time>
        <extensions>
          <ns3:TrackPointExtension>
            <ns3:atemp>17.0</ns3:atemp>
          </ns3:TrackPointExtension>
        </extensions>
      </trkpt>
      <trkpt lat="42.64774636365473270416259765625" lon="19.90880428813397884368896484375">
        <ele>1032.199951171875</ele>
        <time>2026-06-16T06:52:33.000Z</time>
        <extensions>
          <ns3:TrackPointExtension>
            <ns3:atemp>17.0</ns3:atemp>
          </ns3:TrackPointExtension>
        </extensions>
      </trkpt>
      <trkpt lat="42.64773027040064334869384765625" lon="19.9087891168892383575439453125">
        <ele>1032.4000244140625</ele>
        <time>2026-06-16T06:52:34.000Z</time>
        <extensions>
          <ns3:TrackPointExtension>
            <ns3:atemp>17.0</ns3:atemp>
          </ns3:TrackPointExtension>
        </extensions>
      </trkpt>
      <trkpt lat="42.6477145962417125701904296875" lon="19.90877863951027393341064453125">
        <ele>1032.5999755859375</ele>
        <time>2026-06-16T06:52:35.000Z</time>
        <extensions>
          <ns3:TrackPointExtension>
            <ns3:atemp>17.0</ns3:atemp>
          </ns3:TrackPointExtension>
        </extensions>
      </trkpt>
      <trkpt lat="42.6476954855024814605712890625" lon="19.908763468265533447265625">
        <ele>1032.5999755859375</ele>
        <time>2026-06-16T06:52:36.000Z</time>
        <extensions>
          <ns3:TrackPointExtension>
            <ns3:atemp>17.0</ns3:atemp>
          </ns3:TrackPointExtension>
        </extensions>
      </trkpt>
      <trkpt lat="42.647677548229694366455078125" lon="19.90875282324850559234619140625">
        <ele>1032.800048828125</ele>
        <time>2026-06-16T06:52:37.000Z</time>
        <extensions>
          <ns3:TrackPointExtension>
            <ns3:atemp>17.0</ns3:atemp>
          </ns3:TrackPointExtension>
        </extensions>
      </trkpt>
      <trkpt lat="42.6476599462330341339111328125" lon="19.90874092094600200653076171875">
        <ele>1033</ele>
        <time>2026-06-16T06:52:38.000Z</time>
        <extensions>
          <ns3:TrackPointExtension>
            <ns3:atemp>17.0</ns3:atemp>
          </ns3:TrackPointExtension>
        </extensions>
      </trkpt>
      <trkpt lat="42.64764091931283473968505859375" lon="19.908732287585735321044921875">
        <ele>1033.199951171875</ele>
        <time>2026-06-16T06:52:39.000Z</time>
        <extensions>
          <ns3:TrackPointExtension>
            <ns3:atemp>17.0</ns3:atemp>
          </ns3:TrackPointExtension>
        </extensions>
      </trkpt>
      <trkpt lat="42.6476235687732696533203125" lon="19.9087220616638660430908203125">
        <ele>1033.4000244140625</ele>
        <time>2026-06-16T06:52:40.000Z</time>
        <extensions>
          <ns3:TrackPointExtension>
            <ns3:atemp>17.0</ns3:atemp>
          </ns3:TrackPointExtension>
        </extensions>
      </trkpt>
      <trkpt lat="42.6476046256721019744873046875" lon="19.90871124900877475738525390625">
        <ele>1033.4000244140625</ele>
        <time>2026-06-16T06:52:41.000Z</time>
        <extensions>
          <ns3:TrackPointExtension>
            <ns3:atemp>17.0</ns3:atemp>
          </ns3:TrackPointExtension>
        </extensions>
      </trkpt>
      <trkpt lat="42.6475892029702663421630859375" lon="19.9086985923349857330322265625">
        <ele>1033.5999755859375</ele>
        <time>2026-06-16T06:52:42.000Z</time>
        <extensions>
          <ns3:TrackPointExtension>
            <ns3:atemp>17.0</ns3:atemp>
          </ns3:TrackPointExtension>
        </extensions>
      </trkpt>
      <trkpt lat="42.64757202006876468658447265625" lon="19.908677972853183746337890625">
        <ele>1033.800048828125</ele>
        <time>2026-06-16T06:52:43.000Z</time>
        <extensions>
          <ns3:TrackPointExtension>
            <ns3:atemp>17.0</ns3:atemp>
          </ns3:TrackPointExtension>
        </extensions>
      </trkpt>
      <trkpt lat="42.64755978249013423919677734375" lon="19.908664561808109283447265625">
        <ele>1034</ele>
        <time>2026-06-16T06:52:44.000Z</time>
        <extensions>
          <ns3:TrackPointExtension>
            <ns3:atemp>17.0</ns3:atemp>
          </ns3:TrackPointExtension>
        </extensions>
      </trkpt>
      <trkpt lat="42.64754368923604488372802734375" lon="19.90864746272563934326171875">
        <ele>1034.199951171875</ele>
        <time>2026-06-16T06:52:45.000Z</time>
        <extensions>
          <ns3:TrackPointExtension>
            <ns3:atemp>17.0</ns3:atemp>
          </ns3:TrackPointExtension>
        </extensions>
      </trkpt>
      <trkpt lat="42.64752826653420925140380859375" lon="19.90862726233899593353271484375">
        <ele>1034.4000244140625</ele>
        <time>2026-06-16T06:52:46.000Z</time>
        <extensions>
          <ns3:TrackPointExtension>
            <ns3:atemp>17.0</ns3:atemp>
          </ns3:TrackPointExtension>
        </extensions>
      </trkpt>
      <trkpt lat="42.64751619659364223480224609375" lon="19.908607900142669677734375">
        <ele>1034.4000244140625</ele>
        <time>2026-06-16T06:52:47.000Z</time>
        <extensions>
          <ns3:TrackPointExtension>
            <ns3:atemp>17.0</ns3:atemp>
          </ns3:TrackPointExtension>
        </extensions>
      </trkpt>
      <trkpt lat="42.6475043781101703643798828125" lon="19.908586777746677398681640625">
        <ele>1034.5999755859375</ele>
        <time>2026-06-16T06:52:48.000Z</time>
        <extensions>
          <ns3:TrackPointExtension>
            <ns3:atemp>17.0</ns3:atemp>
          </ns3:TrackPointExtension>
        </extensions>
      </trkpt>
      <trkpt lat="42.64749121852219104766845703125" lon="19.908564984798431396484375">
        <ele>1034.800048828125</ele>
        <time>2026-06-16T06:52:49.000Z</time>
        <extensions>
          <ns3:TrackPointExtension>
            <ns3:atemp>17.0</ns3:atemp>
          </ns3:TrackPointExtension>
        </extensions>
      </trkpt>
      <trkpt lat="42.6474768854677677154541015625" lon="19.90854327566921710968017578125">
        <ele>1035</ele>
        <time>2026-06-16T06:52:50.000Z</time>
        <extensions>
          <ns3:TrackPointExtension>
            <ns3:atemp>17.0</ns3:atemp>
          </ns3:TrackPointExtension>
        </extensions>
      </trkpt>
      <trkpt lat="42.64746330678462982177734375" lon="19.908521734178066253662109375">
        <ele>1035.199951171875</ele>
        <time>2026-06-16T06:52:51.000Z</time>
        <extensions>
          <ns3:TrackPointExtension>
            <ns3:atemp>17.0</ns3:atemp>
          </ns3:TrackPointExtension>
        </extensions>
      </trkpt>
      <trkpt lat="42.64744930900633335113525390625" lon="19.90850220434367656707763671875">
        <ele>1035.4000244140625</ele>
        <time>2026-06-16T06:52:52.000Z</time>
        <extensions>
          <ns3:TrackPointExtension>
            <ns3:atemp>17.0</ns3:atemp>
          </ns3:TrackPointExtension>
        </extensions>
      </trkpt>
      <trkpt lat="42.64743170700967311859130859375" lon="19.908485524356365203857421875">
        <ele>1035.5999755859375</ele>
        <time>2026-06-16T06:52:53.000Z</time>
        <extensions>
          <ns3:TrackPointExtension>
            <ns3:atemp>17.0</ns3:atemp>
          </ns3:TrackPointExtension>
        </extensions>
      </trkpt>
      <trkpt lat="42.647413350641727447509765625" lon="19.90846574306488037109375">
        <ele>1035.800048828125</ele>
        <time>2026-06-16T06:52:54.000Z</time>
        <extensions>
          <ns3:TrackPointExtension>
            <ns3:atemp>17.0</ns3:atemp>
          </ns3:TrackPointExtension>
        </extensions>
      </trkpt>
      <trkpt lat="42.6473944075405597686767578125" lon="19.9084488116204738616943359375">
        <ele>1036</ele>
        <time>2026-06-16T06:52:55.000Z</time>
        <extensions>
          <ns3:TrackPointExtension>
            <ns3:atemp>17.0</ns3:atemp>
          </ns3:TrackPointExtension>
        </extensions>
      </trkpt>
      <trkpt lat="42.6473736204206943511962890625" lon="19.90842810831964015960693359375">
        <ele>1036.199951171875</ele>
        <time>2026-06-16T06:52:56.000Z</time>
        <extensions>
          <ns3:TrackPointExtension>
            <ns3:atemp>17.0</ns3:atemp>
          </ns3:TrackPointExtension>
        </extensions>
      </trkpt>
      <trkpt lat="42.64735124073922634124755859375" lon="19.90840447135269641876220703125">
        <ele>1036.4000244140625</ele>
        <time>2026-06-16T06:52:57.000Z</time>
        <extensions>
          <ns3:TrackPointExtension>
            <ns3:atemp>17.0</ns3:atemp>
          </ns3:TrackPointExtension>
        </extensions>
      </trkpt>
      <trkpt lat="42.64733447693288326263427734375" lon="19.9083867855370044708251953125">
        <ele>1036.5999755859375</ele>
        <time>2026-06-16T06:52:58.000Z</time>
        <extensions>
          <ns3:TrackPointExtension>
            <ns3:atemp>17.0</ns3:atemp>
          </ns3:TrackPointExtension>
        </extensions>
      </trkpt>
      <trkpt lat="42.64731419272720813751220703125" lon="19.90837245248258113861083984375">
        <ele>1036.800048828125</ele>
        <time>2026-06-16T06:52:59.000Z</time>
        <extensions>
          <ns3:TrackPointExtension>
            <ns3:atemp>17.0</ns3:atemp>
          </ns3:TrackPointExtension>
        </extensions>
      </trkpt>
      <trkpt lat="42.64729491434991359710693359375" lon="19.90836272947490215301513671875">
        <ele>1037</ele>
        <time>2026-06-16T06:53:00.000Z</time>
        <extensions>
          <ns3:TrackPointExtension>
            <ns3:atemp>17.0</ns3:atemp>
          </ns3:TrackPointExtension>
        </extensions>
      </trkpt>
      <trkpt lat="42.64727228321135044097900390625" lon="19.90835401229560375213623046875">
        <ele>1037.199951171875</ele>
        <time>2026-06-16T06:53:01.000Z</time>
        <extensions>
          <ns3:TrackPointExtension>
            <ns3:atemp>17.0</ns3:atemp>
          </ns3:TrackPointExtension>
        </extensions>
      </trkpt>
      <trkpt lat="42.64724881388247013092041015625" lon="19.90834764204919338226318359375">
        <ele>1037.4000244140625</ele>
        <time>2026-06-16T06:53:02.000Z</time>
        <extensions>
          <ns3:TrackPointExtension>
            <ns3:atemp>17.0</ns3:atemp>
          </ns3:TrackPointExtension>
        </extensions>
      </trkpt>
      <trkpt lat="42.6472267694771289825439453125" lon="19.9083411879837512969970703125">
        <ele>1037.5999755859375</ele>
        <time>2026-06-16T06:53:03.000Z</time>
        <extensions>
          <ns3:TrackPointExtension>
            <ns3:atemp>17.0</ns3:atemp>
          </ns3:TrackPointExtension>
        </extensions>
      </trkpt>
      <trkpt lat="42.64720438979566097259521484375" lon="19.9083368293941020965576171875">
        <ele>1037.5999755859375</ele>
        <time>2026-06-16T06:53:04.000Z</time>
        <extensions>
          <ns3:TrackPointExtension>
            <ns3:atemp>17.0</ns3:atemp>
          </ns3:TrackPointExtension>
        </extensions>
      </trkpt>
      <trkpt lat="42.64718142338097095489501953125" lon="19.9083354882895946502685546875">
        <ele>1037.800048828125</ele>
        <time>2026-06-16T06:53:05.000Z</time>
        <extensions>
          <ns3:TrackPointExtension>
            <ns3:atemp>17.0</ns3:atemp>
          </ns3:TrackPointExtension>
        </extensions>
      </trkpt>
      <trkpt lat="42.64715879224240779876708984375" lon="19.9083348177373409271240234375">
        <ele>1038</ele>
        <time>2026-06-16T06:53:06.000Z</time>
        <extensions>
          <ns3:TrackPointExtension>
            <ns3:atemp>17.0</ns3:atemp>
          </ns3:TrackPointExtension>
        </extensions>
      </trkpt>
      <trkpt lat="42.647137083113193511962890625" lon="19.90832903422415256500244140625">
        <ele>1038.199951171875</ele>
        <time>2026-06-16T06:53:07.000Z</time>
        <extensions>
          <ns3:TrackPointExtension>
            <ns3:atemp>17.0</ns3:atemp>
          </ns3:TrackPointExtension>
        </extensions>
      </trkpt>
      <trkpt lat="42.647112272679805755615234375" lon="19.90832266397774219512939453125">
        <ele>1038.199951171875</ele>
        <time>2026-06-16T06:53:08.000Z</time>
        <extensions>
          <ns3:TrackPointExtension>
            <ns3:atemp>17.0</ns3:atemp>
          </ns3:TrackPointExtension>
        </extensions>
      </trkpt>
      <trkpt lat="42.64709726907312870025634765625" lon="19.9083150364458560943603515625">
        <ele>1038.4000244140625</ele>
        <time>2026-06-16T06:53:09.000Z</time>
        <extensions>
          <ns3:TrackPointExtension>
            <ns3:atemp>16.0</ns3:atemp>
          </ns3:TrackPointExtension>
        </extensions>
      </trkpt>
      <trkpt lat="42.647078074514865875244140625" lon="19.90831059403717517852783203125">
        <ele>1038.4000244140625</ele>
        <time>2026-06-16T06:53:10.000Z</time>
        <extensions>
          <ns3:TrackPointExtension>
            <ns3:atemp>16.0</ns3:atemp>
          </ns3:TrackPointExtension>
        </extensions>
      </trkpt>
      <trkpt lat="42.647052593529224395751953125" lon="19.90830053575336933135986328125">
        <ele>1038.5999755859375</ele>
        <time>2026-06-16T06:53:11.000Z</time>
        <extensions>
          <ns3:TrackPointExtension>
            <ns3:atemp>17.0</ns3:atemp>
          </ns3:TrackPointExtension>
        </extensions>
      </trkpt>
      <trkpt lat="42.647033818066120147705078125" lon="19.90829131565988063812255859375">
        <ele>1038.5999755859375</ele>
        <time>2026-06-16T06:53:12.000Z</time>
        <extensions>
          <ns3:TrackPointExtension>
            <ns3:atemp>17.0</ns3:atemp>
          </ns3:TrackPointExtension>
        </extensions>
      </trkpt>
      <trkpt lat="42.64701060019433498382568359375" lon="19.90828377194702625274658203125">
        <ele>1038.800048828125</ele>
        <time>2026-06-16T06:53:13.000Z</time>
        <extensions>
          <ns3:TrackPointExtension>
            <ns3:atemp>17.0</ns3:atemp>
          </ns3:TrackPointExtension>
        </extensions>
      </trkpt>
      <trkpt lat="42.6469883881509304046630859375" lon="19.90828159265220165252685546875">
        <ele>1038.800048828125</ele>
        <time>2026-06-16T06:53:14.000Z</time>
        <extensions>
          <ns3:TrackPointExtension>
            <ns3:atemp>16.0</ns3:atemp>
          </ns3:TrackPointExtension>
        </extensions>
      </trkpt>
      <trkpt lat="42.6469645835459232330322265625" lon="19.90828025154769420623779296875">
        <ele>1039</ele>
        <time>2026-06-16T06:53:15.000Z</time>
        <extensions>
          <ns3:TrackPointExtension>
            <ns3:atemp>16.0</ns3:atemp>
          </ns3:TrackPointExtension>
        </extensions>
      </trkpt>
      <trkpt lat="42.64693868346512317657470703125" lon="19.90828494541347026824951171875">
        <ele>1039.199951171875</ele>
        <time>2026-06-16T06:53:16.000Z</time>
        <extensions>
          <ns3:TrackPointExtension>
            <ns3:atemp>16.0</ns3:atemp>
          </ns3:TrackPointExtension>
        </extensions>
      </trkpt>
      <trkpt lat="42.64691186137497425079345703125" lon="19.90828930400311946868896484375">
        <ele>1039.4000244140625</ele>
        <time>2026-06-16T06:53:17.000Z</time>
        <extensions>
          <ns3:TrackPointExtension>
            <ns3:atemp>16.0</ns3:atemp>
          </ns3:TrackPointExtension>
        </extensions>
      </trkpt>
      <trkpt lat="42.646888308227062225341796875" lon="19.908291399478912353515625">
        <ele>1039.4000244140625</ele>
        <time>2026-06-16T06:53:18.000Z</time>
        <extensions>
          <ns3:TrackPointExtension>
            <ns3:atemp>17.0</ns3:atemp>
          </ns3:TrackPointExtension>
        </extensions>
      </trkpt>
      <trkpt lat="42.6468670181930065155029296875" lon="19.90829483605921268463134765625">
        <ele>1039.5999755859375</ele>
        <time>2026-06-16T06:53:19.000Z</time>
        <extensions>
          <ns3:TrackPointExtension>
            <ns3:atemp>16.0</ns3:atemp>
          </ns3:TrackPointExtension>
        </extensions>
      </trkpt>
      <trkpt lat="42.6468442194163799285888671875" lon="19.90829248912632465362548828125">
        <ele>1039.5999755859375</ele>
        <time>2026-06-16T06:53:20.000Z</time>
        <extensions>
          <ns3:TrackPointExtension>
            <ns3:atemp>16.0</ns3:atemp>
          </ns3:TrackPointExtension>
        </extensions>
      </trkpt>
      <trkpt lat="42.64681731350719928741455078125" lon="19.90829315967857837677001953125">
        <ele>1039.800048828125</ele>
        <time>2026-06-16T06:53:21.000Z</time>
        <extensions>
          <ns3:TrackPointExtension>
            <ns3:atemp>16.0</ns3:atemp>
          </ns3:TrackPointExtension>
        </extensions>
      </trkpt>
      <trkpt lat="42.6467947661876678466796875" lon="19.90829500369727611541748046875">
        <ele>1039.800048828125</ele>
        <time>2026-06-16T06:53:22.000Z</time>
        <extensions>
          <ns3:TrackPointExtension>
            <ns3:atemp>16.0</ns3:atemp>
          </ns3:TrackPointExtension>
        </extensions>
      </trkpt>
      <trkpt lat="42.6467701233923435211181640625" lon="19.90829416550695896148681640625">
        <ele>1040</ele>
        <time>2026-06-16T06:53:23.000Z</time>
        <extensions>
          <ns3:TrackPointExtension>
            <ns3:atemp>16.0</ns3:atemp>
          </ns3:TrackPointExtension>
        </extensions>
      </trkpt>
      <trkpt lat="42.64674874953925609588623046875" lon="19.908296763896942138671875">
        <ele>1040.199951171875</ele>
        <time>2026-06-16T06:53:24.000Z</time>
        <extensions>
          <ns3:TrackPointExtension>
            <ns3:atemp>16.0</ns3:atemp>
          </ns3:TrackPointExtension>
        </extensions>
      </trkpt>
      <trkpt lat="42.64672611840069293975830078125" lon="19.90829450078308582305908203125">
        <ele>1040.199951171875</ele>
        <time>2026-06-16T06:53:25.000Z</time>
        <extensions>
          <ns3:TrackPointExtension>
            <ns3:atemp>16.0</ns3:atemp>
          </ns3:TrackPointExtension>
        </extensions>
      </trkpt>
      <trkpt lat="42.6467000506818294525146484375" lon="19.9082929082214832305908203125">
        <ele>1040.4000244140625</ele>
        <time>2026-06-16T06:53:26.000Z</time>
        <extensions>
          <ns3:TrackPointExtension>
            <ns3:atemp>16.0</ns3:atemp>
          </ns3:TrackPointExtension>
        </extensions>
      </trkpt>
      <trkpt lat="42.64668085612356662750244140625" lon="19.90828913636505603790283203125">
        <ele>1040.5999755859375</ele>
        <time>2026-06-16T06:53:27.000Z</time>
        <extensions>
          <ns3:TrackPointExtension>
            <ns3:atemp>16.0</ns3:atemp>
          </ns3:TrackPointExtension>
        </extensions>
      </trkpt>
      <trkpt lat="42.64665889553725719451904296875" lon="19.90828268229961395263671875">
        <ele>1040.5999755859375</ele>
        <time>2026-06-16T06:53:28.000Z</time>
        <extensions>
          <ns3:TrackPointExtension>
            <ns3:atemp>17.0</ns3:atemp>
          </ns3:TrackPointExtension>
        </extensions>
      </trkpt>
      <trkpt lat="42.64663777314126491546630859375" lon="19.9082798324525356292724609375">
        <ele>1040.800048828125</ele>
        <time>2026-06-16T06:53:29.000Z</time>
        <extensions>
          <ns3:TrackPointExtension>
            <ns3:atemp>16.0</ns3:atemp>
          </ns3:TrackPointExtension>
        </extensions>
      </trkpt>
      <trkpt lat="42.6466125436127185821533203125" lon="19.90828000009059906005859375">
        <ele>1040.800048828125</ele>
        <time>2026-06-16T06:53:30.000Z</time>
        <extensions>
          <ns3:TrackPointExtension>
            <ns3:atemp>16.0</ns3:atemp>
          </ns3:TrackPointExtension>
        </extensions>
      </trkpt>
      <trkpt lat="42.64658479951322078704833984375" lon="19.9082727916538715362548828125">
        <ele>1041</ele>
        <time>2026-06-16T06:53:31.000Z</time>
        <extensions>
          <ns3:TrackPointExtension>
            <ns3:atemp>16.0</ns3:atemp>
          </ns3:TrackPointExtension>
        </extensions>
      </trkpt>
      <trkpt lat="42.6465587317943572998046875" lon="19.908262901008129119873046875">
        <ele>1041.199951171875</ele>
        <time>2026-06-16T06:53:32.000Z</time>
        <extensions>
          <ns3:TrackPointExtension>
            <ns3:atemp>16.0</ns3:atemp>
          </ns3:TrackPointExtension>
        </extensions>
      </trkpt>
      <trkpt lat="42.64653819613158702850341796875" lon="19.9082523398101329803466796875">
        <ele>1041.4000244140625</ele>
        <time>2026-06-16T06:53:33.000Z</time>
        <extensions>
          <ns3:TrackPointExtension>
            <ns3:atemp>16.0</ns3:atemp>
          </ns3:TrackPointExtension>
        </extensions>
      </trkpt>
      <trkpt lat="42.64651715755462646484375" lon="19.90823934786021709442138671875">
        <ele>1041.5999755859375</ele>
        <time>2026-06-16T06:53:34.000Z</time>
        <extensions>
          <ns3:TrackPointExtension>
            <ns3:atemp>16.0</ns3:atemp>
          </ns3:TrackPointExtension>
        </extensions>
      </trkpt>
      <trkpt lat="42.64649678952991962432861328125" lon="19.90822367370128631591796875">
        <ele>1041.800048828125</ele>
        <time>2026-06-16T06:53:35.000Z</time>
        <extensions>
          <ns3:TrackPointExtension>
            <ns3:atemp>16.0</ns3:atemp>
          </ns3:TrackPointExtension>
        </extensions>
      </trkpt>
      <trkpt lat="42.64648069627583026885986328125" lon="19.9082043953239917755126953125">
        <ele>1041.800048828125</ele>
        <time>2026-06-16T06:53:36.000Z</time>
        <extensions>
          <ns3:TrackPointExtension>
            <ns3:atemp>16.0</ns3:atemp>
          </ns3:TrackPointExtension>
        </extensions>
      </trkpt>
      <trkpt lat="42.6464620046317577362060546875" lon="19.9081913195550441741943359375">
        <ele>1042</ele>
        <time>2026-06-16T06:53:37.000Z</time>
        <extensions>
          <ns3:TrackPointExtension>
            <ns3:atemp>16.0</ns3:atemp>
          </ns3:TrackPointExtension>
        </extensions>
      </trkpt>
      <trkpt lat="42.64644381590187549591064453125" lon="19.9081799201667308807373046875">
        <ele>1042.199951171875</ele>
        <time>2026-06-16T06:53:38.000Z</time>
        <extensions>
          <ns3:TrackPointExtension>
            <ns3:atemp>16.0</ns3:atemp>
          </ns3:TrackPointExtension>
        </extensions>
      </trkpt>
      <trkpt lat="42.64642420224845409393310546875" lon="19.90816625766456127166748046875">
        <ele>1042.199951171875</ele>
        <time>2026-06-16T06:53:39.000Z</time>
        <extensions>
          <ns3:TrackPointExtension>
            <ns3:atemp>16.0</ns3:atemp>
          </ns3:TrackPointExtension>
        </extensions>
      </trkpt>
      <trkpt lat="42.6464120484888553619384765625" lon="19.908148236572742462158203125">
        <ele>1042.4000244140625</ele>
        <time>2026-06-16T06:53:40.000Z</time>
        <extensions>
          <ns3:TrackPointExtension>
            <ns3:atemp>16.0</ns3:atemp>
          </ns3:TrackPointExtension>
        </extensions>
      </trkpt>
      <trkpt lat="42.6463951170444488525390625" lon="19.90813725627958774566650390625">
        <ele>1042.5999755859375</ele>
        <time>2026-06-16T06:53:41.000Z</time>
        <extensions>
          <ns3:TrackPointExtension>
            <ns3:atemp>16.0</ns3:atemp>
          </ns3:TrackPointExtension>
        </extensions>
      </trkpt>
      <trkpt lat="42.64637910760939121246337890625" lon="19.90812434814870357513427734375">
        <ele>1042.800048828125</ele>
        <time>2026-06-16T06:53:42.000Z</time>
        <extensions>
          <ns3:TrackPointExtension>
            <ns3:atemp>16.0</ns3:atemp>
          </ns3:TrackPointExtension>
        </extensions>
      </trkpt>
      <trkpt lat="42.646365948021411895751953125" lon="19.90811428986489772796630859375">
        <ele>1043</ele>
        <time>2026-06-16T06:53:43.000Z</time>
        <extensions>
          <ns3:TrackPointExtension>
            <ns3:atemp>16.0</ns3:atemp>
          </ns3:TrackPointExtension>
        </extensions>
      </trkpt>
      <trkpt lat="42.64635312370955944061279296875" lon="19.90809551440179347991943359375">
        <ele>1043.199951171875</ele>
        <time>2026-06-16T06:53:44.000Z</time>
        <extensions>
          <ns3:TrackPointExtension>
            <ns3:atemp>16.0</ns3:atemp>
          </ns3:TrackPointExtension>
        </extensions>
      </trkpt>
      <trkpt lat="42.646336443722248077392578125" lon="19.90807556547224521636962890625">
        <ele>1043.5999755859375</ele>
        <time>2026-06-16T06:53:45.000Z</time>
        <extensions>
          <ns3:TrackPointExtension>
            <ns3:atemp>16.0</ns3:atemp>
          </ns3:TrackPointExtension>
        </extensions>
      </trkpt>
      <trkpt lat="42.646315656602382659912109375" lon="19.9080501683056354522705078125">
        <ele>1043.800048828125</ele>
        <time>2026-06-16T06:53:46.000Z</time>
        <extensions>
          <ns3:TrackPointExtension>
            <ns3:atemp>16.0</ns3:atemp>
          </ns3:TrackPointExtension>
        </extensions>
      </trkpt>
      <trkpt lat="42.64629461802542209625244140625" lon="19.9080246873199939727783203125">
        <ele>1044</ele>
        <time>2026-06-16T06:53:47.000Z</time>
        <extensions>
          <ns3:TrackPointExtension>
            <ns3:atemp>16.0</ns3:atemp>
          </ns3:TrackPointExtension>
        </extensions>
      </trkpt>
      <trkpt lat="42.64627374708652496337890625" lon="19.90799836814403533935546875">
        <ele>1044.199951171875</ele>
        <time>2026-06-16T06:53:48.000Z</time>
        <extensions>
          <ns3:TrackPointExtension>
            <ns3:atemp>16.0</ns3:atemp>
          </ns3:TrackPointExtension>
        </extensions>
      </trkpt>
      <trkpt lat="42.646253295242786407470703125" lon="19.90797565318644046783447265625">
        <ele>1044.4000244140625</ele>
        <time>2026-06-16T06:53:49.000Z</time>
        <extensions>
          <ns3:TrackPointExtension>
            <ns3:atemp>16.0</ns3:atemp>
          </ns3:TrackPointExtension>
        </extensions>
      </trkpt>
      <trkpt lat="42.64623393304646015167236328125" lon="19.90795411169528961181640625">
        <ele>1044.5999755859375</ele>
        <time>2026-06-16T06:53:50.000Z</time>
        <extensions>
          <ns3:TrackPointExtension>
            <ns3:atemp>16.0</ns3:atemp>
          </ns3:TrackPointExtension>
        </extensions>
      </trkpt>
      <trkpt lat="42.6462102122604846954345703125" lon="19.9079360067844390869140625">
        <ele>1044.800048828125</ele>
        <time>2026-06-16T06:53:51.000Z</time>
        <extensions>
          <ns3:TrackPointExtension>
            <ns3:atemp>16.0</ns3:atemp>
          </ns3:TrackPointExtension>
        </extensions>
      </trkpt>
      <trkpt lat="42.646186240017414093017578125" lon="19.90791681222617626190185546875">
        <ele>1045</ele>
        <time>2026-06-16T06:53:52.000Z</time>
        <extensions>
          <ns3:TrackPointExtension>
            <ns3:atemp>16.0</ns3:atemp>
          </ns3:TrackPointExtension>
        </extensions>
      </trkpt>
      <trkpt lat="42.646162770688533782958984375" lon="19.9079038202762603759765625">
        <ele>1045.199951171875</ele>
        <time>2026-06-16T06:53:53.000Z</time>
        <extensions>
          <ns3:TrackPointExtension>
            <ns3:atemp>16.0</ns3:atemp>
          </ns3:TrackPointExtension>
        </extensions>
      </trkpt>
      <trkpt lat="42.64613921754062175750732421875" lon="19.9078895710408687591552734375">
        <ele>1045.4000244140625</ele>
        <time>2026-06-16T06:53:54.000Z</time>
        <extensions>
          <ns3:TrackPointExtension>
            <ns3:atemp>16.0</ns3:atemp>
          </ns3:TrackPointExtension>
        </extensions>
      </trkpt>
      <trkpt lat="42.64611541293561458587646484375" lon="19.90787741728127002716064453125">
        <ele>1045.5999755859375</ele>
        <time>2026-06-16T06:53:55.000Z</time>
        <extensions>
          <ns3:TrackPointExtension>
            <ns3:atemp>16.0</ns3:atemp>
          </ns3:TrackPointExtension>
        </extensions>
      </trkpt>
      <trkpt lat="42.64609378762543201446533203125" lon="19.90786786191165447235107421875">
        <ele>1045.800048828125</ele>
        <time>2026-06-16T06:53:56.000Z</time>
        <extensions>
          <ns3:TrackPointExtension>
            <ns3:atemp>16.0</ns3:atemp>
          </ns3:TrackPointExtension>
        </extensions>
      </trkpt>
      <trkpt lat="42.6460720784962177276611328125" lon="19.90785813890397548675537109375">
        <ele>1046</ele>
        <time>2026-06-16T06:53:57.000Z</time>
        <extensions>
          <ns3:TrackPointExtension>
            <ns3:atemp>16.0</ns3:atemp>
          </ns3:TrackPointExtension>
        </extensions>
      </trkpt>
      <trkpt lat="42.64605020172894001007080078125" lon="19.90784808062016963958740234375">
        <ele>1046</ele>
        <time>2026-06-16T06:53:58.000Z</time>
        <extensions>
          <ns3:TrackPointExtension>
            <ns3:atemp>16.0</ns3:atemp>
          </ns3:TrackPointExtension>
        </extensions>
      </trkpt>
      <trkpt lat="42.64602790586650371551513671875" lon="19.907842464745044708251953125">
        <ele>1046.199951171875</ele>
        <time>2026-06-16T06:53:59.000Z</time>
        <extensions>
          <ns3:TrackPointExtension>
            <ns3:atemp>16.0</ns3:atemp>
          </ns3:TrackPointExtension>
        </extensions>
      </trkpt>
      <trkpt lat="42.646007537841796875" lon="19.9078332446515560150146484375">
        <ele>1046.199951171875</ele>
        <time>2026-06-16T06:54:00.000Z</time>
        <extensions>
          <ns3:TrackPointExtension>
            <ns3:atemp>16.0</ns3:atemp>
          </ns3:TrackPointExtension>
        </extensions>
      </trkpt>
      <trkpt lat="42.64599052257835865020751953125" lon="19.90782176144421100616455078125">
        <ele>1046.4000244140625</ele>
        <time>2026-06-16T06:54:01.000Z</time>
        <extensions>
          <ns3:TrackPointExtension>
            <ns3:atemp>16.0</ns3:atemp>
          </ns3:TrackPointExtension>
        </extensions>
      </trkpt>
      <trkpt lat="42.6459684781730175018310546875" lon="19.90780969150364398956298828125">
        <ele>1046.4000244140625</ele>
        <time>2026-06-16T06:54:02.000Z</time>
        <extensions>
          <ns3:TrackPointExtension>
            <ns3:atemp>16.0</ns3:atemp>
          </ns3:TrackPointExtension>
        </extensions>
      </trkpt>
      <trkpt lat="42.6459433324635028839111328125" lon="19.90779695101082324981689453125">
        <ele>1046.5999755859375</ele>
        <time>2026-06-16T06:54:03.000Z</time>
        <extensions>
          <ns3:TrackPointExtension>
            <ns3:atemp>16.0</ns3:atemp>
          </ns3:TrackPointExtension>
        </extensions>
      </trkpt>
      <trkpt lat="42.645916678011417388916015625" lon="19.90778513252735137939453125">
        <ele>1046.5999755859375</ele>
        <time>2026-06-16T06:54:04.000Z</time>
        <extensions>
          <ns3:TrackPointExtension>
            <ns3:atemp>16.0</ns3:atemp>
          </ns3:TrackPointExtension>
        </extensions>
      </trkpt>
      <trkpt lat="42.64589111320674419403076171875" lon="19.90776241756975650787353515625">
        <ele>1046.5999755859375</ele>
        <time>2026-06-16T06:54:05.000Z</time>
        <extensions>
          <ns3:TrackPointExtension>
            <ns3:atemp>16.0</ns3:atemp>
          </ns3:TrackPointExtension>
        </extensions>
      </trkpt>
      <trkpt lat="42.645871751010417938232421875" lon="19.90774565376341342926025390625">
        <ele>1046.800048828125</ele>
        <time>2026-06-16T06:54:06.000Z</time>
        <extensions>
          <ns3:TrackPointExtension>
            <ns3:atemp>16.0</ns3:atemp>
          </ns3:TrackPointExtension>
        </extensions>
      </trkpt>
      <trkpt lat="42.64584518037736415863037109375" lon="19.90772469900548458099365234375">
        <ele>1046.800048828125</ele>
        <time>2026-06-16T06:54:07.000Z</time>
        <extensions>
          <ns3:TrackPointExtension>
            <ns3:atemp>16.0</ns3:atemp>
          </ns3:TrackPointExtension>
        </extensions>
      </trkpt>
      <trkpt lat="42.645821459591388702392578125" lon="19.90771044977009296417236328125">
        <ele>1047</ele>
        <time>2026-06-16T06:54:08.000Z</time>
        <extensions>
          <ns3:TrackPointExtension>
            <ns3:atemp>16.0</ns3:atemp>
          </ns3:TrackPointExtension>
        </extensions>
      </trkpt>
      <trkpt lat="42.64580167829990386962890625" lon="19.907697625458240509033203125">
        <ele>1047</ele>
        <time>2026-06-16T06:54:09.000Z</time>
        <extensions>
          <ns3:TrackPointExtension>
            <ns3:atemp>16.0</ns3:atemp>
          </ns3:TrackPointExtension>
        </extensions>
      </trkpt>
      <trkpt lat="42.64578131027519702911376953125" lon="19.90768362767994403839111328125">
        <ele>1047.199951171875</ele>
        <time>2026-06-16T06:54:10.000Z</time>
        <extensions>
          <ns3:TrackPointExtension>
            <ns3:atemp>16.0</ns3:atemp>
          </ns3:TrackPointExtension>
        </extensions>
      </trkpt>
      <trkpt lat="42.6457622833549976348876953125" lon="19.9076682887971401214599609375">
        <ele>1047.199951171875</ele>
        <time>2026-06-16T06:54:11.000Z</time>
        <extensions>
          <ns3:TrackPointExtension>
            <ns3:atemp>16.0</ns3:atemp>
          </ns3:TrackPointExtension>
        </extensions>
      </trkpt>
      <trkpt lat="42.6457374729216098785400390625" lon="19.90765697322785854339599609375">
        <ele>1047.4000244140625</ele>
        <time>2026-06-16T06:54:12.000Z</time>
        <extensions>
          <ns3:TrackPointExtension>
            <ns3:atemp>16.0</ns3:atemp>
          </ns3:TrackPointExtension>
        </extensions>
      </trkpt>
      <trkpt lat="42.6457086391746997833251953125" lon="19.9076434783637523651123046875">
        <ele>1047.4000244140625</ele>
        <time>2026-06-16T06:54:13.000Z</time>
        <extensions>
          <ns3:TrackPointExtension>
            <ns3:atemp>16.0</ns3:atemp>
          </ns3:TrackPointExtension>
        </extensions>
      </trkpt>
      <trkpt lat="42.64568156562745571136474609375" lon="19.90763434208929538726806640625">
        <ele>1047.5999755859375</ele>
        <time>2026-06-16T06:54:14.000Z</time>
        <extensions>
          <ns3:TrackPointExtension>
            <ns3:atemp>16.0</ns3:atemp>
          </ns3:TrackPointExtension>
        </extensions>
      </trkpt>
      <trkpt lat="42.64565641991794109344482421875" lon="19.907625876367092132568359375">
        <ele>1047.5999755859375</ele>
        <time>2026-06-16T06:54:15.000Z</time>
        <extensions>
          <ns3:TrackPointExtension>
            <ns3:atemp>16.0</ns3:atemp>
          </ns3:TrackPointExtension>
        </extensions>
      </trkpt>
      <trkpt lat="42.64562859199941158294677734375" lon="19.9076156504452228546142578125">
        <ele>1047.800048828125</ele>
        <time>2026-06-16T06:54:16.000Z</time>
        <extensions>
          <ns3:TrackPointExtension>
            <ns3:atemp>16.0</ns3:atemp>
          </ns3:TrackPointExtension>
        </extensions>
      </trkpt>
      <trkpt lat="42.645604871213436126708984375" lon="19.9076025746762752532958984375">
        <ele>1047.800048828125</ele>
        <time>2026-06-16T06:54:17.000Z</time>
        <extensions>
          <ns3:TrackPointExtension>
            <ns3:atemp>16.0</ns3:atemp>
          </ns3:TrackPointExtension>
        </extensions>
      </trkpt>
      <trkpt lat="42.64558081515133380889892578125" lon="19.907588995993137359619140625">
        <ele>1048</ele>
        <time>2026-06-16T06:54:18.000Z</time>
        <extensions>
          <ns3:TrackPointExtension>
            <ns3:atemp>16.0</ns3:atemp>
          </ns3:TrackPointExtension>
        </extensions>
      </trkpt>
      <trkpt lat="42.6455591060221195220947265625" lon="19.90757047198712825775146484375">
        <ele>1048.199951171875</ele>
        <time>2026-06-16T06:54:19.000Z</time>
        <extensions>
          <ns3:TrackPointExtension>
            <ns3:atemp>16.0</ns3:atemp>
          </ns3:TrackPointExtension>
        </extensions>
      </trkpt>
      <trkpt lat="42.645538151264190673828125" lon="19.9075492657721042633056640625">
        <ele>1048.4000244140625</ele>
        <time>2026-06-16T06:54:20.000Z</time>
        <extensions>
          <ns3:TrackPointExtension>
            <ns3:atemp>16.0</ns3:atemp>
          </ns3:TrackPointExtension>
        </extensions>
      </trkpt>
      <trkpt lat="42.64551392756402492523193359375" lon="19.90752789191901683807373046875">
        <ele>1048.4000244140625</ele>
        <time>2026-06-16T06:54:21.000Z</time>
        <extensions>
          <ns3:TrackPointExtension>
            <ns3:atemp>16.0</ns3:atemp>
          </ns3:TrackPointExtension>
        </extensions>
      </trkpt>
      <trkpt lat="42.64549129642546176910400390625" lon="19.90751582197844982147216796875">
        <ele>1048.5999755859375</ele>
        <time>2026-06-16T06:54:22.000Z</time>
        <extensions>
          <ns3:TrackPointExtension>
            <ns3:atemp>16.0</ns3:atemp>
          </ns3:TrackPointExtension>
        </extensions>
      </trkpt>
      <trkpt lat="42.645468749105930328369140625" lon="19.907492436468601226806640625">
        <ele>1048.5999755859375</ele>
        <time>2026-06-16T06:54:23.000Z</time>
        <extensions>
          <ns3:TrackPointExtension>
            <ns3:atemp>16.0</ns3:atemp>
          </ns3:TrackPointExtension>
        </extensions>
      </trkpt>
      <trkpt lat="42.645452655851840972900390625" lon="19.90746997296810150146484375">
        <ele>1048.800048828125</ele>
        <time>2026-06-16T06:54:24.000Z</time>
        <extensions>
          <ns3:TrackPointExtension>
            <ns3:atemp>16.0</ns3:atemp>
          </ns3:TrackPointExtension>
        </extensions>
      </trkpt>
      <trkpt lat="42.64544100500643253326416015625" lon="19.90744994021952152252197265625">
        <ele>1049</ele>
        <time>2026-06-16T06:54:25.000Z</time>
        <extensions>
          <ns3:TrackPointExtension>
            <ns3:atemp>16.0</ns3:atemp>
          </ns3:TrackPointExtension>
        </extensions>
      </trkpt>
      <trkpt lat="42.64542105607688426971435546875" lon="19.90743267349898815155029296875">
        <ele>1049.4000244140625</ele>
        <time>2026-06-16T06:54:26.000Z</time>
        <extensions>
          <ns3:TrackPointExtension>
            <ns3:atemp>16.0</ns3:atemp>
          </ns3:TrackPointExtension>
        </extensions>
      </trkpt>
      <trkpt lat="42.645395658910274505615234375" lon="19.90740953944623470306396484375">
        <ele>1049.5999755859375</ele>
        <time>2026-06-16T06:54:27.000Z</time>
        <extensions>
          <ns3:TrackPointExtension>
            <ns3:atemp>16.0</ns3:atemp>
          </ns3:TrackPointExtension>
        </extensions>
      </trkpt>
      <trkpt lat="42.64536917209625244140625" lon="19.90739428438246250152587890625">
        <ele>1049.800048828125</ele>
        <time>2026-06-16T06:54:28.000Z</time>
        <extensions>
          <ns3:TrackPointExtension>
            <ns3:atemp>16.0</ns3:atemp>
          </ns3:TrackPointExtension>
        </extensions>
      </trkpt>
      <trkpt lat="42.6453482173383235931396484375" lon="19.90737735293805599212646484375">
        <ele>1049.800048828125</ele>
        <time>2026-06-16T06:54:29.000Z</time>
        <extensions>
          <ns3:TrackPointExtension>
            <ns3:atemp>16.0</ns3:atemp>
          </ns3:TrackPointExtension>
        </extensions>
      </trkpt>
      <trkpt lat="42.64532516710460186004638671875" lon="19.907361678779125213623046875">
        <ele>1050</ele>
        <time>2026-06-16T06:54:30.000Z</time>
        <extensions>
          <ns3:TrackPointExtension>
            <ns3:atemp>16.0</ns3:atemp>
          </ns3:TrackPointExtension>
        </extensions>
      </trkpt>
      <trkpt lat="42.6453036256134510040283203125" lon="19.907347597181797027587890625">
        <ele>1050.199951171875</ele>
        <time>2026-06-16T06:54:31.000Z</time>
        <extensions>
          <ns3:TrackPointExtension>
            <ns3:atemp>16.0</ns3:atemp>
          </ns3:TrackPointExtension>
        </extensions>
      </trkpt>
      <trkpt lat="42.6452820003032684326171875" lon="19.90733318030834197998046875">
        <ele>1050.4000244140625</ele>
        <time>2026-06-16T06:54:32.000Z</time>
        <extensions>
          <ns3:TrackPointExtension>
            <ns3:atemp>16.0</ns3:atemp>
          </ns3:TrackPointExtension>
        </extensions>
      </trkpt>
      <trkpt lat="42.64526012353599071502685546875" lon="19.9073155783116817474365234375">
        <ele>1050.5999755859375</ele>
        <time>2026-06-16T06:54:33.000Z</time>
        <extensions>
          <ns3:TrackPointExtension>
            <ns3:atemp>16.0</ns3:atemp>
          </ns3:TrackPointExtension>
        </extensions>
      </trkpt>
      <trkpt lat="42.6452379114925861358642578125" lon="19.90730627439916133880615234375">
        <ele>1050.800048828125</ele>
        <time>2026-06-16T06:54:34.000Z</time>
        <extensions>
          <ns3:TrackPointExtension>
            <ns3:atemp>16.0</ns3:atemp>
          </ns3:TrackPointExtension>
        </extensions>
      </trkpt>
      <trkpt lat="42.64521519653499126434326171875" lon="19.90729755721986293792724609375">
        <ele>1051</ele>
        <time>2026-06-16T06:54:35.000Z</time>
        <extensions>
          <ns3:TrackPointExtension>
            <ns3:atemp>16.0</ns3:atemp>
          </ns3:TrackPointExtension>
        </extensions>
      </trkpt>
      <trkpt lat="42.6451916433870792388916015625" lon="19.90728498436510562896728515625">
        <ele>1051.199951171875</ele>
        <time>2026-06-16T06:54:36.000Z</time>
        <extensions>
          <ns3:TrackPointExtension>
            <ns3:atemp>16.0</ns3:atemp>
          </ns3:TrackPointExtension>
        </extensions>
      </trkpt>
      <trkpt lat="42.645166330039501190185546875" lon="19.90727626718580722808837890625">
        <ele>1051.199951171875</ele>
        <time>2026-06-16T06:54:37.000Z</time>
        <extensions>
          <ns3:TrackPointExtension>
            <ns3:atemp>16.0</ns3:atemp>
          </ns3:TrackPointExtension>
        </extensions>
      </trkpt>
      <trkpt lat="42.64513875357806682586669921875" lon="19.90726268850266933441162109375">
        <ele>1051.4000244140625</ele>
        <time>2026-06-16T06:54:38.000Z</time>
        <extensions>
          <ns3:TrackPointExtension>
            <ns3:atemp>16.0</ns3:atemp>
          </ns3:TrackPointExtension>
        </extensions>
      </trkpt>
      <trkpt lat="42.6451125182211399078369140625" lon="19.9072555638849735260009765625">
        <ele>1051.5999755859375</ele>
        <time>2026-06-16T06:54:39.000Z</time>
        <extensions>
          <ns3:TrackPointExtension>
            <ns3:atemp>16.0</ns3:atemp>
          </ns3:TrackPointExtension>
        </extensions>
      </trkpt>
      <trkpt lat="42.6450907252728939056396484375" lon="19.90724600851535797119140625">
        <ele>1051.5999755859375</ele>
        <time>2026-06-16T06:54:40.000Z</time>
        <extensions>
          <ns3:TrackPointExtension>
            <ns3:atemp>16.0</ns3:atemp>
          </ns3:TrackPointExtension>
        </extensions>
      </trkpt>
      <trkpt lat="42.64507018961012363433837890625" lon="19.90723469294607639312744140625">
        <ele>1051.800048828125</ele>
        <time>2026-06-16T06:54:41.000Z</time>
        <extensions>
          <ns3:TrackPointExtension>
            <ns3:atemp>16.0</ns3:atemp>
          </ns3:TrackPointExtension>
        </extensions>
      </trkpt>
      <trkpt lat="42.64504806138575077056884765625" lon="19.9072252213954925537109375">
        <ele>1052</ele>
        <time>2026-06-16T06:54:42.000Z</time>
        <extensions>
          <ns3:TrackPointExtension>
            <ns3:atemp>16.0</ns3:atemp>
          </ns3:TrackPointExtension>
        </extensions>
      </trkpt>
      <trkpt lat="42.64502224512398242950439453125" lon="19.90721038542687892913818359375">
        <ele>1052</ele>
        <time>2026-06-16T06:54:43.000Z</time>
        <extensions>
          <ns3:TrackPointExtension>
            <ns3:atemp>16.0</ns3:atemp>
          </ns3:TrackPointExtension>
        </extensions>
      </trkpt>
      <trkpt lat="42.6450052298605442047119140625" lon="19.90719982422888278961181640625">
        <ele>1052.199951171875</ele>
        <time>2026-06-16T06:54:44.000Z</time>
        <extensions>
          <ns3:TrackPointExtension>
            <ns3:atemp>16.0</ns3:atemp>
          </ns3:TrackPointExtension>
        </extensions>
      </trkpt>
      <trkpt lat="42.6449841074645519256591796875" lon="19.9071823060512542724609375">
        <ele>1052.199951171875</ele>
        <time>2026-06-16T06:54:45.000Z</time>
        <extensions>
          <ns3:TrackPointExtension>
            <ns3:atemp>16.0</ns3:atemp>
          </ns3:TrackPointExtension>
        </extensions>
      </trkpt>
      <trkpt lat="42.6449603028595447540283203125" lon="19.90716747008264064788818359375">
        <ele>1052.4000244140625</ele>
        <time>2026-06-16T06:54:46.000Z</time>
        <extensions>
          <ns3:TrackPointExtension>
            <ns3:atemp>16.0</ns3:atemp>
          </ns3:TrackPointExtension>
        </extensions>
      </trkpt>
      <trkpt lat="42.64493473805487155914306640625" lon="19.90715682506561279296875">
        <ele>1052.5999755859375</ele>
        <time>2026-06-16T06:54:47.000Z</time>
        <extensions>
          <ns3:TrackPointExtension>
            <ns3:atemp>16.0</ns3:atemp>
          </ns3:TrackPointExtension>
        </extensions>
      </trkpt>
      <trkpt lat="42.64491118490695953369140625" lon="19.90714601241052150726318359375">
        <ele>1052.800048828125</ele>
        <time>2026-06-16T06:54:48.000Z</time>
        <extensions>
          <ns3:TrackPointExtension>
            <ns3:atemp>16.0</ns3:atemp>
          </ns3:TrackPointExtension>
        </extensions>
      </trkpt>
      <trkpt lat="42.64488729648292064666748046875" lon="19.9071395583450794219970703125">
        <ele>1053</ele>
        <time>2026-06-16T06:54:49.000Z</time>
        <extensions>
          <ns3:TrackPointExtension>
            <ns3:atemp>16.0</ns3:atemp>
          </ns3:TrackPointExtension>
        </extensions>
      </trkpt>
      <trkpt lat="42.64485896565020084381103515625" lon="19.90713360719382762908935546875">
        <ele>1053.199951171875</ele>
        <time>2026-06-16T06:54:50.000Z</time>
        <extensions>
          <ns3:TrackPointExtension>
            <ns3:atemp>16.0</ns3:atemp>
          </ns3:TrackPointExtension>
        </extensions>
      </trkpt>
      <trkpt lat="42.64483742415904998779296875" lon="19.90712489001452922821044921875">
        <ele>1053.4000244140625</ele>
        <time>2026-06-16T06:54:51.000Z</time>
        <extensions>
          <ns3:TrackPointExtension>
            <ns3:atemp>16.0</ns3:atemp>
          </ns3:TrackPointExtension>
        </extensions>
      </trkpt>
      <trkpt lat="42.64481730759143829345703125" lon="19.907118268311023712158203125">
        <ele>1053.5999755859375</ele>
        <time>2026-06-16T06:54:52.000Z</time>
        <extensions>
          <ns3:TrackPointExtension>
            <ns3:atemp>16.0</ns3:atemp>
          </ns3:TrackPointExtension>
        </extensions>
      </trkpt>
      <trkpt lat="42.64479459263384342193603515625" lon="19.90711265243589878082275390625">
        <ele>1053.800048828125</ele>
        <time>2026-06-16T06:54:53.000Z</time>
        <extensions>
          <ns3:TrackPointExtension>
            <ns3:atemp>16.0</ns3:atemp>
          </ns3:TrackPointExtension>
        </extensions>
      </trkpt>
      <trkpt lat="42.64477062039077281951904296875" lon="19.90710594691336154937744140625">
        <ele>1054.199951171875</ele>
        <time>2026-06-16T06:54:54.000Z</time>
        <extensions>
          <ns3:TrackPointExtension>
            <ns3:atemp>16.0</ns3:atemp>
          </ns3:TrackPointExtension>
        </extensions>
      </trkpt>
      <trkpt lat="42.64474245719611644744873046875" lon="19.907095469534397125244140625">
        <ele>1054.4000244140625</ele>
        <time>2026-06-16T06:54:55.000Z</time>
        <extensions>
          <ns3:TrackPointExtension>
            <ns3:atemp>16.0</ns3:atemp>
          </ns3:TrackPointExtension>
        </extensions>
      </trkpt>
      <trkpt lat="42.6447145454585552215576171875" lon="19.90708868019282817840576171875">
        <ele>1054.5999755859375</ele>
        <time>2026-06-16T06:54:56.000Z</time>
        <extensions>
          <ns3:TrackPointExtension>
            <ns3:atemp>16.0</ns3:atemp>
          </ns3:TrackPointExtension>
        </extensions>
      </trkpt>
      <trkpt lat="42.64468948356807231903076171875" lon="19.9070828966796398162841796875">
        <ele>1054.800048828125</ele>
        <time>2026-06-16T06:54:57.000Z</time>
        <extensions>
          <ns3:TrackPointExtension>
            <ns3:atemp>16.0</ns3:atemp>
          </ns3:TrackPointExtension>
        </extensions>
      </trkpt>
      <trkpt lat="42.64466417022049427032470703125" lon="19.9070812202990055084228515625">
        <ele>1055</ele>
        <time>2026-06-16T06:54:58.000Z</time>
        <extensions>
          <ns3:TrackPointExtension>
            <ns3:atemp>16.0</ns3:atemp>
          </ns3:TrackPointExtension>
        </extensions>
      </trkpt>
      <trkpt lat="42.6446387730538845062255859375" lon="19.90707862190902233123779296875">
        <ele>1055.199951171875</ele>
        <time>2026-06-16T06:54:59.000Z</time>
        <extensions>
          <ns3:TrackPointExtension>
            <ns3:atemp>16.0</ns3:atemp>
          </ns3:TrackPointExtension>
        </extensions>
      </trkpt>
      <trkpt lat="42.64461555518209934234619140625" lon="19.9070778675377368927001953125">
        <ele>1055.5999755859375</ele>
        <time>2026-06-16T06:55:00.000Z</time>
        <extensions>
          <ns3:TrackPointExtension>
            <ns3:atemp>16.0</ns3:atemp>
          </ns3:TrackPointExtension>
        </extensions>
      </trkpt>
      <trkpt lat="42.6445926725864410400390625" lon="19.9070741795003414154052734375">
        <ele>1055.800048828125</ele>
        <time>2026-06-16T06:55:01.000Z</time>
        <extensions>
          <ns3:TrackPointExtension>
            <ns3:atemp>16.0</ns3:atemp>
          </ns3:TrackPointExtension>
        </extensions>
      </trkpt>
      <trkpt lat="42.64456576667726039886474609375" lon="19.90707568824291229248046875">
        <ele>1056.199951171875</ele>
        <time>2026-06-16T06:55:02.000Z</time>
        <extensions>
          <ns3:TrackPointExtension>
            <ns3:atemp>16.0</ns3:atemp>
          </ns3:TrackPointExtension>
        </extensions>
      </trkpt>
      <trkpt lat="42.64454313553869724273681640625" lon="19.90707141347229480743408203125">
        <ele>1056.4000244140625</ele>
        <time>2026-06-16T06:55:03.000Z</time>
        <extensions>
          <ns3:TrackPointExtension>
            <ns3:atemp>16.0</ns3:atemp>
          </ns3:TrackPointExtension>
        </extensions>
      </trkpt>
      <trkpt lat="42.6445177383720874786376953125" lon="19.9070711620151996612548828125">
        <ele>1056.5999755859375</ele>
        <time>2026-06-16T06:55:04.000Z</time>
        <extensions>
          <ns3:TrackPointExtension>
            <ns3:atemp>16.0</ns3:atemp>
          </ns3:TrackPointExtension>
        </extensions>
      </trkpt>
      <trkpt lat="42.644489072263240814208984375" lon="19.907072000205516815185546875">
        <ele>1056.800048828125</ele>
        <time>2026-06-16T06:55:05.000Z</time>
        <extensions>
          <ns3:TrackPointExtension>
            <ns3:atemp>16.0</ns3:atemp>
          </ns3:TrackPointExtension>
        </extensions>
      </trkpt>
      <trkpt lat="42.64446191489696502685546875" lon="19.9070758558809757232666015625">
        <ele>1057.199951171875</ele>
        <time>2026-06-16T06:55:06.000Z</time>
        <extensions>
          <ns3:TrackPointExtension>
            <ns3:atemp>16.0</ns3:atemp>
          </ns3:TrackPointExtension>
        </extensions>
      </trkpt>
      <trkpt lat="42.64443333260715007781982421875" lon="19.90707878954708576202392578125">
        <ele>1057.4000244140625</ele>
        <time>2026-06-16T06:55:07.000Z</time>
        <extensions>
          <ns3:TrackPointExtension>
            <ns3:atemp>16.0</ns3:atemp>
          </ns3:TrackPointExtension>
        </extensions>
      </trkpt>
      <trkpt lat="42.64440852217376232147216796875" lon="19.90708080120384693145751953125">
        <ele>1057.5999755859375</ele>
        <time>2026-06-16T06:55:08.000Z</time>
        <extensions>
          <ns3:TrackPointExtension>
            <ns3:atemp>16.0</ns3:atemp>
          </ns3:TrackPointExtension>
        </extensions>
      </trkpt>
      <trkpt lat="42.64438002370297908782958984375" lon="19.90708432160317897796630859375">
        <ele>1057.800048828125</ele>
        <time>2026-06-16T06:55:09.000Z</time>
        <extensions>
          <ns3:TrackPointExtension>
            <ns3:atemp>16.0</ns3:atemp>
          </ns3:TrackPointExtension>
        </extensions>
      </trkpt>
      <trkpt lat="42.64435756020247936248779296875" lon="19.9070825614035129547119140625">
        <ele>1058.199951171875</ele>
        <time>2026-06-16T06:55:10.000Z</time>
        <extensions>
          <ns3:TrackPointExtension>
            <ns3:atemp>16.0</ns3:atemp>
          </ns3:TrackPointExtension>
        </extensions>
      </trkpt>
      <trkpt lat="42.6443346776068210601806640625" lon="19.9070870876312255859375">
        <ele>1058.4000244140625</ele>
        <time>2026-06-16T06:55:11.000Z</time>
        <extensions>
          <ns3:TrackPointExtension>
            <ns3:atemp>16.0</ns3:atemp>
          </ns3:TrackPointExtension>
        </extensions>
      </trkpt>
      <trkpt lat="42.644313387572765350341796875" lon="19.90709287114441394805908203125">
        <ele>1058.5999755859375</ele>
        <time>2026-06-16T06:55:12.000Z</time>
        <extensions>
          <ns3:TrackPointExtension>
            <ns3:atemp>16.0</ns3:atemp>
          </ns3:TrackPointExtension>
        </extensions>
      </trkpt>
      <trkpt lat="42.64429301954805850982666015625" lon="19.9071056954562664031982421875">
        <ele>1058.800048828125</ele>
        <time>2026-06-16T06:55:13.000Z</time>
        <extensions>
          <ns3:TrackPointExtension>
            <ns3:atemp>16.0</ns3:atemp>
          </ns3:TrackPointExtension>
        </extensions>
      </trkpt>
      <trkpt lat="42.64427172951400279998779296875" lon="19.90711994469165802001953125">
        <ele>1059.199951171875</ele>
        <time>2026-06-16T06:55:14.000Z</time>
        <extensions>
          <ns3:TrackPointExtension>
            <ns3:atemp>16.0</ns3:atemp>
          </ns3:TrackPointExtension>
        </extensions>
      </trkpt>
      <trkpt lat="42.6442471705377101898193359375" lon="19.90713058970868587493896484375">
        <ele>1059.4000244140625</ele>
        <time>2026-06-16T06:55:15.000Z</time>
        <extensions>
          <ns3:TrackPointExtension>
            <ns3:atemp>16.0</ns3:atemp>
          </ns3:TrackPointExtension>
        </extensions>
      </trkpt>
      <trkpt lat="42.6442263834178447723388671875" lon="19.907143414020538330078125">
        <ele>1059.800048828125</ele>
        <time>2026-06-16T06:55:16.000Z</time>
        <extensions>
          <ns3:TrackPointExtension>
            <ns3:atemp>16.0</ns3:atemp>
          </ns3:TrackPointExtension>
        </extensions>
      </trkpt>
      <trkpt lat="42.6442086137831211090087890625" lon="19.907153137028217315673828125">
        <ele>1060</ele>
        <time>2026-06-16T06:55:17.000Z</time>
        <extensions>
          <ns3:TrackPointExtension>
            <ns3:atemp>16.0</ns3:atemp>
          </ns3:TrackPointExtension>
        </extensions>
      </trkpt>
      <trkpt lat="42.64419008977711200714111328125" lon="19.9071704037487506866455078125">
        <ele>1060.199951171875</ele>
        <time>2026-06-16T06:55:18.000Z</time>
        <extensions>
          <ns3:TrackPointExtension>
            <ns3:atemp>16.0</ns3:atemp>
          </ns3:TrackPointExtension>
        </extensions>
      </trkpt>
      <trkpt lat="42.6441715657711029052734375" lon="19.90718859247863292694091796875">
        <ele>1060.4000244140625</ele>
        <time>2026-06-16T06:55:19.000Z</time>
        <extensions>
          <ns3:TrackPointExtension>
            <ns3:atemp>16.0</ns3:atemp>
          </ns3:TrackPointExtension>
        </extensions>
      </trkpt>
      <trkpt lat="42.6441506110131740570068359375" lon="19.9072046019136905670166015625">
        <ele>1060.800048828125</ele>
        <time>2026-06-16T06:55:20.000Z</time>
        <extensions>
          <ns3:TrackPointExtension>
            <ns3:atemp>16.0</ns3:atemp>
          </ns3:TrackPointExtension>
        </extensions>
      </trkpt>
      <trkpt lat="42.64413175173103809356689453125" lon="19.9072225391864776611328125">
        <ele>1061</ele>
        <time>2026-06-16T06:55:21.000Z</time>
        <extensions>
          <ns3:TrackPointExtension>
            <ns3:atemp>16.0</ns3:atemp>
          </ns3:TrackPointExtension>
        </extensions>
      </trkpt>
      <trkpt lat="42.64411146752536296844482421875" lon="19.90724475122988224029541015625">
        <ele>1061.4000244140625</ele>
        <time>2026-06-16T06:55:22.000Z</time>
        <extensions>
          <ns3:TrackPointExtension>
            <ns3:atemp>16.0</ns3:atemp>
          </ns3:TrackPointExtension>
        </extensions>
      </trkpt>
      <trkpt lat="42.644089758396148681640625" lon="19.9072619341313838958740234375">
        <ele>1061.5999755859375</ele>
        <time>2026-06-16T06:55:23.000Z</time>
        <extensions>
          <ns3:TrackPointExtension>
            <ns3:atemp>16.0</ns3:atemp>
          </ns3:TrackPointExtension>
        </extensions>
      </trkpt>
      <trkpt lat="42.6440704800188541412353515625" lon="19.9072817154228687286376953125">
        <ele>1061.800048828125</ele>
        <time>2026-06-16T06:55:24.000Z</time>
        <extensions>
          <ns3:TrackPointExtension>
            <ns3:atemp>16.0</ns3:atemp>
          </ns3:TrackPointExtension>
        </extensions>
      </trkpt>
      <trkpt lat="42.64405329711735248565673828125" lon="19.90729990415275096893310546875">
        <ele>1062.199951171875</ele>
        <time>2026-06-16T06:55:25.000Z</time>
        <extensions>
          <ns3:TrackPointExtension>
            <ns3:atemp>16.0</ns3:atemp>
          </ns3:TrackPointExtension>
        </extensions>
      </trkpt>
      <trkpt lat="42.6440352760255336761474609375" lon="19.9073149077594280242919921875">
        <ele>1062.4000244140625</ele>
        <time>2026-06-16T06:55:26.000Z</time>
        <extensions>
          <ns3:TrackPointExtension>
            <ns3:atemp>16.0</ns3:atemp>
          </ns3:TrackPointExtension>
        </extensions>
      </trkpt>
      <trkpt lat="42.64401775784790515899658203125" lon="19.90732991136610507965087890625">
        <ele>1062.5999755859375</ele>
        <time>2026-06-16T06:55:27.000Z</time>
        <extensions>
          <ns3:TrackPointExtension>
            <ns3:atemp>16.0</ns3:atemp>
          </ns3:TrackPointExtension>
        </extensions>
      </trkpt>
      <trkpt lat="42.64399864710867404937744140625" lon="19.9073487706482410430908203125">
        <ele>1062.800048828125</ele>
        <time>2026-06-16T06:55:28.000Z</time>
        <extensions>
          <ns3:TrackPointExtension>
            <ns3:atemp>16.0</ns3:atemp>
          </ns3:TrackPointExtension>
        </extensions>
      </trkpt>
      <trkpt lat="42.64398188330233097076416015625" lon="19.9073685519397258758544921875">
        <ele>1063.199951171875</ele>
        <time>2026-06-16T06:55:29.000Z</time>
        <extensions>
          <ns3:TrackPointExtension>
            <ns3:atemp>16.0</ns3:atemp>
          </ns3:TrackPointExtension>
        </extensions>
      </trkpt>
      <trkpt lat="42.64396780170500278472900390625" lon="19.907389171421527862548828125">
        <ele>1063.4000244140625</ele>
        <time>2026-06-16T06:55:30.000Z</time>
        <extensions>
          <ns3:TrackPointExtension>
            <ns3:atemp>16.0</ns3:atemp>
          </ns3:TrackPointExtension>
        </extensions>
      </trkpt>
      <trkpt lat="42.64395774342119693756103515625" lon="19.907406270503997802734375">
        <ele>1063.800048828125</ele>
        <time>2026-06-16T06:55:31.000Z</time>
        <extensions>
          <ns3:TrackPointExtension>
            <ns3:atemp>16.0</ns3:atemp>
          </ns3:TrackPointExtension>
        </extensions>
      </trkpt>
      <trkpt lat="42.64394466765224933624267578125" lon="19.90742496214807033538818359375">
        <ele>1064</ele>
        <time>2026-06-16T06:55:32.000Z</time>
        <extensions>
          <ns3:TrackPointExtension>
            <ns3:atemp>16.0</ns3:atemp>
          </ns3:TrackPointExtension>
        </extensions>
      </trkpt>
      <trkpt lat="42.6439330168068408966064453125" lon="19.90744558162987232208251953125">
        <ele>1064.4000244140625</ele>
        <time>2026-06-16T06:55:33.000Z</time>
        <extensions>
          <ns3:TrackPointExtension>
            <ns3:atemp>16.0</ns3:atemp>
          </ns3:TrackPointExtension>
        </extensions>
      </trkpt>
      <trkpt lat="42.6439299993216991424560546875" lon="19.90746787749230861663818359375">
        <ele>1064.5999755859375</ele>
        <time>2026-06-16T06:55:34.000Z</time>
        <extensions>
          <ns3:TrackPointExtension>
            <ns3:atemp>16.0</ns3:atemp>
          </ns3:TrackPointExtension>
        </extensions>
      </trkpt>
      <trkpt lat="42.64393645338714122772216796875" lon="19.907488413155078887939453125">
        <ele>1065</ele>
        <time>2026-06-16T06:55:35.000Z</time>
        <extensions>
          <ns3:TrackPointExtension>
            <ns3:atemp>16.0</ns3:atemp>
          </ns3:TrackPointExtension>
        </extensions>
      </trkpt>
      <trkpt lat="42.64395087026059627532958984375" lon="19.90749838761985301971435546875">
        <ele>1065.4000244140625</ele>
        <time>2026-06-16T06:55:36.000Z</time>
        <extensions>
          <ns3:TrackPointExtension>
            <ns3:atemp>16.0</ns3:atemp>
          </ns3:TrackPointExtension>
        </extensions>
      </trkpt>
      <trkpt lat="42.643964700400829315185546875" lon="19.90750777535140514373779296875">
        <ele>1065.5999755859375</ele>
        <time>2026-06-16T06:55:37.000Z</time>
        <extensions>
          <ns3:TrackPointExtension>
            <ns3:atemp>16.0</ns3:atemp>
          </ns3:TrackPointExtension>
        </extensions>
      </trkpt>
      <trkpt lat="42.643977105617523193359375" lon="19.90751481615006923675537109375">
        <ele>1066</ele>
        <time>2026-06-16T06:55:38.000Z</time>
        <extensions>
          <ns3:TrackPointExtension>
            <ns3:atemp>16.0</ns3:atemp>
          </ns3:TrackPointExtension>
        </extensions>
      </trkpt>
      <trkpt lat="42.64399160631000995635986328125" lon="19.90752269513905048370361328125">
        <ele>1066.4000244140625</ele>
        <time>2026-06-16T06:55:39.000Z</time>
        <extensions>
          <ns3:TrackPointExtension>
            <ns3:atemp>16.0</ns3:atemp>
          </ns3:TrackPointExtension>
        </extensions>
      </trkpt>
      <trkpt lat="42.64400501735508441925048828125" lon="19.9075164087116718292236328125">
        <ele>1066.5999755859375</ele>
        <time>2026-06-16T06:55:40.000Z</time>
        <extensions>
          <ns3:TrackPointExtension>
            <ns3:atemp>16.0</ns3:atemp>
          </ns3:TrackPointExtension>
        </extensions>
      </trkpt>
      <trkpt lat="42.64402328990399837493896484375" lon="19.9075184203684329986572265625">
        <ele>1067</ele>
        <time>2026-06-16T06:55:41.000Z</time>
        <extensions>
          <ns3:TrackPointExtension>
            <ns3:atemp>16.0</ns3:atemp>
          </ns3:TrackPointExtension>
        </extensions>
      </trkpt>
      <trkpt lat="42.6440406404435634613037109375" lon="19.90752160549163818359375">
        <ele>1067.199951171875</ele>
        <time>2026-06-16T06:55:42.000Z</time>
        <extensions>
          <ns3:TrackPointExtension>
            <ns3:atemp>16.0</ns3:atemp>
          </ns3:TrackPointExtension>
        </extensions>
      </trkpt>
      <trkpt lat="42.64405933208763599395751953125" lon="19.90752269513905048370361328125">
        <ele>1067.5999755859375</ele>
        <time>2026-06-16T06:55:43.000Z</time>
        <extensions>
          <ns3:TrackPointExtension>
            <ns3:atemp>16.0</ns3:atemp>
          </ns3:TrackPointExtension>
        </extensions>
      </trkpt>
      <trkpt lat="42.64407877810299396514892578125" lon="19.9075264669954776763916015625">
        <ele>1068</ele>
        <time>2026-06-16T06:55:44.000Z</time>
        <extensions>
          <ns3:TrackPointExtension>
            <ns3:atemp>16.0</ns3:atemp>
          </ns3:TrackPointExtension>
        </extensions>
      </trkpt>
      <trkpt lat="42.64409705065190792083740234375" lon="19.9075234495103359222412109375">
        <ele>1068.4000244140625</ele>
        <time>2026-06-16T06:55:45.000Z</time>
        <extensions>
          <ns3:TrackPointExtension>
            <ns3:atemp>16.0</ns3:atemp>
          </ns3:TrackPointExtension>
        </extensions>
      </trkpt>
      <trkpt lat="42.64411247335374355316162109375" lon="19.90752453915774822235107421875">
        <ele>1068.800048828125</ele>
        <time>2026-06-16T06:55:46.000Z</time>
        <extensions>
          <ns3:TrackPointExtension>
            <ns3:atemp>16.0</ns3:atemp>
          </ns3:TrackPointExtension>
        </extensions>
      </trkpt>
      <trkpt lat="42.64413292519748210906982421875" lon="19.9075244553387165069580078125">
        <ele>1069</ele>
        <time>2026-06-16T06:55:47.000Z</time>
        <extensions>
          <ns3:TrackPointExtension>
            <ns3:atemp>16.0</ns3:atemp>
          </ns3:TrackPointExtension>
        </extensions>
      </trkpt>
      <trkpt lat="42.64415253885090351104736328125" lon="19.90752135403454303741455078125">
        <ele>1069.4000244140625</ele>
        <time>2026-06-16T06:55:48.000Z</time>
        <extensions>
          <ns3:TrackPointExtension>
            <ns3:atemp>16.0</ns3:atemp>
          </ns3:TrackPointExtension>
        </extensions>
      </trkpt>
      <trkpt lat="42.6441703923046588897705078125" lon="19.90752353332936763763427734375">
        <ele>1069.800048828125</ele>
        <time>2026-06-16T06:55:49.000Z</time>
        <extensions>
          <ns3:TrackPointExtension>
            <ns3:atemp>16.0</ns3:atemp>
          </ns3:TrackPointExtension>
        </extensions>
      </trkpt>
      <trkpt lat="42.644187994301319122314453125" lon="19.9075224436819553375244140625">
        <ele>1070.199951171875</ele>
        <time>2026-06-16T06:55:50.000Z</time>
        <extensions>
          <ns3:TrackPointExtension>
            <ns3:atemp>16.0</ns3:atemp>
          </ns3:TrackPointExtension>
        </extensions>
      </trkpt>
      <trkpt lat="42.6442059315741062164306640625" lon="19.90752135403454303741455078125">
        <ele>1070.5999755859375</ele>
        <time>2026-06-16T06:55:51.000Z</time>
        <extensions>
          <ns3:TrackPointExtension>
            <ns3:atemp>16.0</ns3:atemp>
          </ns3:TrackPointExtension>
        </extensions>
      </trkpt>
      <trkpt lat="42.64422378502786159515380859375" lon="19.9075251258909702301025390625">
        <ele>1070.800048828125</ele>
        <time>2026-06-16T06:55:52.000Z</time>
        <extensions>
          <ns3:TrackPointExtension>
            <ns3:atemp>16.0</ns3:atemp>
          </ns3:TrackPointExtension>
        </extensions>
      </trkpt>
      <trkpt lat="42.644243650138378143310546875" lon="19.90751951001584529876708984375">
        <ele>1071.199951171875</ele>
        <time>2026-06-16T06:55:53.000Z</time>
        <extensions>
          <ns3:TrackPointExtension>
            <ns3:atemp>16.0</ns3:atemp>
          </ns3:TrackPointExtension>
        </extensions>
      </trkpt>
      <trkpt lat="42.64426100067794322967529296875" lon="19.907518923282623291015625">
        <ele>1071.5999755859375</ele>
        <time>2026-06-16T06:55:54.000Z</time>
        <extensions>
          <ns3:TrackPointExtension>
            <ns3:atemp>16.0</ns3:atemp>
          </ns3:TrackPointExtension>
        </extensions>
      </trkpt>
      <trkpt lat="42.6442780159413814544677734375" lon="19.90752336569130420684814453125">
        <ele>1072</ele>
        <time>2026-06-16T06:55:55.000Z</time>
        <extensions>
          <ns3:TrackPointExtension>
            <ns3:atemp>16.0</ns3:atemp>
          </ns3:TrackPointExtension>
        </extensions>
      </trkpt>
      <trkpt lat="42.6442951150238513946533203125" lon="19.90753174759447574615478515625">
        <ele>1072.199951171875</ele>
        <time>2026-06-16T06:55:56.000Z</time>
        <extensions>
          <ns3:TrackPointExtension>
            <ns3:atemp>16.0</ns3:atemp>
          </ns3:TrackPointExtension>
        </extensions>
      </trkpt>
      <trkpt lat="42.64431397430598735809326171875" lon="19.90754348225891590118408203125">
        <ele>1072.5999755859375</ele>
        <time>2026-06-16T06:55:57.000Z</time>
        <extensions>
          <ns3:TrackPointExtension>
            <ns3:atemp>16.0</ns3:atemp>
          </ns3:TrackPointExtension>
        </extensions>
      </trkpt>
      <trkpt lat="42.64433383941650390625" lon="19.9075579829514026641845703125">
        <ele>1073</ele>
        <time>2026-06-16T06:55:58.000Z</time>
        <extensions>
          <ns3:TrackPointExtension>
            <ns3:atemp>16.0</ns3:atemp>
          </ns3:TrackPointExtension>
        </extensions>
      </trkpt>
      <trkpt lat="42.64435588382184505462646484375" lon="19.90757013671100139617919921875">
        <ele>1073.199951171875</ele>
        <time>2026-06-16T06:55:59.000Z</time>
        <extensions>
          <ns3:TrackPointExtension>
            <ns3:atemp>16.0</ns3:atemp>
          </ns3:TrackPointExtension>
        </extensions>
      </trkpt>
      <trkpt lat="42.644375078380107879638671875" lon="19.907579608261585235595703125">
        <ele>1073.5999755859375</ele>
        <time>2026-06-16T06:56:00.000Z</time>
        <extensions>
          <ns3:TrackPointExtension>
            <ns3:atemp>16.0</ns3:atemp>
          </ns3:TrackPointExtension>
        </extensions>
      </trkpt>
      <trkpt lat="42.64439511112868785858154296875" lon="19.90759410895407199859619140625">
        <ele>1073.800048828125</ele>
        <time>2026-06-16T06:56:01.000Z</time>
        <extensions>
          <ns3:TrackPointExtension>
            <ns3:atemp>16.0</ns3:atemp>
          </ns3:TrackPointExtension>
        </extensions>
      </trkpt>
      <trkpt lat="42.64441623352468013763427734375" lon="19.90760944783687591552734375">
        <ele>1074</ele>
        <time>2026-06-16T06:56:02.000Z</time>
        <extensions>
          <ns3:TrackPointExtension>
            <ns3:atemp>16.0</ns3:atemp>
          </ns3:TrackPointExtension>
        </extensions>
      </trkpt>
      <trkpt lat="42.6444376073777675628662109375" lon="19.90762897767126560211181640625">
        <ele>1074.4000244140625</ele>
        <time>2026-06-16T06:56:03.000Z</time>
        <extensions>
          <ns3:TrackPointExtension>
            <ns3:atemp>16.0</ns3:atemp>
          </ns3:TrackPointExtension>
        </extensions>
      </trkpt>
      <trkpt lat="42.64446183107793331146240234375" lon="19.9076518602669239044189453125">
        <ele>1074.5999755859375</ele>
        <time>2026-06-16T06:56:04.000Z</time>
        <extensions>
          <ns3:TrackPointExtension>
            <ns3:atemp>16.0</ns3:atemp>
          </ns3:TrackPointExtension>
        </extensions>
      </trkpt>
      <trkpt lat="42.6444825343787670135498046875" lon="19.9076758325099945068359375">
        <ele>1074.800048828125</ele>
        <time>2026-06-16T06:56:05.000Z</time>
        <extensions>
          <ns3:TrackPointExtension>
            <ns3:atemp>16.0</ns3:atemp>
          </ns3:TrackPointExtension>
        </extensions>
      </trkpt>
      <trkpt lat="42.64450005255639553070068359375" lon="19.90769988857209682464599609375">
        <ele>1075</ele>
        <time>2026-06-16T06:56:06.000Z</time>
        <extensions>
          <ns3:TrackPointExtension>
            <ns3:atemp>16.0</ns3:atemp>
          </ns3:TrackPointExtension>
        </extensions>
      </trkpt>
      <trkpt lat="42.64451715163886547088623046875" lon="19.90772210061550140380859375">
        <ele>1075.199951171875</ele>
        <time>2026-06-16T06:56:07.000Z</time>
        <extensions>
          <ns3:TrackPointExtension>
            <ns3:atemp>16.0</ns3:atemp>
          </ns3:TrackPointExtension>
        </extensions>
      </trkpt>
      <trkpt lat="42.64453760348260402679443359375" lon="19.9077450670301914215087890625">
        <ele>1075.4000244140625</ele>
        <time>2026-06-16T06:56:08.000Z</time>
        <extensions>
          <ns3:TrackPointExtension>
            <ns3:atemp>16.0</ns3:atemp>
          </ns3:TrackPointExtension>
        </extensions>
      </trkpt>
      <trkpt lat="42.644556462764739990234375" lon="19.9077718891203403472900390625">
        <ele>1075.5999755859375</ele>
        <time>2026-06-16T06:56:09.000Z</time>
        <extensions>
          <ns3:TrackPointExtension>
            <ns3:atemp>16.0</ns3:atemp>
          </ns3:TrackPointExtension>
        </extensions>
      </trkpt>
      <trkpt lat="42.6445703767240047454833984375" lon="19.90779728628695011138916015625">
        <ele>1075.800048828125</ele>
        <time>2026-06-16T06:56:10.000Z</time>
        <extensions>
          <ns3:TrackPointExtension>
            <ns3:atemp>16.0</ns3:atemp>
          </ns3:TrackPointExtension>
        </extensions>
      </trkpt>
      <trkpt lat="42.644588313996791839599609375" lon="19.90782427601516246795654296875">
        <ele>1076</ele>
        <time>2026-06-16T06:56:11.000Z</time>
        <extensions>
          <ns3:TrackPointExtension>
            <ns3:atemp>16.0</ns3:atemp>
          </ns3:TrackPointExtension>
        </extensions>
      </trkpt>
      <trkpt lat="42.6446025632321834564208984375" lon="19.907852523028850555419921875">
        <ele>1076.199951171875</ele>
        <time>2026-06-16T06:56:12.000Z</time>
        <extensions>
          <ns3:TrackPointExtension>
            <ns3:atemp>16.0</ns3:atemp>
          </ns3:TrackPointExtension>
        </extensions>
      </trkpt>
      <trkpt lat="42.64461454935371875762939453125" lon="19.9078791774809360504150390625">
        <ele>1076.4000244140625</ele>
        <time>2026-06-16T06:56:13.000Z</time>
        <extensions>
          <ns3:TrackPointExtension>
            <ns3:atemp>16.0</ns3:atemp>
          </ns3:TrackPointExtension>
        </extensions>
      </trkpt>
      <trkpt lat="42.64462561346590518951416015625" lon="19.9079076759517192840576171875">
        <ele>1076.5999755859375</ele>
        <time>2026-06-16T06:56:14.000Z</time>
        <extensions>
          <ns3:TrackPointExtension>
            <ns3:atemp>16.0</ns3:atemp>
          </ns3:TrackPointExtension>
        </extensions>
      </trkpt>
      <trkpt lat="42.644635252654552459716796875" lon="19.90792972035706043243408203125">
        <ele>1076.5999755859375</ele>
        <time>2026-06-16T06:56:15.000Z</time>
        <extensions>
          <ns3:TrackPointExtension>
            <ns3:atemp>16.0</ns3:atemp>
          </ns3:TrackPointExtension>
        </extensions>
      </trkpt>
      <trkpt lat="42.64464422129094600677490234375" lon="19.90795754827558994293212890625">
        <ele>1076.800048828125</ele>
        <time>2026-06-16T06:56:16.000Z</time>
        <extensions>
          <ns3:TrackPointExtension>
            <ns3:atemp>16.0</ns3:atemp>
          </ns3:TrackPointExtension>
        </extensions>
      </trkpt>
      <trkpt lat="42.644653022289276123046875" lon="19.90798621438443660736083984375">
        <ele>1077</ele>
        <time>2026-06-16T06:56:17.000Z</time>
        <extensions>
          <ns3:TrackPointExtension>
            <ns3:atemp>16.0</ns3:atemp>
          </ns3:TrackPointExtension>
        </extensions>
      </trkpt>
      <trkpt lat="42.644663415849208831787109375" lon="19.90802024491131305694580078125">
        <ele>1077.199951171875</ele>
        <time>2026-06-16T06:56:18.000Z</time>
        <extensions>
          <ns3:TrackPointExtension>
            <ns3:atemp>16.0</ns3:atemp>
          </ns3:TrackPointExtension>
        </extensions>
      </trkpt>
      <trkpt lat="42.64467489905655384063720703125" lon="19.9080481566488742828369140625">
        <ele>1077.4000244140625</ele>
        <time>2026-06-16T06:56:19.000Z</time>
        <extensions>
          <ns3:TrackPointExtension>
            <ns3:atemp>16.0</ns3:atemp>
          </ns3:TrackPointExtension>
        </extensions>
      </trkpt>
      <trkpt lat="42.64468780718743801116943359375" lon="19.9080743081867694854736328125">
        <ele>1077.4000244140625</ele>
        <time>2026-06-16T06:56:20.000Z</time>
        <extensions>
          <ns3:TrackPointExtension>
            <ns3:atemp>16.0</ns3:atemp>
          </ns3:TrackPointExtension>
        </extensions>
      </trkpt>
      <trkpt lat="42.64469736255705356597900390625" lon="19.9080997891724109649658203125">
        <ele>1077.5999755859375</ele>
        <time>2026-06-16T06:56:21.000Z</time>
        <extensions>
          <ns3:TrackPointExtension>
            <ns3:atemp>16.0</ns3:atemp>
          </ns3:TrackPointExtension>
        </extensions>
      </trkpt>
      <trkpt lat="42.64470892958343029022216796875" lon="19.90812099538743495941162109375">
        <ele>1077.800048828125</ele>
        <time>2026-06-16T06:56:22.000Z</time>
        <extensions>
          <ns3:TrackPointExtension>
            <ns3:atemp>16.0</ns3:atemp>
          </ns3:TrackPointExtension>
        </extensions>
      </trkpt>
      <trkpt lat="42.6447209157049655914306640625" lon="19.90814211778342723846435546875">
        <ele>1077.800048828125</ele>
        <time>2026-06-16T06:56:23.000Z</time>
        <extensions>
          <ns3:TrackPointExtension>
            <ns3:atemp>16.0</ns3:atemp>
          </ns3:TrackPointExtension>
        </extensions>
      </trkpt>
      <trkpt lat="42.6447353325784206390380859375" lon="19.90816139616072177886962890625">
        <ele>1078</ele>
        <time>2026-06-16T06:56:24.000Z</time>
        <extensions>
          <ns3:TrackPointExtension>
            <ns3:atemp>16.0</ns3:atemp>
          </ns3:TrackPointExtension>
        </extensions>
      </trkpt>
      <trkpt lat="42.64475083909928798675537109375" lon="19.90818017162382602691650390625">
        <ele>1078.199951171875</ele>
        <time>2026-06-16T06:56:25.000Z</time>
        <extensions>
          <ns3:TrackPointExtension>
            <ns3:atemp>16.0</ns3:atemp>
          </ns3:TrackPointExtension>
        </extensions>
      </trkpt>
      <trkpt lat="42.6447685249149799346923828125" lon="19.9081908166408538818359375">
        <ele>1078.5999755859375</ele>
        <time>2026-06-16T06:56:26.000Z</time>
        <extensions>
          <ns3:TrackPointExtension>
            <ns3:atemp>16.0</ns3:atemp>
          </ns3:TrackPointExtension>
        </extensions>
      </trkpt>
      <trkpt lat="42.64478486962616443634033203125" lon="19.90820464678108692169189453125">
        <ele>1078.800048828125</ele>
        <time>2026-06-16T06:56:27.000Z</time>
        <extensions>
          <ns3:TrackPointExtension>
            <ns3:atemp>16.0</ns3:atemp>
          </ns3:TrackPointExtension>
        </extensions>
      </trkpt>
      <trkpt lat="42.64479626901447772979736328125" lon="19.90822157822549343109130859375">
        <ele>1079.199951171875</ele>
        <time>2026-06-16T06:56:28.000Z</time>
        <extensions>
          <ns3:TrackPointExtension>
            <ns3:atemp>16.0</ns3:atemp>
          </ns3:TrackPointExtension>
        </extensions>
      </trkpt>
      <trkpt lat="42.644808255136013031005859375" lon="19.9082429520785808563232421875">
        <ele>1079.4000244140625</ele>
        <time>2026-06-16T06:56:29.000Z</time>
        <extensions>
          <ns3:TrackPointExtension>
            <ns3:atemp>16.0</ns3:atemp>
          </ns3:TrackPointExtension>
        </extensions>
      </trkpt>
      <trkpt lat="42.64481973834335803985595703125" lon="19.90825912915170192718505859375">
        <ele>1079.800048828125</ele>
        <time>2026-06-16T06:56:30.000Z</time>
        <extensions>
          <ns3:TrackPointExtension>
            <ns3:atemp>16.0</ns3:atemp>
          </ns3:TrackPointExtension>
        </extensions>
      </trkpt>
      <trkpt lat="42.644834406673908233642578125" lon="19.90828662179410457611083984375">
        <ele>1080</ele>
        <time>2026-06-16T06:56:31.000Z</time>
        <extensions>
          <ns3:TrackPointExtension>
            <ns3:atemp>16.0</ns3:atemp>
          </ns3:TrackPointExtension>
        </extensions>
      </trkpt>
      <trkpt lat="42.6448496617376804351806640625" lon="19.90830481052398681640625">
        <ele>1080.4000244140625</ele>
        <time>2026-06-16T06:56:32.000Z</time>
        <extensions>
          <ns3:TrackPointExtension>
            <ns3:atemp>16.0</ns3:atemp>
          </ns3:TrackPointExtension>
        </extensions>
      </trkpt>
      <trkpt lat="42.64487086795270442962646484375" lon="19.908321239054203033447265625">
        <ele>1080.5999755859375</ele>
        <time>2026-06-16T06:56:33.000Z</time>
        <extensions>
          <ns3:TrackPointExtension>
            <ns3:atemp>16.0</ns3:atemp>
          </ns3:TrackPointExtension>
        </extensions>
      </trkpt>
      <trkpt lat="42.64488637447357177734375" lon="19.9083395116031169891357421875">
        <ele>1081.199951171875</ele>
        <time>2026-06-16T06:56:34.000Z</time>
        <extensions>
          <ns3:TrackPointExtension>
            <ns3:atemp>16.0</ns3:atemp>
          </ns3:TrackPointExtension>
        </extensions>
      </trkpt>
      <trkpt lat="42.644902803003787994384765625" lon="19.90835753269493579864501953125">
        <ele>1081.5999755859375</ele>
        <time>2026-06-16T06:56:35.000Z</time>
        <extensions>
          <ns3:TrackPointExtension>
            <ns3:atemp>16.0</ns3:atemp>
          </ns3:TrackPointExtension>
        </extensions>
      </trkpt>
      <trkpt lat="42.6449187286198139190673828125" lon="19.90837597288191318511962890625">
        <ele>1081.800048828125</ele>
        <time>2026-06-16T06:56:36.000Z</time>
        <extensions>
          <ns3:TrackPointExtension>
            <ns3:atemp>16.0</ns3:atemp>
          </ns3:TrackPointExtension>
        </extensions>
      </trkpt>
      <trkpt lat="42.644934318959712982177734375" lon="19.90839575417339801788330078125">
        <ele>1082.199951171875</ele>
        <time>2026-06-16T06:56:37.000Z</time>
        <extensions>
          <ns3:TrackPointExtension>
            <ns3:atemp>16.0</ns3:atemp>
          </ns3:TrackPointExtension>
        </extensions>
      </trkpt>
      <trkpt lat="42.64494873583316802978515625" lon="19.90841268561780452728271484375">
        <ele>1082.5999755859375</ele>
        <time>2026-06-16T06:56:38.000Z</time>
        <extensions>
          <ns3:TrackPointExtension>
            <ns3:atemp>16.0</ns3:atemp>
          </ns3:TrackPointExtension>
        </extensions>
      </trkpt>
      <trkpt lat="42.64496189542114734649658203125" lon="19.9084280245006084442138671875">
        <ele>1082.800048828125</ele>
        <time>2026-06-16T06:56:39.000Z</time>
        <extensions>
          <ns3:TrackPointExtension>
            <ns3:atemp>16.0</ns3:atemp>
          </ns3:TrackPointExtension>
        </extensions>
      </trkpt>
      <trkpt lat="42.64497849158942699432373046875" lon="19.90844135172665119171142578125">
        <ele>1083.199951171875</ele>
        <time>2026-06-16T06:56:40.000Z</time>
        <extensions>
          <ns3:TrackPointExtension>
            <ns3:atemp>16.0</ns3:atemp>
          </ns3:TrackPointExtension>
        </extensions>
      </trkpt>
      <trkpt lat="42.64499433338642120361328125" lon="19.9084514938294887542724609375">
        <ele>1083.5999755859375</ele>
        <time>2026-06-16T06:56:41.000Z</time>
        <extensions>
          <ns3:TrackPointExtension>
            <ns3:atemp>16.0</ns3:atemp>
          </ns3:TrackPointExtension>
        </extensions>
      </trkpt>
      <trkpt lat="42.64500766061246395111083984375" lon="19.90846381522715091705322265625">
        <ele>1084</ele>
        <time>2026-06-16T06:56:42.000Z</time>
        <extensions>
          <ns3:TrackPointExtension>
            <ns3:atemp>16.0</ns3:atemp>
          </ns3:TrackPointExtension>
        </extensions>
      </trkpt>
      <trkpt lat="42.64502610079944133758544921875" lon="19.90847722627222537994384765625">
        <ele>1084.199951171875</ele>
        <time>2026-06-16T06:56:43.000Z</time>
        <extensions>
          <ns3:TrackPointExtension>
            <ns3:atemp>16.0</ns3:atemp>
          </ns3:TrackPointExtension>
        </extensions>
      </trkpt>
      <trkpt lat="42.6450488157570362091064453125" lon="19.90848879329860210418701171875">
        <ele>1084.5999755859375</ele>
        <time>2026-06-16T06:56:44.000Z</time>
        <extensions>
          <ns3:TrackPointExtension>
            <ns3:atemp>16.0</ns3:atemp>
          </ns3:TrackPointExtension>
        </extensions>
      </trkpt>
      <trkpt lat="42.64506700448691844940185546875" lon="19.90849767811596393585205078125">
        <ele>1085</ele>
        <time>2026-06-16T06:56:45.000Z</time>
        <extensions>
          <ns3:TrackPointExtension>
            <ns3:atemp>16.0</ns3:atemp>
          </ns3:TrackPointExtension>
        </extensions>
      </trkpt>
      <trkpt lat="42.6450850255787372589111328125" lon="19.90851092152297496795654296875">
        <ele>1085.199951171875</ele>
        <time>2026-06-16T06:56:46.000Z</time>
        <extensions>
          <ns3:TrackPointExtension>
            <ns3:atemp>16.0</ns3:atemp>
          </ns3:TrackPointExtension>
        </extensions>
      </trkpt>
      <trkpt lat="42.6451041363179683685302734375" lon="19.90852198563516139984130859375">
        <ele>1085.5999755859375</ele>
        <time>2026-06-16T06:56:47.000Z</time>
        <extensions>
          <ns3:TrackPointExtension>
            <ns3:atemp>16.0</ns3:atemp>
          </ns3:TrackPointExtension>
        </extensions>
      </trkpt>
      <trkpt lat="42.6451198942959308624267578125" lon="19.90852885879576206207275390625">
        <ele>1085.800048828125</ele>
        <time>2026-06-16T06:56:48.000Z</time>
        <extensions>
          <ns3:TrackPointExtension>
            <ns3:atemp>16.0</ns3:atemp>
          </ns3:TrackPointExtension>
        </extensions>
      </trkpt>
      <trkpt lat="42.6451376639306545257568359375" lon="19.90854025818407535552978515625">
        <ele>1086.199951171875</ele>
        <time>2026-06-16T06:56:49.000Z</time>
        <extensions>
          <ns3:TrackPointExtension>
            <ns3:atemp>16.0</ns3:atemp>
          </ns3:TrackPointExtension>
        </extensions>
      </trkpt>
      <trkpt lat="42.645154930651187896728515625" lon="19.90855090320110321044921875">
        <ele>1086.4000244140625</ele>
        <time>2026-06-16T06:56:50.000Z</time>
        <extensions>
          <ns3:TrackPointExtension>
            <ns3:atemp>16.0</ns3:atemp>
          </ns3:TrackPointExtension>
        </extensions>
      </trkpt>
      <trkpt lat="42.645173370838165283203125" lon="19.9085663259029388427734375">
        <ele>1086.5999755859375</ele>
        <time>2026-06-16T06:56:51.000Z</time>
        <extensions>
          <ns3:TrackPointExtension>
            <ns3:atemp>16.0</ns3:atemp>
          </ns3:TrackPointExtension>
        </extensions>
      </trkpt>
      <trkpt lat="42.64519608579576015472412109375" lon="19.9085862748324871063232421875">
        <ele>1087</ele>
        <time>2026-06-16T06:56:52.000Z</time>
        <extensions>
          <ns3:TrackPointExtension>
            <ns3:atemp>16.0</ns3:atemp>
          </ns3:TrackPointExtension>
        </extensions>
      </trkpt>
      <trkpt lat="42.64521553181111812591552734375" lon="19.908610247075557708740234375">
        <ele>1087.199951171875</ele>
        <time>2026-06-16T06:56:53.000Z</time>
        <extensions>
          <ns3:TrackPointExtension>
            <ns3:atemp>16.0</ns3:atemp>
          </ns3:TrackPointExtension>
        </extensions>
      </trkpt>
      <trkpt lat="42.645235396921634674072265625" lon="19.90862860344350337982177734375">
        <ele>1087.4000244140625</ele>
        <time>2026-06-16T06:56:54.000Z</time>
        <extensions>
          <ns3:TrackPointExtension>
            <ns3:atemp>16.0</ns3:atemp>
          </ns3:TrackPointExtension>
        </extensions>
      </trkpt>
      <trkpt lat="42.6452546752989292144775390625" lon="19.9086563475430011749267578125">
        <ele>1087.800048828125</ele>
        <time>2026-06-16T06:56:55.000Z</time>
        <extensions>
          <ns3:TrackPointExtension>
            <ns3:atemp>16.0</ns3:atemp>
          </ns3:TrackPointExtension>
        </extensions>
      </trkpt>
      <trkpt lat="42.64527705498039722442626953125" lon="19.90867570973932743072509765625">
        <ele>1088</ele>
        <time>2026-06-16T06:56:56.000Z</time>
        <extensions>
          <ns3:TrackPointExtension>
            <ns3:atemp>16.0</ns3:atemp>
          </ns3:TrackPointExtension>
        </extensions>
      </trkpt>
      <trkpt lat="42.64529767446219921112060546875" lon="19.90869699977338314056396484375">
        <ele>1088.4000244140625</ele>
        <time>2026-06-16T06:56:57.000Z</time>
        <extensions>
          <ns3:TrackPointExtension>
            <ns3:atemp>16.0</ns3:atemp>
          </ns3:TrackPointExtension>
        </extensions>
      </trkpt>
      <trkpt lat="42.64531644992530345916748046875" lon="19.90871510468423366546630859375">
        <ele>1088.5999755859375</ele>
        <time>2026-06-16T06:56:58.000Z</time>
        <extensions>
          <ns3:TrackPointExtension>
            <ns3:atemp>16.0</ns3:atemp>
          </ns3:TrackPointExtension>
        </extensions>
      </trkpt>
      <trkpt lat="42.64533489011228084564208984375" lon="19.908742010593414306640625">
        <ele>1088.800048828125</ele>
        <time>2026-06-16T06:56:59.000Z</time>
        <extensions>
          <ns3:TrackPointExtension>
            <ns3:atemp>16.0</ns3:atemp>
          </ns3:TrackPointExtension>
        </extensions>
      </trkpt>
      <trkpt lat="42.645350396633148193359375" lon="19.9087673239409923553466796875">
        <ele>1089</ele>
        <time>2026-06-16T06:57:00.000Z</time>
        <extensions>
          <ns3:TrackPointExtension>
            <ns3:atemp>16.0</ns3:atemp>
          </ns3:TrackPointExtension>
        </extensions>
      </trkpt>
      <trkpt lat="42.6453666575253009796142578125" lon="19.908793307840824127197265625">
        <ele>1089.199951171875</ele>
        <time>2026-06-16T06:57:01.000Z</time>
        <extensions>
          <ns3:TrackPointExtension>
            <ns3:atemp>16.0</ns3:atemp>
          </ns3:TrackPointExtension>
        </extensions>
      </trkpt>
      <trkpt lat="42.64538048766553401947021484375" lon="19.90881979465484619140625">
        <ele>1089.4000244140625</ele>
        <time>2026-06-16T06:57:02.000Z</time>
        <extensions>
          <ns3:TrackPointExtension>
            <ns3:atemp>16.0</ns3:atemp>
          </ns3:TrackPointExtension>
        </extensions>
      </trkpt>
      <trkpt lat="42.6453985087573528289794921875" lon="19.90884401835501194000244140625">
        <ele>1089.5999755859375</ele>
        <time>2026-06-16T06:57:03.000Z</time>
        <extensions>
          <ns3:TrackPointExtension>
            <ns3:atemp>16.0</ns3:atemp>
          </ns3:TrackPointExtension>
        </extensions>
      </trkpt>
      <trkpt lat="42.6454112492501735687255859375" lon="19.90886732004582881927490234375">
        <ele>1090</ele>
        <time>2026-06-16T06:57:04.000Z</time>
        <extensions>
          <ns3:TrackPointExtension>
            <ns3:atemp>16.0</ns3:atemp>
          </ns3:TrackPointExtension>
        </extensions>
      </trkpt>
      <trkpt lat="42.645420469343662261962890625" lon="19.908893220126628875732421875">
        <ele>1090</ele>
        <time>2026-06-16T06:57:05.000Z</time>
        <extensions>
          <ns3:TrackPointExtension>
            <ns3:atemp>16.0</ns3:atemp>
          </ns3:TrackPointExtension>
        </extensions>
      </trkpt>
      <trkpt lat="42.6454317010939121246337890625" lon="19.9089185334742069244384765625">
        <ele>1090.199951171875</ele>
        <time>2026-06-16T06:57:06.000Z</time>
        <extensions>
          <ns3:TrackPointExtension>
            <ns3:atemp>16.0</ns3:atemp>
          </ns3:TrackPointExtension>
        </extensions>
      </trkpt>
      <trkpt lat="42.64544284902513027191162109375" lon="19.90894393064081668853759765625">
        <ele>1090.4000244140625</ele>
        <time>2026-06-16T06:57:07.000Z</time>
        <extensions>
          <ns3:TrackPointExtension>
            <ns3:atemp>16.0</ns3:atemp>
          </ns3:TrackPointExtension>
        </extensions>
      </trkpt>
      <trkpt lat="42.645453996956348419189453125" lon="19.90896689705550670623779296875">
        <ele>1090.5999755859375</ele>
        <time>2026-06-16T06:57:08.000Z</time>
        <extensions>
          <ns3:TrackPointExtension>
            <ns3:atemp>16.0</ns3:atemp>
          </ns3:TrackPointExtension>
        </extensions>
      </trkpt>
      <trkpt lat="42.64546548016369342803955078125" lon="19.90899103693664073944091796875">
        <ele>1090.5999755859375</ele>
        <time>2026-06-16T06:57:09.000Z</time>
        <extensions>
          <ns3:TrackPointExtension>
            <ns3:atemp>16.0</ns3:atemp>
          </ns3:TrackPointExtension>
        </extensions>
      </trkpt>
      <trkpt lat="42.64547117985785007476806640625" lon="19.90901718847453594207763671875">
        <ele>1090.5999755859375</ele>
        <time>2026-06-16T06:57:10.000Z</time>
        <extensions>
          <ns3:TrackPointExtension>
            <ns3:atemp>16.0</ns3:atemp>
          </ns3:TrackPointExtension>
        </extensions>
      </trkpt>
      <trkpt lat="42.64547537080943584442138671875" lon="19.9090412445366382598876953125">
        <ele>1090.800048828125</ele>
        <time>2026-06-16T06:57:11.000Z</time>
        <extensions>
          <ns3:TrackPointExtension>
            <ns3:atemp>16.0</ns3:atemp>
          </ns3:TrackPointExtension>
        </extensions>
      </trkpt>
      <trkpt lat="42.64547578990459442138671875" lon="19.9090647138655185699462890625">
        <ele>1091</ele>
        <time>2026-06-16T06:57:12.000Z</time>
        <extensions>
          <ns3:TrackPointExtension>
            <ns3:atemp>16.0</ns3:atemp>
          </ns3:TrackPointExtension>
        </extensions>
      </trkpt>
      <trkpt lat="42.64547319151461124420166015625" lon="19.90908625535666942596435546875">
        <ele>1091.199951171875</ele>
        <time>2026-06-16T06:57:13.000Z</time>
        <extensions>
          <ns3:TrackPointExtension>
            <ns3:atemp>16.0</ns3:atemp>
          </ns3:TrackPointExtension>
        </extensions>
      </trkpt>
      <trkpt lat="42.64547268860042095184326171875" lon="19.909106455743312835693359375">
        <ele>1091.4000244140625</ele>
        <time>2026-06-16T06:57:14.000Z</time>
        <extensions>
          <ns3:TrackPointExtension>
            <ns3:atemp>16.0</ns3:atemp>
          </ns3:TrackPointExtension>
        </extensions>
      </trkpt>
      <trkpt lat="42.64547235332429409027099609375" lon="19.90913285873830318450927734375">
        <ele>1091.800048828125</ele>
        <time>2026-06-16T06:57:15.000Z</time>
        <extensions>
          <ns3:TrackPointExtension>
            <ns3:atemp>16.0</ns3:atemp>
          </ns3:TrackPointExtension>
        </extensions>
      </trkpt>
      <trkpt lat="42.6454675756394863128662109375" lon="19.90916512906551361083984375">
        <ele>1092</ele>
        <time>2026-06-16T06:57:16.000Z</time>
        <extensions>
          <ns3:TrackPointExtension>
            <ns3:atemp>16.0</ns3:atemp>
          </ns3:TrackPointExtension>
        </extensions>
      </trkpt>
      <trkpt lat="42.64545567333698272705078125" lon="19.90918901748955249786376953125">
        <ele>1092.4000244140625</ele>
        <time>2026-06-16T06:57:17.000Z</time>
        <extensions>
          <ns3:TrackPointExtension>
            <ns3:atemp>16.0</ns3:atemp>
          </ns3:TrackPointExtension>
        </extensions>
      </trkpt>
      <trkpt lat="42.6454427652060985565185546875" lon="19.909208379685878753662109375">
        <ele>1092.5999755859375</ele>
        <time>2026-06-16T06:57:18.000Z</time>
        <extensions>
          <ns3:TrackPointExtension>
            <ns3:atemp>16.0</ns3:atemp>
          </ns3:TrackPointExtension>
        </extensions>
      </trkpt>
      <trkpt lat="42.64542155899107456207275390625" lon="19.90921340882778167724609375">
        <ele>1093</ele>
        <time>2026-06-16T06:57:19.000Z</time>
        <extensions>
          <ns3:TrackPointExtension>
            <ns3:atemp>16.0</ns3:atemp>
          </ns3:TrackPointExtension>
        </extensions>
      </trkpt>
      <trkpt lat="42.64540337026119232177734375" lon="19.90921701304614543914794921875">
        <ele>1093.4000244140625</ele>
        <time>2026-06-16T06:57:20.000Z</time>
        <extensions>
          <ns3:TrackPointExtension>
            <ns3:atemp>16.0</ns3:atemp>
          </ns3:TrackPointExtension>
        </extensions>
      </trkpt>
      <trkpt lat="42.645383588969707489013671875" lon="19.90921131335198879241943359375">
        <ele>1093.5999755859375</ele>
        <time>2026-06-16T06:57:21.000Z</time>
        <extensions>
          <ns3:TrackPointExtension>
            <ns3:atemp>16.0</ns3:atemp>
          </ns3:TrackPointExtension>
        </extensions>
      </trkpt>
      <trkpt lat="42.64536456204950809478759765625" lon="19.9092045240104198455810546875">
        <ele>1094</ele>
        <time>2026-06-16T06:57:22.000Z</time>
        <extensions>
          <ns3:TrackPointExtension>
            <ns3:atemp>16.0</ns3:atemp>
          </ns3:TrackPointExtension>
        </extensions>
      </trkpt>
      <trkpt lat="42.64534243382513523101806640625" lon="19.90919731557369232177734375">
        <ele>1094.4000244140625</ele>
        <time>2026-06-16T06:57:23.000Z</time>
        <extensions>
          <ns3:TrackPointExtension>
            <ns3:atemp>16.0</ns3:atemp>
          </ns3:TrackPointExtension>
        </extensions>
      </trkpt>
      <trkpt lat="42.64532214961946010589599609375" lon="19.90918549709022045135498046875">
        <ele>1094.5999755859375</ele>
        <time>2026-06-16T06:57:24.000Z</time>
        <extensions>
          <ns3:TrackPointExtension>
            <ns3:atemp>16.0</ns3:atemp>
          </ns3:TrackPointExtension>
        </extensions>
      </trkpt>
      <trkpt lat="42.6453056372702121734619140625" lon="19.90916873328387737274169921875">
        <ele>1095</ele>
        <time>2026-06-16T06:57:25.000Z</time>
        <extensions>
          <ns3:TrackPointExtension>
            <ns3:atemp>16.0</ns3:atemp>
          </ns3:TrackPointExtension>
        </extensions>
      </trkpt>
      <trkpt lat="42.645289711654186248779296875" lon="19.90915448404848575592041015625">
        <ele>1095.199951171875</ele>
        <time>2026-06-16T06:57:26.000Z</time>
        <extensions>
          <ns3:TrackPointExtension>
            <ns3:atemp>16.0</ns3:atemp>
          </ns3:TrackPointExtension>
        </extensions>
      </trkpt>
      <trkpt lat="42.6452714391052722930908203125" lon="19.9091428332030773162841796875">
        <ele>1095.5999755859375</ele>
        <time>2026-06-16T06:57:27.000Z</time>
        <extensions>
          <ns3:TrackPointExtension>
            <ns3:atemp>16.0</ns3:atemp>
          </ns3:TrackPointExtension>
        </extensions>
      </trkpt>
      <trkpt lat="42.64525794424116611480712890625" lon="19.90913202054798603057861328125">
        <ele>1095.800048828125</ele>
        <time>2026-06-16T06:57:28.000Z</time>
        <extensions>
          <ns3:TrackPointExtension>
            <ns3:atemp>16.0</ns3:atemp>
          </ns3:TrackPointExtension>
        </extensions>
      </trkpt>
      <trkpt lat="42.645236067473888397216796875" lon="19.909122884273529052734375">
        <ele>1096</ele>
        <time>2026-06-16T06:57:29.000Z</time>
        <extensions>
          <ns3:TrackPointExtension>
            <ns3:atemp>16.0</ns3:atemp>
          </ns3:TrackPointExtension>
        </extensions>
      </trkpt>
      <trkpt lat="42.64521637000143527984619140625" lon="19.9091129936277866363525390625">
        <ele>1096.4000244140625</ele>
        <time>2026-06-16T06:57:30.000Z</time>
        <extensions>
          <ns3:TrackPointExtension>
            <ns3:atemp>16.0</ns3:atemp>
          </ns3:TrackPointExtension>
        </extensions>
      </trkpt>
      <trkpt lat="42.64519189484417438507080078125" lon="19.90910972468554973602294921875">
        <ele>1096.5999755859375</ele>
        <time>2026-06-16T06:57:31.000Z</time>
        <extensions>
          <ns3:TrackPointExtension>
            <ns3:atemp>16.0</ns3:atemp>
          </ns3:TrackPointExtension>
        </extensions>
      </trkpt>
      <trkpt lat="42.645167671144008636474609375" lon="19.90911089815199375152587890625">
        <ele>1096.5999755859375</ele>
        <time>2026-06-16T06:57:32.000Z</time>
        <extensions>
          <ns3:TrackPointExtension>
            <ns3:atemp>16.0</ns3:atemp>
          </ns3:TrackPointExtension>
        </extensions>
      </trkpt>
      <trkpt lat="42.645144872367382049560546875" lon="19.9091069586575031280517578125">
        <ele>1096.800048828125</ele>
        <time>2026-06-16T06:57:33.000Z</time>
        <extensions>
          <ns3:TrackPointExtension>
            <ns3:atemp>16.0</ns3:atemp>
          </ns3:TrackPointExtension>
        </extensions>
      </trkpt>
      <trkpt lat="42.64512651599943637847900390625" lon="19.9091059528291225433349609375">
        <ele>1097</ele>
        <time>2026-06-16T06:57:34.000Z</time>
        <extensions>
          <ns3:TrackPointExtension>
            <ns3:atemp>16.0</ns3:atemp>
          </ns3:TrackPointExtension>
        </extensions>
      </trkpt>
      <trkpt lat="42.64510564506053924560546875" lon="19.909103102982044219970703125">
        <ele>1097.199951171875</ele>
        <time>2026-06-16T06:57:35.000Z</time>
        <extensions>
          <ns3:TrackPointExtension>
            <ns3:atemp>16.0</ns3:atemp>
          </ns3:TrackPointExtension>
        </extensions>
      </trkpt>
      <trkpt lat="42.6450835168361663818359375" lon="19.9091036058962345123291015625">
        <ele>1097.4000244140625</ele>
        <time>2026-06-16T06:57:36.000Z</time>
        <extensions>
          <ns3:TrackPointExtension>
            <ns3:atemp>16.0</ns3:atemp>
          </ns3:TrackPointExtension>
        </extensions>
      </trkpt>
      <trkpt lat="42.645060718059539794921875" lon="19.909109137952327728271484375">
        <ele>1097.4000244140625</ele>
        <time>2026-06-16T06:57:37.000Z</time>
        <extensions>
          <ns3:TrackPointExtension>
            <ns3:atemp>16.0</ns3:atemp>
          </ns3:TrackPointExtension>
        </extensions>
      </trkpt>
      <trkpt lat="42.645046971738338470458984375" lon="19.90912145934998989105224609375">
        <ele>1097.5999755859375</ele>
        <time>2026-06-16T06:57:38.000Z</time>
        <extensions>
          <ns3:TrackPointExtension>
            <ns3:atemp>16.0</ns3:atemp>
          </ns3:TrackPointExtension>
        </extensions>
      </trkpt>
      <trkpt lat="42.645032890141010284423828125" lon="19.9091381393373012542724609375">
        <ele>1097.800048828125</ele>
        <time>2026-06-16T06:57:39.000Z</time>
        <extensions>
          <ns3:TrackPointExtension>
            <ns3:atemp>16.0</ns3:atemp>
          </ns3:TrackPointExtension>
        </extensions>
      </trkpt>
      <trkpt lat="42.645023167133331298828125" lon="19.90915783680975437164306640625">
        <ele>1098</ele>
        <time>2026-06-16T06:57:40.000Z</time>
        <extensions>
          <ns3:TrackPointExtension>
            <ns3:atemp>16.0</ns3:atemp>
          </ns3:TrackPointExtension>
        </extensions>
      </trkpt>
      <trkpt lat="42.6450203172862529754638671875" lon="19.909184910356998443603515625">
        <ele>1098.199951171875</ele>
        <time>2026-06-16T06:57:41.000Z</time>
        <extensions>
          <ns3:TrackPointExtension>
            <ns3:atemp>16.0</ns3:atemp>
          </ns3:TrackPointExtension>
        </extensions>
      </trkpt>
      <trkpt lat="42.64502107165753841400146484375" lon="19.909211732447147369384765625">
        <ele>1098.4000244140625</ele>
        <time>2026-06-16T06:57:42.000Z</time>
        <extensions>
          <ns3:TrackPointExtension>
            <ns3:atemp>16.0</ns3:atemp>
          </ns3:TrackPointExtension>
        </extensions>
      </trkpt>
      <trkpt lat="42.6450283639132976531982421875" lon="19.909235537052154541015625">
        <ele>1098.800048828125</ele>
        <time>2026-06-16T06:57:43.000Z</time>
        <extensions>
          <ns3:TrackPointExtension>
            <ns3:atemp>16.0</ns3:atemp>
          </ns3:TrackPointExtension>
        </extensions>
      </trkpt>
      <trkpt lat="42.645039595663547515869140625" lon="19.90925506688654422760009765625">
        <ele>1099</ele>
        <time>2026-06-16T06:57:44.000Z</time>
        <extensions>
          <ns3:TrackPointExtension>
            <ns3:atemp>16.0</ns3:atemp>
          </ns3:TrackPointExtension>
        </extensions>
      </trkpt>
      <trkpt lat="42.6450494863092899322509765625" lon="19.90928021259605884552001953125">
        <ele>1099.4000244140625</ele>
        <time>2026-06-16T06:57:45.000Z</time>
        <extensions>
          <ns3:TrackPointExtension>
            <ns3:atemp>16.0</ns3:atemp>
          </ns3:TrackPointExtension>
        </extensions>
      </trkpt>
      <trkpt lat="42.645061723887920379638671875" lon="19.9092994071543216705322265625">
        <ele>1099.5999755859375</ele>
        <time>2026-06-16T06:57:46.000Z</time>
        <extensions>
          <ns3:TrackPointExtension>
            <ns3:atemp>16.0</ns3:atemp>
          </ns3:TrackPointExtension>
        </extensions>
      </trkpt>
      <trkpt lat="42.64507035724818706512451171875" lon="19.90931776352226734161376953125">
        <ele>1100</ele>
        <time>2026-06-16T06:57:47.000Z</time>
        <extensions>
          <ns3:TrackPointExtension>
            <ns3:atemp>16.0</ns3:atemp>
          </ns3:TrackPointExtension>
        </extensions>
      </trkpt>
      <trkpt lat="42.6450835168361663818359375" lon="19.90933142602443695068359375">
        <ele>1100.4000244140625</ele>
        <time>2026-06-16T06:57:48.000Z</time>
        <extensions>
          <ns3:TrackPointExtension>
            <ns3:atemp>16.0</ns3:atemp>
          </ns3:TrackPointExtension>
        </extensions>
      </trkpt>
      <trkpt lat="42.6450934074819087982177734375" lon="19.90935011766850948333740234375">
        <ele>1100.5999755859375</ele>
        <time>2026-06-16T06:57:49.000Z</time>
        <extensions>
          <ns3:TrackPointExtension>
            <ns3:atemp>16.0</ns3:atemp>
          </ns3:TrackPointExtension>
        </extensions>
      </trkpt>
      <trkpt lat="42.64510841108858585357666015625" lon="19.90936285816133022308349609375">
        <ele>1101</ele>
        <time>2026-06-16T06:57:50.000Z</time>
        <extensions>
          <ns3:TrackPointExtension>
            <ns3:atemp>16.0</ns3:atemp>
          </ns3:TrackPointExtension>
        </extensions>
      </trkpt>
      <trkpt lat="42.6451198942959308624267578125" lon="19.90938247181475162506103515625">
        <ele>1101.4000244140625</ele>
        <time>2026-06-16T06:57:51.000Z</time>
        <extensions>
          <ns3:TrackPointExtension>
            <ns3:atemp>16.0</ns3:atemp>
          </ns3:TrackPointExtension>
        </extensions>
      </trkpt>
      <trkpt lat="42.64513053931295871734619140625" lon="19.90940594114363193511962890625">
        <ele>1101.800048828125</ele>
        <time>2026-06-16T06:57:52.000Z</time>
        <extensions>
          <ns3:TrackPointExtension>
            <ns3:atemp>16.0</ns3:atemp>
          </ns3:TrackPointExtension>
        </extensions>
      </trkpt>
      <trkpt lat="42.645140178501605987548828125" lon="19.9094298295676708221435546875">
        <ele>1102</ele>
        <time>2026-06-16T06:57:53.000Z</time>
        <extensions>
          <ns3:TrackPointExtension>
            <ns3:atemp>16.0</ns3:atemp>
          </ns3:TrackPointExtension>
        </extensions>
      </trkpt>
      <trkpt lat="42.64514948241412639617919921875" lon="19.90945304743945598602294921875">
        <ele>1102.4000244140625</ele>
        <time>2026-06-16T06:57:54.000Z</time>
        <extensions>
          <ns3:TrackPointExtension>
            <ns3:atemp>16.0</ns3:atemp>
          </ns3:TrackPointExtension>
        </extensions>
      </trkpt>
      <trkpt lat="42.6451614685356616973876953125" lon="19.9094734154641628265380859375">
        <ele>1102.800048828125</ele>
        <time>2026-06-16T06:57:55.000Z</time>
        <extensions>
          <ns3:TrackPointExtension>
            <ns3:atemp>16.0</ns3:atemp>
          </ns3:TrackPointExtension>
        </extensions>
      </trkpt>
      <trkpt lat="42.64517311938107013702392578125" lon="19.909494034945964813232421875">
        <ele>1103</ele>
        <time>2026-06-16T06:57:56.000Z</time>
        <extensions>
          <ns3:TrackPointExtension>
            <ns3:atemp>16.0</ns3:atemp>
          </ns3:TrackPointExtension>
        </extensions>
      </trkpt>
      <trkpt lat="42.6451829262077808380126953125" lon="19.9095158278942108154296875">
        <ele>1103.4000244140625</ele>
        <time>2026-06-16T06:57:57.000Z</time>
        <extensions>
          <ns3:TrackPointExtension>
            <ns3:atemp>16.0</ns3:atemp>
          </ns3:TrackPointExtension>
        </extensions>
      </trkpt>
      <trkpt lat="42.64519256539642810821533203125" lon="19.9095399677753448486328125">
        <ele>1103.5999755859375</ele>
        <time>2026-06-16T06:57:58.000Z</time>
        <extensions>
          <ns3:TrackPointExtension>
            <ns3:atemp>16.0</ns3:atemp>
          </ns3:TrackPointExtension>
        </extensions>
      </trkpt>
      <trkpt lat="42.64520346187055110931396484375" lon="19.90956553258001804351806640625">
        <ele>1103.800048828125</ele>
        <time>2026-06-16T06:57:59.000Z</time>
        <extensions>
          <ns3:TrackPointExtension>
            <ns3:atemp>16.0</ns3:atemp>
          </ns3:TrackPointExtension>
        </extensions>
      </trkpt>
      <trkpt lat="42.645213939249515533447265625" lon="19.90958883427083492279052734375">
        <ele>1104.199951171875</ele>
        <time>2026-06-16T06:58:00.000Z</time>
        <extensions>
          <ns3:TrackPointExtension>
            <ns3:atemp>16.0</ns3:atemp>
          </ns3:TrackPointExtension>
        </extensions>
      </trkpt>
      <trkpt lat="42.6452271826565265655517578125" lon="19.90961196832358837127685546875">
        <ele>1104.4000244140625</ele>
        <time>2026-06-16T06:58:01.000Z</time>
        <extensions>
          <ns3:TrackPointExtension>
            <ns3:atemp>16.0</ns3:atemp>
          </ns3:TrackPointExtension>
        </extensions>
      </trkpt>
      <trkpt lat="42.6452417671680450439453125" lon="19.90963174961507320404052734375">
        <ele>1104.5999755859375</ele>
        <time>2026-06-16T06:58:02.000Z</time>
        <extensions>
          <ns3:TrackPointExtension>
            <ns3:atemp>16.0</ns3:atemp>
          </ns3:TrackPointExtension>
        </extensions>
      </trkpt>
      <trkpt lat="42.64525140635669231414794921875" lon="19.90965572185814380645751953125">
        <ele>1104.800048828125</ele>
        <time>2026-06-16T06:58:03.000Z</time>
        <extensions>
          <ns3:TrackPointExtension>
            <ns3:atemp>16.0</ns3:atemp>
          </ns3:TrackPointExtension>
        </extensions>
      </trkpt>
      <trkpt lat="42.6452664099633693695068359375" lon="19.9096740782260894775390625">
        <ele>1105</ele>
        <time>2026-06-16T06:58:04.000Z</time>
        <extensions>
          <ns3:TrackPointExtension>
            <ns3:atemp>16.0</ns3:atemp>
          </ns3:TrackPointExtension>
        </extensions>
      </trkpt>
      <trkpt lat="42.64527940191328525543212890625" lon="19.90969511680305004119873046875">
        <ele>1105.199951171875</ele>
        <time>2026-06-16T06:58:05.000Z</time>
        <extensions>
          <ns3:TrackPointExtension>
            <ns3:atemp>16.0</ns3:atemp>
          </ns3:TrackPointExtension>
        </extensions>
      </trkpt>
      <trkpt lat="42.64528937637805938720703125" lon="19.9097185023128986358642578125">
        <ele>1105.4000244140625</ele>
        <time>2026-06-16T06:58:06.000Z</time>
        <extensions>
          <ns3:TrackPointExtension>
            <ns3:atemp>16.0</ns3:atemp>
          </ns3:TrackPointExtension>
        </extensions>
      </trkpt>
      <trkpt lat="42.64530220068991184234619140625" lon="19.90973970852792263031005859375">
        <ele>1105.5999755859375</ele>
        <time>2026-06-16T06:58:07.000Z</time>
        <extensions>
          <ns3:TrackPointExtension>
            <ns3:atemp>16.0</ns3:atemp>
          </ns3:TrackPointExtension>
        </extensions>
      </trkpt>
      <trkpt lat="42.64531745575368404388427734375" lon="19.9097587354481220245361328125">
        <ele>1105.800048828125</ele>
        <time>2026-06-16T06:58:08.000Z</time>
        <extensions>
          <ns3:TrackPointExtension>
            <ns3:atemp>16.0</ns3:atemp>
          </ns3:TrackPointExtension>
        </extensions>
      </trkpt>
      <trkpt lat="42.645333297550678253173828125" lon="19.90977776236832141876220703125">
        <ele>1106</ele>
        <time>2026-06-16T06:58:09.000Z</time>
        <extensions>
          <ns3:TrackPointExtension>
            <ns3:atemp>16.0</ns3:atemp>
          </ns3:TrackPointExtension>
        </extensions>
      </trkpt>
      <trkpt lat="42.64534570276737213134765625" lon="19.90980307571589946746826171875">
        <ele>1106</ele>
        <time>2026-06-16T06:58:10.000Z</time>
        <extensions>
          <ns3:TrackPointExtension>
            <ns3:atemp>16.0</ns3:atemp>
          </ns3:TrackPointExtension>
        </extensions>
      </trkpt>
      <trkpt lat="42.64535919763147830963134765625" lon="19.90982419811189174652099609375">
        <ele>1106.199951171875</ele>
        <time>2026-06-16T06:58:11.000Z</time>
        <extensions>
          <ns3:TrackPointExtension>
            <ns3:atemp>16.0</ns3:atemp>
          </ns3:TrackPointExtension>
        </extensions>
      </trkpt>
      <trkpt lat="42.64537747018039226531982421875" lon="19.9098452366888523101806640625">
        <ele>1106.4000244140625</ele>
        <time>2026-06-16T06:58:12.000Z</time>
        <extensions>
          <ns3:TrackPointExtension>
            <ns3:atemp>16.0</ns3:atemp>
          </ns3:TrackPointExtension>
        </extensions>
      </trkpt>
      <trkpt lat="42.64539339579641819000244140625" lon="19.90986325778067111968994140625">
        <ele>1106.4000244140625</ele>
        <time>2026-06-16T06:58:13.000Z</time>
        <extensions>
          <ns3:TrackPointExtension>
            <ns3:atemp>16.0</ns3:atemp>
          </ns3:TrackPointExtension>
        </extensions>
      </trkpt>
      <trkpt lat="42.645409740507602691650390625" lon="19.909885637462139129638671875">
        <ele>1106.5999755859375</ele>
        <time>2026-06-16T06:58:14.000Z</time>
        <extensions>
          <ns3:TrackPointExtension>
            <ns3:atemp>16.0</ns3:atemp>
          </ns3:TrackPointExtension>
        </extensions>
      </trkpt>
      <trkpt lat="42.64542541466653347015380859375" lon="19.9099099449813365936279296875">
        <ele>1106.5999755859375</ele>
        <time>2026-06-16T06:58:15.000Z</time>
        <extensions>
          <ns3:TrackPointExtension>
            <ns3:atemp>16.0</ns3:atemp>
          </ns3:TrackPointExtension>
        </extensions>
      </trkpt>
      <trkpt lat="42.64544184319674968719482421875" lon="19.90993651561439037322998046875">
        <ele>1106.800048828125</ele>
        <time>2026-06-16T06:58:16.000Z</time>
        <extensions>
          <ns3:TrackPointExtension>
            <ns3:atemp>16.0</ns3:atemp>
          </ns3:TrackPointExtension>
        </extensions>
      </trkpt>
      <trkpt lat="42.64545835554599761962890625" lon="19.90995864383876323699951171875">
        <ele>1107</ele>
        <time>2026-06-16T06:58:17.000Z</time>
        <extensions>
          <ns3:TrackPointExtension>
            <ns3:atemp>16.0</ns3:atemp>
          </ns3:TrackPointExtension>
        </extensions>
      </trkpt>
      <trkpt lat="42.6454692520201206207275390625" lon="19.9099840410053730010986328125">
        <ele>1107.199951171875</ele>
        <time>2026-06-16T06:58:18.000Z</time>
        <extensions>
          <ns3:TrackPointExtension>
            <ns3:atemp>16.0</ns3:atemp>
          </ns3:TrackPointExtension>
        </extensions>
      </trkpt>
      <trkpt lat="42.64547771774232387542724609375" lon="19.9100135453045368194580078125">
        <ele>1107.4000244140625</ele>
        <time>2026-06-16T06:58:19.000Z</time>
        <extensions>
          <ns3:TrackPointExtension>
            <ns3:atemp>16.0</ns3:atemp>
          </ns3:TrackPointExtension>
        </extensions>
      </trkpt>
      <trkpt lat="42.6454890333116054534912109375" lon="19.91003793664276599884033203125">
        <ele>1107.5999755859375</ele>
        <time>2026-06-16T06:58:20.000Z</time>
        <extensions>
          <ns3:TrackPointExtension>
            <ns3:atemp>16.0</ns3:atemp>
          </ns3:TrackPointExtension>
        </extensions>
      </trkpt>
      <trkpt lat="42.64550068415701389312744140625" lon="19.910060651600360870361328125">
        <ele>1107.800048828125</ele>
        <time>2026-06-16T06:58:21.000Z</time>
        <extensions>
          <ns3:TrackPointExtension>
            <ns3:atemp>16.0</ns3:atemp>
          </ns3:TrackPointExtension>
        </extensions>
      </trkpt>
      <trkpt lat="42.6455135084688663482666015625" lon="19.9100842885673046112060546875">
        <ele>1108</ele>
        <time>2026-06-16T06:58:22.000Z</time>
        <extensions>
          <ns3:TrackPointExtension>
            <ns3:atemp>16.0</ns3:atemp>
          </ns3:TrackPointExtension>
        </extensions>
      </trkpt>
      <trkpt lat="42.64552314765751361846923828125" lon="19.9101084284484386444091796875">
        <ele>1108.199951171875</ele>
        <time>2026-06-16T06:58:23.000Z</time>
        <extensions>
          <ns3:TrackPointExtension>
            <ns3:atemp>16.0</ns3:atemp>
          </ns3:TrackPointExtension>
        </extensions>
      </trkpt>
      <trkpt lat="42.6455363072454929351806640625" lon="19.91013751365244388580322265625">
        <ele>1108.199951171875</ele>
        <time>2026-06-16T06:58:24.000Z</time>
        <extensions>
          <ns3:TrackPointExtension>
            <ns3:atemp>16.0</ns3:atemp>
          </ns3:TrackPointExtension>
        </extensions>
      </trkpt>
      <trkpt lat="42.64555064029991626739501953125" lon="19.91016332991421222686767578125">
        <ele>1108.4000244140625</ele>
        <time>2026-06-16T06:58:25.000Z</time>
        <extensions>
          <ns3:TrackPointExtension>
            <ns3:atemp>16.0</ns3:atemp>
          </ns3:TrackPointExtension>
        </extensions>
      </trkpt>
      <trkpt lat="42.64556162059307098388671875" lon="19.91018612869083881378173828125">
        <ele>1108.5999755859375</ele>
        <time>2026-06-16T06:58:26.000Z</time>
        <extensions>
          <ns3:TrackPointExtension>
            <ns3:atemp>16.0</ns3:atemp>
          </ns3:TrackPointExtension>
        </extensions>
      </trkpt>
      <trkpt lat="42.64557503163814544677734375" lon="19.91020926274359226226806640625">
        <ele>1108.800048828125</ele>
        <time>2026-06-16T06:58:27.000Z</time>
        <extensions>
          <ns3:TrackPointExtension>
            <ns3:atemp>16.0</ns3:atemp>
          </ns3:TrackPointExtension>
        </extensions>
      </trkpt>
      <trkpt lat="42.6455879397690296173095703125" lon="19.91022435016930103302001953125">
        <ele>1109</ele>
        <time>2026-06-16T06:58:28.000Z</time>
        <extensions>
          <ns3:TrackPointExtension>
            <ns3:atemp>16.0</ns3:atemp>
          </ns3:TrackPointExtension>
        </extensions>
      </trkpt>
      <trkpt lat="42.6456003449857234954833984375" lon="19.91023994050920009613037109375">
        <ele>1109.199951171875</ele>
        <time>2026-06-16T06:58:29.000Z</time>
        <extensions>
          <ns3:TrackPointExtension>
            <ns3:atemp>16.0</ns3:atemp>
          </ns3:TrackPointExtension>
        </extensions>
      </trkpt>
      <trkpt lat="42.645614258944988250732421875" lon="19.91025033406913280487060546875">
        <ele>1109.5999755859375</ele>
        <time>2026-06-16T06:58:30.000Z</time>
        <extensions>
          <ns3:TrackPointExtension>
            <ns3:atemp>16.0</ns3:atemp>
          </ns3:TrackPointExtension>
        </extensions>
      </trkpt>
      <trkpt lat="42.64562875963747501373291015625" lon="19.9102628231048583984375">
        <ele>1109.800048828125</ele>
        <time>2026-06-16T06:58:31.000Z</time>
        <extensions>
          <ns3:TrackPointExtension>
            <ns3:atemp>16.0</ns3:atemp>
          </ns3:TrackPointExtension>
        </extensions>
      </trkpt>
      <trkpt lat="42.645645104348659515380859375" lon="19.91027447395026683807373046875">
        <ele>1110.199951171875</ele>
        <time>2026-06-16T06:58:32.000Z</time>
        <extensions>
          <ns3:TrackPointExtension>
            <ns3:atemp>16.0</ns3:atemp>
          </ns3:TrackPointExtension>
        </extensions>
      </trkpt>
      <trkpt lat="42.64566379599273204803466796875" lon="19.91028361022472381591796875">
        <ele>1110.4000244140625</ele>
        <time>2026-06-16T06:58:33.000Z</time>
        <extensions>
          <ns3:TrackPointExtension>
            <ns3:atemp>16.0</ns3:atemp>
          </ns3:TrackPointExtension>
        </extensions>
      </trkpt>
      <trkpt lat="42.64568231999874114990234375" lon="19.910291992127895355224609375">
        <ele>1110.5999755859375</ele>
        <time>2026-06-16T06:58:34.000Z</time>
        <extensions>
          <ns3:TrackPointExtension>
            <ns3:atemp>16.0</ns3:atemp>
          </ns3:TrackPointExtension>
        </extensions>
      </trkpt>
      <trkpt lat="42.6456995867192745208740234375" lon="19.91029970347881317138671875">
        <ele>1110.800048828125</ele>
        <time>2026-06-16T06:58:35.000Z</time>
        <extensions>
          <ns3:TrackPointExtension>
            <ns3:atemp>16.0</ns3:atemp>
          </ns3:TrackPointExtension>
        </extensions>
      </trkpt>
      <trkpt lat="42.6457170210778713226318359375" lon="19.9103116057813167572021484375">
        <ele>1111</ele>
        <time>2026-06-16T06:58:36.000Z</time>
        <extensions>
          <ns3:TrackPointExtension>
            <ns3:atemp>16.0</ns3:atemp>
          </ns3:TrackPointExtension>
        </extensions>
      </trkpt>
      <trkpt lat="42.6457364670932292938232421875" lon="19.91032426245510578155517578125">
        <ele>1111.199951171875</ele>
        <time>2026-06-16T06:58:37.000Z</time>
        <extensions>
          <ns3:TrackPointExtension>
            <ns3:atemp>16.0</ns3:atemp>
          </ns3:TrackPointExtension>
        </extensions>
      </trkpt>
      <trkpt lat="42.64575432054698467254638671875" lon="19.91033323109149932861328125">
        <ele>1111.4000244140625</ele>
        <time>2026-06-16T06:58:38.000Z</time>
        <extensions>
          <ns3:TrackPointExtension>
            <ns3:atemp>16.0</ns3:atemp>
          </ns3:TrackPointExtension>
        </extensions>
      </trkpt>
      <trkpt lat="42.64577728696167469024658203125" lon="19.91034370847046375274658203125">
        <ele>1111.5999755859375</ele>
        <time>2026-06-16T06:58:39.000Z</time>
        <extensions>
          <ns3:TrackPointExtension>
            <ns3:atemp>16.0</ns3:atemp>
          </ns3:TrackPointExtension>
        </extensions>
      </trkpt>
      <trkpt lat="42.64579857699573040008544921875" lon="19.91036131046712398529052734375">
        <ele>1111.800048828125</ele>
        <time>2026-06-16T06:58:40.000Z</time>
        <extensions>
          <ns3:TrackPointExtension>
            <ns3:atemp>16.0</ns3:atemp>
          </ns3:TrackPointExtension>
        </extensions>
      </trkpt>
      <trkpt lat="42.64582321979105472564697265625" lon="19.91037606261670589447021484375">
        <ele>1112</ele>
        <time>2026-06-16T06:58:41.000Z</time>
        <extensions>
          <ns3:TrackPointExtension>
            <ns3:atemp>16.0</ns3:atemp>
          </ns3:TrackPointExtension>
        </extensions>
      </trkpt>
      <trkpt lat="42.64584803022444248199462890625" lon="19.91039098240435123443603515625">
        <ele>1112.199951171875</ele>
        <time>2026-06-16T06:58:42.000Z</time>
        <extensions>
          <ns3:TrackPointExtension>
            <ns3:atemp>16.0</ns3:atemp>
          </ns3:TrackPointExtension>
        </extensions>
      </trkpt>
      <trkpt lat="42.6458689011633396148681640625" lon="19.91040707565844058990478515625">
        <ele>1112.4000244140625</ele>
        <time>2026-06-16T06:58:43.000Z</time>
        <extensions>
          <ns3:TrackPointExtension>
            <ns3:atemp>16.0</ns3:atemp>
          </ns3:TrackPointExtension>
        </extensions>
      </trkpt>
      <trkpt lat="42.6458895206451416015625" lon="19.91042534820735454559326171875">
        <ele>1112.800048828125</ele>
        <time>2026-06-16T06:58:44.000Z</time>
        <extensions>
          <ns3:TrackPointExtension>
            <ns3:atemp>16.0</ns3:atemp>
          </ns3:TrackPointExtension>
        </extensions>
      </trkpt>
      <trkpt lat="42.64590972103178501129150390625" lon="19.910442531108856201171875">
        <ele>1113</ele>
        <time>2026-06-16T06:58:45.000Z</time>
        <extensions>
          <ns3:TrackPointExtension>
            <ns3:atemp>16.0</ns3:atemp>
          </ns3:TrackPointExtension>
        </extensions>
      </trkpt>
      <trkpt lat="42.6459262333810329437255859375" lon="19.91046331822872161865234375">
        <ele>1113.199951171875</ele>
        <time>2026-06-16T06:58:46.000Z</time>
        <extensions>
          <ns3:TrackPointExtension>
            <ns3:atemp>16.0</ns3:atemp>
          </ns3:TrackPointExtension>
        </extensions>
      </trkpt>
      <trkpt lat="42.6459389738738536834716796875" lon="19.91049173288047313690185546875">
        <ele>1113.4000244140625</ele>
        <time>2026-06-16T06:58:47.000Z</time>
        <extensions>
          <ns3:TrackPointExtension>
            <ns3:atemp>16.0</ns3:atemp>
          </ns3:TrackPointExtension>
        </extensions>
      </trkpt>
      <trkpt lat="42.64594676904380321502685546875" lon="19.91051369346678256988525390625">
        <ele>1113.5999755859375</ele>
        <time>2026-06-16T06:58:48.000Z</time>
        <extensions>
          <ns3:TrackPointExtension>
            <ns3:atemp>16.0</ns3:atemp>
          </ns3:TrackPointExtension>
        </extensions>
      </trkpt>
      <trkpt lat="42.6459466852247714996337890625" lon="19.9105417728424072265625">
        <ele>1113.800048828125</ele>
        <time>2026-06-16T06:58:49.000Z</time>
        <extensions>
          <ns3:TrackPointExtension>
            <ns3:atemp>16.0</ns3:atemp>
          </ns3:TrackPointExtension>
        </extensions>
      </trkpt>
      <trkpt lat="42.64593821950256824493408203125" lon="19.910565912723541259765625">
        <ele>1114.199951171875</ele>
        <time>2026-06-16T06:58:50.000Z</time>
        <extensions>
          <ns3:TrackPointExtension>
            <ns3:atemp>16.0</ns3:atemp>
          </ns3:TrackPointExtension>
        </extensions>
      </trkpt>
      <trkpt lat="42.6459289155900478363037109375" lon="19.9105811677873134613037109375">
        <ele>1114.4000244140625</ele>
        <time>2026-06-16T06:58:51.000Z</time>
        <extensions>
          <ns3:TrackPointExtension>
            <ns3:atemp>16.0</ns3:atemp>
          </ns3:TrackPointExtension>
        </extensions>
      </trkpt>
      <trkpt lat="42.64591030776500701904296875" lon="19.91059348918497562408447265625">
        <ele>1114.800048828125</ele>
        <time>2026-06-16T06:58:52.000Z</time>
        <extensions>
          <ns3:TrackPointExtension>
            <ns3:atemp>16.0</ns3:atemp>
          </ns3:TrackPointExtension>
        </extensions>
      </trkpt>
      <trkpt lat="42.64589262194931507110595703125" lon="19.91060555912554264068603515625">
        <ele>1115</ele>
        <time>2026-06-16T06:58:53.000Z</time>
        <extensions>
          <ns3:TrackPointExtension>
            <ns3:atemp>16.0</ns3:atemp>
          </ns3:TrackPointExtension>
        </extensions>
      </trkpt>
      <trkpt lat="42.645871751010417938232421875" lon="19.91061092354357242584228515625">
        <ele>1115.199951171875</ele>
        <time>2026-06-16T06:58:54.000Z</time>
        <extensions>
          <ns3:TrackPointExtension>
            <ns3:atemp>16.0</ns3:atemp>
          </ns3:TrackPointExtension>
        </extensions>
      </trkpt>
      <trkpt lat="42.64585255645215511322021484375" lon="19.91060991771519184112548828125">
        <ele>1115.5999755859375</ele>
        <time>2026-06-16T06:58:55.000Z</time>
        <extensions>
          <ns3:TrackPointExtension>
            <ns3:atemp>16.0</ns3:atemp>
          </ns3:TrackPointExtension>
        </extensions>
      </trkpt>
      <trkpt lat="42.64583746902644634246826171875" lon="19.91061042062938213348388671875">
        <ele>1115.800048828125</ele>
        <time>2026-06-16T06:58:56.000Z</time>
        <extensions>
          <ns3:TrackPointExtension>
            <ns3:atemp>16.0</ns3:atemp>
          </ns3:TrackPointExtension>
        </extensions>
      </trkpt>
      <trkpt lat="42.6458179391920566558837890625" lon="19.91060874424874782562255859375">
        <ele>1116</ele>
        <time>2026-06-16T06:58:57.000Z</time>
        <extensions>
          <ns3:TrackPointExtension>
            <ns3:atemp>16.0</ns3:atemp>
          </ns3:TrackPointExtension>
        </extensions>
      </trkpt>
      <trkpt lat="42.64580109156668186187744140625" lon="19.91061511449515819549560546875">
        <ele>1116.199951171875</ele>
        <time>2026-06-16T06:58:58.000Z</time>
        <extensions>
          <ns3:TrackPointExtension>
            <ns3:atemp>16.0</ns3:atemp>
          </ns3:TrackPointExtension>
        </extensions>
      </trkpt>
      <trkpt lat="42.64578449539840221405029296875" lon="19.9106160365045070648193359375">
        <ele>1116.4000244140625</ele>
        <time>2026-06-16T06:58:59.000Z</time>
        <extensions>
          <ns3:TrackPointExtension>
            <ns3:atemp>16.0</ns3:atemp>
          </ns3:TrackPointExtension>
        </extensions>
      </trkpt>
      <trkpt lat="42.64576823450624942779541015625" lon="19.91062550805509090423583984375">
        <ele>1116.5999755859375</ele>
        <time>2026-06-16T06:59:00.000Z</time>
        <extensions>
          <ns3:TrackPointExtension>
            <ns3:atemp>16.0</ns3:atemp>
          </ns3:TrackPointExtension>
        </extensions>
      </trkpt>
      <trkpt lat="42.64574937522411346435546875" lon="19.91063724271953105926513671875">
        <ele>1117</ele>
        <time>2026-06-16T06:59:01.000Z</time>
        <extensions>
          <ns3:TrackPointExtension>
            <ns3:atemp>16.0</ns3:atemp>
          </ns3:TrackPointExtension>
        </extensions>
      </trkpt>
      <trkpt lat="42.64573453925549983978271484375" lon="19.91064436733722686767578125">
        <ele>1117.199951171875</ele>
        <time>2026-06-16T06:59:02.000Z</time>
        <extensions>
          <ns3:TrackPointExtension>
            <ns3:atemp>16.0</ns3:atemp>
          </ns3:TrackPointExtension>
        </extensions>
      </trkpt>
      <trkpt lat="42.64571811072528362274169921875" lon="19.91065903566777706146240234375">
        <ele>1117.4000244140625</ele>
        <time>2026-06-16T06:59:03.000Z</time>
        <extensions>
          <ns3:TrackPointExtension>
            <ns3:atemp>16.0</ns3:atemp>
          </ns3:TrackPointExtension>
        </extensions>
      </trkpt>
      <trkpt lat="42.64570436440408229827880859375" lon="19.91067781113088130950927734375">
        <ele>1117.5999755859375</ele>
        <time>2026-06-16T06:59:04.000Z</time>
        <extensions>
          <ns3:TrackPointExtension>
            <ns3:atemp>16.0</ns3:atemp>
          </ns3:TrackPointExtension>
        </extensions>
      </trkpt>
      <trkpt lat="42.645694054663181304931640625" lon="19.91069801151752471923828125">
        <ele>1118</ele>
        <time>2026-06-16T06:59:05.000Z</time>
        <extensions>
          <ns3:TrackPointExtension>
            <ns3:atemp>16.0</ns3:atemp>
          </ns3:TrackPointExtension>
        </extensions>
      </trkpt>
      <trkpt lat="42.64569061808288097381591796875" lon="19.91072223521769046783447265625">
        <ele>1118.199951171875</ele>
        <time>2026-06-16T06:59:06.000Z</time>
        <extensions>
          <ns3:TrackPointExtension>
            <ns3:atemp>16.0</ns3:atemp>
          </ns3:TrackPointExtension>
        </extensions>
      </trkpt>
      <trkpt lat="42.64569162391126155853271484375" lon="19.9107437767088413238525390625">
        <ele>1118.4000244140625</ele>
        <time>2026-06-16T06:59:07.000Z</time>
        <extensions>
          <ns3:TrackPointExtension>
            <ns3:atemp>16.0</ns3:atemp>
          </ns3:TrackPointExtension>
        </extensions>
      </trkpt>
      <trkpt lat="42.64570134691894054412841796875" lon="19.9107581935822963714599609375">
        <ele>1118.800048828125</ele>
        <time>2026-06-16T06:59:08.000Z</time>
        <extensions>
          <ns3:TrackPointExtension>
            <ns3:atemp>16.0</ns3:atemp>
          </ns3:TrackPointExtension>
        </extensions>
      </trkpt>
      <trkpt lat="42.6457138359546661376953125" lon="19.91076682694256305694580078125">
        <ele>1119</ele>
        <time>2026-06-16T06:59:09.000Z</time>
        <extensions>
          <ns3:TrackPointExtension>
            <ns3:atemp>16.0</ns3:atemp>
          </ns3:TrackPointExtension>
        </extensions>
      </trkpt>
      <trkpt lat="42.64572716318070888519287109375" lon="19.91076749749481678009033203125">
        <ele>1119.4000244140625</ele>
        <time>2026-06-16T06:59:10.000Z</time>
        <extensions>
          <ns3:TrackPointExtension>
            <ns3:atemp>16.0</ns3:atemp>
          </ns3:TrackPointExtension>
        </extensions>
      </trkpt>
      <trkpt lat="42.6457438431680202484130859375" lon="19.91076238453388214111328125">
        <ele>1119.800048828125</ele>
        <time>2026-06-16T06:59:11.000Z</time>
        <extensions>
          <ns3:TrackPointExtension>
            <ns3:atemp>16.0</ns3:atemp>
          </ns3:TrackPointExtension>
        </extensions>
      </trkpt>
      <trkpt lat="42.6457559131085872650146484375" lon="19.91076280362904071807861328125">
        <ele>1120.199951171875</ele>
        <time>2026-06-16T06:59:12.000Z</time>
        <extensions>
          <ns3:TrackPointExtension>
            <ns3:atemp>16.0</ns3:atemp>
          </ns3:TrackPointExtension>
        </extensions>
      </trkpt>
      <trkpt lat="42.64577007852494716644287109375" lon="19.91076565347611904144287109375">
        <ele>1120.4000244140625</ele>
        <time>2026-06-16T06:59:13.000Z</time>
        <extensions>
          <ns3:TrackPointExtension>
            <ns3:atemp>16.0</ns3:atemp>
          </ns3:TrackPointExtension>
        </extensions>
      </trkpt>
      <trkpt lat="42.6457862555980682373046875" lon="19.9107709340751171112060546875">
        <ele>1120.800048828125</ele>
        <time>2026-06-16T06:59:14.000Z</time>
        <extensions>
          <ns3:TrackPointExtension>
            <ns3:atemp>16.0</ns3:atemp>
          </ns3:TrackPointExtension>
        </extensions>
      </trkpt>
      <trkpt lat="42.64580226503312587738037109375" lon="19.91077587939798831939697265625">
        <ele>1121</ele>
        <time>2026-06-16T06:59:15.000Z</time>
        <extensions>
          <ns3:TrackPointExtension>
            <ns3:atemp>16.0</ns3:atemp>
          </ns3:TrackPointExtension>
        </extensions>
      </trkpt>
      <trkpt lat="42.6458172686398029327392578125" lon="19.910782836377620697021484375">
        <ele>1121.4000244140625</ele>
        <time>2026-06-16T06:59:16.000Z</time>
        <extensions>
          <ns3:TrackPointExtension>
            <ns3:atemp>16.0</ns3:atemp>
          </ns3:TrackPointExtension>
        </extensions>
      </trkpt>
      <trkpt lat="42.64583478681743144989013671875" lon="19.9107903800904750823974609375">
        <ele>1121.5999755859375</ele>
        <time>2026-06-16T06:59:17.000Z</time>
        <extensions>
          <ns3:TrackPointExtension>
            <ns3:atemp>16.0</ns3:atemp>
          </ns3:TrackPointExtension>
        </extensions>
      </trkpt>
      <trkpt lat="42.64585104770958423614501953125" lon="19.9107987619936466217041015625">
        <ele>1121.800048828125</ele>
        <time>2026-06-16T06:59:18.000Z</time>
        <extensions>
          <ns3:TrackPointExtension>
            <ns3:atemp>16.0</ns3:atemp>
          </ns3:TrackPointExtension>
        </extensions>
      </trkpt>
      <trkpt lat="42.64587116427719593048095703125" lon="19.91080907173454761505126953125">
        <ele>1122.199951171875</ele>
        <time>2026-06-16T06:59:19.000Z</time>
        <extensions>
          <ns3:TrackPointExtension>
            <ns3:atemp>16.0</ns3:atemp>
          </ns3:TrackPointExtension>
        </extensions>
      </trkpt>
      <trkpt lat="42.64588843099772930145263671875" lon="19.91081535816192626953125">
        <ele>1122.4000244140625</ele>
        <time>2026-06-16T06:59:20.000Z</time>
        <extensions>
          <ns3:TrackPointExtension>
            <ns3:atemp>16.0</ns3:atemp>
          </ns3:TrackPointExtension>
        </extensions>
      </trkpt>
      <trkpt lat="42.64590452425181865692138671875" lon="19.91082566790282726287841796875">
        <ele>1122.800048828125</ele>
        <time>2026-06-16T06:59:21.000Z</time>
        <extensions>
          <ns3:TrackPointExtension>
            <ns3:atemp>16.0</ns3:atemp>
          </ns3:TrackPointExtension>
        </extensions>
      </trkpt>
      <trkpt lat="42.64592464081943035125732421875" lon="19.91083840839564800262451171875">
        <ele>1123</ele>
        <time>2026-06-16T06:59:22.000Z</time>
        <extensions>
          <ns3:TrackPointExtension>
            <ns3:atemp>16.0</ns3:atemp>
          </ns3:TrackPointExtension>
        </extensions>
      </trkpt>
      <trkpt lat="42.64594308100640773773193359375" lon="19.91085684858262538909912109375">
        <ele>1123.199951171875</ele>
        <time>2026-06-16T06:59:23.000Z</time>
        <extensions>
          <ns3:TrackPointExtension>
            <ns3:atemp>16.0</ns3:atemp>
          </ns3:TrackPointExtension>
        </extensions>
      </trkpt>
      <trkpt lat="42.6459686458110809326171875" lon="19.91087579168379306793212890625">
        <ele>1123.5999755859375</ele>
        <time>2026-06-16T06:59:24.000Z</time>
        <extensions>
          <ns3:TrackPointExtension>
            <ns3:atemp>16.0</ns3:atemp>
          </ns3:TrackPointExtension>
        </extensions>
      </trkpt>
      <trkpt lat="42.64598817564547061920166015625" lon="19.91089515388011932373046875">
        <ele>1124</ele>
        <time>2026-06-16T06:59:25.000Z</time>
        <extensions>
          <ns3:TrackPointExtension>
            <ns3:atemp>16.0</ns3:atemp>
          </ns3:TrackPointExtension>
        </extensions>
      </trkpt>
      <trkpt lat="42.6460053585469722747802734375" lon="19.91091719828546047210693359375">
        <ele>1124.199951171875</ele>
        <time>2026-06-16T06:59:26.000Z</time>
        <extensions>
          <ns3:TrackPointExtension>
            <ns3:atemp>16.0</ns3:atemp>
          </ns3:TrackPointExtension>
        </extensions>
      </trkpt>
      <trkpt lat="42.64602304436266422271728515625" lon="19.910931698977947235107421875">
        <ele>1124.5999755859375</ele>
        <time>2026-06-16T06:59:27.000Z</time>
        <extensions>
          <ns3:TrackPointExtension>
            <ns3:atemp>16.0</ns3:atemp>
          </ns3:TrackPointExtension>
        </extensions>
      </trkpt>
      <trkpt lat="42.646037377417087554931640625" lon="19.91094871424138545989990234375">
        <ele>1124.800048828125</ele>
        <time>2026-06-16T06:59:28.000Z</time>
        <extensions>
          <ns3:TrackPointExtension>
            <ns3:atemp>16.0</ns3:atemp>
          </ns3:TrackPointExtension>
        </extensions>
      </trkpt>
      <trkpt lat="42.6460486091673374176025390625" lon="19.910966567695140838623046875">
        <ele>1125.199951171875</ele>
        <time>2026-06-16T06:59:29.000Z</time>
        <extensions>
          <ns3:TrackPointExtension>
            <ns3:atemp>16.0</ns3:atemp>
          </ns3:TrackPointExtension>
        </extensions>
      </trkpt>
      <trkpt lat="42.64606160111725330352783203125" lon="19.9109964072704315185546875">
        <ele>1125.4000244140625</ele>
        <time>2026-06-16T06:59:30.000Z</time>
        <extensions>
          <ns3:TrackPointExtension>
            <ns3:atemp>16.0</ns3:atemp>
          </ns3:TrackPointExtension>
        </extensions>
      </trkpt>
      <trkpt lat="42.64606914483010768890380859375" lon="19.91102096624672412872314453125">
        <ele>1125.800048828125</ele>
        <time>2026-06-16T06:59:31.000Z</time>
        <extensions>
          <ns3:TrackPointExtension>
            <ns3:atemp>16.0</ns3:atemp>
          </ns3:TrackPointExtension>
        </extensions>
      </trkpt>
      <trkpt lat="42.6460774429142475128173828125" lon="19.91104267537593841552734375">
        <ele>1126</ele>
        <time>2026-06-16T06:59:32.000Z</time>
        <extensions>
          <ns3:TrackPointExtension>
            <ns3:atemp>16.0</ns3:atemp>
          </ns3:TrackPointExtension>
        </extensions>
      </trkpt>
      <trkpt lat="42.64608599245548248291015625" lon="19.9110663123428821563720703125">
        <ele>1126.4000244140625</ele>
        <time>2026-06-16T06:59:33.000Z</time>
        <extensions>
          <ns3:TrackPointExtension>
            <ns3:atemp>16.0</ns3:atemp>
          </ns3:TrackPointExtension>
        </extensions>
      </trkpt>
      <trkpt lat="42.6460888423025608062744140625" lon="19.91109321825206279754638671875">
        <ele>1126.800048828125</ele>
        <time>2026-06-16T06:59:34.000Z</time>
        <extensions>
          <ns3:TrackPointExtension>
            <ns3:atemp>16.0</ns3:atemp>
          </ns3:TrackPointExtension>
        </extensions>
      </trkpt>
      <trkpt lat="42.64609261415898799896240234375" lon="19.9111197888851165771484375">
        <ele>1127</ele>
        <time>2026-06-16T06:59:35.000Z</time>
        <extensions>
          <ns3:TrackPointExtension>
            <ns3:atemp>16.0</ns3:atemp>
          </ns3:TrackPointExtension>
        </extensions>
      </trkpt>
      <trkpt lat="42.64609529636800289154052734375" lon="19.91114686243236064910888671875">
        <ele>1127.199951171875</ele>
        <time>2026-06-16T06:59:36.000Z</time>
        <extensions>
          <ns3:TrackPointExtension>
            <ns3:atemp>16.0</ns3:atemp>
          </ns3:TrackPointExtension>
        </extensions>
      </trkpt>
      <trkpt lat="42.64609797857701778411865234375" lon="19.91117854602634906768798828125">
        <ele>1127.4000244140625</ele>
        <time>2026-06-16T06:59:37.000Z</time>
        <extensions>
          <ns3:TrackPointExtension>
            <ns3:atemp>16.0</ns3:atemp>
          </ns3:TrackPointExtension>
        </extensions>
      </trkpt>
      <trkpt lat="42.64610284008085727691650390625" lon="19.9112069606781005859375">
        <ele>1127.5999755859375</ele>
        <time>2026-06-16T06:59:38.000Z</time>
        <extensions>
          <ns3:TrackPointExtension>
            <ns3:atemp>16.0</ns3:atemp>
          </ns3:TrackPointExtension>
        </extensions>
      </trkpt>
      <trkpt lat="42.64610946178436279296875" lon="19.91123177111148834228515625">
        <ele>1127.800048828125</ele>
        <time>2026-06-16T06:59:39.000Z</time>
        <extensions>
          <ns3:TrackPointExtension>
            <ns3:atemp>16.0</ns3:atemp>
          </ns3:TrackPointExtension>
        </extensions>
      </trkpt>
      <trkpt lat="42.64611373655498027801513671875" lon="19.91125616244971752166748046875">
        <ele>1128.199951171875</ele>
        <time>2026-06-16T06:59:40.000Z</time>
        <extensions>
          <ns3:TrackPointExtension>
            <ns3:atemp>16.0</ns3:atemp>
          </ns3:TrackPointExtension>
        </extensions>
      </trkpt>
      <trkpt lat="42.646124549210071563720703125" lon="19.9112842418253421783447265625">
        <ele>1128.4000244140625</ele>
        <time>2026-06-16T06:59:41.000Z</time>
        <extensions>
          <ns3:TrackPointExtension>
            <ns3:atemp>16.0</ns3:atemp>
          </ns3:TrackPointExtension>
        </extensions>
      </trkpt>
      <trkpt lat="42.64613184146583080291748046875" lon="19.9113129079341888427734375">
        <ele>1128.5999755859375</ele>
        <time>2026-06-16T06:59:42.000Z</time>
        <extensions>
          <ns3:TrackPointExtension>
            <ns3:atemp>16.0</ns3:atemp>
          </ns3:TrackPointExtension>
        </extensions>
      </trkpt>
      <trkpt lat="42.64613821171224117279052734375" lon="19.91134299896657466888427734375">
        <ele>1128.800048828125</ele>
        <time>2026-06-16T06:59:43.000Z</time>
        <extensions>
          <ns3:TrackPointExtension>
            <ns3:atemp>16.0</ns3:atemp>
          </ns3:TrackPointExtension>
        </extensions>
      </trkpt>
      <trkpt lat="42.64614743180572986602783203125" lon="19.911367893218994140625">
        <ele>1129</ele>
        <time>2026-06-16T06:59:44.000Z</time>
        <extensions>
          <ns3:TrackPointExtension>
            <ns3:atemp>16.0</ns3:atemp>
          </ns3:TrackPointExtension>
        </extensions>
      </trkpt>
      <trkpt lat="42.6461565680801868438720703125" lon="19.91138675250113010406494140625">
        <ele>1129.4000244140625</ele>
        <time>2026-06-16T06:59:45.000Z</time>
        <extensions>
          <ns3:TrackPointExtension>
            <ns3:atemp>16.0</ns3:atemp>
          </ns3:TrackPointExtension>
        </extensions>
      </trkpt>
      <trkpt lat="42.64616671018302440643310546875" lon="19.91140804253518581390380859375">
        <ele>1129.5999755859375</ele>
        <time>2026-06-16T06:59:46.000Z</time>
        <extensions>
          <ns3:TrackPointExtension>
            <ns3:atemp>16.0</ns3:atemp>
          </ns3:TrackPointExtension>
        </extensions>
      </trkpt>
      <trkpt lat="42.64617509208619594573974609375" lon="19.91142782382667064666748046875">
        <ele>1129.800048828125</ele>
        <time>2026-06-16T06:59:47.000Z</time>
        <extensions>
          <ns3:TrackPointExtension>
            <ns3:atemp>16.0</ns3:atemp>
          </ns3:TrackPointExtension>
        </extensions>
      </trkpt>
      <trkpt lat="42.64618548564612865447998046875" lon="19.91145447827875614166259765625">
        <ele>1130.199951171875</ele>
        <time>2026-06-16T06:59:48.000Z</time>
        <extensions>
          <ns3:TrackPointExtension>
            <ns3:atemp>16.0</ns3:atemp>
          </ns3:TrackPointExtension>
        </extensions>
      </trkpt>
      <trkpt lat="42.6461937837302684783935546875" lon="19.911474175751209259033203125">
        <ele>1130.4000244140625</ele>
        <time>2026-06-16T06:59:49.000Z</time>
        <extensions>
          <ns3:TrackPointExtension>
            <ns3:atemp>16.0</ns3:atemp>
          </ns3:TrackPointExtension>
        </extensions>
      </trkpt>
      <trkpt lat="42.64620141126215457916259765625" lon="19.9114907719194889068603515625">
        <ele>1130.800048828125</ele>
        <time>2026-06-16T06:59:50.000Z</time>
        <extensions>
          <ns3:TrackPointExtension>
            <ns3:atemp>16.0</ns3:atemp>
          </ns3:TrackPointExtension>
        </extensions>
      </trkpt>
      <trkpt lat="42.64620811678469181060791015625" lon="19.911508373916149139404296875">
        <ele>1131</ele>
        <time>2026-06-16T06:59:51.000Z</time>
        <extensions>
          <ns3:TrackPointExtension>
            <ns3:atemp>16.0</ns3:atemp>
          </ns3:TrackPointExtension>
        </extensions>
      </trkpt>
      <trkpt lat="42.6462165825068950653076171875" lon="19.91153360344469547271728515625">
        <ele>1131.199951171875</ele>
        <time>2026-06-16T06:59:52.000Z</time>
        <extensions>
          <ns3:TrackPointExtension>
            <ns3:atemp>16.0</ns3:atemp>
          </ns3:TrackPointExtension>
        </extensions>
      </trkpt>
      <trkpt lat="42.64622571878135204315185546875" lon="19.911552965641021728515625">
        <ele>1131.5999755859375</ele>
        <time>2026-06-16T06:59:53.000Z</time>
        <extensions>
          <ns3:TrackPointExtension>
            <ns3:atemp>16.0</ns3:atemp>
          </ns3:TrackPointExtension>
        </extensions>
      </trkpt>
      <trkpt lat="42.64623376540839672088623046875" lon="19.91157509386539459228515625">
        <ele>1131.800048828125</ele>
        <time>2026-06-16T06:59:54.000Z</time>
        <extensions>
          <ns3:TrackPointExtension>
            <ns3:atemp>16.0</ns3:atemp>
          </ns3:TrackPointExtension>
        </extensions>
      </trkpt>
      <trkpt lat="42.64624231494963169097900390625" lon="19.9115967191755771636962890625">
        <ele>1132.199951171875</ele>
        <time>2026-06-16T06:59:55.000Z</time>
        <extensions>
          <ns3:TrackPointExtension>
            <ns3:atemp>16.0</ns3:atemp>
          </ns3:TrackPointExtension>
        </extensions>
      </trkpt>
      <trkpt lat="42.646248601377010345458984375" lon="19.9116205237805843353271484375">
        <ele>1132.4000244140625</ele>
        <time>2026-06-16T06:59:56.000Z</time>
        <extensions>
          <ns3:TrackPointExtension>
            <ns3:atemp>16.0</ns3:atemp>
          </ns3:TrackPointExtension>
        </extensions>
      </trkpt>
      <trkpt lat="42.6462578214704990386962890625" lon="19.9116413109004497528076171875">
        <ele>1132.5999755859375</ele>
        <time>2026-06-16T06:59:57.000Z</time>
        <extensions>
          <ns3:TrackPointExtension>
            <ns3:atemp>16.0</ns3:atemp>
          </ns3:TrackPointExtension>
        </extensions>
      </trkpt>
      <trkpt lat="42.64626913703978061676025390625" lon="19.91166436113417148590087890625">
        <ele>1133</ele>
        <time>2026-06-16T06:59:58.000Z</time>
        <extensions>
          <ns3:TrackPointExtension>
            <ns3:atemp>16.0</ns3:atemp>
          </ns3:TrackPointExtension>
        </extensions>
      </trkpt>
      <trkpt lat="42.64627802185714244842529296875" lon="19.91168640553951263427734375">
        <ele>1133.199951171875</ele>
        <time>2026-06-16T06:59:59.000Z</time>
        <extensions>
          <ns3:TrackPointExtension>
            <ns3:atemp>16.0</ns3:atemp>
          </ns3:TrackPointExtension>
        </extensions>
      </trkpt>
      <trkpt lat="42.6462873257696628570556640625" lon="19.91170560009777545928955078125">
        <ele>1133.4000244140625</ele>
        <time>2026-06-16T07:00:00.000Z</time>
        <extensions>
          <ns3:TrackPointExtension>
            <ns3:atemp>16.0</ns3:atemp>
          </ns3:TrackPointExtension>
        </extensions>
      </trkpt>
      <trkpt lat="42.6462980546057224273681640625" lon="19.91172420792281627655029296875">
        <ele>1133.800048828125</ele>
        <time>2026-06-16T07:00:01.000Z</time>
        <extensions>
          <ns3:TrackPointExtension>
            <ns3:atemp>16.0</ns3:atemp>
          </ns3:TrackPointExtension>
        </extensions>
      </trkpt>
      <trkpt lat="42.64630869962275028228759765625" lon="19.9117432348430156707763671875">
        <ele>1134.199951171875</ele>
        <time>2026-06-16T07:00:02.000Z</time>
        <extensions>
          <ns3:TrackPointExtension>
            <ns3:atemp>16.0</ns3:atemp>
          </ns3:TrackPointExtension>
        </extensions>
      </trkpt>
      <trkpt lat="42.64631859026849269866943359375" lon="19.9117586575448513031005859375">
        <ele>1134.4000244140625</ele>
        <time>2026-06-16T07:00:03.000Z</time>
        <extensions>
          <ns3:TrackPointExtension>
            <ns3:atemp>16.0</ns3:atemp>
          </ns3:TrackPointExtension>
        </extensions>
      </trkpt>
      <trkpt lat="42.646326385438442230224609375" lon="19.91177416406571865081787109375">
        <ele>1134.5999755859375</ele>
        <time>2026-06-16T07:00:04.000Z</time>
        <extensions>
          <ns3:TrackPointExtension>
            <ns3:atemp>16.0</ns3:atemp>
          </ns3:TrackPointExtension>
        </extensions>
      </trkpt>
      <trkpt lat="42.646335102617740631103515625" lon="19.911792017519474029541015625">
        <ele>1135</ele>
        <time>2026-06-16T07:00:05.000Z</time>
        <extensions>
          <ns3:TrackPointExtension>
            <ns3:atemp>16.0</ns3:atemp>
          </ns3:TrackPointExtension>
        </extensions>
      </trkpt>
      <trkpt lat="42.64634742401540279388427734375" lon="19.91181121207773685455322265625">
        <ele>1135.199951171875</ele>
        <time>2026-06-16T07:00:06.000Z</time>
        <extensions>
          <ns3:TrackPointExtension>
            <ns3:atemp>16.0</ns3:atemp>
          </ns3:TrackPointExtension>
        </extensions>
      </trkpt>
      <trkpt lat="42.64635731466114521026611328125" lon="19.91182914935052394866943359375">
        <ele>1135.5999755859375</ele>
        <time>2026-06-16T07:00:07.000Z</time>
        <extensions>
          <ns3:TrackPointExtension>
            <ns3:atemp>16.0</ns3:atemp>
          </ns3:TrackPointExtension>
        </extensions>
      </trkpt>
      <trkpt lat="42.64636904932558536529541015625" lon="19.91184842772781848907470703125">
        <ele>1135.800048828125</ele>
        <time>2026-06-16T07:00:08.000Z</time>
        <extensions>
          <ns3:TrackPointExtension>
            <ns3:atemp>16.0</ns3:atemp>
          </ns3:TrackPointExtension>
        </extensions>
      </trkpt>
      <trkpt lat="42.646383382380008697509765625" lon="19.9118659459054470062255859375">
        <ele>1136.199951171875</ele>
        <time>2026-06-16T07:00:09.000Z</time>
        <extensions>
          <ns3:TrackPointExtension>
            <ns3:atemp>16.0</ns3:atemp>
          </ns3:TrackPointExtension>
        </extensions>
      </trkpt>
      <trkpt lat="42.64639838598668575286865234375" lon="19.9118853919208049774169921875">
        <ele>1136.4000244140625</ele>
        <time>2026-06-16T07:00:10.000Z</time>
        <extensions>
          <ns3:TrackPointExtension>
            <ns3:atemp>16.0</ns3:atemp>
          </ns3:TrackPointExtension>
        </extensions>
      </trkpt>
      <trkpt lat="42.64641053974628448486328125" lon="19.91190902888774871826171875">
        <ele>1136.5999755859375</ele>
        <time>2026-06-16T07:00:11.000Z</time>
        <extensions>
          <ns3:TrackPointExtension>
            <ns3:atemp>16.0</ns3:atemp>
          </ns3:TrackPointExtension>
        </extensions>
      </trkpt>
      <trkpt lat="42.64641883783042430877685546875" lon="19.91193450987339019775390625">
        <ele>1137</ele>
        <time>2026-06-16T07:00:12.000Z</time>
        <extensions>
          <ns3:TrackPointExtension>
            <ns3:atemp>15.0</ns3:atemp>
          </ns3:TrackPointExtension>
        </extensions>
      </trkpt>
      <trkpt lat="42.6464274711906909942626953125" lon="19.91195906884968280792236328125">
        <ele>1137.199951171875</ele>
        <time>2026-06-16T07:00:13.000Z</time>
        <extensions>
          <ns3:TrackPointExtension>
            <ns3:atemp>15.0</ns3:atemp>
          </ns3:TrackPointExtension>
        </extensions>
      </trkpt>
      <trkpt lat="42.646437697112560272216796875" lon="19.9119861423969268798828125">
        <ele>1137.4000244140625</ele>
        <time>2026-06-16T07:00:14.000Z</time>
        <extensions>
          <ns3:TrackPointExtension>
            <ns3:atemp>15.0</ns3:atemp>
          </ns3:TrackPointExtension>
        </extensions>
      </trkpt>
      <trkpt lat="42.64644783921539783477783203125" lon="19.9120091088116168975830078125">
        <ele>1137.5999755859375</ele>
        <time>2026-06-16T07:00:15.000Z</time>
        <extensions>
          <ns3:TrackPointExtension>
            <ns3:atemp>16.0</ns3:atemp>
          </ns3:TrackPointExtension>
        </extensions>
      </trkpt>
      <trkpt lat="42.64645772986114025115966796875" lon="19.9120359309017658233642578125">
        <ele>1138</ele>
        <time>2026-06-16T07:00:16.000Z</time>
        <extensions>
          <ns3:TrackPointExtension>
            <ns3:atemp>16.0</ns3:atemp>
          </ns3:TrackPointExtension>
        </extensions>
      </trkpt>
      <trkpt lat="42.646469213068485260009765625" lon="19.91205965168774127960205078125">
        <ele>1138.199951171875</ele>
        <time>2026-06-16T07:00:17.000Z</time>
        <extensions>
          <ns3:TrackPointExtension>
            <ns3:atemp>16.0</ns3:atemp>
          </ns3:TrackPointExtension>
        </extensions>
      </trkpt>
      <trkpt lat="42.64648295938968658447265625" lon="19.912084378302097320556640625">
        <ele>1138.4000244140625</ele>
        <time>2026-06-16T07:00:18.000Z</time>
        <extensions>
          <ns3:TrackPointExtension>
            <ns3:atemp>16.0</ns3:atemp>
          </ns3:TrackPointExtension>
        </extensions>
      </trkpt>
      <trkpt lat="42.64649645425379276275634765625" lon="19.91211111657321453094482421875">
        <ele>1138.5999755859375</ele>
        <time>2026-06-16T07:00:19.000Z</time>
        <extensions>
          <ns3:TrackPointExtension>
            <ns3:atemp>16.0</ns3:atemp>
          </ns3:TrackPointExtension>
        </extensions>
      </trkpt>
      <trkpt lat="42.64650768600404262542724609375" lon="19.91214162670075893402099609375">
        <ele>1138.800048828125</ele>
        <time>2026-06-16T07:00:20.000Z</time>
        <extensions>
          <ns3:TrackPointExtension>
            <ns3:atemp>16.0</ns3:atemp>
          </ns3:TrackPointExtension>
        </extensions>
      </trkpt>
      <trkpt lat="42.64652092941105365753173828125" lon="19.91216710768640041351318359375">
        <ele>1139</ele>
        <time>2026-06-16T07:00:21.000Z</time>
        <extensions>
          <ns3:TrackPointExtension>
            <ns3:atemp>16.0</ns3:atemp>
          </ns3:TrackPointExtension>
        </extensions>
      </trkpt>
      <trkpt lat="42.6465332508087158203125" lon="19.91219275631010532379150390625">
        <ele>1139.199951171875</ele>
        <time>2026-06-16T07:00:22.000Z</time>
        <extensions>
          <ns3:TrackPointExtension>
            <ns3:atemp>16.0</ns3:atemp>
          </ns3:TrackPointExtension>
        </extensions>
      </trkpt>
      <trkpt lat="42.6465441472828388214111328125" lon="19.91221186704933643341064453125">
        <ele>1139.4000244140625</ele>
        <time>2026-06-16T07:00:23.000Z</time>
        <extensions>
          <ns3:TrackPointExtension>
            <ns3:atemp>16.0</ns3:atemp>
          </ns3:TrackPointExtension>
        </extensions>
      </trkpt>
      <trkpt lat="42.64655529521405696868896484375" lon="19.9122347496449947357177734375">
        <ele>1139.5999755859375</ele>
        <time>2026-06-16T07:00:24.000Z</time>
        <extensions>
          <ns3:TrackPointExtension>
            <ns3:atemp>16.0</ns3:atemp>
          </ns3:TrackPointExtension>
        </extensions>
      </trkpt>
      <trkpt lat="42.64656610786914825439453125" lon="19.91225763224065303802490234375">
        <ele>1139.800048828125</ele>
        <time>2026-06-16T07:00:25.000Z</time>
        <extensions>
          <ns3:TrackPointExtension>
            <ns3:atemp>16.0</ns3:atemp>
          </ns3:TrackPointExtension>
        </extensions>
      </trkpt>
      <trkpt lat="42.64657457359135150909423828125" lon="19.912277497351169586181640625">
        <ele>1140.199951171875</ele>
        <time>2026-06-16T07:00:26.000Z</time>
        <extensions>
          <ns3:TrackPointExtension>
            <ns3:atemp>15.0</ns3:atemp>
          </ns3:TrackPointExtension>
        </extensions>
      </trkpt>
      <trkpt lat="42.6465870626270771026611328125" lon="19.91229333914816379547119140625">
        <ele>1140.4000244140625</ele>
        <time>2026-06-16T07:00:27.000Z</time>
        <extensions>
          <ns3:TrackPointExtension>
            <ns3:atemp>16.0</ns3:atemp>
          </ns3:TrackPointExtension>
        </extensions>
      </trkpt>
      <trkpt lat="42.64659737236797809600830078125" lon="19.91230859421193599700927734375">
        <ele>1140.5999755859375</ele>
        <time>2026-06-16T07:00:28.000Z</time>
        <extensions>
          <ns3:TrackPointExtension>
            <ns3:atemp>16.0</ns3:atemp>
          </ns3:TrackPointExtension>
        </extensions>
      </trkpt>
      <trkpt lat="42.6466041617095470428466796875" lon="19.9123262800276279449462890625">
        <ele>1140.800048828125</ele>
        <time>2026-06-16T07:00:29.000Z</time>
        <extensions>
          <ns3:TrackPointExtension>
            <ns3:atemp>16.0</ns3:atemp>
          </ns3:TrackPointExtension>
        </extensions>
      </trkpt>
      <trkpt lat="42.6466132141649723052978515625" lon="19.912336170673370361328125">
        <ele>1141</ele>
        <time>2026-06-16T07:00:30.000Z</time>
        <extensions>
          <ns3:TrackPointExtension>
            <ns3:atemp>16.0</ns3:atemp>
          </ns3:TrackPointExtension>
        </extensions>
      </trkpt>
      <trkpt lat="42.64662603847682476043701171875" lon="19.9123547784984111785888671875">
        <ele>1141.4000244140625</ele>
        <time>2026-06-16T07:00:31.000Z</time>
        <extensions>
          <ns3:TrackPointExtension>
            <ns3:atemp>16.0</ns3:atemp>
          </ns3:TrackPointExtension>
        </extensions>
      </trkpt>
      <trkpt lat="42.64664120972156524658203125" lon="19.9123678542673587799072265625">
        <ele>1141.5999755859375</ele>
        <time>2026-06-16T07:00:32.000Z</time>
        <extensions>
          <ns3:TrackPointExtension>
            <ns3:atemp>16.0</ns3:atemp>
          </ns3:TrackPointExtension>
        </extensions>
      </trkpt>
      <trkpt lat="42.64665621332824230194091796875" lon="19.9123849533498287200927734375">
        <ele>1142</ele>
        <time>2026-06-16T07:00:33.000Z</time>
        <extensions>
          <ns3:TrackPointExtension>
            <ns3:atemp>16.0</ns3:atemp>
          </ns3:TrackPointExtension>
        </extensions>
      </trkpt>
      <trkpt lat="42.6466692052781581878662109375" lon="19.91240381263196468353271484375">
        <ele>1142.199951171875</ele>
        <time>2026-06-16T07:00:34.000Z</time>
        <extensions>
          <ns3:TrackPointExtension>
            <ns3:atemp>16.0</ns3:atemp>
          </ns3:TrackPointExtension>
        </extensions>
      </trkpt>
      <trkpt lat="42.6466839574277400970458984375" lon="19.91242225281894207000732421875">
        <ele>1142.5999755859375</ele>
        <time>2026-06-16T07:00:35.000Z</time>
        <extensions>
          <ns3:TrackPointExtension>
            <ns3:atemp>16.0</ns3:atemp>
          </ns3:TrackPointExtension>
        </extensions>
      </trkpt>
      <trkpt lat="42.64669954776763916015625" lon="19.9124367535114288330078125">
        <ele>1142.800048828125</ele>
        <time>2026-06-16T07:00:36.000Z</time>
        <extensions>
          <ns3:TrackPointExtension>
            <ns3:atemp>16.0</ns3:atemp>
          </ns3:TrackPointExtension>
        </extensions>
      </trkpt>
      <trkpt lat="42.646714635193347930908203125" lon="19.912451170384883880615234375">
        <ele>1143.199951171875</ele>
        <time>2026-06-16T07:00:37.000Z</time>
        <extensions>
          <ns3:TrackPointExtension>
            <ns3:atemp>16.0</ns3:atemp>
          </ns3:TrackPointExtension>
        </extensions>
      </trkpt>
      <trkpt lat="42.6467329077422618865966796875" lon="19.9124647490680217742919921875">
        <ele>1143.5999755859375</ele>
        <time>2026-06-16T07:00:38.000Z</time>
        <extensions>
          <ns3:TrackPointExtension>
            <ns3:atemp>16.0</ns3:atemp>
          </ns3:TrackPointExtension>
        </extensions>
      </trkpt>
      <trkpt lat="42.6467513479292392730712890625" lon="19.9124734662473201751708984375">
        <ele>1144</ele>
        <time>2026-06-16T07:00:39.000Z</time>
        <extensions>
          <ns3:TrackPointExtension>
            <ns3:atemp>16.0</ns3:atemp>
          </ns3:TrackPointExtension>
        </extensions>
      </trkpt>
      <trkpt lat="42.6467644236981868743896484375" lon="19.91249131970107555389404296875">
        <ele>1144.199951171875</ele>
        <time>2026-06-16T07:00:40.000Z</time>
        <extensions>
          <ns3:TrackPointExtension>
            <ns3:atemp>16.0</ns3:atemp>
          </ns3:TrackPointExtension>
        </extensions>
      </trkpt>
      <trkpt lat="42.64677800238132476806640625" lon="19.91251051425933837890625">
        <ele>1144.5999755859375</ele>
        <time>2026-06-16T07:00:41.000Z</time>
        <extensions>
          <ns3:TrackPointExtension>
            <ns3:atemp>16.0</ns3:atemp>
          </ns3:TrackPointExtension>
        </extensions>
      </trkpt>
      <trkpt lat="42.6467976160347461700439453125" lon="19.91252417676150798797607421875">
        <ele>1144.800048828125</ele>
        <time>2026-06-16T07:00:42.000Z</time>
        <extensions>
          <ns3:TrackPointExtension>
            <ns3:atemp>16.0</ns3:atemp>
          </ns3:TrackPointExtension>
        </extensions>
      </trkpt>
      <trkpt lat="42.64680826105177402496337890625" lon="19.91254496388137340545654296875">
        <ele>1145.199951171875</ele>
        <time>2026-06-16T07:00:43.000Z</time>
        <extensions>
          <ns3:TrackPointExtension>
            <ns3:atemp>16.0</ns3:atemp>
          </ns3:TrackPointExtension>
        </extensions>
      </trkpt>
      <trkpt lat="42.64681949280202388763427734375" lon="19.91256474517285823822021484375">
        <ele>1145.5999755859375</ele>
        <time>2026-06-16T07:00:44.000Z</time>
        <extensions>
          <ns3:TrackPointExtension>
            <ns3:atemp>16.0</ns3:atemp>
          </ns3:TrackPointExtension>
        </extensions>
      </trkpt>
      <trkpt lat="42.64683030545711517333984375" lon="19.9125891365110874176025390625">
        <ele>1146</ele>
        <time>2026-06-16T07:00:45.000Z</time>
        <extensions>
          <ns3:TrackPointExtension>
            <ns3:atemp>16.0</ns3:atemp>
          </ns3:TrackPointExtension>
        </extensions>
      </trkpt>
      <trkpt lat="42.6468465663492679595947265625" lon="19.912608079612255096435546875">
        <ele>1146.4000244140625</ele>
        <time>2026-06-16T07:00:46.000Z</time>
        <extensions>
          <ns3:TrackPointExtension>
            <ns3:atemp>16.0</ns3:atemp>
          </ns3:TrackPointExtension>
        </extensions>
      </trkpt>
      <trkpt lat="42.6468619890511035919189453125" lon="19.9126271903514862060546875">
        <ele>1146.5999755859375</ele>
        <time>2026-06-16T07:00:47.000Z</time>
        <extensions>
          <ns3:TrackPointExtension>
            <ns3:atemp>16.0</ns3:atemp>
          </ns3:TrackPointExtension>
        </extensions>
      </trkpt>
      <trkpt lat="42.6468834467232227325439453125" lon="19.912647642195224761962890625">
        <ele>1147</ele>
        <time>2026-06-16T07:00:48.000Z</time>
        <extensions>
          <ns3:TrackPointExtension>
            <ns3:atemp>16.0</ns3:atemp>
          </ns3:TrackPointExtension>
        </extensions>
      </trkpt>
      <trkpt lat="42.6468966901302337646484375" lon="19.91266683675348758697509765625">
        <ele>1147.199951171875</ele>
        <time>2026-06-16T07:00:49.000Z</time>
        <extensions>
          <ns3:TrackPointExtension>
            <ns3:atemp>16.0</ns3:atemp>
          </ns3:TrackPointExtension>
        </extensions>
      </trkpt>
      <trkpt lat="42.646913118660449981689453125" lon="19.9126897193491458892822265625">
        <ele>1147.4000244140625</ele>
        <time>2026-06-16T07:00:50.000Z</time>
        <extensions>
          <ns3:TrackPointExtension>
            <ns3:atemp>16.0</ns3:atemp>
          </ns3:TrackPointExtension>
        </extensions>
      </trkpt>
      <trkpt lat="42.6469310559332370758056640625" lon="19.91271260194480419158935546875">
        <ele>1147.5999755859375</ele>
        <time>2026-06-16T07:00:51.000Z</time>
        <extensions>
          <ns3:TrackPointExtension>
            <ns3:atemp>16.0</ns3:atemp>
          </ns3:TrackPointExtension>
        </extensions>
      </trkpt>
      <trkpt lat="42.646945305168628692626953125" lon="19.9127269349992275238037109375">
        <ele>1147.800048828125</ele>
        <time>2026-06-16T07:00:52.000Z</time>
        <extensions>
          <ns3:TrackPointExtension>
            <ns3:atemp>16.0</ns3:atemp>
          </ns3:TrackPointExtension>
        </extensions>
      </trkpt>
      <trkpt lat="42.6469625718891620635986328125" lon="19.91274395026266574859619140625">
        <ele>1148</ele>
        <time>2026-06-16T07:00:53.000Z</time>
        <extensions>
          <ns3:TrackPointExtension>
            <ns3:atemp>16.0</ns3:atemp>
          </ns3:TrackPointExtension>
        </extensions>
      </trkpt>
      <trkpt lat="42.646979503333568572998046875" lon="19.91275794804096221923828125">
        <ele>1148.199951171875</ele>
        <time>2026-06-16T07:00:54.000Z</time>
        <extensions>
          <ns3:TrackPointExtension>
            <ns3:atemp>16.0</ns3:atemp>
          </ns3:TrackPointExtension>
        </extensions>
      </trkpt>
      <trkpt lat="42.64699584804475307464599609375" lon="19.91277462802827358245849609375">
        <ele>1148.4000244140625</ele>
        <time>2026-06-16T07:00:55.000Z</time>
        <extensions>
          <ns3:TrackPointExtension>
            <ns3:atemp>16.0</ns3:atemp>
          </ns3:TrackPointExtension>
        </extensions>
      </trkpt>
      <trkpt lat="42.64701110310852527618408203125" lon="19.912790469825267791748046875">
        <ele>1148.5999755859375</ele>
        <time>2026-06-16T07:00:56.000Z</time>
        <extensions>
          <ns3:TrackPointExtension>
            <ns3:atemp>16.0</ns3:atemp>
          </ns3:TrackPointExtension>
        </extensions>
      </trkpt>
      <trkpt lat="42.6470282860100269317626953125" lon="19.912808239459991455078125">
        <ele>1148.800048828125</ele>
        <time>2026-06-16T07:00:57.000Z</time>
        <extensions>
          <ns3:TrackPointExtension>
            <ns3:atemp>16.0</ns3:atemp>
          </ns3:TrackPointExtension>
        </extensions>
      </trkpt>
      <trkpt lat="42.64704412780702114105224609375" lon="19.91282106377184391021728515625">
        <ele>1149</ele>
        <time>2026-06-16T07:00:58.000Z</time>
        <extensions>
          <ns3:TrackPointExtension>
            <ns3:atemp>16.0</ns3:atemp>
          </ns3:TrackPointExtension>
        </extensions>
      </trkpt>
      <trkpt lat="42.64705804176628589630126953125" lon="19.91283346898853778839111328125">
        <ele>1149.199951171875</ele>
        <time>2026-06-16T07:00:59.000Z</time>
        <extensions>
          <ns3:TrackPointExtension>
            <ns3:atemp>16.0</ns3:atemp>
          </ns3:TrackPointExtension>
        </extensions>
      </trkpt>
      <trkpt lat="42.64707505702972412109375" lon="19.91284268908202648162841796875">
        <ele>1149.4000244140625</ele>
        <time>2026-06-16T07:01:00.000Z</time>
        <extensions>
          <ns3:TrackPointExtension>
            <ns3:atemp>16.0</ns3:atemp>
          </ns3:TrackPointExtension>
        </extensions>
      </trkpt>
      <trkpt lat="42.64709525741636753082275390625" lon="19.91284889169037342071533203125">
        <ele>1149.5999755859375</ele>
        <time>2026-06-16T07:01:01.000Z</time>
        <extensions>
          <ns3:TrackPointExtension>
            <ns3:atemp>16.0</ns3:atemp>
          </ns3:TrackPointExtension>
        </extensions>
      </trkpt>
      <trkpt lat="42.64711118303239345550537109375" lon="19.912855513393878936767578125">
        <ele>1149.800048828125</ele>
        <time>2026-06-16T07:01:02.000Z</time>
        <extensions>
          <ns3:TrackPointExtension>
            <ns3:atemp>16.0</ns3:atemp>
          </ns3:TrackPointExtension>
        </extensions>
      </trkpt>
      <trkpt lat="42.647126354277133941650390625" lon="19.912864230573177337646484375">
        <ele>1150.199951171875</ele>
        <time>2026-06-16T07:01:03.000Z</time>
        <extensions>
          <ns3:TrackPointExtension>
            <ns3:atemp>16.0</ns3:atemp>
          </ns3:TrackPointExtension>
        </extensions>
      </trkpt>
      <trkpt lat="42.6471407711505889892578125" lon="19.9128674156963825225830078125">
        <ele>1150.4000244140625</ele>
        <time>2026-06-16T07:01:04.000Z</time>
        <extensions>
          <ns3:TrackPointExtension>
            <ns3:atemp>16.0</ns3:atemp>
          </ns3:TrackPointExtension>
        </extensions>
      </trkpt>
      <trkpt lat="42.64715887606143951416015625" lon="19.91287621669471263885498046875">
        <ele>1150.800048828125</ele>
        <time>2026-06-16T07:01:05.000Z</time>
        <extensions>
          <ns3:TrackPointExtension>
            <ns3:atemp>16.0</ns3:atemp>
          </ns3:TrackPointExtension>
        </extensions>
      </trkpt>
      <trkpt lat="42.64717270620167255401611328125" lon="19.91287839598953723907470703125">
        <ele>1151</ele>
        <time>2026-06-16T07:01:06.000Z</time>
        <extensions>
          <ns3:TrackPointExtension>
            <ns3:atemp>16.0</ns3:atemp>
          </ns3:TrackPointExtension>
        </extensions>
      </trkpt>
      <trkpt lat="42.6471858657896518707275390625" lon="19.9128841795027256011962890625">
        <ele>1151.4000244140625</ele>
        <time>2026-06-16T07:01:07.000Z</time>
        <extensions>
          <ns3:TrackPointExtension>
            <ns3:atemp>16.0</ns3:atemp>
          </ns3:TrackPointExtension>
        </extensions>
      </trkpt>
      <trkpt lat="42.64719818718731403350830078125" lon="19.91288107819855213165283203125">
        <ele>1151.800048828125</ele>
        <time>2026-06-16T07:01:08.000Z</time>
        <extensions>
          <ns3:TrackPointExtension>
            <ns3:atemp>16.0</ns3:atemp>
          </ns3:TrackPointExtension>
        </extensions>
      </trkpt>
      <trkpt lat="42.64721377752721309661865234375" lon="19.91287906654179096221923828125">
        <ele>1152</ele>
        <time>2026-06-16T07:01:09.000Z</time>
        <extensions>
          <ns3:TrackPointExtension>
            <ns3:atemp>16.0</ns3:atemp>
          </ns3:TrackPointExtension>
        </extensions>
      </trkpt>
      <trkpt lat="42.64723238535225391387939453125" lon="19.91287906654179096221923828125">
        <ele>1152.4000244140625</ele>
        <time>2026-06-16T07:01:10.000Z</time>
        <extensions>
          <ns3:TrackPointExtension>
            <ns3:atemp>16.0</ns3:atemp>
          </ns3:TrackPointExtension>
        </extensions>
      </trkpt>
      <trkpt lat="42.64725082553923130035400390625" lon="19.91287940181791782379150390625">
        <ele>1152.5999755859375</ele>
        <time>2026-06-16T07:01:11.000Z</time>
        <extensions>
          <ns3:TrackPointExtension>
            <ns3:atemp>16.0</ns3:atemp>
          </ns3:TrackPointExtension>
        </extensions>
      </trkpt>
      <trkpt lat="42.64726859517395496368408203125" lon="19.912875629961490631103515625">
        <ele>1153</ele>
        <time>2026-06-16T07:01:12.000Z</time>
        <extensions>
          <ns3:TrackPointExtension>
            <ns3:atemp>16.0</ns3:atemp>
          </ns3:TrackPointExtension>
        </extensions>
      </trkpt>
      <trkpt lat="42.64728167094290256500244140625" lon="19.91287588141858577728271484375">
        <ele>1153.199951171875</ele>
        <time>2026-06-16T07:01:13.000Z</time>
        <extensions>
          <ns3:TrackPointExtension>
            <ns3:atemp>16.0</ns3:atemp>
          </ns3:TrackPointExtension>
        </extensions>
      </trkpt>
      <trkpt lat="42.6472995243966579437255859375" lon="19.912870265543460845947265625">
        <ele>1153.5999755859375</ele>
        <time>2026-06-16T07:01:14.000Z</time>
        <extensions>
          <ns3:TrackPointExtension>
            <ns3:atemp>16.0</ns3:atemp>
          </ns3:TrackPointExtension>
        </extensions>
      </trkpt>
      <trkpt lat="42.6473172940313816070556640625" lon="19.912866912782192230224609375">
        <ele>1154</ele>
        <time>2026-06-16T07:01:15.000Z</time>
        <extensions>
          <ns3:TrackPointExtension>
            <ns3:atemp>16.0</ns3:atemp>
          </ns3:TrackPointExtension>
        </extensions>
      </trkpt>
      <trkpt lat="42.64733581803739070892333984375" lon="19.91286255419254302978515625">
        <ele>1154.4000244140625</ele>
        <time>2026-06-16T07:01:16.000Z</time>
        <extensions>
          <ns3:TrackPointExtension>
            <ns3:atemp>16.0</ns3:atemp>
          </ns3:TrackPointExtension>
        </extensions>
      </trkpt>
      <trkpt lat="42.64735459350049495697021484375" lon="19.91286096163094043731689453125">
        <ele>1154.800048828125</ele>
        <time>2026-06-16T07:01:17.000Z</time>
        <extensions>
          <ns3:TrackPointExtension>
            <ns3:atemp>16.0</ns3:atemp>
          </ns3:TrackPointExtension>
        </extensions>
      </trkpt>
      <trkpt lat="42.64737571589648723602294921875" lon="19.9128603748977184295654296875">
        <ele>1155</ele>
        <time>2026-06-16T07:01:18.000Z</time>
        <extensions>
          <ns3:TrackPointExtension>
            <ns3:atemp>16.0</ns3:atemp>
          </ns3:TrackPointExtension>
        </extensions>
      </trkpt>
      <trkpt lat="42.6473907195031642913818359375" lon="19.9128560163080692291259765625">
        <ele>1155.4000244140625</ele>
        <time>2026-06-16T07:01:19.000Z</time>
        <extensions>
          <ns3:TrackPointExtension>
            <ns3:atemp>16.0</ns3:atemp>
          </ns3:TrackPointExtension>
        </extensions>
      </trkpt>
      <trkpt lat="42.6474135182797908782958984375" lon="19.91285308264195919036865234375">
        <ele>1155.5999755859375</ele>
        <time>2026-06-16T07:01:20.000Z</time>
        <extensions>
          <ns3:TrackPointExtension>
            <ns3:atemp>16.0</ns3:atemp>
          </ns3:TrackPointExtension>
        </extensions>
      </trkpt>
      <trkpt lat="42.647438161075115203857421875" lon="19.91285291500389575958251953125">
        <ele>1156</ele>
        <time>2026-06-16T07:01:21.000Z</time>
        <extensions>
          <ns3:TrackPointExtension>
            <ns3:atemp>16.0</ns3:atemp>
          </ns3:TrackPointExtension>
        </extensions>
      </trkpt>
      <trkpt lat="42.64746196568012237548828125" lon="19.91285207681357860565185546875">
        <ele>1156.4000244140625</ele>
        <time>2026-06-16T07:01:22.000Z</time>
        <extensions>
          <ns3:TrackPointExtension>
            <ns3:atemp>16.0</ns3:atemp>
          </ns3:TrackPointExtension>
        </extensions>
      </trkpt>
      <trkpt lat="42.64748610556125640869140625" lon="19.912848137319087982177734375">
        <ele>1156.5999755859375</ele>
        <time>2026-06-16T07:01:23.000Z</time>
        <extensions>
          <ns3:TrackPointExtension>
            <ns3:atemp>16.0</ns3:atemp>
          </ns3:TrackPointExtension>
        </extensions>
      </trkpt>
      <trkpt lat="42.64750622212886810302734375" lon="19.91284939460456371307373046875">
        <ele>1156.800048828125</ele>
        <time>2026-06-16T07:01:24.000Z</time>
        <extensions>
          <ns3:TrackPointExtension>
            <ns3:atemp>16.0</ns3:atemp>
          </ns3:TrackPointExtension>
        </extensions>
      </trkpt>
      <trkpt lat="42.647528350353240966796875" lon="19.91285140626132488250732421875">
        <ele>1157.199951171875</ele>
        <time>2026-06-16T07:01:25.000Z</time>
        <extensions>
          <ns3:TrackPointExtension>
            <ns3:atemp>16.0</ns3:atemp>
          </ns3:TrackPointExtension>
        </extensions>
      </trkpt>
      <trkpt lat="42.6475499756634235382080078125" lon="19.91285174153745174407958984375">
        <ele>1157.4000244140625</ele>
        <time>2026-06-16T07:01:26.000Z</time>
        <extensions>
          <ns3:TrackPointExtension>
            <ns3:atemp>16.0</ns3:atemp>
          </ns3:TrackPointExtension>
        </extensions>
      </trkpt>
      <trkpt lat="42.6475690864026546478271484375" lon="19.9128519929945468902587890625">
        <ele>1157.5999755859375</ele>
        <time>2026-06-16T07:01:27.000Z</time>
        <extensions>
          <ns3:TrackPointExtension>
            <ns3:atemp>16.0</ns3:atemp>
          </ns3:TrackPointExtension>
        </extensions>
      </trkpt>
      <trkpt lat="42.64759398065507411956787109375" lon="19.912856854498386383056640625">
        <ele>1157.800048828125</ele>
        <time>2026-06-16T07:01:28.000Z</time>
        <extensions>
          <ns3:TrackPointExtension>
            <ns3:atemp>16.0</ns3:atemp>
          </ns3:TrackPointExtension>
        </extensions>
      </trkpt>
      <trkpt lat="42.64761979691684246063232421875" lon="19.91286062635481357574462890625">
        <ele>1158</ele>
        <time>2026-06-16T07:01:29.000Z</time>
        <extensions>
          <ns3:TrackPointExtension>
            <ns3:atemp>16.0</ns3:atemp>
          </ns3:TrackPointExtension>
        </extensions>
      </trkpt>
      <trkpt lat="42.6476428471505641937255859375" lon="19.91286397911608219146728515625">
        <ele>1158.199951171875</ele>
        <time>2026-06-16T07:01:30.000Z</time>
        <extensions>
          <ns3:TrackPointExtension>
            <ns3:atemp>16.0</ns3:atemp>
          </ns3:TrackPointExtension>
        </extensions>
      </trkpt>
      <trkpt lat="42.647664807736873626708984375" lon="19.9128704331815242767333984375">
        <ele>1158.4000244140625</ele>
        <time>2026-06-16T07:01:31.000Z</time>
        <extensions>
          <ns3:TrackPointExtension>
            <ns3:atemp>16.0</ns3:atemp>
          </ns3:TrackPointExtension>
        </extensions>
      </trkpt>
      <trkpt lat="42.64768366701900959014892578125" lon="19.9128774739801883697509765625">
        <ele>1158.5999755859375</ele>
        <time>2026-06-16T07:01:32.000Z</time>
        <extensions>
          <ns3:TrackPointExtension>
            <ns3:atemp>16.0</ns3:atemp>
          </ns3:TrackPointExtension>
        </extensions>
      </trkpt>
      <trkpt lat="42.64770210720598697662353515625" lon="19.9128820002079010009765625">
        <ele>1159</ele>
        <time>2026-06-16T07:01:33.000Z</time>
        <extensions>
          <ns3:TrackPointExtension>
            <ns3:atemp>16.0</ns3:atemp>
          </ns3:TrackPointExtension>
        </extensions>
      </trkpt>
      <trkpt lat="42.6477174460887908935546875" lon="19.912894070148468017578125">
        <ele>1159.199951171875</ele>
        <time>2026-06-16T07:01:34.000Z</time>
        <extensions>
          <ns3:TrackPointExtension>
            <ns3:atemp>16.0</ns3:atemp>
          </ns3:TrackPointExtension>
        </extensions>
      </trkpt>
      <trkpt lat="42.647735886275768280029296875" lon="19.91289800964295864105224609375">
        <ele>1159.4000244140625</ele>
        <time>2026-06-16T07:01:35.000Z</time>
        <extensions>
          <ns3:TrackPointExtension>
            <ns3:atemp>16.0</ns3:atemp>
          </ns3:TrackPointExtension>
        </extensions>
      </trkpt>
      <trkpt lat="42.6477565057575702667236328125" lon="19.91290622390806674957275390625">
        <ele>1159.5999755859375</ele>
        <time>2026-06-16T07:01:36.000Z</time>
        <extensions>
          <ns3:TrackPointExtension>
            <ns3:atemp>16.0</ns3:atemp>
          </ns3:TrackPointExtension>
        </extensions>
      </trkpt>
      <trkpt lat="42.647774107754230499267578125" lon="19.9129133485257625579833984375">
        <ele>1159.800048828125</ele>
        <time>2026-06-16T07:01:37.000Z</time>
        <extensions>
          <ns3:TrackPointExtension>
            <ns3:atemp>15.0</ns3:atemp>
          </ns3:TrackPointExtension>
        </extensions>
      </trkpt>
      <trkpt lat="42.64779011718928813934326171875" lon="19.91292365826666355133056640625">
        <ele>1160</ele>
        <time>2026-06-16T07:01:38.000Z</time>
        <extensions>
          <ns3:TrackPointExtension>
            <ns3:atemp>15.0</ns3:atemp>
          </ns3:TrackPointExtension>
        </extensions>
      </trkpt>
      <trkpt lat="42.64780637808144092559814453125" lon="19.91293857805430889129638671875">
        <ele>1160.199951171875</ele>
        <time>2026-06-16T07:01:39.000Z</time>
        <extensions>
          <ns3:TrackPointExtension>
            <ns3:atemp>16.0</ns3:atemp>
          </ns3:TrackPointExtension>
        </extensions>
      </trkpt>
      <trkpt lat="42.64782330952584743499755859375" lon="19.91295115090906620025634765625">
        <ele>1160.4000244140625</ele>
        <time>2026-06-16T07:01:40.000Z</time>
        <extensions>
          <ns3:TrackPointExtension>
            <ns3:atemp>16.0</ns3:atemp>
          </ns3:TrackPointExtension>
        </extensions>
      </trkpt>
      <trkpt lat="42.6478421688079833984375" lon="19.91296674124896526336669921875">
        <ele>1160.5999755859375</ele>
        <time>2026-06-16T07:01:41.000Z</time>
        <extensions>
          <ns3:TrackPointExtension>
            <ns3:atemp>16.0</ns3:atemp>
          </ns3:TrackPointExtension>
        </extensions>
      </trkpt>
      <trkpt lat="42.64785826206207275390625" lon="19.9129837565124034881591796875">
        <ele>1161</ele>
        <time>2026-06-16T07:01:42.000Z</time>
        <extensions>
          <ns3:TrackPointExtension>
            <ns3:atemp>15.0</ns3:atemp>
          </ns3:TrackPointExtension>
        </extensions>
      </trkpt>
      <trkpt lat="42.6478721760213375091552734375" lon="19.91300144232809543609619140625">
        <ele>1161.4000244140625</ele>
        <time>2026-06-16T07:01:43.000Z</time>
        <extensions>
          <ns3:TrackPointExtension>
            <ns3:atemp>15.0</ns3:atemp>
          </ns3:TrackPointExtension>
        </extensions>
      </trkpt>
      <trkpt lat="42.64788969419896602630615234375" lon="19.9130139313638210296630859375">
        <ele>1161.5999755859375</ele>
        <time>2026-06-16T07:01:44.000Z</time>
        <extensions>
          <ns3:TrackPointExtension>
            <ns3:atemp>15.0</ns3:atemp>
          </ns3:TrackPointExtension>
        </extensions>
      </trkpt>
      <trkpt lat="42.64790394343435764312744140625" lon="19.91303480230271816253662109375">
        <ele>1161.800048828125</ele>
        <time>2026-06-16T07:01:45.000Z</time>
        <extensions>
          <ns3:TrackPointExtension>
            <ns3:atemp>15.0</ns3:atemp>
          </ns3:TrackPointExtension>
        </extensions>
      </trkpt>
      <trkpt lat="42.647919617593288421630859375" lon="19.91305391304194927215576171875">
        <ele>1161.800048828125</ele>
        <time>2026-06-16T07:01:46.000Z</time>
        <extensions>
          <ns3:TrackPointExtension>
            <ns3:atemp>15.0</ns3:atemp>
          </ns3:TrackPointExtension>
        </extensions>
      </trkpt>
      <trkpt lat="42.647932358086109161376953125" lon="19.9130682460963726043701171875">
        <ele>1162</ele>
        <time>2026-06-16T07:01:47.000Z</time>
        <extensions>
          <ns3:TrackPointExtension>
            <ns3:atemp>15.0</ns3:atemp>
          </ns3:TrackPointExtension>
        </extensions>
      </trkpt>
      <trkpt lat="42.647942416369915008544921875" lon="19.9130829982459545135498046875">
        <ele>1162</ele>
        <time>2026-06-16T07:01:48.000Z</time>
        <extensions>
          <ns3:TrackPointExtension>
            <ns3:atemp>15.0</ns3:atemp>
          </ns3:TrackPointExtension>
        </extensions>
      </trkpt>
      <trkpt lat="42.6479556597769260406494140625" lon="19.91310152225196361541748046875">
        <ele>1162.4000244140625</ele>
        <time>2026-06-16T07:01:49.000Z</time>
        <extensions>
          <ns3:TrackPointExtension>
            <ns3:atemp>15.0</ns3:atemp>
          </ns3:TrackPointExtension>
        </extensions>
      </trkpt>
      <trkpt lat="42.64796915464103221893310546875" lon="19.91312013007700443267822265625">
        <ele>1162.800048828125</ele>
        <time>2026-06-16T07:01:50.000Z</time>
        <extensions>
          <ns3:TrackPointExtension>
            <ns3:atemp>15.0</ns3:atemp>
          </ns3:TrackPointExtension>
        </extensions>
      </trkpt>
      <trkpt lat="42.64798055402934551239013671875" lon="19.91313337348401546478271484375">
        <ele>1163.199951171875</ele>
        <time>2026-06-16T07:01:51.000Z</time>
        <extensions>
          <ns3:TrackPointExtension>
            <ns3:atemp>15.0</ns3:atemp>
          </ns3:TrackPointExtension>
        </extensions>
      </trkpt>
      <trkpt lat="42.64798977412283420562744140625" lon="19.91315231658518314361572265625">
        <ele>1163.5999755859375</ele>
        <time>2026-06-16T07:01:52.000Z</time>
        <extensions>
          <ns3:TrackPointExtension>
            <ns3:atemp>16.0</ns3:atemp>
          </ns3:TrackPointExtension>
        </extensions>
      </trkpt>
      <trkpt lat="42.64799865894019603729248046875" lon="19.91317276842892169952392578125">
        <ele>1163.800048828125</ele>
        <time>2026-06-16T07:01:53.000Z</time>
        <extensions>
          <ns3:TrackPointExtension>
            <ns3:atemp>15.0</ns3:atemp>
          </ns3:TrackPointExtension>
        </extensions>
      </trkpt>
      <trkpt lat="42.6480126567184925079345703125" lon="19.91319355554878711700439453125">
        <ele>1164.199951171875</ele>
        <time>2026-06-16T07:01:54.000Z</time>
        <extensions>
          <ns3:TrackPointExtension>
            <ns3:atemp>16.0</ns3:atemp>
          </ns3:TrackPointExtension>
        </extensions>
      </trkpt>
      <trkpt lat="42.64802455902099609375" lon="19.9132104031741619110107421875">
        <ele>1164.4000244140625</ele>
        <time>2026-06-16T07:01:55.000Z</time>
        <extensions>
          <ns3:TrackPointExtension>
            <ns3:atemp>16.0</ns3:atemp>
          </ns3:TrackPointExtension>
        </extensions>
      </trkpt>
      <trkpt lat="42.64803771860897541046142578125" lon="19.91322331130504608154296875">
        <ele>1164.800048828125</ele>
        <time>2026-06-16T07:01:56.000Z</time>
        <extensions>
          <ns3:TrackPointExtension>
            <ns3:atemp>16.0</ns3:atemp>
          </ns3:TrackPointExtension>
        </extensions>
      </trkpt>
      <trkpt lat="42.64804962091147899627685546875" lon="19.91323865018784999847412109375">
        <ele>1165</ele>
        <time>2026-06-16T07:01:57.000Z</time>
        <extensions>
          <ns3:TrackPointExtension>
            <ns3:atemp>16.0</ns3:atemp>
          </ns3:TrackPointExtension>
        </extensions>
      </trkpt>
      <trkpt lat="42.64806001447141170501708984375" lon="19.91325675509870052337646484375">
        <ele>1165.4000244140625</ele>
        <time>2026-06-16T07:01:58.000Z</time>
        <extensions>
          <ns3:TrackPointExtension>
            <ns3:atemp>16.0</ns3:atemp>
          </ns3:TrackPointExtension>
        </extensions>
      </trkpt>
      <trkpt lat="42.64807292260229587554931640625" lon="19.913274608552455902099609375">
        <ele>1165.800048828125</ele>
        <time>2026-06-16T07:01:59.000Z</time>
        <extensions>
          <ns3:TrackPointExtension>
            <ns3:atemp>15.0</ns3:atemp>
          </ns3:TrackPointExtension>
        </extensions>
      </trkpt>
      <trkpt lat="42.648088932037353515625" lon="19.91328290663659572601318359375">
        <ele>1166</ele>
        <time>2026-06-16T07:02:00.000Z</time>
        <extensions>
          <ns3:TrackPointExtension>
            <ns3:atemp>15.0</ns3:atemp>
          </ns3:TrackPointExtension>
        </extensions>
      </trkpt>
      <trkpt lat="42.648103348910808563232421875" lon="19.91329866461455821990966796875">
        <ele>1166.199951171875</ele>
        <time>2026-06-16T07:02:01.000Z</time>
        <extensions>
          <ns3:TrackPointExtension>
            <ns3:atemp>15.0</ns3:atemp>
          </ns3:TrackPointExtension>
        </extensions>
      </trkpt>
      <trkpt lat="42.6481189392507076263427734375" lon="19.9133176915347576141357421875">
        <ele>1166.5999755859375</ele>
        <time>2026-06-16T07:02:02.000Z</time>
        <extensions>
          <ns3:TrackPointExtension>
            <ns3:atemp>15.0</ns3:atemp>
          </ns3:TrackPointExtension>
        </extensions>
      </trkpt>
      <trkpt lat="42.6481320150196552276611328125" lon="19.91333604790270328521728515625">
        <ele>1166.800048828125</ele>
        <time>2026-06-16T07:02:03.000Z</time>
        <extensions>
          <ns3:TrackPointExtension>
            <ns3:atemp>15.0</ns3:atemp>
          </ns3:TrackPointExtension>
        </extensions>
      </trkpt>
      <trkpt lat="42.64814861118793487548828125" lon="19.91334736347198486328125">
        <ele>1167</ele>
        <time>2026-06-16T07:02:04.000Z</time>
        <extensions>
          <ns3:TrackPointExtension>
            <ns3:atemp>15.0</ns3:atemp>
          </ns3:TrackPointExtension>
        </extensions>
      </trkpt>
      <trkpt lat="42.64816177077591419219970703125" lon="19.91336806677281856536865234375">
        <ele>1167.4000244140625</ele>
        <time>2026-06-16T07:02:05.000Z</time>
        <extensions>
          <ns3:TrackPointExtension>
            <ns3:atemp>15.0</ns3:atemp>
          </ns3:TrackPointExtension>
        </extensions>
      </trkpt>
      <trkpt lat="42.64817903749644756317138671875" lon="19.913388602435588836669921875">
        <ele>1167.5999755859375</ele>
        <time>2026-06-16T07:02:06.000Z</time>
        <extensions>
          <ns3:TrackPointExtension>
            <ns3:atemp>16.0</ns3:atemp>
          </ns3:TrackPointExtension>
        </extensions>
      </trkpt>
      <trkpt lat="42.64819554984569549560546875" lon="19.913411401212215423583984375">
        <ele>1168</ele>
        <time>2026-06-16T07:02:07.000Z</time>
        <extensions>
          <ns3:TrackPointExtension>
            <ns3:atemp>15.0</ns3:atemp>
          </ns3:TrackPointExtension>
        </extensions>
      </trkpt>
      <trkpt lat="42.6482101343572139739990234375" lon="19.9134343676269054412841796875">
        <ele>1168.199951171875</ele>
        <time>2026-06-16T07:02:08.000Z</time>
        <extensions>
          <ns3:TrackPointExtension>
            <ns3:atemp>15.0</ns3:atemp>
          </ns3:TrackPointExtension>
        </extensions>
      </trkpt>
      <trkpt lat="42.6482265628874301910400390625" lon="19.91345825605094432830810546875">
        <ele>1168.4000244140625</ele>
        <time>2026-06-16T07:02:09.000Z</time>
        <extensions>
          <ns3:TrackPointExtension>
            <ns3:atemp>15.0</ns3:atemp>
          </ns3:TrackPointExtension>
        </extensions>
      </trkpt>
      <trkpt lat="42.64824441634118556976318359375" lon="19.91347585804760456085205078125">
        <ele>1168.800048828125</ele>
        <time>2026-06-16T07:02:10.000Z</time>
        <extensions>
          <ns3:TrackPointExtension>
            <ns3:atemp>16.0</ns3:atemp>
          </ns3:TrackPointExtension>
        </extensions>
      </trkpt>
      <trkpt lat="42.64825698919594287872314453125" lon="19.9134953878819942474365234375">
        <ele>1169</ele>
        <time>2026-06-16T07:02:11.000Z</time>
        <extensions>
          <ns3:TrackPointExtension>
            <ns3:atemp>16.0</ns3:atemp>
          </ns3:TrackPointExtension>
        </extensions>
      </trkpt>
      <trkpt lat="42.64827274717390537261962890625" lon="19.91351307369768619537353515625">
        <ele>1169.199951171875</ele>
        <time>2026-06-16T07:02:12.000Z</time>
        <extensions>
          <ns3:TrackPointExtension>
            <ns3:atemp>16.0</ns3:atemp>
          </ns3:TrackPointExtension>
        </extensions>
      </trkpt>
      <trkpt lat="42.648289762437343597412109375" lon="19.913534782826900482177734375">
        <ele>1169.4000244140625</ele>
        <time>2026-06-16T07:02:13.000Z</time>
        <extensions>
          <ns3:TrackPointExtension>
            <ns3:atemp>15.0</ns3:atemp>
          </ns3:TrackPointExtension>
        </extensions>
      </trkpt>
      <trkpt lat="42.64830593951046466827392578125" lon="19.913557581603527069091796875">
        <ele>1169.5999755859375</ele>
        <time>2026-06-16T07:02:14.000Z</time>
        <extensions>
          <ns3:TrackPointExtension>
            <ns3:atemp>16.0</ns3:atemp>
          </ns3:TrackPointExtension>
        </extensions>
      </trkpt>
      <trkpt lat="42.64832161366939544677734375" lon="19.9135771952569484710693359375">
        <ele>1169.800048828125</ele>
        <time>2026-06-16T07:02:15.000Z</time>
        <extensions>
          <ns3:TrackPointExtension>
            <ns3:atemp>16.0</ns3:atemp>
          </ns3:TrackPointExtension>
        </extensions>
      </trkpt>
      <trkpt lat="42.64833678491413593292236328125" lon="19.9135979823768138885498046875">
        <ele>1170</ele>
        <time>2026-06-16T07:02:16.000Z</time>
        <extensions>
          <ns3:TrackPointExtension>
            <ns3:atemp>16.0</ns3:atemp>
          </ns3:TrackPointExtension>
        </extensions>
      </trkpt>
      <trkpt lat="42.64835203997790813446044921875" lon="19.91361315362155437469482421875">
        <ele>1170.4000244140625</ele>
        <time>2026-06-16T07:02:17.000Z</time>
        <extensions>
          <ns3:TrackPointExtension>
            <ns3:atemp>16.0</ns3:atemp>
          </ns3:TrackPointExtension>
        </extensions>
      </trkpt>
      <trkpt lat="42.648366205394268035888671875" lon="19.9136328510940074920654296875">
        <ele>1170.5999755859375</ele>
        <time>2026-06-16T07:02:18.000Z</time>
        <extensions>
          <ns3:TrackPointExtension>
            <ns3:atemp>16.0</ns3:atemp>
          </ns3:TrackPointExtension>
        </extensions>
      </trkpt>
      <trkpt lat="42.64837701804935932159423828125" lon="19.9136543087661266326904296875">
        <ele>1170.800048828125</ele>
        <time>2026-06-16T07:02:19.000Z</time>
        <extensions>
          <ns3:TrackPointExtension>
            <ns3:atemp>16.0</ns3:atemp>
          </ns3:TrackPointExtension>
        </extensions>
      </trkpt>
      <trkpt lat="42.64839160256087779998779296875" lon="19.91367249749600887298583984375">
        <ele>1171</ele>
        <time>2026-06-16T07:02:20.000Z</time>
        <extensions>
          <ns3:TrackPointExtension>
            <ns3:atemp>16.0</ns3:atemp>
          </ns3:TrackPointExtension>
        </extensions>
      </trkpt>
      <trkpt lat="42.6484040915966033935546875" lon="19.913696385920047760009765625">
        <ele>1171.199951171875</ele>
        <time>2026-06-16T07:02:21.000Z</time>
        <extensions>
          <ns3:TrackPointExtension>
            <ns3:atemp>16.0</ns3:atemp>
          </ns3:TrackPointExtension>
        </extensions>
      </trkpt>
      <trkpt lat="42.64841859228909015655517578125" lon="19.91371004842221736907958984375">
        <ele>1171.4000244140625</ele>
        <time>2026-06-16T07:02:22.000Z</time>
        <extensions>
          <ns3:TrackPointExtension>
            <ns3:atemp>16.0</ns3:atemp>
          </ns3:TrackPointExtension>
        </extensions>
      </trkpt>
      <trkpt lat="42.648431919515132904052734375" lon="19.91373318247497081756591796875">
        <ele>1171.5999755859375</ele>
        <time>2026-06-16T07:02:23.000Z</time>
        <extensions>
          <ns3:TrackPointExtension>
            <ns3:atemp>16.0</ns3:atemp>
          </ns3:TrackPointExtension>
        </extensions>
      </trkpt>
      <trkpt lat="42.64844927005469799041748046875" lon="19.913758076727390289306640625">
        <ele>1171.800048828125</ele>
        <time>2026-06-16T07:02:24.000Z</time>
        <extensions>
          <ns3:TrackPointExtension>
            <ns3:atemp>16.0</ns3:atemp>
          </ns3:TrackPointExtension>
        </extensions>
      </trkpt>
      <trkpt lat="42.64846586622297763824462890625" lon="19.91378313861787319183349609375">
        <ele>1172</ele>
        <time>2026-06-16T07:02:25.000Z</time>
        <extensions>
          <ns3:TrackPointExtension>
            <ns3:atemp>16.0</ns3:atemp>
          </ns3:TrackPointExtension>
        </extensions>
      </trkpt>
      <trkpt lat="42.6484807021915912628173828125" lon="19.91380727849900722503662109375">
        <ele>1172.199951171875</ele>
        <time>2026-06-16T07:02:26.000Z</time>
        <extensions>
          <ns3:TrackPointExtension>
            <ns3:atemp>16.0</ns3:atemp>
          </ns3:TrackPointExtension>
        </extensions>
      </trkpt>
      <trkpt lat="42.64849729835987091064453125" lon="19.91383091546595096588134765625">
        <ele>1172.4000244140625</ele>
        <time>2026-06-16T07:02:27.000Z</time>
        <extensions>
          <ns3:TrackPointExtension>
            <ns3:atemp>16.0</ns3:atemp>
          </ns3:TrackPointExtension>
        </extensions>
      </trkpt>
      <trkpt lat="42.6485145650804042816162109375" lon="19.913853965699672698974609375">
        <ele>1172.5999755859375</ele>
        <time>2026-06-16T07:02:28.000Z</time>
        <extensions>
          <ns3:TrackPointExtension>
            <ns3:atemp>16.0</ns3:atemp>
          </ns3:TrackPointExtension>
        </extensions>
      </trkpt>
      <trkpt lat="42.64852789230644702911376953125" lon="19.91388271562755107879638671875">
        <ele>1172.5999755859375</ele>
        <time>2026-06-16T07:02:29.000Z</time>
        <extensions>
          <ns3:TrackPointExtension>
            <ns3:atemp>16.0</ns3:atemp>
          </ns3:TrackPointExtension>
        </extensions>
      </trkpt>
      <trkpt lat="42.648538537323474884033203125" lon="19.91390853188931941986083984375">
        <ele>1172.800048828125</ele>
        <time>2026-06-16T07:02:30.000Z</time>
        <extensions>
          <ns3:TrackPointExtension>
            <ns3:atemp>16.0</ns3:atemp>
          </ns3:TrackPointExtension>
        </extensions>
      </trkpt>
      <trkpt lat="42.64855186454951763153076171875" lon="19.91392512805759906768798828125">
        <ele>1173</ele>
        <time>2026-06-16T07:02:31.000Z</time>
        <extensions>
          <ns3:TrackPointExtension>
            <ns3:atemp>16.0</ns3:atemp>
          </ns3:TrackPointExtension>
        </extensions>
      </trkpt>
      <trkpt lat="42.64856359921395778656005859375" lon="19.9139476753771305084228515625">
        <ele>1173</ele>
        <time>2026-06-16T07:02:32.000Z</time>
        <extensions>
          <ns3:TrackPointExtension>
            <ns3:atemp>16.0</ns3:atemp>
          </ns3:TrackPointExtension>
        </extensions>
      </trkpt>
      <trkpt lat="42.64857709407806396484375" lon="19.91397592239081859588623046875">
        <ele>1173.199951171875</ele>
        <time>2026-06-16T07:02:33.000Z</time>
        <extensions>
          <ns3:TrackPointExtension>
            <ns3:atemp>16.0</ns3:atemp>
          </ns3:TrackPointExtension>
        </extensions>
      </trkpt>
      <trkpt lat="42.64858874492347240447998046875" lon="19.91400609724223613739013671875">
        <ele>1173.4000244140625</ele>
        <time>2026-06-16T07:02:34.000Z</time>
        <extensions>
          <ns3:TrackPointExtension>
            <ns3:atemp>16.0</ns3:atemp>
          </ns3:TrackPointExtension>
        </extensions>
      </trkpt>
      <trkpt lat="42.64859913848340511322021484375" lon="19.9140375293791294097900390625">
        <ele>1173.4000244140625</ele>
        <time>2026-06-16T07:02:35.000Z</time>
        <extensions>
          <ns3:TrackPointExtension>
            <ns3:atemp>16.0</ns3:atemp>
          </ns3:TrackPointExtension>
        </extensions>
      </trkpt>
      <trkpt lat="42.64860869385302066802978515625" lon="19.91407197900116443634033203125">
        <ele>1173.5999755859375</ele>
        <time>2026-06-16T07:02:36.000Z</time>
        <extensions>
          <ns3:TrackPointExtension>
            <ns3:atemp>16.0</ns3:atemp>
          </ns3:TrackPointExtension>
        </extensions>
      </trkpt>
      <trkpt lat="42.64860995113849639892578125" lon="19.9141045846045017242431640625">
        <ele>1173.5999755859375</ele>
        <time>2026-06-16T07:02:37.000Z</time>
        <extensions>
          <ns3:TrackPointExtension>
            <ns3:atemp>16.0</ns3:atemp>
          </ns3:TrackPointExtension>
        </extensions>
      </trkpt>
      <trkpt lat="42.64860701747238636016845703125" lon="19.91413517855107784271240234375">
        <ele>1173.5999755859375</ele>
        <time>2026-06-16T07:02:38.000Z</time>
        <extensions>
          <ns3:TrackPointExtension>
            <ns3:atemp>16.0</ns3:atemp>
          </ns3:TrackPointExtension>
        </extensions>
      </trkpt>
      <trkpt lat="42.64859897084534168243408203125" lon="19.914167113602161407470703125">
        <ele>1173.800048828125</ele>
        <time>2026-06-16T07:02:39.000Z</time>
        <extensions>
          <ns3:TrackPointExtension>
            <ns3:atemp>16.0</ns3:atemp>
          </ns3:TrackPointExtension>
        </extensions>
      </trkpt>
      <trkpt lat="42.6485846377909183502197265625" lon="19.91418882273137569427490234375">
        <ele>1173.800048828125</ele>
        <time>2026-06-16T07:02:40.000Z</time>
        <extensions>
          <ns3:TrackPointExtension>
            <ns3:atemp>16.0</ns3:atemp>
          </ns3:TrackPointExtension>
        </extensions>
      </trkpt>
      <trkpt lat="42.64856661669909954071044921875" lon="19.91420240141451358795166015625">
        <ele>1174</ele>
        <time>2026-06-16T07:02:41.000Z</time>
        <extensions>
          <ns3:TrackPointExtension>
            <ns3:atemp>15.0</ns3:atemp>
          </ns3:TrackPointExtension>
        </extensions>
      </trkpt>
      <trkpt lat="42.64854465611279010772705078125" lon="19.91420558653771877288818359375">
        <ele>1174.199951171875</ele>
        <time>2026-06-16T07:02:42.000Z</time>
        <extensions>
          <ns3:TrackPointExtension>
            <ns3:atemp>15.0</ns3:atemp>
          </ns3:TrackPointExtension>
        </extensions>
      </trkpt>
      <trkpt lat="42.64852621592581272125244140625" lon="19.914201982319355010986328125">
        <ele>1174.4000244140625</ele>
        <time>2026-06-16T07:02:43.000Z</time>
        <extensions>
          <ns3:TrackPointExtension>
            <ns3:atemp>15.0</ns3:atemp>
          </ns3:TrackPointExtension>
        </extensions>
      </trkpt>
      <trkpt lat="42.64850668609142303466796875" lon="19.91418915800750255584716796875">
        <ele>1174.5999755859375</ele>
        <time>2026-06-16T07:02:44.000Z</time>
        <extensions>
          <ns3:TrackPointExtension>
            <ns3:atemp>15.0</ns3:atemp>
          </ns3:TrackPointExtension>
        </extensions>
      </trkpt>
      <trkpt lat="42.6484877429902553558349609375" lon="19.914176501333713531494140625">
        <ele>1174.800048828125</ele>
        <time>2026-06-16T07:02:45.000Z</time>
        <extensions>
          <ns3:TrackPointExtension>
            <ns3:atemp>15.0</ns3:atemp>
          </ns3:TrackPointExtension>
        </extensions>
      </trkpt>
      <trkpt lat="42.64847584068775177001953125" lon="19.91415210999548435211181640625">
        <ele>1175</ele>
        <time>2026-06-16T07:02:46.000Z</time>
        <extensions>
          <ns3:TrackPointExtension>
            <ns3:atemp>15.0</ns3:atemp>
          </ns3:TrackPointExtension>
        </extensions>
      </trkpt>
      <trkpt lat="42.6484612561762332916259765625" lon="19.9141273833811283111572265625">
        <ele>1175</ele>
        <time>2026-06-16T07:02:47.000Z</time>
        <extensions>
          <ns3:TrackPointExtension>
            <ns3:atemp>15.0</ns3:atemp>
          </ns3:TrackPointExtension>
        </extensions>
      </trkpt>
      <trkpt lat="42.64844591729342937469482421875" lon="19.91409905254840850830078125">
        <ele>1175.199951171875</ele>
        <time>2026-06-16T07:02:48.000Z</time>
        <extensions>
          <ns3:TrackPointExtension>
            <ns3:atemp>15.0</ns3:atemp>
          </ns3:TrackPointExtension>
        </extensions>
      </trkpt>
      <trkpt lat="42.648431919515132904052734375" lon="19.91407692432403564453125">
        <ele>1175.4000244140625</ele>
        <time>2026-06-16T07:02:49.000Z</time>
        <extensions>
          <ns3:TrackPointExtension>
            <ns3:atemp>15.0</ns3:atemp>
          </ns3:TrackPointExtension>
        </extensions>
      </trkpt>
      <trkpt lat="42.64841943047940731048583984375" lon="19.9140609987080097198486328125">
        <ele>1175.5999755859375</ele>
        <time>2026-06-16T07:02:50.000Z</time>
        <extensions>
          <ns3:TrackPointExtension>
            <ns3:atemp>15.0</ns3:atemp>
          </ns3:TrackPointExtension>
        </extensions>
      </trkpt>
      <trkpt lat="42.6484040915966033935546875" lon="19.9140432290732860565185546875">
        <ele>1175.800048828125</ele>
        <time>2026-06-16T07:02:51.000Z</time>
        <extensions>
          <ns3:TrackPointExtension>
            <ns3:atemp>15.0</ns3:atemp>
          </ns3:TrackPointExtension>
        </extensions>
      </trkpt>
      <trkpt lat="42.64838674105703830718994140625" lon="19.91402604617178440093994140625">
        <ele>1176</ele>
        <time>2026-06-16T07:02:52.000Z</time>
        <extensions>
          <ns3:TrackPointExtension>
            <ns3:atemp>15.0</ns3:atemp>
          </ns3:TrackPointExtension>
        </extensions>
      </trkpt>
      <trkpt lat="42.6483703963458538055419921875" lon="19.9140097014605998992919921875">
        <ele>1176.199951171875</ele>
        <time>2026-06-16T07:02:53.000Z</time>
        <extensions>
          <ns3:TrackPointExtension>
            <ns3:atemp>15.0</ns3:atemp>
          </ns3:TrackPointExtension>
        </extensions>
      </trkpt>
      <trkpt lat="42.64835522510111331939697265625" lon="19.91399285383522510528564453125">
        <ele>1176.4000244140625</ele>
        <time>2026-06-16T07:02:54.000Z</time>
        <extensions>
          <ns3:TrackPointExtension>
            <ns3:atemp>15.0</ns3:atemp>
          </ns3:TrackPointExtension>
        </extensions>
      </trkpt>
      <trkpt lat="42.64833594672381877899169921875" lon="19.91397642530500888824462890625">
        <ele>1176.5999755859375</ele>
        <time>2026-06-16T07:02:55.000Z</time>
        <extensions>
          <ns3:TrackPointExtension>
            <ns3:atemp>15.0</ns3:atemp>
          </ns3:TrackPointExtension>
        </extensions>
      </trkpt>
      <trkpt lat="42.64832186512649059295654296875" lon="19.91396636702120304107666015625">
        <ele>1176.800048828125</ele>
        <time>2026-06-16T07:02:56.000Z</time>
        <extensions>
          <ns3:TrackPointExtension>
            <ns3:atemp>15.0</ns3:atemp>
          </ns3:TrackPointExtension>
        </extensions>
      </trkpt>
      <trkpt lat="42.64830644242465496063232421875" lon="19.91395798511803150177001953125">
        <ele>1177</ele>
        <time>2026-06-16T07:02:57.000Z</time>
        <extensions>
          <ns3:TrackPointExtension>
            <ns3:atemp>15.0</ns3:atemp>
          </ns3:TrackPointExtension>
        </extensions>
      </trkpt>
      <trkpt lat="42.64829169027507305145263671875" lon="19.91395010612905025482177734375">
        <ele>1177.199951171875</ele>
        <time>2026-06-16T07:02:58.000Z</time>
        <extensions>
          <ns3:TrackPointExtension>
            <ns3:atemp>15.0</ns3:atemp>
          </ns3:TrackPointExtension>
        </extensions>
      </trkpt>
      <trkpt lat="42.6482785306870937347412109375" lon="19.91393669508397579193115234375">
        <ele>1177.199951171875</ele>
        <time>2026-06-16T07:02:59.000Z</time>
        <extensions>
          <ns3:TrackPointExtension>
            <ns3:atemp>15.0</ns3:atemp>
          </ns3:TrackPointExtension>
        </extensions>
      </trkpt>
      <trkpt lat="42.6482681371271610260009765625" lon="19.91392781026661396026611328125">
        <ele>1177.4000244140625</ele>
        <time>2026-06-16T07:03:00.000Z</time>
        <extensions>
          <ns3:TrackPointExtension>
            <ns3:atemp>15.0</ns3:atemp>
          </ns3:TrackPointExtension>
        </extensions>
      </trkpt>
      <trkpt lat="42.64825162477791309356689453125" lon="19.913914315402507781982421875">
        <ele>1177.5999755859375</ele>
        <time>2026-06-16T07:03:01.000Z</time>
        <extensions>
          <ns3:TrackPointExtension>
            <ns3:atemp>15.0</ns3:atemp>
          </ns3:TrackPointExtension>
        </extensions>
      </trkpt>
      <trkpt lat="42.64823955483734607696533203125" lon="19.91390526294708251953125">
        <ele>1177.800048828125</ele>
        <time>2026-06-16T07:03:02.000Z</time>
        <extensions>
          <ns3:TrackPointExtension>
            <ns3:atemp>15.0</ns3:atemp>
          </ns3:TrackPointExtension>
        </extensions>
      </trkpt>
      <trkpt lat="42.6482242159545421600341796875" lon="19.91389126516878604888916015625">
        <ele>1178</ele>
        <time>2026-06-16T07:03:03.000Z</time>
        <extensions>
          <ns3:TrackPointExtension>
            <ns3:atemp>15.0</ns3:atemp>
          </ns3:TrackPointExtension>
        </extensions>
      </trkpt>
      <trkpt lat="42.64820736832916736602783203125" lon="19.91387869231402873992919921875">
        <ele>1178.4000244140625</ele>
        <time>2026-06-16T07:03:04.000Z</time>
        <extensions>
          <ns3:TrackPointExtension>
            <ns3:atemp>15.0</ns3:atemp>
          </ns3:TrackPointExtension>
        </extensions>
      </trkpt>
      <trkpt lat="42.6481893472373485565185546875" lon="19.91386980749666690826416015625">
        <ele>1178.5999755859375</ele>
        <time>2026-06-16T07:03:05.000Z</time>
        <extensions>
          <ns3:TrackPointExtension>
            <ns3:atemp>15.0</ns3:atemp>
          </ns3:TrackPointExtension>
        </extensions>
      </trkpt>
      <trkpt lat="42.6481692306697368621826171875" lon="19.91385656408965587615966796875">
        <ele>1178.800048828125</ele>
        <time>2026-06-16T07:03:06.000Z</time>
        <extensions>
          <ns3:TrackPointExtension>
            <ns3:atemp>15.0</ns3:atemp>
          </ns3:TrackPointExtension>
        </extensions>
      </trkpt>
      <trkpt lat="42.64814886264503002166748046875" lon="19.91384617052972316741943359375">
        <ele>1179</ele>
        <time>2026-06-16T07:03:07.000Z</time>
        <extensions>
          <ns3:TrackPointExtension>
            <ns3:atemp>15.0</ns3:atemp>
          </ns3:TrackPointExtension>
        </extensions>
      </trkpt>
      <trkpt lat="42.648131847381591796875" lon="19.91383594460785388946533203125">
        <ele>1179</ele>
        <time>2026-06-16T07:03:08.000Z</time>
        <extensions>
          <ns3:TrackPointExtension>
            <ns3:atemp>15.0</ns3:atemp>
          </ns3:TrackPointExtension>
        </extensions>
      </trkpt>
      <trkpt lat="42.64811583794653415679931640625" lon="19.91382605396211147308349609375">
        <ele>1179.199951171875</ele>
        <time>2026-06-16T07:03:09.000Z</time>
        <extensions>
          <ns3:TrackPointExtension>
            <ns3:atemp>15.0</ns3:atemp>
          </ns3:TrackPointExtension>
        </extensions>
      </trkpt>
      <trkpt lat="42.64809454791247844696044921875" lon="19.91381867788732051849365234375">
        <ele>1179.4000244140625</ele>
        <time>2026-06-16T07:03:10.000Z</time>
        <extensions>
          <ns3:TrackPointExtension>
            <ns3:atemp>15.0</ns3:atemp>
          </ns3:TrackPointExtension>
        </extensions>
      </trkpt>
      <trkpt lat="42.64807912521064281463623046875" lon="19.91381113417446613311767578125">
        <ele>1179.5999755859375</ele>
        <time>2026-06-16T07:03:11.000Z</time>
        <extensions>
          <ns3:TrackPointExtension>
            <ns3:atemp>15.0</ns3:atemp>
          </ns3:TrackPointExtension>
        </extensions>
      </trkpt>
      <trkpt lat="42.6480538956820964813232421875" lon="19.91380778141319751739501953125">
        <ele>1179.800048828125</ele>
        <time>2026-06-16T07:03:12.000Z</time>
        <extensions>
          <ns3:TrackPointExtension>
            <ns3:atemp>15.0</ns3:atemp>
          </ns3:TrackPointExtension>
        </extensions>
      </trkpt>
      <trkpt lat="42.64803235419094562530517578125" lon="19.91380141116678714752197265625">
        <ele>1180</ele>
        <time>2026-06-16T07:03:13.000Z</time>
        <extensions>
          <ns3:TrackPointExtension>
            <ns3:atemp>16.0</ns3:atemp>
          </ns3:TrackPointExtension>
        </extensions>
      </trkpt>
      <trkpt lat="42.648007459938526153564453125" lon="19.91379420273005962371826171875">
        <ele>1180.199951171875</ele>
        <time>2026-06-16T07:03:14.000Z</time>
        <extensions>
          <ns3:TrackPointExtension>
            <ns3:atemp>15.0</ns3:atemp>
          </ns3:TrackPointExtension>
        </extensions>
      </trkpt>
      <trkpt lat="42.64798206277191638946533203125" lon="19.91378255188465118408203125">
        <ele>1180.4000244140625</ele>
        <time>2026-06-16T07:03:15.000Z</time>
        <extensions>
          <ns3:TrackPointExtension>
            <ns3:atemp>15.0</ns3:atemp>
          </ns3:TrackPointExtension>
        </extensions>
      </trkpt>
      <trkpt lat="42.64796077273786067962646484375" lon="19.91377316415309906005859375">
        <ele>1180.4000244140625</ele>
        <time>2026-06-16T07:03:16.000Z</time>
        <extensions>
          <ns3:TrackPointExtension>
            <ns3:atemp>16.0</ns3:atemp>
          </ns3:TrackPointExtension>
        </extensions>
      </trkpt>
      <trkpt lat="42.64793965034186840057373046875" lon="19.9137639440596103668212890625">
        <ele>1180.5999755859375</ele>
        <time>2026-06-16T07:03:17.000Z</time>
        <extensions>
          <ns3:TrackPointExtension>
            <ns3:atemp>15.0</ns3:atemp>
          </ns3:TrackPointExtension>
        </extensions>
      </trkpt>
      <trkpt lat="42.647919617593288421630859375" lon="19.91375698707997798919677734375">
        <ele>1180.800048828125</ele>
        <time>2026-06-16T07:03:18.000Z</time>
        <extensions>
          <ns3:TrackPointExtension>
            <ns3:atemp>15.0</ns3:atemp>
          </ns3:TrackPointExtension>
        </extensions>
      </trkpt>
      <trkpt lat="42.6479013450443744659423828125" lon="19.9137498624622821807861328125">
        <ele>1181</ele>
        <time>2026-06-16T07:03:19.000Z</time>
        <extensions>
          <ns3:TrackPointExtension>
            <ns3:atemp>15.0</ns3:atemp>
          </ns3:TrackPointExtension>
        </extensions>
      </trkpt>
      <trkpt lat="42.64787971973419189453125" lon="19.91374307312071323394775390625">
        <ele>1181.199951171875</ele>
        <time>2026-06-16T07:03:20.000Z</time>
        <extensions>
          <ns3:TrackPointExtension>
            <ns3:atemp>15.0</ns3:atemp>
          </ns3:TrackPointExtension>
        </extensions>
      </trkpt>
      <trkpt lat="42.647855915129184722900390625" lon="19.91373569704592227935791015625">
        <ele>1181.4000244140625</ele>
        <time>2026-06-16T07:03:21.000Z</time>
        <extensions>
          <ns3:TrackPointExtension>
            <ns3:atemp>15.0</ns3:atemp>
          </ns3:TrackPointExtension>
        </extensions>
      </trkpt>
      <trkpt lat="42.64783638529479503631591796875" lon="19.91372932679951190948486328125">
        <ele>1181.5999755859375</ele>
        <time>2026-06-16T07:03:22.000Z</time>
        <extensions>
          <ns3:TrackPointExtension>
            <ns3:atemp>15.0</ns3:atemp>
          </ns3:TrackPointExtension>
        </extensions>
      </trkpt>
      <trkpt lat="42.6478151790797710418701171875" lon="19.91372354328632354736328125">
        <ele>1181.800048828125</ele>
        <time>2026-06-16T07:03:23.000Z</time>
        <extensions>
          <ns3:TrackPointExtension>
            <ns3:atemp>15.0</ns3:atemp>
          </ns3:TrackPointExtension>
        </extensions>
      </trkpt>
      <trkpt lat="42.6477940566837787628173828125" lon="19.9137163348495960235595703125">
        <ele>1182</ele>
        <time>2026-06-16T07:03:24.000Z</time>
        <extensions>
          <ns3:TrackPointExtension>
            <ns3:atemp>15.0</ns3:atemp>
          </ns3:TrackPointExtension>
        </extensions>
      </trkpt>
      <trkpt lat="42.64777176082134246826171875" lon="19.91370988078415393829345703125">
        <ele>1182.4000244140625</ele>
        <time>2026-06-16T07:03:25.000Z</time>
        <extensions>
          <ns3:TrackPointExtension>
            <ns3:atemp>15.0</ns3:atemp>
          </ns3:TrackPointExtension>
        </extensions>
      </trkpt>
      <trkpt lat="42.64775373972952365875244140625" lon="19.913701750338077545166015625">
        <ele>1182.5999755859375</ele>
        <time>2026-06-16T07:03:26.000Z</time>
        <extensions>
          <ns3:TrackPointExtension>
            <ns3:atemp>15.0</ns3:atemp>
          </ns3:TrackPointExtension>
        </extensions>
      </trkpt>
      <trkpt lat="42.64773714356124401092529296875" lon="19.91369144059717655181884765625">
        <ele>1182.800048828125</ele>
        <time>2026-06-16T07:03:27.000Z</time>
        <extensions>
          <ns3:TrackPointExtension>
            <ns3:atemp>16.0</ns3:atemp>
          </ns3:TrackPointExtension>
        </extensions>
      </trkpt>
      <trkpt lat="42.64771702699363231658935546875" lon="19.91369026713073253631591796875">
        <ele>1183</ele>
        <time>2026-06-16T07:03:28.000Z</time>
        <extensions>
          <ns3:TrackPointExtension>
            <ns3:atemp>16.0</ns3:atemp>
          </ns3:TrackPointExtension>
        </extensions>
      </trkpt>
      <trkpt lat="42.64769908972084522247314453125" lon="19.91368842311203479766845703125">
        <ele>1183.199951171875</ele>
        <time>2026-06-16T07:03:29.000Z</time>
        <extensions>
          <ns3:TrackPointExtension>
            <ns3:atemp>16.0</ns3:atemp>
          </ns3:TrackPointExtension>
        </extensions>
      </trkpt>
      <trkpt lat="42.64767981134355068206787109375" lon="19.9136851541697978973388671875">
        <ele>1183.4000244140625</ele>
        <time>2026-06-16T07:03:30.000Z</time>
        <extensions>
          <ns3:TrackPointExtension>
            <ns3:atemp>15.0</ns3:atemp>
          </ns3:TrackPointExtension>
        </extensions>
      </trkpt>
      <trkpt lat="42.6476589404046535491943359375" lon="19.9136848188936710357666015625">
        <ele>1183.5999755859375</ele>
        <time>2026-06-16T07:03:31.000Z</time>
        <extensions>
          <ns3:TrackPointExtension>
            <ns3:atemp>16.0</ns3:atemp>
          </ns3:TrackPointExtension>
        </extensions>
      </trkpt>
      <trkpt lat="42.6476405002176761627197265625" lon="19.91368188522756099700927734375">
        <ele>1183.800048828125</ele>
        <time>2026-06-16T07:03:32.000Z</time>
        <extensions>
          <ns3:TrackPointExtension>
            <ns3:atemp>15.0</ns3:atemp>
          </ns3:TrackPointExtension>
        </extensions>
      </trkpt>
      <trkpt lat="42.64762365259230136871337890625" lon="19.91368087939918041229248046875">
        <ele>1184.199951171875</ele>
        <time>2026-06-16T07:03:33.000Z</time>
        <extensions>
          <ns3:TrackPointExtension>
            <ns3:atemp>15.0</ns3:atemp>
          </ns3:TrackPointExtension>
        </extensions>
      </trkpt>
      <trkpt lat="42.6476052962243556976318359375" lon="19.9136824719607830047607421875">
        <ele>1184.4000244140625</ele>
        <time>2026-06-16T07:03:34.000Z</time>
        <extensions>
          <ns3:TrackPointExtension>
            <ns3:atemp>16.0</ns3:atemp>
          </ns3:TrackPointExtension>
        </extensions>
      </trkpt>
      <trkpt lat="42.647589705884456634521484375" lon="19.91368222050368785858154296875">
        <ele>1184.800048828125</ele>
        <time>2026-06-16T07:03:35.000Z</time>
        <extensions>
          <ns3:TrackPointExtension>
            <ns3:atemp>15.0</ns3:atemp>
          </ns3:TrackPointExtension>
        </extensions>
      </trkpt>
      <trkpt lat="42.64756497927010059356689453125" lon="19.9136871658265590667724609375">
        <ele>1185</ele>
        <time>2026-06-16T07:03:36.000Z</time>
        <extensions>
          <ns3:TrackPointExtension>
            <ns3:atemp>15.0</ns3:atemp>
          </ns3:TrackPointExtension>
        </extensions>
      </trkpt>
      <trkpt lat="42.6475412584841251373291015625" lon="19.91369412280619144439697265625">
        <ele>1185.199951171875</ele>
        <time>2026-06-16T07:03:37.000Z</time>
        <extensions>
          <ns3:TrackPointExtension>
            <ns3:atemp>15.0</ns3:atemp>
          </ns3:TrackPointExtension>
        </extensions>
      </trkpt>
      <trkpt lat="42.64751560986042022705078125" lon="19.9137005768716335296630859375">
        <ele>1185.4000244140625</ele>
        <time>2026-06-16T07:03:38.000Z</time>
        <extensions>
          <ns3:TrackPointExtension>
            <ns3:atemp>15.0</ns3:atemp>
          </ns3:TrackPointExtension>
        </extensions>
      </trkpt>
      <trkpt lat="42.647494487464427947998046875" lon="19.91370837204158306121826171875">
        <ele>1185.5999755859375</ele>
        <time>2026-06-16T07:03:39.000Z</time>
        <extensions>
          <ns3:TrackPointExtension>
            <ns3:atemp>15.0</ns3:atemp>
          </ns3:TrackPointExtension>
        </extensions>
      </trkpt>
      <trkpt lat="42.647472359240055084228515625" lon="19.9137156642973423004150390625">
        <ele>1185.800048828125</ele>
        <time>2026-06-16T07:03:40.000Z</time>
        <extensions>
          <ns3:TrackPointExtension>
            <ns3:atemp>16.0</ns3:atemp>
          </ns3:TrackPointExtension>
        </extensions>
      </trkpt>
      <trkpt lat="42.64744964428246021270751953125" lon="19.91372496820986270904541015625">
        <ele>1186</ele>
        <time>2026-06-16T07:03:41.000Z</time>
        <extensions>
          <ns3:TrackPointExtension>
            <ns3:atemp>15.0</ns3:atemp>
          </ns3:TrackPointExtension>
        </extensions>
      </trkpt>
      <trkpt lat="42.6474249176681041717529296875" lon="19.91373301483690738677978515625">
        <ele>1186.199951171875</ele>
        <time>2026-06-16T07:03:42.000Z</time>
        <extensions>
          <ns3:TrackPointExtension>
            <ns3:atemp>15.0</ns3:atemp>
          </ns3:TrackPointExtension>
        </extensions>
      </trkpt>
      <trkpt lat="42.64740169979631900787353515625" lon="19.91373938508331775665283203125">
        <ele>1186.4000244140625</ele>
        <time>2026-06-16T07:03:43.000Z</time>
        <extensions>
          <ns3:TrackPointExtension>
            <ns3:atemp>15.0</ns3:atemp>
          </ns3:TrackPointExtension>
        </extensions>
      </trkpt>
      <trkpt lat="42.647377811372280120849609375" lon="19.91374365985393524169921875">
        <ele>1186.4000244140625</ele>
        <time>2026-06-16T07:03:44.000Z</time>
        <extensions>
          <ns3:TrackPointExtension>
            <ns3:atemp>15.0</ns3:atemp>
          </ns3:TrackPointExtension>
        </extensions>
      </trkpt>
      <trkpt lat="42.647357694804668426513671875" lon="19.91375170648097991943359375">
        <ele>1186.5999755859375</ele>
        <time>2026-06-16T07:03:45.000Z</time>
        <extensions>
          <ns3:TrackPointExtension>
            <ns3:atemp>15.0</ns3:atemp>
          </ns3:TrackPointExtension>
        </extensions>
      </trkpt>
      <trkpt lat="42.64733531512320041656494140625" lon="19.91375841200351715087890625">
        <ele>1186.5999755859375</ele>
        <time>2026-06-16T07:03:46.000Z</time>
        <extensions>
          <ns3:TrackPointExtension>
            <ns3:atemp>15.0</ns3:atemp>
          </ns3:TrackPointExtension>
        </extensions>
      </trkpt>
      <trkpt lat="42.64731042087078094482421875" lon="19.913764111697673797607421875">
        <ele>1186.800048828125</ele>
        <time>2026-06-16T07:03:47.000Z</time>
        <extensions>
          <ns3:TrackPointExtension>
            <ns3:atemp>15.0</ns3:atemp>
          </ns3:TrackPointExtension>
        </extensions>
      </trkpt>
      <trkpt lat="42.6472824253141880035400390625" lon="19.91377106867730617523193359375">
        <ele>1186.800048828125</ele>
        <time>2026-06-16T07:03:48.000Z</time>
        <extensions>
          <ns3:TrackPointExtension>
            <ns3:atemp>15.0</ns3:atemp>
          </ns3:TrackPointExtension>
        </extensions>
      </trkpt>
      <trkpt lat="42.64725987799465656280517578125" lon="19.9137766845524311065673828125">
        <ele>1187</ele>
        <time>2026-06-16T07:03:49.000Z</time>
        <extensions>
          <ns3:TrackPointExtension>
            <ns3:atemp>15.0</ns3:atemp>
          </ns3:TrackPointExtension>
        </extensions>
      </trkpt>
      <trkpt lat="42.64723003841936588287353515625" lon="19.9137830547988414764404296875">
        <ele>1187.199951171875</ele>
        <time>2026-06-16T07:03:50.000Z</time>
        <extensions>
          <ns3:TrackPointExtension>
            <ns3:atemp>15.0</ns3:atemp>
          </ns3:TrackPointExtension>
        </extensions>
      </trkpt>
      <trkpt lat="42.64720045030117034912109375" lon="19.91378850303590297698974609375">
        <ele>1187.4000244140625</ele>
        <time>2026-06-16T07:03:51.000Z</time>
        <extensions>
          <ns3:TrackPointExtension>
            <ns3:atemp>15.0</ns3:atemp>
          </ns3:TrackPointExtension>
        </extensions>
      </trkpt>
      <trkpt lat="42.64717253856360912322998046875" lon="19.91378967650234699249267578125">
        <ele>1187.5999755859375</ele>
        <time>2026-06-16T07:03:52.000Z</time>
        <extensions>
          <ns3:TrackPointExtension>
            <ns3:atemp>15.0</ns3:atemp>
          </ns3:TrackPointExtension>
        </extensions>
      </trkpt>
      <trkpt lat="42.64715158380568027496337890625" lon="19.9137924425303936004638671875">
        <ele>1187.800048828125</ele>
        <time>2026-06-16T07:03:53.000Z</time>
        <extensions>
          <ns3:TrackPointExtension>
            <ns3:atemp>15.0</ns3:atemp>
          </ns3:TrackPointExtension>
        </extensions>
      </trkpt>
      <trkpt lat="42.64713029377162456512451171875" lon="19.91379386745393276214599609375">
        <ele>1188</ele>
        <time>2026-06-16T07:03:54.000Z</time>
        <extensions>
          <ns3:TrackPointExtension>
            <ns3:atemp>15.0</ns3:atemp>
          </ns3:TrackPointExtension>
        </extensions>
      </trkpt>
      <trkpt lat="42.64710833318531513214111328125" lon="19.91379705257713794708251953125">
        <ele>1188.199951171875</ele>
        <time>2026-06-16T07:03:55.000Z</time>
        <extensions>
          <ns3:TrackPointExtension>
            <ns3:atemp>15.0</ns3:atemp>
          </ns3:TrackPointExtension>
        </extensions>
      </trkpt>
      <trkpt lat="42.64708553440868854522705078125" lon="19.913800321519374847412109375">
        <ele>1188.4000244140625</ele>
        <time>2026-06-16T07:03:56.000Z</time>
        <extensions>
          <ns3:TrackPointExtension>
            <ns3:atemp>15.0</ns3:atemp>
          </ns3:TrackPointExtension>
        </extensions>
      </trkpt>
      <trkpt lat="42.64706005342304706573486328125" lon="19.91380057297646999359130859375">
        <ele>1188.5999755859375</ele>
        <time>2026-06-16T07:03:57.000Z</time>
        <extensions>
          <ns3:TrackPointExtension>
            <ns3:atemp>15.0</ns3:atemp>
          </ns3:TrackPointExtension>
        </extensions>
      </trkpt>
      <trkpt lat="42.64703658409416675567626953125" lon="19.91379939951002597808837890625">
        <ele>1188.800048828125</ele>
        <time>2026-06-16T07:03:58.000Z</time>
        <extensions>
          <ns3:TrackPointExtension>
            <ns3:atemp>15.0</ns3:atemp>
          </ns3:TrackPointExtension>
        </extensions>
      </trkpt>
      <trkpt lat="42.64701395295560359954833984375" lon="19.91379939951002597808837890625">
        <ele>1189.199951171875</ele>
        <time>2026-06-16T07:03:59.000Z</time>
        <extensions>
          <ns3:TrackPointExtension>
            <ns3:atemp>15.0</ns3:atemp>
          </ns3:TrackPointExtension>
        </extensions>
      </trkpt>
      <trkpt lat="42.64699065126478672027587890625" lon="19.913798980414867401123046875">
        <ele>1189.4000244140625</ele>
        <time>2026-06-16T07:04:00.000Z</time>
        <extensions>
          <ns3:TrackPointExtension>
            <ns3:atemp>15.0</ns3:atemp>
          </ns3:TrackPointExtension>
        </extensions>
      </trkpt>
      <trkpt lat="42.64696751721203327178955078125" lon="19.91379319690167903900146484375">
        <ele>1189.5999755859375</ele>
        <time>2026-06-16T07:04:01.000Z</time>
        <extensions>
          <ns3:TrackPointExtension>
            <ns3:atemp>15.0</ns3:atemp>
          </ns3:TrackPointExtension>
        </extensions>
      </trkpt>
      <trkpt lat="42.64694555662572383880615234375" lon="19.91379152052104473114013671875">
        <ele>1189.800048828125</ele>
        <time>2026-06-16T07:04:02.000Z</time>
        <extensions>
          <ns3:TrackPointExtension>
            <ns3:atemp>15.0</ns3:atemp>
          </ns3:TrackPointExtension>
        </extensions>
      </trkpt>
      <trkpt lat="42.64692359603941440582275390625" lon="19.9137907661497592926025390625">
        <ele>1190</ele>
        <time>2026-06-16T07:04:03.000Z</time>
        <extensions>
          <ns3:TrackPointExtension>
            <ns3:atemp>15.0</ns3:atemp>
          </ns3:TrackPointExtension>
        </extensions>
      </trkpt>
      <trkpt lat="42.6469028927385807037353515625" lon="19.91378925740718841552734375">
        <ele>1190.199951171875</ele>
        <time>2026-06-16T07:04:04.000Z</time>
        <extensions>
          <ns3:TrackPointExtension>
            <ns3:atemp>15.0</ns3:atemp>
          </ns3:TrackPointExtension>
        </extensions>
      </trkpt>
      <trkpt lat="42.64687933959066867828369140625" lon="19.91378523409366607666015625">
        <ele>1190.199951171875</ele>
        <time>2026-06-16T07:04:05.000Z</time>
        <extensions>
          <ns3:TrackPointExtension>
            <ns3:atemp>15.0</ns3:atemp>
          </ns3:TrackPointExtension>
        </extensions>
      </trkpt>
      <trkpt lat="42.6468589715659618377685546875" lon="19.91378196515142917633056640625">
        <ele>1190.5999755859375</ele>
        <time>2026-06-16T07:04:06.000Z</time>
        <extensions>
          <ns3:TrackPointExtension>
            <ns3:atemp>15.0</ns3:atemp>
          </ns3:TrackPointExtension>
        </extensions>
      </trkpt>
      <trkpt lat="42.64683893881738185882568359375" lon="19.9137780256569385528564453125">
        <ele>1190.800048828125</ele>
        <time>2026-06-16T07:04:07.000Z</time>
        <extensions>
          <ns3:TrackPointExtension>
            <ns3:atemp>16.0</ns3:atemp>
          </ns3:TrackPointExtension>
        </extensions>
      </trkpt>
      <trkpt lat="42.64682083390653133392333984375" lon="19.91377475671470165252685546875">
        <ele>1191</ele>
        <time>2026-06-16T07:04:08.000Z</time>
        <extensions>
          <ns3:TrackPointExtension>
            <ns3:atemp>15.0</ns3:atemp>
          </ns3:TrackPointExtension>
        </extensions>
      </trkpt>
      <trkpt lat="42.64680155552923679351806640625" lon="19.913773834705352783203125">
        <ele>1191.4000244140625</ele>
        <time>2026-06-16T07:04:09.000Z</time>
        <extensions>
          <ns3:TrackPointExtension>
            <ns3:atemp>16.0</ns3:atemp>
          </ns3:TrackPointExtension>
        </extensions>
      </trkpt>
      <trkpt lat="42.6467818580567836761474609375" lon="19.9137743376195430755615234375">
        <ele>1191.800048828125</ele>
        <time>2026-06-16T07:04:10.000Z</time>
        <extensions>
          <ns3:TrackPointExtension>
            <ns3:atemp>16.0</ns3:atemp>
          </ns3:TrackPointExtension>
        </extensions>
      </trkpt>
      <trkpt lat="42.64676283113658428192138671875" lon="19.913771152496337890625">
        <ele>1192</ele>
        <time>2026-06-16T07:04:11.000Z</time>
        <extensions>
          <ns3:TrackPointExtension>
            <ns3:atemp>16.0</ns3:atemp>
          </ns3:TrackPointExtension>
        </extensions>
      </trkpt>
      <trkpt lat="42.646742127835750579833984375" lon="19.9137669615447521209716796875">
        <ele>1192.4000244140625</ele>
        <time>2026-06-16T07:04:12.000Z</time>
        <extensions>
          <ns3:TrackPointExtension>
            <ns3:atemp>15.0</ns3:atemp>
          </ns3:TrackPointExtension>
        </extensions>
      </trkpt>
      <trkpt lat="42.64671874232590198516845703125" lon="19.91376855410635471343994140625">
        <ele>1192.5999755859375</ele>
        <time>2026-06-16T07:04:13.000Z</time>
        <extensions>
          <ns3:TrackPointExtension>
            <ns3:atemp>16.0</ns3:atemp>
          </ns3:TrackPointExtension>
        </extensions>
      </trkpt>
      <trkpt lat="42.64669376425445079803466796875" lon="19.91376888938248157501220703125">
        <ele>1193</ele>
        <time>2026-06-16T07:04:14.000Z</time>
        <extensions>
          <ns3:TrackPointExtension>
            <ns3:atemp>15.0</ns3:atemp>
          </ns3:TrackPointExtension>
        </extensions>
      </trkpt>
      <trkpt lat="42.6466713845729827880859375" lon="19.9137719906866550445556640625">
        <ele>1193.199951171875</ele>
        <time>2026-06-16T07:04:15.000Z</time>
        <extensions>
          <ns3:TrackPointExtension>
            <ns3:atemp>15.0</ns3:atemp>
          </ns3:TrackPointExtension>
        </extensions>
      </trkpt>
      <trkpt lat="42.6466480828821659088134765625" lon="19.91376905702054500579833984375">
        <ele>1193.4000244140625</ele>
        <time>2026-06-16T07:04:16.000Z</time>
        <extensions>
          <ns3:TrackPointExtension>
            <ns3:atemp>15.0</ns3:atemp>
          </ns3:TrackPointExtension>
        </extensions>
      </trkpt>
      <trkpt lat="42.64662377536296844482421875" lon="19.91376855410635471343994140625">
        <ele>1193.800048828125</ele>
        <time>2026-06-16T07:04:17.000Z</time>
        <extensions>
          <ns3:TrackPointExtension>
            <ns3:atemp>16.0</ns3:atemp>
          </ns3:TrackPointExtension>
        </extensions>
      </trkpt>
      <trkpt lat="42.64660374261438846588134765625" lon="19.91376084275543689727783203125">
        <ele>1193.800048828125</ele>
        <time>2026-06-16T07:04:18.000Z</time>
        <extensions>
          <ns3:TrackPointExtension>
            <ns3:atemp>16.0</ns3:atemp>
          </ns3:TrackPointExtension>
        </extensions>
      </trkpt>
      <trkpt lat="42.64657926745712757110595703125" lon="19.91375715471804141998291015625">
        <ele>1194</ele>
        <time>2026-06-16T07:04:19.000Z</time>
        <extensions>
          <ns3:TrackPointExtension>
            <ns3:atemp>16.0</ns3:atemp>
          </ns3:TrackPointExtension>
        </extensions>
      </trkpt>
      <trkpt lat="42.64655680395662784576416015625" lon="19.91375304758548736572265625">
        <ele>1194.4000244140625</ele>
        <time>2026-06-16T07:04:20.000Z</time>
        <extensions>
          <ns3:TrackPointExtension>
            <ns3:atemp>16.0</ns3:atemp>
          </ns3:TrackPointExtension>
        </extensions>
      </trkpt>
      <trkpt lat="42.64653534628450870513916015625" lon="19.913746677339076995849609375">
        <ele>1194.5999755859375</ele>
        <time>2026-06-16T07:04:21.000Z</time>
        <extensions>
          <ns3:TrackPointExtension>
            <ns3:atemp>16.0</ns3:atemp>
          </ns3:TrackPointExtension>
        </extensions>
      </trkpt>
      <trkpt lat="42.64651539735496044158935546875" lon="19.9137391336262226104736328125">
        <ele>1194.800048828125</ele>
        <time>2026-06-16T07:04:22.000Z</time>
        <extensions>
          <ns3:TrackPointExtension>
            <ns3:atemp>16.0</ns3:atemp>
          </ns3:TrackPointExtension>
        </extensions>
      </trkpt>
      <trkpt lat="42.64649662189185619354248046875" lon="19.9137347750365734100341796875">
        <ele>1195.199951171875</ele>
        <time>2026-06-16T07:04:23.000Z</time>
        <extensions>
          <ns3:TrackPointExtension>
            <ns3:atemp>15.0</ns3:atemp>
          </ns3:TrackPointExtension>
        </extensions>
      </trkpt>
      <trkpt lat="42.646477930247783660888671875" lon="19.9137300811707973480224609375">
        <ele>1195.4000244140625</ele>
        <time>2026-06-16T07:04:24.000Z</time>
        <extensions>
          <ns3:TrackPointExtension>
            <ns3:atemp>15.0</ns3:atemp>
          </ns3:TrackPointExtension>
        </extensions>
      </trkpt>
      <trkpt lat="42.6464589871466159820556640625" lon="19.913726560771465301513671875">
        <ele>1195.5999755859375</ele>
        <time>2026-06-16T07:04:25.000Z</time>
        <extensions>
          <ns3:TrackPointExtension>
            <ns3:atemp>15.0</ns3:atemp>
          </ns3:TrackPointExtension>
        </extensions>
      </trkpt>
      <trkpt lat="42.64643736183643341064453125" lon="19.913725219666957855224609375">
        <ele>1195.800048828125</ele>
        <time>2026-06-16T07:04:26.000Z</time>
        <extensions>
          <ns3:TrackPointExtension>
            <ns3:atemp>15.0</ns3:atemp>
          </ns3:TrackPointExtension>
        </extensions>
      </trkpt>
      <trkpt lat="42.6464154012501239776611328125" lon="19.91371993906795978546142578125">
        <ele>1196</ele>
        <time>2026-06-16T07:04:27.000Z</time>
        <extensions>
          <ns3:TrackPointExtension>
            <ns3:atemp>15.0</ns3:atemp>
          </ns3:TrackPointExtension>
        </extensions>
      </trkpt>
      <trkpt lat="42.6464004814624786376953125" lon="19.9137119762599468231201171875">
        <ele>1196.199951171875</ele>
        <time>2026-06-16T07:04:28.000Z</time>
        <extensions>
          <ns3:TrackPointExtension>
            <ns3:atemp>15.0</ns3:atemp>
          </ns3:TrackPointExtension>
        </extensions>
      </trkpt>
      <trkpt lat="42.64637835323810577392578125" lon="19.91370351053774356842041015625">
        <ele>1196.5999755859375</ele>
        <time>2026-06-16T07:04:29.000Z</time>
        <extensions>
          <ns3:TrackPointExtension>
            <ns3:atemp>15.0</ns3:atemp>
          </ns3:TrackPointExtension>
        </extensions>
      </trkpt>
      <trkpt lat="42.646361254155635833740234375" lon="19.91369546391069889068603515625">
        <ele>1196.5999755859375</ele>
        <time>2026-06-16T07:04:30.000Z</time>
        <extensions>
          <ns3:TrackPointExtension>
            <ns3:atemp>15.0</ns3:atemp>
          </ns3:TrackPointExtension>
        </extensions>
      </trkpt>
      <trkpt lat="42.64634189195930957794189453125" lon="19.91369512863457202911376953125">
        <ele>1197.199951171875</ele>
        <time>2026-06-16T07:04:31.000Z</time>
        <extensions>
          <ns3:TrackPointExtension>
            <ns3:atemp>15.0</ns3:atemp>
          </ns3:TrackPointExtension>
        </extensions>
      </trkpt>
      <trkpt lat="42.64632068574428558349609375" lon="19.913692362606525421142578125">
        <ele>1197.4000244140625</ele>
        <time>2026-06-16T07:04:32.000Z</time>
        <extensions>
          <ns3:TrackPointExtension>
            <ns3:atemp>15.0</ns3:atemp>
          </ns3:TrackPointExtension>
        </extensions>
      </trkpt>
      <trkpt lat="42.64630325138568878173828125" lon="19.9136898480355739593505859375">
        <ele>1197.800048828125</ele>
        <time>2026-06-16T07:04:33.000Z</time>
        <extensions>
          <ns3:TrackPointExtension>
            <ns3:atemp>15.0</ns3:atemp>
          </ns3:TrackPointExtension>
        </extensions>
      </trkpt>
      <trkpt lat="42.646286822855472564697265625" lon="19.9136848188936710357666015625">
        <ele>1198</ele>
        <time>2026-06-16T07:04:34.000Z</time>
        <extensions>
          <ns3:TrackPointExtension>
            <ns3:atemp>15.0</ns3:atemp>
          </ns3:TrackPointExtension>
        </extensions>
      </trkpt>
      <trkpt lat="42.64626276679337024688720703125" lon="19.9136814661324024200439453125">
        <ele>1198.199951171875</ele>
        <time>2026-06-16T07:04:35.000Z</time>
        <extensions>
          <ns3:TrackPointExtension>
            <ns3:atemp>15.0</ns3:atemp>
          </ns3:TrackPointExtension>
        </extensions>
      </trkpt>
      <trkpt lat="42.646239213645458221435546875" lon="19.91367769427597522735595703125">
        <ele>1198.4000244140625</ele>
        <time>2026-06-16T07:04:36.000Z</time>
        <extensions>
          <ns3:TrackPointExtension>
            <ns3:atemp>15.0</ns3:atemp>
          </ns3:TrackPointExtension>
        </extensions>
      </trkpt>
      <trkpt lat="42.64621381647884845733642578125" lon="19.9136744253337383270263671875">
        <ele>1198.800048828125</ele>
        <time>2026-06-16T07:04:37.000Z</time>
        <extensions>
          <ns3:TrackPointExtension>
            <ns3:atemp>15.0</ns3:atemp>
          </ns3:TrackPointExtension>
        </extensions>
      </trkpt>
      <trkpt lat="42.6461857371032238006591796875" lon="19.91367551498115062713623046875">
        <ele>1199</ele>
        <time>2026-06-16T07:04:38.000Z</time>
        <extensions>
          <ns3:TrackPointExtension>
            <ns3:atemp>15.0</ns3:atemp>
          </ns3:TrackPointExtension>
        </extensions>
      </trkpt>
      <trkpt lat="42.6461582444608211517333984375" lon="19.91367953829467296600341796875">
        <ele>1199.199951171875</ele>
        <time>2026-06-16T07:04:39.000Z</time>
        <extensions>
          <ns3:TrackPointExtension>
            <ns3:atemp>15.0</ns3:atemp>
          </ns3:TrackPointExtension>
        </extensions>
      </trkpt>
      <trkpt lat="42.64613167382776737213134765625" lon="19.91368121467530727386474609375">
        <ele>1199.199951171875</ele>
        <time>2026-06-16T07:04:40.000Z</time>
        <extensions>
          <ns3:TrackPointExtension>
            <ns3:atemp>15.0</ns3:atemp>
          </ns3:TrackPointExtension>
        </extensions>
      </trkpt>
      <trkpt lat="42.6461081206798553466796875" lon="19.913682974874973297119140625">
        <ele>1199.4000244140625</ele>
        <time>2026-06-16T07:04:41.000Z</time>
        <extensions>
          <ns3:TrackPointExtension>
            <ns3:atemp>15.0</ns3:atemp>
          </ns3:TrackPointExtension>
        </extensions>
      </trkpt>
      <trkpt lat="42.6460824720561504364013671875" lon="19.91368062794208526611328125">
        <ele>1199.5999755859375</ele>
        <time>2026-06-16T07:04:42.000Z</time>
        <extensions>
          <ns3:TrackPointExtension>
            <ns3:atemp>15.0</ns3:atemp>
          </ns3:TrackPointExtension>
        </extensions>
      </trkpt>
      <trkpt lat="42.64605824835598468780517578125" lon="19.91368037648499011993408203125">
        <ele>1199.800048828125</ele>
        <time>2026-06-16T07:04:43.000Z</time>
        <extensions>
          <ns3:TrackPointExtension>
            <ns3:atemp>15.0</ns3:atemp>
          </ns3:TrackPointExtension>
        </extensions>
      </trkpt>
      <trkpt lat="42.64603377319872379302978515625" lon="19.91368356160819530487060546875">
        <ele>1200.199951171875</ele>
        <time>2026-06-16T07:04:44.000Z</time>
        <extensions>
          <ns3:TrackPointExtension>
            <ns3:atemp>15.0</ns3:atemp>
          </ns3:TrackPointExtension>
        </extensions>
      </trkpt>
      <trkpt lat="42.646010220050811767578125" lon="19.9136881716549396514892578125">
        <ele>1200.4000244140625</ele>
        <time>2026-06-16T07:04:45.000Z</time>
        <extensions>
          <ns3:TrackPointExtension>
            <ns3:atemp>15.0</ns3:atemp>
          </ns3:TrackPointExtension>
        </extensions>
      </trkpt>
      <trkpt lat="42.64598809182643890380859375" lon="19.9136901833117008209228515625">
        <ele>1200.5999755859375</ele>
        <time>2026-06-16T07:04:46.000Z</time>
        <extensions>
          <ns3:TrackPointExtension>
            <ns3:atemp>15.0</ns3:atemp>
          </ns3:TrackPointExtension>
        </extensions>
      </trkpt>
      <trkpt lat="42.64596353285014629364013671875" lon="19.9136918596923351287841796875">
        <ele>1200.800048828125</ele>
        <time>2026-06-16T07:04:47.000Z</time>
        <extensions>
          <ns3:TrackPointExtension>
            <ns3:atemp>15.0</ns3:atemp>
          </ns3:TrackPointExtension>
        </extensions>
      </trkpt>
      <trkpt lat="42.64594324864447116851806640625" lon="19.9136928655207157135009765625">
        <ele>1201</ele>
        <time>2026-06-16T07:04:48.000Z</time>
        <extensions>
          <ns3:TrackPointExtension>
            <ns3:atemp>15.0</ns3:atemp>
          </ns3:TrackPointExtension>
        </extensions>
      </trkpt>
      <trkpt lat="42.64591760002076625823974609375" lon="19.91369898431003093719482421875">
        <ele>1201.199951171875</ele>
        <time>2026-06-16T07:04:49.000Z</time>
        <extensions>
          <ns3:TrackPointExtension>
            <ns3:atemp>15.0</ns3:atemp>
          </ns3:TrackPointExtension>
        </extensions>
      </trkpt>
      <trkpt lat="42.645895220339298248291015625" lon="19.91370351053774356842041015625">
        <ele>1201.4000244140625</ele>
        <time>2026-06-16T07:04:50.000Z</time>
        <extensions>
          <ns3:TrackPointExtension>
            <ns3:atemp>15.0</ns3:atemp>
          </ns3:TrackPointExtension>
        </extensions>
      </trkpt>
      <trkpt lat="42.6458729244768619537353515625" lon="19.91370703093707561492919921875">
        <ele>1201.5999755859375</ele>
        <time>2026-06-16T07:04:51.000Z</time>
        <extensions>
          <ns3:TrackPointExtension>
            <ns3:atemp>15.0</ns3:atemp>
          </ns3:TrackPointExtension>
        </extensions>
      </trkpt>
      <trkpt lat="42.6458541490137577056884765625" lon="19.913710467517375946044921875">
        <ele>1201.800048828125</ele>
        <time>2026-06-16T07:04:52.000Z</time>
        <extensions>
          <ns3:TrackPointExtension>
            <ns3:atemp>15.0</ns3:atemp>
          </ns3:TrackPointExtension>
        </extensions>
      </trkpt>
      <trkpt lat="42.64582908712327480316162109375" lon="19.91371415555477142333984375">
        <ele>1202</ele>
        <time>2026-06-16T07:04:53.000Z</time>
        <extensions>
          <ns3:TrackPointExtension>
            <ns3:atemp>15.0</ns3:atemp>
          </ns3:TrackPointExtension>
        </extensions>
      </trkpt>
      <trkpt lat="42.64580477960407733917236328125" lon="19.91371859796345233917236328125">
        <ele>1202.199951171875</ele>
        <time>2026-06-16T07:04:54.000Z</time>
        <extensions>
          <ns3:TrackPointExtension>
            <ns3:atemp>15.0</ns3:atemp>
          </ns3:TrackPointExtension>
        </extensions>
      </trkpt>
      <trkpt lat="42.645779885351657867431640625" lon="19.91372220218181610107421875">
        <ele>1202.4000244140625</ele>
        <time>2026-06-16T07:04:55.000Z</time>
        <extensions>
          <ns3:TrackPointExtension>
            <ns3:atemp>15.0</ns3:atemp>
          </ns3:TrackPointExtension>
        </extensions>
      </trkpt>
      <trkpt lat="42.64575666747987270355224609375" lon="19.91372262127697467803955078125">
        <ele>1202.5999755859375</ele>
        <time>2026-06-16T07:04:56.000Z</time>
        <extensions>
          <ns3:TrackPointExtension>
            <ns3:atemp>16.0</ns3:atemp>
          </ns3:TrackPointExtension>
        </extensions>
      </trkpt>
      <trkpt lat="42.64573730528354644775390625" lon="19.9137253873050212860107421875">
        <ele>1202.800048828125</ele>
        <time>2026-06-16T07:04:57.000Z</time>
        <extensions>
          <ns3:TrackPointExtension>
            <ns3:atemp>16.0</ns3:atemp>
          </ns3:TrackPointExtension>
        </extensions>
      </trkpt>
      <trkpt lat="42.6457138359546661376953125" lon="19.91373234428465366363525390625">
        <ele>1203.199951171875</ele>
        <time>2026-06-16T07:04:58.000Z</time>
        <extensions>
          <ns3:TrackPointExtension>
            <ns3:atemp>15.0</ns3:atemp>
          </ns3:TrackPointExtension>
        </extensions>
      </trkpt>
      <trkpt lat="42.645688019692897796630859375" lon="19.91373837925493717193603515625">
        <ele>1203.4000244140625</ele>
        <time>2026-06-16T07:04:59.000Z</time>
        <extensions>
          <ns3:TrackPointExtension>
            <ns3:atemp>16.0</ns3:atemp>
          </ns3:TrackPointExtension>
        </extensions>
      </trkpt>
      <trkpt lat="42.64566279016435146331787109375" lon="19.9137424863874912261962890625">
        <ele>1203.5999755859375</ele>
        <time>2026-06-16T07:05:00.000Z</time>
        <extensions>
          <ns3:TrackPointExtension>
            <ns3:atemp>16.0</ns3:atemp>
          </ns3:TrackPointExtension>
        </extensions>
      </trkpt>
      <trkpt lat="42.64564032666385173797607421875" lon="19.9137429893016815185546875">
        <ele>1203.800048828125</ele>
        <time>2026-06-16T07:05:01.000Z</time>
        <extensions>
          <ns3:TrackPointExtension>
            <ns3:atemp>16.0</ns3:atemp>
          </ns3:TrackPointExtension>
        </extensions>
      </trkpt>
      <trkpt lat="42.64561702497303485870361328125" lon="19.91374860517680644989013671875">
        <ele>1204.199951171875</ele>
        <time>2026-06-16T07:05:02.000Z</time>
        <extensions>
          <ns3:TrackPointExtension>
            <ns3:atemp>16.0</ns3:atemp>
          </ns3:TrackPointExtension>
        </extensions>
      </trkpt>
      <trkpt lat="42.64559573493897914886474609375" lon="19.9137555621564388275146484375">
        <ele>1204.4000244140625</ele>
        <time>2026-06-16T07:05:03.000Z</time>
        <extensions>
          <ns3:TrackPointExtension>
            <ns3:atemp>16.0</ns3:atemp>
          </ns3:TrackPointExtension>
        </extensions>
      </trkpt>
      <trkpt lat="42.645572014153003692626953125" lon="19.9137564003467559814453125">
        <ele>1204.5999755859375</ele>
        <time>2026-06-16T07:05:04.000Z</time>
        <extensions>
          <ns3:TrackPointExtension>
            <ns3:atemp>16.0</ns3:atemp>
          </ns3:TrackPointExtension>
        </extensions>
      </trkpt>
      <trkpt lat="42.645548880100250244140625" lon="19.91376570425927639007568359375">
        <ele>1204.800048828125</ele>
        <time>2026-06-16T07:05:05.000Z</time>
        <extensions>
          <ns3:TrackPointExtension>
            <ns3:atemp>16.0</ns3:atemp>
          </ns3:TrackPointExtension>
        </extensions>
      </trkpt>
      <trkpt lat="42.64552331529557704925537109375" lon="19.91377316415309906005859375">
        <ele>1205.199951171875</ele>
        <time>2026-06-16T07:05:06.000Z</time>
        <extensions>
          <ns3:TrackPointExtension>
            <ns3:atemp>16.0</ns3:atemp>
          </ns3:TrackPointExtension>
        </extensions>
      </trkpt>
      <trkpt lat="42.64550018124282360076904296875" lon="19.9137803725898265838623046875">
        <ele>1205.4000244140625</ele>
        <time>2026-06-16T07:05:07.000Z</time>
        <extensions>
          <ns3:TrackPointExtension>
            <ns3:atemp>16.0</ns3:atemp>
          </ns3:TrackPointExtension>
        </extensions>
      </trkpt>
      <trkpt lat="42.64547721482813358306884765625" lon="19.91379152052104473114013671875">
        <ele>1205.5999755859375</ele>
        <time>2026-06-16T07:05:08.000Z</time>
        <extensions>
          <ns3:TrackPointExtension>
            <ns3:atemp>16.0</ns3:atemp>
          </ns3:TrackPointExtension>
        </extensions>
      </trkpt>
      <trkpt lat="42.64545458368957042694091796875" lon="19.91379872895777225494384765625">
        <ele>1205.800048828125</ele>
        <time>2026-06-16T07:05:09.000Z</time>
        <extensions>
          <ns3:TrackPointExtension>
            <ns3:atemp>16.0</ns3:atemp>
          </ns3:TrackPointExtension>
        </extensions>
      </trkpt>
      <trkpt lat="42.64543262310326099395751953125" lon="19.91380870342254638671875">
        <ele>1206</ele>
        <time>2026-06-16T07:05:10.000Z</time>
        <extensions>
          <ns3:TrackPointExtension>
            <ns3:atemp>16.0</ns3:atemp>
          </ns3:TrackPointExtension>
        </extensions>
      </trkpt>
      <trkpt lat="42.64541066251695156097412109375" lon="19.913816414773464202880859375">
        <ele>1206.199951171875</ele>
        <time>2026-06-16T07:05:11.000Z</time>
        <extensions>
          <ns3:TrackPointExtension>
            <ns3:atemp>16.0</ns3:atemp>
          </ns3:TrackPointExtension>
        </extensions>
      </trkpt>
      <trkpt lat="42.64538995921611785888671875" lon="19.913827814161777496337890625">
        <ele>1206.4000244140625</ele>
        <time>2026-06-16T07:05:12.000Z</time>
        <extensions>
          <ns3:TrackPointExtension>
            <ns3:atemp>16.0</ns3:atemp>
          </ns3:TrackPointExtension>
        </extensions>
      </trkpt>
      <trkpt lat="42.645368836820125579833984375" lon="19.91383217275142669677734375">
        <ele>1206.5999755859375</ele>
        <time>2026-06-16T07:05:13.000Z</time>
        <extensions>
          <ns3:TrackPointExtension>
            <ns3:atemp>16.0</ns3:atemp>
          </ns3:TrackPointExtension>
        </extensions>
      </trkpt>
      <trkpt lat="42.64534461311995983123779296875" lon="19.91384013555943965911865234375">
        <ele>1207</ele>
        <time>2026-06-16T07:05:14.000Z</time>
        <extensions>
          <ns3:TrackPointExtension>
            <ns3:atemp>15.0</ns3:atemp>
          </ns3:TrackPointExtension>
        </extensions>
      </trkpt>
      <trkpt lat="42.64531997032463550567626953125" lon="19.91384499706327915191650390625">
        <ele>1207.199951171875</ele>
        <time>2026-06-16T07:05:15.000Z</time>
        <extensions>
          <ns3:TrackPointExtension>
            <ns3:atemp>15.0</ns3:atemp>
          </ns3:TrackPointExtension>
        </extensions>
      </trkpt>
      <trkpt lat="42.645294405519962310791015625" lon="19.913854300975799560546875">
        <ele>1207.4000244140625</ele>
        <time>2026-06-16T07:05:16.000Z</time>
        <extensions>
          <ns3:TrackPointExtension>
            <ns3:atemp>16.0</ns3:atemp>
          </ns3:TrackPointExtension>
        </extensions>
      </trkpt>
      <trkpt lat="42.64527303166687488555908203125" lon="19.91386142559349536895751953125">
        <ele>1207.5999755859375</ele>
        <time>2026-06-16T07:05:17.000Z</time>
        <extensions>
          <ns3:TrackPointExtension>
            <ns3:atemp>15.0</ns3:atemp>
          </ns3:TrackPointExtension>
        </extensions>
      </trkpt>
      <trkpt lat="42.64524537138640880584716796875" lon="19.913872070610523223876953125">
        <ele>1207.800048828125</ele>
        <time>2026-06-16T07:05:18.000Z</time>
        <extensions>
          <ns3:TrackPointExtension>
            <ns3:atemp>15.0</ns3:atemp>
          </ns3:TrackPointExtension>
        </extensions>
      </trkpt>
      <trkpt lat="42.64522022567689418792724609375" lon="19.9138796143233776092529296875">
        <ele>1207.800048828125</ele>
        <time>2026-06-16T07:05:19.000Z</time>
        <extensions>
          <ns3:TrackPointExtension>
            <ns3:atemp>15.0</ns3:atemp>
          </ns3:TrackPointExtension>
        </extensions>
      </trkpt>
      <trkpt lat="42.645201198756694793701171875" lon="19.91388305090367794036865234375">
        <ele>1208</ele>
        <time>2026-06-16T07:05:20.000Z</time>
        <extensions>
          <ns3:TrackPointExtension>
            <ns3:atemp>15.0</ns3:atemp>
          </ns3:TrackPointExtension>
        </extensions>
      </trkpt>
      <trkpt lat="42.6451782323420047760009765625" lon="19.91388942115008831024169921875">
        <ele>1208.199951171875</ele>
        <time>2026-06-16T07:05:21.000Z</time>
        <extensions>
          <ns3:TrackPointExtension>
            <ns3:atemp>15.0</ns3:atemp>
          </ns3:TrackPointExtension>
        </extensions>
      </trkpt>
      <trkpt lat="42.64515283517539501190185546875" lon="19.913896210491657257080078125">
        <ele>1208.4000244140625</ele>
        <time>2026-06-16T07:05:22.000Z</time>
        <extensions>
          <ns3:TrackPointExtension>
            <ns3:atemp>15.0</ns3:atemp>
          </ns3:TrackPointExtension>
        </extensions>
      </trkpt>
      <trkpt lat="42.64512785710394382476806640625" lon="19.9139030836522579193115234375">
        <ele>1208.4000244140625</ele>
        <time>2026-06-16T07:05:23.000Z</time>
        <extensions>
          <ns3:TrackPointExtension>
            <ns3:atemp>15.0</ns3:atemp>
          </ns3:TrackPointExtension>
        </extensions>
      </trkpt>
      <trkpt lat="42.64510371722280979156494140625" lon="19.91390668787062168121337890625">
        <ele>1208.5999755859375</ele>
        <time>2026-06-16T07:05:24.000Z</time>
        <extensions>
          <ns3:TrackPointExtension>
            <ns3:atemp>15.0</ns3:atemp>
          </ns3:TrackPointExtension>
        </extensions>
      </trkpt>
      <trkpt lat="42.64507790096104145050048828125" lon="19.9139106273651123046875">
        <ele>1208.800048828125</ele>
        <time>2026-06-16T07:05:25.000Z</time>
        <extensions>
          <ns3:TrackPointExtension>
            <ns3:atemp>15.0</ns3:atemp>
          </ns3:TrackPointExtension>
        </extensions>
      </trkpt>
      <trkpt lat="42.64505074359476566314697265625" lon="19.91391574032604694366455078125">
        <ele>1208.800048828125</ele>
        <time>2026-06-16T07:05:26.000Z</time>
        <extensions>
          <ns3:TrackPointExtension>
            <ns3:atemp>15.0</ns3:atemp>
          </ns3:TrackPointExtension>
        </extensions>
      </trkpt>
      <trkpt lat="42.64502660371363162994384765625" lon="19.9139173328876495361328125">
        <ele>1209</ele>
        <time>2026-06-16T07:05:27.000Z</time>
        <extensions>
          <ns3:TrackPointExtension>
            <ns3:atemp>15.0</ns3:atemp>
          </ns3:TrackPointExtension>
        </extensions>
      </trkpt>
      <trkpt lat="42.64500296674668788909912109375" lon="19.91391624324023723602294921875">
        <ele>1209.199951171875</ele>
        <time>2026-06-16T07:05:28.000Z</time>
        <extensions>
          <ns3:TrackPointExtension>
            <ns3:atemp>15.0</ns3:atemp>
          </ns3:TrackPointExtension>
        </extensions>
      </trkpt>
      <trkpt lat="42.64498293399810791015625" lon="19.91391171701252460479736328125">
        <ele>1209.4000244140625</ele>
        <time>2026-06-16T07:05:29.000Z</time>
        <extensions>
          <ns3:TrackPointExtension>
            <ns3:atemp>15.0</ns3:atemp>
          </ns3:TrackPointExtension>
        </extensions>
      </trkpt>
      <trkpt lat="42.6449639908969402313232421875" lon="19.913901574909687042236328125">
        <ele>1209.4000244140625</ele>
        <time>2026-06-16T07:05:30.000Z</time>
        <extensions>
          <ns3:TrackPointExtension>
            <ns3:atemp>15.0</ns3:atemp>
          </ns3:TrackPointExtension>
        </extensions>
      </trkpt>
      <trkpt lat="42.64494714327156543731689453125" lon="19.913894869387149810791015625">
        <ele>1209.5999755859375</ele>
        <time>2026-06-16T07:05:31.000Z</time>
        <extensions>
          <ns3:TrackPointExtension>
            <ns3:atemp>15.0</ns3:atemp>
          </ns3:TrackPointExtension>
        </extensions>
      </trkpt>
      <trkpt lat="42.644924260675907135009765625" lon="19.91388824768364429473876953125">
        <ele>1209.800048828125</ele>
        <time>2026-06-16T07:05:32.000Z</time>
        <extensions>
          <ns3:TrackPointExtension>
            <ns3:atemp>15.0</ns3:atemp>
          </ns3:TrackPointExtension>
        </extensions>
      </trkpt>
      <trkpt lat="42.6449024677276611328125" lon="19.913881458342075347900390625">
        <ele>1209.800048828125</ele>
        <time>2026-06-16T07:05:33.000Z</time>
        <extensions>
          <ns3:TrackPointExtension>
            <ns3:atemp>15.0</ns3:atemp>
          </ns3:TrackPointExtension>
        </extensions>
      </trkpt>
      <trkpt lat="42.64488293789327144622802734375" lon="19.9138725735247135162353515625">
        <ele>1210</ele>
        <time>2026-06-16T07:05:34.000Z</time>
        <extensions>
          <ns3:TrackPointExtension>
            <ns3:atemp>15.0</ns3:atemp>
          </ns3:TrackPointExtension>
        </extensions>
      </trkpt>
      <trkpt lat="42.64486114494502544403076171875" lon="19.91386377252638339996337890625">
        <ele>1210.199951171875</ele>
        <time>2026-06-16T07:05:35.000Z</time>
        <extensions>
          <ns3:TrackPointExtension>
            <ns3:atemp>16.0</ns3:atemp>
          </ns3:TrackPointExtension>
        </extensions>
      </trkpt>
      <trkpt lat="42.64483834616839885711669921875" lon="19.91385497152805328369140625">
        <ele>1210.4000244140625</ele>
        <time>2026-06-16T07:05:36.000Z</time>
        <extensions>
          <ns3:TrackPointExtension>
            <ns3:atemp>15.0</ns3:atemp>
          </ns3:TrackPointExtension>
        </extensions>
      </trkpt>
      <trkpt lat="42.64481772668659687042236328125" lon="19.91384633816778659820556640625">
        <ele>1210.5999755859375</ele>
        <time>2026-06-16T07:05:37.000Z</time>
        <extensions>
          <ns3:TrackPointExtension>
            <ns3:atemp>15.0</ns3:atemp>
          </ns3:TrackPointExtension>
        </extensions>
      </trkpt>
      <trkpt lat="42.6447960175573825836181640625" lon="19.91383477114140987396240234375">
        <ele>1210.800048828125</ele>
        <time>2026-06-16T07:05:38.000Z</time>
        <extensions>
          <ns3:TrackPointExtension>
            <ns3:atemp>15.0</ns3:atemp>
          </ns3:TrackPointExtension>
        </extensions>
      </trkpt>
      <trkpt lat="42.644771374762058258056640625" lon="19.913826473057270050048828125">
        <ele>1211</ele>
        <time>2026-06-16T07:05:39.000Z</time>
        <extensions>
          <ns3:TrackPointExtension>
            <ns3:atemp>16.0</ns3:atemp>
          </ns3:TrackPointExtension>
        </extensions>
      </trkpt>
      <trkpt lat="42.644755281507968902587890625" lon="19.91381943225860595703125">
        <ele>1211</ele>
        <time>2026-06-16T07:05:40.000Z</time>
        <extensions>
          <ns3:TrackPointExtension>
            <ns3:atemp>16.0</ns3:atemp>
          </ns3:TrackPointExtension>
        </extensions>
      </trkpt>
      <trkpt lat="42.6447366736829280853271484375" lon="19.9138139002025127410888671875">
        <ele>1211.199951171875</ele>
        <time>2026-06-16T07:05:41.000Z</time>
        <extensions>
          <ns3:TrackPointExtension>
            <ns3:atemp>16.0</ns3:atemp>
          </ns3:TrackPointExtension>
        </extensions>
      </trkpt>
      <trkpt lat="42.64471781440079212188720703125" lon="19.91380660794675350189208984375">
        <ele>1211.4000244140625</ele>
        <time>2026-06-16T07:05:42.000Z</time>
        <extensions>
          <ns3:TrackPointExtension>
            <ns3:atemp>16.0</ns3:atemp>
          </ns3:TrackPointExtension>
        </extensions>
      </trkpt>
      <trkpt lat="42.644695937633514404296875" lon="19.913798309862613677978515625">
        <ele>1211.800048828125</ele>
        <time>2026-06-16T07:05:43.000Z</time>
        <extensions>
          <ns3:TrackPointExtension>
            <ns3:atemp>15.0</ns3:atemp>
          </ns3:TrackPointExtension>
        </extensions>
      </trkpt>
      <trkpt lat="42.644676156342029571533203125" lon="19.9137907661497592926025390625">
        <ele>1212</ele>
        <time>2026-06-16T07:05:44.000Z</time>
        <extensions>
          <ns3:TrackPointExtension>
            <ns3:atemp>15.0</ns3:atemp>
          </ns3:TrackPointExtension>
        </extensions>
      </trkpt>
      <trkpt lat="42.6446555368602275848388671875" lon="19.91378028877079486846923828125">
        <ele>1212.199951171875</ele>
        <time>2026-06-16T07:05:45.000Z</time>
        <extensions>
          <ns3:TrackPointExtension>
            <ns3:atemp>15.0</ns3:atemp>
          </ns3:TrackPointExtension>
        </extensions>
      </trkpt>
      <trkpt lat="42.64463433064520359039306640625" lon="19.91377006284892559051513671875">
        <ele>1212.5999755859375</ele>
        <time>2026-06-16T07:05:46.000Z</time>
        <extensions>
          <ns3:TrackPointExtension>
            <ns3:atemp>15.0</ns3:atemp>
          </ns3:TrackPointExtension>
        </extensions>
      </trkpt>
      <trkpt lat="42.64461337588727474212646484375" lon="19.91376151330769062042236328125">
        <ele>1212.800048828125</ele>
        <time>2026-06-16T07:05:47.000Z</time>
        <extensions>
          <ns3:TrackPointExtension>
            <ns3:atemp>15.0</ns3:atemp>
          </ns3:TrackPointExtension>
        </extensions>
      </trkpt>
      <trkpt lat="42.64459242112934589385986328125" lon="19.91375396959483623504638671875">
        <ele>1213.199951171875</ele>
        <time>2026-06-16T07:05:48.000Z</time>
        <extensions>
          <ns3:TrackPointExtension>
            <ns3:atemp>15.0</ns3:atemp>
          </ns3:TrackPointExtension>
        </extensions>
      </trkpt>
      <trkpt lat="42.6445683650672435760498046875" lon="19.913750030100345611572265625">
        <ele>1213.4000244140625</ele>
        <time>2026-06-16T07:05:49.000Z</time>
        <extensions>
          <ns3:TrackPointExtension>
            <ns3:atemp>15.0</ns3:atemp>
          </ns3:TrackPointExtension>
        </extensions>
      </trkpt>
      <trkpt lat="42.64454296790063381195068359375" lon="19.91374625824391841888427734375">
        <ele>1213.800048828125</ele>
        <time>2026-06-16T07:05:50.000Z</time>
        <extensions>
          <ns3:TrackPointExtension>
            <ns3:atemp>15.0</ns3:atemp>
          </ns3:TrackPointExtension>
        </extensions>
      </trkpt>
      <trkpt lat="42.64451581053435802459716796875" lon="19.913746677339076995849609375">
        <ele>1214</ele>
        <time>2026-06-16T07:05:51.000Z</time>
        <extensions>
          <ns3:TrackPointExtension>
            <ns3:atemp>16.0</ns3:atemp>
          </ns3:TrackPointExtension>
        </extensions>
      </trkpt>
      <trkpt lat="42.64449250884354114532470703125" lon="19.9137475155293941497802734375">
        <ele>1214.199951171875</ele>
        <time>2026-06-16T07:05:52.000Z</time>
        <extensions>
          <ns3:TrackPointExtension>
            <ns3:atemp>16.0</ns3:atemp>
          </ns3:TrackPointExtension>
        </extensions>
      </trkpt>
      <trkpt lat="42.64446954242885112762451171875" lon="19.91374257020652294158935546875">
        <ele>1214.5999755859375</ele>
        <time>2026-06-16T07:05:53.000Z</time>
        <extensions>
          <ns3:TrackPointExtension>
            <ns3:atemp>16.0</ns3:atemp>
          </ns3:TrackPointExtension>
        </extensions>
      </trkpt>
      <trkpt lat="42.64444489963352680206298828125" lon="19.91373469121754169464111328125">
        <ele>1214.800048828125</ele>
        <time>2026-06-16T07:05:54.000Z</time>
        <extensions>
          <ns3:TrackPointExtension>
            <ns3:atemp>16.0</ns3:atemp>
          </ns3:TrackPointExtension>
        </extensions>
      </trkpt>
      <trkpt lat="42.6444221846759319305419921875" lon="19.91372614167630672454833984375">
        <ele>1215</ele>
        <time>2026-06-16T07:05:55.000Z</time>
        <extensions>
          <ns3:TrackPointExtension>
            <ns3:atemp>16.0</ns3:atemp>
          </ns3:TrackPointExtension>
        </extensions>
      </trkpt>
      <trkpt lat="42.64440164901316165924072265625" lon="19.91371574811637401580810546875">
        <ele>1215.4000244140625</ele>
        <time>2026-06-16T07:05:56.000Z</time>
        <extensions>
          <ns3:TrackPointExtension>
            <ns3:atemp>16.0</ns3:atemp>
          </ns3:TrackPointExtension>
        </extensions>
      </trkpt>
      <trkpt lat="42.6443849690258502960205078125" lon="19.91371273063123226165771484375">
        <ele>1215.5999755859375</ele>
        <time>2026-06-16T07:05:57.000Z</time>
        <extensions>
          <ns3:TrackPointExtension>
            <ns3:atemp>16.0</ns3:atemp>
          </ns3:TrackPointExtension>
        </extensions>
      </trkpt>
      <trkpt lat="42.6443668641149997711181640625" lon="19.9137035943567752838134765625">
        <ele>1216</ele>
        <time>2026-06-16T07:05:58.000Z</time>
        <extensions>
          <ns3:TrackPointExtension>
            <ns3:atemp>16.0</ns3:atemp>
          </ns3:TrackPointExtension>
        </extensions>
      </trkpt>
      <trkpt lat="42.6443470828235149383544921875" lon="19.9136952124536037445068359375">
        <ele>1216.4000244140625</ele>
        <time>2026-06-16T07:05:59.000Z</time>
        <extensions>
          <ns3:TrackPointExtension>
            <ns3:atemp>16.0</ns3:atemp>
          </ns3:TrackPointExtension>
        </extensions>
      </trkpt>
      <trkpt lat="42.64432369731366634368896484375" lon="19.9136807955801486968994140625">
        <ele>1216.5999755859375</ele>
        <time>2026-06-16T07:06:00.000Z</time>
        <extensions>
          <ns3:TrackPointExtension>
            <ns3:atemp>16.0</ns3:atemp>
          </ns3:TrackPointExtension>
        </extensions>
      </trkpt>
      <trkpt lat="42.6443088613450527191162109375" lon="19.9136670492589473724365234375">
        <ele>1217</ele>
        <time>2026-06-16T07:06:01.000Z</time>
        <extensions>
          <ns3:TrackPointExtension>
            <ns3:atemp>16.0</ns3:atemp>
          </ns3:TrackPointExtension>
        </extensions>
      </trkpt>
      <trkpt lat="42.64429268427193164825439453125" lon="19.9136517941951751708984375">
        <ele>1217.199951171875</ele>
        <time>2026-06-16T07:06:02.000Z</time>
        <extensions>
          <ns3:TrackPointExtension>
            <ns3:atemp>16.0</ns3:atemp>
          </ns3:TrackPointExtension>
        </extensions>
      </trkpt>
      <trkpt lat="42.64427550137042999267578125" lon="19.91364307701587677001953125">
        <ele>1217.4000244140625</ele>
        <time>2026-06-16T07:06:03.000Z</time>
        <extensions>
          <ns3:TrackPointExtension>
            <ns3:atemp>16.0</ns3:atemp>
          </ns3:TrackPointExtension>
        </extensions>
      </trkpt>
      <trkpt lat="42.644259743392467498779296875" lon="19.9136308394372463226318359375">
        <ele>1217.800048828125</ele>
        <time>2026-06-16T07:06:04.000Z</time>
        <extensions>
          <ns3:TrackPointExtension>
            <ns3:atemp>16.0</ns3:atemp>
          </ns3:TrackPointExtension>
        </extensions>
      </trkpt>
      <trkpt lat="42.64423937536776065826416015625" lon="19.91361491382122039794921875">
        <ele>1218.199951171875</ele>
        <time>2026-06-16T07:06:05.000Z</time>
        <extensions>
          <ns3:TrackPointExtension>
            <ns3:atemp>16.0</ns3:atemp>
          </ns3:TrackPointExtension>
        </extensions>
      </trkpt>
      <trkpt lat="42.64422127045691013336181640625" lon="19.9136053584516048431396484375">
        <ele>1218.4000244140625</ele>
        <time>2026-06-16T07:06:06.000Z</time>
        <extensions>
          <ns3:TrackPointExtension>
            <ns3:atemp>16.0</ns3:atemp>
          </ns3:TrackPointExtension>
        </extensions>
      </trkpt>
      <trkpt lat="42.64420132152736186981201171875" lon="19.9135885946452617645263671875">
        <ele>1218.5999755859375</ele>
        <time>2026-06-16T07:06:07.000Z</time>
        <extensions>
          <ns3:TrackPointExtension>
            <ns3:atemp>16.0</ns3:atemp>
          </ns3:TrackPointExtension>
        </extensions>
      </trkpt>
      <trkpt lat="42.64418003149330615997314453125" lon="19.91358230821788311004638671875">
        <ele>1218.800048828125</ele>
        <time>2026-06-16T07:06:08.000Z</time>
        <extensions>
          <ns3:TrackPointExtension>
            <ns3:atemp>16.0</ns3:atemp>
          </ns3:TrackPointExtension>
        </extensions>
      </trkpt>
      <trkpt lat="42.6441583223640918731689453125" lon="19.91357761435210704803466796875">
        <ele>1219</ele>
        <time>2026-06-16T07:06:09.000Z</time>
        <extensions>
          <ns3:TrackPointExtension>
            <ns3:atemp>16.0</ns3:atemp>
          </ns3:TrackPointExtension>
        </extensions>
      </trkpt>
      <trkpt lat="42.644133679568767547607421875" lon="19.913568310439586639404296875">
        <ele>1219.199951171875</ele>
        <time>2026-06-16T07:06:10.000Z</time>
        <extensions>
          <ns3:TrackPointExtension>
            <ns3:atemp>16.0</ns3:atemp>
          </ns3:TrackPointExtension>
        </extensions>
      </trkpt>
      <trkpt lat="42.6441085338592529296875" lon="19.913557581603527069091796875">
        <ele>1219.4000244140625</ele>
        <time>2026-06-16T07:06:11.000Z</time>
        <extensions>
          <ns3:TrackPointExtension>
            <ns3:atemp>16.0</ns3:atemp>
          </ns3:TrackPointExtension>
        </extensions>
      </trkpt>
      <trkpt lat="42.644083388149738311767578125" lon="19.913553893566131591796875">
        <ele>1219.800048828125</ele>
        <time>2026-06-16T07:06:12.000Z</time>
        <extensions>
          <ns3:TrackPointExtension>
            <ns3:atemp>16.0</ns3:atemp>
          </ns3:TrackPointExtension>
        </extensions>
      </trkpt>
      <trkpt lat="42.64406360685825347900390625" lon="19.91354090161621570587158203125">
        <ele>1220</ele>
        <time>2026-06-16T07:06:13.000Z</time>
        <extensions>
          <ns3:TrackPointExtension>
            <ns3:atemp>16.0</ns3:atemp>
          </ns3:TrackPointExtension>
        </extensions>
      </trkpt>
      <trkpt lat="42.64404407702386379241943359375" lon="19.91352614946663379669189453125">
        <ele>1220.199951171875</ele>
        <time>2026-06-16T07:06:14.000Z</time>
        <extensions>
          <ns3:TrackPointExtension>
            <ns3:atemp>16.0</ns3:atemp>
          </ns3:TrackPointExtension>
        </extensions>
      </trkpt>
      <trkpt lat="42.64402681030333042144775390625" lon="19.91351072676479816436767578125">
        <ele>1220.199951171875</ele>
        <time>2026-06-16T07:06:15.000Z</time>
        <extensions>
          <ns3:TrackPointExtension>
            <ns3:atemp>16.0</ns3:atemp>
          </ns3:TrackPointExtension>
        </extensions>
      </trkpt>
      <trkpt lat="42.64401189051568508148193359375" lon="19.91349597461521625518798828125">
        <ele>1220.4000244140625</ele>
        <time>2026-06-16T07:06:16.000Z</time>
        <extensions>
          <ns3:TrackPointExtension>
            <ns3:atemp>15.0</ns3:atemp>
          </ns3:TrackPointExtension>
        </extensions>
      </trkpt>
      <trkpt lat="42.64399789273738861083984375" lon="19.913478456437587738037109375">
        <ele>1220.5999755859375</ele>
        <time>2026-06-16T07:06:17.000Z</time>
        <extensions>
          <ns3:TrackPointExtension>
            <ns3:atemp>15.0</ns3:atemp>
          </ns3:TrackPointExtension>
        </extensions>
      </trkpt>
      <trkpt lat="42.64398372732102870941162109375" lon="19.91345725022256374359130859375">
        <ele>1220.800048828125</ele>
        <time>2026-06-16T07:06:18.000Z</time>
        <extensions>
          <ns3:TrackPointExtension>
            <ns3:atemp>15.0</ns3:atemp>
          </ns3:TrackPointExtension>
        </extensions>
      </trkpt>
      <trkpt lat="42.6439698971807956695556640625" lon="19.91343042813241481781005859375">
        <ele>1221</ele>
        <time>2026-06-16T07:06:19.000Z</time>
        <extensions>
          <ns3:TrackPointExtension>
            <ns3:atemp>16.0</ns3:atemp>
          </ns3:TrackPointExtension>
        </extensions>
      </trkpt>
      <trkpt lat="42.643955983221530914306640625" lon="19.9133998341858386993408203125">
        <ele>1221.199951171875</ele>
        <time>2026-06-16T07:06:20.000Z</time>
        <extensions>
          <ns3:TrackPointExtension>
            <ns3:atemp>15.0</ns3:atemp>
          </ns3:TrackPointExtension>
        </extensions>
      </trkpt>
      <trkpt lat="42.64394181780517101287841796875" lon="19.913365133106708526611328125">
        <ele>1221.5999755859375</ele>
        <time>2026-06-16T07:06:21.000Z</time>
        <extensions>
          <ns3:TrackPointExtension>
            <ns3:atemp>15.0</ns3:atemp>
          </ns3:TrackPointExtension>
        </extensions>
      </trkpt>
      <trkpt lat="42.64392656274139881134033203125" lon="19.9133378081023693084716796875">
        <ele>1221.5999755859375</ele>
        <time>2026-06-16T07:06:22.000Z</time>
        <extensions>
          <ns3:TrackPointExtension>
            <ns3:atemp>15.0</ns3:atemp>
          </ns3:TrackPointExtension>
        </extensions>
      </trkpt>
      <trkpt lat="42.643913738429546356201171875" lon="19.91331593133509159088134765625">
        <ele>1221.800048828125</ele>
        <time>2026-06-16T07:06:23.000Z</time>
        <extensions>
          <ns3:TrackPointExtension>
            <ns3:atemp>15.0</ns3:atemp>
          </ns3:TrackPointExtension>
        </extensions>
      </trkpt>
      <trkpt lat="42.6438998244702816009521484375" lon="19.91329573094844818115234375">
        <ele>1222</ele>
        <time>2026-06-16T07:06:24.000Z</time>
        <extensions>
          <ns3:TrackPointExtension>
            <ns3:atemp>15.0</ns3:atemp>
          </ns3:TrackPointExtension>
        </extensions>
      </trkpt>
      <trkpt lat="42.64389328658580780029296875" lon="19.91327703930437564849853515625">
        <ele>1222.4000244140625</ele>
        <time>2026-06-16T07:06:25.000Z</time>
        <extensions>
          <ns3:TrackPointExtension>
            <ns3:atemp>15.0</ns3:atemp>
          </ns3:TrackPointExtension>
        </extensions>
      </trkpt>
      <trkpt lat="42.64388046227395534515380859375" lon="19.91325415670871734619140625">
        <ele>1222.5999755859375</ele>
        <time>2026-06-16T07:06:26.000Z</time>
        <extensions>
          <ns3:TrackPointExtension>
            <ns3:atemp>15.0</ns3:atemp>
          </ns3:TrackPointExtension>
        </extensions>
      </trkpt>
      <trkpt lat="42.64387308619916439056396484375" lon="19.9132187850773334503173828125">
        <ele>1222.800048828125</ele>
        <time>2026-06-16T07:06:27.000Z</time>
        <extensions>
          <ns3:TrackPointExtension>
            <ns3:atemp>16.0</ns3:atemp>
          </ns3:TrackPointExtension>
        </extensions>
      </trkpt>
      <trkpt lat="42.64386001043021678924560546875" lon="19.91318835876882076263427734375">
        <ele>1222.800048828125</ele>
        <time>2026-06-16T07:06:28.000Z</time>
        <extensions>
          <ns3:TrackPointExtension>
            <ns3:atemp>15.0</ns3:atemp>
          </ns3:TrackPointExtension>
        </extensions>
      </trkpt>
      <trkpt lat="42.643848694860935211181640625" lon="19.9131651408970355987548828125">
        <ele>1223</ele>
        <time>2026-06-16T07:06:29.000Z</time>
        <extensions>
          <ns3:TrackPointExtension>
            <ns3:atemp>15.0</ns3:atemp>
          </ns3:TrackPointExtension>
        </extensions>
      </trkpt>
      <trkpt lat="42.6438357867300510406494140625" lon="19.9131436832249164581298828125">
        <ele>1223.199951171875</ele>
        <time>2026-06-16T07:06:30.000Z</time>
        <extensions>
          <ns3:TrackPointExtension>
            <ns3:atemp>15.0</ns3:atemp>
          </ns3:TrackPointExtension>
        </extensions>
      </trkpt>
      <trkpt lat="42.64382245950400829315185546875" lon="19.91311878897249698638916015625">
        <ele>1223.199951171875</ele>
        <time>2026-06-16T07:06:31.000Z</time>
        <extensions>
          <ns3:TrackPointExtension>
            <ns3:atemp>15.0</ns3:atemp>
          </ns3:TrackPointExtension>
        </extensions>
      </trkpt>
      <trkpt lat="42.64380804263055324554443359375" lon="19.91308811120688915252685546875">
        <ele>1223.4000244140625</ele>
        <time>2026-06-16T07:06:32.000Z</time>
        <extensions>
          <ns3:TrackPointExtension>
            <ns3:atemp>15.0</ns3:atemp>
          </ns3:TrackPointExtension>
        </extensions>
      </trkpt>
      <trkpt lat="42.64379848726093769073486328125" lon="19.9130591936409473419189453125">
        <ele>1223.5999755859375</ele>
        <time>2026-06-16T07:06:33.000Z</time>
        <extensions>
          <ns3:TrackPointExtension>
            <ns3:atemp>15.0</ns3:atemp>
          </ns3:TrackPointExtension>
        </extensions>
      </trkpt>
      <trkpt lat="42.64378641732037067413330078125" lon="19.91303496994078159332275390625">
        <ele>1223.800048828125</ele>
        <time>2026-06-16T07:06:34.000Z</time>
        <extensions>
          <ns3:TrackPointExtension>
            <ns3:atemp>15.0</ns3:atemp>
          </ns3:TrackPointExtension>
        </extensions>
      </trkpt>
      <trkpt lat="42.64377669431269168853759765625" lon="19.913013763725757598876953125">
        <ele>1224</ele>
        <time>2026-06-16T07:06:35.000Z</time>
        <extensions>
          <ns3:TrackPointExtension>
            <ns3:atemp>15.0</ns3:atemp>
          </ns3:TrackPointExtension>
        </extensions>
      </trkpt>
      <trkpt lat="42.64376563020050525665283203125" lon="19.91298853419721126556396484375">
        <ele>1224.199951171875</ele>
        <time>2026-06-16T07:06:36.000Z</time>
        <extensions>
          <ns3:TrackPointExtension>
            <ns3:atemp>15.0</ns3:atemp>
          </ns3:TrackPointExtension>
        </extensions>
      </trkpt>
      <trkpt lat="42.64374936930835247039794921875" lon="19.91296221502125263214111328125">
        <ele>1224.4000244140625</ele>
        <time>2026-06-16T07:06:37.000Z</time>
        <extensions>
          <ns3:TrackPointExtension>
            <ns3:atemp>15.0</ns3:atemp>
          </ns3:TrackPointExtension>
        </extensions>
      </trkpt>
      <trkpt lat="42.6437352038919925689697265625" lon="19.91293354891240596771240234375">
        <ele>1224.5999755859375</ele>
        <time>2026-06-16T07:06:38.000Z</time>
        <extensions>
          <ns3:TrackPointExtension>
            <ns3:atemp>15.0</ns3:atemp>
          </ns3:TrackPointExtension>
        </extensions>
      </trkpt>
      <trkpt lat="42.643722631037235260009765625" lon="19.9129073135554790496826171875">
        <ele>1224.800048828125</ele>
        <time>2026-06-16T07:06:39.000Z</time>
        <extensions>
          <ns3:TrackPointExtension>
            <ns3:atemp>15.0</ns3:atemp>
          </ns3:TrackPointExtension>
        </extensions>
      </trkpt>
      <trkpt lat="42.643705196678638458251953125" lon="19.912893734872341156005859375">
        <ele>1225</ele>
        <time>2026-06-16T07:06:40.000Z</time>
        <extensions>
          <ns3:TrackPointExtension>
            <ns3:atemp>15.0</ns3:atemp>
          </ns3:TrackPointExtension>
        </extensions>
      </trkpt>
      <trkpt lat="42.64368315227329730987548828125" lon="19.91287169046700000762939453125">
        <ele>1225.199951171875</ele>
        <time>2026-06-16T07:06:41.000Z</time>
        <extensions>
          <ns3:TrackPointExtension>
            <ns3:atemp>16.0</ns3:atemp>
          </ns3:TrackPointExtension>
        </extensions>
      </trkpt>
      <trkpt lat="42.64366337098181247711181640625" lon="19.91284570656716823577880859375">
        <ele>1225.199951171875</ele>
        <time>2026-06-16T07:06:42.000Z</time>
        <extensions>
          <ns3:TrackPointExtension>
            <ns3:atemp>15.0</ns3:atemp>
          </ns3:TrackPointExtension>
        </extensions>
      </trkpt>
      <trkpt lat="42.64364325441420078277587890625" lon="19.9128295294940471649169921875">
        <ele>1225.4000244140625</ele>
        <time>2026-06-16T07:06:43.000Z</time>
        <extensions>
          <ns3:TrackPointExtension>
            <ns3:atemp>15.0</ns3:atemp>
          </ns3:TrackPointExtension>
        </extensions>
      </trkpt>
      <trkpt lat="42.64362598769366741180419921875" lon="19.9128050543367862701416015625">
        <ele>1225.5999755859375</ele>
        <time>2026-06-16T07:06:44.000Z</time>
        <extensions>
          <ns3:TrackPointExtension>
            <ns3:atemp>15.0</ns3:atemp>
          </ns3:TrackPointExtension>
        </extensions>
      </trkpt>
      <trkpt lat="42.64360268600285053253173828125" lon="19.9127956666052341461181640625">
        <ele>1225.800048828125</ele>
        <time>2026-06-16T07:06:45.000Z</time>
        <extensions>
          <ns3:TrackPointExtension>
            <ns3:atemp>15.0</ns3:atemp>
          </ns3:TrackPointExtension>
        </extensions>
      </trkpt>
      <trkpt lat="42.643581144511699676513671875" lon="19.9127752147614955902099609375">
        <ele>1225.800048828125</ele>
        <time>2026-06-16T07:06:46.000Z</time>
        <extensions>
          <ns3:TrackPointExtension>
            <ns3:atemp>15.0</ns3:atemp>
          </ns3:TrackPointExtension>
        </extensions>
      </trkpt>
      <trkpt lat="42.643561027944087982177734375" lon="19.91275551728904247283935546875">
        <ele>1226</ele>
        <time>2026-06-16T07:06:47.000Z</time>
        <extensions>
          <ns3:TrackPointExtension>
            <ns3:atemp>15.0</ns3:atemp>
          </ns3:TrackPointExtension>
        </extensions>
      </trkpt>
      <trkpt lat="42.643537558615207672119140625" lon="19.91273506544530391693115234375">
        <ele>1226.199951171875</ele>
        <time>2026-06-16T07:06:48.000Z</time>
        <extensions>
          <ns3:TrackPointExtension>
            <ns3:atemp>15.0</ns3:atemp>
          </ns3:TrackPointExtension>
        </extensions>
      </trkpt>
      <trkpt lat="42.64351534657180309295654296875" lon="19.91271276958286762237548828125">
        <ele>1226.4000244140625</ele>
        <time>2026-06-16T07:06:49.000Z</time>
        <extensions>
          <ns3:TrackPointExtension>
            <ns3:atemp>16.0</ns3:atemp>
          </ns3:TrackPointExtension>
        </extensions>
      </trkpt>
      <trkpt lat="42.64349489472806453704833984375" lon="19.91269365884363651275634765625">
        <ele>1226.5999755859375</ele>
        <time>2026-06-16T07:06:50.000Z</time>
        <extensions>
          <ns3:TrackPointExtension>
            <ns3:atemp>16.0</ns3:atemp>
          </ns3:TrackPointExtension>
        </extensions>
      </trkpt>
      <trkpt lat="42.643472850322723388671875" lon="19.9126763083040714263916015625">
        <ele>1226.800048828125</ele>
        <time>2026-06-16T07:06:51.000Z</time>
        <extensions>
          <ns3:TrackPointExtension>
            <ns3:atemp>16.0</ns3:atemp>
          </ns3:TrackPointExtension>
        </extensions>
      </trkpt>
      <trkpt lat="42.6434508897364139556884765625" lon="19.91265962831676006317138671875">
        <ele>1227</ele>
        <time>2026-06-16T07:06:52.000Z</time>
        <extensions>
          <ns3:TrackPointExtension>
            <ns3:atemp>16.0</ns3:atemp>
          </ns3:TrackPointExtension>
        </extensions>
      </trkpt>
      <trkpt lat="42.64343219809234142303466796875" lon="19.91263884119689464569091796875">
        <ele>1227.199951171875</ele>
        <time>2026-06-16T07:06:53.000Z</time>
        <extensions>
          <ns3:TrackPointExtension>
            <ns3:atemp>16.0</ns3:atemp>
          </ns3:TrackPointExtension>
        </extensions>
      </trkpt>
      <trkpt lat="42.64341141097247600555419921875" lon="19.91262023337185382843017578125">
        <ele>1227.4000244140625</ele>
        <time>2026-06-16T07:06:54.000Z</time>
        <extensions>
          <ns3:TrackPointExtension>
            <ns3:atemp>16.0</ns3:atemp>
          </ns3:TrackPointExtension>
        </extensions>
      </trkpt>
      <trkpt lat="42.64339045621454715728759765625" lon="19.9126038886606693267822265625">
        <ele>1227.5999755859375</ele>
        <time>2026-06-16T07:06:55.000Z</time>
        <extensions>
          <ns3:TrackPointExtension>
            <ns3:atemp>16.0</ns3:atemp>
          </ns3:TrackPointExtension>
        </extensions>
      </trkpt>
      <trkpt lat="42.6433724351227283477783203125" lon="19.91258637048304080963134765625">
        <ele>1227.800048828125</ele>
        <time>2026-06-16T07:06:56.000Z</time>
        <extensions>
          <ns3:TrackPointExtension>
            <ns3:atemp>16.0</ns3:atemp>
          </ns3:TrackPointExtension>
        </extensions>
      </trkpt>
      <trkpt lat="42.6433506421744823455810546875" lon="19.9125730432569980621337890625">
        <ele>1228</ele>
        <time>2026-06-16T07:06:57.000Z</time>
        <extensions>
          <ns3:TrackPointExtension>
            <ns3:atemp>16.0</ns3:atemp>
          </ns3:TrackPointExtension>
        </extensions>
      </trkpt>
      <trkpt lat="42.64332591556012630462646484375" lon="19.9125606380403041839599609375">
        <ele>1228</ele>
        <time>2026-06-16T07:06:58.000Z</time>
        <extensions>
          <ns3:TrackPointExtension>
            <ns3:atemp>16.0</ns3:atemp>
          </ns3:TrackPointExtension>
        </extensions>
      </trkpt>
      <trkpt lat="42.64330320060253143310546875" lon="19.9125455506145954132080078125">
        <ele>1228.199951171875</ele>
        <time>2026-06-16T07:06:59.000Z</time>
        <extensions>
          <ns3:TrackPointExtension>
            <ns3:atemp>16.0</ns3:atemp>
          </ns3:TrackPointExtension>
        </extensions>
      </trkpt>
      <trkpt lat="42.643280737102031707763671875" lon="19.91252820007503032684326171875">
        <ele>1228.4000244140625</ele>
        <time>2026-06-16T07:07:00.000Z</time>
        <extensions>
          <ns3:TrackPointExtension>
            <ns3:atemp>16.0</ns3:atemp>
          </ns3:TrackPointExtension>
        </extensions>
      </trkpt>
      <trkpt lat="42.64325751923024654388427734375" lon="19.91251361556351184844970703125">
        <ele>1228.4000244140625</ele>
        <time>2026-06-16T07:07:01.000Z</time>
        <extensions>
          <ns3:TrackPointExtension>
            <ns3:atemp>16.0</ns3:atemp>
          </ns3:TrackPointExtension>
        </extensions>
      </trkpt>
      <trkpt lat="42.643232457339763641357421875" lon="19.91249953396618366241455078125">
        <ele>1228.5999755859375</ele>
        <time>2026-06-16T07:07:02.000Z</time>
        <extensions>
          <ns3:TrackPointExtension>
            <ns3:atemp>15.0</ns3:atemp>
          </ns3:TrackPointExtension>
        </extensions>
      </trkpt>
      <trkpt lat="42.6432091556489467620849609375" lon="19.91248411126434803009033203125">
        <ele>1228.5999755859375</ele>
        <time>2026-06-16T07:07:03.000Z</time>
        <extensions>
          <ns3:TrackPointExtension>
            <ns3:atemp>16.0</ns3:atemp>
          </ns3:TrackPointExtension>
        </extensions>
      </trkpt>
      <trkpt lat="42.64318560250103473663330078125" lon="19.91247170604765415191650390625">
        <ele>1228.800048828125</ele>
        <time>2026-06-16T07:07:04.000Z</time>
        <extensions>
          <ns3:TrackPointExtension>
            <ns3:atemp>16.0</ns3:atemp>
          </ns3:TrackPointExtension>
        </extensions>
      </trkpt>
      <trkpt lat="42.6431602053344249725341796875" lon="19.9124647490680217742919921875">
        <ele>1228.800048828125</ele>
        <time>2026-06-16T07:07:05.000Z</time>
        <extensions>
          <ns3:TrackPointExtension>
            <ns3:atemp>15.0</ns3:atemp>
          </ns3:TrackPointExtension>
        </extensions>
      </trkpt>
      <trkpt lat="42.64313690364360809326171875" lon="19.91245879791676998138427734375">
        <ele>1229</ele>
        <time>2026-06-16T07:07:06.000Z</time>
        <extensions>
          <ns3:TrackPointExtension>
            <ns3:atemp>15.0</ns3:atemp>
          </ns3:TrackPointExtension>
        </extensions>
      </trkpt>
      <trkpt lat="42.64311217702925205230712890625" lon="19.91244941018521785736083984375">
        <ele>1229.199951171875</ele>
        <time>2026-06-16T07:07:07.000Z</time>
        <extensions>
          <ns3:TrackPointExtension>
            <ns3:atemp>15.0</ns3:atemp>
          </ns3:TrackPointExtension>
        </extensions>
      </trkpt>
      <trkpt lat="42.64308728277683258056640625" lon="19.9124409444630146026611328125">
        <ele>1229.199951171875</ele>
        <time>2026-06-16T07:07:08.000Z</time>
        <extensions>
          <ns3:TrackPointExtension>
            <ns3:atemp>15.0</ns3:atemp>
          </ns3:TrackPointExtension>
        </extensions>
      </trkpt>
      <trkpt lat="42.64306423254311084747314453125" lon="19.91243532858788967132568359375">
        <ele>1229.4000244140625</ele>
        <time>2026-06-16T07:07:09.000Z</time>
        <extensions>
          <ns3:TrackPointExtension>
            <ns3:atemp>15.0</ns3:atemp>
          </ns3:TrackPointExtension>
        </extensions>
      </trkpt>
      <trkpt lat="42.6430391706526279449462890625" lon="19.912425018846988677978515625">
        <ele>1229.5999755859375</ele>
        <time>2026-06-16T07:07:10.000Z</time>
        <extensions>
          <ns3:TrackPointExtension>
            <ns3:atemp>15.0</ns3:atemp>
          </ns3:TrackPointExtension>
        </extensions>
      </trkpt>
      <trkpt lat="42.64301561750471591949462890625" lon="19.91241353563964366912841796875">
        <ele>1229.5999755859375</ele>
        <time>2026-06-16T07:07:11.000Z</time>
        <extensions>
          <ns3:TrackPointExtension>
            <ns3:atemp>16.0</ns3:atemp>
          </ns3:TrackPointExtension>
        </extensions>
      </trkpt>
      <trkpt lat="42.64299114234745502471923828125" lon="19.9124000407755374908447265625">
        <ele>1229.5999755859375</ele>
        <time>2026-06-16T07:07:12.000Z</time>
        <extensions>
          <ns3:TrackPointExtension>
            <ns3:atemp>16.0</ns3:atemp>
          </ns3:TrackPointExtension>
        </extensions>
      </trkpt>
      <trkpt lat="42.6429680921137332916259765625" lon="19.91238738410174846649169921875">
        <ele>1229.800048828125</ele>
        <time>2026-06-16T07:07:13.000Z</time>
        <extensions>
          <ns3:TrackPointExtension>
            <ns3:atemp>15.0</ns3:atemp>
          </ns3:TrackPointExtension>
        </extensions>
      </trkpt>
      <trkpt lat="42.64294588007032871246337890625" lon="19.91237464360892772674560546875">
        <ele>1230</ele>
        <time>2026-06-16T07:07:14.000Z</time>
        <extensions>
          <ns3:TrackPointExtension>
            <ns3:atemp>15.0</ns3:atemp>
          </ns3:TrackPointExtension>
        </extensions>
      </trkpt>
      <trkpt lat="42.64292241074144840240478515625" lon="19.91236374713480472564697265625">
        <ele>1230</ele>
        <time>2026-06-16T07:07:15.000Z</time>
        <extensions>
          <ns3:TrackPointExtension>
            <ns3:atemp>15.0</ns3:atemp>
          </ns3:TrackPointExtension>
        </extensions>
      </trkpt>
      <trkpt lat="42.64289961196482181549072265625" lon="19.91235234774649143218994140625">
        <ele>1230.199951171875</ele>
        <time>2026-06-16T07:07:16.000Z</time>
        <extensions>
          <ns3:TrackPointExtension>
            <ns3:atemp>15.0</ns3:atemp>
          </ns3:TrackPointExtension>
        </extensions>
      </trkpt>
      <trkpt lat="42.6428738795220851898193359375" lon="19.91234430111944675445556640625">
        <ele>1230.4000244140625</ele>
        <time>2026-06-16T07:07:17.000Z</time>
        <extensions>
          <ns3:TrackPointExtension>
            <ns3:atemp>15.0</ns3:atemp>
          </ns3:TrackPointExtension>
        </extensions>
      </trkpt>
      <trkpt lat="42.64284990727901458740234375" lon="19.9123375117778778076171875">
        <ele>1230.5999755859375</ele>
        <time>2026-06-16T07:07:18.000Z</time>
        <extensions>
          <ns3:TrackPointExtension>
            <ns3:atemp>15.0</ns3:atemp>
          </ns3:TrackPointExtension>
        </extensions>
      </trkpt>
      <trkpt lat="42.6428235881030559539794921875" lon="19.91232720203697681427001953125">
        <ele>1230.5999755859375</ele>
        <time>2026-06-16T07:07:19.000Z</time>
        <extensions>
          <ns3:TrackPointExtension>
            <ns3:atemp>15.0</ns3:atemp>
          </ns3:TrackPointExtension>
        </extensions>
      </trkpt>
      <trkpt lat="42.64279802329838275909423828125" lon="19.9123182334005832672119140625">
        <ele>1230.800048828125</ele>
        <time>2026-06-16T07:07:20.000Z</time>
        <extensions>
          <ns3:TrackPointExtension>
            <ns3:atemp>15.0</ns3:atemp>
          </ns3:TrackPointExtension>
        </extensions>
      </trkpt>
      <trkpt lat="42.6427830196917057037353515625" lon="19.9123098514974117279052734375">
        <ele>1231</ele>
        <time>2026-06-16T07:07:21.000Z</time>
        <extensions>
          <ns3:TrackPointExtension>
            <ns3:atemp>15.0</ns3:atemp>
          </ns3:TrackPointExtension>
        </extensions>
      </trkpt>
      <trkpt lat="42.64275594614446163177490234375" lon="19.91230063140392303466796875">
        <ele>1231.199951171875</ele>
        <time>2026-06-16T07:07:22.000Z</time>
        <extensions>
          <ns3:TrackPointExtension>
            <ns3:atemp>15.0</ns3:atemp>
          </ns3:TrackPointExtension>
        </extensions>
      </trkpt>
      <trkpt lat="42.64272920787334442138671875" lon="19.91229392588138580322265625">
        <ele>1231.199951171875</ele>
        <time>2026-06-16T07:07:23.000Z</time>
        <extensions>
          <ns3:TrackPointExtension>
            <ns3:atemp>16.0</ns3:atemp>
          </ns3:TrackPointExtension>
        </extensions>
      </trkpt>
      <trkpt lat="42.6427079178392887115478515625" lon="19.91228361614048480987548828125">
        <ele>1231.4000244140625</ele>
        <time>2026-06-16T07:07:24.000Z</time>
        <extensions>
          <ns3:TrackPointExtension>
            <ns3:atemp>16.0</ns3:atemp>
          </ns3:TrackPointExtension>
        </extensions>
      </trkpt>
      <trkpt lat="42.64267958700656890869140625" lon="19.91227825172245502471923828125">
        <ele>1231.5999755859375</ele>
        <time>2026-06-16T07:07:25.000Z</time>
        <extensions>
          <ns3:TrackPointExtension>
            <ns3:atemp>16.0</ns3:atemp>
          </ns3:TrackPointExtension>
        </extensions>
      </trkpt>
      <trkpt lat="42.64264798723161220550537109375" lon="19.91227422840893268585205078125">
        <ele>1231.800048828125</ele>
        <time>2026-06-16T07:07:26.000Z</time>
        <extensions>
          <ns3:TrackPointExtension>
            <ns3:atemp>16.0</ns3:atemp>
          </ns3:TrackPointExtension>
        </extensions>
      </trkpt>
      <trkpt lat="42.64261999167501926422119140625" lon="19.91226802580058574676513671875">
        <ele>1231.800048828125</ele>
        <time>2026-06-16T07:07:27.000Z</time>
        <extensions>
          <ns3:TrackPointExtension>
            <ns3:atemp>15.0</ns3:atemp>
          </ns3:TrackPointExtension>
        </extensions>
      </trkpt>
      <trkpt lat="42.642593421041965484619140625" lon="19.91227121092379093170166015625">
        <ele>1232</ele>
        <time>2026-06-16T07:07:28.000Z</time>
        <extensions>
          <ns3:TrackPointExtension>
            <ns3:atemp>16.0</ns3:atemp>
          </ns3:TrackPointExtension>
        </extensions>
      </trkpt>
      <trkpt lat="42.64256333000957965850830078125" lon="19.9122739769518375396728515625">
        <ele>1232.199951171875</ele>
        <time>2026-06-16T07:07:29.000Z</time>
        <extensions>
          <ns3:TrackPointExtension>
            <ns3:atemp>16.0</ns3:atemp>
          </ns3:TrackPointExtension>
        </extensions>
      </trkpt>
      <trkpt lat="42.64253432862460613250732421875" lon="19.912278838455677032470703125">
        <ele>1232.4000244140625</ele>
        <time>2026-06-16T07:07:30.000Z</time>
        <extensions>
          <ns3:TrackPointExtension>
            <ns3:atemp>16.0</ns3:atemp>
          </ns3:TrackPointExtension>
        </extensions>
      </trkpt>
      <trkpt lat="42.64250515960156917572021484375" lon="19.91228277795016765594482421875">
        <ele>1232.5999755859375</ele>
        <time>2026-06-16T07:07:31.000Z</time>
        <extensions>
          <ns3:TrackPointExtension>
            <ns3:atemp>16.0</ns3:atemp>
          </ns3:TrackPointExtension>
        </extensions>
      </trkpt>
      <trkpt lat="42.64247632585465908050537109375" lon="19.91228378377854824066162109375">
        <ele>1232.800048828125</ele>
        <time>2026-06-16T07:07:32.000Z</time>
        <extensions>
          <ns3:TrackPointExtension>
            <ns3:atemp>16.0</ns3:atemp>
          </ns3:TrackPointExtension>
        </extensions>
      </trkpt>
      <trkpt lat="42.6424514316022396087646484375" lon="19.9122865498065948486328125">
        <ele>1233</ele>
        <time>2026-06-16T07:07:33.000Z</time>
        <extensions>
          <ns3:TrackPointExtension>
            <ns3:atemp>16.0</ns3:atemp>
          </ns3:TrackPointExtension>
        </extensions>
      </trkpt>
      <trkpt lat="42.64242452569305896759033203125" lon="19.91228587925434112548828125">
        <ele>1233.199951171875</ele>
        <time>2026-06-16T07:07:34.000Z</time>
        <extensions>
          <ns3:TrackPointExtension>
            <ns3:atemp>16.0</ns3:atemp>
          </ns3:TrackPointExtension>
        </extensions>
      </trkpt>
      <trkpt lat="42.64240155927836894989013671875" lon="19.91228847764432430267333984375">
        <ele>1233.4000244140625</ele>
        <time>2026-06-16T07:07:35.000Z</time>
        <extensions>
          <ns3:TrackPointExtension>
            <ns3:atemp>16.0</ns3:atemp>
          </ns3:TrackPointExtension>
        </extensions>
      </trkpt>
      <trkpt lat="42.64237649738788604736328125" lon="19.912292249500751495361328125">
        <ele>1233.5999755859375</ele>
        <time>2026-06-16T07:07:36.000Z</time>
        <extensions>
          <ns3:TrackPointExtension>
            <ns3:atemp>16.0</ns3:atemp>
          </ns3:TrackPointExtension>
        </extensions>
      </trkpt>
      <trkpt lat="42.64235529117286205291748046875" lon="19.9122927524149417877197265625">
        <ele>1233.800048828125</ele>
        <time>2026-06-16T07:07:37.000Z</time>
        <extensions>
          <ns3:TrackPointExtension>
            <ns3:atemp>16.0</ns3:atemp>
          </ns3:TrackPointExtension>
        </extensions>
      </trkpt>
      <trkpt lat="42.6423330791294574737548828125" lon="19.91229786537587642669677734375">
        <ele>1234</ele>
        <time>2026-06-16T07:07:38.000Z</time>
        <extensions>
          <ns3:TrackPointExtension>
            <ns3:atemp>16.0</ns3:atemp>
          </ns3:TrackPointExtension>
        </extensions>
      </trkpt>
      <trkpt lat="42.6423096098005771636962890625" lon="19.912312366068363189697265625">
        <ele>1234.199951171875</ele>
        <time>2026-06-16T07:07:39.000Z</time>
        <extensions>
          <ns3:TrackPointExtension>
            <ns3:atemp>16.0</ns3:atemp>
          </ns3:TrackPointExtension>
        </extensions>
      </trkpt>
      <trkpt lat="42.6422847993671894073486328125" lon="19.91231831721961498260498046875">
        <ele>1234.4000244140625</ele>
        <time>2026-06-16T07:07:40.000Z</time>
        <extensions>
          <ns3:TrackPointExtension>
            <ns3:atemp>16.0</ns3:atemp>
          </ns3:TrackPointExtension>
        </extensions>
      </trkpt>
      <trkpt lat="42.6422609947621822357177734375" lon="19.91232720203697681427001953125">
        <ele>1234.5999755859375</ele>
        <time>2026-06-16T07:07:41.000Z</time>
        <extensions>
          <ns3:TrackPointExtension>
            <ns3:atemp>16.0</ns3:atemp>
          </ns3:TrackPointExtension>
        </extensions>
      </trkpt>
      <trkpt lat="42.6422378607094287872314453125" lon="19.9123339913785457611083984375">
        <ele>1234.800048828125</ele>
        <time>2026-06-16T07:07:42.000Z</time>
        <extensions>
          <ns3:TrackPointExtension>
            <ns3:atemp>16.0</ns3:atemp>
          </ns3:TrackPointExtension>
        </extensions>
      </trkpt>
      <trkpt lat="42.64221397228538990020751953125" lon="19.91234228946268558502197265625">
        <ele>1235</ele>
        <time>2026-06-16T07:07:43.000Z</time>
        <extensions>
          <ns3:TrackPointExtension>
            <ns3:atemp>16.0</ns3:atemp>
          </ns3:TrackPointExtension>
        </extensions>
      </trkpt>
      <trkpt lat="42.6421885751187801361083984375" lon="19.9123534373939037322998046875">
        <ele>1235.4000244140625</ele>
        <time>2026-06-16T07:07:44.000Z</time>
        <extensions>
          <ns3:TrackPointExtension>
            <ns3:atemp>16.0</ns3:atemp>
          </ns3:TrackPointExtension>
        </extensions>
      </trkpt>
      <trkpt lat="42.64216250739991664886474609375" lon="19.91236408241093158721923828125">
        <ele>1235.5999755859375</ele>
        <time>2026-06-16T07:07:45.000Z</time>
        <extensions>
          <ns3:TrackPointExtension>
            <ns3:atemp>16.0</ns3:atemp>
          </ns3:TrackPointExtension>
        </extensions>
      </trkpt>
      <trkpt lat="42.6421349309384822845458984375" lon="19.9123785831034183502197265625">
        <ele>1235.800048828125</ele>
        <time>2026-06-16T07:07:46.000Z</time>
        <extensions>
          <ns3:TrackPointExtension>
            <ns3:atemp>16.0</ns3:atemp>
          </ns3:TrackPointExtension>
        </extensions>
      </trkpt>
      <trkpt lat="42.64210651628673076629638671875" lon="19.9123916588723659515380859375">
        <ele>1235.800048828125</ele>
        <time>2026-06-16T07:07:47.000Z</time>
        <extensions>
          <ns3:TrackPointExtension>
            <ns3:atemp>16.0</ns3:atemp>
          </ns3:TrackPointExtension>
        </extensions>
      </trkpt>
      <trkpt lat="42.6420794427394866943359375" lon="19.9124050699174404144287109375">
        <ele>1236</ele>
        <time>2026-06-16T07:07:48.000Z</time>
        <extensions>
          <ns3:TrackPointExtension>
            <ns3:atemp>16.0</ns3:atemp>
          </ns3:TrackPointExtension>
        </extensions>
      </trkpt>
      <trkpt lat="42.64205236919224262237548828125" lon="19.9124168045818805694580078125">
        <ele>1236.199951171875</ele>
        <time>2026-06-16T07:07:49.000Z</time>
        <extensions>
          <ns3:TrackPointExtension>
            <ns3:atemp>16.0</ns3:atemp>
          </ns3:TrackPointExtension>
        </extensions>
      </trkpt>
      <trkpt lat="42.64202789403498172760009765625" lon="19.91242895834147930145263671875">
        <ele>1236.199951171875</ele>
        <time>2026-06-16T07:07:50.000Z</time>
        <extensions>
          <ns3:TrackPointExtension>
            <ns3:atemp>16.0</ns3:atemp>
          </ns3:TrackPointExtension>
        </extensions>
      </trkpt>
      <trkpt lat="42.6420035026967525482177734375" lon="19.91244019009172916412353515625">
        <ele>1236.4000244140625</ele>
        <time>2026-06-16T07:07:51.000Z</time>
        <extensions>
          <ns3:TrackPointExtension>
            <ns3:atemp>16.0</ns3:atemp>
          </ns3:TrackPointExtension>
        </extensions>
      </trkpt>
      <trkpt lat="42.64198078773915767669677734375" lon="19.91245687007904052734375">
        <ele>1236.5999755859375</ele>
        <time>2026-06-16T07:07:52.000Z</time>
        <extensions>
          <ns3:TrackPointExtension>
            <ns3:atemp>16.0</ns3:atemp>
          </ns3:TrackPointExtension>
        </extensions>
      </trkpt>
      <trkpt lat="42.6419568993151187896728515625" lon="19.91247153840959072113037109375">
        <ele>1236.5999755859375</ele>
        <time>2026-06-16T07:07:53.000Z</time>
        <extensions>
          <ns3:TrackPointExtension>
            <ns3:atemp>15.0</ns3:atemp>
          </ns3:TrackPointExtension>
        </extensions>
      </trkpt>
      <trkpt lat="42.64193468727171421051025390625" lon="19.91248930804431438446044921875">
        <ele>1236.800048828125</ele>
        <time>2026-06-16T07:07:54.000Z</time>
        <extensions>
          <ns3:TrackPointExtension>
            <ns3:atemp>15.0</ns3:atemp>
          </ns3:TrackPointExtension>
        </extensions>
      </trkpt>
      <trkpt lat="42.641913481056690216064453125" lon="19.91250540129840373992919921875">
        <ele>1236.800048828125</ele>
        <time>2026-06-16T07:07:55.000Z</time>
        <extensions>
          <ns3:TrackPointExtension>
            <ns3:atemp>15.0</ns3:atemp>
          </ns3:TrackPointExtension>
        </extensions>
      </trkpt>
      <trkpt lat="42.6418911851942539215087890625" lon="19.91252216510474681854248046875">
        <ele>1236.800048828125</ele>
        <time>2026-06-16T07:07:56.000Z</time>
        <extensions>
          <ns3:TrackPointExtension>
            <ns3:atemp>15.0</ns3:atemp>
          </ns3:TrackPointExtension>
        </extensions>
      </trkpt>
      <trkpt lat="42.641866542398929595947265625" lon="19.91254261694848537445068359375">
        <ele>1237</ele>
        <time>2026-06-16T07:07:57.000Z</time>
        <extensions>
          <ns3:TrackPointExtension>
            <ns3:atemp>15.0</ns3:atemp>
          </ns3:TrackPointExtension>
        </extensions>
      </trkpt>
      <trkpt lat="42.641841061413288116455078125" lon="19.91256105713546276092529296875">
        <ele>1237</ele>
        <time>2026-06-16T07:07:58.000Z</time>
        <extensions>
          <ns3:TrackPointExtension>
            <ns3:atemp>15.0</ns3:atemp>
          </ns3:TrackPointExtension>
        </extensions>
      </trkpt>
      <trkpt lat="42.6418160833418369293212890625" lon="19.912578575313091278076171875">
        <ele>1237.199951171875</ele>
        <time>2026-06-16T07:07:59.000Z</time>
        <extensions>
          <ns3:TrackPointExtension>
            <ns3:atemp>15.0</ns3:atemp>
          </ns3:TrackPointExtension>
        </extensions>
      </trkpt>
      <trkpt lat="42.64179236255586147308349609375" lon="19.91259492002427577972412109375">
        <ele>1237.199951171875</ele>
        <time>2026-06-16T07:08:00.000Z</time>
        <extensions>
          <ns3:TrackPointExtension>
            <ns3:atemp>15.0</ns3:atemp>
          </ns3:TrackPointExtension>
        </extensions>
      </trkpt>
      <trkpt lat="42.64176906086504459381103515625" lon="19.91261302493512630462646484375">
        <ele>1237.4000244140625</ele>
        <time>2026-06-16T07:08:01.000Z</time>
        <extensions>
          <ns3:TrackPointExtension>
            <ns3:atemp>15.0</ns3:atemp>
          </ns3:TrackPointExtension>
        </extensions>
      </trkpt>
      <trkpt lat="42.64174592681229114532470703125" lon="19.91262727417051792144775390625">
        <ele>1237.4000244140625</ele>
        <time>2026-06-16T07:08:02.000Z</time>
        <extensions>
          <ns3:TrackPointExtension>
            <ns3:atemp>15.0</ns3:atemp>
          </ns3:TrackPointExtension>
        </extensions>
      </trkpt>
      <trkpt lat="42.64172329567372798919677734375" lon="19.912638925015926361083984375">
        <ele>1237.5999755859375</ele>
        <time>2026-06-16T07:08:03.000Z</time>
        <extensions>
          <ns3:TrackPointExtension>
            <ns3:atemp>15.0</ns3:atemp>
          </ns3:TrackPointExtension>
        </extensions>
      </trkpt>
      <trkpt lat="42.64170334674417972564697265625" lon="19.9126508273184299468994140625">
        <ele>1237.800048828125</ele>
        <time>2026-06-16T07:08:04.000Z</time>
        <extensions>
          <ns3:TrackPointExtension>
            <ns3:atemp>15.0</ns3:atemp>
          </ns3:TrackPointExtension>
        </extensions>
      </trkpt>
      <trkpt lat="42.64168021269142627716064453125" lon="19.91266080178320407867431640625">
        <ele>1238</ele>
        <time>2026-06-16T07:08:05.000Z</time>
        <extensions>
          <ns3:TrackPointExtension>
            <ns3:atemp>15.0</ns3:atemp>
          </ns3:TrackPointExtension>
        </extensions>
      </trkpt>
      <trkpt lat="42.64165841974318027496337890625" lon="19.91266851313412189483642578125">
        <ele>1238.199951171875</ele>
        <time>2026-06-16T07:08:06.000Z</time>
        <extensions>
          <ns3:TrackPointExtension>
            <ns3:atemp>15.0</ns3:atemp>
          </ns3:TrackPointExtension>
        </extensions>
      </trkpt>
      <trkpt lat="42.6416395604610443115234375" lon="19.91267102770507335662841796875">
        <ele>1238.199951171875</ele>
        <time>2026-06-16T07:08:07.000Z</time>
        <extensions>
          <ns3:TrackPointExtension>
            <ns3:atemp>15.0</ns3:atemp>
          </ns3:TrackPointExtension>
        </extensions>
      </trkpt>
      <trkpt lat="42.641621790826320648193359375" lon="19.9126830138266086578369140625">
        <ele>1238.5999755859375</ele>
        <time>2026-06-16T07:08:08.000Z</time>
        <extensions>
          <ns3:TrackPointExtension>
            <ns3:atemp>15.0</ns3:atemp>
          </ns3:TrackPointExtension>
        </extensions>
      </trkpt>
      <trkpt lat="42.64160393737256526947021484375" lon="19.91269399411976337432861328125">
        <ele>1238.800048828125</ele>
        <time>2026-06-16T07:08:09.000Z</time>
        <extensions>
          <ns3:TrackPointExtension>
            <ns3:atemp>15.0</ns3:atemp>
          </ns3:TrackPointExtension>
        </extensions>
      </trkpt>
      <trkpt lat="42.64158516190946102142333984375" lon="19.91270774044096469879150390625">
        <ele>1239</ele>
        <time>2026-06-16T07:08:10.000Z</time>
        <extensions>
          <ns3:TrackPointExtension>
            <ns3:atemp>15.0</ns3:atemp>
          </ns3:TrackPointExtension>
        </extensions>
      </trkpt>
      <trkpt lat="42.64156856574118137359619140625" lon="19.91272869519889354705810546875">
        <ele>1239.199951171875</ele>
        <time>2026-06-16T07:08:11.000Z</time>
        <extensions>
          <ns3:TrackPointExtension>
            <ns3:atemp>15.0</ns3:atemp>
          </ns3:TrackPointExtension>
        </extensions>
      </trkpt>
      <trkpt lat="42.64155431650578975677490234375" lon="19.912746883928775787353515625">
        <ele>1239.4000244140625</ele>
        <time>2026-06-16T07:08:12.000Z</time>
        <extensions>
          <ns3:TrackPointExtension>
            <ns3:atemp>15.0</ns3:atemp>
          </ns3:TrackPointExtension>
        </extensions>
      </trkpt>
      <trkpt lat="42.64154375530779361724853515625" lon="19.91276624612510204315185546875">
        <ele>1239.800048828125</ele>
        <time>2026-06-16T07:08:13.000Z</time>
        <extensions>
          <ns3:TrackPointExtension>
            <ns3:atemp>16.0</ns3:atemp>
          </ns3:TrackPointExtension>
        </extensions>
      </trkpt>
      <trkpt lat="42.641534619033336639404296875" lon="19.91278468631207942962646484375">
        <ele>1240</ele>
        <time>2026-06-16T07:08:14.000Z</time>
        <extensions>
          <ns3:TrackPointExtension>
            <ns3:atemp>16.0</ns3:atemp>
          </ns3:TrackPointExtension>
        </extensions>
      </trkpt>
      <trkpt lat="42.641533277928829193115234375" lon="19.91281201131641864776611328125">
        <ele>1240.4000244140625</ele>
        <time>2026-06-16T07:08:15.000Z</time>
        <extensions>
          <ns3:TrackPointExtension>
            <ns3:atemp>15.0</ns3:atemp>
          </ns3:TrackPointExtension>
        </extensions>
      </trkpt>
      <trkpt lat="42.641537301242351531982421875" lon="19.9128332175314426422119140625">
        <ele>1240.800048828125</ele>
        <time>2026-06-16T07:08:16.000Z</time>
        <extensions>
          <ns3:TrackPointExtension>
            <ns3:atemp>15.0</ns3:atemp>
          </ns3:TrackPointExtension>
        </extensions>
      </trkpt>
      <trkpt lat="42.64154593460261821746826171875" lon="19.91285174153745174407958984375">
        <ele>1241</ele>
        <time>2026-06-16T07:08:17.000Z</time>
        <extensions>
          <ns3:TrackPointExtension>
            <ns3:atemp>15.0</ns3:atemp>
          </ns3:TrackPointExtension>
        </extensions>
      </trkpt>
      <trkpt lat="42.641557417809963226318359375" lon="19.91286347620189189910888671875">
        <ele>1241.4000244140625</ele>
        <time>2026-06-16T07:08:18.000Z</time>
        <extensions>
          <ns3:TrackPointExtension>
            <ns3:atemp>15.0</ns3:atemp>
          </ns3:TrackPointExtension>
        </extensions>
      </trkpt>
      <trkpt lat="42.64157359488308429718017578125" lon="19.91287286393344402313232421875">
        <ele>1241.800048828125</ele>
        <time>2026-06-16T07:08:19.000Z</time>
        <extensions>
          <ns3:TrackPointExtension>
            <ns3:atemp>15.0</ns3:atemp>
          </ns3:TrackPointExtension>
        </extensions>
      </trkpt>
      <trkpt lat="42.64158734120428562164306640625" lon="19.91287671960890293121337890625">
        <ele>1242.199951171875</ele>
        <time>2026-06-16T07:08:20.000Z</time>
        <extensions>
          <ns3:TrackPointExtension>
            <ns3:atemp>15.0</ns3:atemp>
          </ns3:TrackPointExtension>
        </extensions>
      </trkpt>
      <trkpt lat="42.6416008360683917999267578125" lon="19.91287864744663238525390625">
        <ele>1242.4000244140625</ele>
        <time>2026-06-16T07:08:21.000Z</time>
        <extensions>
          <ns3:TrackPointExtension>
            <ns3:atemp>15.0</ns3:atemp>
          </ns3:TrackPointExtension>
        </extensions>
      </trkpt>
      <trkpt lat="42.64161475002765655517578125" lon="19.91287956945598125457763671875">
        <ele>1242.800048828125</ele>
        <time>2026-06-16T07:08:22.000Z</time>
        <extensions>
          <ns3:TrackPointExtension>
            <ns3:atemp>15.0</ns3:atemp>
          </ns3:TrackPointExtension>
        </extensions>
      </trkpt>
      <trkpt lat="42.64163260348141193389892578125" lon="19.91287420503795146942138671875">
        <ele>1243.199951171875</ele>
        <time>2026-06-16T07:08:23.000Z</time>
        <extensions>
          <ns3:TrackPointExtension>
            <ns3:atemp>15.0</ns3:atemp>
          </ns3:TrackPointExtension>
        </extensions>
      </trkpt>
      <trkpt lat="42.64165137894451618194580078125" lon="19.91286783479154109954833984375">
        <ele>1243.4000244140625</ele>
        <time>2026-06-16T07:08:24.000Z</time>
        <extensions>
          <ns3:TrackPointExtension>
            <ns3:atemp>15.0</ns3:atemp>
          </ns3:TrackPointExtension>
        </extensions>
      </trkpt>
      <trkpt lat="42.64167375862598419189453125" lon="19.91286163218319416046142578125">
        <ele>1243.5999755859375</ele>
        <time>2026-06-16T07:08:25.000Z</time>
        <extensions>
          <ns3:TrackPointExtension>
            <ns3:atemp>15.0</ns3:atemp>
          </ns3:TrackPointExtension>
        </extensions>
      </trkpt>
      <trkpt lat="42.6416910253465175628662109375" lon="19.91285693831741809844970703125">
        <ele>1244</ele>
        <time>2026-06-16T07:08:26.000Z</time>
        <extensions>
          <ns3:TrackPointExtension>
            <ns3:atemp>15.0</ns3:atemp>
          </ns3:TrackPointExtension>
        </extensions>
      </trkpt>
      <trkpt lat="42.64170996844768524169921875" lon="19.91285526193678379058837890625">
        <ele>1244.199951171875</ele>
        <time>2026-06-16T07:08:27.000Z</time>
        <extensions>
          <ns3:TrackPointExtension>
            <ns3:atemp>15.0</ns3:atemp>
          </ns3:TrackPointExtension>
        </extensions>
      </trkpt>
      <trkpt lat="42.64173318631947040557861328125" lon="19.912858866155147552490234375">
        <ele>1244.4000244140625</ele>
        <time>2026-06-16T07:08:28.000Z</time>
        <extensions>
          <ns3:TrackPointExtension>
            <ns3:atemp>15.0</ns3:atemp>
          </ns3:TrackPointExtension>
        </extensions>
      </trkpt>
      <trkpt lat="42.6417540572583675384521484375" lon="19.91286347620189189910888671875">
        <ele>1244.5999755859375</ele>
        <time>2026-06-16T07:08:29.000Z</time>
        <extensions>
          <ns3:TrackPointExtension>
            <ns3:atemp>15.0</ns3:atemp>
          </ns3:TrackPointExtension>
        </extensions>
      </trkpt>
      <trkpt lat="42.64177442528307437896728515625" lon="19.912866912782192230224609375">
        <ele>1244.800048828125</ele>
        <time>2026-06-16T07:08:30.000Z</time>
        <extensions>
          <ns3:TrackPointExtension>
            <ns3:atemp>15.0</ns3:atemp>
          </ns3:TrackPointExtension>
        </extensions>
      </trkpt>
      <trkpt lat="42.64179445803165435791015625" lon="19.91286431439220905303955078125">
        <ele>1245</ele>
        <time>2026-06-16T07:08:31.000Z</time>
        <extensions>
          <ns3:TrackPointExtension>
            <ns3:atemp>15.0</ns3:atemp>
          </ns3:TrackPointExtension>
        </extensions>
      </trkpt>
      <trkpt lat="42.6418113894760608673095703125" lon="19.91286280564963817596435546875">
        <ele>1245.199951171875</ele>
        <time>2026-06-16T07:08:32.000Z</time>
        <extensions>
          <ns3:TrackPointExtension>
            <ns3:atemp>15.0</ns3:atemp>
          </ns3:TrackPointExtension>
        </extensions>
      </trkpt>
      <trkpt lat="42.64183192513883113861083984375" lon="19.9128714390099048614501953125">
        <ele>1245.5999755859375</ele>
        <time>2026-06-16T07:08:33.000Z</time>
        <extensions>
          <ns3:TrackPointExtension>
            <ns3:atemp>15.0</ns3:atemp>
          </ns3:TrackPointExtension>
        </extensions>
      </trkpt>
      <trkpt lat="42.64184944331645965576171875" lon="19.91287336684763431549072265625">
        <ele>1245.800048828125</ele>
        <time>2026-06-16T07:08:34.000Z</time>
        <extensions>
          <ns3:TrackPointExtension>
            <ns3:atemp>15.0</ns3:atemp>
          </ns3:TrackPointExtension>
        </extensions>
      </trkpt>
      <trkpt lat="42.64187148772180080413818359375" lon="19.9128768034279346466064453125">
        <ele>1246</ele>
        <time>2026-06-16T07:08:35.000Z</time>
        <extensions>
          <ns3:TrackPointExtension>
            <ns3:atemp>15.0</ns3:atemp>
          </ns3:TrackPointExtension>
        </extensions>
      </trkpt>
      <trkpt lat="42.6418915204703807830810546875" lon="19.91288359276950359344482421875">
        <ele>1246.199951171875</ele>
        <time>2026-06-16T07:08:36.000Z</time>
        <extensions>
          <ns3:TrackPointExtension>
            <ns3:atemp>15.0</ns3:atemp>
          </ns3:TrackPointExtension>
        </extensions>
      </trkpt>
      <trkpt lat="42.64191423542797565460205078125" lon="19.91288292221724987030029296875">
        <ele>1246.5999755859375</ele>
        <time>2026-06-16T07:08:37.000Z</time>
        <extensions>
          <ns3:TrackPointExtension>
            <ns3:atemp>15.0</ns3:atemp>
          </ns3:TrackPointExtension>
        </extensions>
      </trkpt>
      <trkpt lat="42.64193435199558734893798828125" lon="19.91289063356816768646240234375">
        <ele>1246.800048828125</ele>
        <time>2026-06-16T07:08:38.000Z</time>
        <extensions>
          <ns3:TrackPointExtension>
            <ns3:atemp>15.0</ns3:atemp>
          </ns3:TrackPointExtension>
        </extensions>
      </trkpt>
      <trkpt lat="42.64195446856319904327392578125" lon="19.91289583034813404083251953125">
        <ele>1247</ele>
        <time>2026-06-16T07:08:39.000Z</time>
        <extensions>
          <ns3:TrackPointExtension>
            <ns3:atemp>15.0</ns3:atemp>
          </ns3:TrackPointExtension>
        </extensions>
      </trkpt>
      <trkpt lat="42.6419748365879058837890625" lon="19.9129034578800201416015625">
        <ele>1247.199951171875</ele>
        <time>2026-06-16T07:08:40.000Z</time>
        <extensions>
          <ns3:TrackPointExtension>
            <ns3:atemp>15.0</ns3:atemp>
          </ns3:TrackPointExtension>
        </extensions>
      </trkpt>
      <trkpt lat="42.6419934444129467010498046875" lon="19.91290806792676448822021484375">
        <ele>1247.4000244140625</ele>
        <time>2026-06-16T07:08:41.000Z</time>
        <extensions>
          <ns3:TrackPointExtension>
            <ns3:atemp>15.0</ns3:atemp>
          </ns3:TrackPointExtension>
        </extensions>
      </trkpt>
      <trkpt lat="42.642013728618621826171875" lon="19.91291477344930171966552734375">
        <ele>1247.5999755859375</ele>
        <time>2026-06-16T07:08:42.000Z</time>
        <extensions>
          <ns3:TrackPointExtension>
            <ns3:atemp>15.0</ns3:atemp>
          </ns3:TrackPointExtension>
        </extensions>
      </trkpt>
      <trkpt lat="42.64203376136720180511474609375" lon="19.91292198188602924346923828125">
        <ele>1247.800048828125</ele>
        <time>2026-06-16T07:08:43.000Z</time>
        <extensions>
          <ns3:TrackPointExtension>
            <ns3:atemp>15.0</ns3:atemp>
          </ns3:TrackPointExtension>
        </extensions>
      </trkpt>
      <trkpt lat="42.64205354265868663787841796875" lon="19.91293120197951793670654296875">
        <ele>1248.199951171875</ele>
        <time>2026-06-16T07:08:44.000Z</time>
        <extensions>
          <ns3:TrackPointExtension>
            <ns3:atemp>15.0</ns3:atemp>
          </ns3:TrackPointExtension>
        </extensions>
      </trkpt>
      <trkpt lat="42.64207541942596435546875" lon="19.91293556056916713714599609375">
        <ele>1248.4000244140625</ele>
        <time>2026-06-16T07:08:45.000Z</time>
        <extensions>
          <ns3:TrackPointExtension>
            <ns3:atemp>15.0</ns3:atemp>
          </ns3:TrackPointExtension>
        </extensions>
      </trkpt>
      <trkpt lat="42.642093189060688018798828125" lon="19.9129438586533069610595703125">
        <ele>1248.5999755859375</ele>
        <time>2026-06-16T07:08:46.000Z</time>
        <extensions>
          <ns3:TrackPointExtension>
            <ns3:atemp>15.0</ns3:atemp>
          </ns3:TrackPointExtension>
        </extensions>
      </trkpt>
      <trkpt lat="42.64210919849574565887451171875" lon="19.91295165382325649261474609375">
        <ele>1248.800048828125</ele>
        <time>2026-06-16T07:08:47.000Z</time>
        <extensions>
          <ns3:TrackPointExtension>
            <ns3:atemp>15.0</ns3:atemp>
          </ns3:TrackPointExtension>
        </extensions>
      </trkpt>
      <trkpt lat="42.64212864451110363006591796875" lon="19.9129579402506351470947265625">
        <ele>1249</ele>
        <time>2026-06-16T07:08:48.000Z</time>
        <extensions>
          <ns3:TrackPointExtension>
            <ns3:atemp>15.0</ns3:atemp>
          </ns3:TrackPointExtension>
        </extensions>
      </trkpt>
      <trkpt lat="42.6421496830880641937255859375" lon="19.91296506486833095550537109375">
        <ele>1249.199951171875</ele>
        <time>2026-06-16T07:08:49.000Z</time>
        <extensions>
          <ns3:TrackPointExtension>
            <ns3:atemp>15.0</ns3:atemp>
          </ns3:TrackPointExtension>
        </extensions>
      </trkpt>
      <trkpt lat="42.64216837473213672637939453125" lon="19.91297964937984943389892578125">
        <ele>1249.4000244140625</ele>
        <time>2026-06-16T07:08:50.000Z</time>
        <extensions>
          <ns3:TrackPointExtension>
            <ns3:atemp>15.0</ns3:atemp>
          </ns3:TrackPointExtension>
        </extensions>
      </trkpt>
      <trkpt lat="42.64218564145267009735107421875" lon="19.9129958264529705047607421875">
        <ele>1249.800048828125</ele>
        <time>2026-06-16T07:08:51.000Z</time>
        <extensions>
          <ns3:TrackPointExtension>
            <ns3:atemp>15.0</ns3:atemp>
          </ns3:TrackPointExtension>
        </extensions>
      </trkpt>
      <trkpt lat="42.6422086916863918304443359375" lon="19.91300613619387149810791015625">
        <ele>1250</ele>
        <time>2026-06-16T07:08:52.000Z</time>
        <extensions>
          <ns3:TrackPointExtension>
            <ns3:atemp>16.0</ns3:atemp>
          </ns3:TrackPointExtension>
        </extensions>
      </trkpt>
      <trkpt lat="42.6422288082540035247802734375" lon="19.913017116487026214599609375">
        <ele>1250.199951171875</ele>
        <time>2026-06-16T07:08:53.000Z</time>
        <extensions>
          <ns3:TrackPointExtension>
            <ns3:atemp>15.0</ns3:atemp>
          </ns3:TrackPointExtension>
        </extensions>
      </trkpt>
      <trkpt lat="42.64224775135517120361328125" lon="19.9130286835134029388427734375">
        <ele>1250.4000244140625</ele>
        <time>2026-06-16T07:08:54.000Z</time>
        <extensions>
          <ns3:TrackPointExtension>
            <ns3:atemp>16.0</ns3:atemp>
          </ns3:TrackPointExtension>
        </extensions>
      </trkpt>
      <trkpt lat="42.64226443134248256683349609375" lon="19.9130384065210819244384765625">
        <ele>1250.4000244140625</ele>
        <time>2026-06-16T07:08:55.000Z</time>
        <extensions>
          <ns3:TrackPointExtension>
            <ns3:atemp>16.0</ns3:atemp>
          </ns3:TrackPointExtension>
        </extensions>
      </trkpt>
      <trkpt lat="42.64228253625333309173583984375" lon="19.913051985204219818115234375">
        <ele>1250.5999755859375</ele>
        <time>2026-06-16T07:08:56.000Z</time>
        <extensions>
          <ns3:TrackPointExtension>
            <ns3:atemp>16.0</ns3:atemp>
          </ns3:TrackPointExtension>
        </extensions>
      </trkpt>
      <trkpt lat="42.6423045806586742401123046875" lon="19.91306548006832599639892578125">
        <ele>1250.800048828125</ele>
        <time>2026-06-16T07:08:57.000Z</time>
        <extensions>
          <ns3:TrackPointExtension>
            <ns3:atemp>16.0</ns3:atemp>
          </ns3:TrackPointExtension>
        </extensions>
      </trkpt>
      <trkpt lat="42.64232846908271312713623046875" lon="19.91308224387466907501220703125">
        <ele>1251</ele>
        <time>2026-06-16T07:08:58.000Z</time>
        <extensions>
          <ns3:TrackPointExtension>
            <ns3:atemp>15.0</ns3:atemp>
          </ns3:TrackPointExtension>
        </extensions>
      </trkpt>
      <trkpt lat="42.64234556816518306732177734375" lon="19.91309531964361667633056640625">
        <ele>1251.199951171875</ele>
        <time>2026-06-16T07:08:59.000Z</time>
        <extensions>
          <ns3:TrackPointExtension>
            <ns3:atemp>15.0</ns3:atemp>
          </ns3:TrackPointExtension>
        </extensions>
      </trkpt>
      <trkpt lat="42.6423592306673526763916015625" lon="19.91311199963092803955078125">
        <ele>1251.4000244140625</ele>
        <time>2026-06-16T07:09:00.000Z</time>
        <extensions>
          <ns3:TrackPointExtension>
            <ns3:atemp>15.0</ns3:atemp>
          </ns3:TrackPointExtension>
        </extensions>
      </trkpt>
      <trkpt lat="42.64238110743463039398193359375" lon="19.913133122026920318603515625">
        <ele>1251.5999755859375</ele>
        <time>2026-06-16T07:09:01.000Z</time>
        <extensions>
          <ns3:TrackPointExtension>
            <ns3:atemp>16.0</ns3:atemp>
          </ns3:TrackPointExtension>
        </extensions>
      </trkpt>
      <trkpt lat="42.642394937574863433837890625" lon="19.9131420068442821502685546875">
        <ele>1251.800048828125</ele>
        <time>2026-06-16T07:09:02.000Z</time>
        <extensions>
          <ns3:TrackPointExtension>
            <ns3:atemp>16.0</ns3:atemp>
          </ns3:TrackPointExtension>
        </extensions>
      </trkpt>
      <trkpt lat="42.642414383590221405029296875" lon="19.91316237486898899078369140625">
        <ele>1252.199951171875</ele>
        <time>2026-06-16T07:09:03.000Z</time>
        <extensions>
          <ns3:TrackPointExtension>
            <ns3:atemp>16.0</ns3:atemp>
          </ns3:TrackPointExtension>
        </extensions>
      </trkpt>
      <trkpt lat="42.64243307523429393768310546875" lon="19.91317964158952236175537109375">
        <ele>1252.4000244140625</ele>
        <time>2026-06-16T07:09:04.000Z</time>
        <extensions>
          <ns3:TrackPointExtension>
            <ns3:atemp>16.0</ns3:atemp>
          </ns3:TrackPointExtension>
        </extensions>
      </trkpt>
      <trkpt lat="42.64244715683162212371826171875" lon="19.9132023565471172332763671875">
        <ele>1252.800048828125</ele>
        <time>2026-06-16T07:09:05.000Z</time>
        <extensions>
          <ns3:TrackPointExtension>
            <ns3:atemp>16.0</ns3:atemp>
          </ns3:TrackPointExtension>
        </extensions>
      </trkpt>
      <trkpt lat="42.64245905913412570953369140625" lon="19.91322842426598072052001953125">
        <ele>1253</ele>
        <time>2026-06-16T07:09:06.000Z</time>
        <extensions>
          <ns3:TrackPointExtension>
            <ns3:atemp>16.0</ns3:atemp>
          </ns3:TrackPointExtension>
        </extensions>
      </trkpt>
      <trkpt lat="42.642469368875026702880859375" lon="19.913255162537097930908203125">
        <ele>1253.199951171875</ele>
        <time>2026-06-16T07:09:07.000Z</time>
        <extensions>
          <ns3:TrackPointExtension>
            <ns3:atemp>16.0</ns3:atemp>
          </ns3:TrackPointExtension>
        </extensions>
      </trkpt>
      <trkpt lat="42.64247498475015163421630859375" lon="19.913281984627246856689453125">
        <ele>1253.5999755859375</ele>
        <time>2026-06-16T07:09:08.000Z</time>
        <extensions>
          <ns3:TrackPointExtension>
            <ns3:atemp>16.0</ns3:atemp>
          </ns3:TrackPointExtension>
        </extensions>
      </trkpt>
      <trkpt lat="42.6424737274646759033203125" lon="19.91330335848033428192138671875">
        <ele>1253.800048828125</ele>
        <time>2026-06-16T07:09:09.000Z</time>
        <extensions>
          <ns3:TrackPointExtension>
            <ns3:atemp>16.0</ns3:atemp>
          </ns3:TrackPointExtension>
        </extensions>
      </trkpt>
      <trkpt lat="42.64246962033212184906005859375" lon="19.91332448087632656097412109375">
        <ele>1254.199951171875</ele>
        <time>2026-06-16T07:09:10.000Z</time>
        <extensions>
          <ns3:TrackPointExtension>
            <ns3:atemp>15.0</ns3:atemp>
          </ns3:TrackPointExtension>
        </extensions>
      </trkpt>
      <trkpt lat="42.64246341772377490997314453125" lon="19.91334577091038227081298828125">
        <ele>1254.4000244140625</ele>
        <time>2026-06-16T07:09:11.000Z</time>
        <extensions>
          <ns3:TrackPointExtension>
            <ns3:atemp>15.0</ns3:atemp>
          </ns3:TrackPointExtension>
        </extensions>
      </trkpt>
      <trkpt lat="42.64244765974581241607666015625" lon="19.913356415927410125732421875">
        <ele>1254.800048828125</ele>
        <time>2026-06-16T07:09:12.000Z</time>
        <extensions>
          <ns3:TrackPointExtension>
            <ns3:atemp>15.0</ns3:atemp>
          </ns3:TrackPointExtension>
        </extensions>
      </trkpt>
      <trkpt lat="42.64243156649172306060791015625" lon="19.91335398517549037933349609375">
        <ele>1255.199951171875</ele>
        <time>2026-06-16T07:09:13.000Z</time>
        <extensions>
          <ns3:TrackPointExtension>
            <ns3:atemp>15.0</ns3:atemp>
          </ns3:TrackPointExtension>
        </extensions>
      </trkpt>
      <trkpt lat="42.64241228811442852020263671875" lon="19.91335515864193439483642578125">
        <ele>1255.4000244140625</ele>
        <time>2026-06-16T07:09:14.000Z</time>
        <extensions>
          <ns3:TrackPointExtension>
            <ns3:atemp>15.0</ns3:atemp>
          </ns3:TrackPointExtension>
        </extensions>
      </trkpt>
      <trkpt lat="42.64239124953746795654296875" lon="19.9133532308042049407958984375">
        <ele>1255.800048828125</ele>
        <time>2026-06-16T07:09:15.000Z</time>
        <extensions>
          <ns3:TrackPointExtension>
            <ns3:atemp>15.0</ns3:atemp>
          </ns3:TrackPointExtension>
        </extensions>
      </trkpt>
      <trkpt lat="42.64237247407436370849609375" lon="19.91334744729101657867431640625">
        <ele>1256</ele>
        <time>2026-06-16T07:09:16.000Z</time>
        <extensions>
          <ns3:TrackPointExtension>
            <ns3:atemp>15.0</ns3:atemp>
          </ns3:TrackPointExtension>
        </extensions>
      </trkpt>
      <trkpt lat="42.6423511840403079986572265625" lon="19.9133361317217350006103515625">
        <ele>1256.199951171875</ele>
        <time>2026-06-16T07:09:17.000Z</time>
        <extensions>
          <ns3:TrackPointExtension>
            <ns3:atemp>15.0</ns3:atemp>
          </ns3:TrackPointExtension>
        </extensions>
      </trkpt>
      <trkpt lat="42.642331905663013458251953125" lon="19.91332523524761199951171875">
        <ele>1256.4000244140625</ele>
        <time>2026-06-16T07:09:18.000Z</time>
        <extensions>
          <ns3:TrackPointExtension>
            <ns3:atemp>15.0</ns3:atemp>
          </ns3:TrackPointExtension>
        </extensions>
      </trkpt>
      <trkpt lat="42.64232008717954158782958984375" lon="19.91331978701055049896240234375">
        <ele>1256.5999755859375</ele>
        <time>2026-06-16T07:09:19.000Z</time>
        <extensions>
          <ns3:TrackPointExtension>
            <ns3:atemp>15.0</ns3:atemp>
          </ns3:TrackPointExtension>
        </extensions>
      </trkpt>
      <trkpt lat="42.64230416156351566314697265625" lon="19.91331760771572589874267578125">
        <ele>1256.800048828125</ele>
        <time>2026-06-16T07:09:20.000Z</time>
        <extensions>
          <ns3:TrackPointExtension>
            <ns3:atemp>15.0</ns3:atemp>
          </ns3:TrackPointExtension>
        </extensions>
      </trkpt>
      <trkpt lat="42.64228672720491886138916015625" lon="19.9133230559527873992919921875">
        <ele>1257</ele>
        <time>2026-06-16T07:09:21.000Z</time>
        <extensions>
          <ns3:TrackPointExtension>
            <ns3:atemp>15.0</ns3:atemp>
          </ns3:TrackPointExtension>
        </extensions>
      </trkpt>
      <trkpt lat="42.64226342551410198211669921875" lon="19.9133230559527873992919921875">
        <ele>1257</ele>
        <time>2026-06-16T07:09:22.000Z</time>
        <extensions>
          <ns3:TrackPointExtension>
            <ns3:atemp>16.0</ns3:atemp>
          </ns3:TrackPointExtension>
        </extensions>
      </trkpt>
      <trkpt lat="42.6422417163848876953125" lon="19.91332045756280422210693359375">
        <ele>1257.199951171875</ele>
        <time>2026-06-16T07:09:23.000Z</time>
        <extensions>
          <ns3:TrackPointExtension>
            <ns3:atemp>15.0</ns3:atemp>
          </ns3:TrackPointExtension>
        </extensions>
      </trkpt>
      <trkpt lat="42.64222319237887859344482421875" lon="19.91331442259252071380615234375">
        <ele>1257.199951171875</ele>
        <time>2026-06-16T07:09:24.000Z</time>
        <extensions>
          <ns3:TrackPointExtension>
            <ns3:atemp>16.0</ns3:atemp>
          </ns3:TrackPointExtension>
        </extensions>
      </trkpt>
      <trkpt lat="42.64219938777387142181396484375" lon="19.913307465612888336181640625">
        <ele>1257.199951171875</ele>
        <time>2026-06-16T07:09:25.000Z</time>
        <extensions>
          <ns3:TrackPointExtension>
            <ns3:atemp>16.0</ns3:atemp>
          </ns3:TrackPointExtension>
        </extensions>
      </trkpt>
      <trkpt lat="42.6421734876930713653564453125" lon="19.91329975426197052001953125">
        <ele>1257.199951171875</ele>
        <time>2026-06-16T07:09:26.000Z</time>
        <extensions>
          <ns3:TrackPointExtension>
            <ns3:atemp>15.0</ns3:atemp>
          </ns3:TrackPointExtension>
        </extensions>
      </trkpt>
      <trkpt lat="42.6421530358493328094482421875" lon="19.91329883225262165069580078125">
        <ele>1257.199951171875</ele>
        <time>2026-06-16T07:09:27.000Z</time>
        <extensions>
          <ns3:TrackPointExtension>
            <ns3:atemp>15.0</ns3:atemp>
          </ns3:TrackPointExtension>
        </extensions>
      </trkpt>
      <trkpt lat="42.6421339251101016998291015625" lon="19.91329983808100223541259765625">
        <ele>1257.199951171875</ele>
        <time>2026-06-16T07:09:28.000Z</time>
        <extensions>
          <ns3:TrackPointExtension>
            <ns3:atemp>15.0</ns3:atemp>
          </ns3:TrackPointExtension>
        </extensions>
      </trkpt>
      <trkpt lat="42.64211925677955150604248046875" lon="19.91329715587198734283447265625">
        <ele>1257.199951171875</ele>
        <time>2026-06-16T07:09:29.000Z</time>
        <extensions>
          <ns3:TrackPointExtension>
            <ns3:atemp>15.0</ns3:atemp>
          </ns3:TrackPointExtension>
        </extensions>
      </trkpt>
      <trkpt lat="42.642104923725128173828125" lon="19.91329413838684558868408203125">
        <ele>1257.199951171875</ele>
        <time>2026-06-16T07:09:30.000Z</time>
        <extensions>
          <ns3:TrackPointExtension>
            <ns3:atemp>15.0</ns3:atemp>
          </ns3:TrackPointExtension>
        </extensions>
      </trkpt>
      <trkpt lat="42.64209310524165630340576171875" lon="19.91328709758818149566650390625">
        <ele>1257.199951171875</ele>
        <time>2026-06-16T07:09:31.000Z</time>
        <extensions>
          <ns3:TrackPointExtension>
            <ns3:atemp>16.0</ns3:atemp>
          </ns3:TrackPointExtension>
        </extensions>
      </trkpt>
      <trkpt lat="42.64207533560693264007568359375" lon="19.9132883548736572265625">
        <ele>1257.199951171875</ele>
        <time>2026-06-16T07:09:32.000Z</time>
        <extensions>
          <ns3:TrackPointExtension>
            <ns3:atemp>16.0</ns3:atemp>
          </ns3:TrackPointExtension>
        </extensions>
      </trkpt>
      <trkpt lat="42.64205488376319408416748046875" lon="19.913283996284008026123046875">
        <ele>1257.199951171875</ele>
        <time>2026-06-16T07:09:33.000Z</time>
        <extensions>
          <ns3:TrackPointExtension>
            <ns3:atemp>16.0</ns3:atemp>
          </ns3:TrackPointExtension>
        </extensions>
      </trkpt>
      <trkpt lat="42.64201682992279529571533203125" lon="19.913285337388515472412109375">
        <ele>1257</ele>
        <time>2026-06-16T07:09:34.000Z</time>
        <extensions>
          <ns3:TrackPointExtension>
            <ns3:atemp>16.0</ns3:atemp>
          </ns3:TrackPointExtension>
        </extensions>
      </trkpt>
      <trkpt lat="42.64198028482496738433837890625" lon="19.9132865108549594879150390625">
        <ele>1257</ele>
        <time>2026-06-16T07:09:35.000Z</time>
        <extensions>
          <ns3:TrackPointExtension>
            <ns3:atemp>16.0</ns3:atemp>
          </ns3:TrackPointExtension>
        </extensions>
      </trkpt>
      <trkpt lat="42.6419498585164546966552734375" lon="19.91329011507332324981689453125">
        <ele>1257</ele>
        <time>2026-06-16T07:09:36.000Z</time>
        <extensions>
          <ns3:TrackPointExtension>
            <ns3:atemp>15.0</ns3:atemp>
          </ns3:TrackPointExtension>
        </extensions>
      </trkpt>
      <trkpt lat="42.6419200189411640167236328125" lon="19.91330000571906566619873046875">
        <ele>1257</ele>
        <time>2026-06-16T07:09:37.000Z</time>
        <extensions>
          <ns3:TrackPointExtension>
            <ns3:atemp>15.0</ns3:atemp>
          </ns3:TrackPointExtension>
        </extensions>
      </trkpt>
      <trkpt lat="42.6418828032910823822021484375" lon="19.91330771706998348236083984375">
        <ele>1256.800048828125</ele>
        <time>2026-06-16T07:09:38.000Z</time>
        <extensions>
          <ns3:TrackPointExtension>
            <ns3:atemp>15.0</ns3:atemp>
          </ns3:TrackPointExtension>
        </extensions>
      </trkpt>
      <trkpt lat="42.64184181578457355499267578125" lon="19.913312494754791259765625">
        <ele>1256.800048828125</ele>
        <time>2026-06-16T07:09:39.000Z</time>
        <extensions>
          <ns3:TrackPointExtension>
            <ns3:atemp>15.0</ns3:atemp>
          </ns3:TrackPointExtension>
        </extensions>
      </trkpt>
      <trkpt lat="42.64179923571646213531494140625" lon="19.91331274621188640594482421875">
        <ele>1256.800048828125</ele>
        <time>2026-06-16T07:09:40.000Z</time>
        <extensions>
          <ns3:TrackPointExtension>
            <ns3:atemp>15.0</ns3:atemp>
          </ns3:TrackPointExtension>
        </extensions>
      </trkpt>
      <trkpt lat="42.64176093041896820068359375" lon="19.91331660188734531402587890625">
        <ele>1256.5999755859375</ele>
        <time>2026-06-16T07:09:41.000Z</time>
        <extensions>
          <ns3:TrackPointExtension>
            <ns3:atemp>15.0</ns3:atemp>
          </ns3:TrackPointExtension>
        </extensions>
      </trkpt>
      <trkpt lat="42.64172245748341083526611328125" lon="19.91331459023058414459228515625">
        <ele>1256.5999755859375</ele>
        <time>2026-06-16T07:09:42.000Z</time>
        <extensions>
          <ns3:TrackPointExtension>
            <ns3:atemp>16.0</ns3:atemp>
          </ns3:TrackPointExtension>
        </extensions>
      </trkpt>
      <trkpt lat="42.64168540947139263153076171875" lon="19.9133098125457763671875">
        <ele>1256.4000244140625</ele>
        <time>2026-06-16T07:09:43.000Z</time>
        <extensions>
          <ns3:TrackPointExtension>
            <ns3:atemp>15.0</ns3:atemp>
          </ns3:TrackPointExtension>
        </extensions>
      </trkpt>
      <trkpt lat="42.6416556537151336669921875" lon="19.91331090219318866729736328125">
        <ele>1256.4000244140625</ele>
        <time>2026-06-16T07:09:44.000Z</time>
        <extensions>
          <ns3:TrackPointExtension>
            <ns3:atemp>15.0</ns3:atemp>
          </ns3:TrackPointExtension>
        </extensions>
      </trkpt>
      <trkpt lat="42.64161835424602031707763671875" lon="19.91330972872674465179443359375">
        <ele>1256.4000244140625</ele>
        <time>2026-06-16T07:09:45.000Z</time>
        <extensions>
          <ns3:TrackPointExtension>
            <ns3:atemp>15.0</ns3:atemp>
          </ns3:TrackPointExtension>
        </extensions>
      </trkpt>
      <trkpt lat="42.6415844075381755828857421875" lon="19.91330620832741260528564453125">
        <ele>1256.199951171875</ele>
        <time>2026-06-16T07:09:46.000Z</time>
        <extensions>
          <ns3:TrackPointExtension>
            <ns3:atemp>15.0</ns3:atemp>
          </ns3:TrackPointExtension>
        </extensions>
      </trkpt>
      <trkpt lat="42.64154828153550624847412109375" lon="19.913305453956127166748046875">
        <ele>1256.199951171875</ele>
        <time>2026-06-16T07:09:47.000Z</time>
        <extensions>
          <ns3:TrackPointExtension>
            <ns3:atemp>15.0</ns3:atemp>
          </ns3:TrackPointExtension>
        </extensions>
      </trkpt>
      <trkpt lat="42.6415129937231540679931640625" lon="19.9132969044148921966552734375">
        <ele>1256</ele>
        <time>2026-06-16T07:09:48.000Z</time>
        <extensions>
          <ns3:TrackPointExtension>
            <ns3:atemp>15.0</ns3:atemp>
          </ns3:TrackPointExtension>
        </extensions>
      </trkpt>
      <trkpt lat="42.64147820882499217987060546875" lon="19.9132965691387653350830078125">
        <ele>1256</ele>
        <time>2026-06-16T07:09:49.000Z</time>
        <extensions>
          <ns3:TrackPointExtension>
            <ns3:atemp>15.0</ns3:atemp>
          </ns3:TrackPointExtension>
        </extensions>
      </trkpt>
      <trkpt lat="42.6414410769939422607421875" lon="19.91329950280487537384033203125">
        <ele>1255.800048828125</ele>
        <time>2026-06-16T07:09:50.000Z</time>
        <extensions>
          <ns3:TrackPointExtension>
            <ns3:atemp>16.0</ns3:atemp>
          </ns3:TrackPointExtension>
        </extensions>
      </trkpt>
      <trkpt lat="42.6414107345044612884521484375" lon="19.9132989160716533660888671875">
        <ele>1255.5999755859375</ele>
        <time>2026-06-16T07:09:51.000Z</time>
        <extensions>
          <ns3:TrackPointExtension>
            <ns3:atemp>16.0</ns3:atemp>
          </ns3:TrackPointExtension>
        </extensions>
      </trkpt>
      <trkpt lat="42.64138433150947093963623046875" lon="19.91329765878617763519287109375">
        <ele>1255.5999755859375</ele>
        <time>2026-06-16T07:09:52.000Z</time>
        <extensions>
          <ns3:TrackPointExtension>
            <ns3:atemp>16.0</ns3:atemp>
          </ns3:TrackPointExtension>
        </extensions>
      </trkpt>
      <trkpt lat="42.64136002399027347564697265625" lon="19.9132979102432727813720703125">
        <ele>1255.4000244140625</ele>
        <time>2026-06-16T07:09:53.000Z</time>
        <extensions>
          <ns3:TrackPointExtension>
            <ns3:atemp>16.0</ns3:atemp>
          </ns3:TrackPointExtension>
        </extensions>
      </trkpt>
      <trkpt lat="42.6413329504430294036865234375" lon="19.913301765918731689453125">
        <ele>1255.4000244140625</ele>
        <time>2026-06-16T07:09:54.000Z</time>
        <extensions>
          <ns3:TrackPointExtension>
            <ns3:atemp>15.0</ns3:atemp>
          </ns3:TrackPointExtension>
        </extensions>
      </trkpt>
      <trkpt lat="42.64130629599094390869140625" lon="19.91330109536647796630859375">
        <ele>1255.199951171875</ele>
        <time>2026-06-16T07:09:55.000Z</time>
        <extensions>
          <ns3:TrackPointExtension>
            <ns3:atemp>15.0</ns3:atemp>
          </ns3:TrackPointExtension>
        </extensions>
      </trkpt>
      <trkpt lat="42.64127737842500209808349609375" lon="19.91330335848033428192138671875">
        <ele>1255</ele>
        <time>2026-06-16T07:09:56.000Z</time>
        <extensions>
          <ns3:TrackPointExtension>
            <ns3:atemp>15.0</ns3:atemp>
          </ns3:TrackPointExtension>
        </extensions>
      </trkpt>
      <trkpt lat="42.64124887995421886444091796875" lon="19.91332230158150196075439453125">
        <ele>1255</ele>
        <time>2026-06-16T07:09:57.000Z</time>
        <extensions>
          <ns3:TrackPointExtension>
            <ns3:atemp>15.0</ns3:atemp>
          </ns3:TrackPointExtension>
        </extensions>
      </trkpt>
      <trkpt lat="42.6412219740450382232666015625" lon="19.91334442980587482452392578125">
        <ele>1255</ele>
        <time>2026-06-16T07:09:58.000Z</time>
        <extensions>
          <ns3:TrackPointExtension>
            <ns3:atemp>15.0</ns3:atemp>
          </ns3:TrackPointExtension>
        </extensions>
      </trkpt>
      <trkpt lat="42.64119272120296955108642578125" lon="19.91336102597415447235107421875">
        <ele>1255</ele>
        <time>2026-06-16T07:09:59.000Z</time>
        <extensions>
          <ns3:TrackPointExtension>
            <ns3:atemp>15.0</ns3:atemp>
          </ns3:TrackPointExtension>
        </extensions>
      </trkpt>
      <trkpt lat="42.64116388745605945587158203125" lon="19.913382232189178466796875">
        <ele>1255</ele>
        <time>2026-06-16T07:10:00.000Z</time>
        <extensions>
          <ns3:TrackPointExtension>
            <ns3:atemp>16.0</ns3:atemp>
          </ns3:TrackPointExtension>
        </extensions>
      </trkpt>
      <trkpt lat="42.6411327905952930450439453125" lon="19.9134063720703125">
        <ele>1255</ele>
        <time>2026-06-16T07:10:01.000Z</time>
        <extensions>
          <ns3:TrackPointExtension>
            <ns3:atemp>16.0</ns3:atemp>
          </ns3:TrackPointExtension>
        </extensions>
      </trkpt>
      <trkpt lat="42.64109909534454345703125" lon="19.913434199988842010498046875">
        <ele>1255</ele>
        <time>2026-06-16T07:10:02.000Z</time>
        <extensions>
          <ns3:TrackPointExtension>
            <ns3:atemp>16.0</ns3:atemp>
          </ns3:TrackPointExtension>
        </extensions>
      </trkpt>
      <trkpt lat="42.64106112532317638397216796875" lon="19.91345808841288089752197265625">
        <ele>1255</ele>
        <time>2026-06-16T07:10:03.000Z</time>
        <extensions>
          <ns3:TrackPointExtension>
            <ns3:atemp>16.0</ns3:atemp>
          </ns3:TrackPointExtension>
        </extensions>
      </trkpt>
      <trkpt lat="42.64102390967309474945068359375" lon="19.91347610950469970703125">
        <ele>1255.199951171875</ele>
        <time>2026-06-16T07:10:04.000Z</time>
        <extensions>
          <ns3:TrackPointExtension>
            <ns3:atemp>16.0</ns3:atemp>
          </ns3:TrackPointExtension>
        </extensions>
      </trkpt>
      <trkpt lat="42.6409896276891231536865234375" lon="19.9134953878819942474365234375">
        <ele>1255.199951171875</ele>
        <time>2026-06-16T07:10:05.000Z</time>
        <extensions>
          <ns3:TrackPointExtension>
            <ns3:atemp>16.0</ns3:atemp>
          </ns3:TrackPointExtension>
        </extensions>
      </trkpt>
      <trkpt lat="42.640957273542881011962890625" lon="19.9135074578225612640380859375">
        <ele>1255.4000244140625</ele>
        <time>2026-06-16T07:10:06.000Z</time>
        <extensions>
          <ns3:TrackPointExtension>
            <ns3:atemp>16.0</ns3:atemp>
          </ns3:TrackPointExtension>
        </extensions>
      </trkpt>
      <trkpt lat="42.6409249193966388702392578125" lon="19.9135222099721431732177734375">
        <ele>1255.5999755859375</ele>
        <time>2026-06-16T07:10:07.000Z</time>
        <extensions>
          <ns3:TrackPointExtension>
            <ns3:atemp>16.0</ns3:atemp>
          </ns3:TrackPointExtension>
        </extensions>
      </trkpt>
      <trkpt lat="42.640893571078777313232421875" lon="19.91353855468332767486572265625">
        <ele>1255.5999755859375</ele>
        <time>2026-06-16T07:10:08.000Z</time>
        <extensions>
          <ns3:TrackPointExtension>
            <ns3:atemp>16.0</ns3:atemp>
          </ns3:TrackPointExtension>
        </extensions>
      </trkpt>
      <trkpt lat="42.640865407884120941162109375" lon="19.91355733014643192291259765625">
        <ele>1255.800048828125</ele>
        <time>2026-06-16T07:10:09.000Z</time>
        <extensions>
          <ns3:TrackPointExtension>
            <ns3:atemp>16.0</ns3:atemp>
          </ns3:TrackPointExtension>
        </extensions>
      </trkpt>
      <trkpt lat="42.64083632268011569976806640625" lon="19.913577698171138763427734375">
        <ele>1256</ele>
        <time>2026-06-16T07:10:10.000Z</time>
        <extensions>
          <ns3:TrackPointExtension>
            <ns3:atemp>16.0</ns3:atemp>
          </ns3:TrackPointExtension>
        </extensions>
      </trkpt>
      <trkpt lat="42.64080413617193698883056640625" lon="19.91359605453908443450927734375">
        <ele>1256</ele>
        <time>2026-06-16T07:10:11.000Z</time>
        <extensions>
          <ns3:TrackPointExtension>
            <ns3:atemp>16.0</ns3:atemp>
          </ns3:TrackPointExtension>
        </extensions>
      </trkpt>
      <trkpt lat="42.64077245257794857025146484375" lon="19.91361164487898349761962890625">
        <ele>1256</ele>
        <time>2026-06-16T07:10:12.000Z</time>
        <extensions>
          <ns3:TrackPointExtension>
            <ns3:atemp>16.0</ns3:atemp>
          </ns3:TrackPointExtension>
        </extensions>
      </trkpt>
      <trkpt lat="42.6407405175268650054931640625" lon="19.91362622939050197601318359375">
        <ele>1256.199951171875</ele>
        <time>2026-06-16T07:10:13.000Z</time>
        <extensions>
          <ns3:TrackPointExtension>
            <ns3:atemp>16.0</ns3:atemp>
          </ns3:TrackPointExtension>
        </extensions>
      </trkpt>
      <trkpt lat="42.64070824719965457916259765625" lon="19.91363645531237125396728515625">
        <ele>1256.199951171875</ele>
        <time>2026-06-16T07:10:14.000Z</time>
        <extensions>
          <ns3:TrackPointExtension>
            <ns3:atemp>16.0</ns3:atemp>
          </ns3:TrackPointExtension>
        </extensions>
      </trkpt>
      <trkpt lat="42.64067723415791988372802734375" lon="19.91364366374909877777099609375">
        <ele>1256.4000244140625</ele>
        <time>2026-06-16T07:10:15.000Z</time>
        <extensions>
          <ns3:TrackPointExtension>
            <ns3:atemp>16.0</ns3:atemp>
          </ns3:TrackPointExtension>
        </extensions>
      </trkpt>
      <trkpt lat="42.640646807849407196044921875" lon="19.9136465974152088165283203125">
        <ele>1256.5999755859375</ele>
        <time>2026-06-16T07:10:16.000Z</time>
        <extensions>
          <ns3:TrackPointExtension>
            <ns3:atemp>16.0</ns3:atemp>
          </ns3:TrackPointExtension>
        </extensions>
      </trkpt>
      <trkpt lat="42.64062241651117801666259765625" lon="19.9136529676616191864013671875">
        <ele>1256.5999755859375</ele>
        <time>2026-06-16T07:10:17.000Z</time>
        <extensions>
          <ns3:TrackPointExtension>
            <ns3:atemp>16.0</ns3:atemp>
          </ns3:TrackPointExtension>
        </extensions>
      </trkpt>
      <trkpt lat="42.64059475623071193695068359375" lon="19.9136569909751415252685546875">
        <ele>1256.800048828125</ele>
        <time>2026-06-16T07:10:18.000Z</time>
        <extensions>
          <ns3:TrackPointExtension>
            <ns3:atemp>16.0</ns3:atemp>
          </ns3:TrackPointExtension>
        </extensions>
      </trkpt>
      <trkpt lat="42.64056609012186527252197265625" lon="19.9136647023260593414306640625">
        <ele>1257</ele>
        <time>2026-06-16T07:10:19.000Z</time>
        <extensions>
          <ns3:TrackPointExtension>
            <ns3:atemp>16.0</ns3:atemp>
          </ns3:TrackPointExtension>
        </extensions>
      </trkpt>
      <trkpt lat="42.640538848936557769775390625" lon="19.913672246038913726806640625">
        <ele>1257.199951171875</ele>
        <time>2026-06-16T07:10:20.000Z</time>
        <extensions>
          <ns3:TrackPointExtension>
            <ns3:atemp>16.0</ns3:atemp>
          </ns3:TrackPointExtension>
        </extensions>
      </trkpt>
      <trkpt lat="42.6405115239322185516357421875" lon="19.9136814661324024200439453125">
        <ele>1257.199951171875</ele>
        <time>2026-06-16T07:10:21.000Z</time>
        <extensions>
          <ns3:TrackPointExtension>
            <ns3:atemp>16.0</ns3:atemp>
          </ns3:TrackPointExtension>
        </extensions>
      </trkpt>
      <trkpt lat="42.64048394747078418731689453125" lon="19.9136962182819843292236328125">
        <ele>1257.4000244140625</ele>
        <time>2026-06-16T07:10:22.000Z</time>
        <extensions>
          <ns3:TrackPointExtension>
            <ns3:atemp>16.0</ns3:atemp>
          </ns3:TrackPointExtension>
        </extensions>
      </trkpt>
      <trkpt lat="42.640457041561603546142578125" lon="19.913714826107025146484375">
        <ele>1257.4000244140625</ele>
        <time>2026-06-16T07:10:23.000Z</time>
        <extensions>
          <ns3:TrackPointExtension>
            <ns3:atemp>16.0</ns3:atemp>
          </ns3:TrackPointExtension>
        </extensions>
      </trkpt>
      <trkpt lat="42.6404310576617717742919921875" lon="19.91373301483690738677978515625">
        <ele>1257.5999755859375</ele>
        <time>2026-06-16T07:10:24.000Z</time>
        <extensions>
          <ns3:TrackPointExtension>
            <ns3:atemp>16.0</ns3:atemp>
          </ns3:TrackPointExtension>
        </extensions>
      </trkpt>
      <trkpt lat="42.640406750142574310302734375" lon="19.913753382861614227294921875">
        <ele>1257.800048828125</ele>
        <time>2026-06-16T07:10:25.000Z</time>
        <extensions>
          <ns3:TrackPointExtension>
            <ns3:atemp>16.0</ns3:atemp>
          </ns3:TrackPointExtension>
        </extensions>
      </trkpt>
      <trkpt lat="42.64038554392755031585693359375" lon="19.91377945058047771453857421875">
        <ele>1257.800048828125</ele>
        <time>2026-06-16T07:10:26.000Z</time>
        <extensions>
          <ns3:TrackPointExtension>
            <ns3:atemp>16.0</ns3:atemp>
          </ns3:TrackPointExtension>
        </extensions>
      </trkpt>
      <trkpt lat="42.6403576321899890899658203125" lon="19.9138065241277217864990234375">
        <ele>1258</ele>
        <time>2026-06-16T07:10:27.000Z</time>
        <extensions>
          <ns3:TrackPointExtension>
            <ns3:atemp>16.0</ns3:atemp>
          </ns3:TrackPointExtension>
        </extensions>
      </trkpt>
      <trkpt lat="42.64032904990017414093017578125" lon="19.9138293229043483734130859375">
        <ele>1258</ele>
        <time>2026-06-16T07:10:28.000Z</time>
        <extensions>
          <ns3:TrackPointExtension>
            <ns3:atemp>16.0</ns3:atemp>
          </ns3:TrackPointExtension>
        </extensions>
      </trkpt>
      <trkpt lat="42.6402992941439151763916015625" lon="19.9138541333377361297607421875">
        <ele>1258</ele>
        <time>2026-06-16T07:10:29.000Z</time>
        <extensions>
          <ns3:TrackPointExtension>
            <ns3:atemp>16.0</ns3:atemp>
          </ns3:TrackPointExtension>
        </extensions>
      </trkpt>
      <trkpt lat="42.640271969139575958251953125" lon="19.91387215442955493927001953125">
        <ele>1258.199951171875</ele>
        <time>2026-06-16T07:10:30.000Z</time>
        <extensions>
          <ns3:TrackPointExtension>
            <ns3:atemp>16.0</ns3:atemp>
          </ns3:TrackPointExtension>
        </extensions>
      </trkpt>
      <trkpt lat="42.64024280011653900146484375" lon="19.91389009170234203338623046875">
        <ele>1258.199951171875</ele>
        <time>2026-06-16T07:10:31.000Z</time>
        <extensions>
          <ns3:TrackPointExtension>
            <ns3:atemp>16.0</ns3:atemp>
          </ns3:TrackPointExtension>
        </extensions>
      </trkpt>
      <trkpt lat="42.64021220616996288299560546875" lon="19.91390216164290904998779296875">
        <ele>1258.4000244140625</ele>
        <time>2026-06-16T07:10:32.000Z</time>
        <extensions>
          <ns3:TrackPointExtension>
            <ns3:atemp>16.0</ns3:atemp>
          </ns3:TrackPointExtension>
        </extensions>
      </trkpt>
      <trkpt lat="42.64018404297530651092529296875" lon="19.91392470896244049072265625">
        <ele>1258.4000244140625</ele>
        <time>2026-06-16T07:10:33.000Z</time>
        <extensions>
          <ns3:TrackPointExtension>
            <ns3:atemp>16.0</ns3:atemp>
          </ns3:TrackPointExtension>
        </extensions>
      </trkpt>
      <trkpt lat="42.64015705324709415435791015625" lon="19.9139453284442424774169921875">
        <ele>1258.5999755859375</ele>
        <time>2026-06-16T07:10:34.000Z</time>
        <extensions>
          <ns3:TrackPointExtension>
            <ns3:atemp>16.0</ns3:atemp>
          </ns3:TrackPointExtension>
        </extensions>
      </trkpt>
      <trkpt lat="42.64012813568115234375" lon="19.913964606821537017822265625">
        <ele>1258.5999755859375</ele>
        <time>2026-06-16T07:10:35.000Z</time>
        <extensions>
          <ns3:TrackPointExtension>
            <ns3:atemp>16.0</ns3:atemp>
          </ns3:TrackPointExtension>
        </extensions>
      </trkpt>
      <trkpt lat="42.64010072685778141021728515625" lon="19.9139822088181972503662109375">
        <ele>1258.800048828125</ele>
        <time>2026-06-16T07:10:36.000Z</time>
        <extensions>
          <ns3:TrackPointExtension>
            <ns3:atemp>16.0</ns3:atemp>
          </ns3:TrackPointExtension>
        </extensions>
      </trkpt>
      <trkpt lat="42.640072144567966461181640625" lon="19.9139969609677791595458984375">
        <ele>1258.800048828125</ele>
        <time>2026-06-16T07:10:37.000Z</time>
        <extensions>
          <ns3:TrackPointExtension>
            <ns3:atemp>16.0</ns3:atemp>
          </ns3:TrackPointExtension>
        </extensions>
      </trkpt>
      <trkpt lat="42.64004456810653209686279296875" lon="19.9140143953263759613037109375">
        <ele>1259</ele>
        <time>2026-06-16T07:10:38.000Z</time>
        <extensions>
          <ns3:TrackPointExtension>
            <ns3:atemp>16.0</ns3:atemp>
          </ns3:TrackPointExtension>
        </extensions>
      </trkpt>
      <trkpt lat="42.64001891948282718658447265625" lon="19.91402638144791126251220703125">
        <ele>1259</ele>
        <time>2026-06-16T07:10:39.000Z</time>
        <extensions>
          <ns3:TrackPointExtension>
            <ns3:atemp>16.0</ns3:atemp>
          </ns3:TrackPointExtension>
        </extensions>
      </trkpt>
      <trkpt lat="42.63999226503074169158935546875" lon="19.91405102424323558807373046875">
        <ele>1259.199951171875</ele>
        <time>2026-06-16T07:10:40.000Z</time>
        <extensions>
          <ns3:TrackPointExtension>
            <ns3:atemp>16.0</ns3:atemp>
          </ns3:TrackPointExtension>
        </extensions>
      </trkpt>
      <trkpt lat="42.6399631798267364501953125" lon="19.91407030262053012847900390625">
        <ele>1259.199951171875</ele>
        <time>2026-06-16T07:10:41.000Z</time>
        <extensions>
          <ns3:TrackPointExtension>
            <ns3:atemp>16.0</ns3:atemp>
          </ns3:TrackPointExtension>
        </extensions>
      </trkpt>
      <trkpt lat="42.639935016632080078125" lon="19.91408606059849262237548828125">
        <ele>1259.4000244140625</ele>
        <time>2026-06-16T07:10:42.000Z</time>
        <extensions>
          <ns3:TrackPointExtension>
            <ns3:atemp>16.0</ns3:atemp>
          </ns3:TrackPointExtension>
        </extensions>
      </trkpt>
      <trkpt lat="42.6399073563516139984130859375" lon="19.91410441696643829345703125">
        <ele>1259.5999755859375</ele>
        <time>2026-06-16T07:10:43.000Z</time>
        <extensions>
          <ns3:TrackPointExtension>
            <ns3:atemp>16.0</ns3:atemp>
          </ns3:TrackPointExtension>
        </extensions>
      </trkpt>
      <trkpt lat="42.63988313265144824981689453125" lon="19.91411908529698848724365234375">
        <ele>1259.800048828125</ele>
        <time>2026-06-16T07:10:44.000Z</time>
        <extensions>
          <ns3:TrackPointExtension>
            <ns3:atemp>16.0</ns3:atemp>
          </ns3:TrackPointExtension>
        </extensions>
      </trkpt>
      <trkpt lat="42.6398557238280773162841796875" lon="19.91413249634206295013427734375">
        <ele>1260</ele>
        <time>2026-06-16T07:10:45.000Z</time>
        <extensions>
          <ns3:TrackPointExtension>
            <ns3:atemp>16.0</ns3:atemp>
          </ns3:TrackPointExtension>
        </extensions>
      </trkpt>
      <trkpt lat="42.63982613570988178253173828125" lon="19.914142973721027374267578125">
        <ele>1260.199951171875</ele>
        <time>2026-06-16T07:10:46.000Z</time>
        <extensions>
          <ns3:TrackPointExtension>
            <ns3:atemp>16.0</ns3:atemp>
          </ns3:TrackPointExtension>
        </extensions>
      </trkpt>
      <trkpt lat="42.6398000679910182952880859375" lon="19.91415848024189472198486328125">
        <ele>1260.4000244140625</ele>
        <time>2026-06-16T07:10:47.000Z</time>
        <extensions>
          <ns3:TrackPointExtension>
            <ns3:atemp>16.0</ns3:atemp>
          </ns3:TrackPointExtension>
        </extensions>
      </trkpt>
      <trkpt lat="42.63976763002574443817138671875" lon="19.91417524404823780059814453125">
        <ele>1260.5999755859375</ele>
        <time>2026-06-16T07:10:48.000Z</time>
        <extensions>
          <ns3:TrackPointExtension>
            <ns3:atemp>16.0</ns3:atemp>
          </ns3:TrackPointExtension>
        </extensions>
      </trkpt>
      <trkpt lat="42.63973812572658061981201171875" lon="19.91418622434139251708984375">
        <ele>1260.800048828125</ele>
        <time>2026-06-16T07:10:49.000Z</time>
        <extensions>
          <ns3:TrackPointExtension>
            <ns3:atemp>16.0</ns3:atemp>
          </ns3:TrackPointExtension>
        </extensions>
      </trkpt>
      <trkpt lat="42.63971046544611454010009765625" lon="19.9141987971961498260498046875">
        <ele>1261</ele>
        <time>2026-06-16T07:10:50.000Z</time>
        <extensions>
          <ns3:TrackPointExtension>
            <ns3:atemp>16.0</ns3:atemp>
          </ns3:TrackPointExtension>
        </extensions>
      </trkpt>
      <trkpt lat="42.6396890915930271148681640625" lon="19.9142118729650974273681640625">
        <ele>1261.199951171875</ele>
        <time>2026-06-16T07:10:51.000Z</time>
        <extensions>
          <ns3:TrackPointExtension>
            <ns3:atemp>16.0</ns3:atemp>
          </ns3:TrackPointExtension>
        </extensions>
      </trkpt>
      <trkpt lat="42.63966076076030731201171875" lon="19.91422603838145732879638671875">
        <ele>1261.4000244140625</ele>
        <time>2026-06-16T07:10:52.000Z</time>
        <extensions>
          <ns3:TrackPointExtension>
            <ns3:atemp>16.0</ns3:atemp>
          </ns3:TrackPointExtension>
        </extensions>
      </trkpt>
      <trkpt lat="42.639631927013397216796875" lon="19.91424196399748325347900390625">
        <ele>1261.5999755859375</ele>
        <time>2026-06-16T07:10:53.000Z</time>
        <extensions>
          <ns3:TrackPointExtension>
            <ns3:atemp>16.0</ns3:atemp>
          </ns3:TrackPointExtension>
        </extensions>
      </trkpt>
      <trkpt lat="42.63960200361907482147216796875" lon="19.91425386629998683929443359375">
        <ele>1261.800048828125</ele>
        <time>2026-06-16T07:10:54.000Z</time>
        <extensions>
          <ns3:TrackPointExtension>
            <ns3:atemp>16.0</ns3:atemp>
          </ns3:TrackPointExtension>
        </extensions>
      </trkpt>
      <trkpt lat="42.63957115821540355682373046875" lon="19.9142660200595855712890625">
        <ele>1262</ele>
        <time>2026-06-16T07:10:55.000Z</time>
        <extensions>
          <ns3:TrackPointExtension>
            <ns3:atemp>16.0</ns3:atemp>
          </ns3:TrackPointExtension>
        </extensions>
      </trkpt>
      <trkpt lat="42.63954274356365203857421875" lon="19.914284460246562957763671875">
        <ele>1262.199951171875</ele>
        <time>2026-06-16T07:10:56.000Z</time>
        <extensions>
          <ns3:TrackPointExtension>
            <ns3:atemp>16.0</ns3:atemp>
          </ns3:TrackPointExtension>
        </extensions>
      </trkpt>
      <trkpt lat="42.6395165920257568359375" lon="19.9142990447580814361572265625">
        <ele>1262.4000244140625</ele>
        <time>2026-06-16T07:10:57.000Z</time>
        <extensions>
          <ns3:TrackPointExtension>
            <ns3:atemp>16.0</ns3:atemp>
          </ns3:TrackPointExtension>
        </extensions>
      </trkpt>
      <trkpt lat="42.6394862495362758636474609375" lon="19.91430868394672870635986328125">
        <ele>1262.5999755859375</ele>
        <time>2026-06-16T07:10:58.000Z</time>
        <extensions>
          <ns3:TrackPointExtension>
            <ns3:atemp>16.0</ns3:atemp>
          </ns3:TrackPointExtension>
        </extensions>
      </trkpt>
      <trkpt lat="42.6394587568938732147216796875" lon="19.91431438364088535308837890625">
        <ele>1262.800048828125</ele>
        <time>2026-06-16T07:10:59.000Z</time>
        <extensions>
          <ns3:TrackPointExtension>
            <ns3:atemp>16.0</ns3:atemp>
          </ns3:TrackPointExtension>
        </extensions>
      </trkpt>
      <trkpt lat="42.6394347846508026123046875" lon="19.91432310082018375396728515625">
        <ele>1263</ele>
        <time>2026-06-16T07:11:00.000Z</time>
        <extensions>
          <ns3:TrackPointExtension>
            <ns3:atemp>16.0</ns3:atemp>
          </ns3:TrackPointExtension>
        </extensions>
      </trkpt>
      <trkpt lat="42.63941106386482715606689453125" lon="19.9143330752849578857421875">
        <ele>1263.199951171875</ele>
        <time>2026-06-16T07:11:01.000Z</time>
        <extensions>
          <ns3:TrackPointExtension>
            <ns3:atemp>16.0</ns3:atemp>
          </ns3:TrackPointExtension>
        </extensions>
      </trkpt>
      <trkpt lat="42.6393891870975494384765625" lon="19.914343468844890594482421875">
        <ele>1263.4000244140625</ele>
        <time>2026-06-16T07:11:02.000Z</time>
        <extensions>
          <ns3:TrackPointExtension>
            <ns3:atemp>16.0</ns3:atemp>
          </ns3:TrackPointExtension>
        </extensions>
      </trkpt>
      <trkpt lat="42.63936446048319339752197265625" lon="19.9143505096435546875">
        <ele>1263.5999755859375</ele>
        <time>2026-06-16T07:11:03.000Z</time>
        <extensions>
          <ns3:TrackPointExtension>
            <ns3:atemp>16.0</ns3:atemp>
          </ns3:TrackPointExtension>
        </extensions>
      </trkpt>
      <trkpt lat="42.639340572059154510498046875" lon="19.91435461677610874176025390625">
        <ele>1263.800048828125</ele>
        <time>2026-06-16T07:11:04.000Z</time>
        <extensions>
          <ns3:TrackPointExtension>
            <ns3:atemp>16.0</ns3:atemp>
          </ns3:TrackPointExtension>
        </extensions>
      </trkpt>
      <trkpt lat="42.63931836001574993133544921875" lon="19.91435763426125049591064453125">
        <ele>1264</ele>
        <time>2026-06-16T07:11:05.000Z</time>
        <extensions>
          <ns3:TrackPointExtension>
            <ns3:atemp>16.0</ns3:atemp>
          </ns3:TrackPointExtension>
        </extensions>
      </trkpt>
      <trkpt lat="42.6392897777259349822998046875" lon="19.91435922682285308837890625">
        <ele>1264.199951171875</ele>
        <time>2026-06-16T07:11:06.000Z</time>
        <extensions>
          <ns3:TrackPointExtension>
            <ns3:atemp>16.0</ns3:atemp>
          </ns3:TrackPointExtension>
        </extensions>
      </trkpt>
      <trkpt lat="42.63926270417869091033935546875" lon="19.91436660289764404296875">
        <ele>1264.5999755859375</ele>
        <time>2026-06-16T07:11:07.000Z</time>
        <extensions>
          <ns3:TrackPointExtension>
            <ns3:atemp>16.0</ns3:atemp>
          </ns3:TrackPointExtension>
        </extensions>
      </trkpt>
      <trkpt lat="42.639235295355319976806640625" lon="19.9143724702298641204833984375">
        <ele>1264.800048828125</ele>
        <time>2026-06-16T07:11:08.000Z</time>
        <extensions>
          <ns3:TrackPointExtension>
            <ns3:atemp>16.0</ns3:atemp>
          </ns3:TrackPointExtension>
        </extensions>
      </trkpt>
      <trkpt lat="42.639208473265171051025390625" lon="19.9143759906291961669921875">
        <ele>1264.800048828125</ele>
        <time>2026-06-16T07:11:09.000Z</time>
        <extensions>
          <ns3:TrackPointExtension>
            <ns3:atemp>16.0</ns3:atemp>
          </ns3:TrackPointExtension>
        </extensions>
      </trkpt>
      <trkpt lat="42.63917754404246807098388671875" lon="19.91438143886625766754150390625">
        <ele>1265</ele>
        <time>2026-06-16T07:11:10.000Z</time>
        <extensions>
          <ns3:TrackPointExtension>
            <ns3:atemp>16.0</ns3:atemp>
          </ns3:TrackPointExtension>
        </extensions>
      </trkpt>
      <trkpt lat="42.63914711773395538330078125" lon="19.914391748607158660888671875">
        <ele>1265.199951171875</ele>
        <time>2026-06-16T07:11:11.000Z</time>
        <extensions>
          <ns3:TrackPointExtension>
            <ns3:atemp>16.0</ns3:atemp>
          </ns3:TrackPointExtension>
        </extensions>
      </trkpt>
      <trkpt lat="42.639113925397396087646484375" lon="19.91440289653837680816650390625">
        <ele>1265.4000244140625</ele>
        <time>2026-06-16T07:11:12.000Z</time>
        <extensions>
          <ns3:TrackPointExtension>
            <ns3:atemp>16.0</ns3:atemp>
          </ns3:TrackPointExtension>
        </extensions>
      </trkpt>
      <trkpt lat="42.63908282853662967681884765625" lon="19.91441421210765838623046875">
        <ele>1265.5999755859375</ele>
        <time>2026-06-16T07:11:13.000Z</time>
        <extensions>
          <ns3:TrackPointExtension>
            <ns3:atemp>16.0</ns3:atemp>
          </ns3:TrackPointExtension>
        </extensions>
      </trkpt>
      <trkpt lat="42.63905433006584644317626953125" lon="19.9144271202385425567626953125">
        <ele>1265.5999755859375</ele>
        <time>2026-06-16T07:11:14.000Z</time>
        <extensions>
          <ns3:TrackPointExtension>
            <ns3:atemp>16.0</ns3:atemp>
          </ns3:TrackPointExtension>
        </extensions>
      </trkpt>
      <trkpt lat="42.6390218921005725860595703125" lon="19.914446063339710235595703125">
        <ele>1265.800048828125</ele>
        <time>2026-06-16T07:11:15.000Z</time>
        <extensions>
          <ns3:TrackPointExtension>
            <ns3:atemp>16.0</ns3:atemp>
          </ns3:TrackPointExtension>
        </extensions>
      </trkpt>
      <trkpt lat="42.63899381272494792938232421875" lon="19.91446341387927532196044921875">
        <ele>1266</ele>
        <time>2026-06-16T07:11:16.000Z</time>
        <extensions>
          <ns3:TrackPointExtension>
            <ns3:atemp>16.0</ns3:atemp>
          </ns3:TrackPointExtension>
        </extensions>
      </trkpt>
      <trkpt lat="42.63896531425416469573974609375" lon="19.9144784174859523773193359375">
        <ele>1266.199951171875</ele>
        <time>2026-06-16T07:11:17.000Z</time>
        <extensions>
          <ns3:TrackPointExtension>
            <ns3:atemp>16.0</ns3:atemp>
          </ns3:TrackPointExtension>
        </extensions>
      </trkpt>
      <trkpt lat="42.63893614523112773895263671875" lon="19.91449467837810516357421875">
        <ele>1266.4000244140625</ele>
        <time>2026-06-16T07:11:18.000Z</time>
        <extensions>
          <ns3:TrackPointExtension>
            <ns3:atemp>16.0</ns3:atemp>
          </ns3:TrackPointExtension>
        </extensions>
      </trkpt>
      <trkpt lat="42.6389090716838836669921875" lon="19.91451320238411426544189453125">
        <ele>1266.5999755859375</ele>
        <time>2026-06-16T07:11:19.000Z</time>
        <extensions>
          <ns3:TrackPointExtension>
            <ns3:atemp>16.0</ns3:atemp>
          </ns3:TrackPointExtension>
        </extensions>
      </trkpt>
      <trkpt lat="42.6388840936124324798583984375" lon="19.9145310558378696441650390625">
        <ele>1266.800048828125</ele>
        <time>2026-06-16T07:11:20.000Z</time>
        <extensions>
          <ns3:TrackPointExtension>
            <ns3:atemp>16.0</ns3:atemp>
          </ns3:TrackPointExtension>
        </extensions>
      </trkpt>
      <trkpt lat="42.63885802589356899261474609375" lon="19.9145562015473842620849609375">
        <ele>1267</ele>
        <time>2026-06-16T07:11:21.000Z</time>
        <extensions>
          <ns3:TrackPointExtension>
            <ns3:atemp>16.0</ns3:atemp>
          </ns3:TrackPointExtension>
        </extensions>
      </trkpt>
      <trkpt lat="42.6388344727456569671630859375" lon="19.914579503238201141357421875">
        <ele>1267.4000244140625</ele>
        <time>2026-06-16T07:11:22.000Z</time>
        <extensions>
          <ns3:TrackPointExtension>
            <ns3:atemp>16.0</ns3:atemp>
          </ns3:TrackPointExtension>
        </extensions>
      </trkpt>
      <trkpt lat="42.6388113386929035186767578125" lon="19.91460733115673065185546875">
        <ele>1267.5999755859375</ele>
        <time>2026-06-16T07:11:23.000Z</time>
        <extensions>
          <ns3:TrackPointExtension>
            <ns3:atemp>16.0</ns3:atemp>
          </ns3:TrackPointExtension>
        </extensions>
      </trkpt>
      <trkpt lat="42.6387912221252918243408203125" lon="19.91463406942784786224365234375">
        <ele>1267.800048828125</ele>
        <time>2026-06-16T07:11:24.000Z</time>
        <extensions>
          <ns3:TrackPointExtension>
            <ns3:atemp>16.0</ns3:atemp>
          </ns3:TrackPointExtension>
        </extensions>
      </trkpt>
      <trkpt lat="42.63876465149223804473876953125" lon="19.91465636529028415679931640625">
        <ele>1268</ele>
        <time>2026-06-16T07:11:25.000Z</time>
        <extensions>
          <ns3:TrackPointExtension>
            <ns3:atemp>16.0</ns3:atemp>
          </ns3:TrackPointExtension>
        </extensions>
      </trkpt>
      <trkpt lat="42.6387395896017551422119140625" lon="19.9146815948188304901123046875">
        <ele>1268.199951171875</ele>
        <time>2026-06-16T07:11:26.000Z</time>
        <extensions>
          <ns3:TrackPointExtension>
            <ns3:atemp>16.0</ns3:atemp>
          </ns3:TrackPointExtension>
        </extensions>
      </trkpt>
      <trkpt lat="42.63871729373931884765625" lon="19.914703555405139923095703125">
        <ele>1268.199951171875</ele>
        <time>2026-06-16T07:11:27.000Z</time>
        <extensions>
          <ns3:TrackPointExtension>
            <ns3:atemp>16.0</ns3:atemp>
          </ns3:TrackPointExtension>
        </extensions>
      </trkpt>
      <trkpt lat="42.6386906392872333526611328125" lon="19.91472375579178333282470703125">
        <ele>1268.4000244140625</ele>
        <time>2026-06-16T07:11:28.000Z</time>
        <extensions>
          <ns3:TrackPointExtension>
            <ns3:atemp>16.0</ns3:atemp>
          </ns3:TrackPointExtension>
        </extensions>
      </trkpt>
      <trkpt lat="42.638663314282894134521484375" lon="19.91474487818777561187744140625">
        <ele>1268.5999755859375</ele>
        <time>2026-06-16T07:11:29.000Z</time>
        <extensions>
          <ns3:TrackPointExtension>
            <ns3:atemp>16.0</ns3:atemp>
          </ns3:TrackPointExtension>
        </extensions>
      </trkpt>
      <trkpt lat="42.63863590545952320098876953125" lon="19.91475862450897693634033203125">
        <ele>1268.800048828125</ele>
        <time>2026-06-16T07:11:30.000Z</time>
        <extensions>
          <ns3:TrackPointExtension>
            <ns3:atemp>16.0</ns3:atemp>
          </ns3:TrackPointExtension>
        </extensions>
      </trkpt>
      <trkpt lat="42.6386088319122791290283203125" lon="19.91477287374436855316162109375">
        <ele>1268.800048828125</ele>
        <time>2026-06-16T07:11:31.000Z</time>
        <extensions>
          <ns3:TrackPointExtension>
            <ns3:atemp>16.0</ns3:atemp>
          </ns3:TrackPointExtension>
        </extensions>
      </trkpt>
      <trkpt lat="42.63858251273632049560546875" lon="19.91478829644620418548583984375">
        <ele>1269</ele>
        <time>2026-06-16T07:11:32.000Z</time>
        <extensions>
          <ns3:TrackPointExtension>
            <ns3:atemp>16.0</ns3:atemp>
          </ns3:TrackPointExtension>
        </extensions>
      </trkpt>
      <trkpt lat="42.638559378683567047119140625" lon="19.91480070166289806365966796875">
        <ele>1269.199951171875</ele>
        <time>2026-06-16T07:11:33.000Z</time>
        <extensions>
          <ns3:TrackPointExtension>
            <ns3:atemp>15.0</ns3:atemp>
          </ns3:TrackPointExtension>
        </extensions>
      </trkpt>
      <trkpt lat="42.6385327242314815521240234375" lon="19.91480791009962558746337890625">
        <ele>1269.4000244140625</ele>
        <time>2026-06-16T07:11:34.000Z</time>
        <extensions>
          <ns3:TrackPointExtension>
            <ns3:atemp>15.0</ns3:atemp>
          </ns3:TrackPointExtension>
        </extensions>
      </trkpt>
      <trkpt lat="42.63850741088390350341796875" lon="19.91482257843017578125">
        <ele>1269.5999755859375</ele>
        <time>2026-06-16T07:11:35.000Z</time>
        <extensions>
          <ns3:TrackPointExtension>
            <ns3:atemp>15.0</ns3:atemp>
          </ns3:TrackPointExtension>
        </extensions>
      </trkpt>
      <trkpt lat="42.63848192989826202392578125" lon="19.91483204998075962066650390625">
        <ele>1269.800048828125</ele>
        <time>2026-06-16T07:11:36.000Z</time>
        <extensions>
          <ns3:TrackPointExtension>
            <ns3:atemp>16.0</ns3:atemp>
          </ns3:TrackPointExtension>
        </extensions>
      </trkpt>
      <trkpt lat="42.638452090322971343994140625" lon="19.91484361700713634490966796875">
        <ele>1270</ele>
        <time>2026-06-16T07:11:37.000Z</time>
        <extensions>
          <ns3:TrackPointExtension>
            <ns3:atemp>16.0</ns3:atemp>
          </ns3:TrackPointExtension>
        </extensions>
      </trkpt>
      <trkpt lat="42.6384234242141246795654296875" lon="19.91485836915671825408935546875">
        <ele>1270.199951171875</ele>
        <time>2026-06-16T07:11:38.000Z</time>
        <extensions>
          <ns3:TrackPointExtension>
            <ns3:atemp>16.0</ns3:atemp>
          </ns3:TrackPointExtension>
        </extensions>
      </trkpt>
      <trkpt lat="42.6383969374001026153564453125" lon="19.91487228311598300933837890625">
        <ele>1270.4000244140625</ele>
        <time>2026-06-16T07:11:39.000Z</time>
        <extensions>
          <ns3:TrackPointExtension>
            <ns3:atemp>16.0</ns3:atemp>
          </ns3:TrackPointExtension>
        </extensions>
      </trkpt>
      <trkpt lat="42.63837439008057117462158203125" lon="19.9148898012936115264892578125">
        <ele>1270.800048828125</ele>
        <time>2026-06-16T07:11:40.000Z</time>
        <extensions>
          <ns3:TrackPointExtension>
            <ns3:atemp>16.0</ns3:atemp>
          </ns3:TrackPointExtension>
        </extensions>
      </trkpt>
      <trkpt lat="42.63835058547556400299072265625" lon="19.9149015359580516815185546875">
        <ele>1271</ele>
        <time>2026-06-16T07:11:41.000Z</time>
        <extensions>
          <ns3:TrackPointExtension>
            <ns3:atemp>16.0</ns3:atemp>
          </ns3:TrackPointExtension>
        </extensions>
      </trkpt>
      <trkpt lat="42.638324014842510223388671875" lon="19.9149162881076335906982421875">
        <ele>1271.199951171875</ele>
        <time>2026-06-16T07:11:42.000Z</time>
        <extensions>
          <ns3:TrackPointExtension>
            <ns3:atemp>16.0</ns3:atemp>
          </ns3:TrackPointExtension>
        </extensions>
      </trkpt>
      <trkpt lat="42.63829912059009075164794921875" lon="19.91492911241948604583740234375">
        <ele>1271.4000244140625</ele>
        <time>2026-06-16T07:11:43.000Z</time>
        <extensions>
          <ns3:TrackPointExtension>
            <ns3:atemp>16.0</ns3:atemp>
          </ns3:TrackPointExtension>
        </extensions>
      </trkpt>
      <trkpt lat="42.6382735557854175567626953125" lon="19.914940930902957916259765625">
        <ele>1271.5999755859375</ele>
        <time>2026-06-16T07:11:44.000Z</time>
        <extensions>
          <ns3:TrackPointExtension>
            <ns3:atemp>16.0</ns3:atemp>
          </ns3:TrackPointExtension>
        </extensions>
      </trkpt>
      <trkpt lat="42.63824916444718837738037109375" lon="19.91495090536773204803466796875">
        <ele>1271.800048828125</ele>
        <time>2026-06-16T07:11:45.000Z</time>
        <extensions>
          <ns3:TrackPointExtension>
            <ns3:atemp>16.0</ns3:atemp>
          </ns3:TrackPointExtension>
        </extensions>
      </trkpt>
      <trkpt lat="42.638224102556705474853515625" lon="19.91496465168893337249755859375">
        <ele>1272</ele>
        <time>2026-06-16T07:11:46.000Z</time>
        <extensions>
          <ns3:TrackPointExtension>
            <ns3:atemp>16.0</ns3:atemp>
          </ns3:TrackPointExtension>
        </extensions>
      </trkpt>
      <trkpt lat="42.63819736428558826446533203125" lon="19.914975464344024658203125">
        <ele>1272.199951171875</ele>
        <time>2026-06-16T07:11:47.000Z</time>
        <extensions>
          <ns3:TrackPointExtension>
            <ns3:atemp>16.0</ns3:atemp>
          </ns3:TrackPointExtension>
        </extensions>
      </trkpt>
      <trkpt lat="42.63817624188959598541259765625" lon="19.91498694755136966705322265625">
        <ele>1272.4000244140625</ele>
        <time>2026-06-16T07:11:48.000Z</time>
        <extensions>
          <ns3:TrackPointExtension>
            <ns3:atemp>16.0</ns3:atemp>
          </ns3:TrackPointExtension>
        </extensions>
      </trkpt>
      <trkpt lat="42.63815243728458881378173828125" lon="19.91500019095838069915771484375">
        <ele>1272.800048828125</ele>
        <time>2026-06-16T07:11:49.000Z</time>
        <extensions>
          <ns3:TrackPointExtension>
            <ns3:atemp>16.0</ns3:atemp>
          </ns3:TrackPointExtension>
        </extensions>
      </trkpt>
      <trkpt lat="42.63812762685120105743408203125" lon="19.91501527838408946990966796875">
        <ele>1273</ele>
        <time>2026-06-16T07:11:50.000Z</time>
        <extensions>
          <ns3:TrackPointExtension>
            <ns3:atemp>16.0</ns3:atemp>
          </ns3:TrackPointExtension>
        </extensions>
      </trkpt>
      <trkpt lat="42.63810398988425731658935546875" lon="19.91502634249627590179443359375">
        <ele>1273.4000244140625</ele>
        <time>2026-06-16T07:11:51.000Z</time>
        <extensions>
          <ns3:TrackPointExtension>
            <ns3:atemp>15.0</ns3:atemp>
          </ns3:TrackPointExtension>
        </extensions>
      </trkpt>
      <trkpt lat="42.6380770839750766754150390625" lon="19.9150438606739044189453125">
        <ele>1273.5999755859375</ele>
        <time>2026-06-16T07:11:52.000Z</time>
        <extensions>
          <ns3:TrackPointExtension>
            <ns3:atemp>15.0</ns3:atemp>
          </ns3:TrackPointExtension>
        </extensions>
      </trkpt>
      <trkpt lat="42.63805218972265720367431640625" lon="19.91506389342248439788818359375">
        <ele>1273.800048828125</ele>
        <time>2026-06-16T07:11:53.000Z</time>
        <extensions>
          <ns3:TrackPointExtension>
            <ns3:atemp>15.0</ns3:atemp>
          </ns3:TrackPointExtension>
        </extensions>
      </trkpt>
      <trkpt lat="42.638026960194110870361328125" lon="19.91508400999009609222412109375">
        <ele>1274</ele>
        <time>2026-06-16T07:11:54.000Z</time>
        <extensions>
          <ns3:TrackPointExtension>
            <ns3:atemp>15.0</ns3:atemp>
          </ns3:TrackPointExtension>
        </extensions>
      </trkpt>
      <trkpt lat="42.638002149760723114013671875" lon="19.91510353982448577880859375">
        <ele>1274.199951171875</ele>
        <time>2026-06-16T07:11:55.000Z</time>
        <extensions>
          <ns3:TrackPointExtension>
            <ns3:atemp>15.0</ns3:atemp>
          </ns3:TrackPointExtension>
        </extensions>
      </trkpt>
      <trkpt lat="42.637979686260223388671875" lon="19.9151204712688922882080078125">
        <ele>1274.4000244140625</ele>
        <time>2026-06-16T07:11:56.000Z</time>
        <extensions>
          <ns3:TrackPointExtension>
            <ns3:atemp>15.0</ns3:atemp>
          </ns3:TrackPointExtension>
        </extensions>
      </trkpt>
      <trkpt lat="42.63795177452266216278076171875" lon="19.91513840854167938232421875">
        <ele>1274.4000244140625</ele>
        <time>2026-06-16T07:11:57.000Z</time>
        <extensions>
          <ns3:TrackPointExtension>
            <ns3:atemp>15.0</ns3:atemp>
          </ns3:TrackPointExtension>
        </extensions>
      </trkpt>
      <trkpt lat="42.63792411424219608306884765625" lon="19.9151476286351680755615234375">
        <ele>1274.5999755859375</ele>
        <time>2026-06-16T07:11:58.000Z</time>
        <extensions>
          <ns3:TrackPointExtension>
            <ns3:atemp>15.0</ns3:atemp>
          </ns3:TrackPointExtension>
        </extensions>
      </trkpt>
      <trkpt lat="42.63789813034236431121826171875" lon="19.9151550047099590301513671875">
        <ele>1274.800048828125</ele>
        <time>2026-06-16T07:11:59.000Z</time>
        <extensions>
          <ns3:TrackPointExtension>
            <ns3:atemp>15.0</ns3:atemp>
          </ns3:TrackPointExtension>
        </extensions>
      </trkpt>
      <trkpt lat="42.63786795549094676971435546875" lon="19.91516254842281341552734375">
        <ele>1275</ele>
        <time>2026-06-16T07:12:00.000Z</time>
        <extensions>
          <ns3:TrackPointExtension>
            <ns3:atemp>15.0</ns3:atemp>
          </ns3:TrackPointExtension>
        </extensions>
      </trkpt>
      <trkpt lat="42.6378410495817661285400390625" lon="19.91516766138374805450439453125">
        <ele>1275.199951171875</ele>
        <time>2026-06-16T07:12:01.000Z</time>
        <extensions>
          <ns3:TrackPointExtension>
            <ns3:atemp>15.0</ns3:atemp>
          </ns3:TrackPointExtension>
        </extensions>
      </trkpt>
      <trkpt lat="42.63781271874904632568359375" lon="19.9151714332401752471923828125">
        <ele>1275.4000244140625</ele>
        <time>2026-06-16T07:12:02.000Z</time>
        <extensions>
          <ns3:TrackPointExtension>
            <ns3:atemp>16.0</ns3:atemp>
          </ns3:TrackPointExtension>
        </extensions>
      </trkpt>
      <trkpt lat="42.63778296299278736114501953125" lon="19.9151752889156341552734375">
        <ele>1275.5999755859375</ele>
        <time>2026-06-16T07:12:03.000Z</time>
        <extensions>
          <ns3:TrackPointExtension>
            <ns3:atemp>16.0</ns3:atemp>
          </ns3:TrackPointExtension>
        </extensions>
      </trkpt>
      <trkpt lat="42.6377525366842746734619140625" lon="19.9151865206658840179443359375">
        <ele>1275.800048828125</ele>
        <time>2026-06-16T07:12:04.000Z</time>
        <extensions>
          <ns3:TrackPointExtension>
            <ns3:atemp>16.0</ns3:atemp>
          </ns3:TrackPointExtension>
        </extensions>
      </trkpt>
      <trkpt lat="42.6377237029373645782470703125" lon="19.9151922203600406646728515625">
        <ele>1276</ele>
        <time>2026-06-16T07:12:05.000Z</time>
        <extensions>
          <ns3:TrackPointExtension>
            <ns3:atemp>16.0</ns3:atemp>
          </ns3:TrackPointExtension>
        </extensions>
      </trkpt>
      <trkpt lat="42.63769746758043766021728515625" lon="19.91519339382648468017578125">
        <ele>1276.199951171875</ele>
        <time>2026-06-16T07:12:06.000Z</time>
        <extensions>
          <ns3:TrackPointExtension>
            <ns3:atemp>16.0</ns3:atemp>
          </ns3:TrackPointExtension>
        </extensions>
      </trkpt>
      <trkpt lat="42.63767098076641559600830078125" lon="19.9151945672929286956787109375">
        <ele>1276.199951171875</ele>
        <time>2026-06-16T07:12:07.000Z</time>
        <extensions>
          <ns3:TrackPointExtension>
            <ns3:atemp>16.0</ns3:atemp>
          </ns3:TrackPointExtension>
        </extensions>
      </trkpt>
      <trkpt lat="42.63764181174337863922119140625" lon="19.91519180126488208770751953125">
        <ele>1276.4000244140625</ele>
        <time>2026-06-16T07:12:08.000Z</time>
        <extensions>
          <ns3:TrackPointExtension>
            <ns3:atemp>16.0</ns3:atemp>
          </ns3:TrackPointExtension>
        </extensions>
      </trkpt>
      <trkpt lat="42.6376140676438808441162109375" lon="19.91518559865653514862060546875">
        <ele>1276.5999755859375</ele>
        <time>2026-06-16T07:12:09.000Z</time>
        <extensions>
          <ns3:TrackPointExtension>
            <ns3:atemp>16.0</ns3:atemp>
          </ns3:TrackPointExtension>
        </extensions>
      </trkpt>
      <trkpt lat="42.6375828869640827178955078125" lon="19.91517721675336360931396484375">
        <ele>1276.800048828125</ele>
        <time>2026-06-16T07:12:10.000Z</time>
        <extensions>
          <ns3:TrackPointExtension>
            <ns3:atemp>16.0</ns3:atemp>
          </ns3:TrackPointExtension>
        </extensions>
      </trkpt>
      <trkpt lat="42.6375500299036502838134765625" lon="19.91516950540244579315185546875">
        <ele>1277</ele>
        <time>2026-06-16T07:12:11.000Z</time>
        <extensions>
          <ns3:TrackPointExtension>
            <ns3:atemp>16.0</ns3:atemp>
          </ns3:TrackPointExtension>
        </extensions>
      </trkpt>
      <trkpt lat="42.63752496801316738128662109375" lon="19.915163218975067138671875">
        <ele>1277.199951171875</ele>
        <time>2026-06-16T07:12:12.000Z</time>
        <extensions>
          <ns3:TrackPointExtension>
            <ns3:atemp>16.0</ns3:atemp>
          </ns3:TrackPointExtension>
        </extensions>
      </trkpt>
      <trkpt lat="42.63749890029430389404296875" lon="19.9151583574712276458740234375">
        <ele>1277.4000244140625</ele>
        <time>2026-06-16T07:12:13.000Z</time>
        <extensions>
          <ns3:TrackPointExtension>
            <ns3:atemp>16.0</ns3:atemp>
          </ns3:TrackPointExtension>
        </extensions>
      </trkpt>
      <trkpt lat="42.63747073709964752197265625" lon="19.91515693254768848419189453125">
        <ele>1277.800048828125</ele>
        <time>2026-06-16T07:12:14.000Z</time>
        <extensions>
          <ns3:TrackPointExtension>
            <ns3:atemp>16.0</ns3:atemp>
          </ns3:TrackPointExtension>
        </extensions>
      </trkpt>
      <trkpt lat="42.637444250285625457763671875" lon="19.9151573516428470611572265625">
        <ele>1278</ele>
        <time>2026-06-16T07:12:15.000Z</time>
        <extensions>
          <ns3:TrackPointExtension>
            <ns3:atemp>15.0</ns3:atemp>
          </ns3:TrackPointExtension>
        </extensions>
      </trkpt>
      <trkpt lat="42.63741650618612766265869140625" lon="19.915158189833164215087890625">
        <ele>1278.4000244140625</ele>
        <time>2026-06-16T07:12:16.000Z</time>
        <extensions>
          <ns3:TrackPointExtension>
            <ns3:atemp>16.0</ns3:atemp>
          </ns3:TrackPointExtension>
        </extensions>
      </trkpt>
      <trkpt lat="42.63738884590566158294677734375" lon="19.91516145877540111541748046875">
        <ele>1278.5999755859375</ele>
        <time>2026-06-16T07:12:17.000Z</time>
        <extensions>
          <ns3:TrackPointExtension>
            <ns3:atemp>16.0</ns3:atemp>
          </ns3:TrackPointExtension>
        </extensions>
      </trkpt>
      <trkpt lat="42.63736604712903499603271484375" lon="19.9151674099266529083251953125">
        <ele>1278.800048828125</ele>
        <time>2026-06-16T07:12:18.000Z</time>
        <extensions>
          <ns3:TrackPointExtension>
            <ns3:atemp>16.0</ns3:atemp>
          </ns3:TrackPointExtension>
        </extensions>
      </trkpt>
      <trkpt lat="42.6373424939811229705810546875" lon="19.91517067886888980865478515625">
        <ele>1279</ele>
        <time>2026-06-16T07:12:19.000Z</time>
        <extensions>
          <ns3:TrackPointExtension>
            <ns3:atemp>16.0</ns3:atemp>
          </ns3:TrackPointExtension>
        </extensions>
      </trkpt>
      <trkpt lat="42.63730980455875396728515625" lon="19.91517788730561733245849609375">
        <ele>1279.4000244140625</ele>
        <time>2026-06-16T07:12:20.000Z</time>
        <extensions>
          <ns3:TrackPointExtension>
            <ns3:atemp>16.0</ns3:atemp>
          </ns3:TrackPointExtension>
        </extensions>
      </trkpt>
      <trkpt lat="42.6372814737260341644287109375" lon="19.915186353027820587158203125">
        <ele>1279.800048828125</ele>
        <time>2026-06-16T07:12:21.000Z</time>
        <extensions>
          <ns3:TrackPointExtension>
            <ns3:atemp>16.0</ns3:atemp>
          </ns3:TrackPointExtension>
        </extensions>
      </trkpt>
      <trkpt lat="42.63725775294005870819091796875" lon="19.9151938967406749725341796875">
        <ele>1280</ele>
        <time>2026-06-16T07:12:22.000Z</time>
        <extensions>
          <ns3:TrackPointExtension>
            <ns3:atemp>16.0</ns3:atemp>
          </ns3:TrackPointExtension>
        </extensions>
      </trkpt>
      <trkpt lat="42.63723394833505153656005859375" lon="19.915199093520641326904296875">
        <ele>1280.199951171875</ele>
        <time>2026-06-16T07:12:23.000Z</time>
        <extensions>
          <ns3:TrackPointExtension>
            <ns3:atemp>16.0</ns3:atemp>
          </ns3:TrackPointExtension>
        </extensions>
      </trkpt>
      <trkpt lat="42.637207210063934326171875" lon="19.91520672105252742767333984375">
        <ele>1280.4000244140625</ele>
        <time>2026-06-16T07:12:24.000Z</time>
        <extensions>
          <ns3:TrackPointExtension>
            <ns3:atemp>16.0</ns3:atemp>
          </ns3:TrackPointExtension>
        </extensions>
      </trkpt>
      <trkpt lat="42.637178711593151092529296875" lon="19.9152126722037792205810546875">
        <ele>1280.4000244140625</ele>
        <time>2026-06-16T07:12:25.000Z</time>
        <extensions>
          <ns3:TrackPointExtension>
            <ns3:atemp>16.0</ns3:atemp>
          </ns3:TrackPointExtension>
        </extensions>
      </trkpt>
      <trkpt lat="42.6371473632752895355224609375" lon="19.91521258838474750518798828125">
        <ele>1280.5999755859375</ele>
        <time>2026-06-16T07:12:26.000Z</time>
        <extensions>
          <ns3:TrackPointExtension>
            <ns3:atemp>16.0</ns3:atemp>
          </ns3:TrackPointExtension>
        </extensions>
      </trkpt>
      <trkpt lat="42.63711945153772830963134765625" lon="19.9152086488902568817138671875">
        <ele>1280.5999755859375</ele>
        <time>2026-06-16T07:12:27.000Z</time>
        <extensions>
          <ns3:TrackPointExtension>
            <ns3:atemp>16.0</ns3:atemp>
          </ns3:TrackPointExtension>
        </extensions>
      </trkpt>
      <trkpt lat="42.63709078542888164520263671875" lon="19.91520588286221027374267578125">
        <ele>1280.5999755859375</ele>
        <time>2026-06-16T07:12:28.000Z</time>
        <extensions>
          <ns3:TrackPointExtension>
            <ns3:atemp>16.0</ns3:atemp>
          </ns3:TrackPointExtension>
        </extensions>
      </trkpt>
      <trkpt lat="42.637062706053256988525390625" lon="19.91520705632865428924560546875">
        <ele>1280.5999755859375</ele>
        <time>2026-06-16T07:12:29.000Z</time>
        <extensions>
          <ns3:TrackPointExtension>
            <ns3:atemp>16.0</ns3:atemp>
          </ns3:TrackPointExtension>
        </extensions>
      </trkpt>
      <trkpt lat="42.63703714124858379364013671875" lon="19.9152096547186374664306640625">
        <ele>1280.800048828125</ele>
        <time>2026-06-16T07:12:30.000Z</time>
        <extensions>
          <ns3:TrackPointExtension>
            <ns3:atemp>16.0</ns3:atemp>
          </ns3:TrackPointExtension>
        </extensions>
      </trkpt>
      <trkpt lat="42.63701484538614749908447265625" lon="19.915218539535999298095703125">
        <ele>1280.800048828125</ele>
        <time>2026-06-16T07:12:31.000Z</time>
        <extensions>
          <ns3:TrackPointExtension>
            <ns3:atemp>16.0</ns3:atemp>
          </ns3:TrackPointExtension>
        </extensions>
      </trkpt>
      <trkpt lat="42.63698969967663288116455078125" lon="19.9152262508869171142578125">
        <ele>1281</ele>
        <time>2026-06-16T07:12:32.000Z</time>
        <extensions>
          <ns3:TrackPointExtension>
            <ns3:atemp>16.0</ns3:atemp>
          </ns3:TrackPointExtension>
        </extensions>
      </trkpt>
      <trkpt lat="42.63696254231035709381103515625" lon="19.915232956409454345703125">
        <ele>1281.199951171875</ele>
        <time>2026-06-16T07:12:33.000Z</time>
        <extensions>
          <ns3:TrackPointExtension>
            <ns3:atemp>16.0</ns3:atemp>
          </ns3:TrackPointExtension>
        </extensions>
      </trkpt>
      <trkpt lat="42.6369354687631130218505859375" lon="19.9152492173016071319580078125">
        <ele>1281.199951171875</ele>
        <time>2026-06-16T07:12:34.000Z</time>
        <extensions>
          <ns3:TrackPointExtension>
            <ns3:atemp>16.0</ns3:atemp>
          </ns3:TrackPointExtension>
        </extensions>
      </trkpt>
      <trkpt lat="42.6369099877774715423583984375" lon="19.915259778499603271484375">
        <ele>1281.4000244140625</ele>
        <time>2026-06-16T07:12:35.000Z</time>
        <extensions>
          <ns3:TrackPointExtension>
            <ns3:atemp>16.0</ns3:atemp>
          </ns3:TrackPointExtension>
        </extensions>
      </trkpt>
      <trkpt lat="42.63688777573406696319580078125" lon="19.9152659811079502105712890625">
        <ele>1281.4000244140625</ele>
        <time>2026-06-16T07:12:36.000Z</time>
        <extensions>
          <ns3:TrackPointExtension>
            <ns3:atemp>16.0</ns3:atemp>
          </ns3:TrackPointExtension>
        </extensions>
      </trkpt>
      <trkpt lat="42.63686330057680606842041015625" lon="19.91527411155402660369873046875">
        <ele>1281.5999755859375</ele>
        <time>2026-06-16T07:12:37.000Z</time>
        <extensions>
          <ns3:TrackPointExtension>
            <ns3:atemp>16.0</ns3:atemp>
          </ns3:TrackPointExtension>
        </extensions>
      </trkpt>
      <trkpt lat="42.63683664612472057342529296875" lon="19.915284253656864166259765625">
        <ele>1281.800048828125</ele>
        <time>2026-06-16T07:12:38.000Z</time>
        <extensions>
          <ns3:TrackPointExtension>
            <ns3:atemp>16.0</ns3:atemp>
          </ns3:TrackPointExtension>
        </extensions>
      </trkpt>
      <trkpt lat="42.63681317679584026336669921875" lon="19.91528936661779880523681640625">
        <ele>1281.800048828125</ele>
        <time>2026-06-16T07:12:39.000Z</time>
        <extensions>
          <ns3:TrackPointExtension>
            <ns3:atemp>16.0</ns3:atemp>
          </ns3:TrackPointExtension>
        </extensions>
      </trkpt>
      <trkpt lat="42.63678484596312046051025390625" lon="19.915293641388416290283203125">
        <ele>1282</ele>
        <time>2026-06-16T07:12:40.000Z</time>
        <extensions>
          <ns3:TrackPointExtension>
            <ns3:atemp>16.0</ns3:atemp>
          </ns3:TrackPointExtension>
        </extensions>
      </trkpt>
      <trkpt lat="42.6367577724158763885498046875" lon="19.9152911268174648284912109375">
        <ele>1282.199951171875</ele>
        <time>2026-06-16T07:12:41.000Z</time>
        <extensions>
          <ns3:TrackPointExtension>
            <ns3:atemp>16.0</ns3:atemp>
          </ns3:TrackPointExtension>
        </extensions>
      </trkpt>
      <trkpt lat="42.63673312962055206298828125" lon="19.9152825772762298583984375">
        <ele>1282.4000244140625</ele>
        <time>2026-06-16T07:12:42.000Z</time>
        <extensions>
          <ns3:TrackPointExtension>
            <ns3:atemp>15.0</ns3:atemp>
          </ns3:TrackPointExtension>
        </extensions>
      </trkpt>
      <trkpt lat="42.6367101632058620452880859375" lon="19.91527629084885120391845703125">
        <ele>1282.800048828125</ele>
        <time>2026-06-16T07:12:43.000Z</time>
        <extensions>
          <ns3:TrackPointExtension>
            <ns3:atemp>16.0</ns3:atemp>
          </ns3:TrackPointExtension>
        </extensions>
      </trkpt>
      <trkpt lat="42.6366873644292354583740234375" lon="19.9152679927647113800048828125">
        <ele>1283.199951171875</ele>
        <time>2026-06-16T07:12:44.000Z</time>
        <extensions>
          <ns3:TrackPointExtension>
            <ns3:atemp>16.0</ns3:atemp>
          </ns3:TrackPointExtension>
        </extensions>
      </trkpt>
      <trkpt lat="42.63666582293808460235595703125" lon="19.91525910794734954833984375">
        <ele>1283.5999755859375</ele>
        <time>2026-06-16T07:12:45.000Z</time>
        <extensions>
          <ns3:TrackPointExtension>
            <ns3:atemp>15.0</ns3:atemp>
          </ns3:TrackPointExtension>
        </extensions>
      </trkpt>
      <trkpt lat="42.63664671219885349273681640625" lon="19.91524779237806797027587890625">
        <ele>1284</ele>
        <time>2026-06-16T07:12:46.000Z</time>
        <extensions>
          <ns3:TrackPointExtension>
            <ns3:atemp>15.0</ns3:atemp>
          </ns3:TrackPointExtension>
        </extensions>
      </trkpt>
      <trkpt lat="42.63662542216479778289794921875" lon="19.91523471660912036895751953125">
        <ele>1283.800048828125</ele>
        <time>2026-06-16T07:12:47.000Z</time>
        <extensions>
          <ns3:TrackPointExtension>
            <ns3:atemp>16.0</ns3:atemp>
          </ns3:TrackPointExtension>
        </extensions>
      </trkpt>
      <trkpt lat="42.6366022042930126190185546875" lon="19.91521929390728473663330078125">
        <ele>1283.4000244140625</ele>
        <time>2026-06-16T07:12:48.000Z</time>
        <extensions>
          <ns3:TrackPointExtension>
            <ns3:atemp>16.0</ns3:atemp>
          </ns3:TrackPointExtension>
        </extensions>
      </trkpt>
      <trkpt lat="42.63657890260219573974609375" lon="19.91521309129893779754638671875">
        <ele>1283.199951171875</ele>
        <time>2026-06-16T07:12:49.000Z</time>
        <extensions>
          <ns3:TrackPointExtension>
            <ns3:atemp>16.0</ns3:atemp>
          </ns3:TrackPointExtension>
        </extensions>
      </trkpt>
      <trkpt lat="42.6365545950829982757568359375" lon="19.9152046255767345428466796875">
        <ele>1283.199951171875</ele>
        <time>2026-06-16T07:12:50.000Z</time>
        <extensions>
          <ns3:TrackPointExtension>
            <ns3:atemp>15.0</ns3:atemp>
          </ns3:TrackPointExtension>
        </extensions>
      </trkpt>
      <trkpt lat="42.63653305359184741973876953125" lon="19.9151999317109584808349609375">
        <ele>1283.4000244140625</ele>
        <time>2026-06-16T07:12:51.000Z</time>
        <extensions>
          <ns3:TrackPointExtension>
            <ns3:atemp>15.0</ns3:atemp>
          </ns3:TrackPointExtension>
        </extensions>
      </trkpt>
      <trkpt lat="42.63651394285261631011962890625" lon="19.915188364684581756591796875">
        <ele>1283.5999755859375</ele>
        <time>2026-06-16T07:12:52.000Z</time>
        <extensions>
          <ns3:TrackPointExtension>
            <ns3:atemp>16.0</ns3:atemp>
          </ns3:TrackPointExtension>
        </extensions>
      </trkpt>
      <trkpt lat="42.636491395533084869384765625" lon="19.9151771329343318939208984375">
        <ele>1284</ele>
        <time>2026-06-16T07:12:53.000Z</time>
        <extensions>
          <ns3:TrackPointExtension>
            <ns3:atemp>15.0</ns3:atemp>
          </ns3:TrackPointExtension>
        </extensions>
      </trkpt>
      <trkpt lat="42.63646801002323627471923828125" lon="19.91517017595469951629638671875">
        <ele>1284.4000244140625</ele>
        <time>2026-06-16T07:12:54.000Z</time>
        <extensions>
          <ns3:TrackPointExtension>
            <ns3:atemp>15.0</ns3:atemp>
          </ns3:TrackPointExtension>
        </extensions>
      </trkpt>
      <trkpt lat="42.63644169084727764129638671875" lon="19.91516648791730403900146484375">
        <ele>1284.800048828125</ele>
        <time>2026-06-16T07:12:55.000Z</time>
        <extensions>
          <ns3:TrackPointExtension>
            <ns3:atemp>16.0</ns3:atemp>
          </ns3:TrackPointExtension>
        </extensions>
      </trkpt>
      <trkpt lat="42.63641805388033390045166015625" lon="19.91516129113733768463134765625">
        <ele>1285.199951171875</ele>
        <time>2026-06-16T07:12:56.000Z</time>
        <extensions>
          <ns3:TrackPointExtension>
            <ns3:atemp>16.0</ns3:atemp>
          </ns3:TrackPointExtension>
        </extensions>
      </trkpt>
      <trkpt lat="42.636391818523406982421875" lon="19.9151570163667201995849609375">
        <ele>1285.4000244140625</ele>
        <time>2026-06-16T07:12:57.000Z</time>
        <extensions>
          <ns3:TrackPointExtension>
            <ns3:atemp>16.0</ns3:atemp>
          </ns3:TrackPointExtension>
        </extensions>
      </trkpt>
      <trkpt lat="42.63636943884193897247314453125" lon="19.91515047848224639892578125">
        <ele>1285.5999755859375</ele>
        <time>2026-06-16T07:12:58.000Z</time>
        <extensions>
          <ns3:TrackPointExtension>
            <ns3:atemp>16.0</ns3:atemp>
          </ns3:TrackPointExtension>
        </extensions>
      </trkpt>
      <trkpt lat="42.6363463886082172393798828125" lon="19.91514201276004314422607421875">
        <ele>1285.800048828125</ele>
        <time>2026-06-16T07:12:59.000Z</time>
        <extensions>
          <ns3:TrackPointExtension>
            <ns3:atemp>16.0</ns3:atemp>
          </ns3:TrackPointExtension>
        </extensions>
      </trkpt>
      <trkpt lat="42.6363215781748294830322265625" lon="19.91513312794268131256103515625">
        <ele>1285.800048828125</ele>
        <time>2026-06-16T07:13:00.000Z</time>
        <extensions>
          <ns3:TrackPointExtension>
            <ns3:atemp>15.0</ns3:atemp>
          </ns3:TrackPointExtension>
        </extensions>
      </trkpt>
      <trkpt lat="42.6362937502562999725341796875" lon="19.915126673877239227294921875">
        <ele>1286</ele>
        <time>2026-06-16T07:13:01.000Z</time>
        <extensions>
          <ns3:TrackPointExtension>
            <ns3:atemp>15.0</ns3:atemp>
          </ns3:TrackPointExtension>
        </extensions>
      </trkpt>
      <trkpt lat="42.63626508414745330810546875" lon="19.9151162803173065185546875">
        <ele>1286.199951171875</ele>
        <time>2026-06-16T07:13:02.000Z</time>
        <extensions>
          <ns3:TrackPointExtension>
            <ns3:atemp>15.0</ns3:atemp>
          </ns3:TrackPointExtension>
        </extensions>
      </trkpt>
      <trkpt lat="42.63623616658151149749755859375" lon="19.9151033721864223480224609375">
        <ele>1286.4000244140625</ele>
        <time>2026-06-16T07:13:03.000Z</time>
        <extensions>
          <ns3:TrackPointExtension>
            <ns3:atemp>15.0</ns3:atemp>
          </ns3:TrackPointExtension>
        </extensions>
      </trkpt>
      <trkpt lat="42.63620699755847454071044921875" lon="19.91509725339710712432861328125">
        <ele>1286.5999755859375</ele>
        <time>2026-06-16T07:13:04.000Z</time>
        <extensions>
          <ns3:TrackPointExtension>
            <ns3:atemp>15.0</ns3:atemp>
          </ns3:TrackPointExtension>
        </extensions>
      </trkpt>
      <trkpt lat="42.63617925345897674560546875" lon="19.9150973372161388397216796875">
        <ele>1286.5999755859375</ele>
        <time>2026-06-16T07:13:05.000Z</time>
        <extensions>
          <ns3:TrackPointExtension>
            <ns3:atemp>15.0</ns3:atemp>
          </ns3:TrackPointExtension>
        </extensions>
      </trkpt>
      <trkpt lat="42.63615234754979610443115234375" lon="19.91509817540645599365234375">
        <ele>1286.5999755859375</ele>
        <time>2026-06-16T07:13:06.000Z</time>
        <extensions>
          <ns3:TrackPointExtension>
            <ns3:atemp>15.0</ns3:atemp>
          </ns3:TrackPointExtension>
        </extensions>
      </trkpt>
      <trkpt lat="42.63612736947834491729736328125" lon="19.91509825922548770904541015625">
        <ele>1286.800048828125</ele>
        <time>2026-06-16T07:13:07.000Z</time>
        <extensions>
          <ns3:TrackPointExtension>
            <ns3:atemp>15.0</ns3:atemp>
          </ns3:TrackPointExtension>
        </extensions>
      </trkpt>
      <trkpt lat="42.636107169091701507568359375" lon="19.91509272716939449310302734375">
        <ele>1286.800048828125</ele>
        <time>2026-06-16T07:13:08.000Z</time>
        <extensions>
          <ns3:TrackPointExtension>
            <ns3:atemp>15.0</ns3:atemp>
          </ns3:TrackPointExtension>
        </extensions>
      </trkpt>
      <trkpt lat="42.6360842026770114898681640625" lon="19.9150896258652210235595703125">
        <ele>1286.800048828125</ele>
        <time>2026-06-16T07:13:09.000Z</time>
        <extensions>
          <ns3:TrackPointExtension>
            <ns3:atemp>15.0</ns3:atemp>
          </ns3:TrackPointExtension>
        </extensions>
      </trkpt>
      <trkpt lat="42.63606785796582698822021484375" lon="19.9150839261710643768310546875">
        <ele>1286.800048828125</ele>
        <time>2026-06-16T07:13:10.000Z</time>
        <extensions>
          <ns3:TrackPointExtension>
            <ns3:atemp>15.0</ns3:atemp>
          </ns3:TrackPointExtension>
        </extensions>
      </trkpt>
      <trkpt lat="42.6360459811985492706298828125" lon="19.9150840938091278076171875">
        <ele>1286.800048828125</ele>
        <time>2026-06-16T07:13:11.000Z</time>
        <extensions>
          <ns3:TrackPointExtension>
            <ns3:atemp>16.0</ns3:atemp>
          </ns3:TrackPointExtension>
        </extensions>
      </trkpt>
      <trkpt lat="42.6360208354890346527099609375" lon="19.9150825850665569305419921875">
        <ele>1286.800048828125</ele>
        <time>2026-06-16T07:13:12.000Z</time>
        <extensions>
          <ns3:TrackPointExtension>
            <ns3:atemp>15.0</ns3:atemp>
          </ns3:TrackPointExtension>
        </extensions>
      </trkpt>
      <trkpt lat="42.63599610887467861175537109375" lon="19.9150762148201465606689453125">
        <ele>1286.800048828125</ele>
        <time>2026-06-16T07:13:13.000Z</time>
        <extensions>
          <ns3:TrackPointExtension>
            <ns3:atemp>16.0</ns3:atemp>
          </ns3:TrackPointExtension>
        </extensions>
      </trkpt>
      <trkpt lat="42.635972388088703155517578125" lon="19.91506841965019702911376953125">
        <ele>1286.800048828125</ele>
        <time>2026-06-16T07:13:14.000Z</time>
        <extensions>
          <ns3:TrackPointExtension>
            <ns3:atemp>16.0</ns3:atemp>
          </ns3:TrackPointExtension>
        </extensions>
      </trkpt>
      <trkpt lat="42.63595034368336200714111328125" lon="19.915056265890598297119140625">
        <ele>1286.800048828125</ele>
        <time>2026-06-16T07:13:15.000Z</time>
        <extensions>
          <ns3:TrackPointExtension>
            <ns3:atemp>16.0</ns3:atemp>
          </ns3:TrackPointExtension>
        </extensions>
      </trkpt>
      <trkpt lat="42.6359242759644985198974609375" lon="19.91504495032131671905517578125">
        <ele>1286.800048828125</ele>
        <time>2026-06-16T07:13:16.000Z</time>
        <extensions>
          <ns3:TrackPointExtension>
            <ns3:atemp>16.0</ns3:atemp>
          </ns3:TrackPointExtension>
        </extensions>
      </trkpt>
      <trkpt lat="42.63589502312242984771728515625" lon="19.9150296114385128021240234375">
        <ele>1286.800048828125</ele>
        <time>2026-06-16T07:13:17.000Z</time>
        <extensions>
          <ns3:TrackPointExtension>
            <ns3:atemp>15.0</ns3:atemp>
          </ns3:TrackPointExtension>
        </extensions>
      </trkpt>
      <trkpt lat="42.635863758623600006103515625" lon="19.91501192562282085418701171875">
        <ele>1287</ele>
        <time>2026-06-16T07:13:18.000Z</time>
        <extensions>
          <ns3:TrackPointExtension>
            <ns3:atemp>16.0</ns3:atemp>
          </ns3:TrackPointExtension>
        </extensions>
      </trkpt>
      <trkpt lat="42.6358391158282756805419921875" lon="19.915003292262554168701171875">
        <ele>1287</ele>
        <time>2026-06-16T07:13:19.000Z</time>
        <extensions>
          <ns3:TrackPointExtension>
            <ns3:atemp>16.0</ns3:atemp>
          </ns3:TrackPointExtension>
        </extensions>
      </trkpt>
      <trkpt lat="42.63581388629972934722900390625" lon="19.91499583236873149871826171875">
        <ele>1287.199951171875</ele>
        <time>2026-06-16T07:13:20.000Z</time>
        <extensions>
          <ns3:TrackPointExtension>
            <ns3:atemp>15.0</ns3:atemp>
          </ns3:TrackPointExtension>
        </extensions>
      </trkpt>
      <trkpt lat="42.635787986218929290771484375" lon="19.91498527117073535919189453125">
        <ele>1287.199951171875</ele>
        <time>2026-06-16T07:13:21.000Z</time>
        <extensions>
          <ns3:TrackPointExtension>
            <ns3:atemp>16.0</ns3:atemp>
          </ns3:TrackPointExtension>
        </extensions>
      </trkpt>
      <trkpt lat="42.6357680372893810272216796875" lon="19.91497588343918323516845703125">
        <ele>1287.4000244140625</ele>
        <time>2026-06-16T07:13:22.000Z</time>
        <extensions>
          <ns3:TrackPointExtension>
            <ns3:atemp>15.0</ns3:atemp>
          </ns3:TrackPointExtension>
        </extensions>
      </trkpt>
      <trkpt lat="42.63574616052210330963134765625" lon="19.91496548987925052642822265625">
        <ele>1287.5999755859375</ele>
        <time>2026-06-16T07:13:23.000Z</time>
        <extensions>
          <ns3:TrackPointExtension>
            <ns3:atemp>15.0</ns3:atemp>
          </ns3:TrackPointExtension>
        </extensions>
      </trkpt>
      <trkpt lat="42.6357241161167621612548828125" lon="19.91495358757674694061279296875">
        <ele>1287.5999755859375</ele>
        <time>2026-06-16T07:13:24.000Z</time>
        <extensions>
          <ns3:TrackPointExtension>
            <ns3:atemp>15.0</ns3:atemp>
          </ns3:TrackPointExtension>
        </extensions>
      </trkpt>
      <trkpt lat="42.63569888658821582794189453125" lon="19.91494336165487766265869140625">
        <ele>1287.800048828125</ele>
        <time>2026-06-16T07:13:25.000Z</time>
        <extensions>
          <ns3:TrackPointExtension>
            <ns3:atemp>15.0</ns3:atemp>
          </ns3:TrackPointExtension>
        </extensions>
      </trkpt>
      <trkpt lat="42.63567038811743259429931640625" lon="19.9149350635707378387451171875">
        <ele>1288</ele>
        <time>2026-06-16T07:13:26.000Z</time>
        <extensions>
          <ns3:TrackPointExtension>
            <ns3:atemp>15.0</ns3:atemp>
          </ns3:TrackPointExtension>
        </extensions>
      </trkpt>
      <trkpt lat="42.6356426440179347991943359375" lon="19.91492877714335918426513671875">
        <ele>1288.199951171875</ele>
        <time>2026-06-16T07:13:27.000Z</time>
        <extensions>
          <ns3:TrackPointExtension>
            <ns3:atemp>15.0</ns3:atemp>
          </ns3:TrackPointExtension>
        </extensions>
      </trkpt>
      <trkpt lat="42.635615654289722442626953125" lon="19.914922155439853668212890625">
        <ele>1288.199951171875</ele>
        <time>2026-06-16T07:13:28.000Z</time>
        <extensions>
          <ns3:TrackPointExtension>
            <ns3:atemp>15.0</ns3:atemp>
          </ns3:TrackPointExtension>
        </extensions>
      </trkpt>
      <trkpt lat="42.63558782637119293212890625" lon="19.91491570137441158294677734375">
        <ele>1288.4000244140625</ele>
        <time>2026-06-16T07:13:29.000Z</time>
        <extensions>
          <ns3:TrackPointExtension>
            <ns3:atemp>15.0</ns3:atemp>
          </ns3:TrackPointExtension>
        </extensions>
      </trkpt>
      <trkpt lat="42.635559327900409698486328125" lon="19.9149119295179843902587890625">
        <ele>1288.4000244140625</ele>
        <time>2026-06-16T07:13:30.000Z</time>
        <extensions>
          <ns3:TrackPointExtension>
            <ns3:atemp>15.0</ns3:atemp>
          </ns3:TrackPointExtension>
        </extensions>
      </trkpt>
      <trkpt lat="42.63553543947637081146240234375" lon="19.914909414947032928466796875">
        <ele>1288.4000244140625</ele>
        <time>2026-06-16T07:13:31.000Z</time>
        <extensions>
          <ns3:TrackPointExtension>
            <ns3:atemp>15.0</ns3:atemp>
          </ns3:TrackPointExtension>
        </extensions>
      </trkpt>
      <trkpt lat="42.63551515527069568634033203125" lon="19.91489994339644908905029296875">
        <ele>1288.5999755859375</ele>
        <time>2026-06-16T07:13:32.000Z</time>
        <extensions>
          <ns3:TrackPointExtension>
            <ns3:atemp>16.0</ns3:atemp>
          </ns3:TrackPointExtension>
        </extensions>
      </trkpt>
      <trkpt lat="42.63549352996051311492919921875" lon="19.91489139385521411895751953125">
        <ele>1288.5999755859375</ele>
        <time>2026-06-16T07:13:33.000Z</time>
        <extensions>
          <ns3:TrackPointExtension>
            <ns3:atemp>15.0</ns3:atemp>
          </ns3:TrackPointExtension>
        </extensions>
      </trkpt>
      <trkpt lat="42.635476849973201751708984375" lon="19.91488452069461345672607421875">
        <ele>1288.4000244140625</ele>
        <time>2026-06-16T07:13:34.000Z</time>
        <extensions>
          <ns3:TrackPointExtension>
            <ns3:atemp>15.0</ns3:atemp>
          </ns3:TrackPointExtension>
        </extensions>
      </trkpt>
      <trkpt lat="42.63545396737754344940185546875" lon="19.91488032974302768707275390625">
        <ele>1288.5999755859375</ele>
        <time>2026-06-16T07:13:35.000Z</time>
        <extensions>
          <ns3:TrackPointExtension>
            <ns3:atemp>15.0</ns3:atemp>
          </ns3:TrackPointExtension>
        </extensions>
      </trkpt>
      <trkpt lat="42.63542714528739452362060546875" lon="19.91487697698175907135009765625">
        <ele>1288.5999755859375</ele>
        <time>2026-06-16T07:13:36.000Z</time>
        <extensions>
          <ns3:TrackPointExtension>
            <ns3:atemp>15.0</ns3:atemp>
          </ns3:TrackPointExtension>
        </extensions>
      </trkpt>
      <trkpt lat="42.63540350832045078277587890625" lon="19.91486893035471439361572265625">
        <ele>1288.5999755859375</ele>
        <time>2026-06-16T07:13:37.000Z</time>
        <extensions>
          <ns3:TrackPointExtension>
            <ns3:atemp>15.0</ns3:atemp>
          </ns3:TrackPointExtension>
        </extensions>
      </trkpt>
      <trkpt lat="42.635376937687397003173828125" lon="19.91486012935638427734375">
        <ele>1288.5999755859375</ele>
        <time>2026-06-16T07:13:38.000Z</time>
        <extensions>
          <ns3:TrackPointExtension>
            <ns3:atemp>15.0</ns3:atemp>
          </ns3:TrackPointExtension>
        </extensions>
      </trkpt>
      <trkpt lat="42.63535304926335811614990234375" lon="19.91484881378710269927978515625">
        <ele>1288.5999755859375</ele>
        <time>2026-06-16T07:13:39.000Z</time>
        <extensions>
          <ns3:TrackPointExtension>
            <ns3:atemp>15.0</ns3:atemp>
          </ns3:TrackPointExtension>
        </extensions>
      </trkpt>
      <trkpt lat="42.63533092103898525238037109375" lon="19.9148374982178211212158203125">
        <ele>1288.800048828125</ele>
        <time>2026-06-16T07:13:40.000Z</time>
        <extensions>
          <ns3:TrackPointExtension>
            <ns3:atemp>15.0</ns3:atemp>
          </ns3:TrackPointExtension>
        </extensions>
      </trkpt>
      <trkpt lat="42.6353073678910732269287109375" lon="19.9148266017436981201171875">
        <ele>1289</ele>
        <time>2026-06-16T07:13:41.000Z</time>
        <extensions>
          <ns3:TrackPointExtension>
            <ns3:atemp>15.0</ns3:atemp>
          </ns3:TrackPointExtension>
        </extensions>
      </trkpt>
      <trkpt lat="42.6352852396667003631591796875" lon="19.91481922566890716552734375">
        <ele>1289</ele>
        <time>2026-06-16T07:13:42.000Z</time>
        <extensions>
          <ns3:TrackPointExtension>
            <ns3:atemp>15.0</ns3:atemp>
          </ns3:TrackPointExtension>
        </extensions>
      </trkpt>
      <trkpt lat="42.635260261595249176025390625" lon="19.91481252014636993408203125">
        <ele>1289.199951171875</ele>
        <time>2026-06-16T07:13:43.000Z</time>
        <extensions>
          <ns3:TrackPointExtension>
            <ns3:atemp>15.0</ns3:atemp>
          </ns3:TrackPointExtension>
        </extensions>
      </trkpt>
      <trkpt lat="42.635238803923130035400390625" lon="19.91480388678610324859619140625">
        <ele>1289.4000244140625</ele>
        <time>2026-06-16T07:13:44.000Z</time>
        <extensions>
          <ns3:TrackPointExtension>
            <ns3:atemp>15.0</ns3:atemp>
          </ns3:TrackPointExtension>
        </extensions>
      </trkpt>
      <trkpt lat="42.63521390967071056365966796875" lon="19.9147939123213291168212890625">
        <ele>1289.5999755859375</ele>
        <time>2026-06-16T07:13:45.000Z</time>
        <extensions>
          <ns3:TrackPointExtension>
            <ns3:atemp>15.0</ns3:atemp>
          </ns3:TrackPointExtension>
        </extensions>
      </trkpt>
      <trkpt lat="42.6351873390376567840576171875" lon="19.914783351123332977294921875">
        <ele>1290</ele>
        <time>2026-06-16T07:13:46.000Z</time>
        <extensions>
          <ns3:TrackPointExtension>
            <ns3:atemp>15.0</ns3:atemp>
          </ns3:TrackPointExtension>
        </extensions>
      </trkpt>
      <trkpt lat="42.63516294769942760467529296875" lon="19.91477086208760738372802734375">
        <ele>1290.199951171875</ele>
        <time>2026-06-16T07:13:47.000Z</time>
        <extensions>
          <ns3:TrackPointExtension>
            <ns3:atemp>15.0</ns3:atemp>
          </ns3:TrackPointExtension>
        </extensions>
      </trkpt>
      <trkpt lat="42.63514098711311817169189453125" lon="19.9147566966712474822998046875">
        <ele>1290.4000244140625</ele>
        <time>2026-06-16T07:13:48.000Z</time>
        <extensions>
          <ns3:TrackPointExtension>
            <ns3:atemp>15.0</ns3:atemp>
          </ns3:TrackPointExtension>
        </extensions>
      </trkpt>
      <trkpt lat="42.63511785306036472320556640625" lon="19.9147474765777587890625">
        <ele>1290.5999755859375</ele>
        <time>2026-06-16T07:13:49.000Z</time>
        <extensions>
          <ns3:TrackPointExtension>
            <ns3:atemp>15.0</ns3:atemp>
          </ns3:TrackPointExtension>
        </extensions>
      </trkpt>
      <trkpt lat="42.635096646845340728759765625" lon="19.91473582573235034942626953125">
        <ele>1290.5999755859375</ele>
        <time>2026-06-16T07:13:50.000Z</time>
        <extensions>
          <ns3:TrackPointExtension>
            <ns3:atemp>15.0</ns3:atemp>
          </ns3:TrackPointExtension>
        </extensions>
      </trkpt>
      <trkpt lat="42.635075189173221588134765625" lon="19.91472291760146617889404296875">
        <ele>1290.800048828125</ele>
        <time>2026-06-16T07:13:51.000Z</time>
        <extensions>
          <ns3:TrackPointExtension>
            <ns3:atemp>15.0</ns3:atemp>
          </ns3:TrackPointExtension>
        </extensions>
      </trkpt>
      <trkpt lat="42.63504895381629467010498046875" lon="19.914707578718662261962890625">
        <ele>1291</ele>
        <time>2026-06-16T07:13:52.000Z</time>
        <extensions>
          <ns3:TrackPointExtension>
            <ns3:atemp>15.0</ns3:atemp>
          </ns3:TrackPointExtension>
        </extensions>
      </trkpt>
      <trkpt lat="42.63502615503966808319091796875" lon="19.91469190455973148345947265625">
        <ele>1291</ele>
        <time>2026-06-16T07:13:53.000Z</time>
        <extensions>
          <ns3:TrackPointExtension>
            <ns3:atemp>15.0</ns3:atemp>
          </ns3:TrackPointExtension>
        </extensions>
      </trkpt>
      <trkpt lat="42.6350022666156291961669921875" lon="19.914676062762737274169921875">
        <ele>1291.199951171875</ele>
        <time>2026-06-16T07:13:54.000Z</time>
        <extensions>
          <ns3:TrackPointExtension>
            <ns3:atemp>15.0</ns3:atemp>
          </ns3:TrackPointExtension>
        </extensions>
      </trkpt>
      <trkpt lat="42.63498692773282527923583984375" lon="19.91466256789863109588623046875">
        <ele>1291.4000244140625</ele>
        <time>2026-06-16T07:13:55.000Z</time>
        <extensions>
          <ns3:TrackPointExtension>
            <ns3:atemp>15.0</ns3:atemp>
          </ns3:TrackPointExtension>
        </extensions>
      </trkpt>
      <trkpt lat="42.6349727623164653778076171875" lon="19.914648234844207763671875">
        <ele>1291.4000244140625</ele>
        <time>2026-06-16T07:13:56.000Z</time>
        <extensions>
          <ns3:TrackPointExtension>
            <ns3:atemp>15.0</ns3:atemp>
          </ns3:TrackPointExtension>
        </extensions>
      </trkpt>
      <trkpt lat="42.6349499635398387908935546875" lon="19.9146349914371967315673828125">
        <ele>1291.5999755859375</ele>
        <time>2026-06-16T07:13:57.000Z</time>
        <extensions>
          <ns3:TrackPointExtension>
            <ns3:atemp>15.0</ns3:atemp>
          </ns3:TrackPointExtension>
        </extensions>
      </trkpt>
      <trkpt lat="42.63492758385837078094482421875" lon="19.9146200716495513916015625">
        <ele>1291.800048828125</ele>
        <time>2026-06-16T07:13:58.000Z</time>
        <extensions>
          <ns3:TrackPointExtension>
            <ns3:atemp>15.0</ns3:atemp>
          </ns3:TrackPointExtension>
        </extensions>
      </trkpt>
      <trkpt lat="42.63490478508174419403076171875" lon="19.91460490040481090545654296875">
        <ele>1292</ele>
        <time>2026-06-16T07:13:59.000Z</time>
        <extensions>
          <ns3:TrackPointExtension>
            <ns3:atemp>15.0</ns3:atemp>
          </ns3:TrackPointExtension>
        </extensions>
      </trkpt>
      <trkpt lat="42.634885422885417938232421875" lon="19.91459735669195652008056640625">
        <ele>1292.199951171875</ele>
        <time>2026-06-16T07:14:00.000Z</time>
        <extensions>
          <ns3:TrackPointExtension>
            <ns3:atemp>15.0</ns3:atemp>
          </ns3:TrackPointExtension>
        </extensions>
      </trkpt>
      <trkpt lat="42.6348681561648845672607421875" lon="19.914582185447216033935546875">
        <ele>1292.5999755859375</ele>
        <time>2026-06-16T07:14:01.000Z</time>
        <extensions>
          <ns3:TrackPointExtension>
            <ns3:atemp>16.0</ns3:atemp>
          </ns3:TrackPointExtension>
        </extensions>
      </trkpt>
      <trkpt lat="42.634848542511463165283203125" lon="19.914560727775096893310546875">
        <ele>1292.800048828125</ele>
        <time>2026-06-16T07:14:02.000Z</time>
        <extensions>
          <ns3:TrackPointExtension>
            <ns3:atemp>15.0</ns3:atemp>
          </ns3:TrackPointExtension>
        </extensions>
      </trkpt>
      <trkpt lat="42.63482398353517055511474609375" lon="19.9145396053791046142578125">
        <ele>1293</ele>
        <time>2026-06-16T07:14:03.000Z</time>
        <extensions>
          <ns3:TrackPointExtension>
            <ns3:atemp>15.0</ns3:atemp>
          </ns3:TrackPointExtension>
        </extensions>
      </trkpt>
      <trkpt lat="42.63480126857757568359375" lon="19.91452259011566638946533203125">
        <ele>1293.199951171875</ele>
        <time>2026-06-16T07:14:04.000Z</time>
        <extensions>
          <ns3:TrackPointExtension>
            <ns3:atemp>15.0</ns3:atemp>
          </ns3:TrackPointExtension>
        </extensions>
      </trkpt>
      <trkpt lat="42.634778134524822235107421875" lon="19.91450716741383075714111328125">
        <ele>1293.4000244140625</ele>
        <time>2026-06-16T07:14:05.000Z</time>
        <extensions>
          <ns3:TrackPointExtension>
            <ns3:atemp>15.0</ns3:atemp>
          </ns3:TrackPointExtension>
        </extensions>
      </trkpt>
      <trkpt lat="42.63476304709911346435546875" lon="19.91449224762618541717529296875">
        <ele>1293.5999755859375</ele>
        <time>2026-06-16T07:14:06.000Z</time>
        <extensions>
          <ns3:TrackPointExtension>
            <ns3:atemp>15.0</ns3:atemp>
          </ns3:TrackPointExtension>
        </extensions>
      </trkpt>
      <trkpt lat="42.63474301435053348541259765625" lon="19.91447967477142810821533203125">
        <ele>1293.800048828125</ele>
        <time>2026-06-16T07:14:07.000Z</time>
        <extensions>
          <ns3:TrackPointExtension>
            <ns3:atemp>15.0</ns3:atemp>
          </ns3:TrackPointExtension>
        </extensions>
      </trkpt>
      <trkpt lat="42.634722478687763214111328125" lon="19.91446391679346561431884765625">
        <ele>1294.199951171875</ele>
        <time>2026-06-16T07:14:08.000Z</time>
        <extensions>
          <ns3:TrackPointExtension>
            <ns3:atemp>15.0</ns3:atemp>
          </ns3:TrackPointExtension>
        </extensions>
      </trkpt>
      <trkpt lat="42.63470211066305637359619140625" lon="19.914450086653232574462890625">
        <ele>1294.4000244140625</ele>
        <time>2026-06-16T07:14:09.000Z</time>
        <extensions>
          <ns3:TrackPointExtension>
            <ns3:atemp>15.0</ns3:atemp>
          </ns3:TrackPointExtension>
        </extensions>
      </trkpt>
      <trkpt lat="42.63468031771481037139892578125" lon="19.91443441249430179595947265625">
        <ele>1294.5999755859375</ele>
        <time>2026-06-16T07:14:10.000Z</time>
        <extensions>
          <ns3:TrackPointExtension>
            <ns3:atemp>15.0</ns3:atemp>
          </ns3:TrackPointExtension>
        </extensions>
      </trkpt>
      <trkpt lat="42.63465651310980319976806640625" lon="19.9144200794398784637451171875">
        <ele>1294.800048828125</ele>
        <time>2026-06-16T07:14:11.000Z</time>
        <extensions>
          <ns3:TrackPointExtension>
            <ns3:atemp>15.0</ns3:atemp>
          </ns3:TrackPointExtension>
        </extensions>
      </trkpt>
      <trkpt lat="42.63463723473250865936279296875" lon="19.91440826095640659332275390625">
        <ele>1295</ele>
        <time>2026-06-16T07:14:12.000Z</time>
        <extensions>
          <ns3:TrackPointExtension>
            <ns3:atemp>15.0</ns3:atemp>
          </ns3:TrackPointExtension>
        </extensions>
      </trkpt>
      <trkpt lat="42.63461896218359470367431640625" lon="19.9143939279019832611083984375">
        <ele>1295</ele>
        <time>2026-06-16T07:14:13.000Z</time>
        <extensions>
          <ns3:TrackPointExtension>
            <ns3:atemp>15.0</ns3:atemp>
          </ns3:TrackPointExtension>
        </extensions>
      </trkpt>
      <trkpt lat="42.63459809124469757080078125" lon="19.91438244469463825225830078125">
        <ele>1295.199951171875</ele>
        <time>2026-06-16T07:14:14.000Z</time>
        <extensions>
          <ns3:TrackPointExtension>
            <ns3:atemp>15.0</ns3:atemp>
          </ns3:TrackPointExtension>
        </extensions>
      </trkpt>
      <trkpt lat="42.63457537628710269927978515625" lon="19.91437188349664211273193359375">
        <ele>1295.5999755859375</ele>
        <time>2026-06-16T07:14:15.000Z</time>
        <extensions>
          <ns3:TrackPointExtension>
            <ns3:atemp>15.0</ns3:atemp>
          </ns3:TrackPointExtension>
        </extensions>
      </trkpt>
      <trkpt lat="42.6345513202250003814697265625" lon="19.914360232651233673095703125">
        <ele>1295.800048828125</ele>
        <time>2026-06-16T07:14:16.000Z</time>
        <extensions>
          <ns3:TrackPointExtension>
            <ns3:atemp>15.0</ns3:atemp>
          </ns3:TrackPointExtension>
        </extensions>
      </trkpt>
      <trkpt lat="42.63452542014420032501220703125" lon="19.914347492158412933349609375">
        <ele>1296</ele>
        <time>2026-06-16T07:14:17.000Z</time>
        <extensions>
          <ns3:TrackPointExtension>
            <ns3:atemp>15.0</ns3:atemp>
          </ns3:TrackPointExtension>
        </extensions>
      </trkpt>
      <trkpt lat="42.6345003582537174224853515625" lon="19.91433047689497470855712890625">
        <ele>1296.199951171875</ele>
        <time>2026-06-16T07:14:18.000Z</time>
        <extensions>
          <ns3:TrackPointExtension>
            <ns3:atemp>15.0</ns3:atemp>
          </ns3:TrackPointExtension>
        </extensions>
      </trkpt>
      <trkpt lat="42.634479068219661712646484375" lon="19.91431622765958309173583984375">
        <ele>1296.199951171875</ele>
        <time>2026-06-16T07:14:19.000Z</time>
        <extensions>
          <ns3:TrackPointExtension>
            <ns3:atemp>15.0</ns3:atemp>
          </ns3:TrackPointExtension>
        </extensions>
      </trkpt>
      <trkpt lat="42.63445937074720859527587890625" lon="19.9143013916909694671630859375">
        <ele>1296.4000244140625</ele>
        <time>2026-06-16T07:14:20.000Z</time>
        <extensions>
          <ns3:TrackPointExtension>
            <ns3:atemp>15.0</ns3:atemp>
          </ns3:TrackPointExtension>
        </extensions>
      </trkpt>
      <trkpt lat="42.634440846741199493408203125" lon="19.91428521461784839630126953125">
        <ele>1296.5999755859375</ele>
        <time>2026-06-16T07:14:21.000Z</time>
        <extensions>
          <ns3:TrackPointExtension>
            <ns3:atemp>15.0</ns3:atemp>
          </ns3:TrackPointExtension>
        </extensions>
      </trkpt>
      <trkpt lat="42.634421400725841522216796875" lon="19.9142705462872982025146484375">
        <ele>1296.800048828125</ele>
        <time>2026-06-16T07:14:22.000Z</time>
        <extensions>
          <ns3:TrackPointExtension>
            <ns3:atemp>16.0</ns3:atemp>
          </ns3:TrackPointExtension>
        </extensions>
      </trkpt>
      <trkpt lat="42.6344024576246738433837890625" lon="19.9142511002719402313232421875">
        <ele>1297</ele>
        <time>2026-06-16T07:14:23.000Z</time>
        <extensions>
          <ns3:TrackPointExtension>
            <ns3:atemp>15.0</ns3:atemp>
          </ns3:TrackPointExtension>
        </extensions>
      </trkpt>
      <trkpt lat="42.634384520351886749267578125" lon="19.91423358209431171417236328125">
        <ele>1297.199951171875</ele>
        <time>2026-06-16T07:14:24.000Z</time>
        <extensions>
          <ns3:TrackPointExtension>
            <ns3:atemp>16.0</ns3:atemp>
          </ns3:TrackPointExtension>
        </extensions>
      </trkpt>
      <trkpt lat="42.6343628950417041778564453125" lon="19.91421095095574855804443359375">
        <ele>1297.4000244140625</ele>
        <time>2026-06-16T07:14:25.000Z</time>
        <extensions>
          <ns3:TrackPointExtension>
            <ns3:atemp>16.0</ns3:atemp>
          </ns3:TrackPointExtension>
        </extensions>
      </trkpt>
      <trkpt lat="42.634346298873424530029296875" lon="19.914186894893646240234375">
        <ele>1297.5999755859375</ele>
        <time>2026-06-16T07:14:26.000Z</time>
        <extensions>
          <ns3:TrackPointExtension>
            <ns3:atemp>16.0</ns3:atemp>
          </ns3:TrackPointExtension>
        </extensions>
      </trkpt>
      <trkpt lat="42.6343263499438762664794921875" lon="19.9141656048595905303955078125">
        <ele>1297.800048828125</ele>
        <time>2026-06-16T07:14:27.000Z</time>
        <extensions>
          <ns3:TrackPointExtension>
            <ns3:atemp>16.0</ns3:atemp>
          </ns3:TrackPointExtension>
        </extensions>
      </trkpt>
      <trkpt lat="42.6343052275478839874267578125" lon="19.9141471646726131439208984375">
        <ele>1298.199951171875</ele>
        <time>2026-06-16T07:14:28.000Z</time>
        <extensions>
          <ns3:TrackPointExtension>
            <ns3:atemp>16.0</ns3:atemp>
          </ns3:TrackPointExtension>
        </extensions>
      </trkpt>
      <trkpt lat="42.63428988866508007049560546875" lon="19.91412394680082798004150390625">
        <ele>1298.4000244140625</ele>
        <time>2026-06-16T07:14:29.000Z</time>
        <extensions>
          <ns3:TrackPointExtension>
            <ns3:atemp>15.0</ns3:atemp>
          </ns3:TrackPointExtension>
        </extensions>
      </trkpt>
      <trkpt lat="42.634276561439037322998046875" lon="19.91410098038613796234130859375">
        <ele>1298.5999755859375</ele>
        <time>2026-06-16T07:14:30.000Z</time>
        <extensions>
          <ns3:TrackPointExtension>
            <ns3:atemp>16.0</ns3:atemp>
          </ns3:TrackPointExtension>
        </extensions>
      </trkpt>
      <trkpt lat="42.63425854034721851348876953125" lon="19.91407692432403564453125">
        <ele>1298.800048828125</ele>
        <time>2026-06-16T07:14:31.000Z</time>
        <extensions>
          <ns3:TrackPointExtension>
            <ns3:atemp>15.0</ns3:atemp>
          </ns3:TrackPointExtension>
        </extensions>
      </trkpt>
      <trkpt lat="42.63424881733953952789306640625" lon="19.91405253298580646514892578125">
        <ele>1299</ele>
        <time>2026-06-16T07:14:32.000Z</time>
        <extensions>
          <ns3:TrackPointExtension>
            <ns3:atemp>15.0</ns3:atemp>
          </ns3:TrackPointExtension>
        </extensions>
      </trkpt>
      <trkpt lat="42.63423624448478221893310546875" lon="19.9140177480876445770263671875">
        <ele>1299.199951171875</ele>
        <time>2026-06-16T07:14:33.000Z</time>
        <extensions>
          <ns3:TrackPointExtension>
            <ns3:atemp>15.0</ns3:atemp>
          </ns3:TrackPointExtension>
        </extensions>
      </trkpt>
      <trkpt lat="42.63422350399196147918701171875" lon="19.91397592239081859588623046875">
        <ele>1299.4000244140625</ele>
        <time>2026-06-16T07:14:34.000Z</time>
        <extensions>
          <ns3:TrackPointExtension>
            <ns3:atemp>16.0</ns3:atemp>
          </ns3:TrackPointExtension>
        </extensions>
      </trkpt>
      <trkpt lat="42.6342123560607433319091796875" lon="19.91393677890300750732421875">
        <ele>1299.4000244140625</ele>
        <time>2026-06-16T07:14:35.000Z</time>
        <extensions>
          <ns3:TrackPointExtension>
            <ns3:atemp>16.0</ns3:atemp>
          </ns3:TrackPointExtension>
        </extensions>
      </trkpt>
      <trkpt lat="42.6342002861201763153076171875" lon="19.9139084480702877044677734375">
        <ele>1299.5999755859375</ele>
        <time>2026-06-16T07:14:36.000Z</time>
        <extensions>
          <ns3:TrackPointExtension>
            <ns3:atemp>16.0</ns3:atemp>
          </ns3:TrackPointExtension>
        </extensions>
      </trkpt>
      <trkpt lat="42.63418662361800670623779296875" lon="19.91388120688498020172119140625">
        <ele>1299.800048828125</ele>
        <time>2026-06-16T07:14:37.000Z</time>
        <extensions>
          <ns3:TrackPointExtension>
            <ns3:atemp>16.0</ns3:atemp>
          </ns3:TrackPointExtension>
        </extensions>
      </trkpt>
      <trkpt lat="42.6341781578958034515380859375" lon="19.91384818218648433685302734375">
        <ele>1300</ele>
        <time>2026-06-16T07:14:38.000Z</time>
        <extensions>
          <ns3:TrackPointExtension>
            <ns3:atemp>16.0</ns3:atemp>
          </ns3:TrackPointExtension>
        </extensions>
      </trkpt>
      <trkpt lat="42.63416952453553676605224609375" lon="19.91381163708865642547607421875">
        <ele>1300</ele>
        <time>2026-06-16T07:14:39.000Z</time>
        <extensions>
          <ns3:TrackPointExtension>
            <ns3:atemp>16.0</ns3:atemp>
          </ns3:TrackPointExtension>
        </extensions>
      </trkpt>
      <trkpt lat="42.63416047208011150360107421875" lon="19.9137780256569385528564453125">
        <ele>1300.199951171875</ele>
        <time>2026-06-16T07:14:40.000Z</time>
        <extensions>
          <ns3:TrackPointExtension>
            <ns3:atemp>16.0</ns3:atemp>
          </ns3:TrackPointExtension>
        </extensions>
      </trkpt>
      <trkpt lat="42.63415007852017879486083984375" lon="19.91374273784458637237548828125">
        <ele>1300.4000244140625</ele>
        <time>2026-06-16T07:14:41.000Z</time>
        <extensions>
          <ns3:TrackPointExtension>
            <ns3:atemp>16.0</ns3:atemp>
          </ns3:TrackPointExtension>
        </extensions>
      </trkpt>
      <trkpt lat="42.634137086570262908935546875" lon="19.91370418108999729156494140625">
        <ele>1300.4000244140625</ele>
        <time>2026-06-16T07:14:42.000Z</time>
        <extensions>
          <ns3:TrackPointExtension>
            <ns3:atemp>15.0</ns3:atemp>
          </ns3:TrackPointExtension>
        </extensions>
      </trkpt>
      <trkpt lat="42.6341228373348712921142578125" lon="19.913666211068630218505859375">
        <ele>1300.4000244140625</ele>
        <time>2026-06-16T07:14:43.000Z</time>
        <extensions>
          <ns3:TrackPointExtension>
            <ns3:atemp>15.0</ns3:atemp>
          </ns3:TrackPointExtension>
        </extensions>
      </trkpt>
      <trkpt lat="42.6341079175472259521484375" lon="19.9136341921985149383544921875">
        <ele>1300.4000244140625</ele>
        <time>2026-06-16T07:14:44.000Z</time>
        <extensions>
          <ns3:TrackPointExtension>
            <ns3:atemp>15.0</ns3:atemp>
          </ns3:TrackPointExtension>
        </extensions>
      </trkpt>
      <trkpt lat="42.63408788479864597320556640625" lon="19.913605190813541412353515625">
        <ele>1300.5999755859375</ele>
        <time>2026-06-16T07:14:45.000Z</time>
        <extensions>
          <ns3:TrackPointExtension>
            <ns3:atemp>15.0</ns3:atemp>
          </ns3:TrackPointExtension>
        </extensions>
      </trkpt>
      <trkpt lat="42.63406910933554172515869140625" lon="19.91357526741921901702880859375">
        <ele>1300.5999755859375</ele>
        <time>2026-06-16T07:14:46.000Z</time>
        <extensions>
          <ns3:TrackPointExtension>
            <ns3:atemp>15.0</ns3:atemp>
          </ns3:TrackPointExtension>
        </extensions>
      </trkpt>
      <trkpt lat="42.63405066914856433868408203125" lon="19.91354492492973804473876953125">
        <ele>1300.5999755859375</ele>
        <time>2026-06-16T07:14:47.000Z</time>
        <extensions>
          <ns3:TrackPointExtension>
            <ns3:atemp>15.0</ns3:atemp>
          </ns3:TrackPointExtension>
        </extensions>
      </trkpt>
      <trkpt lat="42.63403172604739665985107421875" lon="19.91351139731705188751220703125">
        <ele>1300.800048828125</ele>
        <time>2026-06-16T07:14:48.000Z</time>
        <extensions>
          <ns3:TrackPointExtension>
            <ns3:atemp>15.0</ns3:atemp>
          </ns3:TrackPointExtension>
        </extensions>
      </trkpt>
      <trkpt lat="42.63401177711784839630126953125" lon="19.9134860001504421234130859375">
        <ele>1300.800048828125</ele>
        <time>2026-06-16T07:14:49.000Z</time>
        <extensions>
          <ns3:TrackPointExtension>
            <ns3:atemp>15.0</ns3:atemp>
          </ns3:TrackPointExtension>
        </extensions>
      </trkpt>
      <trkpt lat="42.63398881070315837860107421875" lon="19.91346512921154499053955078125">
        <ele>1300.800048828125</ele>
        <time>2026-06-16T07:14:50.000Z</time>
        <extensions>
          <ns3:TrackPointExtension>
            <ns3:atemp>15.0</ns3:atemp>
          </ns3:TrackPointExtension>
        </extensions>
      </trkpt>
      <trkpt lat="42.63396643102169036865234375" lon="19.913442917168140411376953125">
        <ele>1300.800048828125</ele>
        <time>2026-06-16T07:14:51.000Z</time>
        <extensions>
          <ns3:TrackPointExtension>
            <ns3:atemp>15.0</ns3:atemp>
          </ns3:TrackPointExtension>
        </extensions>
      </trkpt>
      <trkpt lat="42.63394287787377834320068359375" lon="19.91342137567698955535888671875">
        <ele>1300.800048828125</ele>
        <time>2026-06-16T07:14:52.000Z</time>
        <extensions>
          <ns3:TrackPointExtension>
            <ns3:atemp>15.0</ns3:atemp>
          </ns3:TrackPointExtension>
        </extensions>
      </trkpt>
      <trkpt lat="42.633921168744564056396484375" lon="19.91340033710002899169921875">
        <ele>1301</ele>
        <time>2026-06-16T07:14:53.000Z</time>
        <extensions>
          <ns3:TrackPointExtension>
            <ns3:atemp>15.0</ns3:atemp>
          </ns3:TrackPointExtension>
        </extensions>
      </trkpt>
      <trkpt lat="42.63389929197728633880615234375" lon="19.91338516585528850555419921875">
        <ele>1301.199951171875</ele>
        <time>2026-06-16T07:14:54.000Z</time>
        <extensions>
          <ns3:TrackPointExtension>
            <ns3:atemp>15.0</ns3:atemp>
          </ns3:TrackPointExtension>
        </extensions>
      </trkpt>
      <trkpt lat="42.63387280516326427459716796875" lon="19.91336504928767681121826171875">
        <ele>1301.199951171875</ele>
        <time>2026-06-16T07:14:55.000Z</time>
        <extensions>
          <ns3:TrackPointExtension>
            <ns3:atemp>15.0</ns3:atemp>
          </ns3:TrackPointExtension>
        </extensions>
      </trkpt>
      <trkpt lat="42.6338475756347179412841796875" lon="19.91334744729101657867431640625">
        <ele>1301.199951171875</ele>
        <time>2026-06-16T07:14:56.000Z</time>
        <extensions>
          <ns3:TrackPointExtension>
            <ns3:atemp>15.0</ns3:atemp>
          </ns3:TrackPointExtension>
        </extensions>
      </trkpt>
      <trkpt lat="42.63382234610617160797119140625" lon="19.91332967765629291534423828125">
        <ele>1301.4000244140625</ele>
        <time>2026-06-16T07:14:57.000Z</time>
        <extensions>
          <ns3:TrackPointExtension>
            <ns3:atemp>15.0</ns3:atemp>
          </ns3:TrackPointExtension>
        </extensions>
      </trkpt>
      <trkpt lat="42.63379342854022979736328125" lon="19.913312830030918121337890625">
        <ele>1301.4000244140625</ele>
        <time>2026-06-16T07:14:58.000Z</time>
        <extensions>
          <ns3:TrackPointExtension>
            <ns3:atemp>15.0</ns3:atemp>
          </ns3:TrackPointExtension>
        </extensions>
      </trkpt>
      <trkpt lat="42.6337661035358905792236328125" lon="19.91329866461455821990966796875">
        <ele>1301.5999755859375</ele>
        <time>2026-06-16T07:14:59.000Z</time>
        <extensions>
          <ns3:TrackPointExtension>
            <ns3:atemp>15.0</ns3:atemp>
          </ns3:TrackPointExtension>
        </extensions>
      </trkpt>
      <trkpt lat="42.633736766874790191650390625" lon="19.91328475065529346466064453125">
        <ele>1301.5999755859375</ele>
        <time>2026-06-16T07:15:00.000Z</time>
        <extensions>
          <ns3:TrackPointExtension>
            <ns3:atemp>15.0</ns3:atemp>
          </ns3:TrackPointExtension>
        </extensions>
      </trkpt>
      <trkpt lat="42.63371019624173641204833984375" lon="19.91326899267733097076416015625">
        <ele>1301.800048828125</ele>
        <time>2026-06-16T07:15:01.000Z</time>
        <extensions>
          <ns3:TrackPointExtension>
            <ns3:atemp>15.0</ns3:atemp>
          </ns3:TrackPointExtension>
        </extensions>
      </trkpt>
      <trkpt lat="42.63368102721869945526123046875" lon="19.91325281560420989990234375">
        <ele>1301.800048828125</ele>
        <time>2026-06-16T07:15:02.000Z</time>
        <extensions>
          <ns3:TrackPointExtension>
            <ns3:atemp>15.0</ns3:atemp>
          </ns3:TrackPointExtension>
        </extensions>
      </trkpt>
      <trkpt lat="42.6336557976901531219482421875" lon="19.913237392902374267578125">
        <ele>1302</ele>
        <time>2026-06-16T07:15:03.000Z</time>
        <extensions>
          <ns3:TrackPointExtension>
            <ns3:atemp>15.0</ns3:atemp>
          </ns3:TrackPointExtension>
        </extensions>
      </trkpt>
      <trkpt lat="42.633630149066448211669921875" lon="19.91322255693376064300537109375">
        <ele>1302.199951171875</ele>
        <time>2026-06-16T07:15:04.000Z</time>
        <extensions>
          <ns3:TrackPointExtension>
            <ns3:atemp>15.0</ns3:atemp>
          </ns3:TrackPointExtension>
        </extensions>
      </trkpt>
      <trkpt lat="42.63360491953790187835693359375" lon="19.91320914588868618011474609375">
        <ele>1302.199951171875</ele>
        <time>2026-06-16T07:15:05.000Z</time>
        <extensions>
          <ns3:TrackPointExtension>
            <ns3:atemp>15.0</ns3:atemp>
          </ns3:TrackPointExtension>
        </extensions>
      </trkpt>
      <trkpt lat="42.6335793547332286834716796875" lon="19.91319489665329456329345703125">
        <ele>1302.5999755859375</ele>
        <time>2026-06-16T07:15:06.000Z</time>
        <extensions>
          <ns3:TrackPointExtension>
            <ns3:atemp>15.0</ns3:atemp>
          </ns3:TrackPointExtension>
        </extensions>
      </trkpt>
      <trkpt lat="42.6335535384714603424072265625" lon="19.91317997686564922332763671875">
        <ele>1302.800048828125</ele>
        <time>2026-06-16T07:15:07.000Z</time>
        <extensions>
          <ns3:TrackPointExtension>
            <ns3:atemp>15.0</ns3:atemp>
          </ns3:TrackPointExtension>
        </extensions>
      </trkpt>
      <trkpt lat="42.6335304044187068939208984375" lon="19.9131684936583042144775390625">
        <ele>1303</ele>
        <time>2026-06-16T07:15:08.000Z</time>
        <extensions>
          <ns3:TrackPointExtension>
            <ns3:atemp>15.0</ns3:atemp>
          </ns3:TrackPointExtension>
        </extensions>
      </trkpt>
      <trkpt lat="42.6335019059479236602783203125" lon="19.913152568042278289794921875">
        <ele>1303.199951171875</ele>
        <time>2026-06-16T07:15:09.000Z</time>
        <extensions>
          <ns3:TrackPointExtension>
            <ns3:atemp>15.0</ns3:atemp>
          </ns3:TrackPointExtension>
        </extensions>
      </trkpt>
      <trkpt lat="42.6334749162197113037109375" lon="19.9131366424262523651123046875">
        <ele>1303.4000244140625</ele>
        <time>2026-06-16T07:15:10.000Z</time>
        <extensions>
          <ns3:TrackPointExtension>
            <ns3:atemp>15.0</ns3:atemp>
          </ns3:TrackPointExtension>
        </extensions>
      </trkpt>
      <trkpt lat="42.6334506087005138397216796875" lon="19.91311828605830669403076171875">
        <ele>1303.5999755859375</ele>
        <time>2026-06-16T07:15:11.000Z</time>
        <extensions>
          <ns3:TrackPointExtension>
            <ns3:atemp>15.0</ns3:atemp>
          </ns3:TrackPointExtension>
        </extensions>
      </trkpt>
      <trkpt lat="42.6334304921329021453857421875" lon="19.913100264966487884521484375">
        <ele>1303.800048828125</ele>
        <time>2026-06-16T07:15:12.000Z</time>
        <extensions>
          <ns3:TrackPointExtension>
            <ns3:atemp>15.0</ns3:atemp>
          </ns3:TrackPointExtension>
        </extensions>
      </trkpt>
      <trkpt lat="42.63341180048882961273193359375" lon="19.9130803160369396209716796875">
        <ele>1304.199951171875</ele>
        <time>2026-06-16T07:15:13.000Z</time>
        <extensions>
          <ns3:TrackPointExtension>
            <ns3:atemp>15.0</ns3:atemp>
          </ns3:TrackPointExtension>
        </extensions>
      </trkpt>
      <trkpt lat="42.63339537195861339569091796875" lon="19.91305433213710784912109375">
        <ele>1304.4000244140625</ele>
        <time>2026-06-16T07:15:14.000Z</time>
        <extensions>
          <ns3:TrackPointExtension>
            <ns3:atemp>15.0</ns3:atemp>
          </ns3:TrackPointExtension>
        </extensions>
      </trkpt>
      <trkpt lat="42.6333828829228878021240234375" lon="19.91303111426532268524169921875">
        <ele>1304.5999755859375</ele>
        <time>2026-06-16T07:15:15.000Z</time>
        <extensions>
          <ns3:TrackPointExtension>
            <ns3:atemp>15.0</ns3:atemp>
          </ns3:TrackPointExtension>
        </extensions>
      </trkpt>
      <trkpt lat="42.633369304239749908447265625" lon="19.9130085669457912445068359375">
        <ele>1304.800048828125</ele>
        <time>2026-06-16T07:15:16.000Z</time>
        <extensions>
          <ns3:TrackPointExtension>
            <ns3:atemp>15.0</ns3:atemp>
          </ns3:TrackPointExtension>
        </extensions>
      </trkpt>
      <trkpt lat="42.6333527080714702606201171875" lon="19.9129757098853588104248046875">
        <ele>1305.199951171875</ele>
        <time>2026-06-16T07:15:17.000Z</time>
        <extensions>
          <ns3:TrackPointExtension>
            <ns3:atemp>15.0</ns3:atemp>
          </ns3:TrackPointExtension>
        </extensions>
      </trkpt>
      <trkpt lat="42.63334013521671295166015625" lon="19.91294947452843189239501953125">
        <ele>1305.4000244140625</ele>
        <time>2026-06-16T07:15:18.000Z</time>
        <extensions>
          <ns3:TrackPointExtension>
            <ns3:atemp>15.0</ns3:atemp>
          </ns3:TrackPointExtension>
        </extensions>
      </trkpt>
      <trkpt lat="42.63332546688616275787353515625" lon="19.9129210598766803741455078125">
        <ele>1305.5999755859375</ele>
        <time>2026-06-16T07:15:19.000Z</time>
        <extensions>
          <ns3:TrackPointExtension>
            <ns3:atemp>15.0</ns3:atemp>
          </ns3:TrackPointExtension>
        </extensions>
      </trkpt>
      <trkpt lat="42.63330702669918537139892578125" lon="19.91289013065397739410400390625">
        <ele>1305.800048828125</ele>
        <time>2026-06-16T07:15:20.000Z</time>
        <extensions>
          <ns3:TrackPointExtension>
            <ns3:atemp>15.0</ns3:atemp>
          </ns3:TrackPointExtension>
        </extensions>
      </trkpt>
      <trkpt lat="42.633288837969303131103515625" lon="19.9128580279648303985595703125">
        <ele>1306.199951171875</ele>
        <time>2026-06-16T07:15:21.000Z</time>
        <extensions>
          <ns3:TrackPointExtension>
            <ns3:atemp>15.0</ns3:atemp>
          </ns3:TrackPointExtension>
        </extensions>
      </trkpt>
      <trkpt lat="42.63327282853424549102783203125" lon="19.9128271825611591339111328125">
        <ele>1306.4000244140625</ele>
        <time>2026-06-16T07:15:22.000Z</time>
        <extensions>
          <ns3:TrackPointExtension>
            <ns3:atemp>15.0</ns3:atemp>
          </ns3:TrackPointExtension>
        </extensions>
      </trkpt>
      <trkpt lat="42.6332544721662998199462890625" lon="19.9127973429858684539794921875">
        <ele>1306.5999755859375</ele>
        <time>2026-06-16T07:15:23.000Z</time>
        <extensions>
          <ns3:TrackPointExtension>
            <ns3:atemp>15.0</ns3:atemp>
          </ns3:TrackPointExtension>
        </extensions>
      </trkpt>
      <trkpt lat="42.6332427375018596649169921875" lon="19.91277077235281467437744140625">
        <ele>1306.800048828125</ele>
        <time>2026-06-16T07:15:24.000Z</time>
        <extensions>
          <ns3:TrackPointExtension>
            <ns3:atemp>15.0</ns3:atemp>
          </ns3:TrackPointExtension>
        </extensions>
      </trkpt>
      <trkpt lat="42.63322873972356319427490234375" lon="19.9127416871488094329833984375">
        <ele>1307.199951171875</ele>
        <time>2026-06-16T07:15:25.000Z</time>
        <extensions>
          <ns3:TrackPointExtension>
            <ns3:atemp>15.0</ns3:atemp>
          </ns3:TrackPointExtension>
        </extensions>
      </trkpt>
      <trkpt lat="42.63321566395461559295654296875" lon="19.9127074889838695526123046875">
        <ele>1307.4000244140625</ele>
        <time>2026-06-16T07:15:26.000Z</time>
        <extensions>
          <ns3:TrackPointExtension>
            <ns3:atemp>15.0</ns3:atemp>
          </ns3:TrackPointExtension>
        </extensions>
      </trkpt>
      <trkpt lat="42.633200995624065399169921875" lon="19.91267672739923000335693359375">
        <ele>1307.5999755859375</ele>
        <time>2026-06-16T07:15:27.000Z</time>
        <extensions>
          <ns3:TrackPointExtension>
            <ns3:atemp>15.0</ns3:atemp>
          </ns3:TrackPointExtension>
        </extensions>
      </trkpt>
      <trkpt lat="42.63319194316864013671875" lon="19.91264403797686100006103515625">
        <ele>1307.800048828125</ele>
        <time>2026-06-16T07:15:28.000Z</time>
        <extensions>
          <ns3:TrackPointExtension>
            <ns3:atemp>15.0</ns3:atemp>
          </ns3:TrackPointExtension>
        </extensions>
      </trkpt>
      <trkpt lat="42.6331790350377559661865234375" lon="19.912615120410919189453125">
        <ele>1308</ele>
        <time>2026-06-16T07:15:29.000Z</time>
        <extensions>
          <ns3:TrackPointExtension>
            <ns3:atemp>15.0</ns3:atemp>
          </ns3:TrackPointExtension>
        </extensions>
      </trkpt>
      <trkpt lat="42.63316788710653781890869140625" lon="19.91258502937853336334228515625">
        <ele>1308.199951171875</ele>
        <time>2026-06-16T07:15:30.000Z</time>
        <extensions>
          <ns3:TrackPointExtension>
            <ns3:atemp>15.0</ns3:atemp>
          </ns3:TrackPointExtension>
        </extensions>
      </trkpt>
      <trkpt lat="42.633151374757289886474609375" lon="19.91256172768771648406982421875">
        <ele>1308.5999755859375</ele>
        <time>2026-06-16T07:15:31.000Z</time>
        <extensions>
          <ns3:TrackPointExtension>
            <ns3:atemp>15.0</ns3:atemp>
          </ns3:TrackPointExtension>
        </extensions>
      </trkpt>
      <trkpt lat="42.63313888572156429290771484375" lon="19.91253264248371124267578125">
        <ele>1308.800048828125</ele>
        <time>2026-06-16T07:15:32.000Z</time>
        <extensions>
          <ns3:TrackPointExtension>
            <ns3:atemp>15.0</ns3:atemp>
          </ns3:TrackPointExtension>
        </extensions>
      </trkpt>
      <trkpt lat="42.63312580995261669158935546875" lon="19.91250523366034030914306640625">
        <ele>1309</ele>
        <time>2026-06-16T07:15:33.000Z</time>
        <extensions>
          <ns3:TrackPointExtension>
            <ns3:atemp>15.0</ns3:atemp>
          </ns3:TrackPointExtension>
        </extensions>
      </trkpt>
      <trkpt lat="42.63311139307916164398193359375" lon="19.912479333579540252685546875">
        <ele>1309.4000244140625</ele>
        <time>2026-06-16T07:15:34.000Z</time>
        <extensions>
          <ns3:TrackPointExtension>
            <ns3:atemp>15.0</ns3:atemp>
          </ns3:TrackPointExtension>
        </extensions>
      </trkpt>
      <trkpt lat="42.63309580273926258087158203125" lon="19.91244421340525150299072265625">
        <ele>1309.5999755859375</ele>
        <time>2026-06-16T07:15:35.000Z</time>
        <extensions>
          <ns3:TrackPointExtension>
            <ns3:atemp>15.0</ns3:atemp>
          </ns3:TrackPointExtension>
        </extensions>
      </trkpt>
      <trkpt lat="42.6330801285803318023681640625" lon="19.9124100990593433380126953125">
        <ele>1309.800048828125</ele>
        <time>2026-06-16T07:15:36.000Z</time>
        <extensions>
          <ns3:TrackPointExtension>
            <ns3:atemp>15.0</ns3:atemp>
          </ns3:TrackPointExtension>
        </extensions>
      </trkpt>
      <trkpt lat="42.63306311331689357757568359375" lon="19.91237849928438663482666015625">
        <ele>1309.800048828125</ele>
        <time>2026-06-16T07:15:37.000Z</time>
        <extensions>
          <ns3:TrackPointExtension>
            <ns3:atemp>15.0</ns3:atemp>
          </ns3:TrackPointExtension>
        </extensions>
      </trkpt>
      <trkpt lat="42.63304903171956539154052734375" lon="19.91234815679490566253662109375">
        <ele>1310</ele>
        <time>2026-06-16T07:15:38.000Z</time>
        <extensions>
          <ns3:TrackPointExtension>
            <ns3:atemp>15.0</ns3:atemp>
          </ns3:TrackPointExtension>
        </extensions>
      </trkpt>
      <trkpt lat="42.63303545303642749786376953125" lon="19.91232351399958133697509765625">
        <ele>1310.199951171875</ele>
        <time>2026-06-16T07:15:39.000Z</time>
        <extensions>
          <ns3:TrackPointExtension>
            <ns3:atemp>15.0</ns3:atemp>
          </ns3:TrackPointExtension>
        </extensions>
      </trkpt>
      <trkpt lat="42.63301667757332324981689453125" lon="19.91230390034615993499755859375">
        <ele>1310.4000244140625</ele>
        <time>2026-06-16T07:15:40.000Z</time>
        <extensions>
          <ns3:TrackPointExtension>
            <ns3:atemp>15.0</ns3:atemp>
          </ns3:TrackPointExtension>
        </extensions>
      </trkpt>
      <trkpt lat="42.63299840502440929412841796875" lon="19.9122800119221210479736328125">
        <ele>1310.5999755859375</ele>
        <time>2026-06-16T07:15:41.000Z</time>
        <extensions>
          <ns3:TrackPointExtension>
            <ns3:atemp>15.0</ns3:atemp>
          </ns3:TrackPointExtension>
        </extensions>
      </trkpt>
      <trkpt lat="42.6329795457422733306884765625" lon="19.91225637495517730712890625">
        <ele>1310.800048828125</ele>
        <time>2026-06-16T07:15:42.000Z</time>
        <extensions>
          <ns3:TrackPointExtension>
            <ns3:atemp>15.0</ns3:atemp>
          </ns3:TrackPointExtension>
        </extensions>
      </trkpt>
      <trkpt lat="42.63296219520270824432373046875" lon="19.91223156452178955078125">
        <ele>1310.800048828125</ele>
        <time>2026-06-16T07:15:43.000Z</time>
        <extensions>
          <ns3:TrackPointExtension>
            <ns3:atemp>15.0</ns3:atemp>
          </ns3:TrackPointExtension>
        </extensions>
      </trkpt>
      <trkpt lat="42.63294517993927001953125" lon="19.91220097057521343231201171875">
        <ele>1311</ele>
        <time>2026-06-16T07:15:44.000Z</time>
        <extensions>
          <ns3:TrackPointExtension>
            <ns3:atemp>15.0</ns3:atemp>
          </ns3:TrackPointExtension>
        </extensions>
      </trkpt>
      <trkpt lat="42.6329295895993709564208984375" lon="19.9121764115989208221435546875">
        <ele>1311.199951171875</ele>
        <time>2026-06-16T07:15:45.000Z</time>
        <extensions>
          <ns3:TrackPointExtension>
            <ns3:atemp>15.0</ns3:atemp>
          </ns3:TrackPointExtension>
        </extensions>
      </trkpt>
      <trkpt lat="42.63291844166815280914306640625" lon="19.91215151734650135040283203125">
        <ele>1311.4000244140625</ele>
        <time>2026-06-16T07:15:46.000Z</time>
        <extensions>
          <ns3:TrackPointExtension>
            <ns3:atemp>15.0</ns3:atemp>
          </ns3:TrackPointExtension>
        </extensions>
      </trkpt>
      <trkpt lat="42.63290519826114177703857421875" lon="19.9121207557618618011474609375">
        <ele>1311.5999755859375</ele>
        <time>2026-06-16T07:15:47.000Z</time>
        <extensions>
          <ns3:TrackPointExtension>
            <ns3:atemp>15.0</ns3:atemp>
          </ns3:TrackPointExtension>
        </extensions>
      </trkpt>
      <trkpt lat="42.63289832510054111480712890625" lon="19.912090413272380828857421875">
        <ele>1311.800048828125</ele>
        <time>2026-06-16T07:15:48.000Z</time>
        <extensions>
          <ns3:TrackPointExtension>
            <ns3:atemp>15.0</ns3:atemp>
          </ns3:TrackPointExtension>
        </extensions>
      </trkpt>
      <trkpt lat="42.632885165512561798095703125" lon="19.9120557121932506561279296875">
        <ele>1312</ele>
        <time>2026-06-16T07:15:49.000Z</time>
        <extensions>
          <ns3:TrackPointExtension>
            <ns3:atemp>15.0</ns3:atemp>
          </ns3:TrackPointExtension>
        </extensions>
      </trkpt>
      <trkpt lat="42.6328725926578044891357421875" lon="19.9120238609611988067626953125">
        <ele>1312.199951171875</ele>
        <time>2026-06-16T07:15:50.000Z</time>
        <extensions>
          <ns3:TrackPointExtension>
            <ns3:atemp>15.0</ns3:atemp>
          </ns3:TrackPointExtension>
        </extensions>
      </trkpt>
      <trkpt lat="42.63287007808685302734375" lon="19.9119980446994304656982421875">
        <ele>1312.4000244140625</ele>
        <time>2026-06-16T07:15:51.000Z</time>
        <extensions>
          <ns3:TrackPointExtension>
            <ns3:atemp>15.0</ns3:atemp>
          </ns3:TrackPointExtension>
        </extensions>
      </trkpt>
      <trkpt lat="42.6328568346798419952392578125" lon="19.91197449155151844024658203125">
        <ele>1312.5999755859375</ele>
        <time>2026-06-16T07:15:52.000Z</time>
        <extensions>
          <ns3:TrackPointExtension>
            <ns3:atemp>15.0</ns3:atemp>
          </ns3:TrackPointExtension>
        </extensions>
      </trkpt>
      <trkpt lat="42.632843591272830963134765625" lon="19.911946915090084075927734375">
        <ele>1312.800048828125</ele>
        <time>2026-06-16T07:15:53.000Z</time>
        <extensions>
          <ns3:TrackPointExtension>
            <ns3:atemp>15.0</ns3:atemp>
          </ns3:TrackPointExtension>
        </extensions>
      </trkpt>
      <trkpt lat="42.6328330300748348236083984375" lon="19.91192285902798175811767578125">
        <ele>1313</ele>
        <time>2026-06-16T07:15:54.000Z</time>
        <extensions>
          <ns3:TrackPointExtension>
            <ns3:atemp>15.0</ns3:atemp>
          </ns3:TrackPointExtension>
        </extensions>
      </trkpt>
      <trkpt lat="42.63282355852425098419189453125" lon="19.91189427673816680908203125">
        <ele>1313.4000244140625</ele>
        <time>2026-06-16T07:15:55.000Z</time>
        <extensions>
          <ns3:TrackPointExtension>
            <ns3:atemp>15.0</ns3:atemp>
          </ns3:TrackPointExtension>
        </extensions>
      </trkpt>
      <trkpt lat="42.6328186132013797760009765625" lon="19.9118615873157978057861328125">
        <ele>1313.5999755859375</ele>
        <time>2026-06-16T07:15:56.000Z</time>
        <extensions>
          <ns3:TrackPointExtension>
            <ns3:atemp>15.0</ns3:atemp>
          </ns3:TrackPointExtension>
        </extensions>
      </trkpt>
      <trkpt lat="42.63281174004077911376953125" lon="19.91182764060795307159423828125">
        <ele>1313.800048828125</ele>
        <time>2026-06-16T07:15:57.000Z</time>
        <extensions>
          <ns3:TrackPointExtension>
            <ns3:atemp>16.0</ns3:atemp>
          </ns3:TrackPointExtension>
        </extensions>
      </trkpt>
      <trkpt lat="42.6328085549175739288330078125" lon="19.91179595701396465301513671875">
        <ele>1314.199951171875</ele>
        <time>2026-06-16T07:15:58.000Z</time>
        <extensions>
          <ns3:TrackPointExtension>
            <ns3:atemp>16.0</ns3:atemp>
          </ns3:TrackPointExtension>
        </extensions>
      </trkpt>
      <trkpt lat="42.63280503451824188232421875" lon="19.91176175884902477264404296875">
        <ele>1314.4000244140625</ele>
        <time>2026-06-16T07:15:59.000Z</time>
        <extensions>
          <ns3:TrackPointExtension>
            <ns3:atemp>15.0</ns3:atemp>
          </ns3:TrackPointExtension>
        </extensions>
      </trkpt>
      <trkpt lat="42.63280126266181468963623046875" lon="19.9117264710366725921630859375">
        <ele>1314.4000244140625</ele>
        <time>2026-06-16T07:16:00.000Z</time>
        <extensions>
          <ns3:TrackPointExtension>
            <ns3:atemp>15.0</ns3:atemp>
          </ns3:TrackPointExtension>
        </extensions>
      </trkpt>
      <trkpt lat="42.63279723934829235076904296875" lon="19.9116899259388446807861328125">
        <ele>1314.5999755859375</ele>
        <time>2026-06-16T07:16:01.000Z</time>
        <extensions>
          <ns3:TrackPointExtension>
            <ns3:atemp>15.0</ns3:atemp>
          </ns3:TrackPointExtension>
        </extensions>
      </trkpt>
      <trkpt lat="42.6327907852828502655029296875" lon="19.91165799088776111602783203125">
        <ele>1314.5999755859375</ele>
        <time>2026-06-16T07:16:02.000Z</time>
        <extensions>
          <ns3:TrackPointExtension>
            <ns3:atemp>15.0</ns3:atemp>
          </ns3:TrackPointExtension>
        </extensions>
      </trkpt>
      <trkpt lat="42.6327824033796787261962890625" lon="19.91162605583667755126953125">
        <ele>1314.800048828125</ele>
        <time>2026-06-16T07:16:03.000Z</time>
        <extensions>
          <ns3:TrackPointExtension>
            <ns3:atemp>15.0</ns3:atemp>
          </ns3:TrackPointExtension>
        </extensions>
      </trkpt>
      <trkpt lat="42.63277326710522174835205078125" lon="19.91159386932849884033203125">
        <ele>1314.800048828125</ele>
        <time>2026-06-16T07:16:04.000Z</time>
        <extensions>
          <ns3:TrackPointExtension>
            <ns3:atemp>15.0</ns3:atemp>
          </ns3:TrackPointExtension>
        </extensions>
      </trkpt>
      <trkpt lat="42.632765136659145355224609375" lon="19.91155656985938549041748046875">
        <ele>1315</ele>
        <time>2026-06-16T07:16:05.000Z</time>
        <extensions>
          <ns3:TrackPointExtension>
            <ns3:atemp>15.0</ns3:atemp>
          </ns3:TrackPointExtension>
        </extensions>
      </trkpt>
      <trkpt lat="42.632753066718578338623046875" lon="19.9115221202373504638671875">
        <ele>1315</ele>
        <time>2026-06-16T07:16:06.000Z</time>
        <extensions>
          <ns3:TrackPointExtension>
            <ns3:atemp>15.0</ns3:atemp>
          </ns3:TrackPointExtension>
        </extensions>
      </trkpt>
      <trkpt lat="42.63274644501507282257080078125" lon="19.91148658096790313720703125">
        <ele>1315.199951171875</ele>
        <time>2026-06-16T07:16:07.000Z</time>
        <extensions>
          <ns3:TrackPointExtension>
            <ns3:atemp>15.0</ns3:atemp>
          </ns3:TrackPointExtension>
        </extensions>
      </trkpt>
      <trkpt lat="42.6327394880354404449462890625" lon="19.9114475212991237640380859375">
        <ele>1315.199951171875</ele>
        <time>2026-06-16T07:16:08.000Z</time>
        <extensions>
          <ns3:TrackPointExtension>
            <ns3:atemp>15.0</ns3:atemp>
          </ns3:TrackPointExtension>
        </extensions>
      </trkpt>
      <trkpt lat="42.63273018412292003631591796875" lon="19.91140955127775669097900390625">
        <ele>1315.199951171875</ele>
        <time>2026-06-16T07:16:09.000Z</time>
        <extensions>
          <ns3:TrackPointExtension>
            <ns3:atemp>15.0</ns3:atemp>
          </ns3:TrackPointExtension>
        </extensions>
      </trkpt>
      <trkpt lat="42.63272280804812908172607421875" lon="19.9113650433719158172607421875">
        <ele>1315.199951171875</ele>
        <time>2026-06-16T07:16:10.000Z</time>
        <extensions>
          <ns3:TrackPointExtension>
            <ns3:atemp>15.0</ns3:atemp>
          </ns3:TrackPointExtension>
        </extensions>
      </trkpt>
      <trkpt lat="42.63271878473460674285888671875" lon="19.91131902672350406646728515625">
        <ele>1315</ele>
        <time>2026-06-16T07:16:11.000Z</time>
        <extensions>
          <ns3:TrackPointExtension>
            <ns3:atemp>15.0</ns3:atemp>
          </ns3:TrackPointExtension>
        </extensions>
      </trkpt>
      <trkpt lat="42.6327156834304332733154296875" lon="19.91127342917025089263916015625">
        <ele>1315</ele>
        <time>2026-06-16T07:16:12.000Z</time>
        <extensions>
          <ns3:TrackPointExtension>
            <ns3:atemp>15.0</ns3:atemp>
          </ns3:TrackPointExtension>
        </extensions>
      </trkpt>
      <trkpt lat="42.6327163539826869964599609375" lon="19.9112413264811038970947265625">
        <ele>1315</ele>
        <time>2026-06-16T07:16:13.000Z</time>
        <extensions>
          <ns3:TrackPointExtension>
            <ns3:atemp>15.0</ns3:atemp>
          </ns3:TrackPointExtension>
        </extensions>
      </trkpt>
      <trkpt lat="42.6327140070497989654541015625" lon="19.91120897233486175537109375">
        <ele>1315</ele>
        <time>2026-06-16T07:16:14.000Z</time>
        <extensions>
          <ns3:TrackPointExtension>
            <ns3:atemp>15.0</ns3:atemp>
          </ns3:TrackPointExtension>
        </extensions>
      </trkpt>
      <trkpt lat="42.63270981609821319580078125" lon="19.9111759476363658905029296875">
        <ele>1315</ele>
        <time>2026-06-16T07:16:15.000Z</time>
        <extensions>
          <ns3:TrackPointExtension>
            <ns3:atemp>15.0</ns3:atemp>
          </ns3:TrackPointExtension>
        </extensions>
      </trkpt>
      <trkpt lat="42.63270067982375621795654296875" lon="19.911138229072093963623046875">
        <ele>1315</ele>
        <time>2026-06-16T07:16:16.000Z</time>
        <extensions>
          <ns3:TrackPointExtension>
            <ns3:atemp>15.0</ns3:atemp>
          </ns3:TrackPointExtension>
        </extensions>
      </trkpt>
      <trkpt lat="42.6326942257583141326904296875" lon="19.9110914580523967742919921875">
        <ele>1315.199951171875</ele>
        <time>2026-06-16T07:16:17.000Z</time>
        <extensions>
          <ns3:TrackPointExtension>
            <ns3:atemp>15.0</ns3:atemp>
          </ns3:TrackPointExtension>
        </extensions>
      </trkpt>
      <trkpt lat="42.63268911279737949371337890625" lon="19.91104527376592159271240234375">
        <ele>1315.199951171875</ele>
        <time>2026-06-16T07:16:18.000Z</time>
        <extensions>
          <ns3:TrackPointExtension>
            <ns3:atemp>15.0</ns3:atemp>
          </ns3:TrackPointExtension>
        </extensions>
      </trkpt>
      <trkpt lat="42.63267704285681247711181640625" lon="19.91101006977260112762451171875">
        <ele>1315.199951171875</ele>
        <time>2026-06-16T07:16:19.000Z</time>
        <extensions>
          <ns3:TrackPointExtension>
            <ns3:atemp>15.0</ns3:atemp>
          </ns3:TrackPointExtension>
        </extensions>
      </trkpt>
      <trkpt lat="42.6326640509068965911865234375" lon="19.91097754798829555511474609375">
        <ele>1315.199951171875</ele>
        <time>2026-06-16T07:16:20.000Z</time>
        <extensions>
          <ns3:TrackPointExtension>
            <ns3:atemp>15.0</ns3:atemp>
          </ns3:TrackPointExtension>
        </extensions>
      </trkpt>
      <trkpt lat="42.6326526515185832977294921875" lon="19.910946451127529144287109375">
        <ele>1315.199951171875</ele>
        <time>2026-06-16T07:16:21.000Z</time>
        <extensions>
          <ns3:TrackPointExtension>
            <ns3:atemp>15.0</ns3:atemp>
          </ns3:TrackPointExtension>
        </extensions>
      </trkpt>
      <trkpt lat="42.63263261877000331878662109375" lon="19.9109117500483989715576171875">
        <ele>1315.199951171875</ele>
        <time>2026-06-16T07:16:22.000Z</time>
        <extensions>
          <ns3:TrackPointExtension>
            <ns3:atemp>15.0</ns3:atemp>
          </ns3:TrackPointExtension>
        </extensions>
      </trkpt>
      <trkpt lat="42.632615603506565093994140625" lon="19.9108785577118396759033203125">
        <ele>1315.4000244140625</ele>
        <time>2026-06-16T07:16:23.000Z</time>
        <extensions>
          <ns3:TrackPointExtension>
            <ns3:atemp>15.0</ns3:atemp>
          </ns3:TrackPointExtension>
        </extensions>
      </trkpt>
      <trkpt lat="42.6325943134725093841552734375" lon="19.910843856632709503173828125">
        <ele>1315.4000244140625</ele>
        <time>2026-06-16T07:16:24.000Z</time>
        <extensions>
          <ns3:TrackPointExtension>
            <ns3:atemp>15.0</ns3:atemp>
          </ns3:TrackPointExtension>
        </extensions>
      </trkpt>
      <trkpt lat="42.63257863931357860565185546875" lon="19.9108115024864673614501953125">
        <ele>1315.4000244140625</ele>
        <time>2026-06-16T07:16:25.000Z</time>
        <extensions>
          <ns3:TrackPointExtension>
            <ns3:atemp>15.0</ns3:atemp>
          </ns3:TrackPointExtension>
        </extensions>
      </trkpt>
      <trkpt lat="42.6325611211359500885009765625" lon="19.9107819981873035430908203125">
        <ele>1315.4000244140625</ele>
        <time>2026-06-16T07:16:26.000Z</time>
        <extensions>
          <ns3:TrackPointExtension>
            <ns3:atemp>15.0</ns3:atemp>
          </ns3:TrackPointExtension>
        </extensions>
      </trkpt>
      <trkpt lat="42.63254393823444843292236328125" lon="19.91074503399431705474853515625">
        <ele>1315.4000244140625</ele>
        <time>2026-06-16T07:16:27.000Z</time>
        <extensions>
          <ns3:TrackPointExtension>
            <ns3:atemp>15.0</ns3:atemp>
          </ns3:TrackPointExtension>
        </extensions>
      </trkpt>
      <trkpt lat="42.632532455027103424072265625" lon="19.91069692187011241912841796875">
        <ele>1315.4000244140625</ele>
        <time>2026-06-16T07:16:28.000Z</time>
        <extensions>
          <ns3:TrackPointExtension>
            <ns3:atemp>15.0</ns3:atemp>
          </ns3:TrackPointExtension>
        </extensions>
      </trkpt>
      <trkpt lat="42.632524073123931884765625" lon="19.91065534763038158416748046875">
        <ele>1315.5999755859375</ele>
        <time>2026-06-16T07:16:29.000Z</time>
        <extensions>
          <ns3:TrackPointExtension>
            <ns3:atemp>15.0</ns3:atemp>
          </ns3:TrackPointExtension>
        </extensions>
      </trkpt>
      <trkpt lat="42.63251803815364837646484375" lon="19.91061612032353878021240234375">
        <ele>1315.5999755859375</ele>
        <time>2026-06-16T07:16:30.000Z</time>
        <extensions>
          <ns3:TrackPointExtension>
            <ns3:atemp>15.0</ns3:atemp>
          </ns3:TrackPointExtension>
        </extensions>
      </trkpt>
      <trkpt lat="42.63251543976366519927978515625" lon="19.910583011806011199951171875">
        <ele>1315.5999755859375</ele>
        <time>2026-06-16T07:16:31.000Z</time>
        <extensions>
          <ns3:TrackPointExtension>
            <ns3:atemp>15.0</ns3:atemp>
          </ns3:TrackPointExtension>
        </extensions>
      </trkpt>
      <trkpt lat="42.6325161941349506378173828125" lon="19.91054738871753215789794921875">
        <ele>1315.800048828125</ele>
        <time>2026-06-16T07:16:32.000Z</time>
        <extensions>
          <ns3:TrackPointExtension>
            <ns3:atemp>15.0</ns3:atemp>
          </ns3:TrackPointExtension>
        </extensions>
      </trkpt>
      <trkpt lat="42.6325155235826969146728515625" lon="19.9105221591889858245849609375">
        <ele>1316</ele>
        <time>2026-06-16T07:16:33.000Z</time>
        <extensions>
          <ns3:TrackPointExtension>
            <ns3:atemp>15.0</ns3:atemp>
          </ns3:TrackPointExtension>
        </extensions>
      </trkpt>
      <trkpt lat="42.6325131766498088836669921875" lon="19.91049424745142459869384765625">
        <ele>1316.199951171875</ele>
        <time>2026-06-16T07:16:34.000Z</time>
        <extensions>
          <ns3:TrackPointExtension>
            <ns3:atemp>15.0</ns3:atemp>
          </ns3:TrackPointExtension>
        </extensions>
      </trkpt>
      <trkpt lat="42.6325071416795253753662109375" lon="19.9104608036577701568603515625">
        <ele>1316.4000244140625</ele>
        <time>2026-06-16T07:16:35.000Z</time>
        <extensions>
          <ns3:TrackPointExtension>
            <ns3:atemp>15.0</ns3:atemp>
          </ns3:TrackPointExtension>
        </extensions>
      </trkpt>
      <trkpt lat="42.6325012743473052978515625" lon="19.9104242585599422454833984375">
        <ele>1316.800048828125</ele>
        <time>2026-06-16T07:16:36.000Z</time>
        <extensions>
          <ns3:TrackPointExtension>
            <ns3:atemp>15.0</ns3:atemp>
          </ns3:TrackPointExtension>
        </extensions>
      </trkpt>
      <trkpt lat="42.63249280862510204315185546875" lon="19.91038863547146320343017578125">
        <ele>1317</ele>
        <time>2026-06-16T07:16:37.000Z</time>
        <extensions>
          <ns3:TrackPointExtension>
            <ns3:atemp>15.0</ns3:atemp>
          </ns3:TrackPointExtension>
        </extensions>
      </trkpt>
      <trkpt lat="42.63248719274997711181640625" lon="19.91035846062004566192626953125">
        <ele>1317.199951171875</ele>
        <time>2026-06-16T07:16:38.000Z</time>
        <extensions>
          <ns3:TrackPointExtension>
            <ns3:atemp>15.0</ns3:atemp>
          </ns3:TrackPointExtension>
        </extensions>
      </trkpt>
      <trkpt lat="42.632476799190044403076171875" lon="19.91032945923507213592529296875">
        <ele>1317.4000244140625</ele>
        <time>2026-06-16T07:16:39.000Z</time>
        <extensions>
          <ns3:TrackPointExtension>
            <ns3:atemp>15.0</ns3:atemp>
          </ns3:TrackPointExtension>
        </extensions>
      </trkpt>
      <trkpt lat="42.63246783055365085601806640625" lon="19.91030297242105007171630859375">
        <ele>1317.4000244140625</ele>
        <time>2026-06-16T07:16:40.000Z</time>
        <extensions>
          <ns3:TrackPointExtension>
            <ns3:atemp>15.0</ns3:atemp>
          </ns3:TrackPointExtension>
        </extensions>
      </trkpt>
      <trkpt lat="42.63245341368019580841064453125" lon="19.91027556359767913818359375">
        <ele>1317.5999755859375</ele>
        <time>2026-06-16T07:16:41.000Z</time>
        <extensions>
          <ns3:TrackPointExtension>
            <ns3:atemp>15.0</ns3:atemp>
          </ns3:TrackPointExtension>
        </extensions>
      </trkpt>
      <trkpt lat="42.63243891298770904541015625" lon="19.9102482385933399200439453125">
        <ele>1317.800048828125</ele>
        <time>2026-06-16T07:16:42.000Z</time>
        <extensions>
          <ns3:TrackPointExtension>
            <ns3:atemp>15.0</ns3:atemp>
          </ns3:TrackPointExtension>
        </extensions>
      </trkpt>
      <trkpt lat="42.6324263401329517364501953125" lon="19.91022133268415927886962890625">
        <ele>1318</ele>
        <time>2026-06-16T07:16:43.000Z</time>
        <extensions>
          <ns3:TrackPointExtension>
            <ns3:atemp>15.0</ns3:atemp>
          </ns3:TrackPointExtension>
        </extensions>
      </trkpt>
      <trkpt lat="42.63241284526884555816650390625" lon="19.91019199602305889129638671875">
        <ele>1318.199951171875</ele>
        <time>2026-06-16T07:16:44.000Z</time>
        <extensions>
          <ns3:TrackPointExtension>
            <ns3:atemp>15.0</ns3:atemp>
          </ns3:TrackPointExtension>
        </extensions>
      </trkpt>
      <trkpt lat="42.632401697337627410888671875" lon="19.9101600609719753265380859375">
        <ele>1318.4000244140625</ele>
        <time>2026-06-16T07:16:45.000Z</time>
        <extensions>
          <ns3:TrackPointExtension>
            <ns3:atemp>15.0</ns3:atemp>
          </ns3:TrackPointExtension>
        </extensions>
      </trkpt>
      <trkpt lat="42.63238987885415554046630859375" lon="19.91012996993958950042724609375">
        <ele>1318.5999755859375</ele>
        <time>2026-06-16T07:16:46.000Z</time>
        <extensions>
          <ns3:TrackPointExtension>
            <ns3:atemp>15.0</ns3:atemp>
          </ns3:TrackPointExtension>
        </extensions>
      </trkpt>
      <trkpt lat="42.63237722218036651611328125" lon="19.91009652614593505859375">
        <ele>1318.5999755859375</ele>
        <time>2026-06-16T07:16:47.000Z</time>
        <extensions>
          <ns3:TrackPointExtension>
            <ns3:atemp>15.0</ns3:atemp>
          </ns3:TrackPointExtension>
        </extensions>
      </trkpt>
      <trkpt lat="42.63236423023045063018798828125" lon="19.91006559692323207855224609375">
        <ele>1318.800048828125</ele>
        <time>2026-06-16T07:16:48.000Z</time>
        <extensions>
          <ns3:TrackPointExtension>
            <ns3:atemp>15.0</ns3:atemp>
          </ns3:TrackPointExtension>
        </extensions>
      </trkpt>
      <trkpt lat="42.632350064814090728759765625" lon="19.91003693081438541412353515625">
        <ele>1319</ele>
        <time>2026-06-16T07:16:49.000Z</time>
        <extensions>
          <ns3:TrackPointExtension>
            <ns3:atemp>15.0</ns3:atemp>
          </ns3:TrackPointExtension>
        </extensions>
      </trkpt>
      <trkpt lat="42.632339000701904296875" lon="19.91000910289585590362548828125">
        <ele>1319.199951171875</ele>
        <time>2026-06-16T07:16:50.000Z</time>
        <extensions>
          <ns3:TrackPointExtension>
            <ns3:atemp>15.0</ns3:atemp>
          </ns3:TrackPointExtension>
        </extensions>
      </trkpt>
      <trkpt lat="42.63232802040874958038330078125" lon="19.90998186171054840087890625">
        <ele>1319.4000244140625</ele>
        <time>2026-06-16T07:16:51.000Z</time>
        <extensions>
          <ns3:TrackPointExtension>
            <ns3:atemp>15.0</ns3:atemp>
          </ns3:TrackPointExtension>
        </extensions>
      </trkpt>
      <trkpt lat="42.6323156990110874176025390625" lon="19.909953363239765167236328125">
        <ele>1319.5999755859375</ele>
        <time>2026-06-16T07:16:52.000Z</time>
        <extensions>
          <ns3:TrackPointExtension>
            <ns3:atemp>15.0</ns3:atemp>
          </ns3:TrackPointExtension>
        </extensions>
      </trkpt>
      <trkpt lat="42.63230153359472751617431640625" lon="19.90992276929318904876708984375">
        <ele>1319.800048828125</ele>
        <time>2026-06-16T07:16:53.000Z</time>
        <extensions>
          <ns3:TrackPointExtension>
            <ns3:atemp>15.0</ns3:atemp>
          </ns3:TrackPointExtension>
        </extensions>
      </trkpt>
      <trkpt lat="42.63229281641542911529541015625" lon="19.9098918400704860687255859375">
        <ele>1320</ele>
        <time>2026-06-16T07:16:54.000Z</time>
        <extensions>
          <ns3:TrackPointExtension>
            <ns3:atemp>15.0</ns3:atemp>
          </ns3:TrackPointExtension>
        </extensions>
      </trkpt>
      <trkpt lat="42.63228527270257472991943359375" lon="19.90986786782741546630859375">
        <ele>1320</ele>
        <time>2026-06-16T07:16:55.000Z</time>
        <extensions>
          <ns3:TrackPointExtension>
            <ns3:atemp>15.0</ns3:atemp>
          </ns3:TrackPointExtension>
        </extensions>
      </trkpt>
      <trkpt lat="42.63227932155132293701171875" lon="19.9098482541739940643310546875">
        <ele>1320</ele>
        <time>2026-06-16T07:16:56.000Z</time>
        <extensions>
          <ns3:TrackPointExtension>
            <ns3:atemp>15.0</ns3:atemp>
          </ns3:TrackPointExtension>
        </extensions>
      </trkpt>
      <trkpt lat="42.63226733542978763580322265625" lon="19.90982721559703350067138671875">
        <ele>1320</ele>
        <time>2026-06-16T07:16:57.000Z</time>
        <extensions>
          <ns3:TrackPointExtension>
            <ns3:atemp>15.0</ns3:atemp>
          </ns3:TrackPointExtension>
        </extensions>
      </trkpt>
      <trkpt lat="42.63225643895566463470458984375" lon="19.9097909219563007354736328125">
        <ele>1320</ele>
        <time>2026-06-16T07:16:58.000Z</time>
        <extensions>
          <ns3:TrackPointExtension>
            <ns3:atemp>15.0</ns3:atemp>
          </ns3:TrackPointExtension>
        </extensions>
      </trkpt>
      <trkpt lat="42.632249481976032257080078125" lon="19.90975194610655307769775390625">
        <ele>1320</ele>
        <time>2026-06-16T07:16:59.000Z</time>
        <extensions>
          <ns3:TrackPointExtension>
            <ns3:atemp>15.0</ns3:atemp>
          </ns3:TrackPointExtension>
        </extensions>
      </trkpt>
      <trkpt lat="42.63224034570157527923583984375" lon="19.90971456281840801239013671875">
        <ele>1320.199951171875</ele>
        <time>2026-06-16T07:17:00.000Z</time>
        <extensions>
          <ns3:TrackPointExtension>
            <ns3:atemp>15.0</ns3:atemp>
          </ns3:TrackPointExtension>
        </extensions>
      </trkpt>
      <trkpt lat="42.6322369091212749481201171875" lon="19.909672401845455169677734375">
        <ele>1320.199951171875</ele>
        <time>2026-06-16T07:17:01.000Z</time>
        <extensions>
          <ns3:TrackPointExtension>
            <ns3:atemp>15.0</ns3:atemp>
          </ns3:TrackPointExtension>
        </extensions>
      </trkpt>
      <trkpt lat="42.63223213143646717071533203125" lon="19.90963107906281948089599609375">
        <ele>1320.199951171875</ele>
        <time>2026-06-16T07:17:02.000Z</time>
        <extensions>
          <ns3:TrackPointExtension>
            <ns3:atemp>15.0</ns3:atemp>
          </ns3:TrackPointExtension>
        </extensions>
      </trkpt>
      <trkpt lat="42.63222324661910533905029296875" lon="19.909589588642120361328125">
        <ele>1320.199951171875</ele>
        <time>2026-06-16T07:17:03.000Z</time>
        <extensions>
          <ns3:TrackPointExtension>
            <ns3:atemp>15.0</ns3:atemp>
          </ns3:TrackPointExtension>
        </extensions>
      </trkpt>
      <trkpt lat="42.63220966793596744537353515625" lon="19.90954390726983547210693359375">
        <ele>1320.199951171875</ele>
        <time>2026-06-16T07:17:04.000Z</time>
        <extensions>
          <ns3:TrackPointExtension>
            <ns3:atemp>15.0</ns3:atemp>
          </ns3:TrackPointExtension>
        </extensions>
      </trkpt>
      <trkpt lat="42.63220019638538360595703125" lon="19.909503422677516937255859375">
        <ele>1320.199951171875</ele>
        <time>2026-06-16T07:17:05.000Z</time>
        <extensions>
          <ns3:TrackPointExtension>
            <ns3:atemp>15.0</ns3:atemp>
          </ns3:TrackPointExtension>
        </extensions>
      </trkpt>
      <trkpt lat="42.6321874558925628662109375" lon="19.90946461446583271026611328125">
        <ele>1320.199951171875</ele>
        <time>2026-06-16T07:17:06.000Z</time>
        <extensions>
          <ns3:TrackPointExtension>
            <ns3:atemp>15.0</ns3:atemp>
          </ns3:TrackPointExtension>
        </extensions>
      </trkpt>
      <trkpt lat="42.63217479921877384185791015625" lon="19.9094291590154170989990234375">
        <ele>1320.199951171875</ele>
        <time>2026-06-16T07:17:07.000Z</time>
        <extensions>
          <ns3:TrackPointExtension>
            <ns3:atemp>15.0</ns3:atemp>
          </ns3:TrackPointExtension>
        </extensions>
      </trkpt>
      <trkpt lat="42.63216398656368255615234375" lon="19.9093952961266040802001953125">
        <ele>1320.199951171875</ele>
        <time>2026-06-16T07:17:08.000Z</time>
        <extensions>
          <ns3:TrackPointExtension>
            <ns3:atemp>15.0</ns3:atemp>
          </ns3:TrackPointExtension>
        </extensions>
      </trkpt>
      <trkpt lat="42.6321567781269550323486328125" lon="19.909356571733951568603515625">
        <ele>1320.199951171875</ele>
        <time>2026-06-16T07:17:09.000Z</time>
        <extensions>
          <ns3:TrackPointExtension>
            <ns3:atemp>15.0</ns3:atemp>
          </ns3:TrackPointExtension>
        </extensions>
      </trkpt>
      <trkpt lat="42.6321500726044178009033203125" lon="19.9093235470354557037353515625">
        <ele>1320.199951171875</ele>
        <time>2026-06-16T07:17:10.000Z</time>
        <extensions>
          <ns3:TrackPointExtension>
            <ns3:atemp>15.0</ns3:atemp>
          </ns3:TrackPointExtension>
        </extensions>
      </trkpt>
      <trkpt lat="42.632141523063182830810546875" lon="19.909289516508579254150390625">
        <ele>1320.4000244140625</ele>
        <time>2026-06-16T07:17:11.000Z</time>
        <extensions>
          <ns3:TrackPointExtension>
            <ns3:atemp>15.0</ns3:atemp>
          </ns3:TrackPointExtension>
        </extensions>
      </trkpt>
      <trkpt lat="42.63213003985583782196044921875" lon="19.90925766527652740478515625">
        <ele>1320.4000244140625</ele>
        <time>2026-06-16T07:17:12.000Z</time>
        <extensions>
          <ns3:TrackPointExtension>
            <ns3:atemp>15.0</ns3:atemp>
          </ns3:TrackPointExtension>
        </extensions>
      </trkpt>
      <trkpt lat="42.63212375342845916748046875" lon="19.909219443798065185546875">
        <ele>1320.5999755859375</ele>
        <time>2026-06-16T07:17:13.000Z</time>
        <extensions>
          <ns3:TrackPointExtension>
            <ns3:atemp>15.0</ns3:atemp>
          </ns3:TrackPointExtension>
        </extensions>
      </trkpt>
      <trkpt lat="42.6321148686110973358154296875" lon="19.9091850779950618743896484375">
        <ele>1320.800048828125</ele>
        <time>2026-06-16T07:17:14.000Z</time>
        <extensions>
          <ns3:TrackPointExtension>
            <ns3:atemp>15.0</ns3:atemp>
          </ns3:TrackPointExtension>
        </extensions>
      </trkpt>
      <trkpt lat="42.6321071572601795196533203125" lon="19.90914794616401195526123046875">
        <ele>1321</ele>
        <time>2026-06-16T07:17:15.000Z</time>
        <extensions>
          <ns3:TrackPointExtension>
            <ns3:atemp>15.0</ns3:atemp>
          </ns3:TrackPointExtension>
        </extensions>
      </trkpt>
      <trkpt lat="42.6320977695286273956298828125" lon="19.90911643020808696746826171875">
        <ele>1321.199951171875</ele>
        <time>2026-06-16T07:17:16.000Z</time>
        <extensions>
          <ns3:TrackPointExtension>
            <ns3:atemp>15.0</ns3:atemp>
          </ns3:TrackPointExtension>
        </extensions>
      </trkpt>
      <trkpt lat="42.632087208330631256103515625" lon="19.909082315862178802490234375">
        <ele>1321.199951171875</ele>
        <time>2026-06-16T07:17:17.000Z</time>
        <extensions>
          <ns3:TrackPointExtension>
            <ns3:atemp>15.0</ns3:atemp>
          </ns3:TrackPointExtension>
        </extensions>
      </trkpt>
      <trkpt lat="42.6320763118565082550048828125" lon="19.90904334001243114471435546875">
        <ele>1321.4000244140625</ele>
        <time>2026-06-16T07:17:18.000Z</time>
        <extensions>
          <ns3:TrackPointExtension>
            <ns3:atemp>15.0</ns3:atemp>
          </ns3:TrackPointExtension>
        </extensions>
      </trkpt>
      <trkpt lat="42.63206717558205127716064453125" lon="19.90900687873363494873046875">
        <ele>1321.800048828125</ele>
        <time>2026-06-16T07:17:19.000Z</time>
        <extensions>
          <ns3:TrackPointExtension>
            <ns3:atemp>15.0</ns3:atemp>
          </ns3:TrackPointExtension>
        </extensions>
      </trkpt>
      <trkpt lat="42.63205468654632568359375" lon="19.90896932780742645263671875">
        <ele>1322</ele>
        <time>2026-06-16T07:17:20.000Z</time>
        <extensions>
          <ns3:TrackPointExtension>
            <ns3:atemp>15.0</ns3:atemp>
          </ns3:TrackPointExtension>
        </extensions>
      </trkpt>
      <trkpt lat="42.63204504735767841339111328125" lon="19.9089366383850574493408203125">
        <ele>1322.199951171875</ele>
        <time>2026-06-16T07:17:21.000Z</time>
        <extensions>
          <ns3:TrackPointExtension>
            <ns3:atemp>15.0</ns3:atemp>
          </ns3:TrackPointExtension>
        </extensions>
      </trkpt>
      <trkpt lat="42.63203348033130168914794921875" lon="19.90890495479106903076171875">
        <ele>1322.4000244140625</ele>
        <time>2026-06-16T07:17:22.000Z</time>
        <extensions>
          <ns3:TrackPointExtension>
            <ns3:atemp>15.0</ns3:atemp>
          </ns3:TrackPointExtension>
        </extensions>
      </trkpt>
      <trkpt lat="42.63201872818171977996826171875" lon="19.90887821651995182037353515625">
        <ele>1322.800048828125</ele>
        <time>2026-06-16T07:17:23.000Z</time>
        <extensions>
          <ns3:TrackPointExtension>
            <ns3:atemp>15.0</ns3:atemp>
          </ns3:TrackPointExtension>
        </extensions>
      </trkpt>
      <trkpt lat="42.63200095854699611663818359375" lon="19.9088518135249614715576171875">
        <ele>1323</ele>
        <time>2026-06-16T07:17:24.000Z</time>
        <extensions>
          <ns3:TrackPointExtension>
            <ns3:atemp>15.0</ns3:atemp>
          </ns3:TrackPointExtension>
        </extensions>
      </trkpt>
      <trkpt lat="42.6319871284067630767822265625" lon="19.90881401114165782928466796875">
        <ele>1323.199951171875</ele>
        <time>2026-06-16T07:17:25.000Z</time>
        <extensions>
          <ns3:TrackPointExtension>
            <ns3:atemp>15.0</ns3:atemp>
          </ns3:TrackPointExtension>
        </extensions>
      </trkpt>
      <trkpt lat="42.63197396881878376007080078125" lon="19.9087809026241302490234375">
        <ele>1323.4000244140625</ele>
        <time>2026-06-16T07:17:26.000Z</time>
        <extensions>
          <ns3:TrackPointExtension>
            <ns3:atemp>15.0</ns3:atemp>
          </ns3:TrackPointExtension>
        </extensions>
      </trkpt>
      <trkpt lat="42.631961144506931304931640625" lon="19.90874879993498325347900390625">
        <ele>1323.5999755859375</ele>
        <time>2026-06-16T07:17:27.000Z</time>
        <extensions>
          <ns3:TrackPointExtension>
            <ns3:atemp>15.0</ns3:atemp>
          </ns3:TrackPointExtension>
        </extensions>
      </trkpt>
      <trkpt lat="42.631947062909603118896484375" lon="19.90871007554233074188232421875">
        <ele>1323.800048828125</ele>
        <time>2026-06-16T07:17:28.000Z</time>
        <extensions>
          <ns3:TrackPointExtension>
            <ns3:atemp>15.0</ns3:atemp>
          </ns3:TrackPointExtension>
        </extensions>
      </trkpt>
      <trkpt lat="42.63193625025451183319091796875" lon="19.90867964923381805419921875">
        <ele>1323.800048828125</ele>
        <time>2026-06-16T07:17:29.000Z</time>
        <extensions>
          <ns3:TrackPointExtension>
            <ns3:atemp>15.0</ns3:atemp>
          </ns3:TrackPointExtension>
        </extensions>
      </trkpt>
      <trkpt lat="42.6319264434278011322021484375" lon="19.90865441970527172088623046875">
        <ele>1324</ele>
        <time>2026-06-16T07:17:30.000Z</time>
        <extensions>
          <ns3:TrackPointExtension>
            <ns3:atemp>15.0</ns3:atemp>
          </ns3:TrackPointExtension>
        </extensions>
      </trkpt>
      <trkpt lat="42.63191529549658298492431640625" lon="19.9086161144077777862548828125">
        <ele>1324.199951171875</ele>
        <time>2026-06-16T07:17:31.000Z</time>
        <extensions>
          <ns3:TrackPointExtension>
            <ns3:atemp>15.0</ns3:atemp>
          </ns3:TrackPointExtension>
        </extensions>
      </trkpt>
      <trkpt lat="42.6319036446511745452880859375" lon="19.90857915021479129791259765625">
        <ele>1324.4000244140625</ele>
        <time>2026-06-16T07:17:32.000Z</time>
        <extensions>
          <ns3:TrackPointExtension>
            <ns3:atemp>15.0</ns3:atemp>
          </ns3:TrackPointExtension>
        </extensions>
      </trkpt>
      <trkpt lat="42.63189115561544895172119140625" lon="19.90854914300143718719482421875">
        <ele>1324.5999755859375</ele>
        <time>2026-06-16T07:17:33.000Z</time>
        <extensions>
          <ns3:TrackPointExtension>
            <ns3:atemp>15.0</ns3:atemp>
          </ns3:TrackPointExtension>
        </extensions>
      </trkpt>
      <trkpt lat="42.63187925331294536590576171875" lon="19.90851628594100475311279296875">
        <ele>1324.800048828125</ele>
        <time>2026-06-16T07:17:34.000Z</time>
        <extensions>
          <ns3:TrackPointExtension>
            <ns3:atemp>15.0</ns3:atemp>
          </ns3:TrackPointExtension>
        </extensions>
      </trkpt>
      <trkpt lat="42.63187271542847156524658203125" lon="19.90848250687122344970703125">
        <ele>1324.800048828125</ele>
        <time>2026-06-16T07:17:35.000Z</time>
        <extensions>
          <ns3:TrackPointExtension>
            <ns3:atemp>15.0</ns3:atemp>
          </ns3:TrackPointExtension>
        </extensions>
      </trkpt>
      <trkpt lat="42.63186181895434856414794921875" lon="19.9084483087062835693359375">
        <ele>1325</ele>
        <time>2026-06-16T07:17:36.000Z</time>
        <extensions>
          <ns3:TrackPointExtension>
            <ns3:atemp>15.0</ns3:atemp>
          </ns3:TrackPointExtension>
        </extensions>
      </trkpt>
      <trkpt lat="42.6318543590605258941650390625" lon="19.9084136076271533966064453125">
        <ele>1325.199951171875</ele>
        <time>2026-06-16T07:17:37.000Z</time>
        <extensions>
          <ns3:TrackPointExtension>
            <ns3:atemp>15.0</ns3:atemp>
          </ns3:TrackPointExtension>
        </extensions>
      </trkpt>
      <trkpt lat="42.63184656389057636260986328125" lon="19.9083857797086238861083984375">
        <ele>1325.4000244140625</ele>
        <time>2026-06-16T07:17:38.000Z</time>
        <extensions>
          <ns3:TrackPointExtension>
            <ns3:atemp>15.0</ns3:atemp>
          </ns3:TrackPointExtension>
        </extensions>
      </trkpt>
      <trkpt lat="42.63183885253965854644775390625" lon="19.90835820324718952178955078125">
        <ele>1325.5999755859375</ele>
        <time>2026-06-16T07:17:39.000Z</time>
        <extensions>
          <ns3:TrackPointExtension>
            <ns3:atemp>15.0</ns3:atemp>
          </ns3:TrackPointExtension>
        </extensions>
      </trkpt>
      <trkpt lat="42.63183197937905788421630859375" lon="19.90832182578742504119873046875">
        <ele>1325.800048828125</ele>
        <time>2026-06-16T07:17:40.000Z</time>
        <extensions>
          <ns3:TrackPointExtension>
            <ns3:atemp>15.0</ns3:atemp>
          </ns3:TrackPointExtension>
        </extensions>
      </trkpt>
      <trkpt lat="42.631825022399425506591796875" lon="19.9082927405834197998046875">
        <ele>1326</ele>
        <time>2026-06-16T07:17:41.000Z</time>
        <extensions>
          <ns3:TrackPointExtension>
            <ns3:atemp>15.0</ns3:atemp>
          </ns3:TrackPointExtension>
        </extensions>
      </trkpt>
      <trkpt lat="42.631816305220127105712890625" lon="19.90826332010328769683837890625">
        <ele>1326.199951171875</ele>
        <time>2026-06-16T07:17:42.000Z</time>
        <extensions>
          <ns3:TrackPointExtension>
            <ns3:atemp>15.0</ns3:atemp>
          </ns3:TrackPointExtension>
        </extensions>
      </trkpt>
      <trkpt lat="42.63181052170693874359130859375" lon="19.90823683328926563262939453125">
        <ele>1326.4000244140625</ele>
        <time>2026-06-16T07:17:43.000Z</time>
        <extensions>
          <ns3:TrackPointExtension>
            <ns3:atemp>15.0</ns3:atemp>
          </ns3:TrackPointExtension>
        </extensions>
      </trkpt>
      <trkpt lat="42.6318027265369892120361328125" lon="19.908213280141353607177734375">
        <ele>1326.4000244140625</ele>
        <time>2026-06-16T07:17:44.000Z</time>
        <extensions>
          <ns3:TrackPointExtension>
            <ns3:atemp>15.0</ns3:atemp>
          </ns3:TrackPointExtension>
        </extensions>
      </trkpt>
      <trkpt lat="42.6317918300628662109375" lon="19.90817941725254058837890625">
        <ele>1326.5999755859375</ele>
        <time>2026-06-16T07:17:45.000Z</time>
        <extensions>
          <ns3:TrackPointExtension>
            <ns3:atemp>15.0</ns3:atemp>
          </ns3:TrackPointExtension>
        </extensions>
      </trkpt>
      <trkpt lat="42.63178353197872638702392578125" lon="19.908147566020488739013671875">
        <ele>1326.800048828125</ele>
        <time>2026-06-16T07:17:46.000Z</time>
        <extensions>
          <ns3:TrackPointExtension>
            <ns3:atemp>15.0</ns3:atemp>
          </ns3:TrackPointExtension>
        </extensions>
      </trkpt>
      <trkpt lat="42.631772719323635101318359375" lon="19.90811713971197605133056640625">
        <ele>1327</ele>
        <time>2026-06-16T07:17:47.000Z</time>
        <extensions>
          <ns3:TrackPointExtension>
            <ns3:atemp>15.0</ns3:atemp>
          </ns3:TrackPointExtension>
        </extensions>
      </trkpt>
      <trkpt lat="42.63176240958273410797119140625" lon="19.90808998234570026397705078125">
        <ele>1327.199951171875</ele>
        <time>2026-06-16T07:17:48.000Z</time>
        <extensions>
          <ns3:TrackPointExtension>
            <ns3:atemp>15.0</ns3:atemp>
          </ns3:TrackPointExtension>
        </extensions>
      </trkpt>
      <trkpt lat="42.6317529380321502685546875" lon="19.9080585502088069915771484375">
        <ele>1327.199951171875</ele>
        <time>2026-06-16T07:17:49.000Z</time>
        <extensions>
          <ns3:TrackPointExtension>
            <ns3:atemp>15.0</ns3:atemp>
          </ns3:TrackPointExtension>
        </extensions>
      </trkpt>
      <trkpt lat="42.63173977844417095184326171875" lon="19.90802678279578685760498046875">
        <ele>1327.5999755859375</ele>
        <time>2026-06-16T07:17:50.000Z</time>
        <extensions>
          <ns3:TrackPointExtension>
            <ns3:atemp>15.0</ns3:atemp>
          </ns3:TrackPointExtension>
        </extensions>
      </trkpt>
      <trkpt lat="42.63172368519008159637451171875" lon="19.90799300372600555419921875">
        <ele>1327.5999755859375</ele>
        <time>2026-06-16T07:17:51.000Z</time>
        <extensions>
          <ns3:TrackPointExtension>
            <ns3:atemp>15.0</ns3:atemp>
          </ns3:TrackPointExtension>
        </extensions>
      </trkpt>
      <trkpt lat="42.63170708902180194854736328125" lon="19.90796609781682491302490234375">
        <ele>1327.800048828125</ele>
        <time>2026-06-16T07:17:52.000Z</time>
        <extensions>
          <ns3:TrackPointExtension>
            <ns3:atemp>15.0</ns3:atemp>
          </ns3:TrackPointExtension>
        </extensions>
      </trkpt>
      <trkpt lat="42.631696946918964385986328125" lon="19.907938353717327117919921875">
        <ele>1328</ele>
        <time>2026-06-16T07:17:53.000Z</time>
        <extensions>
          <ns3:TrackPointExtension>
            <ns3:atemp>15.0</ns3:atemp>
          </ns3:TrackPointExtension>
        </extensions>
      </trkpt>
      <trkpt lat="42.63168361969292163848876953125" lon="19.90790809504687786102294921875">
        <ele>1328.4000244140625</ele>
        <time>2026-06-16T07:17:54.000Z</time>
        <extensions>
          <ns3:TrackPointExtension>
            <ns3:atemp>15.0</ns3:atemp>
          </ns3:TrackPointExtension>
        </extensions>
      </trkpt>
      <trkpt lat="42.6316719688475131988525390625" lon="19.907878674566745758056640625">
        <ele>1328.5999755859375</ele>
        <time>2026-06-16T07:17:55.000Z</time>
        <extensions>
          <ns3:TrackPointExtension>
            <ns3:atemp>15.0</ns3:atemp>
          </ns3:TrackPointExtension>
        </extensions>
      </trkpt>
      <trkpt lat="42.63165771961212158203125" lon="19.907850511372089385986328125">
        <ele>1328.800048828125</ele>
        <time>2026-06-16T07:17:56.000Z</time>
        <extensions>
          <ns3:TrackPointExtension>
            <ns3:atemp>15.0</ns3:atemp>
          </ns3:TrackPointExtension>
        </extensions>
      </trkpt>
      <trkpt lat="42.631643973290920257568359375" lon="19.907823018729686737060546875">
        <ele>1329</ele>
        <time>2026-06-16T07:17:57.000Z</time>
        <extensions>
          <ns3:TrackPointExtension>
            <ns3:atemp>15.0</ns3:atemp>
          </ns3:TrackPointExtension>
        </extensions>
      </trkpt>
      <trkpt lat="42.63163098134100437164306640625" lon="19.90780130960047245025634765625">
        <ele>1329.199951171875</ele>
        <time>2026-06-16T07:17:58.000Z</time>
        <extensions>
          <ns3:TrackPointExtension>
            <ns3:atemp>15.0</ns3:atemp>
          </ns3:TrackPointExtension>
        </extensions>
      </trkpt>
      <trkpt lat="42.63161622919142246246337890625" lon="19.90777784027159214019775390625">
        <ele>1329.4000244140625</ele>
        <time>2026-06-16T07:17:59.000Z</time>
        <extensions>
          <ns3:TrackPointExtension>
            <ns3:atemp>15.0</ns3:atemp>
          </ns3:TrackPointExtension>
        </extensions>
      </trkpt>
      <trkpt lat="42.6316054165363311767578125" lon="19.907749593257904052734375">
        <ele>1329.5999755859375</ele>
        <time>2026-06-16T07:18:00.000Z</time>
        <extensions>
          <ns3:TrackPointExtension>
            <ns3:atemp>15.0</ns3:atemp>
          </ns3:TrackPointExtension>
        </extensions>
      </trkpt>
      <trkpt lat="42.63159259222447872161865234375" lon="19.90772620774805545806884765625">
        <ele>1329.5999755859375</ele>
        <time>2026-06-16T07:18:01.000Z</time>
        <extensions>
          <ns3:TrackPointExtension>
            <ns3:atemp>16.0</ns3:atemp>
          </ns3:TrackPointExtension>
        </extensions>
      </trkpt>
      <trkpt lat="42.63157817535102367401123046875" lon="19.90770332515239715576171875">
        <ele>1329.800048828125</ele>
        <time>2026-06-16T07:18:02.000Z</time>
        <extensions>
          <ns3:TrackPointExtension>
            <ns3:atemp>15.0</ns3:atemp>
          </ns3:TrackPointExtension>
        </extensions>
      </trkpt>
      <trkpt lat="42.631566189229488372802734375" lon="19.907679520547389984130859375">
        <ele>1330</ele>
        <time>2026-06-16T07:18:03.000Z</time>
        <extensions>
          <ns3:TrackPointExtension>
            <ns3:atemp>15.0</ns3:atemp>
          </ns3:TrackPointExtension>
        </extensions>
      </trkpt>
      <trkpt lat="42.6315544545650482177734375" lon="19.90764993242919445037841796875">
        <ele>1330.4000244140625</ele>
        <time>2026-06-16T07:18:04.000Z</time>
        <extensions>
          <ns3:TrackPointExtension>
            <ns3:atemp>15.0</ns3:atemp>
          </ns3:TrackPointExtension>
        </extensions>
      </trkpt>
      <trkpt lat="42.6315402053296566009521484375" lon="19.90762294270098209381103515625">
        <ele>1330.5999755859375</ele>
        <time>2026-06-16T07:18:05.000Z</time>
        <extensions>
          <ns3:TrackPointExtension>
            <ns3:atemp>15.0</ns3:atemp>
          </ns3:TrackPointExtension>
        </extensions>
      </trkpt>
      <trkpt lat="42.63152654282748699188232421875" lon="19.90759377367794513702392578125">
        <ele>1330.5999755859375</ele>
        <time>2026-06-16T07:18:06.000Z</time>
        <extensions>
          <ns3:TrackPointExtension>
            <ns3:atemp>15.0</ns3:atemp>
          </ns3:TrackPointExtension>
        </extensions>
      </trkpt>
      <trkpt lat="42.63151313178241252899169921875" lon="19.90756058134138584136962890625">
        <ele>1330.800048828125</ele>
        <time>2026-06-16T07:18:07.000Z</time>
        <extensions>
          <ns3:TrackPointExtension>
            <ns3:atemp>15.0</ns3:atemp>
          </ns3:TrackPointExtension>
        </extensions>
      </trkpt>
      <trkpt lat="42.63149569742381572723388671875" lon="19.9075291492044925689697265625">
        <ele>1331</ele>
        <time>2026-06-16T07:18:08.000Z</time>
        <extensions>
          <ns3:TrackPointExtension>
            <ns3:atemp>15.0</ns3:atemp>
          </ns3:TrackPointExtension>
        </extensions>
      </trkpt>
      <trkpt lat="42.631479017436504364013671875" lon="19.90750123746693134307861328125">
        <ele>1331.199951171875</ele>
        <time>2026-06-16T07:18:09.000Z</time>
        <extensions>
          <ns3:TrackPointExtension>
            <ns3:atemp>15.0</ns3:atemp>
          </ns3:TrackPointExtension>
        </extensions>
      </trkpt>
      <trkpt lat="42.6314644329249858856201171875" lon="19.90747508592903614044189453125">
        <ele>1331.4000244140625</ele>
        <time>2026-06-16T07:18:10.000Z</time>
        <extensions>
          <ns3:TrackPointExtension>
            <ns3:atemp>15.0</ns3:atemp>
          </ns3:TrackPointExtension>
        </extensions>
      </trkpt>
      <trkpt lat="42.631450854241847991943359375" lon="19.90745119750499725341796875">
        <ele>1331.5999755859375</ele>
        <time>2026-06-16T07:18:11.000Z</time>
        <extensions>
          <ns3:TrackPointExtension>
            <ns3:atemp>15.0</ns3:atemp>
          </ns3:TrackPointExtension>
        </extensions>
      </trkpt>
      <trkpt lat="42.63143367134034633636474609375" lon="19.9074258841574192047119140625">
        <ele>1331.5999755859375</ele>
        <time>2026-06-16T07:18:12.000Z</time>
        <extensions>
          <ns3:TrackPointExtension>
            <ns3:atemp>15.0</ns3:atemp>
          </ns3:TrackPointExtension>
        </extensions>
      </trkpt>
      <trkpt lat="42.6314191706478595733642578125" lon="19.90740501321852207183837890625">
        <ele>1331.800048828125</ele>
        <time>2026-06-16T07:18:13.000Z</time>
        <extensions>
          <ns3:TrackPointExtension>
            <ns3:atemp>15.0</ns3:atemp>
          </ns3:TrackPointExtension>
        </extensions>
      </trkpt>
      <trkpt lat="42.63140500523149967193603515625" lon="19.9073859862983226776123046875">
        <ele>1332</ele>
        <time>2026-06-16T07:18:14.000Z</time>
        <extensions>
          <ns3:TrackPointExtension>
            <ns3:atemp>15.0</ns3:atemp>
          </ns3:TrackPointExtension>
        </extensions>
      </trkpt>
      <trkpt lat="42.63139109127223491668701171875" lon="19.90736746229231357574462890625">
        <ele>1332.4000244140625</ele>
        <time>2026-06-16T07:18:15.000Z</time>
        <extensions>
          <ns3:TrackPointExtension>
            <ns3:atemp>15.0</ns3:atemp>
          </ns3:TrackPointExtension>
        </extensions>
      </trkpt>
      <trkpt lat="42.63138036243617534637451171875" lon="19.9073494412004947662353515625">
        <ele>1332.5999755859375</ele>
        <time>2026-06-16T07:18:16.000Z</time>
        <extensions>
          <ns3:TrackPointExtension>
            <ns3:atemp>15.0</ns3:atemp>
          </ns3:TrackPointExtension>
        </extensions>
      </trkpt>
      <trkpt lat="42.63136460445821285247802734375" lon="19.90732823498547077178955078125">
        <ele>1332.800048828125</ele>
        <time>2026-06-16T07:18:17.000Z</time>
        <extensions>
          <ns3:TrackPointExtension>
            <ns3:atemp>15.0</ns3:atemp>
          </ns3:TrackPointExtension>
        </extensions>
      </trkpt>
      <trkpt lat="42.6313501037657260894775390625" lon="19.90730635821819305419921875">
        <ele>1333.199951171875</ele>
        <time>2026-06-16T07:18:18.000Z</time>
        <extensions>
          <ns3:TrackPointExtension>
            <ns3:atemp>15.0</ns3:atemp>
          </ns3:TrackPointExtension>
        </extensions>
      </trkpt>
      <trkpt lat="42.63133694417774677276611328125" lon="19.907283224165439605712890625">
        <ele>1333.4000244140625</ele>
        <time>2026-06-16T07:18:19.000Z</time>
        <extensions>
          <ns3:TrackPointExtension>
            <ns3:atemp>15.0</ns3:atemp>
          </ns3:TrackPointExtension>
        </extensions>
      </trkpt>
      <trkpt lat="42.63132085092365741729736328125" lon="19.90725799463689327239990234375">
        <ele>1333.800048828125</ele>
        <time>2026-06-16T07:18:20.000Z</time>
        <extensions>
          <ns3:TrackPointExtension>
            <ns3:atemp>15.0</ns3:atemp>
          </ns3:TrackPointExtension>
        </extensions>
      </trkpt>
      <trkpt lat="42.6313050091266632080078125" lon="19.90723402239382266998291015625">
        <ele>1334</ele>
        <time>2026-06-16T07:18:21.000Z</time>
        <extensions>
          <ns3:TrackPointExtension>
            <ns3:atemp>15.0</ns3:atemp>
          </ns3:TrackPointExtension>
        </extensions>
      </trkpt>
      <trkpt lat="42.6312934421002864837646484375" lon="19.90721105597913265228271484375">
        <ele>1334.4000244140625</ele>
        <time>2026-06-16T07:18:22.000Z</time>
        <extensions>
          <ns3:TrackPointExtension>
            <ns3:atemp>15.0</ns3:atemp>
          </ns3:TrackPointExtension>
        </extensions>
      </trkpt>
      <trkpt lat="42.63128162361681461334228515625" lon="19.907185323536396026611328125">
        <ele>1334.5999755859375</ele>
        <time>2026-06-16T07:18:23.000Z</time>
        <extensions>
          <ns3:TrackPointExtension>
            <ns3:atemp>15.0</ns3:atemp>
          </ns3:TrackPointExtension>
        </extensions>
      </trkpt>
      <trkpt lat="42.63126452453434467315673828125" lon="19.90715573541820049285888671875">
        <ele>1334.800048828125</ele>
        <time>2026-06-16T07:18:24.000Z</time>
        <extensions>
          <ns3:TrackPointExtension>
            <ns3:atemp>15.0</ns3:atemp>
          </ns3:TrackPointExtension>
        </extensions>
      </trkpt>
      <trkpt lat="42.63125128112733364105224609375" lon="19.9071313440799713134765625">
        <ele>1335.199951171875</ele>
        <time>2026-06-16T07:18:25.000Z</time>
        <extensions>
          <ns3:TrackPointExtension>
            <ns3:atemp>15.0</ns3:atemp>
          </ns3:TrackPointExtension>
        </extensions>
      </trkpt>
      <trkpt lat="42.6312397979199886322021484375" lon="19.90710712037980556488037109375">
        <ele>1335.4000244140625</ele>
        <time>2026-06-16T07:18:26.000Z</time>
        <extensions>
          <ns3:TrackPointExtension>
            <ns3:atemp>16.0</ns3:atemp>
          </ns3:TrackPointExtension>
        </extensions>
      </trkpt>
      <trkpt lat="42.6312220282852649688720703125" lon="19.90708013065159320831298828125">
        <ele>1335.5999755859375</ele>
        <time>2026-06-16T07:18:27.000Z</time>
        <extensions>
          <ns3:TrackPointExtension>
            <ns3:atemp>15.0</ns3:atemp>
          </ns3:TrackPointExtension>
        </extensions>
      </trkpt>
      <trkpt lat="42.6312102936208248138427734375" lon="19.90705817006528377532958984375">
        <ele>1335.800048828125</ele>
        <time>2026-06-16T07:18:28.000Z</time>
        <extensions>
          <ns3:TrackPointExtension>
            <ns3:atemp>15.0</ns3:atemp>
          </ns3:TrackPointExtension>
        </extensions>
      </trkpt>
      <trkpt lat="42.631196714937686920166015625" lon="19.90703721530735492706298828125">
        <ele>1336</ele>
        <time>2026-06-16T07:18:29.000Z</time>
        <extensions>
          <ns3:TrackPointExtension>
            <ns3:atemp>15.0</ns3:atemp>
          </ns3:TrackPointExtension>
        </extensions>
      </trkpt>
      <trkpt lat="42.631182968616485595703125" lon="19.90701324306428432464599609375">
        <ele>1336.199951171875</ele>
        <time>2026-06-16T07:18:30.000Z</time>
        <extensions>
          <ns3:TrackPointExtension>
            <ns3:atemp>15.0</ns3:atemp>
          </ns3:TrackPointExtension>
        </extensions>
      </trkpt>
      <trkpt lat="42.63117047958076000213623046875" lon="19.906990528106689453125">
        <ele>1336.4000244140625</ele>
        <time>2026-06-16T07:18:31.000Z</time>
        <extensions>
          <ns3:TrackPointExtension>
            <ns3:atemp>15.0</ns3:atemp>
          </ns3:TrackPointExtension>
        </extensions>
      </trkpt>
      <trkpt lat="42.63115975074470043182373046875" lon="19.9069699086248874664306640625">
        <ele>1336.5999755859375</ele>
        <time>2026-06-16T07:18:32.000Z</time>
        <extensions>
          <ns3:TrackPointExtension>
            <ns3:atemp>15.0</ns3:atemp>
          </ns3:TrackPointExtension>
        </extensions>
      </trkpt>
      <trkpt lat="42.6311469264328479766845703125" lon="19.9069544859230518341064453125">
        <ele>1336.800048828125</ele>
        <time>2026-06-16T07:18:33.000Z</time>
        <extensions>
          <ns3:TrackPointExtension>
            <ns3:atemp>15.0</ns3:atemp>
          </ns3:TrackPointExtension>
        </extensions>
      </trkpt>
      <trkpt lat="42.63113477267324924468994140625" lon="19.90693780593574047088623046875">
        <ele>1337</ele>
        <time>2026-06-16T07:18:34.000Z</time>
        <extensions>
          <ns3:TrackPointExtension>
            <ns3:atemp>15.0</ns3:atemp>
          </ns3:TrackPointExtension>
        </extensions>
      </trkpt>
      <trkpt lat="42.63111918233335018157958984375" lon="19.90692473016679286956787109375">
        <ele>1337.199951171875</ele>
        <time>2026-06-16T07:18:35.000Z</time>
        <extensions>
          <ns3:TrackPointExtension>
            <ns3:atemp>15.0</ns3:atemp>
          </ns3:TrackPointExtension>
        </extensions>
      </trkpt>
      <trkpt lat="42.63110191561281681060791015625" lon="19.90690997801721096038818359375">
        <ele>1337.5999755859375</ele>
        <time>2026-06-16T07:18:36.000Z</time>
        <extensions>
          <ns3:TrackPointExtension>
            <ns3:atemp>15.0</ns3:atemp>
          </ns3:TrackPointExtension>
        </extensions>
      </trkpt>
      <trkpt lat="42.63108900748193264007568359375" lon="19.9068981595337390899658203125">
        <ele>1337.800048828125</ele>
        <time>2026-06-16T07:18:37.000Z</time>
        <extensions>
          <ns3:TrackPointExtension>
            <ns3:atemp>15.0</ns3:atemp>
          </ns3:TrackPointExtension>
        </extensions>
      </trkpt>
      <trkpt lat="42.63107324950397014617919921875" lon="19.90688634105026721954345703125">
        <ele>1338</ele>
        <time>2026-06-16T07:18:38.000Z</time>
        <extensions>
          <ns3:TrackPointExtension>
            <ns3:atemp>15.0</ns3:atemp>
          </ns3:TrackPointExtension>
        </extensions>
      </trkpt>
      <trkpt lat="42.6310557313263416290283203125" lon="19.9068726785480976104736328125">
        <ele>1338.4000244140625</ele>
        <time>2026-06-16T07:18:39.000Z</time>
        <extensions>
          <ns3:TrackPointExtension>
            <ns3:atemp>15.0</ns3:atemp>
          </ns3:TrackPointExtension>
        </extensions>
      </trkpt>
      <trkpt lat="42.63103771023452281951904296875" lon="19.9068532325327396392822265625">
        <ele>1338.5999755859375</ele>
        <time>2026-06-16T07:18:40.000Z</time>
        <extensions>
          <ns3:TrackPointExtension>
            <ns3:atemp>15.0</ns3:atemp>
          </ns3:TrackPointExtension>
        </extensions>
      </trkpt>
      <trkpt lat="42.63102279044687747955322265625" lon="19.906831271946430206298828125">
        <ele>1339</ele>
        <time>2026-06-16T07:18:41.000Z</time>
        <extensions>
          <ns3:TrackPointExtension>
            <ns3:atemp>15.0</ns3:atemp>
          </ns3:TrackPointExtension>
        </extensions>
      </trkpt>
      <trkpt lat="42.631009630858898162841796875" lon="19.90680956281721591949462890625">
        <ele>1339.199951171875</ele>
        <time>2026-06-16T07:18:42.000Z</time>
        <extensions>
          <ns3:TrackPointExtension>
            <ns3:atemp>15.0</ns3:atemp>
          </ns3:TrackPointExtension>
        </extensions>
      </trkpt>
      <trkpt lat="42.6309977285563945770263671875" lon="19.9067851714789867401123046875">
        <ele>1339.4000244140625</ele>
        <time>2026-06-16T07:18:43.000Z</time>
        <extensions>
          <ns3:TrackPointExtension>
            <ns3:atemp>15.0</ns3:atemp>
          </ns3:TrackPointExtension>
        </extensions>
      </trkpt>
      <trkpt lat="42.63098658062517642974853515625" lon="19.9067652225494384765625">
        <ele>1339.5999755859375</ele>
        <time>2026-06-16T07:18:44.000Z</time>
        <extensions>
          <ns3:TrackPointExtension>
            <ns3:atemp>15.0</ns3:atemp>
          </ns3:TrackPointExtension>
        </extensions>
      </trkpt>
      <trkpt lat="42.63098037801682949066162109375" lon="19.906750135123729705810546875">
        <ele>1340</ele>
        <time>2026-06-16T07:18:45.000Z</time>
        <extensions>
          <ns3:TrackPointExtension>
            <ns3:atemp>15.0</ns3:atemp>
          </ns3:TrackPointExtension>
        </extensions>
      </trkpt>
      <trkpt lat="42.63097618706524372100830078125" lon="19.90673345513641834259033203125">
        <ele>1340.199951171875</ele>
        <time>2026-06-16T07:18:46.000Z</time>
        <extensions>
          <ns3:TrackPointExtension>
            <ns3:atemp>15.0</ns3:atemp>
          </ns3:TrackPointExtension>
        </extensions>
      </trkpt>
      <trkpt lat="42.6309705711901187896728515625" lon="19.9067161045968532562255859375">
        <ele>1340.5999755859375</ele>
        <time>2026-06-16T07:18:47.000Z</time>
        <extensions>
          <ns3:TrackPointExtension>
            <ns3:atemp>16.0</ns3:atemp>
          </ns3:TrackPointExtension>
        </extensions>
      </trkpt>
      <trkpt lat="42.63096126727759838104248046875" lon="19.906698167324066162109375">
        <ele>1341</ele>
        <time>2026-06-16T07:18:48.000Z</time>
        <extensions>
          <ns3:TrackPointExtension>
            <ns3:atemp>16.0</ns3:atemp>
          </ns3:TrackPointExtension>
        </extensions>
      </trkpt>
      <trkpt lat="42.63095162808895111083984375" lon="19.9066798947751522064208984375">
        <ele>1341.199951171875</ele>
        <time>2026-06-16T07:18:49.000Z</time>
        <extensions>
          <ns3:TrackPointExtension>
            <ns3:atemp>15.0</ns3:atemp>
          </ns3:TrackPointExtension>
        </extensions>
      </trkpt>
      <trkpt lat="42.63094366528093814849853515625" lon="19.90665852092206478118896484375">
        <ele>1341.5999755859375</ele>
        <time>2026-06-16T07:18:50.000Z</time>
        <extensions>
          <ns3:TrackPointExtension>
            <ns3:atemp>15.0</ns3:atemp>
          </ns3:TrackPointExtension>
        </extensions>
      </trkpt>
      <trkpt lat="42.63093310408294200897216796875" lon="19.90664779208600521087646484375">
        <ele>1341.800048828125</ele>
        <time>2026-06-16T07:18:51.000Z</time>
        <extensions>
          <ns3:TrackPointExtension>
            <ns3:atemp>15.0</ns3:atemp>
          </ns3:TrackPointExtension>
        </extensions>
      </trkpt>
      <trkpt lat="42.63092287816107273101806640625" lon="19.906635470688343048095703125">
        <ele>1342.199951171875</ele>
        <time>2026-06-16T07:18:52.000Z</time>
        <extensions>
          <ns3:TrackPointExtension>
            <ns3:atemp>15.0</ns3:atemp>
          </ns3:TrackPointExtension>
        </extensions>
      </trkpt>
      <trkpt lat="42.63091030530631542205810546875" lon="19.90661828778684139251708984375">
        <ele>1342.5999755859375</ele>
        <time>2026-06-16T07:18:53.000Z</time>
        <extensions>
          <ns3:TrackPointExtension>
            <ns3:atemp>15.0</ns3:atemp>
          </ns3:TrackPointExtension>
        </extensions>
      </trkpt>
      <trkpt lat="42.6308958046138286590576171875" lon="19.9066014401614665985107421875">
        <ele>1342.800048828125</ele>
        <time>2026-06-16T07:18:54.000Z</time>
        <extensions>
          <ns3:TrackPointExtension>
            <ns3:atemp>15.0</ns3:atemp>
          </ns3:TrackPointExtension>
        </extensions>
      </trkpt>
      <trkpt lat="42.63087962754070758819580078125" lon="19.90657805465161800384521484375">
        <ele>1343</ele>
        <time>2026-06-16T07:18:55.000Z</time>
        <extensions>
          <ns3:TrackPointExtension>
            <ns3:atemp>15.0</ns3:atemp>
          </ns3:TrackPointExtension>
        </extensions>
      </trkpt>
      <trkpt lat="42.63086521066725254058837890625" lon="19.9065581895411014556884765625">
        <ele>1343.4000244140625</ele>
        <time>2026-06-16T07:18:56.000Z</time>
        <extensions>
          <ns3:TrackPointExtension>
            <ns3:atemp>15.0</ns3:atemp>
          </ns3:TrackPointExtension>
        </extensions>
      </trkpt>
      <trkpt lat="42.63085297308862209320068359375" lon="19.9065412580966949462890625">
        <ele>1343.5999755859375</ele>
        <time>2026-06-16T07:18:57.000Z</time>
        <extensions>
          <ns3:TrackPointExtension>
            <ns3:atemp>15.0</ns3:atemp>
          </ns3:TrackPointExtension>
        </extensions>
      </trkpt>
      <trkpt lat="42.6308421604335308074951171875" lon="19.9065239913761615753173828125">
        <ele>1343.800048828125</ele>
        <time>2026-06-16T07:18:58.000Z</time>
        <extensions>
          <ns3:TrackPointExtension>
            <ns3:atemp>15.0</ns3:atemp>
          </ns3:TrackPointExtension>
        </extensions>
      </trkpt>
      <trkpt lat="42.63083185069262981414794921875" lon="19.9065068922936916351318359375">
        <ele>1344</ele>
        <time>2026-06-16T07:18:59.000Z</time>
        <extensions>
          <ns3:TrackPointExtension>
            <ns3:atemp>15.0</ns3:atemp>
          </ns3:TrackPointExtension>
        </extensions>
      </trkpt>
      <trkpt lat="42.6308170147240161895751953125" lon="19.90649356506764888763427734375">
        <ele>1344.4000244140625</ele>
        <time>2026-06-16T07:19:00.000Z</time>
        <extensions>
          <ns3:TrackPointExtension>
            <ns3:atemp>16.0</ns3:atemp>
          </ns3:TrackPointExtension>
        </extensions>
      </trkpt>
      <trkpt lat="42.630806453526020050048828125" lon="19.906472526490688323974609375">
        <ele>1344.5999755859375</ele>
        <time>2026-06-16T07:19:01.000Z</time>
        <extensions>
          <ns3:TrackPointExtension>
            <ns3:atemp>16.0</ns3:atemp>
          </ns3:TrackPointExtension>
        </extensions>
      </trkpt>
      <trkpt lat="42.630796730518341064453125" lon="19.90645852871239185333251953125">
        <ele>1345</ele>
        <time>2026-06-16T07:19:02.000Z</time>
        <extensions>
          <ns3:TrackPointExtension>
            <ns3:atemp>15.0</ns3:atemp>
          </ns3:TrackPointExtension>
        </extensions>
      </trkpt>
      <trkpt lat="42.63078658841550350189208984375" lon="19.906442351639270782470703125">
        <ele>1345.199951171875</ele>
        <time>2026-06-16T07:19:03.000Z</time>
        <extensions>
          <ns3:TrackPointExtension>
            <ns3:atemp>15.0</ns3:atemp>
          </ns3:TrackPointExtension>
        </extensions>
      </trkpt>
      <trkpt lat="42.6307774521410465240478515625" lon="19.9064213968813419342041015625">
        <ele>1345.4000244140625</ele>
        <time>2026-06-16T07:19:04.000Z</time>
        <extensions>
          <ns3:TrackPointExtension>
            <ns3:atemp>15.0</ns3:atemp>
          </ns3:TrackPointExtension>
        </extensions>
      </trkpt>
      <trkpt lat="42.63076789677143096923828125" lon="19.90639918483793735504150390625">
        <ele>1345.800048828125</ele>
        <time>2026-06-16T07:19:05.000Z</time>
        <extensions>
          <ns3:TrackPointExtension>
            <ns3:atemp>15.0</ns3:atemp>
          </ns3:TrackPointExtension>
        </extensions>
      </trkpt>
      <trkpt lat="42.6307606883347034454345703125" lon="19.90638024173676967620849609375">
        <ele>1346</ele>
        <time>2026-06-16T07:19:06.000Z</time>
        <extensions>
          <ns3:TrackPointExtension>
            <ns3:atemp>15.0</ns3:atemp>
          </ns3:TrackPointExtension>
        </extensions>
      </trkpt>
      <trkpt lat="42.63074920512735843658447265625" lon="19.9063654057681560516357421875">
        <ele>1346.199951171875</ele>
        <time>2026-06-16T07:19:07.000Z</time>
        <extensions>
          <ns3:TrackPointExtension>
            <ns3:atemp>15.0</ns3:atemp>
          </ns3:TrackPointExtension>
        </extensions>
      </trkpt>
      <trkpt lat="42.63073973357677459716796875" lon="19.90634202025830745697021484375">
        <ele>1346.5999755859375</ele>
        <time>2026-06-16T07:19:08.000Z</time>
        <extensions>
          <ns3:TrackPointExtension>
            <ns3:atemp>15.0</ns3:atemp>
          </ns3:TrackPointExtension>
        </extensions>
      </trkpt>
      <trkpt lat="42.63072791509330272674560546875" lon="19.90631905384361743927001953125">
        <ele>1346.800048828125</ele>
        <time>2026-06-16T07:19:09.000Z</time>
        <extensions>
          <ns3:TrackPointExtension>
            <ns3:atemp>15.0</ns3:atemp>
          </ns3:TrackPointExtension>
        </extensions>
      </trkpt>
      <trkpt lat="42.63071869499981403350830078125" lon="19.90629918873310089111328125">
        <ele>1347</ele>
        <time>2026-06-16T07:19:10.000Z</time>
        <extensions>
          <ns3:TrackPointExtension>
            <ns3:atemp>15.0</ns3:atemp>
          </ns3:TrackPointExtension>
        </extensions>
      </trkpt>
      <trkpt lat="42.63070830143988132476806640625" lon="19.9062810838222503662109375">
        <ele>1347.199951171875</ele>
        <time>2026-06-16T07:19:11.000Z</time>
        <extensions>
          <ns3:TrackPointExtension>
            <ns3:atemp>15.0</ns3:atemp>
          </ns3:TrackPointExtension>
        </extensions>
      </trkpt>
      <trkpt lat="42.63069723732769489288330078125" lon="19.9062607996165752410888671875">
        <ele>1347.4000244140625</ele>
        <time>2026-06-16T07:19:12.000Z</time>
        <extensions>
          <ns3:TrackPointExtension>
            <ns3:atemp>15.0</ns3:atemp>
          </ns3:TrackPointExtension>
        </extensions>
      </trkpt>
      <trkpt lat="42.63068885542452335357666015625" lon="19.906241856515407562255859375">
        <ele>1347.5999755859375</ele>
        <time>2026-06-16T07:19:13.000Z</time>
        <extensions>
          <ns3:TrackPointExtension>
            <ns3:atemp>16.0</ns3:atemp>
          </ns3:TrackPointExtension>
        </extensions>
      </trkpt>
      <trkpt lat="42.6306808926165103912353515625" lon="19.9062162078917026519775390625">
        <ele>1347.800048828125</ele>
        <time>2026-06-16T07:19:14.000Z</time>
        <extensions>
          <ns3:TrackPointExtension>
            <ns3:atemp>15.0</ns3:atemp>
          </ns3:TrackPointExtension>
        </extensions>
      </trkpt>
      <trkpt lat="42.63066957704722881317138671875" lon="19.9061925709247589111328125">
        <ele>1348</ele>
        <time>2026-06-16T07:19:15.000Z</time>
        <extensions>
          <ns3:TrackPointExtension>
            <ns3:atemp>15.0</ns3:atemp>
          </ns3:TrackPointExtension>
        </extensions>
      </trkpt>
      <trkpt lat="42.63065851293504238128662109375" lon="19.90617136470973491668701171875">
        <ele>1348.199951171875</ele>
        <time>2026-06-16T07:19:16.000Z</time>
        <extensions>
          <ns3:TrackPointExtension>
            <ns3:atemp>15.0</ns3:atemp>
          </ns3:TrackPointExtension>
        </extensions>
      </trkpt>
      <trkpt lat="42.63064694590866565704345703125" lon="19.9061488173902034759521484375">
        <ele>1348.4000244140625</ele>
        <time>2026-06-16T07:19:17.000Z</time>
        <extensions>
          <ns3:TrackPointExtension>
            <ns3:atemp>15.0</ns3:atemp>
          </ns3:TrackPointExtension>
        </extensions>
      </trkpt>
      <trkpt lat="42.6306366361677646636962890625" lon="19.90612794645130634307861328125">
        <ele>1348.5999755859375</ele>
        <time>2026-06-16T07:19:18.000Z</time>
        <extensions>
          <ns3:TrackPointExtension>
            <ns3:atemp>15.0</ns3:atemp>
          </ns3:TrackPointExtension>
        </extensions>
      </trkpt>
      <trkpt lat="42.63062414713203907012939453125" lon="19.9061089195311069488525390625">
        <ele>1348.800048828125</ele>
        <time>2026-06-16T07:19:19.000Z</time>
        <extensions>
          <ns3:TrackPointExtension>
            <ns3:atemp>15.0</ns3:atemp>
          </ns3:TrackPointExtension>
        </extensions>
      </trkpt>
      <trkpt lat="42.63061291538178920745849609375" lon="19.906089641153812408447265625">
        <ele>1349</ele>
        <time>2026-06-16T07:19:20.000Z</time>
        <extensions>
          <ns3:TrackPointExtension>
            <ns3:atemp>15.0</ns3:atemp>
          </ns3:TrackPointExtension>
        </extensions>
      </trkpt>
      <trkpt lat="42.6306049525737762451171875" lon="19.90606583654880523681640625">
        <ele>1349.199951171875</ele>
        <time>2026-06-16T07:19:21.000Z</time>
        <extensions>
          <ns3:TrackPointExtension>
            <ns3:atemp>15.0</ns3:atemp>
          </ns3:TrackPointExtension>
        </extensions>
      </trkpt>
      <trkpt lat="42.63059481047093868255615234375" lon="19.906046390533447265625">
        <ele>1349.4000244140625</ele>
        <time>2026-06-16T07:19:22.000Z</time>
        <extensions>
          <ns3:TrackPointExtension>
            <ns3:atemp>15.0</ns3:atemp>
          </ns3:TrackPointExtension>
        </extensions>
      </trkpt>
      <trkpt lat="42.63058391399681568145751953125" lon="19.90602903999388217926025390625">
        <ele>1349.5999755859375</ele>
        <time>2026-06-16T07:19:23.000Z</time>
        <extensions>
          <ns3:TrackPointExtension>
            <ns3:atemp>15.0</ns3:atemp>
          </ns3:TrackPointExtension>
        </extensions>
      </trkpt>
      <trkpt lat="42.63056941330432891845703125" lon="19.9060147069394588470458984375">
        <ele>1349.800048828125</ele>
        <time>2026-06-16T07:19:24.000Z</time>
        <extensions>
          <ns3:TrackPointExtension>
            <ns3:atemp>15.0</ns3:atemp>
          </ns3:TrackPointExtension>
        </extensions>
      </trkpt>
      <trkpt lat="42.6305524818599224090576171875" lon="19.906001128256320953369140625">
        <ele>1350</ele>
        <time>2026-06-16T07:19:25.000Z</time>
        <extensions>
          <ns3:TrackPointExtension>
            <ns3:atemp>15.0</ns3:atemp>
          </ns3:TrackPointExtension>
        </extensions>
      </trkpt>
      <trkpt lat="42.63053999282419681549072265625" lon="19.90598813630640506744384765625">
        <ele>1350.199951171875</ele>
        <time>2026-06-16T07:19:26.000Z</time>
        <extensions>
          <ns3:TrackPointExtension>
            <ns3:atemp>15.0</ns3:atemp>
          </ns3:TrackPointExtension>
        </extensions>
      </trkpt>
      <trkpt lat="42.63052959926426410675048828125" lon="19.9059753119945526123046875">
        <ele>1350.4000244140625</ele>
        <time>2026-06-16T07:19:27.000Z</time>
        <extensions>
          <ns3:TrackPointExtension>
            <ns3:atemp>15.0</ns3:atemp>
          </ns3:TrackPointExtension>
        </extensions>
      </trkpt>
      <trkpt lat="42.6305152662098407745361328125" lon="19.90595318377017974853515625">
        <ele>1350.5999755859375</ele>
        <time>2026-06-16T07:19:28.000Z</time>
        <extensions>
          <ns3:TrackPointExtension>
            <ns3:atemp>15.0</ns3:atemp>
          </ns3:TrackPointExtension>
        </extensions>
      </trkpt>
      <trkpt lat="42.6305005140602588653564453125" lon="19.90593499504029750823974609375">
        <ele>1350.800048828125</ele>
        <time>2026-06-16T07:19:29.000Z</time>
        <extensions>
          <ns3:TrackPointExtension>
            <ns3:atemp>15.0</ns3:atemp>
          </ns3:TrackPointExtension>
        </extensions>
      </trkpt>
      <trkpt lat="42.63048752211034297943115234375" lon="19.90591286681592464447021484375">
        <ele>1351</ele>
        <time>2026-06-16T07:19:30.000Z</time>
        <extensions>
          <ns3:TrackPointExtension>
            <ns3:atemp>15.0</ns3:atemp>
          </ns3:TrackPointExtension>
        </extensions>
      </trkpt>
      <trkpt lat="42.63047645799815654754638671875" lon="19.90589207969605922698974609375">
        <ele>1351.4000244140625</ele>
        <time>2026-06-16T07:19:31.000Z</time>
        <extensions>
          <ns3:TrackPointExtension>
            <ns3:atemp>15.0</ns3:atemp>
          </ns3:TrackPointExtension>
        </extensions>
      </trkpt>
      <trkpt lat="42.63046623207628726959228515625" lon="19.90587330423295497894287109375">
        <ele>1351.5999755859375</ele>
        <time>2026-06-16T07:19:32.000Z</time>
        <extensions>
          <ns3:TrackPointExtension>
            <ns3:atemp>15.0</ns3:atemp>
          </ns3:TrackPointExtension>
        </extensions>
      </trkpt>
      <trkpt lat="42.63045516796410083770751953125" lon="19.9058520980179309844970703125">
        <ele>1351.800048828125</ele>
        <time>2026-06-16T07:19:33.000Z</time>
        <extensions>
          <ns3:TrackPointExtension>
            <ns3:atemp>15.0</ns3:atemp>
          </ns3:TrackPointExtension>
        </extensions>
      </trkpt>
      <trkpt lat="42.63044175691902637481689453125" lon="19.905833490192890167236328125">
        <ele>1352</ele>
        <time>2026-06-16T07:19:34.000Z</time>
        <extensions>
          <ns3:TrackPointExtension>
            <ns3:atemp>16.0</ns3:atemp>
          </ns3:TrackPointExtension>
        </extensions>
      </trkpt>
      <trkpt lat="42.63042884878814220428466796875" lon="19.905818402767181396484375">
        <ele>1352.199951171875</ele>
        <time>2026-06-16T07:19:35.000Z</time>
        <extensions>
          <ns3:TrackPointExtension>
            <ns3:atemp>16.0</ns3:atemp>
          </ns3:TrackPointExtension>
        </extensions>
      </trkpt>
      <trkpt lat="42.63041459955275058746337890625" lon="19.90580172277987003326416015625">
        <ele>1352.4000244140625</ele>
        <time>2026-06-16T07:19:36.000Z</time>
        <extensions>
          <ns3:TrackPointExtension>
            <ns3:atemp>16.0</ns3:atemp>
          </ns3:TrackPointExtension>
        </extensions>
      </trkpt>
      <trkpt lat="42.630402781069278717041015625" lon="19.90578479133546352386474609375">
        <ele>1352.5999755859375</ele>
        <time>2026-06-16T07:19:37.000Z</time>
        <extensions>
          <ns3:TrackPointExtension>
            <ns3:atemp>16.0</ns3:atemp>
          </ns3:TrackPointExtension>
        </extensions>
      </trkpt>
      <trkpt lat="42.630388028919696807861328125" lon="19.90576383657753467559814453125">
        <ele>1352.800048828125</ele>
        <time>2026-06-16T07:19:38.000Z</time>
        <extensions>
          <ns3:TrackPointExtension>
            <ns3:atemp>16.0</ns3:atemp>
          </ns3:TrackPointExtension>
        </extensions>
      </trkpt>
      <trkpt lat="42.63037637807428836822509765625" lon="19.90574539639055728912353515625">
        <ele>1353</ele>
        <time>2026-06-16T07:19:39.000Z</time>
        <extensions>
          <ns3:TrackPointExtension>
            <ns3:atemp>15.0</ns3:atemp>
          </ns3:TrackPointExtension>
        </extensions>
      </trkpt>
      <trkpt lat="42.630357854068279266357421875" lon="19.9057290516793727874755859375">
        <ele>1353.199951171875</ele>
        <time>2026-06-16T07:19:40.000Z</time>
        <extensions>
          <ns3:TrackPointExtension>
            <ns3:atemp>15.0</ns3:atemp>
          </ns3:TrackPointExtension>
        </extensions>
      </trkpt>
      <trkpt lat="42.63034318573772907257080078125" lon="19.90571354515850543975830078125">
        <ele>1353.5999755859375</ele>
        <time>2026-06-16T07:19:41.000Z</time>
        <extensions>
          <ns3:TrackPointExtension>
            <ns3:atemp>16.0</ns3:atemp>
          </ns3:TrackPointExtension>
        </extensions>
      </trkpt>
      <trkpt lat="42.63032801449298858642578125" lon="19.9056975357234477996826171875">
        <ele>1353.800048828125</ele>
        <time>2026-06-16T07:19:42.000Z</time>
        <extensions>
          <ns3:TrackPointExtension>
            <ns3:atemp>16.0</ns3:atemp>
          </ns3:TrackPointExtension>
        </extensions>
      </trkpt>
      <trkpt lat="42.6303154416382312774658203125" lon="19.90567968226969242095947265625">
        <ele>1354</ele>
        <time>2026-06-16T07:19:43.000Z</time>
        <extensions>
          <ns3:TrackPointExtension>
            <ns3:atemp>16.0</ns3:atemp>
          </ns3:TrackPointExtension>
        </extensions>
      </trkpt>
      <trkpt lat="42.63030295260250568389892578125" lon="19.90566543303430080413818359375">
        <ele>1354.199951171875</ele>
        <time>2026-06-16T07:19:44.000Z</time>
        <extensions>
          <ns3:TrackPointExtension>
            <ns3:atemp>16.0</ns3:atemp>
          </ns3:TrackPointExtension>
        </extensions>
      </trkpt>
      <trkpt lat="42.63028836809098720550537109375" lon="19.90565487183630466461181640625">
        <ele>1354.4000244140625</ele>
        <time>2026-06-16T07:19:45.000Z</time>
        <extensions>
          <ns3:TrackPointExtension>
            <ns3:atemp>16.0</ns3:atemp>
          </ns3:TrackPointExtension>
        </extensions>
      </trkpt>
      <trkpt lat="42.6302755437791347503662109375" lon="19.90563995204865932464599609375">
        <ele>1354.800048828125</ele>
        <time>2026-06-16T07:19:46.000Z</time>
        <extensions>
          <ns3:TrackPointExtension>
            <ns3:atemp>16.0</ns3:atemp>
          </ns3:TrackPointExtension>
        </extensions>
      </trkpt>
      <trkpt lat="42.630261294543743133544921875" lon="19.90562721155583858489990234375">
        <ele>1355</ele>
        <time>2026-06-16T07:19:47.000Z</time>
        <extensions>
          <ns3:TrackPointExtension>
            <ns3:atemp>16.0</ns3:atemp>
          </ns3:TrackPointExtension>
        </extensions>
      </trkpt>
      <trkpt lat="42.6302490569651126861572265625" lon="19.90561044774949550628662109375">
        <ele>1355.199951171875</ele>
        <time>2026-06-16T07:19:48.000Z</time>
        <extensions>
          <ns3:TrackPointExtension>
            <ns3:atemp>16.0</ns3:atemp>
          </ns3:TrackPointExtension>
        </extensions>
      </trkpt>
      <trkpt lat="42.63023640029132366180419921875" lon="19.90559318102896213531494140625">
        <ele>1355.5999755859375</ele>
        <time>2026-06-16T07:19:49.000Z</time>
        <extensions>
          <ns3:TrackPointExtension>
            <ns3:atemp>16.0</ns3:atemp>
          </ns3:TrackPointExtension>
        </extensions>
      </trkpt>
      <trkpt lat="42.630220390856266021728515625" lon="19.90557658486068248748779296875">
        <ele>1355.800048828125</ele>
        <time>2026-06-16T07:19:50.000Z</time>
        <extensions>
          <ns3:TrackPointExtension>
            <ns3:atemp>15.0</ns3:atemp>
          </ns3:TrackPointExtension>
        </extensions>
      </trkpt>
      <trkpt lat="42.63020488433539867401123046875" lon="19.905558563768863677978515625">
        <ele>1356</ele>
        <time>2026-06-16T07:19:51.000Z</time>
        <extensions>
          <ns3:TrackPointExtension>
            <ns3:atemp>15.0</ns3:atemp>
          </ns3:TrackPointExtension>
        </extensions>
      </trkpt>
      <trkpt lat="42.63019264675676822662353515625" lon="19.90553987212479114532470703125">
        <ele>1356.4000244140625</ele>
        <time>2026-06-16T07:19:52.000Z</time>
        <extensions>
          <ns3:TrackPointExtension>
            <ns3:atemp>15.0</ns3:atemp>
          </ns3:TrackPointExtension>
        </extensions>
      </trkpt>
      <trkpt lat="42.63018049299716949462890625" lon="19.905517660081386566162109375">
        <ele>1356.5999755859375</ele>
        <time>2026-06-16T07:19:53.000Z</time>
        <extensions>
          <ns3:TrackPointExtension>
            <ns3:atemp>16.0</ns3:atemp>
          </ns3:TrackPointExtension>
        </extensions>
      </trkpt>
      <trkpt lat="42.6301706023514270782470703125" lon="19.905499555170536041259765625">
        <ele>1356.800048828125</ele>
        <time>2026-06-16T07:19:54.000Z</time>
        <extensions>
          <ns3:TrackPointExtension>
            <ns3:atemp>15.0</ns3:atemp>
          </ns3:TrackPointExtension>
        </extensions>
      </trkpt>
      <trkpt lat="42.630158700048923492431640625" lon="19.9054829590022563934326171875">
        <ele>1357</ele>
        <time>2026-06-16T07:19:55.000Z</time>
        <extensions>
          <ns3:TrackPointExtension>
            <ns3:atemp>15.0</ns3:atemp>
          </ns3:TrackPointExtension>
        </extensions>
      </trkpt>
      <trkpt lat="42.63014604337513446807861328125" lon="19.9054618366062641143798828125">
        <ele>1357.199951171875</ele>
        <time>2026-06-16T07:19:56.000Z</time>
        <extensions>
          <ns3:TrackPointExtension>
            <ns3:atemp>15.0</ns3:atemp>
          </ns3:TrackPointExtension>
        </extensions>
      </trkpt>
      <trkpt lat="42.630132548511028289794921875" lon="19.90544046275317668914794921875">
        <ele>1357.4000244140625</ele>
        <time>2026-06-16T07:19:57.000Z</time>
        <extensions>
          <ns3:TrackPointExtension>
            <ns3:atemp>15.0</ns3:atemp>
          </ns3:TrackPointExtension>
        </extensions>
      </trkpt>
      <trkpt lat="42.63012575916945934295654296875" lon="19.90542101673781871795654296875">
        <ele>1357.5999755859375</ele>
        <time>2026-06-16T07:19:58.000Z</time>
        <extensions>
          <ns3:TrackPointExtension>
            <ns3:atemp>15.0</ns3:atemp>
          </ns3:TrackPointExtension>
        </extensions>
      </trkpt>
      <trkpt lat="42.63011670671403408050537109375" lon="19.90539939142763614654541015625">
        <ele>1358</ele>
        <time>2026-06-16T07:19:59.000Z</time>
        <extensions>
          <ns3:TrackPointExtension>
            <ns3:atemp>15.0</ns3:atemp>
          </ns3:TrackPointExtension>
        </extensions>
      </trkpt>
      <trkpt lat="42.6301092468202114105224609375" lon="19.9053770117461681365966796875">
        <ele>1358.199951171875</ele>
        <time>2026-06-16T07:20:00.000Z</time>
        <extensions>
          <ns3:TrackPointExtension>
            <ns3:atemp>15.0</ns3:atemp>
          </ns3:TrackPointExtension>
        </extensions>
      </trkpt>
      <trkpt lat="42.63010296039283275604248046875" lon="19.9053555540740489959716796875">
        <ele>1358.4000244140625</ele>
        <time>2026-06-16T07:20:01.000Z</time>
        <extensions>
          <ns3:TrackPointExtension>
            <ns3:atemp>15.0</ns3:atemp>
          </ns3:TrackPointExtension>
        </extensions>
      </trkpt>
      <trkpt lat="42.63009675778448581695556640625" lon="19.90533418022096157073974609375">
        <ele>1358.5999755859375</ele>
        <time>2026-06-16T07:20:02.000Z</time>
        <extensions>
          <ns3:TrackPointExtension>
            <ns3:atemp>15.0</ns3:atemp>
          </ns3:TrackPointExtension>
        </extensions>
      </trkpt>
      <trkpt lat="42.63009130954742431640625" lon="19.90531347692012786865234375">
        <ele>1358.800048828125</ele>
        <time>2026-06-16T07:20:03.000Z</time>
        <extensions>
          <ns3:TrackPointExtension>
            <ns3:atemp>15.0</ns3:atemp>
          </ns3:TrackPointExtension>
        </extensions>
      </trkpt>
      <trkpt lat="42.63008301146328449249267578125" lon="19.90528875030577182769775390625">
        <ele>1359</ele>
        <time>2026-06-16T07:20:04.000Z</time>
        <extensions>
          <ns3:TrackPointExtension>
            <ns3:atemp>15.0</ns3:atemp>
          </ns3:TrackPointExtension>
        </extensions>
      </trkpt>
      <trkpt lat="42.63007949106395244598388671875" lon="19.90526712499558925628662109375">
        <ele>1359.199951171875</ele>
        <time>2026-06-16T07:20:05.000Z</time>
        <extensions>
          <ns3:TrackPointExtension>
            <ns3:atemp>16.0</ns3:atemp>
          </ns3:TrackPointExtension>
        </extensions>
      </trkpt>
      <trkpt lat="42.63006859458982944488525390625" lon="19.90524684078991413116455078125">
        <ele>1359.4000244140625</ele>
        <time>2026-06-16T07:20:06.000Z</time>
        <extensions>
          <ns3:TrackPointExtension>
            <ns3:atemp>16.0</ns3:atemp>
          </ns3:TrackPointExtension>
        </extensions>
      </trkpt>
      <trkpt lat="42.63006021268665790557861328125" lon="19.90522923879325389862060546875">
        <ele>1359.5999755859375</ele>
        <time>2026-06-16T07:20:07.000Z</time>
        <extensions>
          <ns3:TrackPointExtension>
            <ns3:atemp>16.0</ns3:atemp>
          </ns3:TrackPointExtension>
        </extensions>
      </trkpt>
      <trkpt lat="42.630052082240581512451171875" lon="19.90520811639726161956787109375">
        <ele>1359.800048828125</ele>
        <time>2026-06-16T07:20:08.000Z</time>
        <extensions>
          <ns3:TrackPointExtension>
            <ns3:atemp>16.0</ns3:atemp>
          </ns3:TrackPointExtension>
        </extensions>
      </trkpt>
      <trkpt lat="42.630041353404521942138671875" lon="19.90519269369542598724365234375">
        <ele>1360</ele>
        <time>2026-06-16T07:20:09.000Z</time>
        <extensions>
          <ns3:TrackPointExtension>
            <ns3:atemp>16.0</ns3:atemp>
          </ns3:TrackPointExtension>
        </extensions>
      </trkpt>
      <trkpt lat="42.6300311274826526641845703125" lon="19.90517341531813144683837890625">
        <ele>1360.199951171875</ele>
        <time>2026-06-16T07:20:10.000Z</time>
        <extensions>
          <ns3:TrackPointExtension>
            <ns3:atemp>16.0</ns3:atemp>
          </ns3:TrackPointExtension>
        </extensions>
      </trkpt>
      <trkpt lat="42.63002065010368824005126953125" lon="19.9051513709127902984619140625">
        <ele>1360.4000244140625</ele>
        <time>2026-06-16T07:20:11.000Z</time>
        <extensions>
          <ns3:TrackPointExtension>
            <ns3:atemp>16.0</ns3:atemp>
          </ns3:TrackPointExtension>
        </extensions>
      </trkpt>
      <trkpt lat="42.630008161067962646484375" lon="19.90513100288808345794677734375">
        <ele>1360.5999755859375</ele>
        <time>2026-06-16T07:20:12.000Z</time>
        <extensions>
          <ns3:TrackPointExtension>
            <ns3:atemp>16.0</ns3:atemp>
          </ns3:TrackPointExtension>
        </extensions>
      </trkpt>
      <trkpt lat="42.63000153936445713043212890625" lon="19.9051067791879177093505859375">
        <ele>1360.800048828125</ele>
        <time>2026-06-16T07:20:13.000Z</time>
        <extensions>
          <ns3:TrackPointExtension>
            <ns3:atemp>15.0</ns3:atemp>
          </ns3:TrackPointExtension>
        </extensions>
      </trkpt>
      <trkpt lat="42.62999407947063446044921875" lon="19.9050789512693881988525390625">
        <ele>1361</ele>
        <time>2026-06-16T07:20:14.000Z</time>
        <extensions>
          <ns3:TrackPointExtension>
            <ns3:atemp>15.0</ns3:atemp>
          </ns3:TrackPointExtension>
        </extensions>
      </trkpt>
      <trkpt lat="42.62998997233808040618896484375" lon="19.90505439229309558868408203125">
        <ele>1361.4000244140625</ele>
        <time>2026-06-16T07:20:15.000Z</time>
        <extensions>
          <ns3:TrackPointExtension>
            <ns3:atemp>16.0</ns3:atemp>
          </ns3:TrackPointExtension>
        </extensions>
      </trkpt>
      <trkpt lat="42.62998209334909915924072265625" lon="19.905034862458705902099609375">
        <ele>1361.5999755859375</ele>
        <time>2026-06-16T07:20:16.000Z</time>
        <extensions>
          <ns3:TrackPointExtension>
            <ns3:atemp>16.0</ns3:atemp>
          </ns3:TrackPointExtension>
        </extensions>
      </trkpt>
      <trkpt lat="42.62997253797948360443115234375" lon="19.90502069704234600067138671875">
        <ele>1361.800048828125</ele>
        <time>2026-06-16T07:20:17.000Z</time>
        <extensions>
          <ns3:TrackPointExtension>
            <ns3:atemp>16.0</ns3:atemp>
          </ns3:TrackPointExtension>
        </extensions>
      </trkpt>
      <trkpt lat="42.6299607194960117340087890625" lon="19.9050021730363368988037109375">
        <ele>1362.199951171875</ele>
        <time>2026-06-16T07:20:18.000Z</time>
        <extensions>
          <ns3:TrackPointExtension>
            <ns3:atemp>16.0</ns3:atemp>
          </ns3:TrackPointExtension>
        </extensions>
      </trkpt>
      <trkpt lat="42.62994973920285701751708984375" lon="19.90498431958258152008056640625">
        <ele>1362.4000244140625</ele>
        <time>2026-06-16T07:20:19.000Z</time>
        <extensions>
          <ns3:TrackPointExtension>
            <ns3:atemp>16.0</ns3:atemp>
          </ns3:TrackPointExtension>
        </extensions>
      </trkpt>
      <trkpt lat="42.6299426145851612091064453125" lon="19.9049646221101284027099609375">
        <ele>1362.800048828125</ele>
        <time>2026-06-16T07:20:20.000Z</time>
        <extensions>
          <ns3:TrackPointExtension>
            <ns3:atemp>16.0</ns3:atemp>
          </ns3:TrackPointExtension>
        </extensions>
      </trkpt>
      <trkpt lat="42.62993465177714824676513671875" lon="19.90494375117123126983642578125">
        <ele>1363</ele>
        <time>2026-06-16T07:20:21.000Z</time>
        <extensions>
          <ns3:TrackPointExtension>
            <ns3:atemp>16.0</ns3:atemp>
          </ns3:TrackPointExtension>
        </extensions>
      </trkpt>
      <trkpt lat="42.62992409057915210723876953125" lon="19.90492522716522216796875">
        <ele>1363.4000244140625</ele>
        <time>2026-06-16T07:20:22.000Z</time>
        <extensions>
          <ns3:TrackPointExtension>
            <ns3:atemp>16.0</ns3:atemp>
          </ns3:TrackPointExtension>
        </extensions>
      </trkpt>
      <trkpt lat="42.62991495430469512939453125" lon="19.9049019254744052886962890625">
        <ele>1363.5999755859375</ele>
        <time>2026-06-16T07:20:23.000Z</time>
        <extensions>
          <ns3:TrackPointExtension>
            <ns3:atemp>16.0</ns3:atemp>
          </ns3:TrackPointExtension>
        </extensions>
      </trkpt>
      <trkpt lat="42.6299037225544452667236328125" lon="19.9048784561455249786376953125">
        <ele>1363.800048828125</ele>
        <time>2026-06-16T07:20:24.000Z</time>
        <extensions>
          <ns3:TrackPointExtension>
            <ns3:atemp>16.0</ns3:atemp>
          </ns3:TrackPointExtension>
        </extensions>
      </trkpt>
      <trkpt lat="42.62989391572773456573486328125" lon="19.90485674701631069183349609375">
        <ele>1364.199951171875</ele>
        <time>2026-06-16T07:20:25.000Z</time>
        <extensions>
          <ns3:TrackPointExtension>
            <ns3:atemp>16.0</ns3:atemp>
          </ns3:TrackPointExtension>
        </extensions>
      </trkpt>
      <trkpt lat="42.62988276779651641845703125" lon="19.9048338644206523895263671875">
        <ele>1364.4000244140625</ele>
        <time>2026-06-16T07:20:26.000Z</time>
        <extensions>
          <ns3:TrackPointExtension>
            <ns3:atemp>16.0</ns3:atemp>
          </ns3:TrackPointExtension>
        </extensions>
      </trkpt>
      <trkpt lat="42.6298712007701396942138671875" lon="19.90481601096689701080322265625">
        <ele>1364.800048828125</ele>
        <time>2026-06-16T07:20:27.000Z</time>
        <extensions>
          <ns3:TrackPointExtension>
            <ns3:atemp>16.0</ns3:atemp>
          </ns3:TrackPointExtension>
        </extensions>
      </trkpt>
      <trkpt lat="42.62985804118216037750244140625" lon="19.9047939665615558624267578125">
        <ele>1365</ele>
        <time>2026-06-16T07:20:28.000Z</time>
        <extensions>
          <ns3:TrackPointExtension>
            <ns3:atemp>16.0</ns3:atemp>
          </ns3:TrackPointExtension>
        </extensions>
      </trkpt>
      <trkpt lat="42.6298514194786548614501953125" lon="19.90477292798459529876708984375">
        <ele>1365.199951171875</ele>
        <time>2026-06-16T07:20:29.000Z</time>
        <extensions>
          <ns3:TrackPointExtension>
            <ns3:atemp>16.0</ns3:atemp>
          </ns3:TrackPointExtension>
        </extensions>
      </trkpt>
      <trkpt lat="42.62984546832740306854248046875" lon="19.90474979393184185028076171875">
        <ele>1365.4000244140625</ele>
        <time>2026-06-16T07:20:30.000Z</time>
        <extensions>
          <ns3:TrackPointExtension>
            <ns3:atemp>16.0</ns3:atemp>
          </ns3:TrackPointExtension>
        </extensions>
      </trkpt>
      <trkpt lat="42.62983373366296291351318359375" lon="19.90472096018493175506591796875">
        <ele>1365.5999755859375</ele>
        <time>2026-06-16T07:20:31.000Z</time>
        <extensions>
          <ns3:TrackPointExtension>
            <ns3:atemp>16.0</ns3:atemp>
          </ns3:TrackPointExtension>
        </extensions>
      </trkpt>
      <trkpt lat="42.62982375919818878173828125" lon="19.90469715557992458343505859375">
        <ele>1365.800048828125</ele>
        <time>2026-06-16T07:20:32.000Z</time>
        <extensions>
          <ns3:TrackPointExtension>
            <ns3:atemp>16.0</ns3:atemp>
          </ns3:TrackPointExtension>
        </extensions>
      </trkpt>
      <trkpt lat="42.62981495819985866546630859375" lon="19.90467318333685398101806640625">
        <ele>1366</ele>
        <time>2026-06-16T07:20:33.000Z</time>
        <extensions>
          <ns3:TrackPointExtension>
            <ns3:atemp>16.0</ns3:atemp>
          </ns3:TrackPointExtension>
        </extensions>
      </trkpt>
      <trkpt lat="42.629803307354450225830078125" lon="19.90465365350246429443359375">
        <ele>1366.199951171875</ele>
        <time>2026-06-16T07:20:34.000Z</time>
        <extensions>
          <ns3:TrackPointExtension>
            <ns3:atemp>15.0</ns3:atemp>
          </ns3:TrackPointExtension>
        </extensions>
      </trkpt>
      <trkpt lat="42.6297903992235660552978515625" lon="19.9046330340206623077392578125">
        <ele>1366.4000244140625</ele>
        <time>2026-06-16T07:20:35.000Z</time>
        <extensions>
          <ns3:TrackPointExtension>
            <ns3:atemp>15.0</ns3:atemp>
          </ns3:TrackPointExtension>
        </extensions>
      </trkpt>
      <trkpt lat="42.629775144159793853759765625" lon="19.90461870096623897552490234375">
        <ele>1366.5999755859375</ele>
        <time>2026-06-16T07:20:36.000Z</time>
        <extensions>
          <ns3:TrackPointExtension>
            <ns3:atemp>16.0</ns3:atemp>
          </ns3:TrackPointExtension>
        </extensions>
      </trkpt>
      <trkpt lat="42.6297625713050365447998046875" lon="19.90460193715989589691162109375">
        <ele>1366.800048828125</ele>
        <time>2026-06-16T07:20:37.000Z</time>
        <extensions>
          <ns3:TrackPointExtension>
            <ns3:atemp>16.0</ns3:atemp>
          </ns3:TrackPointExtension>
        </extensions>
      </trkpt>
      <trkpt lat="42.62975024990737438201904296875" lon="19.90458332933485507965087890625">
        <ele>1366.800048828125</ele>
        <time>2026-06-16T07:20:38.000Z</time>
        <extensions>
          <ns3:TrackPointExtension>
            <ns3:atemp>16.0</ns3:atemp>
          </ns3:TrackPointExtension>
        </extensions>
      </trkpt>
      <trkpt lat="42.6297391019761562347412109375" lon="19.90456572733819484710693359375">
        <ele>1367</ele>
        <time>2026-06-16T07:20:39.000Z</time>
        <extensions>
          <ns3:TrackPointExtension>
            <ns3:atemp>16.0</ns3:atemp>
          </ns3:TrackPointExtension>
        </extensions>
      </trkpt>
      <trkpt lat="42.62972594238817691802978515625" lon="19.9045488797128200531005859375">
        <ele>1367.199951171875</ele>
        <time>2026-06-16T07:20:40.000Z</time>
        <extensions>
          <ns3:TrackPointExtension>
            <ns3:atemp>16.0</ns3:atemp>
          </ns3:TrackPointExtension>
        </extensions>
      </trkpt>
      <trkpt lat="42.6297152973711490631103515625" lon="19.9045341275632381439208984375">
        <ele>1367.4000244140625</ele>
        <time>2026-06-16T07:20:41.000Z</time>
        <extensions>
          <ns3:TrackPointExtension>
            <ns3:atemp>16.0</ns3:atemp>
          </ns3:TrackPointExtension>
        </extensions>
      </trkpt>
      <trkpt lat="42.629702389240264892578125" lon="19.904518537223339080810546875">
        <ele>1367.5999755859375</ele>
        <time>2026-06-16T07:20:42.000Z</time>
        <extensions>
          <ns3:TrackPointExtension>
            <ns3:atemp>16.0</ns3:atemp>
          </ns3:TrackPointExtension>
        </extensions>
      </trkpt>
      <trkpt lat="42.6296898163855075836181640625" lon="19.9045022763311862945556640625">
        <ele>1367.800048828125</ele>
        <time>2026-06-16T07:20:43.000Z</time>
        <extensions>
          <ns3:TrackPointExtension>
            <ns3:atemp>16.0</ns3:atemp>
          </ns3:TrackPointExtension>
        </extensions>
      </trkpt>
      <trkpt lat="42.6296742260456085205078125" lon="19.90448794327676296234130859375">
        <ele>1368</ele>
        <time>2026-06-16T07:20:44.000Z</time>
        <extensions>
          <ns3:TrackPointExtension>
            <ns3:atemp>16.0</ns3:atemp>
          </ns3:TrackPointExtension>
        </extensions>
      </trkpt>
      <trkpt lat="42.62965871952474117279052734375" lon="19.9044721014797687530517578125">
        <ele>1368.199951171875</ele>
        <time>2026-06-16T07:20:45.000Z</time>
        <extensions>
          <ns3:TrackPointExtension>
            <ns3:atemp>16.0</ns3:atemp>
          </ns3:TrackPointExtension>
        </extensions>
      </trkpt>
      <trkpt lat="42.62964195571839809417724609375" lon="19.9044533260166645050048828125">
        <ele>1368.4000244140625</ele>
        <time>2026-06-16T07:20:46.000Z</time>
        <extensions>
          <ns3:TrackPointExtension>
            <ns3:atemp>16.0</ns3:atemp>
          </ns3:TrackPointExtension>
        </extensions>
      </trkpt>
      <trkpt lat="42.62962955050170421600341796875" lon="19.90443614311516284942626953125">
        <ele>1368.5999755859375</ele>
        <time>2026-06-16T07:20:47.000Z</time>
        <extensions>
          <ns3:TrackPointExtension>
            <ns3:atemp>16.0</ns3:atemp>
          </ns3:TrackPointExtension>
        </extensions>
      </trkpt>
      <trkpt lat="42.62961722910404205322265625" lon="19.90441820584237575531005859375">
        <ele>1368.800048828125</ele>
        <time>2026-06-16T07:20:48.000Z</time>
        <extensions>
          <ns3:TrackPointExtension>
            <ns3:atemp>16.0</ns3:atemp>
          </ns3:TrackPointExtension>
        </extensions>
      </trkpt>
      <trkpt lat="42.6296080090105533599853515625" lon="19.90439993329346179962158203125">
        <ele>1369.199951171875</ele>
        <time>2026-06-16T07:20:49.000Z</time>
        <extensions>
          <ns3:TrackPointExtension>
            <ns3:atemp>16.0</ns3:atemp>
          </ns3:TrackPointExtension>
        </extensions>
      </trkpt>
      <trkpt lat="42.62959484942257404327392578125" lon="19.904386103153228759765625">
        <ele>1369.4000244140625</ele>
        <time>2026-06-16T07:20:50.000Z</time>
        <extensions>
          <ns3:TrackPointExtension>
            <ns3:atemp>16.0</ns3:atemp>
          </ns3:TrackPointExtension>
        </extensions>
      </trkpt>
      <trkpt lat="42.62958579696714878082275390625" lon="19.90437394939363002777099609375">
        <ele>1369.5999755859375</ele>
        <time>2026-06-16T07:20:51.000Z</time>
        <extensions>
          <ns3:TrackPointExtension>
            <ns3:atemp>16.0</ns3:atemp>
          </ns3:TrackPointExtension>
        </extensions>
      </trkpt>
      <trkpt lat="42.62957322411239147186279296875" lon="19.9043606221675872802734375">
        <ele>1370</ele>
        <time>2026-06-16T07:20:52.000Z</time>
        <extensions>
          <ns3:TrackPointExtension>
            <ns3:atemp>16.0</ns3:atemp>
          </ns3:TrackPointExtension>
        </extensions>
      </trkpt>
      <trkpt lat="42.629563920199871063232421875" lon="19.9043467082083225250244140625">
        <ele>1370.199951171875</ele>
        <time>2026-06-16T07:20:53.000Z</time>
        <extensions>
          <ns3:TrackPointExtension>
            <ns3:atemp>16.0</ns3:atemp>
          </ns3:TrackPointExtension>
        </extensions>
      </trkpt>
      <trkpt lat="42.62955612502992153167724609375" lon="19.90432181395590305328369140625">
        <ele>1370.4000244140625</ele>
        <time>2026-06-16T07:20:54.000Z</time>
        <extensions>
          <ns3:TrackPointExtension>
            <ns3:atemp>16.0</ns3:atemp>
          </ns3:TrackPointExtension>
        </extensions>
      </trkpt>
      <trkpt lat="42.62954707257449626922607421875" lon="19.90430437959730625152587890625">
        <ele>1370.800048828125</ele>
        <time>2026-06-16T07:20:55.000Z</time>
        <extensions>
          <ns3:TrackPointExtension>
            <ns3:atemp>16.0</ns3:atemp>
          </ns3:TrackPointExtension>
        </extensions>
      </trkpt>
      <trkpt lat="42.62953768484294414520263671875" lon="19.90428728051483631134033203125">
        <ele>1371.199951171875</ele>
        <time>2026-06-16T07:20:56.000Z</time>
        <extensions>
          <ns3:TrackPointExtension>
            <ns3:atemp>16.0</ns3:atemp>
          </ns3:TrackPointExtension>
        </extensions>
      </trkpt>
      <trkpt lat="42.62952444143593311309814453125" lon="19.9042766354978084564208984375">
        <ele>1371.4000244140625</ele>
        <time>2026-06-16T07:20:57.000Z</time>
        <extensions>
          <ns3:TrackPointExtension>
            <ns3:atemp>16.0</ns3:atemp>
          </ns3:TrackPointExtension>
        </extensions>
      </trkpt>
      <trkpt lat="42.6295070908963680267333984375" lon="19.90426464937627315521240234375">
        <ele>1371.5999755859375</ele>
        <time>2026-06-16T07:20:58.000Z</time>
        <extensions>
          <ns3:TrackPointExtension>
            <ns3:atemp>16.0</ns3:atemp>
          </ns3:TrackPointExtension>
        </extensions>
      </trkpt>
      <trkpt lat="42.6294891536235809326171875" lon="19.90424654446542263031005859375">
        <ele>1372</ele>
        <time>2026-06-16T07:20:59.000Z</time>
        <extensions>
          <ns3:TrackPointExtension>
            <ns3:atemp>16.0</ns3:atemp>
          </ns3:TrackPointExtension>
        </extensions>
      </trkpt>
      <trkpt lat="42.62947046197950839996337890625" lon="19.90423254668712615966796875">
        <ele>1372.199951171875</ele>
        <time>2026-06-16T07:21:00.000Z</time>
        <extensions>
          <ns3:TrackPointExtension>
            <ns3:atemp>16.0</ns3:atemp>
          </ns3:TrackPointExtension>
        </extensions>
      </trkpt>
      <trkpt lat="42.62945386581122875213623046875" lon="19.9042223207652568817138671875">
        <ele>1372.4000244140625</ele>
        <time>2026-06-16T07:21:01.000Z</time>
        <extensions>
          <ns3:TrackPointExtension>
            <ns3:atemp>16.0</ns3:atemp>
          </ns3:TrackPointExtension>
        </extensions>
      </trkpt>
      <trkpt lat="42.62943475507199764251708984375" lon="19.9042042158544063568115234375">
        <ele>1372.800048828125</ele>
        <time>2026-06-16T07:21:02.000Z</time>
        <extensions>
          <ns3:TrackPointExtension>
            <ns3:atemp>16.0</ns3:atemp>
          </ns3:TrackPointExtension>
        </extensions>
      </trkpt>
      <trkpt lat="42.6294172368943691253662109375" lon="19.90418703295290470123291015625">
        <ele>1373</ele>
        <time>2026-06-16T07:21:03.000Z</time>
        <extensions>
          <ns3:TrackPointExtension>
            <ns3:atemp>16.0</ns3:atemp>
          </ns3:TrackPointExtension>
        </extensions>
      </trkpt>
      <trkpt lat="42.629401646554470062255859375" lon="19.904176555573940277099609375">
        <ele>1373.199951171875</ele>
        <time>2026-06-16T07:21:04.000Z</time>
        <extensions>
          <ns3:TrackPointExtension>
            <ns3:atemp>16.0</ns3:atemp>
          </ns3:TrackPointExtension>
        </extensions>
      </trkpt>
      <trkpt lat="42.6293872296810150146484375" lon="19.9041643179953098297119140625">
        <ele>1373.4000244140625</ele>
        <time>2026-06-16T07:21:05.000Z</time>
        <extensions>
          <ns3:TrackPointExtension>
            <ns3:atemp>15.0</ns3:atemp>
          </ns3:TrackPointExtension>
        </extensions>
      </trkpt>
      <trkpt lat="42.6293699629604816436767578125" lon="19.90414713509380817413330078125">
        <ele>1373.5999755859375</ele>
        <time>2026-06-16T07:21:06.000Z</time>
        <extensions>
          <ns3:TrackPointExtension>
            <ns3:atemp>15.0</ns3:atemp>
          </ns3:TrackPointExtension>
        </extensions>
      </trkpt>
      <trkpt lat="42.62935638427734375" lon="19.90413070656359195709228515625">
        <ele>1373.800048828125</ele>
        <time>2026-06-16T07:21:07.000Z</time>
        <extensions>
          <ns3:TrackPointExtension>
            <ns3:atemp>15.0</ns3:atemp>
          </ns3:TrackPointExtension>
        </extensions>
      </trkpt>
      <trkpt lat="42.62934104539453983306884765625" lon="19.90410690195858478546142578125">
        <ele>1373.800048828125</ele>
        <time>2026-06-16T07:21:08.000Z</time>
        <extensions>
          <ns3:TrackPointExtension>
            <ns3:atemp>16.0</ns3:atemp>
          </ns3:TrackPointExtension>
        </extensions>
      </trkpt>
      <trkpt lat="42.62933014892041683197021484375" lon="19.90408376790583133697509765625">
        <ele>1374.199951171875</ele>
        <time>2026-06-16T07:21:09.000Z</time>
        <extensions>
          <ns3:TrackPointExtension>
            <ns3:atemp>16.0</ns3:atemp>
          </ns3:TrackPointExtension>
        </extensions>
      </trkpt>
      <trkpt lat="42.62931925244629383087158203125" lon="19.9040627293288707733154296875">
        <ele>1374.4000244140625</ele>
        <time>2026-06-16T07:21:10.000Z</time>
        <extensions>
          <ns3:TrackPointExtension>
            <ns3:atemp>16.0</ns3:atemp>
          </ns3:TrackPointExtension>
        </extensions>
      </trkpt>
      <trkpt lat="42.6293121278285980224609375" lon="19.904033057391643524169921875">
        <ele>1374.4000244140625</ele>
        <time>2026-06-16T07:21:11.000Z</time>
        <extensions>
          <ns3:TrackPointExtension>
            <ns3:atemp>15.0</ns3:atemp>
          </ns3:TrackPointExtension>
        </extensions>
      </trkpt>
      <trkpt lat="42.6293079368770122528076171875" lon="19.90400791168212890625">
        <ele>1374.800048828125</ele>
        <time>2026-06-16T07:21:12.000Z</time>
        <extensions>
          <ns3:TrackPointExtension>
            <ns3:atemp>15.0</ns3:atemp>
          </ns3:TrackPointExtension>
        </extensions>
      </trkpt>
      <trkpt lat="42.62930131517350673675537109375" lon="19.903978407382965087890625">
        <ele>1375</ele>
        <time>2026-06-16T07:21:13.000Z</time>
        <extensions>
          <ns3:TrackPointExtension>
            <ns3:atemp>15.0</ns3:atemp>
          </ns3:TrackPointExtension>
        </extensions>
      </trkpt>
      <trkpt lat="42.62929662130773067474365234375" lon="19.90395518951117992401123046875">
        <ele>1375.199951171875</ele>
        <time>2026-06-16T07:21:14.000Z</time>
        <extensions>
          <ns3:TrackPointExtension>
            <ns3:atemp>15.0</ns3:atemp>
          </ns3:TrackPointExtension>
        </extensions>
      </trkpt>
      <trkpt lat="42.6292918436229228973388671875" lon="19.9039309658110141754150390625">
        <ele>1375.4000244140625</ele>
        <time>2026-06-16T07:21:15.000Z</time>
        <extensions>
          <ns3:TrackPointExtension>
            <ns3:atemp>15.0</ns3:atemp>
          </ns3:TrackPointExtension>
        </extensions>
      </trkpt>
      <trkpt lat="42.629291005432605743408203125" lon="19.90391395054757595062255859375">
        <ele>1375.5999755859375</ele>
        <time>2026-06-16T07:21:16.000Z</time>
        <extensions>
          <ns3:TrackPointExtension>
            <ns3:atemp>15.0</ns3:atemp>
          </ns3:TrackPointExtension>
        </extensions>
      </trkpt>
      <trkpt lat="42.62929108925163745880126953125" lon="19.903889559209346771240234375">
        <ele>1375.800048828125</ele>
        <time>2026-06-16T07:21:17.000Z</time>
        <extensions>
          <ns3:TrackPointExtension>
            <ns3:atemp>15.0</ns3:atemp>
          </ns3:TrackPointExtension>
        </extensions>
      </trkpt>
      <trkpt lat="42.6292901672422885894775390625" lon="19.9038662575185298919677734375">
        <ele>1376.199951171875</ele>
        <time>2026-06-16T07:21:18.000Z</time>
        <extensions>
          <ns3:TrackPointExtension>
            <ns3:atemp>15.0</ns3:atemp>
          </ns3:TrackPointExtension>
        </extensions>
      </trkpt>
      <trkpt lat="42.6292905025184154510498046875" lon="19.90384018979966640472412109375">
        <ele>1376.4000244140625</ele>
        <time>2026-06-16T07:21:19.000Z</time>
        <extensions>
          <ns3:TrackPointExtension>
            <ns3:atemp>15.0</ns3:atemp>
          </ns3:TrackPointExtension>
        </extensions>
      </trkpt>
      <trkpt lat="42.62929058633744716644287109375" lon="19.903818480670452117919921875">
        <ele>1376.800048828125</ele>
        <time>2026-06-16T07:21:20.000Z</time>
        <extensions>
          <ns3:TrackPointExtension>
            <ns3:atemp>15.0</ns3:atemp>
          </ns3:TrackPointExtension>
        </extensions>
      </trkpt>
      <trkpt lat="42.62928756885230541229248046875" lon="19.90380263887345790863037109375">
        <ele>1377</ele>
        <time>2026-06-16T07:21:21.000Z</time>
        <extensions>
          <ns3:TrackPointExtension>
            <ns3:atemp>15.0</ns3:atemp>
          </ns3:TrackPointExtension>
        </extensions>
      </trkpt>
      <trkpt lat="42.62928823940455913543701171875" lon="19.9037854559719562530517578125">
        <ele>1377.4000244140625</ele>
        <time>2026-06-16T07:21:22.000Z</time>
        <extensions>
          <ns3:TrackPointExtension>
            <ns3:atemp>15.0</ns3:atemp>
          </ns3:TrackPointExtension>
        </extensions>
      </trkpt>
      <trkpt lat="42.62929125688970088958740234375" lon="19.90376927889883518218994140625">
        <ele>1377.5999755859375</ele>
        <time>2026-06-16T07:21:23.000Z</time>
        <extensions>
          <ns3:TrackPointExtension>
            <ns3:atemp>15.0</ns3:atemp>
          </ns3:TrackPointExtension>
        </extensions>
      </trkpt>
      <trkpt lat="42.6292941905558109283447265625" lon="19.90374463610351085662841796875">
        <ele>1378</ele>
        <time>2026-06-16T07:21:24.000Z</time>
        <extensions>
          <ns3:TrackPointExtension>
            <ns3:atemp>15.0</ns3:atemp>
          </ns3:TrackPointExtension>
        </extensions>
      </trkpt>
      <trkpt lat="42.62929108925163745880126953125" lon="19.9037222564220428466796875">
        <ele>1378.199951171875</ele>
        <time>2026-06-16T07:21:25.000Z</time>
        <extensions>
          <ns3:TrackPointExtension>
            <ns3:atemp>15.0</ns3:atemp>
          </ns3:TrackPointExtension>
        </extensions>
      </trkpt>
      <trkpt lat="42.62928999960422515869140625" lon="19.903702475130558013916015625">
        <ele>1378.4000244140625</ele>
        <time>2026-06-16T07:21:26.000Z</time>
        <extensions>
          <ns3:TrackPointExtension>
            <ns3:atemp>16.0</ns3:atemp>
          </ns3:TrackPointExtension>
        </extensions>
      </trkpt>
      <trkpt lat="42.62928706593811511993408203125" lon="19.9036793410778045654296875">
        <ele>1378.4000244140625</ele>
        <time>2026-06-16T07:21:27.000Z</time>
        <extensions>
          <ns3:TrackPointExtension>
            <ns3:atemp>15.0</ns3:atemp>
          </ns3:TrackPointExtension>
        </extensions>
      </trkpt>
      <trkpt lat="42.62928371317684650421142578125" lon="19.9036510102450847625732421875">
        <ele>1378.4000244140625</ele>
        <time>2026-06-16T07:21:28.000Z</time>
        <extensions>
          <ns3:TrackPointExtension>
            <ns3:atemp>16.0</ns3:atemp>
          </ns3:TrackPointExtension>
        </extensions>
      </trkpt>
      <trkpt lat="42.62928186915814876556396484375" lon="19.903629384934902191162109375">
        <ele>1378.5999755859375</ele>
        <time>2026-06-16T07:21:29.000Z</time>
        <extensions>
          <ns3:TrackPointExtension>
            <ns3:atemp>16.0</ns3:atemp>
          </ns3:TrackPointExtension>
        </extensions>
      </trkpt>
      <trkpt lat="42.629274912178516387939453125" lon="19.90360666997730731964111328125">
        <ele>1379</ele>
        <time>2026-06-16T07:21:30.000Z</time>
        <extensions>
          <ns3:TrackPointExtension>
            <ns3:atemp>15.0</ns3:atemp>
          </ns3:TrackPointExtension>
        </extensions>
      </trkpt>
      <trkpt lat="42.629264183342456817626953125" lon="19.90358118899166584014892578125">
        <ele>1379.4000244140625</ele>
        <time>2026-06-16T07:21:31.000Z</time>
        <extensions>
          <ns3:TrackPointExtension>
            <ns3:atemp>15.0</ns3:atemp>
          </ns3:TrackPointExtension>
        </extensions>
      </trkpt>
      <trkpt lat="42.629251778125762939453125" lon="19.90355654619634151458740234375">
        <ele>1379.800048828125</ele>
        <time>2026-06-16T07:21:32.000Z</time>
        <extensions>
          <ns3:TrackPointExtension>
            <ns3:atemp>15.0</ns3:atemp>
          </ns3:TrackPointExtension>
        </extensions>
      </trkpt>
      <trkpt lat="42.6292383670806884765625" lon="19.90353173576295375823974609375">
        <ele>1380.199951171875</ele>
        <time>2026-06-16T07:21:33.000Z</time>
        <extensions>
          <ns3:TrackPointExtension>
            <ns3:atemp>15.0</ns3:atemp>
          </ns3:TrackPointExtension>
        </extensions>
      </trkpt>
      <trkpt lat="42.629225961863994598388671875" lon="19.90351111628115177154541015625">
        <ele>1380.5999755859375</ele>
        <time>2026-06-16T07:21:34.000Z</time>
        <extensions>
          <ns3:TrackPointExtension>
            <ns3:atemp>15.0</ns3:atemp>
          </ns3:TrackPointExtension>
        </extensions>
      </trkpt>
      <trkpt lat="42.6292174123227596282958984375" lon="19.903491251170635223388671875">
        <ele>1380.800048828125</ele>
        <time>2026-06-16T07:21:35.000Z</time>
        <extensions>
          <ns3:TrackPointExtension>
            <ns3:atemp>15.0</ns3:atemp>
          </ns3:TrackPointExtension>
        </extensions>
      </trkpt>
      <trkpt lat="42.6292056776583194732666015625" lon="19.90346954204142093658447265625">
        <ele>1381</ele>
        <time>2026-06-16T07:21:36.000Z</time>
        <extensions>
          <ns3:TrackPointExtension>
            <ns3:atemp>15.0</ns3:atemp>
          </ns3:TrackPointExtension>
        </extensions>
      </trkpt>
      <trkpt lat="42.62919452972710132598876953125" lon="19.903447329998016357421875">
        <ele>1381.199951171875</ele>
        <time>2026-06-16T07:21:37.000Z</time>
        <extensions>
          <ns3:TrackPointExtension>
            <ns3:atemp>15.0</ns3:atemp>
          </ns3:TrackPointExtension>
        </extensions>
      </trkpt>
      <trkpt lat="42.62918363325297832489013671875" lon="19.90342830307781696319580078125">
        <ele>1381.5999755859375</ele>
        <time>2026-06-16T07:21:38.000Z</time>
        <extensions>
          <ns3:TrackPointExtension>
            <ns3:atemp>15.0</ns3:atemp>
          </ns3:TrackPointExtension>
        </extensions>
      </trkpt>
      <trkpt lat="42.62916888110339641571044921875" lon="19.90340969525277614593505859375">
        <ele>1381.800048828125</ele>
        <time>2026-06-16T07:21:39.000Z</time>
        <extensions>
          <ns3:TrackPointExtension>
            <ns3:atemp>15.0</ns3:atemp>
          </ns3:TrackPointExtension>
        </extensions>
      </trkpt>
      <trkpt lat="42.6291563920676708221435546875" lon="19.90339159034192562103271484375">
        <ele>1382</ele>
        <time>2026-06-16T07:21:40.000Z</time>
        <extensions>
          <ns3:TrackPointExtension>
            <ns3:atemp>15.0</ns3:atemp>
          </ns3:TrackPointExtension>
        </extensions>
      </trkpt>
      <trkpt lat="42.6291433162987232208251953125" lon="19.9033682048320770263671875">
        <ele>1382.199951171875</ele>
        <time>2026-06-16T07:21:41.000Z</time>
        <extensions>
          <ns3:TrackPointExtension>
            <ns3:atemp>15.0</ns3:atemp>
          </ns3:TrackPointExtension>
        </extensions>
      </trkpt>
      <trkpt lat="42.62912848033010959625244140625" lon="19.90334850735962390899658203125">
        <ele>1382.4000244140625</ele>
        <time>2026-06-16T07:21:42.000Z</time>
        <extensions>
          <ns3:TrackPointExtension>
            <ns3:atemp>15.0</ns3:atemp>
          </ns3:TrackPointExtension>
        </extensions>
      </trkpt>
      <trkpt lat="42.62911238707602024078369140625" lon="19.9033278040587902069091796875">
        <ele>1382.5999755859375</ele>
        <time>2026-06-16T07:21:43.000Z</time>
        <extensions>
          <ns3:TrackPointExtension>
            <ns3:atemp>15.0</ns3:atemp>
          </ns3:TrackPointExtension>
        </extensions>
      </trkpt>
      <trkpt lat="42.62909713201224803924560546875" lon="19.90330341272056102752685546875">
        <ele>1382.800048828125</ele>
        <time>2026-06-16T07:21:44.000Z</time>
        <extensions>
          <ns3:TrackPointExtension>
            <ns3:atemp>15.0</ns3:atemp>
          </ns3:TrackPointExtension>
        </extensions>
      </trkpt>
      <trkpt lat="42.62908288277685642242431640625" lon="19.9032801948487758636474609375">
        <ele>1383</ele>
        <time>2026-06-16T07:21:45.000Z</time>
        <extensions>
          <ns3:TrackPointExtension>
            <ns3:atemp>15.0</ns3:atemp>
          </ns3:TrackPointExtension>
        </extensions>
      </trkpt>
      <trkpt lat="42.6290655322372913360595703125" lon="19.90326083265244960784912109375">
        <ele>1383.199951171875</ele>
        <time>2026-06-16T07:21:46.000Z</time>
        <extensions>
          <ns3:TrackPointExtension>
            <ns3:atemp>15.0</ns3:atemp>
          </ns3:TrackPointExtension>
        </extensions>
      </trkpt>
      <trkpt lat="42.62904885224997997283935546875" lon="19.90323820151388645172119140625">
        <ele>1383.4000244140625</ele>
        <time>2026-06-16T07:21:47.000Z</time>
        <extensions>
          <ns3:TrackPointExtension>
            <ns3:atemp>15.0</ns3:atemp>
          </ns3:TrackPointExtension>
        </extensions>
      </trkpt>
      <trkpt lat="42.62903275899589061737060546875" lon="19.90321322344243526458740234375">
        <ele>1383.5999755859375</ele>
        <time>2026-06-16T07:21:48.000Z</time>
        <extensions>
          <ns3:TrackPointExtension>
            <ns3:atemp>15.0</ns3:atemp>
          </ns3:TrackPointExtension>
        </extensions>
      </trkpt>
      <trkpt lat="42.6290155760943889617919921875" lon="19.90319050848484039306640625">
        <ele>1383.800048828125</ele>
        <time>2026-06-16T07:21:49.000Z</time>
        <extensions>
          <ns3:TrackPointExtension>
            <ns3:atemp>15.0</ns3:atemp>
          </ns3:TrackPointExtension>
        </extensions>
      </trkpt>
      <trkpt lat="42.62900107540190219879150390625" lon="19.90317014046013355255126953125">
        <ele>1384</ele>
        <time>2026-06-16T07:21:50.000Z</time>
        <extensions>
          <ns3:TrackPointExtension>
            <ns3:atemp>15.0</ns3:atemp>
          </ns3:TrackPointExtension>
        </extensions>
      </trkpt>
      <trkpt lat="42.62898665852844715118408203125" lon="19.9031470902264118194580078125">
        <ele>1384.199951171875</ele>
        <time>2026-06-16T07:21:51.000Z</time>
        <extensions>
          <ns3:TrackPointExtension>
            <ns3:atemp>15.0</ns3:atemp>
          </ns3:TrackPointExtension>
        </extensions>
      </trkpt>
      <trkpt lat="42.62897324748337268829345703125" lon="19.9031269736588001251220703125">
        <ele>1384.4000244140625</ele>
        <time>2026-06-16T07:21:52.000Z</time>
        <extensions>
          <ns3:TrackPointExtension>
            <ns3:atemp>15.0</ns3:atemp>
          </ns3:TrackPointExtension>
        </extensions>
      </trkpt>
      <trkpt lat="42.6289622671902179718017578125" lon="19.9031061865389347076416015625">
        <ele>1384.5999755859375</ele>
        <time>2026-06-16T07:21:53.000Z</time>
        <extensions>
          <ns3:TrackPointExtension>
            <ns3:atemp>15.0</ns3:atemp>
          </ns3:TrackPointExtension>
        </extensions>
      </trkpt>
      <trkpt lat="42.6289498619735240936279296875" lon="19.90308665670454502105712890625">
        <ele>1384.800048828125</ele>
        <time>2026-06-16T07:21:54.000Z</time>
        <extensions>
          <ns3:TrackPointExtension>
            <ns3:atemp>15.0</ns3:atemp>
          </ns3:TrackPointExtension>
        </extensions>
      </trkpt>
      <trkpt lat="42.6289364509284496307373046875" lon="19.90307039581239223480224609375">
        <ele>1385.199951171875</ele>
        <time>2026-06-16T07:21:55.000Z</time>
        <extensions>
          <ns3:TrackPointExtension>
            <ns3:atemp>15.0</ns3:atemp>
          </ns3:TrackPointExtension>
        </extensions>
      </trkpt>
      <trkpt lat="42.62892245315015316009521484375" lon="19.9030535481870174407958984375">
        <ele>1385.4000244140625</ele>
        <time>2026-06-16T07:21:56.000Z</time>
        <extensions>
          <ns3:TrackPointExtension>
            <ns3:atemp>15.0</ns3:atemp>
          </ns3:TrackPointExtension>
        </extensions>
      </trkpt>
      <trkpt lat="42.6289099641144275665283203125" lon="19.90303636528551578521728515625">
        <ele>1385.5999755859375</ele>
        <time>2026-06-16T07:21:57.000Z</time>
        <extensions>
          <ns3:TrackPointExtension>
            <ns3:atemp>15.0</ns3:atemp>
          </ns3:TrackPointExtension>
        </extensions>
      </trkpt>
      <trkpt lat="42.628895379602909088134765625" lon="19.90301205776631832122802734375">
        <ele>1385.800048828125</ele>
        <time>2026-06-16T07:21:58.000Z</time>
        <extensions>
          <ns3:TrackPointExtension>
            <ns3:atemp>15.0</ns3:atemp>
          </ns3:TrackPointExtension>
        </extensions>
      </trkpt>
      <trkpt lat="42.62888087891042232513427734375" lon="19.9029948748648166656494140625">
        <ele>1386</ele>
        <time>2026-06-16T07:21:59.000Z</time>
        <extensions>
          <ns3:TrackPointExtension>
            <ns3:atemp>15.0</ns3:atemp>
          </ns3:TrackPointExtension>
        </extensions>
      </trkpt>
      <trkpt lat="42.6288647018373012542724609375" lon="19.90297417156398296356201171875">
        <ele>1386.199951171875</ele>
        <time>2026-06-16T07:22:00.000Z</time>
        <extensions>
          <ns3:TrackPointExtension>
            <ns3:atemp>15.0</ns3:atemp>
          </ns3:TrackPointExtension>
        </extensions>
      </trkpt>
      <trkpt lat="42.62885187752544879913330078125" lon="19.9029472656548023223876953125">
        <ele>1386.5999755859375</ele>
        <time>2026-06-16T07:22:01.000Z</time>
        <extensions>
          <ns3:TrackPointExtension>
            <ns3:atemp>15.0</ns3:atemp>
          </ns3:TrackPointExtension>
        </extensions>
      </trkpt>
      <trkpt lat="42.62883779592812061309814453125" lon="19.90292404778301715850830078125">
        <ele>1386.800048828125</ele>
        <time>2026-06-16T07:22:02.000Z</time>
        <extensions>
          <ns3:TrackPointExtension>
            <ns3:atemp>15.0</ns3:atemp>
          </ns3:TrackPointExtension>
        </extensions>
      </trkpt>
      <trkpt lat="42.62882824055850505828857421875" lon="19.90290326066315174102783203125">
        <ele>1387</ele>
        <time>2026-06-16T07:22:03.000Z</time>
        <extensions>
          <ns3:TrackPointExtension>
            <ns3:atemp>15.0</ns3:atemp>
          </ns3:TrackPointExtension>
        </extensions>
      </trkpt>
      <trkpt lat="42.62881700880825519561767578125" lon="19.90288247354328632354736328125">
        <ele>1387.199951171875</ele>
        <time>2026-06-16T07:22:04.000Z</time>
        <extensions>
          <ns3:TrackPointExtension>
            <ns3:atemp>15.0</ns3:atemp>
          </ns3:TrackPointExtension>
        </extensions>
      </trkpt>
      <trkpt lat="42.62880644761025905609130859375" lon="19.9028624407947063446044921875">
        <ele>1387.5999755859375</ele>
        <time>2026-06-16T07:22:05.000Z</time>
        <extensions>
          <ns3:TrackPointExtension>
            <ns3:atemp>15.0</ns3:atemp>
          </ns3:TrackPointExtension>
        </extensions>
      </trkpt>
      <trkpt lat="42.62879756279289722442626953125" lon="19.9028406478464603424072265625">
        <ele>1388</ele>
        <time>2026-06-16T07:22:06.000Z</time>
        <extensions>
          <ns3:TrackPointExtension>
            <ns3:atemp>15.0</ns3:atemp>
          </ns3:TrackPointExtension>
        </extensions>
      </trkpt>
      <trkpt lat="42.62879068963229656219482421875" lon="19.902816675603389739990234375">
        <ele>1388.199951171875</ele>
        <time>2026-06-16T07:22:07.000Z</time>
        <extensions>
          <ns3:TrackPointExtension>
            <ns3:atemp>15.0</ns3:atemp>
          </ns3:TrackPointExtension>
        </extensions>
      </trkpt>
      <trkpt lat="42.6287818886339664459228515625" lon="19.9027950502932071685791015625">
        <ele>1388.4000244140625</ele>
        <time>2026-06-16T07:22:08.000Z</time>
        <extensions>
          <ns3:TrackPointExtension>
            <ns3:atemp>15.0</ns3:atemp>
          </ns3:TrackPointExtension>
        </extensions>
      </trkpt>
      <trkpt lat="42.62877099215984344482421875" lon="19.90276814438402652740478515625">
        <ele>1388.800048828125</ele>
        <time>2026-06-16T07:22:09.000Z</time>
        <extensions>
          <ns3:TrackPointExtension>
            <ns3:atemp>15.0</ns3:atemp>
          </ns3:TrackPointExtension>
        </extensions>
      </trkpt>
      <trkpt lat="42.628758251667022705078125" lon="19.9027430824935436248779296875">
        <ele>1389</ele>
        <time>2026-06-16T07:22:10.000Z</time>
        <extensions>
          <ns3:TrackPointExtension>
            <ns3:atemp>15.0</ns3:atemp>
          </ns3:TrackPointExtension>
        </extensions>
      </trkpt>
      <trkpt lat="42.62874928303062915802001953125" lon="19.902726821601390838623046875">
        <ele>1389.199951171875</ele>
        <time>2026-06-16T07:22:11.000Z</time>
        <extensions>
          <ns3:TrackPointExtension>
            <ns3:atemp>15.0</ns3:atemp>
          </ns3:TrackPointExtension>
        </extensions>
      </trkpt>
      <trkpt lat="42.62873905710875988006591796875" lon="19.90270310081541538238525390625">
        <ele>1389.4000244140625</ele>
        <time>2026-06-16T07:22:12.000Z</time>
        <extensions>
          <ns3:TrackPointExtension>
            <ns3:atemp>15.0</ns3:atemp>
          </ns3:TrackPointExtension>
        </extensions>
      </trkpt>
      <trkpt lat="42.6287312619388103485107421875" lon="19.9026761949062347412109375">
        <ele>1389.800048828125</ele>
        <time>2026-06-16T07:22:13.000Z</time>
        <extensions>
          <ns3:TrackPointExtension>
            <ns3:atemp>15.0</ns3:atemp>
          </ns3:TrackPointExtension>
        </extensions>
      </trkpt>
      <trkpt lat="42.62872212566435337066650390625" lon="19.9026515521109104156494140625">
        <ele>1390</ele>
        <time>2026-06-16T07:22:14.000Z</time>
        <extensions>
          <ns3:TrackPointExtension>
            <ns3:atemp>15.0</ns3:atemp>
          </ns3:TrackPointExtension>
        </extensions>
      </trkpt>
      <trkpt lat="42.628712989389896392822265625" lon="19.90262883715331554412841796875">
        <ele>1390.4000244140625</ele>
        <time>2026-06-16T07:22:15.000Z</time>
        <extensions>
          <ns3:TrackPointExtension>
            <ns3:atemp>15.0</ns3:atemp>
          </ns3:TrackPointExtension>
        </extensions>
      </trkpt>
      <trkpt lat="42.6286977343261241912841796875" lon="19.9026076309382915496826171875">
        <ele>1390.5999755859375</ele>
        <time>2026-06-16T07:22:16.000Z</time>
        <extensions>
          <ns3:TrackPointExtension>
            <ns3:atemp>15.0</ns3:atemp>
          </ns3:TrackPointExtension>
        </extensions>
      </trkpt>
      <trkpt lat="42.628688178956508636474609375" lon="19.902590028941631317138671875">
        <ele>1390.800048828125</ele>
        <time>2026-06-16T07:22:17.000Z</time>
        <extensions>
          <ns3:TrackPointExtension>
            <ns3:atemp>15.0</ns3:atemp>
          </ns3:TrackPointExtension>
        </extensions>
      </trkpt>
      <trkpt lat="42.62867719866335391998291015625" lon="19.902573935687541961669921875">
        <ele>1391.199951171875</ele>
        <time>2026-06-16T07:22:18.000Z</time>
        <extensions>
          <ns3:TrackPointExtension>
            <ns3:atemp>15.0</ns3:atemp>
          </ns3:TrackPointExtension>
        </extensions>
      </trkpt>
      <trkpt lat="42.628667391836643218994140625" lon="19.90255474112927913665771484375">
        <ele>1391.4000244140625</ele>
        <time>2026-06-16T07:22:19.000Z</time>
        <extensions>
          <ns3:TrackPointExtension>
            <ns3:atemp>15.0</ns3:atemp>
          </ns3:TrackPointExtension>
        </extensions>
      </trkpt>
      <trkpt lat="42.6286551542580127716064453125" lon="19.90253512747585773468017578125">
        <ele>1391.5999755859375</ele>
        <time>2026-06-16T07:22:20.000Z</time>
        <extensions>
          <ns3:TrackPointExtension>
            <ns3:atemp>15.0</ns3:atemp>
          </ns3:TrackPointExtension>
        </extensions>
      </trkpt>
      <trkpt lat="42.6286383904516696929931640625" lon="19.9025204591453075408935546875">
        <ele>1392</ele>
        <time>2026-06-16T07:22:21.000Z</time>
        <extensions>
          <ns3:TrackPointExtension>
            <ns3:atemp>15.0</ns3:atemp>
          </ns3:TrackPointExtension>
        </extensions>
      </trkpt>
      <trkpt lat="42.6286172680556774139404296875" lon="19.90250243805348873138427734375">
        <ele>1392.199951171875</ele>
        <time>2026-06-16T07:22:22.000Z</time>
        <extensions>
          <ns3:TrackPointExtension>
            <ns3:atemp>15.0</ns3:atemp>
          </ns3:TrackPointExtension>
        </extensions>
      </trkpt>
      <trkpt lat="42.62860075570642948150634765625" lon="19.90248852409422397613525390625">
        <ele>1392.4000244140625</ele>
        <time>2026-06-16T07:22:23.000Z</time>
        <extensions>
          <ns3:TrackPointExtension>
            <ns3:atemp>15.0</ns3:atemp>
          </ns3:TrackPointExtension>
        </extensions>
      </trkpt>
      <trkpt lat="42.6285798847675323486328125" lon="19.90247293375432491302490234375">
        <ele>1392.5999755859375</ele>
        <time>2026-06-16T07:22:24.000Z</time>
        <extensions>
          <ns3:TrackPointExtension>
            <ns3:atemp>15.0</ns3:atemp>
          </ns3:TrackPointExtension>
        </extensions>
      </trkpt>
      <trkpt lat="42.62855909764766693115234375" lon="19.9024607799947261810302734375">
        <ele>1393</ele>
        <time>2026-06-16T07:22:25.000Z</time>
        <extensions>
          <ns3:TrackPointExtension>
            <ns3:atemp>15.0</ns3:atemp>
          </ns3:TrackPointExtension>
        </extensions>
      </trkpt>
      <trkpt lat="42.62854023836553096771240234375" lon="19.90244619548320770263671875">
        <ele>1393.199951171875</ele>
        <time>2026-06-16T07:22:26.000Z</time>
        <extensions>
          <ns3:TrackPointExtension>
            <ns3:atemp>15.0</ns3:atemp>
          </ns3:TrackPointExtension>
        </extensions>
      </trkpt>
      <trkpt lat="42.62852196581661701202392578125" lon="19.90242850966751575469970703125">
        <ele>1393.4000244140625</ele>
        <time>2026-06-16T07:22:27.000Z</time>
        <extensions>
          <ns3:TrackPointExtension>
            <ns3:atemp>15.0</ns3:atemp>
          </ns3:TrackPointExtension>
        </extensions>
      </trkpt>
      <trkpt lat="42.62850788421928882598876953125" lon="19.9024093151092529296875">
        <ele>1393.5999755859375</ele>
        <time>2026-06-16T07:22:28.000Z</time>
        <extensions>
          <ns3:TrackPointExtension>
            <ns3:atemp>15.0</ns3:atemp>
          </ns3:TrackPointExtension>
        </extensions>
      </trkpt>
      <trkpt lat="42.62849682010710239410400390625" lon="19.90238316357135772705078125">
        <ele>1393.800048828125</ele>
        <time>2026-06-16T07:22:29.000Z</time>
        <extensions>
          <ns3:TrackPointExtension>
            <ns3:atemp>15.0</ns3:atemp>
          </ns3:TrackPointExtension>
        </extensions>
      </trkpt>
      <trkpt lat="42.6284878514707088470458984375" lon="19.902355670928955078125">
        <ele>1394</ele>
        <time>2026-06-16T07:22:30.000Z</time>
        <extensions>
          <ns3:TrackPointExtension>
            <ns3:atemp>15.0</ns3:atemp>
          </ns3:TrackPointExtension>
        </extensions>
      </trkpt>
      <trkpt lat="42.62847729027271270751953125" lon="19.9023337103426456451416015625">
        <ele>1394.199951171875</ele>
        <time>2026-06-16T07:22:31.000Z</time>
        <extensions>
          <ns3:TrackPointExtension>
            <ns3:atemp>15.0</ns3:atemp>
          </ns3:TrackPointExtension>
        </extensions>
      </trkpt>
      <trkpt lat="42.6284754462540149688720703125" lon="19.90231133066117763519287109375">
        <ele>1394.4000244140625</ele>
        <time>2026-06-16T07:22:32.000Z</time>
        <extensions>
          <ns3:TrackPointExtension>
            <ns3:atemp>15.0</ns3:atemp>
          </ns3:TrackPointExtension>
        </extensions>
      </trkpt>
      <trkpt lat="42.628468908369541168212890625" lon="19.90228928625583648681640625">
        <ele>1394.5999755859375</ele>
        <time>2026-06-16T07:22:33.000Z</time>
        <extensions>
          <ns3:TrackPointExtension>
            <ns3:atemp>15.0</ns3:atemp>
          </ns3:TrackPointExtension>
        </extensions>
      </trkpt>
      <trkpt lat="42.628460191190242767333984375" lon="19.902268834412097930908203125">
        <ele>1394.800048828125</ele>
        <time>2026-06-16T07:22:34.000Z</time>
        <extensions>
          <ns3:TrackPointExtension>
            <ns3:atemp>15.0</ns3:atemp>
          </ns3:TrackPointExtension>
        </extensions>
      </trkpt>
      <trkpt lat="42.62845373712480068206787109375" lon="19.902253411710262298583984375">
        <ele>1395.199951171875</ele>
        <time>2026-06-16T07:22:35.000Z</time>
        <extensions>
          <ns3:TrackPointExtension>
            <ns3:atemp>15.0</ns3:atemp>
          </ns3:TrackPointExtension>
        </extensions>
      </trkpt>
      <trkpt lat="42.62844719924032688140869140625" lon="19.90223488770425319671630859375">
        <ele>1395.4000244140625</ele>
        <time>2026-06-16T07:22:36.000Z</time>
        <extensions>
          <ns3:TrackPointExtension>
            <ns3:atemp>15.0</ns3:atemp>
          </ns3:TrackPointExtension>
        </extensions>
      </trkpt>
      <trkpt lat="42.6284446008503437042236328125" lon="19.902209155261516571044921875">
        <ele>1395.5999755859375</ele>
        <time>2026-06-16T07:22:37.000Z</time>
        <extensions>
          <ns3:TrackPointExtension>
            <ns3:atemp>15.0</ns3:atemp>
          </ns3:TrackPointExtension>
        </extensions>
      </trkpt>
      <trkpt lat="42.62844032607972621917724609375" lon="19.90218291990458965301513671875">
        <ele>1396</ele>
        <time>2026-06-16T07:22:38.000Z</time>
        <extensions>
          <ns3:TrackPointExtension>
            <ns3:atemp>15.0</ns3:atemp>
          </ns3:TrackPointExtension>
        </extensions>
      </trkpt>
      <trkpt lat="42.62843948788940906524658203125" lon="19.90215115249156951904296875">
        <ele>1396.199951171875</ele>
        <time>2026-06-16T07:22:39.000Z</time>
        <extensions>
          <ns3:TrackPointExtension>
            <ns3:atemp>15.0</ns3:atemp>
          </ns3:TrackPointExtension>
        </extensions>
      </trkpt>
      <trkpt lat="42.62843831442296504974365234375" lon="19.90213011391460895538330078125">
        <ele>1396.5999755859375</ele>
        <time>2026-06-16T07:22:40.000Z</time>
        <extensions>
          <ns3:TrackPointExtension>
            <ns3:atemp>15.0</ns3:atemp>
          </ns3:TrackPointExtension>
        </extensions>
      </trkpt>
      <trkpt lat="42.6284362189471721649169921875" lon="19.90210362710058689117431640625">
        <ele>1396.800048828125</ele>
        <time>2026-06-16T07:22:41.000Z</time>
        <extensions>
          <ns3:TrackPointExtension>
            <ns3:atemp>15.0</ns3:atemp>
          </ns3:TrackPointExtension>
        </extensions>
      </trkpt>
      <trkpt lat="42.628436051309108734130859375" lon="19.9020762182772159576416015625">
        <ele>1397</ele>
        <time>2026-06-16T07:22:42.000Z</time>
        <extensions>
          <ns3:TrackPointExtension>
            <ns3:atemp>15.0</ns3:atemp>
          </ns3:TrackPointExtension>
        </extensions>
      </trkpt>
      <trkpt lat="42.62843512929975986480712890625" lon="19.9020534195005893707275390625">
        <ele>1397.199951171875</ele>
        <time>2026-06-16T07:22:43.000Z</time>
        <extensions>
          <ns3:TrackPointExtension>
            <ns3:atemp>15.0</ns3:atemp>
          </ns3:TrackPointExtension>
        </extensions>
      </trkpt>
      <trkpt lat="42.628432027995586395263671875" lon="19.9020282737910747528076171875">
        <ele>1397.5999755859375</ele>
        <time>2026-06-16T07:22:44.000Z</time>
        <extensions>
          <ns3:TrackPointExtension>
            <ns3:atemp>15.0</ns3:atemp>
          </ns3:TrackPointExtension>
        </extensions>
      </trkpt>
      <trkpt lat="42.6284268312156200408935546875" lon="19.9020027928054332733154296875">
        <ele>1397.800048828125</ele>
        <time>2026-06-16T07:22:45.000Z</time>
        <extensions>
          <ns3:TrackPointExtension>
            <ns3:atemp>15.0</ns3:atemp>
          </ns3:TrackPointExtension>
        </extensions>
      </trkpt>
      <trkpt lat="42.62842490337789058685302734375" lon="19.90197504870593547821044921875">
        <ele>1398</ele>
        <time>2026-06-16T07:22:46.000Z</time>
        <extensions>
          <ns3:TrackPointExtension>
            <ns3:atemp>15.0</ns3:atemp>
          </ns3:TrackPointExtension>
        </extensions>
      </trkpt>
      <trkpt lat="42.62841769494116306304931640625" lon="19.90194336511194705963134765625">
        <ele>1398.199951171875</ele>
        <time>2026-06-16T07:22:47.000Z</time>
        <extensions>
          <ns3:TrackPointExtension>
            <ns3:atemp>15.0</ns3:atemp>
          </ns3:TrackPointExtension>
        </extensions>
      </trkpt>
      <trkpt lat="42.628407888114452362060546875" lon="19.90191570483148097991943359375">
        <ele>1398.4000244140625</ele>
        <time>2026-06-16T07:22:48.000Z</time>
        <extensions>
          <ns3:TrackPointExtension>
            <ns3:atemp>15.0</ns3:atemp>
          </ns3:TrackPointExtension>
        </extensions>
      </trkpt>
      <trkpt lat="42.6283983327448368072509765625" lon="19.9018849432468414306640625">
        <ele>1398.5999755859375</ele>
        <time>2026-06-16T07:22:49.000Z</time>
        <extensions>
          <ns3:TrackPointExtension>
            <ns3:atemp>15.0</ns3:atemp>
          </ns3:TrackPointExtension>
        </extensions>
      </trkpt>
      <trkpt lat="42.62838399969041347503662109375" lon="19.90184680558741092681884765625">
        <ele>1398.800048828125</ele>
        <time>2026-06-16T07:22:50.000Z</time>
        <extensions>
          <ns3:TrackPointExtension>
            <ns3:atemp>15.0</ns3:atemp>
          </ns3:TrackPointExtension>
        </extensions>
      </trkpt>
      <trkpt lat="42.62837561778724193572998046875" lon="19.9018193967640399932861328125">
        <ele>1399</ele>
        <time>2026-06-16T07:22:51.000Z</time>
        <extensions>
          <ns3:TrackPointExtension>
            <ns3:atemp>15.0</ns3:atemp>
          </ns3:TrackPointExtension>
        </extensions>
      </trkpt>
      <trkpt lat="42.62836438603699207305908203125" lon="19.901796765625476837158203125">
        <ele>1399.199951171875</ele>
        <time>2026-06-16T07:22:52.000Z</time>
        <extensions>
          <ns3:TrackPointExtension>
            <ns3:atemp>15.0</ns3:atemp>
          </ns3:TrackPointExtension>
        </extensions>
      </trkpt>
      <trkpt lat="42.62835231609642505645751953125" lon="19.90177824161946773529052734375">
        <ele>1399.5999755859375</ele>
        <time>2026-06-16T07:22:53.000Z</time>
        <extensions>
          <ns3:TrackPointExtension>
            <ns3:atemp>15.0</ns3:atemp>
          </ns3:TrackPointExtension>
        </extensions>
      </trkpt>
      <trkpt lat="42.62834209017455577850341796875" lon="19.90175954997539520263671875">
        <ele>1399.800048828125</ele>
        <time>2026-06-16T07:22:54.000Z</time>
        <extensions>
          <ns3:TrackPointExtension>
            <ns3:atemp>15.0</ns3:atemp>
          </ns3:TrackPointExtension>
        </extensions>
      </trkpt>
      <trkpt lat="42.62833245098590850830078125" lon="19.90173465572297573089599609375">
        <ele>1400</ele>
        <time>2026-06-16T07:22:55.000Z</time>
        <extensions>
          <ns3:TrackPointExtension>
            <ns3:atemp>15.0</ns3:atemp>
          </ns3:TrackPointExtension>
        </extensions>
      </trkpt>
      <trkpt lat="42.62832599692046642303466796875" lon="19.901712946593761444091796875">
        <ele>1400.4000244140625</ele>
        <time>2026-06-16T07:22:56.000Z</time>
        <extensions>
          <ns3:TrackPointExtension>
            <ns3:atemp>15.0</ns3:atemp>
          </ns3:TrackPointExtension>
        </extensions>
      </trkpt>
      <trkpt lat="42.6283185370266437530517578125" lon="19.90169391967356204986572265625">
        <ele>1400.5999755859375</ele>
        <time>2026-06-16T07:22:57.000Z</time>
        <extensions>
          <ns3:TrackPointExtension>
            <ns3:atemp>15.0</ns3:atemp>
          </ns3:TrackPointExtension>
        </extensions>
      </trkpt>
      <trkpt lat="42.6283064670860767364501953125" lon="19.90167262963950634002685546875">
        <ele>1400.800048828125</ele>
        <time>2026-06-16T07:22:58.000Z</time>
        <extensions>
          <ns3:TrackPointExtension>
            <ns3:atemp>15.0</ns3:atemp>
          </ns3:TrackPointExtension>
        </extensions>
      </trkpt>
      <trkpt lat="42.62829481624066829681396484375" lon="19.90164983086287975311279296875">
        <ele>1401</ele>
        <time>2026-06-16T07:22:59.000Z</time>
        <extensions>
          <ns3:TrackPointExtension>
            <ns3:atemp>15.0</ns3:atemp>
          </ns3:TrackPointExtension>
        </extensions>
      </trkpt>
      <trkpt lat="42.6282783038914203643798828125" lon="19.90163440816104412078857421875">
        <ele>1401.199951171875</ele>
        <time>2026-06-16T07:23:00.000Z</time>
        <extensions>
          <ns3:TrackPointExtension>
            <ns3:atemp>15.0</ns3:atemp>
          </ns3:TrackPointExtension>
        </extensions>
      </trkpt>
      <trkpt lat="42.62826397083699703216552734375" lon="19.90161043591797351837158203125">
        <ele>1401.4000244140625</ele>
        <time>2026-06-16T07:23:01.000Z</time>
        <extensions>
          <ns3:TrackPointExtension>
            <ns3:atemp>15.0</ns3:atemp>
          </ns3:TrackPointExtension>
        </extensions>
      </trkpt>
      <trkpt lat="42.62824796140193939208984375" lon="19.901583194732666015625">
        <ele>1401.5999755859375</ele>
        <time>2026-06-16T07:23:02.000Z</time>
        <extensions>
          <ns3:TrackPointExtension>
            <ns3:atemp>15.0</ns3:atemp>
          </ns3:TrackPointExtension>
        </extensions>
      </trkpt>
      <trkpt lat="42.62823379598557949066162109375" lon="19.90155846811830997467041015625">
        <ele>1401.800048828125</ele>
        <time>2026-06-16T07:23:03.000Z</time>
        <extensions>
          <ns3:TrackPointExtension>
            <ns3:atemp>15.0</ns3:atemp>
          </ns3:TrackPointExtension>
        </extensions>
      </trkpt>
      <trkpt lat="42.628221474587917327880859375" lon="19.90153332240879535675048828125">
        <ele>1402</ele>
        <time>2026-06-16T07:23:04.000Z</time>
        <extensions>
          <ns3:TrackPointExtension>
            <ns3:atemp>15.0</ns3:atemp>
          </ns3:TrackPointExtension>
        </extensions>
      </trkpt>
      <trkpt lat="42.628209404647350311279296875" lon="19.9015126191079616546630859375">
        <ele>1402.199951171875</ele>
        <time>2026-06-16T07:23:05.000Z</time>
        <extensions>
          <ns3:TrackPointExtension>
            <ns3:atemp>16.0</ns3:atemp>
          </ns3:TrackPointExtension>
        </extensions>
      </trkpt>
      <trkpt lat="42.62819968163967132568359375" lon="19.90148923359811305999755859375">
        <ele>1402.4000244140625</ele>
        <time>2026-06-16T07:23:06.000Z</time>
        <extensions>
          <ns3:TrackPointExtension>
            <ns3:atemp>16.0</ns3:atemp>
          </ns3:TrackPointExtension>
        </extensions>
      </trkpt>
      <trkpt lat="42.6281877793371677398681640625" lon="19.90146677009761333465576171875">
        <ele>1402.5999755859375</ele>
        <time>2026-06-16T07:23:07.000Z</time>
        <extensions>
          <ns3:TrackPointExtension>
            <ns3:atemp>15.0</ns3:atemp>
          </ns3:TrackPointExtension>
        </extensions>
      </trkpt>
      <trkpt lat="42.628173530101776123046875" lon="19.90144564770162105560302734375">
        <ele>1402.800048828125</ele>
        <time>2026-06-16T07:23:08.000Z</time>
        <extensions>
          <ns3:TrackPointExtension>
            <ns3:atemp>15.0</ns3:atemp>
          </ns3:TrackPointExtension>
        </extensions>
      </trkpt>
      <trkpt lat="42.62816011905670166015625" lon="19.90142804570496082305908203125">
        <ele>1403.199951171875</ele>
        <time>2026-06-16T07:23:09.000Z</time>
        <extensions>
          <ns3:TrackPointExtension>
            <ns3:atemp>15.0</ns3:atemp>
          </ns3:TrackPointExtension>
        </extensions>
      </trkpt>
      <trkpt lat="42.62814511545002460479736328125" lon="19.90141077898442745208740234375">
        <ele>1403.4000244140625</ele>
        <time>2026-06-16T07:23:10.000Z</time>
        <extensions>
          <ns3:TrackPointExtension>
            <ns3:atemp>15.0</ns3:atemp>
          </ns3:TrackPointExtension>
        </extensions>
      </trkpt>
      <trkpt lat="42.6281294412910938262939453125" lon="19.9013939313590526580810546875">
        <ele>1403.5999755859375</ele>
        <time>2026-06-16T07:23:11.000Z</time>
        <extensions>
          <ns3:TrackPointExtension>
            <ns3:atemp>15.0</ns3:atemp>
          </ns3:TrackPointExtension>
        </extensions>
      </trkpt>
      <trkpt lat="42.6281126774847507476806640625" lon="19.90137591026723384857177734375">
        <ele>1404</ele>
        <time>2026-06-16T07:23:12.000Z</time>
        <extensions>
          <ns3:TrackPointExtension>
            <ns3:atemp>15.0</ns3:atemp>
          </ns3:TrackPointExtension>
        </extensions>
      </trkpt>
      <trkpt lat="42.6280979253351688385009765625" lon="19.90135981701314449310302734375">
        <ele>1404.199951171875</ele>
        <time>2026-06-16T07:23:13.000Z</time>
        <extensions>
          <ns3:TrackPointExtension>
            <ns3:atemp>15.0</ns3:atemp>
          </ns3:TrackPointExtension>
        </extensions>
      </trkpt>
      <trkpt lat="42.6280836760997772216796875" lon="19.90134716033935546875">
        <ele>1404.4000244140625</ele>
        <time>2026-06-16T07:23:14.000Z</time>
        <extensions>
          <ns3:TrackPointExtension>
            <ns3:atemp>15.0</ns3:atemp>
          </ns3:TrackPointExtension>
        </extensions>
      </trkpt>
      <trkpt lat="42.6280687563121318817138671875" lon="19.9013295583426952362060546875">
        <ele>1404.5999755859375</ele>
        <time>2026-06-16T07:23:15.000Z</time>
        <extensions>
          <ns3:TrackPointExtension>
            <ns3:atemp>16.0</ns3:atemp>
          </ns3:TrackPointExtension>
        </extensions>
      </trkpt>
      <trkpt lat="42.628053836524486541748046875" lon="19.90131069906055927276611328125">
        <ele>1404.800048828125</ele>
        <time>2026-06-16T07:23:16.000Z</time>
        <extensions>
          <ns3:TrackPointExtension>
            <ns3:atemp>15.0</ns3:atemp>
          </ns3:TrackPointExtension>
        </extensions>
      </trkpt>
      <trkpt lat="42.62803983874619007110595703125" lon="19.90129175595939159393310546875">
        <ele>1405.199951171875</ele>
        <time>2026-06-16T07:23:17.000Z</time>
        <extensions>
          <ns3:TrackPointExtension>
            <ns3:atemp>15.0</ns3:atemp>
          </ns3:TrackPointExtension>
        </extensions>
      </trkpt>
      <trkpt lat="42.6280251704156398773193359375" lon="19.901271052658557891845703125">
        <ele>1405.4000244140625</ele>
        <time>2026-06-16T07:23:18.000Z</time>
        <extensions>
          <ns3:TrackPointExtension>
            <ns3:atemp>15.0</ns3:atemp>
          </ns3:TrackPointExtension>
        </extensions>
      </trkpt>
      <trkpt lat="42.6280067302286624908447265625" lon="19.90125085227191448211669921875">
        <ele>1405.5999755859375</ele>
        <time>2026-06-16T07:23:19.000Z</time>
        <extensions>
          <ns3:TrackPointExtension>
            <ns3:atemp>15.0</ns3:atemp>
          </ns3:TrackPointExtension>
        </extensions>
      </trkpt>
      <trkpt lat="42.627988792955875396728515625" lon="19.9012358486652374267578125">
        <ele>1405.800048828125</ele>
        <time>2026-06-16T07:23:20.000Z</time>
        <extensions>
          <ns3:TrackPointExtension>
            <ns3:atemp>15.0</ns3:atemp>
          </ns3:TrackPointExtension>
        </extensions>
      </trkpt>
      <trkpt lat="42.62797412462532520294189453125" lon="19.90121665410697460174560546875">
        <ele>1406.199951171875</ele>
        <time>2026-06-16T07:23:21.000Z</time>
        <extensions>
          <ns3:TrackPointExtension>
            <ns3:atemp>15.0</ns3:atemp>
          </ns3:TrackPointExtension>
        </extensions>
      </trkpt>
      <trkpt lat="42.62795803137123584747314453125" lon="19.90119737572968006134033203125">
        <ele>1406.4000244140625</ele>
        <time>2026-06-16T07:23:22.000Z</time>
        <extensions>
          <ns3:TrackPointExtension>
            <ns3:atemp>15.0</ns3:atemp>
          </ns3:TrackPointExtension>
        </extensions>
      </trkpt>
      <trkpt lat="42.6279423572123050689697265625" lon="19.90118346177041530609130859375">
        <ele>1406.5999755859375</ele>
        <time>2026-06-16T07:23:23.000Z</time>
        <extensions>
          <ns3:TrackPointExtension>
            <ns3:atemp>16.0</ns3:atemp>
          </ns3:TrackPointExtension>
        </extensions>
      </trkpt>
      <trkpt lat="42.6279272697865962982177734375" lon="19.9011676199734210968017578125">
        <ele>1407</ele>
        <time>2026-06-16T07:23:24.000Z</time>
        <extensions>
          <ns3:TrackPointExtension>
            <ns3:atemp>16.0</ns3:atemp>
          </ns3:TrackPointExtension>
        </extensions>
      </trkpt>
      <trkpt lat="42.627913020551204681396484375" lon="19.901154376566410064697265625">
        <ele>1407.199951171875</ele>
        <time>2026-06-16T07:23:25.000Z</time>
        <extensions>
          <ns3:TrackPointExtension>
            <ns3:atemp>16.0</ns3:atemp>
          </ns3:TrackPointExtension>
        </extensions>
      </trkpt>
      <trkpt lat="42.6278967596590518951416015625" lon="19.9011419713497161865234375">
        <ele>1407.5999755859375</ele>
        <time>2026-06-16T07:23:26.000Z</time>
        <extensions>
          <ns3:TrackPointExtension>
            <ns3:atemp>16.0</ns3:atemp>
          </ns3:TrackPointExtension>
        </extensions>
      </trkpt>
      <trkpt lat="42.6278793253004550933837890625" lon="19.9011243693530559539794921875">
        <ele>1407.800048828125</ele>
        <time>2026-06-16T07:23:27.000Z</time>
        <extensions>
          <ns3:TrackPointExtension>
            <ns3:atemp>16.0</ns3:atemp>
          </ns3:TrackPointExtension>
        </extensions>
      </trkpt>
      <trkpt lat="42.627862058579921722412109375" lon="19.9011079408228397369384765625">
        <ele>1408</ele>
        <time>2026-06-16T07:23:28.000Z</time>
        <extensions>
          <ns3:TrackPointExtension>
            <ns3:atemp>16.0</ns3:atemp>
          </ns3:TrackPointExtension>
        </extensions>
      </trkpt>
      <trkpt lat="42.62784722261130809783935546875" lon="19.9010941945016384124755859375">
        <ele>1408.4000244140625</ele>
        <time>2026-06-16T07:23:29.000Z</time>
        <extensions>
          <ns3:TrackPointExtension>
            <ns3:atemp>16.0</ns3:atemp>
          </ns3:TrackPointExtension>
        </extensions>
      </trkpt>
      <trkpt lat="42.62783448211848735809326171875" lon="19.90108472295105457305908203125">
        <ele>1408.5999755859375</ele>
        <time>2026-06-16T07:23:30.000Z</time>
        <extensions>
          <ns3:TrackPointExtension>
            <ns3:atemp>16.0</ns3:atemp>
          </ns3:TrackPointExtension>
        </extensions>
      </trkpt>
      <trkpt lat="42.62781587429344654083251953125" lon="19.90107114426791667938232421875">
        <ele>1408.800048828125</ele>
        <time>2026-06-16T07:23:31.000Z</time>
        <extensions>
          <ns3:TrackPointExtension>
            <ns3:atemp>15.0</ns3:atemp>
          </ns3:TrackPointExtension>
        </extensions>
      </trkpt>
      <trkpt lat="42.62779911048710346221923828125" lon="19.901059828698635101318359375">
        <ele>1409.199951171875</ele>
        <time>2026-06-16T07:23:32.000Z</time>
        <extensions>
          <ns3:TrackPointExtension>
            <ns3:atemp>15.0</ns3:atemp>
          </ns3:TrackPointExtension>
        </extensions>
      </trkpt>
      <trkpt lat="42.62777949683368206024169921875" lon="19.9010454118251800537109375">
        <ele>1409.4000244140625</ele>
        <time>2026-06-16T07:23:33.000Z</time>
        <extensions>
          <ns3:TrackPointExtension>
            <ns3:atemp>15.0</ns3:atemp>
          </ns3:TrackPointExtension>
        </extensions>
      </trkpt>
      <trkpt lat="42.627764157950878143310546875" lon="19.90103241987526416778564453125">
        <ele>1409.5999755859375</ele>
        <time>2026-06-16T07:23:34.000Z</time>
        <extensions>
          <ns3:TrackPointExtension>
            <ns3:atemp>15.0</ns3:atemp>
          </ns3:TrackPointExtension>
        </extensions>
      </trkpt>
      <trkpt lat="42.627746723592281341552734375" lon="19.90101766772568225860595703125">
        <ele>1410</ele>
        <time>2026-06-16T07:23:35.000Z</time>
        <extensions>
          <ns3:TrackPointExtension>
            <ns3:atemp>16.0</ns3:atemp>
          </ns3:TrackPointExtension>
        </extensions>
      </trkpt>
      <trkpt lat="42.62773104943335056304931640625" lon="19.90100107155740261077880859375">
        <ele>1410.199951171875</ele>
        <time>2026-06-16T07:23:36.000Z</time>
        <extensions>
          <ns3:TrackPointExtension>
            <ns3:atemp>15.0</ns3:atemp>
          </ns3:TrackPointExtension>
        </extensions>
      </trkpt>
      <trkpt lat="42.62771428562700748443603515625" lon="19.9009889177978038787841796875">
        <ele>1410.4000244140625</ele>
        <time>2026-06-16T07:23:37.000Z</time>
        <extensions>
          <ns3:TrackPointExtension>
            <ns3:atemp>15.0</ns3:atemp>
          </ns3:TrackPointExtension>
        </extensions>
      </trkpt>
      <trkpt lat="42.62769718654453754425048828125" lon="19.90097701549530029296875">
        <ele>1410.4000244140625</ele>
        <time>2026-06-16T07:23:38.000Z</time>
        <extensions>
          <ns3:TrackPointExtension>
            <ns3:atemp>16.0</ns3:atemp>
          </ns3:TrackPointExtension>
        </extensions>
      </trkpt>
      <trkpt lat="42.62768059037625789642333984375" lon="19.9009604193270206451416015625">
        <ele>1410.5999755859375</ele>
        <time>2026-06-16T07:23:39.000Z</time>
        <extensions>
          <ns3:TrackPointExtension>
            <ns3:atemp>15.0</ns3:atemp>
          </ns3:TrackPointExtension>
        </extensions>
      </trkpt>
      <trkpt lat="42.62766483239829540252685546875" lon="19.90093904547393321990966796875">
        <ele>1410.800048828125</ele>
        <time>2026-06-16T07:23:40.000Z</time>
        <extensions>
          <ns3:TrackPointExtension>
            <ns3:atemp>15.0</ns3:atemp>
          </ns3:TrackPointExtension>
        </extensions>
      </trkpt>
      <trkpt lat="42.62765008024871349334716796875" lon="19.90091331303119659423828125">
        <ele>1411</ele>
        <time>2026-06-16T07:23:41.000Z</time>
        <extensions>
          <ns3:TrackPointExtension>
            <ns3:atemp>15.0</ns3:atemp>
          </ns3:TrackPointExtension>
        </extensions>
      </trkpt>
      <trkpt lat="42.62763566337525844573974609375" lon="19.900892861187458038330078125">
        <ele>1411.199951171875</ele>
        <time>2026-06-16T07:23:42.000Z</time>
        <extensions>
          <ns3:TrackPointExtension>
            <ns3:atemp>16.0</ns3:atemp>
          </ns3:TrackPointExtension>
        </extensions>
      </trkpt>
      <trkpt lat="42.627622000873088836669921875" lon="19.900868721306324005126953125">
        <ele>1411.4000244140625</ele>
        <time>2026-06-16T07:23:43.000Z</time>
        <extensions>
          <ns3:TrackPointExtension>
            <ns3:atemp>16.0</ns3:atemp>
          </ns3:TrackPointExtension>
        </extensions>
      </trkpt>
      <trkpt lat="42.627602554857730865478515625" lon="19.90084768272936344146728515625">
        <ele>1411.5999755859375</ele>
        <time>2026-06-16T07:23:44.000Z</time>
        <extensions>
          <ns3:TrackPointExtension>
            <ns3:atemp>15.0</ns3:atemp>
          </ns3:TrackPointExtension>
        </extensions>
      </trkpt>
      <trkpt lat="42.62758352793753147125244140625" lon="19.90082748234272003173828125">
        <ele>1411.5999755859375</ele>
        <time>2026-06-16T07:23:45.000Z</time>
        <extensions>
          <ns3:TrackPointExtension>
            <ns3:atemp>15.0</ns3:atemp>
          </ns3:TrackPointExtension>
        </extensions>
      </trkpt>
      <trkpt lat="42.6275660097599029541015625" lon="19.9008071981370449066162109375">
        <ele>1411.800048828125</ele>
        <time>2026-06-16T07:23:46.000Z</time>
        <extensions>
          <ns3:TrackPointExtension>
            <ns3:atemp>15.0</ns3:atemp>
          </ns3:TrackPointExtension>
        </extensions>
      </trkpt>
      <trkpt lat="42.62755033560097217559814453125" lon="19.900781214237213134765625">
        <ele>1412</ele>
        <time>2026-06-16T07:23:47.000Z</time>
        <extensions>
          <ns3:TrackPointExtension>
            <ns3:atemp>15.0</ns3:atemp>
          </ns3:TrackPointExtension>
        </extensions>
      </trkpt>
      <trkpt lat="42.62753675691783428192138671875" lon="19.90075263194739818572998046875">
        <ele>1412</ele>
        <time>2026-06-16T07:23:48.000Z</time>
        <extensions>
          <ns3:TrackPointExtension>
            <ns3:atemp>15.0</ns3:atemp>
          </ns3:TrackPointExtension>
        </extensions>
      </trkpt>
      <trkpt lat="42.627522088587284088134765625" lon="19.9007181823253631591796875">
        <ele>1412</ele>
        <time>2026-06-16T07:23:49.000Z</time>
        <extensions>
          <ns3:TrackPointExtension>
            <ns3:atemp>15.0</ns3:atemp>
          </ns3:TrackPointExtension>
        </extensions>
      </trkpt>
      <trkpt lat="42.62751261703670024871826171875" lon="19.9006891809403896331787109375">
        <ele>1412</ele>
        <time>2026-06-16T07:23:50.000Z</time>
        <extensions>
          <ns3:TrackPointExtension>
            <ns3:atemp>15.0</ns3:atemp>
          </ns3:TrackPointExtension>
        </extensions>
      </trkpt>
      <trkpt lat="42.627505995333194732666015625" lon="19.900658838450908660888671875">
        <ele>1412</ele>
        <time>2026-06-16T07:23:51.000Z</time>
        <extensions>
          <ns3:TrackPointExtension>
            <ns3:atemp>15.0</ns3:atemp>
          </ns3:TrackPointExtension>
        </extensions>
      </trkpt>
      <trkpt lat="42.62749987654387950897216796875" lon="19.9006288312375545501708984375">
        <ele>1412</ele>
        <time>2026-06-16T07:23:52.000Z</time>
        <extensions>
          <ns3:TrackPointExtension>
            <ns3:atemp>15.0</ns3:atemp>
          </ns3:TrackPointExtension>
        </extensions>
      </trkpt>
      <trkpt lat="42.627493925392627716064453125" lon="19.90059672854840755462646484375">
        <ele>1411.800048828125</ele>
        <time>2026-06-16T07:23:53.000Z</time>
        <extensions>
          <ns3:TrackPointExtension>
            <ns3:atemp>15.0</ns3:atemp>
          </ns3:TrackPointExtension>
        </extensions>
      </trkpt>
      <trkpt lat="42.62748780660331249237060546875" lon="19.90056688897311687469482421875">
        <ele>1412</ele>
        <time>2026-06-16T07:23:54.000Z</time>
        <extensions>
          <ns3:TrackPointExtension>
            <ns3:atemp>15.0</ns3:atemp>
          </ns3:TrackPointExtension>
        </extensions>
      </trkpt>
      <trkpt lat="42.62748043052852153778076171875" lon="19.9005366303026676177978515625">
        <ele>1412.199951171875</ele>
        <time>2026-06-16T07:23:55.000Z</time>
        <extensions>
          <ns3:TrackPointExtension>
            <ns3:atemp>15.0</ns3:atemp>
          </ns3:TrackPointExtension>
        </extensions>
      </trkpt>
      <trkpt lat="42.6274712942540645599365234375" lon="19.90050494670867919921875">
        <ele>1412.4000244140625</ele>
        <time>2026-06-16T07:23:56.000Z</time>
        <extensions>
          <ns3:TrackPointExtension>
            <ns3:atemp>15.0</ns3:atemp>
          </ns3:TrackPointExtension>
        </extensions>
      </trkpt>
      <trkpt lat="42.62746551074087619781494140625" lon="19.90047284401953220367431640625">
        <ele>1412.5999755859375</ele>
        <time>2026-06-16T07:23:57.000Z</time>
        <extensions>
          <ns3:TrackPointExtension>
            <ns3:atemp>15.0</ns3:atemp>
          </ns3:TrackPointExtension>
        </extensions>
      </trkpt>
      <trkpt lat="42.6274605654180049896240234375" lon="19.90044618956744670867919921875">
        <ele>1412.800048828125</ele>
        <time>2026-06-16T07:23:58.000Z</time>
        <extensions>
          <ns3:TrackPointExtension>
            <ns3:atemp>15.0</ns3:atemp>
          </ns3:TrackPointExtension>
        </extensions>
      </trkpt>
      <trkpt lat="42.6274558715522289276123046875" lon="19.90042112767696380615234375">
        <ele>1413</ele>
        <time>2026-06-16T07:23:59.000Z</time>
        <extensions>
          <ns3:TrackPointExtension>
            <ns3:atemp>15.0</ns3:atemp>
          </ns3:TrackPointExtension>
        </extensions>
      </trkpt>
      <trkpt lat="42.62744841165840625762939453125" lon="19.900389276444911956787109375">
        <ele>1413.4000244140625</ele>
        <time>2026-06-16T07:24:00.000Z</time>
        <extensions>
          <ns3:TrackPointExtension>
            <ns3:atemp>15.0</ns3:atemp>
          </ns3:TrackPointExtension>
        </extensions>
      </trkpt>
      <trkpt lat="42.6274372637271881103515625" lon="19.90035985596477985382080078125">
        <ele>1413.5999755859375</ele>
        <time>2026-06-16T07:24:01.000Z</time>
        <extensions>
          <ns3:TrackPointExtension>
            <ns3:atemp>15.0</ns3:atemp>
          </ns3:TrackPointExtension>
        </extensions>
      </trkpt>
      <trkpt lat="42.627432234585285186767578125" lon="19.9003304354846477508544921875">
        <ele>1413.800048828125</ele>
        <time>2026-06-16T07:24:02.000Z</time>
        <extensions>
          <ns3:TrackPointExtension>
            <ns3:atemp>15.0</ns3:atemp>
          </ns3:TrackPointExtension>
        </extensions>
      </trkpt>
      <trkpt lat="42.6274280436336994171142578125" lon="19.90030252374708652496337890625">
        <ele>1414</ele>
        <time>2026-06-16T07:24:03.000Z</time>
        <extensions>
          <ns3:TrackPointExtension>
            <ns3:atemp>15.0</ns3:atemp>
          </ns3:TrackPointExtension>
        </extensions>
      </trkpt>
      <trkpt lat="42.62742142193019390106201171875" lon="19.9002714268863201141357421875">
        <ele>1414.4000244140625</ele>
        <time>2026-06-16T07:24:04.000Z</time>
        <extensions>
          <ns3:TrackPointExtension>
            <ns3:atemp>15.0</ns3:atemp>
          </ns3:TrackPointExtension>
        </extensions>
      </trkpt>
      <trkpt lat="42.62741756625473499298095703125" lon="19.9002399109303951263427734375">
        <ele>1414.5999755859375</ele>
        <time>2026-06-16T07:24:05.000Z</time>
        <extensions>
          <ns3:TrackPointExtension>
            <ns3:atemp>15.0</ns3:atemp>
          </ns3:TrackPointExtension>
        </extensions>
      </trkpt>
      <trkpt lat="42.62741454876959323883056640625" lon="19.90020579658448696136474609375">
        <ele>1414.800048828125</ele>
        <time>2026-06-16T07:24:06.000Z</time>
        <extensions>
          <ns3:TrackPointExtension>
            <ns3:atemp>15.0</ns3:atemp>
          </ns3:TrackPointExtension>
        </extensions>
      </trkpt>
      <trkpt lat="42.62741111218929290771484375" lon="19.900176040828227996826171875">
        <ele>1415.199951171875</ele>
        <time>2026-06-16T07:24:07.000Z</time>
        <extensions>
          <ns3:TrackPointExtension>
            <ns3:atemp>15.0</ns3:atemp>
          </ns3:TrackPointExtension>
        </extensions>
      </trkpt>
      <trkpt lat="42.62740767560899257659912109375" lon="19.90014729090034961700439453125">
        <ele>1415.4000244140625</ele>
        <time>2026-06-16T07:24:08.000Z</time>
        <extensions>
          <ns3:TrackPointExtension>
            <ns3:atemp>15.0</ns3:atemp>
          </ns3:TrackPointExtension>
        </extensions>
      </trkpt>
      <trkpt lat="42.62740097008645534515380859375" lon="19.9001182056963443756103515625">
        <ele>1415.4000244140625</ele>
        <time>2026-06-16T07:24:09.000Z</time>
        <extensions>
          <ns3:TrackPointExtension>
            <ns3:atemp>15.0</ns3:atemp>
          </ns3:TrackPointExtension>
        </extensions>
      </trkpt>
      <trkpt lat="42.6273908279836177825927734375" lon="19.90009498782455921173095703125">
        <ele>1415.800048828125</ele>
        <time>2026-06-16T07:24:10.000Z</time>
        <extensions>
          <ns3:TrackPointExtension>
            <ns3:atemp>15.0</ns3:atemp>
          </ns3:TrackPointExtension>
        </extensions>
      </trkpt>
      <trkpt lat="42.627379260957241058349609375" lon="19.9000689201056957244873046875">
        <ele>1416</ele>
        <time>2026-06-16T07:24:11.000Z</time>
        <extensions>
          <ns3:TrackPointExtension>
            <ns3:atemp>15.0</ns3:atemp>
          </ns3:TrackPointExtension>
        </extensions>
      </trkpt>
      <trkpt lat="42.62737087905406951904296875" lon="19.90004360675811767578125">
        <ele>1416</ele>
        <time>2026-06-16T07:24:12.000Z</time>
        <extensions>
          <ns3:TrackPointExtension>
            <ns3:atemp>15.0</ns3:atemp>
          </ns3:TrackPointExtension>
        </extensions>
      </trkpt>
      <trkpt lat="42.62736241333186626434326171875" lon="19.900013096630573272705078125">
        <ele>1416.199951171875</ele>
        <time>2026-06-16T07:24:13.000Z</time>
        <extensions>
          <ns3:TrackPointExtension>
            <ns3:atemp>15.0</ns3:atemp>
          </ns3:TrackPointExtension>
        </extensions>
      </trkpt>
      <trkpt lat="42.62735688127577304840087890625" lon="19.89998635835945606231689453125">
        <ele>1416.4000244140625</ele>
        <time>2026-06-16T07:24:14.000Z</time>
        <extensions>
          <ns3:TrackPointExtension>
            <ns3:atemp>15.0</ns3:atemp>
          </ns3:TrackPointExtension>
        </extensions>
      </trkpt>
      <trkpt lat="42.6273519359529018402099609375" lon="19.899959452450275421142578125">
        <ele>1416.5999755859375</ele>
        <time>2026-06-16T07:24:15.000Z</time>
        <extensions>
          <ns3:TrackPointExtension>
            <ns3:atemp>15.0</ns3:atemp>
          </ns3:TrackPointExtension>
        </extensions>
      </trkpt>
      <trkpt lat="42.62734833173453807830810546875" lon="19.89993271417915821075439453125">
        <ele>1416.800048828125</ele>
        <time>2026-06-16T07:24:16.000Z</time>
        <extensions>
          <ns3:TrackPointExtension>
            <ns3:atemp>15.0</ns3:atemp>
          </ns3:TrackPointExtension>
        </extensions>
      </trkpt>
      <trkpt lat="42.62733911164104938507080078125" lon="19.899904467165470123291015625">
        <ele>1417</ele>
        <time>2026-06-16T07:24:17.000Z</time>
        <extensions>
          <ns3:TrackPointExtension>
            <ns3:atemp>15.0</ns3:atemp>
          </ns3:TrackPointExtension>
        </extensions>
      </trkpt>
      <trkpt lat="42.62732653878629207611083984375" lon="19.89986800588667392730712890625">
        <ele>1417</ele>
        <time>2026-06-16T07:24:18.000Z</time>
        <extensions>
          <ns3:TrackPointExtension>
            <ns3:atemp>15.0</ns3:atemp>
          </ns3:TrackPointExtension>
        </extensions>
      </trkpt>
      <trkpt lat="42.6273147203028202056884765625" lon="19.89983246661722660064697265625">
        <ele>1417</ele>
        <time>2026-06-16T07:24:19.000Z</time>
        <extensions>
          <ns3:TrackPointExtension>
            <ns3:atemp>15.0</ns3:atemp>
          </ns3:TrackPointExtension>
        </extensions>
      </trkpt>
      <trkpt lat="42.62730642221868038177490234375" lon="19.8997960053384304046630859375">
        <ele>1417</ele>
        <time>2026-06-16T07:24:20.000Z</time>
        <extensions>
          <ns3:TrackPointExtension>
            <ns3:atemp>15.0</ns3:atemp>
          </ns3:TrackPointExtension>
        </extensions>
      </trkpt>
      <trkpt lat="42.6272952742874622344970703125" lon="19.8997579514980316162109375">
        <ele>1416.800048828125</ele>
        <time>2026-06-16T07:24:21.000Z</time>
        <extensions>
          <ns3:TrackPointExtension>
            <ns3:atemp>15.0</ns3:atemp>
          </ns3:TrackPointExtension>
        </extensions>
      </trkpt>
      <trkpt lat="42.62728462927043437957763671875" lon="19.8997215740382671356201171875">
        <ele>1416.5999755859375</ele>
        <time>2026-06-16T07:24:22.000Z</time>
        <extensions>
          <ns3:TrackPointExtension>
            <ns3:atemp>15.0</ns3:atemp>
          </ns3:TrackPointExtension>
        </extensions>
      </trkpt>
      <trkpt lat="42.62727297842502593994140625" lon="19.89968226291239261627197265625">
        <ele>1416.4000244140625</ele>
        <time>2026-06-16T07:24:23.000Z</time>
        <extensions>
          <ns3:TrackPointExtension>
            <ns3:atemp>15.0</ns3:atemp>
          </ns3:TrackPointExtension>
        </extensions>
      </trkpt>
      <trkpt lat="42.627262584865093231201171875" lon="19.89963389933109283447265625">
        <ele>1416.199951171875</ele>
        <time>2026-06-16T07:24:24.000Z</time>
        <extensions>
          <ns3:TrackPointExtension>
            <ns3:atemp>15.0</ns3:atemp>
          </ns3:TrackPointExtension>
        </extensions>
      </trkpt>
      <trkpt lat="42.6272433064877986907958984375" lon="19.8995928280055522918701171875">
        <ele>1416</ele>
        <time>2026-06-16T07:24:25.000Z</time>
        <extensions>
          <ns3:TrackPointExtension>
            <ns3:atemp>15.0</ns3:atemp>
          </ns3:TrackPointExtension>
        </extensions>
      </trkpt>
      <trkpt lat="42.6272253692150115966796875" lon="19.8995432071387767791748046875">
        <ele>1415.5999755859375</ele>
        <time>2026-06-16T07:24:26.000Z</time>
        <extensions>
          <ns3:TrackPointExtension>
            <ns3:atemp>15.0</ns3:atemp>
          </ns3:TrackPointExtension>
        </extensions>
      </trkpt>
      <trkpt lat="42.62720634229481220245361328125" lon="19.8994909040629863739013671875">
        <ele>1415.199951171875</ele>
        <time>2026-06-16T07:24:27.000Z</time>
        <extensions>
          <ns3:TrackPointExtension>
            <ns3:atemp>15.0</ns3:atemp>
          </ns3:TrackPointExtension>
        </extensions>
      </trkpt>
      <trkpt lat="42.627190835773944854736328125" lon="19.8994419537484645843505859375">
        <ele>1414.800048828125</ele>
        <time>2026-06-16T07:24:28.000Z</time>
        <extensions>
          <ns3:TrackPointExtension>
            <ns3:atemp>15.0</ns3:atemp>
          </ns3:TrackPointExtension>
        </extensions>
      </trkpt>
      <trkpt lat="42.6271799392998218536376953125" lon="19.89939384162425994873046875">
        <ele>1414.5999755859375</ele>
        <time>2026-06-16T07:24:29.000Z</time>
        <extensions>
          <ns3:TrackPointExtension>
            <ns3:atemp>15.0</ns3:atemp>
          </ns3:TrackPointExtension>
        </extensions>
      </trkpt>
      <trkpt lat="42.62717097066342830657958984375" lon="19.899353273212909698486328125">
        <ele>1414.199951171875</ele>
        <time>2026-06-16T07:24:30.000Z</time>
        <extensions>
          <ns3:TrackPointExtension>
            <ns3:atemp>15.0</ns3:atemp>
          </ns3:TrackPointExtension>
        </extensions>
      </trkpt>
      <trkpt lat="42.62716409750282764434814453125" lon="19.89931446500122547149658203125">
        <ele>1414.199951171875</ele>
        <time>2026-06-16T07:24:31.000Z</time>
        <extensions>
          <ns3:TrackPointExtension>
            <ns3:atemp>15.0</ns3:atemp>
          </ns3:TrackPointExtension>
        </extensions>
      </trkpt>
      <trkpt lat="42.62715554796159267425537109375" lon="19.89928931929171085357666015625">
        <ele>1414</ele>
        <time>2026-06-16T07:24:32.000Z</time>
        <extensions>
          <ns3:TrackPointExtension>
            <ns3:atemp>15.0</ns3:atemp>
          </ns3:TrackPointExtension>
        </extensions>
      </trkpt>
      <trkpt lat="42.6271504350006580352783203125" lon="19.89925595931708812713623046875">
        <ele>1414</ele>
        <time>2026-06-16T07:24:33.000Z</time>
        <extensions>
          <ns3:TrackPointExtension>
            <ns3:atemp>15.0</ns3:atemp>
          </ns3:TrackPointExtension>
        </extensions>
      </trkpt>
      <trkpt lat="42.62714532203972339630126953125" lon="19.8992250300943851470947265625">
        <ele>1414</ele>
        <time>2026-06-16T07:24:34.000Z</time>
        <extensions>
          <ns3:TrackPointExtension>
            <ns3:atemp>15.0</ns3:atemp>
          </ns3:TrackPointExtension>
        </extensions>
      </trkpt>
      <trkpt lat="42.62714020907878875732421875" lon="19.8991951905190944671630859375">
        <ele>1414</ele>
        <time>2026-06-16T07:24:35.000Z</time>
        <extensions>
          <ns3:TrackPointExtension>
            <ns3:atemp>15.0</ns3:atemp>
          </ns3:TrackPointExtension>
        </extensions>
      </trkpt>
      <trkpt lat="42.627133168280124664306640625" lon="19.89916577003896236419677734375">
        <ele>1414</ele>
        <time>2026-06-16T07:24:36.000Z</time>
        <extensions>
          <ns3:TrackPointExtension>
            <ns3:atemp>15.0</ns3:atemp>
          </ns3:TrackPointExtension>
        </extensions>
      </trkpt>
      <trkpt lat="42.62713216245174407958984375" lon="19.89914565347135066986083984375">
        <ele>1414</ele>
        <time>2026-06-16T07:24:37.000Z</time>
        <extensions>
          <ns3:TrackPointExtension>
            <ns3:atemp>15.0</ns3:atemp>
          </ns3:TrackPointExtension>
        </extensions>
      </trkpt>
      <trkpt lat="42.62713492847979068756103515625" lon="19.8991304822266101837158203125">
        <ele>1414.199951171875</ele>
        <time>2026-06-16T07:24:38.000Z</time>
        <extensions>
          <ns3:TrackPointExtension>
            <ns3:atemp>15.0</ns3:atemp>
          </ns3:TrackPointExtension>
        </extensions>
      </trkpt>
      <trkpt lat="42.6271326653659343719482421875" lon="19.89911514334380626678466796875">
        <ele>1414.199951171875</ele>
        <time>2026-06-16T07:24:39.000Z</time>
        <extensions>
          <ns3:TrackPointExtension>
            <ns3:atemp>15.0</ns3:atemp>
          </ns3:TrackPointExtension>
        </extensions>
      </trkpt>
      <trkpt lat="42.627129815518856048583984375" lon="19.89910273812711238861083984375">
        <ele>1414.4000244140625</ele>
        <time>2026-06-16T07:24:40.000Z</time>
        <extensions>
          <ns3:TrackPointExtension>
            <ns3:atemp>15.0</ns3:atemp>
          </ns3:TrackPointExtension>
        </extensions>
      </trkpt>
      <trkpt lat="42.627127803862094879150390625" lon="19.899092428386211395263671875">
        <ele>1414.4000244140625</ele>
        <time>2026-06-16T07:24:41.000Z</time>
        <extensions>
          <ns3:TrackPointExtension>
            <ns3:atemp>15.0</ns3:atemp>
          </ns3:TrackPointExtension>
        </extensions>
      </trkpt>
      <trkpt lat="42.62712788768112659454345703125" lon="19.8990885727107524871826171875">
        <ele>1414.4000244140625</ele>
        <time>2026-06-16T07:24:42.000Z</time>
        <extensions>
          <ns3:TrackPointExtension>
            <ns3:atemp>15.0</ns3:atemp>
          </ns3:TrackPointExtension>
        </extensions>
      </trkpt>
      <trkpt lat="42.6271226070821285247802734375" lon="19.89908128045499324798583984375">
        <ele>1414.5999755859375</ele>
        <time>2026-06-16T07:24:43.000Z</time>
        <extensions>
          <ns3:TrackPointExtension>
            <ns3:atemp>15.0</ns3:atemp>
          </ns3:TrackPointExtension>
        </extensions>
      </trkpt>
      <trkpt lat="42.62712277472019195556640625" lon="19.89908195100724697113037109375">
        <ele>1414.5999755859375</ele>
        <time>2026-06-16T07:24:44.000Z</time>
        <extensions>
          <ns3:TrackPointExtension>
            <ns3:atemp>15.0</ns3:atemp>
          </ns3:TrackPointExtension>
        </extensions>
      </trkpt>
      <trkpt lat="42.62712277472019195556640625" lon="19.89908195100724697113037109375">
        <ele>1414.5999755859375</ele>
        <time>2026-06-16T07:24:45.000Z</time>
        <extensions>
          <ns3:TrackPointExtension>
            <ns3:atemp>15.0</ns3:atemp>
          </ns3:TrackPointExtension>
        </extensions>
      </trkpt>
      <trkpt lat="42.62712277472019195556640625" lon="19.89908195100724697113037109375">
        <ele>1414.800048828125</ele>
        <time>2026-06-16T07:24:46.000Z</time>
        <extensions>
          <ns3:TrackPointExtension>
            <ns3:atemp>15.0</ns3:atemp>
          </ns3:TrackPointExtension>
        </extensions>
      </trkpt>
      <trkpt lat="42.62712277472019195556640625" lon="19.89908195100724697113037109375">
        <ele>1414.800048828125</ele>
        <time>2026-06-16T07:24:47.000Z</time>
        <extensions>
          <ns3:TrackPointExtension>
            <ns3:atemp>15.0</ns3:atemp>
          </ns3:TrackPointExtension>
        </extensions>
      </trkpt>
      <trkpt lat="42.62712277472019195556640625" lon="19.89908195100724697113037109375">
        <ele>1414.800048828125</ele>
        <time>2026-06-16T07:24:48.000Z</time>
        <extensions>
          <ns3:TrackPointExtension>
            <ns3:atemp>15.0</ns3:atemp>
          </ns3:TrackPointExtension>
        </extensions>
      </trkpt>
      <trkpt lat="42.62712277472019195556640625" lon="19.89908195100724697113037109375">
        <ele>1414.800048828125</ele>
        <time>2026-06-16T07:24:49.000Z</time>
        <extensions>
          <ns3:TrackPointExtension>
            <ns3:atemp>15.0</ns3:atemp>
          </ns3:TrackPointExtension>
        </extensions>
      </trkpt>
      <trkpt lat="42.62712277472019195556640625" lon="19.89908195100724697113037109375">
        <ele>1414.800048828125</ele>
        <time>2026-06-16T07:24:50.000Z</time>
        <extensions>
          <ns3:TrackPointExtension>
            <ns3:atemp>15.0</ns3:atemp>
          </ns3:TrackPointExtension>
        </extensions>
      </trkpt>
      <trkpt lat="42.62712277472019195556640625" lon="19.89908195100724697113037109375">
        <ele>1414.800048828125</ele>
        <time>2026-06-16T07:24:51.000Z</time>
        <extensions>
          <ns3:TrackPointExtension>
            <ns3:atemp>15.0</ns3:atemp>
          </ns3:TrackPointExtension>
        </extensions>
      </trkpt>
      <trkpt lat="42.62712277472019195556640625" lon="19.89908195100724697113037109375">
        <ele>1414.800048828125</ele>
        <time>2026-06-16T07:24:52.000Z</time>
        <extensions>
          <ns3:TrackPointExtension>
            <ns3:atemp>15.0</ns3:atemp>
          </ns3:TrackPointExtension>
        </extensions>
      </trkpt>
      <trkpt lat="42.62712277472019195556640625" lon="19.89908195100724697113037109375">
        <ele>1414.800048828125</ele>
        <time>2026-06-16T07:24:53.000Z</time>
        <extensions>
          <ns3:TrackPointExtension>
            <ns3:atemp>15.0</ns3:atemp>
          </ns3:TrackPointExtension>
        </extensions>
      </trkpt>
      <trkpt lat="42.62712277472019195556640625" lon="19.89908195100724697113037109375">
        <ele>1415</ele>
        <time>2026-06-16T07:24:54.000Z</time>
        <extensions>
          <ns3:TrackPointExtension>
            <ns3:atemp>15.0</ns3:atemp>
          </ns3:TrackPointExtension>
        </extensions>
      </trkpt>
      <trkpt lat="42.62712277472019195556640625" lon="19.89908195100724697113037109375">
        <ele>1415</ele>
        <time>2026-06-16T07:24:55.000Z</time>
        <extensions>
          <ns3:TrackPointExtension>
            <ns3:atemp>15.0</ns3:atemp>
          </ns3:TrackPointExtension>
        </extensions>
      </trkpt>
      <trkpt lat="42.62712277472019195556640625" lon="19.89908195100724697113037109375">
        <ele>1415</ele>
        <time>2026-06-16T07:24:56.000Z</time>
        <extensions>
          <ns3:TrackPointExtension>
            <ns3:atemp>15.0</ns3:atemp>
          </ns3:TrackPointExtension>
        </extensions>
      </trkpt>
      <trkpt lat="42.62712277472019195556640625" lon="19.89908195100724697113037109375">
        <ele>1415</ele>
        <time>2026-06-16T07:24:57.000Z</time>
        <extensions>
          <ns3:TrackPointExtension>
            <ns3:atemp>15.0</ns3:atemp>
          </ns3:TrackPointExtension>
        </extensions>
      </trkpt>
      <trkpt lat="42.62712277472019195556640625" lon="19.89908195100724697113037109375">
        <ele>1415</ele>
        <time>2026-06-16T07:24:58.000Z</time>
        <extensions>
          <ns3:TrackPointExtension>
            <ns3:atemp>15.0</ns3:atemp>
          </ns3:TrackPointExtension>
        </extensions>
      </trkpt>
      <trkpt lat="42.62712277472019195556640625" lon="19.89908195100724697113037109375">
        <ele>1415</ele>
        <time>2026-06-16T07:24:59.000Z</time>
        <extensions>
          <ns3:TrackPointExtension>
            <ns3:atemp>15.0</ns3:atemp>
          </ns3:TrackPointExtension>
        </extensions>
      </trkpt>
      <trkpt lat="42.6271229423582553863525390625" lon="19.89907122217118740081787109375">
        <ele>1415.199951171875</ele>
        <time>2026-06-16T07:25:00.000Z</time>
        <extensions>
          <ns3:TrackPointExtension>
            <ns3:atemp>15.0</ns3:atemp>
          </ns3:TrackPointExtension>
        </extensions>
      </trkpt>
      <trkpt lat="42.6271249540150165557861328125" lon="19.89905563183128833770751953125">
        <ele>1415.199951171875</ele>
        <time>2026-06-16T07:25:01.000Z</time>
        <extensions>
          <ns3:TrackPointExtension>
            <ns3:atemp>15.0</ns3:atemp>
          </ns3:TrackPointExtension>
        </extensions>
      </trkpt>
      <trkpt lat="42.62712855823338031768798828125" lon="19.89903383888304233551025390625">
        <ele>1415.199951171875</ele>
        <time>2026-06-16T07:25:02.000Z</time>
        <extensions>
          <ns3:TrackPointExtension>
            <ns3:atemp>15.0</ns3:atemp>
          </ns3:TrackPointExtension>
        </extensions>
      </trkpt>
      <trkpt lat="42.6271356828510761260986328125" lon="19.89901724271476268768310546875">
        <ele>1415.199951171875</ele>
        <time>2026-06-16T07:25:03.000Z</time>
        <extensions>
          <ns3:TrackPointExtension>
            <ns3:atemp>15.0</ns3:atemp>
          </ns3:TrackPointExtension>
        </extensions>
      </trkpt>
      <trkpt lat="42.62714347802102565765380859375" lon="19.898999221622943878173828125">
        <ele>1415.199951171875</ele>
        <time>2026-06-16T07:25:04.000Z</time>
        <extensions>
          <ns3:TrackPointExtension>
            <ns3:atemp>15.0</ns3:atemp>
          </ns3:TrackPointExtension>
        </extensions>
      </trkpt>
      <trkpt lat="42.62715588323771953582763671875" lon="19.89898622967302799224853515625">
        <ele>1415.199951171875</ele>
        <time>2026-06-16T07:25:05.000Z</time>
        <extensions>
          <ns3:TrackPointExtension>
            <ns3:atemp>15.0</ns3:atemp>
          </ns3:TrackPointExtension>
        </extensions>
      </trkpt>
      <trkpt lat="42.62717247940599918365478515625" lon="19.898975752294063568115234375">
        <ele>1415</ele>
        <time>2026-06-16T07:25:06.000Z</time>
        <extensions>
          <ns3:TrackPointExtension>
            <ns3:atemp>15.0</ns3:atemp>
          </ns3:TrackPointExtension>
        </extensions>
      </trkpt>
      <trkpt lat="42.62718874029815196990966796875" lon="19.8989682085812091827392578125">
        <ele>1414.800048828125</ele>
        <time>2026-06-16T07:25:07.000Z</time>
        <extensions>
          <ns3:TrackPointExtension>
            <ns3:atemp>15.0</ns3:atemp>
          </ns3:TrackPointExtension>
        </extensions>
      </trkpt>
      <trkpt lat="42.62720458209514617919921875" lon="19.89896326325833797454833984375">
        <ele>1414.800048828125</ele>
        <time>2026-06-16T07:25:08.000Z</time>
        <extensions>
          <ns3:TrackPointExtension>
            <ns3:atemp>15.0</ns3:atemp>
          </ns3:TrackPointExtension>
        </extensions>
      </trkpt>
      <trkpt lat="42.62722411192953586578369140625" lon="19.89897717721760272979736328125">
        <ele>1414.800048828125</ele>
        <time>2026-06-16T07:25:09.000Z</time>
        <extensions>
          <ns3:TrackPointExtension>
            <ns3:atemp>15.0</ns3:atemp>
          </ns3:TrackPointExtension>
        </extensions>
      </trkpt>
      <trkpt lat="42.62723676860332489013671875" lon="19.89900290966033935546875">
        <ele>1414.800048828125</ele>
        <time>2026-06-16T07:25:10.000Z</time>
        <extensions>
          <ns3:TrackPointExtension>
            <ns3:atemp>15.0</ns3:atemp>
          </ns3:TrackPointExtension>
        </extensions>
      </trkpt>
      <trkpt lat="42.62725822627544403076171875" lon="19.89902914501726627349853515625">
        <ele>1415</ele>
        <time>2026-06-16T07:25:11.000Z</time>
        <extensions>
          <ns3:TrackPointExtension>
            <ns3:atemp>15.0</ns3:atemp>
          </ns3:TrackPointExtension>
        </extensions>
      </trkpt>
      <trkpt lat="42.627280689775943756103515625" lon="19.8990476690232753753662109375">
        <ele>1415.199951171875</ele>
        <time>2026-06-16T07:25:12.000Z</time>
        <extensions>
          <ns3:TrackPointExtension>
            <ns3:atemp>15.0</ns3:atemp>
          </ns3:TrackPointExtension>
        </extensions>
      </trkpt>
      <trkpt lat="42.62730382382869720458984375" lon="19.89906719885766506195068359375">
        <ele>1415.4000244140625</ele>
        <time>2026-06-16T07:25:13.000Z</time>
        <extensions>
          <ns3:TrackPointExtension>
            <ns3:atemp>15.0</ns3:atemp>
          </ns3:TrackPointExtension>
        </extensions>
      </trkpt>
      <trkpt lat="42.62732670642435550689697265625" lon="19.89907960407435894012451171875">
        <ele>1415.5999755859375</ele>
        <time>2026-06-16T07:25:14.000Z</time>
        <extensions>
          <ns3:TrackPointExtension>
            <ns3:atemp>15.0</ns3:atemp>
          </ns3:TrackPointExtension>
        </extensions>
      </trkpt>
      <trkpt lat="42.62734816409647464752197265625" lon="19.8990838788449764251708984375">
        <ele>1415.800048828125</ele>
        <time>2026-06-16T07:25:15.000Z</time>
        <extensions>
          <ns3:TrackPointExtension>
            <ns3:atemp>15.0</ns3:atemp>
          </ns3:TrackPointExtension>
        </extensions>
      </trkpt>
      <trkpt lat="42.62736844830214977264404296875" lon="19.89908647723495960235595703125">
        <ele>1416</ele>
        <time>2026-06-16T07:25:16.000Z</time>
        <extensions>
          <ns3:TrackPointExtension>
            <ns3:atemp>15.0</ns3:atemp>
          </ns3:TrackPointExtension>
        </extensions>
      </trkpt>
      <trkpt lat="42.62738454155623912811279296875" lon="19.89908806979656219482421875">
        <ele>1416.199951171875</ele>
        <time>2026-06-16T07:25:17.000Z</time>
        <extensions>
          <ns3:TrackPointExtension>
            <ns3:atemp>15.0</ns3:atemp>
          </ns3:TrackPointExtension>
        </extensions>
      </trkpt>
      <trkpt lat="42.6273951865732669830322265625" lon="19.89908136427402496337890625">
        <ele>1416.4000244140625</ele>
        <time>2026-06-16T07:25:18.000Z</time>
        <extensions>
          <ns3:TrackPointExtension>
            <ns3:atemp>15.0</ns3:atemp>
          </ns3:TrackPointExtension>
        </extensions>
      </trkpt>
      <trkpt lat="42.6274112798273563385009765625" lon="19.8990785144269466400146484375">
        <ele>1416.4000244140625</ele>
        <time>2026-06-16T07:25:19.000Z</time>
        <extensions>
          <ns3:TrackPointExtension>
            <ns3:atemp>15.0</ns3:atemp>
          </ns3:TrackPointExtension>
        </extensions>
      </trkpt>
      <trkpt lat="42.627431564033031463623046875" lon="19.8990761674940586090087890625">
        <ele>1416.199951171875</ele>
        <time>2026-06-16T07:25:20.000Z</time>
        <extensions>
          <ns3:TrackPointExtension>
            <ns3:atemp>15.0</ns3:atemp>
          </ns3:TrackPointExtension>
        </extensions>
      </trkpt>
      <trkpt lat="42.62745394371449947357177734375" lon="19.89907491020858287811279296875">
        <ele>1416.199951171875</ele>
        <time>2026-06-16T07:25:21.000Z</time>
        <extensions>
          <ns3:TrackPointExtension>
            <ns3:atemp>15.0</ns3:atemp>
          </ns3:TrackPointExtension>
        </extensions>
      </trkpt>
      <trkpt lat="42.62747674249112606048583984375" lon="19.89907423965632915496826171875">
        <ele>1416</ele>
        <time>2026-06-16T07:25:22.000Z</time>
        <extensions>
          <ns3:TrackPointExtension>
            <ns3:atemp>15.0</ns3:atemp>
          </ns3:TrackPointExtension>
        </extensions>
      </trkpt>
      <trkpt lat="42.6275007985532283782958984375" lon="19.89907055161893367767333984375">
        <ele>1416</ele>
        <time>2026-06-16T07:25:23.000Z</time>
        <extensions>
          <ns3:TrackPointExtension>
            <ns3:atemp>15.0</ns3:atemp>
          </ns3:TrackPointExtension>
        </extensions>
      </trkpt>
      <trkpt lat="42.627527453005313873291015625" lon="19.89906803704798221588134765625">
        <ele>1416</ele>
        <time>2026-06-16T07:25:24.000Z</time>
        <extensions>
          <ns3:TrackPointExtension>
            <ns3:atemp>15.0</ns3:atemp>
          </ns3:TrackPointExtension>
        </extensions>
      </trkpt>
      <trkpt lat="42.62755335308611392974853515625" lon="19.8990644328296184539794921875">
        <ele>1416.199951171875</ele>
        <time>2026-06-16T07:25:25.000Z</time>
        <extensions>
          <ns3:TrackPointExtension>
            <ns3:atemp>15.0</ns3:atemp>
          </ns3:TrackPointExtension>
        </extensions>
      </trkpt>
      <trkpt lat="42.62757766060531139373779296875" lon="19.8990640975534915924072265625">
        <ele>1416.4000244140625</ele>
        <time>2026-06-16T07:25:26.000Z</time>
        <extensions>
          <ns3:TrackPointExtension>
            <ns3:atemp>15.0</ns3:atemp>
          </ns3:TrackPointExtension>
        </extensions>
      </trkpt>
      <trkpt lat="42.62760112993419170379638671875" lon="19.89906786940991878509521484375">
        <ele>1416.4000244140625</ele>
        <time>2026-06-16T07:25:27.000Z</time>
        <extensions>
          <ns3:TrackPointExtension>
            <ns3:atemp>15.0</ns3:atemp>
          </ns3:TrackPointExtension>
        </extensions>
      </trkpt>
      <trkpt lat="42.627626694738864898681640625" lon="19.89907541312277317047119140625">
        <ele>1416.4000244140625</ele>
        <time>2026-06-16T07:25:28.000Z</time>
        <extensions>
          <ns3:TrackPointExtension>
            <ns3:atemp>15.0</ns3:atemp>
          </ns3:TrackPointExtension>
        </extensions>
      </trkpt>
      <trkpt lat="42.627652846276760101318359375" lon="19.899075329303741455078125">
        <ele>1416.5999755859375</ele>
        <time>2026-06-16T07:25:29.000Z</time>
        <extensions>
          <ns3:TrackPointExtension>
            <ns3:atemp>15.0</ns3:atemp>
          </ns3:TrackPointExtension>
        </extensions>
      </trkpt>
      <trkpt lat="42.6276788301765918731689453125" lon="19.8990791849792003631591796875">
        <ele>1416.5999755859375</ele>
        <time>2026-06-16T07:25:30.000Z</time>
        <extensions>
          <ns3:TrackPointExtension>
            <ns3:atemp>15.0</ns3:atemp>
          </ns3:TrackPointExtension>
        </extensions>
      </trkpt>
      <trkpt lat="42.6277026347815990447998046875" lon="19.89908245392143726348876953125">
        <ele>1416.800048828125</ele>
        <time>2026-06-16T07:25:31.000Z</time>
        <extensions>
          <ns3:TrackPointExtension>
            <ns3:atemp>15.0</ns3:atemp>
          </ns3:TrackPointExtension>
        </extensions>
      </trkpt>
      <trkpt lat="42.62772702611982822418212890625" lon="19.89908765070140361785888671875">
        <ele>1417</ele>
        <time>2026-06-16T07:25:32.000Z</time>
        <extensions>
          <ns3:TrackPointExtension>
            <ns3:atemp>15.0</ns3:atemp>
          </ns3:TrackPointExtension>
        </extensions>
      </trkpt>
      <trkpt lat="42.6277505792677402496337890625" lon="19.8990946076810359954833984375">
        <ele>1417.199951171875</ele>
        <time>2026-06-16T07:25:33.000Z</time>
        <extensions>
          <ns3:TrackPointExtension>
            <ns3:atemp>15.0</ns3:atemp>
          </ns3:TrackPointExtension>
        </extensions>
      </trkpt>
      <trkpt lat="42.6277740485966205596923828125" lon="19.89910173229873180389404296875">
        <ele>1417.199951171875</ele>
        <time>2026-06-16T07:25:34.000Z</time>
        <extensions>
          <ns3:TrackPointExtension>
            <ns3:atemp>15.0</ns3:atemp>
          </ns3:TrackPointExtension>
        </extensions>
      </trkpt>
      <trkpt lat="42.62779533863067626953125" lon="19.89910609088838100433349609375">
        <ele>1417.4000244140625</ele>
        <time>2026-06-16T07:25:35.000Z</time>
        <extensions>
          <ns3:TrackPointExtension>
            <ns3:atemp>15.0</ns3:atemp>
          </ns3:TrackPointExtension>
        </extensions>
      </trkpt>
      <trkpt lat="42.62781805358827114105224609375" lon="19.8991093598306179046630859375">
        <ele>1417.5999755859375</ele>
        <time>2026-06-16T07:25:36.000Z</time>
        <extensions>
          <ns3:TrackPointExtension>
            <ns3:atemp>15.0</ns3:atemp>
          </ns3:TrackPointExtension>
        </extensions>
      </trkpt>
      <trkpt lat="42.6278364099562168121337890625" lon="19.8991107009351253509521484375">
        <ele>1417.800048828125</ele>
        <time>2026-06-16T07:25:37.000Z</time>
        <extensions>
          <ns3:TrackPointExtension>
            <ns3:atemp>15.0</ns3:atemp>
          </ns3:TrackPointExtension>
        </extensions>
      </trkpt>
      <trkpt lat="42.6278457976877689361572265625" lon="19.89909234456717967987060546875">
        <ele>1418</ele>
        <time>2026-06-16T07:25:38.000Z</time>
        <extensions>
          <ns3:TrackPointExtension>
            <ns3:atemp>15.0</ns3:atemp>
          </ns3:TrackPointExtension>
        </extensions>
      </trkpt>
      <trkpt lat="42.62784353457391262054443359375" lon="19.89909351803362369537353515625">
        <ele>1418.199951171875</ele>
        <time>2026-06-16T07:25:39.000Z</time>
        <extensions>
          <ns3:TrackPointExtension>
            <ns3:atemp>15.0</ns3:atemp>
          </ns3:TrackPointExtension>
        </extensions>
      </trkpt>
      <trkpt lat="42.6278434507548809051513671875" lon="19.8990936018526554107666015625">
        <ele>1418.4000244140625</ele>
        <time>2026-06-16T07:25:40.000Z</time>
        <extensions>
          <ns3:TrackPointExtension>
            <ns3:atemp>15.0</ns3:atemp>
          </ns3:TrackPointExtension>
        </extensions>
      </trkpt>
      <trkpt lat="42.6278434507548809051513671875" lon="19.8990936018526554107666015625">
        <ele>1418.5999755859375</ele>
        <time>2026-06-16T07:25:41.000Z</time>
        <extensions>
          <ns3:TrackPointExtension>
            <ns3:atemp>15.0</ns3:atemp>
          </ns3:TrackPointExtension>
        </extensions>
      </trkpt>
      <trkpt lat="42.6278434507548809051513671875" lon="19.8990936018526554107666015625">
        <ele>1418.800048828125</ele>
        <time>2026-06-16T07:25:42.000Z</time>
        <extensions>
          <ns3:TrackPointExtension>
            <ns3:atemp>15.0</ns3:atemp>
          </ns3:TrackPointExtension>
        </extensions>
      </trkpt>
      <trkpt lat="42.6278434507548809051513671875" lon="19.8990936018526554107666015625">
        <ele>1418.800048828125</ele>
        <time>2026-06-16T07:25:43.000Z</time>
        <extensions>
          <ns3:TrackPointExtension>
            <ns3:atemp>15.0</ns3:atemp>
          </ns3:TrackPointExtension>
        </extensions>
      </trkpt>
      <trkpt lat="42.6278434507548809051513671875" lon="19.8990936018526554107666015625">
        <ele>1418.800048828125</ele>
        <time>2026-06-16T07:25:44.000Z</time>
        <extensions>
          <ns3:TrackPointExtension>
            <ns3:atemp>15.0</ns3:atemp>
          </ns3:TrackPointExtension>
        </extensions>
      </trkpt>
      <trkpt lat="42.6278434507548809051513671875" lon="19.8990936018526554107666015625">
        <ele>1418.5999755859375</ele>
        <time>2026-06-16T07:25:45.000Z</time>
        <extensions>
          <ns3:TrackPointExtension>
            <ns3:atemp>15.0</ns3:atemp>
          </ns3:TrackPointExtension>
        </extensions>
      </trkpt>
      <trkpt lat="42.6278434507548809051513671875" lon="19.8990936018526554107666015625">
        <ele>1418.5999755859375</ele>
        <time>2026-06-16T07:25:46.000Z</time>
        <extensions>
          <ns3:TrackPointExtension>
            <ns3:atemp>15.0</ns3:atemp>
          </ns3:TrackPointExtension>
        </extensions>
      </trkpt>
      <trkpt lat="42.6278434507548809051513671875" lon="19.8990936018526554107666015625">
        <ele>1418.5999755859375</ele>
        <time>2026-06-16T07:25:47.000Z</time>
        <extensions>
          <ns3:TrackPointExtension>
            <ns3:atemp>15.0</ns3:atemp>
          </ns3:TrackPointExtension>
        </extensions>
      </trkpt>
      <trkpt lat="42.6278434507548809051513671875" lon="19.8990936018526554107666015625">
        <ele>1418.5999755859375</ele>
        <time>2026-06-16T07:25:48.000Z</time>
        <extensions>
          <ns3:TrackPointExtension>
            <ns3:atemp>15.0</ns3:atemp>
          </ns3:TrackPointExtension>
        </extensions>
      </trkpt>
      <trkpt lat="42.6278434507548809051513671875" lon="19.8990936018526554107666015625">
        <ele>1418.5999755859375</ele>
        <time>2026-06-16T07:25:49.000Z</time>
        <extensions>
          <ns3:TrackPointExtension>
            <ns3:atemp>15.0</ns3:atemp>
          </ns3:TrackPointExtension>
        </extensions>
      </trkpt>
      <trkpt lat="42.6278434507548809051513671875" lon="19.8990936018526554107666015625">
        <ele>1418.5999755859375</ele>
        <time>2026-06-16T07:25:50.000Z</time>
        <extensions>
          <ns3:TrackPointExtension>
            <ns3:atemp>15.0</ns3:atemp>
          </ns3:TrackPointExtension>
        </extensions>
      </trkpt>
      <trkpt lat="42.6278434507548809051513671875" lon="19.8990936018526554107666015625">
        <ele>1418.5999755859375</ele>
        <time>2026-06-16T07:25:51.000Z</time>
        <extensions>
          <ns3:TrackPointExtension>
            <ns3:atemp>15.0</ns3:atemp>
          </ns3:TrackPointExtension>
        </extensions>
      </trkpt>
      <trkpt lat="42.6278434507548809051513671875" lon="19.8990936018526554107666015625">
        <ele>1418.5999755859375</ele>
        <time>2026-06-16T07:25:52.000Z</time>
        <extensions>
          <ns3:TrackPointExtension>
            <ns3:atemp>15.0</ns3:atemp>
          </ns3:TrackPointExtension>
        </extensions>
      </trkpt>
      <trkpt lat="42.6278434507548809051513671875" lon="19.8990936018526554107666015625">
        <ele>1418.5999755859375</ele>
        <time>2026-06-16T07:25:53.000Z</time>
        <extensions>
          <ns3:TrackPointExtension>
            <ns3:atemp>15.0</ns3:atemp>
          </ns3:TrackPointExtension>
        </extensions>
      </trkpt>
      <trkpt lat="42.6278434507548809051513671875" lon="19.8990936018526554107666015625">
        <ele>1418.5999755859375</ele>
        <time>2026-06-16T07:25:54.000Z</time>
        <extensions>
          <ns3:TrackPointExtension>
            <ns3:atemp>15.0</ns3:atemp>
          </ns3:TrackPointExtension>
        </extensions>
      </trkpt>
      <trkpt lat="42.6278434507548809051513671875" lon="19.8990936018526554107666015625">
        <ele>1418.5999755859375</ele>
        <time>2026-06-16T07:25:55.000Z</time>
        <extensions>
          <ns3:TrackPointExtension>
            <ns3:atemp>15.0</ns3:atemp>
          </ns3:TrackPointExtension>
        </extensions>
      </trkpt>
      <trkpt lat="42.6278434507548809051513671875" lon="19.8990936018526554107666015625">
        <ele>1418.5999755859375</ele>
        <time>2026-06-16T07:25:56.000Z</time>
        <extensions>
          <ns3:TrackPointExtension>
            <ns3:atemp>15.0</ns3:atemp>
          </ns3:TrackPointExtension>
        </extensions>
      </trkpt>
      <trkpt lat="42.6278434507548809051513671875" lon="19.8990936018526554107666015625">
        <ele>1418.5999755859375</ele>
        <time>2026-06-16T07:25:57.000Z</time>
        <extensions>
          <ns3:TrackPointExtension>
            <ns3:atemp>15.0</ns3:atemp>
          </ns3:TrackPointExtension>
        </extensions>
      </trkpt>
      <trkpt lat="42.6278434507548809051513671875" lon="19.8990936018526554107666015625">
        <ele>1418.5999755859375</ele>
        <time>2026-06-16T07:25:58.000Z</time>
        <extensions>
          <ns3:TrackPointExtension>
            <ns3:atemp>16.0</ns3:atemp>
          </ns3:TrackPointExtension>
        </extensions>
      </trkpt>
      <trkpt lat="42.6278434507548809051513671875" lon="19.8990936018526554107666015625">
        <ele>1418.5999755859375</ele>
        <time>2026-06-16T07:25:59.000Z</time>
        <extensions>
          <ns3:TrackPointExtension>
            <ns3:atemp>15.0</ns3:atemp>
          </ns3:TrackPointExtension>
        </extensions>
      </trkpt>
      <trkpt lat="42.6278434507548809051513671875" lon="19.8990936018526554107666015625">
        <ele>1418.5999755859375</ele>
        <time>2026-06-16T07:26:00.000Z</time>
        <extensions>
          <ns3:TrackPointExtension>
            <ns3:atemp>15.0</ns3:atemp>
          </ns3:TrackPointExtension>
        </extensions>
      </trkpt>
      <trkpt lat="42.6278434507548809051513671875" lon="19.8990936018526554107666015625">
        <ele>1418.5999755859375</ele>
        <time>2026-06-16T07:26:01.000Z</time>
        <extensions>
          <ns3:TrackPointExtension>
            <ns3:atemp>15.0</ns3:atemp>
          </ns3:TrackPointExtension>
        </extensions>
      </trkpt>
      <trkpt lat="42.6278434507548809051513671875" lon="19.8990936018526554107666015625">
        <ele>1418.5999755859375</ele>
        <time>2026-06-16T07:26:02.000Z</time>
        <extensions>
          <ns3:TrackPointExtension>
            <ns3:atemp>16.0</ns3:atemp>
          </ns3:TrackPointExtension>
        </extensions>
      </trkpt>
      <trkpt lat="42.6278434507548809051513671875" lon="19.8990936018526554107666015625">
        <ele>1418.5999755859375</ele>
        <time>2026-06-16T07:26:03.000Z</time>
        <extensions>
          <ns3:TrackPointExtension>
            <ns3:atemp>16.0</ns3:atemp>
          </ns3:TrackPointExtension>
        </extensions>
      </trkpt>
      <trkpt lat="42.6278434507548809051513671875" lon="19.8990936018526554107666015625">
        <ele>1418.5999755859375</ele>
        <time>2026-06-16T07:26:04.000Z</time>
        <extensions>
          <ns3:TrackPointExtension>
            <ns3:atemp>16.0</ns3:atemp>
          </ns3:TrackPointExtension>
        </extensions>
      </trkpt>
      <trkpt lat="42.6278434507548809051513671875" lon="19.8990936018526554107666015625">
        <ele>1418.5999755859375</ele>
        <time>2026-06-16T07:26:05.000Z</time>
        <extensions>
          <ns3:TrackPointExtension>
            <ns3:atemp>16.0</ns3:atemp>
          </ns3:TrackPointExtension>
        </extensions>
      </trkpt>
      <trkpt lat="42.6278434507548809051513671875" lon="19.8990936018526554107666015625">
        <ele>1418.800048828125</ele>
        <time>2026-06-16T07:26:06.000Z</time>
        <extensions>
          <ns3:TrackPointExtension>
            <ns3:atemp>16.0</ns3:atemp>
          </ns3:TrackPointExtension>
        </extensions>
      </trkpt>
      <trkpt lat="42.6278434507548809051513671875" lon="19.8990936018526554107666015625">
        <ele>1418.800048828125</ele>
        <time>2026-06-16T07:26:07.000Z</time>
        <extensions>
          <ns3:TrackPointExtension>
            <ns3:atemp>16.0</ns3:atemp>
          </ns3:TrackPointExtension>
        </extensions>
      </trkpt>
      <trkpt lat="42.6278434507548809051513671875" lon="19.8990936018526554107666015625">
        <ele>1418.800048828125</ele>
        <time>2026-06-16T07:26:08.000Z</time>
        <extensions>
          <ns3:TrackPointExtension>
            <ns3:atemp>16.0</ns3:atemp>
          </ns3:TrackPointExtension>
        </extensions>
      </trkpt>
      <trkpt lat="42.6278434507548809051513671875" lon="19.8990936018526554107666015625">
        <ele>1418.800048828125</ele>
        <time>2026-06-16T07:26:09.000Z</time>
        <extensions>
          <ns3:TrackPointExtension>
            <ns3:atemp>16.0</ns3:atemp>
          </ns3:TrackPointExtension>
        </extensions>
      </trkpt>
      <trkpt lat="42.6278434507548809051513671875" lon="19.8990936018526554107666015625">
        <ele>1418.800048828125</ele>
        <time>2026-06-16T07:26:10.000Z</time>
        <extensions>
          <ns3:TrackPointExtension>
            <ns3:atemp>16.0</ns3:atemp>
          </ns3:TrackPointExtension>
        </extensions>
      </trkpt>
      <trkpt lat="42.6278434507548809051513671875" lon="19.8990936018526554107666015625">
        <ele>1418.800048828125</ele>
        <time>2026-06-16T07:26:11.000Z</time>
        <extensions>
          <ns3:TrackPointExtension>
            <ns3:atemp>16.0</ns3:atemp>
          </ns3:TrackPointExtension>
        </extensions>
      </trkpt>
      <trkpt lat="42.6278434507548809051513671875" lon="19.8990936018526554107666015625">
        <ele>1418.800048828125</ele>
        <time>2026-06-16T07:26:12.000Z</time>
        <extensions>
          <ns3:TrackPointExtension>
            <ns3:atemp>16.0</ns3:atemp>
          </ns3:TrackPointExtension>
        </extensions>
      </trkpt>
      <trkpt lat="42.6278434507548809051513671875" lon="19.8990936018526554107666015625">
        <ele>1418.800048828125</ele>
        <time>2026-06-16T07:26:13.000Z</time>
        <extensions>
          <ns3:TrackPointExtension>
            <ns3:atemp>16.0</ns3:atemp>
          </ns3:TrackPointExtension>
        </extensions>
      </trkpt>
      <trkpt lat="42.6278434507548809051513671875" lon="19.8990936018526554107666015625">
        <ele>1418.800048828125</ele>
        <time>2026-06-16T07:26:14.000Z</time>
        <extensions>
          <ns3:TrackPointExtension>
            <ns3:atemp>16.0</ns3:atemp>
          </ns3:TrackPointExtension>
        </extensions>
      </trkpt>
      <trkpt lat="42.6278434507548809051513671875" lon="19.8990936018526554107666015625">
        <ele>1418.800048828125</ele>
        <time>2026-06-16T07:26:15.000Z</time>
        <extensions>
          <ns3:TrackPointExtension>
            <ns3:atemp>16.0</ns3:atemp>
          </ns3:TrackPointExtension>
        </extensions>
      </trkpt>
      <trkpt lat="42.6278434507548809051513671875" lon="19.8990936018526554107666015625">
        <ele>1419</ele>
        <time>2026-06-16T07:26:16.000Z</time>
        <extensions>
          <ns3:TrackPointExtension>
            <ns3:atemp>16.0</ns3:atemp>
          </ns3:TrackPointExtension>
        </extensions>
      </trkpt>
      <trkpt lat="42.6278434507548809051513671875" lon="19.8990936018526554107666015625">
        <ele>1419</ele>
        <time>2026-06-16T07:26:17.000Z</time>
        <extensions>
          <ns3:TrackPointExtension>
            <ns3:atemp>16.0</ns3:atemp>
          </ns3:TrackPointExtension>
        </extensions>
      </trkpt>
      <trkpt lat="42.6278434507548809051513671875" lon="19.8990936018526554107666015625">
        <ele>1419</ele>
        <time>2026-06-16T07:26:18.000Z</time>
        <extensions>
          <ns3:TrackPointExtension>
            <ns3:atemp>16.0</ns3:atemp>
          </ns3:TrackPointExtension>
        </extensions>
      </trkpt>
      <trkpt lat="42.6278434507548809051513671875" lon="19.8990936018526554107666015625">
        <ele>1419</ele>
        <time>2026-06-16T07:26:19.000Z</time>
        <extensions>
          <ns3:TrackPointExtension>
            <ns3:atemp>16.0</ns3:atemp>
          </ns3:TrackPointExtension>
        </extensions>
      </trkpt>
      <trkpt lat="42.6278434507548809051513671875" lon="19.8990936018526554107666015625">
        <ele>1419</ele>
        <time>2026-06-16T07:26:20.000Z</time>
        <extensions>
          <ns3:TrackPointExtension>
            <ns3:atemp>16.0</ns3:atemp>
          </ns3:TrackPointExtension>
        </extensions>
      </trkpt>
      <trkpt lat="42.6278434507548809051513671875" lon="19.8990936018526554107666015625">
        <ele>1418.800048828125</ele>
        <time>2026-06-16T07:26:21.000Z</time>
        <extensions>
          <ns3:TrackPointExtension>
            <ns3:atemp>16.0</ns3:atemp>
          </ns3:TrackPointExtension>
        </extensions>
      </trkpt>
      <trkpt lat="42.6278434507548809051513671875" lon="19.8990936018526554107666015625">
        <ele>1418.800048828125</ele>
        <time>2026-06-16T07:26:22.000Z</time>
        <extensions>
          <ns3:TrackPointExtension>
            <ns3:atemp>16.0</ns3:atemp>
          </ns3:TrackPointExtension>
        </extensions>
      </trkpt>
      <trkpt lat="42.6278434507548809051513671875" lon="19.8990936018526554107666015625">
        <ele>1419</ele>
        <time>2026-06-16T07:26:23.000Z</time>
        <extensions>
          <ns3:TrackPointExtension>
            <ns3:atemp>16.0</ns3:atemp>
          </ns3:TrackPointExtension>
        </extensions>
      </trkpt>
      <trkpt lat="42.6278434507548809051513671875" lon="19.8990936018526554107666015625">
        <ele>1419</ele>
        <time>2026-06-16T07:26:24.000Z</time>
        <extensions>
          <ns3:TrackPointExtension>
            <ns3:atemp>16.0</ns3:atemp>
          </ns3:TrackPointExtension>
        </extensions>
      </trkpt>
      <trkpt lat="42.6278434507548809051513671875" lon="19.8990936018526554107666015625">
        <ele>1419</ele>
        <time>2026-06-16T07:26:25.000Z</time>
        <extensions>
          <ns3:TrackPointExtension>
            <ns3:atemp>16.0</ns3:atemp>
          </ns3:TrackPointExtension>
        </extensions>
      </trkpt>
      <trkpt lat="42.6278434507548809051513671875" lon="19.8990936018526554107666015625">
        <ele>1419</ele>
        <time>2026-06-16T07:26:26.000Z</time>
        <extensions>
          <ns3:TrackPointExtension>
            <ns3:atemp>16.0</ns3:atemp>
          </ns3:TrackPointExtension>
        </extensions>
      </trkpt>
      <trkpt lat="42.6278434507548809051513671875" lon="19.8990936018526554107666015625">
        <ele>1419</ele>
        <time>2026-06-16T07:26:27.000Z</time>
        <extensions>
          <ns3:TrackPointExtension>
            <ns3:atemp>16.0</ns3:atemp>
          </ns3:TrackPointExtension>
        </extensions>
      </trkpt>
      <trkpt lat="42.6278434507548809051513671875" lon="19.8990936018526554107666015625">
        <ele>1419</ele>
        <time>2026-06-16T07:26:28.000Z</time>
        <extensions>
          <ns3:TrackPointExtension>
            <ns3:atemp>16.0</ns3:atemp>
          </ns3:TrackPointExtension>
        </extensions>
      </trkpt>
      <trkpt lat="42.6278434507548809051513671875" lon="19.8990936018526554107666015625">
        <ele>1419</ele>
        <time>2026-06-16T07:26:29.000Z</time>
        <extensions>
          <ns3:TrackPointExtension>
            <ns3:atemp>16.0</ns3:atemp>
          </ns3:TrackPointExtension>
        </extensions>
      </trkpt>
      <trkpt lat="42.6278434507548809051513671875" lon="19.8990936018526554107666015625">
        <ele>1419</ele>
        <time>2026-06-16T07:26:30.000Z</time>
        <extensions>
          <ns3:TrackPointExtension>
            <ns3:atemp>16.0</ns3:atemp>
          </ns3:TrackPointExtension>
        </extensions>
      </trkpt>
      <trkpt lat="42.6278434507548809051513671875" lon="19.8990936018526554107666015625">
        <ele>1419</ele>
        <time>2026-06-16T07:26:31.000Z</time>
        <extensions>
          <ns3:TrackPointExtension>
            <ns3:atemp>16.0</ns3:atemp>
          </ns3:TrackPointExtension>
        </extensions>
      </trkpt>
      <trkpt lat="42.6278434507548809051513671875" lon="19.8990936018526554107666015625">
        <ele>1419</ele>
        <time>2026-06-16T07:26:32.000Z</time>
        <extensions>
          <ns3:TrackPointExtension>
            <ns3:atemp>16.0</ns3:atemp>
          </ns3:TrackPointExtension>
        </extensions>
      </trkpt>
      <trkpt lat="42.6278434507548809051513671875" lon="19.8990936018526554107666015625">
        <ele>1419</ele>
        <time>2026-06-16T07:26:33.000Z</time>
        <extensions>
          <ns3:TrackPointExtension>
            <ns3:atemp>16.0</ns3:atemp>
          </ns3:TrackPointExtension>
        </extensions>
      </trkpt>
      <trkpt lat="42.6278434507548809051513671875" lon="19.8990936018526554107666015625">
        <ele>1419.199951171875</ele>
        <time>2026-06-16T07:26:34.000Z</time>
        <extensions>
          <ns3:TrackPointExtension>
            <ns3:atemp>16.0</ns3:atemp>
          </ns3:TrackPointExtension>
        </extensions>
      </trkpt>
      <trkpt lat="42.6278434507548809051513671875" lon="19.8990936018526554107666015625">
        <ele>1419.199951171875</ele>
        <time>2026-06-16T07:26:35.000Z</time>
        <extensions>
          <ns3:TrackPointExtension>
            <ns3:atemp>16.0</ns3:atemp>
          </ns3:TrackPointExtension>
        </extensions>
      </trkpt>
      <trkpt lat="42.6278434507548809051513671875" lon="19.8990936018526554107666015625">
        <ele>1419.199951171875</ele>
        <time>2026-06-16T07:26:36.000Z</time>
        <extensions>
          <ns3:TrackPointExtension>
            <ns3:atemp>16.0</ns3:atemp>
          </ns3:TrackPointExtension>
        </extensions>
      </trkpt>
      <trkpt lat="42.6278434507548809051513671875" lon="19.8990936018526554107666015625">
        <ele>1419.199951171875</ele>
        <time>2026-06-16T07:26:37.000Z</time>
        <extensions>
          <ns3:TrackPointExtension>
            <ns3:atemp>16.0</ns3:atemp>
          </ns3:TrackPointExtension>
        </extensions>
      </trkpt>
      <trkpt lat="42.6278434507548809051513671875" lon="19.8990936018526554107666015625">
        <ele>1419.199951171875</ele>
        <time>2026-06-16T07:26:38.000Z</time>
        <extensions>
          <ns3:TrackPointExtension>
            <ns3:atemp>16.0</ns3:atemp>
          </ns3:TrackPointExtension>
        </extensions>
      </trkpt>
      <trkpt lat="42.6278434507548809051513671875" lon="19.8990936018526554107666015625">
        <ele>1419.199951171875</ele>
        <time>2026-06-16T07:26:39.000Z</time>
        <extensions>
          <ns3:TrackPointExtension>
            <ns3:atemp>16.0</ns3:atemp>
          </ns3:TrackPointExtension>
        </extensions>
      </trkpt>
      <trkpt lat="42.6278434507548809051513671875" lon="19.8990936018526554107666015625">
        <ele>1419.199951171875</ele>
        <time>2026-06-16T07:26:40.000Z</time>
        <extensions>
          <ns3:TrackPointExtension>
            <ns3:atemp>16.0</ns3:atemp>
          </ns3:TrackPointExtension>
        </extensions>
      </trkpt>
      <trkpt lat="42.6278434507548809051513671875" lon="19.8990936018526554107666015625">
        <ele>1419.199951171875</ele>
        <time>2026-06-16T07:26:41.000Z</time>
        <extensions>
          <ns3:TrackPointExtension>
            <ns3:atemp>16.0</ns3:atemp>
          </ns3:TrackPointExtension>
        </extensions>
      </trkpt>
      <trkpt lat="42.6278434507548809051513671875" lon="19.8990936018526554107666015625">
        <ele>1419.199951171875</ele>
        <time>2026-06-16T07:26:42.000Z</time>
        <extensions>
          <ns3:TrackPointExtension>
            <ns3:atemp>16.0</ns3:atemp>
          </ns3:TrackPointExtension>
        </extensions>
      </trkpt>
      <trkpt lat="42.6278434507548809051513671875" lon="19.8990936018526554107666015625">
        <ele>1419.199951171875</ele>
        <time>2026-06-16T07:26:43.000Z</time>
        <extensions>
          <ns3:TrackPointExtension>
            <ns3:atemp>16.0</ns3:atemp>
          </ns3:TrackPointExtension>
        </extensions>
      </trkpt>
      <trkpt lat="42.6278434507548809051513671875" lon="19.8990936018526554107666015625">
        <ele>1419.199951171875</ele>
        <time>2026-06-16T07:26:44.000Z</time>
        <extensions>
          <ns3:TrackPointExtension>
            <ns3:atemp>16.0</ns3:atemp>
          </ns3:TrackPointExtension>
        </extensions>
      </trkpt>
      <trkpt lat="42.6278434507548809051513671875" lon="19.8990936018526554107666015625">
        <ele>1419.199951171875</ele>
        <time>2026-06-16T07:26:45.000Z</time>
        <extensions>
          <ns3:TrackPointExtension>
            <ns3:atemp>16.0</ns3:atemp>
          </ns3:TrackPointExtension>
        </extensions>
      </trkpt>
      <trkpt lat="42.6278434507548809051513671875" lon="19.8990936018526554107666015625">
        <ele>1419.199951171875</ele>
        <time>2026-06-16T07:26:46.000Z</time>
        <extensions>
          <ns3:TrackPointExtension>
            <ns3:atemp>16.0</ns3:atemp>
          </ns3:TrackPointExtension>
        </extensions>
      </trkpt>
      <trkpt lat="42.6278434507548809051513671875" lon="19.8990936018526554107666015625">
        <ele>1419.199951171875</ele>
        <time>2026-06-16T07:26:47.000Z</time>
        <extensions>
          <ns3:TrackPointExtension>
            <ns3:atemp>16.0</ns3:atemp>
          </ns3:TrackPointExtension>
        </extensions>
      </trkpt>
      <trkpt lat="42.6278434507548809051513671875" lon="19.8990936018526554107666015625">
        <ele>1419.199951171875</ele>
        <time>2026-06-16T07:26:48.000Z</time>
        <extensions>
          <ns3:TrackPointExtension>
            <ns3:atemp>16.0</ns3:atemp>
          </ns3:TrackPointExtension>
        </extensions>
      </trkpt>
      <trkpt lat="42.6278434507548809051513671875" lon="19.8990936018526554107666015625">
        <ele>1419.199951171875</ele>
        <time>2026-06-16T07:26:49.000Z</time>
        <extensions>
          <ns3:TrackPointExtension>
            <ns3:atemp>16.0</ns3:atemp>
          </ns3:TrackPointExtension>
        </extensions>
      </trkpt>
      <trkpt lat="42.6278434507548809051513671875" lon="19.8990936018526554107666015625">
        <ele>1419.199951171875</ele>
        <time>2026-06-16T07:26:50.000Z</time>
        <extensions>
          <ns3:TrackPointExtension>
            <ns3:atemp>16.0</ns3:atemp>
          </ns3:TrackPointExtension>
        </extensions>
      </trkpt>
      <trkpt lat="42.6278434507548809051513671875" lon="19.8990936018526554107666015625">
        <ele>1419.199951171875</ele>
        <time>2026-06-16T07:26:51.000Z</time>
        <extensions>
          <ns3:TrackPointExtension>
            <ns3:atemp>16.0</ns3:atemp>
          </ns3:TrackPointExtension>
        </extensions>
      </trkpt>
      <trkpt lat="42.6278434507548809051513671875" lon="19.8990936018526554107666015625">
        <ele>1419.199951171875</ele>
        <time>2026-06-16T07:26:52.000Z</time>
        <extensions>
          <ns3:TrackPointExtension>
            <ns3:atemp>16.0</ns3:atemp>
          </ns3:TrackPointExtension>
        </extensions>
      </trkpt>
      <trkpt lat="42.6278434507548809051513671875" lon="19.8990936018526554107666015625">
        <ele>1419.199951171875</ele>
        <time>2026-06-16T07:26:53.000Z</time>
        <extensions>
          <ns3:TrackPointExtension>
            <ns3:atemp>16.0</ns3:atemp>
          </ns3:TrackPointExtension>
        </extensions>
      </trkpt>
      <trkpt lat="42.6278434507548809051513671875" lon="19.8990936018526554107666015625">
        <ele>1419.199951171875</ele>
        <time>2026-06-16T07:26:54.000Z</time>
        <extensions>
          <ns3:TrackPointExtension>
            <ns3:atemp>16.0</ns3:atemp>
          </ns3:TrackPointExtension>
        </extensions>
      </trkpt>
      <trkpt lat="42.6278434507548809051513671875" lon="19.8990936018526554107666015625">
        <ele>1419.199951171875</ele>
        <time>2026-06-16T07:26:55.000Z</time>
        <extensions>
          <ns3:TrackPointExtension>
            <ns3:atemp>16.0</ns3:atemp>
          </ns3:TrackPointExtension>
        </extensions>
      </trkpt>
      <trkpt lat="42.6278434507548809051513671875" lon="19.8990936018526554107666015625">
        <ele>1419.199951171875</ele>
        <time>2026-06-16T07:26:56.000Z</time>
        <extensions>
          <ns3:TrackPointExtension>
            <ns3:atemp>16.0</ns3:atemp>
          </ns3:TrackPointExtension>
        </extensions>
      </trkpt>
      <trkpt lat="42.6278434507548809051513671875" lon="19.8990936018526554107666015625">
        <ele>1419.199951171875</ele>
        <time>2026-06-16T07:26:57.000Z</time>
        <extensions>
          <ns3:TrackPointExtension>
            <ns3:atemp>16.0</ns3:atemp>
          </ns3:TrackPointExtension>
        </extensions>
      </trkpt>
      <trkpt lat="42.6278434507548809051513671875" lon="19.8990936018526554107666015625">
        <ele>1419.199951171875</ele>
        <time>2026-06-16T07:26:58.000Z</time>
        <extensions>
          <ns3:TrackPointExtension>
            <ns3:atemp>16.0</ns3:atemp>
          </ns3:TrackPointExtension>
        </extensions>
      </trkpt>
      <trkpt lat="42.6278434507548809051513671875" lon="19.8990936018526554107666015625">
        <ele>1419.4000244140625</ele>
        <time>2026-06-16T07:26:59.000Z</time>
        <extensions>
          <ns3:TrackPointExtension>
            <ns3:atemp>16.0</ns3:atemp>
          </ns3:TrackPointExtension>
        </extensions>
      </trkpt>
      <trkpt lat="42.6278434507548809051513671875" lon="19.8990936018526554107666015625">
        <ele>1419.4000244140625</ele>
        <time>2026-06-16T07:27:00.000Z</time>
        <extensions>
          <ns3:TrackPointExtension>
            <ns3:atemp>16.0</ns3:atemp>
          </ns3:TrackPointExtension>
        </extensions>
      </trkpt>
      <trkpt lat="42.6278434507548809051513671875" lon="19.8990936018526554107666015625">
        <ele>1419.4000244140625</ele>
        <time>2026-06-16T07:27:01.000Z</time>
        <extensions>
          <ns3:TrackPointExtension>
            <ns3:atemp>16.0</ns3:atemp>
          </ns3:TrackPointExtension>
        </extensions>
      </trkpt>
      <trkpt lat="42.6278434507548809051513671875" lon="19.8990936018526554107666015625">
        <ele>1419.4000244140625</ele>
        <time>2026-06-16T07:27:02.000Z</time>
        <extensions>
          <ns3:TrackPointExtension>
            <ns3:atemp>16.0</ns3:atemp>
          </ns3:TrackPointExtension>
        </extensions>
      </trkpt>
      <trkpt lat="42.6278434507548809051513671875" lon="19.8990936018526554107666015625">
        <ele>1419.4000244140625</ele>
        <time>2026-06-16T07:27:03.000Z</time>
        <extensions>
          <ns3:TrackPointExtension>
            <ns3:atemp>16.0</ns3:atemp>
          </ns3:TrackPointExtension>
        </extensions>
      </trkpt>
      <trkpt lat="42.6278434507548809051513671875" lon="19.8990936018526554107666015625">
        <ele>1419.4000244140625</ele>
        <time>2026-06-16T07:27:04.000Z</time>
        <extensions>
          <ns3:TrackPointExtension>
            <ns3:atemp>16.0</ns3:atemp>
          </ns3:TrackPointExtension>
        </extensions>
      </trkpt>
      <trkpt lat="42.6278434507548809051513671875" lon="19.8990936018526554107666015625">
        <ele>1419.4000244140625</ele>
        <time>2026-06-16T07:27:05.000Z</time>
        <extensions>
          <ns3:TrackPointExtension>
            <ns3:atemp>16.0</ns3:atemp>
          </ns3:TrackPointExtension>
        </extensions>
      </trkpt>
      <trkpt lat="42.6278434507548809051513671875" lon="19.8990936018526554107666015625">
        <ele>1419.4000244140625</ele>
        <time>2026-06-16T07:27:06.000Z</time>
        <extensions>
          <ns3:TrackPointExtension>
            <ns3:atemp>16.0</ns3:atemp>
          </ns3:TrackPointExtension>
        </extensions>
      </trkpt>
      <trkpt lat="42.6278434507548809051513671875" lon="19.8990936018526554107666015625">
        <ele>1419.4000244140625</ele>
        <time>2026-06-16T07:27:07.000Z</time>
        <extensions>
          <ns3:TrackPointExtension>
            <ns3:atemp>16.0</ns3:atemp>
          </ns3:TrackPointExtension>
        </extensions>
      </trkpt>
      <trkpt lat="42.6278434507548809051513671875" lon="19.8990936018526554107666015625">
        <ele>1419.4000244140625</ele>
        <time>2026-06-16T07:27:08.000Z</time>
        <extensions>
          <ns3:TrackPointExtension>
            <ns3:atemp>16.0</ns3:atemp>
          </ns3:TrackPointExtension>
        </extensions>
      </trkpt>
      <trkpt lat="42.6278434507548809051513671875" lon="19.8990936018526554107666015625">
        <ele>1419.4000244140625</ele>
        <time>2026-06-16T07:27:09.000Z</time>
        <extensions>
          <ns3:TrackPointExtension>
            <ns3:atemp>16.0</ns3:atemp>
          </ns3:TrackPointExtension>
        </extensions>
      </trkpt>
      <trkpt lat="42.6278434507548809051513671875" lon="19.8990936018526554107666015625">
        <ele>1419.4000244140625</ele>
        <time>2026-06-16T07:27:10.000Z</time>
        <extensions>
          <ns3:TrackPointExtension>
            <ns3:atemp>16.0</ns3:atemp>
          </ns3:TrackPointExtension>
        </extensions>
      </trkpt>
      <trkpt lat="42.6278434507548809051513671875" lon="19.8990936018526554107666015625">
        <ele>1419.4000244140625</ele>
        <time>2026-06-16T07:27:11.000Z</time>
        <extensions>
          <ns3:TrackPointExtension>
            <ns3:atemp>16.0</ns3:atemp>
          </ns3:TrackPointExtension>
        </extensions>
      </trkpt>
      <trkpt lat="42.6278434507548809051513671875" lon="19.8990936018526554107666015625">
        <ele>1419.4000244140625</ele>
        <time>2026-06-16T07:27:12.000Z</time>
        <extensions>
          <ns3:TrackPointExtension>
            <ns3:atemp>16.0</ns3:atemp>
          </ns3:TrackPointExtension>
        </extensions>
      </trkpt>
      <trkpt lat="42.6278434507548809051513671875" lon="19.8990936018526554107666015625">
        <ele>1419.4000244140625</ele>
        <time>2026-06-16T07:27:13.000Z</time>
        <extensions>
          <ns3:TrackPointExtension>
            <ns3:atemp>16.0</ns3:atemp>
          </ns3:TrackPointExtension>
        </extensions>
      </trkpt>
      <trkpt lat="42.6278434507548809051513671875" lon="19.8990936018526554107666015625">
        <ele>1419.4000244140625</ele>
        <time>2026-06-16T07:27:14.000Z</time>
        <extensions>
          <ns3:TrackPointExtension>
            <ns3:atemp>16.0</ns3:atemp>
          </ns3:TrackPointExtension>
        </extensions>
      </trkpt>
      <trkpt lat="42.6278434507548809051513671875" lon="19.8990936018526554107666015625">
        <ele>1419.4000244140625</ele>
        <time>2026-06-16T07:27:15.000Z</time>
        <extensions>
          <ns3:TrackPointExtension>
            <ns3:atemp>16.0</ns3:atemp>
          </ns3:TrackPointExtension>
        </extensions>
      </trkpt>
      <trkpt lat="42.6278434507548809051513671875" lon="19.8990936018526554107666015625">
        <ele>1419.4000244140625</ele>
        <time>2026-06-16T07:27:16.000Z</time>
        <extensions>
          <ns3:TrackPointExtension>
            <ns3:atemp>16.0</ns3:atemp>
          </ns3:TrackPointExtension>
        </extensions>
      </trkpt>
      <trkpt lat="42.6278434507548809051513671875" lon="19.8990936018526554107666015625">
        <ele>1419.4000244140625</ele>
        <time>2026-06-16T07:27:17.000Z</time>
        <extensions>
          <ns3:TrackPointExtension>
            <ns3:atemp>16.0</ns3:atemp>
          </ns3:TrackPointExtension>
        </extensions>
      </trkpt>
      <trkpt lat="42.6278434507548809051513671875" lon="19.8990936018526554107666015625">
        <ele>1419.5999755859375</ele>
        <time>2026-06-16T07:27:18.000Z</time>
        <extensions>
          <ns3:TrackPointExtension>
            <ns3:atemp>16.0</ns3:atemp>
          </ns3:TrackPointExtension>
        </extensions>
      </trkpt>
      <trkpt lat="42.6278434507548809051513671875" lon="19.8990936018526554107666015625">
        <ele>1419.5999755859375</ele>
        <time>2026-06-16T07:27:19.000Z</time>
        <extensions>
          <ns3:TrackPointExtension>
            <ns3:atemp>16.0</ns3:atemp>
          </ns3:TrackPointExtension>
        </extensions>
      </trkpt>
      <trkpt lat="42.6278434507548809051513671875" lon="19.8990936018526554107666015625">
        <ele>1419.5999755859375</ele>
        <time>2026-06-16T07:27:20.000Z</time>
        <extensions>
          <ns3:TrackPointExtension>
            <ns3:atemp>16.0</ns3:atemp>
          </ns3:TrackPointExtension>
        </extensions>
      </trkpt>
      <trkpt lat="42.6278434507548809051513671875" lon="19.8990936018526554107666015625">
        <ele>1419.5999755859375</ele>
        <time>2026-06-16T07:27:21.000Z</time>
        <extensions>
          <ns3:TrackPointExtension>
            <ns3:atemp>16.0</ns3:atemp>
          </ns3:TrackPointExtension>
        </extensions>
      </trkpt>
      <trkpt lat="42.6278434507548809051513671875" lon="19.8990936018526554107666015625">
        <ele>1419.5999755859375</ele>
        <time>2026-06-16T07:27:22.000Z</time>
        <extensions>
          <ns3:TrackPointExtension>
            <ns3:atemp>16.0</ns3:atemp>
          </ns3:TrackPointExtension>
        </extensions>
      </trkpt>
      <trkpt lat="42.6278434507548809051513671875" lon="19.8990936018526554107666015625">
        <ele>1419.5999755859375</ele>
        <time>2026-06-16T07:27:23.000Z</time>
        <extensions>
          <ns3:TrackPointExtension>
            <ns3:atemp>16.0</ns3:atemp>
          </ns3:TrackPointExtension>
        </extensions>
      </trkpt>
      <trkpt lat="42.6278434507548809051513671875" lon="19.8990936018526554107666015625">
        <ele>1419.5999755859375</ele>
        <time>2026-06-16T07:27:24.000Z</time>
        <extensions>
          <ns3:TrackPointExtension>
            <ns3:atemp>16.0</ns3:atemp>
          </ns3:TrackPointExtension>
        </extensions>
      </trkpt>
      <trkpt lat="42.6278434507548809051513671875" lon="19.8990936018526554107666015625">
        <ele>1419.5999755859375</ele>
        <time>2026-06-16T07:27:25.000Z</time>
        <extensions>
          <ns3:TrackPointExtension>
            <ns3:atemp>16.0</ns3:atemp>
          </ns3:TrackPointExtension>
        </extensions>
      </trkpt>
      <trkpt lat="42.6278434507548809051513671875" lon="19.8990936018526554107666015625">
        <ele>1419.5999755859375</ele>
        <time>2026-06-16T07:27:26.000Z</time>
        <extensions>
          <ns3:TrackPointExtension>
            <ns3:atemp>16.0</ns3:atemp>
          </ns3:TrackPointExtension>
        </extensions>
      </trkpt>
      <trkpt lat="42.6278434507548809051513671875" lon="19.8990936018526554107666015625">
        <ele>1419.5999755859375</ele>
        <time>2026-06-16T07:27:27.000Z</time>
        <extensions>
          <ns3:TrackPointExtension>
            <ns3:atemp>16.0</ns3:atemp>
          </ns3:TrackPointExtension>
        </extensions>
      </trkpt>
      <trkpt lat="42.6278434507548809051513671875" lon="19.8990936018526554107666015625">
        <ele>1419.5999755859375</ele>
        <time>2026-06-16T07:27:28.000Z</time>
        <extensions>
          <ns3:TrackPointExtension>
            <ns3:atemp>16.0</ns3:atemp>
          </ns3:TrackPointExtension>
        </extensions>
      </trkpt>
      <trkpt lat="42.6278434507548809051513671875" lon="19.8990936018526554107666015625">
        <ele>1419.5999755859375</ele>
        <time>2026-06-16T07:27:29.000Z</time>
        <extensions>
          <ns3:TrackPointExtension>
            <ns3:atemp>16.0</ns3:atemp>
          </ns3:TrackPointExtension>
        </extensions>
      </trkpt>
      <trkpt lat="42.6278434507548809051513671875" lon="19.8990936018526554107666015625">
        <ele>1419.5999755859375</ele>
        <time>2026-06-16T07:27:30.000Z</time>
        <extensions>
          <ns3:TrackPointExtension>
            <ns3:atemp>16.0</ns3:atemp>
          </ns3:TrackPointExtension>
        </extensions>
      </trkpt>
      <trkpt lat="42.6278434507548809051513671875" lon="19.8990936018526554107666015625">
        <ele>1419.800048828125</ele>
        <time>2026-06-16T07:27:31.000Z</time>
        <extensions>
          <ns3:TrackPointExtension>
            <ns3:atemp>16.0</ns3:atemp>
          </ns3:TrackPointExtension>
        </extensions>
      </trkpt>
      <trkpt lat="42.6278434507548809051513671875" lon="19.8990936018526554107666015625">
        <ele>1419.800048828125</ele>
        <time>2026-06-16T07:27:32.000Z</time>
        <extensions>
          <ns3:TrackPointExtension>
            <ns3:atemp>16.0</ns3:atemp>
          </ns3:TrackPointExtension>
        </extensions>
      </trkpt>
      <trkpt lat="42.6278434507548809051513671875" lon="19.8990936018526554107666015625">
        <ele>1419.800048828125</ele>
        <time>2026-06-16T07:27:33.000Z</time>
        <extensions>
          <ns3:TrackPointExtension>
            <ns3:atemp>16.0</ns3:atemp>
          </ns3:TrackPointExtension>
        </extensions>
      </trkpt>
      <trkpt lat="42.6278434507548809051513671875" lon="19.8990936018526554107666015625">
        <ele>1419.800048828125</ele>
        <time>2026-06-16T07:27:34.000Z</time>
        <extensions>
          <ns3:TrackPointExtension>
            <ns3:atemp>17.0</ns3:atemp>
          </ns3:TrackPointExtension>
        </extensions>
      </trkpt>
      <trkpt lat="42.6278434507548809051513671875" lon="19.8990936018526554107666015625">
        <ele>1419.800048828125</ele>
        <time>2026-06-16T07:27:35.000Z</time>
        <extensions>
          <ns3:TrackPointExtension>
            <ns3:atemp>17.0</ns3:atemp>
          </ns3:TrackPointExtension>
        </extensions>
      </trkpt>
      <trkpt lat="42.6278434507548809051513671875" lon="19.8990936018526554107666015625">
        <ele>1419.800048828125</ele>
        <time>2026-06-16T07:27:36.000Z</time>
        <extensions>
          <ns3:TrackPointExtension>
            <ns3:atemp>17.0</ns3:atemp>
          </ns3:TrackPointExtension>
        </extensions>
      </trkpt>
      <trkpt lat="42.6278434507548809051513671875" lon="19.8990936018526554107666015625">
        <ele>1419.800048828125</ele>
        <time>2026-06-16T07:27:37.000Z</time>
        <extensions>
          <ns3:TrackPointExtension>
            <ns3:atemp>17.0</ns3:atemp>
          </ns3:TrackPointExtension>
        </extensions>
      </trkpt>
      <trkpt lat="42.6278434507548809051513671875" lon="19.8990936018526554107666015625">
        <ele>1419.800048828125</ele>
        <time>2026-06-16T07:27:38.000Z</time>
        <extensions>
          <ns3:TrackPointExtension>
            <ns3:atemp>17.0</ns3:atemp>
          </ns3:TrackPointExtension>
        </extensions>
      </trkpt>
      <trkpt lat="42.6278434507548809051513671875" lon="19.8990936018526554107666015625">
        <ele>1419.800048828125</ele>
        <time>2026-06-16T07:27:39.000Z</time>
        <extensions>
          <ns3:TrackPointExtension>
            <ns3:atemp>17.0</ns3:atemp>
          </ns3:TrackPointExtension>
        </extensions>
      </trkpt>
      <trkpt lat="42.6278434507548809051513671875" lon="19.8990936018526554107666015625">
        <ele>1419.800048828125</ele>
        <time>2026-06-16T07:27:40.000Z</time>
        <extensions>
          <ns3:TrackPointExtension>
            <ns3:atemp>17.0</ns3:atemp>
          </ns3:TrackPointExtension>
        </extensions>
      </trkpt>
      <trkpt lat="42.6278434507548809051513671875" lon="19.8990936018526554107666015625">
        <ele>1419.800048828125</ele>
        <time>2026-06-16T07:27:41.000Z</time>
        <extensions>
          <ns3:TrackPointExtension>
            <ns3:atemp>17.0</ns3:atemp>
          </ns3:TrackPointExtension>
        </extensions>
      </trkpt>
      <trkpt lat="42.6278434507548809051513671875" lon="19.8990936018526554107666015625">
        <ele>1419.800048828125</ele>
        <time>2026-06-16T07:27:42.000Z</time>
        <extensions>
          <ns3:TrackPointExtension>
            <ns3:atemp>17.0</ns3:atemp>
          </ns3:TrackPointExtension>
        </extensions>
      </trkpt>
      <trkpt lat="42.6278434507548809051513671875" lon="19.8990936018526554107666015625">
        <ele>1419.800048828125</ele>
        <time>2026-06-16T07:27:43.000Z</time>
        <extensions>
          <ns3:TrackPointExtension>
            <ns3:atemp>17.0</ns3:atemp>
          </ns3:TrackPointExtension>
        </extensions>
      </trkpt>
      <trkpt lat="42.6278434507548809051513671875" lon="19.8990936018526554107666015625">
        <ele>1419.800048828125</ele>
        <time>2026-06-16T07:27:44.000Z</time>
        <extensions>
          <ns3:TrackPointExtension>
            <ns3:atemp>17.0</ns3:atemp>
          </ns3:TrackPointExtension>
        </extensions>
      </trkpt>
      <trkpt lat="42.6278434507548809051513671875" lon="19.8990936018526554107666015625">
        <ele>1419.800048828125</ele>
        <time>2026-06-16T07:27:45.000Z</time>
        <extensions>
          <ns3:TrackPointExtension>
            <ns3:atemp>17.0</ns3:atemp>
          </ns3:TrackPointExtension>
        </extensions>
      </trkpt>
      <trkpt lat="42.6278434507548809051513671875" lon="19.8990936018526554107666015625">
        <ele>1419.800048828125</ele>
        <time>2026-06-16T07:27:46.000Z</time>
        <extensions>
          <ns3:TrackPointExtension>
            <ns3:atemp>17.0</ns3:atemp>
          </ns3:TrackPointExtension>
        </extensions>
      </trkpt>
      <trkpt lat="42.6278434507548809051513671875" lon="19.8990936018526554107666015625">
        <ele>1419.800048828125</ele>
        <time>2026-06-16T07:27:47.000Z</time>
        <extensions>
          <ns3:TrackPointExtension>
            <ns3:atemp>17.0</ns3:atemp>
          </ns3:TrackPointExtension>
        </extensions>
      </trkpt>
      <trkpt lat="42.6278434507548809051513671875" lon="19.8990936018526554107666015625">
        <ele>1419.800048828125</ele>
        <time>2026-06-16T07:27:48.000Z</time>
        <extensions>
          <ns3:TrackPointExtension>
            <ns3:atemp>17.0</ns3:atemp>
          </ns3:TrackPointExtension>
        </extensions>
      </trkpt>
      <trkpt lat="42.6278434507548809051513671875" lon="19.8990936018526554107666015625">
        <ele>1419.800048828125</ele>
        <time>2026-06-16T07:27:49.000Z</time>
        <extensions>
          <ns3:TrackPointExtension>
            <ns3:atemp>17.0</ns3:atemp>
          </ns3:TrackPointExtension>
        </extensions>
      </trkpt>
      <trkpt lat="42.6278434507548809051513671875" lon="19.8990936018526554107666015625">
        <ele>1419.800048828125</ele>
        <time>2026-06-16T07:27:50.000Z</time>
        <extensions>
          <ns3:TrackPointExtension>
            <ns3:atemp>17.0</ns3:atemp>
          </ns3:TrackPointExtension>
        </extensions>
      </trkpt>
      <trkpt lat="42.6278434507548809051513671875" lon="19.8990936018526554107666015625">
        <ele>1420</ele>
        <time>2026-06-16T07:27:51.000Z</time>
        <extensions>
          <ns3:TrackPointExtension>
            <ns3:atemp>17.0</ns3:atemp>
          </ns3:TrackPointExtension>
        </extensions>
      </trkpt>
      <trkpt lat="42.6278434507548809051513671875" lon="19.8990936018526554107666015625">
        <ele>1420</ele>
        <time>2026-06-16T07:27:52.000Z</time>
        <extensions>
          <ns3:TrackPointExtension>
            <ns3:atemp>17.0</ns3:atemp>
          </ns3:TrackPointExtension>
        </extensions>
      </trkpt>
      <trkpt lat="42.6278434507548809051513671875" lon="19.8990936018526554107666015625">
        <ele>1420</ele>
        <time>2026-06-16T07:27:53.000Z</time>
        <extensions>
          <ns3:TrackPointExtension>
            <ns3:atemp>17.0</ns3:atemp>
          </ns3:TrackPointExtension>
        </extensions>
      </trkpt>
      <trkpt lat="42.6278434507548809051513671875" lon="19.8990936018526554107666015625">
        <ele>1420</ele>
        <time>2026-06-16T07:27:54.000Z</time>
        <extensions>
          <ns3:TrackPointExtension>
            <ns3:atemp>17.0</ns3:atemp>
          </ns3:TrackPointExtension>
        </extensions>
      </trkpt>
      <trkpt lat="42.6278434507548809051513671875" lon="19.8990936018526554107666015625">
        <ele>1420</ele>
        <time>2026-06-16T07:27:55.000Z</time>
        <extensions>
          <ns3:TrackPointExtension>
            <ns3:atemp>17.0</ns3:atemp>
          </ns3:TrackPointExtension>
        </extensions>
      </trkpt>
      <trkpt lat="42.6278434507548809051513671875" lon="19.8990936018526554107666015625">
        <ele>1420</ele>
        <time>2026-06-16T07:27:56.000Z</time>
        <extensions>
          <ns3:TrackPointExtension>
            <ns3:atemp>17.0</ns3:atemp>
          </ns3:TrackPointExtension>
        </extensions>
      </trkpt>
      <trkpt lat="42.6278434507548809051513671875" lon="19.8990936018526554107666015625">
        <ele>1420</ele>
        <time>2026-06-16T07:27:57.000Z</time>
        <extensions>
          <ns3:TrackPointExtension>
            <ns3:atemp>17.0</ns3:atemp>
          </ns3:TrackPointExtension>
        </extensions>
      </trkpt>
      <trkpt lat="42.6278434507548809051513671875" lon="19.8990936018526554107666015625">
        <ele>1420</ele>
        <time>2026-06-16T07:27:58.000Z</time>
        <extensions>
          <ns3:TrackPointExtension>
            <ns3:atemp>17.0</ns3:atemp>
          </ns3:TrackPointExtension>
        </extensions>
      </trkpt>
      <trkpt lat="42.6278434507548809051513671875" lon="19.8990936018526554107666015625">
        <ele>1419.800048828125</ele>
        <time>2026-06-16T07:27:59.000Z</time>
        <extensions>
          <ns3:TrackPointExtension>
            <ns3:atemp>17.0</ns3:atemp>
          </ns3:TrackPointExtension>
        </extensions>
      </trkpt>
      <trkpt lat="42.6278434507548809051513671875" lon="19.8990936018526554107666015625">
        <ele>1419.800048828125</ele>
        <time>2026-06-16T07:28:00.000Z</time>
        <extensions>
          <ns3:TrackPointExtension>
            <ns3:atemp>17.0</ns3:atemp>
          </ns3:TrackPointExtension>
        </extensions>
      </trkpt>
      <trkpt lat="42.6278434507548809051513671875" lon="19.8990936018526554107666015625">
        <ele>1419.800048828125</ele>
        <time>2026-06-16T07:28:01.000Z</time>
        <extensions>
          <ns3:TrackPointExtension>
            <ns3:atemp>17.0</ns3:atemp>
          </ns3:TrackPointExtension>
        </extensions>
      </trkpt>
      <trkpt lat="42.6278434507548809051513671875" lon="19.8990936018526554107666015625">
        <ele>1419.800048828125</ele>
        <time>2026-06-16T07:28:02.000Z</time>
        <extensions>
          <ns3:TrackPointExtension>
            <ns3:atemp>17.0</ns3:atemp>
          </ns3:TrackPointExtension>
        </extensions>
      </trkpt>
      <trkpt lat="42.6278434507548809051513671875" lon="19.8990936018526554107666015625">
        <ele>1419.800048828125</ele>
        <time>2026-06-16T07:28:03.000Z</time>
        <extensions>
          <ns3:TrackPointExtension>
            <ns3:atemp>17.0</ns3:atemp>
          </ns3:TrackPointExtension>
        </extensions>
      </trkpt>
      <trkpt lat="42.6278434507548809051513671875" lon="19.8990936018526554107666015625">
        <ele>1419.800048828125</ele>
        <time>2026-06-16T07:28:04.000Z</time>
        <extensions>
          <ns3:TrackPointExtension>
            <ns3:atemp>17.0</ns3:atemp>
          </ns3:TrackPointExtension>
        </extensions>
      </trkpt>
      <trkpt lat="42.6278434507548809051513671875" lon="19.8990936018526554107666015625">
        <ele>1420</ele>
        <time>2026-06-16T07:28:05.000Z</time>
        <extensions>
          <ns3:TrackPointExtension>
            <ns3:atemp>17.0</ns3:atemp>
          </ns3:TrackPointExtension>
        </extensions>
      </trkpt>
      <trkpt lat="42.6278434507548809051513671875" lon="19.8990936018526554107666015625">
        <ele>1420</ele>
        <time>2026-06-16T07:28:06.000Z</time>
        <extensions>
          <ns3:TrackPointExtension>
            <ns3:atemp>17.0</ns3:atemp>
          </ns3:TrackPointExtension>
        </extensions>
      </trkpt>
      <trkpt lat="42.6278434507548809051513671875" lon="19.8990936018526554107666015625">
        <ele>1420</ele>
        <time>2026-06-16T07:28:07.000Z</time>
        <extensions>
          <ns3:TrackPointExtension>
            <ns3:atemp>17.0</ns3:atemp>
          </ns3:TrackPointExtension>
        </extensions>
      </trkpt>
      <trkpt lat="42.6278434507548809051513671875" lon="19.8990936018526554107666015625">
        <ele>1420</ele>
        <time>2026-06-16T07:28:08.000Z</time>
        <extensions>
          <ns3:TrackPointExtension>
            <ns3:atemp>17.0</ns3:atemp>
          </ns3:TrackPointExtension>
        </extensions>
      </trkpt>
      <trkpt lat="42.6278434507548809051513671875" lon="19.8990936018526554107666015625">
        <ele>1420</ele>
        <time>2026-06-16T07:28:09.000Z</time>
        <extensions>
          <ns3:TrackPointExtension>
            <ns3:atemp>17.0</ns3:atemp>
          </ns3:TrackPointExtension>
        </extensions>
      </trkpt>
      <trkpt lat="42.6278434507548809051513671875" lon="19.8990936018526554107666015625">
        <ele>1420</ele>
        <time>2026-06-16T07:28:10.000Z</time>
        <extensions>
          <ns3:TrackPointExtension>
            <ns3:atemp>17.0</ns3:atemp>
          </ns3:TrackPointExtension>
        </extensions>
      </trkpt>
      <trkpt lat="42.6278434507548809051513671875" lon="19.8990936018526554107666015625">
        <ele>1420</ele>
        <time>2026-06-16T07:28:11.000Z</time>
        <extensions>
          <ns3:TrackPointExtension>
            <ns3:atemp>17.0</ns3:atemp>
          </ns3:TrackPointExtension>
        </extensions>
      </trkpt>
      <trkpt lat="42.6278434507548809051513671875" lon="19.8990936018526554107666015625">
        <ele>1420</ele>
        <time>2026-06-16T07:28:12.000Z</time>
        <extensions>
          <ns3:TrackPointExtension>
            <ns3:atemp>17.0</ns3:atemp>
          </ns3:TrackPointExtension>
        </extensions>
      </trkpt>
      <trkpt lat="42.6278434507548809051513671875" lon="19.8990936018526554107666015625">
        <ele>1420</ele>
        <time>2026-06-16T07:28:13.000Z</time>
        <extensions>
          <ns3:TrackPointExtension>
            <ns3:atemp>17.0</ns3:atemp>
          </ns3:TrackPointExtension>
        </extensions>
      </trkpt>
      <trkpt lat="42.6278434507548809051513671875" lon="19.8990936018526554107666015625">
        <ele>1420</ele>
        <time>2026-06-16T07:28:14.000Z</time>
        <extensions>
          <ns3:TrackPointExtension>
            <ns3:atemp>17.0</ns3:atemp>
          </ns3:TrackPointExtension>
        </extensions>
      </trkpt>
      <trkpt lat="42.6278434507548809051513671875" lon="19.8990936018526554107666015625">
        <ele>1420</ele>
        <time>2026-06-16T07:28:15.000Z</time>
        <extensions>
          <ns3:TrackPointExtension>
            <ns3:atemp>17.0</ns3:atemp>
          </ns3:TrackPointExtension>
        </extensions>
      </trkpt>
      <trkpt lat="42.6278434507548809051513671875" lon="19.8990936018526554107666015625">
        <ele>1420</ele>
        <time>2026-06-16T07:28:16.000Z</time>
        <extensions>
          <ns3:TrackPointExtension>
            <ns3:atemp>17.0</ns3:atemp>
          </ns3:TrackPointExtension>
        </extensions>
      </trkpt>
      <trkpt lat="42.6278434507548809051513671875" lon="19.8990936018526554107666015625">
        <ele>1420</ele>
        <time>2026-06-16T07:28:17.000Z</time>
        <extensions>
          <ns3:TrackPointExtension>
            <ns3:atemp>17.0</ns3:atemp>
          </ns3:TrackPointExtension>
        </extensions>
      </trkpt>
      <trkpt lat="42.6278434507548809051513671875" lon="19.8990936018526554107666015625">
        <ele>1420</ele>
        <time>2026-06-16T07:28:18.000Z</time>
        <extensions>
          <ns3:TrackPointExtension>
            <ns3:atemp>17.0</ns3:atemp>
          </ns3:TrackPointExtension>
        </extensions>
      </trkpt>
      <trkpt lat="42.6278434507548809051513671875" lon="19.8990936018526554107666015625">
        <ele>1420.199951171875</ele>
        <time>2026-06-16T07:28:19.000Z</time>
        <extensions>
          <ns3:TrackPointExtension>
            <ns3:atemp>17.0</ns3:atemp>
          </ns3:TrackPointExtension>
        </extensions>
      </trkpt>
      <trkpt lat="42.6278434507548809051513671875" lon="19.8990936018526554107666015625">
        <ele>1420.199951171875</ele>
        <time>2026-06-16T07:28:20.000Z</time>
        <extensions>
          <ns3:TrackPointExtension>
            <ns3:atemp>17.0</ns3:atemp>
          </ns3:TrackPointExtension>
        </extensions>
      </trkpt>
      <trkpt lat="42.6278434507548809051513671875" lon="19.8990936018526554107666015625">
        <ele>1420.199951171875</ele>
        <time>2026-06-16T07:28:21.000Z</time>
        <extensions>
          <ns3:TrackPointExtension>
            <ns3:atemp>17.0</ns3:atemp>
          </ns3:TrackPointExtension>
        </extensions>
      </trkpt>
      <trkpt lat="42.6278434507548809051513671875" lon="19.8990936018526554107666015625">
        <ele>1420.199951171875</ele>
        <time>2026-06-16T07:28:22.000Z</time>
        <extensions>
          <ns3:TrackPointExtension>
            <ns3:atemp>17.0</ns3:atemp>
          </ns3:TrackPointExtension>
        </extensions>
      </trkpt>
      <trkpt lat="42.6278434507548809051513671875" lon="19.8990936018526554107666015625">
        <ele>1420.199951171875</ele>
        <time>2026-06-16T07:28:23.000Z</time>
        <extensions>
          <ns3:TrackPointExtension>
            <ns3:atemp>17.0</ns3:atemp>
          </ns3:TrackPointExtension>
        </extensions>
      </trkpt>
      <trkpt lat="42.6278434507548809051513671875" lon="19.8990936018526554107666015625">
        <ele>1420.199951171875</ele>
        <time>2026-06-16T07:28:24.000Z</time>
        <extensions>
          <ns3:TrackPointExtension>
            <ns3:atemp>17.0</ns3:atemp>
          </ns3:TrackPointExtension>
        </extensions>
      </trkpt>
      <trkpt lat="42.6278434507548809051513671875" lon="19.8990936018526554107666015625">
        <ele>1420.199951171875</ele>
        <time>2026-06-16T07:28:25.000Z</time>
        <extensions>
          <ns3:TrackPointExtension>
            <ns3:atemp>17.0</ns3:atemp>
          </ns3:TrackPointExtension>
        </extensions>
      </trkpt>
      <trkpt lat="42.6278434507548809051513671875" lon="19.8990936018526554107666015625">
        <ele>1420.199951171875</ele>
        <time>2026-06-16T07:28:26.000Z</time>
        <extensions>
          <ns3:TrackPointExtension>
            <ns3:atemp>17.0</ns3:atemp>
          </ns3:TrackPointExtension>
        </extensions>
      </trkpt>
      <trkpt lat="42.6278434507548809051513671875" lon="19.8990936018526554107666015625">
        <ele>1420.199951171875</ele>
        <time>2026-06-16T07:28:27.000Z</time>
        <extensions>
          <ns3:TrackPointExtension>
            <ns3:atemp>17.0</ns3:atemp>
          </ns3:TrackPointExtension>
        </extensions>
      </trkpt>
      <trkpt lat="42.6278434507548809051513671875" lon="19.8990936018526554107666015625">
        <ele>1420.199951171875</ele>
        <time>2026-06-16T07:28:28.000Z</time>
        <extensions>
          <ns3:TrackPointExtension>
            <ns3:atemp>17.0</ns3:atemp>
          </ns3:TrackPointExtension>
        </extensions>
      </trkpt>
      <trkpt lat="42.6278434507548809051513671875" lon="19.8990936018526554107666015625">
        <ele>1420.199951171875</ele>
        <time>2026-06-16T07:28:29.000Z</time>
        <extensions>
          <ns3:TrackPointExtension>
            <ns3:atemp>17.0</ns3:atemp>
          </ns3:TrackPointExtension>
        </extensions>
      </trkpt>
      <trkpt lat="42.6278434507548809051513671875" lon="19.8990936018526554107666015625">
        <ele>1420.199951171875</ele>
        <time>2026-06-16T07:28:30.000Z</time>
        <extensions>
          <ns3:TrackPointExtension>
            <ns3:atemp>17.0</ns3:atemp>
          </ns3:TrackPointExtension>
        </extensions>
      </trkpt>
      <trkpt lat="42.6278434507548809051513671875" lon="19.8990936018526554107666015625">
        <ele>1420.199951171875</ele>
        <time>2026-06-16T07:28:31.000Z</time>
        <extensions>
          <ns3:TrackPointExtension>
            <ns3:atemp>17.0</ns3:atemp>
          </ns3:TrackPointExtension>
        </extensions>
      </trkpt>
      <trkpt lat="42.6278434507548809051513671875" lon="19.8990936018526554107666015625">
        <ele>1420.199951171875</ele>
        <time>2026-06-16T07:28:32.000Z</time>
        <extensions>
          <ns3:TrackPointExtension>
            <ns3:atemp>17.0</ns3:atemp>
          </ns3:TrackPointExtension>
        </extensions>
      </trkpt>
      <trkpt lat="42.6278434507548809051513671875" lon="19.8990936018526554107666015625">
        <ele>1420.199951171875</ele>
        <time>2026-06-16T07:28:33.000Z</time>
        <extensions>
          <ns3:TrackPointExtension>
            <ns3:atemp>17.0</ns3:atemp>
          </ns3:TrackPointExtension>
        </extensions>
      </trkpt>
      <trkpt lat="42.6278434507548809051513671875" lon="19.8990936018526554107666015625">
        <ele>1420.199951171875</ele>
        <time>2026-06-16T07:28:34.000Z</time>
        <extensions>
          <ns3:TrackPointExtension>
            <ns3:atemp>17.0</ns3:atemp>
          </ns3:TrackPointExtension>
        </extensions>
      </trkpt>
      <trkpt lat="42.6278434507548809051513671875" lon="19.8990936018526554107666015625">
        <ele>1420.199951171875</ele>
        <time>2026-06-16T07:28:35.000Z</time>
        <extensions>
          <ns3:TrackPointExtension>
            <ns3:atemp>17.0</ns3:atemp>
          </ns3:TrackPointExtension>
        </extensions>
      </trkpt>
      <trkpt lat="42.6278434507548809051513671875" lon="19.8990936018526554107666015625">
        <ele>1420.199951171875</ele>
        <time>2026-06-16T07:28:36.000Z</time>
        <extensions>
          <ns3:TrackPointExtension>
            <ns3:atemp>17.0</ns3:atemp>
          </ns3:TrackPointExtension>
        </extensions>
      </trkpt>
      <trkpt lat="42.6278434507548809051513671875" lon="19.8990936018526554107666015625">
        <ele>1420.199951171875</ele>
        <time>2026-06-16T07:28:37.000Z</time>
        <extensions>
          <ns3:TrackPointExtension>
            <ns3:atemp>17.0</ns3:atemp>
          </ns3:TrackPointExtension>
        </extensions>
      </trkpt>
      <trkpt lat="42.6278434507548809051513671875" lon="19.8990936018526554107666015625">
        <ele>1420.199951171875</ele>
        <time>2026-06-16T07:28:38.000Z</time>
        <extensions>
          <ns3:TrackPointExtension>
            <ns3:atemp>17.0</ns3:atemp>
          </ns3:TrackPointExtension>
        </extensions>
      </trkpt>
      <trkpt lat="42.6278434507548809051513671875" lon="19.8990936018526554107666015625">
        <ele>1420.199951171875</ele>
        <time>2026-06-16T07:28:39.000Z</time>
        <extensions>
          <ns3:TrackPointExtension>
            <ns3:atemp>18.0</ns3:atemp>
          </ns3:TrackPointExtension>
        </extensions>
      </trkpt>
      <trkpt lat="42.6278434507548809051513671875" lon="19.8990936018526554107666015625">
        <ele>1420.199951171875</ele>
        <time>2026-06-16T07:28:40.000Z</time>
        <extensions>
          <ns3:TrackPointExtension>
            <ns3:atemp>18.0</ns3:atemp>
          </ns3:TrackPointExtension>
        </extensions>
      </trkpt>
      <trkpt lat="42.6278434507548809051513671875" lon="19.8990936018526554107666015625">
        <ele>1420.199951171875</ele>
        <time>2026-06-16T07:28:41.000Z</time>
        <extensions>
          <ns3:TrackPointExtension>
            <ns3:atemp>18.0</ns3:atemp>
          </ns3:TrackPointExtension>
        </extensions>
      </trkpt>
      <trkpt lat="42.6278434507548809051513671875" lon="19.8990936018526554107666015625">
        <ele>1420.199951171875</ele>
        <time>2026-06-16T07:28:42.000Z</time>
        <extensions>
          <ns3:TrackPointExtension>
            <ns3:atemp>18.0</ns3:atemp>
          </ns3:TrackPointExtension>
        </extensions>
      </trkpt>
      <trkpt lat="42.6278434507548809051513671875" lon="19.8990936018526554107666015625">
        <ele>1420.199951171875</ele>
        <time>2026-06-16T07:28:43.000Z</time>
        <extensions>
          <ns3:TrackPointExtension>
            <ns3:atemp>18.0</ns3:atemp>
          </ns3:TrackPointExtension>
        </extensions>
      </trkpt>
      <trkpt lat="42.6278434507548809051513671875" lon="19.8990936018526554107666015625">
        <ele>1420.199951171875</ele>
        <time>2026-06-16T07:28:44.000Z</time>
        <extensions>
          <ns3:TrackPointExtension>
            <ns3:atemp>18.0</ns3:atemp>
          </ns3:TrackPointExtension>
        </extensions>
      </trkpt>
      <trkpt lat="42.6278434507548809051513671875" lon="19.8990936018526554107666015625">
        <ele>1420.4000244140625</ele>
        <time>2026-06-16T07:28:45.000Z</time>
        <extensions>
          <ns3:TrackPointExtension>
            <ns3:atemp>17.0</ns3:atemp>
          </ns3:TrackPointExtension>
        </extensions>
      </trkpt>
      <trkpt lat="42.6278434507548809051513671875" lon="19.8990936018526554107666015625">
        <ele>1420.4000244140625</ele>
        <time>2026-06-16T07:28:46.000Z</time>
        <extensions>
          <ns3:TrackPointExtension>
            <ns3:atemp>17.0</ns3:atemp>
          </ns3:TrackPointExtension>
        </extensions>
      </trkpt>
      <trkpt lat="42.6278434507548809051513671875" lon="19.8990936018526554107666015625">
        <ele>1420.4000244140625</ele>
        <time>2026-06-16T07:28:47.000Z</time>
        <extensions>
          <ns3:TrackPointExtension>
            <ns3:atemp>18.0</ns3:atemp>
          </ns3:TrackPointExtension>
        </extensions>
      </trkpt>
      <trkpt lat="42.6278434507548809051513671875" lon="19.8990936018526554107666015625">
        <ele>1420.4000244140625</ele>
        <time>2026-06-16T07:28:48.000Z</time>
        <extensions>
          <ns3:TrackPointExtension>
            <ns3:atemp>18.0</ns3:atemp>
          </ns3:TrackPointExtension>
        </extensions>
      </trkpt>
      <trkpt lat="42.6278434507548809051513671875" lon="19.8990936018526554107666015625">
        <ele>1420.4000244140625</ele>
        <time>2026-06-16T07:28:49.000Z</time>
        <extensions>
          <ns3:TrackPointExtension>
            <ns3:atemp>18.0</ns3:atemp>
          </ns3:TrackPointExtension>
        </extensions>
      </trkpt>
      <trkpt lat="42.6278434507548809051513671875" lon="19.8990936018526554107666015625">
        <ele>1420.4000244140625</ele>
        <time>2026-06-16T07:28:50.000Z</time>
        <extensions>
          <ns3:TrackPointExtension>
            <ns3:atemp>18.0</ns3:atemp>
          </ns3:TrackPointExtension>
        </extensions>
      </trkpt>
      <trkpt lat="42.6278434507548809051513671875" lon="19.8990936018526554107666015625">
        <ele>1420.4000244140625</ele>
        <time>2026-06-16T07:28:51.000Z</time>
        <extensions>
          <ns3:TrackPointExtension>
            <ns3:atemp>18.0</ns3:atemp>
          </ns3:TrackPointExtension>
        </extensions>
      </trkpt>
      <trkpt lat="42.6278434507548809051513671875" lon="19.8990936018526554107666015625">
        <ele>1420.4000244140625</ele>
        <time>2026-06-16T07:28:52.000Z</time>
        <extensions>
          <ns3:TrackPointExtension>
            <ns3:atemp>18.0</ns3:atemp>
          </ns3:TrackPointExtension>
        </extensions>
      </trkpt>
      <trkpt lat="42.6278434507548809051513671875" lon="19.8990936018526554107666015625">
        <ele>1420.4000244140625</ele>
        <time>2026-06-16T07:28:53.000Z</time>
        <extensions>
          <ns3:TrackPointExtension>
            <ns3:atemp>18.0</ns3:atemp>
          </ns3:TrackPointExtension>
        </extensions>
      </trkpt>
      <trkpt lat="42.6278434507548809051513671875" lon="19.8990936018526554107666015625">
        <ele>1420.4000244140625</ele>
        <time>2026-06-16T07:28:54.000Z</time>
        <extensions>
          <ns3:TrackPointExtension>
            <ns3:atemp>18.0</ns3:atemp>
          </ns3:TrackPointExtension>
        </extensions>
      </trkpt>
      <trkpt lat="42.6278434507548809051513671875" lon="19.8990936018526554107666015625">
        <ele>1420.4000244140625</ele>
        <time>2026-06-16T07:28:55.000Z</time>
        <extensions>
          <ns3:TrackPointExtension>
            <ns3:atemp>18.0</ns3:atemp>
          </ns3:TrackPointExtension>
        </extensions>
      </trkpt>
      <trkpt lat="42.6278434507548809051513671875" lon="19.8990936018526554107666015625">
        <ele>1420.5999755859375</ele>
        <time>2026-06-16T07:28:56.000Z</time>
        <extensions>
          <ns3:TrackPointExtension>
            <ns3:atemp>18.0</ns3:atemp>
          </ns3:TrackPointExtension>
        </extensions>
      </trkpt>
      <trkpt lat="42.6278434507548809051513671875" lon="19.8990936018526554107666015625">
        <ele>1420.5999755859375</ele>
        <time>2026-06-16T07:28:57.000Z</time>
        <extensions>
          <ns3:TrackPointExtension>
            <ns3:atemp>18.0</ns3:atemp>
          </ns3:TrackPointExtension>
        </extensions>
      </trkpt>
      <trkpt lat="42.6278434507548809051513671875" lon="19.8990936018526554107666015625">
        <ele>1420.5999755859375</ele>
        <time>2026-06-16T07:28:58.000Z</time>
        <extensions>
          <ns3:TrackPointExtension>
            <ns3:atemp>18.0</ns3:atemp>
          </ns3:TrackPointExtension>
        </extensions>
      </trkpt>
      <trkpt lat="42.6278434507548809051513671875" lon="19.8990936018526554107666015625">
        <ele>1420.5999755859375</ele>
        <time>2026-06-16T07:28:59.000Z</time>
        <extensions>
          <ns3:TrackPointExtension>
            <ns3:atemp>18.0</ns3:atemp>
          </ns3:TrackPointExtension>
        </extensions>
      </trkpt>
      <trkpt lat="42.6278434507548809051513671875" lon="19.8990936018526554107666015625">
        <ele>1420.5999755859375</ele>
        <time>2026-06-16T07:29:00.000Z</time>
        <extensions>
          <ns3:TrackPointExtension>
            <ns3:atemp>18.0</ns3:atemp>
          </ns3:TrackPointExtension>
        </extensions>
      </trkpt>
      <trkpt lat="42.6278434507548809051513671875" lon="19.8990936018526554107666015625">
        <ele>1420.5999755859375</ele>
        <time>2026-06-16T07:29:01.000Z</time>
        <extensions>
          <ns3:TrackPointExtension>
            <ns3:atemp>18.0</ns3:atemp>
          </ns3:TrackPointExtension>
        </extensions>
      </trkpt>
      <trkpt lat="42.6278434507548809051513671875" lon="19.8990936018526554107666015625">
        <ele>1420.5999755859375</ele>
        <time>2026-06-16T07:29:02.000Z</time>
        <extensions>
          <ns3:TrackPointExtension>
            <ns3:atemp>18.0</ns3:atemp>
          </ns3:TrackPointExtension>
        </extensions>
      </trkpt>
      <trkpt lat="42.6278434507548809051513671875" lon="19.8990936018526554107666015625">
        <ele>1420.5999755859375</ele>
        <time>2026-06-16T07:29:03.000Z</time>
        <extensions>
          <ns3:TrackPointExtension>
            <ns3:atemp>18.0</ns3:atemp>
          </ns3:TrackPointExtension>
        </extensions>
      </trkpt>
      <trkpt lat="42.6278434507548809051513671875" lon="19.8990936018526554107666015625">
        <ele>1420.5999755859375</ele>
        <time>2026-06-16T07:29:04.000Z</time>
        <extensions>
          <ns3:TrackPointExtension>
            <ns3:atemp>18.0</ns3:atemp>
          </ns3:TrackPointExtension>
        </extensions>
      </trkpt>
      <trkpt lat="42.6278434507548809051513671875" lon="19.8990936018526554107666015625">
        <ele>1420.5999755859375</ele>
        <time>2026-06-16T07:29:05.000Z</time>
        <extensions>
          <ns3:TrackPointExtension>
            <ns3:atemp>18.0</ns3:atemp>
          </ns3:TrackPointExtension>
        </extensions>
      </trkpt>
      <trkpt lat="42.6278434507548809051513671875" lon="19.8990936018526554107666015625">
        <ele>1420.5999755859375</ele>
        <time>2026-06-16T07:29:06.000Z</time>
        <extensions>
          <ns3:TrackPointExtension>
            <ns3:atemp>18.0</ns3:atemp>
          </ns3:TrackPointExtension>
        </extensions>
      </trkpt>
      <trkpt lat="42.6278434507548809051513671875" lon="19.8990936018526554107666015625">
        <ele>1420.5999755859375</ele>
        <time>2026-06-16T07:29:07.000Z</time>
        <extensions>
          <ns3:TrackPointExtension>
            <ns3:atemp>18.0</ns3:atemp>
          </ns3:TrackPointExtension>
        </extensions>
      </trkpt>
      <trkpt lat="42.6278434507548809051513671875" lon="19.8990936018526554107666015625">
        <ele>1420.5999755859375</ele>
        <time>2026-06-16T07:29:08.000Z</time>
        <extensions>
          <ns3:TrackPointExtension>
            <ns3:atemp>18.0</ns3:atemp>
          </ns3:TrackPointExtension>
        </extensions>
      </trkpt>
      <trkpt lat="42.6278434507548809051513671875" lon="19.8990936018526554107666015625">
        <ele>1420.5999755859375</ele>
        <time>2026-06-16T07:29:09.000Z</time>
        <extensions>
          <ns3:TrackPointExtension>
            <ns3:atemp>18.0</ns3:atemp>
          </ns3:TrackPointExtension>
        </extensions>
      </trkpt>
      <trkpt lat="42.6278434507548809051513671875" lon="19.8990936018526554107666015625">
        <ele>1420.5999755859375</ele>
        <time>2026-06-16T07:29:10.000Z</time>
        <extensions>
          <ns3:TrackPointExtension>
            <ns3:atemp>18.0</ns3:atemp>
          </ns3:TrackPointExtension>
        </extensions>
      </trkpt>
      <trkpt lat="42.6278434507548809051513671875" lon="19.8990936018526554107666015625">
        <ele>1420.5999755859375</ele>
        <time>2026-06-16T07:29:11.000Z</time>
        <extensions>
          <ns3:TrackPointExtension>
            <ns3:atemp>18.0</ns3:atemp>
          </ns3:TrackPointExtension>
        </extensions>
      </trkpt>
      <trkpt lat="42.6278434507548809051513671875" lon="19.8990936018526554107666015625">
        <ele>1420.5999755859375</ele>
        <time>2026-06-16T07:29:12.000Z</time>
        <extensions>
          <ns3:TrackPointExtension>
            <ns3:atemp>18.0</ns3:atemp>
          </ns3:TrackPointExtension>
        </extensions>
      </trkpt>
      <trkpt lat="42.6278434507548809051513671875" lon="19.8990936018526554107666015625">
        <ele>1420.800048828125</ele>
        <time>2026-06-16T07:29:13.000Z</time>
        <extensions>
          <ns3:TrackPointExtension>
            <ns3:atemp>18.0</ns3:atemp>
          </ns3:TrackPointExtension>
        </extensions>
      </trkpt>
      <trkpt lat="42.6278434507548809051513671875" lon="19.8990936018526554107666015625">
        <ele>1420.800048828125</ele>
        <time>2026-06-16T07:29:14.000Z</time>
        <extensions>
          <ns3:TrackPointExtension>
            <ns3:atemp>18.0</ns3:atemp>
          </ns3:TrackPointExtension>
        </extensions>
      </trkpt>
      <trkpt lat="42.6278434507548809051513671875" lon="19.8990936018526554107666015625">
        <ele>1420.5999755859375</ele>
        <time>2026-06-16T07:29:15.000Z</time>
        <extensions>
          <ns3:TrackPointExtension>
            <ns3:atemp>18.0</ns3:atemp>
          </ns3:TrackPointExtension>
        </extensions>
      </trkpt>
      <trkpt lat="42.6278434507548809051513671875" lon="19.8990936018526554107666015625">
        <ele>1420.5999755859375</ele>
        <time>2026-06-16T07:29:16.000Z</time>
        <extensions>
          <ns3:TrackPointExtension>
            <ns3:atemp>18.0</ns3:atemp>
          </ns3:TrackPointExtension>
        </extensions>
      </trkpt>
      <trkpt lat="42.6278434507548809051513671875" lon="19.8990936018526554107666015625">
        <ele>1420.5999755859375</ele>
        <time>2026-06-16T07:29:17.000Z</time>
        <extensions>
          <ns3:TrackPointExtension>
            <ns3:atemp>18.0</ns3:atemp>
          </ns3:TrackPointExtension>
        </extensions>
      </trkpt>
      <trkpt lat="42.6278434507548809051513671875" lon="19.8990936018526554107666015625">
        <ele>1420.5999755859375</ele>
        <time>2026-06-16T07:29:18.000Z</time>
        <extensions>
          <ns3:TrackPointExtension>
            <ns3:atemp>18.0</ns3:atemp>
          </ns3:TrackPointExtension>
        </extensions>
      </trkpt>
      <trkpt lat="42.6278434507548809051513671875" lon="19.8990936018526554107666015625">
        <ele>1420.5999755859375</ele>
        <time>2026-06-16T07:29:19.000Z</time>
        <extensions>
          <ns3:TrackPointExtension>
            <ns3:atemp>18.0</ns3:atemp>
          </ns3:TrackPointExtension>
        </extensions>
      </trkpt>
      <trkpt lat="42.6278434507548809051513671875" lon="19.8990936018526554107666015625">
        <ele>1420.5999755859375</ele>
        <time>2026-06-16T07:29:20.000Z</time>
        <extensions>
          <ns3:TrackPointExtension>
            <ns3:atemp>18.0</ns3:atemp>
          </ns3:TrackPointExtension>
        </extensions>
      </trkpt>
      <trkpt lat="42.6278434507548809051513671875" lon="19.8990936018526554107666015625">
        <ele>1420.5999755859375</ele>
        <time>2026-06-16T07:29:21.000Z</time>
        <extensions>
          <ns3:TrackPointExtension>
            <ns3:atemp>18.0</ns3:atemp>
          </ns3:TrackPointExtension>
        </extensions>
      </trkpt>
      <trkpt lat="42.6278434507548809051513671875" lon="19.8990936018526554107666015625">
        <ele>1420.5999755859375</ele>
        <time>2026-06-16T07:29:22.000Z</time>
        <extensions>
          <ns3:TrackPointExtension>
            <ns3:atemp>18.0</ns3:atemp>
          </ns3:TrackPointExtension>
        </extensions>
      </trkpt>
      <trkpt lat="42.6278434507548809051513671875" lon="19.8990936018526554107666015625">
        <ele>1420.5999755859375</ele>
        <time>2026-06-16T07:29:23.000Z</time>
        <extensions>
          <ns3:TrackPointExtension>
            <ns3:atemp>18.0</ns3:atemp>
          </ns3:TrackPointExtension>
        </extensions>
      </trkpt>
      <trkpt lat="42.6278434507548809051513671875" lon="19.8990936018526554107666015625">
        <ele>1420.5999755859375</ele>
        <time>2026-06-16T07:29:24.000Z</time>
        <extensions>
          <ns3:TrackPointExtension>
            <ns3:atemp>18.0</ns3:atemp>
          </ns3:TrackPointExtension>
        </extensions>
      </trkpt>
      <trkpt lat="42.6278434507548809051513671875" lon="19.8990936018526554107666015625">
        <ele>1420.5999755859375</ele>
        <time>2026-06-16T07:29:25.000Z</time>
        <extensions>
          <ns3:TrackPointExtension>
            <ns3:atemp>18.0</ns3:atemp>
          </ns3:TrackPointExtension>
        </extensions>
      </trkpt>
      <trkpt lat="42.6278434507548809051513671875" lon="19.8990936018526554107666015625">
        <ele>1420.5999755859375</ele>
        <time>2026-06-16T07:29:26.000Z</time>
        <extensions>
          <ns3:TrackPointExtension>
            <ns3:atemp>18.0</ns3:atemp>
          </ns3:TrackPointExtension>
        </extensions>
      </trkpt>
      <trkpt lat="42.6278434507548809051513671875" lon="19.8990936018526554107666015625">
        <ele>1420.5999755859375</ele>
        <time>2026-06-16T07:29:27.000Z</time>
        <extensions>
          <ns3:TrackPointExtension>
            <ns3:atemp>18.0</ns3:atemp>
          </ns3:TrackPointExtension>
        </extensions>
      </trkpt>
      <trkpt lat="42.6278434507548809051513671875" lon="19.8990936018526554107666015625">
        <ele>1420.5999755859375</ele>
        <time>2026-06-16T07:29:28.000Z</time>
        <extensions>
          <ns3:TrackPointExtension>
            <ns3:atemp>18.0</ns3:atemp>
          </ns3:TrackPointExtension>
        </extensions>
      </trkpt>
      <trkpt lat="42.6278434507548809051513671875" lon="19.8990936018526554107666015625">
        <ele>1420.5999755859375</ele>
        <time>2026-06-16T07:29:29.000Z</time>
        <extensions>
          <ns3:TrackPointExtension>
            <ns3:atemp>18.0</ns3:atemp>
          </ns3:TrackPointExtension>
        </extensions>
      </trkpt>
      <trkpt lat="42.6278434507548809051513671875" lon="19.8990936018526554107666015625">
        <ele>1420.5999755859375</ele>
        <time>2026-06-16T07:29:30.000Z</time>
        <extensions>
          <ns3:TrackPointExtension>
            <ns3:atemp>18.0</ns3:atemp>
          </ns3:TrackPointExtension>
        </extensions>
      </trkpt>
      <trkpt lat="42.6278434507548809051513671875" lon="19.8990936018526554107666015625">
        <ele>1420.5999755859375</ele>
        <time>2026-06-16T07:29:31.000Z</time>
        <extensions>
          <ns3:TrackPointExtension>
            <ns3:atemp>18.0</ns3:atemp>
          </ns3:TrackPointExtension>
        </extensions>
      </trkpt>
      <trkpt lat="42.6278434507548809051513671875" lon="19.8990936018526554107666015625">
        <ele>1420.5999755859375</ele>
        <time>2026-06-16T07:29:32.000Z</time>
        <extensions>
          <ns3:TrackPointExtension>
            <ns3:atemp>18.0</ns3:atemp>
          </ns3:TrackPointExtension>
        </extensions>
      </trkpt>
      <trkpt lat="42.6278434507548809051513671875" lon="19.8990936018526554107666015625">
        <ele>1420.5999755859375</ele>
        <time>2026-06-16T07:29:33.000Z</time>
        <extensions>
          <ns3:TrackPointExtension>
            <ns3:atemp>18.0</ns3:atemp>
          </ns3:TrackPointExtension>
        </extensions>
      </trkpt>
      <trkpt lat="42.6278434507548809051513671875" lon="19.8990936018526554107666015625">
        <ele>1420.5999755859375</ele>
        <time>2026-06-16T07:29:34.000Z</time>
        <extensions>
          <ns3:TrackPointExtension>
            <ns3:atemp>18.0</ns3:atemp>
          </ns3:TrackPointExtension>
        </extensions>
      </trkpt>
      <trkpt lat="42.6278434507548809051513671875" lon="19.8990936018526554107666015625">
        <ele>1420.800048828125</ele>
        <time>2026-06-16T07:29:35.000Z</time>
        <extensions>
          <ns3:TrackPointExtension>
            <ns3:atemp>18.0</ns3:atemp>
          </ns3:TrackPointExtension>
        </extensions>
      </trkpt>
      <trkpt lat="42.6278434507548809051513671875" lon="19.8990936018526554107666015625">
        <ele>1420.800048828125</ele>
        <time>2026-06-16T07:29:36.000Z</time>
        <extensions>
          <ns3:TrackPointExtension>
            <ns3:atemp>18.0</ns3:atemp>
          </ns3:TrackPointExtension>
        </extensions>
      </trkpt>
      <trkpt lat="42.6278434507548809051513671875" lon="19.8990936018526554107666015625">
        <ele>1420.800048828125</ele>
        <time>2026-06-16T07:29:37.000Z</time>
        <extensions>
          <ns3:TrackPointExtension>
            <ns3:atemp>18.0</ns3:atemp>
          </ns3:TrackPointExtension>
        </extensions>
      </trkpt>
      <trkpt lat="42.6278434507548809051513671875" lon="19.8990936018526554107666015625">
        <ele>1420.800048828125</ele>
        <time>2026-06-16T07:29:38.000Z</time>
        <extensions>
          <ns3:TrackPointExtension>
            <ns3:atemp>18.0</ns3:atemp>
          </ns3:TrackPointExtension>
        </extensions>
      </trkpt>
      <trkpt lat="42.6278434507548809051513671875" lon="19.8990936018526554107666015625">
        <ele>1420.800048828125</ele>
        <time>2026-06-16T07:29:39.000Z</time>
        <extensions>
          <ns3:TrackPointExtension>
            <ns3:atemp>18.0</ns3:atemp>
          </ns3:TrackPointExtension>
        </extensions>
      </trkpt>
      <trkpt lat="42.6278434507548809051513671875" lon="19.8990936018526554107666015625">
        <ele>1420.800048828125</ele>
        <time>2026-06-16T07:29:40.000Z</time>
        <extensions>
          <ns3:TrackPointExtension>
            <ns3:atemp>18.0</ns3:atemp>
          </ns3:TrackPointExtension>
        </extensions>
      </trkpt>
      <trkpt lat="42.6278434507548809051513671875" lon="19.8990936018526554107666015625">
        <ele>1421</ele>
        <time>2026-06-16T07:29:41.000Z</time>
        <extensions>
          <ns3:TrackPointExtension>
            <ns3:atemp>18.0</ns3:atemp>
          </ns3:TrackPointExtension>
        </extensions>
      </trkpt>
      <trkpt lat="42.6278434507548809051513671875" lon="19.8990936018526554107666015625">
        <ele>1421</ele>
        <time>2026-06-16T07:29:42.000Z</time>
        <extensions>
          <ns3:TrackPointExtension>
            <ns3:atemp>18.0</ns3:atemp>
          </ns3:TrackPointExtension>
        </extensions>
      </trkpt>
      <trkpt lat="42.6278434507548809051513671875" lon="19.8990936018526554107666015625">
        <ele>1421</ele>
        <time>2026-06-16T07:29:43.000Z</time>
        <extensions>
          <ns3:TrackPointExtension>
            <ns3:atemp>18.0</ns3:atemp>
          </ns3:TrackPointExtension>
        </extensions>
      </trkpt>
      <trkpt lat="42.6278434507548809051513671875" lon="19.8990936018526554107666015625">
        <ele>1421</ele>
        <time>2026-06-16T07:29:44.000Z</time>
        <extensions>
          <ns3:TrackPointExtension>
            <ns3:atemp>18.0</ns3:atemp>
          </ns3:TrackPointExtension>
        </extensions>
      </trkpt>
      <trkpt lat="42.6278434507548809051513671875" lon="19.8990936018526554107666015625">
        <ele>1421</ele>
        <time>2026-06-16T07:29:45.000Z</time>
        <extensions>
          <ns3:TrackPointExtension>
            <ns3:atemp>18.0</ns3:atemp>
          </ns3:TrackPointExtension>
        </extensions>
      </trkpt>
      <trkpt lat="42.6278434507548809051513671875" lon="19.8990936018526554107666015625">
        <ele>1421</ele>
        <time>2026-06-16T07:29:46.000Z</time>
        <extensions>
          <ns3:TrackPointExtension>
            <ns3:atemp>18.0</ns3:atemp>
          </ns3:TrackPointExtension>
        </extensions>
      </trkpt>
      <trkpt lat="42.6278434507548809051513671875" lon="19.8990936018526554107666015625">
        <ele>1421</ele>
        <time>2026-06-16T07:29:47.000Z</time>
        <extensions>
          <ns3:TrackPointExtension>
            <ns3:atemp>18.0</ns3:atemp>
          </ns3:TrackPointExtension>
        </extensions>
      </trkpt>
      <trkpt lat="42.6278434507548809051513671875" lon="19.8990936018526554107666015625">
        <ele>1421</ele>
        <time>2026-06-16T07:29:48.000Z</time>
        <extensions>
          <ns3:TrackPointExtension>
            <ns3:atemp>18.0</ns3:atemp>
          </ns3:TrackPointExtension>
        </extensions>
      </trkpt>
      <trkpt lat="42.6278434507548809051513671875" lon="19.8990936018526554107666015625">
        <ele>1420.800048828125</ele>
        <time>2026-06-16T07:29:49.000Z</time>
        <extensions>
          <ns3:TrackPointExtension>
            <ns3:atemp>18.0</ns3:atemp>
          </ns3:TrackPointExtension>
        </extensions>
      </trkpt>
      <trkpt lat="42.6278434507548809051513671875" lon="19.8990936018526554107666015625">
        <ele>1420.800048828125</ele>
        <time>2026-06-16T07:29:50.000Z</time>
        <extensions>
          <ns3:TrackPointExtension>
            <ns3:atemp>18.0</ns3:atemp>
          </ns3:TrackPointExtension>
        </extensions>
      </trkpt>
      <trkpt lat="42.6278434507548809051513671875" lon="19.8990936018526554107666015625">
        <ele>1420.800048828125</ele>
        <time>2026-06-16T07:29:51.000Z</time>
        <extensions>
          <ns3:TrackPointExtension>
            <ns3:atemp>18.0</ns3:atemp>
          </ns3:TrackPointExtension>
        </extensions>
      </trkpt>
      <trkpt lat="42.6278434507548809051513671875" lon="19.8990936018526554107666015625">
        <ele>1420.800048828125</ele>
        <time>2026-06-16T07:29:52.000Z</time>
        <extensions>
          <ns3:TrackPointExtension>
            <ns3:atemp>18.0</ns3:atemp>
          </ns3:TrackPointExtension>
        </extensions>
      </trkpt>
      <trkpt lat="42.6278434507548809051513671875" lon="19.8990936018526554107666015625">
        <ele>1421</ele>
        <time>2026-06-16T07:29:53.000Z</time>
        <extensions>
          <ns3:TrackPointExtension>
            <ns3:atemp>18.0</ns3:atemp>
          </ns3:TrackPointExtension>
        </extensions>
      </trkpt>
      <trkpt lat="42.6278434507548809051513671875" lon="19.8990936018526554107666015625">
        <ele>1421</ele>
        <time>2026-06-16T07:29:54.000Z</time>
        <extensions>
          <ns3:TrackPointExtension>
            <ns3:atemp>18.0</ns3:atemp>
          </ns3:TrackPointExtension>
        </extensions>
      </trkpt>
      <trkpt lat="42.6278434507548809051513671875" lon="19.8990936018526554107666015625">
        <ele>1421</ele>
        <time>2026-06-16T07:29:55.000Z</time>
        <extensions>
          <ns3:TrackPointExtension>
            <ns3:atemp>18.0</ns3:atemp>
          </ns3:TrackPointExtension>
        </extensions>
      </trkpt>
      <trkpt lat="42.6278434507548809051513671875" lon="19.8990936018526554107666015625">
        <ele>1421</ele>
        <time>2026-06-16T07:29:56.000Z</time>
        <extensions>
          <ns3:TrackPointExtension>
            <ns3:atemp>18.0</ns3:atemp>
          </ns3:TrackPointExtension>
        </extensions>
      </trkpt>
      <trkpt lat="42.6278434507548809051513671875" lon="19.8990936018526554107666015625">
        <ele>1421</ele>
        <time>2026-06-16T07:29:57.000Z</time>
        <extensions>
          <ns3:TrackPointExtension>
            <ns3:atemp>18.0</ns3:atemp>
          </ns3:TrackPointExtension>
        </extensions>
      </trkpt>
      <trkpt lat="42.6278434507548809051513671875" lon="19.8990936018526554107666015625">
        <ele>1421</ele>
        <time>2026-06-16T07:29:58.000Z</time>
        <extensions>
          <ns3:TrackPointExtension>
            <ns3:atemp>18.0</ns3:atemp>
          </ns3:TrackPointExtension>
        </extensions>
      </trkpt>
      <trkpt lat="42.6278434507548809051513671875" lon="19.8990936018526554107666015625">
        <ele>1421</ele>
        <time>2026-06-16T07:29:59.000Z</time>
        <extensions>
          <ns3:TrackPointExtension>
            <ns3:atemp>18.0</ns3:atemp>
          </ns3:TrackPointExtension>
        </extensions>
      </trkpt>
      <trkpt lat="42.6278434507548809051513671875" lon="19.8990936018526554107666015625">
        <ele>1421</ele>
        <time>2026-06-16T07:30:00.000Z</time>
        <extensions>
          <ns3:TrackPointExtension>
            <ns3:atemp>19.0</ns3:atemp>
          </ns3:TrackPointExtension>
        </extensions>
      </trkpt>
      <trkpt lat="42.6278434507548809051513671875" lon="19.8990936018526554107666015625">
        <ele>1421</ele>
        <time>2026-06-16T07:30:01.000Z</time>
        <extensions>
          <ns3:TrackPointExtension>
            <ns3:atemp>19.0</ns3:atemp>
          </ns3:TrackPointExtension>
        </extensions>
      </trkpt>
      <trkpt lat="42.6278434507548809051513671875" lon="19.8990936018526554107666015625">
        <ele>1421</ele>
        <time>2026-06-16T07:30:02.000Z</time>
        <extensions>
          <ns3:TrackPointExtension>
            <ns3:atemp>19.0</ns3:atemp>
          </ns3:TrackPointExtension>
        </extensions>
      </trkpt>
      <trkpt lat="42.6278434507548809051513671875" lon="19.8990936018526554107666015625">
        <ele>1421</ele>
        <time>2026-06-16T07:30:03.000Z</time>
        <extensions>
          <ns3:TrackPointExtension>
            <ns3:atemp>19.0</ns3:atemp>
          </ns3:TrackPointExtension>
        </extensions>
      </trkpt>
      <trkpt lat="42.6278434507548809051513671875" lon="19.8990936018526554107666015625">
        <ele>1421</ele>
        <time>2026-06-16T07:30:04.000Z</time>
        <extensions>
          <ns3:TrackPointExtension>
            <ns3:atemp>19.0</ns3:atemp>
          </ns3:TrackPointExtension>
        </extensions>
      </trkpt>
      <trkpt lat="42.6278434507548809051513671875" lon="19.8990936018526554107666015625">
        <ele>1421</ele>
        <time>2026-06-16T07:30:05.000Z</time>
        <extensions>
          <ns3:TrackPointExtension>
            <ns3:atemp>19.0</ns3:atemp>
          </ns3:TrackPointExtension>
        </extensions>
      </trkpt>
      <trkpt lat="42.6278434507548809051513671875" lon="19.8990936018526554107666015625">
        <ele>1421</ele>
        <time>2026-06-16T07:30:06.000Z</time>
        <extensions>
          <ns3:TrackPointExtension>
            <ns3:atemp>19.0</ns3:atemp>
          </ns3:TrackPointExtension>
        </extensions>
      </trkpt>
      <trkpt lat="42.6278434507548809051513671875" lon="19.8990936018526554107666015625">
        <ele>1421</ele>
        <time>2026-06-16T07:30:07.000Z</time>
        <extensions>
          <ns3:TrackPointExtension>
            <ns3:atemp>19.0</ns3:atemp>
          </ns3:TrackPointExtension>
        </extensions>
      </trkpt>
      <trkpt lat="42.6278434507548809051513671875" lon="19.8990936018526554107666015625">
        <ele>1421</ele>
        <time>2026-06-16T07:30:08.000Z</time>
        <extensions>
          <ns3:TrackPointExtension>
            <ns3:atemp>19.0</ns3:atemp>
          </ns3:TrackPointExtension>
        </extensions>
      </trkpt>
      <trkpt lat="42.6278434507548809051513671875" lon="19.8990936018526554107666015625">
        <ele>1421</ele>
        <time>2026-06-16T07:30:09.000Z</time>
        <extensions>
          <ns3:TrackPointExtension>
            <ns3:atemp>19.0</ns3:atemp>
          </ns3:TrackPointExtension>
        </extensions>
      </trkpt>
      <trkpt lat="42.6278434507548809051513671875" lon="19.8990936018526554107666015625">
        <ele>1421</ele>
        <time>2026-06-16T07:30:10.000Z</time>
        <extensions>
          <ns3:TrackPointExtension>
            <ns3:atemp>19.0</ns3:atemp>
          </ns3:TrackPointExtension>
        </extensions>
      </trkpt>
      <trkpt lat="42.6278434507548809051513671875" lon="19.8990936018526554107666015625">
        <ele>1421</ele>
        <time>2026-06-16T07:30:11.000Z</time>
        <extensions>
          <ns3:TrackPointExtension>
            <ns3:atemp>19.0</ns3:atemp>
          </ns3:TrackPointExtension>
        </extensions>
      </trkpt>
      <trkpt lat="42.6278434507548809051513671875" lon="19.8990936018526554107666015625">
        <ele>1420.800048828125</ele>
        <time>2026-06-16T07:30:12.000Z</time>
        <extensions>
          <ns3:TrackPointExtension>
            <ns3:atemp>19.0</ns3:atemp>
          </ns3:TrackPointExtension>
        </extensions>
      </trkpt>
      <trkpt lat="42.6278434507548809051513671875" lon="19.8990936018526554107666015625">
        <ele>1420.800048828125</ele>
        <time>2026-06-16T07:30:13.000Z</time>
        <extensions>
          <ns3:TrackPointExtension>
            <ns3:atemp>19.0</ns3:atemp>
          </ns3:TrackPointExtension>
        </extensions>
      </trkpt>
      <trkpt lat="42.6278434507548809051513671875" lon="19.8990936018526554107666015625">
        <ele>1420.800048828125</ele>
        <time>2026-06-16T07:30:14.000Z</time>
        <extensions>
          <ns3:TrackPointExtension>
            <ns3:atemp>19.0</ns3:atemp>
          </ns3:TrackPointExtension>
        </extensions>
      </trkpt>
      <trkpt lat="42.6278434507548809051513671875" lon="19.8990936018526554107666015625">
        <ele>1420.800048828125</ele>
        <time>2026-06-16T07:30:15.000Z</time>
        <extensions>
          <ns3:TrackPointExtension>
            <ns3:atemp>19.0</ns3:atemp>
          </ns3:TrackPointExtension>
        </extensions>
      </trkpt>
      <trkpt lat="42.6278434507548809051513671875" lon="19.8990936018526554107666015625">
        <ele>1420.800048828125</ele>
        <time>2026-06-16T07:30:16.000Z</time>
        <extensions>
          <ns3:TrackPointExtension>
            <ns3:atemp>19.0</ns3:atemp>
          </ns3:TrackPointExtension>
        </extensions>
      </trkpt>
      <trkpt lat="42.6278434507548809051513671875" lon="19.8990936018526554107666015625">
        <ele>1421</ele>
        <time>2026-06-16T07:30:17.000Z</time>
        <extensions>
          <ns3:TrackPointExtension>
            <ns3:atemp>19.0</ns3:atemp>
          </ns3:TrackPointExtension>
        </extensions>
      </trkpt>
      <trkpt lat="42.6278434507548809051513671875" lon="19.8990936018526554107666015625">
        <ele>1421</ele>
        <time>2026-06-16T07:30:18.000Z</time>
        <extensions>
          <ns3:TrackPointExtension>
            <ns3:atemp>19.0</ns3:atemp>
          </ns3:TrackPointExtension>
        </extensions>
      </trkpt>
      <trkpt lat="42.6278434507548809051513671875" lon="19.8990936018526554107666015625">
        <ele>1421</ele>
        <time>2026-06-16T07:30:19.000Z</time>
        <extensions>
          <ns3:TrackPointExtension>
            <ns3:atemp>19.0</ns3:atemp>
          </ns3:TrackPointExtension>
        </extensions>
      </trkpt>
      <trkpt lat="42.6278434507548809051513671875" lon="19.8990936018526554107666015625">
        <ele>1421</ele>
        <time>2026-06-16T07:30:20.000Z</time>
        <extensions>
          <ns3:TrackPointExtension>
            <ns3:atemp>19.0</ns3:atemp>
          </ns3:TrackPointExtension>
        </extensions>
      </trkpt>
      <trkpt lat="42.6278434507548809051513671875" lon="19.8990936018526554107666015625">
        <ele>1421</ele>
        <time>2026-06-16T07:30:21.000Z</time>
        <extensions>
          <ns3:TrackPointExtension>
            <ns3:atemp>19.0</ns3:atemp>
          </ns3:TrackPointExtension>
        </extensions>
      </trkpt>
      <trkpt lat="42.6278434507548809051513671875" lon="19.8990936018526554107666015625">
        <ele>1421</ele>
        <time>2026-06-16T07:30:22.000Z</time>
        <extensions>
          <ns3:TrackPointExtension>
            <ns3:atemp>19.0</ns3:atemp>
          </ns3:TrackPointExtension>
        </extensions>
      </trkpt>
      <trkpt lat="42.6278434507548809051513671875" lon="19.8990936018526554107666015625">
        <ele>1421</ele>
        <time>2026-06-16T07:30:23.000Z</time>
        <extensions>
          <ns3:TrackPointExtension>
            <ns3:atemp>19.0</ns3:atemp>
          </ns3:TrackPointExtension>
        </extensions>
      </trkpt>
      <trkpt lat="42.6278434507548809051513671875" lon="19.8990936018526554107666015625">
        <ele>1421.199951171875</ele>
        <time>2026-06-16T07:30:24.000Z</time>
        <extensions>
          <ns3:TrackPointExtension>
            <ns3:atemp>19.0</ns3:atemp>
          </ns3:TrackPointExtension>
        </extensions>
      </trkpt>
      <trkpt lat="42.6278434507548809051513671875" lon="19.8990936018526554107666015625">
        <ele>1421.199951171875</ele>
        <time>2026-06-16T07:30:25.000Z</time>
        <extensions>
          <ns3:TrackPointExtension>
            <ns3:atemp>19.0</ns3:atemp>
          </ns3:TrackPointExtension>
        </extensions>
      </trkpt>
      <trkpt lat="42.6278434507548809051513671875" lon="19.8990936018526554107666015625">
        <ele>1421.199951171875</ele>
        <time>2026-06-16T07:30:26.000Z</time>
        <extensions>
          <ns3:TrackPointExtension>
            <ns3:atemp>19.0</ns3:atemp>
          </ns3:TrackPointExtension>
        </extensions>
      </trkpt>
      <trkpt lat="42.6278434507548809051513671875" lon="19.8990936018526554107666015625">
        <ele>1421.199951171875</ele>
        <time>2026-06-16T07:30:27.000Z</time>
        <extensions>
          <ns3:TrackPointExtension>
            <ns3:atemp>19.0</ns3:atemp>
          </ns3:TrackPointExtension>
        </extensions>
      </trkpt>
      <trkpt lat="42.6278434507548809051513671875" lon="19.8990936018526554107666015625">
        <ele>1421.199951171875</ele>
        <time>2026-06-16T07:30:28.000Z</time>
        <extensions>
          <ns3:TrackPointExtension>
            <ns3:atemp>19.0</ns3:atemp>
          </ns3:TrackPointExtension>
        </extensions>
      </trkpt>
      <trkpt lat="42.6278434507548809051513671875" lon="19.8990936018526554107666015625">
        <ele>1421.199951171875</ele>
        <time>2026-06-16T07:30:29.000Z</time>
        <extensions>
          <ns3:TrackPointExtension>
            <ns3:atemp>19.0</ns3:atemp>
          </ns3:TrackPointExtension>
        </extensions>
      </trkpt>
      <trkpt lat="42.6278434507548809051513671875" lon="19.8990936018526554107666015625">
        <ele>1421.199951171875</ele>
        <time>2026-06-16T07:30:30.000Z</time>
        <extensions>
          <ns3:TrackPointExtension>
            <ns3:atemp>19.0</ns3:atemp>
          </ns3:TrackPointExtension>
        </extensions>
      </trkpt>
      <trkpt lat="42.6278434507548809051513671875" lon="19.8990936018526554107666015625">
        <ele>1421.199951171875</ele>
        <time>2026-06-16T07:30:31.000Z</time>
        <extensions>
          <ns3:TrackPointExtension>
            <ns3:atemp>19.0</ns3:atemp>
          </ns3:TrackPointExtension>
        </extensions>
      </trkpt>
      <trkpt lat="42.6278434507548809051513671875" lon="19.8990936018526554107666015625">
        <ele>1421.199951171875</ele>
        <time>2026-06-16T07:30:32.000Z</time>
        <extensions>
          <ns3:TrackPointExtension>
            <ns3:atemp>19.0</ns3:atemp>
          </ns3:TrackPointExtension>
        </extensions>
      </trkpt>
      <trkpt lat="42.6278434507548809051513671875" lon="19.8990936018526554107666015625">
        <ele>1421.199951171875</ele>
        <time>2026-06-16T07:30:33.000Z</time>
        <extensions>
          <ns3:TrackPointExtension>
            <ns3:atemp>19.0</ns3:atemp>
          </ns3:TrackPointExtension>
        </extensions>
      </trkpt>
      <trkpt lat="42.6278434507548809051513671875" lon="19.8990936018526554107666015625">
        <ele>1421.199951171875</ele>
        <time>2026-06-16T07:30:34.000Z</time>
        <extensions>
          <ns3:TrackPointExtension>
            <ns3:atemp>19.0</ns3:atemp>
          </ns3:TrackPointExtension>
        </extensions>
      </trkpt>
      <trkpt lat="42.6278434507548809051513671875" lon="19.8990936018526554107666015625">
        <ele>1421.199951171875</ele>
        <time>2026-06-16T07:30:35.000Z</time>
        <extensions>
          <ns3:TrackPointExtension>
            <ns3:atemp>19.0</ns3:atemp>
          </ns3:TrackPointExtension>
        </extensions>
      </trkpt>
      <trkpt lat="42.6278434507548809051513671875" lon="19.8990936018526554107666015625">
        <ele>1421.199951171875</ele>
        <time>2026-06-16T07:30:36.000Z</time>
        <extensions>
          <ns3:TrackPointExtension>
            <ns3:atemp>19.0</ns3:atemp>
          </ns3:TrackPointExtension>
        </extensions>
      </trkpt>
      <trkpt lat="42.6278434507548809051513671875" lon="19.8990936018526554107666015625">
        <ele>1421.199951171875</ele>
        <time>2026-06-16T07:30:37.000Z</time>
        <extensions>
          <ns3:TrackPointExtension>
            <ns3:atemp>19.0</ns3:atemp>
          </ns3:TrackPointExtension>
        </extensions>
      </trkpt>
      <trkpt lat="42.6278434507548809051513671875" lon="19.8990936018526554107666015625">
        <ele>1421.199951171875</ele>
        <time>2026-06-16T07:30:38.000Z</time>
        <extensions>
          <ns3:TrackPointExtension>
            <ns3:atemp>19.0</ns3:atemp>
          </ns3:TrackPointExtension>
        </extensions>
      </trkpt>
      <trkpt lat="42.6278434507548809051513671875" lon="19.8990936018526554107666015625">
        <ele>1421.199951171875</ele>
        <time>2026-06-16T07:30:39.000Z</time>
        <extensions>
          <ns3:TrackPointExtension>
            <ns3:atemp>19.0</ns3:atemp>
          </ns3:TrackPointExtension>
        </extensions>
      </trkpt>
      <trkpt lat="42.6278434507548809051513671875" lon="19.8990936018526554107666015625">
        <ele>1421.199951171875</ele>
        <time>2026-06-16T07:30:40.000Z</time>
        <extensions>
          <ns3:TrackPointExtension>
            <ns3:atemp>19.0</ns3:atemp>
          </ns3:TrackPointExtension>
        </extensions>
      </trkpt>
      <trkpt lat="42.6278434507548809051513671875" lon="19.8990936018526554107666015625">
        <ele>1421.199951171875</ele>
        <time>2026-06-16T07:30:41.000Z</time>
        <extensions>
          <ns3:TrackPointExtension>
            <ns3:atemp>19.0</ns3:atemp>
          </ns3:TrackPointExtension>
        </extensions>
      </trkpt>
      <trkpt lat="42.6278434507548809051513671875" lon="19.8990936018526554107666015625">
        <ele>1421.199951171875</ele>
        <time>2026-06-16T07:30:42.000Z</time>
        <extensions>
          <ns3:TrackPointExtension>
            <ns3:atemp>19.0</ns3:atemp>
          </ns3:TrackPointExtension>
        </extensions>
      </trkpt>
      <trkpt lat="42.6278434507548809051513671875" lon="19.8990936018526554107666015625">
        <ele>1421.199951171875</ele>
        <time>2026-06-16T07:30:43.000Z</time>
        <extensions>
          <ns3:TrackPointExtension>
            <ns3:atemp>19.0</ns3:atemp>
          </ns3:TrackPointExtension>
        </extensions>
      </trkpt>
      <trkpt lat="42.6278434507548809051513671875" lon="19.8990936018526554107666015625">
        <ele>1421.199951171875</ele>
        <time>2026-06-16T07:30:44.000Z</time>
        <extensions>
          <ns3:TrackPointExtension>
            <ns3:atemp>19.0</ns3:atemp>
          </ns3:TrackPointExtension>
        </extensions>
      </trkpt>
      <trkpt lat="42.6278434507548809051513671875" lon="19.8990936018526554107666015625">
        <ele>1421.199951171875</ele>
        <time>2026-06-16T07:30:45.000Z</time>
        <extensions>
          <ns3:TrackPointExtension>
            <ns3:atemp>19.0</ns3:atemp>
          </ns3:TrackPointExtension>
        </extensions>
      </trkpt>
      <trkpt lat="42.6278434507548809051513671875" lon="19.8990936018526554107666015625">
        <ele>1421.199951171875</ele>
        <time>2026-06-16T07:30:46.000Z</time>
        <extensions>
          <ns3:TrackPointExtension>
            <ns3:atemp>19.0</ns3:atemp>
          </ns3:TrackPointExtension>
        </extensions>
      </trkpt>
      <trkpt lat="42.6278434507548809051513671875" lon="19.8990936018526554107666015625">
        <ele>1421.199951171875</ele>
        <time>2026-06-16T07:30:47.000Z</time>
        <extensions>
          <ns3:TrackPointExtension>
            <ns3:atemp>19.0</ns3:atemp>
          </ns3:TrackPointExtension>
        </extensions>
      </trkpt>
      <trkpt lat="42.6278434507548809051513671875" lon="19.8990936018526554107666015625">
        <ele>1421.199951171875</ele>
        <time>2026-06-16T07:30:48.000Z</time>
        <extensions>
          <ns3:TrackPointExtension>
            <ns3:atemp>19.0</ns3:atemp>
          </ns3:TrackPointExtension>
        </extensions>
      </trkpt>
      <trkpt lat="42.6278434507548809051513671875" lon="19.8990936018526554107666015625">
        <ele>1421.199951171875</ele>
        <time>2026-06-16T07:30:49.000Z</time>
        <extensions>
          <ns3:TrackPointExtension>
            <ns3:atemp>19.0</ns3:atemp>
          </ns3:TrackPointExtension>
        </extensions>
      </trkpt>
      <trkpt lat="42.6278434507548809051513671875" lon="19.8990936018526554107666015625">
        <ele>1421.199951171875</ele>
        <time>2026-06-16T07:30:50.000Z</time>
        <extensions>
          <ns3:TrackPointExtension>
            <ns3:atemp>19.0</ns3:atemp>
          </ns3:TrackPointExtension>
        </extensions>
      </trkpt>
      <trkpt lat="42.6278434507548809051513671875" lon="19.8990936018526554107666015625">
        <ele>1421.199951171875</ele>
        <time>2026-06-16T07:30:51.000Z</time>
        <extensions>
          <ns3:TrackPointExtension>
            <ns3:atemp>19.0</ns3:atemp>
          </ns3:TrackPointExtension>
        </extensions>
      </trkpt>
      <trkpt lat="42.6278434507548809051513671875" lon="19.8990936018526554107666015625">
        <ele>1421.199951171875</ele>
        <time>2026-06-16T07:30:52.000Z</time>
        <extensions>
          <ns3:TrackPointExtension>
            <ns3:atemp>19.0</ns3:atemp>
          </ns3:TrackPointExtension>
        </extensions>
      </trkpt>
      <trkpt lat="42.6278434507548809051513671875" lon="19.8990936018526554107666015625">
        <ele>1421.199951171875</ele>
        <time>2026-06-16T07:30:53.000Z</time>
        <extensions>
          <ns3:TrackPointExtension>
            <ns3:atemp>19.0</ns3:atemp>
          </ns3:TrackPointExtension>
        </extensions>
      </trkpt>
      <trkpt lat="42.6278434507548809051513671875" lon="19.8990936018526554107666015625">
        <ele>1421.199951171875</ele>
        <time>2026-06-16T07:30:54.000Z</time>
        <extensions>
          <ns3:TrackPointExtension>
            <ns3:atemp>19.0</ns3:atemp>
          </ns3:TrackPointExtension>
        </extensions>
      </trkpt>
      <trkpt lat="42.6278434507548809051513671875" lon="19.8990936018526554107666015625">
        <ele>1421.199951171875</ele>
        <time>2026-06-16T07:30:55.000Z</time>
        <extensions>
          <ns3:TrackPointExtension>
            <ns3:atemp>19.0</ns3:atemp>
          </ns3:TrackPointExtension>
        </extensions>
      </trkpt>
      <trkpt lat="42.6278434507548809051513671875" lon="19.8990936018526554107666015625">
        <ele>1421.199951171875</ele>
        <time>2026-06-16T07:30:56.000Z</time>
        <extensions>
          <ns3:TrackPointExtension>
            <ns3:atemp>19.0</ns3:atemp>
          </ns3:TrackPointExtension>
        </extensions>
      </trkpt>
      <trkpt lat="42.6278434507548809051513671875" lon="19.8990936018526554107666015625">
        <ele>1421.199951171875</ele>
        <time>2026-06-16T07:30:57.000Z</time>
        <extensions>
          <ns3:TrackPointExtension>
            <ns3:atemp>19.0</ns3:atemp>
          </ns3:TrackPointExtension>
        </extensions>
      </trkpt>
      <trkpt lat="42.6278434507548809051513671875" lon="19.8990936018526554107666015625">
        <ele>1421.199951171875</ele>
        <time>2026-06-16T07:30:58.000Z</time>
        <extensions>
          <ns3:TrackPointExtension>
            <ns3:atemp>19.0</ns3:atemp>
          </ns3:TrackPointExtension>
        </extensions>
      </trkpt>
      <trkpt lat="42.6278434507548809051513671875" lon="19.8990936018526554107666015625">
        <ele>1421.199951171875</ele>
        <time>2026-06-16T07:30:59.000Z</time>
        <extensions>
          <ns3:TrackPointExtension>
            <ns3:atemp>19.0</ns3:atemp>
          </ns3:TrackPointExtension>
        </extensions>
      </trkpt>
      <trkpt lat="42.6278434507548809051513671875" lon="19.8990936018526554107666015625">
        <ele>1421.199951171875</ele>
        <time>2026-06-16T07:31:00.000Z</time>
        <extensions>
          <ns3:TrackPointExtension>
            <ns3:atemp>19.0</ns3:atemp>
          </ns3:TrackPointExtension>
        </extensions>
      </trkpt>
      <trkpt lat="42.6278434507548809051513671875" lon="19.8990936018526554107666015625">
        <ele>1421.199951171875</ele>
        <time>2026-06-16T07:31:01.000Z</time>
        <extensions>
          <ns3:TrackPointExtension>
            <ns3:atemp>19.0</ns3:atemp>
          </ns3:TrackPointExtension>
        </extensions>
      </trkpt>
      <trkpt lat="42.6278434507548809051513671875" lon="19.8990936018526554107666015625">
        <ele>1421.199951171875</ele>
        <time>2026-06-16T07:31:02.000Z</time>
        <extensions>
          <ns3:TrackPointExtension>
            <ns3:atemp>19.0</ns3:atemp>
          </ns3:TrackPointExtension>
        </extensions>
      </trkpt>
      <trkpt lat="42.6278434507548809051513671875" lon="19.8990936018526554107666015625">
        <ele>1421.199951171875</ele>
        <time>2026-06-16T07:31:03.000Z</time>
        <extensions>
          <ns3:TrackPointExtension>
            <ns3:atemp>19.0</ns3:atemp>
          </ns3:TrackPointExtension>
        </extensions>
      </trkpt>
      <trkpt lat="42.6278434507548809051513671875" lon="19.8990936018526554107666015625">
        <ele>1421.199951171875</ele>
        <time>2026-06-16T07:31:04.000Z</time>
        <extensions>
          <ns3:TrackPointExtension>
            <ns3:atemp>19.0</ns3:atemp>
          </ns3:TrackPointExtension>
        </extensions>
      </trkpt>
      <trkpt lat="42.6278434507548809051513671875" lon="19.8990936018526554107666015625">
        <ele>1421.199951171875</ele>
        <time>2026-06-16T07:31:05.000Z</time>
        <extensions>
          <ns3:TrackPointExtension>
            <ns3:atemp>19.0</ns3:atemp>
          </ns3:TrackPointExtension>
        </extensions>
      </trkpt>
      <trkpt lat="42.6278434507548809051513671875" lon="19.8990936018526554107666015625">
        <ele>1421.199951171875</ele>
        <time>2026-06-16T07:31:06.000Z</time>
        <extensions>
          <ns3:TrackPointExtension>
            <ns3:atemp>19.0</ns3:atemp>
          </ns3:TrackPointExtension>
        </extensions>
      </trkpt>
      <trkpt lat="42.6278434507548809051513671875" lon="19.8990936018526554107666015625">
        <ele>1421.199951171875</ele>
        <time>2026-06-16T07:31:07.000Z</time>
        <extensions>
          <ns3:TrackPointExtension>
            <ns3:atemp>19.0</ns3:atemp>
          </ns3:TrackPointExtension>
        </extensions>
      </trkpt>
      <trkpt lat="42.6278434507548809051513671875" lon="19.8990936018526554107666015625">
        <ele>1421.199951171875</ele>
        <time>2026-06-16T07:31:08.000Z</time>
        <extensions>
          <ns3:TrackPointExtension>
            <ns3:atemp>19.0</ns3:atemp>
          </ns3:TrackPointExtension>
        </extensions>
      </trkpt>
      <trkpt lat="42.6278434507548809051513671875" lon="19.8990936018526554107666015625">
        <ele>1421.199951171875</ele>
        <time>2026-06-16T07:31:09.000Z</time>
        <extensions>
          <ns3:TrackPointExtension>
            <ns3:atemp>19.0</ns3:atemp>
          </ns3:TrackPointExtension>
        </extensions>
      </trkpt>
      <trkpt lat="42.6278434507548809051513671875" lon="19.8990936018526554107666015625">
        <ele>1421.199951171875</ele>
        <time>2026-06-16T07:31:10.000Z</time>
        <extensions>
          <ns3:TrackPointExtension>
            <ns3:atemp>19.0</ns3:atemp>
          </ns3:TrackPointExtension>
        </extensions>
      </trkpt>
      <trkpt lat="42.6278434507548809051513671875" lon="19.8990936018526554107666015625">
        <ele>1421.199951171875</ele>
        <time>2026-06-16T07:31:11.000Z</time>
        <extensions>
          <ns3:TrackPointExtension>
            <ns3:atemp>19.0</ns3:atemp>
          </ns3:TrackPointExtension>
        </extensions>
      </trkpt>
      <trkpt lat="42.6278434507548809051513671875" lon="19.8990936018526554107666015625">
        <ele>1421.199951171875</ele>
        <time>2026-06-16T07:31:12.000Z</time>
        <extensions>
          <ns3:TrackPointExtension>
            <ns3:atemp>19.0</ns3:atemp>
          </ns3:TrackPointExtension>
        </extensions>
      </trkpt>
      <trkpt lat="42.6278434507548809051513671875" lon="19.8990936018526554107666015625">
        <ele>1421.199951171875</ele>
        <time>2026-06-16T07:31:13.000Z</time>
        <extensions>
          <ns3:TrackPointExtension>
            <ns3:atemp>19.0</ns3:atemp>
          </ns3:TrackPointExtension>
        </extensions>
      </trkpt>
      <trkpt lat="42.6278434507548809051513671875" lon="19.8990936018526554107666015625">
        <ele>1421.199951171875</ele>
        <time>2026-06-16T07:31:14.000Z</time>
        <extensions>
          <ns3:TrackPointExtension>
            <ns3:atemp>20.0</ns3:atemp>
          </ns3:TrackPointExtension>
        </extensions>
      </trkpt>
      <trkpt lat="42.6278434507548809051513671875" lon="19.8990936018526554107666015625">
        <ele>1421.199951171875</ele>
        <time>2026-06-16T07:31:15.000Z</time>
        <extensions>
          <ns3:TrackPointExtension>
            <ns3:atemp>20.0</ns3:atemp>
          </ns3:TrackPointExtension>
        </extensions>
      </trkpt>
      <trkpt lat="42.6278434507548809051513671875" lon="19.8990936018526554107666015625">
        <ele>1421.199951171875</ele>
        <time>2026-06-16T07:31:16.000Z</time>
        <extensions>
          <ns3:TrackPointExtension>
            <ns3:atemp>20.0</ns3:atemp>
          </ns3:TrackPointExtension>
        </extensions>
      </trkpt>
      <trkpt lat="42.6278434507548809051513671875" lon="19.8990936018526554107666015625">
        <ele>1421.199951171875</ele>
        <time>2026-06-16T07:31:17.000Z</time>
        <extensions>
          <ns3:TrackPointExtension>
            <ns3:atemp>20.0</ns3:atemp>
          </ns3:TrackPointExtension>
        </extensions>
      </trkpt>
      <trkpt lat="42.6278434507548809051513671875" lon="19.8990936018526554107666015625">
        <ele>1421.199951171875</ele>
        <time>2026-06-16T07:31:18.000Z</time>
        <extensions>
          <ns3:TrackPointExtension>
            <ns3:atemp>20.0</ns3:atemp>
          </ns3:TrackPointExtension>
        </extensions>
      </trkpt>
      <trkpt lat="42.6278434507548809051513671875" lon="19.8990936018526554107666015625">
        <ele>1421.199951171875</ele>
        <time>2026-06-16T07:31:19.000Z</time>
        <extensions>
          <ns3:TrackPointExtension>
            <ns3:atemp>20.0</ns3:atemp>
          </ns3:TrackPointExtension>
        </extensions>
      </trkpt>
      <trkpt lat="42.6278434507548809051513671875" lon="19.8990936018526554107666015625">
        <ele>1421.199951171875</ele>
        <time>2026-06-16T07:31:20.000Z</time>
        <extensions>
          <ns3:TrackPointExtension>
            <ns3:atemp>20.0</ns3:atemp>
          </ns3:TrackPointExtension>
        </extensions>
      </trkpt>
      <trkpt lat="42.6278434507548809051513671875" lon="19.8990936018526554107666015625">
        <ele>1421.199951171875</ele>
        <time>2026-06-16T07:31:21.000Z</time>
        <extensions>
          <ns3:TrackPointExtension>
            <ns3:atemp>20.0</ns3:atemp>
          </ns3:TrackPointExtension>
        </extensions>
      </trkpt>
      <trkpt lat="42.6278434507548809051513671875" lon="19.8990936018526554107666015625">
        <ele>1421.199951171875</ele>
        <time>2026-06-16T07:31:22.000Z</time>
        <extensions>
          <ns3:TrackPointExtension>
            <ns3:atemp>20.0</ns3:atemp>
          </ns3:TrackPointExtension>
        </extensions>
      </trkpt>
      <trkpt lat="42.6278434507548809051513671875" lon="19.8990936018526554107666015625">
        <ele>1421.199951171875</ele>
        <time>2026-06-16T07:31:23.000Z</time>
        <extensions>
          <ns3:TrackPointExtension>
            <ns3:atemp>20.0</ns3:atemp>
          </ns3:TrackPointExtension>
        </extensions>
      </trkpt>
      <trkpt lat="42.6278434507548809051513671875" lon="19.8990936018526554107666015625">
        <ele>1421.199951171875</ele>
        <time>2026-06-16T07:31:24.000Z</time>
        <extensions>
          <ns3:TrackPointExtension>
            <ns3:atemp>20.0</ns3:atemp>
          </ns3:TrackPointExtension>
        </extensions>
      </trkpt>
      <trkpt lat="42.6278434507548809051513671875" lon="19.8990936018526554107666015625">
        <ele>1421.199951171875</ele>
        <time>2026-06-16T07:31:25.000Z</time>
        <extensions>
          <ns3:TrackPointExtension>
            <ns3:atemp>20.0</ns3:atemp>
          </ns3:TrackPointExtension>
        </extensions>
      </trkpt>
      <trkpt lat="42.6278434507548809051513671875" lon="19.8990936018526554107666015625">
        <ele>1421.199951171875</ele>
        <time>2026-06-16T07:31:26.000Z</time>
        <extensions>
          <ns3:TrackPointExtension>
            <ns3:atemp>20.0</ns3:atemp>
          </ns3:TrackPointExtension>
        </extensions>
      </trkpt>
      <trkpt lat="42.6278434507548809051513671875" lon="19.8990936018526554107666015625">
        <ele>1421.199951171875</ele>
        <time>2026-06-16T07:31:27.000Z</time>
        <extensions>
          <ns3:TrackPointExtension>
            <ns3:atemp>20.0</ns3:atemp>
          </ns3:TrackPointExtension>
        </extensions>
      </trkpt>
      <trkpt lat="42.6278434507548809051513671875" lon="19.8990936018526554107666015625">
        <ele>1421.199951171875</ele>
        <time>2026-06-16T07:31:28.000Z</time>
        <extensions>
          <ns3:TrackPointExtension>
            <ns3:atemp>20.0</ns3:atemp>
          </ns3:TrackPointExtension>
        </extensions>
      </trkpt>
      <trkpt lat="42.6278434507548809051513671875" lon="19.8990936018526554107666015625">
        <ele>1421.199951171875</ele>
        <time>2026-06-16T07:31:29.000Z</time>
        <extensions>
          <ns3:TrackPointExtension>
            <ns3:atemp>20.0</ns3:atemp>
          </ns3:TrackPointExtension>
        </extensions>
      </trkpt>
      <trkpt lat="42.6278434507548809051513671875" lon="19.8990936018526554107666015625">
        <ele>1421.199951171875</ele>
        <time>2026-06-16T07:31:30.000Z</time>
        <extensions>
          <ns3:TrackPointExtension>
            <ns3:atemp>20.0</ns3:atemp>
          </ns3:TrackPointExtension>
        </extensions>
      </trkpt>
      <trkpt lat="42.6278434507548809051513671875" lon="19.8990936018526554107666015625">
        <ele>1421.199951171875</ele>
        <time>2026-06-16T07:31:31.000Z</time>
        <extensions>
          <ns3:TrackPointExtension>
            <ns3:atemp>20.0</ns3:atemp>
          </ns3:TrackPointExtension>
        </extensions>
      </trkpt>
      <trkpt lat="42.6278434507548809051513671875" lon="19.8990936018526554107666015625">
        <ele>1421.199951171875</ele>
        <time>2026-06-16T07:31:32.000Z</time>
        <extensions>
          <ns3:TrackPointExtension>
            <ns3:atemp>20.0</ns3:atemp>
          </ns3:TrackPointExtension>
        </extensions>
      </trkpt>
      <trkpt lat="42.6278434507548809051513671875" lon="19.8990936018526554107666015625">
        <ele>1421.199951171875</ele>
        <time>2026-06-16T07:31:33.000Z</time>
        <extensions>
          <ns3:TrackPointExtension>
            <ns3:atemp>20.0</ns3:atemp>
          </ns3:TrackPointExtension>
        </extensions>
      </trkpt>
      <trkpt lat="42.6278434507548809051513671875" lon="19.8990936018526554107666015625">
        <ele>1421.199951171875</ele>
        <time>2026-06-16T07:31:34.000Z</time>
        <extensions>
          <ns3:TrackPointExtension>
            <ns3:atemp>20.0</ns3:atemp>
          </ns3:TrackPointExtension>
        </extensions>
      </trkpt>
      <trkpt lat="42.6278434507548809051513671875" lon="19.8990936018526554107666015625">
        <ele>1421.199951171875</ele>
        <time>2026-06-16T07:31:35.000Z</time>
        <extensions>
          <ns3:TrackPointExtension>
            <ns3:atemp>20.0</ns3:atemp>
          </ns3:TrackPointExtension>
        </extensions>
      </trkpt>
      <trkpt lat="42.6278434507548809051513671875" lon="19.8990936018526554107666015625">
        <ele>1421.199951171875</ele>
        <time>2026-06-16T07:31:36.000Z</time>
        <extensions>
          <ns3:TrackPointExtension>
            <ns3:atemp>20.0</ns3:atemp>
          </ns3:TrackPointExtension>
        </extensions>
      </trkpt>
      <trkpt lat="42.6278434507548809051513671875" lon="19.8990936018526554107666015625">
        <ele>1421.199951171875</ele>
        <time>2026-06-16T07:31:37.000Z</time>
        <extensions>
          <ns3:TrackPointExtension>
            <ns3:atemp>20.0</ns3:atemp>
          </ns3:TrackPointExtension>
        </extensions>
      </trkpt>
      <trkpt lat="42.6278434507548809051513671875" lon="19.8990936018526554107666015625">
        <ele>1421.199951171875</ele>
        <time>2026-06-16T07:31:38.000Z</time>
        <extensions>
          <ns3:TrackPointExtension>
            <ns3:atemp>20.0</ns3:atemp>
          </ns3:TrackPointExtension>
        </extensions>
      </trkpt>
      <trkpt lat="42.6278434507548809051513671875" lon="19.8990936018526554107666015625">
        <ele>1421.199951171875</ele>
        <time>2026-06-16T07:31:39.000Z</time>
        <extensions>
          <ns3:TrackPointExtension>
            <ns3:atemp>20.0</ns3:atemp>
          </ns3:TrackPointExtension>
        </extensions>
      </trkpt>
      <trkpt lat="42.6278434507548809051513671875" lon="19.8990936018526554107666015625">
        <ele>1421.199951171875</ele>
        <time>2026-06-16T07:31:40.000Z</time>
        <extensions>
          <ns3:TrackPointExtension>
            <ns3:atemp>20.0</ns3:atemp>
          </ns3:TrackPointExtension>
        </extensions>
      </trkpt>
      <trkpt lat="42.6278434507548809051513671875" lon="19.8990936018526554107666015625">
        <ele>1421.199951171875</ele>
        <time>2026-06-16T07:31:41.000Z</time>
        <extensions>
          <ns3:TrackPointExtension>
            <ns3:atemp>20.0</ns3:atemp>
          </ns3:TrackPointExtension>
        </extensions>
      </trkpt>
      <trkpt lat="42.6278434507548809051513671875" lon="19.8990936018526554107666015625">
        <ele>1421.199951171875</ele>
        <time>2026-06-16T07:31:42.000Z</time>
        <extensions>
          <ns3:TrackPointExtension>
            <ns3:atemp>20.0</ns3:atemp>
          </ns3:TrackPointExtension>
        </extensions>
      </trkpt>
      <trkpt lat="42.6278434507548809051513671875" lon="19.8990936018526554107666015625">
        <ele>1421.199951171875</ele>
        <time>2026-06-16T07:31:43.000Z</time>
        <extensions>
          <ns3:TrackPointExtension>
            <ns3:atemp>20.0</ns3:atemp>
          </ns3:TrackPointExtension>
        </extensions>
      </trkpt>
      <trkpt lat="42.6278434507548809051513671875" lon="19.8990936018526554107666015625">
        <ele>1421.199951171875</ele>
        <time>2026-06-16T07:31:44.000Z</time>
        <extensions>
          <ns3:TrackPointExtension>
            <ns3:atemp>20.0</ns3:atemp>
          </ns3:TrackPointExtension>
        </extensions>
      </trkpt>
      <trkpt lat="42.6278434507548809051513671875" lon="19.8990936018526554107666015625">
        <ele>1421.199951171875</ele>
        <time>2026-06-16T07:31:45.000Z</time>
        <extensions>
          <ns3:TrackPointExtension>
            <ns3:atemp>20.0</ns3:atemp>
          </ns3:TrackPointExtension>
        </extensions>
      </trkpt>
      <trkpt lat="42.6278434507548809051513671875" lon="19.8990936018526554107666015625">
        <ele>1421.199951171875</ele>
        <time>2026-06-16T07:31:46.000Z</time>
        <extensions>
          <ns3:TrackPointExtension>
            <ns3:atemp>20.0</ns3:atemp>
          </ns3:TrackPointExtension>
        </extensions>
      </trkpt>
      <trkpt lat="42.6278434507548809051513671875" lon="19.8990936018526554107666015625">
        <ele>1421.199951171875</ele>
        <time>2026-06-16T07:31:47.000Z</time>
        <extensions>
          <ns3:TrackPointExtension>
            <ns3:atemp>20.0</ns3:atemp>
          </ns3:TrackPointExtension>
        </extensions>
      </trkpt>
      <trkpt lat="42.6278434507548809051513671875" lon="19.8990936018526554107666015625">
        <ele>1421.199951171875</ele>
        <time>2026-06-16T07:31:48.000Z</time>
        <extensions>
          <ns3:TrackPointExtension>
            <ns3:atemp>20.0</ns3:atemp>
          </ns3:TrackPointExtension>
        </extensions>
      </trkpt>
      <trkpt lat="42.6278434507548809051513671875" lon="19.8990936018526554107666015625">
        <ele>1421.199951171875</ele>
        <time>2026-06-16T07:31:49.000Z</time>
        <extensions>
          <ns3:TrackPointExtension>
            <ns3:atemp>20.0</ns3:atemp>
          </ns3:TrackPointExtension>
        </extensions>
      </trkpt>
      <trkpt lat="42.6278434507548809051513671875" lon="19.8990936018526554107666015625">
        <ele>1421.199951171875</ele>
        <time>2026-06-16T07:31:50.000Z</time>
        <extensions>
          <ns3:TrackPointExtension>
            <ns3:atemp>20.0</ns3:atemp>
          </ns3:TrackPointExtension>
        </extensions>
      </trkpt>
      <trkpt lat="42.6278434507548809051513671875" lon="19.8990936018526554107666015625">
        <ele>1421.199951171875</ele>
        <time>2026-06-16T07:31:51.000Z</time>
        <extensions>
          <ns3:TrackPointExtension>
            <ns3:atemp>20.0</ns3:atemp>
          </ns3:TrackPointExtension>
        </extensions>
      </trkpt>
      <trkpt lat="42.6278434507548809051513671875" lon="19.8990936018526554107666015625">
        <ele>1421.199951171875</ele>
        <time>2026-06-16T07:31:52.000Z</time>
        <extensions>
          <ns3:TrackPointExtension>
            <ns3:atemp>20.0</ns3:atemp>
          </ns3:TrackPointExtension>
        </extensions>
      </trkpt>
      <trkpt lat="42.6278434507548809051513671875" lon="19.8990936018526554107666015625">
        <ele>1421.199951171875</ele>
        <time>2026-06-16T07:31:53.000Z</time>
        <extensions>
          <ns3:TrackPointExtension>
            <ns3:atemp>20.0</ns3:atemp>
          </ns3:TrackPointExtension>
        </extensions>
      </trkpt>
      <trkpt lat="42.6278434507548809051513671875" lon="19.8990936018526554107666015625">
        <ele>1421.199951171875</ele>
        <time>2026-06-16T07:31:54.000Z</time>
        <extensions>
          <ns3:TrackPointExtension>
            <ns3:atemp>20.0</ns3:atemp>
          </ns3:TrackPointExtension>
        </extensions>
      </trkpt>
      <trkpt lat="42.6278434507548809051513671875" lon="19.8990936018526554107666015625">
        <ele>1421.199951171875</ele>
        <time>2026-06-16T07:31:55.000Z</time>
        <extensions>
          <ns3:TrackPointExtension>
            <ns3:atemp>20.0</ns3:atemp>
          </ns3:TrackPointExtension>
        </extensions>
      </trkpt>
      <trkpt lat="42.6278434507548809051513671875" lon="19.8990936018526554107666015625">
        <ele>1421.199951171875</ele>
        <time>2026-06-16T07:31:56.000Z</time>
        <extensions>
          <ns3:TrackPointExtension>
            <ns3:atemp>20.0</ns3:atemp>
          </ns3:TrackPointExtension>
        </extensions>
      </trkpt>
      <trkpt lat="42.6278434507548809051513671875" lon="19.8990936018526554107666015625">
        <ele>1421.199951171875</ele>
        <time>2026-06-16T07:31:57.000Z</time>
        <extensions>
          <ns3:TrackPointExtension>
            <ns3:atemp>20.0</ns3:atemp>
          </ns3:TrackPointExtension>
        </extensions>
      </trkpt>
      <trkpt lat="42.6278434507548809051513671875" lon="19.8990936018526554107666015625">
        <ele>1421.199951171875</ele>
        <time>2026-06-16T07:31:58.000Z</time>
        <extensions>
          <ns3:TrackPointExtension>
            <ns3:atemp>20.0</ns3:atemp>
          </ns3:TrackPointExtension>
        </extensions>
      </trkpt>
      <trkpt lat="42.6278434507548809051513671875" lon="19.8990936018526554107666015625">
        <ele>1421.199951171875</ele>
        <time>2026-06-16T07:31:59.000Z</time>
        <extensions>
          <ns3:TrackPointExtension>
            <ns3:atemp>20.0</ns3:atemp>
          </ns3:TrackPointExtension>
        </extensions>
      </trkpt>
      <trkpt lat="42.6278434507548809051513671875" lon="19.8990936018526554107666015625">
        <ele>1421.199951171875</ele>
        <time>2026-06-16T07:32:00.000Z</time>
        <extensions>
          <ns3:TrackPointExtension>
            <ns3:atemp>20.0</ns3:atemp>
          </ns3:TrackPointExtension>
        </extensions>
      </trkpt>
      <trkpt lat="42.6278434507548809051513671875" lon="19.8990936018526554107666015625">
        <ele>1421.199951171875</ele>
        <time>2026-06-16T07:32:01.000Z</time>
        <extensions>
          <ns3:TrackPointExtension>
            <ns3:atemp>20.0</ns3:atemp>
          </ns3:TrackPointExtension>
        </extensions>
      </trkpt>
      <trkpt lat="42.6278434507548809051513671875" lon="19.8990936018526554107666015625">
        <ele>1421.199951171875</ele>
        <time>2026-06-16T07:32:02.000Z</time>
        <extensions>
          <ns3:TrackPointExtension>
            <ns3:atemp>20.0</ns3:atemp>
          </ns3:TrackPointExtension>
        </extensions>
      </trkpt>
      <trkpt lat="42.6278434507548809051513671875" lon="19.8990936018526554107666015625">
        <ele>1421.199951171875</ele>
        <time>2026-06-16T07:32:03.000Z</time>
        <extensions>
          <ns3:TrackPointExtension>
            <ns3:atemp>20.0</ns3:atemp>
          </ns3:TrackPointExtension>
        </extensions>
      </trkpt>
      <trkpt lat="42.6278434507548809051513671875" lon="19.8990936018526554107666015625">
        <ele>1421.199951171875</ele>
        <time>2026-06-16T07:32:04.000Z</time>
        <extensions>
          <ns3:TrackPointExtension>
            <ns3:atemp>20.0</ns3:atemp>
          </ns3:TrackPointExtension>
        </extensions>
      </trkpt>
      <trkpt lat="42.6278434507548809051513671875" lon="19.8990936018526554107666015625">
        <ele>1421.199951171875</ele>
        <time>2026-06-16T07:32:05.000Z</time>
        <extensions>
          <ns3:TrackPointExtension>
            <ns3:atemp>20.0</ns3:atemp>
          </ns3:TrackPointExtension>
        </extensions>
      </trkpt>
      <trkpt lat="42.6278434507548809051513671875" lon="19.8990936018526554107666015625">
        <ele>1421.199951171875</ele>
        <time>2026-06-16T07:32:06.000Z</time>
        <extensions>
          <ns3:TrackPointExtension>
            <ns3:atemp>20.0</ns3:atemp>
          </ns3:TrackPointExtension>
        </extensions>
      </trkpt>
      <trkpt lat="42.6278434507548809051513671875" lon="19.8990936018526554107666015625">
        <ele>1421.199951171875</ele>
        <time>2026-06-16T07:32:07.000Z</time>
        <extensions>
          <ns3:TrackPointExtension>
            <ns3:atemp>20.0</ns3:atemp>
          </ns3:TrackPointExtension>
        </extensions>
      </trkpt>
      <trkpt lat="42.6278434507548809051513671875" lon="19.8990936018526554107666015625">
        <ele>1421.199951171875</ele>
        <time>2026-06-16T07:32:08.000Z</time>
        <extensions>
          <ns3:TrackPointExtension>
            <ns3:atemp>20.0</ns3:atemp>
          </ns3:TrackPointExtension>
        </extensions>
      </trkpt>
      <trkpt lat="42.6278434507548809051513671875" lon="19.8990936018526554107666015625">
        <ele>1421.199951171875</ele>
        <time>2026-06-16T07:32:09.000Z</time>
        <extensions>
          <ns3:TrackPointExtension>
            <ns3:atemp>20.0</ns3:atemp>
          </ns3:TrackPointExtension>
        </extensions>
      </trkpt>
      <trkpt lat="42.6278434507548809051513671875" lon="19.8990936018526554107666015625">
        <ele>1421.199951171875</ele>
        <time>2026-06-16T07:32:10.000Z</time>
        <extensions>
          <ns3:TrackPointExtension>
            <ns3:atemp>20.0</ns3:atemp>
          </ns3:TrackPointExtension>
        </extensions>
      </trkpt>
      <trkpt lat="42.6278434507548809051513671875" lon="19.8990936018526554107666015625">
        <ele>1421.199951171875</ele>
        <time>2026-06-16T07:32:11.000Z</time>
        <extensions>
          <ns3:TrackPointExtension>
            <ns3:atemp>20.0</ns3:atemp>
          </ns3:TrackPointExtension>
        </extensions>
      </trkpt>
      <trkpt lat="42.6278434507548809051513671875" lon="19.8990936018526554107666015625">
        <ele>1421.199951171875</ele>
        <time>2026-06-16T07:32:12.000Z</time>
        <extensions>
          <ns3:TrackPointExtension>
            <ns3:atemp>20.0</ns3:atemp>
          </ns3:TrackPointExtension>
        </extensions>
      </trkpt>
      <trkpt lat="42.6278434507548809051513671875" lon="19.8990936018526554107666015625">
        <ele>1421.199951171875</ele>
        <time>2026-06-16T07:32:13.000Z</time>
        <extensions>
          <ns3:TrackPointExtension>
            <ns3:atemp>20.0</ns3:atemp>
          </ns3:TrackPointExtension>
        </extensions>
      </trkpt>
      <trkpt lat="42.6278434507548809051513671875" lon="19.8990936018526554107666015625">
        <ele>1421.199951171875</ele>
        <time>2026-06-16T07:32:14.000Z</time>
        <extensions>
          <ns3:TrackPointExtension>
            <ns3:atemp>20.0</ns3:atemp>
          </ns3:TrackPointExtension>
        </extensions>
      </trkpt>
      <trkpt lat="42.6278434507548809051513671875" lon="19.8990936018526554107666015625">
        <ele>1421.199951171875</ele>
        <time>2026-06-16T07:32:15.000Z</time>
        <extensions>
          <ns3:TrackPointExtension>
            <ns3:atemp>20.0</ns3:atemp>
          </ns3:TrackPointExtension>
        </extensions>
      </trkpt>
      <trkpt lat="42.6278434507548809051513671875" lon="19.8990936018526554107666015625">
        <ele>1421.199951171875</ele>
        <time>2026-06-16T07:32:16.000Z</time>
        <extensions>
          <ns3:TrackPointExtension>
            <ns3:atemp>20.0</ns3:atemp>
          </ns3:TrackPointExtension>
        </extensions>
      </trkpt>
      <trkpt lat="42.6278434507548809051513671875" lon="19.8990936018526554107666015625">
        <ele>1421.199951171875</ele>
        <time>2026-06-16T07:32:17.000Z</time>
        <extensions>
          <ns3:TrackPointExtension>
            <ns3:atemp>20.0</ns3:atemp>
          </ns3:TrackPointExtension>
        </extensions>
      </trkpt>
      <trkpt lat="42.6278434507548809051513671875" lon="19.8990936018526554107666015625">
        <ele>1421.199951171875</ele>
        <time>2026-06-16T07:32:18.000Z</time>
        <extensions>
          <ns3:TrackPointExtension>
            <ns3:atemp>20.0</ns3:atemp>
          </ns3:TrackPointExtension>
        </extensions>
      </trkpt>
      <trkpt lat="42.6278434507548809051513671875" lon="19.8990936018526554107666015625">
        <ele>1421.199951171875</ele>
        <time>2026-06-16T07:32:19.000Z</time>
        <extensions>
          <ns3:TrackPointExtension>
            <ns3:atemp>20.0</ns3:atemp>
          </ns3:TrackPointExtension>
        </extensions>
      </trkpt>
      <trkpt lat="42.6278434507548809051513671875" lon="19.8990936018526554107666015625">
        <ele>1421.199951171875</ele>
        <time>2026-06-16T07:32:20.000Z</time>
        <extensions>
          <ns3:TrackPointExtension>
            <ns3:atemp>20.0</ns3:atemp>
          </ns3:TrackPointExtension>
        </extensions>
      </trkpt>
      <trkpt lat="42.6278434507548809051513671875" lon="19.8990936018526554107666015625">
        <ele>1421.199951171875</ele>
        <time>2026-06-16T07:32:21.000Z</time>
        <extensions>
          <ns3:TrackPointExtension>
            <ns3:atemp>20.0</ns3:atemp>
          </ns3:TrackPointExtension>
        </extensions>
      </trkpt>
      <trkpt lat="42.6278434507548809051513671875" lon="19.8990936018526554107666015625">
        <ele>1421.199951171875</ele>
        <time>2026-06-16T07:32:22.000Z</time>
        <extensions>
          <ns3:TrackPointExtension>
            <ns3:atemp>20.0</ns3:atemp>
          </ns3:TrackPointExtension>
        </extensions>
      </trkpt>
      <trkpt lat="42.6278434507548809051513671875" lon="19.8990936018526554107666015625">
        <ele>1421.199951171875</ele>
        <time>2026-06-16T07:32:23.000Z</time>
        <extensions>
          <ns3:TrackPointExtension>
            <ns3:atemp>20.0</ns3:atemp>
          </ns3:TrackPointExtension>
        </extensions>
      </trkpt>
      <trkpt lat="42.6278434507548809051513671875" lon="19.8990936018526554107666015625">
        <ele>1421.199951171875</ele>
        <time>2026-06-16T07:32:24.000Z</time>
        <extensions>
          <ns3:TrackPointExtension>
            <ns3:atemp>20.0</ns3:atemp>
          </ns3:TrackPointExtension>
        </extensions>
      </trkpt>
      <trkpt lat="42.6278434507548809051513671875" lon="19.8990936018526554107666015625">
        <ele>1421.199951171875</ele>
        <time>2026-06-16T07:32:25.000Z</time>
        <extensions>
          <ns3:TrackPointExtension>
            <ns3:atemp>21.0</ns3:atemp>
          </ns3:TrackPointExtension>
        </extensions>
      </trkpt>
      <trkpt lat="42.6278434507548809051513671875" lon="19.8990936018526554107666015625">
        <ele>1421.199951171875</ele>
        <time>2026-06-16T07:32:26.000Z</time>
        <extensions>
          <ns3:TrackPointExtension>
            <ns3:atemp>21.0</ns3:atemp>
          </ns3:TrackPointExtension>
        </extensions>
      </trkpt>
      <trkpt lat="42.6278434507548809051513671875" lon="19.8990936018526554107666015625">
        <ele>1421.199951171875</ele>
        <time>2026-06-16T07:32:27.000Z</time>
        <extensions>
          <ns3:TrackPointExtension>
            <ns3:atemp>21.0</ns3:atemp>
          </ns3:TrackPointExtension>
        </extensions>
      </trkpt>
      <trkpt lat="42.6278434507548809051513671875" lon="19.8990936018526554107666015625">
        <ele>1421.199951171875</ele>
        <time>2026-06-16T07:32:28.000Z</time>
        <extensions>
          <ns3:TrackPointExtension>
            <ns3:atemp>21.0</ns3:atemp>
          </ns3:TrackPointExtension>
        </extensions>
      </trkpt>
      <trkpt lat="42.6278434507548809051513671875" lon="19.8990936018526554107666015625">
        <ele>1421.199951171875</ele>
        <time>2026-06-16T07:32:29.000Z</time>
        <extensions>
          <ns3:TrackPointExtension>
            <ns3:atemp>21.0</ns3:atemp>
          </ns3:TrackPointExtension>
        </extensions>
      </trkpt>
      <trkpt lat="42.6278434507548809051513671875" lon="19.8990936018526554107666015625">
        <ele>1421.199951171875</ele>
        <time>2026-06-16T07:32:30.000Z</time>
        <extensions>
          <ns3:TrackPointExtension>
            <ns3:atemp>21.0</ns3:atemp>
          </ns3:TrackPointExtension>
        </extensions>
      </trkpt>
      <trkpt lat="42.6278434507548809051513671875" lon="19.8990936018526554107666015625">
        <ele>1421.199951171875</ele>
        <time>2026-06-16T07:32:31.000Z</time>
        <extensions>
          <ns3:TrackPointExtension>
            <ns3:atemp>21.0</ns3:atemp>
          </ns3:TrackPointExtension>
        </extensions>
      </trkpt>
      <trkpt lat="42.6278434507548809051513671875" lon="19.8990936018526554107666015625">
        <ele>1421.199951171875</ele>
        <time>2026-06-16T07:32:32.000Z</time>
        <extensions>
          <ns3:TrackPointExtension>
            <ns3:atemp>21.0</ns3:atemp>
          </ns3:TrackPointExtension>
        </extensions>
      </trkpt>
      <trkpt lat="42.6278434507548809051513671875" lon="19.8990936018526554107666015625">
        <ele>1421.199951171875</ele>
        <time>2026-06-16T07:32:33.000Z</time>
        <extensions>
          <ns3:TrackPointExtension>
            <ns3:atemp>21.0</ns3:atemp>
          </ns3:TrackPointExtension>
        </extensions>
      </trkpt>
      <trkpt lat="42.6278434507548809051513671875" lon="19.8990936018526554107666015625">
        <ele>1421.199951171875</ele>
        <time>2026-06-16T07:32:34.000Z</time>
        <extensions>
          <ns3:TrackPointExtension>
            <ns3:atemp>21.0</ns3:atemp>
          </ns3:TrackPointExtension>
        </extensions>
      </trkpt>
      <trkpt lat="42.6278434507548809051513671875" lon="19.8990936018526554107666015625">
        <ele>1421.199951171875</ele>
        <time>2026-06-16T07:32:35.000Z</time>
        <extensions>
          <ns3:TrackPointExtension>
            <ns3:atemp>21.0</ns3:atemp>
          </ns3:TrackPointExtension>
        </extensions>
      </trkpt>
      <trkpt lat="42.6278434507548809051513671875" lon="19.8990936018526554107666015625">
        <ele>1421.199951171875</ele>
        <time>2026-06-16T07:32:36.000Z</time>
        <extensions>
          <ns3:TrackPointExtension>
            <ns3:atemp>21.0</ns3:atemp>
          </ns3:TrackPointExtension>
        </extensions>
      </trkpt>
      <trkpt lat="42.6278434507548809051513671875" lon="19.8990936018526554107666015625">
        <ele>1421.199951171875</ele>
        <time>2026-06-16T07:32:37.000Z</time>
        <extensions>
          <ns3:TrackPointExtension>
            <ns3:atemp>21.0</ns3:atemp>
          </ns3:TrackPointExtension>
        </extensions>
      </trkpt>
      <trkpt lat="42.6278434507548809051513671875" lon="19.8990936018526554107666015625">
        <ele>1421.199951171875</ele>
        <time>2026-06-16T07:32:38.000Z</time>
        <extensions>
          <ns3:TrackPointExtension>
            <ns3:atemp>21.0</ns3:atemp>
          </ns3:TrackPointExtension>
        </extensions>
      </trkpt>
      <trkpt lat="42.6278434507548809051513671875" lon="19.8990936018526554107666015625">
        <ele>1421.199951171875</ele>
        <time>2026-06-16T07:32:39.000Z</time>
        <extensions>
          <ns3:TrackPointExtension>
            <ns3:atemp>21.0</ns3:atemp>
          </ns3:TrackPointExtension>
        </extensions>
      </trkpt>
      <trkpt lat="42.6278434507548809051513671875" lon="19.8990936018526554107666015625">
        <ele>1421.199951171875</ele>
        <time>2026-06-16T07:32:40.000Z</time>
        <extensions>
          <ns3:TrackPointExtension>
            <ns3:atemp>21.0</ns3:atemp>
          </ns3:TrackPointExtension>
        </extensions>
      </trkpt>
      <trkpt lat="42.6278434507548809051513671875" lon="19.8990936018526554107666015625">
        <ele>1421.199951171875</ele>
        <time>2026-06-16T07:32:41.000Z</time>
        <extensions>
          <ns3:TrackPointExtension>
            <ns3:atemp>21.0</ns3:atemp>
          </ns3:TrackPointExtension>
        </extensions>
      </trkpt>
      <trkpt lat="42.6278434507548809051513671875" lon="19.8990936018526554107666015625">
        <ele>1421.199951171875</ele>
        <time>2026-06-16T07:32:42.000Z</time>
        <extensions>
          <ns3:TrackPointExtension>
            <ns3:atemp>21.0</ns3:atemp>
          </ns3:TrackPointExtension>
        </extensions>
      </trkpt>
      <trkpt lat="42.6278434507548809051513671875" lon="19.8990936018526554107666015625">
        <ele>1421.199951171875</ele>
        <time>2026-06-16T07:32:43.000Z</time>
        <extensions>
          <ns3:TrackPointExtension>
            <ns3:atemp>21.0</ns3:atemp>
          </ns3:TrackPointExtension>
        </extensions>
      </trkpt>
      <trkpt lat="42.6278434507548809051513671875" lon="19.8990936018526554107666015625">
        <ele>1421.199951171875</ele>
        <time>2026-06-16T07:32:44.000Z</time>
        <extensions>
          <ns3:TrackPointExtension>
            <ns3:atemp>21.0</ns3:atemp>
          </ns3:TrackPointExtension>
        </extensions>
      </trkpt>
      <trkpt lat="42.6278434507548809051513671875" lon="19.8990936018526554107666015625">
        <ele>1421.199951171875</ele>
        <time>2026-06-16T07:32:45.000Z</time>
        <extensions>
          <ns3:TrackPointExtension>
            <ns3:atemp>21.0</ns3:atemp>
          </ns3:TrackPointExtension>
        </extensions>
      </trkpt>
      <trkpt lat="42.6278434507548809051513671875" lon="19.8990936018526554107666015625">
        <ele>1421.199951171875</ele>
        <time>2026-06-16T07:32:46.000Z</time>
        <extensions>
          <ns3:TrackPointExtension>
            <ns3:atemp>21.0</ns3:atemp>
          </ns3:TrackPointExtension>
        </extensions>
      </trkpt>
      <trkpt lat="42.6278434507548809051513671875" lon="19.8990936018526554107666015625">
        <ele>1421.199951171875</ele>
        <time>2026-06-16T07:32:47.000Z</time>
        <extensions>
          <ns3:TrackPointExtension>
            <ns3:atemp>21.0</ns3:atemp>
          </ns3:TrackPointExtension>
        </extensions>
      </trkpt>
      <trkpt lat="42.6278434507548809051513671875" lon="19.8990936018526554107666015625">
        <ele>1421.199951171875</ele>
        <time>2026-06-16T07:32:48.000Z</time>
        <extensions>
          <ns3:TrackPointExtension>
            <ns3:atemp>21.0</ns3:atemp>
          </ns3:TrackPointExtension>
        </extensions>
      </trkpt>
      <trkpt lat="42.6278434507548809051513671875" lon="19.8990936018526554107666015625">
        <ele>1421.199951171875</ele>
        <time>2026-06-16T07:32:49.000Z</time>
        <extensions>
          <ns3:TrackPointExtension>
            <ns3:atemp>21.0</ns3:atemp>
          </ns3:TrackPointExtension>
        </extensions>
      </trkpt>
      <trkpt lat="42.6278434507548809051513671875" lon="19.8990936018526554107666015625">
        <ele>1421.199951171875</ele>
        <time>2026-06-16T07:32:50.000Z</time>
        <extensions>
          <ns3:TrackPointExtension>
            <ns3:atemp>21.0</ns3:atemp>
          </ns3:TrackPointExtension>
        </extensions>
      </trkpt>
      <trkpt lat="42.6278434507548809051513671875" lon="19.8990936018526554107666015625">
        <ele>1421.199951171875</ele>
        <time>2026-06-16T07:32:51.000Z</time>
        <extensions>
          <ns3:TrackPointExtension>
            <ns3:atemp>21.0</ns3:atemp>
          </ns3:TrackPointExtension>
        </extensions>
      </trkpt>
      <trkpt lat="42.6278434507548809051513671875" lon="19.8990936018526554107666015625">
        <ele>1421.199951171875</ele>
        <time>2026-06-16T07:32:52.000Z</time>
        <extensions>
          <ns3:TrackPointExtension>
            <ns3:atemp>21.0</ns3:atemp>
          </ns3:TrackPointExtension>
        </extensions>
      </trkpt>
      <trkpt lat="42.6278434507548809051513671875" lon="19.8990936018526554107666015625">
        <ele>1421.199951171875</ele>
        <time>2026-06-16T07:32:53.000Z</time>
        <extensions>
          <ns3:TrackPointExtension>
            <ns3:atemp>21.0</ns3:atemp>
          </ns3:TrackPointExtension>
        </extensions>
      </trkpt>
      <trkpt lat="42.6278434507548809051513671875" lon="19.8990936018526554107666015625">
        <ele>1421.199951171875</ele>
        <time>2026-06-16T07:32:54.000Z</time>
        <extensions>
          <ns3:TrackPointExtension>
            <ns3:atemp>21.0</ns3:atemp>
          </ns3:TrackPointExtension>
        </extensions>
      </trkpt>
      <trkpt lat="42.6278434507548809051513671875" lon="19.8990936018526554107666015625">
        <ele>1421.199951171875</ele>
        <time>2026-06-16T07:32:55.000Z</time>
        <extensions>
          <ns3:TrackPointExtension>
            <ns3:atemp>21.0</ns3:atemp>
          </ns3:TrackPointExtension>
        </extensions>
      </trkpt>
      <trkpt lat="42.6278434507548809051513671875" lon="19.8990936018526554107666015625">
        <ele>1421.199951171875</ele>
        <time>2026-06-16T07:32:56.000Z</time>
        <extensions>
          <ns3:TrackPointExtension>
            <ns3:atemp>21.0</ns3:atemp>
          </ns3:TrackPointExtension>
        </extensions>
      </trkpt>
      <trkpt lat="42.6278434507548809051513671875" lon="19.8990936018526554107666015625">
        <ele>1421.199951171875</ele>
        <time>2026-06-16T07:32:57.000Z</time>
        <extensions>
          <ns3:TrackPointExtension>
            <ns3:atemp>21.0</ns3:atemp>
          </ns3:TrackPointExtension>
        </extensions>
      </trkpt>
      <trkpt lat="42.6278434507548809051513671875" lon="19.8990936018526554107666015625">
        <ele>1421.199951171875</ele>
        <time>2026-06-16T07:32:58.000Z</time>
        <extensions>
          <ns3:TrackPointExtension>
            <ns3:atemp>21.0</ns3:atemp>
          </ns3:TrackPointExtension>
        </extensions>
      </trkpt>
      <trkpt lat="42.6278434507548809051513671875" lon="19.8990936018526554107666015625">
        <ele>1421.199951171875</ele>
        <time>2026-06-16T07:32:59.000Z</time>
        <extensions>
          <ns3:TrackPointExtension>
            <ns3:atemp>21.0</ns3:atemp>
          </ns3:TrackPointExtension>
        </extensions>
      </trkpt>
      <trkpt lat="42.6278434507548809051513671875" lon="19.8990936018526554107666015625">
        <ele>1421.199951171875</ele>
        <time>2026-06-16T07:33:00.000Z</time>
        <extensions>
          <ns3:TrackPointExtension>
            <ns3:atemp>21.0</ns3:atemp>
          </ns3:TrackPointExtension>
        </extensions>
      </trkpt>
      <trkpt lat="42.6278434507548809051513671875" lon="19.8990936018526554107666015625">
        <ele>1421.199951171875</ele>
        <time>2026-06-16T07:33:01.000Z</time>
        <extensions>
          <ns3:TrackPointExtension>
            <ns3:atemp>21.0</ns3:atemp>
          </ns3:TrackPointExtension>
        </extensions>
      </trkpt>
      <trkpt lat="42.6278434507548809051513671875" lon="19.8990936018526554107666015625">
        <ele>1421.199951171875</ele>
        <time>2026-06-16T07:33:02.000Z</time>
        <extensions>
          <ns3:TrackPointExtension>
            <ns3:atemp>21.0</ns3:atemp>
          </ns3:TrackPointExtension>
        </extensions>
      </trkpt>
      <trkpt lat="42.6278434507548809051513671875" lon="19.8990936018526554107666015625">
        <ele>1421.199951171875</ele>
        <time>2026-06-16T07:33:03.000Z</time>
        <extensions>
          <ns3:TrackPointExtension>
            <ns3:atemp>21.0</ns3:atemp>
          </ns3:TrackPointExtension>
        </extensions>
      </trkpt>
      <trkpt lat="42.6278434507548809051513671875" lon="19.8990936018526554107666015625">
        <ele>1421.199951171875</ele>
        <time>2026-06-16T07:33:04.000Z</time>
        <extensions>
          <ns3:TrackPointExtension>
            <ns3:atemp>21.0</ns3:atemp>
          </ns3:TrackPointExtension>
        </extensions>
      </trkpt>
      <trkpt lat="42.6278434507548809051513671875" lon="19.8990936018526554107666015625">
        <ele>1421.199951171875</ele>
        <time>2026-06-16T07:33:05.000Z</time>
        <extensions>
          <ns3:TrackPointExtension>
            <ns3:atemp>21.0</ns3:atemp>
          </ns3:TrackPointExtension>
        </extensions>
      </trkpt>
      <trkpt lat="42.6278434507548809051513671875" lon="19.8990936018526554107666015625">
        <ele>1421.199951171875</ele>
        <time>2026-06-16T07:33:06.000Z</time>
        <extensions>
          <ns3:TrackPointExtension>
            <ns3:atemp>21.0</ns3:atemp>
          </ns3:TrackPointExtension>
        </extensions>
      </trkpt>
      <trkpt lat="42.6278434507548809051513671875" lon="19.8990936018526554107666015625">
        <ele>1421.199951171875</ele>
        <time>2026-06-16T07:33:07.000Z</time>
        <extensions>
          <ns3:TrackPointExtension>
            <ns3:atemp>21.0</ns3:atemp>
          </ns3:TrackPointExtension>
        </extensions>
      </trkpt>
      <trkpt lat="42.6278434507548809051513671875" lon="19.8990936018526554107666015625">
        <ele>1421.199951171875</ele>
        <time>2026-06-16T07:33:08.000Z</time>
        <extensions>
          <ns3:TrackPointExtension>
            <ns3:atemp>21.0</ns3:atemp>
          </ns3:TrackPointExtension>
        </extensions>
      </trkpt>
      <trkpt lat="42.6278434507548809051513671875" lon="19.8990936018526554107666015625">
        <ele>1421.199951171875</ele>
        <time>2026-06-16T07:33:09.000Z</time>
        <extensions>
          <ns3:TrackPointExtension>
            <ns3:atemp>21.0</ns3:atemp>
          </ns3:TrackPointExtension>
        </extensions>
      </trkpt>
      <trkpt lat="42.6278434507548809051513671875" lon="19.8990936018526554107666015625">
        <ele>1421.199951171875</ele>
        <time>2026-06-16T07:33:10.000Z</time>
        <extensions>
          <ns3:TrackPointExtension>
            <ns3:atemp>21.0</ns3:atemp>
          </ns3:TrackPointExtension>
        </extensions>
      </trkpt>
      <trkpt lat="42.6278434507548809051513671875" lon="19.8990936018526554107666015625">
        <ele>1421.199951171875</ele>
        <time>2026-06-16T07:33:11.000Z</time>
        <extensions>
          <ns3:TrackPointExtension>
            <ns3:atemp>21.0</ns3:atemp>
          </ns3:TrackPointExtension>
        </extensions>
      </trkpt>
      <trkpt lat="42.6278434507548809051513671875" lon="19.8990936018526554107666015625">
        <ele>1421.199951171875</ele>
        <time>2026-06-16T07:33:12.000Z</time>
        <extensions>
          <ns3:TrackPointExtension>
            <ns3:atemp>21.0</ns3:atemp>
          </ns3:TrackPointExtension>
        </extensions>
      </trkpt>
      <trkpt lat="42.6278434507548809051513671875" lon="19.8990936018526554107666015625">
        <ele>1421.199951171875</ele>
        <time>2026-06-16T07:33:13.000Z</time>
        <extensions>
          <ns3:TrackPointExtension>
            <ns3:atemp>21.0</ns3:atemp>
          </ns3:TrackPointExtension>
        </extensions>
      </trkpt>
      <trkpt lat="42.6278434507548809051513671875" lon="19.8990936018526554107666015625">
        <ele>1421.199951171875</ele>
        <time>2026-06-16T07:33:14.000Z</time>
        <extensions>
          <ns3:TrackPointExtension>
            <ns3:atemp>21.0</ns3:atemp>
          </ns3:TrackPointExtension>
        </extensions>
      </trkpt>
      <trkpt lat="42.6278434507548809051513671875" lon="19.8990936018526554107666015625">
        <ele>1421.199951171875</ele>
        <time>2026-06-16T07:33:15.000Z</time>
        <extensions>
          <ns3:TrackPointExtension>
            <ns3:atemp>21.0</ns3:atemp>
          </ns3:TrackPointExtension>
        </extensions>
      </trkpt>
      <trkpt lat="42.6278434507548809051513671875" lon="19.8990936018526554107666015625">
        <ele>1421.199951171875</ele>
        <time>2026-06-16T07:33:16.000Z</time>
        <extensions>
          <ns3:TrackPointExtension>
            <ns3:atemp>21.0</ns3:atemp>
          </ns3:TrackPointExtension>
        </extensions>
      </trkpt>
      <trkpt lat="42.6278434507548809051513671875" lon="19.8990936018526554107666015625">
        <ele>1421.199951171875</ele>
        <time>2026-06-16T07:33:17.000Z</time>
        <extensions>
          <ns3:TrackPointExtension>
            <ns3:atemp>21.0</ns3:atemp>
          </ns3:TrackPointExtension>
        </extensions>
      </trkpt>
      <trkpt lat="42.6278434507548809051513671875" lon="19.8990936018526554107666015625">
        <ele>1421.199951171875</ele>
        <time>2026-06-16T07:33:18.000Z</time>
        <extensions>
          <ns3:TrackPointExtension>
            <ns3:atemp>21.0</ns3:atemp>
          </ns3:TrackPointExtension>
        </extensions>
      </trkpt>
      <trkpt lat="42.6278434507548809051513671875" lon="19.8990936018526554107666015625">
        <ele>1421.199951171875</ele>
        <time>2026-06-16T07:33:19.000Z</time>
        <extensions>
          <ns3:TrackPointExtension>
            <ns3:atemp>21.0</ns3:atemp>
          </ns3:TrackPointExtension>
        </extensions>
      </trkpt>
      <trkpt lat="42.6278434507548809051513671875" lon="19.8990936018526554107666015625">
        <ele>1421.199951171875</ele>
        <time>2026-06-16T07:33:20.000Z</time>
        <extensions>
          <ns3:TrackPointExtension>
            <ns3:atemp>21.0</ns3:atemp>
          </ns3:TrackPointExtension>
        </extensions>
      </trkpt>
      <trkpt lat="42.6278434507548809051513671875" lon="19.8990936018526554107666015625">
        <ele>1421.199951171875</ele>
        <time>2026-06-16T07:33:21.000Z</time>
        <extensions>
          <ns3:TrackPointExtension>
            <ns3:atemp>21.0</ns3:atemp>
          </ns3:TrackPointExtension>
        </extensions>
      </trkpt>
      <trkpt lat="42.6278434507548809051513671875" lon="19.8990936018526554107666015625">
        <ele>1421.199951171875</ele>
        <time>2026-06-16T07:33:22.000Z</time>
        <extensions>
          <ns3:TrackPointExtension>
            <ns3:atemp>21.0</ns3:atemp>
          </ns3:TrackPointExtension>
        </extensions>
      </trkpt>
      <trkpt lat="42.6278434507548809051513671875" lon="19.8990936018526554107666015625">
        <ele>1421.199951171875</ele>
        <time>2026-06-16T07:33:23.000Z</time>
        <extensions>
          <ns3:TrackPointExtension>
            <ns3:atemp>21.0</ns3:atemp>
          </ns3:TrackPointExtension>
        </extensions>
      </trkpt>
      <trkpt lat="42.6278434507548809051513671875" lon="19.8990936018526554107666015625">
        <ele>1421.199951171875</ele>
        <time>2026-06-16T07:33:24.000Z</time>
        <extensions>
          <ns3:TrackPointExtension>
            <ns3:atemp>21.0</ns3:atemp>
          </ns3:TrackPointExtension>
        </extensions>
      </trkpt>
      <trkpt lat="42.6278434507548809051513671875" lon="19.8990936018526554107666015625">
        <ele>1421.199951171875</ele>
        <time>2026-06-16T07:33:25.000Z</time>
        <extensions>
          <ns3:TrackPointExtension>
            <ns3:atemp>21.0</ns3:atemp>
          </ns3:TrackPointExtension>
        </extensions>
      </trkpt>
      <trkpt lat="42.6278434507548809051513671875" lon="19.8990936018526554107666015625">
        <ele>1421.199951171875</ele>
        <time>2026-06-16T07:33:26.000Z</time>
        <extensions>
          <ns3:TrackPointExtension>
            <ns3:atemp>21.0</ns3:atemp>
          </ns3:TrackPointExtension>
        </extensions>
      </trkpt>
      <trkpt lat="42.6278434507548809051513671875" lon="19.8990936018526554107666015625">
        <ele>1421.199951171875</ele>
        <time>2026-06-16T07:33:27.000Z</time>
        <extensions>
          <ns3:TrackPointExtension>
            <ns3:atemp>21.0</ns3:atemp>
          </ns3:TrackPointExtension>
        </extensions>
      </trkpt>
      <trkpt lat="42.6278434507548809051513671875" lon="19.8990936018526554107666015625">
        <ele>1421.199951171875</ele>
        <time>2026-06-16T07:33:28.000Z</time>
        <extensions>
          <ns3:TrackPointExtension>
            <ns3:atemp>21.0</ns3:atemp>
          </ns3:TrackPointExtension>
        </extensions>
      </trkpt>
      <trkpt lat="42.6278434507548809051513671875" lon="19.8990936018526554107666015625">
        <ele>1421.199951171875</ele>
        <time>2026-06-16T07:33:29.000Z</time>
        <extensions>
          <ns3:TrackPointExtension>
            <ns3:atemp>21.0</ns3:atemp>
          </ns3:TrackPointExtension>
        </extensions>
      </trkpt>
      <trkpt lat="42.6278434507548809051513671875" lon="19.8990936018526554107666015625">
        <ele>1421.199951171875</ele>
        <time>2026-06-16T07:33:30.000Z</time>
        <extensions>
          <ns3:TrackPointExtension>
            <ns3:atemp>21.0</ns3:atemp>
          </ns3:TrackPointExtension>
        </extensions>
      </trkpt>
      <trkpt lat="42.6278434507548809051513671875" lon="19.8990936018526554107666015625">
        <ele>1421.199951171875</ele>
        <time>2026-06-16T07:33:31.000Z</time>
        <extensions>
          <ns3:TrackPointExtension>
            <ns3:atemp>21.0</ns3:atemp>
          </ns3:TrackPointExtension>
        </extensions>
      </trkpt>
      <trkpt lat="42.6278434507548809051513671875" lon="19.8990936018526554107666015625">
        <ele>1421.199951171875</ele>
        <time>2026-06-16T07:33:32.000Z</time>
        <extensions>
          <ns3:TrackPointExtension>
            <ns3:atemp>21.0</ns3:atemp>
          </ns3:TrackPointExtension>
        </extensions>
      </trkpt>
      <trkpt lat="42.6278434507548809051513671875" lon="19.8990936018526554107666015625">
        <ele>1421.199951171875</ele>
        <time>2026-06-16T07:33:33.000Z</time>
        <extensions>
          <ns3:TrackPointExtension>
            <ns3:atemp>21.0</ns3:atemp>
          </ns3:TrackPointExtension>
        </extensions>
      </trkpt>
      <trkpt lat="42.6278434507548809051513671875" lon="19.8990936018526554107666015625">
        <ele>1421.199951171875</ele>
        <time>2026-06-16T07:33:34.000Z</time>
        <extensions>
          <ns3:TrackPointExtension>
            <ns3:atemp>21.0</ns3:atemp>
          </ns3:TrackPointExtension>
        </extensions>
      </trkpt>
      <trkpt lat="42.6278434507548809051513671875" lon="19.8990936018526554107666015625">
        <ele>1421.199951171875</ele>
        <time>2026-06-16T07:33:35.000Z</time>
        <extensions>
          <ns3:TrackPointExtension>
            <ns3:atemp>21.0</ns3:atemp>
          </ns3:TrackPointExtension>
        </extensions>
      </trkpt>
      <trkpt lat="42.6278434507548809051513671875" lon="19.8990936018526554107666015625">
        <ele>1421.199951171875</ele>
        <time>2026-06-16T07:33:36.000Z</time>
        <extensions>
          <ns3:TrackPointExtension>
            <ns3:atemp>21.0</ns3:atemp>
          </ns3:TrackPointExtension>
        </extensions>
      </trkpt>
      <trkpt lat="42.6278434507548809051513671875" lon="19.8990936018526554107666015625">
        <ele>1421.199951171875</ele>
        <time>2026-06-16T07:33:37.000Z</time>
        <extensions>
          <ns3:TrackPointExtension>
            <ns3:atemp>21.0</ns3:atemp>
          </ns3:TrackPointExtension>
        </extensions>
      </trkpt>
      <trkpt lat="42.6278434507548809051513671875" lon="19.8990936018526554107666015625">
        <ele>1421.199951171875</ele>
        <time>2026-06-16T07:33:38.000Z</time>
        <extensions>
          <ns3:TrackPointExtension>
            <ns3:atemp>21.0</ns3:atemp>
          </ns3:TrackPointExtension>
        </extensions>
      </trkpt>
      <trkpt lat="42.6278434507548809051513671875" lon="19.8990936018526554107666015625">
        <ele>1421.199951171875</ele>
        <time>2026-06-16T07:33:39.000Z</time>
        <extensions>
          <ns3:TrackPointExtension>
            <ns3:atemp>21.0</ns3:atemp>
          </ns3:TrackPointExtension>
        </extensions>
      </trkpt>
      <trkpt lat="42.6278434507548809051513671875" lon="19.8990936018526554107666015625">
        <ele>1421.199951171875</ele>
        <time>2026-06-16T07:33:40.000Z</time>
        <extensions>
          <ns3:TrackPointExtension>
            <ns3:atemp>21.0</ns3:atemp>
          </ns3:TrackPointExtension>
        </extensions>
      </trkpt>
      <trkpt lat="42.6278434507548809051513671875" lon="19.8990936018526554107666015625">
        <ele>1421.199951171875</ele>
        <time>2026-06-16T07:33:41.000Z</time>
        <extensions>
          <ns3:TrackPointExtension>
            <ns3:atemp>21.0</ns3:atemp>
          </ns3:TrackPointExtension>
        </extensions>
      </trkpt>
      <trkpt lat="42.6278434507548809051513671875" lon="19.8990936018526554107666015625">
        <ele>1421.199951171875</ele>
        <time>2026-06-16T07:33:42.000Z</time>
        <extensions>
          <ns3:TrackPointExtension>
            <ns3:atemp>22.0</ns3:atemp>
          </ns3:TrackPointExtension>
        </extensions>
      </trkpt>
      <trkpt lat="42.6278434507548809051513671875" lon="19.8990936018526554107666015625">
        <ele>1421.199951171875</ele>
        <time>2026-06-16T07:33:43.000Z</time>
        <extensions>
          <ns3:TrackPointExtension>
            <ns3:atemp>22.0</ns3:atemp>
          </ns3:TrackPointExtension>
        </extensions>
      </trkpt>
      <trkpt lat="42.6278434507548809051513671875" lon="19.8990936018526554107666015625">
        <ele>1421.199951171875</ele>
        <time>2026-06-16T07:33:44.000Z</time>
        <extensions>
          <ns3:TrackPointExtension>
            <ns3:atemp>22.0</ns3:atemp>
          </ns3:TrackPointExtension>
        </extensions>
      </trkpt>
      <trkpt lat="42.6278434507548809051513671875" lon="19.8990936018526554107666015625">
        <ele>1421.199951171875</ele>
        <time>2026-06-16T07:33:45.000Z</time>
        <extensions>
          <ns3:TrackPointExtension>
            <ns3:atemp>22.0</ns3:atemp>
          </ns3:TrackPointExtension>
        </extensions>
      </trkpt>
      <trkpt lat="42.6278434507548809051513671875" lon="19.8990936018526554107666015625">
        <ele>1421.199951171875</ele>
        <time>2026-06-16T07:33:46.000Z</time>
        <extensions>
          <ns3:TrackPointExtension>
            <ns3:atemp>22.0</ns3:atemp>
          </ns3:TrackPointExtension>
        </extensions>
      </trkpt>
      <trkpt lat="42.6278434507548809051513671875" lon="19.8990936018526554107666015625">
        <ele>1421.199951171875</ele>
        <time>2026-06-16T07:33:47.000Z</time>
        <extensions>
          <ns3:TrackPointExtension>
            <ns3:atemp>22.0</ns3:atemp>
          </ns3:TrackPointExtension>
        </extensions>
      </trkpt>
      <trkpt lat="42.6278434507548809051513671875" lon="19.8990936018526554107666015625">
        <ele>1421.199951171875</ele>
        <time>2026-06-16T07:33:48.000Z</time>
        <extensions>
          <ns3:TrackPointExtension>
            <ns3:atemp>22.0</ns3:atemp>
          </ns3:TrackPointExtension>
        </extensions>
      </trkpt>
      <trkpt lat="42.6278434507548809051513671875" lon="19.8990936018526554107666015625">
        <ele>1421.199951171875</ele>
        <time>2026-06-16T07:33:49.000Z</time>
        <extensions>
          <ns3:TrackPointExtension>
            <ns3:atemp>22.0</ns3:atemp>
          </ns3:TrackPointExtension>
        </extensions>
      </trkpt>
      <trkpt lat="42.6278434507548809051513671875" lon="19.8990936018526554107666015625">
        <ele>1421.199951171875</ele>
        <time>2026-06-16T07:33:50.000Z</time>
        <extensions>
          <ns3:TrackPointExtension>
            <ns3:atemp>22.0</ns3:atemp>
          </ns3:TrackPointExtension>
        </extensions>
      </trkpt>
      <trkpt lat="42.6278434507548809051513671875" lon="19.8990936018526554107666015625">
        <ele>1421.199951171875</ele>
        <time>2026-06-16T07:33:51.000Z</time>
        <extensions>
          <ns3:TrackPointExtension>
            <ns3:atemp>22.0</ns3:atemp>
          </ns3:TrackPointExtension>
        </extensions>
      </trkpt>
      <trkpt lat="42.6278434507548809051513671875" lon="19.8990936018526554107666015625">
        <ele>1421.199951171875</ele>
        <time>2026-06-16T07:33:52.000Z</time>
        <extensions>
          <ns3:TrackPointExtension>
            <ns3:atemp>22.0</ns3:atemp>
          </ns3:TrackPointExtension>
        </extensions>
      </trkpt>
      <trkpt lat="42.6278434507548809051513671875" lon="19.8990936018526554107666015625">
        <ele>1421.199951171875</ele>
        <time>2026-06-16T07:33:53.000Z</time>
        <extensions>
          <ns3:TrackPointExtension>
            <ns3:atemp>22.0</ns3:atemp>
          </ns3:TrackPointExtension>
        </extensions>
      </trkpt>
      <trkpt lat="42.6278434507548809051513671875" lon="19.8990936018526554107666015625">
        <ele>1421.199951171875</ele>
        <time>2026-06-16T07:33:54.000Z</time>
        <extensions>
          <ns3:TrackPointExtension>
            <ns3:atemp>22.0</ns3:atemp>
          </ns3:TrackPointExtension>
        </extensions>
      </trkpt>
      <trkpt lat="42.6278434507548809051513671875" lon="19.8990936018526554107666015625">
        <ele>1421.199951171875</ele>
        <time>2026-06-16T07:33:55.000Z</time>
        <extensions>
          <ns3:TrackPointExtension>
            <ns3:atemp>22.0</ns3:atemp>
          </ns3:TrackPointExtension>
        </extensions>
      </trkpt>
      <trkpt lat="42.6278434507548809051513671875" lon="19.8990936018526554107666015625">
        <ele>1421.199951171875</ele>
        <time>2026-06-16T07:33:56.000Z</time>
        <extensions>
          <ns3:TrackPointExtension>
            <ns3:atemp>22.0</ns3:atemp>
          </ns3:TrackPointExtension>
        </extensions>
      </trkpt>
      <trkpt lat="42.6278434507548809051513671875" lon="19.8990936018526554107666015625">
        <ele>1421.199951171875</ele>
        <time>2026-06-16T07:33:57.000Z</time>
        <extensions>
          <ns3:TrackPointExtension>
            <ns3:atemp>22.0</ns3:atemp>
          </ns3:TrackPointExtension>
        </extensions>
      </trkpt>
      <trkpt lat="42.6278434507548809051513671875" lon="19.8990936018526554107666015625">
        <ele>1421.199951171875</ele>
        <time>2026-06-16T07:33:58.000Z</time>
        <extensions>
          <ns3:TrackPointExtension>
            <ns3:atemp>22.0</ns3:atemp>
          </ns3:TrackPointExtension>
        </extensions>
      </trkpt>
      <trkpt lat="42.6278434507548809051513671875" lon="19.8990936018526554107666015625">
        <ele>1421.199951171875</ele>
        <time>2026-06-16T07:33:59.000Z</time>
        <extensions>
          <ns3:TrackPointExtension>
            <ns3:atemp>22.0</ns3:atemp>
          </ns3:TrackPointExtension>
        </extensions>
      </trkpt>
      <trkpt lat="42.6278434507548809051513671875" lon="19.8990936018526554107666015625">
        <ele>1421.199951171875</ele>
        <time>2026-06-16T07:34:00.000Z</time>
        <extensions>
          <ns3:TrackPointExtension>
            <ns3:atemp>22.0</ns3:atemp>
          </ns3:TrackPointExtension>
        </extensions>
      </trkpt>
      <trkpt lat="42.6278434507548809051513671875" lon="19.8990936018526554107666015625">
        <ele>1421.199951171875</ele>
        <time>2026-06-16T07:34:01.000Z</time>
        <extensions>
          <ns3:TrackPointExtension>
            <ns3:atemp>22.0</ns3:atemp>
          </ns3:TrackPointExtension>
        </extensions>
      </trkpt>
      <trkpt lat="42.6278434507548809051513671875" lon="19.8990936018526554107666015625">
        <ele>1421.199951171875</ele>
        <time>2026-06-16T07:34:02.000Z</time>
        <extensions>
          <ns3:TrackPointExtension>
            <ns3:atemp>22.0</ns3:atemp>
          </ns3:TrackPointExtension>
        </extensions>
      </trkpt>
      <trkpt lat="42.6278434507548809051513671875" lon="19.8990936018526554107666015625">
        <ele>1421.199951171875</ele>
        <time>2026-06-16T07:34:03.000Z</time>
        <extensions>
          <ns3:TrackPointExtension>
            <ns3:atemp>22.0</ns3:atemp>
          </ns3:TrackPointExtension>
        </extensions>
      </trkpt>
      <trkpt lat="42.6278434507548809051513671875" lon="19.8990936018526554107666015625">
        <ele>1421.199951171875</ele>
        <time>2026-06-16T07:34:04.000Z</time>
        <extensions>
          <ns3:TrackPointExtension>
            <ns3:atemp>22.0</ns3:atemp>
          </ns3:TrackPointExtension>
        </extensions>
      </trkpt>
      <trkpt lat="42.6278434507548809051513671875" lon="19.8990936018526554107666015625">
        <ele>1421.199951171875</ele>
        <time>2026-06-16T07:34:05.000Z</time>
        <extensions>
          <ns3:TrackPointExtension>
            <ns3:atemp>22.0</ns3:atemp>
          </ns3:TrackPointExtension>
        </extensions>
      </trkpt>
      <trkpt lat="42.6278434507548809051513671875" lon="19.8990936018526554107666015625">
        <ele>1421.199951171875</ele>
        <time>2026-06-16T07:34:06.000Z</time>
        <extensions>
          <ns3:TrackPointExtension>
            <ns3:atemp>22.0</ns3:atemp>
          </ns3:TrackPointExtension>
        </extensions>
      </trkpt>
      <trkpt lat="42.6278434507548809051513671875" lon="19.8990936018526554107666015625">
        <ele>1421.199951171875</ele>
        <time>2026-06-16T07:34:07.000Z</time>
        <extensions>
          <ns3:TrackPointExtension>
            <ns3:atemp>22.0</ns3:atemp>
          </ns3:TrackPointExtension>
        </extensions>
      </trkpt>
      <trkpt lat="42.6278434507548809051513671875" lon="19.8990936018526554107666015625">
        <ele>1421.199951171875</ele>
        <time>2026-06-16T07:34:08.000Z</time>
        <extensions>
          <ns3:TrackPointExtension>
            <ns3:atemp>22.0</ns3:atemp>
          </ns3:TrackPointExtension>
        </extensions>
      </trkpt>
      <trkpt lat="42.6278434507548809051513671875" lon="19.8990936018526554107666015625">
        <ele>1421.199951171875</ele>
        <time>2026-06-16T07:34:09.000Z</time>
        <extensions>
          <ns3:TrackPointExtension>
            <ns3:atemp>22.0</ns3:atemp>
          </ns3:TrackPointExtension>
        </extensions>
      </trkpt>
      <trkpt lat="42.6278434507548809051513671875" lon="19.8990936018526554107666015625">
        <ele>1421.199951171875</ele>
        <time>2026-06-16T07:34:10.000Z</time>
        <extensions>
          <ns3:TrackPointExtension>
            <ns3:atemp>22.0</ns3:atemp>
          </ns3:TrackPointExtension>
        </extensions>
      </trkpt>
      <trkpt lat="42.6278434507548809051513671875" lon="19.8990936018526554107666015625">
        <ele>1421.199951171875</ele>
        <time>2026-06-16T07:34:11.000Z</time>
        <extensions>
          <ns3:TrackPointExtension>
            <ns3:atemp>22.0</ns3:atemp>
          </ns3:TrackPointExtension>
        </extensions>
      </trkpt>
      <trkpt lat="42.6278434507548809051513671875" lon="19.8990936018526554107666015625">
        <ele>1421.199951171875</ele>
        <time>2026-06-16T07:34:12.000Z</time>
        <extensions>
          <ns3:TrackPointExtension>
            <ns3:atemp>22.0</ns3:atemp>
          </ns3:TrackPointExtension>
        </extensions>
      </trkpt>
      <trkpt lat="42.6278434507548809051513671875" lon="19.8990936018526554107666015625">
        <ele>1421.199951171875</ele>
        <time>2026-06-16T07:34:13.000Z</time>
        <extensions>
          <ns3:TrackPointExtension>
            <ns3:atemp>22.0</ns3:atemp>
          </ns3:TrackPointExtension>
        </extensions>
      </trkpt>
      <trkpt lat="42.6278434507548809051513671875" lon="19.8990936018526554107666015625">
        <ele>1421.199951171875</ele>
        <time>2026-06-16T07:34:14.000Z</time>
        <extensions>
          <ns3:TrackPointExtension>
            <ns3:atemp>22.0</ns3:atemp>
          </ns3:TrackPointExtension>
        </extensions>
      </trkpt>
      <trkpt lat="42.6278434507548809051513671875" lon="19.8990936018526554107666015625">
        <ele>1421.199951171875</ele>
        <time>2026-06-16T07:34:15.000Z</time>
        <extensions>
          <ns3:TrackPointExtension>
            <ns3:atemp>22.0</ns3:atemp>
          </ns3:TrackPointExtension>
        </extensions>
      </trkpt>
      <trkpt lat="42.6278434507548809051513671875" lon="19.8990936018526554107666015625">
        <ele>1421.199951171875</ele>
        <time>2026-06-16T07:34:16.000Z</time>
        <extensions>
          <ns3:TrackPointExtension>
            <ns3:atemp>22.0</ns3:atemp>
          </ns3:TrackPointExtension>
        </extensions>
      </trkpt>
      <trkpt lat="42.6278434507548809051513671875" lon="19.8990936018526554107666015625">
        <ele>1421.199951171875</ele>
        <time>2026-06-16T07:34:17.000Z</time>
        <extensions>
          <ns3:TrackPointExtension>
            <ns3:atemp>22.0</ns3:atemp>
          </ns3:TrackPointExtension>
        </extensions>
      </trkpt>
      <trkpt lat="42.6278434507548809051513671875" lon="19.8990936018526554107666015625">
        <ele>1421.199951171875</ele>
        <time>2026-06-16T07:34:18.000Z</time>
        <extensions>
          <ns3:TrackPointExtension>
            <ns3:atemp>22.0</ns3:atemp>
          </ns3:TrackPointExtension>
        </extensions>
      </trkpt>
      <trkpt lat="42.6278434507548809051513671875" lon="19.8990936018526554107666015625">
        <ele>1421.199951171875</ele>
        <time>2026-06-16T07:34:19.000Z</time>
        <extensions>
          <ns3:TrackPointExtension>
            <ns3:atemp>22.0</ns3:atemp>
          </ns3:TrackPointExtension>
        </extensions>
      </trkpt>
      <trkpt lat="42.6278434507548809051513671875" lon="19.8990936018526554107666015625">
        <ele>1421.199951171875</ele>
        <time>2026-06-16T07:34:20.000Z</time>
        <extensions>
          <ns3:TrackPointExtension>
            <ns3:atemp>22.0</ns3:atemp>
          </ns3:TrackPointExtension>
        </extensions>
      </trkpt>
      <trkpt lat="42.6278434507548809051513671875" lon="19.8990936018526554107666015625">
        <ele>1421.199951171875</ele>
        <time>2026-06-16T07:34:21.000Z</time>
        <extensions>
          <ns3:TrackPointExtension>
            <ns3:atemp>22.0</ns3:atemp>
          </ns3:TrackPointExtension>
        </extensions>
      </trkpt>
      <trkpt lat="42.6278434507548809051513671875" lon="19.8990936018526554107666015625">
        <ele>1421.199951171875</ele>
        <time>2026-06-16T07:34:22.000Z</time>
        <extensions>
          <ns3:TrackPointExtension>
            <ns3:atemp>22.0</ns3:atemp>
          </ns3:TrackPointExtension>
        </extensions>
      </trkpt>
      <trkpt lat="42.6278434507548809051513671875" lon="19.8990936018526554107666015625">
        <ele>1421.199951171875</ele>
        <time>2026-06-16T07:34:23.000Z</time>
        <extensions>
          <ns3:TrackPointExtension>
            <ns3:atemp>22.0</ns3:atemp>
          </ns3:TrackPointExtension>
        </extensions>
      </trkpt>
      <trkpt lat="42.6278434507548809051513671875" lon="19.8990936018526554107666015625">
        <ele>1421.199951171875</ele>
        <time>2026-06-16T07:34:24.000Z</time>
        <extensions>
          <ns3:TrackPointExtension>
            <ns3:atemp>22.0</ns3:atemp>
          </ns3:TrackPointExtension>
        </extensions>
      </trkpt>
      <trkpt lat="42.6278434507548809051513671875" lon="19.8990936018526554107666015625">
        <ele>1421.199951171875</ele>
        <time>2026-06-16T07:34:25.000Z</time>
        <extensions>
          <ns3:TrackPointExtension>
            <ns3:atemp>22.0</ns3:atemp>
          </ns3:TrackPointExtension>
        </extensions>
      </trkpt>
      <trkpt lat="42.6278434507548809051513671875" lon="19.8990936018526554107666015625">
        <ele>1421.199951171875</ele>
        <time>2026-06-16T07:34:26.000Z</time>
        <extensions>
          <ns3:TrackPointExtension>
            <ns3:atemp>22.0</ns3:atemp>
          </ns3:TrackPointExtension>
        </extensions>
      </trkpt>
      <trkpt lat="42.6278434507548809051513671875" lon="19.8990936018526554107666015625">
        <ele>1421.199951171875</ele>
        <time>2026-06-16T07:34:27.000Z</time>
        <extensions>
          <ns3:TrackPointExtension>
            <ns3:atemp>22.0</ns3:atemp>
          </ns3:TrackPointExtension>
        </extensions>
      </trkpt>
      <trkpt lat="42.6278434507548809051513671875" lon="19.8990936018526554107666015625">
        <ele>1421.199951171875</ele>
        <time>2026-06-16T07:34:28.000Z</time>
        <extensions>
          <ns3:TrackPointExtension>
            <ns3:atemp>22.0</ns3:atemp>
          </ns3:TrackPointExtension>
        </extensions>
      </trkpt>
      <trkpt lat="42.6278434507548809051513671875" lon="19.8990936018526554107666015625">
        <ele>1421.199951171875</ele>
        <time>2026-06-16T07:34:29.000Z</time>
        <extensions>
          <ns3:TrackPointExtension>
            <ns3:atemp>22.0</ns3:atemp>
          </ns3:TrackPointExtension>
        </extensions>
      </trkpt>
      <trkpt lat="42.6278434507548809051513671875" lon="19.8990936018526554107666015625">
        <ele>1421.199951171875</ele>
        <time>2026-06-16T07:34:30.000Z</time>
        <extensions>
          <ns3:TrackPointExtension>
            <ns3:atemp>22.0</ns3:atemp>
          </ns3:TrackPointExtension>
        </extensions>
      </trkpt>
      <trkpt lat="42.6278434507548809051513671875" lon="19.8990936018526554107666015625">
        <ele>1421.199951171875</ele>
        <time>2026-06-16T07:34:31.000Z</time>
        <extensions>
          <ns3:TrackPointExtension>
            <ns3:atemp>22.0</ns3:atemp>
          </ns3:TrackPointExtension>
        </extensions>
      </trkpt>
      <trkpt lat="42.6278434507548809051513671875" lon="19.8990936018526554107666015625">
        <ele>1421.199951171875</ele>
        <time>2026-06-16T07:34:32.000Z</time>
        <extensions>
          <ns3:TrackPointExtension>
            <ns3:atemp>22.0</ns3:atemp>
          </ns3:TrackPointExtension>
        </extensions>
      </trkpt>
      <trkpt lat="42.6278434507548809051513671875" lon="19.8990936018526554107666015625">
        <ele>1421.199951171875</ele>
        <time>2026-06-16T07:34:33.000Z</time>
        <extensions>
          <ns3:TrackPointExtension>
            <ns3:atemp>22.0</ns3:atemp>
          </ns3:TrackPointExtension>
        </extensions>
      </trkpt>
      <trkpt lat="42.6278434507548809051513671875" lon="19.8990936018526554107666015625">
        <ele>1421.199951171875</ele>
        <time>2026-06-16T07:34:34.000Z</time>
        <extensions>
          <ns3:TrackPointExtension>
            <ns3:atemp>22.0</ns3:atemp>
          </ns3:TrackPointExtension>
        </extensions>
      </trkpt>
      <trkpt lat="42.6278434507548809051513671875" lon="19.8990936018526554107666015625">
        <ele>1421.199951171875</ele>
        <time>2026-06-16T07:34:35.000Z</time>
        <extensions>
          <ns3:TrackPointExtension>
            <ns3:atemp>22.0</ns3:atemp>
          </ns3:TrackPointExtension>
        </extensions>
      </trkpt>
      <trkpt lat="42.6278434507548809051513671875" lon="19.8990936018526554107666015625">
        <ele>1421.199951171875</ele>
        <time>2026-06-16T07:34:36.000Z</time>
        <extensions>
          <ns3:TrackPointExtension>
            <ns3:atemp>22.0</ns3:atemp>
          </ns3:TrackPointExtension>
        </extensions>
      </trkpt>
      <trkpt lat="42.6278434507548809051513671875" lon="19.8990936018526554107666015625">
        <ele>1421.199951171875</ele>
        <time>2026-06-16T07:34:37.000Z</time>
        <extensions>
          <ns3:TrackPointExtension>
            <ns3:atemp>22.0</ns3:atemp>
          </ns3:TrackPointExtension>
        </extensions>
      </trkpt>
      <trkpt lat="42.6278434507548809051513671875" lon="19.8990936018526554107666015625">
        <ele>1421.199951171875</ele>
        <time>2026-06-16T07:34:38.000Z</time>
        <extensions>
          <ns3:TrackPointExtension>
            <ns3:atemp>22.0</ns3:atemp>
          </ns3:TrackPointExtension>
        </extensions>
      </trkpt>
      <trkpt lat="42.6278434507548809051513671875" lon="19.8990936018526554107666015625">
        <ele>1421.199951171875</ele>
        <time>2026-06-16T07:34:39.000Z</time>
        <extensions>
          <ns3:TrackPointExtension>
            <ns3:atemp>22.0</ns3:atemp>
          </ns3:TrackPointExtension>
        </extensions>
      </trkpt>
      <trkpt lat="42.6278434507548809051513671875" lon="19.8990936018526554107666015625">
        <ele>1421.199951171875</ele>
        <time>2026-06-16T07:34:40.000Z</time>
        <extensions>
          <ns3:TrackPointExtension>
            <ns3:atemp>22.0</ns3:atemp>
          </ns3:TrackPointExtension>
        </extensions>
      </trkpt>
      <trkpt lat="42.6278434507548809051513671875" lon="19.8990936018526554107666015625">
        <ele>1421.199951171875</ele>
        <time>2026-06-16T07:34:41.000Z</time>
        <extensions>
          <ns3:TrackPointExtension>
            <ns3:atemp>22.0</ns3:atemp>
          </ns3:TrackPointExtension>
        </extensions>
      </trkpt>
      <trkpt lat="42.6278434507548809051513671875" lon="19.8990936018526554107666015625">
        <ele>1421.199951171875</ele>
        <time>2026-06-16T07:34:42.000Z</time>
        <extensions>
          <ns3:TrackPointExtension>
            <ns3:atemp>22.0</ns3:atemp>
          </ns3:TrackPointExtension>
        </extensions>
      </trkpt>
      <trkpt lat="42.6278434507548809051513671875" lon="19.8990936018526554107666015625">
        <ele>1421.199951171875</ele>
        <time>2026-06-16T07:34:43.000Z</time>
        <extensions>
          <ns3:TrackPointExtension>
            <ns3:atemp>22.0</ns3:atemp>
          </ns3:TrackPointExtension>
        </extensions>
      </trkpt>
      <trkpt lat="42.6278434507548809051513671875" lon="19.8990936018526554107666015625">
        <ele>1421.199951171875</ele>
        <time>2026-06-16T07:34:44.000Z</time>
        <extensions>
          <ns3:TrackPointExtension>
            <ns3:atemp>22.0</ns3:atemp>
          </ns3:TrackPointExtension>
        </extensions>
      </trkpt>
      <trkpt lat="42.6278434507548809051513671875" lon="19.8990936018526554107666015625">
        <ele>1421.199951171875</ele>
        <time>2026-06-16T07:34:45.000Z</time>
        <extensions>
          <ns3:TrackPointExtension>
            <ns3:atemp>22.0</ns3:atemp>
          </ns3:TrackPointExtension>
        </extensions>
      </trkpt>
      <trkpt lat="42.6278434507548809051513671875" lon="19.8990936018526554107666015625">
        <ele>1421.199951171875</ele>
        <time>2026-06-16T07:34:46.000Z</time>
        <extensions>
          <ns3:TrackPointExtension>
            <ns3:atemp>22.0</ns3:atemp>
          </ns3:TrackPointExtension>
        </extensions>
      </trkpt>
      <trkpt lat="42.6278434507548809051513671875" lon="19.8990936018526554107666015625">
        <ele>1421.199951171875</ele>
        <time>2026-06-16T07:34:47.000Z</time>
        <extensions>
          <ns3:TrackPointExtension>
            <ns3:atemp>22.0</ns3:atemp>
          </ns3:TrackPointExtension>
        </extensions>
      </trkpt>
      <trkpt lat="42.6278434507548809051513671875" lon="19.8990936018526554107666015625">
        <ele>1421.199951171875</ele>
        <time>2026-06-16T07:34:48.000Z</time>
        <extensions>
          <ns3:TrackPointExtension>
            <ns3:atemp>22.0</ns3:atemp>
          </ns3:TrackPointExtension>
        </extensions>
      </trkpt>
      <trkpt lat="42.6278434507548809051513671875" lon="19.8990936018526554107666015625">
        <ele>1421.199951171875</ele>
        <time>2026-06-16T07:34:49.000Z</time>
        <extensions>
          <ns3:TrackPointExtension>
            <ns3:atemp>22.0</ns3:atemp>
          </ns3:TrackPointExtension>
        </extensions>
      </trkpt>
      <trkpt lat="42.6278434507548809051513671875" lon="19.8990936018526554107666015625">
        <ele>1421.199951171875</ele>
        <time>2026-06-16T07:34:50.000Z</time>
        <extensions>
          <ns3:TrackPointExtension>
            <ns3:atemp>22.0</ns3:atemp>
          </ns3:TrackPointExtension>
        </extensions>
      </trkpt>
      <trkpt lat="42.6278434507548809051513671875" lon="19.8990936018526554107666015625">
        <ele>1421.199951171875</ele>
        <time>2026-06-16T07:34:51.000Z</time>
        <extensions>
          <ns3:TrackPointExtension>
            <ns3:atemp>22.0</ns3:atemp>
          </ns3:TrackPointExtension>
        </extensions>
      </trkpt>
      <trkpt lat="42.6278434507548809051513671875" lon="19.8990936018526554107666015625">
        <ele>1421.199951171875</ele>
        <time>2026-06-16T07:34:52.000Z</time>
        <extensions>
          <ns3:TrackPointExtension>
            <ns3:atemp>22.0</ns3:atemp>
          </ns3:TrackPointExtension>
        </extensions>
      </trkpt>
      <trkpt lat="42.6278434507548809051513671875" lon="19.8990936018526554107666015625">
        <ele>1421.199951171875</ele>
        <time>2026-06-16T07:34:53.000Z</time>
        <extensions>
          <ns3:TrackPointExtension>
            <ns3:atemp>22.0</ns3:atemp>
          </ns3:TrackPointExtension>
        </extensions>
      </trkpt>
      <trkpt lat="42.6278434507548809051513671875" lon="19.8990936018526554107666015625">
        <ele>1421.199951171875</ele>
        <time>2026-06-16T07:34:54.000Z</time>
        <extensions>
          <ns3:TrackPointExtension>
            <ns3:atemp>22.0</ns3:atemp>
          </ns3:TrackPointExtension>
        </extensions>
      </trkpt>
      <trkpt lat="42.6278434507548809051513671875" lon="19.8990936018526554107666015625">
        <ele>1421.199951171875</ele>
        <time>2026-06-16T07:34:55.000Z</time>
        <extensions>
          <ns3:TrackPointExtension>
            <ns3:atemp>22.0</ns3:atemp>
          </ns3:TrackPointExtension>
        </extensions>
      </trkpt>
      <trkpt lat="42.6278434507548809051513671875" lon="19.8990936018526554107666015625">
        <ele>1421.199951171875</ele>
        <time>2026-06-16T07:34:56.000Z</time>
        <extensions>
          <ns3:TrackPointExtension>
            <ns3:atemp>22.0</ns3:atemp>
          </ns3:TrackPointExtension>
        </extensions>
      </trkpt>
      <trkpt lat="42.6278434507548809051513671875" lon="19.8990936018526554107666015625">
        <ele>1421.199951171875</ele>
        <time>2026-06-16T07:34:57.000Z</time>
        <extensions>
          <ns3:TrackPointExtension>
            <ns3:atemp>22.0</ns3:atemp>
          </ns3:TrackPointExtension>
        </extensions>
      </trkpt>
      <trkpt lat="42.6278434507548809051513671875" lon="19.8990936018526554107666015625">
        <ele>1421.199951171875</ele>
        <time>2026-06-16T07:34:58.000Z</time>
        <extensions>
          <ns3:TrackPointExtension>
            <ns3:atemp>22.0</ns3:atemp>
          </ns3:TrackPointExtension>
        </extensions>
      </trkpt>
      <trkpt lat="42.6278434507548809051513671875" lon="19.8990936018526554107666015625">
        <ele>1421.199951171875</ele>
        <time>2026-06-16T07:34:59.000Z</time>
        <extensions>
          <ns3:TrackPointExtension>
            <ns3:atemp>22.0</ns3:atemp>
          </ns3:TrackPointExtension>
        </extensions>
      </trkpt>
      <trkpt lat="42.6278434507548809051513671875" lon="19.8990936018526554107666015625">
        <ele>1421.199951171875</ele>
        <time>2026-06-16T07:35:00.000Z</time>
        <extensions>
          <ns3:TrackPointExtension>
            <ns3:atemp>22.0</ns3:atemp>
          </ns3:TrackPointExtension>
        </extensions>
      </trkpt>
      <trkpt lat="42.6278434507548809051513671875" lon="19.8990936018526554107666015625">
        <ele>1421.199951171875</ele>
        <time>2026-06-16T07:35:01.000Z</time>
        <extensions>
          <ns3:TrackPointExtension>
            <ns3:atemp>22.0</ns3:atemp>
          </ns3:TrackPointExtension>
        </extensions>
      </trkpt>
      <trkpt lat="42.6278434507548809051513671875" lon="19.8990936018526554107666015625">
        <ele>1421.199951171875</ele>
        <time>2026-06-16T07:35:02.000Z</time>
        <extensions>
          <ns3:TrackPointExtension>
            <ns3:atemp>22.0</ns3:atemp>
          </ns3:TrackPointExtension>
        </extensions>
      </trkpt>
      <trkpt lat="42.6278434507548809051513671875" lon="19.8990936018526554107666015625">
        <ele>1421.199951171875</ele>
        <time>2026-06-16T07:35:03.000Z</time>
        <extensions>
          <ns3:TrackPointExtension>
            <ns3:atemp>23.0</ns3:atemp>
          </ns3:TrackPointExtension>
        </extensions>
      </trkpt>
      <trkpt lat="42.6278434507548809051513671875" lon="19.8990936018526554107666015625">
        <ele>1421.199951171875</ele>
        <time>2026-06-16T07:35:04.000Z</time>
        <extensions>
          <ns3:TrackPointExtension>
            <ns3:atemp>23.0</ns3:atemp>
          </ns3:TrackPointExtension>
        </extensions>
      </trkpt>
      <trkpt lat="42.6278434507548809051513671875" lon="19.8990936018526554107666015625">
        <ele>1421.199951171875</ele>
        <time>2026-06-16T07:35:05.000Z</time>
        <extensions>
          <ns3:TrackPointExtension>
            <ns3:atemp>23.0</ns3:atemp>
          </ns3:TrackPointExtension>
        </extensions>
      </trkpt>
      <trkpt lat="42.6278434507548809051513671875" lon="19.8990936018526554107666015625">
        <ele>1421.199951171875</ele>
        <time>2026-06-16T07:35:06.000Z</time>
        <extensions>
          <ns3:TrackPointExtension>
            <ns3:atemp>23.0</ns3:atemp>
          </ns3:TrackPointExtension>
        </extensions>
      </trkpt>
      <trkpt lat="42.6278434507548809051513671875" lon="19.8990936018526554107666015625">
        <ele>1421.199951171875</ele>
        <time>2026-06-16T07:35:07.000Z</time>
        <extensions>
          <ns3:TrackPointExtension>
            <ns3:atemp>23.0</ns3:atemp>
          </ns3:TrackPointExtension>
        </extensions>
      </trkpt>
      <trkpt lat="42.6278434507548809051513671875" lon="19.8990936018526554107666015625">
        <ele>1421.199951171875</ele>
        <time>2026-06-16T07:35:08.000Z</time>
        <extensions>
          <ns3:TrackPointExtension>
            <ns3:atemp>23.0</ns3:atemp>
          </ns3:TrackPointExtension>
        </extensions>
      </trkpt>
      <trkpt lat="42.6278434507548809051513671875" lon="19.8990936018526554107666015625">
        <ele>1421.199951171875</ele>
        <time>2026-06-16T07:35:09.000Z</time>
        <extensions>
          <ns3:TrackPointExtension>
            <ns3:atemp>23.0</ns3:atemp>
          </ns3:TrackPointExtension>
        </extensions>
      </trkpt>
      <trkpt lat="42.6278434507548809051513671875" lon="19.8990936018526554107666015625">
        <ele>1421.199951171875</ele>
        <time>2026-06-16T07:35:10.000Z</time>
        <extensions>
          <ns3:TrackPointExtension>
            <ns3:atemp>23.0</ns3:atemp>
          </ns3:TrackPointExtension>
        </extensions>
      </trkpt>
      <trkpt lat="42.6278434507548809051513671875" lon="19.8990936018526554107666015625">
        <ele>1421.199951171875</ele>
        <time>2026-06-16T07:35:11.000Z</time>
        <extensions>
          <ns3:TrackPointExtension>
            <ns3:atemp>23.0</ns3:atemp>
          </ns3:TrackPointExtension>
        </extensions>
      </trkpt>
      <trkpt lat="42.6278434507548809051513671875" lon="19.8990936018526554107666015625">
        <ele>1421.199951171875</ele>
        <time>2026-06-16T07:35:12.000Z</time>
        <extensions>
          <ns3:TrackPointExtension>
            <ns3:atemp>23.0</ns3:atemp>
          </ns3:TrackPointExtension>
        </extensions>
      </trkpt>
      <trkpt lat="42.6278434507548809051513671875" lon="19.8990936018526554107666015625">
        <ele>1421.199951171875</ele>
        <time>2026-06-16T07:35:13.000Z</time>
        <extensions>
          <ns3:TrackPointExtension>
            <ns3:atemp>23.0</ns3:atemp>
          </ns3:TrackPointExtension>
        </extensions>
      </trkpt>
      <trkpt lat="42.6278434507548809051513671875" lon="19.8990936018526554107666015625">
        <ele>1421.199951171875</ele>
        <time>2026-06-16T07:35:14.000Z</time>
        <extensions>
          <ns3:TrackPointExtension>
            <ns3:atemp>23.0</ns3:atemp>
          </ns3:TrackPointExtension>
        </extensions>
      </trkpt>
      <trkpt lat="42.6278434507548809051513671875" lon="19.8990936018526554107666015625">
        <ele>1421.199951171875</ele>
        <time>2026-06-16T07:35:15.000Z</time>
        <extensions>
          <ns3:TrackPointExtension>
            <ns3:atemp>23.0</ns3:atemp>
          </ns3:TrackPointExtension>
        </extensions>
      </trkpt>
      <trkpt lat="42.6278434507548809051513671875" lon="19.8990936018526554107666015625">
        <ele>1421.199951171875</ele>
        <time>2026-06-16T07:35:16.000Z</time>
        <extensions>
          <ns3:TrackPointExtension>
            <ns3:atemp>23.0</ns3:atemp>
          </ns3:TrackPointExtension>
        </extensions>
      </trkpt>
      <trkpt lat="42.6278434507548809051513671875" lon="19.8990936018526554107666015625">
        <ele>1421.199951171875</ele>
        <time>2026-06-16T07:35:17.000Z</time>
        <extensions>
          <ns3:TrackPointExtension>
            <ns3:atemp>23.0</ns3:atemp>
          </ns3:TrackPointExtension>
        </extensions>
      </trkpt>
      <trkpt lat="42.6278434507548809051513671875" lon="19.8990936018526554107666015625">
        <ele>1421.199951171875</ele>
        <time>2026-06-16T07:35:18.000Z</time>
        <extensions>
          <ns3:TrackPointExtension>
            <ns3:atemp>23.0</ns3:atemp>
          </ns3:TrackPointExtension>
        </extensions>
      </trkpt>
      <trkpt lat="42.6278434507548809051513671875" lon="19.8990936018526554107666015625">
        <ele>1421.199951171875</ele>
        <time>2026-06-16T07:35:19.000Z</time>
        <extensions>
          <ns3:TrackPointExtension>
            <ns3:atemp>23.0</ns3:atemp>
          </ns3:TrackPointExtension>
        </extensions>
      </trkpt>
      <trkpt lat="42.6278434507548809051513671875" lon="19.8990936018526554107666015625">
        <ele>1421.199951171875</ele>
        <time>2026-06-16T07:35:20.000Z</time>
        <extensions>
          <ns3:TrackPointExtension>
            <ns3:atemp>23.0</ns3:atemp>
          </ns3:TrackPointExtension>
        </extensions>
      </trkpt>
      <trkpt lat="42.6278434507548809051513671875" lon="19.8990936018526554107666015625">
        <ele>1421.199951171875</ele>
        <time>2026-06-16T07:35:21.000Z</time>
        <extensions>
          <ns3:TrackPointExtension>
            <ns3:atemp>23.0</ns3:atemp>
          </ns3:TrackPointExtension>
        </extensions>
      </trkpt>
      <trkpt lat="42.6278434507548809051513671875" lon="19.8990936018526554107666015625">
        <ele>1421.199951171875</ele>
        <time>2026-06-16T07:35:22.000Z</time>
        <extensions>
          <ns3:TrackPointExtension>
            <ns3:atemp>23.0</ns3:atemp>
          </ns3:TrackPointExtension>
        </extensions>
      </trkpt>
      <trkpt lat="42.6278434507548809051513671875" lon="19.8990936018526554107666015625">
        <ele>1421.199951171875</ele>
        <time>2026-06-16T07:35:23.000Z</time>
        <extensions>
          <ns3:TrackPointExtension>
            <ns3:atemp>23.0</ns3:atemp>
          </ns3:TrackPointExtension>
        </extensions>
      </trkpt>
      <trkpt lat="42.6278434507548809051513671875" lon="19.8990936018526554107666015625">
        <ele>1421.199951171875</ele>
        <time>2026-06-16T07:35:24.000Z</time>
        <extensions>
          <ns3:TrackPointExtension>
            <ns3:atemp>23.0</ns3:atemp>
          </ns3:TrackPointExtension>
        </extensions>
      </trkpt>
      <trkpt lat="42.6278434507548809051513671875" lon="19.8990936018526554107666015625">
        <ele>1421.199951171875</ele>
        <time>2026-06-16T07:35:25.000Z</time>
        <extensions>
          <ns3:TrackPointExtension>
            <ns3:atemp>23.0</ns3:atemp>
          </ns3:TrackPointExtension>
        </extensions>
      </trkpt>
      <trkpt lat="42.6278434507548809051513671875" lon="19.8990936018526554107666015625">
        <ele>1421.199951171875</ele>
        <time>2026-06-16T07:35:26.000Z</time>
        <extensions>
          <ns3:TrackPointExtension>
            <ns3:atemp>23.0</ns3:atemp>
          </ns3:TrackPointExtension>
        </extensions>
      </trkpt>
      <trkpt lat="42.6278434507548809051513671875" lon="19.8990936018526554107666015625">
        <ele>1421.199951171875</ele>
        <time>2026-06-16T07:35:27.000Z</time>
        <extensions>
          <ns3:TrackPointExtension>
            <ns3:atemp>23.0</ns3:atemp>
          </ns3:TrackPointExtension>
        </extensions>
      </trkpt>
      <trkpt lat="42.6278434507548809051513671875" lon="19.8990936018526554107666015625">
        <ele>1421.199951171875</ele>
        <time>2026-06-16T07:35:28.000Z</time>
        <extensions>
          <ns3:TrackPointExtension>
            <ns3:atemp>23.0</ns3:atemp>
          </ns3:TrackPointExtension>
        </extensions>
      </trkpt>
      <trkpt lat="42.6278434507548809051513671875" lon="19.8990936018526554107666015625">
        <ele>1421.199951171875</ele>
        <time>2026-06-16T07:35:29.000Z</time>
        <extensions>
          <ns3:TrackPointExtension>
            <ns3:atemp>23.0</ns3:atemp>
          </ns3:TrackPointExtension>
        </extensions>
      </trkpt>
      <trkpt lat="42.6278434507548809051513671875" lon="19.8990936018526554107666015625">
        <ele>1421.199951171875</ele>
        <time>2026-06-16T07:35:30.000Z</time>
        <extensions>
          <ns3:TrackPointExtension>
            <ns3:atemp>23.0</ns3:atemp>
          </ns3:TrackPointExtension>
        </extensions>
      </trkpt>
      <trkpt lat="42.6278434507548809051513671875" lon="19.8990936018526554107666015625">
        <ele>1421.199951171875</ele>
        <time>2026-06-16T07:35:31.000Z</time>
        <extensions>
          <ns3:TrackPointExtension>
            <ns3:atemp>23.0</ns3:atemp>
          </ns3:TrackPointExtension>
        </extensions>
      </trkpt>
      <trkpt lat="42.6278434507548809051513671875" lon="19.8990936018526554107666015625">
        <ele>1421.199951171875</ele>
        <time>2026-06-16T07:35:32.000Z</time>
        <extensions>
          <ns3:TrackPointExtension>
            <ns3:atemp>23.0</ns3:atemp>
          </ns3:TrackPointExtension>
        </extensions>
      </trkpt>
      <trkpt lat="42.6278434507548809051513671875" lon="19.8990936018526554107666015625">
        <ele>1421.199951171875</ele>
        <time>2026-06-16T07:35:33.000Z</time>
        <extensions>
          <ns3:TrackPointExtension>
            <ns3:atemp>23.0</ns3:atemp>
          </ns3:TrackPointExtension>
        </extensions>
      </trkpt>
      <trkpt lat="42.6278434507548809051513671875" lon="19.8990936018526554107666015625">
        <ele>1421.199951171875</ele>
        <time>2026-06-16T07:35:34.000Z</time>
        <extensions>
          <ns3:TrackPointExtension>
            <ns3:atemp>23.0</ns3:atemp>
          </ns3:TrackPointExtension>
        </extensions>
      </trkpt>
      <trkpt lat="42.6278434507548809051513671875" lon="19.8990936018526554107666015625">
        <ele>1421.199951171875</ele>
        <time>2026-06-16T07:35:35.000Z</time>
        <extensions>
          <ns3:TrackPointExtension>
            <ns3:atemp>23.0</ns3:atemp>
          </ns3:TrackPointExtension>
        </extensions>
      </trkpt>
      <trkpt lat="42.6278434507548809051513671875" lon="19.8990936018526554107666015625">
        <ele>1421.199951171875</ele>
        <time>2026-06-16T07:35:36.000Z</time>
        <extensions>
          <ns3:TrackPointExtension>
            <ns3:atemp>23.0</ns3:atemp>
          </ns3:TrackPointExtension>
        </extensions>
      </trkpt>
      <trkpt lat="42.6278434507548809051513671875" lon="19.8990936018526554107666015625">
        <ele>1421.199951171875</ele>
        <time>2026-06-16T07:35:37.000Z</time>
        <extensions>
          <ns3:TrackPointExtension>
            <ns3:atemp>23.0</ns3:atemp>
          </ns3:TrackPointExtension>
        </extensions>
      </trkpt>
      <trkpt lat="42.6278434507548809051513671875" lon="19.8990936018526554107666015625">
        <ele>1421.199951171875</ele>
        <time>2026-06-16T07:35:38.000Z</time>
        <extensions>
          <ns3:TrackPointExtension>
            <ns3:atemp>23.0</ns3:atemp>
          </ns3:TrackPointExtension>
        </extensions>
      </trkpt>
      <trkpt lat="42.6278434507548809051513671875" lon="19.8990936018526554107666015625">
        <ele>1421.199951171875</ele>
        <time>2026-06-16T07:35:39.000Z</time>
        <extensions>
          <ns3:TrackPointExtension>
            <ns3:atemp>23.0</ns3:atemp>
          </ns3:TrackPointExtension>
        </extensions>
      </trkpt>
      <trkpt lat="42.6278434507548809051513671875" lon="19.8990936018526554107666015625">
        <ele>1421.199951171875</ele>
        <time>2026-06-16T07:35:40.000Z</time>
        <extensions>
          <ns3:TrackPointExtension>
            <ns3:atemp>23.0</ns3:atemp>
          </ns3:TrackPointExtension>
        </extensions>
      </trkpt>
      <trkpt lat="42.6278434507548809051513671875" lon="19.8990936018526554107666015625">
        <ele>1421.199951171875</ele>
        <time>2026-06-16T07:35:41.000Z</time>
        <extensions>
          <ns3:TrackPointExtension>
            <ns3:atemp>23.0</ns3:atemp>
          </ns3:TrackPointExtension>
        </extensions>
      </trkpt>
      <trkpt lat="42.6278434507548809051513671875" lon="19.8990936018526554107666015625">
        <ele>1421.199951171875</ele>
        <time>2026-06-16T07:35:42.000Z</time>
        <extensions>
          <ns3:TrackPointExtension>
            <ns3:atemp>23.0</ns3:atemp>
          </ns3:TrackPointExtension>
        </extensions>
      </trkpt>
      <trkpt lat="42.6278434507548809051513671875" lon="19.8990936018526554107666015625">
        <ele>1421.199951171875</ele>
        <time>2026-06-16T07:35:43.000Z</time>
        <extensions>
          <ns3:TrackPointExtension>
            <ns3:atemp>23.0</ns3:atemp>
          </ns3:TrackPointExtension>
        </extensions>
      </trkpt>
      <trkpt lat="42.6278434507548809051513671875" lon="19.8990936018526554107666015625">
        <ele>1421.199951171875</ele>
        <time>2026-06-16T07:35:44.000Z</time>
        <extensions>
          <ns3:TrackPointExtension>
            <ns3:atemp>23.0</ns3:atemp>
          </ns3:TrackPointExtension>
        </extensions>
      </trkpt>
      <trkpt lat="42.6278434507548809051513671875" lon="19.8990936018526554107666015625">
        <ele>1421.199951171875</ele>
        <time>2026-06-16T07:35:45.000Z</time>
        <extensions>
          <ns3:TrackPointExtension>
            <ns3:atemp>23.0</ns3:atemp>
          </ns3:TrackPointExtension>
        </extensions>
      </trkpt>
      <trkpt lat="42.6278434507548809051513671875" lon="19.8990936018526554107666015625">
        <ele>1421.199951171875</ele>
        <time>2026-06-16T07:35:46.000Z</time>
        <extensions>
          <ns3:TrackPointExtension>
            <ns3:atemp>23.0</ns3:atemp>
          </ns3:TrackPointExtension>
        </extensions>
      </trkpt>
      <trkpt lat="42.6278434507548809051513671875" lon="19.8990936018526554107666015625">
        <ele>1421.199951171875</ele>
        <time>2026-06-16T07:35:47.000Z</time>
        <extensions>
          <ns3:TrackPointExtension>
            <ns3:atemp>23.0</ns3:atemp>
          </ns3:TrackPointExtension>
        </extensions>
      </trkpt>
      <trkpt lat="42.6278434507548809051513671875" lon="19.8990936018526554107666015625">
        <ele>1421.199951171875</ele>
        <time>2026-06-16T07:35:48.000Z</time>
        <extensions>
          <ns3:TrackPointExtension>
            <ns3:atemp>23.0</ns3:atemp>
          </ns3:TrackPointExtension>
        </extensions>
      </trkpt>
      <trkpt lat="42.6278434507548809051513671875" lon="19.8990936018526554107666015625">
        <ele>1421.199951171875</ele>
        <time>2026-06-16T07:35:49.000Z</time>
        <extensions>
          <ns3:TrackPointExtension>
            <ns3:atemp>23.0</ns3:atemp>
          </ns3:TrackPointExtension>
        </extensions>
      </trkpt>
      <trkpt lat="42.6278434507548809051513671875" lon="19.8990936018526554107666015625">
        <ele>1421.199951171875</ele>
        <time>2026-06-16T07:35:50.000Z</time>
        <extensions>
          <ns3:TrackPointExtension>
            <ns3:atemp>23.0</ns3:atemp>
          </ns3:TrackPointExtension>
        </extensions>
      </trkpt>
      <trkpt lat="42.6278434507548809051513671875" lon="19.8990936018526554107666015625">
        <ele>1421.199951171875</ele>
        <time>2026-06-16T07:35:51.000Z</time>
        <extensions>
          <ns3:TrackPointExtension>
            <ns3:atemp>23.0</ns3:atemp>
          </ns3:TrackPointExtension>
        </extensions>
      </trkpt>
      <trkpt lat="42.6278434507548809051513671875" lon="19.8990936018526554107666015625">
        <ele>1421.199951171875</ele>
        <time>2026-06-16T07:35:52.000Z</time>
        <extensions>
          <ns3:TrackPointExtension>
            <ns3:atemp>23.0</ns3:atemp>
          </ns3:TrackPointExtension>
        </extensions>
      </trkpt>
      <trkpt lat="42.6278434507548809051513671875" lon="19.8990936018526554107666015625">
        <ele>1421.199951171875</ele>
        <time>2026-06-16T07:35:53.000Z</time>
        <extensions>
          <ns3:TrackPointExtension>
            <ns3:atemp>23.0</ns3:atemp>
          </ns3:TrackPointExtension>
        </extensions>
      </trkpt>
      <trkpt lat="42.6278434507548809051513671875" lon="19.8990936018526554107666015625">
        <ele>1421.199951171875</ele>
        <time>2026-06-16T07:35:54.000Z</time>
        <extensions>
          <ns3:TrackPointExtension>
            <ns3:atemp>23.0</ns3:atemp>
          </ns3:TrackPointExtension>
        </extensions>
      </trkpt>
      <trkpt lat="42.6278434507548809051513671875" lon="19.8990936018526554107666015625">
        <ele>1421.199951171875</ele>
        <time>2026-06-16T07:35:55.000Z</time>
        <extensions>
          <ns3:TrackPointExtension>
            <ns3:atemp>23.0</ns3:atemp>
          </ns3:TrackPointExtension>
        </extensions>
      </trkpt>
      <trkpt lat="42.6278434507548809051513671875" lon="19.8990936018526554107666015625">
        <ele>1421.199951171875</ele>
        <time>2026-06-16T07:35:56.000Z</time>
        <extensions>
          <ns3:TrackPointExtension>
            <ns3:atemp>23.0</ns3:atemp>
          </ns3:TrackPointExtension>
        </extensions>
      </trkpt>
      <trkpt lat="42.6278434507548809051513671875" lon="19.8990936018526554107666015625">
        <ele>1421.199951171875</ele>
        <time>2026-06-16T07:35:57.000Z</time>
        <extensions>
          <ns3:TrackPointExtension>
            <ns3:atemp>23.0</ns3:atemp>
          </ns3:TrackPointExtension>
        </extensions>
      </trkpt>
      <trkpt lat="42.6278434507548809051513671875" lon="19.8990936018526554107666015625">
        <ele>1421.199951171875</ele>
        <time>2026-06-16T07:35:58.000Z</time>
        <extensions>
          <ns3:TrackPointExtension>
            <ns3:atemp>23.0</ns3:atemp>
          </ns3:TrackPointExtension>
        </extensions>
      </trkpt>
      <trkpt lat="42.6278434507548809051513671875" lon="19.8990936018526554107666015625">
        <ele>1421.199951171875</ele>
        <time>2026-06-16T07:35:59.000Z</time>
        <extensions>
          <ns3:TrackPointExtension>
            <ns3:atemp>23.0</ns3:atemp>
          </ns3:TrackPointExtension>
        </extensions>
      </trkpt>
      <trkpt lat="42.6278434507548809051513671875" lon="19.8990936018526554107666015625">
        <ele>1421.199951171875</ele>
        <time>2026-06-16T07:36:00.000Z</time>
        <extensions>
          <ns3:TrackPointExtension>
            <ns3:atemp>23.0</ns3:atemp>
          </ns3:TrackPointExtension>
        </extensions>
      </trkpt>
      <trkpt lat="42.6278434507548809051513671875" lon="19.8990936018526554107666015625">
        <ele>1421.199951171875</ele>
        <time>2026-06-16T07:36:01.000Z</time>
        <extensions>
          <ns3:TrackPointExtension>
            <ns3:atemp>23.0</ns3:atemp>
          </ns3:TrackPointExtension>
        </extensions>
      </trkpt>
      <trkpt lat="42.6278434507548809051513671875" lon="19.8990936018526554107666015625">
        <ele>1421.199951171875</ele>
        <time>2026-06-16T07:36:02.000Z</time>
        <extensions>
          <ns3:TrackPointExtension>
            <ns3:atemp>23.0</ns3:atemp>
          </ns3:TrackPointExtension>
        </extensions>
      </trkpt>
      <trkpt lat="42.6278434507548809051513671875" lon="19.8990936018526554107666015625">
        <ele>1421.199951171875</ele>
        <time>2026-06-16T07:36:03.000Z</time>
        <extensions>
          <ns3:TrackPointExtension>
            <ns3:atemp>23.0</ns3:atemp>
          </ns3:TrackPointExtension>
        </extensions>
      </trkpt>
      <trkpt lat="42.6278434507548809051513671875" lon="19.8990936018526554107666015625">
        <ele>1421.199951171875</ele>
        <time>2026-06-16T07:36:04.000Z</time>
        <extensions>
          <ns3:TrackPointExtension>
            <ns3:atemp>23.0</ns3:atemp>
          </ns3:TrackPointExtension>
        </extensions>
      </trkpt>
      <trkpt lat="42.6278434507548809051513671875" lon="19.8990936018526554107666015625">
        <ele>1421.199951171875</ele>
        <time>2026-06-16T07:36:05.000Z</time>
        <extensions>
          <ns3:TrackPointExtension>
            <ns3:atemp>23.0</ns3:atemp>
          </ns3:TrackPointExtension>
        </extensions>
      </trkpt>
      <trkpt lat="42.6278434507548809051513671875" lon="19.8990936018526554107666015625">
        <ele>1421.199951171875</ele>
        <time>2026-06-16T07:36:06.000Z</time>
        <extensions>
          <ns3:TrackPointExtension>
            <ns3:atemp>23.0</ns3:atemp>
          </ns3:TrackPointExtension>
        </extensions>
      </trkpt>
      <trkpt lat="42.6278434507548809051513671875" lon="19.8990936018526554107666015625">
        <ele>1421.199951171875</ele>
        <time>2026-06-16T07:36:07.000Z</time>
        <extensions>
          <ns3:TrackPointExtension>
            <ns3:atemp>23.0</ns3:atemp>
          </ns3:TrackPointExtension>
        </extensions>
      </trkpt>
      <trkpt lat="42.6278434507548809051513671875" lon="19.8990936018526554107666015625">
        <ele>1421.199951171875</ele>
        <time>2026-06-16T07:36:08.000Z</time>
        <extensions>
          <ns3:TrackPointExtension>
            <ns3:atemp>23.0</ns3:atemp>
          </ns3:TrackPointExtension>
        </extensions>
      </trkpt>
      <trkpt lat="42.6278434507548809051513671875" lon="19.8990936018526554107666015625">
        <ele>1421.199951171875</ele>
        <time>2026-06-16T07:36:09.000Z</time>
        <extensions>
          <ns3:TrackPointExtension>
            <ns3:atemp>23.0</ns3:atemp>
          </ns3:TrackPointExtension>
        </extensions>
      </trkpt>
      <trkpt lat="42.6278434507548809051513671875" lon="19.8990936018526554107666015625">
        <ele>1421.199951171875</ele>
        <time>2026-06-16T07:36:10.000Z</time>
        <extensions>
          <ns3:TrackPointExtension>
            <ns3:atemp>23.0</ns3:atemp>
          </ns3:TrackPointExtension>
        </extensions>
      </trkpt>
      <trkpt lat="42.6278434507548809051513671875" lon="19.8990936018526554107666015625">
        <ele>1421.199951171875</ele>
        <time>2026-06-16T07:36:11.000Z</time>
        <extensions>
          <ns3:TrackPointExtension>
            <ns3:atemp>23.0</ns3:atemp>
          </ns3:TrackPointExtension>
        </extensions>
      </trkpt>
      <trkpt lat="42.6278434507548809051513671875" lon="19.8990936018526554107666015625">
        <ele>1421.199951171875</ele>
        <time>2026-06-16T07:36:12.000Z</time>
        <extensions>
          <ns3:TrackPointExtension>
            <ns3:atemp>23.0</ns3:atemp>
          </ns3:TrackPointExtension>
        </extensions>
      </trkpt>
      <trkpt lat="42.6278434507548809051513671875" lon="19.8990936018526554107666015625">
        <ele>1421.199951171875</ele>
        <time>2026-06-16T07:36:13.000Z</time>
        <extensions>
          <ns3:TrackPointExtension>
            <ns3:atemp>23.0</ns3:atemp>
          </ns3:TrackPointExtension>
        </extensions>
      </trkpt>
      <trkpt lat="42.6278434507548809051513671875" lon="19.8990936018526554107666015625">
        <ele>1421.199951171875</ele>
        <time>2026-06-16T07:36:14.000Z</time>
        <extensions>
          <ns3:TrackPointExtension>
            <ns3:atemp>23.0</ns3:atemp>
          </ns3:TrackPointExtension>
        </extensions>
      </trkpt>
      <trkpt lat="42.6278434507548809051513671875" lon="19.8990936018526554107666015625">
        <ele>1421.199951171875</ele>
        <time>2026-06-16T07:36:15.000Z</time>
        <extensions>
          <ns3:TrackPointExtension>
            <ns3:atemp>23.0</ns3:atemp>
          </ns3:TrackPointExtension>
        </extensions>
      </trkpt>
      <trkpt lat="42.6278434507548809051513671875" lon="19.8990936018526554107666015625">
        <ele>1421.199951171875</ele>
        <time>2026-06-16T07:36:16.000Z</time>
        <extensions>
          <ns3:TrackPointExtension>
            <ns3:atemp>23.0</ns3:atemp>
          </ns3:TrackPointExtension>
        </extensions>
      </trkpt>
      <trkpt lat="42.6278434507548809051513671875" lon="19.8990936018526554107666015625">
        <ele>1421.199951171875</ele>
        <time>2026-06-16T07:36:17.000Z</time>
        <extensions>
          <ns3:TrackPointExtension>
            <ns3:atemp>23.0</ns3:atemp>
          </ns3:TrackPointExtension>
        </extensions>
      </trkpt>
      <trkpt lat="42.6278434507548809051513671875" lon="19.8990936018526554107666015625">
        <ele>1421.199951171875</ele>
        <time>2026-06-16T07:36:18.000Z</time>
        <extensions>
          <ns3:TrackPointExtension>
            <ns3:atemp>23.0</ns3:atemp>
          </ns3:TrackPointExtension>
        </extensions>
      </trkpt>
      <trkpt lat="42.6278434507548809051513671875" lon="19.8990936018526554107666015625">
        <ele>1421.199951171875</ele>
        <time>2026-06-16T07:36:19.000Z</time>
        <extensions>
          <ns3:TrackPointExtension>
            <ns3:atemp>23.0</ns3:atemp>
          </ns3:TrackPointExtension>
        </extensions>
      </trkpt>
      <trkpt lat="42.6278434507548809051513671875" lon="19.8990936018526554107666015625">
        <ele>1421.199951171875</ele>
        <time>2026-06-16T07:36:20.000Z</time>
        <extensions>
          <ns3:TrackPointExtension>
            <ns3:atemp>23.0</ns3:atemp>
          </ns3:TrackPointExtension>
        </extensions>
      </trkpt>
      <trkpt lat="42.6278434507548809051513671875" lon="19.8990936018526554107666015625">
        <ele>1421.199951171875</ele>
        <time>2026-06-16T07:36:21.000Z</time>
        <extensions>
          <ns3:TrackPointExtension>
            <ns3:atemp>23.0</ns3:atemp>
          </ns3:TrackPointExtension>
        </extensions>
      </trkpt>
      <trkpt lat="42.6278434507548809051513671875" lon="19.8990936018526554107666015625">
        <ele>1421.199951171875</ele>
        <time>2026-06-16T07:36:22.000Z</time>
        <extensions>
          <ns3:TrackPointExtension>
            <ns3:atemp>23.0</ns3:atemp>
          </ns3:TrackPointExtension>
        </extensions>
      </trkpt>
      <trkpt lat="42.6278434507548809051513671875" lon="19.8990936018526554107666015625">
        <ele>1421.199951171875</ele>
        <time>2026-06-16T07:36:23.000Z</time>
        <extensions>
          <ns3:TrackPointExtension>
            <ns3:atemp>23.0</ns3:atemp>
          </ns3:TrackPointExtension>
        </extensions>
      </trkpt>
      <trkpt lat="42.6278434507548809051513671875" lon="19.8990936018526554107666015625">
        <ele>1421.199951171875</ele>
        <time>2026-06-16T07:36:24.000Z</time>
        <extensions>
          <ns3:TrackPointExtension>
            <ns3:atemp>23.0</ns3:atemp>
          </ns3:TrackPointExtension>
        </extensions>
      </trkpt>
      <trkpt lat="42.6278434507548809051513671875" lon="19.8990936018526554107666015625">
        <ele>1421.199951171875</ele>
        <time>2026-06-16T07:36:25.000Z</time>
        <extensions>
          <ns3:TrackPointExtension>
            <ns3:atemp>23.0</ns3:atemp>
          </ns3:TrackPointExtension>
        </extensions>
      </trkpt>
      <trkpt lat="42.6278434507548809051513671875" lon="19.8990936018526554107666015625">
        <ele>1421.199951171875</ele>
        <time>2026-06-16T07:36:26.000Z</time>
        <extensions>
          <ns3:TrackPointExtension>
            <ns3:atemp>23.0</ns3:atemp>
          </ns3:TrackPointExtension>
        </extensions>
      </trkpt>
      <trkpt lat="42.6278434507548809051513671875" lon="19.8990936018526554107666015625">
        <ele>1421.199951171875</ele>
        <time>2026-06-16T07:36:27.000Z</time>
        <extensions>
          <ns3:TrackPointExtension>
            <ns3:atemp>23.0</ns3:atemp>
          </ns3:TrackPointExtension>
        </extensions>
      </trkpt>
      <trkpt lat="42.6278434507548809051513671875" lon="19.8990936018526554107666015625">
        <ele>1421.199951171875</ele>
        <time>2026-06-16T07:36:28.000Z</time>
        <extensions>
          <ns3:TrackPointExtension>
            <ns3:atemp>23.0</ns3:atemp>
          </ns3:TrackPointExtension>
        </extensions>
      </trkpt>
      <trkpt lat="42.6278434507548809051513671875" lon="19.8990936018526554107666015625">
        <ele>1421.199951171875</ele>
        <time>2026-06-16T07:36:29.000Z</time>
        <extensions>
          <ns3:TrackPointExtension>
            <ns3:atemp>23.0</ns3:atemp>
          </ns3:TrackPointExtension>
        </extensions>
      </trkpt>
      <trkpt lat="42.6278434507548809051513671875" lon="19.8990936018526554107666015625">
        <ele>1421.199951171875</ele>
        <time>2026-06-16T07:36:30.000Z</time>
        <extensions>
          <ns3:TrackPointExtension>
            <ns3:atemp>23.0</ns3:atemp>
          </ns3:TrackPointExtension>
        </extensions>
      </trkpt>
      <trkpt lat="42.6278434507548809051513671875" lon="19.8990936018526554107666015625">
        <ele>1421.199951171875</ele>
        <time>2026-06-16T07:36:31.000Z</time>
        <extensions>
          <ns3:TrackPointExtension>
            <ns3:atemp>23.0</ns3:atemp>
          </ns3:TrackPointExtension>
        </extensions>
      </trkpt>
      <trkpt lat="42.6278434507548809051513671875" lon="19.8990936018526554107666015625">
        <ele>1421.199951171875</ele>
        <time>2026-06-16T07:36:32.000Z</time>
        <extensions>
          <ns3:TrackPointExtension>
            <ns3:atemp>23.0</ns3:atemp>
          </ns3:TrackPointExtension>
        </extensions>
      </trkpt>
      <trkpt lat="42.6278434507548809051513671875" lon="19.8990936018526554107666015625">
        <ele>1421.199951171875</ele>
        <time>2026-06-16T07:36:33.000Z</time>
        <extensions>
          <ns3:TrackPointExtension>
            <ns3:atemp>23.0</ns3:atemp>
          </ns3:TrackPointExtension>
        </extensions>
      </trkpt>
      <trkpt lat="42.6278434507548809051513671875" lon="19.8990936018526554107666015625">
        <ele>1421.199951171875</ele>
        <time>2026-06-16T07:36:34.000Z</time>
        <extensions>
          <ns3:TrackPointExtension>
            <ns3:atemp>24.0</ns3:atemp>
          </ns3:TrackPointExtension>
        </extensions>
      </trkpt>
      <trkpt lat="42.6278434507548809051513671875" lon="19.8990936018526554107666015625">
        <ele>1421.199951171875</ele>
        <time>2026-06-16T07:36:35.000Z</time>
        <extensions>
          <ns3:TrackPointExtension>
            <ns3:atemp>24.0</ns3:atemp>
          </ns3:TrackPointExtension>
        </extensions>
      </trkpt>
      <trkpt lat="42.6278434507548809051513671875" lon="19.8990936018526554107666015625">
        <ele>1421.199951171875</ele>
        <time>2026-06-16T07:36:36.000Z</time>
        <extensions>
          <ns3:TrackPointExtension>
            <ns3:atemp>24.0</ns3:atemp>
          </ns3:TrackPointExtension>
        </extensions>
      </trkpt>
      <trkpt lat="42.6278434507548809051513671875" lon="19.8990936018526554107666015625">
        <ele>1421.199951171875</ele>
        <time>2026-06-16T07:36:37.000Z</time>
        <extensions>
          <ns3:TrackPointExtension>
            <ns3:atemp>24.0</ns3:atemp>
          </ns3:TrackPointExtension>
        </extensions>
      </trkpt>
      <trkpt lat="42.6278434507548809051513671875" lon="19.8990936018526554107666015625">
        <ele>1421.199951171875</ele>
        <time>2026-06-16T07:36:38.000Z</time>
        <extensions>
          <ns3:TrackPointExtension>
            <ns3:atemp>24.0</ns3:atemp>
          </ns3:TrackPointExtension>
        </extensions>
      </trkpt>
      <trkpt lat="42.6278434507548809051513671875" lon="19.8990936018526554107666015625">
        <ele>1421.199951171875</ele>
        <time>2026-06-16T07:36:39.000Z</time>
        <extensions>
          <ns3:TrackPointExtension>
            <ns3:atemp>24.0</ns3:atemp>
          </ns3:TrackPointExtension>
        </extensions>
      </trkpt>
      <trkpt lat="42.6278434507548809051513671875" lon="19.8990936018526554107666015625">
        <ele>1421.199951171875</ele>
        <time>2026-06-16T07:36:40.000Z</time>
        <extensions>
          <ns3:TrackPointExtension>
            <ns3:atemp>24.0</ns3:atemp>
          </ns3:TrackPointExtension>
        </extensions>
      </trkpt>
      <trkpt lat="42.6278434507548809051513671875" lon="19.8990936018526554107666015625">
        <ele>1421.199951171875</ele>
        <time>2026-06-16T07:36:41.000Z</time>
        <extensions>
          <ns3:TrackPointExtension>
            <ns3:atemp>24.0</ns3:atemp>
          </ns3:TrackPointExtension>
        </extensions>
      </trkpt>
      <trkpt lat="42.6278434507548809051513671875" lon="19.8990936018526554107666015625">
        <ele>1421.199951171875</ele>
        <time>2026-06-16T07:36:42.000Z</time>
        <extensions>
          <ns3:TrackPointExtension>
            <ns3:atemp>24.0</ns3:atemp>
          </ns3:TrackPointExtension>
        </extensions>
      </trkpt>
      <trkpt lat="42.6278434507548809051513671875" lon="19.8990936018526554107666015625">
        <ele>1421.199951171875</ele>
        <time>2026-06-16T07:36:43.000Z</time>
        <extensions>
          <ns3:TrackPointExtension>
            <ns3:atemp>24.0</ns3:atemp>
          </ns3:TrackPointExtension>
        </extensions>
      </trkpt>
      <trkpt lat="42.6278434507548809051513671875" lon="19.8990936018526554107666015625">
        <ele>1421.199951171875</ele>
        <time>2026-06-16T07:36:44.000Z</time>
        <extensions>
          <ns3:TrackPointExtension>
            <ns3:atemp>24.0</ns3:atemp>
          </ns3:TrackPointExtension>
        </extensions>
      </trkpt>
      <trkpt lat="42.6278434507548809051513671875" lon="19.8990936018526554107666015625">
        <ele>1421.199951171875</ele>
        <time>2026-06-16T07:36:45.000Z</time>
        <extensions>
          <ns3:TrackPointExtension>
            <ns3:atemp>24.0</ns3:atemp>
          </ns3:TrackPointExtension>
        </extensions>
      </trkpt>
      <trkpt lat="42.6278434507548809051513671875" lon="19.8990936018526554107666015625">
        <ele>1421.199951171875</ele>
        <time>2026-06-16T07:36:46.000Z</time>
        <extensions>
          <ns3:TrackPointExtension>
            <ns3:atemp>24.0</ns3:atemp>
          </ns3:TrackPointExtension>
        </extensions>
      </trkpt>
      <trkpt lat="42.6278434507548809051513671875" lon="19.8990936018526554107666015625">
        <ele>1421.199951171875</ele>
        <time>2026-06-16T07:36:47.000Z</time>
        <extensions>
          <ns3:TrackPointExtension>
            <ns3:atemp>24.0</ns3:atemp>
          </ns3:TrackPointExtension>
        </extensions>
      </trkpt>
      <trkpt lat="42.6278434507548809051513671875" lon="19.8990936018526554107666015625">
        <ele>1421.199951171875</ele>
        <time>2026-06-16T07:36:48.000Z</time>
        <extensions>
          <ns3:TrackPointExtension>
            <ns3:atemp>24.0</ns3:atemp>
          </ns3:TrackPointExtension>
        </extensions>
      </trkpt>
      <trkpt lat="42.6278434507548809051513671875" lon="19.8990936018526554107666015625">
        <ele>1421.199951171875</ele>
        <time>2026-06-16T07:36:49.000Z</time>
        <extensions>
          <ns3:TrackPointExtension>
            <ns3:atemp>24.0</ns3:atemp>
          </ns3:TrackPointExtension>
        </extensions>
      </trkpt>
      <trkpt lat="42.6278434507548809051513671875" lon="19.8990936018526554107666015625">
        <ele>1421.199951171875</ele>
        <time>2026-06-16T07:36:50.000Z</time>
        <extensions>
          <ns3:TrackPointExtension>
            <ns3:atemp>24.0</ns3:atemp>
          </ns3:TrackPointExtension>
        </extensions>
      </trkpt>
      <trkpt lat="42.6278434507548809051513671875" lon="19.8990936018526554107666015625">
        <ele>1421.199951171875</ele>
        <time>2026-06-16T07:36:51.000Z</time>
        <extensions>
          <ns3:TrackPointExtension>
            <ns3:atemp>24.0</ns3:atemp>
          </ns3:TrackPointExtension>
        </extensions>
      </trkpt>
      <trkpt lat="42.6278434507548809051513671875" lon="19.8990936018526554107666015625">
        <ele>1421.199951171875</ele>
        <time>2026-06-16T07:36:52.000Z</time>
        <extensions>
          <ns3:TrackPointExtension>
            <ns3:atemp>24.0</ns3:atemp>
          </ns3:TrackPointExtension>
        </extensions>
      </trkpt>
      <trkpt lat="42.6278434507548809051513671875" lon="19.8990936018526554107666015625">
        <ele>1421.199951171875</ele>
        <time>2026-06-16T07:36:53.000Z</time>
        <extensions>
          <ns3:TrackPointExtension>
            <ns3:atemp>24.0</ns3:atemp>
          </ns3:TrackPointExtension>
        </extensions>
      </trkpt>
      <trkpt lat="42.6278434507548809051513671875" lon="19.8990936018526554107666015625">
        <ele>1421.199951171875</ele>
        <time>2026-06-16T07:36:54.000Z</time>
        <extensions>
          <ns3:TrackPointExtension>
            <ns3:atemp>24.0</ns3:atemp>
          </ns3:TrackPointExtension>
        </extensions>
      </trkpt>
      <trkpt lat="42.6278434507548809051513671875" lon="19.8990936018526554107666015625">
        <ele>1421.199951171875</ele>
        <time>2026-06-16T07:36:55.000Z</time>
        <extensions>
          <ns3:TrackPointExtension>
            <ns3:atemp>24.0</ns3:atemp>
          </ns3:TrackPointExtension>
        </extensions>
      </trkpt>
      <trkpt lat="42.6278434507548809051513671875" lon="19.8990936018526554107666015625">
        <ele>1421.199951171875</ele>
        <time>2026-06-16T07:36:56.000Z</time>
        <extensions>
          <ns3:TrackPointExtension>
            <ns3:atemp>24.0</ns3:atemp>
          </ns3:TrackPointExtension>
        </extensions>
      </trkpt>
      <trkpt lat="42.6278434507548809051513671875" lon="19.8990936018526554107666015625">
        <ele>1421.199951171875</ele>
        <time>2026-06-16T07:36:57.000Z</time>
        <extensions>
          <ns3:TrackPointExtension>
            <ns3:atemp>24.0</ns3:atemp>
          </ns3:TrackPointExtension>
        </extensions>
      </trkpt>
      <trkpt lat="42.6278434507548809051513671875" lon="19.8990936018526554107666015625">
        <ele>1421.199951171875</ele>
        <time>2026-06-16T07:36:58.000Z</time>
        <extensions>
          <ns3:TrackPointExtension>
            <ns3:atemp>24.0</ns3:atemp>
          </ns3:TrackPointExtension>
        </extensions>
      </trkpt>
      <trkpt lat="42.6278434507548809051513671875" lon="19.8990936018526554107666015625">
        <ele>1421.199951171875</ele>
        <time>2026-06-16T07:36:59.000Z</time>
        <extensions>
          <ns3:TrackPointExtension>
            <ns3:atemp>24.0</ns3:atemp>
          </ns3:TrackPointExtension>
        </extensions>
      </trkpt>
      <trkpt lat="42.6278434507548809051513671875" lon="19.8990936018526554107666015625">
        <ele>1421.199951171875</ele>
        <time>2026-06-16T07:37:00.000Z</time>
        <extensions>
          <ns3:TrackPointExtension>
            <ns3:atemp>24.0</ns3:atemp>
          </ns3:TrackPointExtension>
        </extensions>
      </trkpt>
      <trkpt lat="42.6278434507548809051513671875" lon="19.8990936018526554107666015625">
        <ele>1421.199951171875</ele>
        <time>2026-06-16T07:37:01.000Z</time>
        <extensions>
          <ns3:TrackPointExtension>
            <ns3:atemp>24.0</ns3:atemp>
          </ns3:TrackPointExtension>
        </extensions>
      </trkpt>
      <trkpt lat="42.6278434507548809051513671875" lon="19.8990936018526554107666015625">
        <ele>1421.199951171875</ele>
        <time>2026-06-16T07:37:02.000Z</time>
        <extensions>
          <ns3:TrackPointExtension>
            <ns3:atemp>24.0</ns3:atemp>
          </ns3:TrackPointExtension>
        </extensions>
      </trkpt>
      <trkpt lat="42.6278434507548809051513671875" lon="19.8990936018526554107666015625">
        <ele>1421.199951171875</ele>
        <time>2026-06-16T07:37:03.000Z</time>
        <extensions>
          <ns3:TrackPointExtension>
            <ns3:atemp>24.0</ns3:atemp>
          </ns3:TrackPointExtension>
        </extensions>
      </trkpt>
      <trkpt lat="42.6278434507548809051513671875" lon="19.8990936018526554107666015625">
        <ele>1421.199951171875</ele>
        <time>2026-06-16T07:37:04.000Z</time>
        <extensions>
          <ns3:TrackPointExtension>
            <ns3:atemp>24.0</ns3:atemp>
          </ns3:TrackPointExtension>
        </extensions>
      </trkpt>
      <trkpt lat="42.6278434507548809051513671875" lon="19.8990936018526554107666015625">
        <ele>1421.199951171875</ele>
        <time>2026-06-16T07:37:05.000Z</time>
        <extensions>
          <ns3:TrackPointExtension>
            <ns3:atemp>24.0</ns3:atemp>
          </ns3:TrackPointExtension>
        </extensions>
      </trkpt>
      <trkpt lat="42.6278434507548809051513671875" lon="19.8990936018526554107666015625">
        <ele>1421.199951171875</ele>
        <time>2026-06-16T07:37:06.000Z</time>
        <extensions>
          <ns3:TrackPointExtension>
            <ns3:atemp>24.0</ns3:atemp>
          </ns3:TrackPointExtension>
        </extensions>
      </trkpt>
      <trkpt lat="42.6278434507548809051513671875" lon="19.8990936018526554107666015625">
        <ele>1421.199951171875</ele>
        <time>2026-06-16T07:37:07.000Z</time>
        <extensions>
          <ns3:TrackPointExtension>
            <ns3:atemp>24.0</ns3:atemp>
          </ns3:TrackPointExtension>
        </extensions>
      </trkpt>
      <trkpt lat="42.6278434507548809051513671875" lon="19.8990936018526554107666015625">
        <ele>1421.199951171875</ele>
        <time>2026-06-16T07:37:08.000Z</time>
        <extensions>
          <ns3:TrackPointExtension>
            <ns3:atemp>24.0</ns3:atemp>
          </ns3:TrackPointExtension>
        </extensions>
      </trkpt>
      <trkpt lat="42.6278434507548809051513671875" lon="19.8990936018526554107666015625">
        <ele>1421.199951171875</ele>
        <time>2026-06-16T07:37:09.000Z</time>
        <extensions>
          <ns3:TrackPointExtension>
            <ns3:atemp>24.0</ns3:atemp>
          </ns3:TrackPointExtension>
        </extensions>
      </trkpt>
      <trkpt lat="42.6278434507548809051513671875" lon="19.8990936018526554107666015625">
        <ele>1421.199951171875</ele>
        <time>2026-06-16T07:37:10.000Z</time>
        <extensions>
          <ns3:TrackPointExtension>
            <ns3:atemp>24.0</ns3:atemp>
          </ns3:TrackPointExtension>
        </extensions>
      </trkpt>
      <trkpt lat="42.6278434507548809051513671875" lon="19.8990936018526554107666015625">
        <ele>1421.199951171875</ele>
        <time>2026-06-16T07:37:11.000Z</time>
        <extensions>
          <ns3:TrackPointExtension>
            <ns3:atemp>24.0</ns3:atemp>
          </ns3:TrackPointExtension>
        </extensions>
      </trkpt>
      <trkpt lat="42.6278434507548809051513671875" lon="19.8990936018526554107666015625">
        <ele>1421.199951171875</ele>
        <time>2026-06-16T07:37:12.000Z</time>
        <extensions>
          <ns3:TrackPointExtension>
            <ns3:atemp>24.0</ns3:atemp>
          </ns3:TrackPointExtension>
        </extensions>
      </trkpt>
      <trkpt lat="42.6278434507548809051513671875" lon="19.8990936018526554107666015625">
        <ele>1421.199951171875</ele>
        <time>2026-06-16T07:37:13.000Z</time>
        <extensions>
          <ns3:TrackPointExtension>
            <ns3:atemp>24.0</ns3:atemp>
          </ns3:TrackPointExtension>
        </extensions>
      </trkpt>
      <trkpt lat="42.6278434507548809051513671875" lon="19.8990936018526554107666015625">
        <ele>1421.199951171875</ele>
        <time>2026-06-16T07:37:14.000Z</time>
        <extensions>
          <ns3:TrackPointExtension>
            <ns3:atemp>24.0</ns3:atemp>
          </ns3:TrackPointExtension>
        </extensions>
      </trkpt>
      <trkpt lat="42.6278434507548809051513671875" lon="19.8990936018526554107666015625">
        <ele>1421.199951171875</ele>
        <time>2026-06-16T07:37:15.000Z</time>
        <extensions>
          <ns3:TrackPointExtension>
            <ns3:atemp>24.0</ns3:atemp>
          </ns3:TrackPointExtension>
        </extensions>
      </trkpt>
      <trkpt lat="42.6278434507548809051513671875" lon="19.8990936018526554107666015625">
        <ele>1421.199951171875</ele>
        <time>2026-06-16T07:37:16.000Z</time>
        <extensions>
          <ns3:TrackPointExtension>
            <ns3:atemp>24.0</ns3:atemp>
          </ns3:TrackPointExtension>
        </extensions>
      </trkpt>
      <trkpt lat="42.6278434507548809051513671875" lon="19.8990936018526554107666015625">
        <ele>1421.199951171875</ele>
        <time>2026-06-16T07:37:17.000Z</time>
        <extensions>
          <ns3:TrackPointExtension>
            <ns3:atemp>24.0</ns3:atemp>
          </ns3:TrackPointExtension>
        </extensions>
      </trkpt>
      <trkpt lat="42.6278434507548809051513671875" lon="19.8990936018526554107666015625">
        <ele>1421.199951171875</ele>
        <time>2026-06-16T07:37:18.000Z</time>
        <extensions>
          <ns3:TrackPointExtension>
            <ns3:atemp>24.0</ns3:atemp>
          </ns3:TrackPointExtension>
        </extensions>
      </trkpt>
      <trkpt lat="42.6278434507548809051513671875" lon="19.8990936018526554107666015625">
        <ele>1421.199951171875</ele>
        <time>2026-06-16T07:37:19.000Z</time>
        <extensions>
          <ns3:TrackPointExtension>
            <ns3:atemp>24.0</ns3:atemp>
          </ns3:TrackPointExtension>
        </extensions>
      </trkpt>
      <trkpt lat="42.6278434507548809051513671875" lon="19.8990936018526554107666015625">
        <ele>1421.199951171875</ele>
        <time>2026-06-16T07:37:20.000Z</time>
        <extensions>
          <ns3:TrackPointExtension>
            <ns3:atemp>24.0</ns3:atemp>
          </ns3:TrackPointExtension>
        </extensions>
      </trkpt>
      <trkpt lat="42.6278434507548809051513671875" lon="19.8990936018526554107666015625">
        <ele>1421.199951171875</ele>
        <time>2026-06-16T07:37:21.000Z</time>
        <extensions>
          <ns3:TrackPointExtension>
            <ns3:atemp>24.0</ns3:atemp>
          </ns3:TrackPointExtension>
        </extensions>
      </trkpt>
      <trkpt lat="42.6278434507548809051513671875" lon="19.8990936018526554107666015625">
        <ele>1421.199951171875</ele>
        <time>2026-06-16T07:37:22.000Z</time>
        <extensions>
          <ns3:TrackPointExtension>
            <ns3:atemp>24.0</ns3:atemp>
          </ns3:TrackPointExtension>
        </extensions>
      </trkpt>
      <trkpt lat="42.6278434507548809051513671875" lon="19.8990936018526554107666015625">
        <ele>1421.199951171875</ele>
        <time>2026-06-16T07:37:23.000Z</time>
        <extensions>
          <ns3:TrackPointExtension>
            <ns3:atemp>24.0</ns3:atemp>
          </ns3:TrackPointExtension>
        </extensions>
      </trkpt>
      <trkpt lat="42.6278434507548809051513671875" lon="19.8990936018526554107666015625">
        <ele>1421.199951171875</ele>
        <time>2026-06-16T07:37:24.000Z</time>
        <extensions>
          <ns3:TrackPointExtension>
            <ns3:atemp>24.0</ns3:atemp>
          </ns3:TrackPointExtension>
        </extensions>
      </trkpt>
      <trkpt lat="42.627841942012310028076171875" lon="19.89909787662327289581298828125">
        <ele>1421.199951171875</ele>
        <time>2026-06-16T07:37:25.000Z</time>
        <extensions>
          <ns3:TrackPointExtension>
            <ns3:atemp>24.0</ns3:atemp>
          </ns3:TrackPointExtension>
        </extensions>
      </trkpt>
      <trkpt lat="42.62783833779394626617431640625" lon="19.89912101067602634429931640625">
        <ele>1421.199951171875</ele>
        <time>2026-06-16T07:37:26.000Z</time>
        <extensions>
          <ns3:TrackPointExtension>
            <ns3:atemp>24.0</ns3:atemp>
          </ns3:TrackPointExtension>
        </extensions>
      </trkpt>
      <trkpt lat="42.62783984653651714324951171875" lon="19.89912687800824642181396484375">
        <ele>1421.199951171875</ele>
        <time>2026-06-16T07:37:27.000Z</time>
        <extensions>
          <ns3:TrackPointExtension>
            <ns3:atemp>24.0</ns3:atemp>
          </ns3:TrackPointExtension>
        </extensions>
      </trkpt>
      <trkpt lat="42.627841271460056304931640625" lon="19.8991388641297817230224609375">
        <ele>1421.199951171875</ele>
        <time>2026-06-16T07:37:28.000Z</time>
        <extensions>
          <ns3:TrackPointExtension>
            <ns3:atemp>24.0</ns3:atemp>
          </ns3:TrackPointExtension>
        </extensions>
      </trkpt>
      <trkpt lat="42.62784554623067378997802734375" lon="19.89914213307201862335205078125">
        <ele>1421.199951171875</ele>
        <time>2026-06-16T07:37:29.000Z</time>
        <extensions>
          <ns3:TrackPointExtension>
            <ns3:atemp>24.0</ns3:atemp>
          </ns3:TrackPointExtension>
        </extensions>
      </trkpt>
      <trkpt lat="42.6278424449265003204345703125" lon="19.89913710393011569976806640625">
        <ele>1421.199951171875</ele>
        <time>2026-06-16T07:37:30.000Z</time>
        <extensions>
          <ns3:TrackPointExtension>
            <ns3:atemp>24.0</ns3:atemp>
          </ns3:TrackPointExtension>
        </extensions>
      </trkpt>
      <trkpt lat="42.6278424449265003204345703125" lon="19.899137020111083984375">
        <ele>1421.199951171875</ele>
        <time>2026-06-16T07:37:31.000Z</time>
        <extensions>
          <ns3:TrackPointExtension>
            <ns3:atemp>24.0</ns3:atemp>
          </ns3:TrackPointExtension>
        </extensions>
      </trkpt>
      <trkpt lat="42.6278424449265003204345703125" lon="19.899137020111083984375">
        <ele>1421.199951171875</ele>
        <time>2026-06-16T07:37:32.000Z</time>
        <extensions>
          <ns3:TrackPointExtension>
            <ns3:atemp>24.0</ns3:atemp>
          </ns3:TrackPointExtension>
        </extensions>
      </trkpt>
      <trkpt lat="42.6278424449265003204345703125" lon="19.899137020111083984375">
        <ele>1421.199951171875</ele>
        <time>2026-06-16T07:37:33.000Z</time>
        <extensions>
          <ns3:TrackPointExtension>
            <ns3:atemp>24.0</ns3:atemp>
          </ns3:TrackPointExtension>
        </extensions>
      </trkpt>
      <trkpt lat="42.6278424449265003204345703125" lon="19.899137020111083984375">
        <ele>1421.199951171875</ele>
        <time>2026-06-16T07:37:34.000Z</time>
        <extensions>
          <ns3:TrackPointExtension>
            <ns3:atemp>24.0</ns3:atemp>
          </ns3:TrackPointExtension>
        </extensions>
      </trkpt>
      <trkpt lat="42.6278424449265003204345703125" lon="19.899137020111083984375">
        <ele>1421.199951171875</ele>
        <time>2026-06-16T07:37:35.000Z</time>
        <extensions>
          <ns3:TrackPointExtension>
            <ns3:atemp>24.0</ns3:atemp>
          </ns3:TrackPointExtension>
        </extensions>
      </trkpt>
      <trkpt lat="42.6278424449265003204345703125" lon="19.899137020111083984375">
        <ele>1421.199951171875</ele>
        <time>2026-06-16T07:37:36.000Z</time>
        <extensions>
          <ns3:TrackPointExtension>
            <ns3:atemp>24.0</ns3:atemp>
          </ns3:TrackPointExtension>
        </extensions>
      </trkpt>
      <trkpt lat="42.6278424449265003204345703125" lon="19.899137020111083984375">
        <ele>1421.199951171875</ele>
        <time>2026-06-16T07:37:37.000Z</time>
        <extensions>
          <ns3:TrackPointExtension>
            <ns3:atemp>24.0</ns3:atemp>
          </ns3:TrackPointExtension>
        </extensions>
      </trkpt>
      <trkpt lat="42.6278424449265003204345703125" lon="19.899137020111083984375">
        <ele>1421.199951171875</ele>
        <time>2026-06-16T07:37:38.000Z</time>
        <extensions>
          <ns3:TrackPointExtension>
            <ns3:atemp>24.0</ns3:atemp>
          </ns3:TrackPointExtension>
        </extensions>
      </trkpt>
      <trkpt lat="42.6278424449265003204345703125" lon="19.899137020111083984375">
        <ele>1421.199951171875</ele>
        <time>2026-06-16T07:37:39.000Z</time>
        <extensions>
          <ns3:TrackPointExtension>
            <ns3:atemp>24.0</ns3:atemp>
          </ns3:TrackPointExtension>
        </extensions>
      </trkpt>
      <trkpt lat="42.6278424449265003204345703125" lon="19.899137020111083984375">
        <ele>1421.199951171875</ele>
        <time>2026-06-16T07:37:40.000Z</time>
        <extensions>
          <ns3:TrackPointExtension>
            <ns3:atemp>24.0</ns3:atemp>
          </ns3:TrackPointExtension>
        </extensions>
      </trkpt>
      <trkpt lat="42.6278424449265003204345703125" lon="19.899137020111083984375">
        <ele>1421.199951171875</ele>
        <time>2026-06-16T07:37:41.000Z</time>
        <extensions>
          <ns3:TrackPointExtension>
            <ns3:atemp>24.0</ns3:atemp>
          </ns3:TrackPointExtension>
        </extensions>
      </trkpt>
      <trkpt lat="42.6278424449265003204345703125" lon="19.899137020111083984375">
        <ele>1421.199951171875</ele>
        <time>2026-06-16T07:37:42.000Z</time>
        <extensions>
          <ns3:TrackPointExtension>
            <ns3:atemp>24.0</ns3:atemp>
          </ns3:TrackPointExtension>
        </extensions>
      </trkpt>
      <trkpt lat="42.6278424449265003204345703125" lon="19.899137020111083984375">
        <ele>1421.199951171875</ele>
        <time>2026-06-16T07:37:43.000Z</time>
        <extensions>
          <ns3:TrackPointExtension>
            <ns3:atemp>24.0</ns3:atemp>
          </ns3:TrackPointExtension>
        </extensions>
      </trkpt>
      <trkpt lat="42.6278424449265003204345703125" lon="19.899137020111083984375">
        <ele>1421.199951171875</ele>
        <time>2026-06-16T07:37:44.000Z</time>
        <extensions>
          <ns3:TrackPointExtension>
            <ns3:atemp>24.0</ns3:atemp>
          </ns3:TrackPointExtension>
        </extensions>
      </trkpt>
      <trkpt lat="42.6278424449265003204345703125" lon="19.899137020111083984375">
        <ele>1421.199951171875</ele>
        <time>2026-06-16T07:37:45.000Z</time>
        <extensions>
          <ns3:TrackPointExtension>
            <ns3:atemp>24.0</ns3:atemp>
          </ns3:TrackPointExtension>
        </extensions>
      </trkpt>
      <trkpt lat="42.6278424449265003204345703125" lon="19.899137020111083984375">
        <ele>1421.199951171875</ele>
        <time>2026-06-16T07:37:46.000Z</time>
        <extensions>
          <ns3:TrackPointExtension>
            <ns3:atemp>24.0</ns3:atemp>
          </ns3:TrackPointExtension>
        </extensions>
      </trkpt>
      <trkpt lat="42.6278424449265003204345703125" lon="19.899137020111083984375">
        <ele>1421.199951171875</ele>
        <time>2026-06-16T07:37:47.000Z</time>
        <extensions>
          <ns3:TrackPointExtension>
            <ns3:atemp>24.0</ns3:atemp>
          </ns3:TrackPointExtension>
        </extensions>
      </trkpt>
      <trkpt lat="42.6278424449265003204345703125" lon="19.899137020111083984375">
        <ele>1421.199951171875</ele>
        <time>2026-06-16T07:37:48.000Z</time>
        <extensions>
          <ns3:TrackPointExtension>
            <ns3:atemp>24.0</ns3:atemp>
          </ns3:TrackPointExtension>
        </extensions>
      </trkpt>
      <trkpt lat="42.6278424449265003204345703125" lon="19.899137020111083984375">
        <ele>1421.199951171875</ele>
        <time>2026-06-16T07:37:49.000Z</time>
        <extensions>
          <ns3:TrackPointExtension>
            <ns3:atemp>24.0</ns3:atemp>
          </ns3:TrackPointExtension>
        </extensions>
      </trkpt>
      <trkpt lat="42.6278424449265003204345703125" lon="19.899137020111083984375">
        <ele>1421.199951171875</ele>
        <time>2026-06-16T07:37:50.000Z</time>
        <extensions>
          <ns3:TrackPointExtension>
            <ns3:atemp>24.0</ns3:atemp>
          </ns3:TrackPointExtension>
        </extensions>
      </trkpt>
      <trkpt lat="42.6278424449265003204345703125" lon="19.899137020111083984375">
        <ele>1421.199951171875</ele>
        <time>2026-06-16T07:37:51.000Z</time>
        <extensions>
          <ns3:TrackPointExtension>
            <ns3:atemp>24.0</ns3:atemp>
          </ns3:TrackPointExtension>
        </extensions>
      </trkpt>
      <trkpt lat="42.62784705497324466705322265625" lon="19.89913634955883026123046875">
        <ele>1421.199951171875</ele>
        <time>2026-06-16T07:37:52.000Z</time>
        <extensions>
          <ns3:TrackPointExtension>
            <ns3:atemp>24.0</ns3:atemp>
          </ns3:TrackPointExtension>
        </extensions>
      </trkpt>
      <trkpt lat="42.62785795144736766815185546875" lon="19.8991469107568264007568359375">
        <ele>1421.199951171875</ele>
        <time>2026-06-16T07:37:53.000Z</time>
        <extensions>
          <ns3:TrackPointExtension>
            <ns3:atemp>24.0</ns3:atemp>
          </ns3:TrackPointExtension>
        </extensions>
      </trkpt>
      <trkpt lat="42.6278582029044628143310546875" lon="19.899146743118762969970703125">
        <ele>1421.199951171875</ele>
        <time>2026-06-16T07:37:54.000Z</time>
        <extensions>
          <ns3:TrackPointExtension>
            <ns3:atemp>24.0</ns3:atemp>
          </ns3:TrackPointExtension>
        </extensions>
      </trkpt>
      <trkpt lat="42.6278582029044628143310546875" lon="19.899146743118762969970703125">
        <ele>1421.199951171875</ele>
        <time>2026-06-16T07:37:55.000Z</time>
        <extensions>
          <ns3:TrackPointExtension>
            <ns3:atemp>24.0</ns3:atemp>
          </ns3:TrackPointExtension>
        </extensions>
      </trkpt>
      <trkpt lat="42.6278582029044628143310546875" lon="19.899146743118762969970703125">
        <ele>1421.199951171875</ele>
        <time>2026-06-16T07:37:56.000Z</time>
        <extensions>
          <ns3:TrackPointExtension>
            <ns3:atemp>24.0</ns3:atemp>
          </ns3:TrackPointExtension>
        </extensions>
      </trkpt>
      <trkpt lat="42.6278582029044628143310546875" lon="19.899146743118762969970703125">
        <ele>1421.199951171875</ele>
        <time>2026-06-16T07:37:57.000Z</time>
        <extensions>
          <ns3:TrackPointExtension>
            <ns3:atemp>24.0</ns3:atemp>
          </ns3:TrackPointExtension>
        </extensions>
      </trkpt>
      <trkpt lat="42.6278582029044628143310546875" lon="19.899146743118762969970703125">
        <ele>1421.199951171875</ele>
        <time>2026-06-16T07:37:58.000Z</time>
        <extensions>
          <ns3:TrackPointExtension>
            <ns3:atemp>24.0</ns3:atemp>
          </ns3:TrackPointExtension>
        </extensions>
      </trkpt>
      <trkpt lat="42.6278582029044628143310546875" lon="19.899146743118762969970703125">
        <ele>1421.199951171875</ele>
        <time>2026-06-16T07:37:59.000Z</time>
        <extensions>
          <ns3:TrackPointExtension>
            <ns3:atemp>24.0</ns3:atemp>
          </ns3:TrackPointExtension>
        </extensions>
      </trkpt>
      <trkpt lat="42.6278582029044628143310546875" lon="19.899146743118762969970703125">
        <ele>1421.199951171875</ele>
        <time>2026-06-16T07:38:00.000Z</time>
        <extensions>
          <ns3:TrackPointExtension>
            <ns3:atemp>24.0</ns3:atemp>
          </ns3:TrackPointExtension>
        </extensions>
      </trkpt>
      <trkpt lat="42.6278582029044628143310546875" lon="19.899146743118762969970703125">
        <ele>1421.199951171875</ele>
        <time>2026-06-16T07:38:01.000Z</time>
        <extensions>
          <ns3:TrackPointExtension>
            <ns3:atemp>24.0</ns3:atemp>
          </ns3:TrackPointExtension>
        </extensions>
      </trkpt>
      <trkpt lat="42.6278582029044628143310546875" lon="19.899146743118762969970703125">
        <ele>1421.199951171875</ele>
        <time>2026-06-16T07:38:02.000Z</time>
        <extensions>
          <ns3:TrackPointExtension>
            <ns3:atemp>24.0</ns3:atemp>
          </ns3:TrackPointExtension>
        </extensions>
      </trkpt>
      <trkpt lat="42.6278582029044628143310546875" lon="19.899146743118762969970703125">
        <ele>1421.199951171875</ele>
        <time>2026-06-16T07:38:03.000Z</time>
        <extensions>
          <ns3:TrackPointExtension>
            <ns3:atemp>24.0</ns3:atemp>
          </ns3:TrackPointExtension>
        </extensions>
      </trkpt>
      <trkpt lat="42.6278582029044628143310546875" lon="19.899146743118762969970703125">
        <ele>1421.199951171875</ele>
        <time>2026-06-16T07:38:04.000Z</time>
        <extensions>
          <ns3:TrackPointExtension>
            <ns3:atemp>24.0</ns3:atemp>
          </ns3:TrackPointExtension>
        </extensions>
      </trkpt>
      <trkpt lat="42.6278582029044628143310546875" lon="19.899146743118762969970703125">
        <ele>1421.199951171875</ele>
        <time>2026-06-16T07:38:05.000Z</time>
        <extensions>
          <ns3:TrackPointExtension>
            <ns3:atemp>24.0</ns3:atemp>
          </ns3:TrackPointExtension>
        </extensions>
      </trkpt>
      <trkpt lat="42.62786046601831912994384765625" lon="19.89914414472877979278564453125">
        <ele>1421.199951171875</ele>
        <time>2026-06-16T07:38:06.000Z</time>
        <extensions>
          <ns3:TrackPointExtension>
            <ns3:atemp>24.0</ns3:atemp>
          </ns3:TrackPointExtension>
        </extensions>
      </trkpt>
      <trkpt lat="42.6278726197779178619384765625" lon="19.899145066738128662109375">
        <ele>1421.199951171875</ele>
        <time>2026-06-16T07:38:07.000Z</time>
        <extensions>
          <ns3:TrackPointExtension>
            <ns3:atemp>24.0</ns3:atemp>
          </ns3:TrackPointExtension>
        </extensions>
      </trkpt>
      <trkpt lat="42.62787974439561367034912109375" lon="19.8991465754806995391845703125">
        <ele>1421.199951171875</ele>
        <time>2026-06-16T07:38:08.000Z</time>
        <extensions>
          <ns3:TrackPointExtension>
            <ns3:atemp>24.0</ns3:atemp>
          </ns3:TrackPointExtension>
        </extensions>
      </trkpt>
      <trkpt lat="42.6278823427855968475341796875" lon="19.89914900623261928558349609375">
        <ele>1421.199951171875</ele>
        <time>2026-06-16T07:38:09.000Z</time>
        <extensions>
          <ns3:TrackPointExtension>
            <ns3:atemp>24.0</ns3:atemp>
          </ns3:TrackPointExtension>
        </extensions>
      </trkpt>
      <trkpt lat="42.6278823427855968475341796875" lon="19.89914900623261928558349609375">
        <ele>1421.199951171875</ele>
        <time>2026-06-16T07:38:10.000Z</time>
        <extensions>
          <ns3:TrackPointExtension>
            <ns3:atemp>24.0</ns3:atemp>
          </ns3:TrackPointExtension>
        </extensions>
      </trkpt>
      <trkpt lat="42.6278823427855968475341796875" lon="19.89914900623261928558349609375">
        <ele>1421.199951171875</ele>
        <time>2026-06-16T07:38:11.000Z</time>
        <extensions>
          <ns3:TrackPointExtension>
            <ns3:atemp>24.0</ns3:atemp>
          </ns3:TrackPointExtension>
        </extensions>
      </trkpt>
      <trkpt lat="42.6278823427855968475341796875" lon="19.89914900623261928558349609375">
        <ele>1421.199951171875</ele>
        <time>2026-06-16T07:38:12.000Z</time>
        <extensions>
          <ns3:TrackPointExtension>
            <ns3:atemp>24.0</ns3:atemp>
          </ns3:TrackPointExtension>
        </extensions>
      </trkpt>
      <trkpt lat="42.6278823427855968475341796875" lon="19.8991489224135875701904296875">
        <ele>1421.199951171875</ele>
        <time>2026-06-16T07:38:13.000Z</time>
        <extensions>
          <ns3:TrackPointExtension>
            <ns3:atemp>24.0</ns3:atemp>
          </ns3:TrackPointExtension>
        </extensions>
      </trkpt>
      <trkpt lat="42.6278897188603878021240234375" lon="19.89915185607969760894775390625">
        <ele>1421.199951171875</ele>
        <time>2026-06-16T07:38:14.000Z</time>
        <extensions>
          <ns3:TrackPointExtension>
            <ns3:atemp>24.0</ns3:atemp>
          </ns3:TrackPointExtension>
        </extensions>
      </trkpt>
      <trkpt lat="42.6279007829725742340087890625" lon="19.8991576395928859710693359375">
        <ele>1421.199951171875</ele>
        <time>2026-06-16T07:38:15.000Z</time>
        <extensions>
          <ns3:TrackPointExtension>
            <ns3:atemp>24.0</ns3:atemp>
          </ns3:TrackPointExtension>
        </extensions>
      </trkpt>
      <trkpt lat="42.62791293673217296600341796875" lon="19.8991603218019008636474609375">
        <ele>1421.199951171875</ele>
        <time>2026-06-16T07:38:16.000Z</time>
        <extensions>
          <ns3:TrackPointExtension>
            <ns3:atemp>24.0</ns3:atemp>
          </ns3:TrackPointExtension>
        </extensions>
      </trkpt>
      <trkpt lat="42.6279309578239917755126953125" lon="19.899180270731449127197265625">
        <ele>1421</ele>
        <time>2026-06-16T07:38:17.000Z</time>
        <extensions>
          <ns3:TrackPointExtension>
            <ns3:atemp>24.0</ns3:atemp>
          </ns3:TrackPointExtension>
        </extensions>
      </trkpt>
      <trkpt lat="42.62794948183000087738037109375" lon="19.8992042429745197296142578125">
        <ele>1421</ele>
        <time>2026-06-16T07:38:18.000Z</time>
        <extensions>
          <ns3:TrackPointExtension>
            <ns3:atemp>24.0</ns3:atemp>
          </ns3:TrackPointExtension>
        </extensions>
      </trkpt>
      <trkpt lat="42.62796909548342227935791015625" lon="19.89922947250306606292724609375">
        <ele>1421</ele>
        <time>2026-06-16T07:38:19.000Z</time>
        <extensions>
          <ns3:TrackPointExtension>
            <ns3:atemp>24.0</ns3:atemp>
          </ns3:TrackPointExtension>
        </extensions>
      </trkpt>
      <trkpt lat="42.62799155898392200469970703125" lon="19.89926216192543506622314453125">
        <ele>1421</ele>
        <time>2026-06-16T07:38:20.000Z</time>
        <extensions>
          <ns3:TrackPointExtension>
            <ns3:atemp>24.0</ns3:atemp>
          </ns3:TrackPointExtension>
        </extensions>
      </trkpt>
      <trkpt lat="42.62801486067473888397216796875" lon="19.89929904229938983917236328125">
        <ele>1421</ele>
        <time>2026-06-16T07:38:21.000Z</time>
        <extensions>
          <ns3:TrackPointExtension>
            <ns3:atemp>24.0</ns3:atemp>
          </ns3:TrackPointExtension>
        </extensions>
      </trkpt>
      <trkpt lat="42.628039754927158355712890625" lon="19.89933508448302745819091796875">
        <ele>1421</ele>
        <time>2026-06-16T07:38:22.000Z</time>
        <extensions>
          <ns3:TrackPointExtension>
            <ns3:atemp>24.0</ns3:atemp>
          </ns3:TrackPointExtension>
        </extensions>
      </trkpt>
      <trkpt lat="42.628064565360546112060546875" lon="19.89937280304729938507080078125">
        <ele>1420.800048828125</ele>
        <time>2026-06-16T07:38:23.000Z</time>
        <extensions>
          <ns3:TrackPointExtension>
            <ns3:atemp>24.0</ns3:atemp>
          </ns3:TrackPointExtension>
        </extensions>
      </trkpt>
      <trkpt lat="42.62809800915420055389404296875" lon="19.89940197207033634185791015625">
        <ele>1420.800048828125</ele>
        <time>2026-06-16T07:38:24.000Z</time>
        <extensions>
          <ns3:TrackPointExtension>
            <ns3:atemp>24.0</ns3:atemp>
          </ns3:TrackPointExtension>
        </extensions>
      </trkpt>
      <trkpt lat="42.62813589535653591156005859375" lon="19.8994360864162445068359375">
        <ele>1420.800048828125</ele>
        <time>2026-06-16T07:38:25.000Z</time>
        <extensions>
          <ns3:TrackPointExtension>
            <ns3:atemp>24.0</ns3:atemp>
          </ns3:TrackPointExtension>
        </extensions>
      </trkpt>
      <trkpt lat="42.6281710155308246612548828125" lon="19.8994744755327701568603515625">
        <ele>1420.5999755859375</ele>
        <time>2026-06-16T07:38:26.000Z</time>
        <extensions>
          <ns3:TrackPointExtension>
            <ns3:atemp>24.0</ns3:atemp>
          </ns3:TrackPointExtension>
        </extensions>
      </trkpt>
      <trkpt lat="42.62820261530578136444091796875" lon="19.899508170783519744873046875">
        <ele>1420.5999755859375</ele>
        <time>2026-06-16T07:38:27.000Z</time>
        <extensions>
          <ns3:TrackPointExtension>
            <ns3:atemp>24.0</ns3:atemp>
          </ns3:TrackPointExtension>
        </extensions>
      </trkpt>
      <trkpt lat="42.628239579498767852783203125" lon="19.89953893236815929412841796875">
        <ele>1420.4000244140625</ele>
        <time>2026-06-16T07:38:28.000Z</time>
        <extensions>
          <ns3:TrackPointExtension>
            <ns3:atemp>24.0</ns3:atemp>
          </ns3:TrackPointExtension>
        </extensions>
      </trkpt>
      <trkpt lat="42.6282759569585323333740234375" lon="19.8995710350573062896728515625">
        <ele>1420.4000244140625</ele>
        <time>2026-06-16T07:38:29.000Z</time>
        <extensions>
          <ns3:TrackPointExtension>
            <ns3:atemp>24.0</ns3:atemp>
          </ns3:TrackPointExtension>
        </extensions>
      </trkpt>
      <trkpt lat="42.6283158548176288604736328125" lon="19.89960481412708759307861328125">
        <ele>1420.199951171875</ele>
        <time>2026-06-16T07:38:30.000Z</time>
        <extensions>
          <ns3:TrackPointExtension>
            <ns3:atemp>24.0</ns3:atemp>
          </ns3:TrackPointExtension>
        </extensions>
      </trkpt>
      <trkpt lat="42.62835583649575710296630859375" lon="19.89963767118752002716064453125">
        <ele>1420.199951171875</ele>
        <time>2026-06-16T07:38:31.000Z</time>
        <extensions>
          <ns3:TrackPointExtension>
            <ns3:atemp>24.0</ns3:atemp>
          </ns3:TrackPointExtension>
        </extensions>
      </trkpt>
      <trkpt lat="42.62839690782129764556884765625" lon="19.8996706120669841766357421875">
        <ele>1420</ele>
        <time>2026-06-16T07:38:32.000Z</time>
        <extensions>
          <ns3:TrackPointExtension>
            <ns3:atemp>24.0</ns3:atemp>
          </ns3:TrackPointExtension>
        </extensions>
      </trkpt>
      <trkpt lat="42.62843797914683818817138671875" lon="19.8997014574706554412841796875">
        <ele>1419.800048828125</ele>
        <time>2026-06-16T07:38:33.000Z</time>
        <extensions>
          <ns3:TrackPointExtension>
            <ns3:atemp>24.0</ns3:atemp>
          </ns3:TrackPointExtension>
        </extensions>
      </trkpt>
      <trkpt lat="42.62847921811044216156005859375" lon="19.89973641000688076019287109375">
        <ele>1419.4000244140625</ele>
        <time>2026-06-16T07:38:34.000Z</time>
        <extensions>
          <ns3:TrackPointExtension>
            <ns3:atemp>24.0</ns3:atemp>
          </ns3:TrackPointExtension>
        </extensions>
      </trkpt>
      <trkpt lat="42.6285233907401561737060546875" lon="19.89977949298918247222900390625">
        <ele>1419.199951171875</ele>
        <time>2026-06-16T07:38:35.000Z</time>
        <extensions>
          <ns3:TrackPointExtension>
            <ns3:atemp>24.0</ns3:atemp>
          </ns3:TrackPointExtension>
        </extensions>
      </trkpt>
      <trkpt lat="42.62855733744800090789794921875" lon="19.89984101615846157073974609375">
        <ele>1418.800048828125</ele>
        <time>2026-06-16T07:38:36.000Z</time>
        <extensions>
          <ns3:TrackPointExtension>
            <ns3:atemp>24.0</ns3:atemp>
          </ns3:TrackPointExtension>
        </extensions>
      </trkpt>
      <trkpt lat="42.62858583591878414154052734375" lon="19.89990538917481899261474609375">
        <ele>1418.5999755859375</ele>
        <time>2026-06-16T07:38:37.000Z</time>
        <extensions>
          <ns3:TrackPointExtension>
            <ns3:atemp>24.0</ns3:atemp>
          </ns3:TrackPointExtension>
        </extensions>
      </trkpt>
      <trkpt lat="42.62860561721026897430419921875" lon="19.899970851838588714599609375">
        <ele>1418.4000244140625</ele>
        <time>2026-06-16T07:38:38.000Z</time>
        <extensions>
          <ns3:TrackPointExtension>
            <ns3:atemp>24.0</ns3:atemp>
          </ns3:TrackPointExtension>
        </extensions>
      </trkpt>
      <trkpt lat="42.62862321920692920684814453125" lon="19.90003279410302639007568359375">
        <ele>1418.199951171875</ele>
        <time>2026-06-16T07:38:39.000Z</time>
        <extensions>
          <ns3:TrackPointExtension>
            <ns3:atemp>24.0</ns3:atemp>
          </ns3:TrackPointExtension>
        </extensions>
      </trkpt>
      <trkpt lat="42.6286424137651920318603515625" lon="19.9000960774719715118408203125">
        <ele>1418</ele>
        <time>2026-06-16T07:38:40.000Z</time>
        <extensions>
          <ns3:TrackPointExtension>
            <ns3:atemp>24.0</ns3:atemp>
          </ns3:TrackPointExtension>
        </extensions>
      </trkpt>
      <trkpt lat="42.62866982258856296539306640625" lon="19.90015952847898006439208984375">
        <ele>1417.800048828125</ele>
        <time>2026-06-16T07:38:41.000Z</time>
        <extensions>
          <ns3:TrackPointExtension>
            <ns3:atemp>24.0</ns3:atemp>
          </ns3:TrackPointExtension>
        </extensions>
      </trkpt>
      <trkpt lat="42.62869915924966335296630859375" lon="19.90021954290568828582763671875">
        <ele>1417.5999755859375</ele>
        <time>2026-06-16T07:38:42.000Z</time>
        <extensions>
          <ns3:TrackPointExtension>
            <ns3:atemp>24.0</ns3:atemp>
          </ns3:TrackPointExtension>
        </extensions>
      </trkpt>
      <trkpt lat="42.6287295855581760406494140625" lon="19.9002814851701259613037109375">
        <ele>1417.4000244140625</ele>
        <time>2026-06-16T07:38:43.000Z</time>
        <extensions>
          <ns3:TrackPointExtension>
            <ns3:atemp>24.0</ns3:atemp>
          </ns3:TrackPointExtension>
        </extensions>
      </trkpt>
      <trkpt lat="42.62876839376986026763916015625" lon="19.90033806301653385162353515625">
        <ele>1417.199951171875</ele>
        <time>2026-06-16T07:38:44.000Z</time>
        <extensions>
          <ns3:TrackPointExtension>
            <ns3:atemp>24.0</ns3:atemp>
          </ns3:TrackPointExtension>
        </extensions>
      </trkpt>
      <trkpt lat="42.62879923917353153228759765625" lon="19.90039908327162265777587890625">
        <ele>1417</ele>
        <time>2026-06-16T07:38:45.000Z</time>
        <extensions>
          <ns3:TrackPointExtension>
            <ns3:atemp>24.0</ns3:atemp>
          </ns3:TrackPointExtension>
        </extensions>
      </trkpt>
      <trkpt lat="42.62883461080491542816162109375" lon="19.900456331670284271240234375">
        <ele>1416.800048828125</ele>
        <time>2026-06-16T07:38:46.000Z</time>
        <extensions>
          <ns3:TrackPointExtension>
            <ns3:atemp>24.0</ns3:atemp>
          </ns3:TrackPointExtension>
        </extensions>
      </trkpt>
      <trkpt lat="42.6288663782179355621337890625" lon="19.90051190368831157684326171875">
        <ele>1416.5999755859375</ele>
        <time>2026-06-16T07:38:47.000Z</time>
        <extensions>
          <ns3:TrackPointExtension>
            <ns3:atemp>24.0</ns3:atemp>
          </ns3:TrackPointExtension>
        </extensions>
      </trkpt>
      <trkpt lat="42.62889797799289226531982421875" lon="19.9005627818405628204345703125">
        <ele>1416.4000244140625</ele>
        <time>2026-06-16T07:38:48.000Z</time>
        <extensions>
          <ns3:TrackPointExtension>
            <ns3:atemp>24.0</ns3:atemp>
          </ns3:TrackPointExtension>
        </extensions>
      </trkpt>
      <trkpt lat="42.62893636710941791534423828125" lon="19.90060351788997650146484375">
        <ele>1416.4000244140625</ele>
        <time>2026-06-16T07:38:49.000Z</time>
        <extensions>
          <ns3:TrackPointExtension>
            <ns3:atemp>24.0</ns3:atemp>
          </ns3:TrackPointExtension>
        </extensions>
      </trkpt>
      <trkpt lat="42.6289753429591655731201171875" lon="19.90063947625458240509033203125">
        <ele>1416.4000244140625</ele>
        <time>2026-06-16T07:38:50.000Z</time>
        <extensions>
          <ns3:TrackPointExtension>
            <ns3:atemp>24.0</ns3:atemp>
          </ns3:TrackPointExtension>
        </extensions>
      </trkpt>
      <trkpt lat="42.6290078647434711456298828125" lon="19.90067836828529834747314453125">
        <ele>1416.4000244140625</ele>
        <time>2026-06-16T07:38:51.000Z</time>
        <extensions>
          <ns3:TrackPointExtension>
            <ns3:atemp>24.0</ns3:atemp>
          </ns3:TrackPointExtension>
        </extensions>
      </trkpt>
      <trkpt lat="42.629042901098728179931640625" lon="19.90071726031601428985595703125">
        <ele>1416.199951171875</ele>
        <time>2026-06-16T07:38:52.000Z</time>
        <extensions>
          <ns3:TrackPointExtension>
            <ns3:atemp>24.0</ns3:atemp>
          </ns3:TrackPointExtension>
        </extensions>
      </trkpt>
      <trkpt lat="42.62908070348203182220458984375" lon="19.90075514651834964752197265625">
        <ele>1416.199951171875</ele>
        <time>2026-06-16T07:38:53.000Z</time>
        <extensions>
          <ns3:TrackPointExtension>
            <ns3:atemp>24.0</ns3:atemp>
          </ns3:TrackPointExtension>
        </extensions>
      </trkpt>
      <trkpt lat="42.62912529520690441131591796875" lon="19.90078750066459178924560546875">
        <ele>1416</ele>
        <time>2026-06-16T07:38:54.000Z</time>
        <extensions>
          <ns3:TrackPointExtension>
            <ns3:atemp>24.0</ns3:atemp>
          </ns3:TrackPointExtension>
        </extensions>
      </trkpt>
      <trkpt lat="42.62916921637952327728271484375" lon="19.90081499330699443817138671875">
        <ele>1416</ele>
        <time>2026-06-16T07:38:55.000Z</time>
        <extensions>
          <ns3:TrackPointExtension>
            <ns3:atemp>24.0</ns3:atemp>
          </ns3:TrackPointExtension>
        </extensions>
      </trkpt>
      <trkpt lat="42.6292075216770172119140625" lon="19.9008429050445556640625">
        <ele>1416</ele>
        <time>2026-06-16T07:38:56.000Z</time>
        <extensions>
          <ns3:TrackPointExtension>
            <ns3:atemp>24.0</ns3:atemp>
          </ns3:TrackPointExtension>
        </extensions>
      </trkpt>
      <trkpt lat="42.6292495988309383392333984375" lon="19.9008678831160068511962890625">
        <ele>1415.800048828125</ele>
        <time>2026-06-16T07:38:57.000Z</time>
        <extensions>
          <ns3:TrackPointExtension>
            <ns3:atemp>24.0</ns3:atemp>
          </ns3:TrackPointExtension>
        </extensions>
      </trkpt>
      <trkpt lat="42.6292871497571468353271484375" lon="19.900919683277606964111328125">
        <ele>1415.800048828125</ele>
        <time>2026-06-16T07:38:58.000Z</time>
        <extensions>
          <ns3:TrackPointExtension>
            <ns3:atemp>24.0</ns3:atemp>
          </ns3:TrackPointExtension>
        </extensions>
      </trkpt>
      <trkpt lat="42.6293267123401165008544921875" lon="19.9009832181036472320556640625">
        <ele>1415.800048828125</ele>
        <time>2026-06-16T07:38:59.000Z</time>
        <extensions>
          <ns3:TrackPointExtension>
            <ns3:atemp>24.0</ns3:atemp>
          </ns3:TrackPointExtension>
        </extensions>
      </trkpt>
      <trkpt lat="42.6293649338185787200927734375" lon="19.9010526202619075775146484375">
        <ele>1415.5999755859375</ele>
        <time>2026-06-16T07:39:00.000Z</time>
        <extensions>
          <ns3:TrackPointExtension>
            <ns3:atemp>24.0</ns3:atemp>
          </ns3:TrackPointExtension>
        </extensions>
      </trkpt>
      <trkpt lat="42.6294014789164066314697265625" lon="19.90111338905990123748779296875">
        <ele>1415.199951171875</ele>
        <time>2026-06-16T07:39:01.000Z</time>
        <extensions>
          <ns3:TrackPointExtension>
            <ns3:atemp>24.0</ns3:atemp>
          </ns3:TrackPointExtension>
        </extensions>
      </trkpt>
      <trkpt lat="42.6294346712529659271240234375" lon="19.90117340348660945892333984375">
        <ele>1415</ele>
        <time>2026-06-16T07:39:02.000Z</time>
        <extensions>
          <ns3:TrackPointExtension>
            <ns3:atemp>24.0</ns3:atemp>
          </ns3:TrackPointExtension>
        </extensions>
      </trkpt>
      <trkpt lat="42.6294718869030475616455078125" lon="19.9012403748929500579833984375">
        <ele>1414.800048828125</ele>
        <time>2026-06-16T07:39:03.000Z</time>
        <extensions>
          <ns3:TrackPointExtension>
            <ns3:atemp>24.0</ns3:atemp>
          </ns3:TrackPointExtension>
        </extensions>
      </trkpt>
      <trkpt lat="42.62950834818184375762939453125" lon="19.90130064077675342559814453125">
        <ele>1414.4000244140625</ele>
        <time>2026-06-16T07:39:04.000Z</time>
        <extensions>
          <ns3:TrackPointExtension>
            <ns3:atemp>24.0</ns3:atemp>
          </ns3:TrackPointExtension>
        </extensions>
      </trkpt>
      <trkpt lat="42.62954740785062313079833984375" lon="19.9013619124889373779296875">
        <ele>1414</ele>
        <time>2026-06-16T07:39:05.000Z</time>
        <extensions>
          <ns3:TrackPointExtension>
            <ns3:atemp>24.0</ns3:atemp>
          </ns3:TrackPointExtension>
        </extensions>
      </trkpt>
      <trkpt lat="42.629592753946781158447265625" lon="19.90142318420112133026123046875">
        <ele>1413.800048828125</ele>
        <time>2026-06-16T07:39:06.000Z</time>
        <extensions>
          <ns3:TrackPointExtension>
            <ns3:atemp>24.0</ns3:atemp>
          </ns3:TrackPointExtension>
        </extensions>
      </trkpt>
      <trkpt lat="42.62964044697582721710205078125" lon="19.90148487500846385955810546875">
        <ele>1413.5999755859375</ele>
        <time>2026-06-16T07:39:07.000Z</time>
        <extensions>
          <ns3:TrackPointExtension>
            <ns3:atemp>24.0</ns3:atemp>
          </ns3:TrackPointExtension>
        </extensions>
      </trkpt>
      <trkpt lat="42.6296891458332538604736328125" lon="19.901547990739345550537109375">
        <ele>1413.199951171875</ele>
        <time>2026-06-16T07:39:08.000Z</time>
        <extensions>
          <ns3:TrackPointExtension>
            <ns3:atemp>24.0</ns3:atemp>
          </ns3:TrackPointExtension>
        </extensions>
      </trkpt>
      <trkpt lat="42.62973683886229991912841796875" lon="19.90160691551864147186279296875">
        <ele>1412.800048828125</ele>
        <time>2026-06-16T07:39:09.000Z</time>
        <extensions>
          <ns3:TrackPointExtension>
            <ns3:atemp>24.0</ns3:atemp>
          </ns3:TrackPointExtension>
        </extensions>
      </trkpt>
      <trkpt lat="42.6297855377197265625" lon="19.90167128853499889373779296875">
        <ele>1412.4000244140625</ele>
        <time>2026-06-16T07:39:10.000Z</time>
        <extensions>
          <ns3:TrackPointExtension>
            <ns3:atemp>24.0</ns3:atemp>
          </ns3:TrackPointExtension>
        </extensions>
      </trkpt>
      <trkpt lat="42.62983390130102634429931640625" lon="19.90174002014100551605224609375">
        <ele>1412</ele>
        <time>2026-06-16T07:39:11.000Z</time>
        <extensions>
          <ns3:TrackPointExtension>
            <ns3:atemp>24.0</ns3:atemp>
          </ns3:TrackPointExtension>
        </extensions>
      </trkpt>
      <trkpt lat="42.62987614609301090240478515625" lon="19.90181989967823028564453125">
        <ele>1411.5999755859375</ele>
        <time>2026-06-16T07:39:12.000Z</time>
        <extensions>
          <ns3:TrackPointExtension>
            <ns3:atemp>24.0</ns3:atemp>
          </ns3:TrackPointExtension>
        </extensions>
      </trkpt>
      <trkpt lat="42.6299100928008556365966796875" lon="19.9018934927880764007568359375">
        <ele>1411.4000244140625</ele>
        <time>2026-06-16T07:39:13.000Z</time>
        <extensions>
          <ns3:TrackPointExtension>
            <ns3:atemp>24.0</ns3:atemp>
          </ns3:TrackPointExtension>
        </extensions>
      </trkpt>
      <trkpt lat="42.62994320131838321685791015625" lon="19.90196742117404937744140625">
        <ele>1411.199951171875</ele>
        <time>2026-06-16T07:39:14.000Z</time>
        <extensions>
          <ns3:TrackPointExtension>
            <ns3:atemp>24.0</ns3:atemp>
          </ns3:TrackPointExtension>
        </extensions>
      </trkpt>
      <trkpt lat="42.62997756712138652801513671875" lon="19.90203590132296085357666015625">
        <ele>1410.800048828125</ele>
        <time>2026-06-16T07:39:15.000Z</time>
        <extensions>
          <ns3:TrackPointExtension>
            <ns3:atemp>24.0</ns3:atemp>
          </ns3:TrackPointExtension>
        </extensions>
      </trkpt>
      <trkpt lat="42.63001629151403903961181640625" lon="19.9020995199680328369140625">
        <ele>1410.800048828125</ele>
        <time>2026-06-16T07:39:16.000Z</time>
        <extensions>
          <ns3:TrackPointExtension>
            <ns3:atemp>24.0</ns3:atemp>
          </ns3:TrackPointExtension>
        </extensions>
      </trkpt>
      <trkpt lat="42.6300596259534358978271484375" lon="19.90215576253831386566162109375">
        <ele>1410.5999755859375</ele>
        <time>2026-06-16T07:39:17.000Z</time>
        <extensions>
          <ns3:TrackPointExtension>
            <ns3:atemp>24.0</ns3:atemp>
          </ns3:TrackPointExtension>
        </extensions>
      </trkpt>
      <trkpt lat="42.6301033794879913330078125" lon="19.90221326239407062530517578125">
        <ele>1410.4000244140625</ele>
        <time>2026-06-16T07:39:18.000Z</time>
        <extensions>
          <ns3:TrackPointExtension>
            <ns3:atemp>24.0</ns3:atemp>
          </ns3:TrackPointExtension>
        </extensions>
      </trkpt>
      <trkpt lat="42.63014269061386585235595703125" lon="19.90226305089890956878662109375">
        <ele>1410.199951171875</ele>
        <time>2026-06-16T07:39:19.000Z</time>
        <extensions>
          <ns3:TrackPointExtension>
            <ns3:atemp>24.0</ns3:atemp>
          </ns3:TrackPointExtension>
        </extensions>
      </trkpt>
      <trkpt lat="42.63017236255109310150146484375" lon="19.90231015719473361968994140625">
        <ele>1410.199951171875</ele>
        <time>2026-06-16T07:39:20.000Z</time>
        <extensions>
          <ns3:TrackPointExtension>
            <ns3:atemp>24.0</ns3:atemp>
          </ns3:TrackPointExtension>
        </extensions>
      </trkpt>
      <trkpt lat="42.630202956497669219970703125" lon="19.90235793404281139373779296875">
        <ele>1410.199951171875</ele>
        <time>2026-06-16T07:39:21.000Z</time>
        <extensions>
          <ns3:TrackPointExtension>
            <ns3:atemp>24.0</ns3:atemp>
          </ns3:TrackPointExtension>
        </extensions>
      </trkpt>
      <trkpt lat="42.63023355044424533843994140625" lon="19.90240462124347686767578125">
        <ele>1410</ele>
        <time>2026-06-16T07:39:22.000Z</time>
        <extensions>
          <ns3:TrackPointExtension>
            <ns3:atemp>24.0</ns3:atemp>
          </ns3:TrackPointExtension>
        </extensions>
      </trkpt>
      <trkpt lat="42.63026121072471141815185546875" lon="19.9024534039199352264404296875">
        <ele>1410</ele>
        <time>2026-06-16T07:39:23.000Z</time>
        <extensions>
          <ns3:TrackPointExtension>
            <ns3:atemp>24.0</ns3:atemp>
          </ns3:TrackPointExtension>
        </extensions>
      </trkpt>
      <trkpt lat="42.6302923075854778289794921875" lon="19.90248098038136959075927734375">
        <ele>1410</ele>
        <time>2026-06-16T07:39:24.000Z</time>
        <extensions>
          <ns3:TrackPointExtension>
            <ns3:atemp>24.0</ns3:atemp>
          </ns3:TrackPointExtension>
        </extensions>
      </trkpt>
      <trkpt lat="42.63030915521085262298583984375" lon="19.9025244824588298797607421875">
        <ele>1409.800048828125</ele>
        <time>2026-06-16T07:39:25.000Z</time>
        <extensions>
          <ns3:TrackPointExtension>
            <ns3:atemp>24.0</ns3:atemp>
          </ns3:TrackPointExtension>
        </extensions>
      </trkpt>
      <trkpt lat="42.630330026149749755859375" lon="19.9025640450417995452880859375">
        <ele>1409.5999755859375</ele>
        <time>2026-06-16T07:39:26.000Z</time>
        <extensions>
          <ns3:TrackPointExtension>
            <ns3:atemp>24.0</ns3:atemp>
          </ns3:TrackPointExtension>
        </extensions>
      </trkpt>
      <trkpt lat="42.630351819097995758056640625" lon="19.9026026017963886260986328125">
        <ele>1409.5999755859375</ele>
        <time>2026-06-16T07:39:27.000Z</time>
        <extensions>
          <ns3:TrackPointExtension>
            <ns3:atemp>24.0</ns3:atemp>
          </ns3:TrackPointExtension>
        </extensions>
      </trkpt>
      <trkpt lat="42.63036833144724369049072265625" lon="19.90263369865715503692626953125">
        <ele>1409.800048828125</ele>
        <time>2026-06-16T07:39:28.000Z</time>
        <extensions>
          <ns3:TrackPointExtension>
            <ns3:atemp>24.0</ns3:atemp>
          </ns3:TrackPointExtension>
        </extensions>
      </trkpt>
      <trkpt lat="42.63038157485425472259521484375" lon="19.9026619456708431243896484375">
        <ele>1409.800048828125</ele>
        <time>2026-06-16T07:39:29.000Z</time>
        <extensions>
          <ns3:TrackPointExtension>
            <ns3:atemp>24.0</ns3:atemp>
          </ns3:TrackPointExtension>
        </extensions>
      </trkpt>
      <trkpt lat="42.63039062730967998504638671875" lon="19.90268667228519916534423828125">
        <ele>1410</ele>
        <time>2026-06-16T07:39:30.000Z</time>
        <extensions>
          <ns3:TrackPointExtension>
            <ns3:atemp>24.0</ns3:atemp>
          </ns3:TrackPointExtension>
        </extensions>
      </trkpt>
      <trkpt lat="42.63040244579315185546875" lon="19.90270377136766910552978515625">
        <ele>1410</ele>
        <time>2026-06-16T07:39:31.000Z</time>
        <extensions>
          <ns3:TrackPointExtension>
            <ns3:atemp>24.0</ns3:atemp>
          </ns3:TrackPointExtension>
        </extensions>
      </trkpt>
      <trkpt lat="42.630418203771114349365234375" lon="19.90272724069654941558837890625">
        <ele>1410.199951171875</ele>
        <time>2026-06-16T07:39:32.000Z</time>
        <extensions>
          <ns3:TrackPointExtension>
            <ns3:atemp>24.0</ns3:atemp>
          </ns3:TrackPointExtension>
        </extensions>
      </trkpt>
      <trkpt lat="42.63043790124356746673583984375" lon="19.9027531407773494720458984375">
        <ele>1410</ele>
        <time>2026-06-16T07:39:33.000Z</time>
        <extensions>
          <ns3:TrackPointExtension>
            <ns3:atemp>24.0</ns3:atemp>
          </ns3:TrackPointExtension>
        </extensions>
      </trkpt>
      <trkpt lat="42.63046254403889179229736328125" lon="19.90278289653360843658447265625">
        <ele>1409.800048828125</ele>
        <time>2026-06-16T07:39:34.000Z</time>
        <extensions>
          <ns3:TrackPointExtension>
            <ns3:atemp>24.0</ns3:atemp>
          </ns3:TrackPointExtension>
        </extensions>
      </trkpt>
      <trkpt lat="42.6304847560822963714599609375" lon="19.90282380022108554840087890625">
        <ele>1409.800048828125</ele>
        <time>2026-06-16T07:39:35.000Z</time>
        <extensions>
          <ns3:TrackPointExtension>
            <ns3:atemp>24.0</ns3:atemp>
          </ns3:TrackPointExtension>
        </extensions>
      </trkpt>
      <trkpt lat="42.630506716668605804443359375" lon="19.902864955365657806396484375">
        <ele>1409.800048828125</ele>
        <time>2026-06-16T07:39:36.000Z</time>
        <extensions>
          <ns3:TrackPointExtension>
            <ns3:atemp>24.0</ns3:atemp>
          </ns3:TrackPointExtension>
        </extensions>
      </trkpt>
      <trkpt lat="42.63053345493972301483154296875" lon="19.9029066972434520721435546875">
        <ele>1409.800048828125</ele>
        <time>2026-06-16T07:39:37.000Z</time>
        <extensions>
          <ns3:TrackPointExtension>
            <ns3:atemp>24.0</ns3:atemp>
          </ns3:TrackPointExtension>
        </extensions>
      </trkpt>
      <trkpt lat="42.6305551640689373016357421875" lon="19.90295070223510265350341796875">
        <ele>1409.800048828125</ele>
        <time>2026-06-16T07:39:38.000Z</time>
        <extensions>
          <ns3:TrackPointExtension>
            <ns3:atemp>24.0</ns3:atemp>
          </ns3:TrackPointExtension>
        </extensions>
      </trkpt>
      <trkpt lat="42.63058022595942020416259765625" lon="19.90298389457166194915771484375">
        <ele>1410</ele>
        <time>2026-06-16T07:39:39.000Z</time>
        <extensions>
          <ns3:TrackPointExtension>
            <ns3:atemp>24.0</ns3:atemp>
          </ns3:TrackPointExtension>
        </extensions>
      </trkpt>
      <trkpt lat="42.63060159981250762939453125" lon="19.90301884710788726806640625">
        <ele>1410.199951171875</ele>
        <time>2026-06-16T07:39:40.000Z</time>
        <extensions>
          <ns3:TrackPointExtension>
            <ns3:atemp>24.0</ns3:atemp>
          </ns3:TrackPointExtension>
        </extensions>
      </trkpt>
      <trkpt lat="42.63061903417110443115234375" lon="19.90305061452090740203857421875">
        <ele>1410.199951171875</ele>
        <time>2026-06-16T07:39:41.000Z</time>
        <extensions>
          <ns3:TrackPointExtension>
            <ns3:atemp>24.0</ns3:atemp>
          </ns3:TrackPointExtension>
        </extensions>
      </trkpt>
      <trkpt lat="42.63063571415841579437255859375" lon="19.90308464504778385162353515625">
        <ele>1410.5999755859375</ele>
        <time>2026-06-16T07:39:42.000Z</time>
        <extensions>
          <ns3:TrackPointExtension>
            <ns3:atemp>24.0</ns3:atemp>
          </ns3:TrackPointExtension>
        </extensions>
      </trkpt>
      <trkpt lat="42.6306559145450592041015625" lon="19.9031172506511211395263671875">
        <ele>1410.800048828125</ele>
        <time>2026-06-16T07:39:43.000Z</time>
        <extensions>
          <ns3:TrackPointExtension>
            <ns3:atemp>24.0</ns3:atemp>
          </ns3:TrackPointExtension>
        </extensions>
      </trkpt>
      <trkpt lat="42.6306758634746074676513671875" lon="19.9031455814838409423828125">
        <ele>1410.800048828125</ele>
        <time>2026-06-16T07:39:44.000Z</time>
        <extensions>
          <ns3:TrackPointExtension>
            <ns3:atemp>24.0</ns3:atemp>
          </ns3:TrackPointExtension>
        </extensions>
      </trkpt>
      <trkpt lat="42.63069623149931430816650390625" lon="19.90317843854427337646484375">
        <ele>1410.800048828125</ele>
        <time>2026-06-16T07:39:45.000Z</time>
        <extensions>
          <ns3:TrackPointExtension>
            <ns3:atemp>24.0</ns3:atemp>
          </ns3:TrackPointExtension>
        </extensions>
      </trkpt>
      <trkpt lat="42.63071768917143344879150390625" lon="19.90320467390120029449462890625">
        <ele>1410.800048828125</ele>
        <time>2026-06-16T07:39:46.000Z</time>
        <extensions>
          <ns3:TrackPointExtension>
            <ns3:atemp>24.0</ns3:atemp>
          </ns3:TrackPointExtension>
        </extensions>
      </trkpt>
      <trkpt lat="42.63073864392936229705810546875" lon="19.90323233418166637420654296875">
        <ele>1410.800048828125</ele>
        <time>2026-06-16T07:39:47.000Z</time>
        <extensions>
          <ns3:TrackPointExtension>
            <ns3:atemp>24.0</ns3:atemp>
          </ns3:TrackPointExtension>
        </extensions>
      </trkpt>
      <trkpt lat="42.63075448572635650634765625" lon="19.903256557881832122802734375">
        <ele>1410.800048828125</ele>
        <time>2026-06-16T07:39:48.000Z</time>
        <extensions>
          <ns3:TrackPointExtension>
            <ns3:atemp>24.0</ns3:atemp>
          </ns3:TrackPointExtension>
        </extensions>
      </trkpt>
      <trkpt lat="42.63077183626592159271240234375" lon="19.9032791890203952789306640625">
        <ele>1411</ele>
        <time>2026-06-16T07:39:49.000Z</time>
        <extensions>
          <ns3:TrackPointExtension>
            <ns3:atemp>24.0</ns3:atemp>
          </ns3:TrackPointExtension>
        </extensions>
      </trkpt>
      <trkpt lat="42.6307900249958038330078125" lon="19.9033038318157196044921875">
        <ele>1411.199951171875</ele>
        <time>2026-06-16T07:39:50.000Z</time>
        <extensions>
          <ns3:TrackPointExtension>
            <ns3:atemp>24.0</ns3:atemp>
          </ns3:TrackPointExtension>
        </extensions>
      </trkpt>
      <trkpt lat="42.63081056065857410430908203125" lon="19.9033306539058685302734375">
        <ele>1411.5999755859375</ele>
        <time>2026-06-16T07:39:51.000Z</time>
        <extensions>
          <ns3:TrackPointExtension>
            <ns3:atemp>24.0</ns3:atemp>
          </ns3:TrackPointExtension>
        </extensions>
      </trkpt>
      <trkpt lat="42.6308302581310272216796875" lon="19.9033549614250659942626953125">
        <ele>1411.800048828125</ele>
        <time>2026-06-16T07:39:52.000Z</time>
        <extensions>
          <ns3:TrackPointExtension>
            <ns3:atemp>24.0</ns3:atemp>
          </ns3:TrackPointExtension>
        </extensions>
      </trkpt>
      <trkpt lat="42.63085515238344669342041015625" lon="19.90337683819234371185302734375">
        <ele>1412</ele>
        <time>2026-06-16T07:39:53.000Z</time>
        <extensions>
          <ns3:TrackPointExtension>
            <ns3:atemp>24.0</ns3:atemp>
          </ns3:TrackPointExtension>
        </extensions>
      </trkpt>
      <trkpt lat="42.63087644241750240325927734375" lon="19.90339896641671657562255859375">
        <ele>1412.199951171875</ele>
        <time>2026-06-16T07:39:54.000Z</time>
        <extensions>
          <ns3:TrackPointExtension>
            <ns3:atemp>24.0</ns3:atemp>
          </ns3:TrackPointExtension>
        </extensions>
      </trkpt>
      <trkpt lat="42.63089790008962154388427734375" lon="19.90341824479401111602783203125">
        <ele>1412.4000244140625</ele>
        <time>2026-06-16T07:39:55.000Z</time>
        <extensions>
          <ns3:TrackPointExtension>
            <ns3:atemp>24.0</ns3:atemp>
          </ns3:TrackPointExtension>
        </extensions>
      </trkpt>
      <trkpt lat="42.6309152506291866302490234375" lon="19.9034421332180500030517578125">
        <ele>1412.5999755859375</ele>
        <time>2026-06-16T07:39:56.000Z</time>
        <extensions>
          <ns3:TrackPointExtension>
            <ns3:atemp>24.0</ns3:atemp>
          </ns3:TrackPointExtension>
        </extensions>
      </trkpt>
      <trkpt lat="42.63093226589262485504150390625" lon="19.903462417423725128173828125">
        <ele>1412.800048828125</ele>
        <time>2026-06-16T07:39:57.000Z</time>
        <extensions>
          <ns3:TrackPointExtension>
            <ns3:atemp>24.0</ns3:atemp>
          </ns3:TrackPointExtension>
        </extensions>
      </trkpt>
      <trkpt lat="42.63095104135572910308837890625" lon="19.90348865278065204620361328125">
        <ele>1413</ele>
        <time>2026-06-16T07:39:58.000Z</time>
        <extensions>
          <ns3:TrackPointExtension>
            <ns3:atemp>24.0</ns3:atemp>
          </ns3:TrackPointExtension>
        </extensions>
      </trkpt>
      <trkpt lat="42.6309697329998016357421875" lon="19.90351103246212005615234375">
        <ele>1413.199951171875</ele>
        <time>2026-06-16T07:39:59.000Z</time>
        <extensions>
          <ns3:TrackPointExtension>
            <ns3:atemp>24.0</ns3:atemp>
          </ns3:TrackPointExtension>
        </extensions>
      </trkpt>
      <trkpt lat="42.63099043630063533782958984375" lon="19.9035373516380786895751953125">
        <ele>1413.4000244140625</ele>
        <time>2026-06-16T07:40:00.000Z</time>
        <extensions>
          <ns3:TrackPointExtension>
            <ns3:atemp>24.0</ns3:atemp>
          </ns3:TrackPointExtension>
        </extensions>
      </trkpt>
      <trkpt lat="42.63101088814437389373779296875" lon="19.90356358699500560760498046875">
        <ele>1413.800048828125</ele>
        <time>2026-06-16T07:40:01.000Z</time>
        <extensions>
          <ns3:TrackPointExtension>
            <ns3:atemp>24.0</ns3:atemp>
          </ns3:TrackPointExtension>
        </extensions>
      </trkpt>
      <trkpt lat="42.631031088531017303466796875" lon="19.903589822351932525634765625">
        <ele>1414</ele>
        <time>2026-06-16T07:40:02.000Z</time>
        <extensions>
          <ns3:TrackPointExtension>
            <ns3:atemp>24.0</ns3:atemp>
          </ns3:TrackPointExtension>
        </extensions>
      </trkpt>
      <trkpt lat="42.63105095364153385162353515625" lon="19.903613291680812835693359375">
        <ele>1414.199951171875</ele>
        <time>2026-06-16T07:40:03.000Z</time>
        <extensions>
          <ns3:TrackPointExtension>
            <ns3:atemp>24.0</ns3:atemp>
          </ns3:TrackPointExtension>
        </extensions>
      </trkpt>
      <trkpt lat="42.6310704834759235382080078125" lon="19.90363751538097858428955078125">
        <ele>1414.4000244140625</ele>
        <time>2026-06-16T07:40:04.000Z</time>
        <extensions>
          <ns3:TrackPointExtension>
            <ns3:atemp>24.0</ns3:atemp>
          </ns3:TrackPointExtension>
        </extensions>
      </trkpt>
      <trkpt lat="42.631086073815822601318359375" lon="19.9036550335586071014404296875">
        <ele>1414.5999755859375</ele>
        <time>2026-06-16T07:40:05.000Z</time>
        <extensions>
          <ns3:TrackPointExtension>
            <ns3:atemp>24.0</ns3:atemp>
          </ns3:TrackPointExtension>
        </extensions>
      </trkpt>
      <trkpt lat="42.6310989819467067718505859375" lon="19.90367054007947444915771484375">
        <ele>1414.5999755859375</ele>
        <time>2026-06-16T07:40:06.000Z</time>
        <extensions>
          <ns3:TrackPointExtension>
            <ns3:atemp>24.0</ns3:atemp>
          </ns3:TrackPointExtension>
        </extensions>
      </trkpt>
      <trkpt lat="42.63111415319144725799560546875" lon="19.90368797443807125091552734375">
        <ele>1414.800048828125</ele>
        <time>2026-06-16T07:40:07.000Z</time>
        <extensions>
          <ns3:TrackPointExtension>
            <ns3:atemp>24.0</ns3:atemp>
          </ns3:TrackPointExtension>
        </extensions>
      </trkpt>
      <trkpt lat="42.6311306655406951904296875" lon="19.9037046544253826141357421875">
        <ele>1415</ele>
        <time>2026-06-16T07:40:08.000Z</time>
        <extensions>
          <ns3:TrackPointExtension>
            <ns3:atemp>24.0</ns3:atemp>
          </ns3:TrackPointExtension>
        </extensions>
      </trkpt>
      <trkpt lat="42.631145417690277099609375" lon="19.90373139269649982452392578125">
        <ele>1415.199951171875</ele>
        <time>2026-06-16T07:40:09.000Z</time>
        <extensions>
          <ns3:TrackPointExtension>
            <ns3:atemp>24.0</ns3:atemp>
          </ns3:TrackPointExtension>
        </extensions>
      </trkpt>
      <trkpt lat="42.63116327114403247833251953125" lon="19.9037598073482513427734375">
        <ele>1415.4000244140625</ele>
        <time>2026-06-16T07:40:10.000Z</time>
        <extensions>
          <ns3:TrackPointExtension>
            <ns3:atemp>24.0</ns3:atemp>
          </ns3:TrackPointExtension>
        </extensions>
      </trkpt>
      <trkpt lat="42.63118087314069271087646484375" lon="19.90378864109516143798828125">
        <ele>1415.5999755859375</ele>
        <time>2026-06-16T07:40:11.000Z</time>
        <extensions>
          <ns3:TrackPointExtension>
            <ns3:atemp>24.0</ns3:atemp>
          </ns3:TrackPointExtension>
        </extensions>
      </trkpt>
      <trkpt lat="42.63119914568960666656494140625" lon="19.90381454117596149444580078125">
        <ele>1415.5999755859375</ele>
        <time>2026-06-16T07:40:12.000Z</time>
        <extensions>
          <ns3:TrackPointExtension>
            <ns3:atemp>24.0</ns3:atemp>
          </ns3:TrackPointExtension>
        </extensions>
      </trkpt>
      <trkpt lat="42.63121926225721836090087890625" lon="19.90384102798998355865478515625">
        <ele>1415.5999755859375</ele>
        <time>2026-06-16T07:40:13.000Z</time>
        <extensions>
          <ns3:TrackPointExtension>
            <ns3:atemp>24.0</ns3:atemp>
          </ns3:TrackPointExtension>
        </extensions>
      </trkpt>
      <trkpt lat="42.63123988173902034759521484375" lon="19.903866089880466461181640625">
        <ele>1415.800048828125</ele>
        <time>2026-06-16T07:40:14.000Z</time>
        <extensions>
          <ns3:TrackPointExtension>
            <ns3:atemp>24.0</ns3:atemp>
          </ns3:TrackPointExtension>
        </extensions>
      </trkpt>
      <trkpt lat="42.63126167468726634979248046875" lon="19.9038903973996639251708984375">
        <ele>1415.800048828125</ele>
        <time>2026-06-16T07:40:15.000Z</time>
        <extensions>
          <ns3:TrackPointExtension>
            <ns3:atemp>24.0</ns3:atemp>
          </ns3:TrackPointExtension>
        </extensions>
      </trkpt>
      <trkpt lat="42.63128413818776607513427734375" lon="19.90391604602336883544921875">
        <ele>1416</ele>
        <time>2026-06-16T07:40:16.000Z</time>
        <extensions>
          <ns3:TrackPointExtension>
            <ns3:atemp>24.0</ns3:atemp>
          </ns3:TrackPointExtension>
        </extensions>
      </trkpt>
      <trkpt lat="42.6313041709363460540771484375" lon="19.9039366655051708221435546875">
        <ele>1416</ele>
        <time>2026-06-16T07:40:17.000Z</time>
        <extensions>
          <ns3:TrackPointExtension>
            <ns3:atemp>24.0</ns3:atemp>
          </ns3:TrackPointExtension>
        </extensions>
      </trkpt>
      <trkpt lat="42.63132579624652862548828125" lon="19.90395971573889255523681640625">
        <ele>1416.199951171875</ele>
        <time>2026-06-16T07:40:18.000Z</time>
        <extensions>
          <ns3:TrackPointExtension>
            <ns3:atemp>24.0</ns3:atemp>
          </ns3:TrackPointExtension>
        </extensions>
      </trkpt>
      <trkpt lat="42.63134700246155261993408203125" lon="19.90398352034389972686767578125">
        <ele>1416.199951171875</ele>
        <time>2026-06-16T07:40:19.000Z</time>
        <extensions>
          <ns3:TrackPointExtension>
            <ns3:atemp>24.0</ns3:atemp>
          </ns3:TrackPointExtension>
        </extensions>
      </trkpt>
      <trkpt lat="42.63136602938175201416015625" lon="19.90401101298630237579345703125">
        <ele>1416.4000244140625</ele>
        <time>2026-06-16T07:40:20.000Z</time>
        <extensions>
          <ns3:TrackPointExtension>
            <ns3:atemp>24.0</ns3:atemp>
          </ns3:TrackPointExtension>
        </extensions>
      </trkpt>
      <trkpt lat="42.63138690032064914703369140625" lon="19.90403381176292896270751953125">
        <ele>1416.5999755859375</ele>
        <time>2026-06-16T07:40:21.000Z</time>
        <extensions>
          <ns3:TrackPointExtension>
            <ns3:atemp>24.0</ns3:atemp>
          </ns3:TrackPointExtension>
        </extensions>
      </trkpt>
      <trkpt lat="42.63140802271664142608642578125" lon="19.904051162302494049072265625">
        <ele>1416.5999755859375</ele>
        <time>2026-06-16T07:40:22.000Z</time>
        <extensions>
          <ns3:TrackPointExtension>
            <ns3:atemp>24.0</ns3:atemp>
          </ns3:TrackPointExtension>
        </extensions>
      </trkpt>
      <trkpt lat="42.63142562471330165863037109375" lon="19.90406935103237628936767578125">
        <ele>1417</ele>
        <time>2026-06-16T07:40:23.000Z</time>
        <extensions>
          <ns3:TrackPointExtension>
            <ns3:atemp>24.0</ns3:atemp>
          </ns3:TrackPointExtension>
        </extensions>
      </trkpt>
      <trkpt lat="42.6314433105289936065673828125" lon="19.9040870368480682373046875">
        <ele>1417.199951171875</ele>
        <time>2026-06-16T07:40:24.000Z</time>
        <extensions>
          <ns3:TrackPointExtension>
            <ns3:atemp>24.0</ns3:atemp>
          </ns3:TrackPointExtension>
        </extensions>
      </trkpt>
      <trkpt lat="42.63146166689693927764892578125" lon="19.9041026271879673004150390625">
        <ele>1417.4000244140625</ele>
        <time>2026-06-16T07:40:25.000Z</time>
        <extensions>
          <ns3:TrackPointExtension>
            <ns3:atemp>24.0</ns3:atemp>
          </ns3:TrackPointExtension>
        </extensions>
      </trkpt>
      <trkpt lat="42.631480358541011810302734375" lon="19.90411729551851749420166015625">
        <ele>1417.800048828125</ele>
        <time>2026-06-16T07:40:26.000Z</time>
        <extensions>
          <ns3:TrackPointExtension>
            <ns3:atemp>24.0</ns3:atemp>
          </ns3:TrackPointExtension>
        </extensions>
      </trkpt>
      <trkpt lat="42.6314993016421794891357421875" lon="19.90413330495357513427734375">
        <ele>1418</ele>
        <time>2026-06-16T07:40:27.000Z</time>
        <extensions>
          <ns3:TrackPointExtension>
            <ns3:atemp>24.0</ns3:atemp>
          </ns3:TrackPointExtension>
        </extensions>
      </trkpt>
      <trkpt lat="42.63152034021914005279541015625" lon="19.9041514098644256591796875">
        <ele>1418.199951171875</ele>
        <time>2026-06-16T07:40:28.000Z</time>
        <extensions>
          <ns3:TrackPointExtension>
            <ns3:atemp>24.0</ns3:atemp>
          </ns3:TrackPointExtension>
        </extensions>
      </trkpt>
      <trkpt lat="42.63154246844351291656494140625" lon="19.90416641347110271453857421875">
        <ele>1418.199951171875</ele>
        <time>2026-06-16T07:40:29.000Z</time>
        <extensions>
          <ns3:TrackPointExtension>
            <ns3:atemp>24.0</ns3:atemp>
          </ns3:TrackPointExtension>
        </extensions>
      </trkpt>
      <trkpt lat="42.631563842296600341796875" lon="19.9041817523539066314697265625">
        <ele>1418.4000244140625</ele>
        <time>2026-06-16T07:40:30.000Z</time>
        <extensions>
          <ns3:TrackPointExtension>
            <ns3:atemp>24.0</ns3:atemp>
          </ns3:TrackPointExtension>
        </extensions>
      </trkpt>
      <trkpt lat="42.6315864734351634979248046875" lon="19.90419206209480762481689453125">
        <ele>1418.800048828125</ele>
        <time>2026-06-16T07:40:31.000Z</time>
        <extensions>
          <ns3:TrackPointExtension>
            <ns3:atemp>24.0</ns3:atemp>
          </ns3:TrackPointExtension>
        </extensions>
      </trkpt>
      <trkpt lat="42.6316096074879169464111328125" lon="19.90420840680599212646484375">
        <ele>1419</ele>
        <time>2026-06-16T07:40:32.000Z</time>
        <extensions>
          <ns3:TrackPointExtension>
            <ns3:atemp>24.0</ns3:atemp>
          </ns3:TrackPointExtension>
        </extensions>
      </trkpt>
      <trkpt lat="42.63163290917873382568359375" lon="19.9042203091084957122802734375">
        <ele>1419</ele>
        <time>2026-06-16T07:40:33.000Z</time>
        <extensions>
          <ns3:TrackPointExtension>
            <ns3:atemp>24.0</ns3:atemp>
          </ns3:TrackPointExtension>
        </extensions>
      </trkpt>
      <trkpt lat="42.6316568814218044281005859375" lon="19.904229529201984405517578125">
        <ele>1419.4000244140625</ele>
        <time>2026-06-16T07:40:34.000Z</time>
        <extensions>
          <ns3:TrackPointExtension>
            <ns3:atemp>24.0</ns3:atemp>
          </ns3:TrackPointExtension>
        </extensions>
      </trkpt>
      <trkpt lat="42.63167791999876499176025390625" lon="19.9042343907058238983154296875">
        <ele>1419.5999755859375</ele>
        <time>2026-06-16T07:40:35.000Z</time>
        <extensions>
          <ns3:TrackPointExtension>
            <ns3:atemp>24.0</ns3:atemp>
          </ns3:TrackPointExtension>
        </extensions>
      </trkpt>
      <trkpt lat="42.63169921003282070159912109375" lon="19.90424436517059803009033203125">
        <ele>1419.800048828125</ele>
        <time>2026-06-16T07:40:36.000Z</time>
        <extensions>
          <ns3:TrackPointExtension>
            <ns3:atemp>24.0</ns3:atemp>
          </ns3:TrackPointExtension>
        </extensions>
      </trkpt>
      <trkpt lat="42.63172142207622528076171875" lon="19.90424972958862781524658203125">
        <ele>1419.800048828125</ele>
        <time>2026-06-16T07:40:37.000Z</time>
        <extensions>
          <ns3:TrackPointExtension>
            <ns3:atemp>24.0</ns3:atemp>
          </ns3:TrackPointExtension>
        </extensions>
      </trkpt>
      <trkpt lat="42.63174648396670818328857421875" lon="19.90424855612218379974365234375">
        <ele>1420</ele>
        <time>2026-06-16T07:40:38.000Z</time>
        <extensions>
          <ns3:TrackPointExtension>
            <ns3:atemp>24.0</ns3:atemp>
          </ns3:TrackPointExtension>
        </extensions>
      </trkpt>
      <trkpt lat="42.6317743957042694091796875" lon="19.90424302406609058380126953125">
        <ele>1420.199951171875</ele>
        <time>2026-06-16T07:40:39.000Z</time>
        <extensions>
          <ns3:TrackPointExtension>
            <ns3:atemp>24.0</ns3:atemp>
          </ns3:TrackPointExtension>
        </extensions>
      </trkpt>
      <trkpt lat="42.63179719448089599609375" lon="19.90422642789781093597412109375">
        <ele>1420.199951171875</ele>
        <time>2026-06-16T07:40:40.000Z</time>
        <extensions>
          <ns3:TrackPointExtension>
            <ns3:atemp>24.0</ns3:atemp>
          </ns3:TrackPointExtension>
        </extensions>
      </trkpt>
      <trkpt lat="42.631810270249843597412109375" lon="19.904202036559581756591796875">
        <ele>1420.4000244140625</ele>
        <time>2026-06-16T07:40:41.000Z</time>
        <extensions>
          <ns3:TrackPointExtension>
            <ns3:atemp>24.0</ns3:atemp>
          </ns3:TrackPointExtension>
        </extensions>
      </trkpt>
      <trkpt lat="42.6318251900374889373779296875" lon="19.9041770584881305694580078125">
        <ele>1420.5999755859375</ele>
        <time>2026-06-16T07:40:42.000Z</time>
        <extensions>
          <ns3:TrackPointExtension>
            <ns3:atemp>24.0</ns3:atemp>
          </ns3:TrackPointExtension>
        </extensions>
      </trkpt>
      <trkpt lat="42.63184254057705402374267578125" lon="19.90415216423571109771728515625">
        <ele>1420.800048828125</ele>
        <time>2026-06-16T07:40:43.000Z</time>
        <extensions>
          <ns3:TrackPointExtension>
            <ns3:atemp>24.0</ns3:atemp>
          </ns3:TrackPointExtension>
        </extensions>
      </trkpt>
      <trkpt lat="42.63186047784984111785888671875" lon="19.9041259288787841796875">
        <ele>1420.800048828125</ele>
        <time>2026-06-16T07:40:44.000Z</time>
        <extensions>
          <ns3:TrackPointExtension>
            <ns3:atemp>24.0</ns3:atemp>
          </ns3:TrackPointExtension>
        </extensions>
      </trkpt>
      <trkpt lat="42.6318815164268016815185546875" lon="19.90410304628312587738037109375">
        <ele>1421.199951171875</ele>
        <time>2026-06-16T07:40:45.000Z</time>
        <extensions>
          <ns3:TrackPointExtension>
            <ns3:atemp>24.0</ns3:atemp>
          </ns3:TrackPointExtension>
        </extensions>
      </trkpt>
      <trkpt lat="42.6318999566137790679931640625" lon="19.9040838517248630523681640625">
        <ele>1421.4000244140625</ele>
        <time>2026-06-16T07:40:46.000Z</time>
        <extensions>
          <ns3:TrackPointExtension>
            <ns3:atemp>24.0</ns3:atemp>
          </ns3:TrackPointExtension>
        </extensions>
      </trkpt>
      <trkpt lat="42.6319244317710399627685546875" lon="19.90406616590917110443115234375">
        <ele>1421.5999755859375</ele>
        <time>2026-06-16T07:40:47.000Z</time>
        <extensions>
          <ns3:TrackPointExtension>
            <ns3:atemp>24.0</ns3:atemp>
          </ns3:TrackPointExtension>
        </extensions>
      </trkpt>
      <trkpt lat="42.631948404014110565185546875" lon="19.9040580354630947113037109375">
        <ele>1421.5999755859375</ele>
        <time>2026-06-16T07:40:48.000Z</time>
        <extensions>
          <ns3:TrackPointExtension>
            <ns3:atemp>24.0</ns3:atemp>
          </ns3:TrackPointExtension>
        </extensions>
      </trkpt>
      <trkpt lat="42.631971202790737152099609375" lon="19.90406499244272708892822265625">
        <ele>1421.5999755859375</ele>
        <time>2026-06-16T07:40:49.000Z</time>
        <extensions>
          <ns3:TrackPointExtension>
            <ns3:atemp>24.0</ns3:atemp>
          </ns3:TrackPointExtension>
        </extensions>
      </trkpt>
      <trkpt lat="42.63199509121477603912353515625" lon="19.90407136268913745880126953125">
        <ele>1421.5999755859375</ele>
        <time>2026-06-16T07:40:50.000Z</time>
        <extensions>
          <ns3:TrackPointExtension>
            <ns3:atemp>24.0</ns3:atemp>
          </ns3:TrackPointExtension>
        </extensions>
      </trkpt>
      <trkpt lat="42.6320166327059268951416015625" lon="19.904076643288135528564453125">
        <ele>1421.5999755859375</ele>
        <time>2026-06-16T07:40:51.000Z</time>
        <extensions>
          <ns3:TrackPointExtension>
            <ns3:atemp>24.0</ns3:atemp>
          </ns3:TrackPointExtension>
        </extensions>
      </trkpt>
      <trkpt lat="42.63204052112996578216552734375" lon="19.904084019362926483154296875">
        <ele>1421.5999755859375</ele>
        <time>2026-06-16T07:40:52.000Z</time>
        <extensions>
          <ns3:TrackPointExtension>
            <ns3:atemp>24.0</ns3:atemp>
          </ns3:TrackPointExtension>
        </extensions>
      </trkpt>
      <trkpt lat="42.63206231407821178436279296875" lon="19.904090054333209991455078125">
        <ele>1421.5999755859375</ele>
        <time>2026-06-16T07:40:53.000Z</time>
        <extensions>
          <ns3:TrackPointExtension>
            <ns3:atemp>24.0</ns3:atemp>
          </ns3:TrackPointExtension>
        </extensions>
      </trkpt>
      <trkpt lat="42.63208561576902866363525390625" lon="19.90409910678863525390625">
        <ele>1421.800048828125</ele>
        <time>2026-06-16T07:40:54.000Z</time>
        <extensions>
          <ns3:TrackPointExtension>
            <ns3:atemp>24.0</ns3:atemp>
          </ns3:TrackPointExtension>
        </extensions>
      </trkpt>
      <trkpt lat="42.6321081630885601043701171875" lon="19.90411092527210712432861328125">
        <ele>1422</ele>
        <time>2026-06-16T07:40:55.000Z</time>
        <extensions>
          <ns3:TrackPointExtension>
            <ns3:atemp>24.0</ns3:atemp>
          </ns3:TrackPointExtension>
        </extensions>
      </trkpt>
      <trkpt lat="42.63212936930358409881591796875" lon="19.90411846898496150970458984375">
        <ele>1422.199951171875</ele>
        <time>2026-06-16T07:40:56.000Z</time>
        <extensions>
          <ns3:TrackPointExtension>
            <ns3:atemp>24.0</ns3:atemp>
          </ns3:TrackPointExtension>
        </extensions>
      </trkpt>
      <trkpt lat="42.63214931823313236236572265625" lon="19.9041245877742767333984375">
        <ele>1422.4000244140625</ele>
        <time>2026-06-16T07:40:57.000Z</time>
        <extensions>
          <ns3:TrackPointExtension>
            <ns3:atemp>24.0</ns3:atemp>
          </ns3:TrackPointExtension>
        </extensions>
      </trkpt>
      <trkpt lat="42.63216759078204631805419921875" lon="19.90413389168679714202880859375">
        <ele>1422.800048828125</ele>
        <time>2026-06-16T07:40:58.000Z</time>
        <extensions>
          <ns3:TrackPointExtension>
            <ns3:atemp>24.0</ns3:atemp>
          </ns3:TrackPointExtension>
        </extensions>
      </trkpt>
      <trkpt lat="42.6321856118738651275634765625" lon="19.904139675199985504150390625">
        <ele>1423</ele>
        <time>2026-06-16T07:40:59.000Z</time>
        <extensions>
          <ns3:TrackPointExtension>
            <ns3:atemp>24.0</ns3:atemp>
          </ns3:TrackPointExtension>
        </extensions>
      </trkpt>
      <trkpt lat="42.63220899738371372222900390625" lon="19.90414696745574474334716796875">
        <ele>1423.199951171875</ele>
        <time>2026-06-16T07:41:00.000Z</time>
        <extensions>
          <ns3:TrackPointExtension>
            <ns3:atemp>24.0</ns3:atemp>
          </ns3:TrackPointExtension>
        </extensions>
      </trkpt>
      <trkpt lat="42.632231377065181732177734375" lon="19.9041539244353771209716796875">
        <ele>1423.4000244140625</ele>
        <time>2026-06-16T07:41:01.000Z</time>
        <extensions>
          <ns3:TrackPointExtension>
            <ns3:atemp>24.0</ns3:atemp>
          </ns3:TrackPointExtension>
        </extensions>
      </trkpt>
      <trkpt lat="42.63225258328020572662353515625" lon="19.904157780110836029052734375">
        <ele>1423.4000244140625</ele>
        <time>2026-06-16T07:41:02.000Z</time>
        <extensions>
          <ns3:TrackPointExtension>
            <ns3:atemp>24.0</ns3:atemp>
          </ns3:TrackPointExtension>
        </extensions>
      </trkpt>
      <trkpt lat="42.63227529823780059814453125" lon="19.9041582830250263214111328125">
        <ele>1423.800048828125</ele>
        <time>2026-06-16T07:41:03.000Z</time>
        <extensions>
          <ns3:TrackPointExtension>
            <ns3:atemp>24.0</ns3:atemp>
          </ns3:TrackPointExtension>
        </extensions>
      </trkpt>
      <trkpt lat="42.6323001086711883544921875" lon="19.9041609652340412139892578125">
        <ele>1424</ele>
        <time>2026-06-16T07:41:04.000Z</time>
        <extensions>
          <ns3:TrackPointExtension>
            <ns3:atemp>24.0</ns3:atemp>
          </ns3:TrackPointExtension>
        </extensions>
      </trkpt>
      <trkpt lat="42.6323284395039081573486328125" lon="19.904167167842388153076171875">
        <ele>1424.199951171875</ele>
        <time>2026-06-16T07:41:05.000Z</time>
        <extensions>
          <ns3:TrackPointExtension>
            <ns3:atemp>24.0</ns3:atemp>
          </ns3:TrackPointExtension>
        </extensions>
      </trkpt>
      <trkpt lat="42.63235710561275482177734375" lon="19.9041730351746082305908203125">
        <ele>1424.4000244140625</ele>
        <time>2026-06-16T07:41:06.000Z</time>
        <extensions>
          <ns3:TrackPointExtension>
            <ns3:atemp>24.0</ns3:atemp>
          </ns3:TrackPointExtension>
        </extensions>
      </trkpt>
      <trkpt lat="42.63238468207418918609619140625" lon="19.904176890850067138671875">
        <ele>1424.4000244140625</ele>
        <time>2026-06-16T07:41:07.000Z</time>
        <extensions>
          <ns3:TrackPointExtension>
            <ns3:atemp>24.0</ns3:atemp>
          </ns3:TrackPointExtension>
        </extensions>
      </trkpt>
      <trkpt lat="42.632411420345306396484375" lon="19.90417764522135257720947265625">
        <ele>1424.5999755859375</ele>
        <time>2026-06-16T07:41:08.000Z</time>
        <extensions>
          <ns3:TrackPointExtension>
            <ns3:atemp>24.0</ns3:atemp>
          </ns3:TrackPointExtension>
        </extensions>
      </trkpt>
      <trkpt lat="42.6324374042451381683349609375" lon="19.9041814170777797698974609375">
        <ele>1424.800048828125</ele>
        <time>2026-06-16T07:41:09.000Z</time>
        <extensions>
          <ns3:TrackPointExtension>
            <ns3:atemp>24.0</ns3:atemp>
          </ns3:TrackPointExtension>
        </extensions>
      </trkpt>
      <trkpt lat="42.632463388144969940185546875" lon="19.904181249439716339111328125">
        <ele>1425</ele>
        <time>2026-06-16T07:41:10.000Z</time>
        <extensions>
          <ns3:TrackPointExtension>
            <ns3:atemp>24.0</ns3:atemp>
          </ns3:TrackPointExtension>
        </extensions>
      </trkpt>
      <trkpt lat="42.63249213807284832000732421875" lon="19.90417890250682830810546875">
        <ele>1425.199951171875</ele>
        <time>2026-06-16T07:41:11.000Z</time>
        <extensions>
          <ns3:TrackPointExtension>
            <ns3:atemp>24.0</ns3:atemp>
          </ns3:TrackPointExtension>
        </extensions>
      </trkpt>
      <trkpt lat="42.63251929543912410736083984375" lon="19.9041767232120037078857421875">
        <ele>1425.4000244140625</ele>
        <time>2026-06-16T07:41:12.000Z</time>
        <extensions>
          <ns3:TrackPointExtension>
            <ns3:atemp>24.0</ns3:atemp>
          </ns3:TrackPointExtension>
        </extensions>
      </trkpt>
      <trkpt lat="42.63254494406282901763916015625" lon="19.90417194552719593048095703125">
        <ele>1425.5999755859375</ele>
        <time>2026-06-16T07:41:13.000Z</time>
        <extensions>
          <ns3:TrackPointExtension>
            <ns3:atemp>24.0</ns3:atemp>
          </ns3:TrackPointExtension>
        </extensions>
      </trkpt>
      <trkpt lat="42.6325688324868679046630859375" lon="19.9041653238236904144287109375">
        <ele>1425.800048828125</ele>
        <time>2026-06-16T07:41:14.000Z</time>
        <extensions>
          <ns3:TrackPointExtension>
            <ns3:atemp>24.0</ns3:atemp>
          </ns3:TrackPointExtension>
        </extensions>
      </trkpt>
      <trkpt lat="42.63259188272058963775634765625" lon="19.9041549302637577056884765625">
        <ele>1425.800048828125</ele>
        <time>2026-06-16T07:41:15.000Z</time>
        <extensions>
          <ns3:TrackPointExtension>
            <ns3:atemp>24.0</ns3:atemp>
          </ns3:TrackPointExtension>
        </extensions>
      </trkpt>
      <trkpt lat="42.63261459767818450927734375" lon="19.90414512343704700469970703125">
        <ele>1425.800048828125</ele>
        <time>2026-06-16T07:41:16.000Z</time>
        <extensions>
          <ns3:TrackPointExtension>
            <ns3:atemp>24.0</ns3:atemp>
          </ns3:TrackPointExtension>
        </extensions>
      </trkpt>
      <trkpt lat="42.63263798318803310394287109375" lon="19.9041358195245265960693359375">
        <ele>1425.800048828125</ele>
        <time>2026-06-16T07:41:17.000Z</time>
        <extensions>
          <ns3:TrackPointExtension>
            <ns3:atemp>24.0</ns3:atemp>
          </ns3:TrackPointExtension>
        </extensions>
      </trkpt>
      <trkpt lat="42.63266153633594512939453125" lon="19.90412265993654727935791015625">
        <ele>1425.800048828125</ele>
        <time>2026-06-16T07:41:18.000Z</time>
        <extensions>
          <ns3:TrackPointExtension>
            <ns3:atemp>24.0</ns3:atemp>
          </ns3:TrackPointExtension>
        </extensions>
      </trkpt>
      <trkpt lat="42.6326834969222545623779296875" lon="19.904112517833709716796875">
        <ele>1426</ele>
        <time>2026-06-16T07:41:19.000Z</time>
        <extensions>
          <ns3:TrackPointExtension>
            <ns3:atemp>24.0</ns3:atemp>
          </ns3:TrackPointExtension>
        </extensions>
      </trkpt>
      <trkpt lat="42.63270705007016658782958984375" lon="19.9041006155312061309814453125">
        <ele>1426.199951171875</ele>
        <time>2026-06-16T07:41:20.000Z</time>
        <extensions>
          <ns3:TrackPointExtension>
            <ns3:atemp>24.0</ns3:atemp>
          </ns3:TrackPointExtension>
        </extensions>
      </trkpt>
      <trkpt lat="42.63272850774228572845458984375" lon="19.90409080870449542999267578125">
        <ele>1426.199951171875</ele>
        <time>2026-06-16T07:41:21.000Z</time>
        <extensions>
          <ns3:TrackPointExtension>
            <ns3:atemp>24.0</ns3:atemp>
          </ns3:TrackPointExtension>
        </extensions>
      </trkpt>
      <trkpt lat="42.63275046832859516143798828125" lon="19.9040784873068332672119140625">
        <ele>1426.4000244140625</ele>
        <time>2026-06-16T07:41:22.000Z</time>
        <extensions>
          <ns3:TrackPointExtension>
            <ns3:atemp>24.0</ns3:atemp>
          </ns3:TrackPointExtension>
        </extensions>
      </trkpt>
      <trkpt lat="42.63277326710522174835205078125" lon="19.90406817756593227386474609375">
        <ele>1426.4000244140625</ele>
        <time>2026-06-16T07:41:23.000Z</time>
        <extensions>
          <ns3:TrackPointExtension>
            <ns3:atemp>24.0</ns3:atemp>
          </ns3:TrackPointExtension>
        </extensions>
      </trkpt>
      <trkpt lat="42.63279656879603862762451171875" lon="19.9040630646049976348876953125">
        <ele>1426.5999755859375</ele>
        <time>2026-06-16T07:41:24.000Z</time>
        <extensions>
          <ns3:TrackPointExtension>
            <ns3:atemp>24.0</ns3:atemp>
          </ns3:TrackPointExtension>
        </extensions>
      </trkpt>
      <trkpt lat="42.63281802646815776824951171875" lon="19.90405686199665069580078125">
        <ele>1426.800048828125</ele>
        <time>2026-06-16T07:41:25.000Z</time>
        <extensions>
          <ns3:TrackPointExtension>
            <ns3:atemp>24.0</ns3:atemp>
          </ns3:TrackPointExtension>
        </extensions>
      </trkpt>
      <trkpt lat="42.632839567959308624267578125" lon="19.90405292250216007232666015625">
        <ele>1427.199951171875</ele>
        <time>2026-06-16T07:41:26.000Z</time>
        <extensions>
          <ns3:TrackPointExtension>
            <ns3:atemp>24.0</ns3:atemp>
          </ns3:TrackPointExtension>
        </extensions>
      </trkpt>
      <trkpt lat="42.6328647136688232421875" lon="19.904046468436717987060546875">
        <ele>1427.4000244140625</ele>
        <time>2026-06-16T07:41:27.000Z</time>
        <extensions>
          <ns3:TrackPointExtension>
            <ns3:atemp>24.0</ns3:atemp>
          </ns3:TrackPointExtension>
        </extensions>
      </trkpt>
      <trkpt lat="42.632888853549957275390625" lon="19.90403800271451473236083984375">
        <ele>1427.5999755859375</ele>
        <time>2026-06-16T07:41:28.000Z</time>
        <extensions>
          <ns3:TrackPointExtension>
            <ns3:atemp>24.0</ns3:atemp>
          </ns3:TrackPointExtension>
        </extensions>
      </trkpt>
      <trkpt lat="42.6329089701175689697265625" lon="19.90403473377227783203125">
        <ele>1427.800048828125</ele>
        <time>2026-06-16T07:41:29.000Z</time>
        <extensions>
          <ns3:TrackPointExtension>
            <ns3:atemp>24.0</ns3:atemp>
          </ns3:TrackPointExtension>
        </extensions>
      </trkpt>
      <trkpt lat="42.63293554075062274932861328125" lon="19.90403196774423122406005859375">
        <ele>1428.199951171875</ele>
        <time>2026-06-16T07:41:30.000Z</time>
        <extensions>
          <ns3:TrackPointExtension>
            <ns3:atemp>24.0</ns3:atemp>
          </ns3:TrackPointExtension>
        </extensions>
      </trkpt>
      <trkpt lat="42.63295833952724933624267578125" lon="19.90402601659297943115234375">
        <ele>1428.4000244140625</ele>
        <time>2026-06-16T07:41:31.000Z</time>
        <extensions>
          <ns3:TrackPointExtension>
            <ns3:atemp>24.0</ns3:atemp>
          </ns3:TrackPointExtension>
        </extensions>
      </trkpt>
      <trkpt lat="42.63297962956130504608154296875" lon="19.90402040071785449981689453125">
        <ele>1428.800048828125</ele>
        <time>2026-06-16T07:41:32.000Z</time>
        <extensions>
          <ns3:TrackPointExtension>
            <ns3:atemp>24.0</ns3:atemp>
          </ns3:TrackPointExtension>
        </extensions>
      </trkpt>
      <trkpt lat="42.6330013386905193328857421875" lon="19.904013611376285552978515625">
        <ele>1429.199951171875</ele>
        <time>2026-06-16T07:41:33.000Z</time>
        <extensions>
          <ns3:TrackPointExtension>
            <ns3:atemp>24.0</ns3:atemp>
          </ns3:TrackPointExtension>
        </extensions>
      </trkpt>
      <trkpt lat="42.63302137143909931182861328125" lon="19.90400749258697032928466796875">
        <ele>1429.4000244140625</ele>
        <time>2026-06-16T07:41:34.000Z</time>
        <extensions>
          <ns3:TrackPointExtension>
            <ns3:atemp>24.0</ns3:atemp>
          </ns3:TrackPointExtension>
        </extensions>
      </trkpt>
      <trkpt lat="42.6330422423779964447021484375" lon="19.9040010385215282440185546875">
        <ele>1429.800048828125</ele>
        <time>2026-06-16T07:41:35.000Z</time>
        <extensions>
          <ns3:TrackPointExtension>
            <ns3:atemp>24.0</ns3:atemp>
          </ns3:TrackPointExtension>
        </extensions>
      </trkpt>
      <trkpt lat="42.6330640353262424468994140625" lon="19.90399022586643695831298828125">
        <ele>1430</ele>
        <time>2026-06-16T07:41:36.000Z</time>
        <extensions>
          <ns3:TrackPointExtension>
            <ns3:atemp>23.0</ns3:atemp>
          </ns3:TrackPointExtension>
        </extensions>
      </trkpt>
      <trkpt lat="42.6330861635506153106689453125" lon="19.9039822630584239959716796875">
        <ele>1430.199951171875</ele>
        <time>2026-06-16T07:41:37.000Z</time>
        <extensions>
          <ns3:TrackPointExtension>
            <ns3:atemp>23.0</ns3:atemp>
          </ns3:TrackPointExtension>
        </extensions>
      </trkpt>
      <trkpt lat="42.63310854323208332061767578125" lon="19.90398083813488483428955078125">
        <ele>1430.4000244140625</ele>
        <time>2026-06-16T07:41:38.000Z</time>
        <extensions>
          <ns3:TrackPointExtension>
            <ns3:atemp>24.0</ns3:atemp>
          </ns3:TrackPointExtension>
        </extensions>
      </trkpt>
      <trkpt lat="42.63313368894159793853759765625" lon="19.9039728753268718719482421875">
        <ele>1430.5999755859375</ele>
        <time>2026-06-16T07:41:39.000Z</time>
        <extensions>
          <ns3:TrackPointExtension>
            <ns3:atemp>24.0</ns3:atemp>
          </ns3:TrackPointExtension>
        </extensions>
      </trkpt>
      <trkpt lat="42.6331565715372562408447265625" lon="19.903966002166271209716796875">
        <ele>1430.800048828125</ele>
        <time>2026-06-16T07:41:40.000Z</time>
        <extensions>
          <ns3:TrackPointExtension>
            <ns3:atemp>24.0</ns3:atemp>
          </ns3:TrackPointExtension>
        </extensions>
      </trkpt>
      <trkpt lat="42.63318188488483428955078125" lon="19.90395602770149707794189453125">
        <ele>1431.199951171875</ele>
        <time>2026-06-16T07:41:41.000Z</time>
        <extensions>
          <ns3:TrackPointExtension>
            <ns3:atemp>24.0</ns3:atemp>
          </ns3:TrackPointExtension>
        </extensions>
      </trkpt>
      <trkpt lat="42.63320560567080974578857421875" lon="19.9039453826844692230224609375">
        <ele>1431.4000244140625</ele>
        <time>2026-06-16T07:41:42.000Z</time>
        <extensions>
          <ns3:TrackPointExtension>
            <ns3:atemp>24.0</ns3:atemp>
          </ns3:TrackPointExtension>
        </extensions>
      </trkpt>
      <trkpt lat="42.6332286559045314788818359375" lon="19.90393725223839282989501953125">
        <ele>1431.5999755859375</ele>
        <time>2026-06-16T07:41:43.000Z</time>
        <extensions>
          <ns3:TrackPointExtension>
            <ns3:atemp>23.0</ns3:atemp>
          </ns3:TrackPointExtension>
        </extensions>
      </trkpt>
      <trkpt lat="42.63325070030987262725830078125" lon="19.90392719395458698272705078125">
        <ele>1431.800048828125</ele>
        <time>2026-06-16T07:41:44.000Z</time>
        <extensions>
          <ns3:TrackPointExtension>
            <ns3:atemp>23.0</ns3:atemp>
          </ns3:TrackPointExtension>
        </extensions>
      </trkpt>
      <trkpt lat="42.63327710330486297607421875" lon="19.90392082370817661285400390625">
        <ele>1432</ele>
        <time>2026-06-16T07:41:45.000Z</time>
        <extensions>
          <ns3:TrackPointExtension>
            <ns3:atemp>23.0</ns3:atemp>
          </ns3:TrackPointExtension>
        </extensions>
      </trkpt>
      <trkpt lat="42.633304931223392486572265625" lon="19.90391336381435394287109375">
        <ele>1432.199951171875</ele>
        <time>2026-06-16T07:41:46.000Z</time>
        <extensions>
          <ns3:TrackPointExtension>
            <ns3:atemp>24.0</ns3:atemp>
          </ns3:TrackPointExtension>
        </extensions>
      </trkpt>
      <trkpt lat="42.633334100246429443359375" lon="19.9039091728627681732177734375">
        <ele>1432.4000244140625</ele>
        <time>2026-06-16T07:41:47.000Z</time>
        <extensions>
          <ns3:TrackPointExtension>
            <ns3:atemp>23.0</ns3:atemp>
          </ns3:TrackPointExtension>
        </extensions>
      </trkpt>
      <trkpt lat="42.633363269269466400146484375" lon="19.90390129387378692626953125">
        <ele>1432.4000244140625</ele>
        <time>2026-06-16T07:41:48.000Z</time>
        <extensions>
          <ns3:TrackPointExtension>
            <ns3:atemp>23.0</ns3:atemp>
          </ns3:TrackPointExtension>
        </extensions>
      </trkpt>
      <trkpt lat="42.63339118100702762603759765625" lon="19.90389483980834484100341796875">
        <ele>1432.4000244140625</ele>
        <time>2026-06-16T07:41:49.000Z</time>
        <extensions>
          <ns3:TrackPointExtension>
            <ns3:atemp>23.0</ns3:atemp>
          </ns3:TrackPointExtension>
        </extensions>
      </trkpt>
      <trkpt lat="42.6334197632968425750732421875" lon="19.90389048121869564056396484375">
        <ele>1432.4000244140625</ele>
        <time>2026-06-16T07:41:50.000Z</time>
        <extensions>
          <ns3:TrackPointExtension>
            <ns3:atemp>23.0</ns3:atemp>
          </ns3:TrackPointExtension>
        </extensions>
      </trkpt>
      <trkpt lat="42.63344700448215007781982421875" lon="19.90388528443872928619384765625">
        <ele>1432.4000244140625</ele>
        <time>2026-06-16T07:41:51.000Z</time>
        <extensions>
          <ns3:TrackPointExtension>
            <ns3:atemp>23.0</ns3:atemp>
          </ns3:TrackPointExtension>
        </extensions>
      </trkpt>
      <trkpt lat="42.63347089290618896484375" lon="19.90387673489749431610107421875">
        <ele>1432.5999755859375</ele>
        <time>2026-06-16T07:41:52.000Z</time>
        <extensions>
          <ns3:TrackPointExtension>
            <ns3:atemp>23.0</ns3:atemp>
          </ns3:TrackPointExtension>
        </extensions>
      </trkpt>
      <trkpt lat="42.6334911771118640899658203125" lon="19.90386550314724445343017578125">
        <ele>1432.800048828125</ele>
        <time>2026-06-16T07:41:53.000Z</time>
        <extensions>
          <ns3:TrackPointExtension>
            <ns3:atemp>23.0</ns3:atemp>
          </ns3:TrackPointExtension>
        </extensions>
      </trkpt>
      <trkpt lat="42.63350701890885829925537109375" lon="19.90385209210216999053955078125">
        <ele>1433</ele>
        <time>2026-06-16T07:41:54.000Z</time>
        <extensions>
          <ns3:TrackPointExtension>
            <ns3:atemp>23.0</ns3:atemp>
          </ns3:TrackPointExtension>
        </extensions>
      </trkpt>
      <trkpt lat="42.63352344743907451629638671875" lon="19.903843291103839874267578125">
        <ele>1433.4000244140625</ele>
        <time>2026-06-16T07:41:55.000Z</time>
        <extensions>
          <ns3:TrackPointExtension>
            <ns3:atemp>23.0</ns3:atemp>
          </ns3:TrackPointExtension>
        </extensions>
      </trkpt>
      <trkpt lat="42.6335411332547664642333984375" lon="19.90384086035192012786865234375">
        <ele>1433.5999755859375</ele>
        <time>2026-06-16T07:41:56.000Z</time>
        <extensions>
          <ns3:TrackPointExtension>
            <ns3:atemp>23.0</ns3:atemp>
          </ns3:TrackPointExtension>
        </extensions>
      </trkpt>
      <trkpt lat="42.63356334529817104339599609375" lon="19.90384136326611042022705078125">
        <ele>1433.800048828125</ele>
        <time>2026-06-16T07:41:57.000Z</time>
        <extensions>
          <ns3:TrackPointExtension>
            <ns3:atemp>23.0</ns3:atemp>
          </ns3:TrackPointExtension>
        </extensions>
      </trkpt>
      <trkpt lat="42.6335833780467510223388671875" lon="19.90384094417095184326171875">
        <ele>1433.800048828125</ele>
        <time>2026-06-16T07:41:58.000Z</time>
        <extensions>
          <ns3:TrackPointExtension>
            <ns3:atemp>23.0</ns3:atemp>
          </ns3:TrackPointExtension>
        </extensions>
      </trkpt>
      <trkpt lat="42.63360307551920413970947265625" lon="19.9038402736186981201171875">
        <ele>1433.5999755859375</ele>
        <time>2026-06-16T07:41:59.000Z</time>
        <extensions>
          <ns3:TrackPointExtension>
            <ns3:atemp>23.0</ns3:atemp>
          </ns3:TrackPointExtension>
        </extensions>
      </trkpt>
      <trkpt lat="42.63362671248614788055419921875" lon="19.9038441292941570281982421875">
        <ele>1433.4000244140625</ele>
        <time>2026-06-16T07:42:00.000Z</time>
        <extensions>
          <ns3:TrackPointExtension>
            <ns3:atemp>23.0</ns3:atemp>
          </ns3:TrackPointExtension>
        </extensions>
      </trkpt>
      <trkpt lat="42.63365328311920166015625" lon="19.90384630858898162841796875">
        <ele>1433.199951171875</ele>
        <time>2026-06-16T07:42:01.000Z</time>
        <extensions>
          <ns3:TrackPointExtension>
            <ns3:atemp>23.0</ns3:atemp>
          </ns3:TrackPointExtension>
        </extensions>
      </trkpt>
      <trkpt lat="42.63368102721869945526123046875" lon="19.90384873934090137481689453125">
        <ele>1433.199951171875</ele>
        <time>2026-06-16T07:42:02.000Z</time>
        <extensions>
          <ns3:TrackPointExtension>
            <ns3:atemp>23.0</ns3:atemp>
          </ns3:TrackPointExtension>
        </extensions>
      </trkpt>
      <trkpt lat="42.63370969332754611968994140625" lon="19.903852678835391998291015625">
        <ele>1433.199951171875</ele>
        <time>2026-06-16T07:42:03.000Z</time>
        <extensions>
          <ns3:TrackPointExtension>
            <ns3:atemp>23.0</ns3:atemp>
          </ns3:TrackPointExtension>
        </extensions>
      </trkpt>
      <trkpt lat="42.633736096322536468505859375" lon="19.90385510958731174468994140625">
        <ele>1433.199951171875</ele>
        <time>2026-06-16T07:42:04.000Z</time>
        <extensions>
          <ns3:TrackPointExtension>
            <ns3:atemp>23.0</ns3:atemp>
          </ns3:TrackPointExtension>
        </extensions>
      </trkpt>
      <trkpt lat="42.6337637566030025482177734375" lon="19.9038561992347240447998046875">
        <ele>1433.199951171875</ele>
        <time>2026-06-16T07:42:05.000Z</time>
        <extensions>
          <ns3:TrackPointExtension>
            <ns3:atemp>23.0</ns3:atemp>
          </ns3:TrackPointExtension>
        </extensions>
      </trkpt>
      <trkpt lat="42.63379133306443691253662109375" lon="19.903856702148914337158203125">
        <ele>1433.4000244140625</ele>
        <time>2026-06-16T07:42:06.000Z</time>
        <extensions>
          <ns3:TrackPointExtension>
            <ns3:atemp>23.0</ns3:atemp>
          </ns3:TrackPointExtension>
        </extensions>
      </trkpt>
      <trkpt lat="42.6338204182684421539306640625" lon="19.9038538523018360137939453125">
        <ele>1433.5999755859375</ele>
        <time>2026-06-16T07:42:07.000Z</time>
        <extensions>
          <ns3:TrackPointExtension>
            <ns3:atemp>23.0</ns3:atemp>
          </ns3:TrackPointExtension>
        </extensions>
      </trkpt>
      <trkpt lat="42.63384581543505191802978515625" lon="19.9038541875779628753662109375">
        <ele>1433.5999755859375</ele>
        <time>2026-06-16T07:42:08.000Z</time>
        <extensions>
          <ns3:TrackPointExtension>
            <ns3:atemp>23.0</ns3:atemp>
          </ns3:TrackPointExtension>
        </extensions>
      </trkpt>
      <trkpt lat="42.63387196697294712066650390625" lon="19.903849326074123382568359375">
        <ele>1433.800048828125</ele>
        <time>2026-06-16T07:42:09.000Z</time>
        <extensions>
          <ns3:TrackPointExtension>
            <ns3:atemp>23.0</ns3:atemp>
          </ns3:TrackPointExtension>
        </extensions>
      </trkpt>
      <trkpt lat="42.6338961906731128692626953125" lon="19.9038411118090152740478515625">
        <ele>1434</ele>
        <time>2026-06-16T07:42:10.000Z</time>
        <extensions>
          <ns3:TrackPointExtension>
            <ns3:atemp>23.0</ns3:atemp>
          </ns3:TrackPointExtension>
        </extensions>
      </trkpt>
      <trkpt lat="42.63391412794589996337890625" lon="19.90383021533489227294921875">
        <ele>1434</ele>
        <time>2026-06-16T07:42:11.000Z</time>
        <extensions>
          <ns3:TrackPointExtension>
            <ns3:atemp>23.0</ns3:atemp>
          </ns3:TrackPointExtension>
        </extensions>
      </trkpt>
      <trkpt lat="42.63393281958997249603271484375" lon="19.90381948649883270263671875">
        <ele>1434.199951171875</ele>
        <time>2026-06-16T07:42:12.000Z</time>
        <extensions>
          <ns3:TrackPointExtension>
            <ns3:atemp>23.0</ns3:atemp>
          </ns3:TrackPointExtension>
        </extensions>
      </trkpt>
      <trkpt lat="42.63395478017628192901611328125" lon="19.90381839685142040252685546875">
        <ele>1434.199951171875</ele>
        <time>2026-06-16T07:42:13.000Z</time>
        <extensions>
          <ns3:TrackPointExtension>
            <ns3:atemp>23.0</ns3:atemp>
          </ns3:TrackPointExtension>
        </extensions>
      </trkpt>
      <trkpt lat="42.6339805126190185546875" lon="19.90382158197462558746337890625">
        <ele>1434.199951171875</ele>
        <time>2026-06-16T07:42:14.000Z</time>
        <extensions>
          <ns3:TrackPointExtension>
            <ns3:atemp>23.0</ns3:atemp>
          </ns3:TrackPointExtension>
        </extensions>
      </trkpt>
      <trkpt lat="42.63400440104305744171142578125" lon="19.9038303829729557037353515625">
        <ele>1434.4000244140625</ele>
        <time>2026-06-16T07:42:15.000Z</time>
        <extensions>
          <ns3:TrackPointExtension>
            <ns3:atemp>23.0</ns3:atemp>
          </ns3:TrackPointExtension>
        </extensions>
      </trkpt>
      <trkpt lat="42.6340262778103351593017578125" lon="19.90383423864841461181640625">
        <ele>1434.4000244140625</ele>
        <time>2026-06-16T07:42:16.000Z</time>
        <extensions>
          <ns3:TrackPointExtension>
            <ns3:atemp>23.0</ns3:atemp>
          </ns3:TrackPointExtension>
        </extensions>
      </trkpt>
      <trkpt lat="42.63404446654021739959716796875" lon="19.90383960306644439697265625">
        <ele>1434.4000244140625</ele>
        <time>2026-06-16T07:42:17.000Z</time>
        <extensions>
          <ns3:TrackPointExtension>
            <ns3:atemp>23.0</ns3:atemp>
          </ns3:TrackPointExtension>
        </extensions>
      </trkpt>
      <trkpt lat="42.634061984717845916748046875" lon="19.90384899079799652099609375">
        <ele>1434.4000244140625</ele>
        <time>2026-06-16T07:42:18.000Z</time>
        <extensions>
          <ns3:TrackPointExtension>
            <ns3:atemp>23.0</ns3:atemp>
          </ns3:TrackPointExtension>
        </extensions>
      </trkpt>
      <trkpt lat="42.63408319093286991119384765625" lon="19.90385427139699459075927734375">
        <ele>1434.4000244140625</ele>
        <time>2026-06-16T07:42:19.000Z</time>
        <extensions>
          <ns3:TrackPointExtension>
            <ns3:atemp>23.0</ns3:atemp>
          </ns3:TrackPointExtension>
        </extensions>
      </trkpt>
      <trkpt lat="42.63410984538495540618896484375" lon="19.90385594777762889862060546875">
        <ele>1434.199951171875</ele>
        <time>2026-06-16T07:42:20.000Z</time>
        <extensions>
          <ns3:TrackPointExtension>
            <ns3:atemp>23.0</ns3:atemp>
          </ns3:TrackPointExtension>
        </extensions>
      </trkpt>
      <trkpt lat="42.63413482345640659332275390625" lon="19.903853349387645721435546875">
        <ele>1434</ele>
        <time>2026-06-16T07:42:21.000Z</time>
        <extensions>
          <ns3:TrackPointExtension>
            <ns3:atemp>23.0</ns3:atemp>
          </ns3:TrackPointExtension>
        </extensions>
      </trkpt>
      <trkpt lat="42.63415477238595485687255859375" lon="19.90385293029248714447021484375">
        <ele>1434</ele>
        <time>2026-06-16T07:42:22.000Z</time>
        <extensions>
          <ns3:TrackPointExtension>
            <ns3:atemp>23.0</ns3:atemp>
          </ns3:TrackPointExtension>
        </extensions>
      </trkpt>
      <trkpt lat="42.63417136855423450469970703125" lon="19.903849996626377105712890625">
        <ele>1434</ele>
        <time>2026-06-16T07:42:23.000Z</time>
        <extensions>
          <ns3:TrackPointExtension>
            <ns3:atemp>23.0</ns3:atemp>
          </ns3:TrackPointExtension>
        </extensions>
      </trkpt>
      <trkpt lat="42.63418863527476787567138671875" lon="19.9038474820554256439208984375">
        <ele>1434.199951171875</ele>
        <time>2026-06-16T07:42:24.000Z</time>
        <extensions>
          <ns3:TrackPointExtension>
            <ns3:atemp>23.0</ns3:atemp>
          </ns3:TrackPointExtension>
        </extensions>
      </trkpt>
      <trkpt lat="42.63420657254755496978759765625" lon="19.90384588949382305145263671875">
        <ele>1434.199951171875</ele>
        <time>2026-06-16T07:42:25.000Z</time>
        <extensions>
          <ns3:TrackPointExtension>
            <ns3:atemp>23.0</ns3:atemp>
          </ns3:TrackPointExtension>
        </extensions>
      </trkpt>
      <trkpt lat="42.6342234201729297637939453125" lon="19.9038437940180301666259765625">
        <ele>1434.199951171875</ele>
        <time>2026-06-16T07:42:26.000Z</time>
        <extensions>
          <ns3:TrackPointExtension>
            <ns3:atemp>23.0</ns3:atemp>
          </ns3:TrackPointExtension>
        </extensions>
      </trkpt>
      <trkpt lat="42.6342415250837802886962890625" lon="19.9038402736186981201171875">
        <ele>1434.199951171875</ele>
        <time>2026-06-16T07:42:27.000Z</time>
        <extensions>
          <ns3:TrackPointExtension>
            <ns3:atemp>23.0</ns3:atemp>
          </ns3:TrackPointExtension>
        </extensions>
      </trkpt>
      <trkpt lat="42.6342582888901233673095703125" lon="19.90383767522871494293212890625">
        <ele>1434.199951171875</ele>
        <time>2026-06-16T07:42:28.000Z</time>
        <extensions>
          <ns3:TrackPointExtension>
            <ns3:atemp>23.0</ns3:atemp>
          </ns3:TrackPointExtension>
        </extensions>
      </trkpt>
      <trkpt lat="42.6342760585248470306396484375" lon="19.9038310535252094268798828125">
        <ele>1434.199951171875</ele>
        <time>2026-06-16T07:42:29.000Z</time>
        <extensions>
          <ns3:TrackPointExtension>
            <ns3:atemp>23.0</ns3:atemp>
          </ns3:TrackPointExtension>
        </extensions>
      </trkpt>
      <trkpt lat="42.6342911459505558013916015625" lon="19.90382124669849872589111328125">
        <ele>1434.199951171875</ele>
        <time>2026-06-16T07:42:30.000Z</time>
        <extensions>
          <ns3:TrackPointExtension>
            <ns3:atemp>23.0</ns3:atemp>
          </ns3:TrackPointExtension>
        </extensions>
      </trkpt>
      <trkpt lat="42.6343095861375331878662109375" lon="19.90381487645208835601806640625">
        <ele>1434.4000244140625</ele>
        <time>2026-06-16T07:42:31.000Z</time>
        <extensions>
          <ns3:TrackPointExtension>
            <ns3:atemp>23.0</ns3:atemp>
          </ns3:TrackPointExtension>
        </extensions>
      </trkpt>
      <trkpt lat="42.63433330692350864410400390625" lon="19.90380699746310710906982421875">
        <ele>1434.5999755859375</ele>
        <time>2026-06-16T07:42:32.000Z</time>
        <extensions>
          <ns3:TrackPointExtension>
            <ns3:atemp>23.0</ns3:atemp>
          </ns3:TrackPointExtension>
        </extensions>
      </trkpt>
      <trkpt lat="42.63435426168143749237060546875" lon="19.90380071103572845458984375">
        <ele>1434.800048828125</ele>
        <time>2026-06-16T07:42:33.000Z</time>
        <extensions>
          <ns3:TrackPointExtension>
            <ns3:atemp>23.0</ns3:atemp>
          </ns3:TrackPointExtension>
        </extensions>
      </trkpt>
      <trkpt lat="42.63437815010547637939453125" lon="19.90378956310451030731201171875">
        <ele>1435</ele>
        <time>2026-06-16T07:42:34.000Z</time>
        <extensions>
          <ns3:TrackPointExtension>
            <ns3:atemp>23.0</ns3:atemp>
          </ns3:TrackPointExtension>
        </extensions>
      </trkpt>
      <trkpt lat="42.634401954710483551025390625" lon="19.903772212564945220947265625">
        <ele>1435.199951171875</ele>
        <time>2026-06-16T07:42:35.000Z</time>
        <extensions>
          <ns3:TrackPointExtension>
            <ns3:atemp>23.0</ns3:atemp>
          </ns3:TrackPointExtension>
        </extensions>
      </trkpt>
      <trkpt lat="42.63442316092550754547119140625" lon="19.90375318564474582672119140625">
        <ele>1435.4000244140625</ele>
        <time>2026-06-16T07:42:36.000Z</time>
        <extensions>
          <ns3:TrackPointExtension>
            <ns3:atemp>23.0</ns3:atemp>
          </ns3:TrackPointExtension>
        </extensions>
      </trkpt>
      <trkpt lat="42.63444327749311923980712890625" lon="19.90373088978230953216552734375">
        <ele>1435.5999755859375</ele>
        <time>2026-06-16T07:42:37.000Z</time>
        <extensions>
          <ns3:TrackPointExtension>
            <ns3:atemp>23.0</ns3:atemp>
          </ns3:TrackPointExtension>
        </extensions>
      </trkpt>
      <trkpt lat="42.63446423225104808807373046875" lon="19.9037080071866512298583984375">
        <ele>1435.800048828125</ele>
        <time>2026-06-16T07:42:38.000Z</time>
        <extensions>
          <ns3:TrackPointExtension>
            <ns3:atemp>23.0</ns3:atemp>
          </ns3:TrackPointExtension>
        </extensions>
      </trkpt>
      <trkpt lat="42.6344832591712474822998046875" lon="19.90368361584842205047607421875">
        <ele>1436</ele>
        <time>2026-06-16T07:42:39.000Z</time>
        <extensions>
          <ns3:TrackPointExtension>
            <ns3:atemp>23.0</ns3:atemp>
          </ns3:TrackPointExtension>
        </extensions>
      </trkpt>
      <trkpt lat="42.63450111262500286102294921875" lon="19.90366249345242977142333984375">
        <ele>1436.199951171875</ele>
        <time>2026-06-16T07:42:40.000Z</time>
        <extensions>
          <ns3:TrackPointExtension>
            <ns3:atemp>23.0</ns3:atemp>
          </ns3:TrackPointExtension>
        </extensions>
      </trkpt>
      <trkpt lat="42.63451888225972652435302734375" lon="19.90363843739032745361328125">
        <ele>1436.199951171875</ele>
        <time>2026-06-16T07:42:41.000Z</time>
        <extensions>
          <ns3:TrackPointExtension>
            <ns3:atemp>23.0</ns3:atemp>
          </ns3:TrackPointExtension>
        </extensions>
      </trkpt>
      <trkpt lat="42.63453564606606960296630859375" lon="19.90361689589917659759521484375">
        <ele>1436.4000244140625</ele>
        <time>2026-06-16T07:42:42.000Z</time>
        <extensions>
          <ns3:TrackPointExtension>
            <ns3:atemp>23.0</ns3:atemp>
          </ns3:TrackPointExtension>
        </extensions>
      </trkpt>
      <trkpt lat="42.63455308042466640472412109375" lon="19.90359485149383544921875">
        <ele>1436.5999755859375</ele>
        <time>2026-06-16T07:42:43.000Z</time>
        <extensions>
          <ns3:TrackPointExtension>
            <ns3:atemp>23.0</ns3:atemp>
          </ns3:TrackPointExtension>
        </extensions>
      </trkpt>
      <trkpt lat="42.63456900604069232940673828125" lon="19.903573058545589447021484375">
        <ele>1436.800048828125</ele>
        <time>2026-06-16T07:42:44.000Z</time>
        <extensions>
          <ns3:TrackPointExtension>
            <ns3:atemp>23.0</ns3:atemp>
          </ns3:TrackPointExtension>
        </extensions>
      </trkpt>
      <trkpt lat="42.6345855183899402618408203125" lon="19.903552271425724029541015625">
        <ele>1436.800048828125</ele>
        <time>2026-06-16T07:42:45.000Z</time>
        <extensions>
          <ns3:TrackPointExtension>
            <ns3:atemp>23.0</ns3:atemp>
          </ns3:TrackPointExtension>
        </extensions>
      </trkpt>
      <trkpt lat="42.634599097073078155517578125" lon="19.9035313166677951812744140625">
        <ele>1437</ele>
        <time>2026-06-16T07:42:46.000Z</time>
        <extensions>
          <ns3:TrackPointExtension>
            <ns3:atemp>23.0</ns3:atemp>
          </ns3:TrackPointExtension>
        </extensions>
      </trkpt>
      <trkpt lat="42.6346143521368503570556640625" lon="19.90350809879601001739501953125">
        <ele>1437.199951171875</ele>
        <time>2026-06-16T07:42:47.000Z</time>
        <extensions>
          <ns3:TrackPointExtension>
            <ns3:atemp>23.0</ns3:atemp>
          </ns3:TrackPointExtension>
        </extensions>
      </trkpt>
      <trkpt lat="42.634632624685764312744140625" lon="19.9034863896667957305908203125">
        <ele>1437.199951171875</ele>
        <time>2026-06-16T07:42:48.000Z</time>
        <extensions>
          <ns3:TrackPointExtension>
            <ns3:atemp>23.0</ns3:atemp>
          </ns3:TrackPointExtension>
        </extensions>
      </trkpt>
      <trkpt lat="42.6346465386450290679931640625" lon="19.90346275269985198974609375">
        <ele>1437.4000244140625</ele>
        <time>2026-06-16T07:42:49.000Z</time>
        <extensions>
          <ns3:TrackPointExtension>
            <ns3:atemp>23.0</ns3:atemp>
          </ns3:TrackPointExtension>
        </extensions>
      </trkpt>
      <trkpt lat="42.63465886004269123077392578125" lon="19.90344255231320858001708984375">
        <ele>1437.4000244140625</ele>
        <time>2026-06-16T07:42:50.000Z</time>
        <extensions>
          <ns3:TrackPointExtension>
            <ns3:atemp>23.0</ns3:atemp>
          </ns3:TrackPointExtension>
        </extensions>
      </trkpt>
      <trkpt lat="42.6346713490784168243408203125" lon="19.90342277102172374725341796875">
        <ele>1437.5999755859375</ele>
        <time>2026-06-16T07:42:51.000Z</time>
        <extensions>
          <ns3:TrackPointExtension>
            <ns3:atemp>23.0</ns3:atemp>
          </ns3:TrackPointExtension>
        </extensions>
      </trkpt>
      <trkpt lat="42.63468869961798191070556640625" lon="19.9034035764634609222412109375">
        <ele>1438</ele>
        <time>2026-06-16T07:42:52.000Z</time>
        <extensions>
          <ns3:TrackPointExtension>
            <ns3:atemp>23.0</ns3:atemp>
          </ns3:TrackPointExtension>
        </extensions>
      </trkpt>
      <trkpt lat="42.6347052119672298431396484375" lon="19.90338069386780261993408203125">
        <ele>1438.199951171875</ele>
        <time>2026-06-16T07:42:53.000Z</time>
        <extensions>
          <ns3:TrackPointExtension>
            <ns3:atemp>23.0</ns3:atemp>
          </ns3:TrackPointExtension>
        </extensions>
      </trkpt>
      <trkpt lat="42.63472205959260463714599609375" lon="19.90335973910987377166748046875">
        <ele>1438.4000244140625</ele>
        <time>2026-06-16T07:42:54.000Z</time>
        <extensions>
          <ns3:TrackPointExtension>
            <ns3:atemp>23.0</ns3:atemp>
          </ns3:TrackPointExtension>
        </extensions>
      </trkpt>
      <trkpt lat="42.6347414217889308929443359375" lon="19.903339035809040069580078125">
        <ele>1438.5999755859375</ele>
        <time>2026-06-16T07:42:55.000Z</time>
        <extensions>
          <ns3:TrackPointExtension>
            <ns3:atemp>23.0</ns3:atemp>
          </ns3:TrackPointExtension>
        </extensions>
      </trkpt>
      <trkpt lat="42.634758017957210540771484375" lon="19.90332118235528469085693359375">
        <ele>1438.800048828125</ele>
        <time>2026-06-16T07:42:56.000Z</time>
        <extensions>
          <ns3:TrackPointExtension>
            <ns3:atemp>23.0</ns3:atemp>
          </ns3:TrackPointExtension>
        </extensions>
      </trkpt>
      <trkpt lat="42.63477419503033161163330078125" lon="19.9032996408641338348388671875">
        <ele>1439</ele>
        <time>2026-06-16T07:42:57.000Z</time>
        <extensions>
          <ns3:TrackPointExtension>
            <ns3:atemp>23.0</ns3:atemp>
          </ns3:TrackPointExtension>
        </extensions>
      </trkpt>
      <trkpt lat="42.63478643260896205902099609375" lon="19.90327524952590465545654296875">
        <ele>1439.4000244140625</ele>
        <time>2026-06-16T07:42:58.000Z</time>
        <extensions>
          <ns3:TrackPointExtension>
            <ns3:atemp>23.0</ns3:atemp>
          </ns3:TrackPointExtension>
        </extensions>
      </trkpt>
      <trkpt lat="42.63479732908308506011962890625" lon="19.90324876271188259124755859375">
        <ele>1439.5999755859375</ele>
        <time>2026-06-16T07:42:59.000Z</time>
        <extensions>
          <ns3:TrackPointExtension>
            <ns3:atemp>23.0</ns3:atemp>
          </ns3:TrackPointExtension>
        </extensions>
      </trkpt>
      <trkpt lat="42.6348061300814151763916015625" lon="19.90322244353592395782470703125">
        <ele>1440</ele>
        <time>2026-06-16T07:43:00.000Z</time>
        <extensions>
          <ns3:TrackPointExtension>
            <ns3:atemp>23.0</ns3:atemp>
          </ns3:TrackPointExtension>
        </extensions>
      </trkpt>
      <trkpt lat="42.634814344346523284912109375" lon="19.90319528616964817047119140625">
        <ele>1440.199951171875</ele>
        <time>2026-06-16T07:43:01.000Z</time>
        <extensions>
          <ns3:TrackPointExtension>
            <ns3:atemp>23.0</ns3:atemp>
          </ns3:TrackPointExtension>
        </extensions>
      </trkpt>
      <trkpt lat="42.63482331298291683197021484375" lon="19.903168044984340667724609375">
        <ele>1440.5999755859375</ele>
        <time>2026-06-16T07:43:02.000Z</time>
        <extensions>
          <ns3:TrackPointExtension>
            <ns3:atemp>23.0</ns3:atemp>
          </ns3:TrackPointExtension>
        </extensions>
      </trkpt>
      <trkpt lat="42.63483454473316669464111328125" lon="19.90314264781773090362548828125">
        <ele>1441</ele>
        <time>2026-06-16T07:43:03.000Z</time>
        <extensions>
          <ns3:TrackPointExtension>
            <ns3:atemp>23.0</ns3:atemp>
          </ns3:TrackPointExtension>
        </extensions>
      </trkpt>
      <trkpt lat="42.63484644703567028045654296875" lon="19.903115741908550262451171875">
        <ele>1441</ele>
        <time>2026-06-16T07:43:04.000Z</time>
        <extensions>
          <ns3:TrackPointExtension>
            <ns3:atemp>23.0</ns3:atemp>
          </ns3:TrackPointExtension>
        </extensions>
      </trkpt>
      <trkpt lat="42.6348624564707279205322265625" lon="19.9030880816280841827392578125">
        <ele>1441.199951171875</ele>
        <time>2026-06-16T07:43:05.000Z</time>
        <extensions>
          <ns3:TrackPointExtension>
            <ns3:atemp>23.0</ns3:atemp>
          </ns3:TrackPointExtension>
        </extensions>
      </trkpt>
      <trkpt lat="42.634877376258373260498046875" lon="19.90306251682341098785400390625">
        <ele>1441.4000244140625</ele>
        <time>2026-06-16T07:43:06.000Z</time>
        <extensions>
          <ns3:TrackPointExtension>
            <ns3:atemp>23.0</ns3:atemp>
          </ns3:TrackPointExtension>
        </extensions>
      </trkpt>
      <trkpt lat="42.63489221222698688507080078125" lon="19.9030361138284206390380859375">
        <ele>1441.199951171875</ele>
        <time>2026-06-16T07:43:07.000Z</time>
        <extensions>
          <ns3:TrackPointExtension>
            <ns3:atemp>23.0</ns3:atemp>
          </ns3:TrackPointExtension>
        </extensions>
      </trkpt>
      <trkpt lat="42.6349070481956005096435546875" lon="19.9030129797756671905517578125">
        <ele>1441.4000244140625</ele>
        <time>2026-06-16T07:43:08.000Z</time>
        <extensions>
          <ns3:TrackPointExtension>
            <ns3:atemp>23.0</ns3:atemp>
          </ns3:TrackPointExtension>
        </extensions>
      </trkpt>
      <trkpt lat="42.63492389582097530364990234375" lon="19.9029886722564697265625">
        <ele>1441.4000244140625</ele>
        <time>2026-06-16T07:43:09.000Z</time>
        <extensions>
          <ns3:TrackPointExtension>
            <ns3:atemp>23.0</ns3:atemp>
          </ns3:TrackPointExtension>
        </extensions>
      </trkpt>
      <trkpt lat="42.63493831269443035125732421875" lon="19.902963526546955108642578125">
        <ele>1441.4000244140625</ele>
        <time>2026-06-16T07:43:10.000Z</time>
        <extensions>
          <ns3:TrackPointExtension>
            <ns3:atemp>23.0</ns3:atemp>
          </ns3:TrackPointExtension>
        </extensions>
      </trkpt>
      <trkpt lat="42.63495239429175853729248046875" lon="19.902940057218074798583984375">
        <ele>1441.4000244140625</ele>
        <time>2026-06-16T07:43:11.000Z</time>
        <extensions>
          <ns3:TrackPointExtension>
            <ns3:atemp>23.0</ns3:atemp>
          </ns3:TrackPointExtension>
        </extensions>
      </trkpt>
      <trkpt lat="42.63496513478457927703857421875" lon="19.902917928993701934814453125">
        <ele>1441.5999755859375</ele>
        <time>2026-06-16T07:43:12.000Z</time>
        <extensions>
          <ns3:TrackPointExtension>
            <ns3:atemp>23.0</ns3:atemp>
          </ns3:TrackPointExtension>
        </extensions>
      </trkpt>
      <trkpt lat="42.63497770763933658599853515625" lon="19.9028963036835193634033203125">
        <ele>1441.5999755859375</ele>
        <time>2026-06-16T07:43:13.000Z</time>
        <extensions>
          <ns3:TrackPointExtension>
            <ns3:atemp>23.0</ns3:atemp>
          </ns3:TrackPointExtension>
        </extensions>
      </trkpt>
      <trkpt lat="42.6349905319511890411376953125" lon="19.9028721638023853302001953125">
        <ele>1441.800048828125</ele>
        <time>2026-06-16T07:43:14.000Z</time>
        <extensions>
          <ns3:TrackPointExtension>
            <ns3:atemp>23.0</ns3:atemp>
          </ns3:TrackPointExtension>
        </extensions>
      </trkpt>
      <trkpt lat="42.6350066252052783966064453125" lon="19.90284961648285388946533203125">
        <ele>1441.800048828125</ele>
        <time>2026-06-16T07:43:15.000Z</time>
        <extensions>
          <ns3:TrackPointExtension>
            <ns3:atemp>23.0</ns3:atemp>
          </ns3:TrackPointExtension>
        </extensions>
      </trkpt>
      <trkpt lat="42.63501877896487712860107421875" lon="19.90282916463911533355712890625">
        <ele>1442</ele>
        <time>2026-06-16T07:43:16.000Z</time>
        <extensions>
          <ns3:TrackPointExtension>
            <ns3:atemp>23.0</ns3:atemp>
          </ns3:TrackPointExtension>
        </extensions>
      </trkpt>
      <trkpt lat="42.635030262172222137451171875" lon="19.902805946767330169677734375">
        <ele>1442.199951171875</ele>
        <time>2026-06-16T07:43:17.000Z</time>
        <extensions>
          <ns3:TrackPointExtension>
            <ns3:atemp>23.0</ns3:atemp>
          </ns3:TrackPointExtension>
        </extensions>
      </trkpt>
      <trkpt lat="42.63504308648407459259033203125" lon="19.90278155542910099029541015625">
        <ele>1442.199951171875</ele>
        <time>2026-06-16T07:43:18.000Z</time>
        <extensions>
          <ns3:TrackPointExtension>
            <ns3:atemp>23.0</ns3:atemp>
          </ns3:TrackPointExtension>
        </extensions>
      </trkpt>
      <trkpt lat="42.63505415059626102447509765625" lon="19.9027568288147449493408203125">
        <ele>1442.5999755859375</ele>
        <time>2026-06-16T07:43:19.000Z</time>
        <extensions>
          <ns3:TrackPointExtension>
            <ns3:atemp>23.0</ns3:atemp>
          </ns3:TrackPointExtension>
        </extensions>
      </trkpt>
      <trkpt lat="42.6350642926990985870361328125" lon="19.90273428149521350860595703125">
        <ele>1443</ele>
        <time>2026-06-16T07:43:20.000Z</time>
        <extensions>
          <ns3:TrackPointExtension>
            <ns3:atemp>23.0</ns3:atemp>
          </ns3:TrackPointExtension>
        </extensions>
      </trkpt>
      <trkpt lat="42.63507493771612644195556640625" lon="19.90271181799471378326416015625">
        <ele>1443.4000244140625</ele>
        <time>2026-06-16T07:43:21.000Z</time>
        <extensions>
          <ns3:TrackPointExtension>
            <ns3:atemp>23.0</ns3:atemp>
          </ns3:TrackPointExtension>
        </extensions>
      </trkpt>
      <trkpt lat="42.635085918009281158447265625" lon="19.9026860855519771575927734375">
        <ele>1443.5999755859375</ele>
        <time>2026-06-16T07:43:22.000Z</time>
        <extensions>
          <ns3:TrackPointExtension>
            <ns3:atemp>23.0</ns3:atemp>
          </ns3:TrackPointExtension>
        </extensions>
      </trkpt>
      <trkpt lat="42.63509471900761127471923828125" lon="19.9026572518050670623779296875">
        <ele>1444</ele>
        <time>2026-06-16T07:43:23.000Z</time>
        <extensions>
          <ns3:TrackPointExtension>
            <ns3:atemp>23.0</ns3:atemp>
          </ns3:TrackPointExtension>
        </extensions>
      </trkpt>
      <trkpt lat="42.63510477729141712188720703125" lon="19.90263721905648708343505859375">
        <ele>1444.4000244140625</ele>
        <time>2026-06-16T07:43:24.000Z</time>
        <extensions>
          <ns3:TrackPointExtension>
            <ns3:atemp>23.0</ns3:atemp>
          </ns3:TrackPointExtension>
        </extensions>
      </trkpt>
      <trkpt lat="42.63511047698557376861572265625" lon="19.9026176892220973968505859375">
        <ele>1444.5999755859375</ele>
        <time>2026-06-16T07:43:25.000Z</time>
        <extensions>
          <ns3:TrackPointExtension>
            <ns3:atemp>23.0</ns3:atemp>
          </ns3:TrackPointExtension>
        </extensions>
      </trkpt>
      <trkpt lat="42.63511651195585727691650390625" lon="19.90259715355932712554931640625">
        <ele>1444.800048828125</ele>
        <time>2026-06-16T07:43:26.000Z</time>
        <extensions>
          <ns3:TrackPointExtension>
            <ns3:atemp>23.0</ns3:atemp>
          </ns3:TrackPointExtension>
        </extensions>
      </trkpt>
      <trkpt lat="42.63511843979358673095703125" lon="19.90258340723812580108642578125">
        <ele>1445</ele>
        <time>2026-06-16T07:43:27.000Z</time>
        <extensions>
          <ns3:TrackPointExtension>
            <ns3:atemp>23.0</ns3:atemp>
          </ns3:TrackPointExtension>
        </extensions>
      </trkpt>
      <trkpt lat="42.6351249776780605316162109375" lon="19.90256379358470439910888671875">
        <ele>1445.199951171875</ele>
        <time>2026-06-16T07:43:28.000Z</time>
        <extensions>
          <ns3:TrackPointExtension>
            <ns3:atemp>23.0</ns3:atemp>
          </ns3:TrackPointExtension>
        </extensions>
      </trkpt>
      <trkpt lat="42.6351244747638702392578125" lon="19.90254141390323638916015625">
        <ele>1445.4000244140625</ele>
        <time>2026-06-16T07:43:29.000Z</time>
        <extensions>
          <ns3:TrackPointExtension>
            <ns3:atemp>23.0</ns3:atemp>
          </ns3:TrackPointExtension>
        </extensions>
      </trkpt>
      <trkpt lat="42.6351293362677097320556640625" lon="19.90251719020307064056396484375">
        <ele>1445.5999755859375</ele>
        <time>2026-06-16T07:43:30.000Z</time>
        <extensions>
          <ns3:TrackPointExtension>
            <ns3:atemp>23.0</ns3:atemp>
          </ns3:TrackPointExtension>
        </extensions>
      </trkpt>
      <trkpt lat="42.63513579033315181732177734375" lon="19.90248885937035083770751953125">
        <ele>1445.5999755859375</ele>
        <time>2026-06-16T07:43:31.000Z</time>
        <extensions>
          <ns3:TrackPointExtension>
            <ns3:atemp>23.0</ns3:atemp>
          </ns3:TrackPointExtension>
        </extensions>
      </trkpt>
      <trkpt lat="42.63513914309442043304443359375" lon="19.9024651385843753814697265625">
        <ele>1445.800048828125</ele>
        <time>2026-06-16T07:43:32.000Z</time>
        <extensions>
          <ns3:TrackPointExtension>
            <ns3:atemp>23.0</ns3:atemp>
          </ns3:TrackPointExtension>
        </extensions>
      </trkpt>
      <trkpt lat="42.6351461000740528106689453125" lon="19.90243789739906787872314453125">
        <ele>1446.199951171875</ele>
        <time>2026-06-16T07:43:33.000Z</time>
        <extensions>
          <ns3:TrackPointExtension>
            <ns3:atemp>23.0</ns3:atemp>
          </ns3:TrackPointExtension>
        </extensions>
      </trkpt>
      <trkpt lat="42.635149620473384857177734375" lon="19.90241057239472866058349609375">
        <ele>1446.4000244140625</ele>
        <time>2026-06-16T07:43:34.000Z</time>
        <extensions>
          <ns3:TrackPointExtension>
            <ns3:atemp>23.0</ns3:atemp>
          </ns3:TrackPointExtension>
        </extensions>
      </trkpt>
      <trkpt lat="42.635156325995922088623046875" lon="19.902388192713260650634765625">
        <ele>1446.5999755859375</ele>
        <time>2026-06-16T07:43:35.000Z</time>
        <extensions>
          <ns3:TrackPointExtension>
            <ns3:atemp>23.0</ns3:atemp>
          </ns3:TrackPointExtension>
        </extensions>
      </trkpt>
      <trkpt lat="42.63516294769942760467529296875" lon="19.90236447192728519439697265625">
        <ele>1447</ele>
        <time>2026-06-16T07:43:36.000Z</time>
        <extensions>
          <ns3:TrackPointExtension>
            <ns3:atemp>23.0</ns3:atemp>
          </ns3:TrackPointExtension>
        </extensions>
      </trkpt>
      <trkpt lat="42.63516806066036224365234375" lon="19.902341924607753753662109375">
        <ele>1447.4000244140625</ele>
        <time>2026-06-16T07:43:37.000Z</time>
        <extensions>
          <ns3:TrackPointExtension>
            <ns3:atemp>23.0</ns3:atemp>
          </ns3:TrackPointExtension>
        </extensions>
      </trkpt>
      <trkpt lat="42.63517468236386775970458984375" lon="19.902319796383380889892578125">
        <ele>1447.800048828125</ele>
        <time>2026-06-16T07:43:38.000Z</time>
        <extensions>
          <ns3:TrackPointExtension>
            <ns3:atemp>23.0</ns3:atemp>
          </ns3:TrackPointExtension>
        </extensions>
      </trkpt>
      <trkpt lat="42.635183148086071014404296875" lon="19.9022985063493251800537109375">
        <ele>1448</ele>
        <time>2026-06-16T07:43:39.000Z</time>
        <extensions>
          <ns3:TrackPointExtension>
            <ns3:atemp>23.0</ns3:atemp>
          </ns3:TrackPointExtension>
        </extensions>
      </trkpt>
      <trkpt lat="42.63518926687538623809814453125" lon="19.9022783897817134857177734375">
        <ele>1448.4000244140625</ele>
        <time>2026-06-16T07:43:40.000Z</time>
        <extensions>
          <ns3:TrackPointExtension>
            <ns3:atemp>23.0</ns3:atemp>
          </ns3:TrackPointExtension>
        </extensions>
      </trkpt>
      <trkpt lat="42.6351967267692089080810546875" lon="19.90225785411894321441650390625">
        <ele>1448.800048828125</ele>
        <time>2026-06-16T07:43:41.000Z</time>
        <extensions>
          <ns3:TrackPointExtension>
            <ns3:atemp>23.0</ns3:atemp>
          </ns3:TrackPointExtension>
        </extensions>
      </trkpt>
      <trkpt lat="42.6352061145007610321044921875" lon="19.902235977351665496826171875">
        <ele>1449</ele>
        <time>2026-06-16T07:43:42.000Z</time>
        <extensions>
          <ns3:TrackPointExtension>
            <ns3:atemp>23.0</ns3:atemp>
          </ns3:TrackPointExtension>
        </extensions>
      </trkpt>
      <trkpt lat="42.6352131552994251251220703125" lon="19.90221016108989715576171875">
        <ele>1449.4000244140625</ele>
        <time>2026-06-16T07:43:43.000Z</time>
        <extensions>
          <ns3:TrackPointExtension>
            <ns3:atemp>23.0</ns3:atemp>
          </ns3:TrackPointExtension>
        </extensions>
      </trkpt>
      <trkpt lat="42.6352191902697086334228515625" lon="19.9021818302571773529052734375">
        <ele>1449.5999755859375</ele>
        <time>2026-06-16T07:43:44.000Z</time>
        <extensions>
          <ns3:TrackPointExtension>
            <ns3:atemp>23.0</ns3:atemp>
          </ns3:TrackPointExtension>
        </extensions>
      </trkpt>
      <trkpt lat="42.6352245546877384185791015625" lon="19.902154505252838134765625">
        <ele>1449.800048828125</ele>
        <time>2026-06-16T07:43:45.000Z</time>
        <extensions>
          <ns3:TrackPointExtension>
            <ns3:atemp>23.0</ns3:atemp>
          </ns3:TrackPointExtension>
        </extensions>
      </trkpt>
      <trkpt lat="42.63523050583899021148681640625" lon="19.902127347886562347412109375">
        <ele>1450</ele>
        <time>2026-06-16T07:43:46.000Z</time>
        <extensions>
          <ns3:TrackPointExtension>
            <ns3:atemp>23.0</ns3:atemp>
          </ns3:TrackPointExtension>
        </extensions>
      </trkpt>
      <trkpt lat="42.6352339424192905426025390625" lon="19.902099855244159698486328125">
        <ele>1450.4000244140625</ele>
        <time>2026-06-16T07:43:47.000Z</time>
        <extensions>
          <ns3:TrackPointExtension>
            <ns3:atemp>23.0</ns3:atemp>
          </ns3:TrackPointExtension>
        </extensions>
      </trkpt>
      <trkpt lat="42.63523905538022518157958984375" lon="19.90207412280142307281494140625">
        <ele>1450.5999755859375</ele>
        <time>2026-06-16T07:43:48.000Z</time>
        <extensions>
          <ns3:TrackPointExtension>
            <ns3:atemp>23.0</ns3:atemp>
          </ns3:TrackPointExtension>
        </extensions>
      </trkpt>
      <trkpt lat="42.63524073176085948944091796875" lon="19.90205249749124050140380859375">
        <ele>1450.800048828125</ele>
        <time>2026-06-16T07:43:49.000Z</time>
        <extensions>
          <ns3:TrackPointExtension>
            <ns3:atemp>23.0</ns3:atemp>
          </ns3:TrackPointExtension>
        </extensions>
      </trkpt>
      <trkpt lat="42.6352429948747158050537109375" lon="19.9020265974104404449462890625">
        <ele>1451.199951171875</ele>
        <time>2026-06-16T07:43:50.000Z</time>
        <extensions>
          <ns3:TrackPointExtension>
            <ns3:atemp>23.0</ns3:atemp>
          </ns3:TrackPointExtension>
        </extensions>
      </trkpt>
      <trkpt lat="42.63524584472179412841796875" lon="19.9020037986338138580322265625">
        <ele>1451.199951171875</ele>
        <time>2026-06-16T07:43:51.000Z</time>
        <extensions>
          <ns3:TrackPointExtension>
            <ns3:atemp>23.0</ns3:atemp>
          </ns3:TrackPointExtension>
        </extensions>
      </trkpt>
      <trkpt lat="42.6352554000914096832275390625" lon="19.901979826390743255615234375">
        <ele>1451.4000244140625</ele>
        <time>2026-06-16T07:43:52.000Z</time>
        <extensions>
          <ns3:TrackPointExtension>
            <ns3:atemp>23.0</ns3:atemp>
          </ns3:TrackPointExtension>
        </extensions>
      </trkpt>
      <trkpt lat="42.6352607645094394683837890625" lon="19.9019521661102771759033203125">
        <ele>1451.5999755859375</ele>
        <time>2026-06-16T07:43:53.000Z</time>
        <extensions>
          <ns3:TrackPointExtension>
            <ns3:atemp>23.0</ns3:atemp>
          </ns3:TrackPointExtension>
        </extensions>
      </trkpt>
      <trkpt lat="42.6352694816887378692626953125" lon="19.9019233323633670806884765625">
        <ele>1451.800048828125</ele>
        <time>2026-06-16T07:43:54.000Z</time>
        <extensions>
          <ns3:TrackPointExtension>
            <ns3:atemp>23.0</ns3:atemp>
          </ns3:TrackPointExtension>
        </extensions>
      </trkpt>
      <trkpt lat="42.635277695953845977783203125" lon="19.901894666254520416259765625">
        <ele>1452</ele>
        <time>2026-06-16T07:43:55.000Z</time>
        <extensions>
          <ns3:TrackPointExtension>
            <ns3:atemp>23.0</ns3:atemp>
          </ns3:TrackPointExtension>
        </extensions>
      </trkpt>
      <trkpt lat="42.6352832280099391937255859375" lon="19.9018636532127857208251953125">
        <ele>1452.199951171875</ele>
        <time>2026-06-16T07:43:56.000Z</time>
        <extensions>
          <ns3:TrackPointExtension>
            <ns3:atemp>23.0</ns3:atemp>
          </ns3:TrackPointExtension>
        </extensions>
      </trkpt>
      <trkpt lat="42.635287754237651824951171875" lon="19.90183331072330474853515625">
        <ele>1452.4000244140625</ele>
        <time>2026-06-16T07:43:57.000Z</time>
        <extensions>
          <ns3:TrackPointExtension>
            <ns3:atemp>23.0</ns3:atemp>
          </ns3:TrackPointExtension>
        </extensions>
      </trkpt>
      <trkpt lat="42.6352909393608570098876953125" lon="19.9018066562712192535400390625">
        <ele>1452.5999755859375</ele>
        <time>2026-06-16T07:43:58.000Z</time>
        <extensions>
          <ns3:TrackPointExtension>
            <ns3:atemp>23.0</ns3:atemp>
          </ns3:TrackPointExtension>
        </extensions>
      </trkpt>
      <trkpt lat="42.6352942921221256256103515625" lon="19.9017754755914211273193359375">
        <ele>1452.5999755859375</ele>
        <time>2026-06-16T07:43:59.000Z</time>
        <extensions>
          <ns3:TrackPointExtension>
            <ns3:atemp>23.0</ns3:atemp>
          </ns3:TrackPointExtension>
        </extensions>
      </trkpt>
      <trkpt lat="42.635302841663360595703125" lon="19.9017483182251453399658203125">
        <ele>1452.800048828125</ele>
        <time>2026-06-16T07:44:00.000Z</time>
        <extensions>
          <ns3:TrackPointExtension>
            <ns3:atemp>23.0</ns3:atemp>
          </ns3:TrackPointExtension>
        </extensions>
      </trkpt>
      <trkpt lat="42.6353103853762149810791015625" lon="19.9017218314111232757568359375">
        <ele>1453</ele>
        <time>2026-06-16T07:44:01.000Z</time>
        <extensions>
          <ns3:TrackPointExtension>
            <ns3:atemp>23.0</ns3:atemp>
          </ns3:TrackPointExtension>
        </extensions>
      </trkpt>
      <trkpt lat="42.6353194378316402435302734375" lon="19.901695512235164642333984375">
        <ele>1453.199951171875</ele>
        <time>2026-06-16T07:44:02.000Z</time>
        <extensions>
          <ns3:TrackPointExtension>
            <ns3:atemp>23.0</ns3:atemp>
          </ns3:TrackPointExtension>
        </extensions>
      </trkpt>
      <trkpt lat="42.6353274844586849212646484375" lon="19.90167179144918918609619140625">
        <ele>1453.4000244140625</ele>
        <time>2026-06-16T07:44:03.000Z</time>
        <extensions>
          <ns3:TrackPointExtension>
            <ns3:atemp>23.0</ns3:atemp>
          </ns3:TrackPointExtension>
        </extensions>
      </trkpt>
      <trkpt lat="42.63533527962863445281982421875" lon="19.90164547227323055267333984375">
        <ele>1453.5999755859375</ele>
        <time>2026-06-16T07:44:04.000Z</time>
        <extensions>
          <ns3:TrackPointExtension>
            <ns3:atemp>23.0</ns3:atemp>
          </ns3:TrackPointExtension>
        </extensions>
      </trkpt>
      <trkpt lat="42.63533838093280792236328125" lon="19.901621751487255096435546875">
        <ele>1453.800048828125</ele>
        <time>2026-06-16T07:44:05.000Z</time>
        <extensions>
          <ns3:TrackPointExtension>
            <ns3:atemp>23.0</ns3:atemp>
          </ns3:TrackPointExtension>
        </extensions>
      </trkpt>
      <trkpt lat="42.63534265570342540740966796875" lon="19.90159484557807445526123046875">
        <ele>1454</ele>
        <time>2026-06-16T07:44:06.000Z</time>
        <extensions>
          <ns3:TrackPointExtension>
            <ns3:atemp>23.0</ns3:atemp>
          </ns3:TrackPointExtension>
        </extensions>
      </trkpt>
      <trkpt lat="42.635349445044994354248046875" lon="19.901569448411464691162109375">
        <ele>1454.199951171875</ele>
        <time>2026-06-16T07:44:07.000Z</time>
        <extensions>
          <ns3:TrackPointExtension>
            <ns3:atemp>23.0</ns3:atemp>
          </ns3:TrackPointExtension>
        </extensions>
      </trkpt>
      <trkpt lat="42.63535774312913417816162109375" lon="19.90154053084552288055419921875">
        <ele>1454.4000244140625</ele>
        <time>2026-06-16T07:44:08.000Z</time>
        <extensions>
          <ns3:TrackPointExtension>
            <ns3:atemp>23.0</ns3:atemp>
          </ns3:TrackPointExtension>
        </extensions>
      </trkpt>
      <trkpt lat="42.63536444865167140960693359375" lon="19.90151412785053253173828125">
        <ele>1454.5999755859375</ele>
        <time>2026-06-16T07:44:09.000Z</time>
        <extensions>
          <ns3:TrackPointExtension>
            <ns3:atemp>23.0</ns3:atemp>
          </ns3:TrackPointExtension>
        </extensions>
      </trkpt>
      <trkpt lat="42.63536897487938404083251953125" lon="19.9014857970178127288818359375">
        <ele>1454.800048828125</ele>
        <time>2026-06-16T07:44:10.000Z</time>
        <extensions>
          <ns3:TrackPointExtension>
            <ns3:atemp>23.0</ns3:atemp>
          </ns3:TrackPointExtension>
        </extensions>
      </trkpt>
      <trkpt lat="42.635377608239650726318359375" lon="19.90145822055637836456298828125">
        <ele>1455</ele>
        <time>2026-06-16T07:44:11.000Z</time>
        <extensions>
          <ns3:TrackPointExtension>
            <ns3:atemp>23.0</ns3:atemp>
          </ns3:TrackPointExtension>
        </extensions>
      </trkpt>
      <trkpt lat="42.6353854872286319732666015625" lon="19.90143257193267345428466796875">
        <ele>1455.4000244140625</ele>
        <time>2026-06-16T07:44:12.000Z</time>
        <extensions>
          <ns3:TrackPointExtension>
            <ns3:atemp>23.0</ns3:atemp>
          </ns3:TrackPointExtension>
        </extensions>
      </trkpt>
      <trkpt lat="42.63539646752178668975830078125" lon="19.9014063365757465362548828125">
        <ele>1455.5999755859375</ele>
        <time>2026-06-16T07:44:13.000Z</time>
        <extensions>
          <ns3:TrackPointExtension>
            <ns3:atemp>23.0</ns3:atemp>
          </ns3:TrackPointExtension>
        </extensions>
      </trkpt>
      <trkpt lat="42.6354099623858928680419921875" lon="19.90138362161815166473388671875">
        <ele>1455.800048828125</ele>
        <time>2026-06-16T07:44:14.000Z</time>
        <extensions>
          <ns3:TrackPointExtension>
            <ns3:atemp>23.0</ns3:atemp>
          </ns3:TrackPointExtension>
        </extensions>
      </trkpt>
      <trkpt lat="42.635422535240650177001953125" lon="19.9013617448508739471435546875">
        <ele>1455.800048828125</ele>
        <time>2026-06-16T07:44:15.000Z</time>
        <extensions>
          <ns3:TrackPointExtension>
            <ns3:atemp>23.0</ns3:atemp>
          </ns3:TrackPointExtension>
        </extensions>
      </trkpt>
      <trkpt lat="42.63543519191443920135498046875" lon="19.9013377726078033447265625">
        <ele>1455.800048828125</ele>
        <time>2026-06-16T07:44:16.000Z</time>
        <extensions>
          <ns3:TrackPointExtension>
            <ns3:atemp>23.0</ns3:atemp>
          </ns3:TrackPointExtension>
        </extensions>
      </trkpt>
      <trkpt lat="42.63544877059757709503173828125" lon="19.9013144709169864654541015625">
        <ele>1455.800048828125</ele>
        <time>2026-06-16T07:44:17.000Z</time>
        <extensions>
          <ns3:TrackPointExtension>
            <ns3:atemp>23.0</ns3:atemp>
          </ns3:TrackPointExtension>
        </extensions>
      </trkpt>
      <trkpt lat="42.63546452857553958892822265625" lon="19.9012923426926136016845703125">
        <ele>1456</ele>
        <time>2026-06-16T07:44:18.000Z</time>
        <extensions>
          <ns3:TrackPointExtension>
            <ns3:atemp>23.0</ns3:atemp>
          </ns3:TrackPointExtension>
        </extensions>
      </trkpt>
      <trkpt lat="42.6354817114770412445068359375" lon="19.9012712202966213226318359375">
        <ele>1456.199951171875</ele>
        <time>2026-06-16T07:44:19.000Z</time>
        <extensions>
          <ns3:TrackPointExtension>
            <ns3:atemp>23.0</ns3:atemp>
          </ns3:TrackPointExtension>
        </extensions>
      </trkpt>
      <trkpt lat="42.63549621216952800750732421875" lon="19.90125118754804134368896484375">
        <ele>1456.5999755859375</ele>
        <time>2026-06-16T07:44:20.000Z</time>
        <extensions>
          <ns3:TrackPointExtension>
            <ns3:atemp>23.0</ns3:atemp>
          </ns3:TrackPointExtension>
        </extensions>
      </trkpt>
      <trkpt lat="42.6355115510523319244384765625" lon="19.90122822113335132598876953125">
        <ele>1456.800048828125</ele>
        <time>2026-06-16T07:44:21.000Z</time>
        <extensions>
          <ns3:TrackPointExtension>
            <ns3:atemp>23.0</ns3:atemp>
          </ns3:TrackPointExtension>
        </extensions>
      </trkpt>
      <trkpt lat="42.63552705757319927215576171875" lon="19.90120701491832733154296875">
        <ele>1457</ele>
        <time>2026-06-16T07:44:22.000Z</time>
        <extensions>
          <ns3:TrackPointExtension>
            <ns3:atemp>23.0</ns3:atemp>
          </ns3:TrackPointExtension>
        </extensions>
      </trkpt>
      <trkpt lat="42.63553954660892486572265625" lon="19.90118446759879589080810546875">
        <ele>1457.199951171875</ele>
        <time>2026-06-16T07:44:23.000Z</time>
        <extensions>
          <ns3:TrackPointExtension>
            <ns3:atemp>23.0</ns3:atemp>
          </ns3:TrackPointExtension>
        </extensions>
      </trkpt>
      <trkpt lat="42.6355497725307941436767578125" lon="19.9011602438986301422119140625">
        <ele>1457.4000244140625</ele>
        <time>2026-06-16T07:44:24.000Z</time>
        <extensions>
          <ns3:TrackPointExtension>
            <ns3:atemp>23.0</ns3:atemp>
          </ns3:TrackPointExtension>
        </extensions>
      </trkpt>
      <trkpt lat="42.63555974699556827545166015625" lon="19.9011347629129886627197265625">
        <ele>1457.800048828125</ele>
        <time>2026-06-16T07:44:25.000Z</time>
        <extensions>
          <ns3:TrackPointExtension>
            <ns3:atemp>23.0</ns3:atemp>
          </ns3:TrackPointExtension>
        </extensions>
      </trkpt>
      <trkpt lat="42.635566703975200653076171875" lon="19.90110618062317371368408203125">
        <ele>1458</ele>
        <time>2026-06-16T07:44:26.000Z</time>
        <extensions>
          <ns3:TrackPointExtension>
            <ns3:atemp>23.0</ns3:atemp>
          </ns3:TrackPointExtension>
        </extensions>
      </trkpt>
      <trkpt lat="42.63557617552578449249267578125" lon="19.901076592504978179931640625">
        <ele>1458.4000244140625</ele>
        <time>2026-06-16T07:44:27.000Z</time>
        <extensions>
          <ns3:TrackPointExtension>
            <ns3:atemp>23.0</ns3:atemp>
          </ns3:TrackPointExtension>
        </extensions>
      </trkpt>
      <trkpt lat="42.63558673672378063201904296875" lon="19.90105018950998783111572265625">
        <ele>1458.4000244140625</ele>
        <time>2026-06-16T07:44:28.000Z</time>
        <extensions>
          <ns3:TrackPointExtension>
            <ns3:atemp>23.0</ns3:atemp>
          </ns3:TrackPointExtension>
        </extensions>
      </trkpt>
      <trkpt lat="42.63559511862695217132568359375" lon="19.9010241217911243438720703125">
        <ele>1458.5999755859375</ele>
        <time>2026-06-16T07:44:29.000Z</time>
        <extensions>
          <ns3:TrackPointExtension>
            <ns3:atemp>23.0</ns3:atemp>
          </ns3:TrackPointExtension>
        </extensions>
      </trkpt>
      <trkpt lat="42.6356030814349651336669921875" lon="19.90100316703319549560546875">
        <ele>1458.800048828125</ele>
        <time>2026-06-16T07:44:30.000Z</time>
        <extensions>
          <ns3:TrackPointExtension>
            <ns3:atemp>23.0</ns3:atemp>
          </ns3:TrackPointExtension>
        </extensions>
      </trkpt>
      <trkpt lat="42.6356144808232784271240234375" lon="19.90098430775105953216552734375">
        <ele>1459</ele>
        <time>2026-06-16T07:44:31.000Z</time>
        <extensions>
          <ns3:TrackPointExtension>
            <ns3:atemp>23.0</ns3:atemp>
          </ns3:TrackPointExtension>
        </extensions>
      </trkpt>
      <trkpt lat="42.635621689260005950927734375" lon="19.90096134133636951446533203125">
        <ele>1459.199951171875</ele>
        <time>2026-06-16T07:44:32.000Z</time>
        <extensions>
          <ns3:TrackPointExtension>
            <ns3:atemp>23.0</ns3:atemp>
          </ns3:TrackPointExtension>
        </extensions>
      </trkpt>
      <trkpt lat="42.6356302388012409210205078125" lon="19.9009362794458866119384765625">
        <ele>1459.4000244140625</ele>
        <time>2026-06-16T07:44:33.000Z</time>
        <extensions>
          <ns3:TrackPointExtension>
            <ns3:atemp>23.0</ns3:atemp>
          </ns3:TrackPointExtension>
        </extensions>
      </trkpt>
      <trkpt lat="42.635641805827617645263671875" lon="19.90091389976441860198974609375">
        <ele>1459.5999755859375</ele>
        <time>2026-06-16T07:44:34.000Z</time>
        <extensions>
          <ns3:TrackPointExtension>
            <ns3:atemp>23.0</ns3:atemp>
          </ns3:TrackPointExtension>
        </extensions>
      </trkpt>
      <trkpt lat="42.6356528699398040771484375" lon="19.900886155664920806884765625">
        <ele>1459.800048828125</ele>
        <time>2026-06-16T07:44:35.000Z</time>
        <extensions>
          <ns3:TrackPointExtension>
            <ns3:atemp>23.0</ns3:atemp>
          </ns3:TrackPointExtension>
        </extensions>
      </trkpt>
      <trkpt lat="42.6356635987758636474609375" lon="19.90085992030799388885498046875">
        <ele>1460</ele>
        <time>2026-06-16T07:44:36.000Z</time>
        <extensions>
          <ns3:TrackPointExtension>
            <ns3:atemp>23.0</ns3:atemp>
          </ns3:TrackPointExtension>
        </extensions>
      </trkpt>
      <trkpt lat="42.63567340560257434844970703125" lon="19.9008417315781116485595703125">
        <ele>1460.199951171875</ele>
        <time>2026-06-16T07:44:37.000Z</time>
        <extensions>
          <ns3:TrackPointExtension>
            <ns3:atemp>23.0</ns3:atemp>
          </ns3:TrackPointExtension>
        </extensions>
      </trkpt>
      <trkpt lat="42.635681368410587310791015625" lon="19.9008199386298656463623046875">
        <ele>1460.4000244140625</ele>
        <time>2026-06-16T07:44:38.000Z</time>
        <extensions>
          <ns3:TrackPointExtension>
            <ns3:atemp>23.0</ns3:atemp>
          </ns3:TrackPointExtension>
        </extensions>
      </trkpt>
      <trkpt lat="42.63569234870374202728271484375" lon="19.90079672075808048248291015625">
        <ele>1460.5999755859375</ele>
        <time>2026-06-16T07:44:39.000Z</time>
        <extensions>
          <ns3:TrackPointExtension>
            <ns3:atemp>23.0</ns3:atemp>
          </ns3:TrackPointExtension>
        </extensions>
      </trkpt>
      <trkpt lat="42.63569905422627925872802734375" lon="19.9007726646959781646728515625">
        <ele>1460.800048828125</ele>
        <time>2026-06-16T07:44:40.000Z</time>
        <extensions>
          <ns3:TrackPointExtension>
            <ns3:atemp>23.0</ns3:atemp>
          </ns3:TrackPointExtension>
        </extensions>
      </trkpt>
      <trkpt lat="42.6357063464820384979248046875" lon="19.90074944682419300079345703125">
        <ele>1461.199951171875</ele>
        <time>2026-06-16T07:44:41.000Z</time>
        <extensions>
          <ns3:TrackPointExtension>
            <ns3:atemp>23.0</ns3:atemp>
          </ns3:TrackPointExtension>
        </extensions>
      </trkpt>
      <trkpt lat="42.63571581803262233734130859375" lon="19.9007257260382175445556640625">
        <ele>1461.4000244140625</ele>
        <time>2026-06-16T07:44:42.000Z</time>
        <extensions>
          <ns3:TrackPointExtension>
            <ns3:atemp>23.0</ns3:atemp>
          </ns3:TrackPointExtension>
        </extensions>
      </trkpt>
      <trkpt lat="42.6357264630496501922607421875" lon="19.9007005803287029266357421875">
        <ele>1461.5999755859375</ele>
        <time>2026-06-16T07:44:43.000Z</time>
        <extensions>
          <ns3:TrackPointExtension>
            <ns3:atemp>23.0</ns3:atemp>
          </ns3:TrackPointExtension>
        </extensions>
      </trkpt>
      <trkpt lat="42.63573509640991687774658203125" lon="19.90067803300917148590087890625">
        <ele>1462</ele>
        <time>2026-06-16T07:44:44.000Z</time>
        <extensions>
          <ns3:TrackPointExtension>
            <ns3:atemp>23.0</ns3:atemp>
          </ns3:TrackPointExtension>
        </extensions>
      </trkpt>
      <trkpt lat="42.6357422210276126861572265625" lon="19.90065339021384716033935546875">
        <ele>1462.199951171875</ele>
        <time>2026-06-16T07:44:45.000Z</time>
        <extensions>
          <ns3:TrackPointExtension>
            <ns3:atemp>23.0</ns3:atemp>
          </ns3:TrackPointExtension>
        </extensions>
      </trkpt>
      <trkpt lat="42.635749094188213348388671875" lon="19.9006308428943157196044921875">
        <ele>1462.4000244140625</ele>
        <time>2026-06-16T07:44:46.000Z</time>
        <extensions>
          <ns3:TrackPointExtension>
            <ns3:atemp>23.0</ns3:atemp>
          </ns3:TrackPointExtension>
        </extensions>
      </trkpt>
      <trkpt lat="42.6357522793114185333251953125" lon="19.900609217584133148193359375">
        <ele>1462.5999755859375</ele>
        <time>2026-06-16T07:44:47.000Z</time>
        <extensions>
          <ns3:TrackPointExtension>
            <ns3:atemp>23.0</ns3:atemp>
          </ns3:TrackPointExtension>
        </extensions>
      </trkpt>
      <trkpt lat="42.63575588352978229522705078125" lon="19.9005859158933162689208984375">
        <ele>1462.800048828125</ele>
        <time>2026-06-16T07:44:48.000Z</time>
        <extensions>
          <ns3:TrackPointExtension>
            <ns3:atemp>23.0</ns3:atemp>
          </ns3:TrackPointExtension>
        </extensions>
      </trkpt>
      <trkpt lat="42.63576007448136806488037109375" lon="19.9005637876689434051513671875">
        <ele>1463.199951171875</ele>
        <time>2026-06-16T07:44:49.000Z</time>
        <extensions>
          <ns3:TrackPointExtension>
            <ns3:atemp>23.0</ns3:atemp>
          </ns3:TrackPointExtension>
        </extensions>
      </trkpt>
      <trkpt lat="42.63576342724263668060302734375" lon="19.900536127388477325439453125">
        <ele>1463.4000244140625</ele>
        <time>2026-06-16T07:44:50.000Z</time>
        <extensions>
          <ns3:TrackPointExtension>
            <ns3:atemp>23.0</ns3:atemp>
          </ns3:TrackPointExtension>
        </extensions>
      </trkpt>
      <trkpt lat="42.63577147386968135833740234375" lon="19.9005101434886455535888671875">
        <ele>1463.5999755859375</ele>
        <time>2026-06-16T07:44:51.000Z</time>
        <extensions>
          <ns3:TrackPointExtension>
            <ns3:atemp>23.0</ns3:atemp>
          </ns3:TrackPointExtension>
        </extensions>
      </trkpt>
      <trkpt lat="42.63578253798186779022216796875" lon="19.90048860199749469757080078125">
        <ele>1463.800048828125</ele>
        <time>2026-06-16T07:44:52.000Z</time>
        <extensions>
          <ns3:TrackPointExtension>
            <ns3:atemp>23.0</ns3:atemp>
          </ns3:TrackPointExtension>
        </extensions>
      </trkpt>
      <trkpt lat="42.6357888244092464447021484375" lon="19.9004635401070117950439453125">
        <ele>1464.199951171875</ele>
        <time>2026-06-16T07:44:53.000Z</time>
        <extensions>
          <ns3:TrackPointExtension>
            <ns3:atemp>23.0</ns3:atemp>
          </ns3:TrackPointExtension>
        </extensions>
      </trkpt>
      <trkpt lat="42.6357958652079105377197265625" lon="19.9004445970058441162109375">
        <ele>1464.4000244140625</ele>
        <time>2026-06-16T07:44:54.000Z</time>
        <extensions>
          <ns3:TrackPointExtension>
            <ns3:atemp>23.0</ns3:atemp>
          </ns3:TrackPointExtension>
        </extensions>
      </trkpt>
      <trkpt lat="42.63580131344497203826904296875" lon="19.90042372606694698333740234375">
        <ele>1464.5999755859375</ele>
        <time>2026-06-16T07:44:55.000Z</time>
        <extensions>
          <ns3:TrackPointExtension>
            <ns3:atemp>23.0</ns3:atemp>
          </ns3:TrackPointExtension>
        </extensions>
      </trkpt>
      <trkpt lat="42.6358129642903804779052734375" lon="19.9004043638706207275390625">
        <ele>1464.800048828125</ele>
        <time>2026-06-16T07:44:56.000Z</time>
        <extensions>
          <ns3:TrackPointExtension>
            <ns3:atemp>23.0</ns3:atemp>
          </ns3:TrackPointExtension>
        </extensions>
      </trkpt>
      <trkpt lat="42.6358236931264400482177734375" lon="19.9003855884075164794921875">
        <ele>1465</ele>
        <time>2026-06-16T07:44:57.000Z</time>
        <extensions>
          <ns3:TrackPointExtension>
            <ns3:atemp>23.0</ns3:atemp>
          </ns3:TrackPointExtension>
        </extensions>
      </trkpt>
      <trkpt lat="42.635834924876689910888671875" lon="19.900369830429553985595703125">
        <ele>1465.199951171875</ele>
        <time>2026-06-16T07:44:58.000Z</time>
        <extensions>
          <ns3:TrackPointExtension>
            <ns3:atemp>23.0</ns3:atemp>
          </ns3:TrackPointExtension>
        </extensions>
      </trkpt>
      <trkpt lat="42.6358474977314472198486328125" lon="19.900349043309688568115234375">
        <ele>1465.199951171875</ele>
        <time>2026-06-16T07:44:59.000Z</time>
        <extensions>
          <ns3:TrackPointExtension>
            <ns3:atemp>23.0</ns3:atemp>
          </ns3:TrackPointExtension>
        </extensions>
      </trkpt>
      <trkpt lat="42.635860741138458251953125" lon="19.9003311060369014739990234375">
        <ele>1465.4000244140625</ele>
        <time>2026-06-16T07:45:00.000Z</time>
        <extensions>
          <ns3:TrackPointExtension>
            <ns3:atemp>23.0</ns3:atemp>
          </ns3:TrackPointExtension>
        </extensions>
      </trkpt>
      <trkpt lat="42.63587641529738903045654296875" lon="19.90031719207763671875">
        <ele>1465.5999755859375</ele>
        <time>2026-06-16T07:45:01.000Z</time>
        <extensions>
          <ns3:TrackPointExtension>
            <ns3:atemp>23.0</ns3:atemp>
          </ns3:TrackPointExtension>
        </extensions>
      </trkpt>
      <trkpt lat="42.6358910836279392242431640625" lon="19.900305457413196563720703125">
        <ele>1465.800048828125</ele>
        <time>2026-06-16T07:45:02.000Z</time>
        <extensions>
          <ns3:TrackPointExtension>
            <ns3:atemp>23.0</ns3:atemp>
          </ns3:TrackPointExtension>
        </extensions>
      </trkpt>
      <trkpt lat="42.63590491376817226409912109375" lon="19.90029238164424896240234375">
        <ele>1466.199951171875</ele>
        <time>2026-06-16T07:45:03.000Z</time>
        <extensions>
          <ns3:TrackPointExtension>
            <ns3:atemp>23.0</ns3:atemp>
          </ns3:TrackPointExtension>
        </extensions>
      </trkpt>
      <trkpt lat="42.6359138824045658111572265625" lon="19.90027972497045993804931640625">
        <ele>1466.4000244140625</ele>
        <time>2026-06-16T07:45:04.000Z</time>
        <extensions>
          <ns3:TrackPointExtension>
            <ns3:atemp>23.0</ns3:atemp>
          </ns3:TrackPointExtension>
        </extensions>
      </trkpt>
      <trkpt lat="42.63592402450740337371826171875" lon="19.90026664920151233673095703125">
        <ele>1466.800048828125</ele>
        <time>2026-06-16T07:45:05.000Z</time>
        <extensions>
          <ns3:TrackPointExtension>
            <ns3:atemp>23.0</ns3:atemp>
          </ns3:TrackPointExtension>
        </extensions>
      </trkpt>
      <trkpt lat="42.63593508861958980560302734375" lon="19.9002506397664546966552734375">
        <ele>1467.199951171875</ele>
        <time>2026-06-16T07:45:06.000Z</time>
        <extensions>
          <ns3:TrackPointExtension>
            <ns3:atemp>23.0</ns3:atemp>
          </ns3:TrackPointExtension>
        </extensions>
      </trkpt>
      <trkpt lat="42.63594564981758594512939453125" lon="19.90023295395076274871826171875">
        <ele>1467.5999755859375</ele>
        <time>2026-06-16T07:45:07.000Z</time>
        <extensions>
          <ns3:TrackPointExtension>
            <ns3:atemp>23.0</ns3:atemp>
          </ns3:TrackPointExtension>
        </extensions>
      </trkpt>
      <trkpt lat="42.6359586417675018310546875" lon="19.90021434612572193145751953125">
        <ele>1467.800048828125</ele>
        <time>2026-06-16T07:45:08.000Z</time>
        <extensions>
          <ns3:TrackPointExtension>
            <ns3:atemp>23.0</ns3:atemp>
          </ns3:TrackPointExtension>
        </extensions>
      </trkpt>
      <trkpt lat="42.63596777804195880889892578125" lon="19.90019506774842739105224609375">
        <ele>1468.199951171875</ele>
        <time>2026-06-16T07:45:09.000Z</time>
        <extensions>
          <ns3:TrackPointExtension>
            <ns3:atemp>23.0</ns3:atemp>
          </ns3:TrackPointExtension>
        </extensions>
      </trkpt>
      <trkpt lat="42.63597565703094005584716796875" lon="19.90017645992338657379150390625">
        <ele>1468.5999755859375</ele>
        <time>2026-06-16T07:45:10.000Z</time>
        <extensions>
          <ns3:TrackPointExtension>
            <ns3:atemp>23.0</ns3:atemp>
          </ns3:TrackPointExtension>
        </extensions>
      </trkpt>
      <trkpt lat="42.63598051853477954864501953125" lon="19.900156594812870025634765625">
        <ele>1468.800048828125</ele>
        <time>2026-06-16T07:45:11.000Z</time>
        <extensions>
          <ns3:TrackPointExtension>
            <ns3:atemp>23.0</ns3:atemp>
          </ns3:TrackPointExtension>
        </extensions>
      </trkpt>
      <trkpt lat="42.63598336838185787200927734375" lon="19.90013404749333858489990234375">
        <ele>1469.199951171875</ele>
        <time>2026-06-16T07:45:12.000Z</time>
        <extensions>
          <ns3:TrackPointExtension>
            <ns3:atemp>23.0</ns3:atemp>
          </ns3:TrackPointExtension>
        </extensions>
      </trkpt>
      <trkpt lat="42.63599057681858539581298828125" lon="19.90010856650769710540771484375">
        <ele>1469.5999755859375</ele>
        <time>2026-06-16T07:45:13.000Z</time>
        <extensions>
          <ns3:TrackPointExtension>
            <ns3:atemp>23.0</ns3:atemp>
          </ns3:TrackPointExtension>
        </extensions>
      </trkpt>
      <trkpt lat="42.63599694706499576568603515625" lon="19.90008761174976825714111328125">
        <ele>1470</ele>
        <time>2026-06-16T07:45:14.000Z</time>
        <extensions>
          <ns3:TrackPointExtension>
            <ns3:atemp>23.0</ns3:atemp>
          </ns3:TrackPointExtension>
        </extensions>
      </trkpt>
      <trkpt lat="42.63600298203527927398681640625" lon="19.9000662378966808319091796875">
        <ele>1470.4000244140625</ele>
        <time>2026-06-16T07:45:15.000Z</time>
        <extensions>
          <ns3:TrackPointExtension>
            <ns3:atemp>23.0</ns3:atemp>
          </ns3:TrackPointExtension>
        </extensions>
      </trkpt>
      <trkpt lat="42.63600717298686504364013671875" lon="19.900041259825229644775390625">
        <ele>1470.5999755859375</ele>
        <time>2026-06-16T07:45:16.000Z</time>
        <extensions>
          <ns3:TrackPointExtension>
            <ns3:atemp>23.0</ns3:atemp>
          </ns3:TrackPointExtension>
        </extensions>
      </trkpt>
      <trkpt lat="42.63601371087133884429931640625" lon="19.900021813809871673583984375">
        <ele>1470.800048828125</ele>
        <time>2026-06-16T07:45:17.000Z</time>
        <extensions>
          <ns3:TrackPointExtension>
            <ns3:atemp>23.0</ns3:atemp>
          </ns3:TrackPointExtension>
        </extensions>
      </trkpt>
      <trkpt lat="42.6360228471457958221435546875" lon="19.89999943412840366363525390625">
        <ele>1470.800048828125</ele>
        <time>2026-06-16T07:45:18.000Z</time>
        <extensions>
          <ns3:TrackPointExtension>
            <ns3:atemp>23.0</ns3:atemp>
          </ns3:TrackPointExtension>
        </extensions>
      </trkpt>
      <trkpt lat="42.63603064231574535369873046875" lon="19.89997730590403079986572265625">
        <ele>1471.199951171875</ele>
        <time>2026-06-16T07:45:19.000Z</time>
        <extensions>
          <ns3:TrackPointExtension>
            <ns3:atemp>23.0</ns3:atemp>
          </ns3:TrackPointExtension>
        </extensions>
      </trkpt>
      <trkpt lat="42.636037766933441162109375" lon="19.899952746927738189697265625">
        <ele>1471.4000244140625</ele>
        <time>2026-06-16T07:45:20.000Z</time>
        <extensions>
          <ns3:TrackPointExtension>
            <ns3:atemp>23.0</ns3:atemp>
          </ns3:TrackPointExtension>
        </extensions>
      </trkpt>
      <trkpt lat="42.63604581356048583984375" lon="19.89992902614176273345947265625">
        <ele>1471.5999755859375</ele>
        <time>2026-06-16T07:45:21.000Z</time>
        <extensions>
          <ns3:TrackPointExtension>
            <ns3:atemp>23.0</ns3:atemp>
          </ns3:TrackPointExtension>
        </extensions>
      </trkpt>
      <trkpt lat="42.636053524911403656005859375" lon="19.89991150796413421630859375">
        <ele>1471.800048828125</ele>
        <time>2026-06-16T07:45:22.000Z</time>
        <extensions>
          <ns3:TrackPointExtension>
            <ns3:atemp>23.0</ns3:atemp>
          </ns3:TrackPointExtension>
        </extensions>
      </trkpt>
      <trkpt lat="42.63606215827167034149169921875" lon="19.89989005029201507568359375">
        <ele>1472</ele>
        <time>2026-06-16T07:45:23.000Z</time>
        <extensions>
          <ns3:TrackPointExtension>
            <ns3:atemp>23.0</ns3:atemp>
          </ns3:TrackPointExtension>
        </extensions>
      </trkpt>
      <trkpt lat="42.636069953441619873046875" lon="19.8998731188476085662841796875">
        <ele>1472.4000244140625</ele>
        <time>2026-06-16T07:45:24.000Z</time>
        <extensions>
          <ns3:TrackPointExtension>
            <ns3:atemp>23.0</ns3:atemp>
          </ns3:TrackPointExtension>
        </extensions>
      </trkpt>
      <trkpt lat="42.63607800006866455078125" lon="19.89984990097582340240478515625">
        <ele>1472.5999755859375</ele>
        <time>2026-06-16T07:45:25.000Z</time>
        <extensions>
          <ns3:TrackPointExtension>
            <ns3:atemp>23.0</ns3:atemp>
          </ns3:TrackPointExtension>
        </extensions>
      </trkpt>
      <trkpt lat="42.63608646579086780548095703125" lon="19.89982492290437221527099609375">
        <ele>1473</ele>
        <time>2026-06-16T07:45:26.000Z</time>
        <extensions>
          <ns3:TrackPointExtension>
            <ns3:atemp>23.0</ns3:atemp>
          </ns3:TrackPointExtension>
        </extensions>
      </trkpt>
      <trkpt lat="42.63609048910439014434814453125" lon="19.89979776553809642791748046875">
        <ele>1473.199951171875</ele>
        <time>2026-06-16T07:45:27.000Z</time>
        <extensions>
          <ns3:TrackPointExtension>
            <ns3:atemp>23.0</ns3:atemp>
          </ns3:TrackPointExtension>
        </extensions>
      </trkpt>
      <trkpt lat="42.6360927522182464599609375" lon="19.89977060817182064056396484375">
        <ele>1473.4000244140625</ele>
        <time>2026-06-16T07:45:28.000Z</time>
        <extensions>
          <ns3:TrackPointExtension>
            <ns3:atemp>23.0</ns3:atemp>
          </ns3:TrackPointExtension>
        </extensions>
      </trkpt>
      <trkpt lat="42.63608814217150211334228515625" lon="19.89974529482424259185791015625">
        <ele>1473.4000244140625</ele>
        <time>2026-06-16T07:45:29.000Z</time>
        <extensions>
          <ns3:TrackPointExtension>
            <ns3:atemp>23.0</ns3:atemp>
          </ns3:TrackPointExtension>
        </extensions>
      </trkpt>
      <trkpt lat="42.6360798440873622894287109375" lon="19.8997266031801700592041015625">
        <ele>1473.4000244140625</ele>
        <time>2026-06-16T07:45:30.000Z</time>
        <extensions>
          <ns3:TrackPointExtension>
            <ns3:atemp>23.0</ns3:atemp>
          </ns3:TrackPointExtension>
        </extensions>
      </trkpt>
      <trkpt lat="42.63606525957584381103515625" lon="19.89970942027866840362548828125">
        <ele>1473.4000244140625</ele>
        <time>2026-06-16T07:45:31.000Z</time>
        <extensions>
          <ns3:TrackPointExtension>
            <ns3:atemp>23.0</ns3:atemp>
          </ns3:TrackPointExtension>
        </extensions>
      </trkpt>
      <trkpt lat="42.6360456459224224090576171875" lon="19.899700619280338287353515625">
        <ele>1473.4000244140625</ele>
        <time>2026-06-16T07:45:32.000Z</time>
        <extensions>
          <ns3:TrackPointExtension>
            <ns3:atemp>23.0</ns3:atemp>
          </ns3:TrackPointExtension>
        </extensions>
      </trkpt>
      <trkpt lat="42.6360278762876987457275390625" lon="19.8997016251087188720703125">
        <ele>1473.5999755859375</ele>
        <time>2026-06-16T07:45:33.000Z</time>
        <extensions>
          <ns3:TrackPointExtension>
            <ns3:atemp>23.0</ns3:atemp>
          </ns3:TrackPointExtension>
        </extensions>
      </trkpt>
      <trkpt lat="42.636011280119419097900390625" lon="19.899707995355129241943359375">
        <ele>1473.800048828125</ele>
        <time>2026-06-16T07:45:34.000Z</time>
        <extensions>
          <ns3:TrackPointExtension>
            <ns3:atemp>23.0</ns3:atemp>
          </ns3:TrackPointExtension>
        </extensions>
      </trkpt>
      <trkpt lat="42.6359966956079006195068359375" lon="19.89972249604761600494384765625">
        <ele>1474</ele>
        <time>2026-06-16T07:45:35.000Z</time>
        <extensions>
          <ns3:TrackPointExtension>
            <ns3:atemp>23.0</ns3:atemp>
          </ns3:TrackPointExtension>
        </extensions>
      </trkpt>
      <trkpt lat="42.6359827816486358642578125" lon="19.899740181863307952880859375">
        <ele>1474.199951171875</ele>
        <time>2026-06-16T07:45:36.000Z</time>
        <extensions>
          <ns3:TrackPointExtension>
            <ns3:atemp>23.0</ns3:atemp>
          </ns3:TrackPointExtension>
        </extensions>
      </trkpt>
      <trkpt lat="42.63597079552710056304931640625" lon="19.8997544310986995697021484375">
        <ele>1474.4000244140625</ele>
        <time>2026-06-16T07:45:37.000Z</time>
        <extensions>
          <ns3:TrackPointExtension>
            <ns3:atemp>23.0</ns3:atemp>
          </ns3:TrackPointExtension>
        </extensions>
      </trkpt>
      <trkpt lat="42.635958977043628692626953125" lon="19.8997708596289157867431640625">
        <ele>1474.5999755859375</ele>
        <time>2026-06-16T07:45:38.000Z</time>
        <extensions>
          <ns3:TrackPointExtension>
            <ns3:atemp>23.0</ns3:atemp>
          </ns3:TrackPointExtension>
        </extensions>
      </trkpt>
      <trkpt lat="42.63594724237918853759765625" lon="19.8997836001217365264892578125">
        <ele>1474.800048828125</ele>
        <time>2026-06-16T07:45:39.000Z</time>
        <extensions>
          <ns3:TrackPointExtension>
            <ns3:atemp>23.0</ns3:atemp>
          </ns3:TrackPointExtension>
        </extensions>
      </trkpt>
      <trkpt lat="42.6359318196773529052734375" lon="19.899795837700366973876953125">
        <ele>1475</ele>
        <time>2026-06-16T07:45:40.000Z</time>
        <extensions>
          <ns3:TrackPointExtension>
            <ns3:atemp>23.0</ns3:atemp>
          </ns3:TrackPointExtension>
        </extensions>
      </trkpt>
      <trkpt lat="42.63591161929070949554443359375" lon="19.89981226623058319091796875">
        <ele>1475.4000244140625</ele>
        <time>2026-06-16T07:45:41.000Z</time>
        <extensions>
          <ns3:TrackPointExtension>
            <ns3:atemp>23.0</ns3:atemp>
          </ns3:TrackPointExtension>
        </extensions>
      </trkpt>
      <trkpt lat="42.635897286236286163330078125" lon="19.89982701838016510009765625">
        <ele>1475.5999755859375</ele>
        <time>2026-06-16T07:45:42.000Z</time>
        <extensions>
          <ns3:TrackPointExtension>
            <ns3:atemp>23.0</ns3:atemp>
          </ns3:TrackPointExtension>
        </extensions>
      </trkpt>
      <trkpt lat="42.63587993569672107696533203125" lon="19.89984537474811077117919921875">
        <ele>1475.800048828125</ele>
        <time>2026-06-16T07:45:43.000Z</time>
        <extensions>
          <ns3:TrackPointExtension>
            <ns3:atemp>23.0</ns3:atemp>
          </ns3:TrackPointExtension>
        </extensions>
      </trkpt>
      <trkpt lat="42.6358659379184246063232421875" lon="19.8998627252876758575439453125">
        <ele>1476</ele>
        <time>2026-06-16T07:45:44.000Z</time>
        <extensions>
          <ns3:TrackPointExtension>
            <ns3:atemp>23.0</ns3:atemp>
          </ns3:TrackPointExtension>
        </extensions>
      </trkpt>
      <trkpt lat="42.63585177250206470489501953125" lon="19.89988627843558788299560546875">
        <ele>1476.199951171875</ele>
        <time>2026-06-16T07:45:45.000Z</time>
        <extensions>
          <ns3:TrackPointExtension>
            <ns3:atemp>23.0</ns3:atemp>
          </ns3:TrackPointExtension>
        </extensions>
      </trkpt>
      <trkpt lat="42.63584054075181484222412109375" lon="19.89991041831672191619873046875">
        <ele>1476.199951171875</ele>
        <time>2026-06-16T07:45:46.000Z</time>
        <extensions>
          <ns3:TrackPointExtension>
            <ns3:atemp>23.0</ns3:atemp>
          </ns3:TrackPointExtension>
        </extensions>
      </trkpt>
      <trkpt lat="42.6358357630670070648193359375" lon="19.899935983121395111083984375">
        <ele>1476.4000244140625</ele>
        <time>2026-06-16T07:45:47.000Z</time>
        <extensions>
          <ns3:TrackPointExtension>
            <ns3:atemp>23.0</ns3:atemp>
          </ns3:TrackPointExtension>
        </extensions>
      </trkpt>
      <trkpt lat="42.635832913219928741455078125" lon="19.8999599553644657135009765625">
        <ele>1476.5999755859375</ele>
        <time>2026-06-16T07:45:48.000Z</time>
        <extensions>
          <ns3:TrackPointExtension>
            <ns3:atemp>23.0</ns3:atemp>
          </ns3:TrackPointExtension>
        </extensions>
      </trkpt>
      <trkpt lat="42.63582310639321804046630859375" lon="19.89998417906463146209716796875">
        <ele>1476.800048828125</ele>
        <time>2026-06-16T07:45:49.000Z</time>
        <extensions>
          <ns3:TrackPointExtension>
            <ns3:atemp>23.0</ns3:atemp>
          </ns3:TrackPointExtension>
        </extensions>
      </trkpt>
      <trkpt lat="42.63581036590039730072021484375" lon="19.9000058881938457489013671875">
        <ele>1477</ele>
        <time>2026-06-16T07:45:50.000Z</time>
        <extensions>
          <ns3:TrackPointExtension>
            <ns3:atemp>23.0</ns3:atemp>
          </ns3:TrackPointExtension>
        </extensions>
      </trkpt>
      <trkpt lat="42.6357935182750225067138671875" lon="19.9000275135040283203125">
        <ele>1477.199951171875</ele>
        <time>2026-06-16T07:45:51.000Z</time>
        <extensions>
          <ns3:TrackPointExtension>
            <ns3:atemp>23.0</ns3:atemp>
          </ns3:TrackPointExtension>
        </extensions>
      </trkpt>
      <trkpt lat="42.63577633537352085113525390625" lon="19.9000476300716400146484375">
        <ele>1477.5999755859375</ele>
        <time>2026-06-16T07:45:52.000Z</time>
        <extensions>
          <ns3:TrackPointExtension>
            <ns3:atemp>23.0</ns3:atemp>
          </ns3:TrackPointExtension>
        </extensions>
      </trkpt>
      <trkpt lat="42.63575806282460689544677734375" lon="19.90006431005895137786865234375">
        <ele>1477.800048828125</ele>
        <time>2026-06-16T07:45:53.000Z</time>
        <extensions>
          <ns3:TrackPointExtension>
            <ns3:atemp>23.0</ns3:atemp>
          </ns3:TrackPointExtension>
        </extensions>
      </trkpt>
      <trkpt lat="42.6357413828372955322265625" lon="19.90007822401821613311767578125">
        <ele>1477.800048828125</ele>
        <time>2026-06-16T07:45:54.000Z</time>
        <extensions>
          <ns3:TrackPointExtension>
            <ns3:atemp>23.0</ns3:atemp>
          </ns3:TrackPointExtension>
        </extensions>
      </trkpt>
      <trkpt lat="42.6357217691838741302490234375" lon="19.90008979104459285736083984375">
        <ele>1478</ele>
        <time>2026-06-16T07:45:55.000Z</time>
        <extensions>
          <ns3:TrackPointExtension>
            <ns3:atemp>23.0</ns3:atemp>
          </ns3:TrackPointExtension>
        </extensions>
      </trkpt>
      <trkpt lat="42.6357039995491504669189453125" lon="19.90010018460452556610107421875">
        <ele>1478.4000244140625</ele>
        <time>2026-06-16T07:45:56.000Z</time>
        <extensions>
          <ns3:TrackPointExtension>
            <ns3:atemp>23.0</ns3:atemp>
          </ns3:TrackPointExtension>
        </extensions>
      </trkpt>
      <trkpt lat="42.635686732828617095947265625" lon="19.9001120030879974365234375">
        <ele>1478.4000244140625</ele>
        <time>2026-06-16T07:45:57.000Z</time>
        <extensions>
          <ns3:TrackPointExtension>
            <ns3:atemp>23.0</ns3:atemp>
          </ns3:TrackPointExtension>
        </extensions>
      </trkpt>
      <trkpt lat="42.63566493988037109375" lon="19.9001239053905010223388671875">
        <ele>1478.800048828125</ele>
        <time>2026-06-16T07:45:58.000Z</time>
        <extensions>
          <ns3:TrackPointExtension>
            <ns3:atemp>23.0</ns3:atemp>
          </ns3:TrackPointExtension>
        </extensions>
      </trkpt>
      <trkpt lat="42.63564524240791797637939453125" lon="19.9001346342265605926513671875">
        <ele>1479</ele>
        <time>2026-06-16T07:45:59.000Z</time>
        <extensions>
          <ns3:TrackPointExtension>
            <ns3:atemp>23.0</ns3:atemp>
          </ns3:TrackPointExtension>
        </extensions>
      </trkpt>
      <trkpt lat="42.63562646694481372833251953125" lon="19.90014762617647647857666015625">
        <ele>1479.199951171875</ele>
        <time>2026-06-16T07:46:00.000Z</time>
        <extensions>
          <ns3:TrackPointExtension>
            <ns3:atemp>23.0</ns3:atemp>
          </ns3:TrackPointExtension>
        </extensions>
      </trkpt>
      <trkpt lat="42.63560651801526546478271484375" lon="19.9001621268689632415771484375">
        <ele>1479.4000244140625</ele>
        <time>2026-06-16T07:46:01.000Z</time>
        <extensions>
          <ns3:TrackPointExtension>
            <ns3:atemp>23.0</ns3:atemp>
          </ns3:TrackPointExtension>
        </extensions>
      </trkpt>
      <trkpt lat="42.63558573089540004730224609375" lon="19.90017830394208431243896484375">
        <ele>1479.4000244140625</ele>
        <time>2026-06-16T07:46:02.000Z</time>
        <extensions>
          <ns3:TrackPointExtension>
            <ns3:atemp>23.0</ns3:atemp>
          </ns3:TrackPointExtension>
        </extensions>
      </trkpt>
      <trkpt lat="42.63556377030909061431884765625" lon="19.90019640885293483734130859375">
        <ele>1479.5999755859375</ele>
        <time>2026-06-16T07:46:03.000Z</time>
        <extensions>
          <ns3:TrackPointExtension>
            <ns3:atemp>23.0</ns3:atemp>
          </ns3:TrackPointExtension>
        </extensions>
      </trkpt>
      <trkpt lat="42.63553745113313198089599609375" lon="19.90021719597280025482177734375">
        <ele>1479.5999755859375</ele>
        <time>2026-06-16T07:46:04.000Z</time>
        <extensions>
          <ns3:TrackPointExtension>
            <ns3:atemp>23.0</ns3:atemp>
          </ns3:TrackPointExtension>
        </extensions>
      </trkpt>
      <trkpt lat="42.63551540672779083251953125" lon="19.90023748017847537994384765625">
        <ele>1479.800048828125</ele>
        <time>2026-06-16T07:46:05.000Z</time>
        <extensions>
          <ns3:TrackPointExtension>
            <ns3:atemp>23.0</ns3:atemp>
          </ns3:TrackPointExtension>
        </extensions>
      </trkpt>
      <trkpt lat="42.6354954577982425689697265625" lon="19.90025709383189678192138671875">
        <ele>1479.800048828125</ele>
        <time>2026-06-16T07:46:06.000Z</time>
        <extensions>
          <ns3:TrackPointExtension>
            <ns3:atemp>23.0</ns3:atemp>
          </ns3:TrackPointExtension>
        </extensions>
      </trkpt>
      <trkpt lat="42.6354776881635189056396484375" lon="19.900276623666286468505859375">
        <ele>1479.800048828125</ele>
        <time>2026-06-16T07:46:07.000Z</time>
        <extensions>
          <ns3:TrackPointExtension>
            <ns3:atemp>23.0</ns3:atemp>
          </ns3:TrackPointExtension>
        </extensions>
      </trkpt>
      <trkpt lat="42.63545933179557323455810546875" lon="19.90029648877680301666259765625">
        <ele>1480</ele>
        <time>2026-06-16T07:46:08.000Z</time>
        <extensions>
          <ns3:TrackPointExtension>
            <ns3:atemp>23.0</ns3:atemp>
          </ns3:TrackPointExtension>
        </extensions>
      </trkpt>
      <trkpt lat="42.63544290326535701751708984375" lon="19.90031643770635128021240234375">
        <ele>1480.199951171875</ele>
        <time>2026-06-16T07:46:09.000Z</time>
        <extensions>
          <ns3:TrackPointExtension>
            <ns3:atemp>23.0</ns3:atemp>
          </ns3:TrackPointExtension>
        </extensions>
      </trkpt>
      <trkpt lat="42.6354253850877285003662109375" lon="19.9003371410071849822998046875">
        <ele>1480.4000244140625</ele>
        <time>2026-06-16T07:46:10.000Z</time>
        <extensions>
          <ns3:TrackPointExtension>
            <ns3:atemp>23.0</ns3:atemp>
          </ns3:TrackPointExtension>
        </extensions>
      </trkpt>
      <trkpt lat="42.63540887273848056793212890625" lon="19.9003585986793041229248046875">
        <ele>1480.5999755859375</ele>
        <time>2026-06-16T07:46:11.000Z</time>
        <extensions>
          <ns3:TrackPointExtension>
            <ns3:atemp>23.0</ns3:atemp>
          </ns3:TrackPointExtension>
        </extensions>
      </trkpt>
      <trkpt lat="42.63539277948439121246337890625" lon="19.900377877056598663330078125">
        <ele>1480.5999755859375</ele>
        <time>2026-06-16T07:46:12.000Z</time>
        <extensions>
          <ns3:TrackPointExtension>
            <ns3:atemp>23.0</ns3:atemp>
          </ns3:TrackPointExtension>
        </extensions>
      </trkpt>
      <trkpt lat="42.63537785969674587249755859375" lon="19.900395311415195465087890625">
        <ele>1480.800048828125</ele>
        <time>2026-06-16T07:46:13.000Z</time>
        <extensions>
          <ns3:TrackPointExtension>
            <ns3:atemp>23.0</ns3:atemp>
          </ns3:TrackPointExtension>
        </extensions>
      </trkpt>
      <trkpt lat="42.63536310754716396331787109375" lon="19.9004109017550945281982421875">
        <ele>1480.800048828125</ele>
        <time>2026-06-16T07:46:14.000Z</time>
        <extensions>
          <ns3:TrackPointExtension>
            <ns3:atemp>23.0</ns3:atemp>
          </ns3:TrackPointExtension>
        </extensions>
      </trkpt>
      <trkpt lat="42.63534785248339176177978515625" lon="19.90042959339916706085205078125">
        <ele>1481</ele>
        <time>2026-06-16T07:46:15.000Z</time>
        <extensions>
          <ns3:TrackPointExtension>
            <ns3:atemp>23.0</ns3:atemp>
          </ns3:TrackPointExtension>
        </extensions>
      </trkpt>
      <trkpt lat="42.63533293269574642181396484375" lon="19.9004474468529224395751953125">
        <ele>1481.199951171875</ele>
        <time>2026-06-16T07:46:16.000Z</time>
        <extensions>
          <ns3:TrackPointExtension>
            <ns3:atemp>23.0</ns3:atemp>
          </ns3:TrackPointExtension>
        </extensions>
      </trkpt>
      <trkpt lat="42.635317929089069366455078125" lon="19.900465719401836395263671875">
        <ele>1481.4000244140625</ele>
        <time>2026-06-16T07:46:17.000Z</time>
        <extensions>
          <ns3:TrackPointExtension>
            <ns3:atemp>23.0</ns3:atemp>
          </ns3:TrackPointExtension>
        </extensions>
      </trkpt>
      <trkpt lat="42.63530376367270946502685546875" lon="19.90048407576978206634521484375">
        <ele>1481.5999755859375</ele>
        <time>2026-06-16T07:46:18.000Z</time>
        <extensions>
          <ns3:TrackPointExtension>
            <ns3:atemp>23.0</ns3:atemp>
          </ns3:TrackPointExtension>
        </extensions>
      </trkpt>
      <trkpt lat="42.6352922804653644561767578125" lon="19.900497235357761383056640625">
        <ele>1481.800048828125</ele>
        <time>2026-06-16T07:46:19.000Z</time>
        <extensions>
          <ns3:TrackPointExtension>
            <ns3:atemp>23.0</ns3:atemp>
          </ns3:TrackPointExtension>
        </extensions>
      </trkpt>
      <trkpt lat="42.635278366506099700927734375" lon="19.90050989203155040740966796875">
        <ele>1482</ele>
        <time>2026-06-16T07:46:20.000Z</time>
        <extensions>
          <ns3:TrackPointExtension>
            <ns3:atemp>23.0</ns3:atemp>
          </ns3:TrackPointExtension>
        </extensions>
      </trkpt>
      <trkpt lat="42.63526554219424724578857421875" lon="19.9005235545337200164794921875">
        <ele>1482.199951171875</ele>
        <time>2026-06-16T07:46:21.000Z</time>
        <extensions>
          <ns3:TrackPointExtension>
            <ns3:atemp>23.0</ns3:atemp>
          </ns3:TrackPointExtension>
        </extensions>
      </trkpt>
      <trkpt lat="42.63524894602596759796142578125" lon="19.90053646266460418701171875">
        <ele>1482.4000244140625</ele>
        <time>2026-06-16T07:46:22.000Z</time>
        <extensions>
          <ns3:TrackPointExtension>
            <ns3:atemp>23.0</ns3:atemp>
          </ns3:TrackPointExtension>
        </extensions>
      </trkpt>
      <trkpt lat="42.6352312602102756500244140625" lon="19.90055314265191555023193359375">
        <ele>1482.4000244140625</ele>
        <time>2026-06-16T07:46:23.000Z</time>
        <extensions>
          <ns3:TrackPointExtension>
            <ns3:atemp>23.0</ns3:atemp>
          </ns3:TrackPointExtension>
        </extensions>
      </trkpt>
      <trkpt lat="42.63521499931812286376953125" lon="19.9005694873631000518798828125">
        <ele>1482.800048828125</ele>
        <time>2026-06-16T07:46:24.000Z</time>
        <extensions>
          <ns3:TrackPointExtension>
            <ns3:atemp>23.0</ns3:atemp>
          </ns3:TrackPointExtension>
        </extensions>
      </trkpt>
      <trkpt lat="42.6351963914930820465087890625" lon="19.900583736598491668701171875">
        <ele>1483</ele>
        <time>2026-06-16T07:46:25.000Z</time>
        <extensions>
          <ns3:TrackPointExtension>
            <ns3:atemp>23.0</ns3:atemp>
          </ns3:TrackPointExtension>
        </extensions>
      </trkpt>
      <trkpt lat="42.6351806335151195526123046875" lon="19.90059521980583667755126953125">
        <ele>1483.199951171875</ele>
        <time>2026-06-16T07:46:26.000Z</time>
        <extensions>
          <ns3:TrackPointExtension>
            <ns3:atemp>23.0</ns3:atemp>
          </ns3:TrackPointExtension>
        </extensions>
      </trkpt>
      <trkpt lat="42.63516847975552082061767578125" lon="19.9006056971848011016845703125">
        <ele>1483.5999755859375</ele>
        <time>2026-06-16T07:46:27.000Z</time>
        <extensions>
          <ns3:TrackPointExtension>
            <ns3:atemp>23.0</ns3:atemp>
          </ns3:TrackPointExtension>
        </extensions>
      </trkpt>
      <trkpt lat="42.635152637958526611328125" lon="19.9006194435060024261474609375">
        <ele>1484</ele>
        <time>2026-06-16T07:46:28.000Z</time>
        <extensions>
          <ns3:TrackPointExtension>
            <ns3:atemp>23.0</ns3:atemp>
          </ns3:TrackPointExtension>
        </extensions>
      </trkpt>
      <trkpt lat="42.6351400651037693023681640625" lon="19.9006301723420619964599609375">
        <ele>1484.199951171875</ele>
        <time>2026-06-16T07:46:29.000Z</time>
        <extensions>
          <ns3:TrackPointExtension>
            <ns3:atemp>23.0</ns3:atemp>
          </ns3:TrackPointExtension>
        </extensions>
      </trkpt>
      <trkpt lat="42.63512321747839450836181640625" lon="19.9006422422826290130615234375">
        <ele>1484.4000244140625</ele>
        <time>2026-06-16T07:46:30.000Z</time>
        <extensions>
          <ns3:TrackPointExtension>
            <ns3:atemp>23.0</ns3:atemp>
          </ns3:TrackPointExtension>
        </extensions>
      </trkpt>
      <trkpt lat="42.63510896824300289154052734375" lon="19.9006512947380542755126953125">
        <ele>1484.5999755859375</ele>
        <time>2026-06-16T07:46:31.000Z</time>
        <extensions>
          <ns3:TrackPointExtension>
            <ns3:atemp>23.0</ns3:atemp>
          </ns3:TrackPointExtension>
        </extensions>
      </trkpt>
      <trkpt lat="42.63509270735085010528564453125" lon="19.90066411904990673065185546875">
        <ele>1484.5999755859375</ele>
        <time>2026-06-16T07:46:32.000Z</time>
        <extensions>
          <ns3:TrackPointExtension>
            <ns3:atemp>23.0</ns3:atemp>
          </ns3:TrackPointExtension>
        </extensions>
      </trkpt>
      <trkpt lat="42.635073848068714141845703125" lon="19.90068138577044010162353515625">
        <ele>1484.800048828125</ele>
        <time>2026-06-16T07:46:33.000Z</time>
        <extensions>
          <ns3:TrackPointExtension>
            <ns3:atemp>23.0</ns3:atemp>
          </ns3:TrackPointExtension>
        </extensions>
      </trkpt>
      <trkpt lat="42.6350574195384979248046875" lon="19.9007012508809566497802734375">
        <ele>1484.800048828125</ele>
        <time>2026-06-16T07:46:34.000Z</time>
        <extensions>
          <ns3:TrackPointExtension>
            <ns3:atemp>23.0</ns3:atemp>
          </ns3:TrackPointExtension>
        </extensions>
      </trkpt>
      <trkpt lat="42.6350398175418376922607421875" lon="19.90071709267795085906982421875">
        <ele>1484.800048828125</ele>
        <time>2026-06-16T07:46:35.000Z</time>
        <extensions>
          <ns3:TrackPointExtension>
            <ns3:atemp>23.0</ns3:atemp>
          </ns3:TrackPointExtension>
        </extensions>
      </trkpt>
      <trkpt lat="42.63501944951713085174560546875" lon="19.90073385648429393768310546875">
        <ele>1485</ele>
        <time>2026-06-16T07:46:36.000Z</time>
        <extensions>
          <ns3:TrackPointExtension>
            <ns3:atemp>23.0</ns3:atemp>
          </ns3:TrackPointExtension>
        </extensions>
      </trkpt>
      <trkpt lat="42.63499933294951915740966796875" lon="19.90075078792870044708251953125">
        <ele>1485.199951171875</ele>
        <time>2026-06-16T07:46:37.000Z</time>
        <extensions>
          <ns3:TrackPointExtension>
            <ns3:atemp>23.0</ns3:atemp>
          </ns3:TrackPointExtension>
        </extensions>
      </trkpt>
      <trkpt lat="42.6349798031151294708251953125" lon="19.9007699824869632720947265625">
        <ele>1485.199951171875</ele>
        <time>2026-06-16T07:46:38.000Z</time>
        <extensions>
          <ns3:TrackPointExtension>
            <ns3:atemp>23.0</ns3:atemp>
          </ns3:TrackPointExtension>
        </extensions>
      </trkpt>
      <trkpt lat="42.63495993800461292266845703125" lon="19.9007890932261943817138671875">
        <ele>1485.4000244140625</ele>
        <time>2026-06-16T07:46:39.000Z</time>
        <extensions>
          <ns3:TrackPointExtension>
            <ns3:atemp>23.0</ns3:atemp>
          </ns3:TrackPointExtension>
        </extensions>
      </trkpt>
      <trkpt lat="42.63494141399860382080078125" lon="19.90080602467060089111328125">
        <ele>1485.5999755859375</ele>
        <time>2026-06-16T07:46:40.000Z</time>
        <extensions>
          <ns3:TrackPointExtension>
            <ns3:atemp>23.0</ns3:atemp>
          </ns3:TrackPointExtension>
        </extensions>
      </trkpt>
      <trkpt lat="42.63492439873516559600830078125" lon="19.9008239619433879852294921875">
        <ele>1485.800048828125</ele>
        <time>2026-06-16T07:46:41.000Z</time>
        <extensions>
          <ns3:TrackPointExtension>
            <ns3:atemp>23.0</ns3:atemp>
          </ns3:TrackPointExtension>
        </extensions>
      </trkpt>
      <trkpt lat="42.634906880557537078857421875" lon="19.900845922529697418212890625">
        <ele>1485.800048828125</ele>
        <time>2026-06-16T07:46:42.000Z</time>
        <extensions>
          <ns3:TrackPointExtension>
            <ns3:atemp>23.0</ns3:atemp>
          </ns3:TrackPointExtension>
        </extensions>
      </trkpt>
      <trkpt lat="42.6348879374563694000244140625" lon="19.900862686336040496826171875">
        <ele>1486</ele>
        <time>2026-06-16T07:46:43.000Z</time>
        <extensions>
          <ns3:TrackPointExtension>
            <ns3:atemp>23.0</ns3:atemp>
          </ns3:TrackPointExtension>
        </extensions>
      </trkpt>
      <trkpt lat="42.634871006011962890625" lon="19.90088087506592273712158203125">
        <ele>1486</ele>
        <time>2026-06-16T07:46:44.000Z</time>
        <extensions>
          <ns3:TrackPointExtension>
            <ns3:atemp>23.0</ns3:atemp>
          </ns3:TrackPointExtension>
        </extensions>
      </trkpt>
      <trkpt lat="42.63485449366271495819091796875" lon="19.90089830942451953887939453125">
        <ele>1486.199951171875</ele>
        <time>2026-06-16T07:46:45.000Z</time>
        <extensions>
          <ns3:TrackPointExtension>
            <ns3:atemp>23.0</ns3:atemp>
          </ns3:TrackPointExtension>
        </extensions>
      </trkpt>
      <trkpt lat="42.6348396576941013336181640625" lon="19.90091876126825809478759765625">
        <ele>1486.199951171875</ele>
        <time>2026-06-16T07:46:46.000Z</time>
        <extensions>
          <ns3:TrackPointExtension>
            <ns3:atemp>23.0</ns3:atemp>
          </ns3:TrackPointExtension>
        </extensions>
      </trkpt>
      <trkpt lat="42.63483010232448577880859375" lon="19.90094005130231380462646484375">
        <ele>1486.199951171875</ele>
        <time>2026-06-16T07:46:47.000Z</time>
        <extensions>
          <ns3:TrackPointExtension>
            <ns3:atemp>23.0</ns3:atemp>
          </ns3:TrackPointExtension>
        </extensions>
      </trkpt>
      <trkpt lat="42.63482096605002880096435546875" lon="19.900963269174098968505859375">
        <ele>1486.4000244140625</ele>
        <time>2026-06-16T07:46:48.000Z</time>
        <extensions>
          <ns3:TrackPointExtension>
            <ns3:atemp>23.0</ns3:atemp>
          </ns3:TrackPointExtension>
        </extensions>
      </trkpt>
      <trkpt lat="42.634810321033000946044921875" lon="19.90098464302718639373779296875">
        <ele>1486.5999755859375</ele>
        <time>2026-06-16T07:46:49.000Z</time>
        <extensions>
          <ns3:TrackPointExtension>
            <ns3:atemp>23.0</ns3:atemp>
          </ns3:TrackPointExtension>
        </extensions>
      </trkpt>
      <trkpt lat="42.63479925692081451416015625" lon="19.901000820100307464599609375">
        <ele>1486.800048828125</ele>
        <time>2026-06-16T07:46:50.000Z</time>
        <extensions>
          <ns3:TrackPointExtension>
            <ns3:atemp>23.0</ns3:atemp>
          </ns3:TrackPointExtension>
        </extensions>
      </trkpt>
      <trkpt lat="42.63478626497089862823486328125" lon="19.901018254458904266357421875">
        <ele>1487.199951171875</ele>
        <time>2026-06-16T07:46:51.000Z</time>
        <extensions>
          <ns3:TrackPointExtension>
            <ns3:atemp>23.0</ns3:atemp>
          </ns3:TrackPointExtension>
        </extensions>
      </trkpt>
      <trkpt lat="42.6347712613642215728759765625" lon="19.9010341800749301910400390625">
        <ele>1487.4000244140625</ele>
        <time>2026-06-16T07:46:52.000Z</time>
        <extensions>
          <ns3:TrackPointExtension>
            <ns3:atemp>23.0</ns3:atemp>
          </ns3:TrackPointExtension>
        </extensions>
      </trkpt>
      <trkpt lat="42.63475508429110050201416015625" lon="19.90104465745389461517333984375">
        <ele>1487.800048828125</ele>
        <time>2026-06-16T07:46:53.000Z</time>
        <extensions>
          <ns3:TrackPointExtension>
            <ns3:atemp>23.0</ns3:atemp>
          </ns3:TrackPointExtension>
        </extensions>
      </trkpt>
      <trkpt lat="42.6347363926470279693603515625" lon="19.90105547010898590087890625">
        <ele>1488</ele>
        <time>2026-06-16T07:46:54.000Z</time>
        <extensions>
          <ns3:TrackPointExtension>
            <ns3:atemp>23.0</ns3:atemp>
          </ns3:TrackPointExtension>
        </extensions>
      </trkpt>
      <trkpt lat="42.63471652753651142120361328125" lon="19.9010563082993030548095703125">
        <ele>1488.199951171875</ele>
        <time>2026-06-16T07:46:55.000Z</time>
        <extensions>
          <ns3:TrackPointExtension>
            <ns3:atemp>23.0</ns3:atemp>
          </ns3:TrackPointExtension>
        </extensions>
      </trkpt>
      <trkpt lat="42.63469993136823177337646484375" lon="19.9010509438812732696533203125">
        <ele>1488.4000244140625</ele>
        <time>2026-06-16T07:46:56.000Z</time>
        <extensions>
          <ns3:TrackPointExtension>
            <ns3:atemp>23.0</ns3:atemp>
          </ns3:TrackPointExtension>
        </extensions>
      </trkpt>
      <trkpt lat="42.63468719087541103363037109375" lon="19.90103811956942081451416015625">
        <ele>1488.5999755859375</ele>
        <time>2026-06-16T07:46:57.000Z</time>
        <extensions>
          <ns3:TrackPointExtension>
            <ns3:atemp>23.0</ns3:atemp>
          </ns3:TrackPointExtension>
        </extensions>
      </trkpt>
      <trkpt lat="42.63467579148709774017333984375" lon="19.901020266115665435791015625">
        <ele>1488.5999755859375</ele>
        <time>2026-06-16T07:46:58.000Z</time>
        <extensions>
          <ns3:TrackPointExtension>
            <ns3:atemp>23.0</ns3:atemp>
          </ns3:TrackPointExtension>
        </extensions>
      </trkpt>
      <trkpt lat="42.6346716843545436859130859375" lon="19.9009962938725948333740234375">
        <ele>1488.800048828125</ele>
        <time>2026-06-16T07:46:59.000Z</time>
        <extensions>
          <ns3:TrackPointExtension>
            <ns3:atemp>23.0</ns3:atemp>
          </ns3:TrackPointExtension>
        </extensions>
      </trkpt>
      <trkpt lat="42.63467252254486083984375" lon="19.90097776986658573150634765625">
        <ele>1488.800048828125</ele>
        <time>2026-06-16T07:47:00.000Z</time>
        <extensions>
          <ns3:TrackPointExtension>
            <ns3:atemp>23.0</ns3:atemp>
          </ns3:TrackPointExtension>
        </extensions>
      </trkpt>
      <trkpt lat="42.63467880897223949432373046875" lon="19.90095983259379863739013671875">
        <ele>1489</ele>
        <time>2026-06-16T07:47:01.000Z</time>
        <extensions>
          <ns3:TrackPointExtension>
            <ns3:atemp>23.0</ns3:atemp>
          </ns3:TrackPointExtension>
        </extensions>
      </trkpt>
      <trkpt lat="42.6346899569034576416015625" lon="19.90093854255974292755126953125">
        <ele>1489.199951171875</ele>
        <time>2026-06-16T07:47:02.000Z</time>
        <extensions>
          <ns3:TrackPointExtension>
            <ns3:atemp>23.0</ns3:atemp>
          </ns3:TrackPointExtension>
        </extensions>
      </trkpt>
      <trkpt lat="42.63470009900629520416259765625" lon="19.90091599524021148681640625">
        <ele>1489.4000244140625</ele>
        <time>2026-06-16T07:47:03.000Z</time>
        <extensions>
          <ns3:TrackPointExtension>
            <ns3:atemp>23.0</ns3:atemp>
          </ns3:TrackPointExtension>
        </extensions>
      </trkpt>
      <trkpt lat="42.63470697216689586639404296875" lon="19.90089445374906063079833984375">
        <ele>1489.5999755859375</ele>
        <time>2026-06-16T07:47:04.000Z</time>
        <extensions>
          <ns3:TrackPointExtension>
            <ns3:atemp>23.0</ns3:atemp>
          </ns3:TrackPointExtension>
        </extensions>
      </trkpt>
      <trkpt lat="42.6347226463258266448974609375" lon="19.9008764326572418212890625">
        <ele>1489.5999755859375</ele>
        <time>2026-06-16T07:47:05.000Z</time>
        <extensions>
          <ns3:TrackPointExtension>
            <ns3:atemp>23.0</ns3:atemp>
          </ns3:TrackPointExtension>
        </extensions>
      </trkpt>
      <trkpt lat="42.63473764993250370025634765625" lon="19.90086176432669162750244140625">
        <ele>1489.800048828125</ele>
        <time>2026-06-16T07:47:06.000Z</time>
        <extensions>
          <ns3:TrackPointExtension>
            <ns3:atemp>23.0</ns3:atemp>
          </ns3:TrackPointExtension>
        </extensions>
      </trkpt>
      <trkpt lat="42.63475122861564159393310546875" lon="19.9008437432348728179931640625">
        <ele>1489.800048828125</ele>
        <time>2026-06-16T07:47:07.000Z</time>
        <extensions>
          <ns3:TrackPointExtension>
            <ns3:atemp>23.0</ns3:atemp>
          </ns3:TrackPointExtension>
        </extensions>
      </trkpt>
      <trkpt lat="42.6347648911178112030029296875" lon="19.9008254706859588623046875">
        <ele>1490</ele>
        <time>2026-06-16T07:47:08.000Z</time>
        <extensions>
          <ns3:TrackPointExtension>
            <ns3:atemp>23.0</ns3:atemp>
          </ns3:TrackPointExtension>
        </extensions>
      </trkpt>
      <trkpt lat="42.6347776316106319427490234375" lon="19.900805689394474029541015625">
        <ele>1490</ele>
        <time>2026-06-16T07:47:09.000Z</time>
        <extensions>
          <ns3:TrackPointExtension>
            <ns3:atemp>23.0</ns3:atemp>
          </ns3:TrackPointExtension>
        </extensions>
      </trkpt>
      <trkpt lat="42.63479028828442096710205078125" lon="19.9007810465991497039794921875">
        <ele>1490.199951171875</ele>
        <time>2026-06-16T07:47:10.000Z</time>
        <extensions>
          <ns3:TrackPointExtension>
            <ns3:atemp>23.0</ns3:atemp>
          </ns3:TrackPointExtension>
        </extensions>
      </trkpt>
      <trkpt lat="42.6348074711859226226806640625" lon="19.9007649533450603485107421875">
        <ele>1490.199951171875</ele>
        <time>2026-06-16T07:47:11.000Z</time>
        <extensions>
          <ns3:TrackPointExtension>
            <ns3:atemp>23.0</ns3:atemp>
          </ns3:TrackPointExtension>
        </extensions>
      </trkpt>
      <trkpt lat="42.63482247479259967803955078125" lon="19.90074575878679752349853515625">
        <ele>1490.4000244140625</ele>
        <time>2026-06-16T07:47:12.000Z</time>
        <extensions>
          <ns3:TrackPointExtension>
            <ns3:atemp>23.0</ns3:atemp>
          </ns3:TrackPointExtension>
        </extensions>
      </trkpt>
      <trkpt lat="42.63483680784702301025390625" lon="19.9007235467433929443359375">
        <ele>1490.5999755859375</ele>
        <time>2026-06-16T07:47:13.000Z</time>
        <extensions>
          <ns3:TrackPointExtension>
            <ns3:atemp>23.0</ns3:atemp>
          </ns3:TrackPointExtension>
        </extensions>
      </trkpt>
      <trkpt lat="42.634852230548858642578125" lon="19.90070133469998836517333984375">
        <ele>1490.5999755859375</ele>
        <time>2026-06-16T07:47:14.000Z</time>
        <extensions>
          <ns3:TrackPointExtension>
            <ns3:atemp>23.0</ns3:atemp>
          </ns3:TrackPointExtension>
        </extensions>
      </trkpt>
      <trkpt lat="42.6348654739558696746826171875" lon="19.90068188868463039398193359375">
        <ele>1490.800048828125</ele>
        <time>2026-06-16T07:47:15.000Z</time>
        <extensions>
          <ns3:TrackPointExtension>
            <ns3:atemp>23.0</ns3:atemp>
          </ns3:TrackPointExtension>
        </extensions>
      </trkpt>
      <trkpt lat="42.63487863354384899139404296875" lon="19.90066059865057468414306640625">
        <ele>1490.800048828125</ele>
        <time>2026-06-16T07:47:16.000Z</time>
        <extensions>
          <ns3:TrackPointExtension>
            <ns3:atemp>23.0</ns3:atemp>
          </ns3:TrackPointExtension>
        </extensions>
      </trkpt>
      <trkpt lat="42.6348889432847499847412109375" lon="19.9006372131407260894775390625">
        <ele>1491</ele>
        <time>2026-06-16T07:47:17.000Z</time>
        <extensions>
          <ns3:TrackPointExtension>
            <ns3:atemp>23.0</ns3:atemp>
          </ns3:TrackPointExtension>
        </extensions>
      </trkpt>
      <trkpt lat="42.63489925302565097808837890625" lon="19.90061500109732151031494140625">
        <ele>1491.199951171875</ele>
        <time>2026-06-16T07:47:18.000Z</time>
        <extensions>
          <ns3:TrackPointExtension>
            <ns3:atemp>23.0</ns3:atemp>
          </ns3:TrackPointExtension>
        </extensions>
      </trkpt>
      <trkpt lat="42.6349057070910930633544921875" lon="19.90059035830199718475341796875">
        <ele>1491.5999755859375</ele>
        <time>2026-06-16T07:47:19.000Z</time>
        <extensions>
          <ns3:TrackPointExtension>
            <ns3:atemp>23.0</ns3:atemp>
          </ns3:TrackPointExtension>
        </extensions>
      </trkpt>
      <trkpt lat="42.63491266407072544097900390625" lon="19.9005594290792942047119140625">
        <ele>1491.800048828125</ele>
        <time>2026-06-16T07:47:20.000Z</time>
        <extensions>
          <ns3:TrackPointExtension>
            <ns3:atemp>23.0</ns3:atemp>
          </ns3:TrackPointExtension>
        </extensions>
      </trkpt>
      <trkpt lat="42.63492037542164325714111328125" lon="19.900529086589813232421875">
        <ele>1492.4000244140625</ele>
        <time>2026-06-16T07:47:21.000Z</time>
        <extensions>
          <ns3:TrackPointExtension>
            <ns3:atemp>23.0</ns3:atemp>
          </ns3:TrackPointExtension>
        </extensions>
      </trkpt>
      <trkpt lat="42.63492741622030735015869140625" lon="19.9005027674138545989990234375">
        <ele>1492.5999755859375</ele>
        <time>2026-06-16T07:47:22.000Z</time>
        <extensions>
          <ns3:TrackPointExtension>
            <ns3:atemp>23.0</ns3:atemp>
          </ns3:TrackPointExtension>
        </extensions>
      </trkpt>
      <trkpt lat="42.634935043752193450927734375" lon="19.90047745406627655029296875">
        <ele>1493</ele>
        <time>2026-06-16T07:47:23.000Z</time>
        <extensions>
          <ns3:TrackPointExtension>
            <ns3:atemp>23.0</ns3:atemp>
          </ns3:TrackPointExtension>
        </extensions>
      </trkpt>
      <trkpt lat="42.63494317419826984405517578125" lon="19.90045406855642795562744140625">
        <ele>1493.199951171875</ele>
        <time>2026-06-16T07:47:24.000Z</time>
        <extensions>
          <ns3:TrackPointExtension>
            <ns3:atemp>23.0</ns3:atemp>
          </ns3:TrackPointExtension>
        </extensions>
      </trkpt>
      <trkpt lat="42.6349499635398387908935546875" lon="19.900428839027881622314453125">
        <ele>1493.4000244140625</ele>
        <time>2026-06-16T07:47:25.000Z</time>
        <extensions>
          <ns3:TrackPointExtension>
            <ns3:atemp>23.0</ns3:atemp>
          </ns3:TrackPointExtension>
        </extensions>
      </trkpt>
      <trkpt lat="42.63495725579559803009033203125" lon="19.90040394477546215057373046875">
        <ele>1493.5999755859375</ele>
        <time>2026-06-16T07:47:26.000Z</time>
        <extensions>
          <ns3:TrackPointExtension>
            <ns3:atemp>23.0</ns3:atemp>
          </ns3:TrackPointExtension>
        </extensions>
      </trkpt>
      <trkpt lat="42.6349650509655475616455078125" lon="19.9003787152469158172607421875">
        <ele>1493.800048828125</ele>
        <time>2026-06-16T07:47:27.000Z</time>
        <extensions>
          <ns3:TrackPointExtension>
            <ns3:atemp>23.0</ns3:atemp>
          </ns3:TrackPointExtension>
        </extensions>
      </trkpt>
      <trkpt lat="42.63497100211679935455322265625" lon="19.9003534018993377685546875">
        <ele>1494</ele>
        <time>2026-06-16T07:47:28.000Z</time>
        <extensions>
          <ns3:TrackPointExtension>
            <ns3:atemp>23.0</ns3:atemp>
          </ns3:TrackPointExtension>
        </extensions>
      </trkpt>
      <trkpt lat="42.6349787972867488861083984375" lon="19.90032850764691829681396484375">
        <ele>1494.199951171875</ele>
        <time>2026-06-16T07:47:29.000Z</time>
        <extensions>
          <ns3:TrackPointExtension>
            <ns3:atemp>23.0</ns3:atemp>
          </ns3:TrackPointExtension>
        </extensions>
      </trkpt>
      <trkpt lat="42.634988017380237579345703125" lon="19.90030202083289623260498046875">
        <ele>1494.4000244140625</ele>
        <time>2026-06-16T07:47:30.000Z</time>
        <extensions>
          <ns3:TrackPointExtension>
            <ns3:atemp>23.0</ns3:atemp>
          </ns3:TrackPointExtension>
        </extensions>
      </trkpt>
      <trkpt lat="42.6349948905408382415771484375" lon="19.90027402527630329132080078125">
        <ele>1494.5999755859375</ele>
        <time>2026-06-16T07:47:31.000Z</time>
        <extensions>
          <ns3:TrackPointExtension>
            <ns3:atemp>23.0</ns3:atemp>
          </ns3:TrackPointExtension>
        </extensions>
      </trkpt>
      <trkpt lat="42.63500385917723178863525390625" lon="19.90024468861520290374755859375">
        <ele>1494.800048828125</ele>
        <time>2026-06-16T07:47:32.000Z</time>
        <extensions>
          <ns3:TrackPointExtension>
            <ns3:atemp>23.0</ns3:atemp>
          </ns3:TrackPointExtension>
        </extensions>
      </trkpt>
      <trkpt lat="42.6350136660039424896240234375" lon="19.9002191238105297088623046875">
        <ele>1495</ele>
        <time>2026-06-16T07:47:33.000Z</time>
        <extensions>
          <ns3:TrackPointExtension>
            <ns3:atemp>23.0</ns3:atemp>
          </ns3:TrackPointExtension>
        </extensions>
      </trkpt>
      <trkpt lat="42.63502162881195545196533203125" lon="19.90019355900585651397705078125">
        <ele>1495.199951171875</ele>
        <time>2026-06-16T07:47:34.000Z</time>
        <extensions>
          <ns3:TrackPointExtension>
            <ns3:atemp>23.0</ns3:atemp>
          </ns3:TrackPointExtension>
        </extensions>
      </trkpt>
      <trkpt lat="42.63502850197255611419677734375" lon="19.90017109550535678863525390625">
        <ele>1495.4000244140625</ele>
        <time>2026-06-16T07:47:35.000Z</time>
        <extensions>
          <ns3:TrackPointExtension>
            <ns3:atemp>23.0</ns3:atemp>
          </ns3:TrackPointExtension>
        </extensions>
      </trkpt>
      <trkpt lat="42.6350351236760616302490234375" lon="19.90014930255711078643798828125">
        <ele>1495.5999755859375</ele>
        <time>2026-06-16T07:47:36.000Z</time>
        <extensions>
          <ns3:TrackPointExtension>
            <ns3:atemp>23.0</ns3:atemp>
          </ns3:TrackPointExtension>
        </extensions>
      </trkpt>
      <trkpt lat="42.63504467904567718505859375" lon="19.90012164227664470672607421875">
        <ele>1495.800048828125</ele>
        <time>2026-06-16T07:47:37.000Z</time>
        <extensions>
          <ns3:TrackPointExtension>
            <ns3:atemp>23.0</ns3:atemp>
          </ns3:TrackPointExtension>
        </extensions>
      </trkpt>
      <trkpt lat="42.63505540788173675537109375" lon="19.9000987596809864044189453125">
        <ele>1496</ele>
        <time>2026-06-16T07:47:38.000Z</time>
        <extensions>
          <ns3:TrackPointExtension>
            <ns3:atemp>23.0</ns3:atemp>
          </ns3:TrackPointExtension>
        </extensions>
      </trkpt>
      <trkpt lat="42.63506521470844745635986328125" lon="19.9000771343708038330078125">
        <ele>1496.199951171875</ele>
        <time>2026-06-16T07:47:39.000Z</time>
        <extensions>
          <ns3:TrackPointExtension>
            <ns3:atemp>23.0</ns3:atemp>
          </ns3:TrackPointExtension>
        </extensions>
      </trkpt>
      <trkpt lat="42.63507275842130184173583984375" lon="19.90005341358482837677001953125">
        <ele>1496.4000244140625</ele>
        <time>2026-06-16T07:47:40.000Z</time>
        <extensions>
          <ns3:TrackPointExtension>
            <ns3:atemp>23.0</ns3:atemp>
          </ns3:TrackPointExtension>
        </extensions>
      </trkpt>
      <trkpt lat="42.6350827328860759735107421875" lon="19.900030530989170074462890625">
        <ele>1496.5999755859375</ele>
        <time>2026-06-16T07:47:41.000Z</time>
        <extensions>
          <ns3:TrackPointExtension>
            <ns3:atemp>23.0</ns3:atemp>
          </ns3:TrackPointExtension>
        </extensions>
      </trkpt>
      <trkpt lat="42.6350921206176280975341796875" lon="19.9000048823654651641845703125">
        <ele>1496.5999755859375</ele>
        <time>2026-06-16T07:47:42.000Z</time>
        <extensions>
          <ns3:TrackPointExtension>
            <ns3:atemp>23.0</ns3:atemp>
          </ns3:TrackPointExtension>
        </extensions>
      </trkpt>
      <trkpt lat="42.63510393910109996795654296875" lon="19.8999804072082042694091796875">
        <ele>1496.5999755859375</ele>
        <time>2026-06-16T07:47:43.000Z</time>
        <extensions>
          <ns3:TrackPointExtension>
            <ns3:atemp>23.0</ns3:atemp>
          </ns3:TrackPointExtension>
        </extensions>
      </trkpt>
      <trkpt lat="42.63511533848941326141357421875" lon="19.899959452450275421142578125">
        <ele>1496.5999755859375</ele>
        <time>2026-06-16T07:47:44.000Z</time>
        <extensions>
          <ns3:TrackPointExtension>
            <ns3:atemp>23.0</ns3:atemp>
          </ns3:TrackPointExtension>
        </extensions>
      </trkpt>
      <trkpt lat="42.6351276598870754241943359375" lon="19.89993690513074398040771484375">
        <ele>1496.5999755859375</ele>
        <time>2026-06-16T07:47:45.000Z</time>
        <extensions>
          <ns3:TrackPointExtension>
            <ns3:atemp>23.0</ns3:atemp>
          </ns3:TrackPointExtension>
        </extensions>
      </trkpt>
      <trkpt lat="42.63513931073248386383056640625" lon="19.89991695620119571685791015625">
        <ele>1496.5999755859375</ele>
        <time>2026-06-16T07:47:46.000Z</time>
        <extensions>
          <ns3:TrackPointExtension>
            <ns3:atemp>23.0</ns3:atemp>
          </ns3:TrackPointExtension>
        </extensions>
      </trkpt>
      <trkpt lat="42.6351538114249706268310546875" lon="19.899894408881664276123046875">
        <ele>1496.800048828125</ele>
        <time>2026-06-16T07:47:47.000Z</time>
        <extensions>
          <ns3:TrackPointExtension>
            <ns3:atemp>23.0</ns3:atemp>
          </ns3:TrackPointExtension>
        </extensions>
      </trkpt>
      <trkpt lat="42.63516278006136417388916015625" lon="19.8998727835714817047119140625">
        <ele>1497</ele>
        <time>2026-06-16T07:47:48.000Z</time>
        <extensions>
          <ns3:TrackPointExtension>
            <ns3:atemp>23.0</ns3:atemp>
          </ns3:TrackPointExtension>
        </extensions>
      </trkpt>
      <trkpt lat="42.63517267070710659027099609375" lon="19.89985208027064800262451171875">
        <ele>1497.199951171875</ele>
        <time>2026-06-16T07:47:49.000Z</time>
        <extensions>
          <ns3:TrackPointExtension>
            <ns3:atemp>23.0</ns3:atemp>
          </ns3:TrackPointExtension>
        </extensions>
      </trkpt>
      <trkpt lat="42.6351829804480075836181640625" lon="19.89982970058917999267578125">
        <ele>1497.4000244140625</ele>
        <time>2026-06-16T07:47:50.000Z</time>
        <extensions>
          <ns3:TrackPointExtension>
            <ns3:atemp>23.0</ns3:atemp>
          </ns3:TrackPointExtension>
        </extensions>
      </trkpt>
      <trkpt lat="42.6351953856647014617919921875" lon="19.899809919297695159912109375">
        <ele>1497.4000244140625</ele>
        <time>2026-06-16T07:47:51.000Z</time>
        <extensions>
          <ns3:TrackPointExtension>
            <ns3:atemp>23.0</ns3:atemp>
          </ns3:TrackPointExtension>
        </extensions>
      </trkpt>
      <trkpt lat="42.63520485721528530120849609375" lon="19.8997874557971954345703125">
        <ele>1497.5999755859375</ele>
        <time>2026-06-16T07:47:52.000Z</time>
        <extensions>
          <ns3:TrackPointExtension>
            <ns3:atemp>23.0</ns3:atemp>
          </ns3:TrackPointExtension>
        </extensions>
      </trkpt>
      <trkpt lat="42.63521525077521800994873046875" lon="19.8997654952108860015869140625">
        <ele>1497.800048828125</ele>
        <time>2026-06-16T07:47:53.000Z</time>
        <extensions>
          <ns3:TrackPointExtension>
            <ns3:atemp>23.0</ns3:atemp>
          </ns3:TrackPointExtension>
        </extensions>
      </trkpt>
      <trkpt lat="42.6352245546877384185791015625" lon="19.89974596537649631500244140625">
        <ele>1498</ele>
        <time>2026-06-16T07:47:54.000Z</time>
        <extensions>
          <ns3:TrackPointExtension>
            <ns3:atemp>23.0</ns3:atemp>
          </ns3:TrackPointExtension>
        </extensions>
      </trkpt>
      <trkpt lat="42.6352336071431636810302734375" lon="19.899726770818233489990234375">
        <ele>1498.199951171875</ele>
        <time>2026-06-16T07:47:55.000Z</time>
        <extensions>
          <ns3:TrackPointExtension>
            <ns3:atemp>23.0</ns3:atemp>
          </ns3:TrackPointExtension>
        </extensions>
      </trkpt>
      <trkpt lat="42.6352436654269695281982421875" lon="19.89970690570771694183349609375">
        <ele>1498.5999755859375</ele>
        <time>2026-06-16T07:47:56.000Z</time>
        <extensions>
          <ns3:TrackPointExtension>
            <ns3:atemp>23.0</ns3:atemp>
          </ns3:TrackPointExtension>
        </extensions>
      </trkpt>
      <trkpt lat="42.6352543942630290985107421875" lon="19.899686537683010101318359375">
        <ele>1498.800048828125</ele>
        <time>2026-06-16T07:47:57.000Z</time>
        <extensions>
          <ns3:TrackPointExtension>
            <ns3:atemp>23.0</ns3:atemp>
          </ns3:TrackPointExtension>
        </extensions>
      </trkpt>
      <trkpt lat="42.63526604510843753814697265625" lon="19.89966767840087413787841796875">
        <ele>1499</ele>
        <time>2026-06-16T07:47:58.000Z</time>
        <extensions>
          <ns3:TrackPointExtension>
            <ns3:atemp>23.0</ns3:atemp>
          </ns3:TrackPointExtension>
        </extensions>
      </trkpt>
      <trkpt lat="42.63527912087738513946533203125" lon="19.89964840002357959747314453125">
        <ele>1499.4000244140625</ele>
        <time>2026-06-16T07:47:59.000Z</time>
        <extensions>
          <ns3:TrackPointExtension>
            <ns3:atemp>23.0</ns3:atemp>
          </ns3:TrackPointExtension>
        </extensions>
      </trkpt>
      <trkpt lat="42.63528607785701751708984375" lon="19.899625517427921295166015625">
        <ele>1499.5999755859375</ele>
        <time>2026-06-16T07:48:00.000Z</time>
        <extensions>
          <ns3:TrackPointExtension>
            <ns3:atemp>23.0</ns3:atemp>
          </ns3:TrackPointExtension>
        </extensions>
      </trkpt>
      <trkpt lat="42.63529420830309391021728515625" lon="19.899602048099040985107421875">
        <ele>1499.800048828125</ele>
        <time>2026-06-16T07:48:01.000Z</time>
        <extensions>
          <ns3:TrackPointExtension>
            <ns3:atemp>23.0</ns3:atemp>
          </ns3:TrackPointExtension>
        </extensions>
      </trkpt>
      <trkpt lat="42.6353030093014240264892578125" lon="19.89957983605563640594482421875">
        <ele>1500.199951171875</ele>
        <time>2026-06-16T07:48:02.000Z</time>
        <extensions>
          <ns3:TrackPointExtension>
            <ns3:atemp>23.0</ns3:atemp>
          </ns3:TrackPointExtension>
        </extensions>
      </trkpt>
      <trkpt lat="42.63530862517654895782470703125" lon="19.899556450545787811279296875">
        <ele>1500.5999755859375</ele>
        <time>2026-06-16T07:48:03.000Z</time>
        <extensions>
          <ns3:TrackPointExtension>
            <ns3:atemp>23.0</ns3:atemp>
          </ns3:TrackPointExtension>
        </extensions>
      </trkpt>
      <trkpt lat="42.635312564671039581298828125" lon="19.89953256212174892425537109375">
        <ele>1501.199951171875</ele>
        <time>2026-06-16T07:48:04.000Z</time>
        <extensions>
          <ns3:TrackPointExtension>
            <ns3:atemp>23.0</ns3:atemp>
          </ns3:TrackPointExtension>
        </extensions>
      </trkpt>
      <trkpt lat="42.63531566597521305084228515625" lon="19.8995059914886951446533203125">
        <ele>1501.5999755859375</ele>
        <time>2026-06-16T07:48:05.000Z</time>
        <extensions>
          <ns3:TrackPointExtension>
            <ns3:atemp>23.0</ns3:atemp>
          </ns3:TrackPointExtension>
        </extensions>
      </trkpt>
      <trkpt lat="42.6353184320032596588134765625" lon="19.8994821868836879730224609375">
        <ele>1501.800048828125</ele>
        <time>2026-06-16T07:48:06.000Z</time>
        <extensions>
          <ns3:TrackPointExtension>
            <ns3:atemp>23.0</ns3:atemp>
          </ns3:TrackPointExtension>
        </extensions>
      </trkpt>
      <trkpt lat="42.6353184320032596588134765625" lon="19.8994624055922031402587890625">
        <ele>1502</ele>
        <time>2026-06-16T07:48:07.000Z</time>
        <extensions>
          <ns3:TrackPointExtension>
            <ns3:atemp>23.0</ns3:atemp>
          </ns3:TrackPointExtension>
        </extensions>
      </trkpt>
      <trkpt lat="42.63531935401260852813720703125" lon="19.89944287575781345367431640625">
        <ele>1502.199951171875</ele>
        <time>2026-06-16T07:48:08.000Z</time>
        <extensions>
          <ns3:TrackPointExtension>
            <ns3:atemp>23.0</ns3:atemp>
          </ns3:TrackPointExtension>
        </extensions>
      </trkpt>
      <trkpt lat="42.63532052747905254364013671875" lon="19.8994228430092334747314453125">
        <ele>1502.199951171875</ele>
        <time>2026-06-16T07:48:09.000Z</time>
        <extensions>
          <ns3:TrackPointExtension>
            <ns3:atemp>23.0</ns3:atemp>
          </ns3:TrackPointExtension>
        </extensions>
      </trkpt>
      <trkpt lat="42.6353187672793865203857421875" lon="19.89940197207033634185791015625">
        <ele>1502.4000244140625</ele>
        <time>2026-06-16T07:48:10.000Z</time>
        <extensions>
          <ns3:TrackPointExtension>
            <ns3:atemp>23.0</ns3:atemp>
          </ns3:TrackPointExtension>
        </extensions>
      </trkpt>
      <trkpt lat="42.63531868346035480499267578125" lon="19.89937984384596347808837890625">
        <ele>1502.5999755859375</ele>
        <time>2026-06-16T07:48:11.000Z</time>
        <extensions>
          <ns3:TrackPointExtension>
            <ns3:atemp>23.0</ns3:atemp>
          </ns3:TrackPointExtension>
        </extensions>
      </trkpt>
      <trkpt lat="42.63531901873648166656494140625" lon="19.899353943765163421630859375">
        <ele>1502.5999755859375</ele>
        <time>2026-06-16T07:48:12.000Z</time>
        <extensions>
          <ns3:TrackPointExtension>
            <ns3:atemp>23.0</ns3:atemp>
          </ns3:TrackPointExtension>
        </extensions>
      </trkpt>
      <trkpt lat="42.63531784527003765106201171875" lon="19.8993276245892047882080078125">
        <ele>1502.800048828125</ele>
        <time>2026-06-16T07:48:13.000Z</time>
        <extensions>
          <ns3:TrackPointExtension>
            <ns3:atemp>23.0</ns3:atemp>
          </ns3:TrackPointExtension>
        </extensions>
      </trkpt>
      <trkpt lat="42.6353170908987522125244140625" lon="19.89930440671741962432861328125">
        <ele>1503</ele>
        <time>2026-06-16T07:48:14.000Z</time>
        <extensions>
          <ns3:TrackPointExtension>
            <ns3:atemp>23.0</ns3:atemp>
          </ns3:TrackPointExtension>
        </extensions>
      </trkpt>
      <trkpt lat="42.6353123970329761505126953125" lon="19.89928378723561763763427734375">
        <ele>1503.199951171875</ele>
        <time>2026-06-16T07:48:15.000Z</time>
        <extensions>
          <ns3:TrackPointExtension>
            <ns3:atemp>23.0</ns3:atemp>
          </ns3:TrackPointExtension>
        </extensions>
      </trkpt>
      <trkpt lat="42.63531382195651531219482421875" lon="19.899257384240627288818359375">
        <ele>1503.5999755859375</ele>
        <time>2026-06-16T07:48:16.000Z</time>
        <extensions>
          <ns3:TrackPointExtension>
            <ns3:atemp>23.0</ns3:atemp>
          </ns3:TrackPointExtension>
        </extensions>
      </trkpt>
      <trkpt lat="42.635317929089069366455078125" lon="19.89923232235014438629150390625">
        <ele>1503.800048828125</ele>
        <time>2026-06-16T07:48:17.000Z</time>
        <extensions>
          <ns3:TrackPointExtension>
            <ns3:atemp>23.0</ns3:atemp>
          </ns3:TrackPointExtension>
        </extensions>
      </trkpt>
      <trkpt lat="42.6353227905929088592529296875" lon="19.89920399151742458343505859375">
        <ele>1504.199951171875</ele>
        <time>2026-06-16T07:48:18.000Z</time>
        <extensions>
          <ns3:TrackPointExtension>
            <ns3:atemp>23.0</ns3:atemp>
          </ns3:TrackPointExtension>
        </extensions>
      </trkpt>
      <trkpt lat="42.63532874174416065216064453125" lon="19.89917767234146595001220703125">
        <ele>1504.4000244140625</ele>
        <time>2026-06-16T07:48:19.000Z</time>
        <extensions>
          <ns3:TrackPointExtension>
            <ns3:atemp>23.0</ns3:atemp>
          </ns3:TrackPointExtension>
        </extensions>
      </trkpt>
      <trkpt lat="42.63533762656152248382568359375" lon="19.8991586454212665557861328125">
        <ele>1504.800048828125</ele>
        <time>2026-06-16T07:48:20.000Z</time>
        <extensions>
          <ns3:TrackPointExtension>
            <ns3:atemp>23.0</ns3:atemp>
          </ns3:TrackPointExtension>
        </extensions>
      </trkpt>
      <trkpt lat="42.63535204343497753143310546875" lon="19.8991341702640056610107421875">
        <ele>1504.800048828125</ele>
        <time>2026-06-16T07:48:21.000Z</time>
        <extensions>
          <ns3:TrackPointExtension>
            <ns3:atemp>23.0</ns3:atemp>
          </ns3:TrackPointExtension>
        </extensions>
      </trkpt>
      <trkpt lat="42.63536696322262287139892578125" lon="19.89911732263863086700439453125">
        <ele>1504.800048828125</ele>
        <time>2026-06-16T07:48:22.000Z</time>
        <extensions>
          <ns3:TrackPointExtension>
            <ns3:atemp>23.0</ns3:atemp>
          </ns3:TrackPointExtension>
        </extensions>
      </trkpt>
      <trkpt lat="42.6353841461241245269775390625" lon="19.89910491742193698883056640625">
        <ele>1505</ele>
        <time>2026-06-16T07:48:23.000Z</time>
        <extensions>
          <ns3:TrackPointExtension>
            <ns3:atemp>23.0</ns3:atemp>
          </ns3:TrackPointExtension>
        </extensions>
      </trkpt>
      <trkpt lat="42.63539931736886501312255859375" lon="19.899093769490718841552734375">
        <ele>1505</ele>
        <time>2026-06-16T07:48:24.000Z</time>
        <extensions>
          <ns3:TrackPointExtension>
            <ns3:atemp>23.0</ns3:atemp>
          </ns3:TrackPointExtension>
        </extensions>
      </trkpt>
      <trkpt lat="42.63541406951844692230224609375" lon="19.89908136427402496337890625">
        <ele>1505</ele>
        <time>2026-06-16T07:48:25.000Z</time>
        <extensions>
          <ns3:TrackPointExtension>
            <ns3:atemp>23.0</ns3:atemp>
          </ns3:TrackPointExtension>
        </extensions>
      </trkpt>
      <trkpt lat="42.6354294084012508392333984375" lon="19.89907189272344112396240234375">
        <ele>1505.199951171875</ele>
        <time>2026-06-16T07:48:26.000Z</time>
        <extensions>
          <ns3:TrackPointExtension>
            <ns3:atemp>23.0</ns3:atemp>
          </ns3:TrackPointExtension>
        </extensions>
      </trkpt>
      <trkpt lat="42.63544843532145023345947265625" lon="19.899069964885711669921875">
        <ele>1505.4000244140625</ele>
        <time>2026-06-16T07:48:27.000Z</time>
        <extensions>
          <ns3:TrackPointExtension>
            <ns3:atemp>23.0</ns3:atemp>
          </ns3:TrackPointExtension>
        </extensions>
      </trkpt>
      <trkpt lat="42.6354679651558399200439453125" lon="19.89906753413379192352294921875">
        <ele>1505.5999755859375</ele>
        <time>2026-06-16T07:48:28.000Z</time>
        <extensions>
          <ns3:TrackPointExtension>
            <ns3:atemp>23.0</ns3:atemp>
          </ns3:TrackPointExtension>
        </extensions>
      </trkpt>
      <trkpt lat="42.63548816554248332977294921875" lon="19.8990607447922229766845703125">
        <ele>1505.800048828125</ele>
        <time>2026-06-16T07:48:29.000Z</time>
        <extensions>
          <ns3:TrackPointExtension>
            <ns3:atemp>23.0</ns3:atemp>
          </ns3:TrackPointExtension>
        </extensions>
      </trkpt>
      <trkpt lat="42.63550694100558757781982421875" lon="19.89905831404030323028564453125">
        <ele>1506</ele>
        <time>2026-06-16T07:48:30.000Z</time>
        <extensions>
          <ns3:TrackPointExtension>
            <ns3:atemp>23.0</ns3:atemp>
          </ns3:TrackPointExtension>
        </extensions>
      </trkpt>
      <trkpt lat="42.63552605174481868743896484375" lon="19.89905764348804950714111328125">
        <ele>1506.199951171875</ele>
        <time>2026-06-16T07:48:31.000Z</time>
        <extensions>
          <ns3:TrackPointExtension>
            <ns3:atemp>23.0</ns3:atemp>
          </ns3:TrackPointExtension>
        </extensions>
      </trkpt>
      <trkpt lat="42.63554222881793975830078125" lon="19.89904993213713169097900390625">
        <ele>1506.4000244140625</ele>
        <time>2026-06-16T07:48:32.000Z</time>
        <extensions>
          <ns3:TrackPointExtension>
            <ns3:atemp>23.0</ns3:atemp>
          </ns3:TrackPointExtension>
        </extensions>
      </trkpt>
      <trkpt lat="42.63555773533880710601806640625" lon="19.89903786219656467437744140625">
        <ele>1506.800048828125</ele>
        <time>2026-06-16T07:48:33.000Z</time>
        <extensions>
          <ns3:TrackPointExtension>
            <ns3:atemp>23.0</ns3:atemp>
          </ns3:TrackPointExtension>
        </extensions>
      </trkpt>
      <trkpt lat="42.63557148166000843048095703125" lon="19.89902495406568050384521484375">
        <ele>1507.199951171875</ele>
        <time>2026-06-16T07:48:34.000Z</time>
        <extensions>
          <ns3:TrackPointExtension>
            <ns3:atemp>23.0</ns3:atemp>
          </ns3:TrackPointExtension>
        </extensions>
      </trkpt>
      <trkpt lat="42.6355866529047489166259765625" lon="19.89901296794414520263671875">
        <ele>1507.5999755859375</ele>
        <time>2026-06-16T07:48:35.000Z</time>
        <extensions>
          <ns3:TrackPointExtension>
            <ns3:atemp>23.0</ns3:atemp>
          </ns3:TrackPointExtension>
        </extensions>
      </trkpt>
      <trkpt lat="42.63559897430241107940673828125" lon="19.8989975452423095703125">
        <ele>1508</ele>
        <time>2026-06-16T07:48:36.000Z</time>
        <extensions>
          <ns3:TrackPointExtension>
            <ns3:atemp>23.0</ns3:atemp>
          </ns3:TrackPointExtension>
        </extensions>
      </trkpt>
      <trkpt lat="42.63561288826167583465576171875" lon="19.89898052997887134552001953125">
        <ele>1508.199951171875</ele>
        <time>2026-06-16T07:48:37.000Z</time>
        <extensions>
          <ns3:TrackPointExtension>
            <ns3:atemp>23.0</ns3:atemp>
          </ns3:TrackPointExtension>
        </extensions>
      </trkpt>
      <trkpt lat="42.63562395237386226654052734375" lon="19.898958988487720489501953125">
        <ele>1508.5999755859375</ele>
        <time>2026-06-16T07:48:38.000Z</time>
        <extensions>
          <ns3:TrackPointExtension>
            <ns3:atemp>23.0</ns3:atemp>
          </ns3:TrackPointExtension>
        </extensions>
      </trkpt>
      <trkpt lat="42.63563518412411212921142578125" lon="19.89893560297787189483642578125">
        <ele>1509</ele>
        <time>2026-06-16T07:48:39.000Z</time>
        <extensions>
          <ns3:TrackPointExtension>
            <ns3:atemp>23.0</ns3:atemp>
          </ns3:TrackPointExtension>
        </extensions>
      </trkpt>
      <trkpt lat="42.6356453262269496917724609375" lon="19.898913390934467315673828125">
        <ele>1509.199951171875</ele>
        <time>2026-06-16T07:48:40.000Z</time>
        <extensions>
          <ns3:TrackPointExtension>
            <ns3:atemp>23.0</ns3:atemp>
          </ns3:TrackPointExtension>
        </extensions>
      </trkpt>
      <trkpt lat="42.63565664179623126983642578125" lon="19.89889067597687244415283203125">
        <ele>1509.4000244140625</ele>
        <time>2026-06-16T07:48:41.000Z</time>
        <extensions>
          <ns3:TrackPointExtension>
            <ns3:atemp>23.0</ns3:atemp>
          </ns3:TrackPointExtension>
        </extensions>
      </trkpt>
      <trkpt lat="42.63566485606133937835693359375" lon="19.8988696373999118804931640625">
        <ele>1509.800048828125</ele>
        <time>2026-06-16T07:48:42.000Z</time>
        <extensions>
          <ns3:TrackPointExtension>
            <ns3:atemp>23.0</ns3:atemp>
          </ns3:TrackPointExtension>
        </extensions>
      </trkpt>
      <trkpt lat="42.63567097485065460205078125" lon="19.89884859882295131683349609375">
        <ele>1510</ele>
        <time>2026-06-16T07:48:43.000Z</time>
        <extensions>
          <ns3:TrackPointExtension>
            <ns3:atemp>23.0</ns3:atemp>
          </ns3:TrackPointExtension>
        </extensions>
      </trkpt>
      <trkpt lat="42.6356758363544940948486328125" lon="19.8988257162272930145263671875">
        <ele>1510.4000244140625</ele>
        <time>2026-06-16T07:48:44.000Z</time>
        <extensions>
          <ns3:TrackPointExtension>
            <ns3:atemp>23.0</ns3:atemp>
          </ns3:TrackPointExtension>
        </extensions>
      </trkpt>
      <trkpt lat="42.6356842182576656341552734375" lon="19.89880249835550785064697265625">
        <ele>1510.5999755859375</ele>
        <time>2026-06-16T07:48:45.000Z</time>
        <extensions>
          <ns3:TrackPointExtension>
            <ns3:atemp>23.0</ns3:atemp>
          </ns3:TrackPointExtension>
        </extensions>
      </trkpt>
      <trkpt lat="42.6356932707130908966064453125" lon="19.8987771011888980865478515625">
        <ele>1510.800048828125</ele>
        <time>2026-06-16T07:48:46.000Z</time>
        <extensions>
          <ns3:TrackPointExtension>
            <ns3:atemp>23.0</ns3:atemp>
          </ns3:TrackPointExtension>
        </extensions>
      </trkpt>
      <trkpt lat="42.63570123352110385894775390625" lon="19.89874952472746372222900390625">
        <ele>1511.199951171875</ele>
        <time>2026-06-16T07:48:47.000Z</time>
        <extensions>
          <ns3:TrackPointExtension>
            <ns3:atemp>23.0</ns3:atemp>
          </ns3:TrackPointExtension>
        </extensions>
      </trkpt>
      <trkpt lat="42.635707519948482513427734375" lon="19.89872672595083713531494140625">
        <ele>1511.4000244140625</ele>
        <time>2026-06-16T07:48:48.000Z</time>
        <extensions>
          <ns3:TrackPointExtension>
            <ns3:atemp>23.0</ns3:atemp>
          </ns3:TrackPointExtension>
        </extensions>
      </trkpt>
      <trkpt lat="42.635714225471019744873046875" lon="19.89870744757354259490966796875">
        <ele>1511.800048828125</ele>
        <time>2026-06-16T07:48:49.000Z</time>
        <extensions>
          <ns3:TrackPointExtension>
            <ns3:atemp>23.0</ns3:atemp>
          </ns3:TrackPointExtension>
        </extensions>
      </trkpt>
      <trkpt lat="42.6357190869748592376708984375" lon="19.898683726787567138671875">
        <ele>1512</ele>
        <time>2026-06-16T07:48:50.000Z</time>
        <extensions>
          <ns3:TrackPointExtension>
            <ns3:atemp>23.0</ns3:atemp>
          </ns3:TrackPointExtension>
        </extensions>
      </trkpt>
      <trkpt lat="42.635727636516094207763671875" lon="19.8986600898206233978271484375">
        <ele>1512.199951171875</ele>
        <time>2026-06-16T07:48:51.000Z</time>
        <extensions>
          <ns3:TrackPointExtension>
            <ns3:atemp>23.0</ns3:atemp>
          </ns3:TrackPointExtension>
        </extensions>
      </trkpt>
      <trkpt lat="42.63573559932410717010498046875" lon="19.89863603375852108001708984375">
        <ele>1512.199951171875</ele>
        <time>2026-06-16T07:48:52.000Z</time>
        <extensions>
          <ns3:TrackPointExtension>
            <ns3:atemp>23.0</ns3:atemp>
          </ns3:TrackPointExtension>
        </extensions>
      </trkpt>
      <trkpt lat="42.635743729770183563232421875" lon="19.8986144922673702239990234375">
        <ele>1512.199951171875</ele>
        <time>2026-06-16T07:48:53.000Z</time>
        <extensions>
          <ns3:TrackPointExtension>
            <ns3:atemp>23.0</ns3:atemp>
          </ns3:TrackPointExtension>
        </extensions>
      </trkpt>
      <trkpt lat="42.635751776397228240966796875" lon="19.8985920287668704986572265625">
        <ele>1512.4000244140625</ele>
        <time>2026-06-16T07:48:54.000Z</time>
        <extensions>
          <ns3:TrackPointExtension>
            <ns3:atemp>23.0</ns3:atemp>
          </ns3:TrackPointExtension>
        </extensions>
      </trkpt>
      <trkpt lat="42.635759823024272918701171875" lon="19.8985725827515125274658203125">
        <ele>1512.4000244140625</ele>
        <time>2026-06-16T07:48:55.000Z</time>
        <extensions>
          <ns3:TrackPointExtension>
            <ns3:atemp>23.0</ns3:atemp>
          </ns3:TrackPointExtension>
        </extensions>
      </trkpt>
      <trkpt lat="42.63577063567936420440673828125" lon="19.89855607040226459503173828125">
        <ele>1512.5999755859375</ele>
        <time>2026-06-16T07:48:56.000Z</time>
        <extensions>
          <ns3:TrackPointExtension>
            <ns3:atemp>23.0</ns3:atemp>
          </ns3:TrackPointExtension>
        </extensions>
      </trkpt>
      <trkpt lat="42.6357817836105823516845703125" lon="19.89853595383465290069580078125">
        <ele>1512.5999755859375</ele>
        <time>2026-06-16T07:48:57.000Z</time>
        <extensions>
          <ns3:TrackPointExtension>
            <ns3:atemp>23.0</ns3:atemp>
          </ns3:TrackPointExtension>
        </extensions>
      </trkpt>
      <trkpt lat="42.6357950270175933837890625" lon="19.89851701073348522186279296875">
        <ele>1512.800048828125</ele>
        <time>2026-06-16T07:48:58.000Z</time>
        <extensions>
          <ns3:TrackPointExtension>
            <ns3:atemp>23.0</ns3:atemp>
          </ns3:TrackPointExtension>
        </extensions>
      </trkpt>
      <trkpt lat="42.63580399565398693084716796875" lon="19.8984981514513492584228515625">
        <ele>1512.800048828125</ele>
        <time>2026-06-16T07:48:59.000Z</time>
        <extensions>
          <ns3:TrackPointExtension>
            <ns3:atemp>23.0</ns3:atemp>
          </ns3:TrackPointExtension>
        </extensions>
      </trkpt>
      <trkpt lat="42.6358156464993953704833984375" lon="19.8984773643314838409423828125">
        <ele>1513</ele>
        <time>2026-06-16T07:49:00.000Z</time>
        <extensions>
          <ns3:TrackPointExtension>
            <ns3:atemp>23.0</ns3:atemp>
          </ns3:TrackPointExtension>
        </extensions>
      </trkpt>
      <trkpt lat="42.63582696206867694854736328125" lon="19.8984622769057750701904296875">
        <ele>1513</ele>
        <time>2026-06-16T07:49:01.000Z</time>
        <extensions>
          <ns3:TrackPointExtension>
            <ns3:atemp>23.0</ns3:atemp>
          </ns3:TrackPointExtension>
        </extensions>
      </trkpt>
      <trkpt lat="42.63583458960056304931640625" lon="19.89844459109008312225341796875">
        <ele>1513.199951171875</ele>
        <time>2026-06-16T07:49:02.000Z</time>
        <extensions>
          <ns3:TrackPointExtension>
            <ns3:atemp>23.0</ns3:atemp>
          </ns3:TrackPointExtension>
        </extensions>
      </trkpt>
      <trkpt lat="42.6358461566269397735595703125" lon="19.89842480979859828948974609375">
        <ele>1513.4000244140625</ele>
        <time>2026-06-16T07:49:03.000Z</time>
        <extensions>
          <ns3:TrackPointExtension>
            <ns3:atemp>23.0</ns3:atemp>
          </ns3:TrackPointExtension>
        </extensions>
      </trkpt>
      <trkpt lat="42.6358575560152530670166015625" lon="19.89840553142130374908447265625">
        <ele>1513.5999755859375</ele>
        <time>2026-06-16T07:49:04.000Z</time>
        <extensions>
          <ns3:TrackPointExtension>
            <ns3:atemp>23.0</ns3:atemp>
          </ns3:TrackPointExtension>
        </extensions>
      </trkpt>
      <trkpt lat="42.6358686201274394989013671875" lon="19.8983868397772312164306640625">
        <ele>1513.800048828125</ele>
        <time>2026-06-16T07:49:05.000Z</time>
        <extensions>
          <ns3:TrackPointExtension>
            <ns3:atemp>23.0</ns3:atemp>
          </ns3:TrackPointExtension>
        </extensions>
      </trkpt>
      <trkpt lat="42.63587876223027706146240234375" lon="19.89836965687572956085205078125">
        <ele>1514.199951171875</ele>
        <time>2026-06-16T07:49:06.000Z</time>
        <extensions>
          <ns3:TrackPointExtension>
            <ns3:atemp>23.0</ns3:atemp>
          </ns3:TrackPointExtension>
        </extensions>
      </trkpt>
      <trkpt lat="42.63589167036116123199462890625" lon="19.898350127041339874267578125">
        <ele>1514.4000244140625</ele>
        <time>2026-06-16T07:49:07.000Z</time>
        <extensions>
          <ns3:TrackPointExtension>
            <ns3:atemp>23.0</ns3:atemp>
          </ns3:TrackPointExtension>
        </extensions>
      </trkpt>
      <trkpt lat="42.63590374030172824859619140625" lon="19.89832892082631587982177734375">
        <ele>1514.5999755859375</ele>
        <time>2026-06-16T07:49:08.000Z</time>
        <extensions>
          <ns3:TrackPointExtension>
            <ns3:atemp>23.0</ns3:atemp>
          </ns3:TrackPointExtension>
        </extensions>
      </trkpt>
      <trkpt lat="42.63591639697551727294921875" lon="19.89831081591546535491943359375">
        <ele>1514.5999755859375</ele>
        <time>2026-06-16T07:49:09.000Z</time>
        <extensions>
          <ns3:TrackPointExtension>
            <ns3:atemp>23.0</ns3:atemp>
          </ns3:TrackPointExtension>
        </extensions>
      </trkpt>
      <trkpt lat="42.63592804782092571258544921875" lon="19.89828734658658504486083984375">
        <ele>1515</ele>
        <time>2026-06-16T07:49:10.000Z</time>
        <extensions>
          <ns3:TrackPointExtension>
            <ns3:atemp>23.0</ns3:atemp>
          </ns3:TrackPointExtension>
        </extensions>
      </trkpt>
      <trkpt lat="42.635938860476016998291015625" lon="19.8982644639909267425537109375">
        <ele>1515.4000244140625</ele>
        <time>2026-06-16T07:49:11.000Z</time>
        <extensions>
          <ns3:TrackPointExtension>
            <ns3:atemp>23.0</ns3:atemp>
          </ns3:TrackPointExtension>
        </extensions>
      </trkpt>
      <trkpt lat="42.6359470747411251068115234375" lon="19.898242168128490447998046875">
        <ele>1515.800048828125</ele>
        <time>2026-06-16T07:49:12.000Z</time>
        <extensions>
          <ns3:TrackPointExtension>
            <ns3:atemp>23.0</ns3:atemp>
          </ns3:TrackPointExtension>
        </extensions>
      </trkpt>
      <trkpt lat="42.63595386408269405364990234375" lon="19.89822180010378360748291015625">
        <ele>1516.199951171875</ele>
        <time>2026-06-16T07:49:13.000Z</time>
        <extensions>
          <ns3:TrackPointExtension>
            <ns3:atemp>23.0</ns3:atemp>
          </ns3:TrackPointExtension>
        </extensions>
      </trkpt>
      <trkpt lat="42.63596258126199245452880859375" lon="19.89820118062198162078857421875">
        <ele>1516.4000244140625</ele>
        <time>2026-06-16T07:49:14.000Z</time>
        <extensions>
          <ns3:TrackPointExtension>
            <ns3:atemp>23.0</ns3:atemp>
          </ns3:TrackPointExtension>
        </extensions>
      </trkpt>
      <trkpt lat="42.6359693706035614013671875" lon="19.89818072877824306488037109375">
        <ele>1516.800048828125</ele>
        <time>2026-06-16T07:49:15.000Z</time>
        <extensions>
          <ns3:TrackPointExtension>
            <ns3:atemp>23.0</ns3:atemp>
          </ns3:TrackPointExtension>
        </extensions>
      </trkpt>
      <trkpt lat="42.63597674667835235595703125" lon="19.89815541543066501617431640625">
        <ele>1517</ele>
        <time>2026-06-16T07:49:16.000Z</time>
        <extensions>
          <ns3:TrackPointExtension>
            <ns3:atemp>23.0</ns3:atemp>
          </ns3:TrackPointExtension>
        </extensions>
      </trkpt>
      <trkpt lat="42.635984458029270172119140625" lon="19.898128509521484375">
        <ele>1517.199951171875</ele>
        <time>2026-06-16T07:49:17.000Z</time>
        <extensions>
          <ns3:TrackPointExtension>
            <ns3:atemp>23.0</ns3:atemp>
          </ns3:TrackPointExtension>
        </extensions>
      </trkpt>
      <trkpt lat="42.635991834104061126708984375" lon="19.8981065489351749420166015625">
        <ele>1517.4000244140625</ele>
        <time>2026-06-16T07:49:18.000Z</time>
        <extensions>
          <ns3:TrackPointExtension>
            <ns3:atemp>23.0</ns3:atemp>
          </ns3:TrackPointExtension>
        </extensions>
      </trkpt>
      <trkpt lat="42.6360000483691692352294921875" lon="19.8980834148824214935302734375">
        <ele>1517.5999755859375</ele>
        <time>2026-06-16T07:49:19.000Z</time>
        <extensions>
          <ns3:TrackPointExtension>
            <ns3:atemp>23.0</ns3:atemp>
          </ns3:TrackPointExtension>
        </extensions>
      </trkpt>
      <trkpt lat="42.63600700534880161285400390625" lon="19.89805852063000202178955078125">
        <ele>1517.800048828125</ele>
        <time>2026-06-16T07:49:20.000Z</time>
        <extensions>
          <ns3:TrackPointExtension>
            <ns3:atemp>23.0</ns3:atemp>
          </ns3:TrackPointExtension>
        </extensions>
      </trkpt>
      <trkpt lat="42.63601622544229030609130859375" lon="19.8980371467769145965576171875">
        <ele>1517.800048828125</ele>
        <time>2026-06-16T07:49:21.000Z</time>
        <extensions>
          <ns3:TrackPointExtension>
            <ns3:atemp>23.0</ns3:atemp>
          </ns3:TrackPointExtension>
        </extensions>
      </trkpt>
      <trkpt lat="42.6360238529741764068603515625" lon="19.89801225252449512481689453125">
        <ele>1518</ele>
        <time>2026-06-16T07:49:22.000Z</time>
        <extensions>
          <ns3:TrackPointExtension>
            <ns3:atemp>23.0</ns3:atemp>
          </ns3:TrackPointExtension>
        </extensions>
      </trkpt>
      <trkpt lat="42.636032402515411376953125" lon="19.8979892022907733917236328125">
        <ele>1518</ele>
        <time>2026-06-16T07:49:23.000Z</time>
        <extensions>
          <ns3:TrackPointExtension>
            <ns3:atemp>23.0</ns3:atemp>
          </ns3:TrackPointExtension>
        </extensions>
      </trkpt>
      <trkpt lat="42.63604371808469295501708984375" lon="19.89796548150479793548583984375">
        <ele>1518.199951171875</ele>
        <time>2026-06-16T07:49:24.000Z</time>
        <extensions>
          <ns3:TrackPointExtension>
            <ns3:atemp>23.0</ns3:atemp>
          </ns3:TrackPointExtension>
        </extensions>
      </trkpt>
      <trkpt lat="42.63605310581624507904052734375" lon="19.89794502966105937957763671875">
        <ele>1518.199951171875</ele>
        <time>2026-06-16T07:49:25.000Z</time>
        <extensions>
          <ns3:TrackPointExtension>
            <ns3:atemp>23.0</ns3:atemp>
          </ns3:TrackPointExtension>
        </extensions>
      </trkpt>
      <trkpt lat="42.6360627450048923492431640625" lon="19.89792390726506710052490234375">
        <ele>1518.199951171875</ele>
        <time>2026-06-16T07:49:26.000Z</time>
        <extensions>
          <ns3:TrackPointExtension>
            <ns3:atemp>23.0</ns3:atemp>
          </ns3:TrackPointExtension>
        </extensions>
      </trkpt>
      <trkpt lat="42.636071629822254180908203125" lon="19.8979027010500431060791015625">
        <ele>1518.4000244140625</ele>
        <time>2026-06-16T07:49:27.000Z</time>
        <extensions>
          <ns3:TrackPointExtension>
            <ns3:atemp>23.0</ns3:atemp>
          </ns3:TrackPointExtension>
        </extensions>
      </trkpt>
      <trkpt lat="42.63608143664896488189697265625" lon="19.89788099192082881927490234375">
        <ele>1518.5999755859375</ele>
        <time>2026-06-16T07:49:28.000Z</time>
        <extensions>
          <ns3:TrackPointExtension>
            <ns3:atemp>23.0</ns3:atemp>
          </ns3:TrackPointExtension>
        </extensions>
      </trkpt>
      <trkpt lat="42.6360942609608173370361328125" lon="19.89785634912550449371337890625">
        <ele>1518.5999755859375</ele>
        <time>2026-06-16T07:49:29.000Z</time>
        <extensions>
          <ns3:TrackPointExtension>
            <ns3:atemp>23.0</ns3:atemp>
          </ns3:TrackPointExtension>
        </extensions>
      </trkpt>
      <trkpt lat="42.6361073367297649383544921875" lon="19.8978346399962902069091796875">
        <ele>1518.5999755859375</ele>
        <time>2026-06-16T07:49:30.000Z</time>
        <extensions>
          <ns3:TrackPointExtension>
            <ns3:atemp>23.0</ns3:atemp>
          </ns3:TrackPointExtension>
        </extensions>
      </trkpt>
      <trkpt lat="42.63611764647066593170166015625" lon="19.89781477488577365875244140625">
        <ele>1518.800048828125</ele>
        <time>2026-06-16T07:49:31.000Z</time>
        <extensions>
          <ns3:TrackPointExtension>
            <ns3:atemp>23.0</ns3:atemp>
          </ns3:TrackPointExtension>
        </extensions>
      </trkpt>
      <trkpt lat="42.63612753711640834808349609375" lon="19.89779231138527393341064453125">
        <ele>1519.199951171875</ele>
        <time>2026-06-16T07:49:32.000Z</time>
        <extensions>
          <ns3:TrackPointExtension>
            <ns3:atemp>23.0</ns3:atemp>
          </ns3:TrackPointExtension>
        </extensions>
      </trkpt>
      <trkpt lat="42.63613625429570674896240234375" lon="19.8977752961218357086181640625">
        <ele>1519.4000244140625</ele>
        <time>2026-06-16T07:49:33.000Z</time>
        <extensions>
          <ns3:TrackPointExtension>
            <ns3:atemp>23.0</ns3:atemp>
          </ns3:TrackPointExtension>
        </extensions>
      </trkpt>
      <trkpt lat="42.6361465640366077423095703125" lon="19.89775526337325572967529296875">
        <ele>1519.5999755859375</ele>
        <time>2026-06-16T07:49:34.000Z</time>
        <extensions>
          <ns3:TrackPointExtension>
            <ns3:atemp>23.0</ns3:atemp>
          </ns3:TrackPointExtension>
        </extensions>
      </trkpt>
      <trkpt lat="42.63615720905363559722900390625" lon="19.897733889520168304443359375">
        <ele>1519.800048828125</ele>
        <time>2026-06-16T07:49:35.000Z</time>
        <extensions>
          <ns3:TrackPointExtension>
            <ns3:atemp>23.0</ns3:atemp>
          </ns3:TrackPointExtension>
        </extensions>
      </trkpt>
      <trkpt lat="42.6361651718616485595703125" lon="19.89770949818193912506103515625">
        <ele>1520</ele>
        <time>2026-06-16T07:49:36.000Z</time>
        <extensions>
          <ns3:TrackPointExtension>
            <ns3:atemp>23.0</ns3:atemp>
          </ns3:TrackPointExtension>
        </extensions>
      </trkpt>
      <trkpt lat="42.6361740566790103912353515625" lon="19.8976867832243442535400390625">
        <ele>1520.199951171875</ele>
        <time>2026-06-16T07:49:37.000Z</time>
        <extensions>
          <ns3:TrackPointExtension>
            <ns3:atemp>23.0</ns3:atemp>
          </ns3:TrackPointExtension>
        </extensions>
      </trkpt>
      <trkpt lat="42.63618067838251590728759765625" lon="19.89766289480030536651611328125">
        <ele>1520.5999755859375</ele>
        <time>2026-06-16T07:49:38.000Z</time>
        <extensions>
          <ns3:TrackPointExtension>
            <ns3:atemp>23.0</ns3:atemp>
          </ns3:TrackPointExtension>
        </extensions>
      </trkpt>
      <trkpt lat="42.63618470169603824615478515625" lon="19.89763590507209300994873046875">
        <ele>1520.800048828125</ele>
        <time>2026-06-16T07:49:39.000Z</time>
        <extensions>
          <ns3:TrackPointExtension>
            <ns3:atemp>23.0</ns3:atemp>
          </ns3:TrackPointExtension>
        </extensions>
      </trkpt>
      <trkpt lat="42.6361834444105625152587890625" lon="19.8976079933345317840576171875">
        <ele>1521</ele>
        <time>2026-06-16T07:49:40.000Z</time>
        <extensions>
          <ns3:TrackPointExtension>
            <ns3:atemp>23.0</ns3:atemp>
          </ns3:TrackPointExtension>
        </extensions>
      </trkpt>
      <trkpt lat="42.63617984019219875335693359375" lon="19.8975826799869537353515625">
        <ele>1521</ele>
        <time>2026-06-16T07:49:41.000Z</time>
        <extensions>
          <ns3:TrackPointExtension>
            <ns3:atemp>23.0</ns3:atemp>
          </ns3:TrackPointExtension>
        </extensions>
      </trkpt>
      <trkpt lat="42.63617313466966152191162109375" lon="19.897557534277439117431640625">
        <ele>1521.199951171875</ele>
        <time>2026-06-16T07:49:42.000Z</time>
        <extensions>
          <ns3:TrackPointExtension>
            <ns3:atemp>23.0</ns3:atemp>
          </ns3:TrackPointExtension>
        </extensions>
      </trkpt>
      <trkpt lat="42.63616324402391910552978515625" lon="19.8975365795195102691650390625">
        <ele>1521.199951171875</ele>
        <time>2026-06-16T07:49:43.000Z</time>
        <extensions>
          <ns3:TrackPointExtension>
            <ns3:atemp>23.0</ns3:atemp>
          </ns3:TrackPointExtension>
        </extensions>
      </trkpt>
      <trkpt lat="42.63615083880722522735595703125" lon="19.89752325229346752166748046875">
        <ele>1521.4000244140625</ele>
        <time>2026-06-16T07:49:44.000Z</time>
        <extensions>
          <ns3:TrackPointExtension>
            <ns3:atemp>23.0</ns3:atemp>
          </ns3:TrackPointExtension>
        </extensions>
      </trkpt>
      <trkpt lat="42.6361341588199138641357421875" lon="19.897515960037708282470703125">
        <ele>1521.4000244140625</ele>
        <time>2026-06-16T07:49:45.000Z</time>
        <extensions>
          <ns3:TrackPointExtension>
            <ns3:atemp>23.0</ns3:atemp>
          </ns3:TrackPointExtension>
        </extensions>
      </trkpt>
      <trkpt lat="42.6361167244613170623779296875" lon="19.8975104279816150665283203125">
        <ele>1521.5999755859375</ele>
        <time>2026-06-16T07:49:46.000Z</time>
        <extensions>
          <ns3:TrackPointExtension>
            <ns3:atemp>23.0</ns3:atemp>
          </ns3:TrackPointExtension>
        </extensions>
      </trkpt>
      <trkpt lat="42.63609836809337139129638671875" lon="19.89751419983804225921630859375">
        <ele>1521.800048828125</ele>
        <time>2026-06-16T07:49:47.000Z</time>
        <extensions>
          <ns3:TrackPointExtension>
            <ns3:atemp>23.0</ns3:atemp>
          </ns3:TrackPointExtension>
        </extensions>
      </trkpt>
      <trkpt lat="42.6360831968486309051513671875" lon="19.897515960037708282470703125">
        <ele>1522.199951171875</ele>
        <time>2026-06-16T07:49:48.000Z</time>
        <extensions>
          <ns3:TrackPointExtension>
            <ns3:atemp>23.0</ns3:atemp>
          </ns3:TrackPointExtension>
        </extensions>
      </trkpt>
      <trkpt lat="42.63606567867100238800048828125" lon="19.89752057008445262908935546875">
        <ele>1522.4000244140625</ele>
        <time>2026-06-16T07:49:49.000Z</time>
        <extensions>
          <ns3:TrackPointExtension>
            <ns3:atemp>23.0</ns3:atemp>
          </ns3:TrackPointExtension>
        </extensions>
      </trkpt>
      <trkpt lat="42.636051177978515625" lon="19.89752878434956073760986328125">
        <ele>1522.5999755859375</ele>
        <time>2026-06-16T07:49:50.000Z</time>
        <extensions>
          <ns3:TrackPointExtension>
            <ns3:atemp>23.0</ns3:atemp>
          </ns3:TrackPointExtension>
        </extensions>
      </trkpt>
      <trkpt lat="42.63603868894279003143310546875" lon="19.8975384235382080078125">
        <ele>1522.800048828125</ele>
        <time>2026-06-16T07:49:51.000Z</time>
        <extensions>
          <ns3:TrackPointExtension>
            <ns3:atemp>23.0</ns3:atemp>
          </ns3:TrackPointExtension>
        </extensions>
      </trkpt>
      <trkpt lat="42.63602561317384243011474609375" lon="19.89754957146942615509033203125">
        <ele>1523</ele>
        <time>2026-06-16T07:49:52.000Z</time>
        <extensions>
          <ns3:TrackPointExtension>
            <ns3:atemp>23.0</ns3:atemp>
          </ns3:TrackPointExtension>
        </extensions>
      </trkpt>
      <trkpt lat="42.6360127888619899749755859375" lon="19.89756700582802295684814453125">
        <ele>1523.199951171875</ele>
        <time>2026-06-16T07:49:53.000Z</time>
        <extensions>
          <ns3:TrackPointExtension>
            <ns3:atemp>23.0</ns3:atemp>
          </ns3:TrackPointExtension>
        </extensions>
      </trkpt>
      <trkpt lat="42.635999210178852081298828125" lon="19.89758980460464954376220703125">
        <ele>1523.4000244140625</ele>
        <time>2026-06-16T07:49:54.000Z</time>
        <extensions>
          <ns3:TrackPointExtension>
            <ns3:atemp>23.0</ns3:atemp>
          </ns3:TrackPointExtension>
        </extensions>
      </trkpt>
      <trkpt lat="42.635983787477016448974609375" lon="19.89760824479162693023681640625">
        <ele>1523.5999755859375</ele>
        <time>2026-06-16T07:49:55.000Z</time>
        <extensions>
          <ns3:TrackPointExtension>
            <ns3:atemp>23.0</ns3:atemp>
          </ns3:TrackPointExtension>
        </extensions>
      </trkpt>
      <trkpt lat="42.635970376431941986083984375" lon="19.897624589502811431884765625">
        <ele>1523.800048828125</ele>
        <time>2026-06-16T07:49:56.000Z</time>
        <extensions>
          <ns3:TrackPointExtension>
            <ns3:atemp>23.0</ns3:atemp>
          </ns3:TrackPointExtension>
        </extensions>
      </trkpt>
      <trkpt lat="42.63595797121524810791015625" lon="19.897644706070423126220703125">
        <ele>1524</ele>
        <time>2026-06-16T07:49:57.000Z</time>
        <extensions>
          <ns3:TrackPointExtension>
            <ns3:atemp>23.0</ns3:atemp>
          </ns3:TrackPointExtension>
        </extensions>
      </trkpt>
      <trkpt lat="42.63594430871307849884033203125" lon="19.897664487361907958984375">
        <ele>1524.199951171875</ele>
        <time>2026-06-16T07:49:58.000Z</time>
        <extensions>
          <ns3:TrackPointExtension>
            <ns3:atemp>23.0</ns3:atemp>
          </ns3:TrackPointExtension>
        </extensions>
      </trkpt>
      <trkpt lat="42.63592855073511600494384765625" lon="19.89768326282501220703125">
        <ele>1524.5999755859375</ele>
        <time>2026-06-16T07:49:59.000Z</time>
        <extensions>
          <ns3:TrackPointExtension>
            <ns3:atemp>23.0</ns3:atemp>
          </ns3:TrackPointExtension>
        </extensions>
      </trkpt>
      <trkpt lat="42.6359145529568195343017578125" lon="19.8977042175829410552978515625">
        <ele>1524.800048828125</ele>
        <time>2026-06-16T07:50:00.000Z</time>
        <extensions>
          <ns3:TrackPointExtension>
            <ns3:atemp>23.0</ns3:atemp>
          </ns3:TrackPointExtension>
        </extensions>
      </trkpt>
      <trkpt lat="42.6358984597027301788330078125" lon="19.89771938882768154144287109375">
        <ele>1525</ele>
        <time>2026-06-16T07:50:01.000Z</time>
        <extensions>
          <ns3:TrackPointExtension>
            <ns3:atemp>23.0</ns3:atemp>
          </ns3:TrackPointExtension>
        </extensions>
      </trkpt>
      <trkpt lat="42.63588043861091136932373046875" lon="19.89773212932050228118896484375">
        <ele>1525.199951171875</ele>
        <time>2026-06-16T07:50:02.000Z</time>
        <extensions>
          <ns3:TrackPointExtension>
            <ns3:atemp>23.0</ns3:atemp>
          </ns3:TrackPointExtension>
        </extensions>
      </trkpt>
      <trkpt lat="42.63586836867034435272216796875" lon="19.89774436689913272857666015625">
        <ele>1525.4000244140625</ele>
        <time>2026-06-16T07:50:03.000Z</time>
        <extensions>
          <ns3:TrackPointExtension>
            <ns3:atemp>23.0</ns3:atemp>
          </ns3:TrackPointExtension>
        </extensions>
      </trkpt>
      <trkpt lat="42.63585445471107959747314453125" lon="19.897755347192287445068359375">
        <ele>1525.5999755859375</ele>
        <time>2026-06-16T07:50:04.000Z</time>
        <extensions>
          <ns3:TrackPointExtension>
            <ns3:atemp>23.0</ns3:atemp>
          </ns3:TrackPointExtension>
        </extensions>
      </trkpt>
      <trkpt lat="42.63583970256149768829345703125" lon="19.897769428789615631103515625">
        <ele>1525.800048828125</ele>
        <time>2026-06-16T07:50:05.000Z</time>
        <extensions>
          <ns3:TrackPointExtension>
            <ns3:atemp>23.0</ns3:atemp>
          </ns3:TrackPointExtension>
        </extensions>
      </trkpt>
      <trkpt lat="42.63582360930740833282470703125" lon="19.89778594113886356353759765625">
        <ele>1525.800048828125</ele>
        <time>2026-06-16T07:50:06.000Z</time>
        <extensions>
          <ns3:TrackPointExtension>
            <ns3:atemp>23.0</ns3:atemp>
          </ns3:TrackPointExtension>
        </extensions>
      </trkpt>
      <trkpt lat="42.63580801896750926971435546875" lon="19.8978031240403652191162109375">
        <ele>1526</ele>
        <time>2026-06-16T07:50:07.000Z</time>
        <extensions>
          <ns3:TrackPointExtension>
            <ns3:atemp>23.0</ns3:atemp>
          </ns3:TrackPointExtension>
        </extensions>
      </trkpt>
      <trkpt lat="42.635793350636959075927734375" lon="19.8978173732757568359375">
        <ele>1526.199951171875</ele>
        <time>2026-06-16T07:50:08.000Z</time>
        <extensions>
          <ns3:TrackPointExtension>
            <ns3:atemp>23.0</ns3:atemp>
          </ns3:TrackPointExtension>
        </extensions>
      </trkpt>
      <trkpt lat="42.63577918522059917449951171875" lon="19.897834472358226776123046875">
        <ele>1526.199951171875</ele>
        <time>2026-06-16T07:50:09.000Z</time>
        <extensions>
          <ns3:TrackPointExtension>
            <ns3:atemp>23.0</ns3:atemp>
          </ns3:TrackPointExtension>
        </extensions>
      </trkpt>
      <trkpt lat="42.63576476834714412689208984375" lon="19.89785492420196533203125">
        <ele>1526.4000244140625</ele>
        <time>2026-06-16T07:50:10.000Z</time>
        <extensions>
          <ns3:TrackPointExtension>
            <ns3:atemp>23.0</ns3:atemp>
          </ns3:TrackPointExtension>
        </extensions>
      </trkpt>
      <trkpt lat="42.6357516087591648101806640625" lon="19.89787495695054531097412109375">
        <ele>1526.5999755859375</ele>
        <time>2026-06-16T07:50:11.000Z</time>
        <extensions>
          <ns3:TrackPointExtension>
            <ns3:atemp>23.0</ns3:atemp>
          </ns3:TrackPointExtension>
        </extensions>
      </trkpt>
      <trkpt lat="42.635738365352153778076171875" lon="19.897894822061061859130859375">
        <ele>1526.5999755859375</ele>
        <time>2026-06-16T07:50:12.000Z</time>
        <extensions>
          <ns3:TrackPointExtension>
            <ns3:atemp>23.0</ns3:atemp>
          </ns3:TrackPointExtension>
        </extensions>
      </trkpt>
      <trkpt lat="42.6357281394302845001220703125" lon="19.8979120887815952301025390625">
        <ele>1526.800048828125</ele>
        <time>2026-06-16T07:50:13.000Z</time>
        <extensions>
          <ns3:TrackPointExtension>
            <ns3:atemp>23.0</ns3:atemp>
          </ns3:TrackPointExtension>
        </extensions>
      </trkpt>
      <trkpt lat="42.6357177458703517913818359375" lon="19.89792943932116031646728515625">
        <ele>1527</ele>
        <time>2026-06-16T07:50:14.000Z</time>
        <extensions>
          <ns3:TrackPointExtension>
            <ns3:atemp>23.0</ns3:atemp>
          </ns3:TrackPointExtension>
        </extensions>
      </trkpt>
      <trkpt lat="42.63571095652878284454345703125" lon="19.8979432694613933563232421875">
        <ele>1527.199951171875</ele>
        <time>2026-06-16T07:50:15.000Z</time>
        <extensions>
          <ns3:TrackPointExtension>
            <ns3:atemp>23.0</ns3:atemp>
          </ns3:TrackPointExtension>
        </extensions>
      </trkpt>
      <trkpt lat="42.6356979645788669586181640625" lon="19.89796162582933902740478515625">
        <ele>1527.5999755859375</ele>
        <time>2026-06-16T07:50:16.000Z</time>
        <extensions>
          <ns3:TrackPointExtension>
            <ns3:atemp>23.0</ns3:atemp>
          </ns3:TrackPointExtension>
        </extensions>
      </trkpt>
      <trkpt lat="42.635683715343475341796875" lon="19.89798006601631641387939453125">
        <ele>1527.800048828125</ele>
        <time>2026-06-16T07:50:17.000Z</time>
        <extensions>
          <ns3:TrackPointExtension>
            <ns3:atemp>23.0</ns3:atemp>
          </ns3:TrackPointExtension>
        </extensions>
      </trkpt>
      <trkpt lat="42.6356691308319568634033203125" lon="19.89799909293651580810546875">
        <ele>1528</ele>
        <time>2026-06-16T07:50:18.000Z</time>
        <extensions>
          <ns3:TrackPointExtension>
            <ns3:atemp>23.0</ns3:atemp>
          </ns3:TrackPointExtension>
        </extensions>
      </trkpt>
      <trkpt lat="42.635657899081707000732421875" lon="19.898016862571239471435546875">
        <ele>1528.199951171875</ele>
        <time>2026-06-16T07:50:19.000Z</time>
        <extensions>
          <ns3:TrackPointExtension>
            <ns3:atemp>23.0</ns3:atemp>
          </ns3:TrackPointExtension>
        </extensions>
      </trkpt>
      <trkpt lat="42.635649181902408599853515625" lon="19.8980361409485340118408203125">
        <ele>1528.4000244140625</ele>
        <time>2026-06-16T07:50:20.000Z</time>
        <extensions>
          <ns3:TrackPointExtension>
            <ns3:atemp>23.0</ns3:atemp>
          </ns3:TrackPointExtension>
        </extensions>
      </trkpt>
      <trkpt lat="42.63563811779022216796875" lon="19.8980555869638919830322265625">
        <ele>1528.5999755859375</ele>
        <time>2026-06-16T07:50:21.000Z</time>
        <extensions>
          <ns3:TrackPointExtension>
            <ns3:atemp>23.0</ns3:atemp>
          </ns3:TrackPointExtension>
        </extensions>
      </trkpt>
      <trkpt lat="42.635624706745147705078125" lon="19.8980750329792499542236328125">
        <ele>1528.800048828125</ele>
        <time>2026-06-16T07:50:22.000Z</time>
        <extensions>
          <ns3:TrackPointExtension>
            <ns3:atemp>23.0</ns3:atemp>
          </ns3:TrackPointExtension>
        </extensions>
      </trkpt>
      <trkpt lat="42.6356117986142635345458984375" lon="19.8980917967855930328369140625">
        <ele>1529.199951171875</ele>
        <time>2026-06-16T07:50:23.000Z</time>
        <extensions>
          <ns3:TrackPointExtension>
            <ns3:atemp>23.0</ns3:atemp>
          </ns3:TrackPointExtension>
        </extensions>
      </trkpt>
      <trkpt lat="42.6355990581214427947998046875" lon="19.8981062136590480804443359375">
        <ele>1529.4000244140625</ele>
        <time>2026-06-16T07:50:24.000Z</time>
        <extensions>
          <ns3:TrackPointExtension>
            <ns3:atemp>23.0</ns3:atemp>
          </ns3:TrackPointExtension>
        </extensions>
      </trkpt>
      <trkpt lat="42.63558506034314632415771484375" lon="19.898124150931835174560546875">
        <ele>1529.5999755859375</ele>
        <time>2026-06-16T07:50:25.000Z</time>
        <extensions>
          <ns3:TrackPointExtension>
            <ns3:atemp>23.0</ns3:atemp>
          </ns3:TrackPointExtension>
        </extensions>
      </trkpt>
      <trkpt lat="42.63557231985032558441162109375" lon="19.8981330357491970062255859375">
        <ele>1529.800048828125</ele>
        <time>2026-06-16T07:50:26.000Z</time>
        <extensions>
          <ns3:TrackPointExtension>
            <ns3:atemp>23.0</ns3:atemp>
          </ns3:TrackPointExtension>
        </extensions>
      </trkpt>
      <trkpt lat="42.63555572368204593658447265625" lon="19.898140244185924530029296875">
        <ele>1530.199951171875</ele>
        <time>2026-06-16T07:50:27.000Z</time>
        <extensions>
          <ns3:TrackPointExtension>
            <ns3:atemp>23.0</ns3:atemp>
          </ns3:TrackPointExtension>
        </extensions>
      </trkpt>
      <trkpt lat="42.6355373673141002655029296875" lon="19.89814720116555690765380859375">
        <ele>1530.4000244140625</ele>
        <time>2026-06-16T07:50:28.000Z</time>
        <extensions>
          <ns3:TrackPointExtension>
            <ns3:atemp>23.0</ns3:atemp>
          </ns3:TrackPointExtension>
        </extensions>
      </trkpt>
      <trkpt lat="42.6355192624032497406005859375" lon="19.89815424196422100067138671875">
        <ele>1530.5999755859375</ele>
        <time>2026-06-16T07:50:29.000Z</time>
        <extensions>
          <ns3:TrackPointExtension>
            <ns3:atemp>23.0</ns3:atemp>
          </ns3:TrackPointExtension>
        </extensions>
      </trkpt>
      <trkpt lat="42.63550526462495326995849609375" lon="19.89815809763967990875244140625">
        <ele>1530.800048828125</ele>
        <time>2026-06-16T07:50:30.000Z</time>
        <extensions>
          <ns3:TrackPointExtension>
            <ns3:atemp>23.0</ns3:atemp>
          </ns3:TrackPointExtension>
        </extensions>
      </trkpt>
      <trkpt lat="42.635494284331798553466796875" lon="19.8981578461825847625732421875">
        <ele>1531</ele>
        <time>2026-06-16T07:50:31.000Z</time>
        <extensions>
          <ns3:TrackPointExtension>
            <ns3:atemp>23.0</ns3:atemp>
          </ns3:TrackPointExtension>
        </extensions>
      </trkpt>
      <trkpt lat="42.6354763470590114593505859375" lon="19.89815960638225078582763671875">
        <ele>1531.199951171875</ele>
        <time>2026-06-16T07:50:32.000Z</time>
        <extensions>
          <ns3:TrackPointExtension>
            <ns3:atemp>23.0</ns3:atemp>
          </ns3:TrackPointExtension>
        </extensions>
      </trkpt>
      <trkpt lat="42.635460756719112396240234375" lon="19.89815943874418735504150390625">
        <ele>1531.4000244140625</ele>
        <time>2026-06-16T07:50:33.000Z</time>
        <extensions>
          <ns3:TrackPointExtension>
            <ns3:atemp>23.0</ns3:atemp>
          </ns3:TrackPointExtension>
        </extensions>
      </trkpt>
      <trkpt lat="42.63544499874114990234375" lon="19.898153655230998992919921875">
        <ele>1531.5999755859375</ele>
        <time>2026-06-16T07:50:34.000Z</time>
        <extensions>
          <ns3:TrackPointExtension>
            <ns3:atemp>23.0</ns3:atemp>
          </ns3:TrackPointExtension>
        </extensions>
      </trkpt>
      <trkpt lat="42.635425888001918792724609375" lon="19.89814586006104946136474609375">
        <ele>1531.800048828125</ele>
        <time>2026-06-16T07:50:35.000Z</time>
        <extensions>
          <ns3:TrackPointExtension>
            <ns3:atemp>23.0</ns3:atemp>
          </ns3:TrackPointExtension>
        </extensions>
      </trkpt>
      <trkpt lat="42.6354072801768779754638671875" lon="19.89813647232949733734130859375">
        <ele>1531.800048828125</ele>
        <time>2026-06-16T07:50:36.000Z</time>
        <extensions>
          <ns3:TrackPointExtension>
            <ns3:atemp>23.0</ns3:atemp>
          </ns3:TrackPointExtension>
        </extensions>
      </trkpt>
      <trkpt lat="42.63539110310375690460205078125" lon="19.89812674932181835174560546875">
        <ele>1532</ele>
        <time>2026-06-16T07:50:37.000Z</time>
        <extensions>
          <ns3:TrackPointExtension>
            <ns3:atemp>23.0</ns3:atemp>
          </ns3:TrackPointExtension>
        </extensions>
      </trkpt>
      <trkpt lat="42.6353712379932403564453125" lon="19.89811602048575878143310546875">
        <ele>1532</ele>
        <time>2026-06-16T07:50:38.000Z</time>
        <extensions>
          <ns3:TrackPointExtension>
            <ns3:atemp>23.0</ns3:atemp>
          </ns3:TrackPointExtension>
        </extensions>
      </trkpt>
      <trkpt lat="42.6353529654443264007568359375" lon="19.89810545928776264190673828125">
        <ele>1532.199951171875</ele>
        <time>2026-06-16T07:50:39.000Z</time>
        <extensions>
          <ns3:TrackPointExtension>
            <ns3:atemp>23.0</ns3:atemp>
          </ns3:TrackPointExtension>
        </extensions>
      </trkpt>
      <trkpt lat="42.63534047640860080718994140625" lon="19.898091293871402740478515625">
        <ele>1532.199951171875</ele>
        <time>2026-06-16T07:50:40.000Z</time>
        <extensions>
          <ns3:TrackPointExtension>
            <ns3:atemp>23.0</ns3:atemp>
          </ns3:TrackPointExtension>
        </extensions>
      </trkpt>
      <trkpt lat="42.63532488606870174407958984375" lon="19.89807930774986743927001953125">
        <ele>1532.4000244140625</ele>
        <time>2026-06-16T07:50:41.000Z</time>
        <extensions>
          <ns3:TrackPointExtension>
            <ns3:atemp>23.0</ns3:atemp>
          </ns3:TrackPointExtension>
        </extensions>
      </trkpt>
      <trkpt lat="42.6353077031672000885009765625" lon="19.898066818714141845703125">
        <ele>1532.4000244140625</ele>
        <time>2026-06-16T07:50:42.000Z</time>
        <extensions>
          <ns3:TrackPointExtension>
            <ns3:atemp>23.0</ns3:atemp>
          </ns3:TrackPointExtension>
        </extensions>
      </trkpt>
      <trkpt lat="42.6352919451892375946044921875" lon="19.89805567078292369842529296875">
        <ele>1532.5999755859375</ele>
        <time>2026-06-16T07:50:43.000Z</time>
        <extensions>
          <ns3:TrackPointExtension>
            <ns3:atemp>23.0</ns3:atemp>
          </ns3:TrackPointExtension>
        </extensions>
      </trkpt>
      <trkpt lat="42.63527375645935535430908203125" lon="19.89804561249911785125732421875">
        <ele>1532.800048828125</ele>
        <time>2026-06-16T07:50:44.000Z</time>
        <extensions>
          <ns3:TrackPointExtension>
            <ns3:atemp>23.0</ns3:atemp>
          </ns3:TrackPointExtension>
        </extensions>
      </trkpt>
      <trkpt lat="42.63526135124266147613525390625" lon="19.89803069271147251129150390625">
        <ele>1533</ele>
        <time>2026-06-16T07:50:45.000Z</time>
        <extensions>
          <ns3:TrackPointExtension>
            <ns3:atemp>23.0</ns3:atemp>
          </ns3:TrackPointExtension>
        </extensions>
      </trkpt>
      <trkpt lat="42.6352476887404918670654296875" lon="19.89801409654319286346435546875">
        <ele>1533.199951171875</ele>
        <time>2026-06-16T07:50:46.000Z</time>
        <extensions>
          <ns3:TrackPointExtension>
            <ns3:atemp>23.0</ns3:atemp>
          </ns3:TrackPointExtension>
        </extensions>
      </trkpt>
      <trkpt lat="42.63523553498089313507080078125" lon="19.8979957401752471923828125">
        <ele>1533.5999755859375</ele>
        <time>2026-06-16T07:50:47.000Z</time>
        <extensions>
          <ns3:TrackPointExtension>
            <ns3:atemp>23.0</ns3:atemp>
          </ns3:TrackPointExtension>
        </extensions>
      </trkpt>
      <trkpt lat="42.63522715307772159576416015625" lon="19.89797553978860378265380859375">
        <ele>1533.800048828125</ele>
        <time>2026-06-16T07:50:48.000Z</time>
        <extensions>
          <ns3:TrackPointExtension>
            <ns3:atemp>23.0</ns3:atemp>
          </ns3:TrackPointExtension>
        </extensions>
      </trkpt>
      <trkpt lat="42.6352232135832309722900390625" lon="19.897955842316150665283203125">
        <ele>1534.199951171875</ele>
        <time>2026-06-16T07:50:49.000Z</time>
        <extensions>
          <ns3:TrackPointExtension>
            <ns3:atemp>23.0</ns3:atemp>
          </ns3:TrackPointExtension>
        </extensions>
      </trkpt>
      <trkpt lat="42.6352215372025966644287109375" lon="19.8979395814239978790283203125">
        <ele>1534.4000244140625</ele>
        <time>2026-06-16T07:50:50.000Z</time>
        <extensions>
          <ns3:TrackPointExtension>
            <ns3:atemp>23.0</ns3:atemp>
          </ns3:TrackPointExtension>
        </extensions>
      </trkpt>
      <trkpt lat="42.63522027991712093353271484375" lon="19.89792223088443279266357421875">
        <ele>1534.5999755859375</ele>
        <time>2026-06-16T07:50:51.000Z</time>
        <extensions>
          <ns3:TrackPointExtension>
            <ns3:atemp>23.0</ns3:atemp>
          </ns3:TrackPointExtension>
        </extensions>
      </trkpt>
      <trkpt lat="42.63522212393581867218017578125" lon="19.8979037068784236907958984375">
        <ele>1534.800048828125</ele>
        <time>2026-06-16T07:50:52.000Z</time>
        <extensions>
          <ns3:TrackPointExtension>
            <ns3:atemp>23.0</ns3:atemp>
          </ns3:TrackPointExtension>
        </extensions>
      </trkpt>
      <trkpt lat="42.6352312602102756500244140625" lon="19.897886104881763458251953125">
        <ele>1535</ele>
        <time>2026-06-16T07:50:53.000Z</time>
        <extensions>
          <ns3:TrackPointExtension>
            <ns3:atemp>23.0</ns3:atemp>
          </ns3:TrackPointExtension>
        </extensions>
      </trkpt>
      <trkpt lat="42.63523570261895656585693359375" lon="19.89786422811448574066162109375">
        <ele>1535.4000244140625</ele>
        <time>2026-06-16T07:50:54.000Z</time>
        <extensions>
          <ns3:TrackPointExtension>
            <ns3:atemp>23.0</ns3:atemp>
          </ns3:TrackPointExtension>
        </extensions>
      </trkpt>
      <trkpt lat="42.6352393068373203277587890625" lon="19.89784360863268375396728515625">
        <ele>1535.800048828125</ele>
        <time>2026-06-16T07:50:55.000Z</time>
        <extensions>
          <ns3:TrackPointExtension>
            <ns3:atemp>23.0</ns3:atemp>
          </ns3:TrackPointExtension>
        </extensions>
      </trkpt>
      <trkpt lat="42.63524492271244525909423828125" lon="19.89782852120697498321533203125">
        <ele>1536</ele>
        <time>2026-06-16T07:50:56.000Z</time>
        <extensions>
          <ns3:TrackPointExtension>
            <ns3:atemp>23.0</ns3:atemp>
          </ns3:TrackPointExtension>
        </extensions>
      </trkpt>
      <trkpt lat="42.63525246642529964447021484375" lon="19.89780656062066555023193359375">
        <ele>1536.4000244140625</ele>
        <time>2026-06-16T07:50:57.000Z</time>
        <extensions>
          <ns3:TrackPointExtension>
            <ns3:atemp>23.0</ns3:atemp>
          </ns3:TrackPointExtension>
        </extensions>
      </trkpt>
      <trkpt lat="42.63525925576686859130859375" lon="19.89778049290180206298828125">
        <ele>1536.800048828125</ele>
        <time>2026-06-16T07:50:58.000Z</time>
        <extensions>
          <ns3:TrackPointExtension>
            <ns3:atemp>23.0</ns3:atemp>
          </ns3:TrackPointExtension>
        </extensions>
      </trkpt>
      <trkpt lat="42.6352678053081035614013671875" lon="19.897755682468414306640625">
        <ele>1537</ele>
        <time>2026-06-16T07:50:59.000Z</time>
        <extensions>
          <ns3:TrackPointExtension>
            <ns3:atemp>23.0</ns3:atemp>
          </ns3:TrackPointExtension>
        </extensions>
      </trkpt>
      <trkpt lat="42.635276354849338531494140625" lon="19.897735230624675750732421875">
        <ele>1537.5999755859375</ele>
        <time>2026-06-16T07:51:00.000Z</time>
        <extensions>
          <ns3:TrackPointExtension>
            <ns3:atemp>23.0</ns3:atemp>
          </ns3:TrackPointExtension>
        </extensions>
      </trkpt>
      <trkpt lat="42.63528482057154178619384765625" lon="19.8977142758667469024658203125">
        <ele>1537.800048828125</ele>
        <time>2026-06-16T07:51:01.000Z</time>
        <extensions>
          <ns3:TrackPointExtension>
            <ns3:atemp>23.0</ns3:atemp>
          </ns3:TrackPointExtension>
        </extensions>
      </trkpt>
      <trkpt lat="42.6352922804653644561767578125" lon="19.89769239909946918487548828125">
        <ele>1538.199951171875</ele>
        <time>2026-06-16T07:51:02.000Z</time>
        <extensions>
          <ns3:TrackPointExtension>
            <ns3:atemp>23.0</ns3:atemp>
          </ns3:TrackPointExtension>
        </extensions>
      </trkpt>
      <trkpt lat="42.63530007563531398773193359375" lon="19.89766909740865230560302734375">
        <ele>1538.4000244140625</ele>
        <time>2026-06-16T07:51:03.000Z</time>
        <extensions>
          <ns3:TrackPointExtension>
            <ns3:atemp>23.0</ns3:atemp>
          </ns3:TrackPointExtension>
        </extensions>
      </trkpt>
      <trkpt lat="42.63530351221561431884765625" lon="19.897647388279438018798828125">
        <ele>1538.5999755859375</ele>
        <time>2026-06-16T07:51:04.000Z</time>
        <extensions>
          <ns3:TrackPointExtension>
            <ns3:atemp>23.0</ns3:atemp>
          </ns3:TrackPointExtension>
        </extensions>
      </trkpt>
      <trkpt lat="42.63530912809073925018310546875" lon="19.8976250924170017242431640625">
        <ele>1538.800048828125</ele>
        <time>2026-06-16T07:51:05.000Z</time>
        <extensions>
          <ns3:TrackPointExtension>
            <ns3:atemp>23.0</ns3:atemp>
          </ns3:TrackPointExtension>
        </extensions>
      </trkpt>
      <trkpt lat="42.63531826436519622802734375" lon="19.89760371856391429901123046875">
        <ele>1539.199951171875</ele>
        <time>2026-06-16T07:51:06.000Z</time>
        <extensions>
          <ns3:TrackPointExtension>
            <ns3:atemp>23.0</ns3:atemp>
          </ns3:TrackPointExtension>
        </extensions>
      </trkpt>
      <trkpt lat="42.635328657925128936767578125" lon="19.89757974632084369659423828125">
        <ele>1539.199951171875</ele>
        <time>2026-06-16T07:51:07.000Z</time>
        <extensions>
          <ns3:TrackPointExtension>
            <ns3:atemp>23.0</ns3:atemp>
          </ns3:TrackPointExtension>
        </extensions>
      </trkpt>
      <trkpt lat="42.63533745892345905303955078125" lon="19.8975597135722637176513671875">
        <ele>1539.4000244140625</ele>
        <time>2026-06-16T07:51:08.000Z</time>
        <extensions>
          <ns3:TrackPointExtension>
            <ns3:atemp>23.0</ns3:atemp>
          </ns3:TrackPointExtension>
        </extensions>
      </trkpt>
      <trkpt lat="42.6353470981121063232421875" lon="19.89754135720431804656982421875">
        <ele>1539.5999755859375</ele>
        <time>2026-06-16T07:51:09.000Z</time>
        <extensions>
          <ns3:TrackPointExtension>
            <ns3:atemp>23.0</ns3:atemp>
          </ns3:TrackPointExtension>
        </extensions>
      </trkpt>
      <trkpt lat="42.635358162224292755126953125" lon="19.89752031862735748291015625">
        <ele>1539.5999755859375</ele>
        <time>2026-06-16T07:51:10.000Z</time>
        <extensions>
          <ns3:TrackPointExtension>
            <ns3:atemp>23.0</ns3:atemp>
          </ns3:TrackPointExtension>
        </extensions>
      </trkpt>
      <trkpt lat="42.63537249527871608734130859375" lon="19.8975013755261898040771484375">
        <ele>1539.5999755859375</ele>
        <time>2026-06-16T07:51:11.000Z</time>
        <extensions>
          <ns3:TrackPointExtension>
            <ns3:atemp>23.0</ns3:atemp>
          </ns3:TrackPointExtension>
        </extensions>
      </trkpt>
      <trkpt lat="42.6353851519525051116943359375" lon="19.89748083986341953277587890625">
        <ele>1539.5999755859375</ele>
        <time>2026-06-16T07:51:12.000Z</time>
        <extensions>
          <ns3:TrackPointExtension>
            <ns3:atemp>23.0</ns3:atemp>
          </ns3:TrackPointExtension>
        </extensions>
      </trkpt>
      <trkpt lat="42.63539529405534267425537109375" lon="19.89746239967644214630126953125">
        <ele>1539.5999755859375</ele>
        <time>2026-06-16T07:51:13.000Z</time>
        <extensions>
          <ns3:TrackPointExtension>
            <ns3:atemp>23.0</ns3:atemp>
          </ns3:TrackPointExtension>
        </extensions>
      </trkpt>
      <trkpt lat="42.63540887273848056793212890625" lon="19.8974430374801158905029296875">
        <ele>1539.4000244140625</ele>
        <time>2026-06-16T07:51:14.000Z</time>
        <extensions>
          <ns3:TrackPointExtension>
            <ns3:atemp>23.0</ns3:atemp>
          </ns3:TrackPointExtension>
        </extensions>
      </trkpt>
      <trkpt lat="42.63542379252612590789794921875" lon="19.8974232561886310577392578125">
        <ele>1539.4000244140625</ele>
        <time>2026-06-16T07:51:15.000Z</time>
        <extensions>
          <ns3:TrackPointExtension>
            <ns3:atemp>23.0</ns3:atemp>
          </ns3:TrackPointExtension>
        </extensions>
      </trkpt>
      <trkpt lat="42.63543887995183467864990234375" lon="19.897405318915843963623046875">
        <ele>1539.4000244140625</ele>
        <time>2026-06-16T07:51:16.000Z</time>
        <extensions>
          <ns3:TrackPointExtension>
            <ns3:atemp>23.0</ns3:atemp>
          </ns3:TrackPointExtension>
        </extensions>
      </trkpt>
      <trkpt lat="42.635454721748828887939453125" lon="19.89738461561501026153564453125">
        <ele>1539.5999755859375</ele>
        <time>2026-06-16T07:51:17.000Z</time>
        <extensions>
          <ns3:TrackPointExtension>
            <ns3:atemp>23.0</ns3:atemp>
          </ns3:TrackPointExtension>
        </extensions>
      </trkpt>
      <trkpt lat="42.635470144450664520263671875" lon="19.8973654210567474365234375">
        <ele>1539.800048828125</ele>
        <time>2026-06-16T07:51:18.000Z</time>
        <extensions>
          <ns3:TrackPointExtension>
            <ns3:atemp>23.0</ns3:atemp>
          </ns3:TrackPointExtension>
        </extensions>
      </trkpt>
      <trkpt lat="42.63548699207603931427001953125" lon="19.8973488248884677886962890625">
        <ele>1540</ele>
        <time>2026-06-16T07:51:19.000Z</time>
        <extensions>
          <ns3:TrackPointExtension>
            <ns3:atemp>23.0</ns3:atemp>
          </ns3:TrackPointExtension>
        </extensions>
      </trkpt>
      <trkpt lat="42.63550308533012866973876953125" lon="19.89733122289180755615234375">
        <ele>1540.199951171875</ele>
        <time>2026-06-16T07:51:20.000Z</time>
        <extensions>
          <ns3:TrackPointExtension>
            <ns3:atemp>23.0</ns3:atemp>
          </ns3:TrackPointExtension>
        </extensions>
      </trkpt>
      <trkpt lat="42.63551834039390087127685546875" lon="19.89731378853321075439453125">
        <ele>1540.5999755859375</ele>
        <time>2026-06-16T07:51:21.000Z</time>
        <extensions>
          <ns3:TrackPointExtension>
            <ns3:atemp>23.0</ns3:atemp>
          </ns3:TrackPointExtension>
        </extensions>
      </trkpt>
      <trkpt lat="42.63553359545767307281494140625" lon="19.897292666137218475341796875">
        <ele>1541</ele>
        <time>2026-06-16T07:51:22.000Z</time>
        <extensions>
          <ns3:TrackPointExtension>
            <ns3:atemp>23.0</ns3:atemp>
          </ns3:TrackPointExtension>
        </extensions>
      </trkpt>
      <trkpt lat="42.635552622377872467041015625" lon="19.89727213047444820404052734375">
        <ele>1541.4000244140625</ele>
        <time>2026-06-16T07:51:23.000Z</time>
        <extensions>
          <ns3:TrackPointExtension>
            <ns3:atemp>23.0</ns3:atemp>
          </ns3:TrackPointExtension>
        </extensions>
      </trkpt>
      <trkpt lat="42.63556980527937412261962890625" lon="19.89724882878363132476806640625">
        <ele>1541.5999755859375</ele>
        <time>2026-06-16T07:51:24.000Z</time>
        <extensions>
          <ns3:TrackPointExtension>
            <ns3:atemp>23.0</ns3:atemp>
          </ns3:TrackPointExtension>
        </extensions>
      </trkpt>
      <trkpt lat="42.63558589853346347808837890625" lon="19.89722871221601963043212890625">
        <ele>1541.5999755859375</ele>
        <time>2026-06-16T07:51:25.000Z</time>
        <extensions>
          <ns3:TrackPointExtension>
            <ns3:atemp>23.0</ns3:atemp>
          </ns3:TrackPointExtension>
        </extensions>
      </trkpt>
      <trkpt lat="42.63560098595917224884033203125" lon="19.8972059972584247589111328125">
        <ele>1541.5999755859375</ele>
        <time>2026-06-16T07:51:26.000Z</time>
        <extensions>
          <ns3:TrackPointExtension>
            <ns3:atemp>23.0</ns3:atemp>
          </ns3:TrackPointExtension>
        </extensions>
      </trkpt>
      <trkpt lat="42.63561196625232696533203125" lon="19.8971828632056713104248046875">
        <ele>1541.5999755859375</ele>
        <time>2026-06-16T07:51:27.000Z</time>
        <extensions>
          <ns3:TrackPointExtension>
            <ns3:atemp>23.0</ns3:atemp>
          </ns3:TrackPointExtension>
        </extensions>
      </trkpt>
      <trkpt lat="42.63562328182160854339599609375" lon="19.8971630819141864776611328125">
        <ele>1541.5999755859375</ele>
        <time>2026-06-16T07:51:28.000Z</time>
        <extensions>
          <ns3:TrackPointExtension>
            <ns3:atemp>23.0</ns3:atemp>
          </ns3:TrackPointExtension>
        </extensions>
      </trkpt>
      <trkpt lat="42.6356314122676849365234375" lon="19.89713852293789386749267578125">
        <ele>1541.800048828125</ele>
        <time>2026-06-16T07:51:29.000Z</time>
        <extensions>
          <ns3:TrackPointExtension>
            <ns3:atemp>23.0</ns3:atemp>
          </ns3:TrackPointExtension>
        </extensions>
      </trkpt>
      <trkpt lat="42.63563937507569789886474609375" lon="19.8971148021519184112548828125">
        <ele>1542</ele>
        <time>2026-06-16T07:51:30.000Z</time>
        <extensions>
          <ns3:TrackPointExtension>
            <ns3:atemp>23.0</ns3:atemp>
          </ns3:TrackPointExtension>
        </extensions>
      </trkpt>
      <trkpt lat="42.63564792461693286895751953125" lon="19.8970933444797992706298828125">
        <ele>1542.199951171875</ele>
        <time>2026-06-16T07:51:31.000Z</time>
        <extensions>
          <ns3:TrackPointExtension>
            <ns3:atemp>23.0</ns3:atemp>
          </ns3:TrackPointExtension>
        </extensions>
      </trkpt>
      <trkpt lat="42.6356582343578338623046875" lon="19.8970742337405681610107421875">
        <ele>1542.5999755859375</ele>
        <time>2026-06-16T07:51:32.000Z</time>
        <extensions>
          <ns3:TrackPointExtension>
            <ns3:atemp>23.0</ns3:atemp>
          </ns3:TrackPointExtension>
        </extensions>
      </trkpt>
      <trkpt lat="42.635668627917766571044921875" lon="19.89705336280167102813720703125">
        <ele>1543</ele>
        <time>2026-06-16T07:51:33.000Z</time>
        <extensions>
          <ns3:TrackPointExtension>
            <ns3:atemp>23.0</ns3:atemp>
          </ns3:TrackPointExtension>
        </extensions>
      </trkpt>
      <trkpt lat="42.63567608781158924102783203125" lon="19.8970313183963298797607421875">
        <ele>1543.199951171875</ele>
        <time>2026-06-16T07:51:34.000Z</time>
        <extensions>
          <ns3:TrackPointExtension>
            <ns3:atemp>23.0</ns3:atemp>
          </ns3:TrackPointExtension>
        </extensions>
      </trkpt>
      <trkpt lat="42.63568103313446044921875" lon="19.897009693086147308349609375">
        <ele>1543.5999755859375</ele>
        <time>2026-06-16T07:51:35.000Z</time>
        <extensions>
          <ns3:TrackPointExtension>
            <ns3:atemp>23.0</ns3:atemp>
          </ns3:TrackPointExtension>
        </extensions>
      </trkpt>
      <trkpt lat="42.63568815775215625762939453125" lon="19.89698798395693302154541015625">
        <ele>1543.800048828125</ele>
        <time>2026-06-16T07:51:36.000Z</time>
        <extensions>
          <ns3:TrackPointExtension>
            <ns3:atemp>23.0</ns3:atemp>
          </ns3:TrackPointExtension>
        </extensions>
      </trkpt>
      <trkpt lat="42.63569871895015239715576171875" lon="19.89696267060935497283935546875">
        <ele>1544.199951171875</ele>
        <time>2026-06-16T07:51:37.000Z</time>
        <extensions>
          <ns3:TrackPointExtension>
            <ns3:atemp>23.0</ns3:atemp>
          </ns3:TrackPointExtension>
        </extensions>
      </trkpt>
      <trkpt lat="42.63570542447268962860107421875" lon="19.89693693816661834716796875">
        <ele>1544.5999755859375</ele>
        <time>2026-06-16T07:51:38.000Z</time>
        <extensions>
          <ns3:TrackPointExtension>
            <ns3:atemp>23.0</ns3:atemp>
          </ns3:TrackPointExtension>
        </extensions>
      </trkpt>
      <trkpt lat="42.635715566575527191162109375" lon="19.89691355265676975250244140625">
        <ele>1544.800048828125</ele>
        <time>2026-06-16T07:51:39.000Z</time>
        <extensions>
          <ns3:TrackPointExtension>
            <ns3:atemp>23.0</ns3:atemp>
          </ns3:TrackPointExtension>
        </extensions>
      </trkpt>
      <trkpt lat="42.63572487048804759979248046875" lon="19.8968871496617794036865234375">
        <ele>1545.199951171875</ele>
        <time>2026-06-16T07:51:40.000Z</time>
        <extensions>
          <ns3:TrackPointExtension>
            <ns3:atemp>23.0</ns3:atemp>
          </ns3:TrackPointExtension>
        </extensions>
      </trkpt>
      <trkpt lat="42.6357358507812023162841796875" lon="19.8968616686761379241943359375">
        <ele>1545.4000244140625</ele>
        <time>2026-06-16T07:51:41.000Z</time>
        <extensions>
          <ns3:TrackPointExtension>
            <ns3:atemp>23.0</ns3:atemp>
          </ns3:TrackPointExtension>
        </extensions>
      </trkpt>
      <trkpt lat="42.635747753083705902099609375" lon="19.8968385346233844757080078125">
        <ele>1545.5999755859375</ele>
        <time>2026-06-16T07:51:42.000Z</time>
        <extensions>
          <ns3:TrackPointExtension>
            <ns3:atemp>23.0</ns3:atemp>
          </ns3:TrackPointExtension>
        </extensions>
      </trkpt>
      <trkpt lat="42.63576158322393894195556640625" lon="19.89681632257997989654541015625">
        <ele>1545.5999755859375</ele>
        <time>2026-06-16T07:51:43.000Z</time>
        <extensions>
          <ns3:TrackPointExtension>
            <ns3:atemp>23.0</ns3:atemp>
          </ns3:TrackPointExtension>
        </extensions>
      </trkpt>
      <trkpt lat="42.635777257382869720458984375" lon="19.89679721184074878692626953125">
        <ele>1545.800048828125</ele>
        <time>2026-06-16T07:51:44.000Z</time>
        <extensions>
          <ns3:TrackPointExtension>
            <ns3:atemp>23.0</ns3:atemp>
          </ns3:TrackPointExtension>
        </extensions>
      </trkpt>
      <trkpt lat="42.63579242862761020660400390625" lon="19.89677893929183483123779296875">
        <ele>1546</ele>
        <time>2026-06-16T07:51:45.000Z</time>
        <extensions>
          <ns3:TrackPointExtension>
            <ns3:atemp>23.0</ns3:atemp>
          </ns3:TrackPointExtension>
        </extensions>
      </trkpt>
      <trkpt lat="42.63580835424363613128662109375" lon="19.89676318131387233734130859375">
        <ele>1546</ele>
        <time>2026-06-16T07:51:46.000Z</time>
        <extensions>
          <ns3:TrackPointExtension>
            <ns3:atemp>23.0</ns3:atemp>
          </ns3:TrackPointExtension>
        </extensions>
      </trkpt>
      <trkpt lat="42.63582788407802581787109375" lon="19.89675479941070079803466796875">
        <ele>1546.199951171875</ele>
        <time>2026-06-16T07:51:47.000Z</time>
        <extensions>
          <ns3:TrackPointExtension>
            <ns3:atemp>23.0</ns3:atemp>
          </ns3:TrackPointExtension>
        </extensions>
      </trkpt>
      <trkpt lat="42.63584674336016178131103515625" lon="19.89674759097397327423095703125">
        <ele>1546.5999755859375</ele>
        <time>2026-06-16T07:51:48.000Z</time>
        <extensions>
          <ns3:TrackPointExtension>
            <ns3:atemp>23.0</ns3:atemp>
          </ns3:TrackPointExtension>
        </extensions>
      </trkpt>
      <trkpt lat="42.63586753048002719879150390625" lon="19.89674239419400691986083984375">
        <ele>1546.800048828125</ele>
        <time>2026-06-16T07:51:49.000Z</time>
        <extensions>
          <ns3:TrackPointExtension>
            <ns3:atemp>23.0</ns3:atemp>
          </ns3:TrackPointExtension>
        </extensions>
      </trkpt>
      <trkpt lat="42.63588597066700458526611328125" lon="19.89673686213791370391845703125">
        <ele>1547</ele>
        <time>2026-06-16T07:51:50.000Z</time>
        <extensions>
          <ns3:TrackPointExtension>
            <ns3:atemp>23.0</ns3:atemp>
          </ns3:TrackPointExtension>
        </extensions>
      </trkpt>
      <trkpt lat="42.6359038241207599639892578125" lon="19.89673283882439136505126953125">
        <ele>1547</ele>
        <time>2026-06-16T07:51:51.000Z</time>
        <extensions>
          <ns3:TrackPointExtension>
            <ns3:atemp>23.0</ns3:atemp>
          </ns3:TrackPointExtension>
        </extensions>
      </trkpt>
      <trkpt lat="42.63592033647000789642333984375" lon="19.89673099480569362640380859375">
        <ele>1547.199951171875</ele>
        <time>2026-06-16T07:51:52.000Z</time>
        <extensions>
          <ns3:TrackPointExtension>
            <ns3:atemp>23.0</ns3:atemp>
          </ns3:TrackPointExtension>
        </extensions>
      </trkpt>
      <trkpt lat="42.63593760319054126739501953125" lon="19.89672646857798099517822265625">
        <ele>1547.4000244140625</ele>
        <time>2026-06-16T07:51:53.000Z</time>
        <extensions>
          <ns3:TrackPointExtension>
            <ns3:atemp>23.0</ns3:atemp>
          </ns3:TrackPointExtension>
        </extensions>
      </trkpt>
      <trkpt lat="42.63595872558653354644775390625" lon="19.896721355617046356201171875">
        <ele>1547.5999755859375</ele>
        <time>2026-06-16T07:51:54.000Z</time>
        <extensions>
          <ns3:TrackPointExtension>
            <ns3:atemp>23.0</ns3:atemp>
          </ns3:TrackPointExtension>
        </extensions>
      </trkpt>
      <trkpt lat="42.63597800396382808685302734375" lon="19.89671724848449230194091796875">
        <ele>1548</ele>
        <time>2026-06-16T07:51:55.000Z</time>
        <extensions>
          <ns3:TrackPointExtension>
            <ns3:atemp>23.0</ns3:atemp>
          </ns3:TrackPointExtension>
        </extensions>
      </trkpt>
      <trkpt lat="42.63599552214145660400390625" lon="19.8967154882848262786865234375">
        <ele>1548.199951171875</ele>
        <time>2026-06-16T07:51:56.000Z</time>
        <extensions>
          <ns3:TrackPointExtension>
            <ns3:atemp>23.0</ns3:atemp>
          </ns3:TrackPointExtension>
        </extensions>
      </trkpt>
      <trkpt lat="42.6360149681568145751953125" lon="19.89671423099935054779052734375">
        <ele>1548.199951171875</ele>
        <time>2026-06-16T07:51:57.000Z</time>
        <extensions>
          <ns3:TrackPointExtension>
            <ns3:atemp>23.0</ns3:atemp>
          </ns3:TrackPointExtension>
        </extensions>
      </trkpt>
      <trkpt lat="42.6360342465341091156005859375" lon="19.8967148177325725555419921875">
        <ele>1548.4000244140625</ele>
        <time>2026-06-16T07:51:58.000Z</time>
        <extensions>
          <ns3:TrackPointExtension>
            <ns3:atemp>23.0</ns3:atemp>
          </ns3:TrackPointExtension>
        </extensions>
      </trkpt>
      <trkpt lat="42.63605344109237194061279296875" lon="19.8967185057699680328369140625">
        <ele>1548.800048828125</ele>
        <time>2026-06-16T07:51:59.000Z</time>
        <extensions>
          <ns3:TrackPointExtension>
            <ns3:atemp>23.0</ns3:atemp>
          </ns3:TrackPointExtension>
        </extensions>
      </trkpt>
      <trkpt lat="42.636076994240283966064453125" lon="19.89672236144542694091796875">
        <ele>1549</ele>
        <time>2026-06-16T07:52:00.000Z</time>
        <extensions>
          <ns3:TrackPointExtension>
            <ns3:atemp>23.0</ns3:atemp>
          </ns3:TrackPointExtension>
        </extensions>
      </trkpt>
      <trkpt lat="42.63609736226499080657958984375" lon="19.89672110415995121002197265625">
        <ele>1549.199951171875</ele>
        <time>2026-06-16T07:52:01.000Z</time>
        <extensions>
          <ns3:TrackPointExtension>
            <ns3:atemp>23.0</ns3:atemp>
          </ns3:TrackPointExtension>
        </extensions>
      </trkpt>
      <trkpt lat="42.6361173950135707855224609375" lon="19.89672076888382434844970703125">
        <ele>1549.4000244140625</ele>
        <time>2026-06-16T07:52:02.000Z</time>
        <extensions>
          <ns3:TrackPointExtension>
            <ns3:atemp>23.0</ns3:atemp>
          </ns3:TrackPointExtension>
        </extensions>
      </trkpt>
      <trkpt lat="42.6361348293721675872802734375" lon="19.8967198468744754791259765625">
        <ele>1549.800048828125</ele>
        <time>2026-06-16T07:52:03.000Z</time>
        <extensions>
          <ns3:TrackPointExtension>
            <ns3:atemp>23.0</ns3:atemp>
          </ns3:TrackPointExtension>
        </extensions>
      </trkpt>
      <trkpt lat="42.63615377247333526611328125" lon="19.896710626780986785888671875">
        <ele>1550</ele>
        <time>2026-06-16T07:52:04.000Z</time>
        <extensions>
          <ns3:TrackPointExtension>
            <ns3:atemp>23.0</ns3:atemp>
          </ns3:TrackPointExtension>
        </extensions>
      </trkpt>
      <trkpt lat="42.63617011718451976776123046875" lon="19.8967055976390838623046875">
        <ele>1550.5999755859375</ele>
        <time>2026-06-16T07:52:05.000Z</time>
        <extensions>
          <ns3:TrackPointExtension>
            <ns3:atemp>23.0</ns3:atemp>
          </ns3:TrackPointExtension>
        </extensions>
      </trkpt>
      <trkpt lat="42.6361893117427825927734375" lon="19.89670333452522754669189453125">
        <ele>1550.800048828125</ele>
        <time>2026-06-16T07:52:06.000Z</time>
        <extensions>
          <ns3:TrackPointExtension>
            <ns3:atemp>23.0</ns3:atemp>
          </ns3:TrackPointExtension>
        </extensions>
      </trkpt>
      <trkpt lat="42.6362109370529651641845703125" lon="19.8967007361352443695068359375">
        <ele>1551.199951171875</ele>
        <time>2026-06-16T07:52:07.000Z</time>
        <extensions>
          <ns3:TrackPointExtension>
            <ns3:atemp>23.0</ns3:atemp>
          </ns3:TrackPointExtension>
        </extensions>
      </trkpt>
      <trkpt lat="42.63622795231640338897705078125" lon="19.8967015743255615234375">
        <ele>1551.5999755859375</ele>
        <time>2026-06-16T07:52:08.000Z</time>
        <extensions>
          <ns3:TrackPointExtension>
            <ns3:atemp>23.0</ns3:atemp>
          </ns3:TrackPointExtension>
        </extensions>
      </trkpt>
      <trkpt lat="42.63624454848468303680419921875" lon="19.896699897944927215576171875">
        <ele>1551.800048828125</ele>
        <time>2026-06-16T07:52:09.000Z</time>
        <extensions>
          <ns3:TrackPointExtension>
            <ns3:atemp>23.0</ns3:atemp>
          </ns3:TrackPointExtension>
        </extensions>
      </trkpt>
      <trkpt lat="42.6362605579197406768798828125" lon="19.89669579081237316131591796875">
        <ele>1552</ele>
        <time>2026-06-16T07:52:10.000Z</time>
        <extensions>
          <ns3:TrackPointExtension>
            <ns3:atemp>23.0</ns3:atemp>
          </ns3:TrackPointExtension>
        </extensions>
      </trkpt>
      <trkpt lat="42.63627983629703521728515625" lon="19.89668791182339191436767578125">
        <ele>1552.4000244140625</ele>
        <time>2026-06-16T07:52:11.000Z</time>
        <extensions>
          <ns3:TrackPointExtension>
            <ns3:atemp>23.0</ns3:atemp>
          </ns3:TrackPointExtension>
        </extensions>
      </trkpt>
      <trkpt lat="42.6362979412078857421875" lon="19.896677769720554351806640625">
        <ele>1552.800048828125</ele>
        <time>2026-06-16T07:52:12.000Z</time>
        <extensions>
          <ns3:TrackPointExtension>
            <ns3:atemp>23.0</ns3:atemp>
          </ns3:TrackPointExtension>
        </extensions>
      </trkpt>
      <trkpt lat="42.6363180577754974365234375" lon="19.89667131565511226654052734375">
        <ele>1553</ele>
        <time>2026-06-16T07:52:13.000Z</time>
        <extensions>
          <ns3:TrackPointExtension>
            <ns3:atemp>23.0</ns3:atemp>
          </ns3:TrackPointExtension>
        </extensions>
      </trkpt>
      <trkpt lat="42.63633876107633113861083984375" lon="19.89666561596095561981201171875">
        <ele>1553.199951171875</ele>
        <time>2026-06-16T07:52:14.000Z</time>
        <extensions>
          <ns3:TrackPointExtension>
            <ns3:atemp>23.0</ns3:atemp>
          </ns3:TrackPointExtension>
        </extensions>
      </trkpt>
      <trkpt lat="42.6363594643771648406982421875" lon="19.8966554738581180572509765625">
        <ele>1553.4000244140625</ele>
        <time>2026-06-16T07:52:15.000Z</time>
        <extensions>
          <ns3:TrackPointExtension>
            <ns3:atemp>23.0</ns3:atemp>
          </ns3:TrackPointExtension>
        </extensions>
      </trkpt>
      <trkpt lat="42.63637639582157135009765625" lon="19.8966434039175510406494140625">
        <ele>1553.800048828125</ele>
        <time>2026-06-16T07:52:16.000Z</time>
        <extensions>
          <ns3:TrackPointExtension>
            <ns3:atemp>23.0</ns3:atemp>
          </ns3:TrackPointExtension>
        </extensions>
      </trkpt>
      <trkpt lat="42.63639592565596103668212890625" lon="19.89662672393023967742919921875">
        <ele>1554</ele>
        <time>2026-06-16T07:52:17.000Z</time>
        <extensions>
          <ns3:TrackPointExtension>
            <ns3:atemp>23.0</ns3:atemp>
          </ns3:TrackPointExtension>
        </extensions>
      </trkpt>
      <trkpt lat="42.636414282023906707763671875" lon="19.89661373198032379150390625">
        <ele>1554.199951171875</ele>
        <time>2026-06-16T07:52:18.000Z</time>
        <extensions>
          <ns3:TrackPointExtension>
            <ns3:atemp>23.0</ns3:atemp>
          </ns3:TrackPointExtension>
        </extensions>
      </trkpt>
      <trkpt lat="42.63643096201121807098388671875" lon="19.8965929448604583740234375">
        <ele>1554.199951171875</ele>
        <time>2026-06-16T07:52:19.000Z</time>
        <extensions>
          <ns3:TrackPointExtension>
            <ns3:atemp>23.0</ns3:atemp>
          </ns3:TrackPointExtension>
        </extensions>
      </trkpt>
      <trkpt lat="42.63644638471305370330810546875" lon="19.89657157100737094879150390625">
        <ele>1554.199951171875</ele>
        <time>2026-06-16T07:52:20.000Z</time>
        <extensions>
          <ns3:TrackPointExtension>
            <ns3:atemp>23.0</ns3:atemp>
          </ns3:TrackPointExtension>
        </extensions>
      </trkpt>
      <trkpt lat="42.63645929284393787384033203125" lon="19.89655363373458385467529296875">
        <ele>1554.4000244140625</ele>
        <time>2026-06-16T07:52:21.000Z</time>
        <extensions>
          <ns3:TrackPointExtension>
            <ns3:atemp>23.0</ns3:atemp>
          </ns3:TrackPointExtension>
        </extensions>
      </trkpt>
      <trkpt lat="42.63647035695612430572509765625" lon="19.8965330980718135833740234375">
        <ele>1554.4000244140625</ele>
        <time>2026-06-16T07:52:22.000Z</time>
        <extensions>
          <ns3:TrackPointExtension>
            <ns3:atemp>23.0</ns3:atemp>
          </ns3:TrackPointExtension>
        </extensions>
      </trkpt>
      <trkpt lat="42.6364828459918498992919921875" lon="19.89651138894259929656982421875">
        <ele>1554.5999755859375</ele>
        <time>2026-06-16T07:52:23.000Z</time>
        <extensions>
          <ns3:TrackPointExtension>
            <ns3:atemp>23.0</ns3:atemp>
          </ns3:TrackPointExtension>
        </extensions>
      </trkpt>
      <trkpt lat="42.636496089398860931396484375" lon="19.89648439921438694000244140625">
        <ele>1554.5999755859375</ele>
        <time>2026-06-16T07:52:24.000Z</time>
        <extensions>
          <ns3:TrackPointExtension>
            <ns3:atemp>23.0</ns3:atemp>
          </ns3:TrackPointExtension>
        </extensions>
      </trkpt>
      <trkpt lat="42.63650740496814250946044921875" lon="19.89646218717098236083984375">
        <ele>1554.800048828125</ele>
        <time>2026-06-16T07:52:25.000Z</time>
        <extensions>
          <ns3:TrackPointExtension>
            <ns3:atemp>23.0</ns3:atemp>
          </ns3:TrackPointExtension>
        </extensions>
      </trkpt>
      <trkpt lat="42.63651528395712375640869140625" lon="19.896435029804706573486328125">
        <ele>1555.199951171875</ele>
        <time>2026-06-16T07:52:26.000Z</time>
        <extensions>
          <ns3:TrackPointExtension>
            <ns3:atemp>23.0</ns3:atemp>
          </ns3:TrackPointExtension>
        </extensions>
      </trkpt>
      <trkpt lat="42.63651989400386810302734375" lon="19.89641390740871429443359375">
        <ele>1555.4000244140625</ele>
        <time>2026-06-16T07:52:27.000Z</time>
        <extensions>
          <ns3:TrackPointExtension>
            <ns3:atemp>23.0</ns3:atemp>
          </ns3:TrackPointExtension>
        </extensions>
      </trkpt>
      <trkpt lat="42.6365245878696441650390625" lon="19.89638197235763072967529296875">
        <ele>1555.5999755859375</ele>
        <time>2026-06-16T07:52:28.000Z</time>
        <extensions>
          <ns3:TrackPointExtension>
            <ns3:atemp>23.0</ns3:atemp>
          </ns3:TrackPointExtension>
        </extensions>
      </trkpt>
      <trkpt lat="42.63652768917381763458251953125" lon="19.89635632373392581939697265625">
        <ele>1556</ele>
        <time>2026-06-16T07:52:29.000Z</time>
        <extensions>
          <ns3:TrackPointExtension>
            <ns3:atemp>23.0</ns3:atemp>
          </ns3:TrackPointExtension>
        </extensions>
      </trkpt>
      <trkpt lat="42.6365297846496105194091796875" lon="19.89632329903542995452880859375">
        <ele>1556</ele>
        <time>2026-06-16T07:52:30.000Z</time>
        <extensions>
          <ns3:TrackPointExtension>
            <ns3:atemp>23.0</ns3:atemp>
          </ns3:TrackPointExtension>
        </extensions>
      </trkpt>
      <trkpt lat="42.636532299220561981201171875" lon="19.896292202174663543701171875">
        <ele>1556.199951171875</ele>
        <time>2026-06-16T07:52:31.000Z</time>
        <extensions>
          <ns3:TrackPointExtension>
            <ns3:atemp>23.0</ns3:atemp>
          </ns3:TrackPointExtension>
        </extensions>
      </trkpt>
      <trkpt lat="42.6365301199257373809814453125" lon="19.8962657153606414794921875">
        <ele>1556.199951171875</ele>
        <time>2026-06-16T07:52:32.000Z</time>
        <extensions>
          <ns3:TrackPointExtension>
            <ns3:atemp>23.0</ns3:atemp>
          </ns3:TrackPointExtension>
        </extensions>
      </trkpt>
      <trkpt lat="42.63652936555445194244384765625" lon="19.89623713307082653045654296875">
        <ele>1556.199951171875</ele>
        <time>2026-06-16T07:52:33.000Z</time>
        <extensions>
          <ns3:TrackPointExtension>
            <ns3:atemp>23.0</ns3:atemp>
          </ns3:TrackPointExtension>
        </extensions>
      </trkpt>
      <trkpt lat="42.63652768917381763458251953125" lon="19.8962092213332653045654296875">
        <ele>1556.4000244140625</ele>
        <time>2026-06-16T07:52:34.000Z</time>
        <extensions>
          <ns3:TrackPointExtension>
            <ns3:atemp>23.0</ns3:atemp>
          </ns3:TrackPointExtension>
        </extensions>
      </trkpt>
      <trkpt lat="42.63652718625962734222412109375" lon="19.896178543567657470703125">
        <ele>1556.5999755859375</ele>
        <time>2026-06-16T07:52:35.000Z</time>
        <extensions>
          <ns3:TrackPointExtension>
            <ns3:atemp>23.0</ns3:atemp>
          </ns3:TrackPointExtension>
        </extensions>
      </trkpt>
      <trkpt lat="42.63652400113642215728759765625" lon="19.89615398459136486053466796875">
        <ele>1556.800048828125</ele>
        <time>2026-06-16T07:52:36.000Z</time>
        <extensions>
          <ns3:TrackPointExtension>
            <ns3:atemp>23.0</ns3:atemp>
          </ns3:TrackPointExtension>
        </extensions>
      </trkpt>
      <trkpt lat="42.6365207321941852569580078125" lon="19.89612615667283535003662109375">
        <ele>1557</ele>
        <time>2026-06-16T07:52:37.000Z</time>
        <extensions>
          <ns3:TrackPointExtension>
            <ns3:atemp>23.0</ns3:atemp>
          </ns3:TrackPointExtension>
        </extensions>
      </trkpt>
      <trkpt lat="42.6365167088806629180908203125" lon="19.89610419608652591705322265625">
        <ele>1557.199951171875</ele>
        <time>2026-06-16T07:52:38.000Z</time>
        <extensions>
          <ns3:TrackPointExtension>
            <ns3:atemp>23.0</ns3:atemp>
          </ns3:TrackPointExtension>
        </extensions>
      </trkpt>
      <trkpt lat="42.63651176355779170989990234375" lon="19.89607770927250385284423828125">
        <ele>1557.199951171875</ele>
        <time>2026-06-16T07:52:39.000Z</time>
        <extensions>
          <ns3:TrackPointExtension>
            <ns3:atemp>23.0</ns3:atemp>
          </ns3:TrackPointExtension>
        </extensions>
      </trkpt>
      <trkpt lat="42.6365096680819988250732421875" lon="19.89604971371591091156005859375">
        <ele>1557.199951171875</ele>
        <time>2026-06-16T07:52:40.000Z</time>
        <extensions>
          <ns3:TrackPointExtension>
            <ns3:atemp>23.0</ns3:atemp>
          </ns3:TrackPointExtension>
        </extensions>
      </trkpt>
      <trkpt lat="42.6365059800446033477783203125" lon="19.8960177786648273468017578125">
        <ele>1557.4000244140625</ele>
        <time>2026-06-16T07:52:41.000Z</time>
        <extensions>
          <ns3:TrackPointExtension>
            <ns3:atemp>23.0</ns3:atemp>
          </ns3:TrackPointExtension>
        </extensions>
      </trkpt>
      <trkpt lat="42.63650187291204929351806640625" lon="19.89598165266215801239013671875">
        <ele>1557.5999755859375</ele>
        <time>2026-06-16T07:52:42.000Z</time>
        <extensions>
          <ns3:TrackPointExtension>
            <ns3:atemp>23.0</ns3:atemp>
          </ns3:TrackPointExtension>
        </extensions>
      </trkpt>
      <trkpt lat="42.636497430503368377685546875" lon="19.89594577811658382415771484375">
        <ele>1557.5999755859375</ele>
        <time>2026-06-16T07:52:43.000Z</time>
        <extensions>
          <ns3:TrackPointExtension>
            <ns3:atemp>23.0</ns3:atemp>
          </ns3:TrackPointExtension>
        </extensions>
      </trkpt>
      <trkpt lat="42.63649382628500461578369140625" lon="19.89591225050389766693115234375">
        <ele>1557.5999755859375</ele>
        <time>2026-06-16T07:52:44.000Z</time>
        <extensions>
          <ns3:TrackPointExtension>
            <ns3:atemp>23.0</ns3:atemp>
          </ns3:TrackPointExtension>
        </extensions>
      </trkpt>
      <trkpt lat="42.63648829422891139984130859375" lon="19.89587537012994289398193359375">
        <ele>1557.800048828125</ele>
        <time>2026-06-16T07:52:45.000Z</time>
        <extensions>
          <ns3:TrackPointExtension>
            <ns3:atemp>23.0</ns3:atemp>
          </ns3:TrackPointExtension>
        </extensions>
      </trkpt>
      <trkpt lat="42.6364798285067081451416015625" lon="19.89584402181208133697509765625">
        <ele>1558</ele>
        <time>2026-06-16T07:52:46.000Z</time>
        <extensions>
          <ns3:TrackPointExtension>
            <ns3:atemp>23.0</ns3:atemp>
          </ns3:TrackPointExtension>
        </extensions>
      </trkpt>
      <trkpt lat="42.63647153042256832122802734375" lon="19.8958129249513149261474609375">
        <ele>1558.199951171875</ele>
        <time>2026-06-16T07:52:47.000Z</time>
        <extensions>
          <ns3:TrackPointExtension>
            <ns3:atemp>23.0</ns3:atemp>
          </ns3:TrackPointExtension>
        </extensions>
      </trkpt>
      <trkpt lat="42.636466920375823974609375" lon="19.89578233100473880767822265625">
        <ele>1558.4000244140625</ele>
        <time>2026-06-16T07:52:48.000Z</time>
        <extensions>
          <ns3:TrackPointExtension>
            <ns3:atemp>23.0</ns3:atemp>
          </ns3:TrackPointExtension>
        </extensions>
      </trkpt>
      <trkpt lat="42.6364602148532867431640625" lon="19.89575408399105072021484375">
        <ele>1558.5999755859375</ele>
        <time>2026-06-16T07:52:49.000Z</time>
        <extensions>
          <ns3:TrackPointExtension>
            <ns3:atemp>23.0</ns3:atemp>
          </ns3:TrackPointExtension>
        </extensions>
      </trkpt>
      <trkpt lat="42.636451162397861480712890625" lon="19.895726926624774932861328125">
        <ele>1558.5999755859375</ele>
        <time>2026-06-16T07:52:50.000Z</time>
        <extensions>
          <ns3:TrackPointExtension>
            <ns3:atemp>23.0</ns3:atemp>
          </ns3:TrackPointExtension>
        </extensions>
      </trkpt>
      <trkpt lat="42.636442445218563079833984375" lon="19.8956935666501522064208984375">
        <ele>1558.5999755859375</ele>
        <time>2026-06-16T07:52:51.000Z</time>
        <extensions>
          <ns3:TrackPointExtension>
            <ns3:atemp>23.0</ns3:atemp>
          </ns3:TrackPointExtension>
        </extensions>
      </trkpt>
      <trkpt lat="42.636434733867645263671875" lon="19.8956580273807048797607421875">
        <ele>1558.5999755859375</ele>
        <time>2026-06-16T07:52:52.000Z</time>
        <extensions>
          <ns3:TrackPointExtension>
            <ns3:atemp>23.0</ns3:atemp>
          </ns3:TrackPointExtension>
        </extensions>
      </trkpt>
      <trkpt lat="42.63642710633575916290283203125" lon="19.8956271819770336151123046875">
        <ele>1558.5999755859375</ele>
        <time>2026-06-16T07:52:53.000Z</time>
        <extensions>
          <ns3:TrackPointExtension>
            <ns3:atemp>23.0</ns3:atemp>
          </ns3:TrackPointExtension>
        </extensions>
      </trkpt>
      <trkpt lat="42.63641872443258762359619140625" lon="19.89559256471693515777587890625">
        <ele>1558.800048828125</ele>
        <time>2026-06-16T07:52:54.000Z</time>
        <extensions>
          <ns3:TrackPointExtension>
            <ns3:atemp>23.0</ns3:atemp>
          </ns3:TrackPointExtension>
        </extensions>
      </trkpt>
      <trkpt lat="42.63640992343425750732421875" lon="19.89555702544748783111572265625">
        <ele>1558.800048828125</ele>
        <time>2026-06-16T07:52:55.000Z</time>
        <extensions>
          <ns3:TrackPointExtension>
            <ns3:atemp>23.0</ns3:atemp>
          </ns3:TrackPointExtension>
        </extensions>
      </trkpt>
      <trkpt lat="42.6364007033407688140869140625" lon="19.89552316255867481231689453125">
        <ele>1558.800048828125</ele>
        <time>2026-06-16T07:52:56.000Z</time>
        <extensions>
          <ns3:TrackPointExtension>
            <ns3:atemp>23.0</ns3:atemp>
          </ns3:TrackPointExtension>
        </extensions>
      </trkpt>
      <trkpt lat="42.63639257289469242095947265625" lon="19.895488880574703216552734375">
        <ele>1559</ele>
        <time>2026-06-16T07:52:57.000Z</time>
        <extensions>
          <ns3:TrackPointExtension>
            <ns3:atemp>23.0</ns3:atemp>
          </ns3:TrackPointExtension>
        </extensions>
      </trkpt>
      <trkpt lat="42.63638167642056941986083984375" lon="19.89545962773263454437255859375">
        <ele>1559.199951171875</ele>
        <time>2026-06-16T07:52:58.000Z</time>
        <extensions>
          <ns3:TrackPointExtension>
            <ns3:atemp>23.0</ns3:atemp>
          </ns3:TrackPointExtension>
        </extensions>
      </trkpt>
      <trkpt lat="42.63636977411806583404541015625" lon="19.89543615840375423431396484375">
        <ele>1559.4000244140625</ele>
        <time>2026-06-16T07:52:59.000Z</time>
        <extensions>
          <ns3:TrackPointExtension>
            <ns3:atemp>23.0</ns3:atemp>
          </ns3:TrackPointExtension>
        </extensions>
      </trkpt>
      <trkpt lat="42.63635703362524509429931640625" lon="19.895408414304256439208984375">
        <ele>1559.5999755859375</ele>
        <time>2026-06-16T07:53:00.000Z</time>
        <extensions>
          <ns3:TrackPointExtension>
            <ns3:atemp>23.0</ns3:atemp>
          </ns3:TrackPointExtension>
        </extensions>
      </trkpt>
      <trkpt lat="42.63634420931339263916015625" lon="19.89538100548088550567626953125">
        <ele>1559.800048828125</ele>
        <time>2026-06-16T07:53:01.000Z</time>
        <extensions>
          <ns3:TrackPointExtension>
            <ns3:atemp>23.0</ns3:atemp>
          </ns3:TrackPointExtension>
        </extensions>
      </trkpt>
      <trkpt lat="42.6363314688205718994140625" lon="19.89535435102880001068115234375">
        <ele>1560</ele>
        <time>2026-06-16T07:53:02.000Z</time>
        <extensions>
          <ns3:TrackPointExtension>
            <ns3:atemp>23.0</ns3:atemp>
          </ns3:TrackPointExtension>
        </extensions>
      </trkpt>
      <trkpt lat="42.6363199017941951751708984375" lon="19.89532266743481159210205078125">
        <ele>1560.199951171875</ele>
        <time>2026-06-16T07:53:03.000Z</time>
        <extensions>
          <ns3:TrackPointExtension>
            <ns3:atemp>23.0</ns3:atemp>
          </ns3:TrackPointExtension>
        </extensions>
      </trkpt>
      <trkpt lat="42.636306993663311004638671875" lon="19.89529182203114032745361328125">
        <ele>1560.4000244140625</ele>
        <time>2026-06-16T07:53:04.000Z</time>
        <extensions>
          <ns3:TrackPointExtension>
            <ns3:atemp>23.0</ns3:atemp>
          </ns3:TrackPointExtension>
        </extensions>
      </trkpt>
      <trkpt lat="42.6362930797040462493896484375" lon="19.89526131190359592437744140625">
        <ele>1560.4000244140625</ele>
        <time>2026-06-16T07:53:05.000Z</time>
        <extensions>
          <ns3:TrackPointExtension>
            <ns3:atemp>23.0</ns3:atemp>
          </ns3:TrackPointExtension>
        </extensions>
      </trkpt>
      <trkpt lat="42.6362810097634792327880859375" lon="19.89522929303348064422607421875">
        <ele>1560.5999755859375</ele>
        <time>2026-06-16T07:53:06.000Z</time>
        <extensions>
          <ns3:TrackPointExtension>
            <ns3:atemp>23.0</ns3:atemp>
          </ns3:TrackPointExtension>
        </extensions>
      </trkpt>
      <trkpt lat="42.6362665928900241851806640625" lon="19.89519995637238025665283203125">
        <ele>1560.5999755859375</ele>
        <time>2026-06-16T07:53:07.000Z</time>
        <extensions>
          <ns3:TrackPointExtension>
            <ns3:atemp>23.0</ns3:atemp>
          </ns3:TrackPointExtension>
        </extensions>
      </trkpt>
      <trkpt lat="42.63625645078718662261962890625" lon="19.89517330192029476165771484375">
        <ele>1560.5999755859375</ele>
        <time>2026-06-16T07:53:08.000Z</time>
        <extensions>
          <ns3:TrackPointExtension>
            <ns3:atemp>23.0</ns3:atemp>
          </ns3:TrackPointExtension>
        </extensions>
      </trkpt>
      <trkpt lat="42.63624605722725391387939453125" lon="19.89515016786754131317138671875">
        <ele>1560.5999755859375</ele>
        <time>2026-06-16T07:53:09.000Z</time>
        <extensions>
          <ns3:TrackPointExtension>
            <ns3:atemp>23.0</ns3:atemp>
          </ns3:TrackPointExtension>
        </extensions>
      </trkpt>
      <trkpt lat="42.63623348437249660491943359375" lon="19.89512787200510501861572265625">
        <ele>1560.5999755859375</ele>
        <time>2026-06-16T07:53:10.000Z</time>
        <extensions>
          <ns3:TrackPointExtension>
            <ns3:atemp>23.0</ns3:atemp>
          </ns3:TrackPointExtension>
        </extensions>
      </trkpt>
      <trkpt lat="42.6362230069935321807861328125" lon="19.89509417675435543060302734375">
        <ele>1560.5999755859375</ele>
        <time>2026-06-16T07:53:11.000Z</time>
        <extensions>
          <ns3:TrackPointExtension>
            <ns3:atemp>23.0</ns3:atemp>
          </ns3:TrackPointExtension>
        </extensions>
      </trkpt>
      <trkpt lat="42.636209763586521148681640625" lon="19.895061068236827850341796875">
        <ele>1560.5999755859375</ele>
        <time>2026-06-16T07:53:12.000Z</time>
        <extensions>
          <ns3:TrackPointExtension>
            <ns3:atemp>23.0</ns3:atemp>
          </ns3:TrackPointExtension>
        </extensions>
      </trkpt>
      <trkpt lat="42.636197693645954132080078125" lon="19.89503064192831516265869140625">
        <ele>1560.5999755859375</ele>
        <time>2026-06-16T07:53:13.000Z</time>
        <extensions>
          <ns3:TrackPointExtension>
            <ns3:atemp>23.0</ns3:atemp>
          </ns3:TrackPointExtension>
        </extensions>
      </trkpt>
      <trkpt lat="42.6361839473247528076171875" lon="19.8949997127056121826171875">
        <ele>1560.5999755859375</ele>
        <time>2026-06-16T07:53:14.000Z</time>
        <extensions>
          <ns3:TrackPointExtension>
            <ns3:atemp>23.0</ns3:atemp>
          </ns3:TrackPointExtension>
        </extensions>
      </trkpt>
      <trkpt lat="42.63616877608001232147216796875" lon="19.8949730582535266876220703125">
        <ele>1560.5999755859375</ele>
        <time>2026-06-16T07:53:15.000Z</time>
        <extensions>
          <ns3:TrackPointExtension>
            <ns3:atemp>23.0</ns3:atemp>
          </ns3:TrackPointExtension>
        </extensions>
      </trkpt>
      <trkpt lat="42.6361539401113986968994140625" lon="19.89494296722114086151123046875">
        <ele>1560.5999755859375</ele>
        <time>2026-06-16T07:53:16.000Z</time>
        <extensions>
          <ns3:TrackPointExtension>
            <ns3:atemp>23.0</ns3:atemp>
          </ns3:TrackPointExtension>
        </extensions>
      </trkpt>
      <trkpt lat="42.63613994233310222625732421875" lon="19.8949106968939304351806640625">
        <ele>1560.5999755859375</ele>
        <time>2026-06-16T07:53:17.000Z</time>
        <extensions>
          <ns3:TrackPointExtension>
            <ns3:atemp>23.0</ns3:atemp>
          </ns3:TrackPointExtension>
        </extensions>
      </trkpt>
      <trkpt lat="42.63612921349704265594482421875" lon="19.89487742073833942413330078125">
        <ele>1560.5999755859375</ele>
        <time>2026-06-16T07:53:18.000Z</time>
        <extensions>
          <ns3:TrackPointExtension>
            <ns3:atemp>23.0</ns3:atemp>
          </ns3:TrackPointExtension>
        </extensions>
      </trkpt>
      <trkpt lat="42.636120580136775970458984375" lon="19.89484305493533611297607421875">
        <ele>1560.5999755859375</ele>
        <time>2026-06-16T07:53:19.000Z</time>
        <extensions>
          <ns3:TrackPointExtension>
            <ns3:atemp>23.0</ns3:atemp>
          </ns3:TrackPointExtension>
        </extensions>
      </trkpt>
      <trkpt lat="42.63611496426165103912353515625" lon="19.894802235066890716552734375">
        <ele>1560.5999755859375</ele>
        <time>2026-06-16T07:53:20.000Z</time>
        <extensions>
          <ns3:TrackPointExtension>
            <ns3:atemp>23.0</ns3:atemp>
          </ns3:TrackPointExtension>
        </extensions>
      </trkpt>
      <trkpt lat="42.636107169091701507568359375" lon="19.89476946182548999786376953125">
        <ele>1560.5999755859375</ele>
        <time>2026-06-16T07:53:21.000Z</time>
        <extensions>
          <ns3:TrackPointExtension>
            <ns3:atemp>23.0</ns3:atemp>
          </ns3:TrackPointExtension>
        </extensions>
      </trkpt>
      <trkpt lat="42.63609585352241992950439453125" lon="19.89473744295537471771240234375">
        <ele>1560.4000244140625</ele>
        <time>2026-06-16T07:53:22.000Z</time>
        <extensions>
          <ns3:TrackPointExtension>
            <ns3:atemp>23.0</ns3:atemp>
          </ns3:TrackPointExtension>
        </extensions>
      </trkpt>
      <trkpt lat="42.63608403503894805908203125" lon="19.89470559172332286834716796875">
        <ele>1560.5999755859375</ele>
        <time>2026-06-16T07:53:23.000Z</time>
        <extensions>
          <ns3:TrackPointExtension>
            <ns3:atemp>23.0</ns3:atemp>
          </ns3:TrackPointExtension>
        </extensions>
      </trkpt>
      <trkpt lat="42.636075317859649658203125" lon="19.894674830138683319091796875">
        <ele>1560.800048828125</ele>
        <time>2026-06-16T07:53:24.000Z</time>
        <extensions>
          <ns3:TrackPointExtension>
            <ns3:atemp>23.0</ns3:atemp>
          </ns3:TrackPointExtension>
        </extensions>
      </trkpt>
      <trkpt lat="42.6360647566616535186767578125" lon="19.89464071579277515411376953125">
        <ele>1560.800048828125</ele>
        <time>2026-06-16T07:53:25.000Z</time>
        <extensions>
          <ns3:TrackPointExtension>
            <ns3:atemp>23.0</ns3:atemp>
          </ns3:TrackPointExtension>
        </extensions>
      </trkpt>
      <trkpt lat="42.6360550336539745330810546875" lon="19.89460299722850322723388671875">
        <ele>1561</ele>
        <time>2026-06-16T07:53:26.000Z</time>
        <extensions>
          <ns3:TrackPointExtension>
            <ns3:atemp>23.0</ns3:atemp>
          </ns3:TrackPointExtension>
        </extensions>
      </trkpt>
      <trkpt lat="42.6360432989895343780517578125" lon="19.8945606686174869537353515625">
        <ele>1561</ele>
        <time>2026-06-16T07:53:27.000Z</time>
        <extensions>
          <ns3:TrackPointExtension>
            <ns3:atemp>23.0</ns3:atemp>
          </ns3:TrackPointExtension>
        </extensions>
      </trkpt>
      <trkpt lat="42.63603282161056995391845703125" lon="19.89451758563518524169921875">
        <ele>1561</ele>
        <time>2026-06-16T07:53:28.000Z</time>
        <extensions>
          <ns3:TrackPointExtension>
            <ns3:atemp>23.0</ns3:atemp>
          </ns3:TrackPointExtension>
        </extensions>
      </trkpt>
      <trkpt lat="42.6360221765935420989990234375" lon="19.89447274245321750640869140625">
        <ele>1561</ele>
        <time>2026-06-16T07:53:29.000Z</time>
        <extensions>
          <ns3:TrackPointExtension>
            <ns3:atemp>23.0</ns3:atemp>
          </ns3:TrackPointExtension>
        </extensions>
      </trkpt>
      <trkpt lat="42.63601454906165599822998046875" lon="19.89444156177341938018798828125">
        <ele>1561</ele>
        <time>2026-06-16T07:53:30.000Z</time>
        <extensions>
          <ns3:TrackPointExtension>
            <ns3:atemp>23.0</ns3:atemp>
          </ns3:TrackPointExtension>
        </extensions>
      </trkpt>
      <trkpt lat="42.6360084302723407745361328125" lon="19.89441507495939731597900390625">
        <ele>1561</ele>
        <time>2026-06-16T07:53:31.000Z</time>
        <extensions>
          <ns3:TrackPointExtension>
            <ns3:atemp>23.0</ns3:atemp>
          </ns3:TrackPointExtension>
        </extensions>
      </trkpt>
      <trkpt lat="42.63600113801658153533935546875" lon="19.89438422955572605133056640625">
        <ele>1561</ele>
        <time>2026-06-16T07:53:32.000Z</time>
        <extensions>
          <ns3:TrackPointExtension>
            <ns3:atemp>23.0</ns3:atemp>
          </ns3:TrackPointExtension>
        </extensions>
      </trkpt>
      <trkpt lat="42.6359950192272663116455078125" lon="19.894346259534358978271484375">
        <ele>1561</ele>
        <time>2026-06-16T07:53:33.000Z</time>
        <extensions>
          <ns3:TrackPointExtension>
            <ns3:atemp>23.0</ns3:atemp>
          </ns3:TrackPointExtension>
        </extensions>
      </trkpt>
      <trkpt lat="42.635987810790538787841796875" lon="19.89431147463619709014892578125">
        <ele>1561</ele>
        <time>2026-06-16T07:53:34.000Z</time>
        <extensions>
          <ns3:TrackPointExtension>
            <ns3:atemp>23.0</ns3:atemp>
          </ns3:TrackPointExtension>
        </extensions>
      </trkpt>
      <trkpt lat="42.63598454184830188751220703125" lon="19.8942783661186695098876953125">
        <ele>1561</ele>
        <time>2026-06-16T07:53:35.000Z</time>
        <extensions>
          <ns3:TrackPointExtension>
            <ns3:atemp>23.0</ns3:atemp>
          </ns3:TrackPointExtension>
        </extensions>
      </trkpt>
      <trkpt lat="42.635986469686031341552734375" lon="19.894245676696300506591796875">
        <ele>1561</ele>
        <time>2026-06-16T07:53:36.000Z</time>
        <extensions>
          <ns3:TrackPointExtension>
            <ns3:atemp>23.0</ns3:atemp>
          </ns3:TrackPointExtension>
        </extensions>
      </trkpt>
      <trkpt lat="42.6359876431524753570556640625" lon="19.8942126519978046417236328125">
        <ele>1561</ele>
        <time>2026-06-16T07:53:37.000Z</time>
        <extensions>
          <ns3:TrackPointExtension>
            <ns3:atemp>23.0</ns3:atemp>
          </ns3:TrackPointExtension>
        </extensions>
      </trkpt>
      <trkpt lat="42.635984458029270172119140625" lon="19.894172586500644683837890625">
        <ele>1561</ele>
        <time>2026-06-16T07:53:38.000Z</time>
        <extensions>
          <ns3:TrackPointExtension>
            <ns3:atemp>23.0</ns3:atemp>
          </ns3:TrackPointExtension>
        </extensions>
      </trkpt>
      <trkpt lat="42.6359772495925426483154296875" lon="19.89413897506892681121826171875">
        <ele>1561</ele>
        <time>2026-06-16T07:53:39.000Z</time>
        <extensions>
          <ns3:TrackPointExtension>
            <ns3:atemp>23.0</ns3:atemp>
          </ns3:TrackPointExtension>
        </extensions>
      </trkpt>
      <trkpt lat="42.63596727512776851654052734375" lon="19.8941080458462238311767578125">
        <ele>1561</ele>
        <time>2026-06-16T07:53:40.000Z</time>
        <extensions>
          <ns3:TrackPointExtension>
            <ns3:atemp>23.0</ns3:atemp>
          </ns3:TrackPointExtension>
        </extensions>
      </trkpt>
      <trkpt lat="42.6359591446816921234130859375" lon="19.89407024346292018890380859375">
        <ele>1561.199951171875</ele>
        <time>2026-06-16T07:53:41.000Z</time>
        <extensions>
          <ns3:TrackPointExtension>
            <ns3:atemp>23.0</ns3:atemp>
          </ns3:TrackPointExtension>
        </extensions>
      </trkpt>
      <trkpt lat="42.63595185242593288421630859375" lon="19.89402984268963336944580078125">
        <ele>1561.199951171875</ele>
        <time>2026-06-16T07:53:42.000Z</time>
        <extensions>
          <ns3:TrackPointExtension>
            <ns3:atemp>23.0</ns3:atemp>
          </ns3:TrackPointExtension>
        </extensions>
      </trkpt>
      <trkpt lat="42.6359413750469684600830078125" lon="19.89399061538279056549072265625">
        <ele>1561.4000244140625</ele>
        <time>2026-06-16T07:53:43.000Z</time>
        <extensions>
          <ns3:TrackPointExtension>
            <ns3:atemp>23.0</ns3:atemp>
          </ns3:TrackPointExtension>
        </extensions>
      </trkpt>
      <trkpt lat="42.635928131639957427978515625" lon="19.89395054988563060760498046875">
        <ele>1561.4000244140625</ele>
        <time>2026-06-16T07:53:44.000Z</time>
        <extensions>
          <ns3:TrackPointExtension>
            <ns3:atemp>23.0</ns3:atemp>
          </ns3:TrackPointExtension>
        </extensions>
      </trkpt>
      <trkpt lat="42.63591061346232891082763671875" lon="19.89390872418880462646484375">
        <ele>1561.4000244140625</ele>
        <time>2026-06-16T07:53:45.000Z</time>
        <extensions>
          <ns3:TrackPointExtension>
            <ns3:atemp>23.0</ns3:atemp>
          </ns3:TrackPointExtension>
        </extensions>
      </trkpt>
      <trkpt lat="42.63589636422693729400634765625" lon="19.89385642111301422119140625">
        <ele>1561.4000244140625</ele>
        <time>2026-06-16T07:53:46.000Z</time>
        <extensions>
          <ns3:TrackPointExtension>
            <ns3:atemp>23.0</ns3:atemp>
          </ns3:TrackPointExtension>
        </extensions>
      </trkpt>
      <trkpt lat="42.635886557400226593017578125" lon="19.8938061296939849853515625">
        <ele>1561.4000244140625</ele>
        <time>2026-06-16T07:53:47.000Z</time>
        <extensions>
          <ns3:TrackPointExtension>
            <ns3:atemp>23.0</ns3:atemp>
          </ns3:TrackPointExtension>
        </extensions>
      </trkpt>
      <trkpt lat="42.63588194735348224639892578125" lon="19.8937493003904819488525390625">
        <ele>1561.4000244140625</ele>
        <time>2026-06-16T07:53:48.000Z</time>
        <extensions>
          <ns3:TrackPointExtension>
            <ns3:atemp>23.0</ns3:atemp>
          </ns3:TrackPointExtension>
        </extensions>
      </trkpt>
      <trkpt lat="42.63587507419288158416748046875" lon="19.89370428957045078277587890625">
        <ele>1561.4000244140625</ele>
        <time>2026-06-16T07:53:49.000Z</time>
        <extensions>
          <ns3:TrackPointExtension>
            <ns3:atemp>23.0</ns3:atemp>
          </ns3:TrackPointExtension>
        </extensions>
      </trkpt>
      <trkpt lat="42.6358709670603275299072265625" lon="19.89366464316844940185546875">
        <ele>1561.5999755859375</ele>
        <time>2026-06-16T07:53:50.000Z</time>
        <extensions>
          <ns3:TrackPointExtension>
            <ns3:atemp>23.0</ns3:atemp>
          </ns3:TrackPointExtension>
        </extensions>
      </trkpt>
      <trkpt lat="42.63586099259555339813232421875" lon="19.8936255834996700286865234375">
        <ele>1561.800048828125</ele>
        <time>2026-06-16T07:53:51.000Z</time>
        <extensions>
          <ns3:TrackPointExtension>
            <ns3:atemp>23.0</ns3:atemp>
          </ns3:TrackPointExtension>
        </extensions>
      </trkpt>
      <trkpt lat="42.63585269451141357421875" lon="19.8935923911631107330322265625">
        <ele>1562</ele>
        <time>2026-06-16T07:53:52.000Z</time>
        <extensions>
          <ns3:TrackPointExtension>
            <ns3:atemp>23.0</ns3:atemp>
          </ns3:TrackPointExtension>
        </extensions>
      </trkpt>
      <trkpt lat="42.63584104366600513458251953125" lon="19.89356112666428089141845703125">
        <ele>1562.199951171875</ele>
        <time>2026-06-16T07:53:53.000Z</time>
        <extensions>
          <ns3:TrackPointExtension>
            <ns3:atemp>23.0</ns3:atemp>
          </ns3:TrackPointExtension>
        </extensions>
      </trkpt>
      <trkpt lat="42.635824196040630340576171875" lon="19.893529526889324188232421875">
        <ele>1562.4000244140625</ele>
        <time>2026-06-16T07:53:54.000Z</time>
        <extensions>
          <ns3:TrackPointExtension>
            <ns3:atemp>23.0</ns3:atemp>
          </ns3:TrackPointExtension>
        </extensions>
      </trkpt>
      <trkpt lat="42.63580684550106525421142578125" lon="19.89349725656211376190185546875">
        <ele>1562.5999755859375</ele>
        <time>2026-06-16T07:53:55.000Z</time>
        <extensions>
          <ns3:TrackPointExtension>
            <ns3:atemp>23.0</ns3:atemp>
          </ns3:TrackPointExtension>
        </extensions>
      </trkpt>
      <trkpt lat="42.635788656771183013916015625" lon="19.8934623040258884429931640625">
        <ele>1562.800048828125</ele>
        <time>2026-06-16T07:53:56.000Z</time>
        <extensions>
          <ns3:TrackPointExtension>
            <ns3:atemp>23.0</ns3:atemp>
          </ns3:TrackPointExtension>
        </extensions>
      </trkpt>
      <trkpt lat="42.63577382080256938934326171875" lon="19.8934287764132022857666015625">
        <ele>1562.800048828125</ele>
        <time>2026-06-16T07:53:57.000Z</time>
        <extensions>
          <ns3:TrackPointExtension>
            <ns3:atemp>23.0</ns3:atemp>
          </ns3:TrackPointExtension>
        </extensions>
      </trkpt>
      <trkpt lat="42.63575688935816287994384765625" lon="19.89339767955243587493896484375">
        <ele>1563</ele>
        <time>2026-06-16T07:53:58.000Z</time>
        <extensions>
          <ns3:TrackPointExtension>
            <ns3:atemp>23.0</ns3:atemp>
          </ns3:TrackPointExtension>
        </extensions>
      </trkpt>
      <trkpt lat="42.63574029318988323211669921875" lon="19.89336934871971607208251953125">
        <ele>1563</ele>
        <time>2026-06-16T07:53:59.000Z</time>
        <extensions>
          <ns3:TrackPointExtension>
            <ns3:atemp>23.0</ns3:atemp>
          </ns3:TrackPointExtension>
        </extensions>
      </trkpt>
      <trkpt lat="42.6357194222509860992431640625" lon="19.893340766429901123046875">
        <ele>1563</ele>
        <time>2026-06-16T07:54:00.000Z</time>
        <extensions>
          <ns3:TrackPointExtension>
            <ns3:atemp>23.0</ns3:atemp>
          </ns3:TrackPointExtension>
        </extensions>
      </trkpt>
      <trkpt lat="42.63570190407335758209228515625" lon="19.89330547861754894256591796875">
        <ele>1563</ele>
        <time>2026-06-16T07:54:01.000Z</time>
        <extensions>
          <ns3:TrackPointExtension>
            <ns3:atemp>23.0</ns3:atemp>
          </ns3:TrackPointExtension>
        </extensions>
      </trkpt>
      <trkpt lat="42.6356815360486507415771484375" lon="19.8932735435664653778076171875">
        <ele>1563</ele>
        <time>2026-06-16T07:54:02.000Z</time>
        <extensions>
          <ns3:TrackPointExtension>
            <ns3:atemp>23.0</ns3:atemp>
          </ns3:TrackPointExtension>
        </extensions>
      </trkpt>
      <trkpt lat="42.6356687955558300018310546875" lon="19.89324127323925495147705078125">
        <ele>1563</ele>
        <time>2026-06-16T07:54:03.000Z</time>
        <extensions>
          <ns3:TrackPointExtension>
            <ns3:atemp>23.0</ns3:atemp>
          </ns3:TrackPointExtension>
        </extensions>
      </trkpt>
      <trkpt lat="42.6356609165668487548828125" lon="19.8932088352739810943603515625">
        <ele>1563</ele>
        <time>2026-06-16T07:54:04.000Z</time>
        <extensions>
          <ns3:TrackPointExtension>
            <ns3:atemp>23.0</ns3:atemp>
          </ns3:TrackPointExtension>
        </extensions>
      </trkpt>
      <trkpt lat="42.635647840797901153564453125" lon="19.8931810073554515838623046875">
        <ele>1563</ele>
        <time>2026-06-16T07:54:05.000Z</time>
        <extensions>
          <ns3:TrackPointExtension>
            <ns3:atemp>23.0</ns3:atemp>
          </ns3:TrackPointExtension>
        </extensions>
      </trkpt>
      <trkpt lat="42.63564524240791797637939453125" lon="19.89314706064760684967041015625">
        <ele>1563.199951171875</ele>
        <time>2026-06-16T07:54:06.000Z</time>
        <extensions>
          <ns3:TrackPointExtension>
            <ns3:atemp>23.0</ns3:atemp>
          </ns3:TrackPointExtension>
        </extensions>
      </trkpt>
      <trkpt lat="42.6356409676373004913330078125" lon="19.89311336539685726165771484375">
        <ele>1563.199951171875</ele>
        <time>2026-06-16T07:54:07.000Z</time>
        <extensions>
          <ns3:TrackPointExtension>
            <ns3:atemp>23.0</ns3:atemp>
          </ns3:TrackPointExtension>
        </extensions>
      </trkpt>
      <trkpt lat="42.63563702814280986785888671875" lon="19.8930727131664752960205078125">
        <ele>1563.4000244140625</ele>
        <time>2026-06-16T07:54:08.000Z</time>
        <extensions>
          <ns3:TrackPointExtension>
            <ns3:atemp>23.0</ns3:atemp>
          </ns3:TrackPointExtension>
        </extensions>
      </trkpt>
      <trkpt lat="42.6356278918683528900146484375" lon="19.89303306676447391510009765625">
        <ele>1563.4000244140625</ele>
        <time>2026-06-16T07:54:09.000Z</time>
        <extensions>
          <ns3:TrackPointExtension>
            <ns3:atemp>23.0</ns3:atemp>
          </ns3:TrackPointExtension>
        </extensions>
      </trkpt>
      <trkpt lat="42.6356206834316253662109375" lon="19.8929952643811702728271484375">
        <ele>1563.4000244140625</ele>
        <time>2026-06-16T07:54:10.000Z</time>
        <extensions>
          <ns3:TrackPointExtension>
            <ns3:atemp>23.0</ns3:atemp>
          </ns3:TrackPointExtension>
        </extensions>
      </trkpt>
      <trkpt lat="42.6356208510696887969970703125" lon="19.8929543606936931610107421875">
        <ele>1563.4000244140625</ele>
        <time>2026-06-16T07:54:11.000Z</time>
        <extensions>
          <ns3:TrackPointExtension>
            <ns3:atemp>23.0</ns3:atemp>
          </ns3:TrackPointExtension>
        </extensions>
      </trkpt>
      <trkpt lat="42.63561330735683441162109375" lon="19.89291689358651638031005859375">
        <ele>1563.4000244140625</ele>
        <time>2026-06-16T07:54:12.000Z</time>
        <extensions>
          <ns3:TrackPointExtension>
            <ns3:atemp>23.0</ns3:atemp>
          </ns3:TrackPointExtension>
        </extensions>
      </trkpt>
      <trkpt lat="42.63561054132878780364990234375" lon="19.89287699572741985321044921875">
        <ele>1563.5999755859375</ele>
        <time>2026-06-16T07:54:13.000Z</time>
        <extensions>
          <ns3:TrackPointExtension>
            <ns3:atemp>23.0</ns3:atemp>
          </ns3:TrackPointExtension>
        </extensions>
      </trkpt>
      <trkpt lat="42.635603249073028564453125" lon="19.89283542148768901824951171875">
        <ele>1563.800048828125</ele>
        <time>2026-06-16T07:54:14.000Z</time>
        <extensions>
          <ns3:TrackPointExtension>
            <ns3:atemp>23.0</ns3:atemp>
          </ns3:TrackPointExtension>
        </extensions>
      </trkpt>
      <trkpt lat="42.63559478335082530975341796875" lon="19.892804324626922607421875">
        <ele>1564</ele>
        <time>2026-06-16T07:54:15.000Z</time>
        <extensions>
          <ns3:TrackPointExtension>
            <ns3:atemp>23.0</ns3:atemp>
          </ns3:TrackPointExtension>
        </extensions>
      </trkpt>
      <trkpt lat="42.635592184960842132568359375" lon="19.892773814499378204345703125">
        <ele>1564.199951171875</ele>
        <time>2026-06-16T07:54:16.000Z</time>
        <extensions>
          <ns3:TrackPointExtension>
            <ns3:atemp>23.0</ns3:atemp>
          </ns3:TrackPointExtension>
        </extensions>
      </trkpt>
      <trkpt lat="42.6355930231511592864990234375" lon="19.89273534156382083892822265625">
        <ele>1564.4000244140625</ele>
        <time>2026-06-16T07:54:17.000Z</time>
        <extensions>
          <ns3:TrackPointExtension>
            <ns3:atemp>23.0</ns3:atemp>
          </ns3:TrackPointExtension>
        </extensions>
      </trkpt>
      <trkpt lat="42.635589502751827239990234375" lon="19.89269561134278774261474609375">
        <ele>1564.5999755859375</ele>
        <time>2026-06-16T07:54:18.000Z</time>
        <extensions>
          <ns3:TrackPointExtension>
            <ns3:atemp>23.0</ns3:atemp>
          </ns3:TrackPointExtension>
        </extensions>
      </trkpt>
      <trkpt lat="42.63558623380959033966064453125" lon="19.892654456198215484619140625">
        <ele>1564.800048828125</ele>
        <time>2026-06-16T07:54:19.000Z</time>
        <extensions>
          <ns3:TrackPointExtension>
            <ns3:atemp>23.0</ns3:atemp>
          </ns3:TrackPointExtension>
        </extensions>
      </trkpt>
      <trkpt lat="42.635578103363513946533203125" lon="19.8926204256713390350341796875">
        <ele>1565</ele>
        <time>2026-06-16T07:54:20.000Z</time>
        <extensions>
          <ns3:TrackPointExtension>
            <ns3:atemp>23.0</ns3:atemp>
          </ns3:TrackPointExtension>
        </extensions>
      </trkpt>
      <trkpt lat="42.63557433150708675384521484375" lon="19.89258371293544769287109375">
        <ele>1565.199951171875</ele>
        <time>2026-06-16T07:54:21.000Z</time>
        <extensions>
          <ns3:TrackPointExtension>
            <ns3:atemp>23.0</ns3:atemp>
          </ns3:TrackPointExtension>
        </extensions>
      </trkpt>
      <trkpt lat="42.63556770980358123779296875" lon="19.8925436474382877349853515625">
        <ele>1565.4000244140625</ele>
        <time>2026-06-16T07:54:22.000Z</time>
        <extensions>
          <ns3:TrackPointExtension>
            <ns3:atemp>23.0</ns3:atemp>
          </ns3:TrackPointExtension>
        </extensions>
      </trkpt>
      <trkpt lat="42.6355631835758686065673828125" lon="19.89250752143561840057373046875">
        <ele>1565.5999755859375</ele>
        <time>2026-06-16T07:54:23.000Z</time>
        <extensions>
          <ns3:TrackPointExtension>
            <ns3:atemp>23.0</ns3:atemp>
          </ns3:TrackPointExtension>
        </extensions>
      </trkpt>
      <trkpt lat="42.635560333728790283203125" lon="19.89247717894613742828369140625">
        <ele>1565.800048828125</ele>
        <time>2026-06-16T07:54:24.000Z</time>
        <extensions>
          <ns3:TrackPointExtension>
            <ns3:atemp>23.0</ns3:atemp>
          </ns3:TrackPointExtension>
        </extensions>
      </trkpt>
      <trkpt lat="42.6355581544339656829833984375" lon="19.8924403823912143707275390625">
        <ele>1565.800048828125</ele>
        <time>2026-06-16T07:54:25.000Z</time>
        <extensions>
          <ns3:TrackPointExtension>
            <ns3:atemp>23.0</ns3:atemp>
          </ns3:TrackPointExtension>
        </extensions>
      </trkpt>
      <trkpt lat="42.63555991463363170623779296875" lon="19.89240274764597415924072265625">
        <ele>1566</ele>
        <time>2026-06-16T07:54:26.000Z</time>
        <extensions>
          <ns3:TrackPointExtension>
            <ns3:atemp>23.0</ns3:atemp>
          </ns3:TrackPointExtension>
        </extensions>
      </trkpt>
      <trkpt lat="42.6355608366429805755615234375" lon="19.89236243069171905517578125">
        <ele>1566</ele>
        <time>2026-06-16T07:54:27.000Z</time>
        <extensions>
          <ns3:TrackPointExtension>
            <ns3:atemp>23.0</ns3:atemp>
          </ns3:TrackPointExtension>
        </extensions>
      </trkpt>
      <trkpt lat="42.6355554722249507904052734375" lon="19.89232077263295650482177734375">
        <ele>1566.199951171875</ele>
        <time>2026-06-16T07:54:28.000Z</time>
        <extensions>
          <ns3:TrackPointExtension>
            <ns3:atemp>23.0</ns3:atemp>
          </ns3:TrackPointExtension>
        </extensions>
      </trkpt>
      <trkpt lat="42.63554759323596954345703125" lon="19.89227718673646450042724609375">
        <ele>1566.199951171875</ele>
        <time>2026-06-16T07:54:29.000Z</time>
        <extensions>
          <ns3:TrackPointExtension>
            <ns3:atemp>23.0</ns3:atemp>
          </ns3:TrackPointExtension>
        </extensions>
      </trkpt>
      <trkpt lat="42.63554583303630352020263671875" lon="19.8922429047524929046630859375">
        <ele>1566.199951171875</ele>
        <time>2026-06-16T07:54:30.000Z</time>
        <extensions>
          <ns3:TrackPointExtension>
            <ns3:atemp>23.0</ns3:atemp>
          </ns3:TrackPointExtension>
        </extensions>
      </trkpt>
      <trkpt lat="42.63554113917052745819091796875" lon="19.89220744930207729339599609375">
        <ele>1566.4000244140625</ele>
        <time>2026-06-16T07:54:31.000Z</time>
        <extensions>
          <ns3:TrackPointExtension>
            <ns3:atemp>23.0</ns3:atemp>
          </ns3:TrackPointExtension>
        </extensions>
      </trkpt>
      <trkpt lat="42.63553158380091190338134765625" lon="19.89216973073780536651611328125">
        <ele>1566.4000244140625</ele>
        <time>2026-06-16T07:54:32.000Z</time>
        <extensions>
          <ns3:TrackPointExtension>
            <ns3:atemp>23.0</ns3:atemp>
          </ns3:TrackPointExtension>
        </extensions>
      </trkpt>
      <trkpt lat="42.63552035205066204071044921875" lon="19.8921302519738674163818359375">
        <ele>1566.4000244140625</ele>
        <time>2026-06-16T07:54:33.000Z</time>
        <extensions>
          <ns3:TrackPointExtension>
            <ns3:atemp>23.0</ns3:atemp>
          </ns3:TrackPointExtension>
        </extensions>
      </trkpt>
      <trkpt lat="42.63550777919590473175048828125" lon="19.89208909682929515838623046875">
        <ele>1566.5999755859375</ele>
        <time>2026-06-16T07:54:34.000Z</time>
        <extensions>
          <ns3:TrackPointExtension>
            <ns3:atemp>23.0</ns3:atemp>
          </ns3:TrackPointExtension>
        </extensions>
      </trkpt>
      <trkpt lat="42.63550736010074615478515625" lon="19.8920467682182788848876953125">
        <ele>1566.5999755859375</ele>
        <time>2026-06-16T07:54:35.000Z</time>
        <extensions>
          <ns3:TrackPointExtension>
            <ns3:atemp>23.0</ns3:atemp>
          </ns3:TrackPointExtension>
        </extensions>
      </trkpt>
      <trkpt lat="42.63550844974815845489501953125" lon="19.8920105583965778350830078125">
        <ele>1566.5999755859375</ele>
        <time>2026-06-16T07:54:36.000Z</time>
        <extensions>
          <ns3:TrackPointExtension>
            <ns3:atemp>23.0</ns3:atemp>
          </ns3:TrackPointExtension>
        </extensions>
      </trkpt>
      <trkpt lat="42.63551062904298305511474609375" lon="19.89197124727070331573486328125">
        <ele>1566.5999755859375</ele>
        <time>2026-06-16T07:54:37.000Z</time>
        <extensions>
          <ns3:TrackPointExtension>
            <ns3:atemp>23.0</ns3:atemp>
          </ns3:TrackPointExtension>
        </extensions>
      </trkpt>
      <trkpt lat="42.63551113195717334747314453125" lon="19.8919334448873996734619140625">
        <ele>1566.5999755859375</ele>
        <time>2026-06-16T07:54:38.000Z</time>
        <extensions>
          <ns3:TrackPointExtension>
            <ns3:atemp>23.0</ns3:atemp>
          </ns3:TrackPointExtension>
        </extensions>
      </trkpt>
      <trkpt lat="42.63551666401326656341552734375" lon="19.8918979056179523468017578125">
        <ele>1566.800048828125</ele>
        <time>2026-06-16T07:54:39.000Z</time>
        <extensions>
          <ns3:TrackPointExtension>
            <ns3:atemp>23.0</ns3:atemp>
          </ns3:TrackPointExtension>
        </extensions>
      </trkpt>
      <trkpt lat="42.6355199329555034637451171875" lon="19.8918516375124454498291015625">
        <ele>1566.800048828125</ele>
        <time>2026-06-16T07:54:40.000Z</time>
        <extensions>
          <ns3:TrackPointExtension>
            <ns3:atemp>23.0</ns3:atemp>
          </ns3:TrackPointExtension>
        </extensions>
      </trkpt>
      <trkpt lat="42.63552202843129634857177734375" lon="19.891810901463031768798828125">
        <ele>1566.5999755859375</ele>
        <time>2026-06-16T07:54:41.000Z</time>
        <extensions>
          <ns3:TrackPointExtension>
            <ns3:atemp>23.0</ns3:atemp>
          </ns3:TrackPointExtension>
        </extensions>
      </trkpt>
      <trkpt lat="42.635528147220611572265625" lon="19.89177502691745758056640625">
        <ele>1566.5999755859375</ele>
        <time>2026-06-16T07:54:42.000Z</time>
        <extensions>
          <ns3:TrackPointExtension>
            <ns3:atemp>23.0</ns3:atemp>
          </ns3:TrackPointExtension>
        </extensions>
      </trkpt>
      <trkpt lat="42.6355286501348018646240234375" lon="19.8917269147932529449462890625">
        <ele>1566.5999755859375</ele>
        <time>2026-06-16T07:54:43.000Z</time>
        <extensions>
          <ns3:TrackPointExtension>
            <ns3:atemp>23.0</ns3:atemp>
          </ns3:TrackPointExtension>
        </extensions>
      </trkpt>
      <trkpt lat="42.63552705757319927215576171875" lon="19.89168056286871433258056640625">
        <ele>1566.5999755859375</ele>
        <time>2026-06-16T07:54:44.000Z</time>
        <extensions>
          <ns3:TrackPointExtension>
            <ns3:atemp>23.0</ns3:atemp>
          </ns3:TrackPointExtension>
        </extensions>
      </trkpt>
      <trkpt lat="42.63552437536418437957763671875" lon="19.891631193459033966064453125">
        <ele>1566.4000244140625</ele>
        <time>2026-06-16T07:54:45.000Z</time>
        <extensions>
          <ns3:TrackPointExtension>
            <ns3:atemp>23.0</ns3:atemp>
          </ns3:TrackPointExtension>
        </extensions>
      </trkpt>
      <trkpt lat="42.63552772812545299530029296875" lon="19.8915797285735607147216796875">
        <ele>1566.4000244140625</ele>
        <time>2026-06-16T07:54:46.000Z</time>
        <extensions>
          <ns3:TrackPointExtension>
            <ns3:atemp>23.0</ns3:atemp>
          </ns3:TrackPointExtension>
        </extensions>
      </trkpt>
      <trkpt lat="42.6355320028960704803466796875" lon="19.891519881784915924072265625">
        <ele>1566</ele>
        <time>2026-06-16T07:54:47.000Z</time>
        <extensions>
          <ns3:TrackPointExtension>
            <ns3:atemp>23.0</ns3:atemp>
          </ns3:TrackPointExtension>
        </extensions>
      </trkpt>
      <trkpt lat="42.6355457492172718048095703125" lon="19.89146498031914234161376953125">
        <ele>1565.800048828125</ele>
        <time>2026-06-16T07:54:48.000Z</time>
        <extensions>
          <ns3:TrackPointExtension>
            <ns3:atemp>23.0</ns3:atemp>
          </ns3:TrackPointExtension>
        </extensions>
      </trkpt>
      <trkpt lat="42.63555706478655338287353515625" lon="19.89141217432916164398193359375">
        <ele>1565.5999755859375</ele>
        <time>2026-06-16T07:54:49.000Z</time>
        <extensions>
          <ns3:TrackPointExtension>
            <ns3:atemp>23.0</ns3:atemp>
          </ns3:TrackPointExtension>
        </extensions>
      </trkpt>
      <trkpt lat="42.63557248748838901519775390625" lon="19.8913557641208171844482421875">
        <ele>1565.4000244140625</ele>
        <time>2026-06-16T07:54:50.000Z</time>
        <extensions>
          <ns3:TrackPointExtension>
            <ns3:atemp>23.0</ns3:atemp>
          </ns3:TrackPointExtension>
        </extensions>
      </trkpt>
      <trkpt lat="42.63558589853346347808837890625" lon="19.89130086265504360198974609375">
        <ele>1565.199951171875</ele>
        <time>2026-06-16T07:54:51.000Z</time>
        <extensions>
          <ns3:TrackPointExtension>
            <ns3:atemp>23.0</ns3:atemp>
          </ns3:TrackPointExtension>
        </extensions>
      </trkpt>
      <trkpt lat="42.63559143058955669403076171875" lon="19.8912444524466991424560546875">
        <ele>1565</ele>
        <time>2026-06-16T07:54:52.000Z</time>
        <extensions>
          <ns3:TrackPointExtension>
            <ns3:atemp>23.0</ns3:atemp>
          </ns3:TrackPointExtension>
        </extensions>
      </trkpt>
      <trkpt lat="42.63558606617152690887451171875" lon="19.8911891318857669830322265625">
        <ele>1564.800048828125</ele>
        <time>2026-06-16T07:54:53.000Z</time>
        <extensions>
          <ns3:TrackPointExtension>
            <ns3:atemp>23.0</ns3:atemp>
          </ns3:TrackPointExtension>
        </extensions>
      </trkpt>
      <trkpt lat="42.6355843059718608856201171875" lon="19.89114143885672092437744140625">
        <ele>1564.800048828125</ele>
        <time>2026-06-16T07:54:54.000Z</time>
        <extensions>
          <ns3:TrackPointExtension>
            <ns3:atemp>23.0</ns3:atemp>
          </ns3:TrackPointExtension>
        </extensions>
      </trkpt>
      <trkpt lat="42.6355836354196071624755859375" lon="19.89110288210213184356689453125">
        <ele>1564.800048828125</ele>
        <time>2026-06-16T07:54:55.000Z</time>
        <extensions>
          <ns3:TrackPointExtension>
            <ns3:atemp>23.0</ns3:atemp>
          </ns3:TrackPointExtension>
        </extensions>
      </trkpt>
      <trkpt lat="42.6355809532105922698974609375" lon="19.89106633700430393218994140625">
        <ele>1564.800048828125</ele>
        <time>2026-06-16T07:54:56.000Z</time>
        <extensions>
          <ns3:TrackPointExtension>
            <ns3:atemp>23.0</ns3:atemp>
          </ns3:TrackPointExtension>
        </extensions>
      </trkpt>
      <trkpt lat="42.63557910919189453125" lon="19.89102995954453945159912109375">
        <ele>1564.800048828125</ele>
        <time>2026-06-16T07:54:57.000Z</time>
        <extensions>
          <ns3:TrackPointExtension>
            <ns3:atemp>23.0</ns3:atemp>
          </ns3:TrackPointExtension>
        </extensions>
      </trkpt>
      <trkpt lat="42.6355765946209430694580078125" lon="19.8909976892173290252685546875">
        <ele>1565</ele>
        <time>2026-06-16T07:54:58.000Z</time>
        <extensions>
          <ns3:TrackPointExtension>
            <ns3:atemp>23.0</ns3:atemp>
          </ns3:TrackPointExtension>
        </extensions>
      </trkpt>
      <trkpt lat="42.63557282276451587677001953125" lon="19.89096038974821567535400390625">
        <ele>1565</ele>
        <time>2026-06-16T07:54:59.000Z</time>
        <extensions>
          <ns3:TrackPointExtension>
            <ns3:atemp>23.0</ns3:atemp>
          </ns3:TrackPointExtension>
        </extensions>
      </trkpt>
      <trkpt lat="42.6355682127177715301513671875" lon="19.8909215815365314483642578125">
        <ele>1565</ele>
        <time>2026-06-16T07:55:00.000Z</time>
        <extensions>
          <ns3:TrackPointExtension>
            <ns3:atemp>23.0</ns3:atemp>
          </ns3:TrackPointExtension>
        </extensions>
      </trkpt>
      <trkpt lat="42.6355655305087566375732421875" lon="19.890886209905147552490234375">
        <ele>1565</ele>
        <time>2026-06-16T07:55:01.000Z</time>
        <extensions>
          <ns3:TrackPointExtension>
            <ns3:atemp>23.0</ns3:atemp>
          </ns3:TrackPointExtension>
        </extensions>
      </trkpt>
      <trkpt lat="42.63556745834648609161376953125" lon="19.89084966480731964111328125">
        <ele>1565</ele>
        <time>2026-06-16T07:55:02.000Z</time>
        <extensions>
          <ns3:TrackPointExtension>
            <ns3:atemp>23.0</ns3:atemp>
          </ns3:TrackPointExtension>
        </extensions>
      </trkpt>
      <trkpt lat="42.63556368649005889892578125" lon="19.890814460813999176025390625">
        <ele>1565</ele>
        <time>2026-06-16T07:55:03.000Z</time>
        <extensions>
          <ns3:TrackPointExtension>
            <ns3:atemp>23.0</ns3:atemp>
          </ns3:TrackPointExtension>
        </extensions>
      </trkpt>
      <trkpt lat="42.63556058518588542938232421875" lon="19.89078168757259845733642578125">
        <ele>1565.199951171875</ele>
        <time>2026-06-16T07:55:04.000Z</time>
        <extensions>
          <ns3:TrackPointExtension>
            <ns3:atemp>22.0</ns3:atemp>
          </ns3:TrackPointExtension>
        </extensions>
      </trkpt>
      <trkpt lat="42.635555975139141082763671875" lon="19.8907502554357051849365234375">
        <ele>1565.4000244140625</ele>
        <time>2026-06-16T07:55:05.000Z</time>
        <extensions>
          <ns3:TrackPointExtension>
            <ns3:atemp>22.0</ns3:atemp>
          </ns3:TrackPointExtension>
        </extensions>
      </trkpt>
      <trkpt lat="42.6355480961501598358154296875" lon="19.890709184110164642333984375">
        <ele>1565.5999755859375</ele>
        <time>2026-06-16T07:55:06.000Z</time>
        <extensions>
          <ns3:TrackPointExtension>
            <ns3:atemp>22.0</ns3:atemp>
          </ns3:TrackPointExtension>
        </extensions>
      </trkpt>
      <trkpt lat="42.63553996570408344268798828125" lon="19.89067263901233673095703125">
        <ele>1565.800048828125</ele>
        <time>2026-06-16T07:55:07.000Z</time>
        <extensions>
          <ns3:TrackPointExtension>
            <ns3:atemp>22.0</ns3:atemp>
          </ns3:TrackPointExtension>
        </extensions>
      </trkpt>
      <trkpt lat="42.63553275726735591888427734375" lon="19.890633411705493927001953125">
        <ele>1566</ele>
        <time>2026-06-16T07:55:08.000Z</time>
        <extensions>
          <ns3:TrackPointExtension>
            <ns3:atemp>22.0</ns3:atemp>
          </ns3:TrackPointExtension>
        </extensions>
      </trkpt>
      <trkpt lat="42.63552077114582061767578125" lon="19.89059343002736568450927734375">
        <ele>1566.199951171875</ele>
        <time>2026-06-16T07:55:09.000Z</time>
        <extensions>
          <ns3:TrackPointExtension>
            <ns3:atemp>22.0</ns3:atemp>
          </ns3:TrackPointExtension>
        </extensions>
      </trkpt>
      <trkpt lat="42.6355095393955707550048828125" lon="19.8905534483492374420166015625">
        <ele>1566.4000244140625</ele>
        <time>2026-06-16T07:55:10.000Z</time>
        <extensions>
          <ns3:TrackPointExtension>
            <ns3:atemp>22.0</ns3:atemp>
          </ns3:TrackPointExtension>
        </extensions>
      </trkpt>
      <trkpt lat="42.63549931347370147705078125" lon="19.8905189149081707000732421875">
        <ele>1566.4000244140625</ele>
        <time>2026-06-16T07:55:11.000Z</time>
        <extensions>
          <ns3:TrackPointExtension>
            <ns3:atemp>22.0</ns3:atemp>
          </ns3:TrackPointExtension>
        </extensions>
      </trkpt>
      <trkpt lat="42.63548598624765872955322265625" lon="19.8904900811612606048583984375">
        <ele>1566.800048828125</ele>
        <time>2026-06-16T07:55:12.000Z</time>
        <extensions>
          <ns3:TrackPointExtension>
            <ns3:atemp>22.0</ns3:atemp>
          </ns3:TrackPointExtension>
        </extensions>
      </trkpt>
      <trkpt lat="42.63547324575483798980712890625" lon="19.8904592357575893402099609375">
        <ele>1567</ele>
        <time>2026-06-16T07:55:13.000Z</time>
        <extensions>
          <ns3:TrackPointExtension>
            <ns3:atemp>22.0</ns3:atemp>
          </ns3:TrackPointExtension>
        </extensions>
      </trkpt>
      <trkpt lat="42.6354602538049221038818359375" lon="19.89042847417294979095458984375">
        <ele>1567.199951171875</ele>
        <time>2026-06-16T07:55:14.000Z</time>
        <extensions>
          <ns3:TrackPointExtension>
            <ns3:atemp>22.0</ns3:atemp>
          </ns3:TrackPointExtension>
        </extensions>
      </trkpt>
      <trkpt lat="42.6354498602449893951416015625" lon="19.890395700931549072265625">
        <ele>1567.199951171875</ele>
        <time>2026-06-16T07:55:15.000Z</time>
        <extensions>
          <ns3:TrackPointExtension>
            <ns3:atemp>22.0</ns3:atemp>
          </ns3:TrackPointExtension>
        </extensions>
      </trkpt>
      <trkpt lat="42.6354330964386463165283203125" lon="19.89036820828914642333984375">
        <ele>1567.4000244140625</ele>
        <time>2026-06-16T07:55:16.000Z</time>
        <extensions>
          <ns3:TrackPointExtension>
            <ns3:atemp>22.0</ns3:atemp>
          </ns3:TrackPointExtension>
        </extensions>
      </trkpt>
      <trkpt lat="42.63541926629841327667236328125" lon="19.89034004509449005126953125">
        <ele>1567.5999755859375</ele>
        <time>2026-06-16T07:55:17.000Z</time>
        <extensions>
          <ns3:TrackPointExtension>
            <ns3:atemp>22.0</ns3:atemp>
          </ns3:TrackPointExtension>
        </extensions>
      </trkpt>
      <trkpt lat="42.6354089565575122833251953125" lon="19.89031188189983367919921875">
        <ele>1567.800048828125</ele>
        <time>2026-06-16T07:55:18.000Z</time>
        <extensions>
          <ns3:TrackPointExtension>
            <ns3:atemp>22.0</ns3:atemp>
          </ns3:TrackPointExtension>
        </extensions>
      </trkpt>
      <trkpt lat="42.63539596460759639739990234375" lon="19.8902848921716213226318359375">
        <ele>1568</ele>
        <time>2026-06-16T07:55:19.000Z</time>
        <extensions>
          <ns3:TrackPointExtension>
            <ns3:atemp>22.0</ns3:atemp>
          </ns3:TrackPointExtension>
        </extensions>
      </trkpt>
      <trkpt lat="42.6353797875344753265380859375" lon="19.890259914100170135498046875">
        <ele>1568.199951171875</ele>
        <time>2026-06-16T07:55:20.000Z</time>
        <extensions>
          <ns3:TrackPointExtension>
            <ns3:atemp>22.0</ns3:atemp>
          </ns3:TrackPointExtension>
        </extensions>
      </trkpt>
      <trkpt lat="42.635356150567531585693359375" lon="19.890232086181640625">
        <ele>1568.4000244140625</ele>
        <time>2026-06-16T07:55:21.000Z</time>
        <extensions>
          <ns3:TrackPointExtension>
            <ns3:atemp>22.0</ns3:atemp>
          </ns3:TrackPointExtension>
        </extensions>
      </trkpt>
      <trkpt lat="42.6353363692760467529296875" lon="19.89020333625376224517822265625">
        <ele>1568.4000244140625</ele>
        <time>2026-06-16T07:55:22.000Z</time>
        <extensions>
          <ns3:TrackPointExtension>
            <ns3:atemp>22.0</ns3:atemp>
          </ns3:TrackPointExtension>
        </extensions>
      </trkpt>
      <trkpt lat="42.6353175938129425048828125" lon="19.89016779698431491851806640625">
        <ele>1568.5999755859375</ele>
        <time>2026-06-16T07:55:23.000Z</time>
        <extensions>
          <ns3:TrackPointExtension>
            <ns3:atemp>22.0</ns3:atemp>
          </ns3:TrackPointExtension>
        </extensions>
      </trkpt>
      <trkpt lat="42.635302841663360595703125" lon="19.89013443700969219207763671875">
        <ele>1568.5999755859375</ele>
        <time>2026-06-16T07:55:24.000Z</time>
        <extensions>
          <ns3:TrackPointExtension>
            <ns3:atemp>22.0</ns3:atemp>
          </ns3:TrackPointExtension>
        </extensions>
      </trkpt>
      <trkpt lat="42.63528616167604923248291015625" lon="19.89010090939700603485107421875">
        <ele>1568.5999755859375</ele>
        <time>2026-06-16T07:55:25.000Z</time>
        <extensions>
          <ns3:TrackPointExtension>
            <ns3:atemp>22.0</ns3:atemp>
          </ns3:TrackPointExtension>
        </extensions>
      </trkpt>
      <trkpt lat="42.6352718286216259002685546875" lon="19.89006469957530498504638671875">
        <ele>1568.800048828125</ele>
        <time>2026-06-16T07:55:26.000Z</time>
        <extensions>
          <ns3:TrackPointExtension>
            <ns3:atemp>22.0</ns3:atemp>
          </ns3:TrackPointExtension>
        </extensions>
      </trkpt>
      <trkpt lat="42.63525716029107570648193359375" lon="19.8900280706584453582763671875">
        <ele>1568.800048828125</ele>
        <time>2026-06-16T07:55:27.000Z</time>
        <extensions>
          <ns3:TrackPointExtension>
            <ns3:atemp>22.0</ns3:atemp>
          </ns3:TrackPointExtension>
        </extensions>
      </trkpt>
      <trkpt lat="42.63524089939892292022705078125" lon="19.88999596796929836273193359375">
        <ele>1569</ele>
        <time>2026-06-16T07:55:28.000Z</time>
        <extensions>
          <ns3:TrackPointExtension>
            <ns3:atemp>22.0</ns3:atemp>
          </ns3:TrackPointExtension>
        </extensions>
      </trkpt>
      <trkpt lat="42.63522815890610218048095703125" lon="19.8899576626718044281005859375">
        <ele>1569</ele>
        <time>2026-06-16T07:55:29.000Z</time>
        <extensions>
          <ns3:TrackPointExtension>
            <ns3:atemp>22.0</ns3:atemp>
          </ns3:TrackPointExtension>
        </extensions>
      </trkpt>
      <trkpt lat="42.635217010974884033203125" lon="19.88992966711521148681640625">
        <ele>1569</ele>
        <time>2026-06-16T07:55:30.000Z</time>
        <extensions>
          <ns3:TrackPointExtension>
            <ns3:atemp>22.0</ns3:atemp>
          </ns3:TrackPointExtension>
        </extensions>
      </trkpt>
      <trkpt lat="42.63520468957722187042236328125" lon="19.88989840261638164520263671875">
        <ele>1569</ele>
        <time>2026-06-16T07:55:31.000Z</time>
        <extensions>
          <ns3:TrackPointExtension>
            <ns3:atemp>22.0</ns3:atemp>
          </ns3:TrackPointExtension>
        </extensions>
      </trkpt>
      <trkpt lat="42.63519463129341602325439453125" lon="19.88987057469785213470458984375">
        <ele>1569</ele>
        <time>2026-06-16T07:55:32.000Z</time>
        <extensions>
          <ns3:TrackPointExtension>
            <ns3:atemp>22.0</ns3:atemp>
          </ns3:TrackPointExtension>
        </extensions>
      </trkpt>
      <trkpt lat="42.63518239371478557586669921875" lon="19.88984174095094203948974609375">
        <ele>1569</ele>
        <time>2026-06-16T07:55:33.000Z</time>
        <extensions>
          <ns3:TrackPointExtension>
            <ns3:atemp>22.0</ns3:atemp>
          </ns3:TrackPointExtension>
        </extensions>
      </trkpt>
      <trkpt lat="42.63516831211745738983154296875" lon="19.88981558941304683685302734375">
        <ele>1569.199951171875</ele>
        <time>2026-06-16T07:55:34.000Z</time>
        <extensions>
          <ns3:TrackPointExtension>
            <ns3:atemp>22.0</ns3:atemp>
          </ns3:TrackPointExtension>
        </extensions>
      </trkpt>
      <trkpt lat="42.635152973234653472900390625" lon="19.8897833190858364105224609375">
        <ele>1569.4000244140625</ele>
        <time>2026-06-16T07:55:35.000Z</time>
        <extensions>
          <ns3:TrackPointExtension>
            <ns3:atemp>22.0</ns3:atemp>
          </ns3:TrackPointExtension>
        </extensions>
      </trkpt>
      <trkpt lat="42.63513931073248386383056640625" lon="19.8897591792047023773193359375">
        <ele>1569.5999755859375</ele>
        <time>2026-06-16T07:55:36.000Z</time>
        <extensions>
          <ns3:TrackPointExtension>
            <ns3:atemp>22.0</ns3:atemp>
          </ns3:TrackPointExtension>
        </extensions>
      </trkpt>
      <trkpt lat="42.63512455858290195465087890625" lon="19.8897326923906803131103515625">
        <ele>1569.800048828125</ele>
        <time>2026-06-16T07:55:37.000Z</time>
        <extensions>
          <ns3:TrackPointExtension>
            <ns3:atemp>22.0</ns3:atemp>
          </ns3:TrackPointExtension>
        </extensions>
      </trkpt>
      <trkpt lat="42.635111398994922637939453125" lon="19.8897102288901805877685546875">
        <ele>1570</ele>
        <time>2026-06-16T07:55:38.000Z</time>
        <extensions>
          <ns3:TrackPointExtension>
            <ns3:atemp>22.0</ns3:atemp>
          </ns3:TrackPointExtension>
        </extensions>
      </trkpt>
      <trkpt lat="42.6351003348827362060546875" lon="19.88967955112457275390625">
        <ele>1570.199951171875</ele>
        <time>2026-06-16T07:55:39.000Z</time>
        <extensions>
          <ns3:TrackPointExtension>
            <ns3:atemp>22.0</ns3:atemp>
          </ns3:TrackPointExtension>
        </extensions>
      </trkpt>
      <trkpt lat="42.63508893549442291259765625" lon="19.88965281285345554351806640625">
        <ele>1570.4000244140625</ele>
        <time>2026-06-16T07:55:40.000Z</time>
        <extensions>
          <ns3:TrackPointExtension>
            <ns3:atemp>22.0</ns3:atemp>
          </ns3:TrackPointExtension>
        </extensions>
      </trkpt>
      <trkpt lat="42.63506974093616008758544921875" lon="19.88962850533425807952880859375">
        <ele>1570.5999755859375</ele>
        <time>2026-06-16T07:55:41.000Z</time>
        <extensions>
          <ns3:TrackPointExtension>
            <ns3:atemp>22.0</ns3:atemp>
          </ns3:TrackPointExtension>
        </extensions>
      </trkpt>
      <trkpt lat="42.63505213893949985504150390625" lon="19.889602102339267730712890625">
        <ele>1570.5999755859375</ele>
        <time>2026-06-16T07:55:42.000Z</time>
        <extensions>
          <ns3:TrackPointExtension>
            <ns3:atemp>22.0</ns3:atemp>
          </ns3:TrackPointExtension>
        </extensions>
      </trkpt>
      <trkpt lat="42.63503395020961761474609375" lon="19.88957083784043788909912109375">
        <ele>1570.800048828125</ele>
        <time>2026-06-16T07:55:43.000Z</time>
        <extensions>
          <ns3:TrackPointExtension>
            <ns3:atemp>22.0</ns3:atemp>
          </ns3:TrackPointExtension>
        </extensions>
      </trkpt>
      <trkpt lat="42.6350103132426738739013671875" lon="19.88953404128551483154296875">
        <ele>1571</ele>
        <time>2026-06-16T07:55:44.000Z</time>
        <extensions>
          <ns3:TrackPointExtension>
            <ns3:atemp>22.0</ns3:atemp>
          </ns3:TrackPointExtension>
        </extensions>
      </trkpt>
      <trkpt lat="42.63498860411345958709716796875" lon="19.889505207538604736328125">
        <ele>1571.199951171875</ele>
        <time>2026-06-16T07:55:45.000Z</time>
        <extensions>
          <ns3:TrackPointExtension>
            <ns3:atemp>22.0</ns3:atemp>
          </ns3:TrackPointExtension>
        </extensions>
      </trkpt>
      <trkpt lat="42.6349650509655475616455078125" lon="19.88947243429720401763916015625">
        <ele>1571.4000244140625</ele>
        <time>2026-06-16T07:55:46.000Z</time>
        <extensions>
          <ns3:TrackPointExtension>
            <ns3:atemp>22.0</ns3:atemp>
          </ns3:TrackPointExtension>
        </extensions>
      </trkpt>
      <trkpt lat="42.63494811952114105224609375" lon="19.8894467018544673919677734375">
        <ele>1571.4000244140625</ele>
        <time>2026-06-16T07:55:47.000Z</time>
        <extensions>
          <ns3:TrackPointExtension>
            <ns3:atemp>22.0</ns3:atemp>
          </ns3:TrackPointExtension>
        </extensions>
      </trkpt>
      <trkpt lat="42.6349315233528614044189453125" lon="19.8894192092120647430419921875">
        <ele>1571.5999755859375</ele>
        <time>2026-06-16T07:55:48.000Z</time>
        <extensions>
          <ns3:TrackPointExtension>
            <ns3:atemp>22.0</ns3:atemp>
          </ns3:TrackPointExtension>
        </extensions>
      </trkpt>
      <trkpt lat="42.6349197886884212493896484375" lon="19.8893876932561397552490234375">
        <ele>1571.800048828125</ele>
        <time>2026-06-16T07:55:49.000Z</time>
        <extensions>
          <ns3:TrackPointExtension>
            <ns3:atemp>22.0</ns3:atemp>
          </ns3:TrackPointExtension>
        </extensions>
      </trkpt>
      <trkpt lat="42.63490696437656879425048828125" lon="19.8893618769943714141845703125">
        <ele>1572</ele>
        <time>2026-06-16T07:55:50.000Z</time>
        <extensions>
          <ns3:TrackPointExtension>
            <ns3:atemp>22.0</ns3:atemp>
          </ns3:TrackPointExtension>
        </extensions>
      </trkpt>
      <trkpt lat="42.63489472679793834686279296875" lon="19.8893380723893642425537109375">
        <ele>1572.199951171875</ele>
        <time>2026-06-16T07:55:51.000Z</time>
        <extensions>
          <ns3:TrackPointExtension>
            <ns3:atemp>22.0</ns3:atemp>
          </ns3:TrackPointExtension>
        </extensions>
      </trkpt>
      <trkpt lat="42.6348798908293247222900390625" lon="19.8893129266798496246337890625">
        <ele>1572.4000244140625</ele>
        <time>2026-06-16T07:55:52.000Z</time>
        <extensions>
          <ns3:TrackPointExtension>
            <ns3:atemp>22.0</ns3:atemp>
          </ns3:TrackPointExtension>
        </extensions>
      </trkpt>
      <trkpt lat="42.63486471958458423614501953125" lon="19.88928669132292270660400390625">
        <ele>1572.800048828125</ele>
        <time>2026-06-16T07:55:53.000Z</time>
        <extensions>
          <ns3:TrackPointExtension>
            <ns3:atemp>22.0</ns3:atemp>
          </ns3:TrackPointExtension>
        </extensions>
      </trkpt>
      <trkpt lat="42.63485449366271495819091796875" lon="19.8892535828053951263427734375">
        <ele>1572.800048828125</ele>
        <time>2026-06-16T07:55:54.000Z</time>
        <extensions>
          <ns3:TrackPointExtension>
            <ns3:atemp>22.0</ns3:atemp>
          </ns3:TrackPointExtension>
        </extensions>
      </trkpt>
      <trkpt lat="42.63483571819961071014404296875" lon="19.88922600634396076202392578125">
        <ele>1573</ele>
        <time>2026-06-16T07:55:55.000Z</time>
        <extensions>
          <ns3:TrackPointExtension>
            <ns3:atemp>22.0</ns3:atemp>
          </ns3:TrackPointExtension>
        </extensions>
      </trkpt>
      <trkpt lat="42.63482230715453624725341796875" lon="19.8891979269683361053466796875">
        <ele>1573.199951171875</ele>
        <time>2026-06-16T07:55:56.000Z</time>
        <extensions>
          <ns3:TrackPointExtension>
            <ns3:atemp>22.0</ns3:atemp>
          </ns3:TrackPointExtension>
        </extensions>
      </trkpt>
      <trkpt lat="42.63481107540428638458251953125" lon="19.8891714401543140411376953125">
        <ele>1573.199951171875</ele>
        <time>2026-06-16T07:55:57.000Z</time>
        <extensions>
          <ns3:TrackPointExtension>
            <ns3:atemp>22.0</ns3:atemp>
          </ns3:TrackPointExtension>
        </extensions>
      </trkpt>
      <trkpt lat="42.63479766435921192169189453125" lon="19.88913916982710361480712890625">
        <ele>1573.4000244140625</ele>
        <time>2026-06-16T07:55:58.000Z</time>
        <extensions>
          <ns3:TrackPointExtension>
            <ns3:atemp>22.0</ns3:atemp>
          </ns3:TrackPointExtension>
        </extensions>
      </trkpt>
      <trkpt lat="42.63478408567607402801513671875" lon="19.889104552567005157470703125">
        <ele>1573.4000244140625</ele>
        <time>2026-06-16T07:55:59.000Z</time>
        <extensions>
          <ns3:TrackPointExtension>
            <ns3:atemp>22.0</ns3:atemp>
          </ns3:TrackPointExtension>
        </extensions>
      </trkpt>
      <trkpt lat="42.6347726024687290191650390625" lon="19.8890735395252704620361328125">
        <ele>1573.5999755859375</ele>
        <time>2026-06-16T07:56:00.000Z</time>
        <extensions>
          <ns3:TrackPointExtension>
            <ns3:atemp>22.0</ns3:atemp>
          </ns3:TrackPointExtension>
        </extensions>
      </trkpt>
      <trkpt lat="42.634761370718479156494140625" lon="19.88904160447418689727783203125">
        <ele>1573.5999755859375</ele>
        <time>2026-06-16T07:56:01.000Z</time>
        <extensions>
          <ns3:TrackPointExtension>
            <ns3:atemp>22.0</ns3:atemp>
          </ns3:TrackPointExtension>
        </extensions>
      </trkpt>
      <trkpt lat="42.63475391082465648651123046875" lon="19.88900723867118358612060546875">
        <ele>1573.5999755859375</ele>
        <time>2026-06-16T07:56:02.000Z</time>
        <extensions>
          <ns3:TrackPointExtension>
            <ns3:atemp>22.0</ns3:atemp>
          </ns3:TrackPointExtension>
        </extensions>
      </trkpt>
      <trkpt lat="42.63474561274051666259765625" lon="19.88896516151726245880126953125">
        <ele>1573.800048828125</ele>
        <time>2026-06-16T07:56:03.000Z</time>
        <extensions>
          <ns3:TrackPointExtension>
            <ns3:atemp>22.0</ns3:atemp>
          </ns3:TrackPointExtension>
        </extensions>
      </trkpt>
      <trkpt lat="42.634735889732837677001953125" lon="19.888923503458499908447265625">
        <ele>1574</ele>
        <time>2026-06-16T07:56:04.000Z</time>
        <extensions>
          <ns3:TrackPointExtension>
            <ns3:atemp>22.0</ns3:atemp>
          </ns3:TrackPointExtension>
        </extensions>
      </trkpt>
      <trkpt lat="42.63472993858158588409423828125" lon="19.88889031112194061279296875">
        <ele>1574.199951171875</ele>
        <time>2026-06-16T07:56:05.000Z</time>
        <extensions>
          <ns3:TrackPointExtension>
            <ns3:atemp>22.0</ns3:atemp>
          </ns3:TrackPointExtension>
        </extensions>
      </trkpt>
      <trkpt lat="42.6347233168780803680419921875" lon="19.8888586275279521942138671875">
        <ele>1574.4000244140625</ele>
        <time>2026-06-16T07:56:06.000Z</time>
        <extensions>
          <ns3:TrackPointExtension>
            <ns3:atemp>22.0</ns3:atemp>
          </ns3:TrackPointExtension>
        </extensions>
      </trkpt>
      <trkpt lat="42.63472415506839752197265625" lon="19.888826943933963775634765625">
        <ele>1574.4000244140625</ele>
        <time>2026-06-16T07:56:07.000Z</time>
        <extensions>
          <ns3:TrackPointExtension>
            <ns3:atemp>22.0</ns3:atemp>
          </ns3:TrackPointExtension>
        </extensions>
      </trkpt>
      <trkpt lat="42.63471954502165317535400390625" lon="19.88879567943513393402099609375">
        <ele>1574.5999755859375</ele>
        <time>2026-06-16T07:56:08.000Z</time>
        <extensions>
          <ns3:TrackPointExtension>
            <ns3:atemp>22.0</ns3:atemp>
          </ns3:TrackPointExtension>
        </extensions>
      </trkpt>
      <trkpt lat="42.6347135938704013824462890625" lon="19.88875888288021087646484375">
        <ele>1574.800048828125</ele>
        <time>2026-06-16T07:56:09.000Z</time>
        <extensions>
          <ns3:TrackPointExtension>
            <ns3:atemp>22.0</ns3:atemp>
          </ns3:TrackPointExtension>
        </extensions>
      </trkpt>
      <trkpt lat="42.63470831327140331268310546875" lon="19.88872476853430271148681640625">
        <ele>1575</ele>
        <time>2026-06-16T07:56:10.000Z</time>
        <extensions>
          <ns3:TrackPointExtension>
            <ns3:atemp>22.0</ns3:atemp>
          </ns3:TrackPointExtension>
        </extensions>
      </trkpt>
      <trkpt lat="42.6347015239298343658447265625" lon="19.88868436776101589202880859375">
        <ele>1575.4000244140625</ele>
        <time>2026-06-16T07:56:11.000Z</time>
        <extensions>
          <ns3:TrackPointExtension>
            <ns3:atemp>22.0</ns3:atemp>
          </ns3:TrackPointExtension>
        </extensions>
      </trkpt>
      <trkpt lat="42.63468937017023563385009765625" lon="19.88864614628255367279052734375">
        <ele>1575.5999755859375</ele>
        <time>2026-06-16T07:56:12.000Z</time>
        <extensions>
          <ns3:TrackPointExtension>
            <ns3:atemp>22.0</ns3:atemp>
          </ns3:TrackPointExtension>
        </extensions>
      </trkpt>
      <trkpt lat="42.634685933589935302734375" lon="19.88860842771828174591064453125">
        <ele>1575.800048828125</ele>
        <time>2026-06-16T07:56:13.000Z</time>
        <extensions>
          <ns3:TrackPointExtension>
            <ns3:atemp>22.0</ns3:atemp>
          </ns3:TrackPointExtension>
        </extensions>
      </trkpt>
      <trkpt lat="42.63467696495354175567626953125" lon="19.8885632492601871490478515625">
        <ele>1576</ele>
        <time>2026-06-16T07:56:14.000Z</time>
        <extensions>
          <ns3:TrackPointExtension>
            <ns3:atemp>22.0</ns3:atemp>
          </ns3:TrackPointExtension>
        </extensions>
      </trkpt>
      <trkpt lat="42.63467310927808284759521484375" lon="19.88853030838072299957275390625">
        <ele>1576.199951171875</ele>
        <time>2026-06-16T07:56:15.000Z</time>
        <extensions>
          <ns3:TrackPointExtension>
            <ns3:atemp>22.0</ns3:atemp>
          </ns3:TrackPointExtension>
        </extensions>
      </trkpt>
      <trkpt lat="42.6346619613468647003173828125" lon="19.8884938471019268035888671875">
        <ele>1576.199951171875</ele>
        <time>2026-06-16T07:56:16.000Z</time>
        <extensions>
          <ns3:TrackPointExtension>
            <ns3:atemp>22.0</ns3:atemp>
          </ns3:TrackPointExtension>
        </extensions>
      </trkpt>
      <trkpt lat="42.63466170988976955413818359375" lon="19.88846249878406524658203125">
        <ele>1576.4000244140625</ele>
        <time>2026-06-16T07:56:17.000Z</time>
        <extensions>
          <ns3:TrackPointExtension>
            <ns3:atemp>22.0</ns3:atemp>
          </ns3:TrackPointExtension>
        </extensions>
      </trkpt>
      <trkpt lat="42.63466238044202327728271484375" lon="19.88842285238206386566162109375">
        <ele>1576.5999755859375</ele>
        <time>2026-06-16T07:56:18.000Z</time>
        <extensions>
          <ns3:TrackPointExtension>
            <ns3:atemp>22.0</ns3:atemp>
          </ns3:TrackPointExtension>
        </extensions>
      </trkpt>
      <trkpt lat="42.63465978205204010009765625" lon="19.88838597200810909271240234375">
        <ele>1576.5999755859375</ele>
        <time>2026-06-16T07:56:19.000Z</time>
        <extensions>
          <ns3:TrackPointExtension>
            <ns3:atemp>22.0</ns3:atemp>
          </ns3:TrackPointExtension>
        </extensions>
      </trkpt>
      <trkpt lat="42.63465014286339282989501953125" lon="19.88834925927221775054931640625">
        <ele>1576.800048828125</ele>
        <time>2026-06-16T07:56:20.000Z</time>
        <extensions>
          <ns3:TrackPointExtension>
            <ns3:atemp>22.0</ns3:atemp>
          </ns3:TrackPointExtension>
        </extensions>
      </trkpt>
      <trkpt lat="42.6346416771411895751953125" lon="19.88832042552530765533447265625">
        <ele>1577</ele>
        <time>2026-06-16T07:56:21.000Z</time>
        <extensions>
          <ns3:TrackPointExtension>
            <ns3:atemp>22.0</ns3:atemp>
          </ns3:TrackPointExtension>
        </extensions>
      </trkpt>
      <trkpt lat="42.63463723473250865936279296875" lon="19.88828547298908233642578125">
        <ele>1577</ele>
        <time>2026-06-16T07:56:22.000Z</time>
        <extensions>
          <ns3:TrackPointExtension>
            <ns3:atemp>22.0</ns3:atemp>
          </ns3:TrackPointExtension>
        </extensions>
      </trkpt>
      <trkpt lat="42.6346394978463649749755859375" lon="19.88825730979442596435546875">
        <ele>1577.199951171875</ele>
        <time>2026-06-16T07:56:23.000Z</time>
        <extensions>
          <ns3:TrackPointExtension>
            <ns3:atemp>22.0</ns3:atemp>
          </ns3:TrackPointExtension>
        </extensions>
      </trkpt>
      <trkpt lat="42.6346364803612232208251953125" lon="19.8882252909243106842041015625">
        <ele>1577.4000244140625</ele>
        <time>2026-06-16T07:56:24.000Z</time>
        <extensions>
          <ns3:TrackPointExtension>
            <ns3:atemp>22.0</ns3:atemp>
          </ns3:TrackPointExtension>
        </extensions>
      </trkpt>
      <trkpt lat="42.634632289409637451171875" lon="19.8881922662258148193359375">
        <ele>1577.5999755859375</ele>
        <time>2026-06-16T07:56:25.000Z</time>
        <extensions>
          <ns3:TrackPointExtension>
            <ns3:atemp>22.0</ns3:atemp>
          </ns3:TrackPointExtension>
        </extensions>
      </trkpt>
      <trkpt lat="42.6346270926296710968017578125" lon="19.88815915770828723907470703125">
        <ele>1577.5999755859375</ele>
        <time>2026-06-16T07:56:26.000Z</time>
        <extensions>
          <ns3:TrackPointExtension>
            <ns3:atemp>22.0</ns3:atemp>
          </ns3:TrackPointExtension>
        </extensions>
      </trkpt>
      <trkpt lat="42.634627930819988250732421875" lon="19.88812210969626903533935546875">
        <ele>1577.5999755859375</ele>
        <time>2026-06-16T07:56:27.000Z</time>
        <extensions>
          <ns3:TrackPointExtension>
            <ns3:atemp>22.0</ns3:atemp>
          </ns3:TrackPointExtension>
        </extensions>
      </trkpt>
      <trkpt lat="42.63462415896356105804443359375" lon="19.88808053545653820037841796875">
        <ele>1577.800048828125</ele>
        <time>2026-06-16T07:56:28.000Z</time>
        <extensions>
          <ns3:TrackPointExtension>
            <ns3:atemp>22.0</ns3:atemp>
          </ns3:TrackPointExtension>
        </extensions>
      </trkpt>
      <trkpt lat="42.6346254162490367889404296875" lon="19.88804005086421966552734375">
        <ele>1577.800048828125</ele>
        <time>2026-06-16T07:56:29.000Z</time>
        <extensions>
          <ns3:TrackPointExtension>
            <ns3:atemp>22.0</ns3:atemp>
          </ns3:TrackPointExtension>
        </extensions>
      </trkpt>
      <trkpt lat="42.63462717644870281219482421875" lon="19.8879999853670597076416015625">
        <ele>1577.800048828125</ele>
        <time>2026-06-16T07:56:30.000Z</time>
        <extensions>
          <ns3:TrackPointExtension>
            <ns3:atemp>22.0</ns3:atemp>
          </ns3:TrackPointExtension>
        </extensions>
      </trkpt>
      <trkpt lat="42.6346254162490367889404296875" lon="19.88796486519277095794677734375">
        <ele>1577.800048828125</ele>
        <time>2026-06-16T07:56:31.000Z</time>
        <extensions>
          <ns3:TrackPointExtension>
            <ns3:atemp>22.0</ns3:atemp>
          </ns3:TrackPointExtension>
        </extensions>
      </trkpt>
      <trkpt lat="42.6346210576593875885009765625" lon="19.88793066702783107757568359375">
        <ele>1578</ele>
        <time>2026-06-16T07:56:32.000Z</time>
        <extensions>
          <ns3:TrackPointExtension>
            <ns3:atemp>22.0</ns3:atemp>
          </ns3:TrackPointExtension>
        </extensions>
      </trkpt>
      <trkpt lat="42.63461594469845294952392578125" lon="19.8879039287567138671875">
        <ele>1578</ele>
        <time>2026-06-16T07:56:33.000Z</time>
        <extensions>
          <ns3:TrackPointExtension>
            <ns3:atemp>22.0</ns3:atemp>
          </ns3:TrackPointExtension>
        </extensions>
      </trkpt>
      <trkpt lat="42.634613513946533203125" lon="19.88787651993334293365478515625">
        <ele>1578.199951171875</ele>
        <time>2026-06-16T07:56:34.000Z</time>
        <extensions>
          <ns3:TrackPointExtension>
            <ns3:atemp>22.0</ns3:atemp>
          </ns3:TrackPointExtension>
        </extensions>
      </trkpt>
      <trkpt lat="42.6346073113381862640380859375" lon="19.8878444172441959381103515625">
        <ele>1578.199951171875</ele>
        <time>2026-06-16T07:56:35.000Z</time>
        <extensions>
          <ns3:TrackPointExtension>
            <ns3:atemp>22.0</ns3:atemp>
          </ns3:TrackPointExtension>
        </extensions>
      </trkpt>
      <trkpt lat="42.634605802595615386962890625" lon="19.887813739478588104248046875">
        <ele>1578.4000244140625</ele>
        <time>2026-06-16T07:56:36.000Z</time>
        <extensions>
          <ns3:TrackPointExtension>
            <ns3:atemp>22.0</ns3:atemp>
          </ns3:TrackPointExtension>
        </extensions>
      </trkpt>
      <trkpt lat="42.63459800742566585540771484375" lon="19.88778582774102687835693359375">
        <ele>1578.4000244140625</ele>
        <time>2026-06-16T07:56:37.000Z</time>
        <extensions>
          <ns3:TrackPointExtension>
            <ns3:atemp>22.0</ns3:atemp>
          </ns3:TrackPointExtension>
        </extensions>
      </trkpt>
      <trkpt lat="42.63458761386573314666748046875" lon="19.88775665871798992156982421875">
        <ele>1578.5999755859375</ele>
        <time>2026-06-16T07:56:38.000Z</time>
        <extensions>
          <ns3:TrackPointExtension>
            <ns3:atemp>22.0</ns3:atemp>
          </ns3:TrackPointExtension>
        </extensions>
      </trkpt>
      <trkpt lat="42.63458241708576679229736328125" lon="19.88772547803819179534912109375">
        <ele>1578.800048828125</ele>
        <time>2026-06-16T07:56:39.000Z</time>
        <extensions>
          <ns3:TrackPointExtension>
            <ns3:atemp>22.0</ns3:atemp>
          </ns3:TrackPointExtension>
        </extensions>
      </trkpt>
      <trkpt lat="42.63457219116389751434326171875" lon="19.887689687311649322509765625">
        <ele>1579</ele>
        <time>2026-06-16T07:56:40.000Z</time>
        <extensions>
          <ns3:TrackPointExtension>
            <ns3:atemp>22.0</ns3:atemp>
          </ns3:TrackPointExtension>
        </extensions>
      </trkpt>
      <trkpt lat="42.634554840624332427978515625" lon="19.88765322603285312652587890625">
        <ele>1579.199951171875</ele>
        <time>2026-06-16T07:56:41.000Z</time>
        <extensions>
          <ns3:TrackPointExtension>
            <ns3:atemp>22.0</ns3:atemp>
          </ns3:TrackPointExtension>
        </extensions>
      </trkpt>
      <trkpt lat="42.6345382444560527801513671875" lon="19.887616597115993499755859375">
        <ele>1579.199951171875</ele>
        <time>2026-06-16T07:56:42.000Z</time>
        <extensions>
          <ns3:TrackPointExtension>
            <ns3:atemp>22.0</ns3:atemp>
          </ns3:TrackPointExtension>
        </extensions>
      </trkpt>
      <trkpt lat="42.63451762497425079345703125" lon="19.8875834047794342041015625">
        <ele>1579.4000244140625</ele>
        <time>2026-06-16T07:56:43.000Z</time>
        <extensions>
          <ns3:TrackPointExtension>
            <ns3:atemp>22.0</ns3:atemp>
          </ns3:TrackPointExtension>
        </extensions>
      </trkpt>
      <trkpt lat="42.63450153172016143798828125" lon="19.88754996098577976226806640625">
        <ele>1579.5999755859375</ele>
        <time>2026-06-16T07:56:44.000Z</time>
        <extensions>
          <ns3:TrackPointExtension>
            <ns3:atemp>22.0</ns3:atemp>
          </ns3:TrackPointExtension>
        </extensions>
      </trkpt>
      <trkpt lat="42.634483091533184051513671875" lon="19.88752112723886966705322265625">
        <ele>1579.5999755859375</ele>
        <time>2026-06-16T07:56:45.000Z</time>
        <extensions>
          <ns3:TrackPointExtension>
            <ns3:atemp>22.0</ns3:atemp>
          </ns3:TrackPointExtension>
        </extensions>
      </trkpt>
      <trkpt lat="42.634460963308811187744140625" lon="19.88749246113002300262451171875">
        <ele>1579.5999755859375</ele>
        <time>2026-06-16T07:56:46.000Z</time>
        <extensions>
          <ns3:TrackPointExtension>
            <ns3:atemp>22.0</ns3:atemp>
          </ns3:TrackPointExtension>
        </extensions>
      </trkpt>
      <trkpt lat="42.634441517293453216552734375" lon="19.887471087276935577392578125">
        <ele>1579.800048828125</ele>
        <time>2026-06-16T07:56:47.000Z</time>
        <extensions>
          <ns3:TrackPointExtension>
            <ns3:atemp>22.0</ns3:atemp>
          </ns3:TrackPointExtension>
        </extensions>
      </trkpt>
      <trkpt lat="42.634418718516826629638671875" lon="19.88745943643152713775634765625">
        <ele>1579.800048828125</ele>
        <time>2026-06-16T07:56:48.000Z</time>
        <extensions>
          <ns3:TrackPointExtension>
            <ns3:atemp>22.0</ns3:atemp>
          </ns3:TrackPointExtension>
        </extensions>
      </trkpt>
      <trkpt lat="42.63439935632050037384033203125" lon="19.88744770176708698272705078125">
        <ele>1579.800048828125</ele>
        <time>2026-06-16T07:56:49.000Z</time>
        <extensions>
          <ns3:TrackPointExtension>
            <ns3:atemp>22.0</ns3:atemp>
          </ns3:TrackPointExtension>
        </extensions>
      </trkpt>
      <trkpt lat="42.6343813352286815643310546875" lon="19.8874430917203426361083984375">
        <ele>1580</ele>
        <time>2026-06-16T07:56:50.000Z</time>
        <extensions>
          <ns3:TrackPointExtension>
            <ns3:atemp>22.0</ns3:atemp>
          </ns3:TrackPointExtension>
        </extensions>
      </trkpt>
      <trkpt lat="42.63436029665172100067138671875" lon="19.88743655383586883544921875">
        <ele>1580.199951171875</ele>
        <time>2026-06-16T07:56:51.000Z</time>
        <extensions>
          <ns3:TrackPointExtension>
            <ns3:atemp>22.0</ns3:atemp>
          </ns3:TrackPointExtension>
        </extensions>
      </trkpt>
      <trkpt lat="42.63434034772217273712158203125" lon="19.88743294961750507354736328125">
        <ele>1580.4000244140625</ele>
        <time>2026-06-16T07:56:52.000Z</time>
        <extensions>
          <ns3:TrackPointExtension>
            <ns3:atemp>22.0</ns3:atemp>
          </ns3:TrackPointExtension>
        </extensions>
      </trkpt>
      <trkpt lat="42.63431872241199016571044921875" lon="19.8874296806752681732177734375">
        <ele>1580.5999755859375</ele>
        <time>2026-06-16T07:56:53.000Z</time>
        <extensions>
          <ns3:TrackPointExtension>
            <ns3:atemp>22.0</ns3:atemp>
          </ns3:TrackPointExtension>
        </extensions>
      </trkpt>
      <trkpt lat="42.63429810293018817901611328125" lon="19.887429513037204742431640625">
        <ele>1580.800048828125</ele>
        <time>2026-06-16T07:56:54.000Z</time>
        <extensions>
          <ns3:TrackPointExtension>
            <ns3:atemp>22.0</ns3:atemp>
          </ns3:TrackPointExtension>
        </extensions>
      </trkpt>
      <trkpt lat="42.634276561439037322998046875" lon="19.88742423243820667266845703125">
        <ele>1580.800048828125</ele>
        <time>2026-06-16T07:56:55.000Z</time>
        <extensions>
          <ns3:TrackPointExtension>
            <ns3:atemp>22.0</ns3:atemp>
          </ns3:TrackPointExtension>
        </extensions>
      </trkpt>
      <trkpt lat="42.63425535522401332855224609375" lon="19.88742188550531864166259765625">
        <ele>1581</ele>
        <time>2026-06-16T07:56:56.000Z</time>
        <extensions>
          <ns3:TrackPointExtension>
            <ns3:atemp>22.0</ns3:atemp>
          </ns3:TrackPointExtension>
        </extensions>
      </trkpt>
      <trkpt lat="42.63423331081867218017578125" lon="19.88742406480014324188232421875">
        <ele>1581.199951171875</ele>
        <time>2026-06-16T07:56:57.000Z</time>
        <extensions>
          <ns3:TrackPointExtension>
            <ns3:atemp>22.0</ns3:atemp>
          </ns3:TrackPointExtension>
        </extensions>
      </trkpt>
      <trkpt lat="42.6342130266129970550537109375" lon="19.8874206282198429107666015625">
        <ele>1581.199951171875</ele>
        <time>2026-06-16T07:56:58.000Z</time>
        <extensions>
          <ns3:TrackPointExtension>
            <ns3:atemp>22.0</ns3:atemp>
          </ns3:TrackPointExtension>
        </extensions>
      </trkpt>
      <trkpt lat="42.63418695889413356781005859375" lon="19.88742649555206298828125">
        <ele>1581.4000244140625</ele>
        <time>2026-06-16T07:56:59.000Z</time>
        <extensions>
          <ns3:TrackPointExtension>
            <ns3:atemp>22.0</ns3:atemp>
          </ns3:TrackPointExtension>
        </extensions>
      </trkpt>
      <trkpt lat="42.63416382484138011932373046875" lon="19.88742825575172901153564453125">
        <ele>1581.4000244140625</ele>
        <time>2026-06-16T07:57:00.000Z</time>
        <extensions>
          <ns3:TrackPointExtension>
            <ns3:atemp>22.0</ns3:atemp>
          </ns3:TrackPointExtension>
        </extensions>
      </trkpt>
      <trkpt lat="42.6341412775218486785888671875" lon="19.8874280042946338653564453125">
        <ele>1581.5999755859375</ele>
        <time>2026-06-16T07:57:01.000Z</time>
        <extensions>
          <ns3:TrackPointExtension>
            <ns3:atemp>22.0</ns3:atemp>
          </ns3:TrackPointExtension>
        </extensions>
      </trkpt>
      <trkpt lat="42.6341198198497295379638671875" lon="19.8874278366565704345703125">
        <ele>1581.5999755859375</ele>
        <time>2026-06-16T07:57:02.000Z</time>
        <extensions>
          <ns3:TrackPointExtension>
            <ns3:atemp>22.0</ns3:atemp>
          </ns3:TrackPointExtension>
        </extensions>
      </trkpt>
      <trkpt lat="42.63409609906375408172607421875" lon="19.88743177615106105804443359375">
        <ele>1581.800048828125</ele>
        <time>2026-06-16T07:57:03.000Z</time>
        <extensions>
          <ns3:TrackPointExtension>
            <ns3:atemp>22.0</ns3:atemp>
          </ns3:TrackPointExtension>
        </extensions>
      </trkpt>
      <trkpt lat="42.6340728811919689178466796875" lon="19.8874340392649173736572265625">
        <ele>1581.800048828125</ele>
        <time>2026-06-16T07:57:04.000Z</time>
        <extensions>
          <ns3:TrackPointExtension>
            <ns3:atemp>22.0</ns3:atemp>
          </ns3:TrackPointExtension>
        </extensions>
      </trkpt>
      <trkpt lat="42.63404916040599346160888671875" lon="19.8874427564442157745361328125">
        <ele>1582</ele>
        <time>2026-06-16T07:57:05.000Z</time>
        <extensions>
          <ns3:TrackPointExtension>
            <ns3:atemp>22.0</ns3:atemp>
          </ns3:TrackPointExtension>
        </extensions>
      </trkpt>
      <trkpt lat="42.6340222544968128204345703125" lon="19.8874464444816112518310546875">
        <ele>1582</ele>
        <time>2026-06-16T07:57:06.000Z</time>
        <extensions>
          <ns3:TrackPointExtension>
            <ns3:atemp>22.0</ns3:atemp>
          </ns3:TrackPointExtension>
        </extensions>
      </trkpt>
      <trkpt lat="42.63400021009147167205810546875" lon="19.88744803704321384429931640625">
        <ele>1582.199951171875</ele>
        <time>2026-06-16T07:57:07.000Z</time>
        <extensions>
          <ns3:TrackPointExtension>
            <ns3:atemp>22.0</ns3:atemp>
          </ns3:TrackPointExtension>
        </extensions>
      </trkpt>
      <trkpt lat="42.63397355563938617706298828125" lon="19.887448288500308990478515625">
        <ele>1582.199951171875</ele>
        <time>2026-06-16T07:57:08.000Z</time>
        <extensions>
          <ns3:TrackPointExtension>
            <ns3:atemp>22.0</ns3:atemp>
          </ns3:TrackPointExtension>
        </extensions>
      </trkpt>
      <trkpt lat="42.63394606299698352813720703125" lon="19.8874474503099918365478515625">
        <ele>1582.4000244140625</ele>
        <time>2026-06-16T07:57:09.000Z</time>
        <extensions>
          <ns3:TrackPointExtension>
            <ns3:atemp>22.0</ns3:atemp>
          </ns3:TrackPointExtension>
        </extensions>
      </trkpt>
      <trkpt lat="42.63391437940299510955810546875" lon="19.88744686357676982879638671875">
        <ele>1582.4000244140625</ele>
        <time>2026-06-16T07:57:10.000Z</time>
        <extensions>
          <ns3:TrackPointExtension>
            <ns3:atemp>22.0</ns3:atemp>
          </ns3:TrackPointExtension>
        </extensions>
      </trkpt>
      <trkpt lat="42.63388789258897304534912109375" lon="19.8874427564442157745361328125">
        <ele>1582.4000244140625</ele>
        <time>2026-06-16T07:57:11.000Z</time>
        <extensions>
          <ns3:TrackPointExtension>
            <ns3:atemp>22.0</ns3:atemp>
          </ns3:TrackPointExtension>
        </extensions>
      </trkpt>
      <trkpt lat="42.6338583044707775115966796875" lon="19.88744719885289669036865234375">
        <ele>1582.4000244140625</ele>
        <time>2026-06-16T07:57:12.000Z</time>
        <extensions>
          <ns3:TrackPointExtension>
            <ns3:atemp>22.0</ns3:atemp>
          </ns3:TrackPointExtension>
        </extensions>
      </trkpt>
      <trkpt lat="42.6338247768580913543701171875" lon="19.8874394036829471588134765625">
        <ele>1582.199951171875</ele>
        <time>2026-06-16T07:57:13.000Z</time>
        <extensions>
          <ns3:TrackPointExtension>
            <ns3:atemp>22.0</ns3:atemp>
          </ns3:TrackPointExtension>
        </extensions>
      </trkpt>
      <trkpt lat="42.63379351235926151275634765625" lon="19.88743965514004230499267578125">
        <ele>1582.199951171875</ele>
        <time>2026-06-16T07:57:14.000Z</time>
        <extensions>
          <ns3:TrackPointExtension>
            <ns3:atemp>22.0</ns3:atemp>
          </ns3:TrackPointExtension>
        </extensions>
      </trkpt>
      <trkpt lat="42.6337664388120174407958984375" lon="19.8874439299106597900390625">
        <ele>1582.199951171875</ele>
        <time>2026-06-16T07:57:15.000Z</time>
        <extensions>
          <ns3:TrackPointExtension>
            <ns3:atemp>22.0</ns3:atemp>
          </ns3:TrackPointExtension>
        </extensions>
      </trkpt>
      <trkpt lat="42.63373902998864650726318359375" lon="19.8874377273023128509521484375">
        <ele>1582.199951171875</ele>
        <time>2026-06-16T07:57:16.000Z</time>
        <extensions>
          <ns3:TrackPointExtension>
            <ns3:atemp>22.0</ns3:atemp>
          </ns3:TrackPointExtension>
        </extensions>
      </trkpt>
      <trkpt lat="42.6337111182510852813720703125" lon="19.8874330334365367889404296875">
        <ele>1582.4000244140625</ele>
        <time>2026-06-16T07:57:17.000Z</time>
        <extensions>
          <ns3:TrackPointExtension>
            <ns3:atemp>22.0</ns3:atemp>
          </ns3:TrackPointExtension>
        </extensions>
      </trkpt>
      <trkpt lat="42.6336879841983318328857421875" lon="19.88743026740849018096923828125">
        <ele>1582.4000244140625</ele>
        <time>2026-06-16T07:57:18.000Z</time>
        <extensions>
          <ns3:TrackPointExtension>
            <ns3:atemp>22.0</ns3:atemp>
          </ns3:TrackPointExtension>
        </extensions>
      </trkpt>
      <trkpt lat="42.63366334140300750732421875" lon="19.88742926158010959625244140625">
        <ele>1582.5999755859375</ele>
        <time>2026-06-16T07:57:19.000Z</time>
        <extensions>
          <ns3:TrackPointExtension>
            <ns3:atemp>22.0</ns3:atemp>
          </ns3:TrackPointExtension>
        </extensions>
      </trkpt>
      <trkpt lat="42.633637525141239166259765625" lon="19.88742808811366558074951171875">
        <ele>1582.5999755859375</ele>
        <time>2026-06-16T07:57:20.000Z</time>
        <extensions>
          <ns3:TrackPointExtension>
            <ns3:atemp>22.0</ns3:atemp>
          </ns3:TrackPointExtension>
        </extensions>
      </trkpt>
      <trkpt lat="42.63361313380300998687744140625" lon="19.887424819171428680419921875">
        <ele>1582.800048828125</ele>
        <time>2026-06-16T07:57:21.000Z</time>
        <extensions>
          <ns3:TrackPointExtension>
            <ns3:atemp>22.0</ns3:atemp>
          </ns3:TrackPointExtension>
        </extensions>
      </trkpt>
      <trkpt lat="42.633589245378971099853515625" lon="19.88742322660982608795166015625">
        <ele>1583</ele>
        <time>2026-06-16T07:57:22.000Z</time>
        <extensions>
          <ns3:TrackPointExtension>
            <ns3:atemp>22.0</ns3:atemp>
          </ns3:TrackPointExtension>
        </extensions>
      </trkpt>
      <trkpt lat="42.633569128811359405517578125" lon="19.88741886802017688751220703125">
        <ele>1583</ele>
        <time>2026-06-16T07:57:23.000Z</time>
        <extensions>
          <ns3:TrackPointExtension>
            <ns3:atemp>22.0</ns3:atemp>
          </ns3:TrackPointExtension>
        </extensions>
      </trkpt>
      <trkpt lat="42.6335458271205425262451171875" lon="19.88741517998278141021728515625">
        <ele>1583.199951171875</ele>
        <time>2026-06-16T07:57:24.000Z</time>
        <extensions>
          <ns3:TrackPointExtension>
            <ns3:atemp>22.0</ns3:atemp>
          </ns3:TrackPointExtension>
        </extensions>
      </trkpt>
      <trkpt lat="42.63352160342037677764892578125" lon="19.88740880973637104034423828125">
        <ele>1583.4000244140625</ele>
        <time>2026-06-16T07:57:25.000Z</time>
        <extensions>
          <ns3:TrackPointExtension>
            <ns3:atemp>22.0</ns3:atemp>
          </ns3:TrackPointExtension>
        </extensions>
      </trkpt>
      <trkpt lat="42.6334985531866550445556640625" lon="19.88740026019513607025146484375">
        <ele>1583.5999755859375</ele>
        <time>2026-06-16T07:57:26.000Z</time>
        <extensions>
          <ns3:TrackPointExtension>
            <ns3:atemp>22.0</ns3:atemp>
          </ns3:TrackPointExtension>
        </extensions>
      </trkpt>
      <trkpt lat="42.63347097672522068023681640625" lon="19.887393973767757415771484375">
        <ele>1583.800048828125</ele>
        <time>2026-06-16T07:57:27.000Z</time>
        <extensions>
          <ns3:TrackPointExtension>
            <ns3:atemp>22.0</ns3:atemp>
          </ns3:TrackPointExtension>
        </extensions>
      </trkpt>
      <trkpt lat="42.63344314880669116973876953125" lon="19.88738483749330043792724609375">
        <ele>1584</ele>
        <time>2026-06-16T07:57:28.000Z</time>
        <extensions>
          <ns3:TrackPointExtension>
            <ns3:atemp>22.0</ns3:atemp>
          </ns3:TrackPointExtension>
        </extensions>
      </trkpt>
      <trkpt lat="42.6334132254123687744140625" lon="19.88737486302852630615234375">
        <ele>1584.4000244140625</ele>
        <time>2026-06-16T07:57:29.000Z</time>
        <extensions>
          <ns3:TrackPointExtension>
            <ns3:atemp>22.0</ns3:atemp>
          </ns3:TrackPointExtension>
        </extensions>
      </trkpt>
      <trkpt lat="42.6333882473409175872802734375" lon="19.88736153580248355865478515625">
        <ele>1584.4000244140625</ele>
        <time>2026-06-16T07:57:30.000Z</time>
        <extensions>
          <ns3:TrackPointExtension>
            <ns3:atemp>21.0</ns3:atemp>
          </ns3:TrackPointExtension>
        </extensions>
      </trkpt>
      <trkpt lat="42.63336955569684505462646484375" lon="19.88734577782452106475830078125">
        <ele>1584.5999755859375</ele>
        <time>2026-06-16T07:57:31.000Z</time>
        <extensions>
          <ns3:TrackPointExtension>
            <ns3:atemp>21.0</ns3:atemp>
          </ns3:TrackPointExtension>
        </extensions>
      </trkpt>
      <trkpt lat="42.63334281742572784423828125" lon="19.88733152858912944793701171875">
        <ele>1584.800048828125</ele>
        <time>2026-06-16T07:57:32.000Z</time>
        <extensions>
          <ns3:TrackPointExtension>
            <ns3:atemp>21.0</ns3:atemp>
          </ns3:TrackPointExtension>
        </extensions>
      </trkpt>
      <trkpt lat="42.6333201862871646881103515625" lon="19.88730973564088344573974609375">
        <ele>1585</ele>
        <time>2026-06-16T07:57:33.000Z</time>
        <extensions>
          <ns3:TrackPointExtension>
            <ns3:atemp>21.0</ns3:atemp>
          </ns3:TrackPointExtension>
        </extensions>
      </trkpt>
      <trkpt lat="42.63329814188182353973388671875" lon="19.88728995434939861297607421875">
        <ele>1585</ele>
        <time>2026-06-16T07:57:34.000Z</time>
        <extensions>
          <ns3:TrackPointExtension>
            <ns3:atemp>21.0</ns3:atemp>
          </ns3:TrackPointExtension>
        </extensions>
      </trkpt>
      <trkpt lat="42.63327836059033870697021484375" lon="19.8872747831046581268310546875">
        <ele>1585.199951171875</ele>
        <time>2026-06-16T07:57:35.000Z</time>
        <extensions>
          <ns3:TrackPointExtension>
            <ns3:atemp>21.0</ns3:atemp>
          </ns3:TrackPointExtension>
        </extensions>
      </trkpt>
      <trkpt lat="42.63325975276529788970947265625" lon="19.88725240342319011688232421875">
        <ele>1585.4000244140625</ele>
        <time>2026-06-16T07:57:36.000Z</time>
        <extensions>
          <ns3:TrackPointExtension>
            <ns3:atemp>21.0</ns3:atemp>
          </ns3:TrackPointExtension>
        </extensions>
      </trkpt>
      <trkpt lat="42.63324433006346225738525390625" lon="19.8872288502752780914306640625">
        <ele>1585.5999755859375</ele>
        <time>2026-06-16T07:57:37.000Z</time>
        <extensions>
          <ns3:TrackPointExtension>
            <ns3:atemp>21.0</ns3:atemp>
          </ns3:TrackPointExtension>
        </extensions>
      </trkpt>
      <trkpt lat="42.63323150575160980224609375" lon="19.887203872203826904296875">
        <ele>1585.5999755859375</ele>
        <time>2026-06-16T07:57:38.000Z</time>
        <extensions>
          <ns3:TrackPointExtension>
            <ns3:atemp>21.0</ns3:atemp>
          </ns3:TrackPointExtension>
        </extensions>
      </trkpt>
      <trkpt lat="42.6332199387252330780029296875" lon="19.8871822468936443328857421875">
        <ele>1585.800048828125</ele>
        <time>2026-06-16T07:57:39.000Z</time>
        <extensions>
          <ns3:TrackPointExtension>
            <ns3:atemp>21.0</ns3:atemp>
          </ns3:TrackPointExtension>
        </extensions>
      </trkpt>
      <trkpt lat="42.63320594094693660736083984375" lon="19.8871614597737789154052734375">
        <ele>1585.800048828125</ele>
        <time>2026-06-16T07:57:40.000Z</time>
        <extensions>
          <ns3:TrackPointExtension>
            <ns3:atemp>21.0</ns3:atemp>
          </ns3:TrackPointExtension>
        </extensions>
      </trkpt>
      <trkpt lat="42.63319504447281360626220703125" lon="19.8871363140642642974853515625">
        <ele>1586</ele>
        <time>2026-06-16T07:57:41.000Z</time>
        <extensions>
          <ns3:TrackPointExtension>
            <ns3:atemp>21.0</ns3:atemp>
          </ns3:TrackPointExtension>
        </extensions>
      </trkpt>
      <trkpt lat="42.63318196870386600494384765625" lon="19.887113012373447418212890625">
        <ele>1586.199951171875</ele>
        <time>2026-06-16T07:57:42.000Z</time>
        <extensions>
          <ns3:TrackPointExtension>
            <ns3:atemp>21.0</ns3:atemp>
          </ns3:TrackPointExtension>
        </extensions>
      </trkpt>
      <trkpt lat="42.63316386379301548004150390625" lon="19.88709851168096065521240234375">
        <ele>1586.4000244140625</ele>
        <time>2026-06-16T07:57:43.000Z</time>
        <extensions>
          <ns3:TrackPointExtension>
            <ns3:atemp>21.0</ns3:atemp>
          </ns3:TrackPointExtension>
        </extensions>
      </trkpt>
      <trkpt lat="42.63315112330019474029541015625" lon="19.88707487471401691436767578125">
        <ele>1586.5999755859375</ele>
        <time>2026-06-16T07:57:44.000Z</time>
        <extensions>
          <ns3:TrackPointExtension>
            <ns3:atemp>21.0</ns3:atemp>
          </ns3:TrackPointExtension>
        </extensions>
      </trkpt>
      <trkpt lat="42.63313637115061283111572265625" lon="19.88705299794673919677734375">
        <ele>1586.800048828125</ele>
        <time>2026-06-16T07:57:45.000Z</time>
        <extensions>
          <ns3:TrackPointExtension>
            <ns3:atemp>21.0</ns3:atemp>
          </ns3:TrackPointExtension>
        </extensions>
      </trkpt>
      <trkpt lat="42.63311927206814289093017578125" lon="19.8870323784649372100830078125">
        <ele>1587</ele>
        <time>2026-06-16T07:57:46.000Z</time>
        <extensions>
          <ns3:TrackPointExtension>
            <ns3:atemp>21.0</ns3:atemp>
          </ns3:TrackPointExtension>
        </extensions>
      </trkpt>
      <trkpt lat="42.63310384936630725860595703125" lon="19.8870112560689449310302734375">
        <ele>1587.4000244140625</ele>
        <time>2026-06-16T07:57:47.000Z</time>
        <extensions>
          <ns3:TrackPointExtension>
            <ns3:atemp>21.0</ns3:atemp>
          </ns3:TrackPointExtension>
        </extensions>
      </trkpt>
      <trkpt lat="42.63309161178767681121826171875" lon="19.8869834281504154205322265625">
        <ele>1587.5999755859375</ele>
        <time>2026-06-16T07:57:48.000Z</time>
        <extensions>
          <ns3:TrackPointExtension>
            <ns3:atemp>21.0</ns3:atemp>
          </ns3:TrackPointExtension>
        </extensions>
      </trkpt>
      <trkpt lat="42.6330821402370929718017578125" lon="19.8869542591273784637451171875">
        <ele>1588</ele>
        <time>2026-06-16T07:57:49.000Z</time>
        <extensions>
          <ns3:TrackPointExtension>
            <ns3:atemp>21.0</ns3:atemp>
          </ns3:TrackPointExtension>
        </extensions>
      </trkpt>
      <trkpt lat="42.6330754347145557403564453125" lon="19.886927939951419830322265625">
        <ele>1588.199951171875</ele>
        <time>2026-06-16T07:57:50.000Z</time>
        <extensions>
          <ns3:TrackPointExtension>
            <ns3:atemp>21.0</ns3:atemp>
          </ns3:TrackPointExtension>
        </extensions>
      </trkpt>
      <trkpt lat="42.63306043110787868499755859375" lon="19.88690287806093692779541015625">
        <ele>1588.4000244140625</ele>
        <time>2026-06-16T07:57:51.000Z</time>
        <extensions>
          <ns3:TrackPointExtension>
            <ns3:atemp>21.0</ns3:atemp>
          </ns3:TrackPointExtension>
        </extensions>
      </trkpt>
      <trkpt lat="42.6330492831766605377197265625" lon="19.88687437959015369415283203125">
        <ele>1588.5999755859375</ele>
        <time>2026-06-16T07:57:52.000Z</time>
        <extensions>
          <ns3:TrackPointExtension>
            <ns3:atemp>21.0</ns3:atemp>
          </ns3:TrackPointExtension>
        </extensions>
      </trkpt>
      <trkpt lat="42.633038721978664398193359375" lon="19.886844456195831298828125">
        <ele>1588.800048828125</ele>
        <time>2026-06-16T07:57:53.000Z</time>
        <extensions>
          <ns3:TrackPointExtension>
            <ns3:atemp>21.0</ns3:atemp>
          </ns3:TrackPointExtension>
        </extensions>
      </trkpt>
      <trkpt lat="42.633028663694858551025390625" lon="19.8868189752101898193359375">
        <ele>1588.800048828125</ele>
        <time>2026-06-16T07:57:54.000Z</time>
        <extensions>
          <ns3:TrackPointExtension>
            <ns3:atemp>21.0</ns3:atemp>
          </ns3:TrackPointExtension>
        </extensions>
      </trkpt>
      <trkpt lat="42.63302003033459186553955078125" lon="19.88679156638681888580322265625">
        <ele>1588.800048828125</ele>
        <time>2026-06-16T07:57:55.000Z</time>
        <extensions>
          <ns3:TrackPointExtension>
            <ns3:atemp>21.0</ns3:atemp>
          </ns3:TrackPointExtension>
        </extensions>
      </trkpt>
      <trkpt lat="42.63300410471856594085693359375" lon="19.8867685161530971527099609375">
        <ele>1588.800048828125</ele>
        <time>2026-06-16T07:57:56.000Z</time>
        <extensions>
          <ns3:TrackPointExtension>
            <ns3:atemp>21.0</ns3:atemp>
          </ns3:TrackPointExtension>
        </extensions>
      </trkpt>
      <trkpt lat="42.63299278914928436279296875" lon="19.88674798049032688140869140625">
        <ele>1589</ele>
        <time>2026-06-16T07:57:57.000Z</time>
        <extensions>
          <ns3:TrackPointExtension>
            <ns3:atemp>21.0</ns3:atemp>
          </ns3:TrackPointExtension>
        </extensions>
      </trkpt>
      <trkpt lat="42.63297979719936847686767578125" lon="19.88672333769500255584716796875">
        <ele>1589</ele>
        <time>2026-06-16T07:57:58.000Z</time>
        <extensions>
          <ns3:TrackPointExtension>
            <ns3:atemp>21.0</ns3:atemp>
          </ns3:TrackPointExtension>
        </extensions>
      </trkpt>
      <trkpt lat="42.63297275640070438385009765625" lon="19.8866955935955047607421875">
        <ele>1589</ele>
        <time>2026-06-16T07:57:59.000Z</time>
        <extensions>
          <ns3:TrackPointExtension>
            <ns3:atemp>21.0</ns3:atemp>
          </ns3:TrackPointExtension>
        </extensions>
      </trkpt>
      <trkpt lat="42.6329567469656467437744140625" lon="19.88666617311537265777587890625">
        <ele>1589</ele>
        <time>2026-06-16T07:58:00.000Z</time>
        <extensions>
          <ns3:TrackPointExtension>
            <ns3:atemp>21.0</ns3:atemp>
          </ns3:TrackPointExtension>
        </extensions>
      </trkpt>
      <trkpt lat="42.63294207863509654998779296875" lon="19.88663683645427227020263671875">
        <ele>1589</ele>
        <time>2026-06-16T07:58:01.000Z</time>
        <extensions>
          <ns3:TrackPointExtension>
            <ns3:atemp>21.0</ns3:atemp>
          </ns3:TrackPointExtension>
        </extensions>
      </trkpt>
      <trkpt lat="42.63292883522808551788330078125" lon="19.8866035602986812591552734375">
        <ele>1589</ele>
        <time>2026-06-16T07:58:02.000Z</time>
        <extensions>
          <ns3:TrackPointExtension>
            <ns3:atemp>21.0</ns3:atemp>
          </ns3:TrackPointExtension>
        </extensions>
      </trkpt>
      <trkpt lat="42.63291425071656703948974609375" lon="19.88657481037080287933349609375">
        <ele>1589.199951171875</ele>
        <time>2026-06-16T07:58:03.000Z</time>
        <extensions>
          <ns3:TrackPointExtension>
            <ns3:atemp>21.0</ns3:atemp>
          </ns3:TrackPointExtension>
        </extensions>
      </trkpt>
      <trkpt lat="42.6329007558524608612060546875" lon="19.88654782064259052276611328125">
        <ele>1589.199951171875</ele>
        <time>2026-06-16T07:58:04.000Z</time>
        <extensions>
          <ns3:TrackPointExtension>
            <ns3:atemp>21.0</ns3:atemp>
          </ns3:TrackPointExtension>
        </extensions>
      </trkpt>
      <trkpt lat="42.63288759626448154449462890625" lon="19.88651680760085582733154296875">
        <ele>1589.4000244140625</ele>
        <time>2026-06-16T07:58:05.000Z</time>
        <extensions>
          <ns3:TrackPointExtension>
            <ns3:atemp>21.0</ns3:atemp>
          </ns3:TrackPointExtension>
        </extensions>
      </trkpt>
      <trkpt lat="42.6328705810010433197021484375" lon="19.88649803213775157928466796875">
        <ele>1589.5999755859375</ele>
        <time>2026-06-16T07:58:06.000Z</time>
        <extensions>
          <ns3:TrackPointExtension>
            <ns3:atemp>21.0</ns3:atemp>
          </ns3:TrackPointExtension>
        </extensions>
      </trkpt>
      <trkpt lat="42.63284954242408275604248046875" lon="19.88647229969501495361328125">
        <ele>1589.800048828125</ele>
        <time>2026-06-16T07:58:07.000Z</time>
        <extensions>
          <ns3:TrackPointExtension>
            <ns3:atemp>21.0</ns3:atemp>
          </ns3:TrackPointExtension>
        </extensions>
      </trkpt>
      <trkpt lat="42.6328323595225811004638671875" lon="19.886447153985500335693359375">
        <ele>1590.199951171875</ele>
        <time>2026-06-16T07:58:08.000Z</time>
        <extensions>
          <ns3:TrackPointExtension>
            <ns3:atemp>21.0</ns3:atemp>
          </ns3:TrackPointExtension>
        </extensions>
      </trkpt>
      <trkpt lat="42.63281132094562053680419921875" lon="19.88642678596079349517822265625">
        <ele>1590.4000244140625</ele>
        <time>2026-06-16T07:58:09.000Z</time>
        <extensions>
          <ns3:TrackPointExtension>
            <ns3:atemp>21.0</ns3:atemp>
          </ns3:TrackPointExtension>
        </extensions>
      </trkpt>
      <trkpt lat="42.632792629301548004150390625" lon="19.88640616647899150848388671875">
        <ele>1590.5999755859375</ele>
        <time>2026-06-16T07:58:10.000Z</time>
        <extensions>
          <ns3:TrackPointExtension>
            <ns3:atemp>21.0</ns3:atemp>
          </ns3:TrackPointExtension>
        </extensions>
      </trkpt>
      <trkpt lat="42.63277351856231689453125" lon="19.88638781011104583740234375">
        <ele>1590.800048828125</ele>
        <time>2026-06-16T07:58:11.000Z</time>
        <extensions>
          <ns3:TrackPointExtension>
            <ns3:atemp>21.0</ns3:atemp>
          </ns3:TrackPointExtension>
        </extensions>
      </trkpt>
      <trkpt lat="42.63275331817567348480224609375" lon="19.8863710463047027587890625">
        <ele>1591</ele>
        <time>2026-06-16T07:58:12.000Z</time>
        <extensions>
          <ns3:TrackPointExtension>
            <ns3:atemp>21.0</ns3:atemp>
          </ns3:TrackPointExtension>
        </extensions>
      </trkpt>
      <trkpt lat="42.63272951357066631317138671875" lon="19.88635570742189884185791015625">
        <ele>1591.199951171875</ele>
        <time>2026-06-16T07:58:13.000Z</time>
        <extensions>
          <ns3:TrackPointExtension>
            <ns3:atemp>21.0</ns3:atemp>
          </ns3:TrackPointExtension>
        </extensions>
      </trkpt>
      <trkpt lat="42.632705457508563995361328125" lon="19.88634078763425350189208984375">
        <ele>1591.4000244140625</ele>
        <time>2026-06-16T07:58:14.000Z</time>
        <extensions>
          <ns3:TrackPointExtension>
            <ns3:atemp>21.0</ns3:atemp>
          </ns3:TrackPointExtension>
        </extensions>
      </trkpt>
      <trkpt lat="42.632685005664825439453125" lon="19.88632586784660816192626953125">
        <ele>1591.5999755859375</ele>
        <time>2026-06-16T07:58:15.000Z</time>
        <extensions>
          <ns3:TrackPointExtension>
            <ns3:atemp>21.0</ns3:atemp>
          </ns3:TrackPointExtension>
        </extensions>
      </trkpt>
      <trkpt lat="42.63266094960272312164306640625" lon="19.88631815649569034576416015625">
        <ele>1591.800048828125</ele>
        <time>2026-06-16T07:58:16.000Z</time>
        <extensions>
          <ns3:TrackPointExtension>
            <ns3:atemp>21.0</ns3:atemp>
          </ns3:TrackPointExtension>
        </extensions>
      </trkpt>
      <trkpt lat="42.63264410197734832763671875" lon="19.88630658946931362152099609375">
        <ele>1592</ele>
        <time>2026-06-16T07:58:17.000Z</time>
        <extensions>
          <ns3:TrackPointExtension>
            <ns3:atemp>21.0</ns3:atemp>
          </ns3:TrackPointExtension>
        </extensions>
      </trkpt>
      <trkpt lat="42.632627002894878387451171875" lon="19.886293597519397735595703125">
        <ele>1592.199951171875</ele>
        <time>2026-06-16T07:58:18.000Z</time>
        <extensions>
          <ns3:TrackPointExtension>
            <ns3:atemp>21.0</ns3:atemp>
          </ns3:TrackPointExtension>
        </extensions>
      </trkpt>
      <trkpt lat="42.63260948471724987030029296875" lon="19.8862756602466106414794921875">
        <ele>1592.4000244140625</ele>
        <time>2026-06-16T07:58:19.000Z</time>
        <extensions>
          <ns3:TrackPointExtension>
            <ns3:atemp>21.0</ns3:atemp>
          </ns3:TrackPointExtension>
        </extensions>
      </trkpt>
      <trkpt lat="42.6325882785022258758544921875" lon="19.88625696860253810882568359375">
        <ele>1592.4000244140625</ele>
        <time>2026-06-16T07:58:20.000Z</time>
        <extensions>
          <ns3:TrackPointExtension>
            <ns3:atemp>21.0</ns3:atemp>
          </ns3:TrackPointExtension>
        </extensions>
      </trkpt>
      <trkpt lat="42.63256656937301158905029296875" lon="19.88623802550137042999267578125">
        <ele>1592.5999755859375</ele>
        <time>2026-06-16T07:58:21.000Z</time>
        <extensions>
          <ns3:TrackPointExtension>
            <ns3:atemp>21.0</ns3:atemp>
          </ns3:TrackPointExtension>
        </extensions>
      </trkpt>
      <trkpt lat="42.63254544697701930999755859375" lon="19.88622419536113739013671875">
        <ele>1592.5999755859375</ele>
        <time>2026-06-16T07:58:22.000Z</time>
        <extensions>
          <ns3:TrackPointExtension>
            <ns3:atemp>21.0</ns3:atemp>
          </ns3:TrackPointExtension>
        </extensions>
      </trkpt>
      <trkpt lat="42.63252750970423221588134765625" lon="19.88620969466865062713623046875">
        <ele>1592.800048828125</ele>
        <time>2026-06-16T07:58:23.000Z</time>
        <extensions>
          <ns3:TrackPointExtension>
            <ns3:atemp>21.0</ns3:atemp>
          </ns3:TrackPointExtension>
        </extensions>
      </trkpt>
      <trkpt lat="42.6325047947466373443603515625" lon="19.88620013929903507232666015625">
        <ele>1592.800048828125</ele>
        <time>2026-06-16T07:58:24.000Z</time>
        <extensions>
          <ns3:TrackPointExtension>
            <ns3:atemp>21.0</ns3:atemp>
          </ns3:TrackPointExtension>
        </extensions>
      </trkpt>
      <trkpt lat="42.632478810846805572509765625" lon="19.886195696890354156494140625">
        <ele>1593</ele>
        <time>2026-06-16T07:58:25.000Z</time>
        <extensions>
          <ns3:TrackPointExtension>
            <ns3:atemp>21.0</ns3:atemp>
          </ns3:TrackPointExtension>
        </extensions>
      </trkpt>
      <trkpt lat="42.63245643116533756256103515625" lon="19.88619175739586353302001953125">
        <ele>1593</ele>
        <time>2026-06-16T07:58:26.000Z</time>
        <extensions>
          <ns3:TrackPointExtension>
            <ns3:atemp>21.0</ns3:atemp>
          </ns3:TrackPointExtension>
        </extensions>
      </trkpt>
      <trkpt lat="42.63243597932159900665283203125" lon="19.88618622533977031707763671875">
        <ele>1593.199951171875</ele>
        <time>2026-06-16T07:58:27.000Z</time>
        <extensions>
          <ns3:TrackPointExtension>
            <ns3:atemp>21.0</ns3:atemp>
          </ns3:TrackPointExtension>
        </extensions>
      </trkpt>
      <trkpt lat="42.63242793269455432891845703125" lon="19.8861821182072162628173828125">
        <ele>1593.199951171875</ele>
        <time>2026-06-16T07:58:28.000Z</time>
        <extensions>
          <ns3:TrackPointExtension>
            <ns3:atemp>21.0</ns3:atemp>
          </ns3:TrackPointExtension>
        </extensions>
      </trkpt>
      <trkpt lat="42.63240672647953033447265625" lon="19.88617784343659877777099609375">
        <ele>1593.4000244140625</ele>
        <time>2026-06-16T07:58:29.000Z</time>
        <extensions>
          <ns3:TrackPointExtension>
            <ns3:atemp>21.0</ns3:atemp>
          </ns3:TrackPointExtension>
        </extensions>
      </trkpt>
      <trkpt lat="42.63238652609288692474365234375" lon="19.88617113791406154632568359375">
        <ele>1593.5999755859375</ele>
        <time>2026-06-16T07:58:30.000Z</time>
        <extensions>
          <ns3:TrackPointExtension>
            <ns3:atemp>21.0</ns3:atemp>
          </ns3:TrackPointExtension>
        </extensions>
      </trkpt>
      <trkpt lat="42.6323643140494823455810546875" lon="19.88616476766765117645263671875">
        <ele>1593.800048828125</ele>
        <time>2026-06-16T07:58:31.000Z</time>
        <extensions>
          <ns3:TrackPointExtension>
            <ns3:atemp>21.0</ns3:atemp>
          </ns3:TrackPointExtension>
        </extensions>
      </trkpt>
      <trkpt lat="42.6323395036160945892333984375" lon="19.88615973852574825286865234375">
        <ele>1593.800048828125</ele>
        <time>2026-06-16T07:58:32.000Z</time>
        <extensions>
          <ns3:TrackPointExtension>
            <ns3:atemp>21.0</ns3:atemp>
          </ns3:TrackPointExtension>
        </extensions>
      </trkpt>
      <trkpt lat="42.63232064433395862579345703125" lon="19.88615822978317737579345703125">
        <ele>1594.199951171875</ele>
        <time>2026-06-16T07:58:33.000Z</time>
        <extensions>
          <ns3:TrackPointExtension>
            <ns3:atemp>21.0</ns3:atemp>
          </ns3:TrackPointExtension>
        </extensions>
      </trkpt>
      <trkpt lat="42.63229633681476116180419921875" lon="19.886154122650623321533203125">
        <ele>1594.4000244140625</ele>
        <time>2026-06-16T07:58:34.000Z</time>
        <extensions>
          <ns3:TrackPointExtension>
            <ns3:atemp>21.0</ns3:atemp>
          </ns3:TrackPointExtension>
        </extensions>
      </trkpt>
      <trkpt lat="42.6322774775326251983642578125" lon="19.88615102134644985198974609375">
        <ele>1594.5999755859375</ele>
        <time>2026-06-16T07:58:35.000Z</time>
        <extensions>
          <ns3:TrackPointExtension>
            <ns3:atemp>21.0</ns3:atemp>
          </ns3:TrackPointExtension>
        </extensions>
      </trkpt>
      <trkpt lat="42.63226046226918697357177734375" lon="19.886150099337100982666015625">
        <ele>1594.800048828125</ele>
        <time>2026-06-16T07:58:36.000Z</time>
        <extensions>
          <ns3:TrackPointExtension>
            <ns3:atemp>21.0</ns3:atemp>
          </ns3:TrackPointExtension>
        </extensions>
      </trkpt>
      <trkpt lat="42.6322389207780361175537109375" lon="19.8861459083855152130126953125">
        <ele>1595.199951171875</ele>
        <time>2026-06-16T07:58:37.000Z</time>
        <extensions>
          <ns3:TrackPointExtension>
            <ns3:atemp>21.0</ns3:atemp>
          </ns3:TrackPointExtension>
        </extensions>
      </trkpt>
      <trkpt lat="42.63221117667853832244873046875" lon="19.88614297471940517425537109375">
        <ele>1595.4000244140625</ele>
        <time>2026-06-16T07:58:38.000Z</time>
        <extensions>
          <ns3:TrackPointExtension>
            <ns3:atemp>21.0</ns3:atemp>
          </ns3:TrackPointExtension>
        </extensions>
      </trkpt>
      <trkpt lat="42.63218971900641918182373046875" lon="19.88613744266331195831298828125">
        <ele>1595.5999755859375</ele>
        <time>2026-06-16T07:58:39.000Z</time>
        <extensions>
          <ns3:TrackPointExtension>
            <ns3:atemp>21.0</ns3:atemp>
          </ns3:TrackPointExtension>
        </extensions>
      </trkpt>
      <trkpt lat="42.63216574676334857940673828125" lon="19.88613325171172618865966796875">
        <ele>1595.800048828125</ele>
        <time>2026-06-16T07:58:40.000Z</time>
        <extensions>
          <ns3:TrackPointExtension>
            <ns3:atemp>21.0</ns3:atemp>
          </ns3:TrackPointExtension>
        </extensions>
      </trkpt>
      <trkpt lat="42.63214311562478542327880859375" lon="19.8861324973404407501220703125">
        <ele>1596.199951171875</ele>
        <time>2026-06-16T07:58:41.000Z</time>
        <extensions>
          <ns3:TrackPointExtension>
            <ns3:atemp>21.0</ns3:atemp>
          </ns3:TrackPointExtension>
        </extensions>
      </trkpt>
      <trkpt lat="42.63212534599006175994873046875" lon="19.8861304856836795806884765625">
        <ele>1596.4000244140625</ele>
        <time>2026-06-16T07:58:42.000Z</time>
        <extensions>
          <ns3:TrackPointExtension>
            <ns3:atemp>21.0</ns3:atemp>
          </ns3:TrackPointExtension>
        </extensions>
      </trkpt>
      <trkpt lat="42.63210774399340152740478515625" lon="19.886130988597869873046875">
        <ele>1596.5999755859375</ele>
        <time>2026-06-16T07:58:43.000Z</time>
        <extensions>
          <ns3:TrackPointExtension>
            <ns3:atemp>21.0</ns3:atemp>
          </ns3:TrackPointExtension>
        </extensions>
      </trkpt>
      <trkpt lat="42.632085867226123809814453125" lon="19.88612897694110870361328125">
        <ele>1597</ele>
        <time>2026-06-16T07:58:44.000Z</time>
        <extensions>
          <ns3:TrackPointExtension>
            <ns3:atemp>21.0</ns3:atemp>
          </ns3:TrackPointExtension>
        </extensions>
      </trkpt>
      <trkpt lat="42.63206281699240207672119140625" lon="19.88612771965563297271728515625">
        <ele>1597.199951171875</ele>
        <time>2026-06-16T07:58:45.000Z</time>
        <extensions>
          <ns3:TrackPointExtension>
            <ns3:atemp>21.0</ns3:atemp>
          </ns3:TrackPointExtension>
        </extensions>
      </trkpt>
      <trkpt lat="42.6320399343967437744140625" lon="19.88612805493175983428955078125">
        <ele>1597.4000244140625</ele>
        <time>2026-06-16T07:58:46.000Z</time>
        <extensions>
          <ns3:TrackPointExtension>
            <ns3:atemp>21.0</ns3:atemp>
          </ns3:TrackPointExtension>
        </extensions>
      </trkpt>
      <trkpt lat="42.6320186443626880645751953125" lon="19.886125959455966949462890625">
        <ele>1597.800048828125</ele>
        <time>2026-06-16T07:58:47.000Z</time>
        <extensions>
          <ns3:TrackPointExtension>
            <ns3:atemp>21.0</ns3:atemp>
          </ns3:TrackPointExtension>
        </extensions>
      </trkpt>
      <trkpt lat="42.632000707089900970458984375" lon="19.88612403161823749542236328125">
        <ele>1598</ele>
        <time>2026-06-16T07:58:48.000Z</time>
        <extensions>
          <ns3:TrackPointExtension>
            <ns3:atemp>21.0</ns3:atemp>
          </ns3:TrackPointExtension>
        </extensions>
      </trkpt>
      <trkpt lat="42.63198067434132099151611328125" lon="19.88612704910337924957275390625">
        <ele>1598.199951171875</ele>
        <time>2026-06-16T07:58:49.000Z</time>
        <extensions>
          <ns3:TrackPointExtension>
            <ns3:atemp>21.0</ns3:atemp>
          </ns3:TrackPointExtension>
        </extensions>
      </trkpt>
      <trkpt lat="42.63196022249758243560791015625" lon="19.88612503744661808013916015625">
        <ele>1598.5999755859375</ele>
        <time>2026-06-16T07:58:50.000Z</time>
        <extensions>
          <ns3:TrackPointExtension>
            <ns3:atemp>21.0</ns3:atemp>
          </ns3:TrackPointExtension>
        </extensions>
      </trkpt>
      <trkpt lat="42.63193625025451183319091796875" lon="19.88612269051373004913330078125">
        <ele>1598.800048828125</ele>
        <time>2026-06-16T07:58:51.000Z</time>
        <extensions>
          <ns3:TrackPointExtension>
            <ns3:atemp>21.0</ns3:atemp>
          </ns3:TrackPointExtension>
        </extensions>
      </trkpt>
      <trkpt lat="42.63191345147788524627685546875" lon="19.88612336106598377227783203125">
        <ele>1599</ele>
        <time>2026-06-16T07:58:52.000Z</time>
        <extensions>
          <ns3:TrackPointExtension>
            <ns3:atemp>21.0</ns3:atemp>
          </ns3:TrackPointExtension>
        </extensions>
      </trkpt>
      <trkpt lat="42.631890736520290374755859375" lon="19.8861221037805080413818359375">
        <ele>1599.199951171875</ele>
        <time>2026-06-16T07:58:53.000Z</time>
        <extensions>
          <ns3:TrackPointExtension>
            <ns3:atemp>21.0</ns3:atemp>
          </ns3:TrackPointExtension>
        </extensions>
      </trkpt>
      <trkpt lat="42.63187020085752010345458984375" lon="19.88612067885696887969970703125">
        <ele>1599.5999755859375</ele>
        <time>2026-06-16T07:58:54.000Z</time>
        <extensions>
          <ns3:TrackPointExtension>
            <ns3:atemp>21.0</ns3:atemp>
          </ns3:TrackPointExtension>
        </extensions>
      </trkpt>
      <trkpt lat="42.63184974901378154754638671875" lon="19.88611497916281223297119140625">
        <ele>1599.800048828125</ele>
        <time>2026-06-16T07:58:55.000Z</time>
        <extensions>
          <ns3:TrackPointExtension>
            <ns3:atemp>21.0</ns3:atemp>
          </ns3:TrackPointExtension>
        </extensions>
      </trkpt>
      <trkpt lat="42.63182745315134525299072265625" lon="19.88610777072608470916748046875">
        <ele>1600</ele>
        <time>2026-06-16T07:58:56.000Z</time>
        <extensions>
          <ns3:TrackPointExtension>
            <ns3:atemp>21.0</ns3:atemp>
          </ns3:TrackPointExtension>
        </extensions>
      </trkpt>
      <trkpt lat="42.63180448673665523529052734375" lon="19.8861006461083889007568359375">
        <ele>1600.4000244140625</ele>
        <time>2026-06-16T07:58:57.000Z</time>
        <extensions>
          <ns3:TrackPointExtension>
            <ns3:atemp>21.0</ns3:atemp>
          </ns3:TrackPointExtension>
        </extensions>
      </trkpt>
      <trkpt lat="42.63178177177906036376953125" lon="19.8860979638993740081787109375">
        <ele>1600.5999755859375</ele>
        <time>2026-06-16T07:58:58.000Z</time>
        <extensions>
          <ns3:TrackPointExtension>
            <ns3:atemp>21.0</ns3:atemp>
          </ns3:TrackPointExtension>
        </extensions>
      </trkpt>
      <trkpt lat="42.63175888918340206146240234375" lon="19.8860894143581390380859375">
        <ele>1600.800048828125</ele>
        <time>2026-06-16T07:58:59.000Z</time>
        <extensions>
          <ns3:TrackPointExtension>
            <ns3:atemp>21.0</ns3:atemp>
          </ns3:TrackPointExtension>
        </extensions>
      </trkpt>
      <trkpt lat="42.63173944316804409027099609375" lon="19.88608069717884063720703125">
        <ele>1601</ele>
        <time>2026-06-16T07:59:00.000Z</time>
        <extensions>
          <ns3:TrackPointExtension>
            <ns3:atemp>21.0</ns3:atemp>
          </ns3:TrackPointExtension>
        </extensions>
      </trkpt>
      <trkpt lat="42.6317242719233036041259765625" lon="19.8860714770853519439697265625">
        <ele>1601.199951171875</ele>
        <time>2026-06-16T07:59:01.000Z</time>
        <extensions>
          <ns3:TrackPointExtension>
            <ns3:atemp>21.0</ns3:atemp>
          </ns3:TrackPointExtension>
        </extensions>
      </trkpt>
      <trkpt lat="42.63170457445085048675537109375" lon="19.88605898804962635040283203125">
        <ele>1601.4000244140625</ele>
        <time>2026-06-16T07:59:02.000Z</time>
        <extensions>
          <ns3:TrackPointExtension>
            <ns3:atemp>21.0</ns3:atemp>
          </ns3:TrackPointExtension>
        </extensions>
      </trkpt>
      <trkpt lat="42.6316883973777294158935546875" lon="19.88603887148201465606689453125">
        <ele>1601.4000244140625</ele>
        <time>2026-06-16T07:59:03.000Z</time>
        <extensions>
          <ns3:TrackPointExtension>
            <ns3:atemp>21.0</ns3:atemp>
          </ns3:TrackPointExtension>
        </extensions>
      </trkpt>
      <trkpt lat="42.63167046010494232177734375" lon="19.88601640798151493072509765625">
        <ele>1601.5999755859375</ele>
        <time>2026-06-16T07:59:04.000Z</time>
        <extensions>
          <ns3:TrackPointExtension>
            <ns3:atemp>21.0</ns3:atemp>
          </ns3:TrackPointExtension>
        </extensions>
      </trkpt>
      <trkpt lat="42.63166065327823162078857421875" lon="19.88598975352942943572998046875">
        <ele>1601.5999755859375</ele>
        <time>2026-06-16T07:59:05.000Z</time>
        <extensions>
          <ns3:TrackPointExtension>
            <ns3:atemp>21.0</ns3:atemp>
          </ns3:TrackPointExtension>
        </extensions>
      </trkpt>
      <trkpt lat="42.631649337708950042724609375" lon="19.8859660327434539794921875">
        <ele>1601.800048828125</ele>
        <time>2026-06-16T07:59:06.000Z</time>
        <extensions>
          <ns3:TrackPointExtension>
            <ns3:atemp>21.0</ns3:atemp>
          </ns3:TrackPointExtension>
        </extensions>
      </trkpt>
      <trkpt lat="42.63164120726287364959716796875" lon="19.88593728281557559967041015625">
        <ele>1601.800048828125</ele>
        <time>2026-06-16T07:59:07.000Z</time>
        <extensions>
          <ns3:TrackPointExtension>
            <ns3:atemp>21.0</ns3:atemp>
          </ns3:TrackPointExtension>
        </extensions>
      </trkpt>
      <trkpt lat="42.6316327415406703948974609375" lon="19.885908029973506927490234375">
        <ele>1602</ele>
        <time>2026-06-16T07:59:08.000Z</time>
        <extensions>
          <ns3:TrackPointExtension>
            <ns3:atemp>21.0</ns3:atemp>
          </ns3:TrackPointExtension>
        </extensions>
      </trkpt>
      <trkpt lat="42.6316257007420063018798828125" lon="19.88587978295981884002685546875">
        <ele>1602.199951171875</ele>
        <time>2026-06-16T07:59:09.000Z</time>
        <extensions>
          <ns3:TrackPointExtension>
            <ns3:atemp>21.0</ns3:atemp>
          </ns3:TrackPointExtension>
        </extensions>
      </trkpt>
      <trkpt lat="42.6316159777343273162841796875" lon="19.885851033031940460205078125">
        <ele>1602.4000244140625</ele>
        <time>2026-06-16T07:59:10.000Z</time>
        <extensions>
          <ns3:TrackPointExtension>
            <ns3:atemp>21.0</ns3:atemp>
          </ns3:TrackPointExtension>
        </extensions>
      </trkpt>
      <trkpt lat="42.63160801492631435394287109375" lon="19.8858294077217578887939453125">
        <ele>1602.5999755859375</ele>
        <time>2026-06-16T07:59:11.000Z</time>
        <extensions>
          <ns3:TrackPointExtension>
            <ns3:atemp>21.0</ns3:atemp>
          </ns3:TrackPointExtension>
        </extensions>
      </trkpt>
      <trkpt lat="42.6316039077937602996826171875" lon="19.885800741612911224365234375">
        <ele>1602.5999755859375</ele>
        <time>2026-06-16T07:59:12.000Z</time>
        <extensions>
          <ns3:TrackPointExtension>
            <ns3:atemp>20.0</ns3:atemp>
          </ns3:TrackPointExtension>
        </extensions>
      </trkpt>
      <trkpt lat="42.63160340487957000732421875" lon="19.88577970303595066070556640625">
        <ele>1602.800048828125</ele>
        <time>2026-06-16T07:59:13.000Z</time>
        <extensions>
          <ns3:TrackPointExtension>
            <ns3:atemp>20.0</ns3:atemp>
          </ns3:TrackPointExtension>
        </extensions>
      </trkpt>
      <trkpt lat="42.63159996829926967620849609375" lon="19.88575221039354801177978515625">
        <ele>1603</ele>
        <time>2026-06-16T07:59:14.000Z</time>
        <extensions>
          <ns3:TrackPointExtension>
            <ns3:atemp>20.0</ns3:atemp>
          </ns3:TrackPointExtension>
        </extensions>
      </trkpt>
      <trkpt lat="42.6316049136221408843994140625" lon="19.88572790287435054779052734375">
        <ele>1603.199951171875</ele>
        <time>2026-06-16T07:59:15.000Z</time>
        <extensions>
          <ns3:TrackPointExtension>
            <ns3:atemp>20.0</ns3:atemp>
          </ns3:TrackPointExtension>
        </extensions>
      </trkpt>
      <trkpt lat="42.6316008903086185455322265625" lon="19.88571080379188060760498046875">
        <ele>1603.4000244140625</ele>
        <time>2026-06-16T07:59:16.000Z</time>
        <extensions>
          <ns3:TrackPointExtension>
            <ns3:atemp>20.0</ns3:atemp>
          </ns3:TrackPointExtension>
        </extensions>
      </trkpt>
      <trkpt lat="42.63160072267055511474609375" lon="19.88568783737719058990478515625">
        <ele>1603.800048828125</ele>
        <time>2026-06-16T07:59:17.000Z</time>
        <extensions>
          <ns3:TrackPointExtension>
            <ns3:atemp>20.0</ns3:atemp>
          </ns3:TrackPointExtension>
        </extensions>
      </trkpt>
      <trkpt lat="42.63159628026187419891357421875" lon="19.88565883599221706390380859375">
        <ele>1604</ele>
        <time>2026-06-16T07:59:18.000Z</time>
        <extensions>
          <ns3:TrackPointExtension>
            <ns3:atemp>20.0</ns3:atemp>
          </ns3:TrackPointExtension>
        </extensions>
      </trkpt>
      <trkpt lat="42.63159410096704959869384765625" lon="19.88563452847301959991455078125">
        <ele>1604.4000244140625</ele>
        <time>2026-06-16T07:59:19.000Z</time>
        <extensions>
          <ns3:TrackPointExtension>
            <ns3:atemp>20.0</ns3:atemp>
          </ns3:TrackPointExtension>
        </extensions>
      </trkpt>
      <trkpt lat="42.631595693528652191162109375" lon="19.88561541773378849029541015625">
        <ele>1604.5999755859375</ele>
        <time>2026-06-16T07:59:20.000Z</time>
        <extensions>
          <ns3:TrackPointExtension>
            <ns3:atemp>20.0</ns3:atemp>
          </ns3:TrackPointExtension>
        </extensions>
      </trkpt>
      <trkpt lat="42.63159711845219135284423828125" lon="19.885599575936794281005859375">
        <ele>1605</ele>
        <time>2026-06-16T07:59:21.000Z</time>
        <extensions>
          <ns3:TrackPointExtension>
            <ns3:atemp>20.0</ns3:atemp>
          </ns3:TrackPointExtension>
        </extensions>
      </trkpt>
      <trkpt lat="42.63159426860511302947998046875" lon="19.88558440469205379486083984375">
        <ele>1605.199951171875</ele>
        <time>2026-06-16T07:59:22.000Z</time>
        <extensions>
          <ns3:TrackPointExtension>
            <ns3:atemp>20.0</ns3:atemp>
          </ns3:TrackPointExtension>
        </extensions>
      </trkpt>
      <trkpt lat="42.631586305797100067138671875" lon="19.8855658806860446929931640625">
        <ele>1605.5999755859375</ele>
        <time>2026-06-16T07:59:23.000Z</time>
        <extensions>
          <ns3:TrackPointExtension>
            <ns3:atemp>20.0</ns3:atemp>
          </ns3:TrackPointExtension>
        </extensions>
      </trkpt>
      <trkpt lat="42.63158454559743404388427734375" lon="19.88554467447102069854736328125">
        <ele>1605.800048828125</ele>
        <time>2026-06-16T07:59:24.000Z</time>
        <extensions>
          <ns3:TrackPointExtension>
            <ns3:atemp>20.0</ns3:atemp>
          </ns3:TrackPointExtension>
        </extensions>
      </trkpt>
      <trkpt lat="42.6315785944461822509765625" lon="19.885522462427616119384765625">
        <ele>1606.199951171875</ele>
        <time>2026-06-16T07:59:25.000Z</time>
        <extensions>
          <ns3:TrackPointExtension>
            <ns3:atemp>20.0</ns3:atemp>
          </ns3:TrackPointExtension>
        </extensions>
      </trkpt>
      <trkpt lat="42.63157214038074016571044921875" lon="19.8854991607367992401123046875">
        <ele>1606.4000244140625</ele>
        <time>2026-06-16T07:59:26.000Z</time>
        <extensions>
          <ns3:TrackPointExtension>
            <ns3:atemp>20.0</ns3:atemp>
          </ns3:TrackPointExtension>
        </extensions>
      </trkpt>
      <trkpt lat="42.63156141154468059539794921875" lon="19.88547292537987232208251953125">
        <ele>1606.5999755859375</ele>
        <time>2026-06-16T07:59:27.000Z</time>
        <extensions>
          <ns3:TrackPointExtension>
            <ns3:atemp>20.0</ns3:atemp>
          </ns3:TrackPointExtension>
        </extensions>
      </trkpt>
      <trkpt lat="42.6315517723560333251953125" lon="19.88544828258454799652099609375">
        <ele>1607</ele>
        <time>2026-06-16T07:59:28.000Z</time>
        <extensions>
          <ns3:TrackPointExtension>
            <ns3:atemp>20.0</ns3:atemp>
          </ns3:TrackPointExtension>
        </extensions>
      </trkpt>
      <trkpt lat="42.63154263608157634735107421875" lon="19.88542112521827220916748046875">
        <ele>1607.199951171875</ele>
        <time>2026-06-16T07:59:29.000Z</time>
        <extensions>
          <ns3:TrackPointExtension>
            <ns3:atemp>20.0</ns3:atemp>
          </ns3:TrackPointExtension>
        </extensions>
      </trkpt>
      <trkpt lat="42.631534673273563385009765625" lon="19.88540167920291423797607421875">
        <ele>1607.5999755859375</ele>
        <time>2026-06-16T07:59:30.000Z</time>
        <extensions>
          <ns3:TrackPointExtension>
            <ns3:atemp>20.0</ns3:atemp>
          </ns3:TrackPointExtension>
        </extensions>
      </trkpt>
      <trkpt lat="42.6315247826278209686279296875" lon="19.88537929952144622802734375">
        <ele>1607.800048828125</ele>
        <time>2026-06-16T07:59:31.000Z</time>
        <extensions>
          <ns3:TrackPointExtension>
            <ns3:atemp>20.0</ns3:atemp>
          </ns3:TrackPointExtension>
        </extensions>
      </trkpt>
      <trkpt lat="42.63151489198207855224609375" lon="19.88536044023931026458740234375">
        <ele>1608</ele>
        <time>2026-06-16T07:59:32.000Z</time>
        <extensions>
          <ns3:TrackPointExtension>
            <ns3:atemp>20.0</ns3:atemp>
          </ns3:TrackPointExtension>
        </extensions>
      </trkpt>
      <trkpt lat="42.63150609098374843597412109375" lon="19.8853432573378086090087890625">
        <ele>1608.199951171875</ele>
        <time>2026-06-16T07:59:33.000Z</time>
        <extensions>
          <ns3:TrackPointExtension>
            <ns3:atemp>20.0</ns3:atemp>
          </ns3:TrackPointExtension>
        </extensions>
      </trkpt>
      <trkpt lat="42.631499469280242919921875" lon="19.88532003946602344512939453125">
        <ele>1608.5999755859375</ele>
        <time>2026-06-16T07:59:34.000Z</time>
        <extensions>
          <ns3:TrackPointExtension>
            <ns3:atemp>20.0</ns3:atemp>
          </ns3:TrackPointExtension>
        </extensions>
      </trkpt>
      <trkpt lat="42.6314862258732318878173828125" lon="19.8853016830980777740478515625">
        <ele>1608.800048828125</ele>
        <time>2026-06-16T07:59:35.000Z</time>
        <extensions>
          <ns3:TrackPointExtension>
            <ns3:atemp>20.0</ns3:atemp>
          </ns3:TrackPointExtension>
        </extensions>
      </trkpt>
      <trkpt lat="42.6314775086939334869384765625" lon="19.8852855898439884185791015625">
        <ele>1609.199951171875</ele>
        <time>2026-06-16T07:59:36.000Z</time>
        <extensions>
          <ns3:TrackPointExtension>
            <ns3:atemp>20.0</ns3:atemp>
          </ns3:TrackPointExtension>
        </extensions>
      </trkpt>
      <trkpt lat="42.63146619312465190887451171875" lon="19.88526538945734500885009765625">
        <ele>1609.4000244140625</ele>
        <time>2026-06-16T07:59:37.000Z</time>
        <extensions>
          <ns3:TrackPointExtension>
            <ns3:atemp>20.0</ns3:atemp>
          </ns3:TrackPointExtension>
        </extensions>
      </trkpt>
      <trkpt lat="42.6314563862979412078857421875" lon="19.88524929620325565338134765625">
        <ele>1609.5999755859375</ele>
        <time>2026-06-16T07:59:38.000Z</time>
        <extensions>
          <ns3:TrackPointExtension>
            <ns3:atemp>20.0</ns3:atemp>
          </ns3:TrackPointExtension>
        </extensions>
      </trkpt>
      <trkpt lat="42.631438784301280975341796875" lon="19.88523119129240512847900390625">
        <ele>1610</ele>
        <time>2026-06-16T07:59:39.000Z</time>
        <extensions>
          <ns3:TrackPointExtension>
            <ns3:atemp>20.0</ns3:atemp>
          </ns3:TrackPointExtension>
        </extensions>
      </trkpt>
      <trkpt lat="42.63141992501914501190185546875" lon="19.8852121643722057342529296875">
        <ele>1610.199951171875</ele>
        <time>2026-06-16T07:59:40.000Z</time>
        <extensions>
          <ns3:TrackPointExtension>
            <ns3:atemp>20.0</ns3:atemp>
          </ns3:TrackPointExtension>
        </extensions>
      </trkpt>
      <trkpt lat="42.6314010657370090484619140625" lon="19.88519959151744842529296875">
        <ele>1610.4000244140625</ele>
        <time>2026-06-16T07:59:41.000Z</time>
        <extensions>
          <ns3:TrackPointExtension>
            <ns3:atemp>20.0</ns3:atemp>
          </ns3:TrackPointExtension>
        </extensions>
      </trkpt>
      <trkpt lat="42.63138773851096630096435546875" lon="19.88518693484365940093994140625">
        <ele>1610.5999755859375</ele>
        <time>2026-06-16T07:59:42.000Z</time>
        <extensions>
          <ns3:TrackPointExtension>
            <ns3:atemp>20.0</ns3:atemp>
          </ns3:TrackPointExtension>
        </extensions>
      </trkpt>
      <trkpt lat="42.6313720643520355224609375" lon="19.88517100922763347625732421875">
        <ele>1610.800048828125</ele>
        <time>2026-06-16T07:59:43.000Z</time>
        <extensions>
          <ns3:TrackPointExtension>
            <ns3:atemp>20.0</ns3:atemp>
          </ns3:TrackPointExtension>
        </extensions>
      </trkpt>
      <trkpt lat="42.631356306374073028564453125" lon="19.88516128621995449066162109375">
        <ele>1611.199951171875</ele>
        <time>2026-06-16T07:59:44.000Z</time>
        <extensions>
          <ns3:TrackPointExtension>
            <ns3:atemp>20.0</ns3:atemp>
          </ns3:TrackPointExtension>
        </extensions>
      </trkpt>
      <trkpt lat="42.6313433982431888580322265625" lon="19.88514971919357776641845703125">
        <ele>1611.4000244140625</ele>
        <time>2026-06-16T07:59:45.000Z</time>
        <extensions>
          <ns3:TrackPointExtension>
            <ns3:atemp>20.0</ns3:atemp>
          </ns3:TrackPointExtension>
        </extensions>
      </trkpt>
      <trkpt lat="42.63132940046489238739013671875" lon="19.88513597287237644195556640625">
        <ele>1611.5999755859375</ele>
        <time>2026-06-16T07:59:46.000Z</time>
        <extensions>
          <ns3:TrackPointExtension>
            <ns3:atemp>20.0</ns3:atemp>
          </ns3:TrackPointExtension>
        </extensions>
      </trkpt>
      <trkpt lat="42.63131498359143733978271484375" lon="19.88512448966503143310546875">
        <ele>1612</ele>
        <time>2026-06-16T07:59:47.000Z</time>
        <extensions>
          <ns3:TrackPointExtension>
            <ns3:atemp>20.0</ns3:atemp>
          </ns3:TrackPointExtension>
        </extensions>
      </trkpt>
      <trkpt lat="42.631299309432506561279296875" lon="19.88511350937187671661376953125">
        <ele>1612.199951171875</ele>
        <time>2026-06-16T07:59:48.000Z</time>
        <extensions>
          <ns3:TrackPointExtension>
            <ns3:atemp>20.0</ns3:atemp>
          </ns3:TrackPointExtension>
        </extensions>
      </trkpt>
      <trkpt lat="42.63128715567290782928466796875" lon="19.8850988410413265228271484375">
        <ele>1612.4000244140625</ele>
        <time>2026-06-16T07:59:49.000Z</time>
        <extensions>
          <ns3:TrackPointExtension>
            <ns3:atemp>20.0</ns3:atemp>
          </ns3:TrackPointExtension>
        </extensions>
      </trkpt>
      <trkpt lat="42.63127726502716541290283203125" lon="19.88508434034883975982666015625">
        <ele>1612.5999755859375</ele>
        <time>2026-06-16T07:59:50.000Z</time>
        <extensions>
          <ns3:TrackPointExtension>
            <ns3:atemp>20.0</ns3:atemp>
          </ns3:TrackPointExtension>
        </extensions>
      </trkpt>
      <trkpt lat="42.631266452372074127197265625" lon="19.88506958819925785064697265625">
        <ele>1612.800048828125</ele>
        <time>2026-06-16T07:59:51.000Z</time>
        <extensions>
          <ns3:TrackPointExtension>
            <ns3:atemp>20.0</ns3:atemp>
          </ns3:TrackPointExtension>
        </extensions>
      </trkpt>
      <trkpt lat="42.63125262223184108734130859375" lon="19.885052405297756195068359375">
        <ele>1613</ele>
        <time>2026-06-16T07:59:52.000Z</time>
        <extensions>
          <ns3:TrackPointExtension>
            <ns3:atemp>20.0</ns3:atemp>
          </ns3:TrackPointExtension>
        </extensions>
      </trkpt>
      <trkpt lat="42.631236277520656585693359375" lon="19.8850351385772228240966796875">
        <ele>1613.4000244140625</ele>
        <time>2026-06-16T07:59:53.000Z</time>
        <extensions>
          <ns3:TrackPointExtension>
            <ns3:atemp>20.0</ns3:atemp>
          </ns3:TrackPointExtension>
        </extensions>
      </trkpt>
      <trkpt lat="42.6312245428562164306640625" lon="19.8850203864276409149169921875">
        <ele>1613.5999755859375</ele>
        <time>2026-06-16T07:59:54.000Z</time>
        <extensions>
          <ns3:TrackPointExtension>
            <ns3:atemp>20.0</ns3:atemp>
          </ns3:TrackPointExtension>
        </extensions>
      </trkpt>
      <trkpt lat="42.6312136463820934295654296875" lon="19.88500588573515415191650390625">
        <ele>1613.800048828125</ele>
        <time>2026-06-16T07:59:55.000Z</time>
        <extensions>
          <ns3:TrackPointExtension>
            <ns3:atemp>20.0</ns3:atemp>
          </ns3:TrackPointExtension>
        </extensions>
      </trkpt>
      <trkpt lat="42.63120082207024097442626953125" lon="19.8849898763000965118408203125">
        <ele>1614</ele>
        <time>2026-06-16T07:59:56.000Z</time>
        <extensions>
          <ns3:TrackPointExtension>
            <ns3:atemp>20.0</ns3:atemp>
          </ns3:TrackPointExtension>
        </extensions>
      </trkpt>
      <trkpt lat="42.63118766248226165771484375" lon="19.884975962340831756591796875">
        <ele>1614.199951171875</ele>
        <time>2026-06-16T07:59:57.000Z</time>
        <extensions>
          <ns3:TrackPointExtension>
            <ns3:atemp>20.0</ns3:atemp>
          </ns3:TrackPointExtension>
        </extensions>
      </trkpt>
      <trkpt lat="42.6311703957617282867431640625" lon="19.88496481440961360931396484375">
        <ele>1614.4000244140625</ele>
        <time>2026-06-16T07:59:58.000Z</time>
        <extensions>
          <ns3:TrackPointExtension>
            <ns3:atemp>20.0</ns3:atemp>
          </ns3:TrackPointExtension>
        </extensions>
      </trkpt>
      <trkpt lat="42.63115740381181240081787109375" lon="19.884950481355190277099609375">
        <ele>1614.5999755859375</ele>
        <time>2026-06-16T07:59:59.000Z</time>
        <extensions>
          <ns3:TrackPointExtension>
            <ns3:atemp>20.0</ns3:atemp>
          </ns3:TrackPointExtension>
        </extensions>
      </trkpt>
      <trkpt lat="42.63114281930029392242431640625" lon="19.884941093623638153076171875">
        <ele>1614.800048828125</ele>
        <time>2026-06-16T08:00:00.000Z</time>
        <extensions>
          <ns3:TrackPointExtension>
            <ns3:atemp>20.0</ns3:atemp>
          </ns3:TrackPointExtension>
        </extensions>
      </trkpt>
      <trkpt lat="42.63112689368426799774169921875" lon="19.88492776639759540557861328125">
        <ele>1615</ele>
        <time>2026-06-16T08:00:01.000Z</time>
        <extensions>
          <ns3:TrackPointExtension>
            <ns3:atemp>20.0</ns3:atemp>
          </ns3:TrackPointExtension>
        </extensions>
      </trkpt>
      <trkpt lat="42.6311100460588932037353515625" lon="19.88491795957088470458984375">
        <ele>1615.199951171875</ele>
        <time>2026-06-16T08:00:02.000Z</time>
        <extensions>
          <ns3:TrackPointExtension>
            <ns3:atemp>20.0</ns3:atemp>
          </ns3:TrackPointExtension>
        </extensions>
      </trkpt>
      <trkpt lat="42.63109286315739154815673828125" lon="19.8849063925445079803466796875">
        <ele>1615.4000244140625</ele>
        <time>2026-06-16T08:00:03.000Z</time>
        <extensions>
          <ns3:TrackPointExtension>
            <ns3:atemp>20.0</ns3:atemp>
          </ns3:TrackPointExtension>
        </extensions>
      </trkpt>
      <trkpt lat="42.63107635080814361572265625" lon="19.884897172451019287109375">
        <ele>1615.5999755859375</ele>
        <time>2026-06-16T08:00:04.000Z</time>
        <extensions>
          <ns3:TrackPointExtension>
            <ns3:atemp>20.0</ns3:atemp>
          </ns3:TrackPointExtension>
        </extensions>
      </trkpt>
      <trkpt lat="42.63106402941048145294189453125" lon="19.88488200120627880096435546875">
        <ele>1615.800048828125</ele>
        <time>2026-06-16T08:00:05.000Z</time>
        <extensions>
          <ns3:TrackPointExtension>
            <ns3:atemp>20.0</ns3:atemp>
          </ns3:TrackPointExtension>
        </extensions>
      </trkpt>
      <trkpt lat="42.63104810379445552825927734375" lon="19.88487211056053638458251953125">
        <ele>1616</ele>
        <time>2026-06-16T08:00:06.000Z</time>
        <extensions>
          <ns3:TrackPointExtension>
            <ns3:atemp>20.0</ns3:atemp>
          </ns3:TrackPointExtension>
        </extensions>
      </trkpt>
      <trkpt lat="42.6310319267213344573974609375" lon="19.8848631419241428375244140625">
        <ele>1616.199951171875</ele>
        <time>2026-06-16T08:00:07.000Z</time>
        <extensions>
          <ns3:TrackPointExtension>
            <ns3:atemp>20.0</ns3:atemp>
          </ns3:TrackPointExtension>
        </extensions>
      </trkpt>
      <trkpt lat="42.63101675547659397125244140625" lon="19.8848567716777324676513671875">
        <ele>1616.4000244140625</ele>
        <time>2026-06-16T08:00:08.000Z</time>
        <extensions>
          <ns3:TrackPointExtension>
            <ns3:atemp>20.0</ns3:atemp>
          </ns3:TrackPointExtension>
        </extensions>
      </trkpt>
      <trkpt lat="42.630998231470584869384765625" lon="19.88484553992748260498046875">
        <ele>1616.5999755859375</ele>
        <time>2026-06-16T08:00:09.000Z</time>
        <extensions>
          <ns3:TrackPointExtension>
            <ns3:atemp>20.0</ns3:atemp>
          </ns3:TrackPointExtension>
        </extensions>
      </trkpt>
      <trkpt lat="42.63098088093101978302001953125" lon="19.884832799434661865234375">
        <ele>1616.5999755859375</ele>
        <time>2026-06-16T08:00:10.000Z</time>
        <extensions>
          <ns3:TrackPointExtension>
            <ns3:atemp>20.0</ns3:atemp>
          </ns3:TrackPointExtension>
        </extensions>
      </trkpt>
      <trkpt lat="42.63096629641950130462646484375" lon="19.88482248969376087188720703125">
        <ele>1616.800048828125</ele>
        <time>2026-06-16T08:00:11.000Z</time>
        <extensions>
          <ns3:TrackPointExtension>
            <ns3:atemp>20.0</ns3:atemp>
          </ns3:TrackPointExtension>
        </extensions>
      </trkpt>
      <trkpt lat="42.630949951708316802978515625" lon="19.88481276668608188629150390625">
        <ele>1617</ele>
        <time>2026-06-16T08:00:12.000Z</time>
        <extensions>
          <ns3:TrackPointExtension>
            <ns3:atemp>20.0</ns3:atemp>
          </ns3:TrackPointExtension>
        </extensions>
      </trkpt>
      <trkpt lat="42.63093042187392711639404296875" lon="19.88479952327907085418701171875">
        <ele>1617.199951171875</ele>
        <time>2026-06-16T08:00:13.000Z</time>
        <extensions>
          <ns3:TrackPointExtension>
            <ns3:atemp>20.0</ns3:atemp>
          </ns3:TrackPointExtension>
        </extensions>
      </trkpt>
      <trkpt lat="42.63091541826725006103515625" lon="19.8847910575568675994873046875">
        <ele>1617.4000244140625</ele>
        <time>2026-06-16T08:00:14.000Z</time>
        <extensions>
          <ns3:TrackPointExtension>
            <ns3:atemp>20.0</ns3:atemp>
          </ns3:TrackPointExtension>
        </extensions>
      </trkpt>
      <trkpt lat="42.6308958046138286590576171875" lon="19.884781502187252044677734375">
        <ele>1617.5999755859375</ele>
        <time>2026-06-16T08:00:15.000Z</time>
        <extensions>
          <ns3:TrackPointExtension>
            <ns3:atemp>20.0</ns3:atemp>
          </ns3:TrackPointExtension>
        </extensions>
      </trkpt>
      <trkpt lat="42.630877532064914703369140625" lon="19.88477387465536594390869140625">
        <ele>1617.5999755859375</ele>
        <time>2026-06-16T08:00:16.000Z</time>
        <extensions>
          <ns3:TrackPointExtension>
            <ns3:atemp>20.0</ns3:atemp>
          </ns3:TrackPointExtension>
        </extensions>
      </trkpt>
      <trkpt lat="42.63086311519145965576171875" lon="19.88476431928575038909912109375">
        <ele>1617.800048828125</ele>
        <time>2026-06-16T08:00:17.000Z</time>
        <extensions>
          <ns3:TrackPointExtension>
            <ns3:atemp>20.0</ns3:atemp>
          </ns3:TrackPointExtension>
        </extensions>
      </trkpt>
      <trkpt lat="42.6308465190231800079345703125" lon="19.8847535066306591033935546875">
        <ele>1618</ele>
        <time>2026-06-16T08:00:18.000Z</time>
        <extensions>
          <ns3:TrackPointExtension>
            <ns3:atemp>20.0</ns3:atemp>
          </ns3:TrackPointExtension>
        </extensions>
      </trkpt>
      <trkpt lat="42.63083034195005893707275390625" lon="19.88474168814718723297119140625">
        <ele>1618.199951171875</ele>
        <time>2026-06-16T08:00:19.000Z</time>
        <extensions>
          <ns3:TrackPointExtension>
            <ns3:atemp>20.0</ns3:atemp>
          </ns3:TrackPointExtension>
        </extensions>
      </trkpt>
      <trkpt lat="42.630813159048557281494140625" lon="19.884729199111461639404296875">
        <ele>1618.199951171875</ele>
        <time>2026-06-16T08:00:20.000Z</time>
        <extensions>
          <ns3:TrackPointExtension>
            <ns3:atemp>20.0</ns3:atemp>
          </ns3:TrackPointExtension>
        </extensions>
      </trkpt>
      <trkpt lat="42.63079480268061161041259765625" lon="19.8847214877605438232421875">
        <ele>1618.4000244140625</ele>
        <time>2026-06-16T08:00:21.000Z</time>
        <extensions>
          <ns3:TrackPointExtension>
            <ns3:atemp>20.0</ns3:atemp>
          </ns3:TrackPointExtension>
        </extensions>
      </trkpt>
      <trkpt lat="42.63077401556074619293212890625" lon="19.88470966927707195281982421875">
        <ele>1618.5999755859375</ele>
        <time>2026-06-16T08:00:22.000Z</time>
        <extensions>
          <ns3:TrackPointExtension>
            <ns3:atemp>20.0</ns3:atemp>
          </ns3:TrackPointExtension>
        </extensions>
      </trkpt>
      <trkpt lat="42.63075607828795909881591796875" lon="19.88469994626939296722412109375">
        <ele>1618.5999755859375</ele>
        <time>2026-06-16T08:00:23.000Z</time>
        <extensions>
          <ns3:TrackPointExtension>
            <ns3:atemp>20.0</ns3:atemp>
          </ns3:TrackPointExtension>
        </extensions>
      </trkpt>
      <trkpt lat="42.6307417452335357666015625" lon="19.88469131290912628173828125">
        <ele>1618.800048828125</ele>
        <time>2026-06-16T08:00:24.000Z</time>
        <extensions>
          <ns3:TrackPointExtension>
            <ns3:atemp>20.0</ns3:atemp>
          </ns3:TrackPointExtension>
        </extensions>
      </trkpt>
      <trkpt lat="42.63072632253170013427734375" lon="19.88468368537724018096923828125">
        <ele>1619</ele>
        <time>2026-06-16T08:00:25.000Z</time>
        <extensions>
          <ns3:TrackPointExtension>
            <ns3:atemp>20.0</ns3:atemp>
          </ns3:TrackPointExtension>
        </extensions>
      </trkpt>
      <trkpt lat="42.6307070441544055938720703125" lon="19.8846784047782421112060546875">
        <ele>1619</ele>
        <time>2026-06-16T08:00:26.000Z</time>
        <extensions>
          <ns3:TrackPointExtension>
            <ns3:atemp>20.0</ns3:atemp>
          </ns3:TrackPointExtension>
        </extensions>
      </trkpt>
      <trkpt lat="42.63068617321550846099853515625" lon="19.88466859795153141021728515625">
        <ele>1619.199951171875</ele>
        <time>2026-06-16T08:00:27.000Z</time>
        <extensions>
          <ns3:TrackPointExtension>
            <ns3:atemp>20.0</ns3:atemp>
          </ns3:TrackPointExtension>
        </extensions>
      </trkpt>
      <trkpt lat="42.6306644640862941741943359375" lon="19.88465803675353527069091796875">
        <ele>1619.4000244140625</ele>
        <time>2026-06-16T08:00:28.000Z</time>
        <extensions>
          <ns3:TrackPointExtension>
            <ns3:atemp>20.0</ns3:atemp>
          </ns3:TrackPointExtension>
        </extensions>
      </trkpt>
      <trkpt lat="42.63064376078546047210693359375" lon="19.88464965485036373138427734375">
        <ele>1619.4000244140625</ele>
        <time>2026-06-16T08:00:29.000Z</time>
        <extensions>
          <ns3:TrackPointExtension>
            <ns3:atemp>20.0</ns3:atemp>
          </ns3:TrackPointExtension>
        </extensions>
      </trkpt>
      <trkpt lat="42.6306228898465633392333984375" lon="19.8846378363668918609619140625">
        <ele>1619.5999755859375</ele>
        <time>2026-06-16T08:00:30.000Z</time>
        <extensions>
          <ns3:TrackPointExtension>
            <ns3:atemp>20.0</ns3:atemp>
          </ns3:TrackPointExtension>
        </extensions>
      </trkpt>
      <trkpt lat="42.63060185126960277557373046875" lon="19.88462970592081546783447265625">
        <ele>1619.800048828125</ele>
        <time>2026-06-16T08:00:31.000Z</time>
        <extensions>
          <ns3:TrackPointExtension>
            <ns3:atemp>20.0</ns3:atemp>
          </ns3:TrackPointExtension>
        </extensions>
      </trkpt>
      <trkpt lat="42.63058324344456195831298828125" lon="19.88462517969310283660888671875">
        <ele>1620</ele>
        <time>2026-06-16T08:00:32.000Z</time>
        <extensions>
          <ns3:TrackPointExtension>
            <ns3:atemp>20.0</ns3:atemp>
          </ns3:TrackPointExtension>
        </extensions>
      </trkpt>
      <trkpt lat="42.63056631200015544891357421875" lon="19.88461512140929698944091796875">
        <ele>1620</ele>
        <time>2026-06-16T08:00:33.000Z</time>
        <extensions>
          <ns3:TrackPointExtension>
            <ns3:atemp>20.0</ns3:atemp>
          </ns3:TrackPointExtension>
        </extensions>
      </trkpt>
      <trkpt lat="42.63054854236543178558349609375" lon="19.8846093378961086273193359375">
        <ele>1620.199951171875</ele>
        <time>2026-06-16T08:00:34.000Z</time>
        <extensions>
          <ns3:TrackPointExtension>
            <ns3:atemp>20.0</ns3:atemp>
          </ns3:TrackPointExtension>
        </extensions>
      </trkpt>
      <trkpt lat="42.6305313594639301300048828125" lon="19.884605146944522857666015625">
        <ele>1620.4000244140625</ele>
        <time>2026-06-16T08:00:35.000Z</time>
        <extensions>
          <ns3:TrackPointExtension>
            <ns3:atemp>20.0</ns3:atemp>
          </ns3:TrackPointExtension>
        </extensions>
      </trkpt>
      <trkpt lat="42.6305179484188556671142578125" lon="19.88460020162165164947509765625">
        <ele>1620.4000244140625</ele>
        <time>2026-06-16T08:00:36.000Z</time>
        <extensions>
          <ns3:TrackPointExtension>
            <ns3:atemp>20.0</ns3:atemp>
          </ns3:TrackPointExtension>
        </extensions>
      </trkpt>
      <trkpt lat="42.6305030286312103271484375" lon="19.884596429765224456787109375">
        <ele>1620.5999755859375</ele>
        <time>2026-06-16T08:00:37.000Z</time>
        <extensions>
          <ns3:TrackPointExtension>
            <ns3:atemp>20.0</ns3:atemp>
          </ns3:TrackPointExtension>
        </extensions>
      </trkpt>
      <trkpt lat="42.63048701919615268707275390625" lon="19.8845925740897655487060546875">
        <ele>1620.800048828125</ele>
        <time>2026-06-16T08:00:38.000Z</time>
        <extensions>
          <ns3:TrackPointExtension>
            <ns3:atemp>20.0</ns3:atemp>
          </ns3:TrackPointExtension>
        </extensions>
      </trkpt>
      <trkpt lat="42.63046505860984325408935546875" lon="19.88458896987140178680419921875">
        <ele>1621</ele>
        <time>2026-06-16T08:00:39.000Z</time>
        <extensions>
          <ns3:TrackPointExtension>
            <ns3:atemp>20.0</ns3:atemp>
          </ns3:TrackPointExtension>
        </extensions>
      </trkpt>
      <trkpt lat="42.6304428465664386749267578125" lon="19.884583689272403717041015625">
        <ele>1621.199951171875</ele>
        <time>2026-06-16T08:00:40.000Z</time>
        <extensions>
          <ns3:TrackPointExtension>
            <ns3:atemp>20.0</ns3:atemp>
          </ns3:TrackPointExtension>
        </extensions>
      </trkpt>
      <trkpt lat="42.63042231090366840362548828125" lon="19.884578324854373931884765625">
        <ele>1621.199951171875</ele>
        <time>2026-06-16T08:00:41.000Z</time>
        <extensions>
          <ns3:TrackPointExtension>
            <ns3:atemp>20.0</ns3:atemp>
          </ns3:TrackPointExtension>
        </extensions>
      </trkpt>
      <trkpt lat="42.6304016076028347015380859375" lon="19.8845764808356761932373046875">
        <ele>1621.4000244140625</ele>
        <time>2026-06-16T08:00:42.000Z</time>
        <extensions>
          <ns3:TrackPointExtension>
            <ns3:atemp>20.0</ns3:atemp>
          </ns3:TrackPointExtension>
        </extensions>
      </trkpt>
      <trkpt lat="42.63037621043622493743896484375" lon="19.88457405008375644683837890625">
        <ele>1621.4000244140625</ele>
        <time>2026-06-16T08:00:43.000Z</time>
        <extensions>
          <ns3:TrackPointExtension>
            <ns3:atemp>20.0</ns3:atemp>
          </ns3:TrackPointExtension>
        </extensions>
      </trkpt>
      <trkpt lat="42.6303523220121860504150390625" lon="19.8845701105892658233642578125">
        <ele>1621.4000244140625</ele>
        <time>2026-06-16T08:00:44.000Z</time>
        <extensions>
          <ns3:TrackPointExtension>
            <ns3:atemp>20.0</ns3:atemp>
          </ns3:TrackPointExtension>
        </extensions>
      </trkpt>
      <trkpt lat="42.6303318701684474945068359375" lon="19.88457002677023410797119140625">
        <ele>1621.5999755859375</ele>
        <time>2026-06-16T08:00:45.000Z</time>
        <extensions>
          <ns3:TrackPointExtension>
            <ns3:atemp>20.0</ns3:atemp>
          </ns3:TrackPointExtension>
        </extensions>
      </trkpt>
      <trkpt lat="42.63031192123889923095703125" lon="19.8845630697906017303466796875">
        <ele>1621.800048828125</ele>
        <time>2026-06-16T08:00:46.000Z</time>
        <extensions>
          <ns3:TrackPointExtension>
            <ns3:atemp>20.0</ns3:atemp>
          </ns3:TrackPointExtension>
        </extensions>
      </trkpt>
      <trkpt lat="42.6302909664809703826904296875" lon="19.88455996848642826080322265625">
        <ele>1621.800048828125</ele>
        <time>2026-06-16T08:00:47.000Z</time>
        <extensions>
          <ns3:TrackPointExtension>
            <ns3:atemp>20.0</ns3:atemp>
          </ns3:TrackPointExtension>
        </extensions>
      </trkpt>
      <trkpt lat="42.63027545996010303497314453125" lon="19.88455410115420818328857421875">
        <ele>1622</ele>
        <time>2026-06-16T08:00:48.000Z</time>
        <extensions>
          <ns3:TrackPointExtension>
            <ns3:atemp>20.0</ns3:atemp>
          </ns3:TrackPointExtension>
        </extensions>
      </trkpt>
      <trkpt lat="42.6302560977637767791748046875" lon="19.88455024547874927520751953125">
        <ele>1622</ele>
        <time>2026-06-16T08:00:49.000Z</time>
        <extensions>
          <ns3:TrackPointExtension>
            <ns3:atemp>20.0</ns3:atemp>
          </ns3:TrackPointExtension>
        </extensions>
      </trkpt>
      <trkpt lat="42.6302343048155307769775390625" lon="19.8845456354320049285888671875">
        <ele>1622.199951171875</ele>
        <time>2026-06-16T08:00:50.000Z</time>
        <extensions>
          <ns3:TrackPointExtension>
            <ns3:atemp>20.0</ns3:atemp>
          </ns3:TrackPointExtension>
        </extensions>
      </trkpt>
      <trkpt lat="42.63021527789533138275146484375" lon="19.88454085774719715118408203125">
        <ele>1622.199951171875</ele>
        <time>2026-06-16T08:00:51.000Z</time>
        <extensions>
          <ns3:TrackPointExtension>
            <ns3:atemp>20.0</ns3:atemp>
          </ns3:TrackPointExtension>
        </extensions>
      </trkpt>
      <trkpt lat="42.630197592079639434814453125" lon="19.88453867845237255096435546875">
        <ele>1622.5999755859375</ele>
        <time>2026-06-16T08:00:52.000Z</time>
        <extensions>
          <ns3:TrackPointExtension>
            <ns3:atemp>20.0</ns3:atemp>
          </ns3:TrackPointExtension>
        </extensions>
      </trkpt>
      <trkpt lat="42.6301746256649494171142578125" lon="19.88453440368175506591796875">
        <ele>1622.5999755859375</ele>
        <time>2026-06-16T08:00:53.000Z</time>
        <extensions>
          <ns3:TrackPointExtension>
            <ns3:atemp>20.0</ns3:atemp>
          </ns3:TrackPointExtension>
        </extensions>
      </trkpt>
      <trkpt lat="42.63015274889767169952392578125" lon="19.88452526740729808807373046875">
        <ele>1622.5999755859375</ele>
        <time>2026-06-16T08:00:54.000Z</time>
        <extensions>
          <ns3:TrackPointExtension>
            <ns3:atemp>20.0</ns3:atemp>
          </ns3:TrackPointExtension>
        </extensions>
      </trkpt>
      <trkpt lat="42.6301296986639499664306640625" lon="19.884518645703792572021484375">
        <ele>1622.4000244140625</ele>
        <time>2026-06-16T08:00:55.000Z</time>
        <extensions>
          <ns3:TrackPointExtension>
            <ns3:atemp>20.0</ns3:atemp>
          </ns3:TrackPointExtension>
        </extensions>
      </trkpt>
      <trkpt lat="42.63010949827730655670166015625" lon="19.88450867123901844024658203125">
        <ele>1622.4000244140625</ele>
        <time>2026-06-16T08:00:56.000Z</time>
        <extensions>
          <ns3:TrackPointExtension>
            <ns3:atemp>20.0</ns3:atemp>
          </ns3:TrackPointExtension>
        </extensions>
      </trkpt>
      <trkpt lat="42.6300928182899951934814453125" lon="19.88450615666806697845458984375">
        <ele>1622.4000244140625</ele>
        <time>2026-06-16T08:00:57.000Z</time>
        <extensions>
          <ns3:TrackPointExtension>
            <ns3:atemp>20.0</ns3:atemp>
          </ns3:TrackPointExtension>
        </extensions>
      </trkpt>
      <trkpt lat="42.6300750486552715301513671875" lon="19.88449911586940288543701171875">
        <ele>1622.5999755859375</ele>
        <time>2026-06-16T08:00:58.000Z</time>
        <extensions>
          <ns3:TrackPointExtension>
            <ns3:atemp>20.0</ns3:atemp>
          </ns3:TrackPointExtension>
        </extensions>
      </trkpt>
      <trkpt lat="42.63005468063056468963623046875" lon="19.884495846927165985107421875">
        <ele>1623</ele>
        <time>2026-06-16T08:00:59.000Z</time>
        <extensions>
          <ns3:TrackPointExtension>
            <ns3:atemp>20.0</ns3:atemp>
          </ns3:TrackPointExtension>
        </extensions>
      </trkpt>
      <trkpt lat="42.63003573752939701080322265625" lon="19.88449207507073879241943359375">
        <ele>1623.199951171875</ele>
        <time>2026-06-16T08:01:00.000Z</time>
        <extensions>
          <ns3:TrackPointExtension>
            <ns3:atemp>20.0</ns3:atemp>
          </ns3:TrackPointExtension>
        </extensions>
      </trkpt>
      <trkpt lat="42.6300123520195484161376953125" lon="19.88448905758559703826904296875">
        <ele>1623.5999755859375</ele>
        <time>2026-06-16T08:01:01.000Z</time>
        <extensions>
          <ns3:TrackPointExtension>
            <ns3:atemp>20.0</ns3:atemp>
          </ns3:TrackPointExtension>
        </extensions>
      </trkpt>
      <trkpt lat="42.62999349273741245269775390625" lon="19.88448478281497955322265625">
        <ele>1623.800048828125</ele>
        <time>2026-06-16T08:01:02.000Z</time>
        <extensions>
          <ns3:TrackPointExtension>
            <ns3:atemp>19.0</ns3:atemp>
          </ns3:TrackPointExtension>
        </extensions>
      </trkpt>
      <trkpt lat="42.62997304089367389678955078125" lon="19.88447899930179119110107421875">
        <ele>1624</ele>
        <time>2026-06-16T08:01:03.000Z</time>
        <extensions>
          <ns3:TrackPointExtension>
            <ns3:atemp>19.0</ns3:atemp>
          </ns3:TrackPointExtension>
        </extensions>
      </trkpt>
      <trkpt lat="42.6299553550779819488525390625" lon="19.88447279669344425201416015625">
        <ele>1624.4000244140625</ele>
        <time>2026-06-16T08:01:04.000Z</time>
        <extensions>
          <ns3:TrackPointExtension>
            <ns3:atemp>19.0</ns3:atemp>
          </ns3:TrackPointExtension>
        </extensions>
      </trkpt>
      <trkpt lat="42.62993666343390941619873046875" lon="19.8844644986093044281005859375">
        <ele>1624.5999755859375</ele>
        <time>2026-06-16T08:01:05.000Z</time>
        <extensions>
          <ns3:TrackPointExtension>
            <ns3:atemp>19.0</ns3:atemp>
          </ns3:TrackPointExtension>
        </extensions>
      </trkpt>
      <trkpt lat="42.629917301237583160400390625" lon="19.88445251248776912689208984375">
        <ele>1624.800048828125</ele>
        <time>2026-06-16T08:01:06.000Z</time>
        <extensions>
          <ns3:TrackPointExtension>
            <ns3:atemp>19.0</ns3:atemp>
          </ns3:TrackPointExtension>
        </extensions>
      </trkpt>
      <trkpt lat="42.62989978305995464324951171875" lon="19.88444387912750244140625">
        <ele>1625</ele>
        <time>2026-06-16T08:01:07.000Z</time>
        <extensions>
          <ns3:TrackPointExtension>
            <ns3:atemp>19.0</ns3:atemp>
          </ns3:TrackPointExtension>
        </extensions>
      </trkpt>
      <trkpt lat="42.629880420863628387451171875" lon="19.8844373412430286407470703125">
        <ele>1625.199951171875</ele>
        <time>2026-06-16T08:01:08.000Z</time>
        <extensions>
          <ns3:TrackPointExtension>
            <ns3:atemp>19.0</ns3:atemp>
          </ns3:TrackPointExtension>
        </extensions>
      </trkpt>
      <trkpt lat="42.62986105866730213165283203125" lon="19.88443189300596714019775390625">
        <ele>1625.4000244140625</ele>
        <time>2026-06-16T08:01:09.000Z</time>
        <extensions>
          <ns3:TrackPointExtension>
            <ns3:atemp>19.0</ns3:atemp>
          </ns3:TrackPointExtension>
        </extensions>
      </trkpt>
      <trkpt lat="42.6298432052135467529296875" lon="19.88442569039762020111083984375">
        <ele>1625.800048828125</ele>
        <time>2026-06-16T08:01:10.000Z</time>
        <extensions>
          <ns3:TrackPointExtension>
            <ns3:atemp>19.0</ns3:atemp>
          </ns3:TrackPointExtension>
        </extensions>
      </trkpt>
      <trkpt lat="42.6298235915601253509521484375" lon="19.88441999070346355438232421875">
        <ele>1626</ele>
        <time>2026-06-16T08:01:11.000Z</time>
        <extensions>
          <ns3:TrackPointExtension>
            <ns3:atemp>19.0</ns3:atemp>
          </ns3:TrackPointExtension>
        </extensions>
      </trkpt>
      <trkpt lat="42.629801966249942779541015625" lon="19.88441714085638523101806640625">
        <ele>1626.199951171875</ele>
        <time>2026-06-16T08:01:12.000Z</time>
        <extensions>
          <ns3:TrackPointExtension>
            <ns3:atemp>19.0</ns3:atemp>
          </ns3:TrackPointExtension>
        </extensions>
      </trkpt>
      <trkpt lat="42.6297820173203945159912109375" lon="19.88441177643835544586181640625">
        <ele>1626.5999755859375</ele>
        <time>2026-06-16T08:01:13.000Z</time>
        <extensions>
          <ns3:TrackPointExtension>
            <ns3:atemp>19.0</ns3:atemp>
          </ns3:TrackPointExtension>
        </extensions>
      </trkpt>
      <trkpt lat="42.62976416386663913726806640625" lon="19.88440775312483310699462890625">
        <ele>1626.800048828125</ele>
        <time>2026-06-16T08:01:14.000Z</time>
        <extensions>
          <ns3:TrackPointExtension>
            <ns3:atemp>19.0</ns3:atemp>
          </ns3:TrackPointExtension>
        </extensions>
      </trkpt>
      <trkpt lat="42.62974639423191547393798828125" lon="19.8844011314213275909423828125">
        <ele>1627</ele>
        <time>2026-06-16T08:01:15.000Z</time>
        <extensions>
          <ns3:TrackPointExtension>
            <ns3:atemp>19.0</ns3:atemp>
          </ns3:TrackPointExtension>
        </extensions>
      </trkpt>
      <trkpt lat="42.629727534949779510498046875" lon="19.884397946298122406005859375">
        <ele>1627.4000244140625</ele>
        <time>2026-06-16T08:01:16.000Z</time>
        <extensions>
          <ns3:TrackPointExtension>
            <ns3:atemp>19.0</ns3:atemp>
          </ns3:TrackPointExtension>
        </extensions>
      </trkpt>
      <trkpt lat="42.62971102260053157806396484375" lon="19.88439383916556835174560546875">
        <ele>1627.800048828125</ele>
        <time>2026-06-16T08:01:17.000Z</time>
        <extensions>
          <ns3:TrackPointExtension>
            <ns3:atemp>19.0</ns3:atemp>
          </ns3:TrackPointExtension>
        </extensions>
      </trkpt>
      <trkpt lat="42.6296956837177276611328125" lon="19.88439065404236316680908203125">
        <ele>1628</ele>
        <time>2026-06-16T08:01:18.000Z</time>
        <extensions>
          <ns3:TrackPointExtension>
            <ns3:atemp>19.0</ns3:atemp>
          </ns3:TrackPointExtension>
        </extensions>
      </trkpt>
      <trkpt lat="42.62967984192073345184326171875" lon="19.88438696600496768951416015625">
        <ele>1628.199951171875</ele>
        <time>2026-06-16T08:01:19.000Z</time>
        <extensions>
          <ns3:TrackPointExtension>
            <ns3:atemp>19.0</ns3:atemp>
          </ns3:TrackPointExtension>
        </extensions>
      </trkpt>
      <trkpt lat="42.62966492213308811187744140625" lon="19.88437808118760585784912109375">
        <ele>1628.5999755859375</ele>
        <time>2026-06-16T08:01:20.000Z</time>
        <extensions>
          <ns3:TrackPointExtension>
            <ns3:atemp>19.0</ns3:atemp>
          </ns3:TrackPointExtension>
        </extensions>
      </trkpt>
      <trkpt lat="42.62964983470737934112548828125" lon="19.88437078893184661865234375">
        <ele>1628.800048828125</ele>
        <time>2026-06-16T08:01:21.000Z</time>
        <extensions>
          <ns3:TrackPointExtension>
            <ns3:atemp>19.0</ns3:atemp>
          </ns3:TrackPointExtension>
        </extensions>
      </trkpt>
      <trkpt lat="42.62963793240487575531005859375" lon="19.88436601124703884124755859375">
        <ele>1629.199951171875</ele>
        <time>2026-06-16T08:01:22.000Z</time>
        <extensions>
          <ns3:TrackPointExtension>
            <ns3:atemp>19.0</ns3:atemp>
          </ns3:TrackPointExtension>
        </extensions>
      </trkpt>
      <trkpt lat="42.62962217442691326141357421875" lon="19.88436383195221424102783203125">
        <ele>1629.4000244140625</ele>
        <time>2026-06-16T08:01:23.000Z</time>
        <extensions>
          <ns3:TrackPointExtension>
            <ns3:atemp>19.0</ns3:atemp>
          </ns3:TrackPointExtension>
        </extensions>
      </trkpt>
      <trkpt lat="42.62960775755345821380615234375" lon="19.88436332903802394866943359375">
        <ele>1629.800048828125</ele>
        <time>2026-06-16T08:01:24.000Z</time>
        <extensions>
          <ns3:TrackPointExtension>
            <ns3:atemp>19.0</ns3:atemp>
          </ns3:TrackPointExtension>
        </extensions>
      </trkpt>
      <trkpt lat="42.62959065847098827362060546875" lon="19.8843608982861042022705078125">
        <ele>1630</ele>
        <time>2026-06-16T08:01:25.000Z</time>
        <extensions>
          <ns3:TrackPointExtension>
            <ns3:atemp>19.0</ns3:atemp>
          </ns3:TrackPointExtension>
        </extensions>
      </trkpt>
      <trkpt lat="42.62957255356013774871826171875" lon="19.88435595296323299407958984375">
        <ele>1630.4000244140625</ele>
        <time>2026-06-16T08:01:26.000Z</time>
        <extensions>
          <ns3:TrackPointExtension>
            <ns3:atemp>19.0</ns3:atemp>
          </ns3:TrackPointExtension>
        </extensions>
      </trkpt>
      <trkpt lat="42.62955679558217525482177734375" lon="19.88434933125972747802734375">
        <ele>1630.5999755859375</ele>
        <time>2026-06-16T08:01:27.000Z</time>
        <extensions>
          <ns3:TrackPointExtension>
            <ns3:atemp>19.0</ns3:atemp>
          </ns3:TrackPointExtension>
        </extensions>
      </trkpt>
      <trkpt lat="42.62954212725162506103515625" lon="19.8843464814126491546630859375">
        <ele>1630.800048828125</ele>
        <time>2026-06-16T08:01:28.000Z</time>
        <extensions>
          <ns3:TrackPointExtension>
            <ns3:atemp>19.0</ns3:atemp>
          </ns3:TrackPointExtension>
        </extensions>
      </trkpt>
      <trkpt lat="42.6295231841504573822021484375" lon="19.8843448050320148468017578125">
        <ele>1631</ele>
        <time>2026-06-16T08:01:29.000Z</time>
        <extensions>
          <ns3:TrackPointExtension>
            <ns3:atemp>19.0</ns3:atemp>
          </ns3:TrackPointExtension>
        </extensions>
      </trkpt>
      <trkpt lat="42.62950734235346317291259765625" lon="19.88434304483234882354736328125">
        <ele>1631.4000244140625</ele>
        <time>2026-06-16T08:01:30.000Z</time>
        <extensions>
          <ns3:TrackPointExtension>
            <ns3:atemp>19.0</ns3:atemp>
          </ns3:TrackPointExtension>
        </extensions>
      </trkpt>
      <trkpt lat="42.62949443422257900238037109375" lon="19.88433717750012874603271484375">
        <ele>1631.5999755859375</ele>
        <time>2026-06-16T08:01:31.000Z</time>
        <extensions>
          <ns3:TrackPointExtension>
            <ns3:atemp>19.0</ns3:atemp>
          </ns3:TrackPointExtension>
        </extensions>
      </trkpt>
      <trkpt lat="42.62947507202625274658203125" lon="19.8843298852443695068359375">
        <ele>1632</ele>
        <time>2026-06-16T08:01:32.000Z</time>
        <extensions>
          <ns3:TrackPointExtension>
            <ns3:atemp>19.0</ns3:atemp>
          </ns3:TrackPointExtension>
        </extensions>
      </trkpt>
      <trkpt lat="42.6294551230967044830322265625" lon="19.884326197206974029541015625">
        <ele>1632.4000244140625</ele>
        <time>2026-06-16T08:01:33.000Z</time>
        <extensions>
          <ns3:TrackPointExtension>
            <ns3:atemp>19.0</ns3:atemp>
          </ns3:TrackPointExtension>
        </extensions>
      </trkpt>
      <trkpt lat="42.62944062240421772003173828125" lon="19.88431789912283420562744140625">
        <ele>1632.5999755859375</ele>
        <time>2026-06-16T08:01:34.000Z</time>
        <extensions>
          <ns3:TrackPointExtension>
            <ns3:atemp>19.0</ns3:atemp>
          </ns3:TrackPointExtension>
        </extensions>
      </trkpt>
      <trkpt lat="42.62941950000822544097900390625" lon="19.8843112774193286895751953125">
        <ele>1632.800048828125</ele>
        <time>2026-06-16T08:01:35.000Z</time>
        <extensions>
          <ns3:TrackPointExtension>
            <ns3:atemp>19.0</ns3:atemp>
          </ns3:TrackPointExtension>
        </extensions>
      </trkpt>
      <trkpt lat="42.629401981830596923828125" lon="19.88430214114487171173095703125">
        <ele>1633.199951171875</ele>
        <time>2026-06-16T08:01:36.000Z</time>
        <extensions>
          <ns3:TrackPointExtension>
            <ns3:atemp>19.0</ns3:atemp>
          </ns3:TrackPointExtension>
        </extensions>
      </trkpt>
      <trkpt lat="42.62938614003360271453857421875" lon="19.88429795019328594207763671875">
        <ele>1633.4000244140625</ele>
        <time>2026-06-16T08:01:37.000Z</time>
        <extensions>
          <ns3:TrackPointExtension>
            <ns3:atemp>19.0</ns3:atemp>
          </ns3:TrackPointExtension>
        </extensions>
      </trkpt>
      <trkpt lat="42.629367448389530181884765625" lon="19.88428973592817783355712890625">
        <ele>1633.800048828125</ele>
        <time>2026-06-16T08:01:38.000Z</time>
        <extensions>
          <ns3:TrackPointExtension>
            <ns3:atemp>19.0</ns3:atemp>
          </ns3:TrackPointExtension>
        </extensions>
      </trkpt>
      <trkpt lat="42.6293525286018848419189453125" lon="19.88428068347275257110595703125">
        <ele>1634</ele>
        <time>2026-06-16T08:01:39.000Z</time>
        <extensions>
          <ns3:TrackPointExtension>
            <ns3:atemp>19.0</ns3:atemp>
          </ns3:TrackPointExtension>
        </extensions>
      </trkpt>
      <trkpt lat="42.62933693826198577880859375" lon="19.88427632488310337066650390625">
        <ele>1634.4000244140625</ele>
        <time>2026-06-16T08:01:40.000Z</time>
        <extensions>
          <ns3:TrackPointExtension>
            <ns3:atemp>19.0</ns3:atemp>
          </ns3:TrackPointExtension>
        </extensions>
      </trkpt>
      <trkpt lat="42.6293176598846912384033203125" lon="19.88427221775054931640625">
        <ele>1634.5999755859375</ele>
        <time>2026-06-16T08:01:41.000Z</time>
        <extensions>
          <ns3:TrackPointExtension>
            <ns3:atemp>19.0</ns3:atemp>
          </ns3:TrackPointExtension>
        </extensions>
      </trkpt>
      <trkpt lat="42.6292988844215869903564453125" lon="19.88426727242767810821533203125">
        <ele>1635</ele>
        <time>2026-06-16T08:01:42.000Z</time>
        <extensions>
          <ns3:TrackPointExtension>
            <ns3:atemp>19.0</ns3:atemp>
          </ns3:TrackPointExtension>
        </extensions>
      </trkpt>
      <trkpt lat="42.62928354553878307342529296875" lon="19.88425889052450656890869140625">
        <ele>1635.4000244140625</ele>
        <time>2026-06-16T08:01:43.000Z</time>
        <extensions>
          <ns3:TrackPointExtension>
            <ns3:atemp>19.0</ns3:atemp>
          </ns3:TrackPointExtension>
        </extensions>
      </trkpt>
      <trkpt lat="42.62926493771374225616455078125" lon="19.884253777563571929931640625">
        <ele>1635.5999755859375</ele>
        <time>2026-06-16T08:01:44.000Z</time>
        <extensions>
          <ns3:TrackPointExtension>
            <ns3:atemp>19.0</ns3:atemp>
          </ns3:TrackPointExtension>
        </extensions>
      </trkpt>
      <trkpt lat="42.62924565933644771575927734375" lon="19.884245060384273529052734375">
        <ele>1636</ele>
        <time>2026-06-16T08:01:45.000Z</time>
        <extensions>
          <ns3:TrackPointExtension>
            <ns3:atemp>19.0</ns3:atemp>
          </ns3:TrackPointExtension>
        </extensions>
      </trkpt>
      <trkpt lat="42.629226632416248321533203125" lon="19.88423575647175312042236328125">
        <ele>1636.199951171875</ele>
        <time>2026-06-16T08:01:46.000Z</time>
        <extensions>
          <ns3:TrackPointExtension>
            <ns3:atemp>19.0</ns3:atemp>
          </ns3:TrackPointExtension>
        </extensions>
      </trkpt>
      <trkpt lat="42.6292056776583194732666015625" lon="19.884230978786945343017578125">
        <ele>1636.4000244140625</ele>
        <time>2026-06-16T08:01:47.000Z</time>
        <extensions>
          <ns3:TrackPointExtension>
            <ns3:atemp>19.0</ns3:atemp>
          </ns3:TrackPointExtension>
        </extensions>
      </trkpt>
      <trkpt lat="42.629188410937786102294921875" lon="19.88422083668410778045654296875">
        <ele>1636.800048828125</ele>
        <time>2026-06-16T08:01:48.000Z</time>
        <extensions>
          <ns3:TrackPointExtension>
            <ns3:atemp>19.0</ns3:atemp>
          </ns3:TrackPointExtension>
        </extensions>
      </trkpt>
      <trkpt lat="42.6291726529598236083984375" lon="19.88420725800096988677978515625">
        <ele>1637</ele>
        <time>2026-06-16T08:01:49.000Z</time>
        <extensions>
          <ns3:TrackPointExtension>
            <ns3:atemp>19.0</ns3:atemp>
          </ns3:TrackPointExtension>
        </extensions>
      </trkpt>
      <trkpt lat="42.62915731407701969146728515625" lon="19.88419669680297374725341796875">
        <ele>1637.4000244140625</ele>
        <time>2026-06-16T08:01:50.000Z</time>
        <extensions>
          <ns3:TrackPointExtension>
            <ns3:atemp>19.0</ns3:atemp>
          </ns3:TrackPointExtension>
        </extensions>
      </trkpt>
      <trkpt lat="42.629143483936786651611328125" lon="19.884184710681438446044921875">
        <ele>1637.5999755859375</ele>
        <time>2026-06-16T08:01:51.000Z</time>
        <extensions>
          <ns3:TrackPointExtension>
            <ns3:atemp>19.0</ns3:atemp>
          </ns3:TrackPointExtension>
        </extensions>
      </trkpt>
      <trkpt lat="42.6291288994252681732177734375" lon="19.88417339511215686798095703125">
        <ele>1638</ele>
        <time>2026-06-16T08:01:52.000Z</time>
        <extensions>
          <ns3:TrackPointExtension>
            <ns3:atemp>19.0</ns3:atemp>
          </ns3:TrackPointExtension>
        </extensions>
      </trkpt>
      <trkpt lat="42.62911523692309856414794921875" lon="19.88415931351482868194580078125">
        <ele>1638.199951171875</ele>
        <time>2026-06-16T08:01:53.000Z</time>
        <extensions>
          <ns3:TrackPointExtension>
            <ns3:atemp>19.0</ns3:atemp>
          </ns3:TrackPointExtension>
        </extensions>
      </trkpt>
      <trkpt lat="42.6291054300963878631591796875" lon="19.88414707593619823455810546875">
        <ele>1638.5999755859375</ele>
        <time>2026-06-16T08:01:54.000Z</time>
        <extensions>
          <ns3:TrackPointExtension>
            <ns3:atemp>19.0</ns3:atemp>
          </ns3:TrackPointExtension>
        </extensions>
      </trkpt>
      <trkpt lat="42.629093192517757415771484375" lon="19.88413550890982151031494140625">
        <ele>1638.800048828125</ele>
        <time>2026-06-16T08:01:55.000Z</time>
        <extensions>
          <ns3:TrackPointExtension>
            <ns3:atemp>19.0</ns3:atemp>
          </ns3:TrackPointExtension>
        </extensions>
      </trkpt>
      <trkpt lat="42.62908120639622211456298828125" lon="19.88412511534988880157470703125">
        <ele>1639.199951171875</ele>
        <time>2026-06-16T08:01:56.000Z</time>
        <extensions>
          <ns3:TrackPointExtension>
            <ns3:atemp>19.0</ns3:atemp>
          </ns3:TrackPointExtension>
        </extensions>
      </trkpt>
      <trkpt lat="42.6290667057037353515625" lon="19.88411120139062404632568359375">
        <ele>1639.5999755859375</ele>
        <time>2026-06-16T08:01:57.000Z</time>
        <extensions>
          <ns3:TrackPointExtension>
            <ns3:atemp>19.0</ns3:atemp>
          </ns3:TrackPointExtension>
        </extensions>
      </trkpt>
      <trkpt lat="42.62905664741992950439453125" lon="19.8840993829071521759033203125">
        <ele>1639.800048828125</ele>
        <time>2026-06-16T08:01:58.000Z</time>
        <extensions>
          <ns3:TrackPointExtension>
            <ns3:atemp>19.0</ns3:atemp>
          </ns3:TrackPointExtension>
        </extensions>
      </trkpt>
      <trkpt lat="42.62904013507068157196044921875" lon="19.88408890552818775177001953125">
        <ele>1640</ele>
        <time>2026-06-16T08:01:59.000Z</time>
        <extensions>
          <ns3:TrackPointExtension>
            <ns3:atemp>19.0</ns3:atemp>
          </ns3:TrackPointExtension>
        </extensions>
      </trkpt>
      <trkpt lat="42.62902219779789447784423828125" lon="19.88408018834888935089111328125">
        <ele>1640.4000244140625</ele>
        <time>2026-06-16T08:02:00.000Z</time>
        <extensions>
          <ns3:TrackPointExtension>
            <ns3:atemp>19.0</ns3:atemp>
          </ns3:TrackPointExtension>
        </extensions>
      </trkpt>
      <trkpt lat="42.62900627218186855316162109375" lon="19.88406811840832233428955078125">
        <ele>1640.5999755859375</ele>
        <time>2026-06-16T08:02:01.000Z</time>
        <extensions>
          <ns3:TrackPointExtension>
            <ns3:atemp>19.0</ns3:atemp>
          </ns3:TrackPointExtension>
        </extensions>
      </trkpt>
      <trkpt lat="42.62899118475615978240966796875" lon="19.8840578086674213409423828125">
        <ele>1640.800048828125</ele>
        <time>2026-06-16T08:02:02.000Z</time>
        <extensions>
          <ns3:TrackPointExtension>
            <ns3:atemp>19.0</ns3:atemp>
          </ns3:TrackPointExtension>
        </extensions>
      </trkpt>
      <trkpt lat="42.62897743843495845794677734375" lon="19.88404917530715465545654296875">
        <ele>1641.199951171875</ele>
        <time>2026-06-16T08:02:03.000Z</time>
        <extensions>
          <ns3:TrackPointExtension>
            <ns3:atemp>19.0</ns3:atemp>
          </ns3:TrackPointExtension>
        </extensions>
      </trkpt>
      <trkpt lat="42.6289626024663448333740234375" lon="19.8840430565178394317626953125">
        <ele>1641.4000244140625</ele>
        <time>2026-06-16T08:02:04.000Z</time>
        <extensions>
          <ns3:TrackPointExtension>
            <ns3:atemp>19.0</ns3:atemp>
          </ns3:TrackPointExtension>
        </extensions>
      </trkpt>
      <trkpt lat="42.62894692830741405487060546875" lon="19.88404263742268085479736328125">
        <ele>1641.800048828125</ele>
        <time>2026-06-16T08:02:05.000Z</time>
        <extensions>
          <ns3:TrackPointExtension>
            <ns3:atemp>19.0</ns3:atemp>
          </ns3:TrackPointExtension>
        </extensions>
      </trkpt>
      <trkpt lat="42.62893133796751499176025390625" lon="19.88403509370982646942138671875">
        <ele>1642</ele>
        <time>2026-06-16T08:02:06.000Z</time>
        <extensions>
          <ns3:TrackPointExtension>
            <ns3:atemp>19.0</ns3:atemp>
          </ns3:TrackPointExtension>
        </extensions>
      </trkpt>
      <trkpt lat="42.628914825618267059326171875" lon="19.88402905873954296112060546875">
        <ele>1642.199951171875</ele>
        <time>2026-06-16T08:02:07.000Z</time>
        <extensions>
          <ns3:TrackPointExtension>
            <ns3:atemp>19.0</ns3:atemp>
          </ns3:TrackPointExtension>
        </extensions>
      </trkpt>
      <trkpt lat="42.62889864854514598846435546875" lon="19.88401883281767368316650390625">
        <ele>1642.5999755859375</ele>
        <time>2026-06-16T08:02:08.000Z</time>
        <extensions>
          <ns3:TrackPointExtension>
            <ns3:atemp>19.0</ns3:atemp>
          </ns3:TrackPointExtension>
        </extensions>
      </trkpt>
      <trkpt lat="42.6288804598152637481689453125" lon="19.88401648588478565216064453125">
        <ele>1642.800048828125</ele>
        <time>2026-06-16T08:02:09.000Z</time>
        <extensions>
          <ns3:TrackPointExtension>
            <ns3:atemp>19.0</ns3:atemp>
          </ns3:TrackPointExtension>
        </extensions>
      </trkpt>
      <trkpt lat="42.62886210344731807708740234375" lon="19.8840145580470561981201171875">
        <ele>1643.199951171875</ele>
        <time>2026-06-16T08:02:10.000Z</time>
        <extensions>
          <ns3:TrackPointExtension>
            <ns3:atemp>19.0</ns3:atemp>
          </ns3:TrackPointExtension>
        </extensions>
      </trkpt>
      <trkpt lat="42.62884567491710186004638671875" lon="19.884007014334201812744140625">
        <ele>1643.4000244140625</ele>
        <time>2026-06-16T08:02:11.000Z</time>
        <extensions>
          <ns3:TrackPointExtension>
            <ns3:atemp>19.0</ns3:atemp>
          </ns3:TrackPointExtension>
        </extensions>
      </trkpt>
      <trkpt lat="42.62882757000625133514404296875" lon="19.88400022499263286590576171875">
        <ele>1643.800048828125</ele>
        <time>2026-06-16T08:02:12.000Z</time>
        <extensions>
          <ns3:TrackPointExtension>
            <ns3:atemp>19.0</ns3:atemp>
          </ns3:TrackPointExtension>
        </extensions>
      </trkpt>
      <trkpt lat="42.62880493886768817901611328125" lon="19.884000979363918304443359375">
        <ele>1644</ele>
        <time>2026-06-16T08:02:13.000Z</time>
        <extensions>
          <ns3:TrackPointExtension>
            <ns3:atemp>19.0</ns3:atemp>
          </ns3:TrackPointExtension>
        </extensions>
      </trkpt>
      <trkpt lat="42.628789432346820831298828125" lon="19.8839907534420490264892578125">
        <ele>1644.199951171875</ele>
        <time>2026-06-16T08:02:14.000Z</time>
        <extensions>
          <ns3:TrackPointExtension>
            <ns3:atemp>19.0</ns3:atemp>
          </ns3:TrackPointExtension>
        </extensions>
      </trkpt>
      <trkpt lat="42.628774009644985198974609375" lon="19.88398748449981212615966796875">
        <ele>1644.5999755859375</ele>
        <time>2026-06-16T08:02:15.000Z</time>
        <extensions>
          <ns3:TrackPointExtension>
            <ns3:atemp>19.0</ns3:atemp>
          </ns3:TrackPointExtension>
        </extensions>
      </trkpt>
      <trkpt lat="42.62875489890575408935546875" lon="19.88398580811917781829833984375">
        <ele>1644.800048828125</ele>
        <time>2026-06-16T08:02:16.000Z</time>
        <extensions>
          <ns3:TrackPointExtension>
            <ns3:atemp>19.0</ns3:atemp>
          </ns3:TrackPointExtension>
        </extensions>
      </trkpt>
      <trkpt lat="42.628734447062015533447265625" lon="19.883980862796306610107421875">
        <ele>1645.199951171875</ele>
        <time>2026-06-16T08:02:17.000Z</time>
        <extensions>
          <ns3:TrackPointExtension>
            <ns3:atemp>19.0</ns3:atemp>
          </ns3:TrackPointExtension>
        </extensions>
      </trkpt>
      <trkpt lat="42.62871458195149898529052734375" lon="19.883977510035037994384765625">
        <ele>1645.4000244140625</ele>
        <time>2026-06-16T08:02:18.000Z</time>
        <extensions>
          <ns3:TrackPointExtension>
            <ns3:atemp>19.0</ns3:atemp>
          </ns3:TrackPointExtension>
        </extensions>
      </trkpt>
      <trkpt lat="42.62869614176452159881591796875" lon="19.8839746601879596710205078125">
        <ele>1645.800048828125</ele>
        <time>2026-06-16T08:02:19.000Z</time>
        <extensions>
          <ns3:TrackPointExtension>
            <ns3:atemp>19.0</ns3:atemp>
          </ns3:TrackPointExtension>
        </extensions>
      </trkpt>
      <trkpt lat="42.62867921032011508941650390625" lon="19.88397239707410335540771484375">
        <ele>1646</ele>
        <time>2026-06-16T08:02:20.000Z</time>
        <extensions>
          <ns3:TrackPointExtension>
            <ns3:atemp>19.0</ns3:atemp>
          </ns3:TrackPointExtension>
        </extensions>
      </trkpt>
      <trkpt lat="42.62866378761827945709228515625" lon="19.88396401517093181610107421875">
        <ele>1646.199951171875</ele>
        <time>2026-06-16T08:02:21.000Z</time>
        <extensions>
          <ns3:TrackPointExtension>
            <ns3:atemp>19.0</ns3:atemp>
          </ns3:TrackPointExtension>
        </extensions>
      </trkpt>
      <trkpt lat="42.6286420784890651702880859375" lon="19.883956722915172576904296875">
        <ele>1646.5999755859375</ele>
        <time>2026-06-16T08:02:22.000Z</time>
        <extensions>
          <ns3:TrackPointExtension>
            <ns3:atemp>19.0</ns3:atemp>
          </ns3:TrackPointExtension>
        </extensions>
      </trkpt>
      <trkpt lat="42.62862539850175380706787109375" lon="19.88395529799163341522216796875">
        <ele>1646.800048828125</ele>
        <time>2026-06-16T08:02:23.000Z</time>
        <extensions>
          <ns3:TrackPointExtension>
            <ns3:atemp>19.0</ns3:atemp>
          </ns3:TrackPointExtension>
        </extensions>
      </trkpt>
      <trkpt lat="42.628607712686061859130859375" lon="19.883947670459747314453125">
        <ele>1647.199951171875</ele>
        <time>2026-06-16T08:02:24.000Z</time>
        <extensions>
          <ns3:TrackPointExtension>
            <ns3:atemp>19.0</ns3:atemp>
          </ns3:TrackPointExtension>
        </extensions>
      </trkpt>
      <trkpt lat="42.6285867579281330108642578125" lon="19.88394758664071559906005859375">
        <ele>1647.4000244140625</ele>
        <time>2026-06-16T08:02:25.000Z</time>
        <extensions>
          <ns3:TrackPointExtension>
            <ns3:atemp>19.0</ns3:atemp>
          </ns3:TrackPointExtension>
        </extensions>
      </trkpt>
      <trkpt lat="42.628564126789569854736328125" lon="19.8839468322694301605224609375">
        <ele>1647.800048828125</ele>
        <time>2026-06-16T08:02:26.000Z</time>
        <extensions>
          <ns3:TrackPointExtension>
            <ns3:atemp>19.0</ns3:atemp>
          </ns3:TrackPointExtension>
        </extensions>
      </trkpt>
      <trkpt lat="42.62854568660259246826171875" lon="19.88394423387944698333740234375">
        <ele>1648</ele>
        <time>2026-06-16T08:02:27.000Z</time>
        <extensions>
          <ns3:TrackPointExtension>
            <ns3:atemp>19.0</ns3:atemp>
          </ns3:TrackPointExtension>
        </extensions>
      </trkpt>
      <trkpt lat="42.62852733023464679718017578125" lon="19.88394322805106639862060546875">
        <ele>1648.4000244140625</ele>
        <time>2026-06-16T08:02:28.000Z</time>
        <extensions>
          <ns3:TrackPointExtension>
            <ns3:atemp>19.0</ns3:atemp>
          </ns3:TrackPointExtension>
        </extensions>
      </trkpt>
      <trkpt lat="42.62850956059992313385009765625" lon="19.8839342594146728515625">
        <ele>1648.5999755859375</ele>
        <time>2026-06-16T08:02:29.000Z</time>
        <extensions>
          <ns3:TrackPointExtension>
            <ns3:atemp>19.0</ns3:atemp>
          </ns3:TrackPointExtension>
        </extensions>
      </trkpt>
      <trkpt lat="42.62849430553615093231201171875" lon="19.88392411731183528900146484375">
        <ele>1649</ele>
        <time>2026-06-16T08:02:30.000Z</time>
        <extensions>
          <ns3:TrackPointExtension>
            <ns3:atemp>19.0</ns3:atemp>
          </ns3:TrackPointExtension>
        </extensions>
      </trkpt>
      <trkpt lat="42.62847536243498325347900390625" lon="19.88392109982669353485107421875">
        <ele>1649.4000244140625</ele>
        <time>2026-06-16T08:02:31.000Z</time>
        <extensions>
          <ns3:TrackPointExtension>
            <ns3:atemp>19.0</ns3:atemp>
          </ns3:TrackPointExtension>
        </extensions>
      </trkpt>
      <trkpt lat="42.6284586824476718902587890625" lon="19.88391070626676082611083984375">
        <ele>1649.5999755859375</ele>
        <time>2026-06-16T08:02:32.000Z</time>
        <extensions>
          <ns3:TrackPointExtension>
            <ns3:atemp>19.0</ns3:atemp>
          </ns3:TrackPointExtension>
        </extensions>
      </trkpt>
      <trkpt lat="42.62844300828874111175537109375" lon="19.88389863632619380950927734375">
        <ele>1649.800048828125</ele>
        <time>2026-06-16T08:02:33.000Z</time>
        <extensions>
          <ns3:TrackPointExtension>
            <ns3:atemp>19.0</ns3:atemp>
          </ns3:TrackPointExtension>
        </extensions>
      </trkpt>
      <trkpt lat="42.62843311764299869537353515625" lon="19.88388773985207080841064453125">
        <ele>1650.199951171875</ele>
        <time>2026-06-16T08:02:34.000Z</time>
        <extensions>
          <ns3:TrackPointExtension>
            <ns3:atemp>19.0</ns3:atemp>
          </ns3:TrackPointExtension>
        </extensions>
      </trkpt>
      <trkpt lat="42.6284181140363216400146484375" lon="19.88388036377727985382080078125">
        <ele>1650.4000244140625</ele>
        <time>2026-06-16T08:02:35.000Z</time>
        <extensions>
          <ns3:TrackPointExtension>
            <ns3:atemp>19.0</ns3:atemp>
          </ns3:TrackPointExtension>
        </extensions>
      </trkpt>
      <trkpt lat="42.62840243987739086151123046875" lon="19.8838698863983154296875">
        <ele>1650.800048828125</ele>
        <time>2026-06-16T08:02:36.000Z</time>
        <extensions>
          <ns3:TrackPointExtension>
            <ns3:atemp>19.0</ns3:atemp>
          </ns3:TrackPointExtension>
        </extensions>
      </trkpt>
      <trkpt lat="42.6283882744610309600830078125" lon="19.88385454751551151275634765625">
        <ele>1651.199951171875</ele>
        <time>2026-06-16T08:02:37.000Z</time>
        <extensions>
          <ns3:TrackPointExtension>
            <ns3:atemp>19.0</ns3:atemp>
          </ns3:TrackPointExtension>
        </extensions>
      </trkpt>
      <trkpt lat="42.62836907990276813507080078125" lon="19.88383962772786617279052734375">
        <ele>1651.4000244140625</ele>
        <time>2026-06-16T08:02:38.000Z</time>
        <extensions>
          <ns3:TrackPointExtension>
            <ns3:atemp>19.0</ns3:atemp>
          </ns3:TrackPointExtension>
        </extensions>
      </trkpt>
      <trkpt lat="42.62835550121963024139404296875" lon="19.88382487557828426361083984375">
        <ele>1651.800048828125</ele>
        <time>2026-06-16T08:02:39.000Z</time>
        <extensions>
          <ns3:TrackPointExtension>
            <ns3:atemp>19.0</ns3:atemp>
          </ns3:TrackPointExtension>
        </extensions>
      </trkpt>
      <trkpt lat="42.62834410183131694793701171875" lon="19.88381012342870235443115234375">
        <ele>1652</ele>
        <time>2026-06-16T08:02:40.000Z</time>
        <extensions>
          <ns3:TrackPointExtension>
            <ns3:atemp>19.0</ns3:atemp>
          </ns3:TrackPointExtension>
        </extensions>
      </trkpt>
      <trkpt lat="42.628336139023303985595703125" lon="19.88379034213721752166748046875">
        <ele>1652.199951171875</ele>
        <time>2026-06-16T08:02:41.000Z</time>
        <extensions>
          <ns3:TrackPointExtension>
            <ns3:atemp>19.0</ns3:atemp>
          </ns3:TrackPointExtension>
        </extensions>
      </trkpt>
      <trkpt lat="42.62832532636821269989013671875" lon="19.88377190195024013519287109375">
        <ele>1652.5999755859375</ele>
        <time>2026-06-16T08:02:42.000Z</time>
        <extensions>
          <ns3:TrackPointExtension>
            <ns3:atemp>19.0</ns3:atemp>
          </ns3:TrackPointExtension>
        </extensions>
      </trkpt>
      <trkpt lat="42.62832515873014926910400390625" lon="19.88374591805040836334228515625">
        <ele>1652.800048828125</ele>
        <time>2026-06-16T08:02:43.000Z</time>
        <extensions>
          <ns3:TrackPointExtension>
            <ns3:atemp>19.0</ns3:atemp>
          </ns3:TrackPointExtension>
        </extensions>
      </trkpt>
      <trkpt lat="42.6283205486834049224853515625" lon="19.883716665208339691162109375">
        <ele>1653.199951171875</ele>
        <time>2026-06-16T08:02:44.000Z</time>
        <extensions>
          <ns3:TrackPointExtension>
            <ns3:atemp>19.0</ns3:atemp>
          </ns3:TrackPointExtension>
        </extensions>
      </trkpt>
      <trkpt lat="42.62831945903599262237548828125" lon="19.883688502013683319091796875">
        <ele>1653.4000244140625</ele>
        <time>2026-06-16T08:02:45.000Z</time>
        <extensions>
          <ns3:TrackPointExtension>
            <ns3:atemp>19.0</ns3:atemp>
          </ns3:TrackPointExtension>
        </extensions>
      </trkpt>
      <trkpt lat="42.62832038104534149169921875" lon="19.8836611770093441009521484375">
        <ele>1653.5999755859375</ele>
        <time>2026-06-16T08:02:46.000Z</time>
        <extensions>
          <ns3:TrackPointExtension>
            <ns3:atemp>19.0</ns3:atemp>
          </ns3:TrackPointExtension>
        </extensions>
      </trkpt>
      <trkpt lat="42.6283272542059421539306640625" lon="19.88363527692854404449462890625">
        <ele>1654</ele>
        <time>2026-06-16T08:02:47.000Z</time>
        <extensions>
          <ns3:TrackPointExtension>
            <ns3:atemp>19.0</ns3:atemp>
          </ns3:TrackPointExtension>
        </extensions>
      </trkpt>
      <trkpt lat="42.62833773158490657806396484375" lon="19.88360770046710968017578125">
        <ele>1654.199951171875</ele>
        <time>2026-06-16T08:02:48.000Z</time>
        <extensions>
          <ns3:TrackPointExtension>
            <ns3:atemp>19.0</ns3:atemp>
          </ns3:TrackPointExtension>
        </extensions>
      </trkpt>
      <trkpt lat="42.6283416710793972015380859375" lon="19.88358582369983196258544921875">
        <ele>1654.4000244140625</ele>
        <time>2026-06-16T08:02:49.000Z</time>
        <extensions>
          <ns3:TrackPointExtension>
            <ns3:atemp>19.0</ns3:atemp>
          </ns3:TrackPointExtension>
        </extensions>
      </trkpt>
      <trkpt lat="42.6283473707735538482666015625" lon="19.88356201909482479095458984375">
        <ele>1654.800048828125</ele>
        <time>2026-06-16T08:02:50.000Z</time>
        <extensions>
          <ns3:TrackPointExtension>
            <ns3:atemp>19.0</ns3:atemp>
          </ns3:TrackPointExtension>
        </extensions>
      </trkpt>
      <trkpt lat="42.62835734523832798004150390625" lon="19.88354466855525970458984375">
        <ele>1655</ele>
        <time>2026-06-16T08:02:51.000Z</time>
        <extensions>
          <ns3:TrackPointExtension>
            <ns3:atemp>19.0</ns3:atemp>
          </ns3:TrackPointExtension>
        </extensions>
      </trkpt>
      <trkpt lat="42.62836907990276813507080078125" lon="19.8835257254540920257568359375">
        <ele>1655.199951171875</ele>
        <time>2026-06-16T08:02:52.000Z</time>
        <extensions>
          <ns3:TrackPointExtension>
            <ns3:atemp>19.0</ns3:atemp>
          </ns3:TrackPointExtension>
        </extensions>
      </trkpt>
      <trkpt lat="42.6283782161772251129150390625" lon="19.88350938074290752410888671875">
        <ele>1655.5999755859375</ele>
        <time>2026-06-16T08:02:53.000Z</time>
        <extensions>
          <ns3:TrackPointExtension>
            <ns3:atemp>19.0</ns3:atemp>
          </ns3:TrackPointExtension>
        </extensions>
      </trkpt>
      <trkpt lat="42.62839338742196559906005859375" lon="19.88348892889916896820068359375">
        <ele>1655.800048828125</ele>
        <time>2026-06-16T08:02:54.000Z</time>
        <extensions>
          <ns3:TrackPointExtension>
            <ns3:atemp>19.0</ns3:atemp>
          </ns3:TrackPointExtension>
        </extensions>
      </trkpt>
      <trkpt lat="42.62840931303799152374267578125" lon="19.88346797414124011993408203125">
        <ele>1656.199951171875</ele>
        <time>2026-06-16T08:02:55.000Z</time>
        <extensions>
          <ns3:TrackPointExtension>
            <ns3:atemp>19.0</ns3:atemp>
          </ns3:TrackPointExtension>
        </extensions>
      </trkpt>
      <trkpt lat="42.62842557393014430999755859375" lon="19.88344810903072357177734375">
        <ele>1656.4000244140625</ele>
        <time>2026-06-16T08:02:56.000Z</time>
        <extensions>
          <ns3:TrackPointExtension>
            <ns3:atemp>19.0</ns3:atemp>
          </ns3:TrackPointExtension>
        </extensions>
      </trkpt>
      <trkpt lat="42.62843906879425048828125" lon="19.88342790864408016204833984375">
        <ele>1656.5999755859375</ele>
        <time>2026-06-16T08:02:57.000Z</time>
        <extensions>
          <ns3:TrackPointExtension>
            <ns3:atemp>19.0</ns3:atemp>
          </ns3:TrackPointExtension>
        </extensions>
      </trkpt>
      <trkpt lat="42.62845088727772235870361328125" lon="19.88341080956161022186279296875">
        <ele>1656.800048828125</ele>
        <time>2026-06-16T08:02:58.000Z</time>
        <extensions>
          <ns3:TrackPointExtension>
            <ns3:atemp>19.0</ns3:atemp>
          </ns3:TrackPointExtension>
        </extensions>
      </trkpt>
      <trkpt lat="42.62846580706536769866943359375" lon="19.8833949677646160125732421875">
        <ele>1657</ele>
        <time>2026-06-16T08:02:59.000Z</time>
        <extensions>
          <ns3:TrackPointExtension>
            <ns3:atemp>19.0</ns3:atemp>
          </ns3:TrackPointExtension>
        </extensions>
      </trkpt>
      <trkpt lat="42.628483660519123077392578125" lon="19.88337912596762180328369140625">
        <ele>1657.4000244140625</ele>
        <time>2026-06-16T08:03:00.000Z</time>
        <extensions>
          <ns3:TrackPointExtension>
            <ns3:atemp>19.0</ns3:atemp>
          </ns3:TrackPointExtension>
        </extensions>
      </trkpt>
      <trkpt lat="42.6285009272396564483642578125" lon="19.88336521200835704803466796875">
        <ele>1657.5999755859375</ele>
        <time>2026-06-16T08:03:01.000Z</time>
        <extensions>
          <ns3:TrackPointExtension>
            <ns3:atemp>19.0</ns3:atemp>
          </ns3:TrackPointExtension>
        </extensions>
      </trkpt>
      <trkpt lat="42.6285155117511749267578125" lon="19.88334978930652141571044921875">
        <ele>1657.800048828125</ele>
        <time>2026-06-16T08:03:02.000Z</time>
        <extensions>
          <ns3:TrackPointExtension>
            <ns3:atemp>19.0</ns3:atemp>
          </ns3:TrackPointExtension>
        </extensions>
      </trkpt>
      <trkpt lat="42.628533951938152313232421875" lon="19.88332883454859256744384765625">
        <ele>1658.199951171875</ele>
        <time>2026-06-16T08:03:03.000Z</time>
        <extensions>
          <ns3:TrackPointExtension>
            <ns3:atemp>19.0</ns3:atemp>
          </ns3:TrackPointExtension>
        </extensions>
      </trkpt>
      <trkpt lat="42.62854929082095623016357421875" lon="19.88331307657063007354736328125">
        <ele>1658.4000244140625</ele>
        <time>2026-06-16T08:03:04.000Z</time>
        <extensions>
          <ns3:TrackPointExtension>
            <ns3:atemp>19.0</ns3:atemp>
          </ns3:TrackPointExtension>
        </extensions>
      </trkpt>
      <trkpt lat="42.628561444580554962158203125" lon="19.88329296000301837921142578125">
        <ele>1658.800048828125</ele>
        <time>2026-06-16T08:03:05.000Z</time>
        <extensions>
          <ns3:TrackPointExtension>
            <ns3:atemp>19.0</ns3:atemp>
          </ns3:TrackPointExtension>
        </extensions>
      </trkpt>
      <trkpt lat="42.62856756336987018585205078125" lon="19.88327150233089923858642578125">
        <ele>1659</ele>
        <time>2026-06-16T08:03:06.000Z</time>
        <extensions>
          <ns3:TrackPointExtension>
            <ns3:atemp>18.0</ns3:atemp>
          </ns3:TrackPointExtension>
        </extensions>
      </trkpt>
      <trkpt lat="42.62858248315751552581787109375" lon="19.88324694335460662841796875">
        <ele>1659.199951171875</ele>
        <time>2026-06-16T08:03:07.000Z</time>
        <extensions>
          <ns3:TrackPointExtension>
            <ns3:atemp>19.0</ns3:atemp>
          </ns3:TrackPointExtension>
        </extensions>
      </trkpt>
      <trkpt lat="42.62859170325100421905517578125" lon="19.88323093391954898834228515625">
        <ele>1659.5999755859375</ele>
        <time>2026-06-16T08:03:08.000Z</time>
        <extensions>
          <ns3:TrackPointExtension>
            <ns3:atemp>19.0</ns3:atemp>
          </ns3:TrackPointExtension>
        </extensions>
      </trkpt>
      <trkpt lat="42.62860067188739776611328125" lon="19.88321182318031787872314453125">
        <ele>1659.800048828125</ele>
        <time>2026-06-16T08:03:09.000Z</time>
        <extensions>
          <ns3:TrackPointExtension>
            <ns3:atemp>19.0</ns3:atemp>
          </ns3:TrackPointExtension>
        </extensions>
      </trkpt>
      <trkpt lat="42.6286058686673641204833984375" lon="19.88319790922105312347412109375">
        <ele>1660.199951171875</ele>
        <time>2026-06-16T08:03:10.000Z</time>
        <extensions>
          <ns3:TrackPointExtension>
            <ns3:atemp>19.0</ns3:atemp>
          </ns3:TrackPointExtension>
        </extensions>
      </trkpt>
      <trkpt lat="42.62861098162829875946044921875" lon="19.8831738531589508056640625">
        <ele>1660.4000244140625</ele>
        <time>2026-06-16T08:03:11.000Z</time>
        <extensions>
          <ns3:TrackPointExtension>
            <ns3:atemp>19.0</ns3:atemp>
          </ns3:TrackPointExtension>
        </extensions>
      </trkpt>
      <trkpt lat="42.6286147534847259521484375" lon="19.88315180875360965728759765625">
        <ele>1660.5999755859375</ele>
        <time>2026-06-16T08:03:12.000Z</time>
        <extensions>
          <ns3:TrackPointExtension>
            <ns3:atemp>18.0</ns3:atemp>
          </ns3:TrackPointExtension>
        </extensions>
      </trkpt>
      <trkpt lat="42.62861617840826511383056640625" lon="19.88313035108149051666259765625">
        <ele>1661</ele>
        <time>2026-06-16T08:03:13.000Z</time>
        <extensions>
          <ns3:TrackPointExtension>
            <ns3:atemp>19.0</ns3:atemp>
          </ns3:TrackPointExtension>
        </extensions>
      </trkpt>
      <trkpt lat="42.6286145858466625213623046875" lon="19.88311023451387882232666015625">
        <ele>1661.199951171875</ele>
        <time>2026-06-16T08:03:14.000Z</time>
        <extensions>
          <ns3:TrackPointExtension>
            <ns3:atemp>19.0</ns3:atemp>
          </ns3:TrackPointExtension>
        </extensions>
      </trkpt>
      <trkpt lat="42.6286088861525058746337890625" lon="19.8830845020711421966552734375">
        <ele>1661.4000244140625</ele>
        <time>2026-06-16T08:03:15.000Z</time>
        <extensions>
          <ns3:TrackPointExtension>
            <ns3:atemp>19.0</ns3:atemp>
          </ns3:TrackPointExtension>
        </extensions>
      </trkpt>
      <trkpt lat="42.62860746122896671295166015625" lon="19.88305793143808841705322265625">
        <ele>1661.800048828125</ele>
        <time>2026-06-16T08:03:16.000Z</time>
        <extensions>
          <ns3:TrackPointExtension>
            <ns3:atemp>19.0</ns3:atemp>
          </ns3:TrackPointExtension>
        </extensions>
      </trkpt>
      <trkpt lat="42.6286035217344760894775390625" lon="19.8830305226147174835205078125">
        <ele>1662.199951171875</ele>
        <time>2026-06-16T08:03:17.000Z</time>
        <extensions>
          <ns3:TrackPointExtension>
            <ns3:atemp>19.0</ns3:atemp>
          </ns3:TrackPointExtension>
        </extensions>
      </trkpt>
      <trkpt lat="42.6286008395254611968994140625" lon="19.88301401026546955108642578125">
        <ele>1662.4000244140625</ele>
        <time>2026-06-16T08:03:18.000Z</time>
        <extensions>
          <ns3:TrackPointExtension>
            <ns3:atemp>19.0</ns3:atemp>
          </ns3:TrackPointExtension>
        </extensions>
      </trkpt>
      <trkpt lat="42.6285984925925731658935546875" lon="19.8829926364123821258544921875">
        <ele>1662.800048828125</ele>
        <time>2026-06-16T08:03:19.000Z</time>
        <extensions>
          <ns3:TrackPointExtension>
            <ns3:atemp>18.0</ns3:atemp>
          </ns3:TrackPointExtension>
        </extensions>
      </trkpt>
      <trkpt lat="42.6285937987267971038818359375" lon="19.88297025673091411590576171875">
        <ele>1663</ele>
        <time>2026-06-16T08:03:20.000Z</time>
        <extensions>
          <ns3:TrackPointExtension>
            <ns3:atemp>18.0</ns3:atemp>
          </ns3:TrackPointExtension>
        </extensions>
      </trkpt>
      <trkpt lat="42.62858466245234012603759765625" lon="19.88295265473425388336181640625">
        <ele>1663.4000244140625</ele>
        <time>2026-06-16T08:03:21.000Z</time>
        <extensions>
          <ns3:TrackPointExtension>
            <ns3:atemp>18.0</ns3:atemp>
          </ns3:TrackPointExtension>
        </extensions>
      </trkpt>
      <trkpt lat="42.62857544235885143280029296875" lon="19.88293957896530628204345703125">
        <ele>1663.5999755859375</ele>
        <time>2026-06-16T08:03:22.000Z</time>
        <extensions>
          <ns3:TrackPointExtension>
            <ns3:atemp>18.0</ns3:atemp>
          </ns3:TrackPointExtension>
        </extensions>
      </trkpt>
      <trkpt lat="42.62856177985668182373046875" lon="19.8829297721385955810546875">
        <ele>1664.199951171875</ele>
        <time>2026-06-16T08:03:23.000Z</time>
        <extensions>
          <ns3:TrackPointExtension>
            <ns3:atemp>18.0</ns3:atemp>
          </ns3:TrackPointExtension>
        </extensions>
      </trkpt>
      <trkpt lat="42.628546692430973052978515625" lon="19.88292365334928035736083984375">
        <ele>1664.4000244140625</ele>
        <time>2026-06-16T08:03:24.000Z</time>
        <extensions>
          <ns3:TrackPointExtension>
            <ns3:atemp>18.0</ns3:atemp>
          </ns3:TrackPointExtension>
        </extensions>
      </trkpt>
      <trkpt lat="42.62853185646235942840576171875" lon="19.88291560672223567962646484375">
        <ele>1664.800048828125</ele>
        <time>2026-06-16T08:03:25.000Z</time>
        <extensions>
          <ns3:TrackPointExtension>
            <ns3:atemp>18.0</ns3:atemp>
          </ns3:TrackPointExtension>
        </extensions>
      </trkpt>
      <trkpt lat="42.62851593084633350372314453125" lon="19.88290764391422271728515625">
        <ele>1665.199951171875</ele>
        <time>2026-06-16T08:03:26.000Z</time>
        <extensions>
          <ns3:TrackPointExtension>
            <ns3:atemp>18.0</ns3:atemp>
          </ns3:TrackPointExtension>
        </extensions>
      </trkpt>
      <trkpt lat="42.62849983759224414825439453125" lon="19.88290362060070037841796875">
        <ele>1665.4000244140625</ele>
        <time>2026-06-16T08:03:27.000Z</time>
        <extensions>
          <ns3:TrackPointExtension>
            <ns3:atemp>18.0</ns3:atemp>
          </ns3:TrackPointExtension>
        </extensions>
      </trkpt>
      <trkpt lat="42.62848122976720333099365234375" lon="19.88289867527782917022705078125">
        <ele>1665.800048828125</ele>
        <time>2026-06-16T08:03:28.000Z</time>
        <extensions>
          <ns3:TrackPointExtension>
            <ns3:atemp>18.0</ns3:atemp>
          </ns3:TrackPointExtension>
        </extensions>
      </trkpt>
      <trkpt lat="42.628467567265033721923828125" lon="19.88288945518434047698974609375">
        <ele>1666.199951171875</ele>
        <time>2026-06-16T08:03:29.000Z</time>
        <extensions>
          <ns3:TrackPointExtension>
            <ns3:atemp>18.0</ns3:atemp>
          </ns3:TrackPointExtension>
        </extensions>
      </trkpt>
      <trkpt lat="42.62845516204833984375" lon="19.8828826658427715301513671875">
        <ele>1666.5999755859375</ele>
        <time>2026-06-16T08:03:30.000Z</time>
        <extensions>
          <ns3:TrackPointExtension>
            <ns3:atemp>18.0</ns3:atemp>
          </ns3:TrackPointExtension>
        </extensions>
      </trkpt>
      <trkpt lat="42.62844334356486797332763671875" lon="19.88287679851055145263671875">
        <ele>1667</ele>
        <time>2026-06-16T08:03:31.000Z</time>
        <extensions>
          <ns3:TrackPointExtension>
            <ns3:atemp>18.0</ns3:atemp>
          </ns3:TrackPointExtension>
        </extensions>
      </trkpt>
      <trkpt lat="42.6284298487007617950439453125" lon="19.88287143409252166748046875">
        <ele>1667.199951171875</ele>
        <time>2026-06-16T08:03:32.000Z</time>
        <extensions>
          <ns3:TrackPointExtension>
            <ns3:atemp>18.0</ns3:atemp>
          </ns3:TrackPointExtension>
        </extensions>
      </trkpt>
      <trkpt lat="42.62841886840760707855224609375" lon="19.88286766223609447479248046875">
        <ele>1667.5999755859375</ele>
        <time>2026-06-16T08:03:33.000Z</time>
        <extensions>
          <ns3:TrackPointExtension>
            <ns3:atemp>18.0</ns3:atemp>
          </ns3:TrackPointExtension>
        </extensions>
      </trkpt>
      <trkpt lat="42.62840512208640575408935546875" lon="19.88286741077899932861328125">
        <ele>1667.800048828125</ele>
        <time>2026-06-16T08:03:34.000Z</time>
        <extensions>
          <ns3:TrackPointExtension>
            <ns3:atemp>18.0</ns3:atemp>
          </ns3:TrackPointExtension>
        </extensions>
      </trkpt>
      <trkpt lat="42.62838684953749179840087890625" lon="19.88286581821739673614501953125">
        <ele>1668</ele>
        <time>2026-06-16T08:03:35.000Z</time>
        <extensions>
          <ns3:TrackPointExtension>
            <ns3:atemp>18.0</ns3:atemp>
          </ns3:TrackPointExtension>
        </extensions>
      </trkpt>
      <trkpt lat="42.6283597759902477264404296875" lon="19.88286280073225498199462890625">
        <ele>1668.4000244140625</ele>
        <time>2026-06-16T08:03:36.000Z</time>
        <extensions>
          <ns3:TrackPointExtension>
            <ns3:atemp>18.0</ns3:atemp>
          </ns3:TrackPointExtension>
        </extensions>
      </trkpt>
      <trkpt lat="42.62833991087973117828369140625" lon="19.88285609520971775054931640625">
        <ele>1668.800048828125</ele>
        <time>2026-06-16T08:03:37.000Z</time>
        <extensions>
          <ns3:TrackPointExtension>
            <ns3:atemp>18.0</ns3:atemp>
          </ns3:TrackPointExtension>
        </extensions>
      </trkpt>
      <trkpt lat="42.628319375216960906982421875" lon="19.8828528262674808502197265625">
        <ele>1669</ele>
        <time>2026-06-16T08:03:38.000Z</time>
        <extensions>
          <ns3:TrackPointExtension>
            <ns3:atemp>18.0</ns3:atemp>
          </ns3:TrackPointExtension>
        </extensions>
      </trkpt>
      <trkpt lat="42.62830018065869808197021484375" lon="19.88284586928784847259521484375">
        <ele>1669.4000244140625</ele>
        <time>2026-06-16T08:03:39.000Z</time>
        <extensions>
          <ns3:TrackPointExtension>
            <ns3:atemp>18.0</ns3:atemp>
          </ns3:TrackPointExtension>
        </extensions>
      </trkpt>
      <trkpt lat="42.62827335856854915618896484375" lon="19.8828404210507869720458984375">
        <ele>1669.5999755859375</ele>
        <time>2026-06-16T08:03:40.000Z</time>
        <extensions>
          <ns3:TrackPointExtension>
            <ns3:atemp>18.0</ns3:atemp>
          </ns3:TrackPointExtension>
        </extensions>
      </trkpt>
      <trkpt lat="42.62825332581996917724609375" lon="19.88283790647983551025390625">
        <ele>1669.800048828125</ele>
        <time>2026-06-16T08:03:41.000Z</time>
        <extensions>
          <ns3:TrackPointExtension>
            <ns3:atemp>18.0</ns3:atemp>
          </ns3:TrackPointExtension>
        </extensions>
      </trkpt>
      <trkpt lat="42.6282347179949283599853515625" lon="19.88283547572791576385498046875">
        <ele>1670.199951171875</ele>
        <time>2026-06-16T08:03:42.000Z</time>
        <extensions>
          <ns3:TrackPointExtension>
            <ns3:atemp>18.0</ns3:atemp>
          </ns3:TrackPointExtension>
        </extensions>
      </trkpt>
      <trkpt lat="42.628216445446014404296875" lon="19.882828183472156524658203125">
        <ele>1670.4000244140625</ele>
        <time>2026-06-16T08:03:43.000Z</time>
        <extensions>
          <ns3:TrackPointExtension>
            <ns3:atemp>18.0</ns3:atemp>
          </ns3:TrackPointExtension>
        </extensions>
      </trkpt>
      <trkpt lat="42.62819490395486354827880859375" lon="19.8828203044831752777099609375">
        <ele>1670.800048828125</ele>
        <time>2026-06-16T08:03:44.000Z</time>
        <extensions>
          <ns3:TrackPointExtension>
            <ns3:atemp>18.0</ns3:atemp>
          </ns3:TrackPointExtension>
        </extensions>
      </trkpt>
      <trkpt lat="42.6281763799488544464111328125" lon="19.88281636498868465423583984375">
        <ele>1671</ele>
        <time>2026-06-16T08:03:45.000Z</time>
        <extensions>
          <ns3:TrackPointExtension>
            <ns3:atemp>18.0</ns3:atemp>
          </ns3:TrackPointExtension>
        </extensions>
      </trkpt>
      <trkpt lat="42.628152407705783843994140625" lon="19.882809408009052276611328125">
        <ele>1671.199951171875</ele>
        <time>2026-06-16T08:03:46.000Z</time>
        <extensions>
          <ns3:TrackPointExtension>
            <ns3:atemp>18.0</ns3:atemp>
          </ns3:TrackPointExtension>
        </extensions>
      </trkpt>
      <trkpt lat="42.628137655556201934814453125" lon="19.88279809243977069854736328125">
        <ele>1671.5999755859375</ele>
        <time>2026-06-16T08:03:47.000Z</time>
        <extensions>
          <ns3:TrackPointExtension>
            <ns3:atemp>18.0</ns3:atemp>
          </ns3:TrackPointExtension>
        </extensions>
      </trkpt>
      <trkpt lat="42.6281277649104595184326171875" lon="19.88278317265212535858154296875">
        <ele>1671.800048828125</ele>
        <time>2026-06-16T08:03:48.000Z</time>
        <extensions>
          <ns3:TrackPointExtension>
            <ns3:atemp>18.0</ns3:atemp>
          </ns3:TrackPointExtension>
        </extensions>
      </trkpt>
      <trkpt lat="42.62811678461730480194091796875" lon="19.88277059979736804962158203125">
        <ele>1672</ele>
        <time>2026-06-16T08:03:49.000Z</time>
        <extensions>
          <ns3:TrackPointExtension>
            <ns3:atemp>18.0</ns3:atemp>
          </ns3:TrackPointExtension>
        </extensions>
      </trkpt>
      <trkpt lat="42.6281036250293254852294921875" lon="19.88276506774127483367919921875">
        <ele>1672.199951171875</ele>
        <time>2026-06-16T08:03:50.000Z</time>
        <extensions>
          <ns3:TrackPointExtension>
            <ns3:atemp>18.0</ns3:atemp>
          </ns3:TrackPointExtension>
        </extensions>
      </trkpt>
      <trkpt lat="42.628087364137172698974609375" lon="19.88275718875229358673095703125">
        <ele>1672.4000244140625</ele>
        <time>2026-06-16T08:03:51.000Z</time>
        <extensions>
          <ns3:TrackPointExtension>
            <ns3:atemp>18.0</ns3:atemp>
          </ns3:TrackPointExtension>
        </extensions>
      </trkpt>
      <trkpt lat="42.62807537801563739776611328125" lon="19.8827478848397731781005859375">
        <ele>1672.5999755859375</ele>
        <time>2026-06-16T08:03:52.000Z</time>
        <extensions>
          <ns3:TrackPointExtension>
            <ns3:atemp>18.0</ns3:atemp>
          </ns3:TrackPointExtension>
        </extensions>
      </trkpt>
      <trkpt lat="42.62805677019059658050537109375" lon="19.882743023335933685302734375">
        <ele>1673</ele>
        <time>2026-06-16T08:03:53.000Z</time>
        <extensions>
          <ns3:TrackPointExtension>
            <ns3:atemp>18.0</ns3:atemp>
          </ns3:TrackPointExtension>
        </extensions>
      </trkpt>
      <trkpt lat="42.6280379109084606170654296875" lon="19.88273036666214466094970703125">
        <ele>1673.199951171875</ele>
        <time>2026-06-16T08:03:54.000Z</time>
        <extensions>
          <ns3:TrackPointExtension>
            <ns3:atemp>18.0</ns3:atemp>
          </ns3:TrackPointExtension>
        </extensions>
      </trkpt>
      <trkpt lat="42.62801670469343662261962890625" lon="19.88272533752024173736572265625">
        <ele>1673.4000244140625</ele>
        <time>2026-06-16T08:03:55.000Z</time>
        <extensions>
          <ns3:TrackPointExtension>
            <ns3:atemp>18.0</ns3:atemp>
          </ns3:TrackPointExtension>
        </extensions>
      </trkpt>
      <trkpt lat="42.62799692340195178985595703125" lon="19.88272131420671939849853515625">
        <ele>1673.5999755859375</ele>
        <time>2026-06-16T08:03:56.000Z</time>
        <extensions>
          <ns3:TrackPointExtension>
            <ns3:atemp>18.0</ns3:atemp>
          </ns3:TrackPointExtension>
        </extensions>
      </trkpt>
      <trkpt lat="42.627971358597278594970703125" lon="19.8827160336077213287353515625">
        <ele>1674</ele>
        <time>2026-06-16T08:03:57.000Z</time>
        <extensions>
          <ns3:TrackPointExtension>
            <ns3:atemp>18.0</ns3:atemp>
          </ns3:TrackPointExtension>
        </extensions>
      </trkpt>
      <trkpt lat="42.62795417569577693939208984375" lon="19.88270823843777179718017578125">
        <ele>1674.199951171875</ele>
        <time>2026-06-16T08:03:58.000Z</time>
        <extensions>
          <ns3:TrackPointExtension>
            <ns3:atemp>18.0</ns3:atemp>
          </ns3:TrackPointExtension>
        </extensions>
      </trkpt>
      <trkpt lat="42.62794227339327335357666015625" lon="19.8827026225626468658447265625">
        <ele>1674.4000244140625</ele>
        <time>2026-06-16T08:03:59.000Z</time>
        <extensions>
          <ns3:TrackPointExtension>
            <ns3:atemp>18.0</ns3:atemp>
          </ns3:TrackPointExtension>
        </extensions>
      </trkpt>
      <trkpt lat="42.62793011963367462158203125" lon="19.88270086236298084259033203125">
        <ele>1674.5999755859375</ele>
        <time>2026-06-16T08:04:00.000Z</time>
        <extensions>
          <ns3:TrackPointExtension>
            <ns3:atemp>18.0</ns3:atemp>
          </ns3:TrackPointExtension>
        </extensions>
      </trkpt>
      <trkpt lat="42.62791293673217296600341796875" lon="19.88269499503076076507568359375">
        <ele>1674.800048828125</ele>
        <time>2026-06-16T08:04:01.000Z</time>
        <extensions>
          <ns3:TrackPointExtension>
            <ns3:atemp>18.0</ns3:atemp>
          </ns3:TrackPointExtension>
        </extensions>
      </trkpt>
      <trkpt lat="42.62789131142199039459228515625" lon="19.882687032222747802734375">
        <ele>1675</ele>
        <time>2026-06-16T08:04:02.000Z</time>
        <extensions>
          <ns3:TrackPointExtension>
            <ns3:atemp>18.0</ns3:atemp>
          </ns3:TrackPointExtension>
        </extensions>
      </trkpt>
      <trkpt lat="42.62787521816790103912353515625" lon="19.882676638662815093994140625">
        <ele>1675.199951171875</ele>
        <time>2026-06-16T08:04:03.000Z</time>
        <extensions>
          <ns3:TrackPointExtension>
            <ns3:atemp>18.0</ns3:atemp>
          </ns3:TrackPointExtension>
        </extensions>
      </trkpt>
      <trkpt lat="42.62786013074219226837158203125" lon="19.8826667480170726776123046875">
        <ele>1675.4000244140625</ele>
        <time>2026-06-16T08:04:04.000Z</time>
        <extensions>
          <ns3:TrackPointExtension>
            <ns3:atemp>18.0</ns3:atemp>
          </ns3:TrackPointExtension>
        </extensions>
      </trkpt>
      <trkpt lat="42.6278488151729106903076171875" lon="19.88266079686582088470458984375">
        <ele>1675.5999755859375</ele>
        <time>2026-06-16T08:04:05.000Z</time>
        <extensions>
          <ns3:TrackPointExtension>
            <ns3:atemp>18.0</ns3:atemp>
          </ns3:TrackPointExtension>
        </extensions>
      </trkpt>
      <trkpt lat="42.627833224833011627197265625" lon="19.8826540075242519378662109375">
        <ele>1675.5999755859375</ele>
        <time>2026-06-16T08:04:06.000Z</time>
        <extensions>
          <ns3:TrackPointExtension>
            <ns3:atemp>18.0</ns3:atemp>
          </ns3:TrackPointExtension>
        </extensions>
      </trkpt>
      <trkpt lat="42.62781704775989055633544921875" lon="19.8826523311436176300048828125">
        <ele>1675.800048828125</ele>
        <time>2026-06-16T08:04:07.000Z</time>
        <extensions>
          <ns3:TrackPointExtension>
            <ns3:atemp>18.0</ns3:atemp>
          </ns3:TrackPointExtension>
        </extensions>
      </trkpt>
      <trkpt lat="42.6277948357164859771728515625" lon="19.8826509900391101837158203125">
        <ele>1676</ele>
        <time>2026-06-16T08:04:08.000Z</time>
        <extensions>
          <ns3:TrackPointExtension>
            <ns3:atemp>18.0</ns3:atemp>
          </ns3:TrackPointExtension>
        </extensions>
      </trkpt>
      <trkpt lat="42.6277747191488742828369140625" lon="19.88265224732458591461181640625">
        <ele>1676.199951171875</ele>
        <time>2026-06-16T08:04:09.000Z</time>
        <extensions>
          <ns3:TrackPointExtension>
            <ns3:atemp>18.0</ns3:atemp>
          </ns3:TrackPointExtension>
        </extensions>
      </trkpt>
      <trkpt lat="42.6277483999729156494140625" lon="19.88265509717166423797607421875">
        <ele>1676.4000244140625</ele>
        <time>2026-06-16T08:04:10.000Z</time>
        <extensions>
          <ns3:TrackPointExtension>
            <ns3:atemp>18.0</ns3:atemp>
          </ns3:TrackPointExtension>
        </extensions>
      </trkpt>
      <trkpt lat="42.62772417627274990081787109375" lon="19.88266381435096263885498046875">
        <ele>1676.800048828125</ele>
        <time>2026-06-16T08:04:11.000Z</time>
        <extensions>
          <ns3:TrackPointExtension>
            <ns3:atemp>18.0</ns3:atemp>
          </ns3:TrackPointExtension>
        </extensions>
      </trkpt>
      <trkpt lat="42.62770640663802623748779296875" lon="19.88267018459737300872802734375">
        <ele>1677</ele>
        <time>2026-06-16T08:04:12.000Z</time>
        <extensions>
          <ns3:TrackPointExtension>
            <ns3:atemp>18.0</ns3:atemp>
          </ns3:TrackPointExtension>
        </extensions>
      </trkpt>
      <trkpt lat="42.6276892237365245819091796875" lon="19.882681667804718017578125">
        <ele>1677.199951171875</ele>
        <time>2026-06-16T08:04:13.000Z</time>
        <extensions>
          <ns3:TrackPointExtension>
            <ns3:atemp>18.0</ns3:atemp>
          </ns3:TrackPointExtension>
        </extensions>
      </trkpt>
      <trkpt lat="42.62767489068210124969482421875" lon="19.88269709050655364990234375">
        <ele>1677.4000244140625</ele>
        <time>2026-06-16T08:04:14.000Z</time>
        <extensions>
          <ns3:TrackPointExtension>
            <ns3:atemp>18.0</ns3:atemp>
          </ns3:TrackPointExtension>
        </extensions>
      </trkpt>
      <trkpt lat="42.6276644133031368255615234375" lon="19.8827096633613109588623046875">
        <ele>1677.800048828125</ele>
        <time>2026-06-16T08:04:15.000Z</time>
        <extensions>
          <ns3:TrackPointExtension>
            <ns3:atemp>18.0</ns3:atemp>
          </ns3:TrackPointExtension>
        </extensions>
      </trkpt>
      <trkpt lat="42.62765024788677692413330078125" lon="19.88272936083376407623291015625">
        <ele>1678</ele>
        <time>2026-06-16T08:04:16.000Z</time>
        <extensions>
          <ns3:TrackPointExtension>
            <ns3:atemp>18.0</ns3:atemp>
          </ns3:TrackPointExtension>
        </extensions>
      </trkpt>
      <trkpt lat="42.62764169834554195404052734375" lon="19.882747046649456024169921875">
        <ele>1678.199951171875</ele>
        <time>2026-06-16T08:04:17.000Z</time>
        <extensions>
          <ns3:TrackPointExtension>
            <ns3:atemp>18.0</ns3:atemp>
          </ns3:TrackPointExtension>
        </extensions>
      </trkpt>
      <trkpt lat="42.62762979604303836822509765625" lon="19.88276456482708454132080078125">
        <ele>1678.5999755859375</ele>
        <time>2026-06-16T08:04:18.000Z</time>
        <extensions>
          <ns3:TrackPointExtension>
            <ns3:atemp>18.0</ns3:atemp>
          </ns3:TrackPointExtension>
        </extensions>
      </trkpt>
      <trkpt lat="42.6276178099215030670166015625" lon="19.88278468139469623565673828125">
        <ele>1678.800048828125</ele>
        <time>2026-06-16T08:04:19.000Z</time>
        <extensions>
          <ns3:TrackPointExtension>
            <ns3:atemp>18.0</ns3:atemp>
          </ns3:TrackPointExtension>
        </extensions>
      </trkpt>
      <trkpt lat="42.6276030577719211578369140625" lon="19.8828055523335933685302734375">
        <ele>1679.199951171875</ele>
        <time>2026-06-16T08:04:20.000Z</time>
        <extensions>
          <ns3:TrackPointExtension>
            <ns3:atemp>18.0</ns3:atemp>
          </ns3:TrackPointExtension>
        </extensions>
      </trkpt>
      <trkpt lat="42.6275879703462123870849609375" lon="19.88282642327249050140380859375">
        <ele>1679.4000244140625</ele>
        <time>2026-06-16T08:04:21.000Z</time>
        <extensions>
          <ns3:TrackPointExtension>
            <ns3:atemp>18.0</ns3:atemp>
          </ns3:TrackPointExtension>
        </extensions>
      </trkpt>
      <trkpt lat="42.62758034281432628631591796875" lon="19.88284997642040252685546875">
        <ele>1679.800048828125</ele>
        <time>2026-06-16T08:04:22.000Z</time>
        <extensions>
          <ns3:TrackPointExtension>
            <ns3:atemp>18.0</ns3:atemp>
          </ns3:TrackPointExtension>
        </extensions>
      </trkpt>
      <trkpt lat="42.6275661773979663848876953125" lon="19.8828672431409358978271484375">
        <ele>1680</ele>
        <time>2026-06-16T08:04:23.000Z</time>
        <extensions>
          <ns3:TrackPointExtension>
            <ns3:atemp>18.0</ns3:atemp>
          </ns3:TrackPointExtension>
        </extensions>
      </trkpt>
      <trkpt lat="42.62755117379128932952880859375" lon="19.882885515689849853515625">
        <ele>1680.4000244140625</ele>
        <time>2026-06-16T08:04:24.000Z</time>
        <extensions>
          <ns3:TrackPointExtension>
            <ns3:atemp>18.0</ns3:atemp>
          </ns3:TrackPointExtension>
        </extensions>
      </trkpt>
      <trkpt lat="42.62753658927977085113525390625" lon="19.8829051293432712554931640625">
        <ele>1680.5999755859375</ele>
        <time>2026-06-16T08:04:25.000Z</time>
        <extensions>
          <ns3:TrackPointExtension>
            <ns3:atemp>18.0</ns3:atemp>
          </ns3:TrackPointExtension>
        </extensions>
      </trkpt>
      <trkpt lat="42.6275229267776012420654296875" lon="19.88292331807315349578857421875">
        <ele>1680.800048828125</ele>
        <time>2026-06-16T08:04:26.000Z</time>
        <extensions>
          <ns3:TrackPointExtension>
            <ns3:atemp>18.0</ns3:atemp>
          </ns3:TrackPointExtension>
        </extensions>
      </trkpt>
      <trkpt lat="42.62751127593219280242919921875" lon="19.88294494338333606719970703125">
        <ele>1681</ele>
        <time>2026-06-16T08:04:27.000Z</time>
        <extensions>
          <ns3:TrackPointExtension>
            <ns3:atemp>18.0</ns3:atemp>
          </ns3:TrackPointExtension>
        </extensions>
      </trkpt>
      <trkpt lat="42.62749635614454746246337890625" lon="19.88296338357031345367431640625">
        <ele>1681.199951171875</ele>
        <time>2026-06-16T08:04:28.000Z</time>
        <extensions>
          <ns3:TrackPointExtension>
            <ns3:atemp>18.0</ns3:atemp>
          </ns3:TrackPointExtension>
        </extensions>
      </trkpt>
      <trkpt lat="42.6274801790714263916015625" lon="19.88298433832824230194091796875">
        <ele>1681.5999755859375</ele>
        <time>2026-06-16T08:04:29.000Z</time>
        <extensions>
          <ns3:TrackPointExtension>
            <ns3:atemp>18.0</ns3:atemp>
          </ns3:TrackPointExtension>
        </extensions>
      </trkpt>
      <trkpt lat="42.6274609006941318511962890625" lon="19.88300018012523651123046875">
        <ele>1681.800048828125</ele>
        <time>2026-06-16T08:04:30.000Z</time>
        <extensions>
          <ns3:TrackPointExtension>
            <ns3:atemp>18.0</ns3:atemp>
          </ns3:TrackPointExtension>
        </extensions>
      </trkpt>
      <trkpt lat="42.62744338251650333404541015625" lon="19.88300822675228118896484375">
        <ele>1682</ele>
        <time>2026-06-16T08:04:31.000Z</time>
        <extensions>
          <ns3:TrackPointExtension>
            <ns3:atemp>18.0</ns3:atemp>
          </ns3:TrackPointExtension>
        </extensions>
      </trkpt>
      <trkpt lat="42.627427875995635986328125" lon="19.8830124177038669586181640625">
        <ele>1682.199951171875</ele>
        <time>2026-06-16T08:04:32.000Z</time>
        <extensions>
          <ns3:TrackPointExtension>
            <ns3:atemp>18.0</ns3:atemp>
          </ns3:TrackPointExtension>
        </extensions>
      </trkpt>
      <trkpt lat="42.62740574777126312255859375" lon="19.88301853649318218231201171875">
        <ele>1682.4000244140625</ele>
        <time>2026-06-16T08:04:33.000Z</time>
        <extensions>
          <ns3:TrackPointExtension>
            <ns3:atemp>18.0</ns3:atemp>
          </ns3:TrackPointExtension>
        </extensions>
      </trkpt>
      <trkpt lat="42.62738890014588832855224609375" lon="19.8830288462340831756591796875">
        <ele>1682.5999755859375</ele>
        <time>2026-06-16T08:04:34.000Z</time>
        <extensions>
          <ns3:TrackPointExtension>
            <ns3:atemp>18.0</ns3:atemp>
          </ns3:TrackPointExtension>
        </extensions>
      </trkpt>
      <trkpt lat="42.62736551463603973388671875" lon="19.88303999416530132293701171875">
        <ele>1682.800048828125</ele>
        <time>2026-06-16T08:04:35.000Z</time>
        <extensions>
          <ns3:TrackPointExtension>
            <ns3:atemp>18.0</ns3:atemp>
          </ns3:TrackPointExtension>
        </extensions>
      </trkpt>
      <trkpt lat="42.62734472751617431640625" lon="19.8830482922494411468505859375">
        <ele>1683</ele>
        <time>2026-06-16T08:04:36.000Z</time>
        <extensions>
          <ns3:TrackPointExtension>
            <ns3:atemp>18.0</ns3:atemp>
          </ns3:TrackPointExtension>
        </extensions>
      </trkpt>
      <trkpt lat="42.62732469476759433746337890625" lon="19.88305575214326381683349609375">
        <ele>1683</ele>
        <time>2026-06-16T08:04:37.000Z</time>
        <extensions>
          <ns3:TrackPointExtension>
            <ns3:atemp>18.0</ns3:atemp>
          </ns3:TrackPointExtension>
        </extensions>
      </trkpt>
      <trkpt lat="42.62730390764772891998291015625" lon="19.8830667324364185333251953125">
        <ele>1683.199951171875</ele>
        <time>2026-06-16T08:04:38.000Z</time>
        <extensions>
          <ns3:TrackPointExtension>
            <ns3:atemp>18.0</ns3:atemp>
          </ns3:TrackPointExtension>
        </extensions>
      </trkpt>
      <trkpt lat="42.627284042537212371826171875" lon="19.883085675537586212158203125">
        <ele>1683.4000244140625</ele>
        <time>2026-06-16T08:04:39.000Z</time>
        <extensions>
          <ns3:TrackPointExtension>
            <ns3:atemp>18.0</ns3:atemp>
          </ns3:TrackPointExtension>
        </extensions>
      </trkpt>
      <trkpt lat="42.6272664405405521392822265625" lon="19.8830974102020263671875">
        <ele>1683.5999755859375</ele>
        <time>2026-06-16T08:04:40.000Z</time>
        <extensions>
          <ns3:TrackPointExtension>
            <ns3:atemp>18.0</ns3:atemp>
          </ns3:TrackPointExtension>
        </extensions>
      </trkpt>
      <trkpt lat="42.627251185476779937744140625" lon="19.8831148445606231689453125">
        <ele>1683.5999755859375</ele>
        <time>2026-06-16T08:04:41.000Z</time>
        <extensions>
          <ns3:TrackPointExtension>
            <ns3:atemp>18.0</ns3:atemp>
          </ns3:TrackPointExtension>
        </extensions>
      </trkpt>
      <trkpt lat="42.62723450548946857452392578125" lon="19.88312867470085620880126953125">
        <ele>1683.800048828125</ele>
        <time>2026-06-16T08:04:42.000Z</time>
        <extensions>
          <ns3:TrackPointExtension>
            <ns3:atemp>18.0</ns3:atemp>
          </ns3:TrackPointExtension>
        </extensions>
      </trkpt>
      <trkpt lat="42.6272124610841274261474609375" lon="19.883148707449436187744140625">
        <ele>1683.800048828125</ele>
        <time>2026-06-16T08:04:43.000Z</time>
        <extensions>
          <ns3:TrackPointExtension>
            <ns3:atemp>18.0</ns3:atemp>
          </ns3:TrackPointExtension>
        </extensions>
      </trkpt>
      <trkpt lat="42.62718924321234226226806640625" lon="19.883174858987331390380859375">
        <ele>1684</ele>
        <time>2026-06-16T08:04:44.000Z</time>
        <extensions>
          <ns3:TrackPointExtension>
            <ns3:atemp>18.0</ns3:atemp>
          </ns3:TrackPointExtension>
        </extensions>
      </trkpt>
      <trkpt lat="42.62716661207377910614013671875" lon="19.8832046985626220703125">
        <ele>1684</ele>
        <time>2026-06-16T08:04:45.000Z</time>
        <extensions>
          <ns3:TrackPointExtension>
            <ns3:atemp>18.0</ns3:atemp>
          </ns3:TrackPointExtension>
        </extensions>
      </trkpt>
      <trkpt lat="42.6271464116871356964111328125" lon="19.88322892226278781890869140625">
        <ele>1684</ele>
        <time>2026-06-16T08:04:46.000Z</time>
        <extensions>
          <ns3:TrackPointExtension>
            <ns3:atemp>18.0</ns3:atemp>
          </ns3:TrackPointExtension>
        </extensions>
      </trkpt>
      <trkpt lat="42.62712889350950717926025390625" lon="19.88325473852455615997314453125">
        <ele>1684.199951171875</ele>
        <time>2026-06-16T08:04:47.000Z</time>
        <extensions>
          <ns3:TrackPointExtension>
            <ns3:atemp>18.0</ns3:atemp>
          </ns3:TrackPointExtension>
        </extensions>
      </trkpt>
      <trkpt lat="42.6271095313131809234619140625" lon="19.88328256644308567047119140625">
        <ele>1684.199951171875</ele>
        <time>2026-06-16T08:04:48.000Z</time>
        <extensions>
          <ns3:TrackPointExtension>
            <ns3:atemp>18.0</ns3:atemp>
          </ns3:TrackPointExtension>
        </extensions>
      </trkpt>
      <trkpt lat="42.62708882801234722137451171875" lon="19.88330234773457050323486328125">
        <ele>1684.4000244140625</ele>
        <time>2026-06-16T08:04:49.000Z</time>
        <extensions>
          <ns3:TrackPointExtension>
            <ns3:atemp>18.0</ns3:atemp>
          </ns3:TrackPointExtension>
        </extensions>
      </trkpt>
      <trkpt lat="42.62706787325441837310791015625" lon="19.88332464359700679779052734375">
        <ele>1684.4000244140625</ele>
        <time>2026-06-16T08:04:50.000Z</time>
        <extensions>
          <ns3:TrackPointExtension>
            <ns3:atemp>18.0</ns3:atemp>
          </ns3:TrackPointExtension>
        </extensions>
      </trkpt>
      <trkpt lat="42.627050690352916717529296875" lon="19.8833436705172061920166015625">
        <ele>1684.5999755859375</ele>
        <time>2026-06-16T08:04:51.000Z</time>
        <extensions>
          <ns3:TrackPointExtension>
            <ns3:atemp>18.0</ns3:atemp>
          </ns3:TrackPointExtension>
        </extensions>
      </trkpt>
      <trkpt lat="42.62703300453722476959228515625" lon="19.8833600990474224090576171875">
        <ele>1684.800048828125</ele>
        <time>2026-06-16T08:04:52.000Z</time>
        <extensions>
          <ns3:TrackPointExtension>
            <ns3:atemp>18.0</ns3:atemp>
          </ns3:TrackPointExtension>
        </extensions>
      </trkpt>
      <trkpt lat="42.62701414525508880615234375" lon="19.8833718337118625640869140625">
        <ele>1685</ele>
        <time>2026-06-16T08:04:53.000Z</time>
        <extensions>
          <ns3:TrackPointExtension>
            <ns3:atemp>18.0</ns3:atemp>
          </ns3:TrackPointExtension>
        </extensions>
      </trkpt>
      <trkpt lat="42.626998387277126312255859375" lon="19.8833875916898250579833984375">
        <ele>1685.199951171875</ele>
        <time>2026-06-16T08:04:54.000Z</time>
        <extensions>
          <ns3:TrackPointExtension>
            <ns3:atemp>18.0</ns3:atemp>
          </ns3:TrackPointExtension>
        </extensions>
      </trkpt>
      <trkpt lat="42.62698329985141754150390625" lon="19.883400499820709228515625">
        <ele>1685.4000244140625</ele>
        <time>2026-06-16T08:04:55.000Z</time>
        <extensions>
          <ns3:TrackPointExtension>
            <ns3:atemp>18.0</ns3:atemp>
          </ns3:TrackPointExtension>
        </extensions>
      </trkpt>
      <trkpt lat="42.62696527875959873199462890625" lon="19.883415587246417999267578125">
        <ele>1685.5999755859375</ele>
        <time>2026-06-16T08:04:56.000Z</time>
        <extensions>
          <ns3:TrackPointExtension>
            <ns3:atemp>18.0</ns3:atemp>
          </ns3:TrackPointExtension>
        </extensions>
      </trkpt>
      <trkpt lat="42.626948766410350799560546875" lon="19.88342799246311187744140625">
        <ele>1685.800048828125</ele>
        <time>2026-06-16T08:04:57.000Z</time>
        <extensions>
          <ns3:TrackPointExtension>
            <ns3:atemp>18.0</ns3:atemp>
          </ns3:TrackPointExtension>
        </extensions>
      </trkpt>
      <trkpt lat="42.62692965567111968994140625" lon="19.88343763165175914764404296875">
        <ele>1686.199951171875</ele>
        <time>2026-06-16T08:04:58.000Z</time>
        <extensions>
          <ns3:TrackPointExtension>
            <ns3:atemp>18.0</ns3:atemp>
          </ns3:TrackPointExtension>
        </extensions>
      </trkpt>
      <trkpt lat="42.62691549025475978851318359375" lon="19.88344701938331127166748046875">
        <ele>1686.5999755859375</ele>
        <time>2026-06-16T08:04:59.000Z</time>
        <extensions>
          <ns3:TrackPointExtension>
            <ns3:atemp>18.0</ns3:atemp>
          </ns3:TrackPointExtension>
        </extensions>
      </trkpt>
      <trkpt lat="42.62690040282905101776123046875" lon="19.88346286118030548095703125">
        <ele>1687</ele>
        <time>2026-06-16T08:05:00.000Z</time>
        <extensions>
          <ns3:TrackPointExtension>
            <ns3:atemp>18.0</ns3:atemp>
          </ns3:TrackPointExtension>
        </extensions>
      </trkpt>
      <trkpt lat="42.62688280083239078521728515625" lon="19.8834777809679508209228515625">
        <ele>1687.4000244140625</ele>
        <time>2026-06-16T08:05:01.000Z</time>
        <extensions>
          <ns3:TrackPointExtension>
            <ns3:atemp>18.0</ns3:atemp>
          </ns3:TrackPointExtension>
        </extensions>
      </trkpt>
      <trkpt lat="42.626866288483142852783203125" lon="19.88348607905209064483642578125">
        <ele>1687.800048828125</ele>
        <time>2026-06-16T08:05:02.000Z</time>
        <extensions>
          <ns3:TrackPointExtension>
            <ns3:atemp>18.0</ns3:atemp>
          </ns3:TrackPointExtension>
        </extensions>
      </trkpt>
      <trkpt lat="42.62685011141002178192138671875" lon="19.8834995739161968231201171875">
        <ele>1688</ele>
        <time>2026-06-16T08:05:03.000Z</time>
        <extensions>
          <ns3:TrackPointExtension>
            <ns3:atemp>18.0</ns3:atemp>
          </ns3:TrackPointExtension>
        </extensions>
      </trkpt>
      <trkpt lat="42.62683519162237644195556640625" lon="19.88351005129516124725341796875">
        <ele>1687.800048828125</ele>
        <time>2026-06-16T08:05:04.000Z</time>
        <extensions>
          <ns3:TrackPointExtension>
            <ns3:atemp>18.0</ns3:atemp>
          </ns3:TrackPointExtension>
        </extensions>
      </trkpt>
      <trkpt lat="42.62681993655860424041748046875" lon="19.88352480344474315643310546875">
        <ele>1687.4000244140625</ele>
        <time>2026-06-16T08:05:05.000Z</time>
        <extensions>
          <ns3:TrackPointExtension>
            <ns3:atemp>18.0</ns3:atemp>
          </ns3:TrackPointExtension>
        </extensions>
      </trkpt>
      <trkpt lat="42.62680199928581714630126953125" lon="19.88354022614657878875732421875">
        <ele>1687.199951171875</ele>
        <time>2026-06-16T08:05:06.000Z</time>
        <extensions>
          <ns3:TrackPointExtension>
            <ns3:atemp>18.0</ns3:atemp>
          </ns3:TrackPointExtension>
        </extensions>
      </trkpt>
      <trkpt lat="42.6267809607088565826416015625" lon="19.8835498653352260589599609375">
        <ele>1687.4000244140625</ele>
        <time>2026-06-16T08:05:07.000Z</time>
        <extensions>
          <ns3:TrackPointExtension>
            <ns3:atemp>18.0</ns3:atemp>
          </ns3:TrackPointExtension>
        </extensions>
      </trkpt>
      <trkpt lat="42.6267628557980060577392578125" lon="19.883560426533222198486328125">
        <ele>1687.5999755859375</ele>
        <time>2026-06-16T08:05:08.000Z</time>
        <extensions>
          <ns3:TrackPointExtension>
            <ns3:atemp>18.0</ns3:atemp>
          </ns3:TrackPointExtension>
        </extensions>
      </trkpt>
      <trkpt lat="42.6267464272677898406982421875" lon="19.8835681378841400146484375">
        <ele>1687.800048828125</ele>
        <time>2026-06-16T08:05:09.000Z</time>
        <extensions>
          <ns3:TrackPointExtension>
            <ns3:atemp>18.0</ns3:atemp>
          </ns3:TrackPointExtension>
        </extensions>
      </trkpt>
      <trkpt lat="42.62672773562371730804443359375" lon="19.88357241265475749969482421875">
        <ele>1688.199951171875</ele>
        <time>2026-06-16T08:05:10.000Z</time>
        <extensions>
          <ns3:TrackPointExtension>
            <ns3:atemp>18.0</ns3:atemp>
          </ns3:TrackPointExtension>
        </extensions>
      </trkpt>
      <trkpt lat="42.6267092116177082061767578125" lon="19.88357014954090118408203125">
        <ele>1688.4000244140625</ele>
        <time>2026-06-16T08:05:11.000Z</time>
        <extensions>
          <ns3:TrackPointExtension>
            <ns3:atemp>18.0</ns3:atemp>
          </ns3:TrackPointExtension>
        </extensions>
      </trkpt>
      <trkpt lat="42.62669404037296772003173828125" lon="19.88356989808380603790283203125">
        <ele>1688.800048828125</ele>
        <time>2026-06-16T08:05:12.000Z</time>
        <extensions>
          <ns3:TrackPointExtension>
            <ns3:atemp>18.0</ns3:atemp>
          </ns3:TrackPointExtension>
        </extensions>
      </trkpt>
      <trkpt lat="42.62667618691921234130859375" lon="19.88357207737863063812255859375">
        <ele>1689</ele>
        <time>2026-06-16T08:05:13.000Z</time>
        <extensions>
          <ns3:TrackPointExtension>
            <ns3:atemp>18.0</ns3:atemp>
          </ns3:TrackPointExtension>
        </extensions>
      </trkpt>
      <trkpt lat="42.6266605965793132781982421875" lon="19.883573167026042938232421875">
        <ele>1689.199951171875</ele>
        <time>2026-06-16T08:05:14.000Z</time>
        <extensions>
          <ns3:TrackPointExtension>
            <ns3:atemp>18.0</ns3:atemp>
          </ns3:TrackPointExtension>
        </extensions>
      </trkpt>
      <trkpt lat="42.62664224021136760711669921875" lon="19.8835736699402332305908203125">
        <ele>1689.4000244140625</ele>
        <time>2026-06-16T08:05:15.000Z</time>
        <extensions>
          <ns3:TrackPointExtension>
            <ns3:atemp>18.0</ns3:atemp>
          </ns3:TrackPointExtension>
        </extensions>
      </trkpt>
      <trkpt lat="42.626628912985324859619140625" lon="19.88357308320701122283935546875">
        <ele>1689.5999755859375</ele>
        <time>2026-06-16T08:05:16.000Z</time>
        <extensions>
          <ns3:TrackPointExtension>
            <ns3:atemp>18.0</ns3:atemp>
          </ns3:TrackPointExtension>
        </extensions>
      </trkpt>
      <trkpt lat="42.62661223299801349639892578125" lon="19.88357149064540863037109375">
        <ele>1689.800048828125</ele>
        <time>2026-06-16T08:05:17.000Z</time>
        <extensions>
          <ns3:TrackPointExtension>
            <ns3:atemp>18.0</ns3:atemp>
          </ns3:TrackPointExtension>
        </extensions>
      </trkpt>
      <trkpt lat="42.6265968941152095794677734375" lon="19.8835756815969944000244140625">
        <ele>1690</ele>
        <time>2026-06-16T08:05:18.000Z</time>
        <extensions>
          <ns3:TrackPointExtension>
            <ns3:atemp>18.0</ns3:atemp>
          </ns3:TrackPointExtension>
        </extensions>
      </trkpt>
      <trkpt lat="42.62658155523240566253662109375" lon="19.883575178682804107666015625">
        <ele>1690.199951171875</ele>
        <time>2026-06-16T08:05:19.000Z</time>
        <extensions>
          <ns3:TrackPointExtension>
            <ns3:atemp>18.0</ns3:atemp>
          </ns3:TrackPointExtension>
        </extensions>
      </trkpt>
      <trkpt lat="42.6265677250921726226806640625" lon="19.883569143712520599365234375">
        <ele>1690.4000244140625</ele>
        <time>2026-06-16T08:05:20.000Z</time>
        <extensions>
          <ns3:TrackPointExtension>
            <ns3:atemp>18.0</ns3:atemp>
          </ns3:TrackPointExtension>
        </extensions>
      </trkpt>
      <trkpt lat="42.62655355967581272125244140625" lon="19.88356478512287139892578125">
        <ele>1690.800048828125</ele>
        <time>2026-06-16T08:05:21.000Z</time>
        <extensions>
          <ns3:TrackPointExtension>
            <ns3:atemp>18.0</ns3:atemp>
          </ns3:TrackPointExtension>
        </extensions>
      </trkpt>
      <trkpt lat="42.6265415735542774200439453125" lon="19.88355933688580989837646484375">
        <ele>1691</ele>
        <time>2026-06-16T08:05:22.000Z</time>
        <extensions>
          <ns3:TrackPointExtension>
            <ns3:atemp>18.0</ns3:atemp>
          </ns3:TrackPointExtension>
        </extensions>
      </trkpt>
      <trkpt lat="42.6265244744718074798583984375" lon="19.8835559003055095672607421875">
        <ele>1691.199951171875</ele>
        <time>2026-06-16T08:05:23.000Z</time>
        <extensions>
          <ns3:TrackPointExtension>
            <ns3:atemp>18.0</ns3:atemp>
          </ns3:TrackPointExtension>
        </extensions>
      </trkpt>
      <trkpt lat="42.6265080459415912628173828125" lon="19.88355179317295551300048828125">
        <ele>1691.4000244140625</ele>
        <time>2026-06-16T08:05:24.000Z</time>
        <extensions>
          <ns3:TrackPointExtension>
            <ns3:atemp>18.0</ns3:atemp>
          </ns3:TrackPointExtension>
        </extensions>
      </trkpt>
      <trkpt lat="42.626497484743595123291015625" lon="19.88354659639298915863037109375">
        <ele>1691.800048828125</ele>
        <time>2026-06-16T08:05:25.000Z</time>
        <extensions>
          <ns3:TrackPointExtension>
            <ns3:atemp>18.0</ns3:atemp>
          </ns3:TrackPointExtension>
        </extensions>
      </trkpt>
      <trkpt lat="42.626482732594013214111328125" lon="19.8835398070514202117919921875">
        <ele>1692</ele>
        <time>2026-06-16T08:05:26.000Z</time>
        <extensions>
          <ns3:TrackPointExtension>
            <ns3:atemp>18.0</ns3:atemp>
          </ns3:TrackPointExtension>
        </extensions>
      </trkpt>
      <trkpt lat="42.6264688186347484588623046875" lon="19.88353067077696323394775390625">
        <ele>1692.4000244140625</ele>
        <time>2026-06-16T08:05:27.000Z</time>
        <extensions>
          <ns3:TrackPointExtension>
            <ns3:atemp>18.0</ns3:atemp>
          </ns3:TrackPointExtension>
        </extensions>
      </trkpt>
      <trkpt lat="42.626459598541259765625" lon="19.88351793028414249420166015625">
        <ele>1692.5999755859375</ele>
        <time>2026-06-16T08:05:28.000Z</time>
        <extensions>
          <ns3:TrackPointExtension>
            <ns3:atemp>18.0</ns3:atemp>
          </ns3:TrackPointExtension>
        </extensions>
      </trkpt>
      <trkpt lat="42.62644710950553417205810546875" lon="19.88350837491452693939208984375">
        <ele>1692.800048828125</ele>
        <time>2026-06-16T08:05:29.000Z</time>
        <extensions>
          <ns3:TrackPointExtension>
            <ns3:atemp>18.0</ns3:atemp>
          </ns3:TrackPointExtension>
        </extensions>
      </trkpt>
      <trkpt lat="42.6264312677085399627685546875" lon="19.883490689098834991455078125">
        <ele>1693.199951171875</ele>
        <time>2026-06-16T08:05:30.000Z</time>
        <extensions>
          <ns3:TrackPointExtension>
            <ns3:atemp>18.0</ns3:atemp>
          </ns3:TrackPointExtension>
        </extensions>
      </trkpt>
      <trkpt lat="42.62641509063541889190673828125" lon="19.883477278053760528564453125">
        <ele>1693.5999755859375</ele>
        <time>2026-06-16T08:05:31.000Z</time>
        <extensions>
          <ns3:TrackPointExtension>
            <ns3:atemp>18.0</ns3:atemp>
          </ns3:TrackPointExtension>
        </extensions>
      </trkpt>
      <trkpt lat="42.62639991939067840576171875" lon="19.883468560874462127685546875">
        <ele>1693.800048828125</ele>
        <time>2026-06-16T08:05:32.000Z</time>
        <extensions>
          <ns3:TrackPointExtension>
            <ns3:atemp>18.0</ns3:atemp>
          </ns3:TrackPointExtension>
        </extensions>
      </trkpt>
      <trkpt lat="42.6263853348791599273681640625" lon="19.88345975987613201141357421875">
        <ele>1694.199951171875</ele>
        <time>2026-06-16T08:05:33.000Z</time>
        <extensions>
          <ns3:TrackPointExtension>
            <ns3:atemp>18.0</ns3:atemp>
          </ns3:TrackPointExtension>
        </extensions>
      </trkpt>
      <trkpt lat="42.62637368403375148773193359375" lon="19.8834479413926601409912109375">
        <ele>1694.5999755859375</ele>
        <time>2026-06-16T08:05:34.000Z</time>
        <extensions>
          <ns3:TrackPointExtension>
            <ns3:atemp>18.0</ns3:atemp>
          </ns3:TrackPointExtension>
        </extensions>
      </trkpt>
      <trkpt lat="42.6263655535876750946044921875" lon="19.8834420740604400634765625">
        <ele>1695</ele>
        <time>2026-06-16T08:05:35.000Z</time>
        <extensions>
          <ns3:TrackPointExtension>
            <ns3:atemp>18.0</ns3:atemp>
          </ns3:TrackPointExtension>
        </extensions>
      </trkpt>
      <trkpt lat="42.6263558305799961090087890625" lon="19.8834335245192050933837890625">
        <ele>1695.199951171875</ele>
        <time>2026-06-16T08:05:36.000Z</time>
        <extensions>
          <ns3:TrackPointExtension>
            <ns3:atemp>18.0</ns3:atemp>
          </ns3:TrackPointExtension>
        </extensions>
      </trkpt>
      <trkpt lat="42.6263444311916828155517578125" lon="19.88342707045376300811767578125">
        <ele>1695.5999755859375</ele>
        <time>2026-06-16T08:05:37.000Z</time>
        <extensions>
          <ns3:TrackPointExtension>
            <ns3:atemp>18.0</ns3:atemp>
          </ns3:TrackPointExtension>
        </extensions>
      </trkpt>
      <trkpt lat="42.62633043341338634490966796875" lon="19.8834234662353992462158203125">
        <ele>1696</ele>
        <time>2026-06-16T08:05:38.000Z</time>
        <extensions>
          <ns3:TrackPointExtension>
            <ns3:atemp>18.0</ns3:atemp>
          </ns3:TrackPointExtension>
        </extensions>
      </trkpt>
      <trkpt lat="42.62631719000637531280517578125" lon="19.88341282121837139129638671875">
        <ele>1696.4000244140625</ele>
        <time>2026-06-16T08:05:39.000Z</time>
        <extensions>
          <ns3:TrackPointExtension>
            <ns3:atemp>18.0</ns3:atemp>
          </ns3:TrackPointExtension>
        </extensions>
      </trkpt>
      <trkpt lat="42.6263025216758251190185546875" lon="19.8834013380110263824462890625">
        <ele>1696.5999755859375</ele>
        <time>2026-06-16T08:05:40.000Z</time>
        <extensions>
          <ns3:TrackPointExtension>
            <ns3:atemp>18.0</ns3:atemp>
          </ns3:TrackPointExtension>
        </extensions>
      </trkpt>
      <trkpt lat="42.62628885917365550994873046875" lon="19.88339203409850597381591796875">
        <ele>1697</ele>
        <time>2026-06-16T08:05:41.000Z</time>
        <extensions>
          <ns3:TrackPointExtension>
            <ns3:atemp>18.0</ns3:atemp>
          </ns3:TrackPointExtension>
        </extensions>
      </trkpt>
      <trkpt lat="42.62627025134861469268798828125" lon="19.8833795450627803802490234375">
        <ele>1697.199951171875</ele>
        <time>2026-06-16T08:05:42.000Z</time>
        <extensions>
          <ns3:TrackPointExtension>
            <ns3:atemp>18.0</ns3:atemp>
          </ns3:TrackPointExtension>
        </extensions>
      </trkpt>
      <trkpt lat="42.6262488774955272674560546875" lon="19.88336755894124507904052734375">
        <ele>1697.5999755859375</ele>
        <time>2026-06-16T08:05:43.000Z</time>
        <extensions>
          <ns3:TrackPointExtension>
            <ns3:atemp>18.0</ns3:atemp>
          </ns3:TrackPointExtension>
        </extensions>
      </trkpt>
      <trkpt lat="42.62623521499335765838623046875" lon="19.88334978930652141571044921875">
        <ele>1697.800048828125</ele>
        <time>2026-06-16T08:05:44.000Z</time>
        <extensions>
          <ns3:TrackPointExtension>
            <ns3:atemp>18.0</ns3:atemp>
          </ns3:TrackPointExtension>
        </extensions>
      </trkpt>
      <trkpt lat="42.62622046284377574920654296875" lon="19.88332967273890972137451171875">
        <ele>1698.199951171875</ele>
        <time>2026-06-16T08:05:45.000Z</time>
        <extensions>
          <ns3:TrackPointExtension>
            <ns3:atemp>18.0</ns3:atemp>
          </ns3:TrackPointExtension>
        </extensions>
      </trkpt>
      <trkpt lat="42.6262088119983673095703125" lon="19.8833104781806468963623046875">
        <ele>1698.4000244140625</ele>
        <time>2026-06-16T08:05:46.000Z</time>
        <extensions>
          <ns3:TrackPointExtension>
            <ns3:atemp>18.0</ns3:atemp>
          </ns3:TrackPointExtension>
        </extensions>
      </trkpt>
      <trkpt lat="42.6261982508003711700439453125" lon="19.88328759558498859405517578125">
        <ele>1698.5999755859375</ele>
        <time>2026-06-16T08:05:47.000Z</time>
        <extensions>
          <ns3:TrackPointExtension>
            <ns3:atemp>18.0</ns3:atemp>
          </ns3:TrackPointExtension>
        </extensions>
      </trkpt>
      <trkpt lat="42.62618995271623134613037109375" lon="19.88326312042772769927978515625">
        <ele>1699</ele>
        <time>2026-06-16T08:05:48.000Z</time>
        <extensions>
          <ns3:TrackPointExtension>
            <ns3:atemp>18.0</ns3:atemp>
          </ns3:TrackPointExtension>
        </extensions>
      </trkpt>
      <trkpt lat="42.62617955915629863739013671875" lon="19.88323395140469074249267578125">
        <ele>1699.199951171875</ele>
        <time>2026-06-16T08:05:49.000Z</time>
        <extensions>
          <ns3:TrackPointExtension>
            <ns3:atemp>18.0</ns3:atemp>
          </ns3:TrackPointExtension>
        </extensions>
      </trkpt>
      <trkpt lat="42.62616262771189212799072265625" lon="19.8832008428871631622314453125">
        <ele>1699.4000244140625</ele>
        <time>2026-06-16T08:05:50.000Z</time>
        <extensions>
          <ns3:TrackPointExtension>
            <ns3:atemp>18.0</ns3:atemp>
          </ns3:TrackPointExtension>
        </extensions>
      </trkpt>
      <trkpt lat="42.62614737264811992645263671875" lon="19.88317494280636310577392578125">
        <ele>1699.5999755859375</ele>
        <time>2026-06-16T08:05:51.000Z</time>
        <extensions>
          <ns3:TrackPointExtension>
            <ns3:atemp>18.0</ns3:atemp>
          </ns3:TrackPointExtension>
        </extensions>
      </trkpt>
      <trkpt lat="42.62612977065145969390869140625" lon="19.88315843045711517333984375">
        <ele>1699.800048828125</ele>
        <time>2026-06-16T08:05:52.000Z</time>
        <extensions>
          <ns3:TrackPointExtension>
            <ns3:atemp>18.0</ns3:atemp>
          </ns3:TrackPointExtension>
        </extensions>
      </trkpt>
      <trkpt lat="42.62611870653927326202392578125" lon="19.8831445164978504180908203125">
        <ele>1700</ele>
        <time>2026-06-16T08:05:53.000Z</time>
        <extensions>
          <ns3:TrackPointExtension>
            <ns3:atemp>18.0</ns3:atemp>
          </ns3:TrackPointExtension>
        </extensions>
      </trkpt>
      <trkpt lat="42.62609691359102725982666015625" lon="19.88313236273825168609619140625">
        <ele>1700.199951171875</ele>
        <time>2026-06-16T08:05:54.000Z</time>
        <extensions>
          <ns3:TrackPointExtension>
            <ns3:atemp>18.0</ns3:atemp>
          </ns3:TrackPointExtension>
        </extensions>
      </trkpt>
      <trkpt lat="42.62608098797500133514404296875" lon="19.88311677239835262298583984375">
        <ele>1700.4000244140625</ele>
        <time>2026-06-16T08:05:55.000Z</time>
        <extensions>
          <ns3:TrackPointExtension>
            <ns3:atemp>18.0</ns3:atemp>
          </ns3:TrackPointExtension>
        </extensions>
      </trkpt>
      <trkpt lat="42.62606254778802394866943359375" lon="19.88310168497264385223388671875">
        <ele>1700.5999755859375</ele>
        <time>2026-06-16T08:05:56.000Z</time>
        <extensions>
          <ns3:TrackPointExtension>
            <ns3:atemp>18.0</ns3:atemp>
          </ns3:TrackPointExtension>
        </extensions>
      </trkpt>
      <trkpt lat="42.6260478794574737548828125" lon="19.88308542408049106597900390625">
        <ele>1700.800048828125</ele>
        <time>2026-06-16T08:05:57.000Z</time>
        <extensions>
          <ns3:TrackPointExtension>
            <ns3:atemp>18.0</ns3:atemp>
          </ns3:TrackPointExtension>
        </extensions>
      </trkpt>
      <trkpt lat="42.62603455223143100738525390625" lon="19.88307259976863861083984375">
        <ele>1701</ele>
        <time>2026-06-16T08:05:58.000Z</time>
        <extensions>
          <ns3:TrackPointExtension>
            <ns3:atemp>18.0</ns3:atemp>
          </ns3:TrackPointExtension>
        </extensions>
      </trkpt>
      <trkpt lat="42.626016698777675628662109375" lon="19.8830620385706424713134765625">
        <ele>1701.4000244140625</ele>
        <time>2026-06-16T08:05:59.000Z</time>
        <extensions>
          <ns3:TrackPointExtension>
            <ns3:atemp>18.0</ns3:atemp>
          </ns3:TrackPointExtension>
        </extensions>
      </trkpt>
      <trkpt lat="42.6260001026093959808349609375" lon="19.8830513097345829010009765625">
        <ele>1701.5999755859375</ele>
        <time>2026-06-16T08:06:00.000Z</time>
        <extensions>
          <ns3:TrackPointExtension>
            <ns3:atemp>18.0</ns3:atemp>
          </ns3:TrackPointExtension>
        </extensions>
      </trkpt>
      <trkpt lat="42.62598627246916294097900390625" lon="19.8830466158688068389892578125">
        <ele>1701.800048828125</ele>
        <time>2026-06-16T08:06:01.000Z</time>
        <extensions>
          <ns3:TrackPointExtension>
            <ns3:atemp>18.0</ns3:atemp>
          </ns3:TrackPointExtension>
        </extensions>
      </trkpt>
      <trkpt lat="42.62597336433827877044677734375" lon="19.8830449394881725311279296875">
        <ele>1702</ele>
        <time>2026-06-16T08:06:02.000Z</time>
        <extensions>
          <ns3:TrackPointExtension>
            <ns3:atemp>18.0</ns3:atemp>
          </ns3:TrackPointExtension>
        </extensions>
      </trkpt>
      <trkpt lat="42.6259598694741725921630859375" lon="19.8830382339656352996826171875">
        <ele>1702.199951171875</ele>
        <time>2026-06-16T08:06:03.000Z</time>
        <extensions>
          <ns3:TrackPointExtension>
            <ns3:atemp>18.0</ns3:atemp>
          </ns3:TrackPointExtension>
        </extensions>
      </trkpt>
      <trkpt lat="42.62595106847584247589111328125" lon="19.88302574492990970611572265625">
        <ele>1702.4000244140625</ele>
        <time>2026-06-16T08:06:04.000Z</time>
        <extensions>
          <ns3:TrackPointExtension>
            <ns3:atemp>18.0</ns3:atemp>
          </ns3:TrackPointExtension>
        </extensions>
      </trkpt>
      <trkpt lat="42.62594670988619327545166015625" lon="19.8830104060471057891845703125">
        <ele>1702.5999755859375</ele>
        <time>2026-06-16T08:06:05.000Z</time>
        <extensions>
          <ns3:TrackPointExtension>
            <ns3:atemp>18.0</ns3:atemp>
          </ns3:TrackPointExtension>
        </extensions>
      </trkpt>
      <trkpt lat="42.62595039792358875274658203125" lon="19.88299272023141384124755859375">
        <ele>1702.800048828125</ele>
        <time>2026-06-16T08:06:06.000Z</time>
        <extensions>
          <ns3:TrackPointExtension>
            <ns3:atemp>18.0</ns3:atemp>
          </ns3:TrackPointExtension>
        </extensions>
      </trkpt>
      <trkpt lat="42.625957019627094268798828125" lon="19.8829815723001956939697265625">
        <ele>1703</ele>
        <time>2026-06-16T08:06:07.000Z</time>
        <extensions>
          <ns3:TrackPointExtension>
            <ns3:atemp>18.0</ns3:atemp>
          </ns3:TrackPointExtension>
        </extensions>
      </trkpt>
      <trkpt lat="42.62597051449120044708251953125" lon="19.88298115320503711700439453125">
        <ele>1703.199951171875</ele>
        <time>2026-06-16T08:06:08.000Z</time>
        <extensions>
          <ns3:TrackPointExtension>
            <ns3:atemp>18.0</ns3:atemp>
          </ns3:TrackPointExtension>
        </extensions>
      </trkpt>
      <trkpt lat="42.6259819976985454559326171875" lon="19.88297545351088047027587890625">
        <ele>1703.199951171875</ele>
        <time>2026-06-16T08:06:09.000Z</time>
        <extensions>
          <ns3:TrackPointExtension>
            <ns3:atemp>18.0</ns3:atemp>
          </ns3:TrackPointExtension>
        </extensions>
      </trkpt>
      <trkpt lat="42.625995576381683349609375" lon="19.8829681612551212310791015625">
        <ele>1703.4000244140625</ele>
        <time>2026-06-16T08:06:10.000Z</time>
        <extensions>
          <ns3:TrackPointExtension>
            <ns3:atemp>18.0</ns3:atemp>
          </ns3:TrackPointExtension>
        </extensions>
      </trkpt>
      <trkpt lat="42.62600873596966266632080078125" lon="19.88295919261872768402099609375">
        <ele>1703.5999755859375</ele>
        <time>2026-06-16T08:06:11.000Z</time>
        <extensions>
          <ns3:TrackPointExtension>
            <ns3:atemp>17.0</ns3:atemp>
          </ns3:TrackPointExtension>
        </extensions>
      </trkpt>
      <trkpt lat="42.62601963244378566741943359375" lon="19.8829490505158901214599609375">
        <ele>1703.800048828125</ele>
        <time>2026-06-16T08:06:12.000Z</time>
        <extensions>
          <ns3:TrackPointExtension>
            <ns3:atemp>18.0</ns3:atemp>
          </ns3:TrackPointExtension>
        </extensions>
      </trkpt>
      <trkpt lat="42.6260262541472911834716796875" lon="19.88293522037565708160400390625">
        <ele>1704.199951171875</ele>
        <time>2026-06-16T08:06:13.000Z</time>
        <extensions>
          <ns3:TrackPointExtension>
            <ns3:atemp>18.0</ns3:atemp>
          </ns3:TrackPointExtension>
        </extensions>
      </trkpt>
      <trkpt lat="42.626035474240779876708984375" lon="19.88291543908417224884033203125">
        <ele>1704.4000244140625</ele>
        <time>2026-06-16T08:06:14.000Z</time>
        <extensions>
          <ns3:TrackPointExtension>
            <ns3:atemp>17.0</ns3:atemp>
          </ns3:TrackPointExtension>
        </extensions>
      </trkpt>
      <trkpt lat="42.62604393996298313140869140625" lon="19.8829068057239055633544921875">
        <ele>1704.800048828125</ele>
        <time>2026-06-16T08:06:15.000Z</time>
        <extensions>
          <ns3:TrackPointExtension>
            <ns3:atemp>17.0</ns3:atemp>
          </ns3:TrackPointExtension>
        </extensions>
      </trkpt>
      <trkpt lat="42.62605483643710613250732421875" lon="19.88289423286914825439453125">
        <ele>1705.199951171875</ele>
        <time>2026-06-16T08:06:16.000Z</time>
        <extensions>
          <ns3:TrackPointExtension>
            <ns3:atemp>17.0</ns3:atemp>
          </ns3:TrackPointExtension>
        </extensions>
      </trkpt>
      <trkpt lat="42.626065649092197418212890625" lon="19.8828846774995326995849609375">
        <ele>1705.4000244140625</ele>
        <time>2026-06-16T08:06:17.000Z</time>
        <extensions>
          <ns3:TrackPointExtension>
            <ns3:atemp>17.0</ns3:atemp>
          </ns3:TrackPointExtension>
        </extensions>
      </trkpt>
      <trkpt lat="42.62607545591890811920166015625" lon="19.8828707635402679443359375">
        <ele>1705.800048828125</ele>
        <time>2026-06-16T08:06:18.000Z</time>
        <extensions>
          <ns3:TrackPointExtension>
            <ns3:atemp>17.0</ns3:atemp>
          </ns3:TrackPointExtension>
        </extensions>
      </trkpt>
      <trkpt lat="42.62608618475496768951416015625" lon="19.882852993905544281005859375">
        <ele>1706.199951171875</ele>
        <time>2026-06-16T08:06:19.000Z</time>
        <extensions>
          <ns3:TrackPointExtension>
            <ns3:atemp>17.0</ns3:atemp>
          </ns3:TrackPointExtension>
        </extensions>
      </trkpt>
      <trkpt lat="42.62609540484845638275146484375" lon="19.88284234888851642608642578125">
        <ele>1706.5999755859375</ele>
        <time>2026-06-16T08:06:20.000Z</time>
        <extensions>
          <ns3:TrackPointExtension>
            <ns3:atemp>17.0</ns3:atemp>
          </ns3:TrackPointExtension>
        </extensions>
      </trkpt>
      <trkpt lat="42.6261003501713275909423828125" lon="19.88282181322574615478515625">
        <ele>1706.800048828125</ele>
        <time>2026-06-16T08:06:21.000Z</time>
        <extensions>
          <ns3:TrackPointExtension>
            <ns3:atemp>17.0</ns3:atemp>
          </ns3:TrackPointExtension>
        </extensions>
      </trkpt>
      <trkpt lat="42.6261023618280887603759765625" lon="19.88280236721038818359375">
        <ele>1707.199951171875</ele>
        <time>2026-06-16T08:06:22.000Z</time>
        <extensions>
          <ns3:TrackPointExtension>
            <ns3:atemp>17.0</ns3:atemp>
          </ns3:TrackPointExtension>
        </extensions>
      </trkpt>
      <trkpt lat="42.62609942816197872161865234375" lon="19.88278836943209171295166015625">
        <ele>1707.4000244140625</ele>
        <time>2026-06-16T08:06:23.000Z</time>
        <extensions>
          <ns3:TrackPointExtension>
            <ns3:atemp>17.0</ns3:atemp>
          </ns3:TrackPointExtension>
        </extensions>
      </trkpt>
      <trkpt lat="42.626093812286853790283203125" lon="19.8827690072357654571533203125">
        <ele>1707.800048828125</ele>
        <time>2026-06-16T08:06:24.000Z</time>
        <extensions>
          <ns3:TrackPointExtension>
            <ns3:atemp>17.0</ns3:atemp>
          </ns3:TrackPointExtension>
        </extensions>
      </trkpt>
      <trkpt lat="42.62608635239303112030029296875" lon="19.8827559314668178558349609375">
        <ele>1708.199951171875</ele>
        <time>2026-06-16T08:06:25.000Z</time>
        <extensions>
          <ns3:TrackPointExtension>
            <ns3:atemp>17.0</ns3:atemp>
          </ns3:TrackPointExtension>
        </extensions>
      </trkpt>
      <trkpt lat="42.62607679702341556549072265625" lon="19.8827405087649822235107421875">
        <ele>1708.4000244140625</ele>
        <time>2026-06-16T08:06:26.000Z</time>
        <extensions>
          <ns3:TrackPointExtension>
            <ns3:atemp>17.0</ns3:atemp>
          </ns3:TrackPointExtension>
        </extensions>
      </trkpt>
      <trkpt lat="42.62606690637767314910888671875" lon="19.88272801972925662994384765625">
        <ele>1708.5999755859375</ele>
        <time>2026-06-16T08:06:27.000Z</time>
        <extensions>
          <ns3:TrackPointExtension>
            <ns3:atemp>17.0</ns3:atemp>
          </ns3:TrackPointExtension>
        </extensions>
      </trkpt>
      <trkpt lat="42.6260497234761714935302734375" lon="19.8827156983315944671630859375">
        <ele>1708.800048828125</ele>
        <time>2026-06-16T08:06:28.000Z</time>
        <extensions>
          <ns3:TrackPointExtension>
            <ns3:atemp>17.0</ns3:atemp>
          </ns3:TrackPointExtension>
        </extensions>
      </trkpt>
      <trkpt lat="42.62603622861206531524658203125" lon="19.8826979286968708038330078125">
        <ele>1709</ele>
        <time>2026-06-16T08:06:29.000Z</time>
        <extensions>
          <ns3:TrackPointExtension>
            <ns3:atemp>17.0</ns3:atemp>
          </ns3:TrackPointExtension>
        </extensions>
      </trkpt>
      <trkpt lat="42.626026086509227752685546875" lon="19.88267705775797367095947265625">
        <ele>1709.199951171875</ele>
        <time>2026-06-16T08:06:30.000Z</time>
        <extensions>
          <ns3:TrackPointExtension>
            <ns3:atemp>17.0</ns3:atemp>
          </ns3:TrackPointExtension>
        </extensions>
      </trkpt>
      <trkpt lat="42.62601946480572223663330078125" lon="19.88265258260071277618408203125">
        <ele>1709.4000244140625</ele>
        <time>2026-06-16T08:06:31.000Z</time>
        <extensions>
          <ns3:TrackPointExtension>
            <ns3:atemp>17.0</ns3:atemp>
          </ns3:TrackPointExtension>
        </extensions>
      </trkpt>
      <trkpt lat="42.62601024471223354339599609375" lon="19.88262693397700786590576171875">
        <ele>1709.5999755859375</ele>
        <time>2026-06-16T08:06:32.000Z</time>
        <extensions>
          <ns3:TrackPointExtension>
            <ns3:atemp>17.0</ns3:atemp>
          </ns3:TrackPointExtension>
        </extensions>
      </trkpt>
      <trkpt lat="42.62600605376064777374267578125" lon="19.88260027952492237091064453125">
        <ele>1709.800048828125</ele>
        <time>2026-06-16T08:06:33.000Z</time>
        <extensions>
          <ns3:TrackPointExtension>
            <ns3:atemp>17.0</ns3:atemp>
          </ns3:TrackPointExtension>
        </extensions>
      </trkpt>
      <trkpt lat="42.6260017789900302886962890625" lon="19.88257932476699352264404296875">
        <ele>1710</ele>
        <time>2026-06-16T08:06:34.000Z</time>
        <extensions>
          <ns3:TrackPointExtension>
            <ns3:atemp>17.0</ns3:atemp>
          </ns3:TrackPointExtension>
        </extensions>
      </trkpt>
      <trkpt lat="42.6259997673332691192626953125" lon="19.88256641663610935211181640625">
        <ele>1710.4000244140625</ele>
        <time>2026-06-16T08:06:35.000Z</time>
        <extensions>
          <ns3:TrackPointExtension>
            <ns3:atemp>17.0</ns3:atemp>
          </ns3:TrackPointExtension>
        </extensions>
      </trkpt>
      <trkpt lat="42.6259967498481273651123046875" lon="19.88255401141941547393798828125">
        <ele>1710.5999755859375</ele>
        <time>2026-06-16T08:06:36.000Z</time>
        <extensions>
          <ns3:TrackPointExtension>
            <ns3:atemp>17.0</ns3:atemp>
          </ns3:TrackPointExtension>
        </extensions>
      </trkpt>
      <trkpt lat="42.625990547239780426025390625" lon="19.88253372721374034881591796875">
        <ele>1710.800048828125</ele>
        <time>2026-06-16T08:06:37.000Z</time>
        <extensions>
          <ns3:TrackPointExtension>
            <ns3:atemp>17.0</ns3:atemp>
          </ns3:TrackPointExtension>
        </extensions>
      </trkpt>
      <trkpt lat="42.62598560191690921783447265625" lon="19.882520399987697601318359375">
        <ele>1711.199951171875</ele>
        <time>2026-06-16T08:06:38.000Z</time>
        <extensions>
          <ns3:TrackPointExtension>
            <ns3:atemp>17.0</ns3:atemp>
          </ns3:TrackPointExtension>
        </extensions>
      </trkpt>
      <trkpt lat="42.62597839348018169403076171875" lon="19.8825108446180820465087890625">
        <ele>1711.4000244140625</ele>
        <time>2026-06-16T08:06:39.000Z</time>
        <extensions>
          <ns3:TrackPointExtension>
            <ns3:atemp>17.0</ns3:atemp>
          </ns3:TrackPointExtension>
        </extensions>
      </trkpt>
      <trkpt lat="42.6259716041386127471923828125" lon="19.8825006186962127685546875">
        <ele>1711.5999755859375</ele>
        <time>2026-06-16T08:06:40.000Z</time>
        <extensions>
          <ns3:TrackPointExtension>
            <ns3:atemp>17.0</ns3:atemp>
          </ns3:TrackPointExtension>
        </extensions>
      </trkpt>
      <trkpt lat="42.6259685866534709930419921875" lon="19.88248519599437713623046875">
        <ele>1712</ele>
        <time>2026-06-16T08:06:41.000Z</time>
        <extensions>
          <ns3:TrackPointExtension>
            <ns3:atemp>17.0</ns3:atemp>
          </ns3:TrackPointExtension>
        </extensions>
      </trkpt>
      <trkpt lat="42.62595794163644313812255859375" lon="19.88246466033160686492919921875">
        <ele>1712.199951171875</ele>
        <time>2026-06-16T08:06:42.000Z</time>
        <extensions>
          <ns3:TrackPointExtension>
            <ns3:atemp>17.0</ns3:atemp>
          </ns3:TrackPointExtension>
        </extensions>
      </trkpt>
      <trkpt lat="42.62595609761774539947509765625" lon="19.882443957030773162841796875">
        <ele>1712.4000244140625</ele>
        <time>2026-06-16T08:06:43.000Z</time>
        <extensions>
          <ns3:TrackPointExtension>
            <ns3:atemp>17.0</ns3:atemp>
          </ns3:TrackPointExtension>
        </extensions>
      </trkpt>
      <trkpt lat="42.6259566843509674072265625" lon="19.8824219964444637298583984375">
        <ele>1712.5999755859375</ele>
        <time>2026-06-16T08:06:44.000Z</time>
        <extensions>
          <ns3:TrackPointExtension>
            <ns3:atemp>17.0</ns3:atemp>
          </ns3:TrackPointExtension>
        </extensions>
      </trkpt>
      <trkpt lat="42.62595224194228649139404296875" lon="19.88240347243845462799072265625">
        <ele>1712.800048828125</ele>
        <time>2026-06-16T08:06:45.000Z</time>
        <extensions>
          <ns3:TrackPointExtension>
            <ns3:atemp>17.0</ns3:atemp>
          </ns3:TrackPointExtension>
        </extensions>
      </trkpt>
      <trkpt lat="42.625948973000049591064453125" lon="19.88238654099404811859130859375">
        <ele>1713</ele>
        <time>2026-06-16T08:06:46.000Z</time>
        <extensions>
          <ns3:TrackPointExtension>
            <ns3:atemp>17.0</ns3:atemp>
          </ns3:TrackPointExtension>
        </extensions>
      </trkpt>
      <trkpt lat="42.62594620697200298309326171875" lon="19.882364831864833831787109375">
        <ele>1713.199951171875</ele>
        <time>2026-06-16T08:06:47.000Z</time>
        <extensions>
          <ns3:TrackPointExtension>
            <ns3:atemp>17.0</ns3:atemp>
          </ns3:TrackPointExtension>
        </extensions>
      </trkpt>
      <trkpt lat="42.62594603933393955230712890625" lon="19.88234563730657100677490234375">
        <ele>1713.5999755859375</ele>
        <time>2026-06-16T08:06:48.000Z</time>
        <extensions>
          <ns3:TrackPointExtension>
            <ns3:atemp>17.0</ns3:atemp>
          </ns3:TrackPointExtension>
        </extensions>
      </trkpt>
      <trkpt lat="42.62594235129654407501220703125" lon="19.88233172334730625152587890625">
        <ele>1714</ele>
        <time>2026-06-16T08:06:49.000Z</time>
        <extensions>
          <ns3:TrackPointExtension>
            <ns3:atemp>17.0</ns3:atemp>
          </ns3:TrackPointExtension>
        </extensions>
      </trkpt>
      <trkpt lat="42.62593950144946575164794921875" lon="19.88231378607451915740966796875">
        <ele>1714.199951171875</ele>
        <time>2026-06-16T08:06:50.000Z</time>
        <extensions>
          <ns3:TrackPointExtension>
            <ns3:atemp>17.0</ns3:atemp>
          </ns3:TrackPointExtension>
        </extensions>
      </trkpt>
      <trkpt lat="42.6259360648691654205322265625" lon="19.8822989501059055328369140625">
        <ele>1714.5999755859375</ele>
        <time>2026-06-16T08:06:51.000Z</time>
        <extensions>
          <ns3:TrackPointExtension>
            <ns3:atemp>17.0</ns3:atemp>
          </ns3:TrackPointExtension>
        </extensions>
      </trkpt>
      <trkpt lat="42.62592910788953304290771484375" lon="19.8822828568518161773681640625">
        <ele>1714.800048828125</ele>
        <time>2026-06-16T08:06:52.000Z</time>
        <extensions>
          <ns3:TrackPointExtension>
            <ns3:atemp>17.0</ns3:atemp>
          </ns3:TrackPointExtension>
        </extensions>
      </trkpt>
      <trkpt lat="42.62591670267283916473388671875" lon="19.88226902671158313751220703125">
        <ele>1715.199951171875</ele>
        <time>2026-06-16T08:06:53.000Z</time>
        <extensions>
          <ns3:TrackPointExtension>
            <ns3:atemp>17.0</ns3:atemp>
          </ns3:TrackPointExtension>
        </extensions>
      </trkpt>
      <trkpt lat="42.62590882368385791778564453125" lon="19.8822520114481449127197265625">
        <ele>1715.4000244140625</ele>
        <time>2026-06-16T08:06:54.000Z</time>
        <extensions>
          <ns3:TrackPointExtension>
            <ns3:atemp>17.0</ns3:atemp>
          </ns3:TrackPointExtension>
        </extensions>
      </trkpt>
      <trkpt lat="42.62590429745614528656005859375" lon="19.88222577609121799468994140625">
        <ele>1716</ele>
        <time>2026-06-16T08:06:55.000Z</time>
        <extensions>
          <ns3:TrackPointExtension>
            <ns3:atemp>17.0</ns3:atemp>
          </ns3:TrackPointExtension>
        </extensions>
      </trkpt>
      <trkpt lat="42.62590262107551097869873046875" lon="19.8822020553052425384521484375">
        <ele>1716.4000244140625</ele>
        <time>2026-06-16T08:06:56.000Z</time>
        <extensions>
          <ns3:TrackPointExtension>
            <ns3:atemp>17.0</ns3:atemp>
          </ns3:TrackPointExtension>
        </extensions>
      </trkpt>
      <trkpt lat="42.62590111233294010162353515625" lon="19.882178418338298797607421875">
        <ele>1716.800048828125</ele>
        <time>2026-06-16T08:06:57.000Z</time>
        <extensions>
          <ns3:TrackPointExtension>
            <ns3:atemp>17.0</ns3:atemp>
          </ns3:TrackPointExtension>
        </extensions>
      </trkpt>
      <trkpt lat="42.62590245343744754791259765625" lon="19.8821599781513214111328125">
        <ele>1717.199951171875</ele>
        <time>2026-06-16T08:06:58.000Z</time>
        <extensions>
          <ns3:TrackPointExtension>
            <ns3:atemp>17.0</ns3:atemp>
          </ns3:TrackPointExtension>
        </extensions>
      </trkpt>
      <trkpt lat="42.62590765021741390228271484375" lon="19.88214413635432720184326171875">
        <ele>1717.5999755859375</ele>
        <time>2026-06-16T08:06:59.000Z</time>
        <extensions>
          <ns3:TrackPointExtension>
            <ns3:atemp>17.0</ns3:atemp>
          </ns3:TrackPointExtension>
        </extensions>
      </trkpt>
      <trkpt lat="42.6259112544357776641845703125" lon="19.88212251104414463043212890625">
        <ele>1717.800048828125</ele>
        <time>2026-06-16T08:07:00.000Z</time>
        <extensions>
          <ns3:TrackPointExtension>
            <ns3:atemp>17.0</ns3:atemp>
          </ns3:TrackPointExtension>
        </extensions>
      </trkpt>
      <trkpt lat="42.62591804377734661102294921875" lon="19.882102310657501220703125">
        <ele>1718.199951171875</ele>
        <time>2026-06-16T08:07:01.000Z</time>
        <extensions>
          <ns3:TrackPointExtension>
            <ns3:atemp>17.0</ns3:atemp>
          </ns3:TrackPointExtension>
        </extensions>
      </trkpt>
      <trkpt lat="42.6259172894060611724853515625" lon="19.8820776678621768951416015625">
        <ele>1718.800048828125</ele>
        <time>2026-06-16T08:07:02.000Z</time>
        <extensions>
          <ns3:TrackPointExtension>
            <ns3:atemp>17.0</ns3:atemp>
          </ns3:TrackPointExtension>
        </extensions>
      </trkpt>
      <trkpt lat="42.62591536156833171844482421875" lon="19.88205336034297943115234375">
        <ele>1719.199951171875</ele>
        <time>2026-06-16T08:07:03.000Z</time>
        <extensions>
          <ns3:TrackPointExtension>
            <ns3:atemp>17.0</ns3:atemp>
          </ns3:TrackPointExtension>
        </extensions>
      </trkpt>
      <trkpt lat="42.62590966187417507171630859375" lon="19.88202578388154506683349609375">
        <ele>1719.800048828125</ele>
        <time>2026-06-16T08:07:04.000Z</time>
        <extensions>
          <ns3:TrackPointExtension>
            <ns3:atemp>17.0</ns3:atemp>
          </ns3:TrackPointExtension>
        </extensions>
      </trkpt>
      <trkpt lat="42.62589943595230579376220703125" lon="19.882003404200077056884765625">
        <ele>1720.4000244140625</ele>
        <time>2026-06-16T08:07:05.000Z</time>
        <extensions>
          <ns3:TrackPointExtension>
            <ns3:atemp>17.0</ns3:atemp>
          </ns3:TrackPointExtension>
        </extensions>
      </trkpt>
      <trkpt lat="42.625889293849468231201171875" lon="19.88198219798505306243896484375">
        <ele>1720.800048828125</ele>
        <time>2026-06-16T08:07:06.000Z</time>
        <extensions>
          <ns3:TrackPointExtension>
            <ns3:atemp>17.0</ns3:atemp>
          </ns3:TrackPointExtension>
        </extensions>
      </trkpt>
      <trkpt lat="42.62588904239237308502197265625" lon="19.88194732926785945892333984375">
        <ele>1721.4000244140625</ele>
        <time>2026-06-16T08:07:07.000Z</time>
        <extensions>
          <ns3:TrackPointExtension>
            <ns3:atemp>17.0</ns3:atemp>
          </ns3:TrackPointExtension>
        </extensions>
      </trkpt>
      <trkpt lat="42.62589172460138797760009765625" lon="19.88192721270024776458740234375">
        <ele>1721.800048828125</ele>
        <time>2026-06-16T08:07:08.000Z</time>
        <extensions>
          <ns3:TrackPointExtension>
            <ns3:atemp>17.0</ns3:atemp>
          </ns3:TrackPointExtension>
        </extensions>
      </trkpt>
      <trkpt lat="42.6258954964578151702880859375" lon="19.881903827190399169921875">
        <ele>1722.5999755859375</ele>
        <time>2026-06-16T08:07:09.000Z</time>
        <extensions>
          <ns3:TrackPointExtension>
            <ns3:atemp>17.0</ns3:atemp>
          </ns3:TrackPointExtension>
        </extensions>
      </trkpt>
      <trkpt lat="42.62589407153427600860595703125" lon="19.88187407143414020538330078125">
        <ele>1723</ele>
        <time>2026-06-16T08:07:10.000Z</time>
        <extensions>
          <ns3:TrackPointExtension>
            <ns3:atemp>17.0</ns3:atemp>
          </ns3:TrackPointExtension>
        </extensions>
      </trkpt>
      <trkpt lat="42.62589809484779834747314453125" lon="19.88184758462011814117431640625">
        <ele>1723.5999755859375</ele>
        <time>2026-06-16T08:07:11.000Z</time>
        <extensions>
          <ns3:TrackPointExtension>
            <ns3:atemp>17.0</ns3:atemp>
          </ns3:TrackPointExtension>
        </extensions>
      </trkpt>
      <trkpt lat="42.62588837184011936187744140625" lon="19.881821684539318084716796875">
        <ele>1724</ele>
        <time>2026-06-16T08:07:12.000Z</time>
        <extensions>
          <ns3:TrackPointExtension>
            <ns3:atemp>17.0</ns3:atemp>
          </ns3:TrackPointExtension>
        </extensions>
      </trkpt>
      <trkpt lat="42.62587328441441059112548828125" lon="19.88180802203714847564697265625">
        <ele>1724.5999755859375</ele>
        <time>2026-06-16T08:07:13.000Z</time>
        <extensions>
          <ns3:TrackPointExtension>
            <ns3:atemp>17.0</ns3:atemp>
          </ns3:TrackPointExtension>
        </extensions>
      </trkpt>
      <trkpt lat="42.625864483416080474853515625" lon="19.88177600316703319549560546875">
        <ele>1725.199951171875</ele>
        <time>2026-06-16T08:07:14.000Z</time>
        <extensions>
          <ns3:TrackPointExtension>
            <ns3:atemp>17.0</ns3:atemp>
          </ns3:TrackPointExtension>
        </extensions>
      </trkpt>
      <trkpt lat="42.6258576102554798126220703125" lon="19.8817511089146137237548828125">
        <ele>1725.800048828125</ele>
        <time>2026-06-16T08:07:15.000Z</time>
        <extensions>
          <ns3:TrackPointExtension>
            <ns3:atemp>17.0</ns3:atemp>
          </ns3:TrackPointExtension>
        </extensions>
      </trkpt>
      <trkpt lat="42.62584730051457881927490234375" lon="19.88172587938606739044189453125">
        <ele>1726.4000244140625</ele>
        <time>2026-06-16T08:07:16.000Z</time>
        <extensions>
          <ns3:TrackPointExtension>
            <ns3:atemp>17.0</ns3:atemp>
          </ns3:TrackPointExtension>
        </extensions>
      </trkpt>
      <trkpt lat="42.62583774514496326446533203125" lon="19.8817068524658679962158203125">
        <ele>1727</ele>
        <time>2026-06-16T08:07:17.000Z</time>
        <extensions>
          <ns3:TrackPointExtension>
            <ns3:atemp>17.0</ns3:atemp>
          </ns3:TrackPointExtension>
        </extensions>
      </trkpt>
      <trkpt lat="42.62582081370055675506591796875" lon="19.88169101066887378692626953125">
        <ele>1727.5999755859375</ele>
        <time>2026-06-16T08:07:18.000Z</time>
        <extensions>
          <ns3:TrackPointExtension>
            <ns3:atemp>17.0</ns3:atemp>
          </ns3:TrackPointExtension>
        </extensions>
      </trkpt>
      <trkpt lat="42.6258073188364505767822265625" lon="19.881674833595752716064453125">
        <ele>1728</ele>
        <time>2026-06-16T08:07:19.000Z</time>
        <extensions>
          <ns3:TrackPointExtension>
            <ns3:atemp>17.0</ns3:atemp>
          </ns3:TrackPointExtension>
        </extensions>
      </trkpt>
      <trkpt lat="42.62579415924847126007080078125" lon="19.881658740341663360595703125">
        <ele>1728.4000244140625</ele>
        <time>2026-06-16T08:07:20.000Z</time>
        <extensions>
          <ns3:TrackPointExtension>
            <ns3:atemp>17.0</ns3:atemp>
          </ns3:TrackPointExtension>
        </extensions>
      </trkpt>
      <trkpt lat="42.62578477151691913604736328125" lon="19.8816391266882419586181640625">
        <ele>1728.800048828125</ele>
        <time>2026-06-16T08:07:21.000Z</time>
        <extensions>
          <ns3:TrackPointExtension>
            <ns3:atemp>17.0</ns3:atemp>
          </ns3:TrackPointExtension>
        </extensions>
      </trkpt>
      <trkpt lat="42.6257714442908763885498046875" lon="19.8816237039864063262939453125">
        <ele>1729.4000244140625</ele>
        <time>2026-06-16T08:07:22.000Z</time>
        <extensions>
          <ns3:TrackPointExtension>
            <ns3:atemp>17.0</ns3:atemp>
          </ns3:TrackPointExtension>
        </extensions>
      </trkpt>
      <trkpt lat="42.6257633976638317108154296875" lon="19.8816039226949214935302734375">
        <ele>1729.800048828125</ele>
        <time>2026-06-16T08:07:23.000Z</time>
        <extensions>
          <ns3:TrackPointExtension>
            <ns3:atemp>17.0</ns3:atemp>
          </ns3:TrackPointExtension>
        </extensions>
      </trkpt>
      <trkpt lat="42.62574956752359867095947265625" lon="19.8815905116498470306396484375">
        <ele>1730.199951171875</ele>
        <time>2026-06-16T08:07:24.000Z</time>
        <extensions>
          <ns3:TrackPointExtension>
            <ns3:atemp>17.0</ns3:atemp>
          </ns3:TrackPointExtension>
        </extensions>
      </trkpt>
      <trkpt lat="42.625739090144634246826171875" lon="19.88158221356570720672607421875">
        <ele>1730.800048828125</ele>
        <time>2026-06-16T08:07:25.000Z</time>
        <extensions>
          <ns3:TrackPointExtension>
            <ns3:atemp>17.0</ns3:atemp>
          </ns3:TrackPointExtension>
        </extensions>
      </trkpt>
      <trkpt lat="42.62573297135531902313232421875" lon="19.881573580205440521240234375">
        <ele>1731</ele>
        <time>2026-06-16T08:07:26.000Z</time>
        <extensions>
          <ns3:TrackPointExtension>
            <ns3:atemp>17.0</ns3:atemp>
          </ns3:TrackPointExtension>
        </extensions>
      </trkpt>
      <trkpt lat="42.62571863830089569091796875" lon="19.88157215528190135955810546875">
        <ele>1731.4000244140625</ele>
        <time>2026-06-16T08:07:27.000Z</time>
        <extensions>
          <ns3:TrackPointExtension>
            <ns3:atemp>17.0</ns3:atemp>
          </ns3:TrackPointExtension>
        </extensions>
      </trkpt>
      <trkpt lat="42.62570531107485294342041015625" lon="19.88157399930059909820556640625">
        <ele>1731.800048828125</ele>
        <time>2026-06-16T08:07:28.000Z</time>
        <extensions>
          <ns3:TrackPointExtension>
            <ns3:atemp>17.0</ns3:atemp>
          </ns3:TrackPointExtension>
        </extensions>
      </trkpt>
      <trkpt lat="42.62569273822009563446044921875" lon="19.88157886080443859100341796875">
        <ele>1732.199951171875</ele>
        <time>2026-06-16T08:07:29.000Z</time>
        <extensions>
          <ns3:TrackPointExtension>
            <ns3:atemp>17.0</ns3:atemp>
          </ns3:TrackPointExtension>
        </extensions>
      </trkpt>
      <trkpt lat="42.62568083591759204864501953125" lon="19.88158003427088260650634765625">
        <ele>1732.5999755859375</ele>
        <time>2026-06-16T08:07:30.000Z</time>
        <extensions>
          <ns3:TrackPointExtension>
            <ns3:atemp>17.0</ns3:atemp>
          </ns3:TrackPointExtension>
        </extensions>
      </trkpt>
      <trkpt lat="42.62567178346216678619384765625" lon="19.88157936371862888336181640625">
        <ele>1733</ele>
        <time>2026-06-16T08:07:31.000Z</time>
        <extensions>
          <ns3:TrackPointExtension>
            <ns3:atemp>17.0</ns3:atemp>
          </ns3:TrackPointExtension>
        </extensions>
      </trkpt>
      <trkpt lat="42.62565870769321918487548828125" lon="19.8815868236124515533447265625">
        <ele>1733.4000244140625</ele>
        <time>2026-06-16T08:07:32.000Z</time>
        <extensions>
          <ns3:TrackPointExtension>
            <ns3:atemp>17.0</ns3:atemp>
          </ns3:TrackPointExtension>
        </extensions>
      </trkpt>
      <trkpt lat="42.6256480626761913299560546875" lon="19.88159059546887874603271484375">
        <ele>1734</ele>
        <time>2026-06-16T08:07:33.000Z</time>
        <extensions>
          <ns3:TrackPointExtension>
            <ns3:atemp>17.0</ns3:atemp>
          </ns3:TrackPointExtension>
        </extensions>
      </trkpt>
      <trkpt lat="42.6256339810788631439208984375" lon="19.88160467706620693206787109375">
        <ele>1734.4000244140625</ele>
        <time>2026-06-16T08:07:34.000Z</time>
        <extensions>
          <ns3:TrackPointExtension>
            <ns3:atemp>17.0</ns3:atemp>
          </ns3:TrackPointExtension>
        </extensions>
      </trkpt>
      <trkpt lat="42.62561830691993236541748046875" lon="19.881617836654186248779296875">
        <ele>1734.800048828125</ele>
        <time>2026-06-16T08:07:35.000Z</time>
        <extensions>
          <ns3:TrackPointExtension>
            <ns3:atemp>17.0</ns3:atemp>
          </ns3:TrackPointExtension>
        </extensions>
      </trkpt>
      <trkpt lat="42.625605650246143341064453125" lon="19.88162864930927753448486328125">
        <ele>1735.199951171875</ele>
        <time>2026-06-16T08:07:36.000Z</time>
        <extensions>
          <ns3:TrackPointExtension>
            <ns3:atemp>17.0</ns3:atemp>
          </ns3:TrackPointExtension>
        </extensions>
      </trkpt>
      <trkpt lat="42.62559466995298862457275390625" lon="19.88164926879107952117919921875">
        <ele>1735.5999755859375</ele>
        <time>2026-06-16T08:07:37.000Z</time>
        <extensions>
          <ns3:TrackPointExtension>
            <ns3:atemp>17.0</ns3:atemp>
          </ns3:TrackPointExtension>
        </extensions>
      </trkpt>
      <trkpt lat="42.6255820132791996002197265625" lon="19.88166770897805690765380859375">
        <ele>1736</ele>
        <time>2026-06-16T08:07:38.000Z</time>
        <extensions>
          <ns3:TrackPointExtension>
            <ns3:atemp>17.0</ns3:atemp>
          </ns3:TrackPointExtension>
        </extensions>
      </trkpt>
      <trkpt lat="42.6255682669579982757568359375" lon="19.8816820420324802398681640625">
        <ele>1736.4000244140625</ele>
        <time>2026-06-16T08:07:39.000Z</time>
        <extensions>
          <ns3:TrackPointExtension>
            <ns3:atemp>17.0</ns3:atemp>
          </ns3:TrackPointExtension>
        </extensions>
      </trkpt>
      <trkpt lat="42.62555477209389209747314453125" lon="19.8816954530775547027587890625">
        <ele>1737</ele>
        <time>2026-06-16T08:07:40.000Z</time>
        <extensions>
          <ns3:TrackPointExtension>
            <ns3:atemp>17.0</ns3:atemp>
          </ns3:TrackPointExtension>
        </extensions>
      </trkpt>
      <trkpt lat="42.625545971095561981201171875" lon="19.88171230070292949676513671875">
        <ele>1737.4000244140625</ele>
        <time>2026-06-16T08:07:41.000Z</time>
        <extensions>
          <ns3:TrackPointExtension>
            <ns3:atemp>17.0</ns3:atemp>
          </ns3:TrackPointExtension>
        </extensions>
      </trkpt>
      <trkpt lat="42.6255355775356292724609375" lon="19.8817323334515094757080078125">
        <ele>1737.800048828125</ele>
        <time>2026-06-16T08:07:42.000Z</time>
        <extensions>
          <ns3:TrackPointExtension>
            <ns3:atemp>17.0</ns3:atemp>
          </ns3:TrackPointExtension>
        </extensions>
      </trkpt>
      <trkpt lat="42.625525854527950286865234375" lon="19.8817490972578525543212890625">
        <ele>1738.199951171875</ele>
        <time>2026-06-16T08:07:43.000Z</time>
        <extensions>
          <ns3:TrackPointExtension>
            <ns3:atemp>17.0</ns3:atemp>
          </ns3:TrackPointExtension>
        </extensions>
      </trkpt>
      <trkpt lat="42.62551403604447841644287109375" lon="19.88177239894866943359375">
        <ele>1738.5999755859375</ele>
        <time>2026-06-16T08:07:44.000Z</time>
        <extensions>
          <ns3:TrackPointExtension>
            <ns3:atemp>17.0</ns3:atemp>
          </ns3:TrackPointExtension>
        </extensions>
      </trkpt>
      <trkpt lat="42.62549241073429584503173828125" lon="19.88179720938205718994140625">
        <ele>1738.5999755859375</ele>
        <time>2026-06-16T08:07:45.000Z</time>
        <extensions>
          <ns3:TrackPointExtension>
            <ns3:atemp>17.0</ns3:atemp>
          </ns3:TrackPointExtension>
        </extensions>
      </trkpt>
      <trkpt lat="42.6254713721573352813720703125" lon="19.88181841559708118438720703125">
        <ele>1738.800048828125</ele>
        <time>2026-06-16T08:07:46.000Z</time>
        <extensions>
          <ns3:TrackPointExtension>
            <ns3:atemp>17.0</ns3:atemp>
          </ns3:TrackPointExtension>
        </extensions>
      </trkpt>
      <trkpt lat="42.6254495792090892791748046875" lon="19.88183752633631229400634765625">
        <ele>1739</ele>
        <time>2026-06-16T08:07:47.000Z</time>
        <extensions>
          <ns3:TrackPointExtension>
            <ns3:atemp>17.0</ns3:atemp>
          </ns3:TrackPointExtension>
        </extensions>
      </trkpt>
      <trkpt lat="42.62542895972728729248046875" lon="19.88185160793364048004150390625">
        <ele>1739.199951171875</ele>
        <time>2026-06-16T08:07:48.000Z</time>
        <extensions>
          <ns3:TrackPointExtension>
            <ns3:atemp>17.0</ns3:atemp>
          </ns3:TrackPointExtension>
        </extensions>
      </trkpt>
      <trkpt lat="42.62540691532194614410400390625" lon="19.88186166621744632720947265625">
        <ele>1739.199951171875</ele>
        <time>2026-06-16T08:07:49.000Z</time>
        <extensions>
          <ns3:TrackPointExtension>
            <ns3:atemp>17.0</ns3:atemp>
          </ns3:TrackPointExtension>
        </extensions>
      </trkpt>
      <trkpt lat="42.6253855414688587188720703125" lon="19.8818697966635227203369140625">
        <ele>1739.4000244140625</ele>
        <time>2026-06-16T08:07:50.000Z</time>
        <extensions>
          <ns3:TrackPointExtension>
            <ns3:atemp>17.0</ns3:atemp>
          </ns3:TrackPointExtension>
        </extensions>
      </trkpt>
      <trkpt lat="42.62536349706351757049560546875" lon="19.8818775080144405364990234375">
        <ele>1739.4000244140625</ele>
        <time>2026-06-16T08:07:51.000Z</time>
        <extensions>
          <ns3:TrackPointExtension>
            <ns3:atemp>17.0</ns3:atemp>
          </ns3:TrackPointExtension>
        </extensions>
      </trkpt>
      <trkpt lat="42.62534455396234989166259765625" lon="19.88189041614532470703125">
        <ele>1739.5999755859375</ele>
        <time>2026-06-16T08:07:52.000Z</time>
        <extensions>
          <ns3:TrackPointExtension>
            <ns3:atemp>17.0</ns3:atemp>
          </ns3:TrackPointExtension>
        </extensions>
      </trkpt>
      <trkpt lat="42.62533105909824371337890625" lon="19.8818989656865596771240234375">
        <ele>1739.5999755859375</ele>
        <time>2026-06-16T08:07:53.000Z</time>
        <extensions>
          <ns3:TrackPointExtension>
            <ns3:atemp>17.0</ns3:atemp>
          </ns3:TrackPointExtension>
        </extensions>
      </trkpt>
      <trkpt lat="42.62531764805316925048828125" lon="19.8819066770374774932861328125">
        <ele>1739.800048828125</ele>
        <time>2026-06-16T08:07:54.000Z</time>
        <extensions>
          <ns3:TrackPointExtension>
            <ns3:atemp>17.0</ns3:atemp>
          </ns3:TrackPointExtension>
        </extensions>
      </trkpt>
      <trkpt lat="42.62530415318906307220458984375" lon="19.8819137178361415863037109375">
        <ele>1740</ele>
        <time>2026-06-16T08:07:55.000Z</time>
        <extensions>
          <ns3:TrackPointExtension>
            <ns3:atemp>17.0</ns3:atemp>
          </ns3:TrackPointExtension>
        </extensions>
      </trkpt>
      <trkpt lat="42.625290490686893463134765625" lon="19.88191681914031505584716796875">
        <ele>1740.199951171875</ele>
        <time>2026-06-16T08:07:56.000Z</time>
        <extensions>
          <ns3:TrackPointExtension>
            <ns3:atemp>17.0</ns3:atemp>
          </ns3:TrackPointExtension>
        </extensions>
      </trkpt>
      <trkpt lat="42.62527548708021640777587890625" lon="19.88191145472228527069091796875">
        <ele>1740.4000244140625</ele>
        <time>2026-06-16T08:07:57.000Z</time>
        <extensions>
          <ns3:TrackPointExtension>
            <ns3:atemp>17.0</ns3:atemp>
          </ns3:TrackPointExtension>
        </extensions>
      </trkpt>
      <trkpt lat="42.625258974730968475341796875" lon="19.8819053359329700469970703125">
        <ele>1740.4000244140625</ele>
        <time>2026-06-16T08:07:58.000Z</time>
        <extensions>
          <ns3:TrackPointExtension>
            <ns3:atemp>17.0</ns3:atemp>
          </ns3:TrackPointExtension>
        </extensions>
      </trkpt>
      <trkpt lat="42.62524061836302280426025390625" lon="19.88189703784883022308349609375">
        <ele>1740.4000244140625</ele>
        <time>2026-06-16T08:07:59.000Z</time>
        <extensions>
          <ns3:TrackPointExtension>
            <ns3:atemp>17.0</ns3:atemp>
          </ns3:TrackPointExtension>
        </extensions>
      </trkpt>
      <trkpt lat="42.62521949596703052520751953125" lon="19.8818822018802165985107421875">
        <ele>1740.4000244140625</ele>
        <time>2026-06-16T08:08:00.000Z</time>
        <extensions>
          <ns3:TrackPointExtension>
            <ns3:atemp>17.0</ns3:atemp>
          </ns3:TrackPointExtension>
        </extensions>
      </trkpt>
      <trkpt lat="42.6251967810094356536865234375" lon="19.881869964301586151123046875">
        <ele>1740.4000244140625</ele>
        <time>2026-06-16T08:08:01.000Z</time>
        <extensions>
          <ns3:TrackPointExtension>
            <ns3:atemp>17.0</ns3:atemp>
          </ns3:TrackPointExtension>
        </extensions>
      </trkpt>
      <trkpt lat="42.62517423368990421295166015625" lon="19.88185085356235504150390625">
        <ele>1740.4000244140625</ele>
        <time>2026-06-16T08:08:02.000Z</time>
        <extensions>
          <ns3:TrackPointExtension>
            <ns3:atemp>17.0</ns3:atemp>
          </ns3:TrackPointExtension>
        </extensions>
      </trkpt>
      <trkpt lat="42.625153362751007080078125" lon="19.88182797096669673919677734375">
        <ele>1740.199951171875</ele>
        <time>2026-06-16T08:08:03.000Z</time>
        <extensions>
          <ns3:TrackPointExtension>
            <ns3:atemp>17.0</ns3:atemp>
          </ns3:TrackPointExtension>
        </extensions>
      </trkpt>
      <trkpt lat="42.625134922564029693603515625" lon="19.88179679028689861297607421875">
        <ele>1740</ele>
        <time>2026-06-16T08:08:04.000Z</time>
        <extensions>
          <ns3:TrackPointExtension>
            <ns3:atemp>17.0</ns3:atemp>
          </ns3:TrackPointExtension>
        </extensions>
      </trkpt>
      <trkpt lat="42.62511941604316234588623046875" lon="19.881769381463527679443359375">
        <ele>1739.800048828125</ele>
        <time>2026-06-16T08:08:05.000Z</time>
        <extensions>
          <ns3:TrackPointExtension>
            <ns3:atemp>17.0</ns3:atemp>
          </ns3:TrackPointExtension>
        </extensions>
      </trkpt>
      <trkpt lat="42.6251091063022613525390625" lon="19.88174733705818653106689453125">
        <ele>1739.5999755859375</ele>
        <time>2026-06-16T08:08:06.000Z</time>
        <extensions>
          <ns3:TrackPointExtension>
            <ns3:atemp>17.0</ns3:atemp>
          </ns3:TrackPointExtension>
        </extensions>
      </trkpt>
      <trkpt lat="42.62510080821812152862548828125" lon="19.881726466119289398193359375">
        <ele>1739.5999755859375</ele>
        <time>2026-06-16T08:08:07.000Z</time>
        <extensions>
          <ns3:TrackPointExtension>
            <ns3:atemp>17.0</ns3:atemp>
          </ns3:TrackPointExtension>
        </extensions>
      </trkpt>
      <trkpt lat="42.62509125284850597381591796875" lon="19.8817078582942485809326171875">
        <ele>1739.4000244140625</ele>
        <time>2026-06-16T08:08:08.000Z</time>
        <extensions>
          <ns3:TrackPointExtension>
            <ns3:atemp>17.0</ns3:atemp>
          </ns3:TrackPointExtension>
        </extensions>
      </trkpt>
      <trkpt lat="42.62507893145084381103515625" lon="19.88168564625084400177001953125">
        <ele>1739.4000244140625</ele>
        <time>2026-06-16T08:08:09.000Z</time>
        <extensions>
          <ns3:TrackPointExtension>
            <ns3:atemp>17.0</ns3:atemp>
          </ns3:TrackPointExtension>
        </extensions>
      </trkpt>
      <trkpt lat="42.62506124563515186309814453125" lon="19.88166578114032745361328125">
        <ele>1739.4000244140625</ele>
        <time>2026-06-16T08:08:10.000Z</time>
        <extensions>
          <ns3:TrackPointExtension>
            <ns3:atemp>17.0</ns3:atemp>
          </ns3:TrackPointExtension>
        </extensions>
      </trkpt>
      <trkpt lat="42.6250465773046016693115234375" lon="19.881644658744335174560546875">
        <ele>1739.199951171875</ele>
        <time>2026-06-16T08:08:11.000Z</time>
        <extensions>
          <ns3:TrackPointExtension>
            <ns3:atemp>17.0</ns3:atemp>
          </ns3:TrackPointExtension>
        </extensions>
      </trkpt>
      <trkpt lat="42.625037692487239837646484375" lon="19.88162127323448657989501953125">
        <ele>1739.199951171875</ele>
        <time>2026-06-16T08:08:12.000Z</time>
        <extensions>
          <ns3:TrackPointExtension>
            <ns3:atemp>17.0</ns3:atemp>
          </ns3:TrackPointExtension>
        </extensions>
      </trkpt>
      <trkpt lat="42.625031657516956329345703125" lon="19.88159679807722568511962890625">
        <ele>1739.199951171875</ele>
        <time>2026-06-16T08:08:13.000Z</time>
        <extensions>
          <ns3:TrackPointExtension>
            <ns3:atemp>17.0</ns3:atemp>
          </ns3:TrackPointExtension>
        </extensions>
      </trkpt>
      <trkpt lat="42.62502528727054595947265625" lon="19.881571233272552490234375">
        <ele>1739.199951171875</ele>
        <time>2026-06-16T08:08:14.000Z</time>
        <extensions>
          <ns3:TrackPointExtension>
            <ns3:atemp>17.0</ns3:atemp>
          </ns3:TrackPointExtension>
        </extensions>
      </trkpt>
      <trkpt lat="42.62501765973865985870361328125" lon="19.88154902122914791107177734375">
        <ele>1739.199951171875</ele>
        <time>2026-06-16T08:08:15.000Z</time>
        <extensions>
          <ns3:TrackPointExtension>
            <ns3:atemp>17.0</ns3:atemp>
          </ns3:TrackPointExtension>
        </extensions>
      </trkpt>
      <trkpt lat="42.62501112185418605804443359375" lon="19.8815284855663776397705078125">
        <ele>1739.199951171875</ele>
        <time>2026-06-16T08:08:16.000Z</time>
        <extensions>
          <ns3:TrackPointExtension>
            <ns3:atemp>17.0</ns3:atemp>
          </ns3:TrackPointExtension>
        </extensions>
      </trkpt>
      <trkpt lat="42.625000141561031341552734375" lon="19.88149546086788177490234375">
        <ele>1739</ele>
        <time>2026-06-16T08:08:17.000Z</time>
        <extensions>
          <ns3:TrackPointExtension>
            <ns3:atemp>17.0</ns3:atemp>
          </ns3:TrackPointExtension>
        </extensions>
      </trkpt>
      <trkpt lat="42.62498949654400348663330078125" lon="19.88145581446588039398193359375">
        <ele>1738.800048828125</ele>
        <time>2026-06-16T08:08:18.000Z</time>
        <extensions>
          <ns3:TrackPointExtension>
            <ns3:atemp>17.0</ns3:atemp>
          </ns3:TrackPointExtension>
        </extensions>
      </trkpt>
      <trkpt lat="42.62497860006988048553466796875" lon="19.88141306675970554351806640625">
        <ele>1738.800048828125</ele>
        <time>2026-06-16T08:08:19.000Z</time>
        <extensions>
          <ns3:TrackPointExtension>
            <ns3:atemp>17.0</ns3:atemp>
          </ns3:TrackPointExtension>
        </extensions>
      </trkpt>
      <trkpt lat="42.62496854178607463836669921875" lon="19.881383813917636871337890625">
        <ele>1738.5999755859375</ele>
        <time>2026-06-16T08:08:20.000Z</time>
        <extensions>
          <ns3:TrackPointExtension>
            <ns3:atemp>17.0</ns3:atemp>
          </ns3:TrackPointExtension>
        </extensions>
      </trkpt>
      <trkpt lat="42.6249627582728862762451171875" lon="19.8813554830849170684814453125">
        <ele>1738.800048828125</ele>
        <time>2026-06-16T08:08:21.000Z</time>
        <extensions>
          <ns3:TrackPointExtension>
            <ns3:atemp>17.0</ns3:atemp>
          </ns3:TrackPointExtension>
        </extensions>
      </trkpt>
      <trkpt lat="42.62495580129325389862060546875" lon="19.88133964128792285919189453125">
        <ele>1738.800048828125</ele>
        <time>2026-06-16T08:08:22.000Z</time>
        <extensions>
          <ns3:TrackPointExtension>
            <ns3:atemp>17.0</ns3:atemp>
          </ns3:TrackPointExtension>
        </extensions>
      </trkpt>
      <trkpt lat="42.62494708411395549774169921875" lon="19.88131717778742313385009765625">
        <ele>1739.199951171875</ele>
        <time>2026-06-16T08:08:23.000Z</time>
        <extensions>
          <ns3:TrackPointExtension>
            <ns3:atemp>17.0</ns3:atemp>
          </ns3:TrackPointExtension>
        </extensions>
      </trkpt>
      <trkpt lat="42.62493811547756195068359375" lon="19.88129689358174800872802734375">
        <ele>1739.4000244140625</ele>
        <time>2026-06-16T08:08:24.000Z</time>
        <extensions>
          <ns3:TrackPointExtension>
            <ns3:atemp>17.0</ns3:atemp>
          </ns3:TrackPointExtension>
        </extensions>
      </trkpt>
      <trkpt lat="42.62493132613599300384521484375" lon="19.88127292133867740631103515625">
        <ele>1739.5999755859375</ele>
        <time>2026-06-16T08:08:25.000Z</time>
        <extensions>
          <ns3:TrackPointExtension>
            <ns3:atemp>17.0</ns3:atemp>
          </ns3:TrackPointExtension>
        </extensions>
      </trkpt>
      <trkpt lat="42.624931074678897857666015625" lon="19.88125347532331943511962890625">
        <ele>1739.800048828125</ele>
        <time>2026-06-16T08:08:26.000Z</time>
        <extensions>
          <ns3:TrackPointExtension>
            <ns3:atemp>17.0</ns3:atemp>
          </ns3:TrackPointExtension>
        </extensions>
      </trkpt>
      <trkpt lat="42.62493350543081760406494140625" lon="19.88123687915503978729248046875">
        <ele>1740</ele>
        <time>2026-06-16T08:08:27.000Z</time>
        <extensions>
          <ns3:TrackPointExtension>
            <ns3:atemp>17.0</ns3:atemp>
          </ns3:TrackPointExtension>
        </extensions>
      </trkpt>
      <trkpt lat="42.6249322481453418731689453125" lon="19.88121123053133487701416015625">
        <ele>1740.199951171875</ele>
        <time>2026-06-16T08:08:28.000Z</time>
        <extensions>
          <ns3:TrackPointExtension>
            <ns3:atemp>17.0</ns3:atemp>
          </ns3:TrackPointExtension>
        </extensions>
      </trkpt>
      <trkpt lat="42.62493467889726161956787109375" lon="19.8811797983944416046142578125">
        <ele>1740.5999755859375</ele>
        <time>2026-06-16T08:08:29.000Z</time>
        <extensions>
          <ns3:TrackPointExtension>
            <ns3:atemp>17.0</ns3:atemp>
          </ns3:TrackPointExtension>
        </extensions>
      </trkpt>
      <trkpt lat="42.62493769638240337371826171875" lon="19.88114945590496063232421875">
        <ele>1741</ele>
        <time>2026-06-16T08:08:30.000Z</time>
        <extensions>
          <ns3:TrackPointExtension>
            <ns3:atemp>17.0</ns3:atemp>
          </ns3:TrackPointExtension>
        </extensions>
      </trkpt>
      <trkpt lat="42.62494389899075031280517578125" lon="19.88111752085387706756591796875">
        <ele>1741.4000244140625</ele>
        <time>2026-06-16T08:08:31.000Z</time>
        <extensions>
          <ns3:TrackPointExtension>
            <ns3:atemp>17.0</ns3:atemp>
          </ns3:TrackPointExtension>
        </extensions>
      </trkpt>
      <trkpt lat="42.6249466650187969207763671875" lon="19.8810862563550472259521484375">
        <ele>1742</ele>
        <time>2026-06-16T08:08:32.000Z</time>
        <extensions>
          <ns3:TrackPointExtension>
            <ns3:atemp>17.0</ns3:atemp>
          </ns3:TrackPointExtension>
        </extensions>
      </trkpt>
      <trkpt lat="42.62495127506554126739501953125" lon="19.8810589313507080078125">
        <ele>1742.4000244140625</ele>
        <time>2026-06-16T08:08:33.000Z</time>
        <extensions>
          <ns3:TrackPointExtension>
            <ns3:atemp>17.0</ns3:atemp>
          </ns3:TrackPointExtension>
        </extensions>
      </trkpt>
      <trkpt lat="42.624953202903270721435546875" lon="19.88102900795638561248779296875">
        <ele>1742.800048828125</ele>
        <time>2026-06-16T08:08:34.000Z</time>
        <extensions>
          <ns3:TrackPointExtension>
            <ns3:atemp>17.0</ns3:atemp>
          </ns3:TrackPointExtension>
        </extensions>
      </trkpt>
      <trkpt lat="42.6249481737613677978515625" lon="19.88099564798176288604736328125">
        <ele>1743</ele>
        <time>2026-06-16T08:08:35.000Z</time>
        <extensions>
          <ns3:TrackPointExtension>
            <ns3:atemp>17.0</ns3:atemp>
          </ns3:TrackPointExtension>
        </extensions>
      </trkpt>
      <trkpt lat="42.62493635527789592742919921875" lon="19.88097217865288257598876953125">
        <ele>1743.199951171875</ele>
        <time>2026-06-16T08:08:36.000Z</time>
        <extensions>
          <ns3:TrackPointExtension>
            <ns3:atemp>17.0</ns3:atemp>
          </ns3:TrackPointExtension>
        </extensions>
      </trkpt>
      <trkpt lat="42.62492068111896514892578125" lon="19.88095826469361782073974609375">
        <ele>1743.5999755859375</ele>
        <time>2026-06-16T08:08:37.000Z</time>
        <extensions>
          <ns3:TrackPointExtension>
            <ns3:atemp>17.0</ns3:atemp>
          </ns3:TrackPointExtension>
        </extensions>
      </trkpt>
      <trkpt lat="42.6249050907790660858154296875" lon="19.880949296057224273681640625">
        <ele>1743.800048828125</ele>
        <time>2026-06-16T08:08:38.000Z</time>
        <extensions>
          <ns3:TrackPointExtension>
            <ns3:atemp>17.0</ns3:atemp>
          </ns3:TrackPointExtension>
        </extensions>
      </trkpt>
      <trkpt lat="42.6248918473720550537109375" lon="19.88094292581081390380859375">
        <ele>1744.199951171875</ele>
        <time>2026-06-16T08:08:39.000Z</time>
        <extensions>
          <ns3:TrackPointExtension>
            <ns3:atemp>17.0</ns3:atemp>
          </ns3:TrackPointExtension>
        </extensions>
      </trkpt>
      <trkpt lat="42.62488136999309062957763671875" lon="19.880927838385105133056640625">
        <ele>1744.5999755859375</ele>
        <time>2026-06-16T08:08:40.000Z</time>
        <extensions>
          <ns3:TrackPointExtension>
            <ns3:atemp>17.0</ns3:atemp>
          </ns3:TrackPointExtension>
        </extensions>
      </trkpt>
      <trkpt lat="42.62487298808991909027099609375" lon="19.88091032020747661590576171875">
        <ele>1744.800048828125</ele>
        <time>2026-06-16T08:08:41.000Z</time>
        <extensions>
          <ns3:TrackPointExtension>
            <ns3:atemp>17.0</ns3:atemp>
          </ns3:TrackPointExtension>
        </extensions>
      </trkpt>
      <trkpt lat="42.62487080879509449005126953125" lon="19.88088525831699371337890625">
        <ele>1745.199951171875</ele>
        <time>2026-06-16T08:08:42.000Z</time>
        <extensions>
          <ns3:TrackPointExtension>
            <ns3:atemp>17.0</ns3:atemp>
          </ns3:TrackPointExtension>
        </extensions>
      </trkpt>
      <trkpt lat="42.6248661987483501434326171875" lon="19.88086086697876453399658203125">
        <ele>1745.199951171875</ele>
        <time>2026-06-16T08:08:43.000Z</time>
        <extensions>
          <ns3:TrackPointExtension>
            <ns3:atemp>17.0</ns3:atemp>
          </ns3:TrackPointExtension>
        </extensions>
      </trkpt>
      <trkpt lat="42.624863684177398681640625" lon="19.88083471544086933135986328125">
        <ele>1745.4000244140625</ele>
        <time>2026-06-16T08:08:44.000Z</time>
        <extensions>
          <ns3:TrackPointExtension>
            <ns3:atemp>17.0</ns3:atemp>
          </ns3:TrackPointExtension>
        </extensions>
      </trkpt>
      <trkpt lat="42.6248604990541934967041015625" lon="19.88081359304487705230712890625">
        <ele>1745.5999755859375</ele>
        <time>2026-06-16T08:08:45.000Z</time>
        <extensions>
          <ns3:TrackPointExtension>
            <ns3:atemp>17.0</ns3:atemp>
          </ns3:TrackPointExtension>
        </extensions>
      </trkpt>
      <trkpt lat="42.62485773302614688873291015625" lon="19.88078911788761615753173828125">
        <ele>1745.5999755859375</ele>
        <time>2026-06-16T08:08:46.000Z</time>
        <extensions>
          <ns3:TrackPointExtension>
            <ns3:atemp>17.0</ns3:atemp>
          </ns3:TrackPointExtension>
        </extensions>
      </trkpt>
      <trkpt lat="42.62485605664551258087158203125" lon="19.88076682202517986297607421875">
        <ele>1745.5999755859375</ele>
        <time>2026-06-16T08:08:47.000Z</time>
        <extensions>
          <ns3:TrackPointExtension>
            <ns3:atemp>17.0</ns3:atemp>
          </ns3:TrackPointExtension>
        </extensions>
      </trkpt>
      <trkpt lat="42.62485228478908538818359375" lon="19.88074385561048984527587890625">
        <ele>1745.5999755859375</ele>
        <time>2026-06-16T08:08:48.000Z</time>
        <extensions>
          <ns3:TrackPointExtension>
            <ns3:atemp>17.0</ns3:atemp>
          </ns3:TrackPointExtension>
        </extensions>
      </trkpt>
      <trkpt lat="42.6248504407703876495361328125" lon="19.88072005100548267364501953125">
        <ele>1745.5999755859375</ele>
        <time>2026-06-16T08:08:49.000Z</time>
        <extensions>
          <ns3:TrackPointExtension>
            <ns3:atemp>17.0</ns3:atemp>
          </ns3:TrackPointExtension>
        </extensions>
      </trkpt>
      <trkpt lat="42.624848596751689910888671875" lon="19.88069951534271240234375">
        <ele>1745.5999755859375</ele>
        <time>2026-06-16T08:08:50.000Z</time>
        <extensions>
          <ns3:TrackPointExtension>
            <ns3:atemp>17.0</ns3:atemp>
          </ns3:TrackPointExtension>
        </extensions>
      </trkpt>
      <trkpt lat="42.6248487643897533416748046875" lon="19.8806835897266864776611328125">
        <ele>1745.5999755859375</ele>
        <time>2026-06-16T08:08:51.000Z</time>
        <extensions>
          <ns3:TrackPointExtension>
            <ns3:atemp>17.0</ns3:atemp>
          </ns3:TrackPointExtension>
        </extensions>
      </trkpt>
      <trkpt lat="42.6248531229794025421142578125" lon="19.88066825084388256072998046875">
        <ele>1745.5999755859375</ele>
        <time>2026-06-16T08:08:52.000Z</time>
        <extensions>
          <ns3:TrackPointExtension>
            <ns3:atemp>17.0</ns3:atemp>
          </ns3:TrackPointExtension>
        </extensions>
      </trkpt>
      <trkpt lat="42.6248598285019397735595703125" lon="19.8806503973901271820068359375">
        <ele>1745.800048828125</ele>
        <time>2026-06-16T08:08:53.000Z</time>
        <extensions>
          <ns3:TrackPointExtension>
            <ns3:atemp>17.0</ns3:atemp>
          </ns3:TrackPointExtension>
        </extensions>
      </trkpt>
      <trkpt lat="42.62486862950026988983154296875" lon="19.88062885589897632598876953125">
        <ele>1746</ele>
        <time>2026-06-16T08:08:54.000Z</time>
        <extensions>
          <ns3:TrackPointExtension>
            <ns3:atemp>17.0</ns3:atemp>
          </ns3:TrackPointExtension>
        </extensions>
      </trkpt>
      <trkpt lat="42.62487902306020259857177734375" lon="19.88061075098812580108642578125">
        <ele>1746</ele>
        <time>2026-06-16T08:08:55.000Z</time>
        <extensions>
          <ns3:TrackPointExtension>
            <ns3:atemp>17.0</ns3:atemp>
          </ns3:TrackPointExtension>
        </extensions>
      </trkpt>
      <trkpt lat="42.62488774023950099945068359375" lon="19.880587197840213775634765625">
        <ele>1746</ele>
        <time>2026-06-16T08:08:56.000Z</time>
        <extensions>
          <ns3:TrackPointExtension>
            <ns3:atemp>17.0</ns3:atemp>
          </ns3:TrackPointExtension>
        </extensions>
      </trkpt>
      <trkpt lat="42.624892853200435638427734375" lon="19.8805640637874603271484375">
        <ele>1746</ele>
        <time>2026-06-16T08:08:57.000Z</time>
        <extensions>
          <ns3:TrackPointExtension>
            <ns3:atemp>17.0</ns3:atemp>
          </ns3:TrackPointExtension>
        </extensions>
      </trkpt>
      <trkpt lat="42.6249044202268123626708984375" lon="19.88052718341350555419921875">
        <ele>1745.800048828125</ele>
        <time>2026-06-16T08:08:58.000Z</time>
        <extensions>
          <ns3:TrackPointExtension>
            <ns3:atemp>17.0</ns3:atemp>
          </ns3:TrackPointExtension>
        </extensions>
      </trkpt>
      <trkpt lat="42.62491623871028423309326171875" lon="19.88049005158245563507080078125">
        <ele>1745.4000244140625</ele>
        <time>2026-06-16T08:08:59.000Z</time>
        <extensions>
          <ns3:TrackPointExtension>
            <ns3:atemp>17.0</ns3:atemp>
          </ns3:TrackPointExtension>
        </extensions>
      </trkpt>
      <trkpt lat="42.6249293982982635498046875" lon="19.88045853562653064727783203125">
        <ele>1745</ele>
        <time>2026-06-16T08:09:00.000Z</time>
        <extensions>
          <ns3:TrackPointExtension>
            <ns3:atemp>17.0</ns3:atemp>
          </ns3:TrackPointExtension>
        </extensions>
      </trkpt>
      <trkpt lat="42.62494741939008235931396484375" lon="19.8804334737360477447509765625">
        <ele>1744.800048828125</ele>
        <time>2026-06-16T08:09:01.000Z</time>
        <extensions>
          <ns3:TrackPointExtension>
            <ns3:atemp>17.0</ns3:atemp>
          </ns3:TrackPointExtension>
        </extensions>
      </trkpt>
      <trkpt lat="42.62495764531195163726806640625" lon="19.88040941767394542694091796875">
        <ele>1744.4000244140625</ele>
        <time>2026-06-16T08:09:02.000Z</time>
        <extensions>
          <ns3:TrackPointExtension>
            <ns3:atemp>17.0</ns3:atemp>
          </ns3:TrackPointExtension>
        </extensions>
      </trkpt>
      <trkpt lat="42.62496284209191799163818359375" lon="19.88039030693471431732177734375">
        <ele>1744</ele>
        <time>2026-06-16T08:09:03.000Z</time>
        <extensions>
          <ns3:TrackPointExtension>
            <ns3:atemp>17.0</ns3:atemp>
          </ns3:TrackPointExtension>
        </extensions>
      </trkpt>
      <trkpt lat="42.62496602721512317657470703125" lon="19.88037069328129291534423828125">
        <ele>1743.800048828125</ele>
        <time>2026-06-16T08:09:04.000Z</time>
        <extensions>
          <ns3:TrackPointExtension>
            <ns3:atemp>17.0</ns3:atemp>
          </ns3:TrackPointExtension>
        </extensions>
      </trkpt>
      <trkpt lat="42.6249654404819011688232421875" lon="19.8803379200398921966552734375">
        <ele>1743.199951171875</ele>
        <time>2026-06-16T08:09:05.000Z</time>
        <extensions>
          <ns3:TrackPointExtension>
            <ns3:atemp>17.0</ns3:atemp>
          </ns3:TrackPointExtension>
        </extensions>
      </trkpt>
      <trkpt lat="42.6249657757580280303955078125" lon="19.88031134940683841705322265625">
        <ele>1743</ele>
        <time>2026-06-16T08:09:06.000Z</time>
        <extensions>
          <ns3:TrackPointExtension>
            <ns3:atemp>17.0</ns3:atemp>
          </ns3:TrackPointExtension>
        </extensions>
      </trkpt>
      <trkpt lat="42.62497021816670894622802734375" lon="19.880290813744068145751953125">
        <ele>1742.5999755859375</ele>
        <time>2026-06-16T08:09:07.000Z</time>
        <extensions>
          <ns3:TrackPointExtension>
            <ns3:atemp>17.0</ns3:atemp>
          </ns3:TrackPointExtension>
        </extensions>
      </trkpt>
      <trkpt lat="42.62496988289058208465576171875" lon="19.88027430139482021331787109375">
        <ele>1742.199951171875</ele>
        <time>2026-06-16T08:09:08.000Z</time>
        <extensions>
          <ns3:TrackPointExtension>
            <ns3:atemp>17.0</ns3:atemp>
          </ns3:TrackPointExtension>
        </extensions>
      </trkpt>
      <trkpt lat="42.62497021816670894622802734375" lon="19.88027379848062992095947265625">
        <ele>1742</ele>
        <time>2026-06-16T08:09:09.000Z</time>
        <extensions>
          <ns3:TrackPointExtension>
            <ns3:atemp>17.0</ns3:atemp>
          </ns3:TrackPointExtension>
        </extensions>
      </trkpt>
      <trkpt lat="42.62497943826019763946533203125" lon="19.88025225698947906494140625">
        <ele>1741.800048828125</ele>
        <time>2026-06-16T08:09:10.000Z</time>
        <extensions>
          <ns3:TrackPointExtension>
            <ns3:atemp>17.0</ns3:atemp>
          </ns3:TrackPointExtension>
        </extensions>
      </trkpt>
      <trkpt lat="42.6249848864972591400146484375" lon="19.88024580292403697967529296875">
        <ele>1741.5999755859375</ele>
        <time>2026-06-16T08:09:11.000Z</time>
        <extensions>
          <ns3:TrackPointExtension>
            <ns3:atemp>17.0</ns3:atemp>
          </ns3:TrackPointExtension>
        </extensions>
      </trkpt>
      <trkpt lat="42.62498513795435428619384765625" lon="19.88024597056210041046142578125">
        <ele>1741.4000244140625</ele>
        <time>2026-06-16T08:09:12.000Z</time>
        <extensions>
          <ns3:TrackPointExtension>
            <ns3:atemp>17.0</ns3:atemp>
          </ns3:TrackPointExtension>
        </extensions>
      </trkpt>
      <trkpt lat="42.6249875687062740325927734375" lon="19.8802527599036693572998046875">
        <ele>1741.4000244140625</ele>
        <time>2026-06-16T08:09:13.000Z</time>
        <extensions>
          <ns3:TrackPointExtension>
            <ns3:atemp>17.0</ns3:atemp>
          </ns3:TrackPointExtension>
        </extensions>
      </trkpt>
      <trkpt lat="42.6249848864972591400146484375" lon="19.88024580292403697967529296875">
        <ele>1741.4000244140625</ele>
        <time>2026-06-16T08:09:14.000Z</time>
        <extensions>
          <ns3:TrackPointExtension>
            <ns3:atemp>17.0</ns3:atemp>
          </ns3:TrackPointExtension>
        </extensions>
      </trkpt>
      <trkpt lat="42.6249848864972591400146484375" lon="19.88024580292403697967529296875">
        <ele>1741.4000244140625</ele>
        <time>2026-06-16T08:09:15.000Z</time>
        <extensions>
          <ns3:TrackPointExtension>
            <ns3:atemp>17.0</ns3:atemp>
          </ns3:TrackPointExtension>
        </extensions>
      </trkpt>
      <trkpt lat="42.6249848864972591400146484375" lon="19.88024580292403697967529296875">
        <ele>1741.4000244140625</ele>
        <time>2026-06-16T08:09:16.000Z</time>
        <extensions>
          <ns3:TrackPointExtension>
            <ns3:atemp>17.0</ns3:atemp>
          </ns3:TrackPointExtension>
        </extensions>
      </trkpt>
      <trkpt lat="42.6249848864972591400146484375" lon="19.88024580292403697967529296875">
        <ele>1741.4000244140625</ele>
        <time>2026-06-16T08:09:17.000Z</time>
        <extensions>
          <ns3:TrackPointExtension>
            <ns3:atemp>17.0</ns3:atemp>
          </ns3:TrackPointExtension>
        </extensions>
      </trkpt>
      <trkpt lat="42.6249848864972591400146484375" lon="19.88024580292403697967529296875">
        <ele>1741.4000244140625</ele>
        <time>2026-06-16T08:09:18.000Z</time>
        <extensions>
          <ns3:TrackPointExtension>
            <ns3:atemp>17.0</ns3:atemp>
          </ns3:TrackPointExtension>
        </extensions>
      </trkpt>
      <trkpt lat="42.6249848864972591400146484375" lon="19.88024580292403697967529296875">
        <ele>1741.4000244140625</ele>
        <time>2026-06-16T08:09:19.000Z</time>
        <extensions>
          <ns3:TrackPointExtension>
            <ns3:atemp>17.0</ns3:atemp>
          </ns3:TrackPointExtension>
        </extensions>
      </trkpt>
      <trkpt lat="42.6249848864972591400146484375" lon="19.88024580292403697967529296875">
        <ele>1741.4000244140625</ele>
        <time>2026-06-16T08:09:20.000Z</time>
        <extensions>
          <ns3:TrackPointExtension>
            <ns3:atemp>17.0</ns3:atemp>
          </ns3:TrackPointExtension>
        </extensions>
      </trkpt>
      <trkpt lat="42.6249848864972591400146484375" lon="19.88024580292403697967529296875">
        <ele>1741.4000244140625</ele>
        <time>2026-06-16T08:09:21.000Z</time>
        <extensions>
          <ns3:TrackPointExtension>
            <ns3:atemp>17.0</ns3:atemp>
          </ns3:TrackPointExtension>
        </extensions>
      </trkpt>
      <trkpt lat="42.6249848864972591400146484375" lon="19.88024580292403697967529296875">
        <ele>1741.4000244140625</ele>
        <time>2026-06-16T08:09:22.000Z</time>
        <extensions>
          <ns3:TrackPointExtension>
            <ns3:atemp>17.0</ns3:atemp>
          </ns3:TrackPointExtension>
        </extensions>
      </trkpt>
      <trkpt lat="42.6249848864972591400146484375" lon="19.88024580292403697967529296875">
        <ele>1741.4000244140625</ele>
        <time>2026-06-16T08:09:23.000Z</time>
        <extensions>
          <ns3:TrackPointExtension>
            <ns3:atemp>17.0</ns3:atemp>
          </ns3:TrackPointExtension>
        </extensions>
      </trkpt>
      <trkpt lat="42.6249848864972591400146484375" lon="19.88024580292403697967529296875">
        <ele>1741.4000244140625</ele>
        <time>2026-06-16T08:09:24.000Z</time>
        <extensions>
          <ns3:TrackPointExtension>
            <ns3:atemp>17.0</ns3:atemp>
          </ns3:TrackPointExtension>
        </extensions>
      </trkpt>
      <trkpt lat="42.6249848864972591400146484375" lon="19.88024580292403697967529296875">
        <ele>1741.4000244140625</ele>
        <time>2026-06-16T08:09:25.000Z</time>
        <extensions>
          <ns3:TrackPointExtension>
            <ns3:atemp>17.0</ns3:atemp>
          </ns3:TrackPointExtension>
        </extensions>
      </trkpt>
      <trkpt lat="42.6249848864972591400146484375" lon="19.88024580292403697967529296875">
        <ele>1741.4000244140625</ele>
        <time>2026-06-16T08:09:26.000Z</time>
        <extensions>
          <ns3:TrackPointExtension>
            <ns3:atemp>17.0</ns3:atemp>
          </ns3:TrackPointExtension>
        </extensions>
      </trkpt>
      <trkpt lat="42.6249848864972591400146484375" lon="19.88024580292403697967529296875">
        <ele>1741.5999755859375</ele>
        <time>2026-06-16T08:09:27.000Z</time>
        <extensions>
          <ns3:TrackPointExtension>
            <ns3:atemp>17.0</ns3:atemp>
          </ns3:TrackPointExtension>
        </extensions>
      </trkpt>
      <trkpt lat="42.6249848864972591400146484375" lon="19.88024580292403697967529296875">
        <ele>1741.5999755859375</ele>
        <time>2026-06-16T08:09:28.000Z</time>
        <extensions>
          <ns3:TrackPointExtension>
            <ns3:atemp>17.0</ns3:atemp>
          </ns3:TrackPointExtension>
        </extensions>
      </trkpt>
      <trkpt lat="42.6249848864972591400146484375" lon="19.88024580292403697967529296875">
        <ele>1741.5999755859375</ele>
        <time>2026-06-16T08:09:29.000Z</time>
        <extensions>
          <ns3:TrackPointExtension>
            <ns3:atemp>17.0</ns3:atemp>
          </ns3:TrackPointExtension>
        </extensions>
      </trkpt>
      <trkpt lat="42.6249848864972591400146484375" lon="19.88024580292403697967529296875">
        <ele>1741.5999755859375</ele>
        <time>2026-06-16T08:09:30.000Z</time>
        <extensions>
          <ns3:TrackPointExtension>
            <ns3:atemp>17.0</ns3:atemp>
          </ns3:TrackPointExtension>
        </extensions>
      </trkpt>
      <trkpt lat="42.6249848864972591400146484375" lon="19.88024580292403697967529296875">
        <ele>1741.5999755859375</ele>
        <time>2026-06-16T08:09:31.000Z</time>
        <extensions>
          <ns3:TrackPointExtension>
            <ns3:atemp>17.0</ns3:atemp>
          </ns3:TrackPointExtension>
        </extensions>
      </trkpt>
      <trkpt lat="42.6249848864972591400146484375" lon="19.88024580292403697967529296875">
        <ele>1741.5999755859375</ele>
        <time>2026-06-16T08:09:32.000Z</time>
        <extensions>
          <ns3:TrackPointExtension>
            <ns3:atemp>17.0</ns3:atemp>
          </ns3:TrackPointExtension>
        </extensions>
      </trkpt>
      <trkpt lat="42.6249848864972591400146484375" lon="19.88024580292403697967529296875">
        <ele>1741.5999755859375</ele>
        <time>2026-06-16T08:09:33.000Z</time>
        <extensions>
          <ns3:TrackPointExtension>
            <ns3:atemp>17.0</ns3:atemp>
          </ns3:TrackPointExtension>
        </extensions>
      </trkpt>
      <trkpt lat="42.6249848864972591400146484375" lon="19.88024580292403697967529296875">
        <ele>1741.5999755859375</ele>
        <time>2026-06-16T08:09:34.000Z</time>
        <extensions>
          <ns3:TrackPointExtension>
            <ns3:atemp>17.0</ns3:atemp>
          </ns3:TrackPointExtension>
        </extensions>
      </trkpt>
      <trkpt lat="42.6249848864972591400146484375" lon="19.88024580292403697967529296875">
        <ele>1741.5999755859375</ele>
        <time>2026-06-16T08:09:35.000Z</time>
        <extensions>
          <ns3:TrackPointExtension>
            <ns3:atemp>17.0</ns3:atemp>
          </ns3:TrackPointExtension>
        </extensions>
      </trkpt>
      <trkpt lat="42.6249848864972591400146484375" lon="19.88024580292403697967529296875">
        <ele>1741.800048828125</ele>
        <time>2026-06-16T08:09:36.000Z</time>
        <extensions>
          <ns3:TrackPointExtension>
            <ns3:atemp>17.0</ns3:atemp>
          </ns3:TrackPointExtension>
        </extensions>
      </trkpt>
      <trkpt lat="42.6249848864972591400146484375" lon="19.88024580292403697967529296875">
        <ele>1741.800048828125</ele>
        <time>2026-06-16T08:09:37.000Z</time>
        <extensions>
          <ns3:TrackPointExtension>
            <ns3:atemp>17.0</ns3:atemp>
          </ns3:TrackPointExtension>
        </extensions>
      </trkpt>
      <trkpt lat="42.6249848864972591400146484375" lon="19.88024580292403697967529296875">
        <ele>1741.800048828125</ele>
        <time>2026-06-16T08:09:38.000Z</time>
        <extensions>
          <ns3:TrackPointExtension>
            <ns3:atemp>17.0</ns3:atemp>
          </ns3:TrackPointExtension>
        </extensions>
      </trkpt>
      <trkpt lat="42.6249848864972591400146484375" lon="19.88024580292403697967529296875">
        <ele>1741.800048828125</ele>
        <time>2026-06-16T08:09:39.000Z</time>
        <extensions>
          <ns3:TrackPointExtension>
            <ns3:atemp>17.0</ns3:atemp>
          </ns3:TrackPointExtension>
        </extensions>
      </trkpt>
      <trkpt lat="42.6249848864972591400146484375" lon="19.88024580292403697967529296875">
        <ele>1741.800048828125</ele>
        <time>2026-06-16T08:09:40.000Z</time>
        <extensions>
          <ns3:TrackPointExtension>
            <ns3:atemp>17.0</ns3:atemp>
          </ns3:TrackPointExtension>
        </extensions>
      </trkpt>
      <trkpt lat="42.6249848864972591400146484375" lon="19.88024580292403697967529296875">
        <ele>1741.800048828125</ele>
        <time>2026-06-16T08:09:41.000Z</time>
        <extensions>
          <ns3:TrackPointExtension>
            <ns3:atemp>17.0</ns3:atemp>
          </ns3:TrackPointExtension>
        </extensions>
      </trkpt>
      <trkpt lat="42.6249848864972591400146484375" lon="19.88024580292403697967529296875">
        <ele>1742</ele>
        <time>2026-06-16T08:09:42.000Z</time>
        <extensions>
          <ns3:TrackPointExtension>
            <ns3:atemp>17.0</ns3:atemp>
          </ns3:TrackPointExtension>
        </extensions>
      </trkpt>
      <trkpt lat="42.6249848864972591400146484375" lon="19.88024580292403697967529296875">
        <ele>1742</ele>
        <time>2026-06-16T08:09:43.000Z</time>
        <extensions>
          <ns3:TrackPointExtension>
            <ns3:atemp>17.0</ns3:atemp>
          </ns3:TrackPointExtension>
        </extensions>
      </trkpt>
      <trkpt lat="42.6249848864972591400146484375" lon="19.88024580292403697967529296875">
        <ele>1742</ele>
        <time>2026-06-16T08:09:44.000Z</time>
        <extensions>
          <ns3:TrackPointExtension>
            <ns3:atemp>17.0</ns3:atemp>
          </ns3:TrackPointExtension>
        </extensions>
      </trkpt>
      <trkpt lat="42.6249848864972591400146484375" lon="19.88024580292403697967529296875">
        <ele>1742</ele>
        <time>2026-06-16T08:09:45.000Z</time>
        <extensions>
          <ns3:TrackPointExtension>
            <ns3:atemp>17.0</ns3:atemp>
          </ns3:TrackPointExtension>
        </extensions>
      </trkpt>
      <trkpt lat="42.6249848864972591400146484375" lon="19.88024580292403697967529296875">
        <ele>1742</ele>
        <time>2026-06-16T08:09:46.000Z</time>
        <extensions>
          <ns3:TrackPointExtension>
            <ns3:atemp>17.0</ns3:atemp>
          </ns3:TrackPointExtension>
        </extensions>
      </trkpt>
      <trkpt lat="42.6249848864972591400146484375" lon="19.88024580292403697967529296875">
        <ele>1742</ele>
        <time>2026-06-16T08:09:47.000Z</time>
        <extensions>
          <ns3:TrackPointExtension>
            <ns3:atemp>17.0</ns3:atemp>
          </ns3:TrackPointExtension>
        </extensions>
      </trkpt>
      <trkpt lat="42.6249848864972591400146484375" lon="19.88024580292403697967529296875">
        <ele>1742</ele>
        <time>2026-06-16T08:09:48.000Z</time>
        <extensions>
          <ns3:TrackPointExtension>
            <ns3:atemp>17.0</ns3:atemp>
          </ns3:TrackPointExtension>
        </extensions>
      </trkpt>
      <trkpt lat="42.6249848864972591400146484375" lon="19.88024580292403697967529296875">
        <ele>1742</ele>
        <time>2026-06-16T08:09:49.000Z</time>
        <extensions>
          <ns3:TrackPointExtension>
            <ns3:atemp>17.0</ns3:atemp>
          </ns3:TrackPointExtension>
        </extensions>
      </trkpt>
      <trkpt lat="42.6249848864972591400146484375" lon="19.88024580292403697967529296875">
        <ele>1742.199951171875</ele>
        <time>2026-06-16T08:09:50.000Z</time>
        <extensions>
          <ns3:TrackPointExtension>
            <ns3:atemp>17.0</ns3:atemp>
          </ns3:TrackPointExtension>
        </extensions>
      </trkpt>
      <trkpt lat="42.6249848864972591400146484375" lon="19.88024580292403697967529296875">
        <ele>1742.199951171875</ele>
        <time>2026-06-16T08:09:51.000Z</time>
        <extensions>
          <ns3:TrackPointExtension>
            <ns3:atemp>17.0</ns3:atemp>
          </ns3:TrackPointExtension>
        </extensions>
      </trkpt>
      <trkpt lat="42.6249848864972591400146484375" lon="19.88024580292403697967529296875">
        <ele>1742.199951171875</ele>
        <time>2026-06-16T08:09:52.000Z</time>
        <extensions>
          <ns3:TrackPointExtension>
            <ns3:atemp>17.0</ns3:atemp>
          </ns3:TrackPointExtension>
        </extensions>
      </trkpt>
      <trkpt lat="42.6249848864972591400146484375" lon="19.88024580292403697967529296875">
        <ele>1742.199951171875</ele>
        <time>2026-06-16T08:09:53.000Z</time>
        <extensions>
          <ns3:TrackPointExtension>
            <ns3:atemp>17.0</ns3:atemp>
          </ns3:TrackPointExtension>
        </extensions>
      </trkpt>
      <trkpt lat="42.6249848864972591400146484375" lon="19.88024580292403697967529296875">
        <ele>1742.199951171875</ele>
        <time>2026-06-16T08:09:54.000Z</time>
        <extensions>
          <ns3:TrackPointExtension>
            <ns3:atemp>17.0</ns3:atemp>
          </ns3:TrackPointExtension>
        </extensions>
      </trkpt>
      <trkpt lat="42.6249848864972591400146484375" lon="19.88024580292403697967529296875">
        <ele>1742.199951171875</ele>
        <time>2026-06-16T08:09:55.000Z</time>
        <extensions>
          <ns3:TrackPointExtension>
            <ns3:atemp>17.0</ns3:atemp>
          </ns3:TrackPointExtension>
        </extensions>
      </trkpt>
      <trkpt lat="42.6249848864972591400146484375" lon="19.88024580292403697967529296875">
        <ele>1742.199951171875</ele>
        <time>2026-06-16T08:09:56.000Z</time>
        <extensions>
          <ns3:TrackPointExtension>
            <ns3:atemp>17.0</ns3:atemp>
          </ns3:TrackPointExtension>
        </extensions>
      </trkpt>
      <trkpt lat="42.6249848864972591400146484375" lon="19.88024580292403697967529296875">
        <ele>1742.199951171875</ele>
        <time>2026-06-16T08:09:57.000Z</time>
        <extensions>
          <ns3:TrackPointExtension>
            <ns3:atemp>17.0</ns3:atemp>
          </ns3:TrackPointExtension>
        </extensions>
      </trkpt>
      <trkpt lat="42.6249848864972591400146484375" lon="19.88024580292403697967529296875">
        <ele>1742.4000244140625</ele>
        <time>2026-06-16T08:09:58.000Z</time>
        <extensions>
          <ns3:TrackPointExtension>
            <ns3:atemp>17.0</ns3:atemp>
          </ns3:TrackPointExtension>
        </extensions>
      </trkpt>
      <trkpt lat="42.6249848864972591400146484375" lon="19.88024580292403697967529296875">
        <ele>1742.4000244140625</ele>
        <time>2026-06-16T08:09:59.000Z</time>
        <extensions>
          <ns3:TrackPointExtension>
            <ns3:atemp>17.0</ns3:atemp>
          </ns3:TrackPointExtension>
        </extensions>
      </trkpt>
      <trkpt lat="42.6249848864972591400146484375" lon="19.88024580292403697967529296875">
        <ele>1742.4000244140625</ele>
        <time>2026-06-16T08:10:00.000Z</time>
        <extensions>
          <ns3:TrackPointExtension>
            <ns3:atemp>17.0</ns3:atemp>
          </ns3:TrackPointExtension>
        </extensions>
      </trkpt>
      <trkpt lat="42.6249848864972591400146484375" lon="19.88024580292403697967529296875">
        <ele>1742.4000244140625</ele>
        <time>2026-06-16T08:10:01.000Z</time>
        <extensions>
          <ns3:TrackPointExtension>
            <ns3:atemp>17.0</ns3:atemp>
          </ns3:TrackPointExtension>
        </extensions>
      </trkpt>
      <trkpt lat="42.6249848864972591400146484375" lon="19.88024580292403697967529296875">
        <ele>1742.4000244140625</ele>
        <time>2026-06-16T08:10:02.000Z</time>
        <extensions>
          <ns3:TrackPointExtension>
            <ns3:atemp>17.0</ns3:atemp>
          </ns3:TrackPointExtension>
        </extensions>
      </trkpt>
      <trkpt lat="42.6249848864972591400146484375" lon="19.88024580292403697967529296875">
        <ele>1742.4000244140625</ele>
        <time>2026-06-16T08:10:03.000Z</time>
        <extensions>
          <ns3:TrackPointExtension>
            <ns3:atemp>17.0</ns3:atemp>
          </ns3:TrackPointExtension>
        </extensions>
      </trkpt>
      <trkpt lat="42.6249848864972591400146484375" lon="19.88024580292403697967529296875">
        <ele>1742.4000244140625</ele>
        <time>2026-06-16T08:10:04.000Z</time>
        <extensions>
          <ns3:TrackPointExtension>
            <ns3:atemp>17.0</ns3:atemp>
          </ns3:TrackPointExtension>
        </extensions>
      </trkpt>
      <trkpt lat="42.6249848864972591400146484375" lon="19.88024580292403697967529296875">
        <ele>1742.4000244140625</ele>
        <time>2026-06-16T08:10:05.000Z</time>
        <extensions>
          <ns3:TrackPointExtension>
            <ns3:atemp>17.0</ns3:atemp>
          </ns3:TrackPointExtension>
        </extensions>
      </trkpt>
      <trkpt lat="42.6249848864972591400146484375" lon="19.88024580292403697967529296875">
        <ele>1742.4000244140625</ele>
        <time>2026-06-16T08:10:06.000Z</time>
        <extensions>
          <ns3:TrackPointExtension>
            <ns3:atemp>17.0</ns3:atemp>
          </ns3:TrackPointExtension>
        </extensions>
      </trkpt>
      <trkpt lat="42.6249848864972591400146484375" lon="19.88024580292403697967529296875">
        <ele>1742.5999755859375</ele>
        <time>2026-06-16T08:10:07.000Z</time>
        <extensions>
          <ns3:TrackPointExtension>
            <ns3:atemp>17.0</ns3:atemp>
          </ns3:TrackPointExtension>
        </extensions>
      </trkpt>
      <trkpt lat="42.6249848864972591400146484375" lon="19.88024580292403697967529296875">
        <ele>1742.5999755859375</ele>
        <time>2026-06-16T08:10:08.000Z</time>
        <extensions>
          <ns3:TrackPointExtension>
            <ns3:atemp>17.0</ns3:atemp>
          </ns3:TrackPointExtension>
        </extensions>
      </trkpt>
      <trkpt lat="42.6249848864972591400146484375" lon="19.88024580292403697967529296875">
        <ele>1742.5999755859375</ele>
        <time>2026-06-16T08:10:09.000Z</time>
        <extensions>
          <ns3:TrackPointExtension>
            <ns3:atemp>17.0</ns3:atemp>
          </ns3:TrackPointExtension>
        </extensions>
      </trkpt>
      <trkpt lat="42.6249848864972591400146484375" lon="19.88024580292403697967529296875">
        <ele>1742.5999755859375</ele>
        <time>2026-06-16T08:10:10.000Z</time>
        <extensions>
          <ns3:TrackPointExtension>
            <ns3:atemp>17.0</ns3:atemp>
          </ns3:TrackPointExtension>
        </extensions>
      </trkpt>
      <trkpt lat="42.6249848864972591400146484375" lon="19.88024580292403697967529296875">
        <ele>1742.5999755859375</ele>
        <time>2026-06-16T08:10:11.000Z</time>
        <extensions>
          <ns3:TrackPointExtension>
            <ns3:atemp>17.0</ns3:atemp>
          </ns3:TrackPointExtension>
        </extensions>
      </trkpt>
      <trkpt lat="42.6249848864972591400146484375" lon="19.88024580292403697967529296875">
        <ele>1742.5999755859375</ele>
        <time>2026-06-16T08:10:12.000Z</time>
        <extensions>
          <ns3:TrackPointExtension>
            <ns3:atemp>17.0</ns3:atemp>
          </ns3:TrackPointExtension>
        </extensions>
      </trkpt>
      <trkpt lat="42.6249848864972591400146484375" lon="19.88024580292403697967529296875">
        <ele>1742.800048828125</ele>
        <time>2026-06-16T08:10:13.000Z</time>
        <extensions>
          <ns3:TrackPointExtension>
            <ns3:atemp>17.0</ns3:atemp>
          </ns3:TrackPointExtension>
        </extensions>
      </trkpt>
      <trkpt lat="42.6249848864972591400146484375" lon="19.88024580292403697967529296875">
        <ele>1742.800048828125</ele>
        <time>2026-06-16T08:10:14.000Z</time>
        <extensions>
          <ns3:TrackPointExtension>
            <ns3:atemp>17.0</ns3:atemp>
          </ns3:TrackPointExtension>
        </extensions>
      </trkpt>
      <trkpt lat="42.6249848864972591400146484375" lon="19.88024580292403697967529296875">
        <ele>1742.800048828125</ele>
        <time>2026-06-16T08:10:15.000Z</time>
        <extensions>
          <ns3:TrackPointExtension>
            <ns3:atemp>17.0</ns3:atemp>
          </ns3:TrackPointExtension>
        </extensions>
      </trkpt>
      <trkpt lat="42.6249848864972591400146484375" lon="19.88024580292403697967529296875">
        <ele>1742.800048828125</ele>
        <time>2026-06-16T08:10:16.000Z</time>
        <extensions>
          <ns3:TrackPointExtension>
            <ns3:atemp>17.0</ns3:atemp>
          </ns3:TrackPointExtension>
        </extensions>
      </trkpt>
      <trkpt lat="42.6249848864972591400146484375" lon="19.88024580292403697967529296875">
        <ele>1742.800048828125</ele>
        <time>2026-06-16T08:10:17.000Z</time>
        <extensions>
          <ns3:TrackPointExtension>
            <ns3:atemp>17.0</ns3:atemp>
          </ns3:TrackPointExtension>
        </extensions>
      </trkpt>
      <trkpt lat="42.6249848864972591400146484375" lon="19.88024580292403697967529296875">
        <ele>1742.800048828125</ele>
        <time>2026-06-16T08:10:18.000Z</time>
        <extensions>
          <ns3:TrackPointExtension>
            <ns3:atemp>17.0</ns3:atemp>
          </ns3:TrackPointExtension>
        </extensions>
      </trkpt>
      <trkpt lat="42.6249848864972591400146484375" lon="19.88024580292403697967529296875">
        <ele>1743</ele>
        <time>2026-06-16T08:10:19.000Z</time>
        <extensions>
          <ns3:TrackPointExtension>
            <ns3:atemp>17.0</ns3:atemp>
          </ns3:TrackPointExtension>
        </extensions>
      </trkpt>
      <trkpt lat="42.6249848864972591400146484375" lon="19.88024580292403697967529296875">
        <ele>1743</ele>
        <time>2026-06-16T08:10:20.000Z</time>
        <extensions>
          <ns3:TrackPointExtension>
            <ns3:atemp>17.0</ns3:atemp>
          </ns3:TrackPointExtension>
        </extensions>
      </trkpt>
      <trkpt lat="42.6249848864972591400146484375" lon="19.88024580292403697967529296875">
        <ele>1743</ele>
        <time>2026-06-16T08:10:21.000Z</time>
        <extensions>
          <ns3:TrackPointExtension>
            <ns3:atemp>17.0</ns3:atemp>
          </ns3:TrackPointExtension>
        </extensions>
      </trkpt>
      <trkpt lat="42.6249848864972591400146484375" lon="19.88024580292403697967529296875">
        <ele>1743</ele>
        <time>2026-06-16T08:10:22.000Z</time>
        <extensions>
          <ns3:TrackPointExtension>
            <ns3:atemp>17.0</ns3:atemp>
          </ns3:TrackPointExtension>
        </extensions>
      </trkpt>
      <trkpt lat="42.6249848864972591400146484375" lon="19.88024580292403697967529296875">
        <ele>1743</ele>
        <time>2026-06-16T08:10:23.000Z</time>
        <extensions>
          <ns3:TrackPointExtension>
            <ns3:atemp>17.0</ns3:atemp>
          </ns3:TrackPointExtension>
        </extensions>
      </trkpt>
      <trkpt lat="42.6249848864972591400146484375" lon="19.88024580292403697967529296875">
        <ele>1743</ele>
        <time>2026-06-16T08:10:24.000Z</time>
        <extensions>
          <ns3:TrackPointExtension>
            <ns3:atemp>17.0</ns3:atemp>
          </ns3:TrackPointExtension>
        </extensions>
      </trkpt>
      <trkpt lat="42.6249848864972591400146484375" lon="19.88024580292403697967529296875">
        <ele>1743</ele>
        <time>2026-06-16T08:10:25.000Z</time>
        <extensions>
          <ns3:TrackPointExtension>
            <ns3:atemp>17.0</ns3:atemp>
          </ns3:TrackPointExtension>
        </extensions>
      </trkpt>
      <trkpt lat="42.6249848864972591400146484375" lon="19.88024580292403697967529296875">
        <ele>1743.199951171875</ele>
        <time>2026-06-16T08:10:26.000Z</time>
        <extensions>
          <ns3:TrackPointExtension>
            <ns3:atemp>17.0</ns3:atemp>
          </ns3:TrackPointExtension>
        </extensions>
      </trkpt>
      <trkpt lat="42.6249848864972591400146484375" lon="19.88024580292403697967529296875">
        <ele>1743.199951171875</ele>
        <time>2026-06-16T08:10:27.000Z</time>
        <extensions>
          <ns3:TrackPointExtension>
            <ns3:atemp>17.0</ns3:atemp>
          </ns3:TrackPointExtension>
        </extensions>
      </trkpt>
      <trkpt lat="42.6249848864972591400146484375" lon="19.88024580292403697967529296875">
        <ele>1743.199951171875</ele>
        <time>2026-06-16T08:10:28.000Z</time>
        <extensions>
          <ns3:TrackPointExtension>
            <ns3:atemp>17.0</ns3:atemp>
          </ns3:TrackPointExtension>
        </extensions>
      </trkpt>
      <trkpt lat="42.6249848864972591400146484375" lon="19.88024580292403697967529296875">
        <ele>1743.199951171875</ele>
        <time>2026-06-16T08:10:29.000Z</time>
        <extensions>
          <ns3:TrackPointExtension>
            <ns3:atemp>17.0</ns3:atemp>
          </ns3:TrackPointExtension>
        </extensions>
      </trkpt>
      <trkpt lat="42.6249848864972591400146484375" lon="19.88024580292403697967529296875">
        <ele>1743.199951171875</ele>
        <time>2026-06-16T08:10:30.000Z</time>
        <extensions>
          <ns3:TrackPointExtension>
            <ns3:atemp>17.0</ns3:atemp>
          </ns3:TrackPointExtension>
        </extensions>
      </trkpt>
      <trkpt lat="42.6249848864972591400146484375" lon="19.88024580292403697967529296875">
        <ele>1743.199951171875</ele>
        <time>2026-06-16T08:10:31.000Z</time>
        <extensions>
          <ns3:TrackPointExtension>
            <ns3:atemp>17.0</ns3:atemp>
          </ns3:TrackPointExtension>
        </extensions>
      </trkpt>
      <trkpt lat="42.6249848864972591400146484375" lon="19.88024580292403697967529296875">
        <ele>1743.199951171875</ele>
        <time>2026-06-16T08:10:32.000Z</time>
        <extensions>
          <ns3:TrackPointExtension>
            <ns3:atemp>17.0</ns3:atemp>
          </ns3:TrackPointExtension>
        </extensions>
      </trkpt>
      <trkpt lat="42.6249848864972591400146484375" lon="19.88024580292403697967529296875">
        <ele>1743.199951171875</ele>
        <time>2026-06-16T08:10:33.000Z</time>
        <extensions>
          <ns3:TrackPointExtension>
            <ns3:atemp>17.0</ns3:atemp>
          </ns3:TrackPointExtension>
        </extensions>
      </trkpt>
      <trkpt lat="42.6249848864972591400146484375" lon="19.88024580292403697967529296875">
        <ele>1743.199951171875</ele>
        <time>2026-06-16T08:10:34.000Z</time>
        <extensions>
          <ns3:TrackPointExtension>
            <ns3:atemp>17.0</ns3:atemp>
          </ns3:TrackPointExtension>
        </extensions>
      </trkpt>
      <trkpt lat="42.6249848864972591400146484375" lon="19.88024580292403697967529296875">
        <ele>1743.199951171875</ele>
        <time>2026-06-16T08:10:35.000Z</time>
        <extensions>
          <ns3:TrackPointExtension>
            <ns3:atemp>17.0</ns3:atemp>
          </ns3:TrackPointExtension>
        </extensions>
      </trkpt>
      <trkpt lat="42.6249848864972591400146484375" lon="19.88024580292403697967529296875">
        <ele>1743.4000244140625</ele>
        <time>2026-06-16T08:10:36.000Z</time>
        <extensions>
          <ns3:TrackPointExtension>
            <ns3:atemp>17.0</ns3:atemp>
          </ns3:TrackPointExtension>
        </extensions>
      </trkpt>
      <trkpt lat="42.6249848864972591400146484375" lon="19.88024580292403697967529296875">
        <ele>1743.4000244140625</ele>
        <time>2026-06-16T08:10:37.000Z</time>
        <extensions>
          <ns3:TrackPointExtension>
            <ns3:atemp>17.0</ns3:atemp>
          </ns3:TrackPointExtension>
        </extensions>
      </trkpt>
      <trkpt lat="42.6249848864972591400146484375" lon="19.88024580292403697967529296875">
        <ele>1743.4000244140625</ele>
        <time>2026-06-16T08:10:38.000Z</time>
        <extensions>
          <ns3:TrackPointExtension>
            <ns3:atemp>17.0</ns3:atemp>
          </ns3:TrackPointExtension>
        </extensions>
      </trkpt>
      <trkpt lat="42.6249848864972591400146484375" lon="19.88024580292403697967529296875">
        <ele>1743.4000244140625</ele>
        <time>2026-06-16T08:10:39.000Z</time>
        <extensions>
          <ns3:TrackPointExtension>
            <ns3:atemp>17.0</ns3:atemp>
          </ns3:TrackPointExtension>
        </extensions>
      </trkpt>
      <trkpt lat="42.6249848864972591400146484375" lon="19.88024580292403697967529296875">
        <ele>1743.4000244140625</ele>
        <time>2026-06-16T08:10:40.000Z</time>
        <extensions>
          <ns3:TrackPointExtension>
            <ns3:atemp>17.0</ns3:atemp>
          </ns3:TrackPointExtension>
        </extensions>
      </trkpt>
      <trkpt lat="42.6249848864972591400146484375" lon="19.88024580292403697967529296875">
        <ele>1743.4000244140625</ele>
        <time>2026-06-16T08:10:41.000Z</time>
        <extensions>
          <ns3:TrackPointExtension>
            <ns3:atemp>17.0</ns3:atemp>
          </ns3:TrackPointExtension>
        </extensions>
      </trkpt>
      <trkpt lat="42.6249848864972591400146484375" lon="19.88024580292403697967529296875">
        <ele>1743.4000244140625</ele>
        <time>2026-06-16T08:10:42.000Z</time>
        <extensions>
          <ns3:TrackPointExtension>
            <ns3:atemp>17.0</ns3:atemp>
          </ns3:TrackPointExtension>
        </extensions>
      </trkpt>
      <trkpt lat="42.6249848864972591400146484375" lon="19.88024580292403697967529296875">
        <ele>1743.4000244140625</ele>
        <time>2026-06-16T08:10:43.000Z</time>
        <extensions>
          <ns3:TrackPointExtension>
            <ns3:atemp>17.0</ns3:atemp>
          </ns3:TrackPointExtension>
        </extensions>
      </trkpt>
      <trkpt lat="42.6249848864972591400146484375" lon="19.88024580292403697967529296875">
        <ele>1743.5999755859375</ele>
        <time>2026-06-16T08:10:44.000Z</time>
        <extensions>
          <ns3:TrackPointExtension>
            <ns3:atemp>17.0</ns3:atemp>
          </ns3:TrackPointExtension>
        </extensions>
      </trkpt>
      <trkpt lat="42.6249848864972591400146484375" lon="19.88024580292403697967529296875">
        <ele>1743.5999755859375</ele>
        <time>2026-06-16T08:10:45.000Z</time>
        <extensions>
          <ns3:TrackPointExtension>
            <ns3:atemp>17.0</ns3:atemp>
          </ns3:TrackPointExtension>
        </extensions>
      </trkpt>
      <trkpt lat="42.6249848864972591400146484375" lon="19.88024580292403697967529296875">
        <ele>1743.5999755859375</ele>
        <time>2026-06-16T08:10:46.000Z</time>
        <extensions>
          <ns3:TrackPointExtension>
            <ns3:atemp>17.0</ns3:atemp>
          </ns3:TrackPointExtension>
        </extensions>
      </trkpt>
      <trkpt lat="42.6249848864972591400146484375" lon="19.88024580292403697967529296875">
        <ele>1743.5999755859375</ele>
        <time>2026-06-16T08:10:47.000Z</time>
        <extensions>
          <ns3:TrackPointExtension>
            <ns3:atemp>17.0</ns3:atemp>
          </ns3:TrackPointExtension>
        </extensions>
      </trkpt>
      <trkpt lat="42.6249848864972591400146484375" lon="19.88024580292403697967529296875">
        <ele>1743.5999755859375</ele>
        <time>2026-06-16T08:10:48.000Z</time>
        <extensions>
          <ns3:TrackPointExtension>
            <ns3:atemp>17.0</ns3:atemp>
          </ns3:TrackPointExtension>
        </extensions>
      </trkpt>
      <trkpt lat="42.6249848864972591400146484375" lon="19.88024580292403697967529296875">
        <ele>1743.5999755859375</ele>
        <time>2026-06-16T08:10:49.000Z</time>
        <extensions>
          <ns3:TrackPointExtension>
            <ns3:atemp>17.0</ns3:atemp>
          </ns3:TrackPointExtension>
        </extensions>
      </trkpt>
      <trkpt lat="42.6249848864972591400146484375" lon="19.88024580292403697967529296875">
        <ele>1743.5999755859375</ele>
        <time>2026-06-16T08:10:50.000Z</time>
        <extensions>
          <ns3:TrackPointExtension>
            <ns3:atemp>17.0</ns3:atemp>
          </ns3:TrackPointExtension>
        </extensions>
      </trkpt>
      <trkpt lat="42.6249848864972591400146484375" lon="19.88024580292403697967529296875">
        <ele>1743.5999755859375</ele>
        <time>2026-06-16T08:10:51.000Z</time>
        <extensions>
          <ns3:TrackPointExtension>
            <ns3:atemp>17.0</ns3:atemp>
          </ns3:TrackPointExtension>
        </extensions>
      </trkpt>
      <trkpt lat="42.6249848864972591400146484375" lon="19.88024580292403697967529296875">
        <ele>1743.800048828125</ele>
        <time>2026-06-16T08:10:52.000Z</time>
        <extensions>
          <ns3:TrackPointExtension>
            <ns3:atemp>17.0</ns3:atemp>
          </ns3:TrackPointExtension>
        </extensions>
      </trkpt>
      <trkpt lat="42.6249848864972591400146484375" lon="19.88024580292403697967529296875">
        <ele>1743.800048828125</ele>
        <time>2026-06-16T08:10:53.000Z</time>
        <extensions>
          <ns3:TrackPointExtension>
            <ns3:atemp>17.0</ns3:atemp>
          </ns3:TrackPointExtension>
        </extensions>
      </trkpt>
      <trkpt lat="42.6249848864972591400146484375" lon="19.88024580292403697967529296875">
        <ele>1743.800048828125</ele>
        <time>2026-06-16T08:10:54.000Z</time>
        <extensions>
          <ns3:TrackPointExtension>
            <ns3:atemp>17.0</ns3:atemp>
          </ns3:TrackPointExtension>
        </extensions>
      </trkpt>
      <trkpt lat="42.6249848864972591400146484375" lon="19.88024580292403697967529296875">
        <ele>1743.800048828125</ele>
        <time>2026-06-16T08:10:55.000Z</time>
        <extensions>
          <ns3:TrackPointExtension>
            <ns3:atemp>17.0</ns3:atemp>
          </ns3:TrackPointExtension>
        </extensions>
      </trkpt>
      <trkpt lat="42.6249848864972591400146484375" lon="19.88024580292403697967529296875">
        <ele>1743.800048828125</ele>
        <time>2026-06-16T08:10:56.000Z</time>
        <extensions>
          <ns3:TrackPointExtension>
            <ns3:atemp>17.0</ns3:atemp>
          </ns3:TrackPointExtension>
        </extensions>
      </trkpt>
      <trkpt lat="42.6249848864972591400146484375" lon="19.88024580292403697967529296875">
        <ele>1743.800048828125</ele>
        <time>2026-06-16T08:10:57.000Z</time>
        <extensions>
          <ns3:TrackPointExtension>
            <ns3:atemp>17.0</ns3:atemp>
          </ns3:TrackPointExtension>
        </extensions>
      </trkpt>
      <trkpt lat="42.6249848864972591400146484375" lon="19.88024580292403697967529296875">
        <ele>1743.800048828125</ele>
        <time>2026-06-16T08:10:58.000Z</time>
        <extensions>
          <ns3:TrackPointExtension>
            <ns3:atemp>17.0</ns3:atemp>
          </ns3:TrackPointExtension>
        </extensions>
      </trkpt>
      <trkpt lat="42.6249848864972591400146484375" lon="19.88024580292403697967529296875">
        <ele>1743.800048828125</ele>
        <time>2026-06-16T08:10:59.000Z</time>
        <extensions>
          <ns3:TrackPointExtension>
            <ns3:atemp>17.0</ns3:atemp>
          </ns3:TrackPointExtension>
        </extensions>
      </trkpt>
      <trkpt lat="42.6249848864972591400146484375" lon="19.88024580292403697967529296875">
        <ele>1743.800048828125</ele>
        <time>2026-06-16T08:11:00.000Z</time>
        <extensions>
          <ns3:TrackPointExtension>
            <ns3:atemp>17.0</ns3:atemp>
          </ns3:TrackPointExtension>
        </extensions>
      </trkpt>
      <trkpt lat="42.6249848864972591400146484375" lon="19.88024580292403697967529296875">
        <ele>1743.800048828125</ele>
        <time>2026-06-16T08:11:01.000Z</time>
        <extensions>
          <ns3:TrackPointExtension>
            <ns3:atemp>17.0</ns3:atemp>
          </ns3:TrackPointExtension>
        </extensions>
      </trkpt>
      <trkpt lat="42.6249848864972591400146484375" lon="19.88024580292403697967529296875">
        <ele>1743.800048828125</ele>
        <time>2026-06-16T08:11:02.000Z</time>
        <extensions>
          <ns3:TrackPointExtension>
            <ns3:atemp>17.0</ns3:atemp>
          </ns3:TrackPointExtension>
        </extensions>
      </trkpt>
      <trkpt lat="42.6249848864972591400146484375" lon="19.88024580292403697967529296875">
        <ele>1743.800048828125</ele>
        <time>2026-06-16T08:11:03.000Z</time>
        <extensions>
          <ns3:TrackPointExtension>
            <ns3:atemp>17.0</ns3:atemp>
          </ns3:TrackPointExtension>
        </extensions>
      </trkpt>
      <trkpt lat="42.6249848864972591400146484375" lon="19.88024580292403697967529296875">
        <ele>1743.800048828125</ele>
        <time>2026-06-16T08:11:04.000Z</time>
        <extensions>
          <ns3:TrackPointExtension>
            <ns3:atemp>17.0</ns3:atemp>
          </ns3:TrackPointExtension>
        </extensions>
      </trkpt>
      <trkpt lat="42.6249848864972591400146484375" lon="19.88024580292403697967529296875">
        <ele>1743.800048828125</ele>
        <time>2026-06-16T08:11:05.000Z</time>
        <extensions>
          <ns3:TrackPointExtension>
            <ns3:atemp>17.0</ns3:atemp>
          </ns3:TrackPointExtension>
        </extensions>
      </trkpt>
      <trkpt lat="42.6249848864972591400146484375" lon="19.88024580292403697967529296875">
        <ele>1743.800048828125</ele>
        <time>2026-06-16T08:11:06.000Z</time>
        <extensions>
          <ns3:TrackPointExtension>
            <ns3:atemp>17.0</ns3:atemp>
          </ns3:TrackPointExtension>
        </extensions>
      </trkpt>
      <trkpt lat="42.6249848864972591400146484375" lon="19.88024580292403697967529296875">
        <ele>1743.800048828125</ele>
        <time>2026-06-16T08:11:07.000Z</time>
        <extensions>
          <ns3:TrackPointExtension>
            <ns3:atemp>17.0</ns3:atemp>
          </ns3:TrackPointExtension>
        </extensions>
      </trkpt>
      <trkpt lat="42.6249848864972591400146484375" lon="19.88024580292403697967529296875">
        <ele>1744</ele>
        <time>2026-06-16T08:11:08.000Z</time>
        <extensions>
          <ns3:TrackPointExtension>
            <ns3:atemp>17.0</ns3:atemp>
          </ns3:TrackPointExtension>
        </extensions>
      </trkpt>
      <trkpt lat="42.6249848864972591400146484375" lon="19.88024580292403697967529296875">
        <ele>1744</ele>
        <time>2026-06-16T08:11:09.000Z</time>
        <extensions>
          <ns3:TrackPointExtension>
            <ns3:atemp>17.0</ns3:atemp>
          </ns3:TrackPointExtension>
        </extensions>
      </trkpt>
      <trkpt lat="42.6249848864972591400146484375" lon="19.88024580292403697967529296875">
        <ele>1744</ele>
        <time>2026-06-16T08:11:10.000Z</time>
        <extensions>
          <ns3:TrackPointExtension>
            <ns3:atemp>17.0</ns3:atemp>
          </ns3:TrackPointExtension>
        </extensions>
      </trkpt>
      <trkpt lat="42.6249848864972591400146484375" lon="19.88024580292403697967529296875">
        <ele>1744</ele>
        <time>2026-06-16T08:11:11.000Z</time>
        <extensions>
          <ns3:TrackPointExtension>
            <ns3:atemp>17.0</ns3:atemp>
          </ns3:TrackPointExtension>
        </extensions>
      </trkpt>
      <trkpt lat="42.6249848864972591400146484375" lon="19.88024580292403697967529296875">
        <ele>1744.199951171875</ele>
        <time>2026-06-16T08:11:12.000Z</time>
        <extensions>
          <ns3:TrackPointExtension>
            <ns3:atemp>17.0</ns3:atemp>
          </ns3:TrackPointExtension>
        </extensions>
      </trkpt>
      <trkpt lat="42.6249848864972591400146484375" lon="19.88024580292403697967529296875">
        <ele>1744.199951171875</ele>
        <time>2026-06-16T08:11:13.000Z</time>
        <extensions>
          <ns3:TrackPointExtension>
            <ns3:atemp>17.0</ns3:atemp>
          </ns3:TrackPointExtension>
        </extensions>
      </trkpt>
      <trkpt lat="42.6249848864972591400146484375" lon="19.88024580292403697967529296875">
        <ele>1744.199951171875</ele>
        <time>2026-06-16T08:11:14.000Z</time>
        <extensions>
          <ns3:TrackPointExtension>
            <ns3:atemp>17.0</ns3:atemp>
          </ns3:TrackPointExtension>
        </extensions>
      </trkpt>
      <trkpt lat="42.6249848864972591400146484375" lon="19.88024580292403697967529296875">
        <ele>1744.199951171875</ele>
        <time>2026-06-16T08:11:15.000Z</time>
        <extensions>
          <ns3:TrackPointExtension>
            <ns3:atemp>17.0</ns3:atemp>
          </ns3:TrackPointExtension>
        </extensions>
      </trkpt>
      <trkpt lat="42.6249848864972591400146484375" lon="19.88024580292403697967529296875">
        <ele>1744.199951171875</ele>
        <time>2026-06-16T08:11:16.000Z</time>
        <extensions>
          <ns3:TrackPointExtension>
            <ns3:atemp>17.0</ns3:atemp>
          </ns3:TrackPointExtension>
        </extensions>
      </trkpt>
      <trkpt lat="42.6249848864972591400146484375" lon="19.88024580292403697967529296875">
        <ele>1744.199951171875</ele>
        <time>2026-06-16T08:11:17.000Z</time>
        <extensions>
          <ns3:TrackPointExtension>
            <ns3:atemp>17.0</ns3:atemp>
          </ns3:TrackPointExtension>
        </extensions>
      </trkpt>
      <trkpt lat="42.6249848864972591400146484375" lon="19.88024580292403697967529296875">
        <ele>1744.199951171875</ele>
        <time>2026-06-16T08:11:18.000Z</time>
        <extensions>
          <ns3:TrackPointExtension>
            <ns3:atemp>17.0</ns3:atemp>
          </ns3:TrackPointExtension>
        </extensions>
      </trkpt>
      <trkpt lat="42.6249848864972591400146484375" lon="19.88024580292403697967529296875">
        <ele>1744.199951171875</ele>
        <time>2026-06-16T08:11:19.000Z</time>
        <extensions>
          <ns3:TrackPointExtension>
            <ns3:atemp>17.0</ns3:atemp>
          </ns3:TrackPointExtension>
        </extensions>
      </trkpt>
      <trkpt lat="42.6249848864972591400146484375" lon="19.88024580292403697967529296875">
        <ele>1744.199951171875</ele>
        <time>2026-06-16T08:11:20.000Z</time>
        <extensions>
          <ns3:TrackPointExtension>
            <ns3:atemp>17.0</ns3:atemp>
          </ns3:TrackPointExtension>
        </extensions>
      </trkpt>
      <trkpt lat="42.6249848864972591400146484375" lon="19.88024580292403697967529296875">
        <ele>1744.4000244140625</ele>
        <time>2026-06-16T08:11:21.000Z</time>
        <extensions>
          <ns3:TrackPointExtension>
            <ns3:atemp>17.0</ns3:atemp>
          </ns3:TrackPointExtension>
        </extensions>
      </trkpt>
      <trkpt lat="42.6249848864972591400146484375" lon="19.88024580292403697967529296875">
        <ele>1744.4000244140625</ele>
        <time>2026-06-16T08:11:22.000Z</time>
        <extensions>
          <ns3:TrackPointExtension>
            <ns3:atemp>17.0</ns3:atemp>
          </ns3:TrackPointExtension>
        </extensions>
      </trkpt>
      <trkpt lat="42.6249848864972591400146484375" lon="19.88024580292403697967529296875">
        <ele>1744.4000244140625</ele>
        <time>2026-06-16T08:11:23.000Z</time>
        <extensions>
          <ns3:TrackPointExtension>
            <ns3:atemp>17.0</ns3:atemp>
          </ns3:TrackPointExtension>
        </extensions>
      </trkpt>
      <trkpt lat="42.6249848864972591400146484375" lon="19.88024580292403697967529296875">
        <ele>1744.4000244140625</ele>
        <time>2026-06-16T08:11:24.000Z</time>
        <extensions>
          <ns3:TrackPointExtension>
            <ns3:atemp>17.0</ns3:atemp>
          </ns3:TrackPointExtension>
        </extensions>
      </trkpt>
      <trkpt lat="42.6249848864972591400146484375" lon="19.88024580292403697967529296875">
        <ele>1744.4000244140625</ele>
        <time>2026-06-16T08:11:25.000Z</time>
        <extensions>
          <ns3:TrackPointExtension>
            <ns3:atemp>17.0</ns3:atemp>
          </ns3:TrackPointExtension>
        </extensions>
      </trkpt>
      <trkpt lat="42.6249848864972591400146484375" lon="19.88024580292403697967529296875">
        <ele>1744.4000244140625</ele>
        <time>2026-06-16T08:11:26.000Z</time>
        <extensions>
          <ns3:TrackPointExtension>
            <ns3:atemp>17.0</ns3:atemp>
          </ns3:TrackPointExtension>
        </extensions>
      </trkpt>
      <trkpt lat="42.6249848864972591400146484375" lon="19.88024580292403697967529296875">
        <ele>1744.4000244140625</ele>
        <time>2026-06-16T08:11:27.000Z</time>
        <extensions>
          <ns3:TrackPointExtension>
            <ns3:atemp>17.0</ns3:atemp>
          </ns3:TrackPointExtension>
        </extensions>
      </trkpt>
      <trkpt lat="42.6249848864972591400146484375" lon="19.88024580292403697967529296875">
        <ele>1744.4000244140625</ele>
        <time>2026-06-16T08:11:28.000Z</time>
        <extensions>
          <ns3:TrackPointExtension>
            <ns3:atemp>17.0</ns3:atemp>
          </ns3:TrackPointExtension>
        </extensions>
      </trkpt>
      <trkpt lat="42.6249848864972591400146484375" lon="19.88024580292403697967529296875">
        <ele>1744.4000244140625</ele>
        <time>2026-06-16T08:11:29.000Z</time>
        <extensions>
          <ns3:TrackPointExtension>
            <ns3:atemp>17.0</ns3:atemp>
          </ns3:TrackPointExtension>
        </extensions>
      </trkpt>
      <trkpt lat="42.6249848864972591400146484375" lon="19.88024580292403697967529296875">
        <ele>1744.4000244140625</ele>
        <time>2026-06-16T08:11:30.000Z</time>
        <extensions>
          <ns3:TrackPointExtension>
            <ns3:atemp>17.0</ns3:atemp>
          </ns3:TrackPointExtension>
        </extensions>
      </trkpt>
      <trkpt lat="42.6249848864972591400146484375" lon="19.88024580292403697967529296875">
        <ele>1744.4000244140625</ele>
        <time>2026-06-16T08:11:31.000Z</time>
        <extensions>
          <ns3:TrackPointExtension>
            <ns3:atemp>17.0</ns3:atemp>
          </ns3:TrackPointExtension>
        </extensions>
      </trkpt>
      <trkpt lat="42.6249848864972591400146484375" lon="19.88024580292403697967529296875">
        <ele>1744.4000244140625</ele>
        <time>2026-06-16T08:11:32.000Z</time>
        <extensions>
          <ns3:TrackPointExtension>
            <ns3:atemp>17.0</ns3:atemp>
          </ns3:TrackPointExtension>
        </extensions>
      </trkpt>
      <trkpt lat="42.6249848864972591400146484375" lon="19.88024580292403697967529296875">
        <ele>1744.4000244140625</ele>
        <time>2026-06-16T08:11:33.000Z</time>
        <extensions>
          <ns3:TrackPointExtension>
            <ns3:atemp>17.0</ns3:atemp>
          </ns3:TrackPointExtension>
        </extensions>
      </trkpt>
      <trkpt lat="42.6249848864972591400146484375" lon="19.88024580292403697967529296875">
        <ele>1744.5999755859375</ele>
        <time>2026-06-16T08:11:34.000Z</time>
        <extensions>
          <ns3:TrackPointExtension>
            <ns3:atemp>17.0</ns3:atemp>
          </ns3:TrackPointExtension>
        </extensions>
      </trkpt>
      <trkpt lat="42.6249848864972591400146484375" lon="19.88024580292403697967529296875">
        <ele>1744.5999755859375</ele>
        <time>2026-06-16T08:11:35.000Z</time>
        <extensions>
          <ns3:TrackPointExtension>
            <ns3:atemp>17.0</ns3:atemp>
          </ns3:TrackPointExtension>
        </extensions>
      </trkpt>
      <trkpt lat="42.6249848864972591400146484375" lon="19.88024580292403697967529296875">
        <ele>1744.5999755859375</ele>
        <time>2026-06-16T08:11:36.000Z</time>
        <extensions>
          <ns3:TrackPointExtension>
            <ns3:atemp>17.0</ns3:atemp>
          </ns3:TrackPointExtension>
        </extensions>
      </trkpt>
      <trkpt lat="42.6249848864972591400146484375" lon="19.88024580292403697967529296875">
        <ele>1744.5999755859375</ele>
        <time>2026-06-16T08:11:37.000Z</time>
        <extensions>
          <ns3:TrackPointExtension>
            <ns3:atemp>17.0</ns3:atemp>
          </ns3:TrackPointExtension>
        </extensions>
      </trkpt>
      <trkpt lat="42.6249848864972591400146484375" lon="19.88024580292403697967529296875">
        <ele>1744.5999755859375</ele>
        <time>2026-06-16T08:11:38.000Z</time>
        <extensions>
          <ns3:TrackPointExtension>
            <ns3:atemp>17.0</ns3:atemp>
          </ns3:TrackPointExtension>
        </extensions>
      </trkpt>
      <trkpt lat="42.6249848864972591400146484375" lon="19.88024580292403697967529296875">
        <ele>1744.5999755859375</ele>
        <time>2026-06-16T08:11:39.000Z</time>
        <extensions>
          <ns3:TrackPointExtension>
            <ns3:atemp>17.0</ns3:atemp>
          </ns3:TrackPointExtension>
        </extensions>
      </trkpt>
      <trkpt lat="42.6249848864972591400146484375" lon="19.88024580292403697967529296875">
        <ele>1744.5999755859375</ele>
        <time>2026-06-16T08:11:40.000Z</time>
        <extensions>
          <ns3:TrackPointExtension>
            <ns3:atemp>17.0</ns3:atemp>
          </ns3:TrackPointExtension>
        </extensions>
      </trkpt>
      <trkpt lat="42.6249848864972591400146484375" lon="19.88024580292403697967529296875">
        <ele>1744.5999755859375</ele>
        <time>2026-06-16T08:11:41.000Z</time>
        <extensions>
          <ns3:TrackPointExtension>
            <ns3:atemp>17.0</ns3:atemp>
          </ns3:TrackPointExtension>
        </extensions>
      </trkpt>
      <trkpt lat="42.6249848864972591400146484375" lon="19.88024580292403697967529296875">
        <ele>1744.5999755859375</ele>
        <time>2026-06-16T08:11:42.000Z</time>
        <extensions>
          <ns3:TrackPointExtension>
            <ns3:atemp>17.0</ns3:atemp>
          </ns3:TrackPointExtension>
        </extensions>
      </trkpt>
      <trkpt lat="42.6249848864972591400146484375" lon="19.88024580292403697967529296875">
        <ele>1744.5999755859375</ele>
        <time>2026-06-16T08:11:43.000Z</time>
        <extensions>
          <ns3:TrackPointExtension>
            <ns3:atemp>17.0</ns3:atemp>
          </ns3:TrackPointExtension>
        </extensions>
      </trkpt>
      <trkpt lat="42.6249848864972591400146484375" lon="19.88024580292403697967529296875">
        <ele>1744.5999755859375</ele>
        <time>2026-06-16T08:11:44.000Z</time>
        <extensions>
          <ns3:TrackPointExtension>
            <ns3:atemp>17.0</ns3:atemp>
          </ns3:TrackPointExtension>
        </extensions>
      </trkpt>
      <trkpt lat="42.6249848864972591400146484375" lon="19.88024580292403697967529296875">
        <ele>1744.5999755859375</ele>
        <time>2026-06-16T08:11:45.000Z</time>
        <extensions>
          <ns3:TrackPointExtension>
            <ns3:atemp>17.0</ns3:atemp>
          </ns3:TrackPointExtension>
        </extensions>
      </trkpt>
      <trkpt lat="42.6249848864972591400146484375" lon="19.88024580292403697967529296875">
        <ele>1744.5999755859375</ele>
        <time>2026-06-16T08:11:46.000Z</time>
        <extensions>
          <ns3:TrackPointExtension>
            <ns3:atemp>17.0</ns3:atemp>
          </ns3:TrackPointExtension>
        </extensions>
      </trkpt>
      <trkpt lat="42.6249848864972591400146484375" lon="19.88024580292403697967529296875">
        <ele>1744.5999755859375</ele>
        <time>2026-06-16T08:11:47.000Z</time>
        <extensions>
          <ns3:TrackPointExtension>
            <ns3:atemp>17.0</ns3:atemp>
          </ns3:TrackPointExtension>
        </extensions>
      </trkpt>
      <trkpt lat="42.6249848864972591400146484375" lon="19.88024580292403697967529296875">
        <ele>1744.5999755859375</ele>
        <time>2026-06-16T08:11:48.000Z</time>
        <extensions>
          <ns3:TrackPointExtension>
            <ns3:atemp>17.0</ns3:atemp>
          </ns3:TrackPointExtension>
        </extensions>
      </trkpt>
      <trkpt lat="42.6249848864972591400146484375" lon="19.88024580292403697967529296875">
        <ele>1744.800048828125</ele>
        <time>2026-06-16T08:11:49.000Z</time>
        <extensions>
          <ns3:TrackPointExtension>
            <ns3:atemp>17.0</ns3:atemp>
          </ns3:TrackPointExtension>
        </extensions>
      </trkpt>
      <trkpt lat="42.6249848864972591400146484375" lon="19.88024580292403697967529296875">
        <ele>1744.800048828125</ele>
        <time>2026-06-16T08:11:50.000Z</time>
        <extensions>
          <ns3:TrackPointExtension>
            <ns3:atemp>17.0</ns3:atemp>
          </ns3:TrackPointExtension>
        </extensions>
      </trkpt>
      <trkpt lat="42.6249848864972591400146484375" lon="19.88024580292403697967529296875">
        <ele>1744.800048828125</ele>
        <time>2026-06-16T08:11:51.000Z</time>
        <extensions>
          <ns3:TrackPointExtension>
            <ns3:atemp>17.0</ns3:atemp>
          </ns3:TrackPointExtension>
        </extensions>
      </trkpt>
      <trkpt lat="42.6249848864972591400146484375" lon="19.88024580292403697967529296875">
        <ele>1744.800048828125</ele>
        <time>2026-06-16T08:11:52.000Z</time>
        <extensions>
          <ns3:TrackPointExtension>
            <ns3:atemp>17.0</ns3:atemp>
          </ns3:TrackPointExtension>
        </extensions>
      </trkpt>
      <trkpt lat="42.6249848864972591400146484375" lon="19.88024580292403697967529296875">
        <ele>1744.800048828125</ele>
        <time>2026-06-16T08:11:53.000Z</time>
        <extensions>
          <ns3:TrackPointExtension>
            <ns3:atemp>17.0</ns3:atemp>
          </ns3:TrackPointExtension>
        </extensions>
      </trkpt>
      <trkpt lat="42.6249848864972591400146484375" lon="19.88024580292403697967529296875">
        <ele>1744.800048828125</ele>
        <time>2026-06-16T08:11:54.000Z</time>
        <extensions>
          <ns3:TrackPointExtension>
            <ns3:atemp>17.0</ns3:atemp>
          </ns3:TrackPointExtension>
        </extensions>
      </trkpt>
      <trkpt lat="42.6249848864972591400146484375" lon="19.88024580292403697967529296875">
        <ele>1744.800048828125</ele>
        <time>2026-06-16T08:11:55.000Z</time>
        <extensions>
          <ns3:TrackPointExtension>
            <ns3:atemp>17.0</ns3:atemp>
          </ns3:TrackPointExtension>
        </extensions>
      </trkpt>
      <trkpt lat="42.6249848864972591400146484375" lon="19.88024580292403697967529296875">
        <ele>1744.800048828125</ele>
        <time>2026-06-16T08:11:56.000Z</time>
        <extensions>
          <ns3:TrackPointExtension>
            <ns3:atemp>17.0</ns3:atemp>
          </ns3:TrackPointExtension>
        </extensions>
      </trkpt>
      <trkpt lat="42.6249848864972591400146484375" lon="19.88024580292403697967529296875">
        <ele>1744.800048828125</ele>
        <time>2026-06-16T08:11:57.000Z</time>
        <extensions>
          <ns3:TrackPointExtension>
            <ns3:atemp>17.0</ns3:atemp>
          </ns3:TrackPointExtension>
        </extensions>
      </trkpt>
      <trkpt lat="42.6249848864972591400146484375" lon="19.88024580292403697967529296875">
        <ele>1744.800048828125</ele>
        <time>2026-06-16T08:11:58.000Z</time>
        <extensions>
          <ns3:TrackPointExtension>
            <ns3:atemp>17.0</ns3:atemp>
          </ns3:TrackPointExtension>
        </extensions>
      </trkpt>
      <trkpt lat="42.6249848864972591400146484375" lon="19.88024580292403697967529296875">
        <ele>1744.800048828125</ele>
        <time>2026-06-16T08:11:59.000Z</time>
        <extensions>
          <ns3:TrackPointExtension>
            <ns3:atemp>17.0</ns3:atemp>
          </ns3:TrackPointExtension>
        </extensions>
      </trkpt>
      <trkpt lat="42.6249848864972591400146484375" lon="19.88024580292403697967529296875">
        <ele>1744.800048828125</ele>
        <time>2026-06-16T08:12:00.000Z</time>
        <extensions>
          <ns3:TrackPointExtension>
            <ns3:atemp>17.0</ns3:atemp>
          </ns3:TrackPointExtension>
        </extensions>
      </trkpt>
      <trkpt lat="42.6249848864972591400146484375" lon="19.88024580292403697967529296875">
        <ele>1744.800048828125</ele>
        <time>2026-06-16T08:12:01.000Z</time>
        <extensions>
          <ns3:TrackPointExtension>
            <ns3:atemp>17.0</ns3:atemp>
          </ns3:TrackPointExtension>
        </extensions>
      </trkpt>
      <trkpt lat="42.6249848864972591400146484375" lon="19.88024580292403697967529296875">
        <ele>1744.800048828125</ele>
        <time>2026-06-16T08:12:02.000Z</time>
        <extensions>
          <ns3:TrackPointExtension>
            <ns3:atemp>17.0</ns3:atemp>
          </ns3:TrackPointExtension>
        </extensions>
      </trkpt>
      <trkpt lat="42.6249848864972591400146484375" lon="19.88024580292403697967529296875">
        <ele>1744.800048828125</ele>
        <time>2026-06-16T08:12:03.000Z</time>
        <extensions>
          <ns3:TrackPointExtension>
            <ns3:atemp>17.0</ns3:atemp>
          </ns3:TrackPointExtension>
        </extensions>
      </trkpt>
      <trkpt lat="42.6249848864972591400146484375" lon="19.88024580292403697967529296875">
        <ele>1744.800048828125</ele>
        <time>2026-06-16T08:12:04.000Z</time>
        <extensions>
          <ns3:TrackPointExtension>
            <ns3:atemp>17.0</ns3:atemp>
          </ns3:TrackPointExtension>
        </extensions>
      </trkpt>
      <trkpt lat="42.6249848864972591400146484375" lon="19.88024580292403697967529296875">
        <ele>1744.800048828125</ele>
        <time>2026-06-16T08:12:05.000Z</time>
        <extensions>
          <ns3:TrackPointExtension>
            <ns3:atemp>17.0</ns3:atemp>
          </ns3:TrackPointExtension>
        </extensions>
      </trkpt>
      <trkpt lat="42.6249848864972591400146484375" lon="19.88024580292403697967529296875">
        <ele>1744.800048828125</ele>
        <time>2026-06-16T08:12:06.000Z</time>
        <extensions>
          <ns3:TrackPointExtension>
            <ns3:atemp>17.0</ns3:atemp>
          </ns3:TrackPointExtension>
        </extensions>
      </trkpt>
      <trkpt lat="42.6249848864972591400146484375" lon="19.88024580292403697967529296875">
        <ele>1745</ele>
        <time>2026-06-16T08:12:07.000Z</time>
        <extensions>
          <ns3:TrackPointExtension>
            <ns3:atemp>17.0</ns3:atemp>
          </ns3:TrackPointExtension>
        </extensions>
      </trkpt>
      <trkpt lat="42.6249848864972591400146484375" lon="19.88024580292403697967529296875">
        <ele>1745</ele>
        <time>2026-06-16T08:12:08.000Z</time>
        <extensions>
          <ns3:TrackPointExtension>
            <ns3:atemp>17.0</ns3:atemp>
          </ns3:TrackPointExtension>
        </extensions>
      </trkpt>
      <trkpt lat="42.6249848864972591400146484375" lon="19.88024580292403697967529296875">
        <ele>1745</ele>
        <time>2026-06-16T08:12:09.000Z</time>
        <extensions>
          <ns3:TrackPointExtension>
            <ns3:atemp>17.0</ns3:atemp>
          </ns3:TrackPointExtension>
        </extensions>
      </trkpt>
      <trkpt lat="42.6249848864972591400146484375" lon="19.88024580292403697967529296875">
        <ele>1745</ele>
        <time>2026-06-16T08:12:10.000Z</time>
        <extensions>
          <ns3:TrackPointExtension>
            <ns3:atemp>17.0</ns3:atemp>
          </ns3:TrackPointExtension>
        </extensions>
      </trkpt>
      <trkpt lat="42.6249848864972591400146484375" lon="19.88024580292403697967529296875">
        <ele>1745</ele>
        <time>2026-06-16T08:12:11.000Z</time>
        <extensions>
          <ns3:TrackPointExtension>
            <ns3:atemp>17.0</ns3:atemp>
          </ns3:TrackPointExtension>
        </extensions>
      </trkpt>
      <trkpt lat="42.6249848864972591400146484375" lon="19.88024580292403697967529296875">
        <ele>1745</ele>
        <time>2026-06-16T08:12:12.000Z</time>
        <extensions>
          <ns3:TrackPointExtension>
            <ns3:atemp>17.0</ns3:atemp>
          </ns3:TrackPointExtension>
        </extensions>
      </trkpt>
      <trkpt lat="42.6249848864972591400146484375" lon="19.88024580292403697967529296875">
        <ele>1745</ele>
        <time>2026-06-16T08:12:13.000Z</time>
        <extensions>
          <ns3:TrackPointExtension>
            <ns3:atemp>17.0</ns3:atemp>
          </ns3:TrackPointExtension>
        </extensions>
      </trkpt>
      <trkpt lat="42.6249848864972591400146484375" lon="19.88024580292403697967529296875">
        <ele>1745</ele>
        <time>2026-06-16T08:12:14.000Z</time>
        <extensions>
          <ns3:TrackPointExtension>
            <ns3:atemp>17.0</ns3:atemp>
          </ns3:TrackPointExtension>
        </extensions>
      </trkpt>
      <trkpt lat="42.6249848864972591400146484375" lon="19.88024580292403697967529296875">
        <ele>1745</ele>
        <time>2026-06-16T08:12:15.000Z</time>
        <extensions>
          <ns3:TrackPointExtension>
            <ns3:atemp>17.0</ns3:atemp>
          </ns3:TrackPointExtension>
        </extensions>
      </trkpt>
      <trkpt lat="42.6249848864972591400146484375" lon="19.88024580292403697967529296875">
        <ele>1745</ele>
        <time>2026-06-16T08:12:16.000Z</time>
        <extensions>
          <ns3:TrackPointExtension>
            <ns3:atemp>17.0</ns3:atemp>
          </ns3:TrackPointExtension>
        </extensions>
      </trkpt>
      <trkpt lat="42.6249848864972591400146484375" lon="19.88024580292403697967529296875">
        <ele>1745</ele>
        <time>2026-06-16T08:12:17.000Z</time>
        <extensions>
          <ns3:TrackPointExtension>
            <ns3:atemp>17.0</ns3:atemp>
          </ns3:TrackPointExtension>
        </extensions>
      </trkpt>
      <trkpt lat="42.6249848864972591400146484375" lon="19.88024580292403697967529296875">
        <ele>1745</ele>
        <time>2026-06-16T08:12:18.000Z</time>
        <extensions>
          <ns3:TrackPointExtension>
            <ns3:atemp>17.0</ns3:atemp>
          </ns3:TrackPointExtension>
        </extensions>
      </trkpt>
      <trkpt lat="42.6249848864972591400146484375" lon="19.88024580292403697967529296875">
        <ele>1745</ele>
        <time>2026-06-16T08:12:19.000Z</time>
        <extensions>
          <ns3:TrackPointExtension>
            <ns3:atemp>17.0</ns3:atemp>
          </ns3:TrackPointExtension>
        </extensions>
      </trkpt>
      <trkpt lat="42.6249848864972591400146484375" lon="19.88024580292403697967529296875">
        <ele>1745</ele>
        <time>2026-06-16T08:12:20.000Z</time>
        <extensions>
          <ns3:TrackPointExtension>
            <ns3:atemp>17.0</ns3:atemp>
          </ns3:TrackPointExtension>
        </extensions>
      </trkpt>
      <trkpt lat="42.6249848864972591400146484375" lon="19.88024580292403697967529296875">
        <ele>1745</ele>
        <time>2026-06-16T08:12:21.000Z</time>
        <extensions>
          <ns3:TrackPointExtension>
            <ns3:atemp>17.0</ns3:atemp>
          </ns3:TrackPointExtension>
        </extensions>
      </trkpt>
      <trkpt lat="42.6249848864972591400146484375" lon="19.88024580292403697967529296875">
        <ele>1745</ele>
        <time>2026-06-16T08:12:22.000Z</time>
        <extensions>
          <ns3:TrackPointExtension>
            <ns3:atemp>17.0</ns3:atemp>
          </ns3:TrackPointExtension>
        </extensions>
      </trkpt>
      <trkpt lat="42.6249848864972591400146484375" lon="19.88024580292403697967529296875">
        <ele>1745</ele>
        <time>2026-06-16T08:12:23.000Z</time>
        <extensions>
          <ns3:TrackPointExtension>
            <ns3:atemp>17.0</ns3:atemp>
          </ns3:TrackPointExtension>
        </extensions>
      </trkpt>
      <trkpt lat="42.6249848864972591400146484375" lon="19.88024580292403697967529296875">
        <ele>1745</ele>
        <time>2026-06-16T08:12:24.000Z</time>
        <extensions>
          <ns3:TrackPointExtension>
            <ns3:atemp>17.0</ns3:atemp>
          </ns3:TrackPointExtension>
        </extensions>
      </trkpt>
      <trkpt lat="42.6249848864972591400146484375" lon="19.88024580292403697967529296875">
        <ele>1745</ele>
        <time>2026-06-16T08:12:25.000Z</time>
        <extensions>
          <ns3:TrackPointExtension>
            <ns3:atemp>17.0</ns3:atemp>
          </ns3:TrackPointExtension>
        </extensions>
      </trkpt>
      <trkpt lat="42.6249848864972591400146484375" lon="19.88024580292403697967529296875">
        <ele>1745</ele>
        <time>2026-06-16T08:12:26.000Z</time>
        <extensions>
          <ns3:TrackPointExtension>
            <ns3:atemp>17.0</ns3:atemp>
          </ns3:TrackPointExtension>
        </extensions>
      </trkpt>
      <trkpt lat="42.6249848864972591400146484375" lon="19.88024580292403697967529296875">
        <ele>1745.199951171875</ele>
        <time>2026-06-16T08:12:27.000Z</time>
        <extensions>
          <ns3:TrackPointExtension>
            <ns3:atemp>17.0</ns3:atemp>
          </ns3:TrackPointExtension>
        </extensions>
      </trkpt>
      <trkpt lat="42.6249848864972591400146484375" lon="19.88024580292403697967529296875">
        <ele>1745.199951171875</ele>
        <time>2026-06-16T08:12:28.000Z</time>
        <extensions>
          <ns3:TrackPointExtension>
            <ns3:atemp>17.0</ns3:atemp>
          </ns3:TrackPointExtension>
        </extensions>
      </trkpt>
      <trkpt lat="42.6249848864972591400146484375" lon="19.88024580292403697967529296875">
        <ele>1745.199951171875</ele>
        <time>2026-06-16T08:12:29.000Z</time>
        <extensions>
          <ns3:TrackPointExtension>
            <ns3:atemp>17.0</ns3:atemp>
          </ns3:TrackPointExtension>
        </extensions>
      </trkpt>
      <trkpt lat="42.6249848864972591400146484375" lon="19.88024580292403697967529296875">
        <ele>1745.199951171875</ele>
        <time>2026-06-16T08:12:30.000Z</time>
        <extensions>
          <ns3:TrackPointExtension>
            <ns3:atemp>17.0</ns3:atemp>
          </ns3:TrackPointExtension>
        </extensions>
      </trkpt>
      <trkpt lat="42.6249848864972591400146484375" lon="19.88024580292403697967529296875">
        <ele>1745.199951171875</ele>
        <time>2026-06-16T08:12:31.000Z</time>
        <extensions>
          <ns3:TrackPointExtension>
            <ns3:atemp>17.0</ns3:atemp>
          </ns3:TrackPointExtension>
        </extensions>
      </trkpt>
      <trkpt lat="42.6249848864972591400146484375" lon="19.88024580292403697967529296875">
        <ele>1745.199951171875</ele>
        <time>2026-06-16T08:12:32.000Z</time>
        <extensions>
          <ns3:TrackPointExtension>
            <ns3:atemp>17.0</ns3:atemp>
          </ns3:TrackPointExtension>
        </extensions>
      </trkpt>
      <trkpt lat="42.6249848864972591400146484375" lon="19.88024580292403697967529296875">
        <ele>1745.199951171875</ele>
        <time>2026-06-16T08:12:33.000Z</time>
        <extensions>
          <ns3:TrackPointExtension>
            <ns3:atemp>18.0</ns3:atemp>
          </ns3:TrackPointExtension>
        </extensions>
      </trkpt>
      <trkpt lat="42.6249848864972591400146484375" lon="19.88024580292403697967529296875">
        <ele>1745.199951171875</ele>
        <time>2026-06-16T08:12:34.000Z</time>
        <extensions>
          <ns3:TrackPointExtension>
            <ns3:atemp>18.0</ns3:atemp>
          </ns3:TrackPointExtension>
        </extensions>
      </trkpt>
      <trkpt lat="42.6249848864972591400146484375" lon="19.88024580292403697967529296875">
        <ele>1745.199951171875</ele>
        <time>2026-06-16T08:12:35.000Z</time>
        <extensions>
          <ns3:TrackPointExtension>
            <ns3:atemp>17.0</ns3:atemp>
          </ns3:TrackPointExtension>
        </extensions>
      </trkpt>
      <trkpt lat="42.6249848864972591400146484375" lon="19.88024580292403697967529296875">
        <ele>1745.199951171875</ele>
        <time>2026-06-16T08:12:36.000Z</time>
        <extensions>
          <ns3:TrackPointExtension>
            <ns3:atemp>17.0</ns3:atemp>
          </ns3:TrackPointExtension>
        </extensions>
      </trkpt>
      <trkpt lat="42.6249848864972591400146484375" lon="19.88024580292403697967529296875">
        <ele>1745.199951171875</ele>
        <time>2026-06-16T08:12:37.000Z</time>
        <extensions>
          <ns3:TrackPointExtension>
            <ns3:atemp>17.0</ns3:atemp>
          </ns3:TrackPointExtension>
        </extensions>
      </trkpt>
      <trkpt lat="42.6249848864972591400146484375" lon="19.88024580292403697967529296875">
        <ele>1745.199951171875</ele>
        <time>2026-06-16T08:12:38.000Z</time>
        <extensions>
          <ns3:TrackPointExtension>
            <ns3:atemp>17.0</ns3:atemp>
          </ns3:TrackPointExtension>
        </extensions>
      </trkpt>
      <trkpt lat="42.6249848864972591400146484375" lon="19.88024580292403697967529296875">
        <ele>1745.199951171875</ele>
        <time>2026-06-16T08:12:39.000Z</time>
        <extensions>
          <ns3:TrackPointExtension>
            <ns3:atemp>18.0</ns3:atemp>
          </ns3:TrackPointExtension>
        </extensions>
      </trkpt>
      <trkpt lat="42.6249848864972591400146484375" lon="19.88024580292403697967529296875">
        <ele>1745.4000244140625</ele>
        <time>2026-06-16T08:12:40.000Z</time>
        <extensions>
          <ns3:TrackPointExtension>
            <ns3:atemp>17.0</ns3:atemp>
          </ns3:TrackPointExtension>
        </extensions>
      </trkpt>
      <trkpt lat="42.6249848864972591400146484375" lon="19.88024580292403697967529296875">
        <ele>1745.4000244140625</ele>
        <time>2026-06-16T08:12:41.000Z</time>
        <extensions>
          <ns3:TrackPointExtension>
            <ns3:atemp>17.0</ns3:atemp>
          </ns3:TrackPointExtension>
        </extensions>
      </trkpt>
      <trkpt lat="42.6249848864972591400146484375" lon="19.88024580292403697967529296875">
        <ele>1745.4000244140625</ele>
        <time>2026-06-16T08:12:42.000Z</time>
        <extensions>
          <ns3:TrackPointExtension>
            <ns3:atemp>17.0</ns3:atemp>
          </ns3:TrackPointExtension>
        </extensions>
      </trkpt>
      <trkpt lat="42.6249848864972591400146484375" lon="19.88024580292403697967529296875">
        <ele>1745.4000244140625</ele>
        <time>2026-06-16T08:12:43.000Z</time>
        <extensions>
          <ns3:TrackPointExtension>
            <ns3:atemp>17.0</ns3:atemp>
          </ns3:TrackPointExtension>
        </extensions>
      </trkpt>
      <trkpt lat="42.6249848864972591400146484375" lon="19.88024580292403697967529296875">
        <ele>1745.4000244140625</ele>
        <time>2026-06-16T08:12:44.000Z</time>
        <extensions>
          <ns3:TrackPointExtension>
            <ns3:atemp>17.0</ns3:atemp>
          </ns3:TrackPointExtension>
        </extensions>
      </trkpt>
      <trkpt lat="42.6249848864972591400146484375" lon="19.88024580292403697967529296875">
        <ele>1745.4000244140625</ele>
        <time>2026-06-16T08:12:45.000Z</time>
        <extensions>
          <ns3:TrackPointExtension>
            <ns3:atemp>17.0</ns3:atemp>
          </ns3:TrackPointExtension>
        </extensions>
      </trkpt>
      <trkpt lat="42.6249848864972591400146484375" lon="19.88024580292403697967529296875">
        <ele>1745.4000244140625</ele>
        <time>2026-06-16T08:12:46.000Z</time>
        <extensions>
          <ns3:TrackPointExtension>
            <ns3:atemp>17.0</ns3:atemp>
          </ns3:TrackPointExtension>
        </extensions>
      </trkpt>
      <trkpt lat="42.6249848864972591400146484375" lon="19.88024580292403697967529296875">
        <ele>1745.4000244140625</ele>
        <time>2026-06-16T08:12:47.000Z</time>
        <extensions>
          <ns3:TrackPointExtension>
            <ns3:atemp>17.0</ns3:atemp>
          </ns3:TrackPointExtension>
        </extensions>
      </trkpt>
      <trkpt lat="42.6249848864972591400146484375" lon="19.88024580292403697967529296875">
        <ele>1745.4000244140625</ele>
        <time>2026-06-16T08:12:48.000Z</time>
        <extensions>
          <ns3:TrackPointExtension>
            <ns3:atemp>17.0</ns3:atemp>
          </ns3:TrackPointExtension>
        </extensions>
      </trkpt>
      <trkpt lat="42.6249848864972591400146484375" lon="19.88024580292403697967529296875">
        <ele>1745.4000244140625</ele>
        <time>2026-06-16T08:12:49.000Z</time>
        <extensions>
          <ns3:TrackPointExtension>
            <ns3:atemp>17.0</ns3:atemp>
          </ns3:TrackPointExtension>
        </extensions>
      </trkpt>
      <trkpt lat="42.6249848864972591400146484375" lon="19.88024580292403697967529296875">
        <ele>1745.4000244140625</ele>
        <time>2026-06-16T08:12:50.000Z</time>
        <extensions>
          <ns3:TrackPointExtension>
            <ns3:atemp>17.0</ns3:atemp>
          </ns3:TrackPointExtension>
        </extensions>
      </trkpt>
      <trkpt lat="42.6249848864972591400146484375" lon="19.88024580292403697967529296875">
        <ele>1745.4000244140625</ele>
        <time>2026-06-16T08:12:51.000Z</time>
        <extensions>
          <ns3:TrackPointExtension>
            <ns3:atemp>17.0</ns3:atemp>
          </ns3:TrackPointExtension>
        </extensions>
      </trkpt>
      <trkpt lat="42.6249848864972591400146484375" lon="19.88024580292403697967529296875">
        <ele>1745.4000244140625</ele>
        <time>2026-06-16T08:12:52.000Z</time>
        <extensions>
          <ns3:TrackPointExtension>
            <ns3:atemp>17.0</ns3:atemp>
          </ns3:TrackPointExtension>
        </extensions>
      </trkpt>
      <trkpt lat="42.6249848864972591400146484375" lon="19.88024580292403697967529296875">
        <ele>1745.5999755859375</ele>
        <time>2026-06-16T08:12:53.000Z</time>
        <extensions>
          <ns3:TrackPointExtension>
            <ns3:atemp>17.0</ns3:atemp>
          </ns3:TrackPointExtension>
        </extensions>
      </trkpt>
      <trkpt lat="42.6249848864972591400146484375" lon="19.88024580292403697967529296875">
        <ele>1745.5999755859375</ele>
        <time>2026-06-16T08:12:54.000Z</time>
        <extensions>
          <ns3:TrackPointExtension>
            <ns3:atemp>17.0</ns3:atemp>
          </ns3:TrackPointExtension>
        </extensions>
      </trkpt>
      <trkpt lat="42.6249848864972591400146484375" lon="19.88024580292403697967529296875">
        <ele>1745.5999755859375</ele>
        <time>2026-06-16T08:12:55.000Z</time>
        <extensions>
          <ns3:TrackPointExtension>
            <ns3:atemp>17.0</ns3:atemp>
          </ns3:TrackPointExtension>
        </extensions>
      </trkpt>
      <trkpt lat="42.6249848864972591400146484375" lon="19.88024580292403697967529296875">
        <ele>1745.5999755859375</ele>
        <time>2026-06-16T08:12:56.000Z</time>
        <extensions>
          <ns3:TrackPointExtension>
            <ns3:atemp>17.0</ns3:atemp>
          </ns3:TrackPointExtension>
        </extensions>
      </trkpt>
      <trkpt lat="42.6249848864972591400146484375" lon="19.88024580292403697967529296875">
        <ele>1745.5999755859375</ele>
        <time>2026-06-16T08:12:57.000Z</time>
        <extensions>
          <ns3:TrackPointExtension>
            <ns3:atemp>17.0</ns3:atemp>
          </ns3:TrackPointExtension>
        </extensions>
      </trkpt>
      <trkpt lat="42.6249848864972591400146484375" lon="19.88024580292403697967529296875">
        <ele>1745.5999755859375</ele>
        <time>2026-06-16T08:12:58.000Z</time>
        <extensions>
          <ns3:TrackPointExtension>
            <ns3:atemp>17.0</ns3:atemp>
          </ns3:TrackPointExtension>
        </extensions>
      </trkpt>
      <trkpt lat="42.6249848864972591400146484375" lon="19.88024580292403697967529296875">
        <ele>1745.5999755859375</ele>
        <time>2026-06-16T08:12:59.000Z</time>
        <extensions>
          <ns3:TrackPointExtension>
            <ns3:atemp>17.0</ns3:atemp>
          </ns3:TrackPointExtension>
        </extensions>
      </trkpt>
      <trkpt lat="42.6249848864972591400146484375" lon="19.88024580292403697967529296875">
        <ele>1745.5999755859375</ele>
        <time>2026-06-16T08:13:00.000Z</time>
        <extensions>
          <ns3:TrackPointExtension>
            <ns3:atemp>17.0</ns3:atemp>
          </ns3:TrackPointExtension>
        </extensions>
      </trkpt>
      <trkpt lat="42.6249848864972591400146484375" lon="19.88024580292403697967529296875">
        <ele>1745.4000244140625</ele>
        <time>2026-06-16T08:13:01.000Z</time>
        <extensions>
          <ns3:TrackPointExtension>
            <ns3:atemp>17.0</ns3:atemp>
          </ns3:TrackPointExtension>
        </extensions>
      </trkpt>
      <trkpt lat="42.6249848864972591400146484375" lon="19.88024580292403697967529296875">
        <ele>1745.4000244140625</ele>
        <time>2026-06-16T08:13:02.000Z</time>
        <extensions>
          <ns3:TrackPointExtension>
            <ns3:atemp>17.0</ns3:atemp>
          </ns3:TrackPointExtension>
        </extensions>
      </trkpt>
      <trkpt lat="42.6249848864972591400146484375" lon="19.88024580292403697967529296875">
        <ele>1745.4000244140625</ele>
        <time>2026-06-16T08:13:03.000Z</time>
        <extensions>
          <ns3:TrackPointExtension>
            <ns3:atemp>17.0</ns3:atemp>
          </ns3:TrackPointExtension>
        </extensions>
      </trkpt>
      <trkpt lat="42.6249848864972591400146484375" lon="19.88024580292403697967529296875">
        <ele>1745.4000244140625</ele>
        <time>2026-06-16T08:13:04.000Z</time>
        <extensions>
          <ns3:TrackPointExtension>
            <ns3:atemp>17.0</ns3:atemp>
          </ns3:TrackPointExtension>
        </extensions>
      </trkpt>
      <trkpt lat="42.6249848864972591400146484375" lon="19.88024580292403697967529296875">
        <ele>1745.4000244140625</ele>
        <time>2026-06-16T08:13:05.000Z</time>
        <extensions>
          <ns3:TrackPointExtension>
            <ns3:atemp>17.0</ns3:atemp>
          </ns3:TrackPointExtension>
        </extensions>
      </trkpt>
      <trkpt lat="42.6249848864972591400146484375" lon="19.88024580292403697967529296875">
        <ele>1745.4000244140625</ele>
        <time>2026-06-16T08:13:06.000Z</time>
        <extensions>
          <ns3:TrackPointExtension>
            <ns3:atemp>17.0</ns3:atemp>
          </ns3:TrackPointExtension>
        </extensions>
      </trkpt>
      <trkpt lat="42.6249848864972591400146484375" lon="19.88024580292403697967529296875">
        <ele>1745.4000244140625</ele>
        <time>2026-06-16T08:13:07.000Z</time>
        <extensions>
          <ns3:TrackPointExtension>
            <ns3:atemp>17.0</ns3:atemp>
          </ns3:TrackPointExtension>
        </extensions>
      </trkpt>
      <trkpt lat="42.6249848864972591400146484375" lon="19.88024580292403697967529296875">
        <ele>1745.4000244140625</ele>
        <time>2026-06-16T08:13:08.000Z</time>
        <extensions>
          <ns3:TrackPointExtension>
            <ns3:atemp>17.0</ns3:atemp>
          </ns3:TrackPointExtension>
        </extensions>
      </trkpt>
      <trkpt lat="42.6249848864972591400146484375" lon="19.88024580292403697967529296875">
        <ele>1745.4000244140625</ele>
        <time>2026-06-16T08:13:09.000Z</time>
        <extensions>
          <ns3:TrackPointExtension>
            <ns3:atemp>17.0</ns3:atemp>
          </ns3:TrackPointExtension>
        </extensions>
      </trkpt>
      <trkpt lat="42.6249848864972591400146484375" lon="19.88024580292403697967529296875">
        <ele>1745.4000244140625</ele>
        <time>2026-06-16T08:13:10.000Z</time>
        <extensions>
          <ns3:TrackPointExtension>
            <ns3:atemp>17.0</ns3:atemp>
          </ns3:TrackPointExtension>
        </extensions>
      </trkpt>
      <trkpt lat="42.6249848864972591400146484375" lon="19.88024580292403697967529296875">
        <ele>1745.4000244140625</ele>
        <time>2026-06-16T08:13:11.000Z</time>
        <extensions>
          <ns3:TrackPointExtension>
            <ns3:atemp>17.0</ns3:atemp>
          </ns3:TrackPointExtension>
        </extensions>
      </trkpt>
      <trkpt lat="42.6249848864972591400146484375" lon="19.88024580292403697967529296875">
        <ele>1745.4000244140625</ele>
        <time>2026-06-16T08:13:12.000Z</time>
        <extensions>
          <ns3:TrackPointExtension>
            <ns3:atemp>17.0</ns3:atemp>
          </ns3:TrackPointExtension>
        </extensions>
      </trkpt>
      <trkpt lat="42.6249848864972591400146484375" lon="19.88024580292403697967529296875">
        <ele>1745.5999755859375</ele>
        <time>2026-06-16T08:13:13.000Z</time>
        <extensions>
          <ns3:TrackPointExtension>
            <ns3:atemp>17.0</ns3:atemp>
          </ns3:TrackPointExtension>
        </extensions>
      </trkpt>
      <trkpt lat="42.6249848864972591400146484375" lon="19.88024580292403697967529296875">
        <ele>1745.5999755859375</ele>
        <time>2026-06-16T08:13:14.000Z</time>
        <extensions>
          <ns3:TrackPointExtension>
            <ns3:atemp>17.0</ns3:atemp>
          </ns3:TrackPointExtension>
        </extensions>
      </trkpt>
      <trkpt lat="42.6249848864972591400146484375" lon="19.88024580292403697967529296875">
        <ele>1745.5999755859375</ele>
        <time>2026-06-16T08:13:15.000Z</time>
        <extensions>
          <ns3:TrackPointExtension>
            <ns3:atemp>17.0</ns3:atemp>
          </ns3:TrackPointExtension>
        </extensions>
      </trkpt>
      <trkpt lat="42.6249848864972591400146484375" lon="19.88024580292403697967529296875">
        <ele>1745.5999755859375</ele>
        <time>2026-06-16T08:13:16.000Z</time>
        <extensions>
          <ns3:TrackPointExtension>
            <ns3:atemp>17.0</ns3:atemp>
          </ns3:TrackPointExtension>
        </extensions>
      </trkpt>
      <trkpt lat="42.6249848864972591400146484375" lon="19.88024580292403697967529296875">
        <ele>1745.5999755859375</ele>
        <time>2026-06-16T08:13:17.000Z</time>
        <extensions>
          <ns3:TrackPointExtension>
            <ns3:atemp>17.0</ns3:atemp>
          </ns3:TrackPointExtension>
        </extensions>
      </trkpt>
      <trkpt lat="42.6249848864972591400146484375" lon="19.88024580292403697967529296875">
        <ele>1745.5999755859375</ele>
        <time>2026-06-16T08:13:18.000Z</time>
        <extensions>
          <ns3:TrackPointExtension>
            <ns3:atemp>17.0</ns3:atemp>
          </ns3:TrackPointExtension>
        </extensions>
      </trkpt>
      <trkpt lat="42.6249848864972591400146484375" lon="19.88024580292403697967529296875">
        <ele>1745.5999755859375</ele>
        <time>2026-06-16T08:13:19.000Z</time>
        <extensions>
          <ns3:TrackPointExtension>
            <ns3:atemp>17.0</ns3:atemp>
          </ns3:TrackPointExtension>
        </extensions>
      </trkpt>
      <trkpt lat="42.6249848864972591400146484375" lon="19.88024580292403697967529296875">
        <ele>1745.5999755859375</ele>
        <time>2026-06-16T08:13:20.000Z</time>
        <extensions>
          <ns3:TrackPointExtension>
            <ns3:atemp>17.0</ns3:atemp>
          </ns3:TrackPointExtension>
        </extensions>
      </trkpt>
      <trkpt lat="42.6249848864972591400146484375" lon="19.88024580292403697967529296875">
        <ele>1745.5999755859375</ele>
        <time>2026-06-16T08:13:21.000Z</time>
        <extensions>
          <ns3:TrackPointExtension>
            <ns3:atemp>17.0</ns3:atemp>
          </ns3:TrackPointExtension>
        </extensions>
      </trkpt>
      <trkpt lat="42.6249848864972591400146484375" lon="19.88024580292403697967529296875">
        <ele>1745.5999755859375</ele>
        <time>2026-06-16T08:13:22.000Z</time>
        <extensions>
          <ns3:TrackPointExtension>
            <ns3:atemp>17.0</ns3:atemp>
          </ns3:TrackPointExtension>
        </extensions>
      </trkpt>
      <trkpt lat="42.6249848864972591400146484375" lon="19.88024580292403697967529296875">
        <ele>1745.5999755859375</ele>
        <time>2026-06-16T08:13:23.000Z</time>
        <extensions>
          <ns3:TrackPointExtension>
            <ns3:atemp>17.0</ns3:atemp>
          </ns3:TrackPointExtension>
        </extensions>
      </trkpt>
      <trkpt lat="42.6249848864972591400146484375" lon="19.88024580292403697967529296875">
        <ele>1745.5999755859375</ele>
        <time>2026-06-16T08:13:24.000Z</time>
        <extensions>
          <ns3:TrackPointExtension>
            <ns3:atemp>18.0</ns3:atemp>
          </ns3:TrackPointExtension>
        </extensions>
      </trkpt>
      <trkpt lat="42.6249848864972591400146484375" lon="19.88024580292403697967529296875">
        <ele>1745.5999755859375</ele>
        <time>2026-06-16T08:13:25.000Z</time>
        <extensions>
          <ns3:TrackPointExtension>
            <ns3:atemp>17.0</ns3:atemp>
          </ns3:TrackPointExtension>
        </extensions>
      </trkpt>
      <trkpt lat="42.6249848864972591400146484375" lon="19.88024580292403697967529296875">
        <ele>1745.5999755859375</ele>
        <time>2026-06-16T08:13:26.000Z</time>
        <extensions>
          <ns3:TrackPointExtension>
            <ns3:atemp>17.0</ns3:atemp>
          </ns3:TrackPointExtension>
        </extensions>
      </trkpt>
      <trkpt lat="42.6249848864972591400146484375" lon="19.88024580292403697967529296875">
        <ele>1745.5999755859375</ele>
        <time>2026-06-16T08:13:27.000Z</time>
        <extensions>
          <ns3:TrackPointExtension>
            <ns3:atemp>17.0</ns3:atemp>
          </ns3:TrackPointExtension>
        </extensions>
      </trkpt>
      <trkpt lat="42.6249848864972591400146484375" lon="19.88024580292403697967529296875">
        <ele>1745.5999755859375</ele>
        <time>2026-06-16T08:13:28.000Z</time>
        <extensions>
          <ns3:TrackPointExtension>
            <ns3:atemp>17.0</ns3:atemp>
          </ns3:TrackPointExtension>
        </extensions>
      </trkpt>
      <trkpt lat="42.6249848864972591400146484375" lon="19.88024580292403697967529296875">
        <ele>1745.5999755859375</ele>
        <time>2026-06-16T08:13:29.000Z</time>
        <extensions>
          <ns3:TrackPointExtension>
            <ns3:atemp>17.0</ns3:atemp>
          </ns3:TrackPointExtension>
        </extensions>
      </trkpt>
      <trkpt lat="42.6249848864972591400146484375" lon="19.88024580292403697967529296875">
        <ele>1745.5999755859375</ele>
        <time>2026-06-16T08:13:30.000Z</time>
        <extensions>
          <ns3:TrackPointExtension>
            <ns3:atemp>17.0</ns3:atemp>
          </ns3:TrackPointExtension>
        </extensions>
      </trkpt>
      <trkpt lat="42.6249848864972591400146484375" lon="19.88024580292403697967529296875">
        <ele>1745.5999755859375</ele>
        <time>2026-06-16T08:13:31.000Z</time>
        <extensions>
          <ns3:TrackPointExtension>
            <ns3:atemp>17.0</ns3:atemp>
          </ns3:TrackPointExtension>
        </extensions>
      </trkpt>
      <trkpt lat="42.6249848864972591400146484375" lon="19.88024580292403697967529296875">
        <ele>1745.5999755859375</ele>
        <time>2026-06-16T08:13:32.000Z</time>
        <extensions>
          <ns3:TrackPointExtension>
            <ns3:atemp>17.0</ns3:atemp>
          </ns3:TrackPointExtension>
        </extensions>
      </trkpt>
      <trkpt lat="42.6249848864972591400146484375" lon="19.88024580292403697967529296875">
        <ele>1745.5999755859375</ele>
        <time>2026-06-16T08:13:33.000Z</time>
        <extensions>
          <ns3:TrackPointExtension>
            <ns3:atemp>17.0</ns3:atemp>
          </ns3:TrackPointExtension>
        </extensions>
      </trkpt>
      <trkpt lat="42.6249848864972591400146484375" lon="19.88024580292403697967529296875">
        <ele>1745.5999755859375</ele>
        <time>2026-06-16T08:13:34.000Z</time>
        <extensions>
          <ns3:TrackPointExtension>
            <ns3:atemp>17.0</ns3:atemp>
          </ns3:TrackPointExtension>
        </extensions>
      </trkpt>
      <trkpt lat="42.6249848864972591400146484375" lon="19.88024580292403697967529296875">
        <ele>1745.5999755859375</ele>
        <time>2026-06-16T08:13:35.000Z</time>
        <extensions>
          <ns3:TrackPointExtension>
            <ns3:atemp>17.0</ns3:atemp>
          </ns3:TrackPointExtension>
        </extensions>
      </trkpt>
      <trkpt lat="42.6249848864972591400146484375" lon="19.88024580292403697967529296875">
        <ele>1745.800048828125</ele>
        <time>2026-06-16T08:13:36.000Z</time>
        <extensions>
          <ns3:TrackPointExtension>
            <ns3:atemp>17.0</ns3:atemp>
          </ns3:TrackPointExtension>
        </extensions>
      </trkpt>
      <trkpt lat="42.6249848864972591400146484375" lon="19.88024580292403697967529296875">
        <ele>1745.800048828125</ele>
        <time>2026-06-16T08:13:37.000Z</time>
        <extensions>
          <ns3:TrackPointExtension>
            <ns3:atemp>17.0</ns3:atemp>
          </ns3:TrackPointExtension>
        </extensions>
      </trkpt>
      <trkpt lat="42.6249848864972591400146484375" lon="19.88024580292403697967529296875">
        <ele>1745.800048828125</ele>
        <time>2026-06-16T08:13:38.000Z</time>
        <extensions>
          <ns3:TrackPointExtension>
            <ns3:atemp>18.0</ns3:atemp>
          </ns3:TrackPointExtension>
        </extensions>
      </trkpt>
      <trkpt lat="42.6249848864972591400146484375" lon="19.88024580292403697967529296875">
        <ele>1745.800048828125</ele>
        <time>2026-06-16T08:13:39.000Z</time>
        <extensions>
          <ns3:TrackPointExtension>
            <ns3:atemp>17.0</ns3:atemp>
          </ns3:TrackPointExtension>
        </extensions>
      </trkpt>
      <trkpt lat="42.6249848864972591400146484375" lon="19.88024580292403697967529296875">
        <ele>1745.800048828125</ele>
        <time>2026-06-16T08:13:40.000Z</time>
        <extensions>
          <ns3:TrackPointExtension>
            <ns3:atemp>17.0</ns3:atemp>
          </ns3:TrackPointExtension>
        </extensions>
      </trkpt>
      <trkpt lat="42.6249848864972591400146484375" lon="19.88024580292403697967529296875">
        <ele>1745.800048828125</ele>
        <time>2026-06-16T08:13:41.000Z</time>
        <extensions>
          <ns3:TrackPointExtension>
            <ns3:atemp>17.0</ns3:atemp>
          </ns3:TrackPointExtension>
        </extensions>
      </trkpt>
      <trkpt lat="42.6249848864972591400146484375" lon="19.88024580292403697967529296875">
        <ele>1745.800048828125</ele>
        <time>2026-06-16T08:13:42.000Z</time>
        <extensions>
          <ns3:TrackPointExtension>
            <ns3:atemp>17.0</ns3:atemp>
          </ns3:TrackPointExtension>
        </extensions>
      </trkpt>
      <trkpt lat="42.6249848864972591400146484375" lon="19.88024580292403697967529296875">
        <ele>1745.800048828125</ele>
        <time>2026-06-16T08:13:43.000Z</time>
        <extensions>
          <ns3:TrackPointExtension>
            <ns3:atemp>17.0</ns3:atemp>
          </ns3:TrackPointExtension>
        </extensions>
      </trkpt>
      <trkpt lat="42.6249848864972591400146484375" lon="19.88024580292403697967529296875">
        <ele>1745.800048828125</ele>
        <time>2026-06-16T08:13:44.000Z</time>
        <extensions>
          <ns3:TrackPointExtension>
            <ns3:atemp>17.0</ns3:atemp>
          </ns3:TrackPointExtension>
        </extensions>
      </trkpt>
      <trkpt lat="42.6249848864972591400146484375" lon="19.88024580292403697967529296875">
        <ele>1745.800048828125</ele>
        <time>2026-06-16T08:13:45.000Z</time>
        <extensions>
          <ns3:TrackPointExtension>
            <ns3:atemp>17.0</ns3:atemp>
          </ns3:TrackPointExtension>
        </extensions>
      </trkpt>
      <trkpt lat="42.6249848864972591400146484375" lon="19.88024580292403697967529296875">
        <ele>1745.800048828125</ele>
        <time>2026-06-16T08:13:46.000Z</time>
        <extensions>
          <ns3:TrackPointExtension>
            <ns3:atemp>17.0</ns3:atemp>
          </ns3:TrackPointExtension>
        </extensions>
      </trkpt>
      <trkpt lat="42.6249848864972591400146484375" lon="19.88024580292403697967529296875">
        <ele>1745.800048828125</ele>
        <time>2026-06-16T08:13:47.000Z</time>
        <extensions>
          <ns3:TrackPointExtension>
            <ns3:atemp>17.0</ns3:atemp>
          </ns3:TrackPointExtension>
        </extensions>
      </trkpt>
      <trkpt lat="42.6249848864972591400146484375" lon="19.88024580292403697967529296875">
        <ele>1745.800048828125</ele>
        <time>2026-06-16T08:13:48.000Z</time>
        <extensions>
          <ns3:TrackPointExtension>
            <ns3:atemp>17.0</ns3:atemp>
          </ns3:TrackPointExtension>
        </extensions>
      </trkpt>
      <trkpt lat="42.6249848864972591400146484375" lon="19.88024580292403697967529296875">
        <ele>1745.800048828125</ele>
        <time>2026-06-16T08:13:49.000Z</time>
        <extensions>
          <ns3:TrackPointExtension>
            <ns3:atemp>17.0</ns3:atemp>
          </ns3:TrackPointExtension>
        </extensions>
      </trkpt>
      <trkpt lat="42.6249848864972591400146484375" lon="19.88024580292403697967529296875">
        <ele>1745.800048828125</ele>
        <time>2026-06-16T08:13:50.000Z</time>
        <extensions>
          <ns3:TrackPointExtension>
            <ns3:atemp>17.0</ns3:atemp>
          </ns3:TrackPointExtension>
        </extensions>
      </trkpt>
      <trkpt lat="42.6249848864972591400146484375" lon="19.88024580292403697967529296875">
        <ele>1745.800048828125</ele>
        <time>2026-06-16T08:13:51.000Z</time>
        <extensions>
          <ns3:TrackPointExtension>
            <ns3:atemp>17.0</ns3:atemp>
          </ns3:TrackPointExtension>
        </extensions>
      </trkpt>
      <trkpt lat="42.6249848864972591400146484375" lon="19.88024580292403697967529296875">
        <ele>1745.800048828125</ele>
        <time>2026-06-16T08:13:52.000Z</time>
        <extensions>
          <ns3:TrackPointExtension>
            <ns3:atemp>17.0</ns3:atemp>
          </ns3:TrackPointExtension>
        </extensions>
      </trkpt>
      <trkpt lat="42.6249848864972591400146484375" lon="19.88024580292403697967529296875">
        <ele>1745.800048828125</ele>
        <time>2026-06-16T08:13:53.000Z</time>
        <extensions>
          <ns3:TrackPointExtension>
            <ns3:atemp>17.0</ns3:atemp>
          </ns3:TrackPointExtension>
        </extensions>
      </trkpt>
      <trkpt lat="42.6249848864972591400146484375" lon="19.88024580292403697967529296875">
        <ele>1746</ele>
        <time>2026-06-16T08:13:54.000Z</time>
        <extensions>
          <ns3:TrackPointExtension>
            <ns3:atemp>17.0</ns3:atemp>
          </ns3:TrackPointExtension>
        </extensions>
      </trkpt>
      <trkpt lat="42.6249848864972591400146484375" lon="19.88024580292403697967529296875">
        <ele>1746</ele>
        <time>2026-06-16T08:13:55.000Z</time>
        <extensions>
          <ns3:TrackPointExtension>
            <ns3:atemp>17.0</ns3:atemp>
          </ns3:TrackPointExtension>
        </extensions>
      </trkpt>
      <trkpt lat="42.6249848864972591400146484375" lon="19.88024580292403697967529296875">
        <ele>1746</ele>
        <time>2026-06-16T08:13:56.000Z</time>
        <extensions>
          <ns3:TrackPointExtension>
            <ns3:atemp>18.0</ns3:atemp>
          </ns3:TrackPointExtension>
        </extensions>
      </trkpt>
      <trkpt lat="42.6249848864972591400146484375" lon="19.88024580292403697967529296875">
        <ele>1746</ele>
        <time>2026-06-16T08:13:57.000Z</time>
        <extensions>
          <ns3:TrackPointExtension>
            <ns3:atemp>17.0</ns3:atemp>
          </ns3:TrackPointExtension>
        </extensions>
      </trkpt>
      <trkpt lat="42.6249848864972591400146484375" lon="19.88024580292403697967529296875">
        <ele>1746</ele>
        <time>2026-06-16T08:13:58.000Z</time>
        <extensions>
          <ns3:TrackPointExtension>
            <ns3:atemp>17.0</ns3:atemp>
          </ns3:TrackPointExtension>
        </extensions>
      </trkpt>
      <trkpt lat="42.6249848864972591400146484375" lon="19.88024580292403697967529296875">
        <ele>1746</ele>
        <time>2026-06-16T08:13:59.000Z</time>
        <extensions>
          <ns3:TrackPointExtension>
            <ns3:atemp>17.0</ns3:atemp>
          </ns3:TrackPointExtension>
        </extensions>
      </trkpt>
      <trkpt lat="42.6249848864972591400146484375" lon="19.88024580292403697967529296875">
        <ele>1746</ele>
        <time>2026-06-16T08:14:00.000Z</time>
        <extensions>
          <ns3:TrackPointExtension>
            <ns3:atemp>17.0</ns3:atemp>
          </ns3:TrackPointExtension>
        </extensions>
      </trkpt>
      <trkpt lat="42.6249848864972591400146484375" lon="19.88024580292403697967529296875">
        <ele>1746</ele>
        <time>2026-06-16T08:14:01.000Z</time>
        <extensions>
          <ns3:TrackPointExtension>
            <ns3:atemp>17.0</ns3:atemp>
          </ns3:TrackPointExtension>
        </extensions>
      </trkpt>
      <trkpt lat="42.6249848864972591400146484375" lon="19.88024580292403697967529296875">
        <ele>1746</ele>
        <time>2026-06-16T08:14:02.000Z</time>
        <extensions>
          <ns3:TrackPointExtension>
            <ns3:atemp>17.0</ns3:atemp>
          </ns3:TrackPointExtension>
        </extensions>
      </trkpt>
      <trkpt lat="42.6249848864972591400146484375" lon="19.88024580292403697967529296875">
        <ele>1746</ele>
        <time>2026-06-16T08:14:03.000Z</time>
        <extensions>
          <ns3:TrackPointExtension>
            <ns3:atemp>17.0</ns3:atemp>
          </ns3:TrackPointExtension>
        </extensions>
      </trkpt>
      <trkpt lat="42.6249848864972591400146484375" lon="19.88024580292403697967529296875">
        <ele>1746.199951171875</ele>
        <time>2026-06-16T08:14:04.000Z</time>
        <extensions>
          <ns3:TrackPointExtension>
            <ns3:atemp>18.0</ns3:atemp>
          </ns3:TrackPointExtension>
        </extensions>
      </trkpt>
      <trkpt lat="42.6249848864972591400146484375" lon="19.88024580292403697967529296875">
        <ele>1746.199951171875</ele>
        <time>2026-06-16T08:14:05.000Z</time>
        <extensions>
          <ns3:TrackPointExtension>
            <ns3:atemp>17.0</ns3:atemp>
          </ns3:TrackPointExtension>
        </extensions>
      </trkpt>
      <trkpt lat="42.6249848864972591400146484375" lon="19.88024580292403697967529296875">
        <ele>1746.199951171875</ele>
        <time>2026-06-16T08:14:06.000Z</time>
        <extensions>
          <ns3:TrackPointExtension>
            <ns3:atemp>17.0</ns3:atemp>
          </ns3:TrackPointExtension>
        </extensions>
      </trkpt>
      <trkpt lat="42.6249848864972591400146484375" lon="19.88024580292403697967529296875">
        <ele>1746.199951171875</ele>
        <time>2026-06-16T08:14:07.000Z</time>
        <extensions>
          <ns3:TrackPointExtension>
            <ns3:atemp>17.0</ns3:atemp>
          </ns3:TrackPointExtension>
        </extensions>
      </trkpt>
      <trkpt lat="42.6249848864972591400146484375" lon="19.88024580292403697967529296875">
        <ele>1746.199951171875</ele>
        <time>2026-06-16T08:14:08.000Z</time>
        <extensions>
          <ns3:TrackPointExtension>
            <ns3:atemp>17.0</ns3:atemp>
          </ns3:TrackPointExtension>
        </extensions>
      </trkpt>
      <trkpt lat="42.6249848864972591400146484375" lon="19.88024580292403697967529296875">
        <ele>1746.199951171875</ele>
        <time>2026-06-16T08:14:09.000Z</time>
        <extensions>
          <ns3:TrackPointExtension>
            <ns3:atemp>17.0</ns3:atemp>
          </ns3:TrackPointExtension>
        </extensions>
      </trkpt>
      <trkpt lat="42.6249848864972591400146484375" lon="19.88024580292403697967529296875">
        <ele>1746.199951171875</ele>
        <time>2026-06-16T08:14:10.000Z</time>
        <extensions>
          <ns3:TrackPointExtension>
            <ns3:atemp>17.0</ns3:atemp>
          </ns3:TrackPointExtension>
        </extensions>
      </trkpt>
      <trkpt lat="42.6249848864972591400146484375" lon="19.88024580292403697967529296875">
        <ele>1746.199951171875</ele>
        <time>2026-06-16T08:14:11.000Z</time>
        <extensions>
          <ns3:TrackPointExtension>
            <ns3:atemp>17.0</ns3:atemp>
          </ns3:TrackPointExtension>
        </extensions>
      </trkpt>
      <trkpt lat="42.6249848864972591400146484375" lon="19.88024580292403697967529296875">
        <ele>1746.199951171875</ele>
        <time>2026-06-16T08:14:12.000Z</time>
        <extensions>
          <ns3:TrackPointExtension>
            <ns3:atemp>17.0</ns3:atemp>
          </ns3:TrackPointExtension>
        </extensions>
      </trkpt>
      <trkpt lat="42.6249848864972591400146484375" lon="19.88024580292403697967529296875">
        <ele>1746.199951171875</ele>
        <time>2026-06-16T08:14:13.000Z</time>
        <extensions>
          <ns3:TrackPointExtension>
            <ns3:atemp>17.0</ns3:atemp>
          </ns3:TrackPointExtension>
        </extensions>
      </trkpt>
      <trkpt lat="42.6249848864972591400146484375" lon="19.88024580292403697967529296875">
        <ele>1746.199951171875</ele>
        <time>2026-06-16T08:14:14.000Z</time>
        <extensions>
          <ns3:TrackPointExtension>
            <ns3:atemp>17.0</ns3:atemp>
          </ns3:TrackPointExtension>
        </extensions>
      </trkpt>
      <trkpt lat="42.6249848864972591400146484375" lon="19.88024580292403697967529296875">
        <ele>1746.199951171875</ele>
        <time>2026-06-16T08:14:15.000Z</time>
        <extensions>
          <ns3:TrackPointExtension>
            <ns3:atemp>17.0</ns3:atemp>
          </ns3:TrackPointExtension>
        </extensions>
      </trkpt>
      <trkpt lat="42.6249848864972591400146484375" lon="19.88024580292403697967529296875">
        <ele>1746.199951171875</ele>
        <time>2026-06-16T08:14:16.000Z</time>
        <extensions>
          <ns3:TrackPointExtension>
            <ns3:atemp>17.0</ns3:atemp>
          </ns3:TrackPointExtension>
        </extensions>
      </trkpt>
      <trkpt lat="42.6249848864972591400146484375" lon="19.88024580292403697967529296875">
        <ele>1746.199951171875</ele>
        <time>2026-06-16T08:14:17.000Z</time>
        <extensions>
          <ns3:TrackPointExtension>
            <ns3:atemp>17.0</ns3:atemp>
          </ns3:TrackPointExtension>
        </extensions>
      </trkpt>
      <trkpt lat="42.6249848864972591400146484375" lon="19.88024580292403697967529296875">
        <ele>1746.199951171875</ele>
        <time>2026-06-16T08:14:18.000Z</time>
        <extensions>
          <ns3:TrackPointExtension>
            <ns3:atemp>17.0</ns3:atemp>
          </ns3:TrackPointExtension>
        </extensions>
      </trkpt>
      <trkpt lat="42.6249848864972591400146484375" lon="19.88024580292403697967529296875">
        <ele>1746.199951171875</ele>
        <time>2026-06-16T08:14:19.000Z</time>
        <extensions>
          <ns3:TrackPointExtension>
            <ns3:atemp>17.0</ns3:atemp>
          </ns3:TrackPointExtension>
        </extensions>
      </trkpt>
      <trkpt lat="42.6249848864972591400146484375" lon="19.88024580292403697967529296875">
        <ele>1746.199951171875</ele>
        <time>2026-06-16T08:14:20.000Z</time>
        <extensions>
          <ns3:TrackPointExtension>
            <ns3:atemp>17.0</ns3:atemp>
          </ns3:TrackPointExtension>
        </extensions>
      </trkpt>
      <trkpt lat="42.6249848864972591400146484375" lon="19.88024580292403697967529296875">
        <ele>1746.199951171875</ele>
        <time>2026-06-16T08:14:21.000Z</time>
        <extensions>
          <ns3:TrackPointExtension>
            <ns3:atemp>17.0</ns3:atemp>
          </ns3:TrackPointExtension>
        </extensions>
      </trkpt>
      <trkpt lat="42.6249848864972591400146484375" lon="19.88024580292403697967529296875">
        <ele>1746.199951171875</ele>
        <time>2026-06-16T08:14:22.000Z</time>
        <extensions>
          <ns3:TrackPointExtension>
            <ns3:atemp>17.0</ns3:atemp>
          </ns3:TrackPointExtension>
        </extensions>
      </trkpt>
      <trkpt lat="42.6249848864972591400146484375" lon="19.88024580292403697967529296875">
        <ele>1746.199951171875</ele>
        <time>2026-06-16T08:14:23.000Z</time>
        <extensions>
          <ns3:TrackPointExtension>
            <ns3:atemp>17.0</ns3:atemp>
          </ns3:TrackPointExtension>
        </extensions>
      </trkpt>
      <trkpt lat="42.6249848864972591400146484375" lon="19.88024580292403697967529296875">
        <ele>1746.199951171875</ele>
        <time>2026-06-16T08:14:24.000Z</time>
        <extensions>
          <ns3:TrackPointExtension>
            <ns3:atemp>17.0</ns3:atemp>
          </ns3:TrackPointExtension>
        </extensions>
      </trkpt>
      <trkpt lat="42.6249848864972591400146484375" lon="19.88024580292403697967529296875">
        <ele>1746.199951171875</ele>
        <time>2026-06-16T08:14:25.000Z</time>
        <extensions>
          <ns3:TrackPointExtension>
            <ns3:atemp>17.0</ns3:atemp>
          </ns3:TrackPointExtension>
        </extensions>
      </trkpt>
      <trkpt lat="42.6249848864972591400146484375" lon="19.88024580292403697967529296875">
        <ele>1746.199951171875</ele>
        <time>2026-06-16T08:14:26.000Z</time>
        <extensions>
          <ns3:TrackPointExtension>
            <ns3:atemp>17.0</ns3:atemp>
          </ns3:TrackPointExtension>
        </extensions>
      </trkpt>
      <trkpt lat="42.6249848864972591400146484375" lon="19.88024580292403697967529296875">
        <ele>1746.199951171875</ele>
        <time>2026-06-16T08:14:27.000Z</time>
        <extensions>
          <ns3:TrackPointExtension>
            <ns3:atemp>17.0</ns3:atemp>
          </ns3:TrackPointExtension>
        </extensions>
      </trkpt>
      <trkpt lat="42.6249848864972591400146484375" lon="19.88024580292403697967529296875">
        <ele>1746.199951171875</ele>
        <time>2026-06-16T08:14:28.000Z</time>
        <extensions>
          <ns3:TrackPointExtension>
            <ns3:atemp>17.0</ns3:atemp>
          </ns3:TrackPointExtension>
        </extensions>
      </trkpt>
      <trkpt lat="42.6249848864972591400146484375" lon="19.88024580292403697967529296875">
        <ele>1746.199951171875</ele>
        <time>2026-06-16T08:14:29.000Z</time>
        <extensions>
          <ns3:TrackPointExtension>
            <ns3:atemp>17.0</ns3:atemp>
          </ns3:TrackPointExtension>
        </extensions>
      </trkpt>
      <trkpt lat="42.6249848864972591400146484375" lon="19.88024580292403697967529296875">
        <ele>1746.199951171875</ele>
        <time>2026-06-16T08:14:30.000Z</time>
        <extensions>
          <ns3:TrackPointExtension>
            <ns3:atemp>17.0</ns3:atemp>
          </ns3:TrackPointExtension>
        </extensions>
      </trkpt>
      <trkpt lat="42.6249848864972591400146484375" lon="19.88024580292403697967529296875">
        <ele>1746.4000244140625</ele>
        <time>2026-06-16T08:14:31.000Z</time>
        <extensions>
          <ns3:TrackPointExtension>
            <ns3:atemp>17.0</ns3:atemp>
          </ns3:TrackPointExtension>
        </extensions>
      </trkpt>
      <trkpt lat="42.6249848864972591400146484375" lon="19.88024580292403697967529296875">
        <ele>1746.4000244140625</ele>
        <time>2026-06-16T08:14:32.000Z</time>
        <extensions>
          <ns3:TrackPointExtension>
            <ns3:atemp>17.0</ns3:atemp>
          </ns3:TrackPointExtension>
        </extensions>
      </trkpt>
      <trkpt lat="42.6249848864972591400146484375" lon="19.88024580292403697967529296875">
        <ele>1746.4000244140625</ele>
        <time>2026-06-16T08:14:33.000Z</time>
        <extensions>
          <ns3:TrackPointExtension>
            <ns3:atemp>17.0</ns3:atemp>
          </ns3:TrackPointExtension>
        </extensions>
      </trkpt>
      <trkpt lat="42.6249848864972591400146484375" lon="19.88024580292403697967529296875">
        <ele>1746.4000244140625</ele>
        <time>2026-06-16T08:14:34.000Z</time>
        <extensions>
          <ns3:TrackPointExtension>
            <ns3:atemp>17.0</ns3:atemp>
          </ns3:TrackPointExtension>
        </extensions>
      </trkpt>
      <trkpt lat="42.6249848864972591400146484375" lon="19.88024580292403697967529296875">
        <ele>1746.4000244140625</ele>
        <time>2026-06-16T08:14:35.000Z</time>
        <extensions>
          <ns3:TrackPointExtension>
            <ns3:atemp>17.0</ns3:atemp>
          </ns3:TrackPointExtension>
        </extensions>
      </trkpt>
      <trkpt lat="42.6249848864972591400146484375" lon="19.88024580292403697967529296875">
        <ele>1746.4000244140625</ele>
        <time>2026-06-16T08:14:36.000Z</time>
        <extensions>
          <ns3:TrackPointExtension>
            <ns3:atemp>17.0</ns3:atemp>
          </ns3:TrackPointExtension>
        </extensions>
      </trkpt>
      <trkpt lat="42.6249848864972591400146484375" lon="19.88024580292403697967529296875">
        <ele>1746.4000244140625</ele>
        <time>2026-06-16T08:14:37.000Z</time>
        <extensions>
          <ns3:TrackPointExtension>
            <ns3:atemp>17.0</ns3:atemp>
          </ns3:TrackPointExtension>
        </extensions>
      </trkpt>
      <trkpt lat="42.6249848864972591400146484375" lon="19.88024580292403697967529296875">
        <ele>1746.4000244140625</ele>
        <time>2026-06-16T08:14:38.000Z</time>
        <extensions>
          <ns3:TrackPointExtension>
            <ns3:atemp>17.0</ns3:atemp>
          </ns3:TrackPointExtension>
        </extensions>
      </trkpt>
      <trkpt lat="42.6249848864972591400146484375" lon="19.88024580292403697967529296875">
        <ele>1746.4000244140625</ele>
        <time>2026-06-16T08:14:39.000Z</time>
        <extensions>
          <ns3:TrackPointExtension>
            <ns3:atemp>17.0</ns3:atemp>
          </ns3:TrackPointExtension>
        </extensions>
      </trkpt>
      <trkpt lat="42.6249848864972591400146484375" lon="19.88024580292403697967529296875">
        <ele>1746.4000244140625</ele>
        <time>2026-06-16T08:14:40.000Z</time>
        <extensions>
          <ns3:TrackPointExtension>
            <ns3:atemp>17.0</ns3:atemp>
          </ns3:TrackPointExtension>
        </extensions>
      </trkpt>
      <trkpt lat="42.6249848864972591400146484375" lon="19.88024580292403697967529296875">
        <ele>1746.4000244140625</ele>
        <time>2026-06-16T08:14:41.000Z</time>
        <extensions>
          <ns3:TrackPointExtension>
            <ns3:atemp>17.0</ns3:atemp>
          </ns3:TrackPointExtension>
        </extensions>
      </trkpt>
      <trkpt lat="42.6249848864972591400146484375" lon="19.88024580292403697967529296875">
        <ele>1746.4000244140625</ele>
        <time>2026-06-16T08:14:42.000Z</time>
        <extensions>
          <ns3:TrackPointExtension>
            <ns3:atemp>17.0</ns3:atemp>
          </ns3:TrackPointExtension>
        </extensions>
      </trkpt>
      <trkpt lat="42.6249848864972591400146484375" lon="19.88024580292403697967529296875">
        <ele>1746.4000244140625</ele>
        <time>2026-06-16T08:14:43.000Z</time>
        <extensions>
          <ns3:TrackPointExtension>
            <ns3:atemp>17.0</ns3:atemp>
          </ns3:TrackPointExtension>
        </extensions>
      </trkpt>
      <trkpt lat="42.6249848864972591400146484375" lon="19.88024580292403697967529296875">
        <ele>1746.4000244140625</ele>
        <time>2026-06-16T08:14:44.000Z</time>
        <extensions>
          <ns3:TrackPointExtension>
            <ns3:atemp>17.0</ns3:atemp>
          </ns3:TrackPointExtension>
        </extensions>
      </trkpt>
      <trkpt lat="42.6249848864972591400146484375" lon="19.88024580292403697967529296875">
        <ele>1746.4000244140625</ele>
        <time>2026-06-16T08:14:45.000Z</time>
        <extensions>
          <ns3:TrackPointExtension>
            <ns3:atemp>17.0</ns3:atemp>
          </ns3:TrackPointExtension>
        </extensions>
      </trkpt>
      <trkpt lat="42.6249848864972591400146484375" lon="19.88024580292403697967529296875">
        <ele>1746.4000244140625</ele>
        <time>2026-06-16T08:14:46.000Z</time>
        <extensions>
          <ns3:TrackPointExtension>
            <ns3:atemp>17.0</ns3:atemp>
          </ns3:TrackPointExtension>
        </extensions>
      </trkpt>
      <trkpt lat="42.6249848864972591400146484375" lon="19.88024580292403697967529296875">
        <ele>1746.5999755859375</ele>
        <time>2026-06-16T08:14:47.000Z</time>
        <extensions>
          <ns3:TrackPointExtension>
            <ns3:atemp>17.0</ns3:atemp>
          </ns3:TrackPointExtension>
        </extensions>
      </trkpt>
      <trkpt lat="42.6249848864972591400146484375" lon="19.88024580292403697967529296875">
        <ele>1746.5999755859375</ele>
        <time>2026-06-16T08:14:48.000Z</time>
        <extensions>
          <ns3:TrackPointExtension>
            <ns3:atemp>17.0</ns3:atemp>
          </ns3:TrackPointExtension>
        </extensions>
      </trkpt>
      <trkpt lat="42.6249848864972591400146484375" lon="19.88024580292403697967529296875">
        <ele>1746.5999755859375</ele>
        <time>2026-06-16T08:14:49.000Z</time>
        <extensions>
          <ns3:TrackPointExtension>
            <ns3:atemp>17.0</ns3:atemp>
          </ns3:TrackPointExtension>
        </extensions>
      </trkpt>
      <trkpt lat="42.6249848864972591400146484375" lon="19.88024580292403697967529296875">
        <ele>1746.5999755859375</ele>
        <time>2026-06-16T08:14:50.000Z</time>
        <extensions>
          <ns3:TrackPointExtension>
            <ns3:atemp>17.0</ns3:atemp>
          </ns3:TrackPointExtension>
        </extensions>
      </trkpt>
      <trkpt lat="42.6249848864972591400146484375" lon="19.88024580292403697967529296875">
        <ele>1746.5999755859375</ele>
        <time>2026-06-16T08:14:51.000Z</time>
        <extensions>
          <ns3:TrackPointExtension>
            <ns3:atemp>17.0</ns3:atemp>
          </ns3:TrackPointExtension>
        </extensions>
      </trkpt>
      <trkpt lat="42.6249848864972591400146484375" lon="19.88024580292403697967529296875">
        <ele>1746.5999755859375</ele>
        <time>2026-06-16T08:14:52.000Z</time>
        <extensions>
          <ns3:TrackPointExtension>
            <ns3:atemp>17.0</ns3:atemp>
          </ns3:TrackPointExtension>
        </extensions>
      </trkpt>
      <trkpt lat="42.6249848864972591400146484375" lon="19.88024580292403697967529296875">
        <ele>1746.5999755859375</ele>
        <time>2026-06-16T08:14:53.000Z</time>
        <extensions>
          <ns3:TrackPointExtension>
            <ns3:atemp>17.0</ns3:atemp>
          </ns3:TrackPointExtension>
        </extensions>
      </trkpt>
      <trkpt lat="42.6249848864972591400146484375" lon="19.88024580292403697967529296875">
        <ele>1746.5999755859375</ele>
        <time>2026-06-16T08:14:54.000Z</time>
        <extensions>
          <ns3:TrackPointExtension>
            <ns3:atemp>17.0</ns3:atemp>
          </ns3:TrackPointExtension>
        </extensions>
      </trkpt>
      <trkpt lat="42.6249848864972591400146484375" lon="19.88024580292403697967529296875">
        <ele>1746.5999755859375</ele>
        <time>2026-06-16T08:14:55.000Z</time>
        <extensions>
          <ns3:TrackPointExtension>
            <ns3:atemp>17.0</ns3:atemp>
          </ns3:TrackPointExtension>
        </extensions>
      </trkpt>
      <trkpt lat="42.6249848864972591400146484375" lon="19.88024580292403697967529296875">
        <ele>1746.5999755859375</ele>
        <time>2026-06-16T08:14:56.000Z</time>
        <extensions>
          <ns3:TrackPointExtension>
            <ns3:atemp>17.0</ns3:atemp>
          </ns3:TrackPointExtension>
        </extensions>
      </trkpt>
      <trkpt lat="42.6249848864972591400146484375" lon="19.88024580292403697967529296875">
        <ele>1746.5999755859375</ele>
        <time>2026-06-16T08:14:57.000Z</time>
        <extensions>
          <ns3:TrackPointExtension>
            <ns3:atemp>17.0</ns3:atemp>
          </ns3:TrackPointExtension>
        </extensions>
      </trkpt>
      <trkpt lat="42.6249848864972591400146484375" lon="19.88024580292403697967529296875">
        <ele>1746.5999755859375</ele>
        <time>2026-06-16T08:14:58.000Z</time>
        <extensions>
          <ns3:TrackPointExtension>
            <ns3:atemp>17.0</ns3:atemp>
          </ns3:TrackPointExtension>
        </extensions>
      </trkpt>
      <trkpt lat="42.6249848864972591400146484375" lon="19.88024580292403697967529296875">
        <ele>1746.5999755859375</ele>
        <time>2026-06-16T08:14:59.000Z</time>
        <extensions>
          <ns3:TrackPointExtension>
            <ns3:atemp>17.0</ns3:atemp>
          </ns3:TrackPointExtension>
        </extensions>
      </trkpt>
      <trkpt lat="42.6249848864972591400146484375" lon="19.88024580292403697967529296875">
        <ele>1746.5999755859375</ele>
        <time>2026-06-16T08:15:00.000Z</time>
        <extensions>
          <ns3:TrackPointExtension>
            <ns3:atemp>17.0</ns3:atemp>
          </ns3:TrackPointExtension>
        </extensions>
      </trkpt>
      <trkpt lat="42.6249848864972591400146484375" lon="19.88024580292403697967529296875">
        <ele>1746.5999755859375</ele>
        <time>2026-06-16T08:15:01.000Z</time>
        <extensions>
          <ns3:TrackPointExtension>
            <ns3:atemp>17.0</ns3:atemp>
          </ns3:TrackPointExtension>
        </extensions>
      </trkpt>
      <trkpt lat="42.6249848864972591400146484375" lon="19.88024580292403697967529296875">
        <ele>1746.5999755859375</ele>
        <time>2026-06-16T08:15:02.000Z</time>
        <extensions>
          <ns3:TrackPointExtension>
            <ns3:atemp>17.0</ns3:atemp>
          </ns3:TrackPointExtension>
        </extensions>
      </trkpt>
      <trkpt lat="42.6249848864972591400146484375" lon="19.88024580292403697967529296875">
        <ele>1746.5999755859375</ele>
        <time>2026-06-16T08:15:03.000Z</time>
        <extensions>
          <ns3:TrackPointExtension>
            <ns3:atemp>17.0</ns3:atemp>
          </ns3:TrackPointExtension>
        </extensions>
      </trkpt>
      <trkpt lat="42.6249848864972591400146484375" lon="19.88024580292403697967529296875">
        <ele>1746.5999755859375</ele>
        <time>2026-06-16T08:15:04.000Z</time>
        <extensions>
          <ns3:TrackPointExtension>
            <ns3:atemp>17.0</ns3:atemp>
          </ns3:TrackPointExtension>
        </extensions>
      </trkpt>
      <trkpt lat="42.6249848864972591400146484375" lon="19.88024580292403697967529296875">
        <ele>1746.5999755859375</ele>
        <time>2026-06-16T08:15:05.000Z</time>
        <extensions>
          <ns3:TrackPointExtension>
            <ns3:atemp>17.0</ns3:atemp>
          </ns3:TrackPointExtension>
        </extensions>
      </trkpt>
      <trkpt lat="42.6249848864972591400146484375" lon="19.88024580292403697967529296875">
        <ele>1746.5999755859375</ele>
        <time>2026-06-16T08:15:06.000Z</time>
        <extensions>
          <ns3:TrackPointExtension>
            <ns3:atemp>17.0</ns3:atemp>
          </ns3:TrackPointExtension>
        </extensions>
      </trkpt>
      <trkpt lat="42.6249848864972591400146484375" lon="19.88024580292403697967529296875">
        <ele>1746.5999755859375</ele>
        <time>2026-06-16T08:15:07.000Z</time>
        <extensions>
          <ns3:TrackPointExtension>
            <ns3:atemp>17.0</ns3:atemp>
          </ns3:TrackPointExtension>
        </extensions>
      </trkpt>
      <trkpt lat="42.6249848864972591400146484375" lon="19.88024580292403697967529296875">
        <ele>1746.5999755859375</ele>
        <time>2026-06-16T08:15:08.000Z</time>
        <extensions>
          <ns3:TrackPointExtension>
            <ns3:atemp>17.0</ns3:atemp>
          </ns3:TrackPointExtension>
        </extensions>
      </trkpt>
      <trkpt lat="42.6249848864972591400146484375" lon="19.88024580292403697967529296875">
        <ele>1746.5999755859375</ele>
        <time>2026-06-16T08:15:09.000Z</time>
        <extensions>
          <ns3:TrackPointExtension>
            <ns3:atemp>17.0</ns3:atemp>
          </ns3:TrackPointExtension>
        </extensions>
      </trkpt>
      <trkpt lat="42.6249848864972591400146484375" lon="19.88024580292403697967529296875">
        <ele>1746.5999755859375</ele>
        <time>2026-06-16T08:15:10.000Z</time>
        <extensions>
          <ns3:TrackPointExtension>
            <ns3:atemp>17.0</ns3:atemp>
          </ns3:TrackPointExtension>
        </extensions>
      </trkpt>
      <trkpt lat="42.6249848864972591400146484375" lon="19.88024580292403697967529296875">
        <ele>1746.5999755859375</ele>
        <time>2026-06-16T08:15:11.000Z</time>
        <extensions>
          <ns3:TrackPointExtension>
            <ns3:atemp>17.0</ns3:atemp>
          </ns3:TrackPointExtension>
        </extensions>
      </trkpt>
      <trkpt lat="42.6249848864972591400146484375" lon="19.88024580292403697967529296875">
        <ele>1746.5999755859375</ele>
        <time>2026-06-16T08:15:12.000Z</time>
        <extensions>
          <ns3:TrackPointExtension>
            <ns3:atemp>17.0</ns3:atemp>
          </ns3:TrackPointExtension>
        </extensions>
      </trkpt>
      <trkpt lat="42.6249848864972591400146484375" lon="19.88024580292403697967529296875">
        <ele>1746.5999755859375</ele>
        <time>2026-06-16T08:15:13.000Z</time>
        <extensions>
          <ns3:TrackPointExtension>
            <ns3:atemp>17.0</ns3:atemp>
          </ns3:TrackPointExtension>
        </extensions>
      </trkpt>
      <trkpt lat="42.6249848864972591400146484375" lon="19.88024580292403697967529296875">
        <ele>1746.800048828125</ele>
        <time>2026-06-16T08:15:14.000Z</time>
        <extensions>
          <ns3:TrackPointExtension>
            <ns3:atemp>17.0</ns3:atemp>
          </ns3:TrackPointExtension>
        </extensions>
      </trkpt>
      <trkpt lat="42.6249848864972591400146484375" lon="19.88024580292403697967529296875">
        <ele>1746.800048828125</ele>
        <time>2026-06-16T08:15:15.000Z</time>
        <extensions>
          <ns3:TrackPointExtension>
            <ns3:atemp>17.0</ns3:atemp>
          </ns3:TrackPointExtension>
        </extensions>
      </trkpt>
      <trkpt lat="42.6249848864972591400146484375" lon="19.88024580292403697967529296875">
        <ele>1746.800048828125</ele>
        <time>2026-06-16T08:15:16.000Z</time>
        <extensions>
          <ns3:TrackPointExtension>
            <ns3:atemp>17.0</ns3:atemp>
          </ns3:TrackPointExtension>
        </extensions>
      </trkpt>
      <trkpt lat="42.6249848864972591400146484375" lon="19.88024580292403697967529296875">
        <ele>1746.800048828125</ele>
        <time>2026-06-16T08:15:17.000Z</time>
        <extensions>
          <ns3:TrackPointExtension>
            <ns3:atemp>17.0</ns3:atemp>
          </ns3:TrackPointExtension>
        </extensions>
      </trkpt>
      <trkpt lat="42.6249848864972591400146484375" lon="19.88024580292403697967529296875">
        <ele>1746.800048828125</ele>
        <time>2026-06-16T08:15:18.000Z</time>
        <extensions>
          <ns3:TrackPointExtension>
            <ns3:atemp>17.0</ns3:atemp>
          </ns3:TrackPointExtension>
        </extensions>
      </trkpt>
      <trkpt lat="42.6249848864972591400146484375" lon="19.88024580292403697967529296875">
        <ele>1746.800048828125</ele>
        <time>2026-06-16T08:15:19.000Z</time>
        <extensions>
          <ns3:TrackPointExtension>
            <ns3:atemp>17.0</ns3:atemp>
          </ns3:TrackPointExtension>
        </extensions>
      </trkpt>
      <trkpt lat="42.6249848864972591400146484375" lon="19.88024580292403697967529296875">
        <ele>1746.800048828125</ele>
        <time>2026-06-16T08:15:20.000Z</time>
        <extensions>
          <ns3:TrackPointExtension>
            <ns3:atemp>17.0</ns3:atemp>
          </ns3:TrackPointExtension>
        </extensions>
      </trkpt>
      <trkpt lat="42.6249848864972591400146484375" lon="19.88024580292403697967529296875">
        <ele>1746.800048828125</ele>
        <time>2026-06-16T08:15:21.000Z</time>
        <extensions>
          <ns3:TrackPointExtension>
            <ns3:atemp>17.0</ns3:atemp>
          </ns3:TrackPointExtension>
        </extensions>
      </trkpt>
      <trkpt lat="42.6249848864972591400146484375" lon="19.88024580292403697967529296875">
        <ele>1746.800048828125</ele>
        <time>2026-06-16T08:15:22.000Z</time>
        <extensions>
          <ns3:TrackPointExtension>
            <ns3:atemp>17.0</ns3:atemp>
          </ns3:TrackPointExtension>
        </extensions>
      </trkpt>
      <trkpt lat="42.6249848864972591400146484375" lon="19.88024580292403697967529296875">
        <ele>1746.800048828125</ele>
        <time>2026-06-16T08:15:23.000Z</time>
        <extensions>
          <ns3:TrackPointExtension>
            <ns3:atemp>17.0</ns3:atemp>
          </ns3:TrackPointExtension>
        </extensions>
      </trkpt>
      <trkpt lat="42.6249848864972591400146484375" lon="19.88024580292403697967529296875">
        <ele>1746.800048828125</ele>
        <time>2026-06-16T08:15:24.000Z</time>
        <extensions>
          <ns3:TrackPointExtension>
            <ns3:atemp>17.0</ns3:atemp>
          </ns3:TrackPointExtension>
        </extensions>
      </trkpt>
      <trkpt lat="42.6249848864972591400146484375" lon="19.88024580292403697967529296875">
        <ele>1746.800048828125</ele>
        <time>2026-06-16T08:15:25.000Z</time>
        <extensions>
          <ns3:TrackPointExtension>
            <ns3:atemp>17.0</ns3:atemp>
          </ns3:TrackPointExtension>
        </extensions>
      </trkpt>
      <trkpt lat="42.6249848864972591400146484375" lon="19.88024580292403697967529296875">
        <ele>1746.800048828125</ele>
        <time>2026-06-16T08:15:26.000Z</time>
        <extensions>
          <ns3:TrackPointExtension>
            <ns3:atemp>17.0</ns3:atemp>
          </ns3:TrackPointExtension>
        </extensions>
      </trkpt>
      <trkpt lat="42.6249848864972591400146484375" lon="19.88024580292403697967529296875">
        <ele>1746.800048828125</ele>
        <time>2026-06-16T08:15:27.000Z</time>
        <extensions>
          <ns3:TrackPointExtension>
            <ns3:atemp>17.0</ns3:atemp>
          </ns3:TrackPointExtension>
        </extensions>
      </trkpt>
      <trkpt lat="42.6249848864972591400146484375" lon="19.88024580292403697967529296875">
        <ele>1746.800048828125</ele>
        <time>2026-06-16T08:15:28.000Z</time>
        <extensions>
          <ns3:TrackPointExtension>
            <ns3:atemp>17.0</ns3:atemp>
          </ns3:TrackPointExtension>
        </extensions>
      </trkpt>
      <trkpt lat="42.6249848864972591400146484375" lon="19.88024580292403697967529296875">
        <ele>1746.800048828125</ele>
        <time>2026-06-16T08:15:29.000Z</time>
        <extensions>
          <ns3:TrackPointExtension>
            <ns3:atemp>17.0</ns3:atemp>
          </ns3:TrackPointExtension>
        </extensions>
      </trkpt>
      <trkpt lat="42.6249848864972591400146484375" lon="19.88024580292403697967529296875">
        <ele>1746.800048828125</ele>
        <time>2026-06-16T08:15:30.000Z</time>
        <extensions>
          <ns3:TrackPointExtension>
            <ns3:atemp>17.0</ns3:atemp>
          </ns3:TrackPointExtension>
        </extensions>
      </trkpt>
      <trkpt lat="42.6249848864972591400146484375" lon="19.88024580292403697967529296875">
        <ele>1746.800048828125</ele>
        <time>2026-06-16T08:15:31.000Z</time>
        <extensions>
          <ns3:TrackPointExtension>
            <ns3:atemp>17.0</ns3:atemp>
          </ns3:TrackPointExtension>
        </extensions>
      </trkpt>
      <trkpt lat="42.6249848864972591400146484375" lon="19.88024580292403697967529296875">
        <ele>1746.800048828125</ele>
        <time>2026-06-16T08:15:32.000Z</time>
        <extensions>
          <ns3:TrackPointExtension>
            <ns3:atemp>17.0</ns3:atemp>
          </ns3:TrackPointExtension>
        </extensions>
      </trkpt>
      <trkpt lat="42.6249848864972591400146484375" lon="19.88024580292403697967529296875">
        <ele>1746.800048828125</ele>
        <time>2026-06-16T08:15:33.000Z</time>
        <extensions>
          <ns3:TrackPointExtension>
            <ns3:atemp>17.0</ns3:atemp>
          </ns3:TrackPointExtension>
        </extensions>
      </trkpt>
      <trkpt lat="42.6249848864972591400146484375" lon="19.88024580292403697967529296875">
        <ele>1746.800048828125</ele>
        <time>2026-06-16T08:15:34.000Z</time>
        <extensions>
          <ns3:TrackPointExtension>
            <ns3:atemp>17.0</ns3:atemp>
          </ns3:TrackPointExtension>
        </extensions>
      </trkpt>
      <trkpt lat="42.6249848864972591400146484375" lon="19.88024580292403697967529296875">
        <ele>1746.800048828125</ele>
        <time>2026-06-16T08:15:35.000Z</time>
        <extensions>
          <ns3:TrackPointExtension>
            <ns3:atemp>17.0</ns3:atemp>
          </ns3:TrackPointExtension>
        </extensions>
      </trkpt>
      <trkpt lat="42.6249848864972591400146484375" lon="19.88024580292403697967529296875">
        <ele>1746.800048828125</ele>
        <time>2026-06-16T08:15:36.000Z</time>
        <extensions>
          <ns3:TrackPointExtension>
            <ns3:atemp>17.0</ns3:atemp>
          </ns3:TrackPointExtension>
        </extensions>
      </trkpt>
      <trkpt lat="42.6249848864972591400146484375" lon="19.88024580292403697967529296875">
        <ele>1746.800048828125</ele>
        <time>2026-06-16T08:15:37.000Z</time>
        <extensions>
          <ns3:TrackPointExtension>
            <ns3:atemp>17.0</ns3:atemp>
          </ns3:TrackPointExtension>
        </extensions>
      </trkpt>
      <trkpt lat="42.6249848864972591400146484375" lon="19.88024580292403697967529296875">
        <ele>1746.800048828125</ele>
        <time>2026-06-16T08:15:38.000Z</time>
        <extensions>
          <ns3:TrackPointExtension>
            <ns3:atemp>17.0</ns3:atemp>
          </ns3:TrackPointExtension>
        </extensions>
      </trkpt>
      <trkpt lat="42.6249848864972591400146484375" lon="19.88024580292403697967529296875">
        <ele>1746.800048828125</ele>
        <time>2026-06-16T08:15:39.000Z</time>
        <extensions>
          <ns3:TrackPointExtension>
            <ns3:atemp>17.0</ns3:atemp>
          </ns3:TrackPointExtension>
        </extensions>
      </trkpt>
      <trkpt lat="42.6249848864972591400146484375" lon="19.88024580292403697967529296875">
        <ele>1746.800048828125</ele>
        <time>2026-06-16T08:15:40.000Z</time>
        <extensions>
          <ns3:TrackPointExtension>
            <ns3:atemp>17.0</ns3:atemp>
          </ns3:TrackPointExtension>
        </extensions>
      </trkpt>
      <trkpt lat="42.6249848864972591400146484375" lon="19.88024580292403697967529296875">
        <ele>1746.800048828125</ele>
        <time>2026-06-16T08:15:41.000Z</time>
        <extensions>
          <ns3:TrackPointExtension>
            <ns3:atemp>17.0</ns3:atemp>
          </ns3:TrackPointExtension>
        </extensions>
      </trkpt>
      <trkpt lat="42.6249848864972591400146484375" lon="19.88024580292403697967529296875">
        <ele>1746.800048828125</ele>
        <time>2026-06-16T08:15:42.000Z</time>
        <extensions>
          <ns3:TrackPointExtension>
            <ns3:atemp>17.0</ns3:atemp>
          </ns3:TrackPointExtension>
        </extensions>
      </trkpt>
      <trkpt lat="42.6249848864972591400146484375" lon="19.88024580292403697967529296875">
        <ele>1746.800048828125</ele>
        <time>2026-06-16T08:15:43.000Z</time>
        <extensions>
          <ns3:TrackPointExtension>
            <ns3:atemp>17.0</ns3:atemp>
          </ns3:TrackPointExtension>
        </extensions>
      </trkpt>
      <trkpt lat="42.6249848864972591400146484375" lon="19.88024580292403697967529296875">
        <ele>1746.800048828125</ele>
        <time>2026-06-16T08:15:44.000Z</time>
        <extensions>
          <ns3:TrackPointExtension>
            <ns3:atemp>17.0</ns3:atemp>
          </ns3:TrackPointExtension>
        </extensions>
      </trkpt>
      <trkpt lat="42.6249848864972591400146484375" lon="19.88024580292403697967529296875">
        <ele>1746.800048828125</ele>
        <time>2026-06-16T08:15:45.000Z</time>
        <extensions>
          <ns3:TrackPointExtension>
            <ns3:atemp>17.0</ns3:atemp>
          </ns3:TrackPointExtension>
        </extensions>
      </trkpt>
      <trkpt lat="42.6249848864972591400146484375" lon="19.88024580292403697967529296875">
        <ele>1746.800048828125</ele>
        <time>2026-06-16T08:15:46.000Z</time>
        <extensions>
          <ns3:TrackPointExtension>
            <ns3:atemp>17.0</ns3:atemp>
          </ns3:TrackPointExtension>
        </extensions>
      </trkpt>
      <trkpt lat="42.6249848864972591400146484375" lon="19.88024580292403697967529296875">
        <ele>1746.800048828125</ele>
        <time>2026-06-16T08:15:47.000Z</time>
        <extensions>
          <ns3:TrackPointExtension>
            <ns3:atemp>17.0</ns3:atemp>
          </ns3:TrackPointExtension>
        </extensions>
      </trkpt>
      <trkpt lat="42.6249848864972591400146484375" lon="19.88024580292403697967529296875">
        <ele>1746.800048828125</ele>
        <time>2026-06-16T08:15:48.000Z</time>
        <extensions>
          <ns3:TrackPointExtension>
            <ns3:atemp>17.0</ns3:atemp>
          </ns3:TrackPointExtension>
        </extensions>
      </trkpt>
      <trkpt lat="42.6249848864972591400146484375" lon="19.88024580292403697967529296875">
        <ele>1746.800048828125</ele>
        <time>2026-06-16T08:15:49.000Z</time>
        <extensions>
          <ns3:TrackPointExtension>
            <ns3:atemp>17.0</ns3:atemp>
          </ns3:TrackPointExtension>
        </extensions>
      </trkpt>
      <trkpt lat="42.6249848864972591400146484375" lon="19.88024580292403697967529296875">
        <ele>1746.800048828125</ele>
        <time>2026-06-16T08:15:50.000Z</time>
        <extensions>
          <ns3:TrackPointExtension>
            <ns3:atemp>17.0</ns3:atemp>
          </ns3:TrackPointExtension>
        </extensions>
      </trkpt>
      <trkpt lat="42.6249848864972591400146484375" lon="19.88024580292403697967529296875">
        <ele>1746.800048828125</ele>
        <time>2026-06-16T08:15:51.000Z</time>
        <extensions>
          <ns3:TrackPointExtension>
            <ns3:atemp>17.0</ns3:atemp>
          </ns3:TrackPointExtension>
        </extensions>
      </trkpt>
      <trkpt lat="42.6249848864972591400146484375" lon="19.88024580292403697967529296875">
        <ele>1746.800048828125</ele>
        <time>2026-06-16T08:15:52.000Z</time>
        <extensions>
          <ns3:TrackPointExtension>
            <ns3:atemp>17.0</ns3:atemp>
          </ns3:TrackPointExtension>
        </extensions>
      </trkpt>
      <trkpt lat="42.6249848864972591400146484375" lon="19.88024580292403697967529296875">
        <ele>1746.800048828125</ele>
        <time>2026-06-16T08:15:53.000Z</time>
        <extensions>
          <ns3:TrackPointExtension>
            <ns3:atemp>17.0</ns3:atemp>
          </ns3:TrackPointExtension>
        </extensions>
      </trkpt>
      <trkpt lat="42.6249848864972591400146484375" lon="19.88024580292403697967529296875">
        <ele>1746.800048828125</ele>
        <time>2026-06-16T08:15:54.000Z</time>
        <extensions>
          <ns3:TrackPointExtension>
            <ns3:atemp>17.0</ns3:atemp>
          </ns3:TrackPointExtension>
        </extensions>
      </trkpt>
      <trkpt lat="42.6249848864972591400146484375" lon="19.88024580292403697967529296875">
        <ele>1746.800048828125</ele>
        <time>2026-06-16T08:15:55.000Z</time>
        <extensions>
          <ns3:TrackPointExtension>
            <ns3:atemp>17.0</ns3:atemp>
          </ns3:TrackPointExtension>
        </extensions>
      </trkpt>
      <trkpt lat="42.6249848864972591400146484375" lon="19.88024580292403697967529296875">
        <ele>1746.800048828125</ele>
        <time>2026-06-16T08:15:56.000Z</time>
        <extensions>
          <ns3:TrackPointExtension>
            <ns3:atemp>17.0</ns3:atemp>
          </ns3:TrackPointExtension>
        </extensions>
      </trkpt>
      <trkpt lat="42.6249848864972591400146484375" lon="19.88024580292403697967529296875">
        <ele>1746.800048828125</ele>
        <time>2026-06-16T08:15:57.000Z</time>
        <extensions>
          <ns3:TrackPointExtension>
            <ns3:atemp>17.0</ns3:atemp>
          </ns3:TrackPointExtension>
        </extensions>
      </trkpt>
      <trkpt lat="42.6249848864972591400146484375" lon="19.88024580292403697967529296875">
        <ele>1746.800048828125</ele>
        <time>2026-06-16T08:15:58.000Z</time>
        <extensions>
          <ns3:TrackPointExtension>
            <ns3:atemp>17.0</ns3:atemp>
          </ns3:TrackPointExtension>
        </extensions>
      </trkpt>
      <trkpt lat="42.6249848864972591400146484375" lon="19.88024580292403697967529296875">
        <ele>1746.800048828125</ele>
        <time>2026-06-16T08:15:59.000Z</time>
        <extensions>
          <ns3:TrackPointExtension>
            <ns3:atemp>17.0</ns3:atemp>
          </ns3:TrackPointExtension>
        </extensions>
      </trkpt>
      <trkpt lat="42.6249848864972591400146484375" lon="19.88024580292403697967529296875">
        <ele>1746.800048828125</ele>
        <time>2026-06-16T08:16:00.000Z</time>
        <extensions>
          <ns3:TrackPointExtension>
            <ns3:atemp>17.0</ns3:atemp>
          </ns3:TrackPointExtension>
        </extensions>
      </trkpt>
      <trkpt lat="42.6249848864972591400146484375" lon="19.88024580292403697967529296875">
        <ele>1746.800048828125</ele>
        <time>2026-06-16T08:16:01.000Z</time>
        <extensions>
          <ns3:TrackPointExtension>
            <ns3:atemp>17.0</ns3:atemp>
          </ns3:TrackPointExtension>
        </extensions>
      </trkpt>
      <trkpt lat="42.6249848864972591400146484375" lon="19.88024580292403697967529296875">
        <ele>1746.800048828125</ele>
        <time>2026-06-16T08:16:02.000Z</time>
        <extensions>
          <ns3:TrackPointExtension>
            <ns3:atemp>17.0</ns3:atemp>
          </ns3:TrackPointExtension>
        </extensions>
      </trkpt>
      <trkpt lat="42.6249848864972591400146484375" lon="19.88024580292403697967529296875">
        <ele>1746.800048828125</ele>
        <time>2026-06-16T08:16:03.000Z</time>
        <extensions>
          <ns3:TrackPointExtension>
            <ns3:atemp>17.0</ns3:atemp>
          </ns3:TrackPointExtension>
        </extensions>
      </trkpt>
      <trkpt lat="42.6249848864972591400146484375" lon="19.88024580292403697967529296875">
        <ele>1746.800048828125</ele>
        <time>2026-06-16T08:16:04.000Z</time>
        <extensions>
          <ns3:TrackPointExtension>
            <ns3:atemp>17.0</ns3:atemp>
          </ns3:TrackPointExtension>
        </extensions>
      </trkpt>
      <trkpt lat="42.6249848864972591400146484375" lon="19.88024580292403697967529296875">
        <ele>1746.800048828125</ele>
        <time>2026-06-16T08:16:05.000Z</time>
        <extensions>
          <ns3:TrackPointExtension>
            <ns3:atemp>17.0</ns3:atemp>
          </ns3:TrackPointExtension>
        </extensions>
      </trkpt>
      <trkpt lat="42.6249848864972591400146484375" lon="19.88024580292403697967529296875">
        <ele>1746.800048828125</ele>
        <time>2026-06-16T08:16:06.000Z</time>
        <extensions>
          <ns3:TrackPointExtension>
            <ns3:atemp>17.0</ns3:atemp>
          </ns3:TrackPointExtension>
        </extensions>
      </trkpt>
      <trkpt lat="42.6249848864972591400146484375" lon="19.88024580292403697967529296875">
        <ele>1746.800048828125</ele>
        <time>2026-06-16T08:16:07.000Z</time>
        <extensions>
          <ns3:TrackPointExtension>
            <ns3:atemp>17.0</ns3:atemp>
          </ns3:TrackPointExtension>
        </extensions>
      </trkpt>
      <trkpt lat="42.6249848864972591400146484375" lon="19.88024580292403697967529296875">
        <ele>1746.800048828125</ele>
        <time>2026-06-16T08:16:08.000Z</time>
        <extensions>
          <ns3:TrackPointExtension>
            <ns3:atemp>17.0</ns3:atemp>
          </ns3:TrackPointExtension>
        </extensions>
      </trkpt>
      <trkpt lat="42.6249848864972591400146484375" lon="19.88024580292403697967529296875">
        <ele>1746.800048828125</ele>
        <time>2026-06-16T08:16:09.000Z</time>
        <extensions>
          <ns3:TrackPointExtension>
            <ns3:atemp>17.0</ns3:atemp>
          </ns3:TrackPointExtension>
        </extensions>
      </trkpt>
      <trkpt lat="42.6249848864972591400146484375" lon="19.88024580292403697967529296875">
        <ele>1746.800048828125</ele>
        <time>2026-06-16T08:16:10.000Z</time>
        <extensions>
          <ns3:TrackPointExtension>
            <ns3:atemp>17.0</ns3:atemp>
          </ns3:TrackPointExtension>
        </extensions>
      </trkpt>
      <trkpt lat="42.6249848864972591400146484375" lon="19.88024580292403697967529296875">
        <ele>1746.800048828125</ele>
        <time>2026-06-16T08:16:11.000Z</time>
        <extensions>
          <ns3:TrackPointExtension>
            <ns3:atemp>17.0</ns3:atemp>
          </ns3:TrackPointExtension>
        </extensions>
      </trkpt>
      <trkpt lat="42.6249848864972591400146484375" lon="19.88024580292403697967529296875">
        <ele>1746.800048828125</ele>
        <time>2026-06-16T08:16:12.000Z</time>
        <extensions>
          <ns3:TrackPointExtension>
            <ns3:atemp>17.0</ns3:atemp>
          </ns3:TrackPointExtension>
        </extensions>
      </trkpt>
      <trkpt lat="42.6249848864972591400146484375" lon="19.88024580292403697967529296875">
        <ele>1746.800048828125</ele>
        <time>2026-06-16T08:16:13.000Z</time>
        <extensions>
          <ns3:TrackPointExtension>
            <ns3:atemp>17.0</ns3:atemp>
          </ns3:TrackPointExtension>
        </extensions>
      </trkpt>
      <trkpt lat="42.6249848864972591400146484375" lon="19.88024580292403697967529296875">
        <ele>1746.800048828125</ele>
        <time>2026-06-16T08:16:14.000Z</time>
        <extensions>
          <ns3:TrackPointExtension>
            <ns3:atemp>17.0</ns3:atemp>
          </ns3:TrackPointExtension>
        </extensions>
      </trkpt>
      <trkpt lat="42.6249848864972591400146484375" lon="19.88024580292403697967529296875">
        <ele>1746.800048828125</ele>
        <time>2026-06-16T08:16:15.000Z</time>
        <extensions>
          <ns3:TrackPointExtension>
            <ns3:atemp>17.0</ns3:atemp>
          </ns3:TrackPointExtension>
        </extensions>
      </trkpt>
      <trkpt lat="42.6249848864972591400146484375" lon="19.88024580292403697967529296875">
        <ele>1746.800048828125</ele>
        <time>2026-06-16T08:16:16.000Z</time>
        <extensions>
          <ns3:TrackPointExtension>
            <ns3:atemp>17.0</ns3:atemp>
          </ns3:TrackPointExtension>
        </extensions>
      </trkpt>
      <trkpt lat="42.6249848864972591400146484375" lon="19.88024580292403697967529296875">
        <ele>1746.800048828125</ele>
        <time>2026-06-16T08:16:17.000Z</time>
        <extensions>
          <ns3:TrackPointExtension>
            <ns3:atemp>17.0</ns3:atemp>
          </ns3:TrackPointExtension>
        </extensions>
      </trkpt>
      <trkpt lat="42.6249848864972591400146484375" lon="19.88024580292403697967529296875">
        <ele>1746.800048828125</ele>
        <time>2026-06-16T08:16:18.000Z</time>
        <extensions>
          <ns3:TrackPointExtension>
            <ns3:atemp>17.0</ns3:atemp>
          </ns3:TrackPointExtension>
        </extensions>
      </trkpt>
      <trkpt lat="42.6249848864972591400146484375" lon="19.88024580292403697967529296875">
        <ele>1746.800048828125</ele>
        <time>2026-06-16T08:16:19.000Z</time>
        <extensions>
          <ns3:TrackPointExtension>
            <ns3:atemp>17.0</ns3:atemp>
          </ns3:TrackPointExtension>
        </extensions>
      </trkpt>
      <trkpt lat="42.6249848864972591400146484375" lon="19.88024580292403697967529296875">
        <ele>1746.800048828125</ele>
        <time>2026-06-16T08:16:20.000Z</time>
        <extensions>
          <ns3:TrackPointExtension>
            <ns3:atemp>17.0</ns3:atemp>
          </ns3:TrackPointExtension>
        </extensions>
      </trkpt>
      <trkpt lat="42.6249848864972591400146484375" lon="19.88024580292403697967529296875">
        <ele>1746.800048828125</ele>
        <time>2026-06-16T08:16:21.000Z</time>
        <extensions>
          <ns3:TrackPointExtension>
            <ns3:atemp>17.0</ns3:atemp>
          </ns3:TrackPointExtension>
        </extensions>
      </trkpt>
      <trkpt lat="42.6249848864972591400146484375" lon="19.88024580292403697967529296875">
        <ele>1746.800048828125</ele>
        <time>2026-06-16T08:16:22.000Z</time>
        <extensions>
          <ns3:TrackPointExtension>
            <ns3:atemp>17.0</ns3:atemp>
          </ns3:TrackPointExtension>
        </extensions>
      </trkpt>
      <trkpt lat="42.6249848864972591400146484375" lon="19.88024580292403697967529296875">
        <ele>1746.800048828125</ele>
        <time>2026-06-16T08:16:23.000Z</time>
        <extensions>
          <ns3:TrackPointExtension>
            <ns3:atemp>17.0</ns3:atemp>
          </ns3:TrackPointExtension>
        </extensions>
      </trkpt>
      <trkpt lat="42.6249848864972591400146484375" lon="19.88024580292403697967529296875">
        <ele>1746.800048828125</ele>
        <time>2026-06-16T08:16:24.000Z</time>
        <extensions>
          <ns3:TrackPointExtension>
            <ns3:atemp>17.0</ns3:atemp>
          </ns3:TrackPointExtension>
        </extensions>
      </trkpt>
      <trkpt lat="42.6249848864972591400146484375" lon="19.88024580292403697967529296875">
        <ele>1746.800048828125</ele>
        <time>2026-06-16T08:16:25.000Z</time>
        <extensions>
          <ns3:TrackPointExtension>
            <ns3:atemp>17.0</ns3:atemp>
          </ns3:TrackPointExtension>
        </extensions>
      </trkpt>
      <trkpt lat="42.6249848864972591400146484375" lon="19.88024580292403697967529296875">
        <ele>1746.800048828125</ele>
        <time>2026-06-16T08:16:26.000Z</time>
        <extensions>
          <ns3:TrackPointExtension>
            <ns3:atemp>17.0</ns3:atemp>
          </ns3:TrackPointExtension>
        </extensions>
      </trkpt>
      <trkpt lat="42.6249848864972591400146484375" lon="19.88024580292403697967529296875">
        <ele>1746.800048828125</ele>
        <time>2026-06-16T08:16:27.000Z</time>
        <extensions>
          <ns3:TrackPointExtension>
            <ns3:atemp>17.0</ns3:atemp>
          </ns3:TrackPointExtension>
        </extensions>
      </trkpt>
      <trkpt lat="42.6249848864972591400146484375" lon="19.88024580292403697967529296875">
        <ele>1746.800048828125</ele>
        <time>2026-06-16T08:16:28.000Z</time>
        <extensions>
          <ns3:TrackPointExtension>
            <ns3:atemp>17.0</ns3:atemp>
          </ns3:TrackPointExtension>
        </extensions>
      </trkpt>
      <trkpt lat="42.6249848864972591400146484375" lon="19.88024580292403697967529296875">
        <ele>1746.800048828125</ele>
        <time>2026-06-16T08:16:29.000Z</time>
        <extensions>
          <ns3:TrackPointExtension>
            <ns3:atemp>17.0</ns3:atemp>
          </ns3:TrackPointExtension>
        </extensions>
      </trkpt>
      <trkpt lat="42.6249848864972591400146484375" lon="19.88024580292403697967529296875">
        <ele>1746.800048828125</ele>
        <time>2026-06-16T08:16:30.000Z</time>
        <extensions>
          <ns3:TrackPointExtension>
            <ns3:atemp>17.0</ns3:atemp>
          </ns3:TrackPointExtension>
        </extensions>
      </trkpt>
      <trkpt lat="42.6249848864972591400146484375" lon="19.88024580292403697967529296875">
        <ele>1746.800048828125</ele>
        <time>2026-06-16T08:16:31.000Z</time>
        <extensions>
          <ns3:TrackPointExtension>
            <ns3:atemp>17.0</ns3:atemp>
          </ns3:TrackPointExtension>
        </extensions>
      </trkpt>
      <trkpt lat="42.6249848864972591400146484375" lon="19.88024580292403697967529296875">
        <ele>1746.800048828125</ele>
        <time>2026-06-16T08:16:32.000Z</time>
        <extensions>
          <ns3:TrackPointExtension>
            <ns3:atemp>17.0</ns3:atemp>
          </ns3:TrackPointExtension>
        </extensions>
      </trkpt>
      <trkpt lat="42.6249848864972591400146484375" lon="19.88024580292403697967529296875">
        <ele>1746.800048828125</ele>
        <time>2026-06-16T08:16:33.000Z</time>
        <extensions>
          <ns3:TrackPointExtension>
            <ns3:atemp>17.0</ns3:atemp>
          </ns3:TrackPointExtension>
        </extensions>
      </trkpt>
      <trkpt lat="42.6249848864972591400146484375" lon="19.88024580292403697967529296875">
        <ele>1746.800048828125</ele>
        <time>2026-06-16T08:16:34.000Z</time>
        <extensions>
          <ns3:TrackPointExtension>
            <ns3:atemp>17.0</ns3:atemp>
          </ns3:TrackPointExtension>
        </extensions>
      </trkpt>
      <trkpt lat="42.6249848864972591400146484375" lon="19.88024580292403697967529296875">
        <ele>1746.800048828125</ele>
        <time>2026-06-16T08:16:35.000Z</time>
        <extensions>
          <ns3:TrackPointExtension>
            <ns3:atemp>17.0</ns3:atemp>
          </ns3:TrackPointExtension>
        </extensions>
      </trkpt>
      <trkpt lat="42.6249848864972591400146484375" lon="19.88024580292403697967529296875">
        <ele>1746.800048828125</ele>
        <time>2026-06-16T08:16:36.000Z</time>
        <extensions>
          <ns3:TrackPointExtension>
            <ns3:atemp>17.0</ns3:atemp>
          </ns3:TrackPointExtension>
        </extensions>
      </trkpt>
      <trkpt lat="42.6249848864972591400146484375" lon="19.88024580292403697967529296875">
        <ele>1746.800048828125</ele>
        <time>2026-06-16T08:16:37.000Z</time>
        <extensions>
          <ns3:TrackPointExtension>
            <ns3:atemp>17.0</ns3:atemp>
          </ns3:TrackPointExtension>
        </extensions>
      </trkpt>
      <trkpt lat="42.6249848864972591400146484375" lon="19.88024580292403697967529296875">
        <ele>1746.800048828125</ele>
        <time>2026-06-16T08:16:38.000Z</time>
        <extensions>
          <ns3:TrackPointExtension>
            <ns3:atemp>17.0</ns3:atemp>
          </ns3:TrackPointExtension>
        </extensions>
      </trkpt>
      <trkpt lat="42.6249848864972591400146484375" lon="19.88024580292403697967529296875">
        <ele>1746.800048828125</ele>
        <time>2026-06-16T08:16:39.000Z</time>
        <extensions>
          <ns3:TrackPointExtension>
            <ns3:atemp>17.0</ns3:atemp>
          </ns3:TrackPointExtension>
        </extensions>
      </trkpt>
      <trkpt lat="42.6249848864972591400146484375" lon="19.88024580292403697967529296875">
        <ele>1746.800048828125</ele>
        <time>2026-06-16T08:16:40.000Z</time>
        <extensions>
          <ns3:TrackPointExtension>
            <ns3:atemp>17.0</ns3:atemp>
          </ns3:TrackPointExtension>
        </extensions>
      </trkpt>
      <trkpt lat="42.6249848864972591400146484375" lon="19.88024580292403697967529296875">
        <ele>1746.800048828125</ele>
        <time>2026-06-16T08:16:41.000Z</time>
        <extensions>
          <ns3:TrackPointExtension>
            <ns3:atemp>17.0</ns3:atemp>
          </ns3:TrackPointExtension>
        </extensions>
      </trkpt>
      <trkpt lat="42.6249848864972591400146484375" lon="19.88024580292403697967529296875">
        <ele>1746.800048828125</ele>
        <time>2026-06-16T08:16:42.000Z</time>
        <extensions>
          <ns3:TrackPointExtension>
            <ns3:atemp>17.0</ns3:atemp>
          </ns3:TrackPointExtension>
        </extensions>
      </trkpt>
      <trkpt lat="42.6249848864972591400146484375" lon="19.88024580292403697967529296875">
        <ele>1746.800048828125</ele>
        <time>2026-06-16T08:16:43.000Z</time>
        <extensions>
          <ns3:TrackPointExtension>
            <ns3:atemp>17.0</ns3:atemp>
          </ns3:TrackPointExtension>
        </extensions>
      </trkpt>
      <trkpt lat="42.6249848864972591400146484375" lon="19.88024580292403697967529296875">
        <ele>1746.800048828125</ele>
        <time>2026-06-16T08:16:44.000Z</time>
        <extensions>
          <ns3:TrackPointExtension>
            <ns3:atemp>17.0</ns3:atemp>
          </ns3:TrackPointExtension>
        </extensions>
      </trkpt>
      <trkpt lat="42.6249848864972591400146484375" lon="19.88024580292403697967529296875">
        <ele>1746.800048828125</ele>
        <time>2026-06-16T08:16:45.000Z</time>
        <extensions>
          <ns3:TrackPointExtension>
            <ns3:atemp>17.0</ns3:atemp>
          </ns3:TrackPointExtension>
        </extensions>
      </trkpt>
      <trkpt lat="42.6249848864972591400146484375" lon="19.88024580292403697967529296875">
        <ele>1746.800048828125</ele>
        <time>2026-06-16T08:16:46.000Z</time>
        <extensions>
          <ns3:TrackPointExtension>
            <ns3:atemp>17.0</ns3:atemp>
          </ns3:TrackPointExtension>
        </extensions>
      </trkpt>
      <trkpt lat="42.6249848864972591400146484375" lon="19.88024580292403697967529296875">
        <ele>1746.800048828125</ele>
        <time>2026-06-16T08:16:47.000Z</time>
        <extensions>
          <ns3:TrackPointExtension>
            <ns3:atemp>17.0</ns3:atemp>
          </ns3:TrackPointExtension>
        </extensions>
      </trkpt>
      <trkpt lat="42.6249848864972591400146484375" lon="19.88024580292403697967529296875">
        <ele>1746.800048828125</ele>
        <time>2026-06-16T08:16:48.000Z</time>
        <extensions>
          <ns3:TrackPointExtension>
            <ns3:atemp>17.0</ns3:atemp>
          </ns3:TrackPointExtension>
        </extensions>
      </trkpt>
      <trkpt lat="42.6249848864972591400146484375" lon="19.88024580292403697967529296875">
        <ele>1746.800048828125</ele>
        <time>2026-06-16T08:16:49.000Z</time>
        <extensions>
          <ns3:TrackPointExtension>
            <ns3:atemp>17.0</ns3:atemp>
          </ns3:TrackPointExtension>
        </extensions>
      </trkpt>
      <trkpt lat="42.6249848864972591400146484375" lon="19.88024580292403697967529296875">
        <ele>1746.800048828125</ele>
        <time>2026-06-16T08:16:50.000Z</time>
        <extensions>
          <ns3:TrackPointExtension>
            <ns3:atemp>17.0</ns3:atemp>
          </ns3:TrackPointExtension>
        </extensions>
      </trkpt>
      <trkpt lat="42.6249848864972591400146484375" lon="19.88024580292403697967529296875">
        <ele>1746.800048828125</ele>
        <time>2026-06-16T08:16:51.000Z</time>
        <extensions>
          <ns3:TrackPointExtension>
            <ns3:atemp>17.0</ns3:atemp>
          </ns3:TrackPointExtension>
        </extensions>
      </trkpt>
      <trkpt lat="42.6249848864972591400146484375" lon="19.88024580292403697967529296875">
        <ele>1746.800048828125</ele>
        <time>2026-06-16T08:16:52.000Z</time>
        <extensions>
          <ns3:TrackPointExtension>
            <ns3:atemp>17.0</ns3:atemp>
          </ns3:TrackPointExtension>
        </extensions>
      </trkpt>
      <trkpt lat="42.6249848864972591400146484375" lon="19.88024580292403697967529296875">
        <ele>1746.800048828125</ele>
        <time>2026-06-16T08:16:53.000Z</time>
        <extensions>
          <ns3:TrackPointExtension>
            <ns3:atemp>17.0</ns3:atemp>
          </ns3:TrackPointExtension>
        </extensions>
      </trkpt>
      <trkpt lat="42.6249848864972591400146484375" lon="19.88024580292403697967529296875">
        <ele>1746.800048828125</ele>
        <time>2026-06-16T08:16:54.000Z</time>
        <extensions>
          <ns3:TrackPointExtension>
            <ns3:atemp>17.0</ns3:atemp>
          </ns3:TrackPointExtension>
        </extensions>
      </trkpt>
      <trkpt lat="42.6249848864972591400146484375" lon="19.88024580292403697967529296875">
        <ele>1746.800048828125</ele>
        <time>2026-06-16T08:16:55.000Z</time>
        <extensions>
          <ns3:TrackPointExtension>
            <ns3:atemp>17.0</ns3:atemp>
          </ns3:TrackPointExtension>
        </extensions>
      </trkpt>
      <trkpt lat="42.6249848864972591400146484375" lon="19.88024580292403697967529296875">
        <ele>1746.800048828125</ele>
        <time>2026-06-16T08:16:56.000Z</time>
        <extensions>
          <ns3:TrackPointExtension>
            <ns3:atemp>17.0</ns3:atemp>
          </ns3:TrackPointExtension>
        </extensions>
      </trkpt>
      <trkpt lat="42.6249848864972591400146484375" lon="19.88024580292403697967529296875">
        <ele>1746.800048828125</ele>
        <time>2026-06-16T08:16:57.000Z</time>
        <extensions>
          <ns3:TrackPointExtension>
            <ns3:atemp>17.0</ns3:atemp>
          </ns3:TrackPointExtension>
        </extensions>
      </trkpt>
      <trkpt lat="42.6249848864972591400146484375" lon="19.88024580292403697967529296875">
        <ele>1746.800048828125</ele>
        <time>2026-06-16T08:16:58.000Z</time>
        <extensions>
          <ns3:TrackPointExtension>
            <ns3:atemp>17.0</ns3:atemp>
          </ns3:TrackPointExtension>
        </extensions>
      </trkpt>
      <trkpt lat="42.6249848864972591400146484375" lon="19.88024580292403697967529296875">
        <ele>1746.800048828125</ele>
        <time>2026-06-16T08:16:59.000Z</time>
        <extensions>
          <ns3:TrackPointExtension>
            <ns3:atemp>17.0</ns3:atemp>
          </ns3:TrackPointExtension>
        </extensions>
      </trkpt>
      <trkpt lat="42.6249848864972591400146484375" lon="19.88024580292403697967529296875">
        <ele>1746.800048828125</ele>
        <time>2026-06-16T08:17:00.000Z</time>
        <extensions>
          <ns3:TrackPointExtension>
            <ns3:atemp>17.0</ns3:atemp>
          </ns3:TrackPointExtension>
        </extensions>
      </trkpt>
      <trkpt lat="42.6249848864972591400146484375" lon="19.88024580292403697967529296875">
        <ele>1746.800048828125</ele>
        <time>2026-06-16T08:17:01.000Z</time>
        <extensions>
          <ns3:TrackPointExtension>
            <ns3:atemp>17.0</ns3:atemp>
          </ns3:TrackPointExtension>
        </extensions>
      </trkpt>
      <trkpt lat="42.6249848864972591400146484375" lon="19.88024580292403697967529296875">
        <ele>1746.800048828125</ele>
        <time>2026-06-16T08:17:02.000Z</time>
        <extensions>
          <ns3:TrackPointExtension>
            <ns3:atemp>17.0</ns3:atemp>
          </ns3:TrackPointExtension>
        </extensions>
      </trkpt>
      <trkpt lat="42.6249848864972591400146484375" lon="19.88024580292403697967529296875">
        <ele>1746.800048828125</ele>
        <time>2026-06-16T08:17:03.000Z</time>
        <extensions>
          <ns3:TrackPointExtension>
            <ns3:atemp>17.0</ns3:atemp>
          </ns3:TrackPointExtension>
        </extensions>
      </trkpt>
      <trkpt lat="42.6249848864972591400146484375" lon="19.88024580292403697967529296875">
        <ele>1746.800048828125</ele>
        <time>2026-06-16T08:17:04.000Z</time>
        <extensions>
          <ns3:TrackPointExtension>
            <ns3:atemp>17.0</ns3:atemp>
          </ns3:TrackPointExtension>
        </extensions>
      </trkpt>
      <trkpt lat="42.6249848864972591400146484375" lon="19.88024580292403697967529296875">
        <ele>1746.800048828125</ele>
        <time>2026-06-16T08:17:05.000Z</time>
        <extensions>
          <ns3:TrackPointExtension>
            <ns3:atemp>17.0</ns3:atemp>
          </ns3:TrackPointExtension>
        </extensions>
      </trkpt>
      <trkpt lat="42.6249848864972591400146484375" lon="19.88024580292403697967529296875">
        <ele>1746.800048828125</ele>
        <time>2026-06-16T08:17:06.000Z</time>
        <extensions>
          <ns3:TrackPointExtension>
            <ns3:atemp>17.0</ns3:atemp>
          </ns3:TrackPointExtension>
        </extensions>
      </trkpt>
      <trkpt lat="42.6249848864972591400146484375" lon="19.88024580292403697967529296875">
        <ele>1746.800048828125</ele>
        <time>2026-06-16T08:17:07.000Z</time>
        <extensions>
          <ns3:TrackPointExtension>
            <ns3:atemp>17.0</ns3:atemp>
          </ns3:TrackPointExtension>
        </extensions>
      </trkpt>
      <trkpt lat="42.6249848864972591400146484375" lon="19.88024580292403697967529296875">
        <ele>1746.800048828125</ele>
        <time>2026-06-16T08:17:08.000Z</time>
        <extensions>
          <ns3:TrackPointExtension>
            <ns3:atemp>17.0</ns3:atemp>
          </ns3:TrackPointExtension>
        </extensions>
      </trkpt>
      <trkpt lat="42.6249848864972591400146484375" lon="19.88024580292403697967529296875">
        <ele>1746.800048828125</ele>
        <time>2026-06-16T08:17:09.000Z</time>
        <extensions>
          <ns3:TrackPointExtension>
            <ns3:atemp>17.0</ns3:atemp>
          </ns3:TrackPointExtension>
        </extensions>
      </trkpt>
      <trkpt lat="42.6249848864972591400146484375" lon="19.88024580292403697967529296875">
        <ele>1746.800048828125</ele>
        <time>2026-06-16T08:17:10.000Z</time>
        <extensions>
          <ns3:TrackPointExtension>
            <ns3:atemp>17.0</ns3:atemp>
          </ns3:TrackPointExtension>
        </extensions>
      </trkpt>
      <trkpt lat="42.6249848864972591400146484375" lon="19.88024580292403697967529296875">
        <ele>1746.800048828125</ele>
        <time>2026-06-16T08:17:11.000Z</time>
        <extensions>
          <ns3:TrackPointExtension>
            <ns3:atemp>17.0</ns3:atemp>
          </ns3:TrackPointExtension>
        </extensions>
      </trkpt>
      <trkpt lat="42.6249848864972591400146484375" lon="19.88024580292403697967529296875">
        <ele>1746.800048828125</ele>
        <time>2026-06-16T08:17:12.000Z</time>
        <extensions>
          <ns3:TrackPointExtension>
            <ns3:atemp>17.0</ns3:atemp>
          </ns3:TrackPointExtension>
        </extensions>
      </trkpt>
      <trkpt lat="42.6249848864972591400146484375" lon="19.88024580292403697967529296875">
        <ele>1746.800048828125</ele>
        <time>2026-06-16T08:17:13.000Z</time>
        <extensions>
          <ns3:TrackPointExtension>
            <ns3:atemp>17.0</ns3:atemp>
          </ns3:TrackPointExtension>
        </extensions>
      </trkpt>
      <trkpt lat="42.6249848864972591400146484375" lon="19.88024580292403697967529296875">
        <ele>1746.800048828125</ele>
        <time>2026-06-16T08:17:14.000Z</time>
        <extensions>
          <ns3:TrackPointExtension>
            <ns3:atemp>17.0</ns3:atemp>
          </ns3:TrackPointExtension>
        </extensions>
      </trkpt>
      <trkpt lat="42.6249848864972591400146484375" lon="19.88024580292403697967529296875">
        <ele>1746.800048828125</ele>
        <time>2026-06-16T08:17:15.000Z</time>
        <extensions>
          <ns3:TrackPointExtension>
            <ns3:atemp>17.0</ns3:atemp>
          </ns3:TrackPointExtension>
        </extensions>
      </trkpt>
      <trkpt lat="42.6249848864972591400146484375" lon="19.88024580292403697967529296875">
        <ele>1746.800048828125</ele>
        <time>2026-06-16T08:17:16.000Z</time>
        <extensions>
          <ns3:TrackPointExtension>
            <ns3:atemp>17.0</ns3:atemp>
          </ns3:TrackPointExtension>
        </extensions>
      </trkpt>
      <trkpt lat="42.6249848864972591400146484375" lon="19.88024580292403697967529296875">
        <ele>1746.800048828125</ele>
        <time>2026-06-16T08:17:17.000Z</time>
        <extensions>
          <ns3:TrackPointExtension>
            <ns3:atemp>17.0</ns3:atemp>
          </ns3:TrackPointExtension>
        </extensions>
      </trkpt>
      <trkpt lat="42.6249848864972591400146484375" lon="19.88024580292403697967529296875">
        <ele>1746.800048828125</ele>
        <time>2026-06-16T08:17:18.000Z</time>
        <extensions>
          <ns3:TrackPointExtension>
            <ns3:atemp>17.0</ns3:atemp>
          </ns3:TrackPointExtension>
        </extensions>
      </trkpt>
      <trkpt lat="42.6249848864972591400146484375" lon="19.88024580292403697967529296875">
        <ele>1746.800048828125</ele>
        <time>2026-06-16T08:17:19.000Z</time>
        <extensions>
          <ns3:TrackPointExtension>
            <ns3:atemp>17.0</ns3:atemp>
          </ns3:TrackPointExtension>
        </extensions>
      </trkpt>
      <trkpt lat="42.6249848864972591400146484375" lon="19.88024580292403697967529296875">
        <ele>1746.800048828125</ele>
        <time>2026-06-16T08:17:20.000Z</time>
        <extensions>
          <ns3:TrackPointExtension>
            <ns3:atemp>17.0</ns3:atemp>
          </ns3:TrackPointExtension>
        </extensions>
      </trkpt>
      <trkpt lat="42.6249848864972591400146484375" lon="19.88024580292403697967529296875">
        <ele>1746.800048828125</ele>
        <time>2026-06-16T08:17:21.000Z</time>
        <extensions>
          <ns3:TrackPointExtension>
            <ns3:atemp>17.0</ns3:atemp>
          </ns3:TrackPointExtension>
        </extensions>
      </trkpt>
      <trkpt lat="42.6249848864972591400146484375" lon="19.88024580292403697967529296875">
        <ele>1746.800048828125</ele>
        <time>2026-06-16T08:17:22.000Z</time>
        <extensions>
          <ns3:TrackPointExtension>
            <ns3:atemp>17.0</ns3:atemp>
          </ns3:TrackPointExtension>
        </extensions>
      </trkpt>
      <trkpt lat="42.6249848864972591400146484375" lon="19.88024580292403697967529296875">
        <ele>1746.800048828125</ele>
        <time>2026-06-16T08:17:23.000Z</time>
        <extensions>
          <ns3:TrackPointExtension>
            <ns3:atemp>17.0</ns3:atemp>
          </ns3:TrackPointExtension>
        </extensions>
      </trkpt>
      <trkpt lat="42.6249848864972591400146484375" lon="19.88024580292403697967529296875">
        <ele>1746.800048828125</ele>
        <time>2026-06-16T08:17:24.000Z</time>
        <extensions>
          <ns3:TrackPointExtension>
            <ns3:atemp>17.0</ns3:atemp>
          </ns3:TrackPointExtension>
        </extensions>
      </trkpt>
      <trkpt lat="42.6249848864972591400146484375" lon="19.88024580292403697967529296875">
        <ele>1746.800048828125</ele>
        <time>2026-06-16T08:17:25.000Z</time>
        <extensions>
          <ns3:TrackPointExtension>
            <ns3:atemp>17.0</ns3:atemp>
          </ns3:TrackPointExtension>
        </extensions>
      </trkpt>
      <trkpt lat="42.6249848864972591400146484375" lon="19.88024580292403697967529296875">
        <ele>1746.800048828125</ele>
        <time>2026-06-16T08:17:26.000Z</time>
        <extensions>
          <ns3:TrackPointExtension>
            <ns3:atemp>17.0</ns3:atemp>
          </ns3:TrackPointExtension>
        </extensions>
      </trkpt>
      <trkpt lat="42.6249848864972591400146484375" lon="19.88024580292403697967529296875">
        <ele>1746.800048828125</ele>
        <time>2026-06-16T08:17:27.000Z</time>
        <extensions>
          <ns3:TrackPointExtension>
            <ns3:atemp>17.0</ns3:atemp>
          </ns3:TrackPointExtension>
        </extensions>
      </trkpt>
      <trkpt lat="42.6249848864972591400146484375" lon="19.88024580292403697967529296875">
        <ele>1746.800048828125</ele>
        <time>2026-06-16T08:17:28.000Z</time>
        <extensions>
          <ns3:TrackPointExtension>
            <ns3:atemp>17.0</ns3:atemp>
          </ns3:TrackPointExtension>
        </extensions>
      </trkpt>
      <trkpt lat="42.6249848864972591400146484375" lon="19.88024580292403697967529296875">
        <ele>1746.800048828125</ele>
        <time>2026-06-16T08:17:29.000Z</time>
        <extensions>
          <ns3:TrackPointExtension>
            <ns3:atemp>17.0</ns3:atemp>
          </ns3:TrackPointExtension>
        </extensions>
      </trkpt>
      <trkpt lat="42.6249848864972591400146484375" lon="19.88024580292403697967529296875">
        <ele>1746.800048828125</ele>
        <time>2026-06-16T08:17:30.000Z</time>
        <extensions>
          <ns3:TrackPointExtension>
            <ns3:atemp>17.0</ns3:atemp>
          </ns3:TrackPointExtension>
        </extensions>
      </trkpt>
      <trkpt lat="42.6249848864972591400146484375" lon="19.88024580292403697967529296875">
        <ele>1746.800048828125</ele>
        <time>2026-06-16T08:17:31.000Z</time>
        <extensions>
          <ns3:TrackPointExtension>
            <ns3:atemp>17.0</ns3:atemp>
          </ns3:TrackPointExtension>
        </extensions>
      </trkpt>
      <trkpt lat="42.6249848864972591400146484375" lon="19.88024580292403697967529296875">
        <ele>1746.800048828125</ele>
        <time>2026-06-16T08:17:32.000Z</time>
        <extensions>
          <ns3:TrackPointExtension>
            <ns3:atemp>17.0</ns3:atemp>
          </ns3:TrackPointExtension>
        </extensions>
      </trkpt>
      <trkpt lat="42.6249848864972591400146484375" lon="19.88024580292403697967529296875">
        <ele>1746.800048828125</ele>
        <time>2026-06-16T08:17:33.000Z</time>
        <extensions>
          <ns3:TrackPointExtension>
            <ns3:atemp>17.0</ns3:atemp>
          </ns3:TrackPointExtension>
        </extensions>
      </trkpt>
      <trkpt lat="42.6249848864972591400146484375" lon="19.88024580292403697967529296875">
        <ele>1746.800048828125</ele>
        <time>2026-06-16T08:17:34.000Z</time>
        <extensions>
          <ns3:TrackPointExtension>
            <ns3:atemp>17.0</ns3:atemp>
          </ns3:TrackPointExtension>
        </extensions>
      </trkpt>
      <trkpt lat="42.6249848864972591400146484375" lon="19.88024580292403697967529296875">
        <ele>1746.800048828125</ele>
        <time>2026-06-16T08:17:35.000Z</time>
        <extensions>
          <ns3:TrackPointExtension>
            <ns3:atemp>17.0</ns3:atemp>
          </ns3:TrackPointExtension>
        </extensions>
      </trkpt>
      <trkpt lat="42.6249848864972591400146484375" lon="19.88024580292403697967529296875">
        <ele>1746.800048828125</ele>
        <time>2026-06-16T08:17:36.000Z</time>
        <extensions>
          <ns3:TrackPointExtension>
            <ns3:atemp>17.0</ns3:atemp>
          </ns3:TrackPointExtension>
        </extensions>
      </trkpt>
      <trkpt lat="42.6249848864972591400146484375" lon="19.88024580292403697967529296875">
        <ele>1746.800048828125</ele>
        <time>2026-06-16T08:17:37.000Z</time>
        <extensions>
          <ns3:TrackPointExtension>
            <ns3:atemp>17.0</ns3:atemp>
          </ns3:TrackPointExtension>
        </extensions>
      </trkpt>
      <trkpt lat="42.6249848864972591400146484375" lon="19.88024580292403697967529296875">
        <ele>1746.800048828125</ele>
        <time>2026-06-16T08:17:38.000Z</time>
        <extensions>
          <ns3:TrackPointExtension>
            <ns3:atemp>17.0</ns3:atemp>
          </ns3:TrackPointExtension>
        </extensions>
      </trkpt>
      <trkpt lat="42.6249848864972591400146484375" lon="19.88024580292403697967529296875">
        <ele>1746.800048828125</ele>
        <time>2026-06-16T08:17:39.000Z</time>
        <extensions>
          <ns3:TrackPointExtension>
            <ns3:atemp>17.0</ns3:atemp>
          </ns3:TrackPointExtension>
        </extensions>
      </trkpt>
      <trkpt lat="42.6249848864972591400146484375" lon="19.88024580292403697967529296875">
        <ele>1746.800048828125</ele>
        <time>2026-06-16T08:17:40.000Z</time>
        <extensions>
          <ns3:TrackPointExtension>
            <ns3:atemp>17.0</ns3:atemp>
          </ns3:TrackPointExtension>
        </extensions>
      </trkpt>
      <trkpt lat="42.6249848864972591400146484375" lon="19.88024580292403697967529296875">
        <ele>1746.800048828125</ele>
        <time>2026-06-16T08:17:41.000Z</time>
        <extensions>
          <ns3:TrackPointExtension>
            <ns3:atemp>17.0</ns3:atemp>
          </ns3:TrackPointExtension>
        </extensions>
      </trkpt>
      <trkpt lat="42.6249848864972591400146484375" lon="19.88024580292403697967529296875">
        <ele>1746.800048828125</ele>
        <time>2026-06-16T08:17:42.000Z</time>
        <extensions>
          <ns3:TrackPointExtension>
            <ns3:atemp>17.0</ns3:atemp>
          </ns3:TrackPointExtension>
        </extensions>
      </trkpt>
      <trkpt lat="42.6249848864972591400146484375" lon="19.88024580292403697967529296875">
        <ele>1746.800048828125</ele>
        <time>2026-06-16T08:17:43.000Z</time>
        <extensions>
          <ns3:TrackPointExtension>
            <ns3:atemp>17.0</ns3:atemp>
          </ns3:TrackPointExtension>
        </extensions>
      </trkpt>
      <trkpt lat="42.6249848864972591400146484375" lon="19.88024580292403697967529296875">
        <ele>1746.800048828125</ele>
        <time>2026-06-16T08:17:44.000Z</time>
        <extensions>
          <ns3:TrackPointExtension>
            <ns3:atemp>17.0</ns3:atemp>
          </ns3:TrackPointExtension>
        </extensions>
      </trkpt>
      <trkpt lat="42.6249848864972591400146484375" lon="19.88024580292403697967529296875">
        <ele>1746.800048828125</ele>
        <time>2026-06-16T08:17:45.000Z</time>
        <extensions>
          <ns3:TrackPointExtension>
            <ns3:atemp>17.0</ns3:atemp>
          </ns3:TrackPointExtension>
        </extensions>
      </trkpt>
      <trkpt lat="42.6249848864972591400146484375" lon="19.88024580292403697967529296875">
        <ele>1746.800048828125</ele>
        <time>2026-06-16T08:17:46.000Z</time>
        <extensions>
          <ns3:TrackPointExtension>
            <ns3:atemp>17.0</ns3:atemp>
          </ns3:TrackPointExtension>
        </extensions>
      </trkpt>
      <trkpt lat="42.6249848864972591400146484375" lon="19.88024580292403697967529296875">
        <ele>1746.800048828125</ele>
        <time>2026-06-16T08:17:47.000Z</time>
        <extensions>
          <ns3:TrackPointExtension>
            <ns3:atemp>17.0</ns3:atemp>
          </ns3:TrackPointExtension>
        </extensions>
      </trkpt>
      <trkpt lat="42.6249848864972591400146484375" lon="19.88024580292403697967529296875">
        <ele>1746.800048828125</ele>
        <time>2026-06-16T08:17:48.000Z</time>
        <extensions>
          <ns3:TrackPointExtension>
            <ns3:atemp>17.0</ns3:atemp>
          </ns3:TrackPointExtension>
        </extensions>
      </trkpt>
      <trkpt lat="42.6249848864972591400146484375" lon="19.88024580292403697967529296875">
        <ele>1746.800048828125</ele>
        <time>2026-06-16T08:17:49.000Z</time>
        <extensions>
          <ns3:TrackPointExtension>
            <ns3:atemp>17.0</ns3:atemp>
          </ns3:TrackPointExtension>
        </extensions>
      </trkpt>
      <trkpt lat="42.6249848864972591400146484375" lon="19.88024580292403697967529296875">
        <ele>1746.800048828125</ele>
        <time>2026-06-16T08:17:50.000Z</time>
        <extensions>
          <ns3:TrackPointExtension>
            <ns3:atemp>17.0</ns3:atemp>
          </ns3:TrackPointExtension>
        </extensions>
      </trkpt>
      <trkpt lat="42.6249848864972591400146484375" lon="19.88024580292403697967529296875">
        <ele>1746.800048828125</ele>
        <time>2026-06-16T08:17:51.000Z</time>
        <extensions>
          <ns3:TrackPointExtension>
            <ns3:atemp>17.0</ns3:atemp>
          </ns3:TrackPointExtension>
        </extensions>
      </trkpt>
      <trkpt lat="42.6249848864972591400146484375" lon="19.88024580292403697967529296875">
        <ele>1746.800048828125</ele>
        <time>2026-06-16T08:17:52.000Z</time>
        <extensions>
          <ns3:TrackPointExtension>
            <ns3:atemp>17.0</ns3:atemp>
          </ns3:TrackPointExtension>
        </extensions>
      </trkpt>
      <trkpt lat="42.6249848864972591400146484375" lon="19.88024580292403697967529296875">
        <ele>1746.800048828125</ele>
        <time>2026-06-16T08:17:53.000Z</time>
        <extensions>
          <ns3:TrackPointExtension>
            <ns3:atemp>17.0</ns3:atemp>
          </ns3:TrackPointExtension>
        </extensions>
      </trkpt>
      <trkpt lat="42.6249848864972591400146484375" lon="19.88024580292403697967529296875">
        <ele>1746.800048828125</ele>
        <time>2026-06-16T08:17:54.000Z</time>
        <extensions>
          <ns3:TrackPointExtension>
            <ns3:atemp>17.0</ns3:atemp>
          </ns3:TrackPointExtension>
        </extensions>
      </trkpt>
      <trkpt lat="42.6249848864972591400146484375" lon="19.88024580292403697967529296875">
        <ele>1746.800048828125</ele>
        <time>2026-06-16T08:17:55.000Z</time>
        <extensions>
          <ns3:TrackPointExtension>
            <ns3:atemp>17.0</ns3:atemp>
          </ns3:TrackPointExtension>
        </extensions>
      </trkpt>
      <trkpt lat="42.6249848864972591400146484375" lon="19.88024580292403697967529296875">
        <ele>1746.800048828125</ele>
        <time>2026-06-16T08:17:56.000Z</time>
        <extensions>
          <ns3:TrackPointExtension>
            <ns3:atemp>17.0</ns3:atemp>
          </ns3:TrackPointExtension>
        </extensions>
      </trkpt>
      <trkpt lat="42.6249848864972591400146484375" lon="19.88024580292403697967529296875">
        <ele>1746.800048828125</ele>
        <time>2026-06-16T08:17:57.000Z</time>
        <extensions>
          <ns3:TrackPointExtension>
            <ns3:atemp>17.0</ns3:atemp>
          </ns3:TrackPointExtension>
        </extensions>
      </trkpt>
      <trkpt lat="42.6249848864972591400146484375" lon="19.88024580292403697967529296875">
        <ele>1746.800048828125</ele>
        <time>2026-06-16T08:17:58.000Z</time>
        <extensions>
          <ns3:TrackPointExtension>
            <ns3:atemp>17.0</ns3:atemp>
          </ns3:TrackPointExtension>
        </extensions>
      </trkpt>
      <trkpt lat="42.6249848864972591400146484375" lon="19.88024580292403697967529296875">
        <ele>1746.800048828125</ele>
        <time>2026-06-16T08:17:59.000Z</time>
        <extensions>
          <ns3:TrackPointExtension>
            <ns3:atemp>17.0</ns3:atemp>
          </ns3:TrackPointExtension>
        </extensions>
      </trkpt>
      <trkpt lat="42.6249848864972591400146484375" lon="19.88024580292403697967529296875">
        <ele>1746.800048828125</ele>
        <time>2026-06-16T08:18:00.000Z</time>
        <extensions>
          <ns3:TrackPointExtension>
            <ns3:atemp>17.0</ns3:atemp>
          </ns3:TrackPointExtension>
        </extensions>
      </trkpt>
      <trkpt lat="42.6249848864972591400146484375" lon="19.88024580292403697967529296875">
        <ele>1746.800048828125</ele>
        <time>2026-06-16T08:18:01.000Z</time>
        <extensions>
          <ns3:TrackPointExtension>
            <ns3:atemp>17.0</ns3:atemp>
          </ns3:TrackPointExtension>
        </extensions>
      </trkpt>
      <trkpt lat="42.6249848864972591400146484375" lon="19.88024580292403697967529296875">
        <ele>1746.800048828125</ele>
        <time>2026-06-16T08:18:02.000Z</time>
        <extensions>
          <ns3:TrackPointExtension>
            <ns3:atemp>17.0</ns3:atemp>
          </ns3:TrackPointExtension>
        </extensions>
      </trkpt>
      <trkpt lat="42.6249848864972591400146484375" lon="19.88024580292403697967529296875">
        <ele>1746.800048828125</ele>
        <time>2026-06-16T08:18:03.000Z</time>
        <extensions>
          <ns3:TrackPointExtension>
            <ns3:atemp>17.0</ns3:atemp>
          </ns3:TrackPointExtension>
        </extensions>
      </trkpt>
      <trkpt lat="42.6249848864972591400146484375" lon="19.88024580292403697967529296875">
        <ele>1746.800048828125</ele>
        <time>2026-06-16T08:18:04.000Z</time>
        <extensions>
          <ns3:TrackPointExtension>
            <ns3:atemp>17.0</ns3:atemp>
          </ns3:TrackPointExtension>
        </extensions>
      </trkpt>
      <trkpt lat="42.6249848864972591400146484375" lon="19.88024580292403697967529296875">
        <ele>1746.800048828125</ele>
        <time>2026-06-16T08:18:05.000Z</time>
        <extensions>
          <ns3:TrackPointExtension>
            <ns3:atemp>17.0</ns3:atemp>
          </ns3:TrackPointExtension>
        </extensions>
      </trkpt>
      <trkpt lat="42.6249848864972591400146484375" lon="19.88024580292403697967529296875">
        <ele>1746.800048828125</ele>
        <time>2026-06-16T08:18:06.000Z</time>
        <extensions>
          <ns3:TrackPointExtension>
            <ns3:atemp>17.0</ns3:atemp>
          </ns3:TrackPointExtension>
        </extensions>
      </trkpt>
      <trkpt lat="42.6249848864972591400146484375" lon="19.88024580292403697967529296875">
        <ele>1746.800048828125</ele>
        <time>2026-06-16T08:18:07.000Z</time>
        <extensions>
          <ns3:TrackPointExtension>
            <ns3:atemp>17.0</ns3:atemp>
          </ns3:TrackPointExtension>
        </extensions>
      </trkpt>
      <trkpt lat="42.6249848864972591400146484375" lon="19.88024580292403697967529296875">
        <ele>1746.800048828125</ele>
        <time>2026-06-16T08:18:08.000Z</time>
        <extensions>
          <ns3:TrackPointExtension>
            <ns3:atemp>17.0</ns3:atemp>
          </ns3:TrackPointExtension>
        </extensions>
      </trkpt>
      <trkpt lat="42.6249848864972591400146484375" lon="19.88024580292403697967529296875">
        <ele>1746.800048828125</ele>
        <time>2026-06-16T08:18:09.000Z</time>
        <extensions>
          <ns3:TrackPointExtension>
            <ns3:atemp>17.0</ns3:atemp>
          </ns3:TrackPointExtension>
        </extensions>
      </trkpt>
      <trkpt lat="42.6249848864972591400146484375" lon="19.88024580292403697967529296875">
        <ele>1746.800048828125</ele>
        <time>2026-06-16T08:18:10.000Z</time>
        <extensions>
          <ns3:TrackPointExtension>
            <ns3:atemp>17.0</ns3:atemp>
          </ns3:TrackPointExtension>
        </extensions>
      </trkpt>
      <trkpt lat="42.6249848864972591400146484375" lon="19.88024580292403697967529296875">
        <ele>1746.800048828125</ele>
        <time>2026-06-16T08:18:11.000Z</time>
        <extensions>
          <ns3:TrackPointExtension>
            <ns3:atemp>17.0</ns3:atemp>
          </ns3:TrackPointExtension>
        </extensions>
      </trkpt>
      <trkpt lat="42.6249848864972591400146484375" lon="19.88024580292403697967529296875">
        <ele>1746.800048828125</ele>
        <time>2026-06-16T08:18:12.000Z</time>
        <extensions>
          <ns3:TrackPointExtension>
            <ns3:atemp>17.0</ns3:atemp>
          </ns3:TrackPointExtension>
        </extensions>
      </trkpt>
      <trkpt lat="42.6249848864972591400146484375" lon="19.88024580292403697967529296875">
        <ele>1746.800048828125</ele>
        <time>2026-06-16T08:18:13.000Z</time>
        <extensions>
          <ns3:TrackPointExtension>
            <ns3:atemp>17.0</ns3:atemp>
          </ns3:TrackPointExtension>
        </extensions>
      </trkpt>
      <trkpt lat="42.6249848864972591400146484375" lon="19.88024580292403697967529296875">
        <ele>1746.800048828125</ele>
        <time>2026-06-16T08:18:14.000Z</time>
        <extensions>
          <ns3:TrackPointExtension>
            <ns3:atemp>17.0</ns3:atemp>
          </ns3:TrackPointExtension>
        </extensions>
      </trkpt>
      <trkpt lat="42.6249848864972591400146484375" lon="19.88024580292403697967529296875">
        <ele>1746.800048828125</ele>
        <time>2026-06-16T08:18:15.000Z</time>
        <extensions>
          <ns3:TrackPointExtension>
            <ns3:atemp>17.0</ns3:atemp>
          </ns3:TrackPointExtension>
        </extensions>
      </trkpt>
      <trkpt lat="42.6249848864972591400146484375" lon="19.88024580292403697967529296875">
        <ele>1746.800048828125</ele>
        <time>2026-06-16T08:18:16.000Z</time>
        <extensions>
          <ns3:TrackPointExtension>
            <ns3:atemp>17.0</ns3:atemp>
          </ns3:TrackPointExtension>
        </extensions>
      </trkpt>
      <trkpt lat="42.6249848864972591400146484375" lon="19.88024580292403697967529296875">
        <ele>1746.800048828125</ele>
        <time>2026-06-16T08:18:17.000Z</time>
        <extensions>
          <ns3:TrackPointExtension>
            <ns3:atemp>17.0</ns3:atemp>
          </ns3:TrackPointExtension>
        </extensions>
      </trkpt>
      <trkpt lat="42.6249848864972591400146484375" lon="19.88024580292403697967529296875">
        <ele>1746.800048828125</ele>
        <time>2026-06-16T08:18:18.000Z</time>
        <extensions>
          <ns3:TrackPointExtension>
            <ns3:atemp>17.0</ns3:atemp>
          </ns3:TrackPointExtension>
        </extensions>
      </trkpt>
      <trkpt lat="42.6249848864972591400146484375" lon="19.88024580292403697967529296875">
        <ele>1746.800048828125</ele>
        <time>2026-06-16T08:18:19.000Z</time>
        <extensions>
          <ns3:TrackPointExtension>
            <ns3:atemp>17.0</ns3:atemp>
          </ns3:TrackPointExtension>
        </extensions>
      </trkpt>
      <trkpt lat="42.6249848864972591400146484375" lon="19.88024580292403697967529296875">
        <ele>1746.800048828125</ele>
        <time>2026-06-16T08:18:20.000Z</time>
        <extensions>
          <ns3:TrackPointExtension>
            <ns3:atemp>17.0</ns3:atemp>
          </ns3:TrackPointExtension>
        </extensions>
      </trkpt>
      <trkpt lat="42.6249848864972591400146484375" lon="19.88024580292403697967529296875">
        <ele>1746.800048828125</ele>
        <time>2026-06-16T08:18:21.000Z</time>
        <extensions>
          <ns3:TrackPointExtension>
            <ns3:atemp>17.0</ns3:atemp>
          </ns3:TrackPointExtension>
        </extensions>
      </trkpt>
      <trkpt lat="42.6249848864972591400146484375" lon="19.88024580292403697967529296875">
        <ele>1746.800048828125</ele>
        <time>2026-06-16T08:18:22.000Z</time>
        <extensions>
          <ns3:TrackPointExtension>
            <ns3:atemp>17.0</ns3:atemp>
          </ns3:TrackPointExtension>
        </extensions>
      </trkpt>
      <trkpt lat="42.6249848864972591400146484375" lon="19.88024580292403697967529296875">
        <ele>1746.800048828125</ele>
        <time>2026-06-16T08:18:23.000Z</time>
        <extensions>
          <ns3:TrackPointExtension>
            <ns3:atemp>17.0</ns3:atemp>
          </ns3:TrackPointExtension>
        </extensions>
      </trkpt>
      <trkpt lat="42.6249848864972591400146484375" lon="19.88024580292403697967529296875">
        <ele>1746.800048828125</ele>
        <time>2026-06-16T08:18:24.000Z</time>
        <extensions>
          <ns3:TrackPointExtension>
            <ns3:atemp>17.0</ns3:atemp>
          </ns3:TrackPointExtension>
        </extensions>
      </trkpt>
      <trkpt lat="42.6249848864972591400146484375" lon="19.88024580292403697967529296875">
        <ele>1746.800048828125</ele>
        <time>2026-06-16T08:18:25.000Z</time>
        <extensions>
          <ns3:TrackPointExtension>
            <ns3:atemp>17.0</ns3:atemp>
          </ns3:TrackPointExtension>
        </extensions>
      </trkpt>
      <trkpt lat="42.6249848864972591400146484375" lon="19.88024580292403697967529296875">
        <ele>1746.800048828125</ele>
        <time>2026-06-16T08:18:26.000Z</time>
        <extensions>
          <ns3:TrackPointExtension>
            <ns3:atemp>17.0</ns3:atemp>
          </ns3:TrackPointExtension>
        </extensions>
      </trkpt>
      <trkpt lat="42.6249848864972591400146484375" lon="19.88024580292403697967529296875">
        <ele>1746.800048828125</ele>
        <time>2026-06-16T08:18:27.000Z</time>
        <extensions>
          <ns3:TrackPointExtension>
            <ns3:atemp>17.0</ns3:atemp>
          </ns3:TrackPointExtension>
        </extensions>
      </trkpt>
      <trkpt lat="42.6249848864972591400146484375" lon="19.88024580292403697967529296875">
        <ele>1746.800048828125</ele>
        <time>2026-06-16T08:18:28.000Z</time>
        <extensions>
          <ns3:TrackPointExtension>
            <ns3:atemp>17.0</ns3:atemp>
          </ns3:TrackPointExtension>
        </extensions>
      </trkpt>
      <trkpt lat="42.6249848864972591400146484375" lon="19.88024580292403697967529296875">
        <ele>1746.800048828125</ele>
        <time>2026-06-16T08:18:29.000Z</time>
        <extensions>
          <ns3:TrackPointExtension>
            <ns3:atemp>17.0</ns3:atemp>
          </ns3:TrackPointExtension>
        </extensions>
      </trkpt>
      <trkpt lat="42.6249848864972591400146484375" lon="19.88024580292403697967529296875">
        <ele>1746.800048828125</ele>
        <time>2026-06-16T08:18:30.000Z</time>
        <extensions>
          <ns3:TrackPointExtension>
            <ns3:atemp>17.0</ns3:atemp>
          </ns3:TrackPointExtension>
        </extensions>
      </trkpt>
      <trkpt lat="42.6249848864972591400146484375" lon="19.88024580292403697967529296875">
        <ele>1746.800048828125</ele>
        <time>2026-06-16T08:18:31.000Z</time>
        <extensions>
          <ns3:TrackPointExtension>
            <ns3:atemp>17.0</ns3:atemp>
          </ns3:TrackPointExtension>
        </extensions>
      </trkpt>
      <trkpt lat="42.6249848864972591400146484375" lon="19.88024580292403697967529296875">
        <ele>1746.800048828125</ele>
        <time>2026-06-16T08:18:32.000Z</time>
        <extensions>
          <ns3:TrackPointExtension>
            <ns3:atemp>17.0</ns3:atemp>
          </ns3:TrackPointExtension>
        </extensions>
      </trkpt>
      <trkpt lat="42.6249848864972591400146484375" lon="19.88024580292403697967529296875">
        <ele>1746.800048828125</ele>
        <time>2026-06-16T08:18:33.000Z</time>
        <extensions>
          <ns3:TrackPointExtension>
            <ns3:atemp>17.0</ns3:atemp>
          </ns3:TrackPointExtension>
        </extensions>
      </trkpt>
      <trkpt lat="42.6249848864972591400146484375" lon="19.88024580292403697967529296875">
        <ele>1746.800048828125</ele>
        <time>2026-06-16T08:18:34.000Z</time>
        <extensions>
          <ns3:TrackPointExtension>
            <ns3:atemp>17.0</ns3:atemp>
          </ns3:TrackPointExtension>
        </extensions>
      </trkpt>
      <trkpt lat="42.6249848864972591400146484375" lon="19.88024580292403697967529296875">
        <ele>1746.800048828125</ele>
        <time>2026-06-16T08:18:35.000Z</time>
        <extensions>
          <ns3:TrackPointExtension>
            <ns3:atemp>17.0</ns3:atemp>
          </ns3:TrackPointExtension>
        </extensions>
      </trkpt>
      <trkpt lat="42.6249848864972591400146484375" lon="19.88024580292403697967529296875">
        <ele>1746.800048828125</ele>
        <time>2026-06-16T08:18:36.000Z</time>
        <extensions>
          <ns3:TrackPointExtension>
            <ns3:atemp>17.0</ns3:atemp>
          </ns3:TrackPointExtension>
        </extensions>
      </trkpt>
      <trkpt lat="42.6249848864972591400146484375" lon="19.88024580292403697967529296875">
        <ele>1746.800048828125</ele>
        <time>2026-06-16T08:18:37.000Z</time>
        <extensions>
          <ns3:TrackPointExtension>
            <ns3:atemp>17.0</ns3:atemp>
          </ns3:TrackPointExtension>
        </extensions>
      </trkpt>
      <trkpt lat="42.6249848864972591400146484375" lon="19.88024580292403697967529296875">
        <ele>1746.800048828125</ele>
        <time>2026-06-16T08:18:38.000Z</time>
        <extensions>
          <ns3:TrackPointExtension>
            <ns3:atemp>17.0</ns3:atemp>
          </ns3:TrackPointExtension>
        </extensions>
      </trkpt>
      <trkpt lat="42.6249848864972591400146484375" lon="19.88024580292403697967529296875">
        <ele>1746.800048828125</ele>
        <time>2026-06-16T08:18:39.000Z</time>
        <extensions>
          <ns3:TrackPointExtension>
            <ns3:atemp>17.0</ns3:atemp>
          </ns3:TrackPointExtension>
        </extensions>
      </trkpt>
      <trkpt lat="42.6249848864972591400146484375" lon="19.88024580292403697967529296875">
        <ele>1746.800048828125</ele>
        <time>2026-06-16T08:18:40.000Z</time>
        <extensions>
          <ns3:TrackPointExtension>
            <ns3:atemp>17.0</ns3:atemp>
          </ns3:TrackPointExtension>
        </extensions>
      </trkpt>
      <trkpt lat="42.6249848864972591400146484375" lon="19.88024580292403697967529296875">
        <ele>1746.800048828125</ele>
        <time>2026-06-16T08:18:41.000Z</time>
        <extensions>
          <ns3:TrackPointExtension>
            <ns3:atemp>17.0</ns3:atemp>
          </ns3:TrackPointExtension>
        </extensions>
      </trkpt>
      <trkpt lat="42.6249848864972591400146484375" lon="19.88024580292403697967529296875">
        <ele>1746.800048828125</ele>
        <time>2026-06-16T08:18:42.000Z</time>
        <extensions>
          <ns3:TrackPointExtension>
            <ns3:atemp>17.0</ns3:atemp>
          </ns3:TrackPointExtension>
        </extensions>
      </trkpt>
      <trkpt lat="42.6249848864972591400146484375" lon="19.88024580292403697967529296875">
        <ele>1746.800048828125</ele>
        <time>2026-06-16T08:18:43.000Z</time>
        <extensions>
          <ns3:TrackPointExtension>
            <ns3:atemp>17.0</ns3:atemp>
          </ns3:TrackPointExtension>
        </extensions>
      </trkpt>
      <trkpt lat="42.6249848864972591400146484375" lon="19.88024580292403697967529296875">
        <ele>1746.800048828125</ele>
        <time>2026-06-16T08:18:44.000Z</time>
        <extensions>
          <ns3:TrackPointExtension>
            <ns3:atemp>17.0</ns3:atemp>
          </ns3:TrackPointExtension>
        </extensions>
      </trkpt>
      <trkpt lat="42.6249848864972591400146484375" lon="19.88024580292403697967529296875">
        <ele>1746.800048828125</ele>
        <time>2026-06-16T08:18:45.000Z</time>
        <extensions>
          <ns3:TrackPointExtension>
            <ns3:atemp>17.0</ns3:atemp>
          </ns3:TrackPointExtension>
        </extensions>
      </trkpt>
      <trkpt lat="42.6249848864972591400146484375" lon="19.88024580292403697967529296875">
        <ele>1746.800048828125</ele>
        <time>2026-06-16T08:18:46.000Z</time>
        <extensions>
          <ns3:TrackPointExtension>
            <ns3:atemp>17.0</ns3:atemp>
          </ns3:TrackPointExtension>
        </extensions>
      </trkpt>
      <trkpt lat="42.6249848864972591400146484375" lon="19.88024580292403697967529296875">
        <ele>1746.800048828125</ele>
        <time>2026-06-16T08:18:47.000Z</time>
        <extensions>
          <ns3:TrackPointExtension>
            <ns3:atemp>17.0</ns3:atemp>
          </ns3:TrackPointExtension>
        </extensions>
      </trkpt>
      <trkpt lat="42.6249848864972591400146484375" lon="19.88024580292403697967529296875">
        <ele>1746.800048828125</ele>
        <time>2026-06-16T08:18:48.000Z</time>
        <extensions>
          <ns3:TrackPointExtension>
            <ns3:atemp>17.0</ns3:atemp>
          </ns3:TrackPointExtension>
        </extensions>
      </trkpt>
      <trkpt lat="42.6249848864972591400146484375" lon="19.88024580292403697967529296875">
        <ele>1746.800048828125</ele>
        <time>2026-06-16T08:18:49.000Z</time>
        <extensions>
          <ns3:TrackPointExtension>
            <ns3:atemp>17.0</ns3:atemp>
          </ns3:TrackPointExtension>
        </extensions>
      </trkpt>
      <trkpt lat="42.6249848864972591400146484375" lon="19.88024580292403697967529296875">
        <ele>1746.800048828125</ele>
        <time>2026-06-16T08:18:50.000Z</time>
        <extensions>
          <ns3:TrackPointExtension>
            <ns3:atemp>17.0</ns3:atemp>
          </ns3:TrackPointExtension>
        </extensions>
      </trkpt>
      <trkpt lat="42.6249848864972591400146484375" lon="19.88024580292403697967529296875">
        <ele>1746.800048828125</ele>
        <time>2026-06-16T08:18:51.000Z</time>
        <extensions>
          <ns3:TrackPointExtension>
            <ns3:atemp>17.0</ns3:atemp>
          </ns3:TrackPointExtension>
        </extensions>
      </trkpt>
      <trkpt lat="42.6249848864972591400146484375" lon="19.88024580292403697967529296875">
        <ele>1746.800048828125</ele>
        <time>2026-06-16T08:18:52.000Z</time>
        <extensions>
          <ns3:TrackPointExtension>
            <ns3:atemp>17.0</ns3:atemp>
          </ns3:TrackPointExtension>
        </extensions>
      </trkpt>
      <trkpt lat="42.6249848864972591400146484375" lon="19.88024580292403697967529296875">
        <ele>1746.800048828125</ele>
        <time>2026-06-16T08:18:53.000Z</time>
        <extensions>
          <ns3:TrackPointExtension>
            <ns3:atemp>17.0</ns3:atemp>
          </ns3:TrackPointExtension>
        </extensions>
      </trkpt>
      <trkpt lat="42.6249848864972591400146484375" lon="19.88024580292403697967529296875">
        <ele>1746.800048828125</ele>
        <time>2026-06-16T08:18:54.000Z</time>
        <extensions>
          <ns3:TrackPointExtension>
            <ns3:atemp>17.0</ns3:atemp>
          </ns3:TrackPointExtension>
        </extensions>
      </trkpt>
      <trkpt lat="42.6249848864972591400146484375" lon="19.88024580292403697967529296875">
        <ele>1746.800048828125</ele>
        <time>2026-06-16T08:18:55.000Z</time>
        <extensions>
          <ns3:TrackPointExtension>
            <ns3:atemp>17.0</ns3:atemp>
          </ns3:TrackPointExtension>
        </extensions>
      </trkpt>
      <trkpt lat="42.6249848864972591400146484375" lon="19.88024580292403697967529296875">
        <ele>1746.800048828125</ele>
        <time>2026-06-16T08:18:56.000Z</time>
        <extensions>
          <ns3:TrackPointExtension>
            <ns3:atemp>17.0</ns3:atemp>
          </ns3:TrackPointExtension>
        </extensions>
      </trkpt>
      <trkpt lat="42.6249848864972591400146484375" lon="19.88024580292403697967529296875">
        <ele>1746.800048828125</ele>
        <time>2026-06-16T08:18:57.000Z</time>
        <extensions>
          <ns3:TrackPointExtension>
            <ns3:atemp>17.0</ns3:atemp>
          </ns3:TrackPointExtension>
        </extensions>
      </trkpt>
      <trkpt lat="42.6249848864972591400146484375" lon="19.88024580292403697967529296875">
        <ele>1746.800048828125</ele>
        <time>2026-06-16T08:18:58.000Z</time>
        <extensions>
          <ns3:TrackPointExtension>
            <ns3:atemp>17.0</ns3:atemp>
          </ns3:TrackPointExtension>
        </extensions>
      </trkpt>
      <trkpt lat="42.6249848864972591400146484375" lon="19.88024580292403697967529296875">
        <ele>1746.800048828125</ele>
        <time>2026-06-16T08:18:59.000Z</time>
        <extensions>
          <ns3:TrackPointExtension>
            <ns3:atemp>17.0</ns3:atemp>
          </ns3:TrackPointExtension>
        </extensions>
      </trkpt>
      <trkpt lat="42.6249848864972591400146484375" lon="19.88024580292403697967529296875">
        <ele>1746.800048828125</ele>
        <time>2026-06-16T08:19:00.000Z</time>
        <extensions>
          <ns3:TrackPointExtension>
            <ns3:atemp>17.0</ns3:atemp>
          </ns3:TrackPointExtension>
        </extensions>
      </trkpt>
      <trkpt lat="42.6249848864972591400146484375" lon="19.88024580292403697967529296875">
        <ele>1746.800048828125</ele>
        <time>2026-06-16T08:19:01.000Z</time>
        <extensions>
          <ns3:TrackPointExtension>
            <ns3:atemp>17.0</ns3:atemp>
          </ns3:TrackPointExtension>
        </extensions>
      </trkpt>
      <trkpt lat="42.6249848864972591400146484375" lon="19.88024580292403697967529296875">
        <ele>1746.800048828125</ele>
        <time>2026-06-16T08:19:02.000Z</time>
        <extensions>
          <ns3:TrackPointExtension>
            <ns3:atemp>17.0</ns3:atemp>
          </ns3:TrackPointExtension>
        </extensions>
      </trkpt>
      <trkpt lat="42.6249848864972591400146484375" lon="19.88024580292403697967529296875">
        <ele>1746.800048828125</ele>
        <time>2026-06-16T08:19:03.000Z</time>
        <extensions>
          <ns3:TrackPointExtension>
            <ns3:atemp>17.0</ns3:atemp>
          </ns3:TrackPointExtension>
        </extensions>
      </trkpt>
      <trkpt lat="42.6249848864972591400146484375" lon="19.88024580292403697967529296875">
        <ele>1746.800048828125</ele>
        <time>2026-06-16T08:19:04.000Z</time>
        <extensions>
          <ns3:TrackPointExtension>
            <ns3:atemp>17.0</ns3:atemp>
          </ns3:TrackPointExtension>
        </extensions>
      </trkpt>
      <trkpt lat="42.6249848864972591400146484375" lon="19.88024580292403697967529296875">
        <ele>1746.800048828125</ele>
        <time>2026-06-16T08:19:05.000Z</time>
        <extensions>
          <ns3:TrackPointExtension>
            <ns3:atemp>17.0</ns3:atemp>
          </ns3:TrackPointExtension>
        </extensions>
      </trkpt>
      <trkpt lat="42.6249848864972591400146484375" lon="19.88024580292403697967529296875">
        <ele>1746.800048828125</ele>
        <time>2026-06-16T08:19:06.000Z</time>
        <extensions>
          <ns3:TrackPointExtension>
            <ns3:atemp>17.0</ns3:atemp>
          </ns3:TrackPointExtension>
        </extensions>
      </trkpt>
      <trkpt lat="42.6249848864972591400146484375" lon="19.88024580292403697967529296875">
        <ele>1746.800048828125</ele>
        <time>2026-06-16T08:19:07.000Z</time>
        <extensions>
          <ns3:TrackPointExtension>
            <ns3:atemp>17.0</ns3:atemp>
          </ns3:TrackPointExtension>
        </extensions>
      </trkpt>
      <trkpt lat="42.6249848864972591400146484375" lon="19.88024580292403697967529296875">
        <ele>1746.800048828125</ele>
        <time>2026-06-16T08:19:08.000Z</time>
        <extensions>
          <ns3:TrackPointExtension>
            <ns3:atemp>17.0</ns3:atemp>
          </ns3:TrackPointExtension>
        </extensions>
      </trkpt>
      <trkpt lat="42.6249848864972591400146484375" lon="19.88024580292403697967529296875">
        <ele>1746.800048828125</ele>
        <time>2026-06-16T08:19:09.000Z</time>
        <extensions>
          <ns3:TrackPointExtension>
            <ns3:atemp>17.0</ns3:atemp>
          </ns3:TrackPointExtension>
        </extensions>
      </trkpt>
      <trkpt lat="42.6249848864972591400146484375" lon="19.88024580292403697967529296875">
        <ele>1746.800048828125</ele>
        <time>2026-06-16T08:19:10.000Z</time>
        <extensions>
          <ns3:TrackPointExtension>
            <ns3:atemp>17.0</ns3:atemp>
          </ns3:TrackPointExtension>
        </extensions>
      </trkpt>
      <trkpt lat="42.6249848864972591400146484375" lon="19.88024580292403697967529296875">
        <ele>1746.800048828125</ele>
        <time>2026-06-16T08:19:11.000Z</time>
        <extensions>
          <ns3:TrackPointExtension>
            <ns3:atemp>17.0</ns3:atemp>
          </ns3:TrackPointExtension>
        </extensions>
      </trkpt>
      <trkpt lat="42.6249848864972591400146484375" lon="19.88024580292403697967529296875">
        <ele>1746.800048828125</ele>
        <time>2026-06-16T08:19:12.000Z</time>
        <extensions>
          <ns3:TrackPointExtension>
            <ns3:atemp>17.0</ns3:atemp>
          </ns3:TrackPointExtension>
        </extensions>
      </trkpt>
      <trkpt lat="42.6249848864972591400146484375" lon="19.88024580292403697967529296875">
        <ele>1746.800048828125</ele>
        <time>2026-06-16T08:19:13.000Z</time>
        <extensions>
          <ns3:TrackPointExtension>
            <ns3:atemp>17.0</ns3:atemp>
          </ns3:TrackPointExtension>
        </extensions>
      </trkpt>
      <trkpt lat="42.6249848864972591400146484375" lon="19.88024580292403697967529296875">
        <ele>1746.800048828125</ele>
        <time>2026-06-16T08:19:14.000Z</time>
        <extensions>
          <ns3:TrackPointExtension>
            <ns3:atemp>17.0</ns3:atemp>
          </ns3:TrackPointExtension>
        </extensions>
      </trkpt>
      <trkpt lat="42.6249848864972591400146484375" lon="19.88024580292403697967529296875">
        <ele>1746.800048828125</ele>
        <time>2026-06-16T08:19:15.000Z</time>
        <extensions>
          <ns3:TrackPointExtension>
            <ns3:atemp>17.0</ns3:atemp>
          </ns3:TrackPointExtension>
        </extensions>
      </trkpt>
      <trkpt lat="42.6249848864972591400146484375" lon="19.88024580292403697967529296875">
        <ele>1746.800048828125</ele>
        <time>2026-06-16T08:19:16.000Z</time>
        <extensions>
          <ns3:TrackPointExtension>
            <ns3:atemp>17.0</ns3:atemp>
          </ns3:TrackPointExtension>
        </extensions>
      </trkpt>
      <trkpt lat="42.6249848864972591400146484375" lon="19.88024580292403697967529296875">
        <ele>1746.800048828125</ele>
        <time>2026-06-16T08:19:17.000Z</time>
        <extensions>
          <ns3:TrackPointExtension>
            <ns3:atemp>17.0</ns3:atemp>
          </ns3:TrackPointExtension>
        </extensions>
      </trkpt>
      <trkpt lat="42.6249848864972591400146484375" lon="19.88024580292403697967529296875">
        <ele>1746.800048828125</ele>
        <time>2026-06-16T08:19:18.000Z</time>
        <extensions>
          <ns3:TrackPointExtension>
            <ns3:atemp>17.0</ns3:atemp>
          </ns3:TrackPointExtension>
        </extensions>
      </trkpt>
      <trkpt lat="42.6249848864972591400146484375" lon="19.88024580292403697967529296875">
        <ele>1746.800048828125</ele>
        <time>2026-06-16T08:19:19.000Z</time>
        <extensions>
          <ns3:TrackPointExtension>
            <ns3:atemp>17.0</ns3:atemp>
          </ns3:TrackPointExtension>
        </extensions>
      </trkpt>
      <trkpt lat="42.6249848864972591400146484375" lon="19.88024580292403697967529296875">
        <ele>1746.800048828125</ele>
        <time>2026-06-16T08:19:20.000Z</time>
        <extensions>
          <ns3:TrackPointExtension>
            <ns3:atemp>17.0</ns3:atemp>
          </ns3:TrackPointExtension>
        </extensions>
      </trkpt>
      <trkpt lat="42.6249848864972591400146484375" lon="19.88024580292403697967529296875">
        <ele>1746.800048828125</ele>
        <time>2026-06-16T08:19:21.000Z</time>
        <extensions>
          <ns3:TrackPointExtension>
            <ns3:atemp>17.0</ns3:atemp>
          </ns3:TrackPointExtension>
        </extensions>
      </trkpt>
      <trkpt lat="42.6249848864972591400146484375" lon="19.88024580292403697967529296875">
        <ele>1746.800048828125</ele>
        <time>2026-06-16T08:19:22.000Z</time>
        <extensions>
          <ns3:TrackPointExtension>
            <ns3:atemp>17.0</ns3:atemp>
          </ns3:TrackPointExtension>
        </extensions>
      </trkpt>
      <trkpt lat="42.6249848864972591400146484375" lon="19.88024580292403697967529296875">
        <ele>1746.800048828125</ele>
        <time>2026-06-16T08:19:23.000Z</time>
        <extensions>
          <ns3:TrackPointExtension>
            <ns3:atemp>17.0</ns3:atemp>
          </ns3:TrackPointExtension>
        </extensions>
      </trkpt>
      <trkpt lat="42.6249848864972591400146484375" lon="19.88024580292403697967529296875">
        <ele>1746.800048828125</ele>
        <time>2026-06-16T08:19:24.000Z</time>
        <extensions>
          <ns3:TrackPointExtension>
            <ns3:atemp>17.0</ns3:atemp>
          </ns3:TrackPointExtension>
        </extensions>
      </trkpt>
      <trkpt lat="42.6249848864972591400146484375" lon="19.88024580292403697967529296875">
        <ele>1746.800048828125</ele>
        <time>2026-06-16T08:19:25.000Z</time>
        <extensions>
          <ns3:TrackPointExtension>
            <ns3:atemp>17.0</ns3:atemp>
          </ns3:TrackPointExtension>
        </extensions>
      </trkpt>
      <trkpt lat="42.6249848864972591400146484375" lon="19.88024580292403697967529296875">
        <ele>1746.800048828125</ele>
        <time>2026-06-16T08:19:26.000Z</time>
        <extensions>
          <ns3:TrackPointExtension>
            <ns3:atemp>17.0</ns3:atemp>
          </ns3:TrackPointExtension>
        </extensions>
      </trkpt>
      <trkpt lat="42.6249848864972591400146484375" lon="19.88024580292403697967529296875">
        <ele>1746.800048828125</ele>
        <time>2026-06-16T08:19:27.000Z</time>
        <extensions>
          <ns3:TrackPointExtension>
            <ns3:atemp>17.0</ns3:atemp>
          </ns3:TrackPointExtension>
        </extensions>
      </trkpt>
      <trkpt lat="42.6249848864972591400146484375" lon="19.88024580292403697967529296875">
        <ele>1746.800048828125</ele>
        <time>2026-06-16T08:19:28.000Z</time>
        <extensions>
          <ns3:TrackPointExtension>
            <ns3:atemp>17.0</ns3:atemp>
          </ns3:TrackPointExtension>
        </extensions>
      </trkpt>
      <trkpt lat="42.6249848864972591400146484375" lon="19.88024580292403697967529296875">
        <ele>1746.800048828125</ele>
        <time>2026-06-16T08:19:29.000Z</time>
        <extensions>
          <ns3:TrackPointExtension>
            <ns3:atemp>17.0</ns3:atemp>
          </ns3:TrackPointExtension>
        </extensions>
      </trkpt>
      <trkpt lat="42.6249848864972591400146484375" lon="19.88024580292403697967529296875">
        <ele>1746.800048828125</ele>
        <time>2026-06-16T08:19:30.000Z</time>
        <extensions>
          <ns3:TrackPointExtension>
            <ns3:atemp>17.0</ns3:atemp>
          </ns3:TrackPointExtension>
        </extensions>
      </trkpt>
      <trkpt lat="42.6249848864972591400146484375" lon="19.88024580292403697967529296875">
        <ele>1746.800048828125</ele>
        <time>2026-06-16T08:19:31.000Z</time>
        <extensions>
          <ns3:TrackPointExtension>
            <ns3:atemp>17.0</ns3:atemp>
          </ns3:TrackPointExtension>
        </extensions>
      </trkpt>
      <trkpt lat="42.6249848864972591400146484375" lon="19.88024580292403697967529296875">
        <ele>1746.800048828125</ele>
        <time>2026-06-16T08:19:32.000Z</time>
        <extensions>
          <ns3:TrackPointExtension>
            <ns3:atemp>17.0</ns3:atemp>
          </ns3:TrackPointExtension>
        </extensions>
      </trkpt>
      <trkpt lat="42.6249848864972591400146484375" lon="19.88024580292403697967529296875">
        <ele>1746.800048828125</ele>
        <time>2026-06-16T08:19:33.000Z</time>
        <extensions>
          <ns3:TrackPointExtension>
            <ns3:atemp>17.0</ns3:atemp>
          </ns3:TrackPointExtension>
        </extensions>
      </trkpt>
      <trkpt lat="42.6249848864972591400146484375" lon="19.88024580292403697967529296875">
        <ele>1746.800048828125</ele>
        <time>2026-06-16T08:19:34.000Z</time>
        <extensions>
          <ns3:TrackPointExtension>
            <ns3:atemp>17.0</ns3:atemp>
          </ns3:TrackPointExtension>
        </extensions>
      </trkpt>
      <trkpt lat="42.6249848864972591400146484375" lon="19.88024580292403697967529296875">
        <ele>1746.800048828125</ele>
        <time>2026-06-16T08:19:35.000Z</time>
        <extensions>
          <ns3:TrackPointExtension>
            <ns3:atemp>17.0</ns3:atemp>
          </ns3:TrackPointExtension>
        </extensions>
      </trkpt>
      <trkpt lat="42.6249848864972591400146484375" lon="19.88024580292403697967529296875">
        <ele>1746.800048828125</ele>
        <time>2026-06-16T08:19:36.000Z</time>
        <extensions>
          <ns3:TrackPointExtension>
            <ns3:atemp>17.0</ns3:atemp>
          </ns3:TrackPointExtension>
        </extensions>
      </trkpt>
      <trkpt lat="42.6249848864972591400146484375" lon="19.88024580292403697967529296875">
        <ele>1746.800048828125</ele>
        <time>2026-06-16T08:19:37.000Z</time>
        <extensions>
          <ns3:TrackPointExtension>
            <ns3:atemp>17.0</ns3:atemp>
          </ns3:TrackPointExtension>
        </extensions>
      </trkpt>
      <trkpt lat="42.6249848864972591400146484375" lon="19.88024580292403697967529296875">
        <ele>1746.800048828125</ele>
        <time>2026-06-16T08:19:38.000Z</time>
        <extensions>
          <ns3:TrackPointExtension>
            <ns3:atemp>17.0</ns3:atemp>
          </ns3:TrackPointExtension>
        </extensions>
      </trkpt>
      <trkpt lat="42.6249848864972591400146484375" lon="19.88024580292403697967529296875">
        <ele>1746.800048828125</ele>
        <time>2026-06-16T08:19:39.000Z</time>
        <extensions>
          <ns3:TrackPointExtension>
            <ns3:atemp>17.0</ns3:atemp>
          </ns3:TrackPointExtension>
        </extensions>
      </trkpt>
      <trkpt lat="42.6249848864972591400146484375" lon="19.88024580292403697967529296875">
        <ele>1746.800048828125</ele>
        <time>2026-06-16T08:19:40.000Z</time>
        <extensions>
          <ns3:TrackPointExtension>
            <ns3:atemp>17.0</ns3:atemp>
          </ns3:TrackPointExtension>
        </extensions>
      </trkpt>
      <trkpt lat="42.6249848864972591400146484375" lon="19.88024580292403697967529296875">
        <ele>1746.800048828125</ele>
        <time>2026-06-16T08:19:41.000Z</time>
        <extensions>
          <ns3:TrackPointExtension>
            <ns3:atemp>17.0</ns3:atemp>
          </ns3:TrackPointExtension>
        </extensions>
      </trkpt>
      <trkpt lat="42.6249848864972591400146484375" lon="19.88024580292403697967529296875">
        <ele>1746.800048828125</ele>
        <time>2026-06-16T08:19:42.000Z</time>
        <extensions>
          <ns3:TrackPointExtension>
            <ns3:atemp>17.0</ns3:atemp>
          </ns3:TrackPointExtension>
        </extensions>
      </trkpt>
      <trkpt lat="42.6249848864972591400146484375" lon="19.88024580292403697967529296875">
        <ele>1746.800048828125</ele>
        <time>2026-06-16T08:19:43.000Z</time>
        <extensions>
          <ns3:TrackPointExtension>
            <ns3:atemp>17.0</ns3:atemp>
          </ns3:TrackPointExtension>
        </extensions>
      </trkpt>
      <trkpt lat="42.6249848864972591400146484375" lon="19.88024580292403697967529296875">
        <ele>1746.800048828125</ele>
        <time>2026-06-16T08:19:44.000Z</time>
        <extensions>
          <ns3:TrackPointExtension>
            <ns3:atemp>17.0</ns3:atemp>
          </ns3:TrackPointExtension>
        </extensions>
      </trkpt>
      <trkpt lat="42.6249848864972591400146484375" lon="19.88024580292403697967529296875">
        <ele>1746.800048828125</ele>
        <time>2026-06-16T08:19:45.000Z</time>
        <extensions>
          <ns3:TrackPointExtension>
            <ns3:atemp>17.0</ns3:atemp>
          </ns3:TrackPointExtension>
        </extensions>
      </trkpt>
      <trkpt lat="42.6249848864972591400146484375" lon="19.88024580292403697967529296875">
        <ele>1746.800048828125</ele>
        <time>2026-06-16T08:19:46.000Z</time>
        <extensions>
          <ns3:TrackPointExtension>
            <ns3:atemp>17.0</ns3:atemp>
          </ns3:TrackPointExtension>
        </extensions>
      </trkpt>
      <trkpt lat="42.6249848864972591400146484375" lon="19.88024580292403697967529296875">
        <ele>1746.800048828125</ele>
        <time>2026-06-16T08:19:47.000Z</time>
        <extensions>
          <ns3:TrackPointExtension>
            <ns3:atemp>17.0</ns3:atemp>
          </ns3:TrackPointExtension>
        </extensions>
      </trkpt>
      <trkpt lat="42.6249848864972591400146484375" lon="19.88024580292403697967529296875">
        <ele>1746.800048828125</ele>
        <time>2026-06-16T08:19:48.000Z</time>
        <extensions>
          <ns3:TrackPointExtension>
            <ns3:atemp>17.0</ns3:atemp>
          </ns3:TrackPointExtension>
        </extensions>
      </trkpt>
      <trkpt lat="42.6249848864972591400146484375" lon="19.88024580292403697967529296875">
        <ele>1746.800048828125</ele>
        <time>2026-06-16T08:19:49.000Z</time>
        <extensions>
          <ns3:TrackPointExtension>
            <ns3:atemp>17.0</ns3:atemp>
          </ns3:TrackPointExtension>
        </extensions>
      </trkpt>
      <trkpt lat="42.6249848864972591400146484375" lon="19.88024580292403697967529296875">
        <ele>1746.800048828125</ele>
        <time>2026-06-16T08:19:50.000Z</time>
        <extensions>
          <ns3:TrackPointExtension>
            <ns3:atemp>17.0</ns3:atemp>
          </ns3:TrackPointExtension>
        </extensions>
      </trkpt>
      <trkpt lat="42.6249848864972591400146484375" lon="19.88024580292403697967529296875">
        <ele>1746.800048828125</ele>
        <time>2026-06-16T08:19:51.000Z</time>
        <extensions>
          <ns3:TrackPointExtension>
            <ns3:atemp>17.0</ns3:atemp>
          </ns3:TrackPointExtension>
        </extensions>
      </trkpt>
      <trkpt lat="42.6249848864972591400146484375" lon="19.88024580292403697967529296875">
        <ele>1746.800048828125</ele>
        <time>2026-06-16T08:19:52.000Z</time>
        <extensions>
          <ns3:TrackPointExtension>
            <ns3:atemp>17.0</ns3:atemp>
          </ns3:TrackPointExtension>
        </extensions>
      </trkpt>
      <trkpt lat="42.6249848864972591400146484375" lon="19.88024580292403697967529296875">
        <ele>1746.800048828125</ele>
        <time>2026-06-16T08:19:53.000Z</time>
        <extensions>
          <ns3:TrackPointExtension>
            <ns3:atemp>17.0</ns3:atemp>
          </ns3:TrackPointExtension>
        </extensions>
      </trkpt>
      <trkpt lat="42.6249848864972591400146484375" lon="19.88024580292403697967529296875">
        <ele>1746.800048828125</ele>
        <time>2026-06-16T08:19:54.000Z</time>
        <extensions>
          <ns3:TrackPointExtension>
            <ns3:atemp>17.0</ns3:atemp>
          </ns3:TrackPointExtension>
        </extensions>
      </trkpt>
      <trkpt lat="42.6249848864972591400146484375" lon="19.88024580292403697967529296875">
        <ele>1746.800048828125</ele>
        <time>2026-06-16T08:19:55.000Z</time>
        <extensions>
          <ns3:TrackPointExtension>
            <ns3:atemp>17.0</ns3:atemp>
          </ns3:TrackPointExtension>
        </extensions>
      </trkpt>
      <trkpt lat="42.6249848864972591400146484375" lon="19.88024580292403697967529296875">
        <ele>1746.800048828125</ele>
        <time>2026-06-16T08:19:56.000Z</time>
        <extensions>
          <ns3:TrackPointExtension>
            <ns3:atemp>17.0</ns3:atemp>
          </ns3:TrackPointExtension>
        </extensions>
      </trkpt>
      <trkpt lat="42.6249848864972591400146484375" lon="19.88024580292403697967529296875">
        <ele>1746.800048828125</ele>
        <time>2026-06-16T08:19:57.000Z</time>
        <extensions>
          <ns3:TrackPointExtension>
            <ns3:atemp>17.0</ns3:atemp>
          </ns3:TrackPointExtension>
        </extensions>
      </trkpt>
      <trkpt lat="42.6249848864972591400146484375" lon="19.88024580292403697967529296875">
        <ele>1746.800048828125</ele>
        <time>2026-06-16T08:19:58.000Z</time>
        <extensions>
          <ns3:TrackPointExtension>
            <ns3:atemp>17.0</ns3:atemp>
          </ns3:TrackPointExtension>
        </extensions>
      </trkpt>
      <trkpt lat="42.6249848864972591400146484375" lon="19.88024580292403697967529296875">
        <ele>1746.800048828125</ele>
        <time>2026-06-16T08:19:59.000Z</time>
        <extensions>
          <ns3:TrackPointExtension>
            <ns3:atemp>17.0</ns3:atemp>
          </ns3:TrackPointExtension>
        </extensions>
      </trkpt>
      <trkpt lat="42.6249848864972591400146484375" lon="19.88024580292403697967529296875">
        <ele>1746.800048828125</ele>
        <time>2026-06-16T08:20:00.000Z</time>
        <extensions>
          <ns3:TrackPointExtension>
            <ns3:atemp>17.0</ns3:atemp>
          </ns3:TrackPointExtension>
        </extensions>
      </trkpt>
      <trkpt lat="42.6249848864972591400146484375" lon="19.88024580292403697967529296875">
        <ele>1746.800048828125</ele>
        <time>2026-06-16T08:20:01.000Z</time>
        <extensions>
          <ns3:TrackPointExtension>
            <ns3:atemp>17.0</ns3:atemp>
          </ns3:TrackPointExtension>
        </extensions>
      </trkpt>
      <trkpt lat="42.6249848864972591400146484375" lon="19.88024580292403697967529296875">
        <ele>1746.800048828125</ele>
        <time>2026-06-16T08:20:02.000Z</time>
        <extensions>
          <ns3:TrackPointExtension>
            <ns3:atemp>17.0</ns3:atemp>
          </ns3:TrackPointExtension>
        </extensions>
      </trkpt>
      <trkpt lat="42.6249848864972591400146484375" lon="19.88024580292403697967529296875">
        <ele>1746.800048828125</ele>
        <time>2026-06-16T08:20:03.000Z</time>
        <extensions>
          <ns3:TrackPointExtension>
            <ns3:atemp>17.0</ns3:atemp>
          </ns3:TrackPointExtension>
        </extensions>
      </trkpt>
      <trkpt lat="42.6249848864972591400146484375" lon="19.88024580292403697967529296875">
        <ele>1746.800048828125</ele>
        <time>2026-06-16T08:20:04.000Z</time>
        <extensions>
          <ns3:TrackPointExtension>
            <ns3:atemp>17.0</ns3:atemp>
          </ns3:TrackPointExtension>
        </extensions>
      </trkpt>
      <trkpt lat="42.6249848864972591400146484375" lon="19.88024580292403697967529296875">
        <ele>1746.800048828125</ele>
        <time>2026-06-16T08:20:05.000Z</time>
        <extensions>
          <ns3:TrackPointExtension>
            <ns3:atemp>17.0</ns3:atemp>
          </ns3:TrackPointExtension>
        </extensions>
      </trkpt>
      <trkpt lat="42.6249848864972591400146484375" lon="19.88024580292403697967529296875">
        <ele>1746.800048828125</ele>
        <time>2026-06-16T08:20:06.000Z</time>
        <extensions>
          <ns3:TrackPointExtension>
            <ns3:atemp>17.0</ns3:atemp>
          </ns3:TrackPointExtension>
        </extensions>
      </trkpt>
      <trkpt lat="42.6249848864972591400146484375" lon="19.88024580292403697967529296875">
        <ele>1746.800048828125</ele>
        <time>2026-06-16T08:20:07.000Z</time>
        <extensions>
          <ns3:TrackPointExtension>
            <ns3:atemp>17.0</ns3:atemp>
          </ns3:TrackPointExtension>
        </extensions>
      </trkpt>
      <trkpt lat="42.6249848864972591400146484375" lon="19.88024580292403697967529296875">
        <ele>1746.800048828125</ele>
        <time>2026-06-16T08:20:08.000Z</time>
        <extensions>
          <ns3:TrackPointExtension>
            <ns3:atemp>17.0</ns3:atemp>
          </ns3:TrackPointExtension>
        </extensions>
      </trkpt>
      <trkpt lat="42.6249848864972591400146484375" lon="19.88024580292403697967529296875">
        <ele>1746.800048828125</ele>
        <time>2026-06-16T08:20:09.000Z</time>
        <extensions>
          <ns3:TrackPointExtension>
            <ns3:atemp>17.0</ns3:atemp>
          </ns3:TrackPointExtension>
        </extensions>
      </trkpt>
      <trkpt lat="42.6249848864972591400146484375" lon="19.88024580292403697967529296875">
        <ele>1746.800048828125</ele>
        <time>2026-06-16T08:20:10.000Z</time>
        <extensions>
          <ns3:TrackPointExtension>
            <ns3:atemp>17.0</ns3:atemp>
          </ns3:TrackPointExtension>
        </extensions>
      </trkpt>
      <trkpt lat="42.6249848864972591400146484375" lon="19.88024580292403697967529296875">
        <ele>1746.800048828125</ele>
        <time>2026-06-16T08:20:11.000Z</time>
        <extensions>
          <ns3:TrackPointExtension>
            <ns3:atemp>17.0</ns3:atemp>
          </ns3:TrackPointExtension>
        </extensions>
      </trkpt>
      <trkpt lat="42.6249848864972591400146484375" lon="19.88024580292403697967529296875">
        <ele>1746.800048828125</ele>
        <time>2026-06-16T08:20:12.000Z</time>
        <extensions>
          <ns3:TrackPointExtension>
            <ns3:atemp>17.0</ns3:atemp>
          </ns3:TrackPointExtension>
        </extensions>
      </trkpt>
      <trkpt lat="42.6249848864972591400146484375" lon="19.88024580292403697967529296875">
        <ele>1746.800048828125</ele>
        <time>2026-06-16T08:20:13.000Z</time>
        <extensions>
          <ns3:TrackPointExtension>
            <ns3:atemp>17.0</ns3:atemp>
          </ns3:TrackPointExtension>
        </extensions>
      </trkpt>
      <trkpt lat="42.6249848864972591400146484375" lon="19.88024580292403697967529296875">
        <ele>1746.800048828125</ele>
        <time>2026-06-16T08:20:14.000Z</time>
        <extensions>
          <ns3:TrackPointExtension>
            <ns3:atemp>17.0</ns3:atemp>
          </ns3:TrackPointExtension>
        </extensions>
      </trkpt>
      <trkpt lat="42.6249848864972591400146484375" lon="19.88024580292403697967529296875">
        <ele>1746.800048828125</ele>
        <time>2026-06-16T08:20:15.000Z</time>
        <extensions>
          <ns3:TrackPointExtension>
            <ns3:atemp>17.0</ns3:atemp>
          </ns3:TrackPointExtension>
        </extensions>
      </trkpt>
      <trkpt lat="42.6249848864972591400146484375" lon="19.88024580292403697967529296875">
        <ele>1746.800048828125</ele>
        <time>2026-06-16T08:20:16.000Z</time>
        <extensions>
          <ns3:TrackPointExtension>
            <ns3:atemp>17.0</ns3:atemp>
          </ns3:TrackPointExtension>
        </extensions>
      </trkpt>
      <trkpt lat="42.6249848864972591400146484375" lon="19.88024580292403697967529296875">
        <ele>1746.800048828125</ele>
        <time>2026-06-16T08:20:17.000Z</time>
        <extensions>
          <ns3:TrackPointExtension>
            <ns3:atemp>17.0</ns3:atemp>
          </ns3:TrackPointExtension>
        </extensions>
      </trkpt>
      <trkpt lat="42.6249848864972591400146484375" lon="19.88024580292403697967529296875">
        <ele>1746.800048828125</ele>
        <time>2026-06-16T08:20:18.000Z</time>
        <extensions>
          <ns3:TrackPointExtension>
            <ns3:atemp>17.0</ns3:atemp>
          </ns3:TrackPointExtension>
        </extensions>
      </trkpt>
      <trkpt lat="42.6249848864972591400146484375" lon="19.88024580292403697967529296875">
        <ele>1746.800048828125</ele>
        <time>2026-06-16T08:20:19.000Z</time>
        <extensions>
          <ns3:TrackPointExtension>
            <ns3:atemp>17.0</ns3:atemp>
          </ns3:TrackPointExtension>
        </extensions>
      </trkpt>
      <trkpt lat="42.6249848864972591400146484375" lon="19.88024580292403697967529296875">
        <ele>1746.800048828125</ele>
        <time>2026-06-16T08:20:20.000Z</time>
        <extensions>
          <ns3:TrackPointExtension>
            <ns3:atemp>17.0</ns3:atemp>
          </ns3:TrackPointExtension>
        </extensions>
      </trkpt>
      <trkpt lat="42.6249848864972591400146484375" lon="19.88024580292403697967529296875">
        <ele>1746.800048828125</ele>
        <time>2026-06-16T08:20:21.000Z</time>
        <extensions>
          <ns3:TrackPointExtension>
            <ns3:atemp>17.0</ns3:atemp>
          </ns3:TrackPointExtension>
        </extensions>
      </trkpt>
      <trkpt lat="42.6249848864972591400146484375" lon="19.88024580292403697967529296875">
        <ele>1746.800048828125</ele>
        <time>2026-06-16T08:20:22.000Z</time>
        <extensions>
          <ns3:TrackPointExtension>
            <ns3:atemp>17.0</ns3:atemp>
          </ns3:TrackPointExtension>
        </extensions>
      </trkpt>
      <trkpt lat="42.6249848864972591400146484375" lon="19.88024580292403697967529296875">
        <ele>1746.800048828125</ele>
        <time>2026-06-16T08:20:23.000Z</time>
        <extensions>
          <ns3:TrackPointExtension>
            <ns3:atemp>17.0</ns3:atemp>
          </ns3:TrackPointExtension>
        </extensions>
      </trkpt>
      <trkpt lat="42.6249848864972591400146484375" lon="19.88024580292403697967529296875">
        <ele>1746.800048828125</ele>
        <time>2026-06-16T08:20:24.000Z</time>
        <extensions>
          <ns3:TrackPointExtension>
            <ns3:atemp>17.0</ns3:atemp>
          </ns3:TrackPointExtension>
        </extensions>
      </trkpt>
      <trkpt lat="42.6249848864972591400146484375" lon="19.88024580292403697967529296875">
        <ele>1746.800048828125</ele>
        <time>2026-06-16T08:20:25.000Z</time>
        <extensions>
          <ns3:TrackPointExtension>
            <ns3:atemp>17.0</ns3:atemp>
          </ns3:TrackPointExtension>
        </extensions>
      </trkpt>
      <trkpt lat="42.6249848864972591400146484375" lon="19.88024580292403697967529296875">
        <ele>1746.800048828125</ele>
        <time>2026-06-16T08:20:26.000Z</time>
        <extensions>
          <ns3:TrackPointExtension>
            <ns3:atemp>17.0</ns3:atemp>
          </ns3:TrackPointExtension>
        </extensions>
      </trkpt>
      <trkpt lat="42.6249848864972591400146484375" lon="19.88024580292403697967529296875">
        <ele>1746.800048828125</ele>
        <time>2026-06-16T08:20:27.000Z</time>
        <extensions>
          <ns3:TrackPointExtension>
            <ns3:atemp>17.0</ns3:atemp>
          </ns3:TrackPointExtension>
        </extensions>
      </trkpt>
      <trkpt lat="42.6249848864972591400146484375" lon="19.88024580292403697967529296875">
        <ele>1746.800048828125</ele>
        <time>2026-06-16T08:20:28.000Z</time>
        <extensions>
          <ns3:TrackPointExtension>
            <ns3:atemp>17.0</ns3:atemp>
          </ns3:TrackPointExtension>
        </extensions>
      </trkpt>
      <trkpt lat="42.6249848864972591400146484375" lon="19.88024580292403697967529296875">
        <ele>1746.800048828125</ele>
        <time>2026-06-16T08:20:29.000Z</time>
        <extensions>
          <ns3:TrackPointExtension>
            <ns3:atemp>17.0</ns3:atemp>
          </ns3:TrackPointExtension>
        </extensions>
      </trkpt>
      <trkpt lat="42.6249848864972591400146484375" lon="19.88024580292403697967529296875">
        <ele>1746.800048828125</ele>
        <time>2026-06-16T08:20:30.000Z</time>
        <extensions>
          <ns3:TrackPointExtension>
            <ns3:atemp>17.0</ns3:atemp>
          </ns3:TrackPointExtension>
        </extensions>
      </trkpt>
      <trkpt lat="42.6249848864972591400146484375" lon="19.88024580292403697967529296875">
        <ele>1746.800048828125</ele>
        <time>2026-06-16T08:20:31.000Z</time>
        <extensions>
          <ns3:TrackPointExtension>
            <ns3:atemp>17.0</ns3:atemp>
          </ns3:TrackPointExtension>
        </extensions>
      </trkpt>
      <trkpt lat="42.6249848864972591400146484375" lon="19.88024580292403697967529296875">
        <ele>1746.800048828125</ele>
        <time>2026-06-16T08:20:32.000Z</time>
        <extensions>
          <ns3:TrackPointExtension>
            <ns3:atemp>17.0</ns3:atemp>
          </ns3:TrackPointExtension>
        </extensions>
      </trkpt>
      <trkpt lat="42.6249848864972591400146484375" lon="19.88024580292403697967529296875">
        <ele>1746.800048828125</ele>
        <time>2026-06-16T08:20:33.000Z</time>
        <extensions>
          <ns3:TrackPointExtension>
            <ns3:atemp>17.0</ns3:atemp>
          </ns3:TrackPointExtension>
        </extensions>
      </trkpt>
      <trkpt lat="42.6249848864972591400146484375" lon="19.88024580292403697967529296875">
        <ele>1746.800048828125</ele>
        <time>2026-06-16T08:20:34.000Z</time>
        <extensions>
          <ns3:TrackPointExtension>
            <ns3:atemp>17.0</ns3:atemp>
          </ns3:TrackPointExtension>
        </extensions>
      </trkpt>
      <trkpt lat="42.6249848864972591400146484375" lon="19.88024580292403697967529296875">
        <ele>1746.800048828125</ele>
        <time>2026-06-16T08:20:35.000Z</time>
        <extensions>
          <ns3:TrackPointExtension>
            <ns3:atemp>17.0</ns3:atemp>
          </ns3:TrackPointExtension>
        </extensions>
      </trkpt>
      <trkpt lat="42.6249848864972591400146484375" lon="19.88024580292403697967529296875">
        <ele>1746.800048828125</ele>
        <time>2026-06-16T08:20:36.000Z</time>
        <extensions>
          <ns3:TrackPointExtension>
            <ns3:atemp>17.0</ns3:atemp>
          </ns3:TrackPointExtension>
        </extensions>
      </trkpt>
      <trkpt lat="42.6249848864972591400146484375" lon="19.88024580292403697967529296875">
        <ele>1746.800048828125</ele>
        <time>2026-06-16T08:20:37.000Z</time>
        <extensions>
          <ns3:TrackPointExtension>
            <ns3:atemp>17.0</ns3:atemp>
          </ns3:TrackPointExtension>
        </extensions>
      </trkpt>
      <trkpt lat="42.6249848864972591400146484375" lon="19.88024580292403697967529296875">
        <ele>1746.800048828125</ele>
        <time>2026-06-16T08:20:38.000Z</time>
        <extensions>
          <ns3:TrackPointExtension>
            <ns3:atemp>17.0</ns3:atemp>
          </ns3:TrackPointExtension>
        </extensions>
      </trkpt>
      <trkpt lat="42.6249848864972591400146484375" lon="19.88024580292403697967529296875">
        <ele>1746.800048828125</ele>
        <time>2026-06-16T08:20:39.000Z</time>
        <extensions>
          <ns3:TrackPointExtension>
            <ns3:atemp>17.0</ns3:atemp>
          </ns3:TrackPointExtension>
        </extensions>
      </trkpt>
      <trkpt lat="42.6249848864972591400146484375" lon="19.88024580292403697967529296875">
        <ele>1746.800048828125</ele>
        <time>2026-06-16T08:20:40.000Z</time>
        <extensions>
          <ns3:TrackPointExtension>
            <ns3:atemp>17.0</ns3:atemp>
          </ns3:TrackPointExtension>
        </extensions>
      </trkpt>
      <trkpt lat="42.6249848864972591400146484375" lon="19.88024580292403697967529296875">
        <ele>1746.800048828125</ele>
        <time>2026-06-16T08:20:41.000Z</time>
        <extensions>
          <ns3:TrackPointExtension>
            <ns3:atemp>17.0</ns3:atemp>
          </ns3:TrackPointExtension>
        </extensions>
      </trkpt>
      <trkpt lat="42.6249848864972591400146484375" lon="19.88024580292403697967529296875">
        <ele>1746.800048828125</ele>
        <time>2026-06-16T08:20:42.000Z</time>
        <extensions>
          <ns3:TrackPointExtension>
            <ns3:atemp>17.0</ns3:atemp>
          </ns3:TrackPointExtension>
        </extensions>
      </trkpt>
      <trkpt lat="42.6249848864972591400146484375" lon="19.88024580292403697967529296875">
        <ele>1746.800048828125</ele>
        <time>2026-06-16T08:20:43.000Z</time>
        <extensions>
          <ns3:TrackPointExtension>
            <ns3:atemp>17.0</ns3:atemp>
          </ns3:TrackPointExtension>
        </extensions>
      </trkpt>
      <trkpt lat="42.6249848864972591400146484375" lon="19.88024580292403697967529296875">
        <ele>1746.800048828125</ele>
        <time>2026-06-16T08:20:44.000Z</time>
        <extensions>
          <ns3:TrackPointExtension>
            <ns3:atemp>17.0</ns3:atemp>
          </ns3:TrackPointExtension>
        </extensions>
      </trkpt>
      <trkpt lat="42.6249848864972591400146484375" lon="19.88024580292403697967529296875">
        <ele>1746.800048828125</ele>
        <time>2026-06-16T08:20:45.000Z</time>
        <extensions>
          <ns3:TrackPointExtension>
            <ns3:atemp>17.0</ns3:atemp>
          </ns3:TrackPointExtension>
        </extensions>
      </trkpt>
      <trkpt lat="42.6249848864972591400146484375" lon="19.88024580292403697967529296875">
        <ele>1746.800048828125</ele>
        <time>2026-06-16T08:20:46.000Z</time>
        <extensions>
          <ns3:TrackPointExtension>
            <ns3:atemp>17.0</ns3:atemp>
          </ns3:TrackPointExtension>
        </extensions>
      </trkpt>
      <trkpt lat="42.6249848864972591400146484375" lon="19.88024580292403697967529296875">
        <ele>1746.800048828125</ele>
        <time>2026-06-16T08:20:47.000Z</time>
        <extensions>
          <ns3:TrackPointExtension>
            <ns3:atemp>17.0</ns3:atemp>
          </ns3:TrackPointExtension>
        </extensions>
      </trkpt>
      <trkpt lat="42.6249848864972591400146484375" lon="19.88024580292403697967529296875">
        <ele>1746.800048828125</ele>
        <time>2026-06-16T08:20:48.000Z</time>
        <extensions>
          <ns3:TrackPointExtension>
            <ns3:atemp>17.0</ns3:atemp>
          </ns3:TrackPointExtension>
        </extensions>
      </trkpt>
      <trkpt lat="42.6249848864972591400146484375" lon="19.88024580292403697967529296875">
        <ele>1746.800048828125</ele>
        <time>2026-06-16T08:20:49.000Z</time>
        <extensions>
          <ns3:TrackPointExtension>
            <ns3:atemp>17.0</ns3:atemp>
          </ns3:TrackPointExtension>
        </extensions>
      </trkpt>
      <trkpt lat="42.6249848864972591400146484375" lon="19.88024580292403697967529296875">
        <ele>1746.800048828125</ele>
        <time>2026-06-16T08:20:50.000Z</time>
        <extensions>
          <ns3:TrackPointExtension>
            <ns3:atemp>17.0</ns3:atemp>
          </ns3:TrackPointExtension>
        </extensions>
      </trkpt>
      <trkpt lat="42.6249848864972591400146484375" lon="19.88024580292403697967529296875">
        <ele>1746.800048828125</ele>
        <time>2026-06-16T08:20:51.000Z</time>
        <extensions>
          <ns3:TrackPointExtension>
            <ns3:atemp>17.0</ns3:atemp>
          </ns3:TrackPointExtension>
        </extensions>
      </trkpt>
      <trkpt lat="42.6249848864972591400146484375" lon="19.88024580292403697967529296875">
        <ele>1746.800048828125</ele>
        <time>2026-06-16T08:20:52.000Z</time>
        <extensions>
          <ns3:TrackPointExtension>
            <ns3:atemp>17.0</ns3:atemp>
          </ns3:TrackPointExtension>
        </extensions>
      </trkpt>
      <trkpt lat="42.6249848864972591400146484375" lon="19.88024580292403697967529296875">
        <ele>1746.800048828125</ele>
        <time>2026-06-16T08:20:53.000Z</time>
        <extensions>
          <ns3:TrackPointExtension>
            <ns3:atemp>17.0</ns3:atemp>
          </ns3:TrackPointExtension>
        </extensions>
      </trkpt>
      <trkpt lat="42.6249848864972591400146484375" lon="19.88024580292403697967529296875">
        <ele>1746.800048828125</ele>
        <time>2026-06-16T08:20:54.000Z</time>
        <extensions>
          <ns3:TrackPointExtension>
            <ns3:atemp>17.0</ns3:atemp>
          </ns3:TrackPointExtension>
        </extensions>
      </trkpt>
      <trkpt lat="42.6249848864972591400146484375" lon="19.88024580292403697967529296875">
        <ele>1746.800048828125</ele>
        <time>2026-06-16T08:20:55.000Z</time>
        <extensions>
          <ns3:TrackPointExtension>
            <ns3:atemp>17.0</ns3:atemp>
          </ns3:TrackPointExtension>
        </extensions>
      </trkpt>
      <trkpt lat="42.6249848864972591400146484375" lon="19.88024580292403697967529296875">
        <ele>1746.800048828125</ele>
        <time>2026-06-16T08:20:56.000Z</time>
        <extensions>
          <ns3:TrackPointExtension>
            <ns3:atemp>17.0</ns3:atemp>
          </ns3:TrackPointExtension>
        </extensions>
      </trkpt>
      <trkpt lat="42.6249848864972591400146484375" lon="19.88024580292403697967529296875">
        <ele>1746.800048828125</ele>
        <time>2026-06-16T08:20:57.000Z</time>
        <extensions>
          <ns3:TrackPointExtension>
            <ns3:atemp>17.0</ns3:atemp>
          </ns3:TrackPointExtension>
        </extensions>
      </trkpt>
      <trkpt lat="42.6249848864972591400146484375" lon="19.88024580292403697967529296875">
        <ele>1746.800048828125</ele>
        <time>2026-06-16T08:20:58.000Z</time>
        <extensions>
          <ns3:TrackPointExtension>
            <ns3:atemp>17.0</ns3:atemp>
          </ns3:TrackPointExtension>
        </extensions>
      </trkpt>
      <trkpt lat="42.6249848864972591400146484375" lon="19.88024580292403697967529296875">
        <ele>1746.800048828125</ele>
        <time>2026-06-16T08:20:59.000Z</time>
        <extensions>
          <ns3:TrackPointExtension>
            <ns3:atemp>17.0</ns3:atemp>
          </ns3:TrackPointExtension>
        </extensions>
      </trkpt>
      <trkpt lat="42.6249848864972591400146484375" lon="19.88024580292403697967529296875">
        <ele>1746.800048828125</ele>
        <time>2026-06-16T08:21:00.000Z</time>
        <extensions>
          <ns3:TrackPointExtension>
            <ns3:atemp>17.0</ns3:atemp>
          </ns3:TrackPointExtension>
        </extensions>
      </trkpt>
      <trkpt lat="42.6249848864972591400146484375" lon="19.88024580292403697967529296875">
        <ele>1746.800048828125</ele>
        <time>2026-06-16T08:21:01.000Z</time>
        <extensions>
          <ns3:TrackPointExtension>
            <ns3:atemp>17.0</ns3:atemp>
          </ns3:TrackPointExtension>
        </extensions>
      </trkpt>
      <trkpt lat="42.6249848864972591400146484375" lon="19.88024580292403697967529296875">
        <ele>1746.800048828125</ele>
        <time>2026-06-16T08:21:02.000Z</time>
        <extensions>
          <ns3:TrackPointExtension>
            <ns3:atemp>17.0</ns3:atemp>
          </ns3:TrackPointExtension>
        </extensions>
      </trkpt>
      <trkpt lat="42.6249848864972591400146484375" lon="19.88024580292403697967529296875">
        <ele>1746.800048828125</ele>
        <time>2026-06-16T08:21:03.000Z</time>
        <extensions>
          <ns3:TrackPointExtension>
            <ns3:atemp>17.0</ns3:atemp>
          </ns3:TrackPointExtension>
        </extensions>
      </trkpt>
      <trkpt lat="42.6249848864972591400146484375" lon="19.88024580292403697967529296875">
        <ele>1746.800048828125</ele>
        <time>2026-06-16T08:21:04.000Z</time>
        <extensions>
          <ns3:TrackPointExtension>
            <ns3:atemp>17.0</ns3:atemp>
          </ns3:TrackPointExtension>
        </extensions>
      </trkpt>
      <trkpt lat="42.6249848864972591400146484375" lon="19.88024580292403697967529296875">
        <ele>1746.800048828125</ele>
        <time>2026-06-16T08:21:05.000Z</time>
        <extensions>
          <ns3:TrackPointExtension>
            <ns3:atemp>17.0</ns3:atemp>
          </ns3:TrackPointExtension>
        </extensions>
      </trkpt>
      <trkpt lat="42.6249848864972591400146484375" lon="19.88024580292403697967529296875">
        <ele>1746.800048828125</ele>
        <time>2026-06-16T08:21:06.000Z</time>
        <extensions>
          <ns3:TrackPointExtension>
            <ns3:atemp>17.0</ns3:atemp>
          </ns3:TrackPointExtension>
        </extensions>
      </trkpt>
      <trkpt lat="42.6249848864972591400146484375" lon="19.88024580292403697967529296875">
        <ele>1746.800048828125</ele>
        <time>2026-06-16T08:21:07.000Z</time>
        <extensions>
          <ns3:TrackPointExtension>
            <ns3:atemp>17.0</ns3:atemp>
          </ns3:TrackPointExtension>
        </extensions>
      </trkpt>
      <trkpt lat="42.6249848864972591400146484375" lon="19.88024580292403697967529296875">
        <ele>1746.800048828125</ele>
        <time>2026-06-16T08:21:08.000Z</time>
        <extensions>
          <ns3:TrackPointExtension>
            <ns3:atemp>17.0</ns3:atemp>
          </ns3:TrackPointExtension>
        </extensions>
      </trkpt>
      <trkpt lat="42.6249848864972591400146484375" lon="19.88024580292403697967529296875">
        <ele>1746.800048828125</ele>
        <time>2026-06-16T08:21:09.000Z</time>
        <extensions>
          <ns3:TrackPointExtension>
            <ns3:atemp>17.0</ns3:atemp>
          </ns3:TrackPointExtension>
        </extensions>
      </trkpt>
      <trkpt lat="42.6249848864972591400146484375" lon="19.88024580292403697967529296875">
        <ele>1746.800048828125</ele>
        <time>2026-06-16T08:21:10.000Z</time>
        <extensions>
          <ns3:TrackPointExtension>
            <ns3:atemp>17.0</ns3:atemp>
          </ns3:TrackPointExtension>
        </extensions>
      </trkpt>
      <trkpt lat="42.6249848864972591400146484375" lon="19.88024580292403697967529296875">
        <ele>1746.800048828125</ele>
        <time>2026-06-16T08:21:11.000Z</time>
        <extensions>
          <ns3:TrackPointExtension>
            <ns3:atemp>17.0</ns3:atemp>
          </ns3:TrackPointExtension>
        </extensions>
      </trkpt>
      <trkpt lat="42.6249848864972591400146484375" lon="19.88024580292403697967529296875">
        <ele>1746.800048828125</ele>
        <time>2026-06-16T08:21:12.000Z</time>
        <extensions>
          <ns3:TrackPointExtension>
            <ns3:atemp>17.0</ns3:atemp>
          </ns3:TrackPointExtension>
        </extensions>
      </trkpt>
      <trkpt lat="42.6249848864972591400146484375" lon="19.88024580292403697967529296875">
        <ele>1746.800048828125</ele>
        <time>2026-06-16T08:21:13.000Z</time>
        <extensions>
          <ns3:TrackPointExtension>
            <ns3:atemp>17.0</ns3:atemp>
          </ns3:TrackPointExtension>
        </extensions>
      </trkpt>
      <trkpt lat="42.6249848864972591400146484375" lon="19.88024580292403697967529296875">
        <ele>1746.800048828125</ele>
        <time>2026-06-16T08:21:14.000Z</time>
        <extensions>
          <ns3:TrackPointExtension>
            <ns3:atemp>17.0</ns3:atemp>
          </ns3:TrackPointExtension>
        </extensions>
      </trkpt>
      <trkpt lat="42.6249848864972591400146484375" lon="19.88024580292403697967529296875">
        <ele>1746.800048828125</ele>
        <time>2026-06-16T08:21:15.000Z</time>
        <extensions>
          <ns3:TrackPointExtension>
            <ns3:atemp>17.0</ns3:atemp>
          </ns3:TrackPointExtension>
        </extensions>
      </trkpt>
      <trkpt lat="42.6249848864972591400146484375" lon="19.88024580292403697967529296875">
        <ele>1746.800048828125</ele>
        <time>2026-06-16T08:21:16.000Z</time>
        <extensions>
          <ns3:TrackPointExtension>
            <ns3:atemp>17.0</ns3:atemp>
          </ns3:TrackPointExtension>
        </extensions>
      </trkpt>
      <trkpt lat="42.6249848864972591400146484375" lon="19.88024580292403697967529296875">
        <ele>1746.800048828125</ele>
        <time>2026-06-16T08:21:17.000Z</time>
        <extensions>
          <ns3:TrackPointExtension>
            <ns3:atemp>17.0</ns3:atemp>
          </ns3:TrackPointExtension>
        </extensions>
      </trkpt>
      <trkpt lat="42.6249848864972591400146484375" lon="19.88024580292403697967529296875">
        <ele>1746.800048828125</ele>
        <time>2026-06-16T08:21:18.000Z</time>
        <extensions>
          <ns3:TrackPointExtension>
            <ns3:atemp>17.0</ns3:atemp>
          </ns3:TrackPointExtension>
        </extensions>
      </trkpt>
      <trkpt lat="42.6249848864972591400146484375" lon="19.88024580292403697967529296875">
        <ele>1746.800048828125</ele>
        <time>2026-06-16T08:21:19.000Z</time>
        <extensions>
          <ns3:TrackPointExtension>
            <ns3:atemp>17.0</ns3:atemp>
          </ns3:TrackPointExtension>
        </extensions>
      </trkpt>
      <trkpt lat="42.6249848864972591400146484375" lon="19.88024580292403697967529296875">
        <ele>1746.800048828125</ele>
        <time>2026-06-16T08:21:20.000Z</time>
        <extensions>
          <ns3:TrackPointExtension>
            <ns3:atemp>17.0</ns3:atemp>
          </ns3:TrackPointExtension>
        </extensions>
      </trkpt>
      <trkpt lat="42.6249848864972591400146484375" lon="19.88024580292403697967529296875">
        <ele>1746.800048828125</ele>
        <time>2026-06-16T08:21:21.000Z</time>
        <extensions>
          <ns3:TrackPointExtension>
            <ns3:atemp>17.0</ns3:atemp>
          </ns3:TrackPointExtension>
        </extensions>
      </trkpt>
      <trkpt lat="42.6249848864972591400146484375" lon="19.88024580292403697967529296875">
        <ele>1746.800048828125</ele>
        <time>2026-06-16T08:21:22.000Z</time>
        <extensions>
          <ns3:TrackPointExtension>
            <ns3:atemp>17.0</ns3:atemp>
          </ns3:TrackPointExtension>
        </extensions>
      </trkpt>
      <trkpt lat="42.6249848864972591400146484375" lon="19.88024580292403697967529296875">
        <ele>1746.800048828125</ele>
        <time>2026-06-16T08:21:23.000Z</time>
        <extensions>
          <ns3:TrackPointExtension>
            <ns3:atemp>17.0</ns3:atemp>
          </ns3:TrackPointExtension>
        </extensions>
      </trkpt>
      <trkpt lat="42.6249848864972591400146484375" lon="19.88024580292403697967529296875">
        <ele>1746.800048828125</ele>
        <time>2026-06-16T08:21:24.000Z</time>
        <extensions>
          <ns3:TrackPointExtension>
            <ns3:atemp>17.0</ns3:atemp>
          </ns3:TrackPointExtension>
        </extensions>
      </trkpt>
      <trkpt lat="42.6249848864972591400146484375" lon="19.88024580292403697967529296875">
        <ele>1746.800048828125</ele>
        <time>2026-06-16T08:21:25.000Z</time>
        <extensions>
          <ns3:TrackPointExtension>
            <ns3:atemp>17.0</ns3:atemp>
          </ns3:TrackPointExtension>
        </extensions>
      </trkpt>
      <trkpt lat="42.6249848864972591400146484375" lon="19.88024580292403697967529296875">
        <ele>1746.800048828125</ele>
        <time>2026-06-16T08:21:26.000Z</time>
        <extensions>
          <ns3:TrackPointExtension>
            <ns3:atemp>17.0</ns3:atemp>
          </ns3:TrackPointExtension>
        </extensions>
      </trkpt>
      <trkpt lat="42.6249848864972591400146484375" lon="19.88024580292403697967529296875">
        <ele>1746.800048828125</ele>
        <time>2026-06-16T08:21:27.000Z</time>
        <extensions>
          <ns3:TrackPointExtension>
            <ns3:atemp>17.0</ns3:atemp>
          </ns3:TrackPointExtension>
        </extensions>
      </trkpt>
      <trkpt lat="42.6249848864972591400146484375" lon="19.88024580292403697967529296875">
        <ele>1746.800048828125</ele>
        <time>2026-06-16T08:21:28.000Z</time>
        <extensions>
          <ns3:TrackPointExtension>
            <ns3:atemp>17.0</ns3:atemp>
          </ns3:TrackPointExtension>
        </extensions>
      </trkpt>
      <trkpt lat="42.6249848864972591400146484375" lon="19.88024580292403697967529296875">
        <ele>1746.800048828125</ele>
        <time>2026-06-16T08:21:29.000Z</time>
        <extensions>
          <ns3:TrackPointExtension>
            <ns3:atemp>17.0</ns3:atemp>
          </ns3:TrackPointExtension>
        </extensions>
      </trkpt>
      <trkpt lat="42.6249848864972591400146484375" lon="19.88024580292403697967529296875">
        <ele>1746.800048828125</ele>
        <time>2026-06-16T08:21:30.000Z</time>
        <extensions>
          <ns3:TrackPointExtension>
            <ns3:atemp>17.0</ns3:atemp>
          </ns3:TrackPointExtension>
        </extensions>
      </trkpt>
      <trkpt lat="42.6249848864972591400146484375" lon="19.88024580292403697967529296875">
        <ele>1746.800048828125</ele>
        <time>2026-06-16T08:21:31.000Z</time>
        <extensions>
          <ns3:TrackPointExtension>
            <ns3:atemp>17.0</ns3:atemp>
          </ns3:TrackPointExtension>
        </extensions>
      </trkpt>
      <trkpt lat="42.6249848864972591400146484375" lon="19.88024580292403697967529296875">
        <ele>1746.800048828125</ele>
        <time>2026-06-16T08:21:32.000Z</time>
        <extensions>
          <ns3:TrackPointExtension>
            <ns3:atemp>17.0</ns3:atemp>
          </ns3:TrackPointExtension>
        </extensions>
      </trkpt>
      <trkpt lat="42.6249848864972591400146484375" lon="19.88024580292403697967529296875">
        <ele>1746.800048828125</ele>
        <time>2026-06-16T08:21:33.000Z</time>
        <extensions>
          <ns3:TrackPointExtension>
            <ns3:atemp>17.0</ns3:atemp>
          </ns3:TrackPointExtension>
        </extensions>
      </trkpt>
      <trkpt lat="42.6249848864972591400146484375" lon="19.88024580292403697967529296875">
        <ele>1746.800048828125</ele>
        <time>2026-06-16T08:21:34.000Z</time>
        <extensions>
          <ns3:TrackPointExtension>
            <ns3:atemp>17.0</ns3:atemp>
          </ns3:TrackPointExtension>
        </extensions>
      </trkpt>
      <trkpt lat="42.6249848864972591400146484375" lon="19.88024580292403697967529296875">
        <ele>1746.800048828125</ele>
        <time>2026-06-16T08:21:35.000Z</time>
        <extensions>
          <ns3:TrackPointExtension>
            <ns3:atemp>17.0</ns3:atemp>
          </ns3:TrackPointExtension>
        </extensions>
      </trkpt>
      <trkpt lat="42.6249848864972591400146484375" lon="19.88024580292403697967529296875">
        <ele>1746.800048828125</ele>
        <time>2026-06-16T08:21:36.000Z</time>
        <extensions>
          <ns3:TrackPointExtension>
            <ns3:atemp>17.0</ns3:atemp>
          </ns3:TrackPointExtension>
        </extensions>
      </trkpt>
      <trkpt lat="42.6249848864972591400146484375" lon="19.88024580292403697967529296875">
        <ele>1746.800048828125</ele>
        <time>2026-06-16T08:21:37.000Z</time>
        <extensions>
          <ns3:TrackPointExtension>
            <ns3:atemp>17.0</ns3:atemp>
          </ns3:TrackPointExtension>
        </extensions>
      </trkpt>
      <trkpt lat="42.6249848864972591400146484375" lon="19.88024580292403697967529296875">
        <ele>1746.800048828125</ele>
        <time>2026-06-16T08:21:38.000Z</time>
        <extensions>
          <ns3:TrackPointExtension>
            <ns3:atemp>17.0</ns3:atemp>
          </ns3:TrackPointExtension>
        </extensions>
      </trkpt>
      <trkpt lat="42.6249848864972591400146484375" lon="19.88024580292403697967529296875">
        <ele>1746.800048828125</ele>
        <time>2026-06-16T08:21:39.000Z</time>
        <extensions>
          <ns3:TrackPointExtension>
            <ns3:atemp>17.0</ns3:atemp>
          </ns3:TrackPointExtension>
        </extensions>
      </trkpt>
      <trkpt lat="42.6249848864972591400146484375" lon="19.88024580292403697967529296875">
        <ele>1746.800048828125</ele>
        <time>2026-06-16T08:21:40.000Z</time>
        <extensions>
          <ns3:TrackPointExtension>
            <ns3:atemp>17.0</ns3:atemp>
          </ns3:TrackPointExtension>
        </extensions>
      </trkpt>
      <trkpt lat="42.6249848864972591400146484375" lon="19.88024580292403697967529296875">
        <ele>1746.800048828125</ele>
        <time>2026-06-16T08:21:41.000Z</time>
        <extensions>
          <ns3:TrackPointExtension>
            <ns3:atemp>17.0</ns3:atemp>
          </ns3:TrackPointExtension>
        </extensions>
      </trkpt>
      <trkpt lat="42.6249848864972591400146484375" lon="19.88024580292403697967529296875">
        <ele>1746.800048828125</ele>
        <time>2026-06-16T08:21:42.000Z</time>
        <extensions>
          <ns3:TrackPointExtension>
            <ns3:atemp>17.0</ns3:atemp>
          </ns3:TrackPointExtension>
        </extensions>
      </trkpt>
      <trkpt lat="42.6249848864972591400146484375" lon="19.88024580292403697967529296875">
        <ele>1746.800048828125</ele>
        <time>2026-06-16T08:21:43.000Z</time>
        <extensions>
          <ns3:TrackPointExtension>
            <ns3:atemp>17.0</ns3:atemp>
          </ns3:TrackPointExtension>
        </extensions>
      </trkpt>
      <trkpt lat="42.6249848864972591400146484375" lon="19.88024580292403697967529296875">
        <ele>1746.800048828125</ele>
        <time>2026-06-16T08:21:44.000Z</time>
        <extensions>
          <ns3:TrackPointExtension>
            <ns3:atemp>17.0</ns3:atemp>
          </ns3:TrackPointExtension>
        </extensions>
      </trkpt>
      <trkpt lat="42.6249848864972591400146484375" lon="19.88024580292403697967529296875">
        <ele>1746.800048828125</ele>
        <time>2026-06-16T08:21:45.000Z</time>
        <extensions>
          <ns3:TrackPointExtension>
            <ns3:atemp>17.0</ns3:atemp>
          </ns3:TrackPointExtension>
        </extensions>
      </trkpt>
      <trkpt lat="42.6249848864972591400146484375" lon="19.88024580292403697967529296875">
        <ele>1746.800048828125</ele>
        <time>2026-06-16T08:21:46.000Z</time>
        <extensions>
          <ns3:TrackPointExtension>
            <ns3:atemp>17.0</ns3:atemp>
          </ns3:TrackPointExtension>
        </extensions>
      </trkpt>
      <trkpt lat="42.6249848864972591400146484375" lon="19.88024580292403697967529296875">
        <ele>1746.800048828125</ele>
        <time>2026-06-16T08:21:47.000Z</time>
        <extensions>
          <ns3:TrackPointExtension>
            <ns3:atemp>17.0</ns3:atemp>
          </ns3:TrackPointExtension>
        </extensions>
      </trkpt>
      <trkpt lat="42.6249848864972591400146484375" lon="19.88024580292403697967529296875">
        <ele>1746.800048828125</ele>
        <time>2026-06-16T08:21:48.000Z</time>
        <extensions>
          <ns3:TrackPointExtension>
            <ns3:atemp>17.0</ns3:atemp>
          </ns3:TrackPointExtension>
        </extensions>
      </trkpt>
      <trkpt lat="42.6249848864972591400146484375" lon="19.88024580292403697967529296875">
        <ele>1746.800048828125</ele>
        <time>2026-06-16T08:21:49.000Z</time>
        <extensions>
          <ns3:TrackPointExtension>
            <ns3:atemp>17.0</ns3:atemp>
          </ns3:TrackPointExtension>
        </extensions>
      </trkpt>
      <trkpt lat="42.6249848864972591400146484375" lon="19.88024580292403697967529296875">
        <ele>1746.800048828125</ele>
        <time>2026-06-16T08:21:50.000Z</time>
        <extensions>
          <ns3:TrackPointExtension>
            <ns3:atemp>17.0</ns3:atemp>
          </ns3:TrackPointExtension>
        </extensions>
      </trkpt>
      <trkpt lat="42.6249848864972591400146484375" lon="19.88024580292403697967529296875">
        <ele>1746.800048828125</ele>
        <time>2026-06-16T08:21:51.000Z</time>
        <extensions>
          <ns3:TrackPointExtension>
            <ns3:atemp>17.0</ns3:atemp>
          </ns3:TrackPointExtension>
        </extensions>
      </trkpt>
      <trkpt lat="42.6249848864972591400146484375" lon="19.88024580292403697967529296875">
        <ele>1746.800048828125</ele>
        <time>2026-06-16T08:21:52.000Z</time>
        <extensions>
          <ns3:TrackPointExtension>
            <ns3:atemp>17.0</ns3:atemp>
          </ns3:TrackPointExtension>
        </extensions>
      </trkpt>
      <trkpt lat="42.6249848864972591400146484375" lon="19.88024580292403697967529296875">
        <ele>1746.800048828125</ele>
        <time>2026-06-16T08:21:53.000Z</time>
        <extensions>
          <ns3:TrackPointExtension>
            <ns3:atemp>17.0</ns3:atemp>
          </ns3:TrackPointExtension>
        </extensions>
      </trkpt>
      <trkpt lat="42.6249848864972591400146484375" lon="19.88024580292403697967529296875">
        <ele>1746.800048828125</ele>
        <time>2026-06-16T08:21:54.000Z</time>
        <extensions>
          <ns3:TrackPointExtension>
            <ns3:atemp>17.0</ns3:atemp>
          </ns3:TrackPointExtension>
        </extensions>
      </trkpt>
      <trkpt lat="42.6249848864972591400146484375" lon="19.88024580292403697967529296875">
        <ele>1746.800048828125</ele>
        <time>2026-06-16T08:21:55.000Z</time>
        <extensions>
          <ns3:TrackPointExtension>
            <ns3:atemp>17.0</ns3:atemp>
          </ns3:TrackPointExtension>
        </extensions>
      </trkpt>
      <trkpt lat="42.6249848864972591400146484375" lon="19.88024580292403697967529296875">
        <ele>1746.800048828125</ele>
        <time>2026-06-16T08:21:56.000Z</time>
        <extensions>
          <ns3:TrackPointExtension>
            <ns3:atemp>17.0</ns3:atemp>
          </ns3:TrackPointExtension>
        </extensions>
      </trkpt>
      <trkpt lat="42.6249848864972591400146484375" lon="19.88024580292403697967529296875">
        <ele>1746.800048828125</ele>
        <time>2026-06-16T08:21:57.000Z</time>
        <extensions>
          <ns3:TrackPointExtension>
            <ns3:atemp>17.0</ns3:atemp>
          </ns3:TrackPointExtension>
        </extensions>
      </trkpt>
      <trkpt lat="42.6249848864972591400146484375" lon="19.88024580292403697967529296875">
        <ele>1746.800048828125</ele>
        <time>2026-06-16T08:21:58.000Z</time>
        <extensions>
          <ns3:TrackPointExtension>
            <ns3:atemp>17.0</ns3:atemp>
          </ns3:TrackPointExtension>
        </extensions>
      </trkpt>
      <trkpt lat="42.6249848864972591400146484375" lon="19.88024580292403697967529296875">
        <ele>1746.800048828125</ele>
        <time>2026-06-16T08:21:59.000Z</time>
        <extensions>
          <ns3:TrackPointExtension>
            <ns3:atemp>17.0</ns3:atemp>
          </ns3:TrackPointExtension>
        </extensions>
      </trkpt>
      <trkpt lat="42.6249848864972591400146484375" lon="19.88024580292403697967529296875">
        <ele>1746.800048828125</ele>
        <time>2026-06-16T08:22:00.000Z</time>
        <extensions>
          <ns3:TrackPointExtension>
            <ns3:atemp>17.0</ns3:atemp>
          </ns3:TrackPointExtension>
        </extensions>
      </trkpt>
      <trkpt lat="42.6249848864972591400146484375" lon="19.88024580292403697967529296875">
        <ele>1746.800048828125</ele>
        <time>2026-06-16T08:22:01.000Z</time>
        <extensions>
          <ns3:TrackPointExtension>
            <ns3:atemp>17.0</ns3:atemp>
          </ns3:TrackPointExtension>
        </extensions>
      </trkpt>
      <trkpt lat="42.6249848864972591400146484375" lon="19.88024580292403697967529296875">
        <ele>1746.800048828125</ele>
        <time>2026-06-16T08:22:02.000Z</time>
        <extensions>
          <ns3:TrackPointExtension>
            <ns3:atemp>17.0</ns3:atemp>
          </ns3:TrackPointExtension>
        </extensions>
      </trkpt>
      <trkpt lat="42.6249848864972591400146484375" lon="19.88024580292403697967529296875">
        <ele>1746.800048828125</ele>
        <time>2026-06-16T08:22:03.000Z</time>
        <extensions>
          <ns3:TrackPointExtension>
            <ns3:atemp>17.0</ns3:atemp>
          </ns3:TrackPointExtension>
        </extensions>
      </trkpt>
      <trkpt lat="42.6249848864972591400146484375" lon="19.88024580292403697967529296875">
        <ele>1746.800048828125</ele>
        <time>2026-06-16T08:22:04.000Z</time>
        <extensions>
          <ns3:TrackPointExtension>
            <ns3:atemp>17.0</ns3:atemp>
          </ns3:TrackPointExtension>
        </extensions>
      </trkpt>
      <trkpt lat="42.6249848864972591400146484375" lon="19.88024580292403697967529296875">
        <ele>1746.800048828125</ele>
        <time>2026-06-16T08:22:05.000Z</time>
        <extensions>
          <ns3:TrackPointExtension>
            <ns3:atemp>17.0</ns3:atemp>
          </ns3:TrackPointExtension>
        </extensions>
      </trkpt>
      <trkpt lat="42.6249848864972591400146484375" lon="19.88024580292403697967529296875">
        <ele>1746.800048828125</ele>
        <time>2026-06-16T08:22:06.000Z</time>
        <extensions>
          <ns3:TrackPointExtension>
            <ns3:atemp>17.0</ns3:atemp>
          </ns3:TrackPointExtension>
        </extensions>
      </trkpt>
      <trkpt lat="42.6249848864972591400146484375" lon="19.88024580292403697967529296875">
        <ele>1746.800048828125</ele>
        <time>2026-06-16T08:22:07.000Z</time>
        <extensions>
          <ns3:TrackPointExtension>
            <ns3:atemp>17.0</ns3:atemp>
          </ns3:TrackPointExtension>
        </extensions>
      </trkpt>
      <trkpt lat="42.6249848864972591400146484375" lon="19.88024580292403697967529296875">
        <ele>1746.800048828125</ele>
        <time>2026-06-16T08:22:08.000Z</time>
        <extensions>
          <ns3:TrackPointExtension>
            <ns3:atemp>17.0</ns3:atemp>
          </ns3:TrackPointExtension>
        </extensions>
      </trkpt>
      <trkpt lat="42.6249848864972591400146484375" lon="19.88024580292403697967529296875">
        <ele>1746.800048828125</ele>
        <time>2026-06-16T08:22:09.000Z</time>
        <extensions>
          <ns3:TrackPointExtension>
            <ns3:atemp>17.0</ns3:atemp>
          </ns3:TrackPointExtension>
        </extensions>
      </trkpt>
      <trkpt lat="42.6249848864972591400146484375" lon="19.88024580292403697967529296875">
        <ele>1746.800048828125</ele>
        <time>2026-06-16T08:22:10.000Z</time>
        <extensions>
          <ns3:TrackPointExtension>
            <ns3:atemp>17.0</ns3:atemp>
          </ns3:TrackPointExtension>
        </extensions>
      </trkpt>
      <trkpt lat="42.6249848864972591400146484375" lon="19.88024580292403697967529296875">
        <ele>1746.800048828125</ele>
        <time>2026-06-16T08:22:11.000Z</time>
        <extensions>
          <ns3:TrackPointExtension>
            <ns3:atemp>17.0</ns3:atemp>
          </ns3:TrackPointExtension>
        </extensions>
      </trkpt>
      <trkpt lat="42.6249848864972591400146484375" lon="19.88024580292403697967529296875">
        <ele>1746.800048828125</ele>
        <time>2026-06-16T08:22:12.000Z</time>
        <extensions>
          <ns3:TrackPointExtension>
            <ns3:atemp>17.0</ns3:atemp>
          </ns3:TrackPointExtension>
        </extensions>
      </trkpt>
      <trkpt lat="42.6249848864972591400146484375" lon="19.88024580292403697967529296875">
        <ele>1746.800048828125</ele>
        <time>2026-06-16T08:22:13.000Z</time>
        <extensions>
          <ns3:TrackPointExtension>
            <ns3:atemp>17.0</ns3:atemp>
          </ns3:TrackPointExtension>
        </extensions>
      </trkpt>
      <trkpt lat="42.6249848864972591400146484375" lon="19.88024580292403697967529296875">
        <ele>1746.800048828125</ele>
        <time>2026-06-16T08:22:14.000Z</time>
        <extensions>
          <ns3:TrackPointExtension>
            <ns3:atemp>17.0</ns3:atemp>
          </ns3:TrackPointExtension>
        </extensions>
      </trkpt>
      <trkpt lat="42.6249848864972591400146484375" lon="19.88024580292403697967529296875">
        <ele>1746.800048828125</ele>
        <time>2026-06-16T08:22:15.000Z</time>
        <extensions>
          <ns3:TrackPointExtension>
            <ns3:atemp>17.0</ns3:atemp>
          </ns3:TrackPointExtension>
        </extensions>
      </trkpt>
      <trkpt lat="42.6249848864972591400146484375" lon="19.88024580292403697967529296875">
        <ele>1746.800048828125</ele>
        <time>2026-06-16T08:22:16.000Z</time>
        <extensions>
          <ns3:TrackPointExtension>
            <ns3:atemp>17.0</ns3:atemp>
          </ns3:TrackPointExtension>
        </extensions>
      </trkpt>
      <trkpt lat="42.6249848864972591400146484375" lon="19.88024580292403697967529296875">
        <ele>1746.800048828125</ele>
        <time>2026-06-16T08:22:17.000Z</time>
        <extensions>
          <ns3:TrackPointExtension>
            <ns3:atemp>17.0</ns3:atemp>
          </ns3:TrackPointExtension>
        </extensions>
      </trkpt>
      <trkpt lat="42.6249848864972591400146484375" lon="19.88024580292403697967529296875">
        <ele>1746.800048828125</ele>
        <time>2026-06-16T08:22:18.000Z</time>
        <extensions>
          <ns3:TrackPointExtension>
            <ns3:atemp>17.0</ns3:atemp>
          </ns3:TrackPointExtension>
        </extensions>
      </trkpt>
      <trkpt lat="42.6249848864972591400146484375" lon="19.88024580292403697967529296875">
        <ele>1746.800048828125</ele>
        <time>2026-06-16T08:22:19.000Z</time>
        <extensions>
          <ns3:TrackPointExtension>
            <ns3:atemp>17.0</ns3:atemp>
          </ns3:TrackPointExtension>
        </extensions>
      </trkpt>
      <trkpt lat="42.6249848864972591400146484375" lon="19.88024580292403697967529296875">
        <ele>1746.800048828125</ele>
        <time>2026-06-16T08:22:20.000Z</time>
        <extensions>
          <ns3:TrackPointExtension>
            <ns3:atemp>17.0</ns3:atemp>
          </ns3:TrackPointExtension>
        </extensions>
      </trkpt>
      <trkpt lat="42.6249848864972591400146484375" lon="19.88024580292403697967529296875">
        <ele>1746.800048828125</ele>
        <time>2026-06-16T08:22:21.000Z</time>
        <extensions>
          <ns3:TrackPointExtension>
            <ns3:atemp>17.0</ns3:atemp>
          </ns3:TrackPointExtension>
        </extensions>
      </trkpt>
      <trkpt lat="42.6249848864972591400146484375" lon="19.88024580292403697967529296875">
        <ele>1746.800048828125</ele>
        <time>2026-06-16T08:22:22.000Z</time>
        <extensions>
          <ns3:TrackPointExtension>
            <ns3:atemp>17.0</ns3:atemp>
          </ns3:TrackPointExtension>
        </extensions>
      </trkpt>
      <trkpt lat="42.6249848864972591400146484375" lon="19.88024580292403697967529296875">
        <ele>1746.800048828125</ele>
        <time>2026-06-16T08:22:23.000Z</time>
        <extensions>
          <ns3:TrackPointExtension>
            <ns3:atemp>17.0</ns3:atemp>
          </ns3:TrackPointExtension>
        </extensions>
      </trkpt>
      <trkpt lat="42.6249848864972591400146484375" lon="19.88024580292403697967529296875">
        <ele>1746.800048828125</ele>
        <time>2026-06-16T08:22:24.000Z</time>
        <extensions>
          <ns3:TrackPointExtension>
            <ns3:atemp>17.0</ns3:atemp>
          </ns3:TrackPointExtension>
        </extensions>
      </trkpt>
      <trkpt lat="42.6249848864972591400146484375" lon="19.88024580292403697967529296875">
        <ele>1746.800048828125</ele>
        <time>2026-06-16T08:22:25.000Z</time>
        <extensions>
          <ns3:TrackPointExtension>
            <ns3:atemp>17.0</ns3:atemp>
          </ns3:TrackPointExtension>
        </extensions>
      </trkpt>
      <trkpt lat="42.6249848864972591400146484375" lon="19.88024580292403697967529296875">
        <ele>1746.800048828125</ele>
        <time>2026-06-16T08:22:26.000Z</time>
        <extensions>
          <ns3:TrackPointExtension>
            <ns3:atemp>17.0</ns3:atemp>
          </ns3:TrackPointExtension>
        </extensions>
      </trkpt>
      <trkpt lat="42.6249848864972591400146484375" lon="19.88024580292403697967529296875">
        <ele>1746.800048828125</ele>
        <time>2026-06-16T08:22:27.000Z</time>
        <extensions>
          <ns3:TrackPointExtension>
            <ns3:atemp>17.0</ns3:atemp>
          </ns3:TrackPointExtension>
        </extensions>
      </trkpt>
      <trkpt lat="42.6249848864972591400146484375" lon="19.88024580292403697967529296875">
        <ele>1746.800048828125</ele>
        <time>2026-06-16T08:22:28.000Z</time>
        <extensions>
          <ns3:TrackPointExtension>
            <ns3:atemp>17.0</ns3:atemp>
          </ns3:TrackPointExtension>
        </extensions>
      </trkpt>
      <trkpt lat="42.6249848864972591400146484375" lon="19.88024580292403697967529296875">
        <ele>1746.800048828125</ele>
        <time>2026-06-16T08:22:29.000Z</time>
        <extensions>
          <ns3:TrackPointExtension>
            <ns3:atemp>17.0</ns3:atemp>
          </ns3:TrackPointExtension>
        </extensions>
      </trkpt>
      <trkpt lat="42.6249848864972591400146484375" lon="19.88024580292403697967529296875">
        <ele>1746.800048828125</ele>
        <time>2026-06-16T08:22:30.000Z</time>
        <extensions>
          <ns3:TrackPointExtension>
            <ns3:atemp>17.0</ns3:atemp>
          </ns3:TrackPointExtension>
        </extensions>
      </trkpt>
      <trkpt lat="42.6249848864972591400146484375" lon="19.88024580292403697967529296875">
        <ele>1746.800048828125</ele>
        <time>2026-06-16T08:22:31.000Z</time>
        <extensions>
          <ns3:TrackPointExtension>
            <ns3:atemp>17.0</ns3:atemp>
          </ns3:TrackPointExtension>
        </extensions>
      </trkpt>
      <trkpt lat="42.6249848864972591400146484375" lon="19.88024580292403697967529296875">
        <ele>1746.800048828125</ele>
        <time>2026-06-16T08:22:32.000Z</time>
        <extensions>
          <ns3:TrackPointExtension>
            <ns3:atemp>17.0</ns3:atemp>
          </ns3:TrackPointExtension>
        </extensions>
      </trkpt>
      <trkpt lat="42.6249848864972591400146484375" lon="19.88024580292403697967529296875">
        <ele>1746.800048828125</ele>
        <time>2026-06-16T08:22:33.000Z</time>
        <extensions>
          <ns3:TrackPointExtension>
            <ns3:atemp>17.0</ns3:atemp>
          </ns3:TrackPointExtension>
        </extensions>
      </trkpt>
      <trkpt lat="42.6249848864972591400146484375" lon="19.88024580292403697967529296875">
        <ele>1746.800048828125</ele>
        <time>2026-06-16T08:22:34.000Z</time>
        <extensions>
          <ns3:TrackPointExtension>
            <ns3:atemp>17.0</ns3:atemp>
          </ns3:TrackPointExtension>
        </extensions>
      </trkpt>
      <trkpt lat="42.6249848864972591400146484375" lon="19.88024580292403697967529296875">
        <ele>1746.800048828125</ele>
        <time>2026-06-16T08:22:35.000Z</time>
        <extensions>
          <ns3:TrackPointExtension>
            <ns3:atemp>17.0</ns3:atemp>
          </ns3:TrackPointExtension>
        </extensions>
      </trkpt>
      <trkpt lat="42.6249848864972591400146484375" lon="19.88024580292403697967529296875">
        <ele>1746.800048828125</ele>
        <time>2026-06-16T08:22:36.000Z</time>
        <extensions>
          <ns3:TrackPointExtension>
            <ns3:atemp>17.0</ns3:atemp>
          </ns3:TrackPointExtension>
        </extensions>
      </trkpt>
      <trkpt lat="42.6249848864972591400146484375" lon="19.88024580292403697967529296875">
        <ele>1746.800048828125</ele>
        <time>2026-06-16T08:22:37.000Z</time>
        <extensions>
          <ns3:TrackPointExtension>
            <ns3:atemp>17.0</ns3:atemp>
          </ns3:TrackPointExtension>
        </extensions>
      </trkpt>
      <trkpt lat="42.6249848864972591400146484375" lon="19.88024580292403697967529296875">
        <ele>1746.800048828125</ele>
        <time>2026-06-16T08:22:38.000Z</time>
        <extensions>
          <ns3:TrackPointExtension>
            <ns3:atemp>17.0</ns3:atemp>
          </ns3:TrackPointExtension>
        </extensions>
      </trkpt>
      <trkpt lat="42.6249848864972591400146484375" lon="19.88024580292403697967529296875">
        <ele>1746.800048828125</ele>
        <time>2026-06-16T08:22:39.000Z</time>
        <extensions>
          <ns3:TrackPointExtension>
            <ns3:atemp>17.0</ns3:atemp>
          </ns3:TrackPointExtension>
        </extensions>
      </trkpt>
      <trkpt lat="42.6249848864972591400146484375" lon="19.88024580292403697967529296875">
        <ele>1746.800048828125</ele>
        <time>2026-06-16T08:22:40.000Z</time>
        <extensions>
          <ns3:TrackPointExtension>
            <ns3:atemp>17.0</ns3:atemp>
          </ns3:TrackPointExtension>
        </extensions>
      </trkpt>
      <trkpt lat="42.6249848864972591400146484375" lon="19.88024580292403697967529296875">
        <ele>1746.800048828125</ele>
        <time>2026-06-16T08:22:41.000Z</time>
        <extensions>
          <ns3:TrackPointExtension>
            <ns3:atemp>17.0</ns3:atemp>
          </ns3:TrackPointExtension>
        </extensions>
      </trkpt>
      <trkpt lat="42.6249848864972591400146484375" lon="19.88024580292403697967529296875">
        <ele>1746.800048828125</ele>
        <time>2026-06-16T08:22:42.000Z</time>
        <extensions>
          <ns3:TrackPointExtension>
            <ns3:atemp>17.0</ns3:atemp>
          </ns3:TrackPointExtension>
        </extensions>
      </trkpt>
      <trkpt lat="42.6249848864972591400146484375" lon="19.88024580292403697967529296875">
        <ele>1746.800048828125</ele>
        <time>2026-06-16T08:22:43.000Z</time>
        <extensions>
          <ns3:TrackPointExtension>
            <ns3:atemp>17.0</ns3:atemp>
          </ns3:TrackPointExtension>
        </extensions>
      </trkpt>
      <trkpt lat="42.6249848864972591400146484375" lon="19.88024580292403697967529296875">
        <ele>1746.800048828125</ele>
        <time>2026-06-16T08:22:44.000Z</time>
        <extensions>
          <ns3:TrackPointExtension>
            <ns3:atemp>17.0</ns3:atemp>
          </ns3:TrackPointExtension>
        </extensions>
      </trkpt>
      <trkpt lat="42.6249848864972591400146484375" lon="19.88024580292403697967529296875">
        <ele>1746.800048828125</ele>
        <time>2026-06-16T08:22:45.000Z</time>
        <extensions>
          <ns3:TrackPointExtension>
            <ns3:atemp>17.0</ns3:atemp>
          </ns3:TrackPointExtension>
        </extensions>
      </trkpt>
      <trkpt lat="42.6249848864972591400146484375" lon="19.88024580292403697967529296875">
        <ele>1746.800048828125</ele>
        <time>2026-06-16T08:22:46.000Z</time>
        <extensions>
          <ns3:TrackPointExtension>
            <ns3:atemp>17.0</ns3:atemp>
          </ns3:TrackPointExtension>
        </extensions>
      </trkpt>
      <trkpt lat="42.6249848864972591400146484375" lon="19.88024580292403697967529296875">
        <ele>1746.800048828125</ele>
        <time>2026-06-16T08:22:47.000Z</time>
        <extensions>
          <ns3:TrackPointExtension>
            <ns3:atemp>17.0</ns3:atemp>
          </ns3:TrackPointExtension>
        </extensions>
      </trkpt>
      <trkpt lat="42.6249848864972591400146484375" lon="19.88024580292403697967529296875">
        <ele>1746.800048828125</ele>
        <time>2026-06-16T08:22:48.000Z</time>
        <extensions>
          <ns3:TrackPointExtension>
            <ns3:atemp>17.0</ns3:atemp>
          </ns3:TrackPointExtension>
        </extensions>
      </trkpt>
      <trkpt lat="42.6249848864972591400146484375" lon="19.88024580292403697967529296875">
        <ele>1746.800048828125</ele>
        <time>2026-06-16T08:22:49.000Z</time>
        <extensions>
          <ns3:TrackPointExtension>
            <ns3:atemp>17.0</ns3:atemp>
          </ns3:TrackPointExtension>
        </extensions>
      </trkpt>
      <trkpt lat="42.6249848864972591400146484375" lon="19.88024580292403697967529296875">
        <ele>1746.800048828125</ele>
        <time>2026-06-16T08:22:50.000Z</time>
        <extensions>
          <ns3:TrackPointExtension>
            <ns3:atemp>17.0</ns3:atemp>
          </ns3:TrackPointExtension>
        </extensions>
      </trkpt>
      <trkpt lat="42.6249848864972591400146484375" lon="19.88024580292403697967529296875">
        <ele>1746.800048828125</ele>
        <time>2026-06-16T08:22:51.000Z</time>
        <extensions>
          <ns3:TrackPointExtension>
            <ns3:atemp>17.0</ns3:atemp>
          </ns3:TrackPointExtension>
        </extensions>
      </trkpt>
      <trkpt lat="42.6249848864972591400146484375" lon="19.88024580292403697967529296875">
        <ele>1746.800048828125</ele>
        <time>2026-06-16T08:22:52.000Z</time>
        <extensions>
          <ns3:TrackPointExtension>
            <ns3:atemp>17.0</ns3:atemp>
          </ns3:TrackPointExtension>
        </extensions>
      </trkpt>
      <trkpt lat="42.6249848864972591400146484375" lon="19.88024580292403697967529296875">
        <ele>1746.800048828125</ele>
        <time>2026-06-16T08:22:53.000Z</time>
        <extensions>
          <ns3:TrackPointExtension>
            <ns3:atemp>17.0</ns3:atemp>
          </ns3:TrackPointExtension>
        </extensions>
      </trkpt>
      <trkpt lat="42.6249848864972591400146484375" lon="19.88024580292403697967529296875">
        <ele>1746.800048828125</ele>
        <time>2026-06-16T08:22:54.000Z</time>
        <extensions>
          <ns3:TrackPointExtension>
            <ns3:atemp>17.0</ns3:atemp>
          </ns3:TrackPointExtension>
        </extensions>
      </trkpt>
      <trkpt lat="42.6249848864972591400146484375" lon="19.88024580292403697967529296875">
        <ele>1746.800048828125</ele>
        <time>2026-06-16T08:22:55.000Z</time>
        <extensions>
          <ns3:TrackPointExtension>
            <ns3:atemp>17.0</ns3:atemp>
          </ns3:TrackPointExtension>
        </extensions>
      </trkpt>
      <trkpt lat="42.6249848864972591400146484375" lon="19.88024580292403697967529296875">
        <ele>1746.800048828125</ele>
        <time>2026-06-16T08:22:56.000Z</time>
        <extensions>
          <ns3:TrackPointExtension>
            <ns3:atemp>17.0</ns3:atemp>
          </ns3:TrackPointExtension>
        </extensions>
      </trkpt>
      <trkpt lat="42.6249848864972591400146484375" lon="19.88024580292403697967529296875">
        <ele>1746.800048828125</ele>
        <time>2026-06-16T08:22:57.000Z</time>
        <extensions>
          <ns3:TrackPointExtension>
            <ns3:atemp>17.0</ns3:atemp>
          </ns3:TrackPointExtension>
        </extensions>
      </trkpt>
      <trkpt lat="42.6249848864972591400146484375" lon="19.88024580292403697967529296875">
        <ele>1746.800048828125</ele>
        <time>2026-06-16T08:22:58.000Z</time>
        <extensions>
          <ns3:TrackPointExtension>
            <ns3:atemp>17.0</ns3:atemp>
          </ns3:TrackPointExtension>
        </extensions>
      </trkpt>
      <trkpt lat="42.6249848864972591400146484375" lon="19.88024580292403697967529296875">
        <ele>1746.800048828125</ele>
        <time>2026-06-16T08:22:59.000Z</time>
        <extensions>
          <ns3:TrackPointExtension>
            <ns3:atemp>17.0</ns3:atemp>
          </ns3:TrackPointExtension>
        </extensions>
      </trkpt>
      <trkpt lat="42.6249848864972591400146484375" lon="19.88024580292403697967529296875">
        <ele>1746.800048828125</ele>
        <time>2026-06-16T08:23:00.000Z</time>
        <extensions>
          <ns3:TrackPointExtension>
            <ns3:atemp>17.0</ns3:atemp>
          </ns3:TrackPointExtension>
        </extensions>
      </trkpt>
      <trkpt lat="42.6249848864972591400146484375" lon="19.88024580292403697967529296875">
        <ele>1746.800048828125</ele>
        <time>2026-06-16T08:23:01.000Z</time>
        <extensions>
          <ns3:TrackPointExtension>
            <ns3:atemp>17.0</ns3:atemp>
          </ns3:TrackPointExtension>
        </extensions>
      </trkpt>
      <trkpt lat="42.6249848864972591400146484375" lon="19.88024580292403697967529296875">
        <ele>1746.800048828125</ele>
        <time>2026-06-16T08:23:02.000Z</time>
        <extensions>
          <ns3:TrackPointExtension>
            <ns3:atemp>17.0</ns3:atemp>
          </ns3:TrackPointExtension>
        </extensions>
      </trkpt>
      <trkpt lat="42.6249848864972591400146484375" lon="19.88024580292403697967529296875">
        <ele>1746.800048828125</ele>
        <time>2026-06-16T08:23:03.000Z</time>
        <extensions>
          <ns3:TrackPointExtension>
            <ns3:atemp>17.0</ns3:atemp>
          </ns3:TrackPointExtension>
        </extensions>
      </trkpt>
      <trkpt lat="42.6249848864972591400146484375" lon="19.88024580292403697967529296875">
        <ele>1746.800048828125</ele>
        <time>2026-06-16T08:23:04.000Z</time>
        <extensions>
          <ns3:TrackPointExtension>
            <ns3:atemp>17.0</ns3:atemp>
          </ns3:TrackPointExtension>
        </extensions>
      </trkpt>
      <trkpt lat="42.6249848864972591400146484375" lon="19.88024580292403697967529296875">
        <ele>1746.800048828125</ele>
        <time>2026-06-16T08:23:05.000Z</time>
        <extensions>
          <ns3:TrackPointExtension>
            <ns3:atemp>17.0</ns3:atemp>
          </ns3:TrackPointExtension>
        </extensions>
      </trkpt>
      <trkpt lat="42.6249848864972591400146484375" lon="19.88024580292403697967529296875">
        <ele>1746.800048828125</ele>
        <time>2026-06-16T08:23:06.000Z</time>
        <extensions>
          <ns3:TrackPointExtension>
            <ns3:atemp>17.0</ns3:atemp>
          </ns3:TrackPointExtension>
        </extensions>
      </trkpt>
      <trkpt lat="42.6249848864972591400146484375" lon="19.88024580292403697967529296875">
        <ele>1746.800048828125</ele>
        <time>2026-06-16T08:23:07.000Z</time>
        <extensions>
          <ns3:TrackPointExtension>
            <ns3:atemp>17.0</ns3:atemp>
          </ns3:TrackPointExtension>
        </extensions>
      </trkpt>
      <trkpt lat="42.6249848864972591400146484375" lon="19.88024580292403697967529296875">
        <ele>1746.800048828125</ele>
        <time>2026-06-16T08:23:08.000Z</time>
        <extensions>
          <ns3:TrackPointExtension>
            <ns3:atemp>17.0</ns3:atemp>
          </ns3:TrackPointExtension>
        </extensions>
      </trkpt>
      <trkpt lat="42.6249848864972591400146484375" lon="19.88024580292403697967529296875">
        <ele>1746.800048828125</ele>
        <time>2026-06-16T08:23:09.000Z</time>
        <extensions>
          <ns3:TrackPointExtension>
            <ns3:atemp>17.0</ns3:atemp>
          </ns3:TrackPointExtension>
        </extensions>
      </trkpt>
      <trkpt lat="42.6249848864972591400146484375" lon="19.88024580292403697967529296875">
        <ele>1746.800048828125</ele>
        <time>2026-06-16T08:23:10.000Z</time>
        <extensions>
          <ns3:TrackPointExtension>
            <ns3:atemp>17.0</ns3:atemp>
          </ns3:TrackPointExtension>
        </extensions>
      </trkpt>
      <trkpt lat="42.6249848864972591400146484375" lon="19.88024580292403697967529296875">
        <ele>1746.800048828125</ele>
        <time>2026-06-16T08:23:11.000Z</time>
        <extensions>
          <ns3:TrackPointExtension>
            <ns3:atemp>17.0</ns3:atemp>
          </ns3:TrackPointExtension>
        </extensions>
      </trkpt>
      <trkpt lat="42.6249848864972591400146484375" lon="19.88024580292403697967529296875">
        <ele>1746.800048828125</ele>
        <time>2026-06-16T08:23:12.000Z</time>
        <extensions>
          <ns3:TrackPointExtension>
            <ns3:atemp>17.0</ns3:atemp>
          </ns3:TrackPointExtension>
        </extensions>
      </trkpt>
      <trkpt lat="42.6249848864972591400146484375" lon="19.88024580292403697967529296875">
        <ele>1746.800048828125</ele>
        <time>2026-06-16T08:23:13.000Z</time>
        <extensions>
          <ns3:TrackPointExtension>
            <ns3:atemp>17.0</ns3:atemp>
          </ns3:TrackPointExtension>
        </extensions>
      </trkpt>
      <trkpt lat="42.6249848864972591400146484375" lon="19.88024580292403697967529296875">
        <ele>1746.800048828125</ele>
        <time>2026-06-16T08:23:14.000Z</time>
        <extensions>
          <ns3:TrackPointExtension>
            <ns3:atemp>17.0</ns3:atemp>
          </ns3:TrackPointExtension>
        </extensions>
      </trkpt>
      <trkpt lat="42.6249848864972591400146484375" lon="19.88024580292403697967529296875">
        <ele>1746.800048828125</ele>
        <time>2026-06-16T08:23:15.000Z</time>
        <extensions>
          <ns3:TrackPointExtension>
            <ns3:atemp>17.0</ns3:atemp>
          </ns3:TrackPointExtension>
        </extensions>
      </trkpt>
      <trkpt lat="42.6249848864972591400146484375" lon="19.88024580292403697967529296875">
        <ele>1746.800048828125</ele>
        <time>2026-06-16T08:23:16.000Z</time>
        <extensions>
          <ns3:TrackPointExtension>
            <ns3:atemp>17.0</ns3:atemp>
          </ns3:TrackPointExtension>
        </extensions>
      </trkpt>
      <trkpt lat="42.6249848864972591400146484375" lon="19.88024580292403697967529296875">
        <ele>1746.800048828125</ele>
        <time>2026-06-16T08:23:17.000Z</time>
        <extensions>
          <ns3:TrackPointExtension>
            <ns3:atemp>17.0</ns3:atemp>
          </ns3:TrackPointExtension>
        </extensions>
      </trkpt>
      <trkpt lat="42.6249848864972591400146484375" lon="19.88024580292403697967529296875">
        <ele>1746.800048828125</ele>
        <time>2026-06-16T08:23:18.000Z</time>
        <extensions>
          <ns3:TrackPointExtension>
            <ns3:atemp>17.0</ns3:atemp>
          </ns3:TrackPointExtension>
        </extensions>
      </trkpt>
      <trkpt lat="42.6249848864972591400146484375" lon="19.88024580292403697967529296875">
        <ele>1746.800048828125</ele>
        <time>2026-06-16T08:23:19.000Z</time>
        <extensions>
          <ns3:TrackPointExtension>
            <ns3:atemp>17.0</ns3:atemp>
          </ns3:TrackPointExtension>
        </extensions>
      </trkpt>
      <trkpt lat="42.6249848864972591400146484375" lon="19.88024580292403697967529296875">
        <ele>1746.800048828125</ele>
        <time>2026-06-16T08:23:20.000Z</time>
        <extensions>
          <ns3:TrackPointExtension>
            <ns3:atemp>17.0</ns3:atemp>
          </ns3:TrackPointExtension>
        </extensions>
      </trkpt>
      <trkpt lat="42.6249848864972591400146484375" lon="19.88024580292403697967529296875">
        <ele>1746.800048828125</ele>
        <time>2026-06-16T08:23:21.000Z</time>
        <extensions>
          <ns3:TrackPointExtension>
            <ns3:atemp>17.0</ns3:atemp>
          </ns3:TrackPointExtension>
        </extensions>
      </trkpt>
      <trkpt lat="42.6249848864972591400146484375" lon="19.88024580292403697967529296875">
        <ele>1746.800048828125</ele>
        <time>2026-06-16T08:23:22.000Z</time>
        <extensions>
          <ns3:TrackPointExtension>
            <ns3:atemp>17.0</ns3:atemp>
          </ns3:TrackPointExtension>
        </extensions>
      </trkpt>
      <trkpt lat="42.6249848864972591400146484375" lon="19.88024580292403697967529296875">
        <ele>1746.800048828125</ele>
        <time>2026-06-16T08:23:23.000Z</time>
        <extensions>
          <ns3:TrackPointExtension>
            <ns3:atemp>17.0</ns3:atemp>
          </ns3:TrackPointExtension>
        </extensions>
      </trkpt>
      <trkpt lat="42.6249848864972591400146484375" lon="19.88024580292403697967529296875">
        <ele>1746.800048828125</ele>
        <time>2026-06-16T08:23:24.000Z</time>
        <extensions>
          <ns3:TrackPointExtension>
            <ns3:atemp>17.0</ns3:atemp>
          </ns3:TrackPointExtension>
        </extensions>
      </trkpt>
      <trkpt lat="42.6249848864972591400146484375" lon="19.88024580292403697967529296875">
        <ele>1746.800048828125</ele>
        <time>2026-06-16T08:23:25.000Z</time>
        <extensions>
          <ns3:TrackPointExtension>
            <ns3:atemp>17.0</ns3:atemp>
          </ns3:TrackPointExtension>
        </extensions>
      </trkpt>
      <trkpt lat="42.6249848864972591400146484375" lon="19.88024580292403697967529296875">
        <ele>1746.800048828125</ele>
        <time>2026-06-16T08:23:26.000Z</time>
        <extensions>
          <ns3:TrackPointExtension>
            <ns3:atemp>17.0</ns3:atemp>
          </ns3:TrackPointExtension>
        </extensions>
      </trkpt>
      <trkpt lat="42.6249848864972591400146484375" lon="19.88024580292403697967529296875">
        <ele>1746.800048828125</ele>
        <time>2026-06-16T08:23:27.000Z</time>
        <extensions>
          <ns3:TrackPointExtension>
            <ns3:atemp>17.0</ns3:atemp>
          </ns3:TrackPointExtension>
        </extensions>
      </trkpt>
      <trkpt lat="42.6249848864972591400146484375" lon="19.88024580292403697967529296875">
        <ele>1746.800048828125</ele>
        <time>2026-06-16T08:23:28.000Z</time>
        <extensions>
          <ns3:TrackPointExtension>
            <ns3:atemp>17.0</ns3:atemp>
          </ns3:TrackPointExtension>
        </extensions>
      </trkpt>
      <trkpt lat="42.6249848864972591400146484375" lon="19.88024580292403697967529296875">
        <ele>1746.800048828125</ele>
        <time>2026-06-16T08:23:29.000Z</time>
        <extensions>
          <ns3:TrackPointExtension>
            <ns3:atemp>17.0</ns3:atemp>
          </ns3:TrackPointExtension>
        </extensions>
      </trkpt>
      <trkpt lat="42.6249848864972591400146484375" lon="19.88024580292403697967529296875">
        <ele>1746.800048828125</ele>
        <time>2026-06-16T08:23:30.000Z</time>
        <extensions>
          <ns3:TrackPointExtension>
            <ns3:atemp>17.0</ns3:atemp>
          </ns3:TrackPointExtension>
        </extensions>
      </trkpt>
      <trkpt lat="42.6249848864972591400146484375" lon="19.88024580292403697967529296875">
        <ele>1746.800048828125</ele>
        <time>2026-06-16T08:23:31.000Z</time>
        <extensions>
          <ns3:TrackPointExtension>
            <ns3:atemp>17.0</ns3:atemp>
          </ns3:TrackPointExtension>
        </extensions>
      </trkpt>
      <trkpt lat="42.6249848864972591400146484375" lon="19.88024580292403697967529296875">
        <ele>1746.800048828125</ele>
        <time>2026-06-16T08:23:32.000Z</time>
        <extensions>
          <ns3:TrackPointExtension>
            <ns3:atemp>17.0</ns3:atemp>
          </ns3:TrackPointExtension>
        </extensions>
      </trkpt>
      <trkpt lat="42.6249848864972591400146484375" lon="19.88024580292403697967529296875">
        <ele>1746.800048828125</ele>
        <time>2026-06-16T08:23:33.000Z</time>
        <extensions>
          <ns3:TrackPointExtension>
            <ns3:atemp>17.0</ns3:atemp>
          </ns3:TrackPointExtension>
        </extensions>
      </trkpt>
      <trkpt lat="42.6249848864972591400146484375" lon="19.88024580292403697967529296875">
        <ele>1746.800048828125</ele>
        <time>2026-06-16T08:23:34.000Z</time>
        <extensions>
          <ns3:TrackPointExtension>
            <ns3:atemp>17.0</ns3:atemp>
          </ns3:TrackPointExtension>
        </extensions>
      </trkpt>
      <trkpt lat="42.6249848864972591400146484375" lon="19.88024580292403697967529296875">
        <ele>1746.800048828125</ele>
        <time>2026-06-16T08:23:35.000Z</time>
        <extensions>
          <ns3:TrackPointExtension>
            <ns3:atemp>17.0</ns3:atemp>
          </ns3:TrackPointExtension>
        </extensions>
      </trkpt>
      <trkpt lat="42.6249848864972591400146484375" lon="19.88024580292403697967529296875">
        <ele>1746.800048828125</ele>
        <time>2026-06-16T08:23:36.000Z</time>
        <extensions>
          <ns3:TrackPointExtension>
            <ns3:atemp>17.0</ns3:atemp>
          </ns3:TrackPointExtension>
        </extensions>
      </trkpt>
      <trkpt lat="42.6249848864972591400146484375" lon="19.88024580292403697967529296875">
        <ele>1746.800048828125</ele>
        <time>2026-06-16T08:23:37.000Z</time>
        <extensions>
          <ns3:TrackPointExtension>
            <ns3:atemp>17.0</ns3:atemp>
          </ns3:TrackPointExtension>
        </extensions>
      </trkpt>
      <trkpt lat="42.6249848864972591400146484375" lon="19.88024580292403697967529296875">
        <ele>1746.800048828125</ele>
        <time>2026-06-16T08:23:38.000Z</time>
        <extensions>
          <ns3:TrackPointExtension>
            <ns3:atemp>17.0</ns3:atemp>
          </ns3:TrackPointExtension>
        </extensions>
      </trkpt>
      <trkpt lat="42.6249848864972591400146484375" lon="19.88024580292403697967529296875">
        <ele>1746.800048828125</ele>
        <time>2026-06-16T08:23:39.000Z</time>
        <extensions>
          <ns3:TrackPointExtension>
            <ns3:atemp>17.0</ns3:atemp>
          </ns3:TrackPointExtension>
        </extensions>
      </trkpt>
      <trkpt lat="42.6249848864972591400146484375" lon="19.88024580292403697967529296875">
        <ele>1746.800048828125</ele>
        <time>2026-06-16T08:23:40.000Z</time>
        <extensions>
          <ns3:TrackPointExtension>
            <ns3:atemp>17.0</ns3:atemp>
          </ns3:TrackPointExtension>
        </extensions>
      </trkpt>
      <trkpt lat="42.6249848864972591400146484375" lon="19.88024580292403697967529296875">
        <ele>1746.800048828125</ele>
        <time>2026-06-16T08:23:41.000Z</time>
        <extensions>
          <ns3:TrackPointExtension>
            <ns3:atemp>17.0</ns3:atemp>
          </ns3:TrackPointExtension>
        </extensions>
      </trkpt>
      <trkpt lat="42.6249848864972591400146484375" lon="19.88024580292403697967529296875">
        <ele>1746.800048828125</ele>
        <time>2026-06-16T08:23:42.000Z</time>
        <extensions>
          <ns3:TrackPointExtension>
            <ns3:atemp>17.0</ns3:atemp>
          </ns3:TrackPointExtension>
        </extensions>
      </trkpt>
      <trkpt lat="42.6249848864972591400146484375" lon="19.88024580292403697967529296875">
        <ele>1746.800048828125</ele>
        <time>2026-06-16T08:23:43.000Z</time>
        <extensions>
          <ns3:TrackPointExtension>
            <ns3:atemp>17.0</ns3:atemp>
          </ns3:TrackPointExtension>
        </extensions>
      </trkpt>
      <trkpt lat="42.6249848864972591400146484375" lon="19.88024580292403697967529296875">
        <ele>1746.800048828125</ele>
        <time>2026-06-16T08:23:44.000Z</time>
        <extensions>
          <ns3:TrackPointExtension>
            <ns3:atemp>17.0</ns3:atemp>
          </ns3:TrackPointExtension>
        </extensions>
      </trkpt>
      <trkpt lat="42.6249848864972591400146484375" lon="19.88024580292403697967529296875">
        <ele>1746.800048828125</ele>
        <time>2026-06-16T08:23:45.000Z</time>
        <extensions>
          <ns3:TrackPointExtension>
            <ns3:atemp>17.0</ns3:atemp>
          </ns3:TrackPointExtension>
        </extensions>
      </trkpt>
      <trkpt lat="42.6249848864972591400146484375" lon="19.88024580292403697967529296875">
        <ele>1746.800048828125</ele>
        <time>2026-06-16T08:23:46.000Z</time>
        <extensions>
          <ns3:TrackPointExtension>
            <ns3:atemp>17.0</ns3:atemp>
          </ns3:TrackPointExtension>
        </extensions>
      </trkpt>
      <trkpt lat="42.6249848864972591400146484375" lon="19.88024580292403697967529296875">
        <ele>1746.800048828125</ele>
        <time>2026-06-16T08:23:47.000Z</time>
        <extensions>
          <ns3:TrackPointExtension>
            <ns3:atemp>17.0</ns3:atemp>
          </ns3:TrackPointExtension>
        </extensions>
      </trkpt>
      <trkpt lat="42.6249848864972591400146484375" lon="19.88024580292403697967529296875">
        <ele>1746.800048828125</ele>
        <time>2026-06-16T08:23:48.000Z</time>
        <extensions>
          <ns3:TrackPointExtension>
            <ns3:atemp>17.0</ns3:atemp>
          </ns3:TrackPointExtension>
        </extensions>
      </trkpt>
      <trkpt lat="42.6249848864972591400146484375" lon="19.88024580292403697967529296875">
        <ele>1746.800048828125</ele>
        <time>2026-06-16T08:23:49.000Z</time>
        <extensions>
          <ns3:TrackPointExtension>
            <ns3:atemp>17.0</ns3:atemp>
          </ns3:TrackPointExtension>
        </extensions>
      </trkpt>
      <trkpt lat="42.6249848864972591400146484375" lon="19.88024580292403697967529296875">
        <ele>1746.800048828125</ele>
        <time>2026-06-16T08:23:50.000Z</time>
        <extensions>
          <ns3:TrackPointExtension>
            <ns3:atemp>17.0</ns3:atemp>
          </ns3:TrackPointExtension>
        </extensions>
      </trkpt>
      <trkpt lat="42.6249848864972591400146484375" lon="19.88024580292403697967529296875">
        <ele>1746.800048828125</ele>
        <time>2026-06-16T08:23:51.000Z</time>
        <extensions>
          <ns3:TrackPointExtension>
            <ns3:atemp>17.0</ns3:atemp>
          </ns3:TrackPointExtension>
        </extensions>
      </trkpt>
      <trkpt lat="42.6249848864972591400146484375" lon="19.88024580292403697967529296875">
        <ele>1746.800048828125</ele>
        <time>2026-06-16T08:23:52.000Z</time>
        <extensions>
          <ns3:TrackPointExtension>
            <ns3:atemp>17.0</ns3:atemp>
          </ns3:TrackPointExtension>
        </extensions>
      </trkpt>
      <trkpt lat="42.6249848864972591400146484375" lon="19.88024580292403697967529296875">
        <ele>1746.800048828125</ele>
        <time>2026-06-16T08:23:53.000Z</time>
        <extensions>
          <ns3:TrackPointExtension>
            <ns3:atemp>17.0</ns3:atemp>
          </ns3:TrackPointExtension>
        </extensions>
      </trkpt>
      <trkpt lat="42.6249848864972591400146484375" lon="19.88024580292403697967529296875">
        <ele>1746.800048828125</ele>
        <time>2026-06-16T08:23:54.000Z</time>
        <extensions>
          <ns3:TrackPointExtension>
            <ns3:atemp>17.0</ns3:atemp>
          </ns3:TrackPointExtension>
        </extensions>
      </trkpt>
      <trkpt lat="42.6249848864972591400146484375" lon="19.88024580292403697967529296875">
        <ele>1746.800048828125</ele>
        <time>2026-06-16T08:23:55.000Z</time>
        <extensions>
          <ns3:TrackPointExtension>
            <ns3:atemp>17.0</ns3:atemp>
          </ns3:TrackPointExtension>
        </extensions>
      </trkpt>
      <trkpt lat="42.6249848864972591400146484375" lon="19.88024580292403697967529296875">
        <ele>1746.800048828125</ele>
        <time>2026-06-16T08:23:56.000Z</time>
        <extensions>
          <ns3:TrackPointExtension>
            <ns3:atemp>17.0</ns3:atemp>
          </ns3:TrackPointExtension>
        </extensions>
      </trkpt>
      <trkpt lat="42.6249848864972591400146484375" lon="19.88024580292403697967529296875">
        <ele>1746.800048828125</ele>
        <time>2026-06-16T08:23:57.000Z</time>
        <extensions>
          <ns3:TrackPointExtension>
            <ns3:atemp>17.0</ns3:atemp>
          </ns3:TrackPointExtension>
        </extensions>
      </trkpt>
      <trkpt lat="42.6249848864972591400146484375" lon="19.88024580292403697967529296875">
        <ele>1746.800048828125</ele>
        <time>2026-06-16T08:23:58.000Z</time>
        <extensions>
          <ns3:TrackPointExtension>
            <ns3:atemp>17.0</ns3:atemp>
          </ns3:TrackPointExtension>
        </extensions>
      </trkpt>
      <trkpt lat="42.6249848864972591400146484375" lon="19.88024580292403697967529296875">
        <ele>1746.800048828125</ele>
        <time>2026-06-16T08:23:59.000Z</time>
        <extensions>
          <ns3:TrackPointExtension>
            <ns3:atemp>17.0</ns3:atemp>
          </ns3:TrackPointExtension>
        </extensions>
      </trkpt>
      <trkpt lat="42.6249848864972591400146484375" lon="19.88024580292403697967529296875">
        <ele>1746.800048828125</ele>
        <time>2026-06-16T08:24:00.000Z</time>
        <extensions>
          <ns3:TrackPointExtension>
            <ns3:atemp>17.0</ns3:atemp>
          </ns3:TrackPointExtension>
        </extensions>
      </trkpt>
      <trkpt lat="42.6249848864972591400146484375" lon="19.88024580292403697967529296875">
        <ele>1746.800048828125</ele>
        <time>2026-06-16T08:24:01.000Z</time>
        <extensions>
          <ns3:TrackPointExtension>
            <ns3:atemp>17.0</ns3:atemp>
          </ns3:TrackPointExtension>
        </extensions>
      </trkpt>
      <trkpt lat="42.6249848864972591400146484375" lon="19.88024580292403697967529296875">
        <ele>1746.800048828125</ele>
        <time>2026-06-16T08:24:02.000Z</time>
        <extensions>
          <ns3:TrackPointExtension>
            <ns3:atemp>17.0</ns3:atemp>
          </ns3:TrackPointExtension>
        </extensions>
      </trkpt>
      <trkpt lat="42.6249848864972591400146484375" lon="19.88024580292403697967529296875">
        <ele>1746.800048828125</ele>
        <time>2026-06-16T08:24:03.000Z</time>
        <extensions>
          <ns3:TrackPointExtension>
            <ns3:atemp>17.0</ns3:atemp>
          </ns3:TrackPointExtension>
        </extensions>
      </trkpt>
      <trkpt lat="42.6249848864972591400146484375" lon="19.88024580292403697967529296875">
        <ele>1746.800048828125</ele>
        <time>2026-06-16T08:24:04.000Z</time>
        <extensions>
          <ns3:TrackPointExtension>
            <ns3:atemp>17.0</ns3:atemp>
          </ns3:TrackPointExtension>
        </extensions>
      </trkpt>
      <trkpt lat="42.6249848864972591400146484375" lon="19.88024580292403697967529296875">
        <ele>1746.800048828125</ele>
        <time>2026-06-16T08:24:05.000Z</time>
        <extensions>
          <ns3:TrackPointExtension>
            <ns3:atemp>17.0</ns3:atemp>
          </ns3:TrackPointExtension>
        </extensions>
      </trkpt>
      <trkpt lat="42.6249848864972591400146484375" lon="19.88024580292403697967529296875">
        <ele>1746.800048828125</ele>
        <time>2026-06-16T08:24:06.000Z</time>
        <extensions>
          <ns3:TrackPointExtension>
            <ns3:atemp>17.0</ns3:atemp>
          </ns3:TrackPointExtension>
        </extensions>
      </trkpt>
      <trkpt lat="42.6249848864972591400146484375" lon="19.88024580292403697967529296875">
        <ele>1746.800048828125</ele>
        <time>2026-06-16T08:24:07.000Z</time>
        <extensions>
          <ns3:TrackPointExtension>
            <ns3:atemp>17.0</ns3:atemp>
          </ns3:TrackPointExtension>
        </extensions>
      </trkpt>
      <trkpt lat="42.6249848864972591400146484375" lon="19.88024580292403697967529296875">
        <ele>1746.800048828125</ele>
        <time>2026-06-16T08:24:08.000Z</time>
        <extensions>
          <ns3:TrackPointExtension>
            <ns3:atemp>17.0</ns3:atemp>
          </ns3:TrackPointExtension>
        </extensions>
      </trkpt>
      <trkpt lat="42.6249848864972591400146484375" lon="19.88024580292403697967529296875">
        <ele>1746.800048828125</ele>
        <time>2026-06-16T08:24:09.000Z</time>
        <extensions>
          <ns3:TrackPointExtension>
            <ns3:atemp>17.0</ns3:atemp>
          </ns3:TrackPointExtension>
        </extensions>
      </trkpt>
      <trkpt lat="42.6249848864972591400146484375" lon="19.88024580292403697967529296875">
        <ele>1746.800048828125</ele>
        <time>2026-06-16T08:24:10.000Z</time>
        <extensions>
          <ns3:TrackPointExtension>
            <ns3:atemp>17.0</ns3:atemp>
          </ns3:TrackPointExtension>
        </extensions>
      </trkpt>
      <trkpt lat="42.6249848864972591400146484375" lon="19.88024580292403697967529296875">
        <ele>1746.800048828125</ele>
        <time>2026-06-16T08:24:11.000Z</time>
        <extensions>
          <ns3:TrackPointExtension>
            <ns3:atemp>17.0</ns3:atemp>
          </ns3:TrackPointExtension>
        </extensions>
      </trkpt>
      <trkpt lat="42.6249848864972591400146484375" lon="19.88024580292403697967529296875">
        <ele>1746.800048828125</ele>
        <time>2026-06-16T08:24:12.000Z</time>
        <extensions>
          <ns3:TrackPointExtension>
            <ns3:atemp>17.0</ns3:atemp>
          </ns3:TrackPointExtension>
        </extensions>
      </trkpt>
      <trkpt lat="42.6249848864972591400146484375" lon="19.88024580292403697967529296875">
        <ele>1746.800048828125</ele>
        <time>2026-06-16T08:24:13.000Z</time>
        <extensions>
          <ns3:TrackPointExtension>
            <ns3:atemp>17.0</ns3:atemp>
          </ns3:TrackPointExtension>
        </extensions>
      </trkpt>
      <trkpt lat="42.6249848864972591400146484375" lon="19.88024580292403697967529296875">
        <ele>1746.800048828125</ele>
        <time>2026-06-16T08:24:14.000Z</time>
        <extensions>
          <ns3:TrackPointExtension>
            <ns3:atemp>17.0</ns3:atemp>
          </ns3:TrackPointExtension>
        </extensions>
      </trkpt>
      <trkpt lat="42.6249848864972591400146484375" lon="19.88024580292403697967529296875">
        <ele>1746.800048828125</ele>
        <time>2026-06-16T08:24:15.000Z</time>
        <extensions>
          <ns3:TrackPointExtension>
            <ns3:atemp>17.0</ns3:atemp>
          </ns3:TrackPointExtension>
        </extensions>
      </trkpt>
      <trkpt lat="42.6249848864972591400146484375" lon="19.88024580292403697967529296875">
        <ele>1746.800048828125</ele>
        <time>2026-06-16T08:24:16.000Z</time>
        <extensions>
          <ns3:TrackPointExtension>
            <ns3:atemp>17.0</ns3:atemp>
          </ns3:TrackPointExtension>
        </extensions>
      </trkpt>
      <trkpt lat="42.6249848864972591400146484375" lon="19.88024580292403697967529296875">
        <ele>1746.800048828125</ele>
        <time>2026-06-16T08:24:17.000Z</time>
        <extensions>
          <ns3:TrackPointExtension>
            <ns3:atemp>17.0</ns3:atemp>
          </ns3:TrackPointExtension>
        </extensions>
      </trkpt>
      <trkpt lat="42.6249848864972591400146484375" lon="19.88024580292403697967529296875">
        <ele>1746.800048828125</ele>
        <time>2026-06-16T08:24:18.000Z</time>
        <extensions>
          <ns3:TrackPointExtension>
            <ns3:atemp>17.0</ns3:atemp>
          </ns3:TrackPointExtension>
        </extensions>
      </trkpt>
      <trkpt lat="42.6249848864972591400146484375" lon="19.88024580292403697967529296875">
        <ele>1746.800048828125</ele>
        <time>2026-06-16T08:24:19.000Z</time>
        <extensions>
          <ns3:TrackPointExtension>
            <ns3:atemp>17.0</ns3:atemp>
          </ns3:TrackPointExtension>
        </extensions>
      </trkpt>
      <trkpt lat="42.6249848864972591400146484375" lon="19.88024580292403697967529296875">
        <ele>1746.800048828125</ele>
        <time>2026-06-16T08:24:20.000Z</time>
        <extensions>
          <ns3:TrackPointExtension>
            <ns3:atemp>17.0</ns3:atemp>
          </ns3:TrackPointExtension>
        </extensions>
      </trkpt>
      <trkpt lat="42.6249848864972591400146484375" lon="19.88024580292403697967529296875">
        <ele>1746.800048828125</ele>
        <time>2026-06-16T08:24:21.000Z</time>
        <extensions>
          <ns3:TrackPointExtension>
            <ns3:atemp>17.0</ns3:atemp>
          </ns3:TrackPointExtension>
        </extensions>
      </trkpt>
      <trkpt lat="42.6249848864972591400146484375" lon="19.88024580292403697967529296875">
        <ele>1746.800048828125</ele>
        <time>2026-06-16T08:24:22.000Z</time>
        <extensions>
          <ns3:TrackPointExtension>
            <ns3:atemp>17.0</ns3:atemp>
          </ns3:TrackPointExtension>
        </extensions>
      </trkpt>
      <trkpt lat="42.6249848864972591400146484375" lon="19.88024580292403697967529296875">
        <ele>1746.800048828125</ele>
        <time>2026-06-16T08:24:23.000Z</time>
        <extensions>
          <ns3:TrackPointExtension>
            <ns3:atemp>17.0</ns3:atemp>
          </ns3:TrackPointExtension>
        </extensions>
      </trkpt>
      <trkpt lat="42.6249848864972591400146484375" lon="19.88024580292403697967529296875">
        <ele>1746.800048828125</ele>
        <time>2026-06-16T08:24:24.000Z</time>
        <extensions>
          <ns3:TrackPointExtension>
            <ns3:atemp>17.0</ns3:atemp>
          </ns3:TrackPointExtension>
        </extensions>
      </trkpt>
      <trkpt lat="42.6249848864972591400146484375" lon="19.88024580292403697967529296875">
        <ele>1746.800048828125</ele>
        <time>2026-06-16T08:24:25.000Z</time>
        <extensions>
          <ns3:TrackPointExtension>
            <ns3:atemp>17.0</ns3:atemp>
          </ns3:TrackPointExtension>
        </extensions>
      </trkpt>
      <trkpt lat="42.6249848864972591400146484375" lon="19.88024580292403697967529296875">
        <ele>1746.800048828125</ele>
        <time>2026-06-16T08:24:26.000Z</time>
        <extensions>
          <ns3:TrackPointExtension>
            <ns3:atemp>17.0</ns3:atemp>
          </ns3:TrackPointExtension>
        </extensions>
      </trkpt>
      <trkpt lat="42.6249848864972591400146484375" lon="19.88024580292403697967529296875">
        <ele>1746.800048828125</ele>
        <time>2026-06-16T08:24:27.000Z</time>
        <extensions>
          <ns3:TrackPointExtension>
            <ns3:atemp>17.0</ns3:atemp>
          </ns3:TrackPointExtension>
        </extensions>
      </trkpt>
      <trkpt lat="42.6249848864972591400146484375" lon="19.88024580292403697967529296875">
        <ele>1746.800048828125</ele>
        <time>2026-06-16T08:24:28.000Z</time>
        <extensions>
          <ns3:TrackPointExtension>
            <ns3:atemp>17.0</ns3:atemp>
          </ns3:TrackPointExtension>
        </extensions>
      </trkpt>
      <trkpt lat="42.6249848864972591400146484375" lon="19.88024580292403697967529296875">
        <ele>1746.800048828125</ele>
        <time>2026-06-16T08:24:29.000Z</time>
        <extensions>
          <ns3:TrackPointExtension>
            <ns3:atemp>17.0</ns3:atemp>
          </ns3:TrackPointExtension>
        </extensions>
      </trkpt>
      <trkpt lat="42.6249848864972591400146484375" lon="19.88024580292403697967529296875">
        <ele>1746.800048828125</ele>
        <time>2026-06-16T08:24:30.000Z</time>
        <extensions>
          <ns3:TrackPointExtension>
            <ns3:atemp>17.0</ns3:atemp>
          </ns3:TrackPointExtension>
        </extensions>
      </trkpt>
      <trkpt lat="42.6249848864972591400146484375" lon="19.88024580292403697967529296875">
        <ele>1746.800048828125</ele>
        <time>2026-06-16T08:24:31.000Z</time>
        <extensions>
          <ns3:TrackPointExtension>
            <ns3:atemp>17.0</ns3:atemp>
          </ns3:TrackPointExtension>
        </extensions>
      </trkpt>
      <trkpt lat="42.6249848864972591400146484375" lon="19.88024580292403697967529296875">
        <ele>1746.800048828125</ele>
        <time>2026-06-16T08:24:32.000Z</time>
        <extensions>
          <ns3:TrackPointExtension>
            <ns3:atemp>17.0</ns3:atemp>
          </ns3:TrackPointExtension>
        </extensions>
      </trkpt>
      <trkpt lat="42.6249848864972591400146484375" lon="19.88024580292403697967529296875">
        <ele>1746.800048828125</ele>
        <time>2026-06-16T08:24:33.000Z</time>
        <extensions>
          <ns3:TrackPointExtension>
            <ns3:atemp>17.0</ns3:atemp>
          </ns3:TrackPointExtension>
        </extensions>
      </trkpt>
      <trkpt lat="42.6249848864972591400146484375" lon="19.88024580292403697967529296875">
        <ele>1746.800048828125</ele>
        <time>2026-06-16T08:24:34.000Z</time>
        <extensions>
          <ns3:TrackPointExtension>
            <ns3:atemp>17.0</ns3:atemp>
          </ns3:TrackPointExtension>
        </extensions>
      </trkpt>
      <trkpt lat="42.6249848864972591400146484375" lon="19.88024580292403697967529296875">
        <ele>1746.800048828125</ele>
        <time>2026-06-16T08:24:35.000Z</time>
        <extensions>
          <ns3:TrackPointExtension>
            <ns3:atemp>17.0</ns3:atemp>
          </ns3:TrackPointExtension>
        </extensions>
      </trkpt>
      <trkpt lat="42.6249848864972591400146484375" lon="19.88024580292403697967529296875">
        <ele>1746.800048828125</ele>
        <time>2026-06-16T08:24:36.000Z</time>
        <extensions>
          <ns3:TrackPointExtension>
            <ns3:atemp>17.0</ns3:atemp>
          </ns3:TrackPointExtension>
        </extensions>
      </trkpt>
      <trkpt lat="42.6249848864972591400146484375" lon="19.88024580292403697967529296875">
        <ele>1746.800048828125</ele>
        <time>2026-06-16T08:24:37.000Z</time>
        <extensions>
          <ns3:TrackPointExtension>
            <ns3:atemp>17.0</ns3:atemp>
          </ns3:TrackPointExtension>
        </extensions>
      </trkpt>
      <trkpt lat="42.6249848864972591400146484375" lon="19.88024580292403697967529296875">
        <ele>1746.800048828125</ele>
        <time>2026-06-16T08:24:38.000Z</time>
        <extensions>
          <ns3:TrackPointExtension>
            <ns3:atemp>17.0</ns3:atemp>
          </ns3:TrackPointExtension>
        </extensions>
      </trkpt>
      <trkpt lat="42.6249848864972591400146484375" lon="19.88024580292403697967529296875">
        <ele>1746.800048828125</ele>
        <time>2026-06-16T08:24:39.000Z</time>
        <extensions>
          <ns3:TrackPointExtension>
            <ns3:atemp>17.0</ns3:atemp>
          </ns3:TrackPointExtension>
        </extensions>
      </trkpt>
      <trkpt lat="42.6249848864972591400146484375" lon="19.88024580292403697967529296875">
        <ele>1746.800048828125</ele>
        <time>2026-06-16T08:24:40.000Z</time>
        <extensions>
          <ns3:TrackPointExtension>
            <ns3:atemp>17.0</ns3:atemp>
          </ns3:TrackPointExtension>
        </extensions>
      </trkpt>
      <trkpt lat="42.6249848864972591400146484375" lon="19.88024580292403697967529296875">
        <ele>1746.800048828125</ele>
        <time>2026-06-16T08:24:41.000Z</time>
        <extensions>
          <ns3:TrackPointExtension>
            <ns3:atemp>17.0</ns3:atemp>
          </ns3:TrackPointExtension>
        </extensions>
      </trkpt>
      <trkpt lat="42.6249848864972591400146484375" lon="19.88024580292403697967529296875">
        <ele>1746.800048828125</ele>
        <time>2026-06-16T08:24:42.000Z</time>
        <extensions>
          <ns3:TrackPointExtension>
            <ns3:atemp>17.0</ns3:atemp>
          </ns3:TrackPointExtension>
        </extensions>
      </trkpt>
      <trkpt lat="42.6249848864972591400146484375" lon="19.88024580292403697967529296875">
        <ele>1746.800048828125</ele>
        <time>2026-06-16T08:24:43.000Z</time>
        <extensions>
          <ns3:TrackPointExtension>
            <ns3:atemp>17.0</ns3:atemp>
          </ns3:TrackPointExtension>
        </extensions>
      </trkpt>
      <trkpt lat="42.6249848864972591400146484375" lon="19.88024580292403697967529296875">
        <ele>1746.800048828125</ele>
        <time>2026-06-16T08:24:44.000Z</time>
        <extensions>
          <ns3:TrackPointExtension>
            <ns3:atemp>17.0</ns3:atemp>
          </ns3:TrackPointExtension>
        </extensions>
      </trkpt>
      <trkpt lat="42.6249848864972591400146484375" lon="19.88024580292403697967529296875">
        <ele>1746.800048828125</ele>
        <time>2026-06-16T08:24:45.000Z</time>
        <extensions>
          <ns3:TrackPointExtension>
            <ns3:atemp>17.0</ns3:atemp>
          </ns3:TrackPointExtension>
        </extensions>
      </trkpt>
      <trkpt lat="42.6249848864972591400146484375" lon="19.88024580292403697967529296875">
        <ele>1746.800048828125</ele>
        <time>2026-06-16T08:24:46.000Z</time>
        <extensions>
          <ns3:TrackPointExtension>
            <ns3:atemp>17.0</ns3:atemp>
          </ns3:TrackPointExtension>
        </extensions>
      </trkpt>
      <trkpt lat="42.6249848864972591400146484375" lon="19.88024580292403697967529296875">
        <ele>1746.800048828125</ele>
        <time>2026-06-16T08:24:47.000Z</time>
        <extensions>
          <ns3:TrackPointExtension>
            <ns3:atemp>17.0</ns3:atemp>
          </ns3:TrackPointExtension>
        </extensions>
      </trkpt>
      <trkpt lat="42.6249848864972591400146484375" lon="19.88024580292403697967529296875">
        <ele>1746.800048828125</ele>
        <time>2026-06-16T08:24:48.000Z</time>
        <extensions>
          <ns3:TrackPointExtension>
            <ns3:atemp>17.0</ns3:atemp>
          </ns3:TrackPointExtension>
        </extensions>
      </trkpt>
      <trkpt lat="42.6249848864972591400146484375" lon="19.88024580292403697967529296875">
        <ele>1746.800048828125</ele>
        <time>2026-06-16T08:24:49.000Z</time>
        <extensions>
          <ns3:TrackPointExtension>
            <ns3:atemp>17.0</ns3:atemp>
          </ns3:TrackPointExtension>
        </extensions>
      </trkpt>
      <trkpt lat="42.6249848864972591400146484375" lon="19.88024580292403697967529296875">
        <ele>1746.800048828125</ele>
        <time>2026-06-16T08:24:50.000Z</time>
        <extensions>
          <ns3:TrackPointExtension>
            <ns3:atemp>17.0</ns3:atemp>
          </ns3:TrackPointExtension>
        </extensions>
      </trkpt>
      <trkpt lat="42.6249848864972591400146484375" lon="19.88024580292403697967529296875">
        <ele>1746.800048828125</ele>
        <time>2026-06-16T08:24:51.000Z</time>
        <extensions>
          <ns3:TrackPointExtension>
            <ns3:atemp>17.0</ns3:atemp>
          </ns3:TrackPointExtension>
        </extensions>
      </trkpt>
      <trkpt lat="42.6249848864972591400146484375" lon="19.88024580292403697967529296875">
        <ele>1746.800048828125</ele>
        <time>2026-06-16T08:24:52.000Z</time>
        <extensions>
          <ns3:TrackPointExtension>
            <ns3:atemp>17.0</ns3:atemp>
          </ns3:TrackPointExtension>
        </extensions>
      </trkpt>
      <trkpt lat="42.6249848864972591400146484375" lon="19.88024580292403697967529296875">
        <ele>1746.800048828125</ele>
        <time>2026-06-16T08:24:53.000Z</time>
        <extensions>
          <ns3:TrackPointExtension>
            <ns3:atemp>17.0</ns3:atemp>
          </ns3:TrackPointExtension>
        </extensions>
      </trkpt>
      <trkpt lat="42.6249848864972591400146484375" lon="19.88024580292403697967529296875">
        <ele>1746.800048828125</ele>
        <time>2026-06-16T08:24:54.000Z</time>
        <extensions>
          <ns3:TrackPointExtension>
            <ns3:atemp>17.0</ns3:atemp>
          </ns3:TrackPointExtension>
        </extensions>
      </trkpt>
      <trkpt lat="42.6249848864972591400146484375" lon="19.88024580292403697967529296875">
        <ele>1746.800048828125</ele>
        <time>2026-06-16T08:24:55.000Z</time>
        <extensions>
          <ns3:TrackPointExtension>
            <ns3:atemp>17.0</ns3:atemp>
          </ns3:TrackPointExtension>
        </extensions>
      </trkpt>
      <trkpt lat="42.6249848864972591400146484375" lon="19.88024580292403697967529296875">
        <ele>1746.800048828125</ele>
        <time>2026-06-16T08:24:56.000Z</time>
        <extensions>
          <ns3:TrackPointExtension>
            <ns3:atemp>17.0</ns3:atemp>
          </ns3:TrackPointExtension>
        </extensions>
      </trkpt>
      <trkpt lat="42.6249848864972591400146484375" lon="19.88024580292403697967529296875">
        <ele>1746.800048828125</ele>
        <time>2026-06-16T08:24:57.000Z</time>
        <extensions>
          <ns3:TrackPointExtension>
            <ns3:atemp>17.0</ns3:atemp>
          </ns3:TrackPointExtension>
        </extensions>
      </trkpt>
      <trkpt lat="42.6249848864972591400146484375" lon="19.88024580292403697967529296875">
        <ele>1746.800048828125</ele>
        <time>2026-06-16T08:24:58.000Z</time>
        <extensions>
          <ns3:TrackPointExtension>
            <ns3:atemp>17.0</ns3:atemp>
          </ns3:TrackPointExtension>
        </extensions>
      </trkpt>
      <trkpt lat="42.6249848864972591400146484375" lon="19.88024580292403697967529296875">
        <ele>1746.800048828125</ele>
        <time>2026-06-16T08:24:59.000Z</time>
        <extensions>
          <ns3:TrackPointExtension>
            <ns3:atemp>17.0</ns3:atemp>
          </ns3:TrackPointExtension>
        </extensions>
      </trkpt>
      <trkpt lat="42.6249848864972591400146484375" lon="19.88024580292403697967529296875">
        <ele>1746.800048828125</ele>
        <time>2026-06-16T08:25:00.000Z</time>
        <extensions>
          <ns3:TrackPointExtension>
            <ns3:atemp>17.0</ns3:atemp>
          </ns3:TrackPointExtension>
        </extensions>
      </trkpt>
      <trkpt lat="42.6249848864972591400146484375" lon="19.88024580292403697967529296875">
        <ele>1746.800048828125</ele>
        <time>2026-06-16T08:25:01.000Z</time>
        <extensions>
          <ns3:TrackPointExtension>
            <ns3:atemp>17.0</ns3:atemp>
          </ns3:TrackPointExtension>
        </extensions>
      </trkpt>
      <trkpt lat="42.6249848864972591400146484375" lon="19.88024580292403697967529296875">
        <ele>1746.800048828125</ele>
        <time>2026-06-16T08:25:02.000Z</time>
        <extensions>
          <ns3:TrackPointExtension>
            <ns3:atemp>17.0</ns3:atemp>
          </ns3:TrackPointExtension>
        </extensions>
      </trkpt>
      <trkpt lat="42.6249848864972591400146484375" lon="19.88024580292403697967529296875">
        <ele>1746.800048828125</ele>
        <time>2026-06-16T08:25:03.000Z</time>
        <extensions>
          <ns3:TrackPointExtension>
            <ns3:atemp>17.0</ns3:atemp>
          </ns3:TrackPointExtension>
        </extensions>
      </trkpt>
      <trkpt lat="42.6249848864972591400146484375" lon="19.88024580292403697967529296875">
        <ele>1746.800048828125</ele>
        <time>2026-06-16T08:25:04.000Z</time>
        <extensions>
          <ns3:TrackPointExtension>
            <ns3:atemp>17.0</ns3:atemp>
          </ns3:TrackPointExtension>
        </extensions>
      </trkpt>
      <trkpt lat="42.6249848864972591400146484375" lon="19.88024580292403697967529296875">
        <ele>1746.800048828125</ele>
        <time>2026-06-16T08:25:05.000Z</time>
        <extensions>
          <ns3:TrackPointExtension>
            <ns3:atemp>17.0</ns3:atemp>
          </ns3:TrackPointExtension>
        </extensions>
      </trkpt>
      <trkpt lat="42.6249848864972591400146484375" lon="19.88024580292403697967529296875">
        <ele>1746.800048828125</ele>
        <time>2026-06-16T08:25:06.000Z</time>
        <extensions>
          <ns3:TrackPointExtension>
            <ns3:atemp>17.0</ns3:atemp>
          </ns3:TrackPointExtension>
        </extensions>
      </trkpt>
      <trkpt lat="42.6249848864972591400146484375" lon="19.88024580292403697967529296875">
        <ele>1746.800048828125</ele>
        <time>2026-06-16T08:25:07.000Z</time>
        <extensions>
          <ns3:TrackPointExtension>
            <ns3:atemp>17.0</ns3:atemp>
          </ns3:TrackPointExtension>
        </extensions>
      </trkpt>
      <trkpt lat="42.6249848864972591400146484375" lon="19.88024580292403697967529296875">
        <ele>1746.800048828125</ele>
        <time>2026-06-16T08:25:08.000Z</time>
        <extensions>
          <ns3:TrackPointExtension>
            <ns3:atemp>17.0</ns3:atemp>
          </ns3:TrackPointExtension>
        </extensions>
      </trkpt>
      <trkpt lat="42.6249848864972591400146484375" lon="19.88024580292403697967529296875">
        <ele>1746.800048828125</ele>
        <time>2026-06-16T08:25:09.000Z</time>
        <extensions>
          <ns3:TrackPointExtension>
            <ns3:atemp>17.0</ns3:atemp>
          </ns3:TrackPointExtension>
        </extensions>
      </trkpt>
      <trkpt lat="42.6249848864972591400146484375" lon="19.88024580292403697967529296875">
        <ele>1746.800048828125</ele>
        <time>2026-06-16T08:25:10.000Z</time>
        <extensions>
          <ns3:TrackPointExtension>
            <ns3:atemp>17.0</ns3:atemp>
          </ns3:TrackPointExtension>
        </extensions>
      </trkpt>
      <trkpt lat="42.6249848864972591400146484375" lon="19.88024580292403697967529296875">
        <ele>1746.800048828125</ele>
        <time>2026-06-16T08:25:11.000Z</time>
        <extensions>
          <ns3:TrackPointExtension>
            <ns3:atemp>17.0</ns3:atemp>
          </ns3:TrackPointExtension>
        </extensions>
      </trkpt>
      <trkpt lat="42.6249848864972591400146484375" lon="19.88024580292403697967529296875">
        <ele>1746.800048828125</ele>
        <time>2026-06-16T08:25:12.000Z</time>
        <extensions>
          <ns3:TrackPointExtension>
            <ns3:atemp>17.0</ns3:atemp>
          </ns3:TrackPointExtension>
        </extensions>
      </trkpt>
      <trkpt lat="42.6249848864972591400146484375" lon="19.88024580292403697967529296875">
        <ele>1746.800048828125</ele>
        <time>2026-06-16T08:25:13.000Z</time>
        <extensions>
          <ns3:TrackPointExtension>
            <ns3:atemp>17.0</ns3:atemp>
          </ns3:TrackPointExtension>
        </extensions>
      </trkpt>
      <trkpt lat="42.6249848864972591400146484375" lon="19.88024580292403697967529296875">
        <ele>1746.800048828125</ele>
        <time>2026-06-16T08:25:14.000Z</time>
        <extensions>
          <ns3:TrackPointExtension>
            <ns3:atemp>17.0</ns3:atemp>
          </ns3:TrackPointExtension>
        </extensions>
      </trkpt>
      <trkpt lat="42.6249848864972591400146484375" lon="19.88024580292403697967529296875">
        <ele>1746.800048828125</ele>
        <time>2026-06-16T08:25:15.000Z</time>
        <extensions>
          <ns3:TrackPointExtension>
            <ns3:atemp>17.0</ns3:atemp>
          </ns3:TrackPointExtension>
        </extensions>
      </trkpt>
      <trkpt lat="42.6249848864972591400146484375" lon="19.88024580292403697967529296875">
        <ele>1746.800048828125</ele>
        <time>2026-06-16T08:25:16.000Z</time>
        <extensions>
          <ns3:TrackPointExtension>
            <ns3:atemp>17.0</ns3:atemp>
          </ns3:TrackPointExtension>
        </extensions>
      </trkpt>
      <trkpt lat="42.6249848864972591400146484375" lon="19.88024580292403697967529296875">
        <ele>1746.800048828125</ele>
        <time>2026-06-16T08:25:17.000Z</time>
        <extensions>
          <ns3:TrackPointExtension>
            <ns3:atemp>17.0</ns3:atemp>
          </ns3:TrackPointExtension>
        </extensions>
      </trkpt>
      <trkpt lat="42.6249848864972591400146484375" lon="19.88024580292403697967529296875">
        <ele>1746.800048828125</ele>
        <time>2026-06-16T08:25:18.000Z</time>
        <extensions>
          <ns3:TrackPointExtension>
            <ns3:atemp>17.0</ns3:atemp>
          </ns3:TrackPointExtension>
        </extensions>
      </trkpt>
      <trkpt lat="42.6249848864972591400146484375" lon="19.88024580292403697967529296875">
        <ele>1746.800048828125</ele>
        <time>2026-06-16T08:25:19.000Z</time>
        <extensions>
          <ns3:TrackPointExtension>
            <ns3:atemp>17.0</ns3:atemp>
          </ns3:TrackPointExtension>
        </extensions>
      </trkpt>
      <trkpt lat="42.6249848864972591400146484375" lon="19.88024580292403697967529296875">
        <ele>1746.800048828125</ele>
        <time>2026-06-16T08:25:20.000Z</time>
        <extensions>
          <ns3:TrackPointExtension>
            <ns3:atemp>17.0</ns3:atemp>
          </ns3:TrackPointExtension>
        </extensions>
      </trkpt>
      <trkpt lat="42.6249848864972591400146484375" lon="19.88024580292403697967529296875">
        <ele>1746.800048828125</ele>
        <time>2026-06-16T08:25:21.000Z</time>
        <extensions>
          <ns3:TrackPointExtension>
            <ns3:atemp>17.0</ns3:atemp>
          </ns3:TrackPointExtension>
        </extensions>
      </trkpt>
      <trkpt lat="42.6249848864972591400146484375" lon="19.88024580292403697967529296875">
        <ele>1746.800048828125</ele>
        <time>2026-06-16T08:25:22.000Z</time>
        <extensions>
          <ns3:TrackPointExtension>
            <ns3:atemp>17.0</ns3:atemp>
          </ns3:TrackPointExtension>
        </extensions>
      </trkpt>
      <trkpt lat="42.6249848864972591400146484375" lon="19.88024580292403697967529296875">
        <ele>1746.800048828125</ele>
        <time>2026-06-16T08:25:23.000Z</time>
        <extensions>
          <ns3:TrackPointExtension>
            <ns3:atemp>17.0</ns3:atemp>
          </ns3:TrackPointExtension>
        </extensions>
      </trkpt>
      <trkpt lat="42.6249848864972591400146484375" lon="19.88024580292403697967529296875">
        <ele>1746.800048828125</ele>
        <time>2026-06-16T08:25:24.000Z</time>
        <extensions>
          <ns3:TrackPointExtension>
            <ns3:atemp>17.0</ns3:atemp>
          </ns3:TrackPointExtension>
        </extensions>
      </trkpt>
      <trkpt lat="42.6249848864972591400146484375" lon="19.88024580292403697967529296875">
        <ele>1746.800048828125</ele>
        <time>2026-06-16T08:25:25.000Z</time>
        <extensions>
          <ns3:TrackPointExtension>
            <ns3:atemp>17.0</ns3:atemp>
          </ns3:TrackPointExtension>
        </extensions>
      </trkpt>
      <trkpt lat="42.6249848864972591400146484375" lon="19.88024580292403697967529296875">
        <ele>1746.800048828125</ele>
        <time>2026-06-16T08:25:26.000Z</time>
        <extensions>
          <ns3:TrackPointExtension>
            <ns3:atemp>17.0</ns3:atemp>
          </ns3:TrackPointExtension>
        </extensions>
      </trkpt>
      <trkpt lat="42.6249848864972591400146484375" lon="19.88024580292403697967529296875">
        <ele>1746.800048828125</ele>
        <time>2026-06-16T08:25:27.000Z</time>
        <extensions>
          <ns3:TrackPointExtension>
            <ns3:atemp>17.0</ns3:atemp>
          </ns3:TrackPointExtension>
        </extensions>
      </trkpt>
      <trkpt lat="42.6249848864972591400146484375" lon="19.88024580292403697967529296875">
        <ele>1746.800048828125</ele>
        <time>2026-06-16T08:25:28.000Z</time>
        <extensions>
          <ns3:TrackPointExtension>
            <ns3:atemp>17.0</ns3:atemp>
          </ns3:TrackPointExtension>
        </extensions>
      </trkpt>
      <trkpt lat="42.6249848864972591400146484375" lon="19.88024580292403697967529296875">
        <ele>1746.800048828125</ele>
        <time>2026-06-16T08:25:29.000Z</time>
        <extensions>
          <ns3:TrackPointExtension>
            <ns3:atemp>17.0</ns3:atemp>
          </ns3:TrackPointExtension>
        </extensions>
      </trkpt>
      <trkpt lat="42.6249848864972591400146484375" lon="19.88024580292403697967529296875">
        <ele>1746.800048828125</ele>
        <time>2026-06-16T08:25:30.000Z</time>
        <extensions>
          <ns3:TrackPointExtension>
            <ns3:atemp>17.0</ns3:atemp>
          </ns3:TrackPointExtension>
        </extensions>
      </trkpt>
      <trkpt lat="42.6249848864972591400146484375" lon="19.88024580292403697967529296875">
        <ele>1746.800048828125</ele>
        <time>2026-06-16T08:25:31.000Z</time>
        <extensions>
          <ns3:TrackPointExtension>
            <ns3:atemp>17.0</ns3:atemp>
          </ns3:TrackPointExtension>
        </extensions>
      </trkpt>
      <trkpt lat="42.6249848864972591400146484375" lon="19.88024580292403697967529296875">
        <ele>1746.800048828125</ele>
        <time>2026-06-16T08:25:32.000Z</time>
        <extensions>
          <ns3:TrackPointExtension>
            <ns3:atemp>17.0</ns3:atemp>
          </ns3:TrackPointExtension>
        </extensions>
      </trkpt>
      <trkpt lat="42.6249848864972591400146484375" lon="19.88024580292403697967529296875">
        <ele>1746.800048828125</ele>
        <time>2026-06-16T08:25:33.000Z</time>
        <extensions>
          <ns3:TrackPointExtension>
            <ns3:atemp>17.0</ns3:atemp>
          </ns3:TrackPointExtension>
        </extensions>
      </trkpt>
      <trkpt lat="42.6249848864972591400146484375" lon="19.88024580292403697967529296875">
        <ele>1746.800048828125</ele>
        <time>2026-06-16T08:25:34.000Z</time>
        <extensions>
          <ns3:TrackPointExtension>
            <ns3:atemp>17.0</ns3:atemp>
          </ns3:TrackPointExtension>
        </extensions>
      </trkpt>
      <trkpt lat="42.6249848864972591400146484375" lon="19.88024580292403697967529296875">
        <ele>1746.800048828125</ele>
        <time>2026-06-16T08:25:35.000Z</time>
        <extensions>
          <ns3:TrackPointExtension>
            <ns3:atemp>17.0</ns3:atemp>
          </ns3:TrackPointExtension>
        </extensions>
      </trkpt>
      <trkpt lat="42.6249848864972591400146484375" lon="19.88024580292403697967529296875">
        <ele>1746.800048828125</ele>
        <time>2026-06-16T08:25:36.000Z</time>
        <extensions>
          <ns3:TrackPointExtension>
            <ns3:atemp>17.0</ns3:atemp>
          </ns3:TrackPointExtension>
        </extensions>
      </trkpt>
      <trkpt lat="42.6249848864972591400146484375" lon="19.88024580292403697967529296875">
        <ele>1746.800048828125</ele>
        <time>2026-06-16T08:25:37.000Z</time>
        <extensions>
          <ns3:TrackPointExtension>
            <ns3:atemp>17.0</ns3:atemp>
          </ns3:TrackPointExtension>
        </extensions>
      </trkpt>
      <trkpt lat="42.6249848864972591400146484375" lon="19.88024580292403697967529296875">
        <ele>1746.800048828125</ele>
        <time>2026-06-16T08:25:38.000Z</time>
        <extensions>
          <ns3:TrackPointExtension>
            <ns3:atemp>17.0</ns3:atemp>
          </ns3:TrackPointExtension>
        </extensions>
      </trkpt>
      <trkpt lat="42.6249848864972591400146484375" lon="19.88024580292403697967529296875">
        <ele>1746.800048828125</ele>
        <time>2026-06-16T08:25:39.000Z</time>
        <extensions>
          <ns3:TrackPointExtension>
            <ns3:atemp>17.0</ns3:atemp>
          </ns3:TrackPointExtension>
        </extensions>
      </trkpt>
      <trkpt lat="42.6249848864972591400146484375" lon="19.88024580292403697967529296875">
        <ele>1746.800048828125</ele>
        <time>2026-06-16T08:25:40.000Z</time>
        <extensions>
          <ns3:TrackPointExtension>
            <ns3:atemp>17.0</ns3:atemp>
          </ns3:TrackPointExtension>
        </extensions>
      </trkpt>
      <trkpt lat="42.6249848864972591400146484375" lon="19.88024580292403697967529296875">
        <ele>1746.800048828125</ele>
        <time>2026-06-16T08:25:41.000Z</time>
        <extensions>
          <ns3:TrackPointExtension>
            <ns3:atemp>17.0</ns3:atemp>
          </ns3:TrackPointExtension>
        </extensions>
      </trkpt>
      <trkpt lat="42.6249848864972591400146484375" lon="19.88024580292403697967529296875">
        <ele>1746.800048828125</ele>
        <time>2026-06-16T08:25:42.000Z</time>
        <extensions>
          <ns3:TrackPointExtension>
            <ns3:atemp>17.0</ns3:atemp>
          </ns3:TrackPointExtension>
        </extensions>
      </trkpt>
      <trkpt lat="42.6249848864972591400146484375" lon="19.88024580292403697967529296875">
        <ele>1746.800048828125</ele>
        <time>2026-06-16T08:25:43.000Z</time>
        <extensions>
          <ns3:TrackPointExtension>
            <ns3:atemp>17.0</ns3:atemp>
          </ns3:TrackPointExtension>
        </extensions>
      </trkpt>
      <trkpt lat="42.6249848864972591400146484375" lon="19.88024580292403697967529296875">
        <ele>1746.800048828125</ele>
        <time>2026-06-16T08:25:44.000Z</time>
        <extensions>
          <ns3:TrackPointExtension>
            <ns3:atemp>17.0</ns3:atemp>
          </ns3:TrackPointExtension>
        </extensions>
      </trkpt>
      <trkpt lat="42.6249848864972591400146484375" lon="19.88024580292403697967529296875">
        <ele>1746.800048828125</ele>
        <time>2026-06-16T08:25:45.000Z</time>
        <extensions>
          <ns3:TrackPointExtension>
            <ns3:atemp>17.0</ns3:atemp>
          </ns3:TrackPointExtension>
        </extensions>
      </trkpt>
      <trkpt lat="42.6249848864972591400146484375" lon="19.88024580292403697967529296875">
        <ele>1746.800048828125</ele>
        <time>2026-06-16T08:25:46.000Z</time>
        <extensions>
          <ns3:TrackPointExtension>
            <ns3:atemp>17.0</ns3:atemp>
          </ns3:TrackPointExtension>
        </extensions>
      </trkpt>
      <trkpt lat="42.6249848864972591400146484375" lon="19.88024580292403697967529296875">
        <ele>1746.800048828125</ele>
        <time>2026-06-16T08:25:47.000Z</time>
        <extensions>
          <ns3:TrackPointExtension>
            <ns3:atemp>17.0</ns3:atemp>
          </ns3:TrackPointExtension>
        </extensions>
      </trkpt>
      <trkpt lat="42.6249848864972591400146484375" lon="19.88024580292403697967529296875">
        <ele>1746.800048828125</ele>
        <time>2026-06-16T08:25:48.000Z</time>
        <extensions>
          <ns3:TrackPointExtension>
            <ns3:atemp>17.0</ns3:atemp>
          </ns3:TrackPointExtension>
        </extensions>
      </trkpt>
      <trkpt lat="42.6249848864972591400146484375" lon="19.88024580292403697967529296875">
        <ele>1746.800048828125</ele>
        <time>2026-06-16T08:25:49.000Z</time>
        <extensions>
          <ns3:TrackPointExtension>
            <ns3:atemp>17.0</ns3:atemp>
          </ns3:TrackPointExtension>
        </extensions>
      </trkpt>
      <trkpt lat="42.6249848864972591400146484375" lon="19.88024580292403697967529296875">
        <ele>1746.800048828125</ele>
        <time>2026-06-16T08:25:50.000Z</time>
        <extensions>
          <ns3:TrackPointExtension>
            <ns3:atemp>17.0</ns3:atemp>
          </ns3:TrackPointExtension>
        </extensions>
      </trkpt>
      <trkpt lat="42.6249848864972591400146484375" lon="19.88024580292403697967529296875">
        <ele>1746.800048828125</ele>
        <time>2026-06-16T08:25:51.000Z</time>
        <extensions>
          <ns3:TrackPointExtension>
            <ns3:atemp>17.0</ns3:atemp>
          </ns3:TrackPointExtension>
        </extensions>
      </trkpt>
      <trkpt lat="42.6249848864972591400146484375" lon="19.88024580292403697967529296875">
        <ele>1746.800048828125</ele>
        <time>2026-06-16T08:25:52.000Z</time>
        <extensions>
          <ns3:TrackPointExtension>
            <ns3:atemp>17.0</ns3:atemp>
          </ns3:TrackPointExtension>
        </extensions>
      </trkpt>
      <trkpt lat="42.6249848864972591400146484375" lon="19.88024580292403697967529296875">
        <ele>1746.800048828125</ele>
        <time>2026-06-16T08:25:53.000Z</time>
        <extensions>
          <ns3:TrackPointExtension>
            <ns3:atemp>17.0</ns3:atemp>
          </ns3:TrackPointExtension>
        </extensions>
      </trkpt>
      <trkpt lat="42.6249848864972591400146484375" lon="19.88024580292403697967529296875">
        <ele>1746.800048828125</ele>
        <time>2026-06-16T08:25:54.000Z</time>
        <extensions>
          <ns3:TrackPointExtension>
            <ns3:atemp>17.0</ns3:atemp>
          </ns3:TrackPointExtension>
        </extensions>
      </trkpt>
      <trkpt lat="42.6249848864972591400146484375" lon="19.88024580292403697967529296875">
        <ele>1746.800048828125</ele>
        <time>2026-06-16T08:25:55.000Z</time>
        <extensions>
          <ns3:TrackPointExtension>
            <ns3:atemp>17.0</ns3:atemp>
          </ns3:TrackPointExtension>
        </extensions>
      </trkpt>
      <trkpt lat="42.6249848864972591400146484375" lon="19.88024580292403697967529296875">
        <ele>1746.800048828125</ele>
        <time>2026-06-16T08:25:56.000Z</time>
        <extensions>
          <ns3:TrackPointExtension>
            <ns3:atemp>17.0</ns3:atemp>
          </ns3:TrackPointExtension>
        </extensions>
      </trkpt>
      <trkpt lat="42.6249848864972591400146484375" lon="19.88024580292403697967529296875">
        <ele>1746.800048828125</ele>
        <time>2026-06-16T08:25:57.000Z</time>
        <extensions>
          <ns3:TrackPointExtension>
            <ns3:atemp>17.0</ns3:atemp>
          </ns3:TrackPointExtension>
        </extensions>
      </trkpt>
      <trkpt lat="42.6249848864972591400146484375" lon="19.88024580292403697967529296875">
        <ele>1746.800048828125</ele>
        <time>2026-06-16T08:25:58.000Z</time>
        <extensions>
          <ns3:TrackPointExtension>
            <ns3:atemp>17.0</ns3:atemp>
          </ns3:TrackPointExtension>
        </extensions>
      </trkpt>
      <trkpt lat="42.6249848864972591400146484375" lon="19.88024580292403697967529296875">
        <ele>1746.800048828125</ele>
        <time>2026-06-16T08:25:59.000Z</time>
        <extensions>
          <ns3:TrackPointExtension>
            <ns3:atemp>17.0</ns3:atemp>
          </ns3:TrackPointExtension>
        </extensions>
      </trkpt>
      <trkpt lat="42.6249848864972591400146484375" lon="19.88024580292403697967529296875">
        <ele>1746.800048828125</ele>
        <time>2026-06-16T08:26:00.000Z</time>
        <extensions>
          <ns3:TrackPointExtension>
            <ns3:atemp>17.0</ns3:atemp>
          </ns3:TrackPointExtension>
        </extensions>
      </trkpt>
      <trkpt lat="42.6249848864972591400146484375" lon="19.88024580292403697967529296875">
        <ele>1746.800048828125</ele>
        <time>2026-06-16T08:26:01.000Z</time>
        <extensions>
          <ns3:TrackPointExtension>
            <ns3:atemp>17.0</ns3:atemp>
          </ns3:TrackPointExtension>
        </extensions>
      </trkpt>
      <trkpt lat="42.6249848864972591400146484375" lon="19.88024580292403697967529296875">
        <ele>1746.800048828125</ele>
        <time>2026-06-16T08:26:02.000Z</time>
        <extensions>
          <ns3:TrackPointExtension>
            <ns3:atemp>17.0</ns3:atemp>
          </ns3:TrackPointExtension>
        </extensions>
      </trkpt>
      <trkpt lat="42.6249848864972591400146484375" lon="19.88024580292403697967529296875">
        <ele>1746.800048828125</ele>
        <time>2026-06-16T08:26:03.000Z</time>
        <extensions>
          <ns3:TrackPointExtension>
            <ns3:atemp>17.0</ns3:atemp>
          </ns3:TrackPointExtension>
        </extensions>
      </trkpt>
      <trkpt lat="42.6249848864972591400146484375" lon="19.88024580292403697967529296875">
        <ele>1746.800048828125</ele>
        <time>2026-06-16T08:26:04.000Z</time>
        <extensions>
          <ns3:TrackPointExtension>
            <ns3:atemp>17.0</ns3:atemp>
          </ns3:TrackPointExtension>
        </extensions>
      </trkpt>
      <trkpt lat="42.6249848864972591400146484375" lon="19.88024580292403697967529296875">
        <ele>1746.800048828125</ele>
        <time>2026-06-16T08:26:05.000Z</time>
        <extensions>
          <ns3:TrackPointExtension>
            <ns3:atemp>17.0</ns3:atemp>
          </ns3:TrackPointExtension>
        </extensions>
      </trkpt>
      <trkpt lat="42.6249848864972591400146484375" lon="19.88024580292403697967529296875">
        <ele>1746.800048828125</ele>
        <time>2026-06-16T08:26:06.000Z</time>
        <extensions>
          <ns3:TrackPointExtension>
            <ns3:atemp>17.0</ns3:atemp>
          </ns3:TrackPointExtension>
        </extensions>
      </trkpt>
      <trkpt lat="42.6249848864972591400146484375" lon="19.88024580292403697967529296875">
        <ele>1746.800048828125</ele>
        <time>2026-06-16T08:26:07.000Z</time>
        <extensions>
          <ns3:TrackPointExtension>
            <ns3:atemp>17.0</ns3:atemp>
          </ns3:TrackPointExtension>
        </extensions>
      </trkpt>
      <trkpt lat="42.6249848864972591400146484375" lon="19.88024580292403697967529296875">
        <ele>1746.800048828125</ele>
        <time>2026-06-16T08:26:08.000Z</time>
        <extensions>
          <ns3:TrackPointExtension>
            <ns3:atemp>17.0</ns3:atemp>
          </ns3:TrackPointExtension>
        </extensions>
      </trkpt>
      <trkpt lat="42.6249848864972591400146484375" lon="19.88024580292403697967529296875">
        <ele>1746.800048828125</ele>
        <time>2026-06-16T08:26:09.000Z</time>
        <extensions>
          <ns3:TrackPointExtension>
            <ns3:atemp>17.0</ns3:atemp>
          </ns3:TrackPointExtension>
        </extensions>
      </trkpt>
      <trkpt lat="42.6249848864972591400146484375" lon="19.88024580292403697967529296875">
        <ele>1746.800048828125</ele>
        <time>2026-06-16T08:26:10.000Z</time>
        <extensions>
          <ns3:TrackPointExtension>
            <ns3:atemp>17.0</ns3:atemp>
          </ns3:TrackPointExtension>
        </extensions>
      </trkpt>
      <trkpt lat="42.6249848864972591400146484375" lon="19.88024580292403697967529296875">
        <ele>1746.800048828125</ele>
        <time>2026-06-16T08:26:11.000Z</time>
        <extensions>
          <ns3:TrackPointExtension>
            <ns3:atemp>17.0</ns3:atemp>
          </ns3:TrackPointExtension>
        </extensions>
      </trkpt>
      <trkpt lat="42.6249848864972591400146484375" lon="19.88024580292403697967529296875">
        <ele>1746.800048828125</ele>
        <time>2026-06-16T08:26:12.000Z</time>
        <extensions>
          <ns3:TrackPointExtension>
            <ns3:atemp>17.0</ns3:atemp>
          </ns3:TrackPointExtension>
        </extensions>
      </trkpt>
      <trkpt lat="42.6249848864972591400146484375" lon="19.88024580292403697967529296875">
        <ele>1746.800048828125</ele>
        <time>2026-06-16T08:26:13.000Z</time>
        <extensions>
          <ns3:TrackPointExtension>
            <ns3:atemp>17.0</ns3:atemp>
          </ns3:TrackPointExtension>
        </extensions>
      </trkpt>
      <trkpt lat="42.6249848864972591400146484375" lon="19.88024580292403697967529296875">
        <ele>1746.800048828125</ele>
        <time>2026-06-16T08:26:14.000Z</time>
        <extensions>
          <ns3:TrackPointExtension>
            <ns3:atemp>17.0</ns3:atemp>
          </ns3:TrackPointExtension>
        </extensions>
      </trkpt>
      <trkpt lat="42.6249848864972591400146484375" lon="19.88024580292403697967529296875">
        <ele>1746.800048828125</ele>
        <time>2026-06-16T08:26:15.000Z</time>
        <extensions>
          <ns3:TrackPointExtension>
            <ns3:atemp>17.0</ns3:atemp>
          </ns3:TrackPointExtension>
        </extensions>
      </trkpt>
      <trkpt lat="42.6249848864972591400146484375" lon="19.88024580292403697967529296875">
        <ele>1746.800048828125</ele>
        <time>2026-06-16T08:26:16.000Z</time>
        <extensions>
          <ns3:TrackPointExtension>
            <ns3:atemp>17.0</ns3:atemp>
          </ns3:TrackPointExtension>
        </extensions>
      </trkpt>
      <trkpt lat="42.6249848864972591400146484375" lon="19.88024580292403697967529296875">
        <ele>1746.800048828125</ele>
        <time>2026-06-16T08:26:17.000Z</time>
        <extensions>
          <ns3:TrackPointExtension>
            <ns3:atemp>17.0</ns3:atemp>
          </ns3:TrackPointExtension>
        </extensions>
      </trkpt>
      <trkpt lat="42.6249848864972591400146484375" lon="19.88024580292403697967529296875">
        <ele>1746.800048828125</ele>
        <time>2026-06-16T08:26:18.000Z</time>
        <extensions>
          <ns3:TrackPointExtension>
            <ns3:atemp>17.0</ns3:atemp>
          </ns3:TrackPointExtension>
        </extensions>
      </trkpt>
      <trkpt lat="42.6249848864972591400146484375" lon="19.88024580292403697967529296875">
        <ele>1746.800048828125</ele>
        <time>2026-06-16T08:26:19.000Z</time>
        <extensions>
          <ns3:TrackPointExtension>
            <ns3:atemp>17.0</ns3:atemp>
          </ns3:TrackPointExtension>
        </extensions>
      </trkpt>
      <trkpt lat="42.6249848864972591400146484375" lon="19.88024580292403697967529296875">
        <ele>1746.800048828125</ele>
        <time>2026-06-16T08:26:20.000Z</time>
        <extensions>
          <ns3:TrackPointExtension>
            <ns3:atemp>17.0</ns3:atemp>
          </ns3:TrackPointExtension>
        </extensions>
      </trkpt>
      <trkpt lat="42.6249848864972591400146484375" lon="19.88024580292403697967529296875">
        <ele>1746.800048828125</ele>
        <time>2026-06-16T08:26:21.000Z</time>
        <extensions>
          <ns3:TrackPointExtension>
            <ns3:atemp>17.0</ns3:atemp>
          </ns3:TrackPointExtension>
        </extensions>
      </trkpt>
      <trkpt lat="42.6249848864972591400146484375" lon="19.88024580292403697967529296875">
        <ele>1746.800048828125</ele>
        <time>2026-06-16T08:26:22.000Z</time>
        <extensions>
          <ns3:TrackPointExtension>
            <ns3:atemp>17.0</ns3:atemp>
          </ns3:TrackPointExtension>
        </extensions>
      </trkpt>
      <trkpt lat="42.6249848864972591400146484375" lon="19.88024580292403697967529296875">
        <ele>1746.800048828125</ele>
        <time>2026-06-16T08:26:23.000Z</time>
        <extensions>
          <ns3:TrackPointExtension>
            <ns3:atemp>17.0</ns3:atemp>
          </ns3:TrackPointExtension>
        </extensions>
      </trkpt>
      <trkpt lat="42.6249848864972591400146484375" lon="19.88024580292403697967529296875">
        <ele>1746.800048828125</ele>
        <time>2026-06-16T08:26:24.000Z</time>
        <extensions>
          <ns3:TrackPointExtension>
            <ns3:atemp>17.0</ns3:atemp>
          </ns3:TrackPointExtension>
        </extensions>
      </trkpt>
      <trkpt lat="42.6249848864972591400146484375" lon="19.88024580292403697967529296875">
        <ele>1746.800048828125</ele>
        <time>2026-06-16T08:26:25.000Z</time>
        <extensions>
          <ns3:TrackPointExtension>
            <ns3:atemp>17.0</ns3:atemp>
          </ns3:TrackPointExtension>
        </extensions>
      </trkpt>
      <trkpt lat="42.6249848864972591400146484375" lon="19.88024580292403697967529296875">
        <ele>1746.800048828125</ele>
        <time>2026-06-16T08:26:26.000Z</time>
        <extensions>
          <ns3:TrackPointExtension>
            <ns3:atemp>17.0</ns3:atemp>
          </ns3:TrackPointExtension>
        </extensions>
      </trkpt>
      <trkpt lat="42.6249848864972591400146484375" lon="19.88024580292403697967529296875">
        <ele>1746.800048828125</ele>
        <time>2026-06-16T08:26:27.000Z</time>
        <extensions>
          <ns3:TrackPointExtension>
            <ns3:atemp>17.0</ns3:atemp>
          </ns3:TrackPointExtension>
        </extensions>
      </trkpt>
      <trkpt lat="42.6249848864972591400146484375" lon="19.88024580292403697967529296875">
        <ele>1746.800048828125</ele>
        <time>2026-06-16T08:26:28.000Z</time>
        <extensions>
          <ns3:TrackPointExtension>
            <ns3:atemp>17.0</ns3:atemp>
          </ns3:TrackPointExtension>
        </extensions>
      </trkpt>
      <trkpt lat="42.6249848864972591400146484375" lon="19.88024580292403697967529296875">
        <ele>1746.800048828125</ele>
        <time>2026-06-16T08:26:29.000Z</time>
        <extensions>
          <ns3:TrackPointExtension>
            <ns3:atemp>17.0</ns3:atemp>
          </ns3:TrackPointExtension>
        </extensions>
      </trkpt>
      <trkpt lat="42.6249848864972591400146484375" lon="19.88024580292403697967529296875">
        <ele>1746.800048828125</ele>
        <time>2026-06-16T08:26:30.000Z</time>
        <extensions>
          <ns3:TrackPointExtension>
            <ns3:atemp>17.0</ns3:atemp>
          </ns3:TrackPointExtension>
        </extensions>
      </trkpt>
      <trkpt lat="42.6249848864972591400146484375" lon="19.88024580292403697967529296875">
        <ele>1746.800048828125</ele>
        <time>2026-06-16T08:26:31.000Z</time>
        <extensions>
          <ns3:TrackPointExtension>
            <ns3:atemp>17.0</ns3:atemp>
          </ns3:TrackPointExtension>
        </extensions>
      </trkpt>
      <trkpt lat="42.6249848864972591400146484375" lon="19.88024580292403697967529296875">
        <ele>1746.800048828125</ele>
        <time>2026-06-16T08:26:32.000Z</time>
        <extensions>
          <ns3:TrackPointExtension>
            <ns3:atemp>17.0</ns3:atemp>
          </ns3:TrackPointExtension>
        </extensions>
      </trkpt>
      <trkpt lat="42.6249848864972591400146484375" lon="19.88024580292403697967529296875">
        <ele>1746.800048828125</ele>
        <time>2026-06-16T08:26:33.000Z</time>
        <extensions>
          <ns3:TrackPointExtension>
            <ns3:atemp>17.0</ns3:atemp>
          </ns3:TrackPointExtension>
        </extensions>
      </trkpt>
      <trkpt lat="42.6249848864972591400146484375" lon="19.88024580292403697967529296875">
        <ele>1746.800048828125</ele>
        <time>2026-06-16T08:26:34.000Z</time>
        <extensions>
          <ns3:TrackPointExtension>
            <ns3:atemp>17.0</ns3:atemp>
          </ns3:TrackPointExtension>
        </extensions>
      </trkpt>
      <trkpt lat="42.6249848864972591400146484375" lon="19.88024580292403697967529296875">
        <ele>1746.800048828125</ele>
        <time>2026-06-16T08:26:35.000Z</time>
        <extensions>
          <ns3:TrackPointExtension>
            <ns3:atemp>17.0</ns3:atemp>
          </ns3:TrackPointExtension>
        </extensions>
      </trkpt>
      <trkpt lat="42.6249848864972591400146484375" lon="19.88024580292403697967529296875">
        <ele>1746.800048828125</ele>
        <time>2026-06-16T08:26:36.000Z</time>
        <extensions>
          <ns3:TrackPointExtension>
            <ns3:atemp>17.0</ns3:atemp>
          </ns3:TrackPointExtension>
        </extensions>
      </trkpt>
      <trkpt lat="42.6249848864972591400146484375" lon="19.88024580292403697967529296875">
        <ele>1746.800048828125</ele>
        <time>2026-06-16T08:26:37.000Z</time>
        <extensions>
          <ns3:TrackPointExtension>
            <ns3:atemp>17.0</ns3:atemp>
          </ns3:TrackPointExtension>
        </extensions>
      </trkpt>
      <trkpt lat="42.6249848864972591400146484375" lon="19.88024580292403697967529296875">
        <ele>1746.800048828125</ele>
        <time>2026-06-16T08:26:38.000Z</time>
        <extensions>
          <ns3:TrackPointExtension>
            <ns3:atemp>17.0</ns3:atemp>
          </ns3:TrackPointExtension>
        </extensions>
      </trkpt>
      <trkpt lat="42.6249848864972591400146484375" lon="19.88024580292403697967529296875">
        <ele>1746.800048828125</ele>
        <time>2026-06-16T08:26:39.000Z</time>
        <extensions>
          <ns3:TrackPointExtension>
            <ns3:atemp>17.0</ns3:atemp>
          </ns3:TrackPointExtension>
        </extensions>
      </trkpt>
      <trkpt lat="42.6249848864972591400146484375" lon="19.88024580292403697967529296875">
        <ele>1746.800048828125</ele>
        <time>2026-06-16T08:26:40.000Z</time>
        <extensions>
          <ns3:TrackPointExtension>
            <ns3:atemp>17.0</ns3:atemp>
          </ns3:TrackPointExtension>
        </extensions>
      </trkpt>
      <trkpt lat="42.6249848864972591400146484375" lon="19.88024580292403697967529296875">
        <ele>1746.800048828125</ele>
        <time>2026-06-16T08:26:41.000Z</time>
        <extensions>
          <ns3:TrackPointExtension>
            <ns3:atemp>17.0</ns3:atemp>
          </ns3:TrackPointExtension>
        </extensions>
      </trkpt>
      <trkpt lat="42.6249848864972591400146484375" lon="19.88024580292403697967529296875">
        <ele>1746.800048828125</ele>
        <time>2026-06-16T08:26:42.000Z</time>
        <extensions>
          <ns3:TrackPointExtension>
            <ns3:atemp>17.0</ns3:atemp>
          </ns3:TrackPointExtension>
        </extensions>
      </trkpt>
      <trkpt lat="42.6249848864972591400146484375" lon="19.88024580292403697967529296875">
        <ele>1746.800048828125</ele>
        <time>2026-06-16T08:26:43.000Z</time>
        <extensions>
          <ns3:TrackPointExtension>
            <ns3:atemp>17.0</ns3:atemp>
          </ns3:TrackPointExtension>
        </extensions>
      </trkpt>
      <trkpt lat="42.6249848864972591400146484375" lon="19.88024580292403697967529296875">
        <ele>1746.800048828125</ele>
        <time>2026-06-16T08:26:44.000Z</time>
        <extensions>
          <ns3:TrackPointExtension>
            <ns3:atemp>17.0</ns3:atemp>
          </ns3:TrackPointExtension>
        </extensions>
      </trkpt>
      <trkpt lat="42.6249848864972591400146484375" lon="19.88024580292403697967529296875">
        <ele>1746.800048828125</ele>
        <time>2026-06-16T08:26:45.000Z</time>
        <extensions>
          <ns3:TrackPointExtension>
            <ns3:atemp>17.0</ns3:atemp>
          </ns3:TrackPointExtension>
        </extensions>
      </trkpt>
      <trkpt lat="42.6249848864972591400146484375" lon="19.88024580292403697967529296875">
        <ele>1746.800048828125</ele>
        <time>2026-06-16T08:26:46.000Z</time>
        <extensions>
          <ns3:TrackPointExtension>
            <ns3:atemp>17.0</ns3:atemp>
          </ns3:TrackPointExtension>
        </extensions>
      </trkpt>
      <trkpt lat="42.6249848864972591400146484375" lon="19.88024580292403697967529296875">
        <ele>1746.800048828125</ele>
        <time>2026-06-16T08:26:47.000Z</time>
        <extensions>
          <ns3:TrackPointExtension>
            <ns3:atemp>17.0</ns3:atemp>
          </ns3:TrackPointExtension>
        </extensions>
      </trkpt>
      <trkpt lat="42.6249848864972591400146484375" lon="19.88024580292403697967529296875">
        <ele>1746.800048828125</ele>
        <time>2026-06-16T08:26:48.000Z</time>
        <extensions>
          <ns3:TrackPointExtension>
            <ns3:atemp>17.0</ns3:atemp>
          </ns3:TrackPointExtension>
        </extensions>
      </trkpt>
      <trkpt lat="42.6249848864972591400146484375" lon="19.88024580292403697967529296875">
        <ele>1746.800048828125</ele>
        <time>2026-06-16T08:26:49.000Z</time>
        <extensions>
          <ns3:TrackPointExtension>
            <ns3:atemp>17.0</ns3:atemp>
          </ns3:TrackPointExtension>
        </extensions>
      </trkpt>
      <trkpt lat="42.6249848864972591400146484375" lon="19.88024580292403697967529296875">
        <ele>1746.800048828125</ele>
        <time>2026-06-16T08:26:50.000Z</time>
        <extensions>
          <ns3:TrackPointExtension>
            <ns3:atemp>17.0</ns3:atemp>
          </ns3:TrackPointExtension>
        </extensions>
      </trkpt>
      <trkpt lat="42.6249848864972591400146484375" lon="19.88024580292403697967529296875">
        <ele>1746.800048828125</ele>
        <time>2026-06-16T08:26:51.000Z</time>
        <extensions>
          <ns3:TrackPointExtension>
            <ns3:atemp>17.0</ns3:atemp>
          </ns3:TrackPointExtension>
        </extensions>
      </trkpt>
      <trkpt lat="42.6249848864972591400146484375" lon="19.88024580292403697967529296875">
        <ele>1746.800048828125</ele>
        <time>2026-06-16T08:26:52.000Z</time>
        <extensions>
          <ns3:TrackPointExtension>
            <ns3:atemp>17.0</ns3:atemp>
          </ns3:TrackPointExtension>
        </extensions>
      </trkpt>
      <trkpt lat="42.6249848864972591400146484375" lon="19.88024580292403697967529296875">
        <ele>1746.800048828125</ele>
        <time>2026-06-16T08:26:53.000Z</time>
        <extensions>
          <ns3:TrackPointExtension>
            <ns3:atemp>17.0</ns3:atemp>
          </ns3:TrackPointExtension>
        </extensions>
      </trkpt>
      <trkpt lat="42.6249848864972591400146484375" lon="19.88024580292403697967529296875">
        <ele>1746.800048828125</ele>
        <time>2026-06-16T08:26:54.000Z</time>
        <extensions>
          <ns3:TrackPointExtension>
            <ns3:atemp>17.0</ns3:atemp>
          </ns3:TrackPointExtension>
        </extensions>
      </trkpt>
      <trkpt lat="42.6249848864972591400146484375" lon="19.88024580292403697967529296875">
        <ele>1746.800048828125</ele>
        <time>2026-06-16T08:26:55.000Z</time>
        <extensions>
          <ns3:TrackPointExtension>
            <ns3:atemp>17.0</ns3:atemp>
          </ns3:TrackPointExtension>
        </extensions>
      </trkpt>
      <trkpt lat="42.6249848864972591400146484375" lon="19.88024580292403697967529296875">
        <ele>1746.800048828125</ele>
        <time>2026-06-16T08:26:56.000Z</time>
        <extensions>
          <ns3:TrackPointExtension>
            <ns3:atemp>17.0</ns3:atemp>
          </ns3:TrackPointExtension>
        </extensions>
      </trkpt>
      <trkpt lat="42.6249848864972591400146484375" lon="19.88024580292403697967529296875">
        <ele>1746.800048828125</ele>
        <time>2026-06-16T08:26:57.000Z</time>
        <extensions>
          <ns3:TrackPointExtension>
            <ns3:atemp>17.0</ns3:atemp>
          </ns3:TrackPointExtension>
        </extensions>
      </trkpt>
      <trkpt lat="42.6249848864972591400146484375" lon="19.88024580292403697967529296875">
        <ele>1746.800048828125</ele>
        <time>2026-06-16T08:26:58.000Z</time>
        <extensions>
          <ns3:TrackPointExtension>
            <ns3:atemp>17.0</ns3:atemp>
          </ns3:TrackPointExtension>
        </extensions>
      </trkpt>
      <trkpt lat="42.6249848864972591400146484375" lon="19.88024580292403697967529296875">
        <ele>1746.800048828125</ele>
        <time>2026-06-16T08:26:59.000Z</time>
        <extensions>
          <ns3:TrackPointExtension>
            <ns3:atemp>17.0</ns3:atemp>
          </ns3:TrackPointExtension>
        </extensions>
      </trkpt>
      <trkpt lat="42.6249848864972591400146484375" lon="19.88024580292403697967529296875">
        <ele>1746.800048828125</ele>
        <time>2026-06-16T08:27:00.000Z</time>
        <extensions>
          <ns3:TrackPointExtension>
            <ns3:atemp>17.0</ns3:atemp>
          </ns3:TrackPointExtension>
        </extensions>
      </trkpt>
      <trkpt lat="42.6249848864972591400146484375" lon="19.88024580292403697967529296875">
        <ele>1746.800048828125</ele>
        <time>2026-06-16T08:27:01.000Z</time>
        <extensions>
          <ns3:TrackPointExtension>
            <ns3:atemp>17.0</ns3:atemp>
          </ns3:TrackPointExtension>
        </extensions>
      </trkpt>
      <trkpt lat="42.6249848864972591400146484375" lon="19.88024580292403697967529296875">
        <ele>1746.800048828125</ele>
        <time>2026-06-16T08:27:02.000Z</time>
        <extensions>
          <ns3:TrackPointExtension>
            <ns3:atemp>17.0</ns3:atemp>
          </ns3:TrackPointExtension>
        </extensions>
      </trkpt>
      <trkpt lat="42.6249848864972591400146484375" lon="19.88024580292403697967529296875">
        <ele>1746.800048828125</ele>
        <time>2026-06-16T08:27:03.000Z</time>
        <extensions>
          <ns3:TrackPointExtension>
            <ns3:atemp>17.0</ns3:atemp>
          </ns3:TrackPointExtension>
        </extensions>
      </trkpt>
      <trkpt lat="42.6249848864972591400146484375" lon="19.88024580292403697967529296875">
        <ele>1746.800048828125</ele>
        <time>2026-06-16T08:27:04.000Z</time>
        <extensions>
          <ns3:TrackPointExtension>
            <ns3:atemp>17.0</ns3:atemp>
          </ns3:TrackPointExtension>
        </extensions>
      </trkpt>
      <trkpt lat="42.6249848864972591400146484375" lon="19.88024580292403697967529296875">
        <ele>1746.800048828125</ele>
        <time>2026-06-16T08:27:05.000Z</time>
        <extensions>
          <ns3:TrackPointExtension>
            <ns3:atemp>17.0</ns3:atemp>
          </ns3:TrackPointExtension>
        </extensions>
      </trkpt>
      <trkpt lat="42.6249848864972591400146484375" lon="19.88024580292403697967529296875">
        <ele>1746.800048828125</ele>
        <time>2026-06-16T08:27:06.000Z</time>
        <extensions>
          <ns3:TrackPointExtension>
            <ns3:atemp>17.0</ns3:atemp>
          </ns3:TrackPointExtension>
        </extensions>
      </trkpt>
      <trkpt lat="42.6249848864972591400146484375" lon="19.88024580292403697967529296875">
        <ele>1746.800048828125</ele>
        <time>2026-06-16T08:27:07.000Z</time>
        <extensions>
          <ns3:TrackPointExtension>
            <ns3:atemp>17.0</ns3:atemp>
          </ns3:TrackPointExtension>
        </extensions>
      </trkpt>
      <trkpt lat="42.6249848864972591400146484375" lon="19.88024580292403697967529296875">
        <ele>1746.800048828125</ele>
        <time>2026-06-16T08:27:08.000Z</time>
        <extensions>
          <ns3:TrackPointExtension>
            <ns3:atemp>17.0</ns3:atemp>
          </ns3:TrackPointExtension>
        </extensions>
      </trkpt>
      <trkpt lat="42.6249848864972591400146484375" lon="19.88024580292403697967529296875">
        <ele>1746.800048828125</ele>
        <time>2026-06-16T08:27:09.000Z</time>
        <extensions>
          <ns3:TrackPointExtension>
            <ns3:atemp>17.0</ns3:atemp>
          </ns3:TrackPointExtension>
        </extensions>
      </trkpt>
      <trkpt lat="42.6249848864972591400146484375" lon="19.88024580292403697967529296875">
        <ele>1746.800048828125</ele>
        <time>2026-06-16T08:27:10.000Z</time>
        <extensions>
          <ns3:TrackPointExtension>
            <ns3:atemp>17.0</ns3:atemp>
          </ns3:TrackPointExtension>
        </extensions>
      </trkpt>
      <trkpt lat="42.6249848864972591400146484375" lon="19.88024580292403697967529296875">
        <ele>1746.800048828125</ele>
        <time>2026-06-16T08:27:11.000Z</time>
        <extensions>
          <ns3:TrackPointExtension>
            <ns3:atemp>17.0</ns3:atemp>
          </ns3:TrackPointExtension>
        </extensions>
      </trkpt>
      <trkpt lat="42.6249848864972591400146484375" lon="19.88024580292403697967529296875">
        <ele>1746.800048828125</ele>
        <time>2026-06-16T08:27:12.000Z</time>
        <extensions>
          <ns3:TrackPointExtension>
            <ns3:atemp>17.0</ns3:atemp>
          </ns3:TrackPointExtension>
        </extensions>
      </trkpt>
      <trkpt lat="42.6249848864972591400146484375" lon="19.88024580292403697967529296875">
        <ele>1746.800048828125</ele>
        <time>2026-06-16T08:27:13.000Z</time>
        <extensions>
          <ns3:TrackPointExtension>
            <ns3:atemp>17.0</ns3:atemp>
          </ns3:TrackPointExtension>
        </extensions>
      </trkpt>
      <trkpt lat="42.6249848864972591400146484375" lon="19.88024580292403697967529296875">
        <ele>1746.800048828125</ele>
        <time>2026-06-16T08:27:14.000Z</time>
        <extensions>
          <ns3:TrackPointExtension>
            <ns3:atemp>17.0</ns3:atemp>
          </ns3:TrackPointExtension>
        </extensions>
      </trkpt>
      <trkpt lat="42.6249848864972591400146484375" lon="19.88024580292403697967529296875">
        <ele>1746.800048828125</ele>
        <time>2026-06-16T08:27:15.000Z</time>
        <extensions>
          <ns3:TrackPointExtension>
            <ns3:atemp>17.0</ns3:atemp>
          </ns3:TrackPointExtension>
        </extensions>
      </trkpt>
      <trkpt lat="42.6249848864972591400146484375" lon="19.88024580292403697967529296875">
        <ele>1746.800048828125</ele>
        <time>2026-06-16T08:27:16.000Z</time>
        <extensions>
          <ns3:TrackPointExtension>
            <ns3:atemp>17.0</ns3:atemp>
          </ns3:TrackPointExtension>
        </extensions>
      </trkpt>
      <trkpt lat="42.6249848864972591400146484375" lon="19.88024580292403697967529296875">
        <ele>1746.800048828125</ele>
        <time>2026-06-16T08:27:17.000Z</time>
        <extensions>
          <ns3:TrackPointExtension>
            <ns3:atemp>17.0</ns3:atemp>
          </ns3:TrackPointExtension>
        </extensions>
      </trkpt>
      <trkpt lat="42.6249848864972591400146484375" lon="19.88024580292403697967529296875">
        <ele>1746.800048828125</ele>
        <time>2026-06-16T08:27:18.000Z</time>
        <extensions>
          <ns3:TrackPointExtension>
            <ns3:atemp>17.0</ns3:atemp>
          </ns3:TrackPointExtension>
        </extensions>
      </trkpt>
      <trkpt lat="42.6249848864972591400146484375" lon="19.88024580292403697967529296875">
        <ele>1746.800048828125</ele>
        <time>2026-06-16T08:27:19.000Z</time>
        <extensions>
          <ns3:TrackPointExtension>
            <ns3:atemp>17.0</ns3:atemp>
          </ns3:TrackPointExtension>
        </extensions>
      </trkpt>
      <trkpt lat="42.6249848864972591400146484375" lon="19.88024580292403697967529296875">
        <ele>1746.800048828125</ele>
        <time>2026-06-16T08:27:20.000Z</time>
        <extensions>
          <ns3:TrackPointExtension>
            <ns3:atemp>17.0</ns3:atemp>
          </ns3:TrackPointExtension>
        </extensions>
      </trkpt>
      <trkpt lat="42.6249848864972591400146484375" lon="19.88024580292403697967529296875">
        <ele>1746.800048828125</ele>
        <time>2026-06-16T08:27:21.000Z</time>
        <extensions>
          <ns3:TrackPointExtension>
            <ns3:atemp>17.0</ns3:atemp>
          </ns3:TrackPointExtension>
        </extensions>
      </trkpt>
      <trkpt lat="42.6249848864972591400146484375" lon="19.88024580292403697967529296875">
        <ele>1746.800048828125</ele>
        <time>2026-06-16T08:27:22.000Z</time>
        <extensions>
          <ns3:TrackPointExtension>
            <ns3:atemp>17.0</ns3:atemp>
          </ns3:TrackPointExtension>
        </extensions>
      </trkpt>
      <trkpt lat="42.6249848864972591400146484375" lon="19.88024580292403697967529296875">
        <ele>1746.800048828125</ele>
        <time>2026-06-16T08:27:23.000Z</time>
        <extensions>
          <ns3:TrackPointExtension>
            <ns3:atemp>17.0</ns3:atemp>
          </ns3:TrackPointExtension>
        </extensions>
      </trkpt>
      <trkpt lat="42.6249848864972591400146484375" lon="19.88024580292403697967529296875">
        <ele>1746.800048828125</ele>
        <time>2026-06-16T08:27:24.000Z</time>
        <extensions>
          <ns3:TrackPointExtension>
            <ns3:atemp>17.0</ns3:atemp>
          </ns3:TrackPointExtension>
        </extensions>
      </trkpt>
      <trkpt lat="42.6249848864972591400146484375" lon="19.88024580292403697967529296875">
        <ele>1746.800048828125</ele>
        <time>2026-06-16T08:27:25.000Z</time>
        <extensions>
          <ns3:TrackPointExtension>
            <ns3:atemp>17.0</ns3:atemp>
          </ns3:TrackPointExtension>
        </extensions>
      </trkpt>
      <trkpt lat="42.6249848864972591400146484375" lon="19.88024580292403697967529296875">
        <ele>1746.800048828125</ele>
        <time>2026-06-16T08:27:26.000Z</time>
        <extensions>
          <ns3:TrackPointExtension>
            <ns3:atemp>17.0</ns3:atemp>
          </ns3:TrackPointExtension>
        </extensions>
      </trkpt>
      <trkpt lat="42.6249848864972591400146484375" lon="19.88024580292403697967529296875">
        <ele>1746.800048828125</ele>
        <time>2026-06-16T08:27:27.000Z</time>
        <extensions>
          <ns3:TrackPointExtension>
            <ns3:atemp>17.0</ns3:atemp>
          </ns3:TrackPointExtension>
        </extensions>
      </trkpt>
      <trkpt lat="42.6249848864972591400146484375" lon="19.88024580292403697967529296875">
        <ele>1746.800048828125</ele>
        <time>2026-06-16T08:27:28.000Z</time>
        <extensions>
          <ns3:TrackPointExtension>
            <ns3:atemp>17.0</ns3:atemp>
          </ns3:TrackPointExtension>
        </extensions>
      </trkpt>
      <trkpt lat="42.6249848864972591400146484375" lon="19.88024580292403697967529296875">
        <ele>1746.800048828125</ele>
        <time>2026-06-16T08:27:29.000Z</time>
        <extensions>
          <ns3:TrackPointExtension>
            <ns3:atemp>17.0</ns3:atemp>
          </ns3:TrackPointExtension>
        </extensions>
      </trkpt>
      <trkpt lat="42.6249848864972591400146484375" lon="19.88024580292403697967529296875">
        <ele>1746.800048828125</ele>
        <time>2026-06-16T08:27:30.000Z</time>
        <extensions>
          <ns3:TrackPointExtension>
            <ns3:atemp>17.0</ns3:atemp>
          </ns3:TrackPointExtension>
        </extensions>
      </trkpt>
      <trkpt lat="42.6249848864972591400146484375" lon="19.88024580292403697967529296875">
        <ele>1746.800048828125</ele>
        <time>2026-06-16T08:27:31.000Z</time>
        <extensions>
          <ns3:TrackPointExtension>
            <ns3:atemp>17.0</ns3:atemp>
          </ns3:TrackPointExtension>
        </extensions>
      </trkpt>
      <trkpt lat="42.6249848864972591400146484375" lon="19.88024580292403697967529296875">
        <ele>1746.800048828125</ele>
        <time>2026-06-16T08:27:32.000Z</time>
        <extensions>
          <ns3:TrackPointExtension>
            <ns3:atemp>17.0</ns3:atemp>
          </ns3:TrackPointExtension>
        </extensions>
      </trkpt>
      <trkpt lat="42.6249848864972591400146484375" lon="19.88024580292403697967529296875">
        <ele>1746.800048828125</ele>
        <time>2026-06-16T08:27:33.000Z</time>
        <extensions>
          <ns3:TrackPointExtension>
            <ns3:atemp>17.0</ns3:atemp>
          </ns3:TrackPointExtension>
        </extensions>
      </trkpt>
      <trkpt lat="42.6249848864972591400146484375" lon="19.88024580292403697967529296875">
        <ele>1746.800048828125</ele>
        <time>2026-06-16T08:27:34.000Z</time>
        <extensions>
          <ns3:TrackPointExtension>
            <ns3:atemp>17.0</ns3:atemp>
          </ns3:TrackPointExtension>
        </extensions>
      </trkpt>
      <trkpt lat="42.6249848864972591400146484375" lon="19.88024580292403697967529296875">
        <ele>1746.800048828125</ele>
        <time>2026-06-16T08:27:35.000Z</time>
        <extensions>
          <ns3:TrackPointExtension>
            <ns3:atemp>17.0</ns3:atemp>
          </ns3:TrackPointExtension>
        </extensions>
      </trkpt>
      <trkpt lat="42.6249848864972591400146484375" lon="19.88024580292403697967529296875">
        <ele>1746.800048828125</ele>
        <time>2026-06-16T08:27:36.000Z</time>
        <extensions>
          <ns3:TrackPointExtension>
            <ns3:atemp>17.0</ns3:atemp>
          </ns3:TrackPointExtension>
        </extensions>
      </trkpt>
      <trkpt lat="42.6249848864972591400146484375" lon="19.88024580292403697967529296875">
        <ele>1746.800048828125</ele>
        <time>2026-06-16T08:27:37.000Z</time>
        <extensions>
          <ns3:TrackPointExtension>
            <ns3:atemp>17.0</ns3:atemp>
          </ns3:TrackPointExtension>
        </extensions>
      </trkpt>
      <trkpt lat="42.6249848864972591400146484375" lon="19.88024580292403697967529296875">
        <ele>1746.800048828125</ele>
        <time>2026-06-16T08:27:38.000Z</time>
        <extensions>
          <ns3:TrackPointExtension>
            <ns3:atemp>17.0</ns3:atemp>
          </ns3:TrackPointExtension>
        </extensions>
      </trkpt>
      <trkpt lat="42.6249848864972591400146484375" lon="19.88024580292403697967529296875">
        <ele>1746.800048828125</ele>
        <time>2026-06-16T08:27:39.000Z</time>
        <extensions>
          <ns3:TrackPointExtension>
            <ns3:atemp>17.0</ns3:atemp>
          </ns3:TrackPointExtension>
        </extensions>
      </trkpt>
      <trkpt lat="42.6249848864972591400146484375" lon="19.88024580292403697967529296875">
        <ele>1746.800048828125</ele>
        <time>2026-06-16T08:27:40.000Z</time>
        <extensions>
          <ns3:TrackPointExtension>
            <ns3:atemp>17.0</ns3:atemp>
          </ns3:TrackPointExtension>
        </extensions>
      </trkpt>
      <trkpt lat="42.6249848864972591400146484375" lon="19.88024580292403697967529296875">
        <ele>1746.800048828125</ele>
        <time>2026-06-16T08:27:41.000Z</time>
        <extensions>
          <ns3:TrackPointExtension>
            <ns3:atemp>17.0</ns3:atemp>
          </ns3:TrackPointExtension>
        </extensions>
      </trkpt>
      <trkpt lat="42.6249848864972591400146484375" lon="19.88024580292403697967529296875">
        <ele>1746.800048828125</ele>
        <time>2026-06-16T08:27:42.000Z</time>
        <extensions>
          <ns3:TrackPointExtension>
            <ns3:atemp>17.0</ns3:atemp>
          </ns3:TrackPointExtension>
        </extensions>
      </trkpt>
      <trkpt lat="42.6249848864972591400146484375" lon="19.88024580292403697967529296875">
        <ele>1746.800048828125</ele>
        <time>2026-06-16T08:27:43.000Z</time>
        <extensions>
          <ns3:TrackPointExtension>
            <ns3:atemp>17.0</ns3:atemp>
          </ns3:TrackPointExtension>
        </extensions>
      </trkpt>
      <trkpt lat="42.6249848864972591400146484375" lon="19.88024580292403697967529296875">
        <ele>1746.800048828125</ele>
        <time>2026-06-16T08:27:44.000Z</time>
        <extensions>
          <ns3:TrackPointExtension>
            <ns3:atemp>17.0</ns3:atemp>
          </ns3:TrackPointExtension>
        </extensions>
      </trkpt>
      <trkpt lat="42.6249848864972591400146484375" lon="19.88024580292403697967529296875">
        <ele>1746.800048828125</ele>
        <time>2026-06-16T08:27:45.000Z</time>
        <extensions>
          <ns3:TrackPointExtension>
            <ns3:atemp>17.0</ns3:atemp>
          </ns3:TrackPointExtension>
        </extensions>
      </trkpt>
      <trkpt lat="42.6249848864972591400146484375" lon="19.88024580292403697967529296875">
        <ele>1746.800048828125</ele>
        <time>2026-06-16T08:27:46.000Z</time>
        <extensions>
          <ns3:TrackPointExtension>
            <ns3:atemp>17.0</ns3:atemp>
          </ns3:TrackPointExtension>
        </extensions>
      </trkpt>
      <trkpt lat="42.6249848864972591400146484375" lon="19.88024580292403697967529296875">
        <ele>1746.800048828125</ele>
        <time>2026-06-16T08:27:47.000Z</time>
        <extensions>
          <ns3:TrackPointExtension>
            <ns3:atemp>17.0</ns3:atemp>
          </ns3:TrackPointExtension>
        </extensions>
      </trkpt>
      <trkpt lat="42.6249848864972591400146484375" lon="19.88024580292403697967529296875">
        <ele>1746.800048828125</ele>
        <time>2026-06-16T08:27:48.000Z</time>
        <extensions>
          <ns3:TrackPointExtension>
            <ns3:atemp>17.0</ns3:atemp>
          </ns3:TrackPointExtension>
        </extensions>
      </trkpt>
      <trkpt lat="42.6249848864972591400146484375" lon="19.88024580292403697967529296875">
        <ele>1746.800048828125</ele>
        <time>2026-06-16T08:27:49.000Z</time>
        <extensions>
          <ns3:TrackPointExtension>
            <ns3:atemp>17.0</ns3:atemp>
          </ns3:TrackPointExtension>
        </extensions>
      </trkpt>
      <trkpt lat="42.6249848864972591400146484375" lon="19.88024580292403697967529296875">
        <ele>1746.800048828125</ele>
        <time>2026-06-16T08:27:50.000Z</time>
        <extensions>
          <ns3:TrackPointExtension>
            <ns3:atemp>17.0</ns3:atemp>
          </ns3:TrackPointExtension>
        </extensions>
      </trkpt>
      <trkpt lat="42.6249848864972591400146484375" lon="19.88024580292403697967529296875">
        <ele>1746.800048828125</ele>
        <time>2026-06-16T08:27:51.000Z</time>
        <extensions>
          <ns3:TrackPointExtension>
            <ns3:atemp>17.0</ns3:atemp>
          </ns3:TrackPointExtension>
        </extensions>
      </trkpt>
      <trkpt lat="42.6249848864972591400146484375" lon="19.88024580292403697967529296875">
        <ele>1746.800048828125</ele>
        <time>2026-06-16T08:27:52.000Z</time>
        <extensions>
          <ns3:TrackPointExtension>
            <ns3:atemp>17.0</ns3:atemp>
          </ns3:TrackPointExtension>
        </extensions>
      </trkpt>
      <trkpt lat="42.6249848864972591400146484375" lon="19.88024580292403697967529296875">
        <ele>1746.800048828125</ele>
        <time>2026-06-16T08:27:53.000Z</time>
        <extensions>
          <ns3:TrackPointExtension>
            <ns3:atemp>17.0</ns3:atemp>
          </ns3:TrackPointExtension>
        </extensions>
      </trkpt>
      <trkpt lat="42.6249848864972591400146484375" lon="19.88024580292403697967529296875">
        <ele>1746.800048828125</ele>
        <time>2026-06-16T08:27:54.000Z</time>
        <extensions>
          <ns3:TrackPointExtension>
            <ns3:atemp>17.0</ns3:atemp>
          </ns3:TrackPointExtension>
        </extensions>
      </trkpt>
      <trkpt lat="42.6249848864972591400146484375" lon="19.88024580292403697967529296875">
        <ele>1746.800048828125</ele>
        <time>2026-06-16T08:27:55.000Z</time>
        <extensions>
          <ns3:TrackPointExtension>
            <ns3:atemp>17.0</ns3:atemp>
          </ns3:TrackPointExtension>
        </extensions>
      </trkpt>
      <trkpt lat="42.6249848864972591400146484375" lon="19.88024580292403697967529296875">
        <ele>1746.800048828125</ele>
        <time>2026-06-16T08:27:56.000Z</time>
        <extensions>
          <ns3:TrackPointExtension>
            <ns3:atemp>17.0</ns3:atemp>
          </ns3:TrackPointExtension>
        </extensions>
      </trkpt>
      <trkpt lat="42.6249848864972591400146484375" lon="19.88024580292403697967529296875">
        <ele>1746.800048828125</ele>
        <time>2026-06-16T08:27:57.000Z</time>
        <extensions>
          <ns3:TrackPointExtension>
            <ns3:atemp>17.0</ns3:atemp>
          </ns3:TrackPointExtension>
        </extensions>
      </trkpt>
      <trkpt lat="42.6249848864972591400146484375" lon="19.88024580292403697967529296875">
        <ele>1746.800048828125</ele>
        <time>2026-06-16T08:27:58.000Z</time>
        <extensions>
          <ns3:TrackPointExtension>
            <ns3:atemp>17.0</ns3:atemp>
          </ns3:TrackPointExtension>
        </extensions>
      </trkpt>
      <trkpt lat="42.6249848864972591400146484375" lon="19.88024580292403697967529296875">
        <ele>1746.800048828125</ele>
        <time>2026-06-16T08:27:59.000Z</time>
        <extensions>
          <ns3:TrackPointExtension>
            <ns3:atemp>17.0</ns3:atemp>
          </ns3:TrackPointExtension>
        </extensions>
      </trkpt>
      <trkpt lat="42.6249848864972591400146484375" lon="19.88024580292403697967529296875">
        <ele>1746.800048828125</ele>
        <time>2026-06-16T08:28:00.000Z</time>
        <extensions>
          <ns3:TrackPointExtension>
            <ns3:atemp>17.0</ns3:atemp>
          </ns3:TrackPointExtension>
        </extensions>
      </trkpt>
      <trkpt lat="42.6249848864972591400146484375" lon="19.88024580292403697967529296875">
        <ele>1746.800048828125</ele>
        <time>2026-06-16T08:28:01.000Z</time>
        <extensions>
          <ns3:TrackPointExtension>
            <ns3:atemp>17.0</ns3:atemp>
          </ns3:TrackPointExtension>
        </extensions>
      </trkpt>
      <trkpt lat="42.6249848864972591400146484375" lon="19.88024580292403697967529296875">
        <ele>1746.800048828125</ele>
        <time>2026-06-16T08:28:02.000Z</time>
        <extensions>
          <ns3:TrackPointExtension>
            <ns3:atemp>17.0</ns3:atemp>
          </ns3:TrackPointExtension>
        </extensions>
      </trkpt>
      <trkpt lat="42.6249848864972591400146484375" lon="19.88024580292403697967529296875">
        <ele>1746.800048828125</ele>
        <time>2026-06-16T08:28:03.000Z</time>
        <extensions>
          <ns3:TrackPointExtension>
            <ns3:atemp>17.0</ns3:atemp>
          </ns3:TrackPointExtension>
        </extensions>
      </trkpt>
      <trkpt lat="42.6249848864972591400146484375" lon="19.88024580292403697967529296875">
        <ele>1746.800048828125</ele>
        <time>2026-06-16T08:28:04.000Z</time>
        <extensions>
          <ns3:TrackPointExtension>
            <ns3:atemp>17.0</ns3:atemp>
          </ns3:TrackPointExtension>
        </extensions>
      </trkpt>
      <trkpt lat="42.6249848864972591400146484375" lon="19.88024580292403697967529296875">
        <ele>1746.800048828125</ele>
        <time>2026-06-16T08:28:05.000Z</time>
        <extensions>
          <ns3:TrackPointExtension>
            <ns3:atemp>17.0</ns3:atemp>
          </ns3:TrackPointExtension>
        </extensions>
      </trkpt>
      <trkpt lat="42.6249848864972591400146484375" lon="19.88024580292403697967529296875">
        <ele>1746.800048828125</ele>
        <time>2026-06-16T08:28:06.000Z</time>
        <extensions>
          <ns3:TrackPointExtension>
            <ns3:atemp>17.0</ns3:atemp>
          </ns3:TrackPointExtension>
        </extensions>
      </trkpt>
      <trkpt lat="42.6249848864972591400146484375" lon="19.88024580292403697967529296875">
        <ele>1746.800048828125</ele>
        <time>2026-06-16T08:28:07.000Z</time>
        <extensions>
          <ns3:TrackPointExtension>
            <ns3:atemp>17.0</ns3:atemp>
          </ns3:TrackPointExtension>
        </extensions>
      </trkpt>
      <trkpt lat="42.6249848864972591400146484375" lon="19.88024580292403697967529296875">
        <ele>1746.800048828125</ele>
        <time>2026-06-16T08:28:08.000Z</time>
        <extensions>
          <ns3:TrackPointExtension>
            <ns3:atemp>17.0</ns3:atemp>
          </ns3:TrackPointExtension>
        </extensions>
      </trkpt>
      <trkpt lat="42.6249848864972591400146484375" lon="19.88024580292403697967529296875">
        <ele>1746.800048828125</ele>
        <time>2026-06-16T08:28:09.000Z</time>
        <extensions>
          <ns3:TrackPointExtension>
            <ns3:atemp>17.0</ns3:atemp>
          </ns3:TrackPointExtension>
        </extensions>
      </trkpt>
      <trkpt lat="42.6249848864972591400146484375" lon="19.88024580292403697967529296875">
        <ele>1746.800048828125</ele>
        <time>2026-06-16T08:28:10.000Z</time>
        <extensions>
          <ns3:TrackPointExtension>
            <ns3:atemp>17.0</ns3:atemp>
          </ns3:TrackPointExtension>
        </extensions>
      </trkpt>
      <trkpt lat="42.6249848864972591400146484375" lon="19.88024580292403697967529296875">
        <ele>1746.800048828125</ele>
        <time>2026-06-16T08:28:11.000Z</time>
        <extensions>
          <ns3:TrackPointExtension>
            <ns3:atemp>17.0</ns3:atemp>
          </ns3:TrackPointExtension>
        </extensions>
      </trkpt>
      <trkpt lat="42.6249848864972591400146484375" lon="19.88024580292403697967529296875">
        <ele>1746.800048828125</ele>
        <time>2026-06-16T08:28:12.000Z</time>
        <extensions>
          <ns3:TrackPointExtension>
            <ns3:atemp>17.0</ns3:atemp>
          </ns3:TrackPointExtension>
        </extensions>
      </trkpt>
      <trkpt lat="42.6249848864972591400146484375" lon="19.88024580292403697967529296875">
        <ele>1746.800048828125</ele>
        <time>2026-06-16T08:28:13.000Z</time>
        <extensions>
          <ns3:TrackPointExtension>
            <ns3:atemp>17.0</ns3:atemp>
          </ns3:TrackPointExtension>
        </extensions>
      </trkpt>
      <trkpt lat="42.6249848864972591400146484375" lon="19.88024580292403697967529296875">
        <ele>1746.800048828125</ele>
        <time>2026-06-16T08:28:14.000Z</time>
        <extensions>
          <ns3:TrackPointExtension>
            <ns3:atemp>17.0</ns3:atemp>
          </ns3:TrackPointExtension>
        </extensions>
      </trkpt>
      <trkpt lat="42.6249848864972591400146484375" lon="19.88024580292403697967529296875">
        <ele>1746.800048828125</ele>
        <time>2026-06-16T08:28:15.000Z</time>
        <extensions>
          <ns3:TrackPointExtension>
            <ns3:atemp>17.0</ns3:atemp>
          </ns3:TrackPointExtension>
        </extensions>
      </trkpt>
      <trkpt lat="42.6249848864972591400146484375" lon="19.88024580292403697967529296875">
        <ele>1746.800048828125</ele>
        <time>2026-06-16T08:28:16.000Z</time>
        <extensions>
          <ns3:TrackPointExtension>
            <ns3:atemp>17.0</ns3:atemp>
          </ns3:TrackPointExtension>
        </extensions>
      </trkpt>
      <trkpt lat="42.6249848864972591400146484375" lon="19.88024580292403697967529296875">
        <ele>1746.800048828125</ele>
        <time>2026-06-16T08:28:17.000Z</time>
        <extensions>
          <ns3:TrackPointExtension>
            <ns3:atemp>17.0</ns3:atemp>
          </ns3:TrackPointExtension>
        </extensions>
      </trkpt>
      <trkpt lat="42.6249848864972591400146484375" lon="19.88024580292403697967529296875">
        <ele>1746.800048828125</ele>
        <time>2026-06-16T08:28:18.000Z</time>
        <extensions>
          <ns3:TrackPointExtension>
            <ns3:atemp>17.0</ns3:atemp>
          </ns3:TrackPointExtension>
        </extensions>
      </trkpt>
      <trkpt lat="42.6249848864972591400146484375" lon="19.88024580292403697967529296875">
        <ele>1746.800048828125</ele>
        <time>2026-06-16T08:28:19.000Z</time>
        <extensions>
          <ns3:TrackPointExtension>
            <ns3:atemp>17.0</ns3:atemp>
          </ns3:TrackPointExtension>
        </extensions>
      </trkpt>
      <trkpt lat="42.6249848864972591400146484375" lon="19.88024580292403697967529296875">
        <ele>1746.800048828125</ele>
        <time>2026-06-16T08:28:20.000Z</time>
        <extensions>
          <ns3:TrackPointExtension>
            <ns3:atemp>17.0</ns3:atemp>
          </ns3:TrackPointExtension>
        </extensions>
      </trkpt>
      <trkpt lat="42.6249848864972591400146484375" lon="19.88024580292403697967529296875">
        <ele>1746.800048828125</ele>
        <time>2026-06-16T08:28:21.000Z</time>
        <extensions>
          <ns3:TrackPointExtension>
            <ns3:atemp>17.0</ns3:atemp>
          </ns3:TrackPointExtension>
        </extensions>
      </trkpt>
      <trkpt lat="42.6249848864972591400146484375" lon="19.88024580292403697967529296875">
        <ele>1746.800048828125</ele>
        <time>2026-06-16T08:28:22.000Z</time>
        <extensions>
          <ns3:TrackPointExtension>
            <ns3:atemp>17.0</ns3:atemp>
          </ns3:TrackPointExtension>
        </extensions>
      </trkpt>
      <trkpt lat="42.6249848864972591400146484375" lon="19.88024580292403697967529296875">
        <ele>1746.800048828125</ele>
        <time>2026-06-16T08:28:23.000Z</time>
        <extensions>
          <ns3:TrackPointExtension>
            <ns3:atemp>17.0</ns3:atemp>
          </ns3:TrackPointExtension>
        </extensions>
      </trkpt>
      <trkpt lat="42.6249848864972591400146484375" lon="19.88024580292403697967529296875">
        <ele>1746.800048828125</ele>
        <time>2026-06-16T08:28:24.000Z</time>
        <extensions>
          <ns3:TrackPointExtension>
            <ns3:atemp>17.0</ns3:atemp>
          </ns3:TrackPointExtension>
        </extensions>
      </trkpt>
      <trkpt lat="42.6249848864972591400146484375" lon="19.88024580292403697967529296875">
        <ele>1746.800048828125</ele>
        <time>2026-06-16T08:28:25.000Z</time>
        <extensions>
          <ns3:TrackPointExtension>
            <ns3:atemp>17.0</ns3:atemp>
          </ns3:TrackPointExtension>
        </extensions>
      </trkpt>
      <trkpt lat="42.6249848864972591400146484375" lon="19.88024580292403697967529296875">
        <ele>1746.800048828125</ele>
        <time>2026-06-16T08:28:26.000Z</time>
        <extensions>
          <ns3:TrackPointExtension>
            <ns3:atemp>17.0</ns3:atemp>
          </ns3:TrackPointExtension>
        </extensions>
      </trkpt>
      <trkpt lat="42.6249848864972591400146484375" lon="19.88024580292403697967529296875">
        <ele>1746.800048828125</ele>
        <time>2026-06-16T08:28:27.000Z</time>
        <extensions>
          <ns3:TrackPointExtension>
            <ns3:atemp>17.0</ns3:atemp>
          </ns3:TrackPointExtension>
        </extensions>
      </trkpt>
      <trkpt lat="42.6249848864972591400146484375" lon="19.88024580292403697967529296875">
        <ele>1746.800048828125</ele>
        <time>2026-06-16T08:28:28.000Z</time>
        <extensions>
          <ns3:TrackPointExtension>
            <ns3:atemp>17.0</ns3:atemp>
          </ns3:TrackPointExtension>
        </extensions>
      </trkpt>
      <trkpt lat="42.6249848864972591400146484375" lon="19.88024580292403697967529296875">
        <ele>1746.800048828125</ele>
        <time>2026-06-16T08:28:29.000Z</time>
        <extensions>
          <ns3:TrackPointExtension>
            <ns3:atemp>17.0</ns3:atemp>
          </ns3:TrackPointExtension>
        </extensions>
      </trkpt>
      <trkpt lat="42.6249848864972591400146484375" lon="19.88024580292403697967529296875">
        <ele>1746.800048828125</ele>
        <time>2026-06-16T08:28:30.000Z</time>
        <extensions>
          <ns3:TrackPointExtension>
            <ns3:atemp>17.0</ns3:atemp>
          </ns3:TrackPointExtension>
        </extensions>
      </trkpt>
      <trkpt lat="42.6249848864972591400146484375" lon="19.88024580292403697967529296875">
        <ele>1746.800048828125</ele>
        <time>2026-06-16T08:28:31.000Z</time>
        <extensions>
          <ns3:TrackPointExtension>
            <ns3:atemp>17.0</ns3:atemp>
          </ns3:TrackPointExtension>
        </extensions>
      </trkpt>
      <trkpt lat="42.6249848864972591400146484375" lon="19.88024580292403697967529296875">
        <ele>1746.800048828125</ele>
        <time>2026-06-16T08:28:32.000Z</time>
        <extensions>
          <ns3:TrackPointExtension>
            <ns3:atemp>17.0</ns3:atemp>
          </ns3:TrackPointExtension>
        </extensions>
      </trkpt>
      <trkpt lat="42.6249848864972591400146484375" lon="19.88024580292403697967529296875">
        <ele>1746.800048828125</ele>
        <time>2026-06-16T08:28:33.000Z</time>
        <extensions>
          <ns3:TrackPointExtension>
            <ns3:atemp>17.0</ns3:atemp>
          </ns3:TrackPointExtension>
        </extensions>
      </trkpt>
      <trkpt lat="42.6249848864972591400146484375" lon="19.88024580292403697967529296875">
        <ele>1746.800048828125</ele>
        <time>2026-06-16T08:28:34.000Z</time>
        <extensions>
          <ns3:TrackPointExtension>
            <ns3:atemp>17.0</ns3:atemp>
          </ns3:TrackPointExtension>
        </extensions>
      </trkpt>
      <trkpt lat="42.6249848864972591400146484375" lon="19.88024580292403697967529296875">
        <ele>1746.800048828125</ele>
        <time>2026-06-16T08:28:35.000Z</time>
        <extensions>
          <ns3:TrackPointExtension>
            <ns3:atemp>17.0</ns3:atemp>
          </ns3:TrackPointExtension>
        </extensions>
      </trkpt>
      <trkpt lat="42.6249848864972591400146484375" lon="19.88024580292403697967529296875">
        <ele>1746.800048828125</ele>
        <time>2026-06-16T08:28:36.000Z</time>
        <extensions>
          <ns3:TrackPointExtension>
            <ns3:atemp>17.0</ns3:atemp>
          </ns3:TrackPointExtension>
        </extensions>
      </trkpt>
      <trkpt lat="42.6249848864972591400146484375" lon="19.88024580292403697967529296875">
        <ele>1746.800048828125</ele>
        <time>2026-06-16T08:28:37.000Z</time>
        <extensions>
          <ns3:TrackPointExtension>
            <ns3:atemp>17.0</ns3:atemp>
          </ns3:TrackPointExtension>
        </extensions>
      </trkpt>
      <trkpt lat="42.6249848864972591400146484375" lon="19.88024580292403697967529296875">
        <ele>1746.800048828125</ele>
        <time>2026-06-16T08:28:38.000Z</time>
        <extensions>
          <ns3:TrackPointExtension>
            <ns3:atemp>17.0</ns3:atemp>
          </ns3:TrackPointExtension>
        </extensions>
      </trkpt>
      <trkpt lat="42.6249848864972591400146484375" lon="19.88024580292403697967529296875">
        <ele>1746.800048828125</ele>
        <time>2026-06-16T08:28:39.000Z</time>
        <extensions>
          <ns3:TrackPointExtension>
            <ns3:atemp>17.0</ns3:atemp>
          </ns3:TrackPointExtension>
        </extensions>
      </trkpt>
      <trkpt lat="42.6249848864972591400146484375" lon="19.88024580292403697967529296875">
        <ele>1746.800048828125</ele>
        <time>2026-06-16T08:28:40.000Z</time>
        <extensions>
          <ns3:TrackPointExtension>
            <ns3:atemp>17.0</ns3:atemp>
          </ns3:TrackPointExtension>
        </extensions>
      </trkpt>
      <trkpt lat="42.6249848864972591400146484375" lon="19.88024580292403697967529296875">
        <ele>1746.800048828125</ele>
        <time>2026-06-16T08:28:41.000Z</time>
        <extensions>
          <ns3:TrackPointExtension>
            <ns3:atemp>17.0</ns3:atemp>
          </ns3:TrackPointExtension>
        </extensions>
      </trkpt>
      <trkpt lat="42.6249848864972591400146484375" lon="19.88024580292403697967529296875">
        <ele>1746.800048828125</ele>
        <time>2026-06-16T08:28:42.000Z</time>
        <extensions>
          <ns3:TrackPointExtension>
            <ns3:atemp>17.0</ns3:atemp>
          </ns3:TrackPointExtension>
        </extensions>
      </trkpt>
      <trkpt lat="42.6249848864972591400146484375" lon="19.88024580292403697967529296875">
        <ele>1746.800048828125</ele>
        <time>2026-06-16T08:28:43.000Z</time>
        <extensions>
          <ns3:TrackPointExtension>
            <ns3:atemp>17.0</ns3:atemp>
          </ns3:TrackPointExtension>
        </extensions>
      </trkpt>
      <trkpt lat="42.6249848864972591400146484375" lon="19.88024580292403697967529296875">
        <ele>1746.800048828125</ele>
        <time>2026-06-16T08:28:44.000Z</time>
        <extensions>
          <ns3:TrackPointExtension>
            <ns3:atemp>17.0</ns3:atemp>
          </ns3:TrackPointExtension>
        </extensions>
      </trkpt>
      <trkpt lat="42.6249848864972591400146484375" lon="19.88024580292403697967529296875">
        <ele>1746.800048828125</ele>
        <time>2026-06-16T08:28:45.000Z</time>
        <extensions>
          <ns3:TrackPointExtension>
            <ns3:atemp>17.0</ns3:atemp>
          </ns3:TrackPointExtension>
        </extensions>
      </trkpt>
      <trkpt lat="42.6249848864972591400146484375" lon="19.88024580292403697967529296875">
        <ele>1746.800048828125</ele>
        <time>2026-06-16T08:28:46.000Z</time>
        <extensions>
          <ns3:TrackPointExtension>
            <ns3:atemp>17.0</ns3:atemp>
          </ns3:TrackPointExtension>
        </extensions>
      </trkpt>
      <trkpt lat="42.6249848864972591400146484375" lon="19.88024580292403697967529296875">
        <ele>1746.800048828125</ele>
        <time>2026-06-16T08:28:47.000Z</time>
        <extensions>
          <ns3:TrackPointExtension>
            <ns3:atemp>17.0</ns3:atemp>
          </ns3:TrackPointExtension>
        </extensions>
      </trkpt>
      <trkpt lat="42.6249848864972591400146484375" lon="19.88024580292403697967529296875">
        <ele>1746.800048828125</ele>
        <time>2026-06-16T08:28:48.000Z</time>
        <extensions>
          <ns3:TrackPointExtension>
            <ns3:atemp>17.0</ns3:atemp>
          </ns3:TrackPointExtension>
        </extensions>
      </trkpt>
      <trkpt lat="42.6249848864972591400146484375" lon="19.88024580292403697967529296875">
        <ele>1746.800048828125</ele>
        <time>2026-06-16T08:28:49.000Z</time>
        <extensions>
          <ns3:TrackPointExtension>
            <ns3:atemp>17.0</ns3:atemp>
          </ns3:TrackPointExtension>
        </extensions>
      </trkpt>
      <trkpt lat="42.6249848864972591400146484375" lon="19.88024580292403697967529296875">
        <ele>1746.800048828125</ele>
        <time>2026-06-16T08:28:50.000Z</time>
        <extensions>
          <ns3:TrackPointExtension>
            <ns3:atemp>17.0</ns3:atemp>
          </ns3:TrackPointExtension>
        </extensions>
      </trkpt>
      <trkpt lat="42.6249848864972591400146484375" lon="19.88024580292403697967529296875">
        <ele>1746.800048828125</ele>
        <time>2026-06-16T08:28:51.000Z</time>
        <extensions>
          <ns3:TrackPointExtension>
            <ns3:atemp>17.0</ns3:atemp>
          </ns3:TrackPointExtension>
        </extensions>
      </trkpt>
      <trkpt lat="42.6249848864972591400146484375" lon="19.88024580292403697967529296875">
        <ele>1746.800048828125</ele>
        <time>2026-06-16T08:28:52.000Z</time>
        <extensions>
          <ns3:TrackPointExtension>
            <ns3:atemp>17.0</ns3:atemp>
          </ns3:TrackPointExtension>
        </extensions>
      </trkpt>
      <trkpt lat="42.6249848864972591400146484375" lon="19.88024580292403697967529296875">
        <ele>1746.800048828125</ele>
        <time>2026-06-16T08:28:53.000Z</time>
        <extensions>
          <ns3:TrackPointExtension>
            <ns3:atemp>17.0</ns3:atemp>
          </ns3:TrackPointExtension>
        </extensions>
      </trkpt>
      <trkpt lat="42.6249848864972591400146484375" lon="19.88024580292403697967529296875">
        <ele>1746.800048828125</ele>
        <time>2026-06-16T08:28:54.000Z</time>
        <extensions>
          <ns3:TrackPointExtension>
            <ns3:atemp>17.0</ns3:atemp>
          </ns3:TrackPointExtension>
        </extensions>
      </trkpt>
      <trkpt lat="42.6249848864972591400146484375" lon="19.88024580292403697967529296875">
        <ele>1746.800048828125</ele>
        <time>2026-06-16T08:28:55.000Z</time>
        <extensions>
          <ns3:TrackPointExtension>
            <ns3:atemp>17.0</ns3:atemp>
          </ns3:TrackPointExtension>
        </extensions>
      </trkpt>
      <trkpt lat="42.6249848864972591400146484375" lon="19.88024580292403697967529296875">
        <ele>1746.800048828125</ele>
        <time>2026-06-16T08:28:56.000Z</time>
        <extensions>
          <ns3:TrackPointExtension>
            <ns3:atemp>17.0</ns3:atemp>
          </ns3:TrackPointExtension>
        </extensions>
      </trkpt>
      <trkpt lat="42.6249848864972591400146484375" lon="19.88024580292403697967529296875">
        <ele>1746.800048828125</ele>
        <time>2026-06-16T08:28:57.000Z</time>
        <extensions>
          <ns3:TrackPointExtension>
            <ns3:atemp>17.0</ns3:atemp>
          </ns3:TrackPointExtension>
        </extensions>
      </trkpt>
      <trkpt lat="42.6249848864972591400146484375" lon="19.88024580292403697967529296875">
        <ele>1746.800048828125</ele>
        <time>2026-06-16T08:28:58.000Z</time>
        <extensions>
          <ns3:TrackPointExtension>
            <ns3:atemp>17.0</ns3:atemp>
          </ns3:TrackPointExtension>
        </extensions>
      </trkpt>
      <trkpt lat="42.6249848864972591400146484375" lon="19.88024580292403697967529296875">
        <ele>1746.800048828125</ele>
        <time>2026-06-16T08:28:59.000Z</time>
        <extensions>
          <ns3:TrackPointExtension>
            <ns3:atemp>17.0</ns3:atemp>
          </ns3:TrackPointExtension>
        </extensions>
      </trkpt>
      <trkpt lat="42.6249848864972591400146484375" lon="19.88024580292403697967529296875">
        <ele>1746.800048828125</ele>
        <time>2026-06-16T08:29:00.000Z</time>
        <extensions>
          <ns3:TrackPointExtension>
            <ns3:atemp>17.0</ns3:atemp>
          </ns3:TrackPointExtension>
        </extensions>
      </trkpt>
      <trkpt lat="42.6249848864972591400146484375" lon="19.88024580292403697967529296875">
        <ele>1746.800048828125</ele>
        <time>2026-06-16T08:29:01.000Z</time>
        <extensions>
          <ns3:TrackPointExtension>
            <ns3:atemp>17.0</ns3:atemp>
          </ns3:TrackPointExtension>
        </extensions>
      </trkpt>
      <trkpt lat="42.6249848864972591400146484375" lon="19.88024580292403697967529296875">
        <ele>1746.800048828125</ele>
        <time>2026-06-16T08:29:02.000Z</time>
        <extensions>
          <ns3:TrackPointExtension>
            <ns3:atemp>17.0</ns3:atemp>
          </ns3:TrackPointExtension>
        </extensions>
      </trkpt>
      <trkpt lat="42.6249848864972591400146484375" lon="19.88024580292403697967529296875">
        <ele>1746.800048828125</ele>
        <time>2026-06-16T08:29:03.000Z</time>
        <extensions>
          <ns3:TrackPointExtension>
            <ns3:atemp>17.0</ns3:atemp>
          </ns3:TrackPointExtension>
        </extensions>
      </trkpt>
      <trkpt lat="42.6249848864972591400146484375" lon="19.88024580292403697967529296875">
        <ele>1746.800048828125</ele>
        <time>2026-06-16T08:29:04.000Z</time>
        <extensions>
          <ns3:TrackPointExtension>
            <ns3:atemp>17.0</ns3:atemp>
          </ns3:TrackPointExtension>
        </extensions>
      </trkpt>
      <trkpt lat="42.6249848864972591400146484375" lon="19.88024580292403697967529296875">
        <ele>1746.800048828125</ele>
        <time>2026-06-16T08:29:05.000Z</time>
        <extensions>
          <ns3:TrackPointExtension>
            <ns3:atemp>17.0</ns3:atemp>
          </ns3:TrackPointExtension>
        </extensions>
      </trkpt>
      <trkpt lat="42.6249848864972591400146484375" lon="19.88024580292403697967529296875">
        <ele>1746.800048828125</ele>
        <time>2026-06-16T08:29:06.000Z</time>
        <extensions>
          <ns3:TrackPointExtension>
            <ns3:atemp>17.0</ns3:atemp>
          </ns3:TrackPointExtension>
        </extensions>
      </trkpt>
      <trkpt lat="42.6249848864972591400146484375" lon="19.88024580292403697967529296875">
        <ele>1746.800048828125</ele>
        <time>2026-06-16T08:29:07.000Z</time>
        <extensions>
          <ns3:TrackPointExtension>
            <ns3:atemp>17.0</ns3:atemp>
          </ns3:TrackPointExtension>
        </extensions>
      </trkpt>
      <trkpt lat="42.6249848864972591400146484375" lon="19.88024580292403697967529296875">
        <ele>1746.800048828125</ele>
        <time>2026-06-16T08:29:08.000Z</time>
        <extensions>
          <ns3:TrackPointExtension>
            <ns3:atemp>17.0</ns3:atemp>
          </ns3:TrackPointExtension>
        </extensions>
      </trkpt>
      <trkpt lat="42.6249848864972591400146484375" lon="19.88024580292403697967529296875">
        <ele>1746.800048828125</ele>
        <time>2026-06-16T08:29:09.000Z</time>
        <extensions>
          <ns3:TrackPointExtension>
            <ns3:atemp>17.0</ns3:atemp>
          </ns3:TrackPointExtension>
        </extensions>
      </trkpt>
      <trkpt lat="42.6249848864972591400146484375" lon="19.88024580292403697967529296875">
        <ele>1746.800048828125</ele>
        <time>2026-06-16T08:29:10.000Z</time>
        <extensions>
          <ns3:TrackPointExtension>
            <ns3:atemp>17.0</ns3:atemp>
          </ns3:TrackPointExtension>
        </extensions>
      </trkpt>
      <trkpt lat="42.6249848864972591400146484375" lon="19.88024580292403697967529296875">
        <ele>1746.800048828125</ele>
        <time>2026-06-16T08:29:11.000Z</time>
        <extensions>
          <ns3:TrackPointExtension>
            <ns3:atemp>17.0</ns3:atemp>
          </ns3:TrackPointExtension>
        </extensions>
      </trkpt>
      <trkpt lat="42.6249848864972591400146484375" lon="19.88024580292403697967529296875">
        <ele>1746.800048828125</ele>
        <time>2026-06-16T08:29:12.000Z</time>
        <extensions>
          <ns3:TrackPointExtension>
            <ns3:atemp>17.0</ns3:atemp>
          </ns3:TrackPointExtension>
        </extensions>
      </trkpt>
      <trkpt lat="42.6249848864972591400146484375" lon="19.88024580292403697967529296875">
        <ele>1746.800048828125</ele>
        <time>2026-06-16T08:29:13.000Z</time>
        <extensions>
          <ns3:TrackPointExtension>
            <ns3:atemp>17.0</ns3:atemp>
          </ns3:TrackPointExtension>
        </extensions>
      </trkpt>
      <trkpt lat="42.6249848864972591400146484375" lon="19.88024580292403697967529296875">
        <ele>1746.800048828125</ele>
        <time>2026-06-16T08:29:14.000Z</time>
        <extensions>
          <ns3:TrackPointExtension>
            <ns3:atemp>17.0</ns3:atemp>
          </ns3:TrackPointExtension>
        </extensions>
      </trkpt>
      <trkpt lat="42.6249848864972591400146484375" lon="19.88024580292403697967529296875">
        <ele>1746.800048828125</ele>
        <time>2026-06-16T08:29:15.000Z</time>
        <extensions>
          <ns3:TrackPointExtension>
            <ns3:atemp>17.0</ns3:atemp>
          </ns3:TrackPointExtension>
        </extensions>
      </trkpt>
      <trkpt lat="42.6249848864972591400146484375" lon="19.88024580292403697967529296875">
        <ele>1746.800048828125</ele>
        <time>2026-06-16T08:29:16.000Z</time>
        <extensions>
          <ns3:TrackPointExtension>
            <ns3:atemp>17.0</ns3:atemp>
          </ns3:TrackPointExtension>
        </extensions>
      </trkpt>
      <trkpt lat="42.6249848864972591400146484375" lon="19.88024580292403697967529296875">
        <ele>1746.800048828125</ele>
        <time>2026-06-16T08:29:17.000Z</time>
        <extensions>
          <ns3:TrackPointExtension>
            <ns3:atemp>17.0</ns3:atemp>
          </ns3:TrackPointExtension>
        </extensions>
      </trkpt>
      <trkpt lat="42.6249848864972591400146484375" lon="19.88024580292403697967529296875">
        <ele>1746.800048828125</ele>
        <time>2026-06-16T08:29:18.000Z</time>
        <extensions>
          <ns3:TrackPointExtension>
            <ns3:atemp>17.0</ns3:atemp>
          </ns3:TrackPointExtension>
        </extensions>
      </trkpt>
      <trkpt lat="42.6249848864972591400146484375" lon="19.88024580292403697967529296875">
        <ele>1746.800048828125</ele>
        <time>2026-06-16T08:29:19.000Z</time>
        <extensions>
          <ns3:TrackPointExtension>
            <ns3:atemp>17.0</ns3:atemp>
          </ns3:TrackPointExtension>
        </extensions>
      </trkpt>
      <trkpt lat="42.6249848864972591400146484375" lon="19.88024580292403697967529296875">
        <ele>1746.800048828125</ele>
        <time>2026-06-16T08:29:20.000Z</time>
        <extensions>
          <ns3:TrackPointExtension>
            <ns3:atemp>17.0</ns3:atemp>
          </ns3:TrackPointExtension>
        </extensions>
      </trkpt>
      <trkpt lat="42.6249848864972591400146484375" lon="19.88024580292403697967529296875">
        <ele>1746.800048828125</ele>
        <time>2026-06-16T08:29:21.000Z</time>
        <extensions>
          <ns3:TrackPointExtension>
            <ns3:atemp>17.0</ns3:atemp>
          </ns3:TrackPointExtension>
        </extensions>
      </trkpt>
      <trkpt lat="42.6249848864972591400146484375" lon="19.88024580292403697967529296875">
        <ele>1746.800048828125</ele>
        <time>2026-06-16T08:29:22.000Z</time>
        <extensions>
          <ns3:TrackPointExtension>
            <ns3:atemp>17.0</ns3:atemp>
          </ns3:TrackPointExtension>
        </extensions>
      </trkpt>
      <trkpt lat="42.6249848864972591400146484375" lon="19.88024580292403697967529296875">
        <ele>1746.800048828125</ele>
        <time>2026-06-16T08:29:23.000Z</time>
        <extensions>
          <ns3:TrackPointExtension>
            <ns3:atemp>17.0</ns3:atemp>
          </ns3:TrackPointExtension>
        </extensions>
      </trkpt>
      <trkpt lat="42.6249848864972591400146484375" lon="19.88024580292403697967529296875">
        <ele>1746.800048828125</ele>
        <time>2026-06-16T08:29:24.000Z</time>
        <extensions>
          <ns3:TrackPointExtension>
            <ns3:atemp>17.0</ns3:atemp>
          </ns3:TrackPointExtension>
        </extensions>
      </trkpt>
      <trkpt lat="42.6249848864972591400146484375" lon="19.88024580292403697967529296875">
        <ele>1746.800048828125</ele>
        <time>2026-06-16T08:29:25.000Z</time>
        <extensions>
          <ns3:TrackPointExtension>
            <ns3:atemp>17.0</ns3:atemp>
          </ns3:TrackPointExtension>
        </extensions>
      </trkpt>
      <trkpt lat="42.6249848864972591400146484375" lon="19.88024580292403697967529296875">
        <ele>1746.800048828125</ele>
        <time>2026-06-16T08:29:26.000Z</time>
        <extensions>
          <ns3:TrackPointExtension>
            <ns3:atemp>17.0</ns3:atemp>
          </ns3:TrackPointExtension>
        </extensions>
      </trkpt>
      <trkpt lat="42.6249848864972591400146484375" lon="19.88024580292403697967529296875">
        <ele>1746.800048828125</ele>
        <time>2026-06-16T08:29:27.000Z</time>
        <extensions>
          <ns3:TrackPointExtension>
            <ns3:atemp>17.0</ns3:atemp>
          </ns3:TrackPointExtension>
        </extensions>
      </trkpt>
      <trkpt lat="42.6249848864972591400146484375" lon="19.88024580292403697967529296875">
        <ele>1746.800048828125</ele>
        <time>2026-06-16T08:29:28.000Z</time>
        <extensions>
          <ns3:TrackPointExtension>
            <ns3:atemp>17.0</ns3:atemp>
          </ns3:TrackPointExtension>
        </extensions>
      </trkpt>
      <trkpt lat="42.6249848864972591400146484375" lon="19.88024580292403697967529296875">
        <ele>1746.800048828125</ele>
        <time>2026-06-16T08:29:29.000Z</time>
        <extensions>
          <ns3:TrackPointExtension>
            <ns3:atemp>17.0</ns3:atemp>
          </ns3:TrackPointExtension>
        </extensions>
      </trkpt>
      <trkpt lat="42.6249848864972591400146484375" lon="19.88024580292403697967529296875">
        <ele>1746.800048828125</ele>
        <time>2026-06-16T08:29:30.000Z</time>
        <extensions>
          <ns3:TrackPointExtension>
            <ns3:atemp>17.0</ns3:atemp>
          </ns3:TrackPointExtension>
        </extensions>
      </trkpt>
      <trkpt lat="42.6249848864972591400146484375" lon="19.88024580292403697967529296875">
        <ele>1746.800048828125</ele>
        <time>2026-06-16T08:29:31.000Z</time>
        <extensions>
          <ns3:TrackPointExtension>
            <ns3:atemp>17.0</ns3:atemp>
          </ns3:TrackPointExtension>
        </extensions>
      </trkpt>
      <trkpt lat="42.6249848864972591400146484375" lon="19.88024580292403697967529296875">
        <ele>1746.800048828125</ele>
        <time>2026-06-16T08:29:32.000Z</time>
        <extensions>
          <ns3:TrackPointExtension>
            <ns3:atemp>17.0</ns3:atemp>
          </ns3:TrackPointExtension>
        </extensions>
      </trkpt>
      <trkpt lat="42.6249848864972591400146484375" lon="19.88024580292403697967529296875">
        <ele>1746.800048828125</ele>
        <time>2026-06-16T08:29:33.000Z</time>
        <extensions>
          <ns3:TrackPointExtension>
            <ns3:atemp>17.0</ns3:atemp>
          </ns3:TrackPointExtension>
        </extensions>
      </trkpt>
      <trkpt lat="42.6249848864972591400146484375" lon="19.88024580292403697967529296875">
        <ele>1746.800048828125</ele>
        <time>2026-06-16T08:29:34.000Z</time>
        <extensions>
          <ns3:TrackPointExtension>
            <ns3:atemp>17.0</ns3:atemp>
          </ns3:TrackPointExtension>
        </extensions>
      </trkpt>
      <trkpt lat="42.6249848864972591400146484375" lon="19.88024580292403697967529296875">
        <ele>1746.800048828125</ele>
        <time>2026-06-16T08:29:35.000Z</time>
        <extensions>
          <ns3:TrackPointExtension>
            <ns3:atemp>17.0</ns3:atemp>
          </ns3:TrackPointExtension>
        </extensions>
      </trkpt>
      <trkpt lat="42.6249848864972591400146484375" lon="19.88024580292403697967529296875">
        <ele>1746.800048828125</ele>
        <time>2026-06-16T08:29:36.000Z</time>
        <extensions>
          <ns3:TrackPointExtension>
            <ns3:atemp>17.0</ns3:atemp>
          </ns3:TrackPointExtension>
        </extensions>
      </trkpt>
      <trkpt lat="42.6249848864972591400146484375" lon="19.88024580292403697967529296875">
        <ele>1746.800048828125</ele>
        <time>2026-06-16T08:29:37.000Z</time>
        <extensions>
          <ns3:TrackPointExtension>
            <ns3:atemp>17.0</ns3:atemp>
          </ns3:TrackPointExtension>
        </extensions>
      </trkpt>
      <trkpt lat="42.6249848864972591400146484375" lon="19.88024580292403697967529296875">
        <ele>1746.800048828125</ele>
        <time>2026-06-16T08:29:38.000Z</time>
        <extensions>
          <ns3:TrackPointExtension>
            <ns3:atemp>17.0</ns3:atemp>
          </ns3:TrackPointExtension>
        </extensions>
      </trkpt>
      <trkpt lat="42.6249848864972591400146484375" lon="19.88024580292403697967529296875">
        <ele>1746.800048828125</ele>
        <time>2026-06-16T08:29:39.000Z</time>
        <extensions>
          <ns3:TrackPointExtension>
            <ns3:atemp>17.0</ns3:atemp>
          </ns3:TrackPointExtension>
        </extensions>
      </trkpt>
      <trkpt lat="42.6249848864972591400146484375" lon="19.88024580292403697967529296875">
        <ele>1746.800048828125</ele>
        <time>2026-06-16T08:29:40.000Z</time>
        <extensions>
          <ns3:TrackPointExtension>
            <ns3:atemp>17.0</ns3:atemp>
          </ns3:TrackPointExtension>
        </extensions>
      </trkpt>
      <trkpt lat="42.6249848864972591400146484375" lon="19.88024580292403697967529296875">
        <ele>1746.800048828125</ele>
        <time>2026-06-16T08:29:41.000Z</time>
        <extensions>
          <ns3:TrackPointExtension>
            <ns3:atemp>17.0</ns3:atemp>
          </ns3:TrackPointExtension>
        </extensions>
      </trkpt>
      <trkpt lat="42.6249848864972591400146484375" lon="19.88024580292403697967529296875">
        <ele>1746.800048828125</ele>
        <time>2026-06-16T08:29:42.000Z</time>
        <extensions>
          <ns3:TrackPointExtension>
            <ns3:atemp>17.0</ns3:atemp>
          </ns3:TrackPointExtension>
        </extensions>
      </trkpt>
      <trkpt lat="42.6249848864972591400146484375" lon="19.88024580292403697967529296875">
        <ele>1746.800048828125</ele>
        <time>2026-06-16T08:29:43.000Z</time>
        <extensions>
          <ns3:TrackPointExtension>
            <ns3:atemp>17.0</ns3:atemp>
          </ns3:TrackPointExtension>
        </extensions>
      </trkpt>
      <trkpt lat="42.6249848864972591400146484375" lon="19.88024580292403697967529296875">
        <ele>1746.800048828125</ele>
        <time>2026-06-16T08:29:44.000Z</time>
        <extensions>
          <ns3:TrackPointExtension>
            <ns3:atemp>17.0</ns3:atemp>
          </ns3:TrackPointExtension>
        </extensions>
      </trkpt>
      <trkpt lat="42.6249848864972591400146484375" lon="19.88024580292403697967529296875">
        <ele>1746.800048828125</ele>
        <time>2026-06-16T08:29:45.000Z</time>
        <extensions>
          <ns3:TrackPointExtension>
            <ns3:atemp>17.0</ns3:atemp>
          </ns3:TrackPointExtension>
        </extensions>
      </trkpt>
      <trkpt lat="42.6249848864972591400146484375" lon="19.88024580292403697967529296875">
        <ele>1746.800048828125</ele>
        <time>2026-06-16T08:29:46.000Z</time>
        <extensions>
          <ns3:TrackPointExtension>
            <ns3:atemp>17.0</ns3:atemp>
          </ns3:TrackPointExtension>
        </extensions>
      </trkpt>
      <trkpt lat="42.6249848864972591400146484375" lon="19.88024580292403697967529296875">
        <ele>1746.800048828125</ele>
        <time>2026-06-16T08:29:47.000Z</time>
        <extensions>
          <ns3:TrackPointExtension>
            <ns3:atemp>17.0</ns3:atemp>
          </ns3:TrackPointExtension>
        </extensions>
      </trkpt>
      <trkpt lat="42.6249848864972591400146484375" lon="19.88024580292403697967529296875">
        <ele>1746.800048828125</ele>
        <time>2026-06-16T08:29:48.000Z</time>
        <extensions>
          <ns3:TrackPointExtension>
            <ns3:atemp>17.0</ns3:atemp>
          </ns3:TrackPointExtension>
        </extensions>
      </trkpt>
      <trkpt lat="42.6249848864972591400146484375" lon="19.88024580292403697967529296875">
        <ele>1746.800048828125</ele>
        <time>2026-06-16T08:29:49.000Z</time>
        <extensions>
          <ns3:TrackPointExtension>
            <ns3:atemp>17.0</ns3:atemp>
          </ns3:TrackPointExtension>
        </extensions>
      </trkpt>
      <trkpt lat="42.6249848864972591400146484375" lon="19.88024580292403697967529296875">
        <ele>1746.800048828125</ele>
        <time>2026-06-16T08:29:50.000Z</time>
        <extensions>
          <ns3:TrackPointExtension>
            <ns3:atemp>17.0</ns3:atemp>
          </ns3:TrackPointExtension>
        </extensions>
      </trkpt>
      <trkpt lat="42.6249848864972591400146484375" lon="19.88024580292403697967529296875">
        <ele>1746.800048828125</ele>
        <time>2026-06-16T08:29:51.000Z</time>
        <extensions>
          <ns3:TrackPointExtension>
            <ns3:atemp>17.0</ns3:atemp>
          </ns3:TrackPointExtension>
        </extensions>
      </trkpt>
      <trkpt lat="42.6249848864972591400146484375" lon="19.88024580292403697967529296875">
        <ele>1746.800048828125</ele>
        <time>2026-06-16T08:29:52.000Z</time>
        <extensions>
          <ns3:TrackPointExtension>
            <ns3:atemp>17.0</ns3:atemp>
          </ns3:TrackPointExtension>
        </extensions>
      </trkpt>
      <trkpt lat="42.6249848864972591400146484375" lon="19.88024580292403697967529296875">
        <ele>1746.800048828125</ele>
        <time>2026-06-16T08:29:53.000Z</time>
        <extensions>
          <ns3:TrackPointExtension>
            <ns3:atemp>17.0</ns3:atemp>
          </ns3:TrackPointExtension>
        </extensions>
      </trkpt>
      <trkpt lat="42.6249848864972591400146484375" lon="19.88024580292403697967529296875">
        <ele>1746.800048828125</ele>
        <time>2026-06-16T08:29:54.000Z</time>
        <extensions>
          <ns3:TrackPointExtension>
            <ns3:atemp>17.0</ns3:atemp>
          </ns3:TrackPointExtension>
        </extensions>
      </trkpt>
      <trkpt lat="42.6249848864972591400146484375" lon="19.88024580292403697967529296875">
        <ele>1746.800048828125</ele>
        <time>2026-06-16T08:29:55.000Z</time>
        <extensions>
          <ns3:TrackPointExtension>
            <ns3:atemp>17.0</ns3:atemp>
          </ns3:TrackPointExtension>
        </extensions>
      </trkpt>
      <trkpt lat="42.6249848864972591400146484375" lon="19.88024580292403697967529296875">
        <ele>1746.800048828125</ele>
        <time>2026-06-16T08:29:56.000Z</time>
        <extensions>
          <ns3:TrackPointExtension>
            <ns3:atemp>17.0</ns3:atemp>
          </ns3:TrackPointExtension>
        </extensions>
      </trkpt>
      <trkpt lat="42.6249848864972591400146484375" lon="19.88024580292403697967529296875">
        <ele>1746.800048828125</ele>
        <time>2026-06-16T08:29:57.000Z</time>
        <extensions>
          <ns3:TrackPointExtension>
            <ns3:atemp>17.0</ns3:atemp>
          </ns3:TrackPointExtension>
        </extensions>
      </trkpt>
      <trkpt lat="42.6249848864972591400146484375" lon="19.88024580292403697967529296875">
        <ele>1746.800048828125</ele>
        <time>2026-06-16T08:29:58.000Z</time>
        <extensions>
          <ns3:TrackPointExtension>
            <ns3:atemp>17.0</ns3:atemp>
          </ns3:TrackPointExtension>
        </extensions>
      </trkpt>
      <trkpt lat="42.6249848864972591400146484375" lon="19.88024580292403697967529296875">
        <ele>1746.800048828125</ele>
        <time>2026-06-16T08:29:59.000Z</time>
        <extensions>
          <ns3:TrackPointExtension>
            <ns3:atemp>17.0</ns3:atemp>
          </ns3:TrackPointExtension>
        </extensions>
      </trkpt>
      <trkpt lat="42.6249848864972591400146484375" lon="19.88024580292403697967529296875">
        <ele>1746.800048828125</ele>
        <time>2026-06-16T08:30:00.000Z</time>
        <extensions>
          <ns3:TrackPointExtension>
            <ns3:atemp>17.0</ns3:atemp>
          </ns3:TrackPointExtension>
        </extensions>
      </trkpt>
      <trkpt lat="42.6249848864972591400146484375" lon="19.88024580292403697967529296875">
        <ele>1746.800048828125</ele>
        <time>2026-06-16T08:30:01.000Z</time>
        <extensions>
          <ns3:TrackPointExtension>
            <ns3:atemp>17.0</ns3:atemp>
          </ns3:TrackPointExtension>
        </extensions>
      </trkpt>
      <trkpt lat="42.6249848864972591400146484375" lon="19.88024580292403697967529296875">
        <ele>1746.800048828125</ele>
        <time>2026-06-16T08:30:02.000Z</time>
        <extensions>
          <ns3:TrackPointExtension>
            <ns3:atemp>17.0</ns3:atemp>
          </ns3:TrackPointExtension>
        </extensions>
      </trkpt>
      <trkpt lat="42.6249848864972591400146484375" lon="19.88024580292403697967529296875">
        <ele>1746.800048828125</ele>
        <time>2026-06-16T08:30:03.000Z</time>
        <extensions>
          <ns3:TrackPointExtension>
            <ns3:atemp>17.0</ns3:atemp>
          </ns3:TrackPointExtension>
        </extensions>
      </trkpt>
      <trkpt lat="42.6249848864972591400146484375" lon="19.88024580292403697967529296875">
        <ele>1746.800048828125</ele>
        <time>2026-06-16T08:30:04.000Z</time>
        <extensions>
          <ns3:TrackPointExtension>
            <ns3:atemp>17.0</ns3:atemp>
          </ns3:TrackPointExtension>
        </extensions>
      </trkpt>
      <trkpt lat="42.6249848864972591400146484375" lon="19.88024580292403697967529296875">
        <ele>1746.800048828125</ele>
        <time>2026-06-16T08:30:05.000Z</time>
        <extensions>
          <ns3:TrackPointExtension>
            <ns3:atemp>17.0</ns3:atemp>
          </ns3:TrackPointExtension>
        </extensions>
      </trkpt>
      <trkpt lat="42.6249848864972591400146484375" lon="19.88024580292403697967529296875">
        <ele>1746.800048828125</ele>
        <time>2026-06-16T08:30:06.000Z</time>
        <extensions>
          <ns3:TrackPointExtension>
            <ns3:atemp>17.0</ns3:atemp>
          </ns3:TrackPointExtension>
        </extensions>
      </trkpt>
      <trkpt lat="42.6249848864972591400146484375" lon="19.88024580292403697967529296875">
        <ele>1746.800048828125</ele>
        <time>2026-06-16T08:30:07.000Z</time>
        <extensions>
          <ns3:TrackPointExtension>
            <ns3:atemp>17.0</ns3:atemp>
          </ns3:TrackPointExtension>
        </extensions>
      </trkpt>
      <trkpt lat="42.6249848864972591400146484375" lon="19.88024580292403697967529296875">
        <ele>1746.800048828125</ele>
        <time>2026-06-16T08:30:08.000Z</time>
        <extensions>
          <ns3:TrackPointExtension>
            <ns3:atemp>17.0</ns3:atemp>
          </ns3:TrackPointExtension>
        </extensions>
      </trkpt>
      <trkpt lat="42.6249848864972591400146484375" lon="19.88024580292403697967529296875">
        <ele>1746.800048828125</ele>
        <time>2026-06-16T08:30:09.000Z</time>
        <extensions>
          <ns3:TrackPointExtension>
            <ns3:atemp>17.0</ns3:atemp>
          </ns3:TrackPointExtension>
        </extensions>
      </trkpt>
      <trkpt lat="42.6249848864972591400146484375" lon="19.88024580292403697967529296875">
        <ele>1746.800048828125</ele>
        <time>2026-06-16T08:30:10.000Z</time>
        <extensions>
          <ns3:TrackPointExtension>
            <ns3:atemp>17.0</ns3:atemp>
          </ns3:TrackPointExtension>
        </extensions>
      </trkpt>
      <trkpt lat="42.6249848864972591400146484375" lon="19.88024580292403697967529296875">
        <ele>1746.800048828125</ele>
        <time>2026-06-16T08:30:11.000Z</time>
        <extensions>
          <ns3:TrackPointExtension>
            <ns3:atemp>17.0</ns3:atemp>
          </ns3:TrackPointExtension>
        </extensions>
      </trkpt>
      <trkpt lat="42.6249848864972591400146484375" lon="19.88024580292403697967529296875">
        <ele>1746.800048828125</ele>
        <time>2026-06-16T08:30:12.000Z</time>
        <extensions>
          <ns3:TrackPointExtension>
            <ns3:atemp>17.0</ns3:atemp>
          </ns3:TrackPointExtension>
        </extensions>
      </trkpt>
      <trkpt lat="42.6249848864972591400146484375" lon="19.88024580292403697967529296875">
        <ele>1746.800048828125</ele>
        <time>2026-06-16T08:30:13.000Z</time>
        <extensions>
          <ns3:TrackPointExtension>
            <ns3:atemp>17.0</ns3:atemp>
          </ns3:TrackPointExtension>
        </extensions>
      </trkpt>
      <trkpt lat="42.6249848864972591400146484375" lon="19.88024580292403697967529296875">
        <ele>1746.800048828125</ele>
        <time>2026-06-16T08:30:14.000Z</time>
        <extensions>
          <ns3:TrackPointExtension>
            <ns3:atemp>17.0</ns3:atemp>
          </ns3:TrackPointExtension>
        </extensions>
      </trkpt>
      <trkpt lat="42.6249848864972591400146484375" lon="19.88024580292403697967529296875">
        <ele>1746.800048828125</ele>
        <time>2026-06-16T08:30:15.000Z</time>
        <extensions>
          <ns3:TrackPointExtension>
            <ns3:atemp>17.0</ns3:atemp>
          </ns3:TrackPointExtension>
        </extensions>
      </trkpt>
      <trkpt lat="42.6249848864972591400146484375" lon="19.88024580292403697967529296875">
        <ele>1746.800048828125</ele>
        <time>2026-06-16T08:30:16.000Z</time>
        <extensions>
          <ns3:TrackPointExtension>
            <ns3:atemp>17.0</ns3:atemp>
          </ns3:TrackPointExtension>
        </extensions>
      </trkpt>
      <trkpt lat="42.6249848864972591400146484375" lon="19.88024580292403697967529296875">
        <ele>1746.800048828125</ele>
        <time>2026-06-16T08:30:17.000Z</time>
        <extensions>
          <ns3:TrackPointExtension>
            <ns3:atemp>17.0</ns3:atemp>
          </ns3:TrackPointExtension>
        </extensions>
      </trkpt>
      <trkpt lat="42.6249848864972591400146484375" lon="19.88024580292403697967529296875">
        <ele>1746.800048828125</ele>
        <time>2026-06-16T08:30:18.000Z</time>
        <extensions>
          <ns3:TrackPointExtension>
            <ns3:atemp>17.0</ns3:atemp>
          </ns3:TrackPointExtension>
        </extensions>
      </trkpt>
      <trkpt lat="42.6249848864972591400146484375" lon="19.88024580292403697967529296875">
        <ele>1746.800048828125</ele>
        <time>2026-06-16T08:30:19.000Z</time>
        <extensions>
          <ns3:TrackPointExtension>
            <ns3:atemp>17.0</ns3:atemp>
          </ns3:TrackPointExtension>
        </extensions>
      </trkpt>
      <trkpt lat="42.6249848864972591400146484375" lon="19.88024580292403697967529296875">
        <ele>1746.800048828125</ele>
        <time>2026-06-16T08:30:20.000Z</time>
        <extensions>
          <ns3:TrackPointExtension>
            <ns3:atemp>17.0</ns3:atemp>
          </ns3:TrackPointExtension>
        </extensions>
      </trkpt>
      <trkpt lat="42.6249848864972591400146484375" lon="19.88024580292403697967529296875">
        <ele>1746.800048828125</ele>
        <time>2026-06-16T08:30:21.000Z</time>
        <extensions>
          <ns3:TrackPointExtension>
            <ns3:atemp>17.0</ns3:atemp>
          </ns3:TrackPointExtension>
        </extensions>
      </trkpt>
      <trkpt lat="42.6249848864972591400146484375" lon="19.88024580292403697967529296875">
        <ele>1746.800048828125</ele>
        <time>2026-06-16T08:30:22.000Z</time>
        <extensions>
          <ns3:TrackPointExtension>
            <ns3:atemp>17.0</ns3:atemp>
          </ns3:TrackPointExtension>
        </extensions>
      </trkpt>
      <trkpt lat="42.6249848864972591400146484375" lon="19.88024580292403697967529296875">
        <ele>1746.800048828125</ele>
        <time>2026-06-16T08:30:23.000Z</time>
        <extensions>
          <ns3:TrackPointExtension>
            <ns3:atemp>17.0</ns3:atemp>
          </ns3:TrackPointExtension>
        </extensions>
      </trkpt>
      <trkpt lat="42.6249848864972591400146484375" lon="19.88024580292403697967529296875">
        <ele>1746.800048828125</ele>
        <time>2026-06-16T08:30:24.000Z</time>
        <extensions>
          <ns3:TrackPointExtension>
            <ns3:atemp>17.0</ns3:atemp>
          </ns3:TrackPointExtension>
        </extensions>
      </trkpt>
      <trkpt lat="42.6249848864972591400146484375" lon="19.88024580292403697967529296875">
        <ele>1746.800048828125</ele>
        <time>2026-06-16T08:30:25.000Z</time>
        <extensions>
          <ns3:TrackPointExtension>
            <ns3:atemp>17.0</ns3:atemp>
          </ns3:TrackPointExtension>
        </extensions>
      </trkpt>
      <trkpt lat="42.6249848864972591400146484375" lon="19.88024580292403697967529296875">
        <ele>1746.800048828125</ele>
        <time>2026-06-16T08:30:26.000Z</time>
        <extensions>
          <ns3:TrackPointExtension>
            <ns3:atemp>17.0</ns3:atemp>
          </ns3:TrackPointExtension>
        </extensions>
      </trkpt>
      <trkpt lat="42.6249848864972591400146484375" lon="19.88024580292403697967529296875">
        <ele>1746.800048828125</ele>
        <time>2026-06-16T08:30:27.000Z</time>
        <extensions>
          <ns3:TrackPointExtension>
            <ns3:atemp>17.0</ns3:atemp>
          </ns3:TrackPointExtension>
        </extensions>
      </trkpt>
      <trkpt lat="42.6249848864972591400146484375" lon="19.88024580292403697967529296875">
        <ele>1746.800048828125</ele>
        <time>2026-06-16T08:30:28.000Z</time>
        <extensions>
          <ns3:TrackPointExtension>
            <ns3:atemp>17.0</ns3:atemp>
          </ns3:TrackPointExtension>
        </extensions>
      </trkpt>
      <trkpt lat="42.6249848864972591400146484375" lon="19.88024580292403697967529296875">
        <ele>1746.800048828125</ele>
        <time>2026-06-16T08:30:29.000Z</time>
        <extensions>
          <ns3:TrackPointExtension>
            <ns3:atemp>17.0</ns3:atemp>
          </ns3:TrackPointExtension>
        </extensions>
      </trkpt>
      <trkpt lat="42.6249848864972591400146484375" lon="19.88024580292403697967529296875">
        <ele>1746.800048828125</ele>
        <time>2026-06-16T08:30:30.000Z</time>
        <extensions>
          <ns3:TrackPointExtension>
            <ns3:atemp>17.0</ns3:atemp>
          </ns3:TrackPointExtension>
        </extensions>
      </trkpt>
      <trkpt lat="42.6249848864972591400146484375" lon="19.88024580292403697967529296875">
        <ele>1746.800048828125</ele>
        <time>2026-06-16T08:30:31.000Z</time>
        <extensions>
          <ns3:TrackPointExtension>
            <ns3:atemp>17.0</ns3:atemp>
          </ns3:TrackPointExtension>
        </extensions>
      </trkpt>
      <trkpt lat="42.6249848864972591400146484375" lon="19.88024580292403697967529296875">
        <ele>1746.800048828125</ele>
        <time>2026-06-16T08:30:32.000Z</time>
        <extensions>
          <ns3:TrackPointExtension>
            <ns3:atemp>17.0</ns3:atemp>
          </ns3:TrackPointExtension>
        </extensions>
      </trkpt>
      <trkpt lat="42.6249848864972591400146484375" lon="19.88024580292403697967529296875">
        <ele>1746.800048828125</ele>
        <time>2026-06-16T08:30:33.000Z</time>
        <extensions>
          <ns3:TrackPointExtension>
            <ns3:atemp>17.0</ns3:atemp>
          </ns3:TrackPointExtension>
        </extensions>
      </trkpt>
      <trkpt lat="42.6249848864972591400146484375" lon="19.88024580292403697967529296875">
        <ele>1746.800048828125</ele>
        <time>2026-06-16T08:30:34.000Z</time>
        <extensions>
          <ns3:TrackPointExtension>
            <ns3:atemp>17.0</ns3:atemp>
          </ns3:TrackPointExtension>
        </extensions>
      </trkpt>
      <trkpt lat="42.6249848864972591400146484375" lon="19.88024580292403697967529296875">
        <ele>1746.800048828125</ele>
        <time>2026-06-16T08:30:35.000Z</time>
        <extensions>
          <ns3:TrackPointExtension>
            <ns3:atemp>17.0</ns3:atemp>
          </ns3:TrackPointExtension>
        </extensions>
      </trkpt>
      <trkpt lat="42.6249848864972591400146484375" lon="19.88024580292403697967529296875">
        <ele>1746.800048828125</ele>
        <time>2026-06-16T08:30:36.000Z</time>
        <extensions>
          <ns3:TrackPointExtension>
            <ns3:atemp>17.0</ns3:atemp>
          </ns3:TrackPointExtension>
        </extensions>
      </trkpt>
      <trkpt lat="42.6249848864972591400146484375" lon="19.88024580292403697967529296875">
        <ele>1746.800048828125</ele>
        <time>2026-06-16T08:30:37.000Z</time>
        <extensions>
          <ns3:TrackPointExtension>
            <ns3:atemp>17.0</ns3:atemp>
          </ns3:TrackPointExtension>
        </extensions>
      </trkpt>
      <trkpt lat="42.6249848864972591400146484375" lon="19.88024580292403697967529296875">
        <ele>1746.800048828125</ele>
        <time>2026-06-16T08:30:38.000Z</time>
        <extensions>
          <ns3:TrackPointExtension>
            <ns3:atemp>17.0</ns3:atemp>
          </ns3:TrackPointExtension>
        </extensions>
      </trkpt>
      <trkpt lat="42.6249848864972591400146484375" lon="19.88024580292403697967529296875">
        <ele>1746.800048828125</ele>
        <time>2026-06-16T08:30:39.000Z</time>
        <extensions>
          <ns3:TrackPointExtension>
            <ns3:atemp>17.0</ns3:atemp>
          </ns3:TrackPointExtension>
        </extensions>
      </trkpt>
      <trkpt lat="42.6249848864972591400146484375" lon="19.88024580292403697967529296875">
        <ele>1746.800048828125</ele>
        <time>2026-06-16T08:30:40.000Z</time>
        <extensions>
          <ns3:TrackPointExtension>
            <ns3:atemp>17.0</ns3:atemp>
          </ns3:TrackPointExtension>
        </extensions>
      </trkpt>
      <trkpt lat="42.6249848864972591400146484375" lon="19.88024580292403697967529296875">
        <ele>1746.800048828125</ele>
        <time>2026-06-16T08:30:41.000Z</time>
        <extensions>
          <ns3:TrackPointExtension>
            <ns3:atemp>17.0</ns3:atemp>
          </ns3:TrackPointExtension>
        </extensions>
      </trkpt>
      <trkpt lat="42.6249848864972591400146484375" lon="19.88024580292403697967529296875">
        <ele>1746.800048828125</ele>
        <time>2026-06-16T08:30:42.000Z</time>
        <extensions>
          <ns3:TrackPointExtension>
            <ns3:atemp>17.0</ns3:atemp>
          </ns3:TrackPointExtension>
        </extensions>
      </trkpt>
      <trkpt lat="42.6249848864972591400146484375" lon="19.88024580292403697967529296875">
        <ele>1746.800048828125</ele>
        <time>2026-06-16T08:30:43.000Z</time>
        <extensions>
          <ns3:TrackPointExtension>
            <ns3:atemp>17.0</ns3:atemp>
          </ns3:TrackPointExtension>
        </extensions>
      </trkpt>
      <trkpt lat="42.6249848864972591400146484375" lon="19.88024580292403697967529296875">
        <ele>1746.800048828125</ele>
        <time>2026-06-16T08:30:44.000Z</time>
        <extensions>
          <ns3:TrackPointExtension>
            <ns3:atemp>17.0</ns3:atemp>
          </ns3:TrackPointExtension>
        </extensions>
      </trkpt>
      <trkpt lat="42.6249848864972591400146484375" lon="19.88024580292403697967529296875">
        <ele>1746.800048828125</ele>
        <time>2026-06-16T08:30:45.000Z</time>
        <extensions>
          <ns3:TrackPointExtension>
            <ns3:atemp>17.0</ns3:atemp>
          </ns3:TrackPointExtension>
        </extensions>
      </trkpt>
      <trkpt lat="42.6249848864972591400146484375" lon="19.88024580292403697967529296875">
        <ele>1746.800048828125</ele>
        <time>2026-06-16T08:30:46.000Z</time>
        <extensions>
          <ns3:TrackPointExtension>
            <ns3:atemp>17.0</ns3:atemp>
          </ns3:TrackPointExtension>
        </extensions>
      </trkpt>
      <trkpt lat="42.6249848864972591400146484375" lon="19.88024580292403697967529296875">
        <ele>1746.800048828125</ele>
        <time>2026-06-16T08:30:47.000Z</time>
        <extensions>
          <ns3:TrackPointExtension>
            <ns3:atemp>17.0</ns3:atemp>
          </ns3:TrackPointExtension>
        </extensions>
      </trkpt>
      <trkpt lat="42.6249848864972591400146484375" lon="19.88024580292403697967529296875">
        <ele>1746.800048828125</ele>
        <time>2026-06-16T08:30:48.000Z</time>
        <extensions>
          <ns3:TrackPointExtension>
            <ns3:atemp>17.0</ns3:atemp>
          </ns3:TrackPointExtension>
        </extensions>
      </trkpt>
      <trkpt lat="42.6249848864972591400146484375" lon="19.88024580292403697967529296875">
        <ele>1746.800048828125</ele>
        <time>2026-06-16T08:30:49.000Z</time>
        <extensions>
          <ns3:TrackPointExtension>
            <ns3:atemp>17.0</ns3:atemp>
          </ns3:TrackPointExtension>
        </extensions>
      </trkpt>
      <trkpt lat="42.6249848864972591400146484375" lon="19.88024580292403697967529296875">
        <ele>1746.800048828125</ele>
        <time>2026-06-16T08:30:50.000Z</time>
        <extensions>
          <ns3:TrackPointExtension>
            <ns3:atemp>17.0</ns3:atemp>
          </ns3:TrackPointExtension>
        </extensions>
      </trkpt>
      <trkpt lat="42.6249848864972591400146484375" lon="19.88024580292403697967529296875">
        <ele>1746.800048828125</ele>
        <time>2026-06-16T08:30:51.000Z</time>
        <extensions>
          <ns3:TrackPointExtension>
            <ns3:atemp>17.0</ns3:atemp>
          </ns3:TrackPointExtension>
        </extensions>
      </trkpt>
      <trkpt lat="42.6249848864972591400146484375" lon="19.88024580292403697967529296875">
        <ele>1746.800048828125</ele>
        <time>2026-06-16T08:30:52.000Z</time>
        <extensions>
          <ns3:TrackPointExtension>
            <ns3:atemp>17.0</ns3:atemp>
          </ns3:TrackPointExtension>
        </extensions>
      </trkpt>
      <trkpt lat="42.6249848864972591400146484375" lon="19.88024580292403697967529296875">
        <ele>1746.800048828125</ele>
        <time>2026-06-16T08:30:53.000Z</time>
        <extensions>
          <ns3:TrackPointExtension>
            <ns3:atemp>17.0</ns3:atemp>
          </ns3:TrackPointExtension>
        </extensions>
      </trkpt>
      <trkpt lat="42.6249848864972591400146484375" lon="19.88024580292403697967529296875">
        <ele>1746.800048828125</ele>
        <time>2026-06-16T08:30:54.000Z</time>
        <extensions>
          <ns3:TrackPointExtension>
            <ns3:atemp>17.0</ns3:atemp>
          </ns3:TrackPointExtension>
        </extensions>
      </trkpt>
      <trkpt lat="42.6249848864972591400146484375" lon="19.88024580292403697967529296875">
        <ele>1746.800048828125</ele>
        <time>2026-06-16T08:30:55.000Z</time>
        <extensions>
          <ns3:TrackPointExtension>
            <ns3:atemp>17.0</ns3:atemp>
          </ns3:TrackPointExtension>
        </extensions>
      </trkpt>
      <trkpt lat="42.6249848864972591400146484375" lon="19.88024580292403697967529296875">
        <ele>1746.800048828125</ele>
        <time>2026-06-16T08:30:56.000Z</time>
        <extensions>
          <ns3:TrackPointExtension>
            <ns3:atemp>17.0</ns3:atemp>
          </ns3:TrackPointExtension>
        </extensions>
      </trkpt>
      <trkpt lat="42.6249848864972591400146484375" lon="19.88024580292403697967529296875">
        <ele>1746.800048828125</ele>
        <time>2026-06-16T08:30:57.000Z</time>
        <extensions>
          <ns3:TrackPointExtension>
            <ns3:atemp>17.0</ns3:atemp>
          </ns3:TrackPointExtension>
        </extensions>
      </trkpt>
      <trkpt lat="42.6249848864972591400146484375" lon="19.88024580292403697967529296875">
        <ele>1746.800048828125</ele>
        <time>2026-06-16T08:30:58.000Z</time>
        <extensions>
          <ns3:TrackPointExtension>
            <ns3:atemp>17.0</ns3:atemp>
          </ns3:TrackPointExtension>
        </extensions>
      </trkpt>
      <trkpt lat="42.6249848864972591400146484375" lon="19.88024580292403697967529296875">
        <ele>1746.800048828125</ele>
        <time>2026-06-16T08:30:59.000Z</time>
        <extensions>
          <ns3:TrackPointExtension>
            <ns3:atemp>17.0</ns3:atemp>
          </ns3:TrackPointExtension>
        </extensions>
      </trkpt>
      <trkpt lat="42.6249848864972591400146484375" lon="19.88024580292403697967529296875">
        <ele>1746.800048828125</ele>
        <time>2026-06-16T08:31:00.000Z</time>
        <extensions>
          <ns3:TrackPointExtension>
            <ns3:atemp>17.0</ns3:atemp>
          </ns3:TrackPointExtension>
        </extensions>
      </trkpt>
      <trkpt lat="42.6249848864972591400146484375" lon="19.88024580292403697967529296875">
        <ele>1746.800048828125</ele>
        <time>2026-06-16T08:31:01.000Z</time>
        <extensions>
          <ns3:TrackPointExtension>
            <ns3:atemp>17.0</ns3:atemp>
          </ns3:TrackPointExtension>
        </extensions>
      </trkpt>
      <trkpt lat="42.6249848864972591400146484375" lon="19.88024580292403697967529296875">
        <ele>1746.800048828125</ele>
        <time>2026-06-16T08:31:02.000Z</time>
        <extensions>
          <ns3:TrackPointExtension>
            <ns3:atemp>17.0</ns3:atemp>
          </ns3:TrackPointExtension>
        </extensions>
      </trkpt>
      <trkpt lat="42.6249848864972591400146484375" lon="19.88024580292403697967529296875">
        <ele>1746.800048828125</ele>
        <time>2026-06-16T08:31:03.000Z</time>
        <extensions>
          <ns3:TrackPointExtension>
            <ns3:atemp>17.0</ns3:atemp>
          </ns3:TrackPointExtension>
        </extensions>
      </trkpt>
      <trkpt lat="42.6249848864972591400146484375" lon="19.88024580292403697967529296875">
        <ele>1746.800048828125</ele>
        <time>2026-06-16T08:31:04.000Z</time>
        <extensions>
          <ns3:TrackPointExtension>
            <ns3:atemp>17.0</ns3:atemp>
          </ns3:TrackPointExtension>
        </extensions>
      </trkpt>
      <trkpt lat="42.6249848864972591400146484375" lon="19.88024580292403697967529296875">
        <ele>1746.800048828125</ele>
        <time>2026-06-16T08:31:05.000Z</time>
        <extensions>
          <ns3:TrackPointExtension>
            <ns3:atemp>17.0</ns3:atemp>
          </ns3:TrackPointExtension>
        </extensions>
      </trkpt>
      <trkpt lat="42.6249848864972591400146484375" lon="19.88024580292403697967529296875">
        <ele>1746.800048828125</ele>
        <time>2026-06-16T08:31:06.000Z</time>
        <extensions>
          <ns3:TrackPointExtension>
            <ns3:atemp>17.0</ns3:atemp>
          </ns3:TrackPointExtension>
        </extensions>
      </trkpt>
      <trkpt lat="42.6249848864972591400146484375" lon="19.88024580292403697967529296875">
        <ele>1746.800048828125</ele>
        <time>2026-06-16T08:31:07.000Z</time>
        <extensions>
          <ns3:TrackPointExtension>
            <ns3:atemp>17.0</ns3:atemp>
          </ns3:TrackPointExtension>
        </extensions>
      </trkpt>
      <trkpt lat="42.6249848864972591400146484375" lon="19.88024580292403697967529296875">
        <ele>1746.800048828125</ele>
        <time>2026-06-16T08:31:08.000Z</time>
        <extensions>
          <ns3:TrackPointExtension>
            <ns3:atemp>17.0</ns3:atemp>
          </ns3:TrackPointExtension>
        </extensions>
      </trkpt>
      <trkpt lat="42.6249848864972591400146484375" lon="19.88024580292403697967529296875">
        <ele>1746.800048828125</ele>
        <time>2026-06-16T08:31:09.000Z</time>
        <extensions>
          <ns3:TrackPointExtension>
            <ns3:atemp>17.0</ns3:atemp>
          </ns3:TrackPointExtension>
        </extensions>
      </trkpt>
      <trkpt lat="42.6249848864972591400146484375" lon="19.88024580292403697967529296875">
        <ele>1746.800048828125</ele>
        <time>2026-06-16T08:31:10.000Z</time>
        <extensions>
          <ns3:TrackPointExtension>
            <ns3:atemp>17.0</ns3:atemp>
          </ns3:TrackPointExtension>
        </extensions>
      </trkpt>
      <trkpt lat="42.6249848864972591400146484375" lon="19.88024580292403697967529296875">
        <ele>1746.800048828125</ele>
        <time>2026-06-16T08:31:11.000Z</time>
        <extensions>
          <ns3:TrackPointExtension>
            <ns3:atemp>17.0</ns3:atemp>
          </ns3:TrackPointExtension>
        </extensions>
      </trkpt>
      <trkpt lat="42.6249848864972591400146484375" lon="19.88024580292403697967529296875">
        <ele>1746.800048828125</ele>
        <time>2026-06-16T08:31:12.000Z</time>
        <extensions>
          <ns3:TrackPointExtension>
            <ns3:atemp>17.0</ns3:atemp>
          </ns3:TrackPointExtension>
        </extensions>
      </trkpt>
      <trkpt lat="42.6249848864972591400146484375" lon="19.88024580292403697967529296875">
        <ele>1746.800048828125</ele>
        <time>2026-06-16T08:31:13.000Z</time>
        <extensions>
          <ns3:TrackPointExtension>
            <ns3:atemp>17.0</ns3:atemp>
          </ns3:TrackPointExtension>
        </extensions>
      </trkpt>
      <trkpt lat="42.6249848864972591400146484375" lon="19.88024580292403697967529296875">
        <ele>1746.800048828125</ele>
        <time>2026-06-16T08:31:14.000Z</time>
        <extensions>
          <ns3:TrackPointExtension>
            <ns3:atemp>17.0</ns3:atemp>
          </ns3:TrackPointExtension>
        </extensions>
      </trkpt>
      <trkpt lat="42.6249848864972591400146484375" lon="19.88024580292403697967529296875">
        <ele>1746.800048828125</ele>
        <time>2026-06-16T08:31:15.000Z</time>
        <extensions>
          <ns3:TrackPointExtension>
            <ns3:atemp>17.0</ns3:atemp>
          </ns3:TrackPointExtension>
        </extensions>
      </trkpt>
      <trkpt lat="42.6249848864972591400146484375" lon="19.88024580292403697967529296875">
        <ele>1746.800048828125</ele>
        <time>2026-06-16T08:31:16.000Z</time>
        <extensions>
          <ns3:TrackPointExtension>
            <ns3:atemp>17.0</ns3:atemp>
          </ns3:TrackPointExtension>
        </extensions>
      </trkpt>
      <trkpt lat="42.6249848864972591400146484375" lon="19.88024580292403697967529296875">
        <ele>1746.800048828125</ele>
        <time>2026-06-16T08:31:17.000Z</time>
        <extensions>
          <ns3:TrackPointExtension>
            <ns3:atemp>17.0</ns3:atemp>
          </ns3:TrackPointExtension>
        </extensions>
      </trkpt>
      <trkpt lat="42.6249848864972591400146484375" lon="19.88024580292403697967529296875">
        <ele>1746.800048828125</ele>
        <time>2026-06-16T08:31:18.000Z</time>
        <extensions>
          <ns3:TrackPointExtension>
            <ns3:atemp>17.0</ns3:atemp>
          </ns3:TrackPointExtension>
        </extensions>
      </trkpt>
      <trkpt lat="42.6249848864972591400146484375" lon="19.88024580292403697967529296875">
        <ele>1746.800048828125</ele>
        <time>2026-06-16T08:31:19.000Z</time>
        <extensions>
          <ns3:TrackPointExtension>
            <ns3:atemp>17.0</ns3:atemp>
          </ns3:TrackPointExtension>
        </extensions>
      </trkpt>
      <trkpt lat="42.6249848864972591400146484375" lon="19.88024580292403697967529296875">
        <ele>1746.800048828125</ele>
        <time>2026-06-16T08:31:20.000Z</time>
        <extensions>
          <ns3:TrackPointExtension>
            <ns3:atemp>17.0</ns3:atemp>
          </ns3:TrackPointExtension>
        </extensions>
      </trkpt>
      <trkpt lat="42.6249848864972591400146484375" lon="19.88024580292403697967529296875">
        <ele>1746.800048828125</ele>
        <time>2026-06-16T08:31:21.000Z</time>
        <extensions>
          <ns3:TrackPointExtension>
            <ns3:atemp>17.0</ns3:atemp>
          </ns3:TrackPointExtension>
        </extensions>
      </trkpt>
      <trkpt lat="42.6249848864972591400146484375" lon="19.88024580292403697967529296875">
        <ele>1746.800048828125</ele>
        <time>2026-06-16T08:31:22.000Z</time>
        <extensions>
          <ns3:TrackPointExtension>
            <ns3:atemp>17.0</ns3:atemp>
          </ns3:TrackPointExtension>
        </extensions>
      </trkpt>
      <trkpt lat="42.6249848864972591400146484375" lon="19.88024580292403697967529296875">
        <ele>1746.800048828125</ele>
        <time>2026-06-16T08:31:23.000Z</time>
        <extensions>
          <ns3:TrackPointExtension>
            <ns3:atemp>17.0</ns3:atemp>
          </ns3:TrackPointExtension>
        </extensions>
      </trkpt>
      <trkpt lat="42.6249848864972591400146484375" lon="19.88024580292403697967529296875">
        <ele>1746.800048828125</ele>
        <time>2026-06-16T08:31:24.000Z</time>
        <extensions>
          <ns3:TrackPointExtension>
            <ns3:atemp>17.0</ns3:atemp>
          </ns3:TrackPointExtension>
        </extensions>
      </trkpt>
      <trkpt lat="42.6249848864972591400146484375" lon="19.88024580292403697967529296875">
        <ele>1746.800048828125</ele>
        <time>2026-06-16T08:31:25.000Z</time>
        <extensions>
          <ns3:TrackPointExtension>
            <ns3:atemp>17.0</ns3:atemp>
          </ns3:TrackPointExtension>
        </extensions>
      </trkpt>
      <trkpt lat="42.6249848864972591400146484375" lon="19.88024580292403697967529296875">
        <ele>1746.800048828125</ele>
        <time>2026-06-16T08:31:26.000Z</time>
        <extensions>
          <ns3:TrackPointExtension>
            <ns3:atemp>17.0</ns3:atemp>
          </ns3:TrackPointExtension>
        </extensions>
      </trkpt>
      <trkpt lat="42.6249848864972591400146484375" lon="19.88024580292403697967529296875">
        <ele>1746.800048828125</ele>
        <time>2026-06-16T08:31:27.000Z</time>
        <extensions>
          <ns3:TrackPointExtension>
            <ns3:atemp>17.0</ns3:atemp>
          </ns3:TrackPointExtension>
        </extensions>
      </trkpt>
      <trkpt lat="42.6249848864972591400146484375" lon="19.88024580292403697967529296875">
        <ele>1746.800048828125</ele>
        <time>2026-06-16T08:31:28.000Z</time>
        <extensions>
          <ns3:TrackPointExtension>
            <ns3:atemp>17.0</ns3:atemp>
          </ns3:TrackPointExtension>
        </extensions>
      </trkpt>
      <trkpt lat="42.6249848864972591400146484375" lon="19.88024580292403697967529296875">
        <ele>1746.800048828125</ele>
        <time>2026-06-16T08:31:29.000Z</time>
        <extensions>
          <ns3:TrackPointExtension>
            <ns3:atemp>17.0</ns3:atemp>
          </ns3:TrackPointExtension>
        </extensions>
      </trkpt>
      <trkpt lat="42.6249848864972591400146484375" lon="19.88024580292403697967529296875">
        <ele>1746.800048828125</ele>
        <time>2026-06-16T08:31:30.000Z</time>
        <extensions>
          <ns3:TrackPointExtension>
            <ns3:atemp>17.0</ns3:atemp>
          </ns3:TrackPointExtension>
        </extensions>
      </trkpt>
      <trkpt lat="42.6249848864972591400146484375" lon="19.88024580292403697967529296875">
        <ele>1746.800048828125</ele>
        <time>2026-06-16T08:31:31.000Z</time>
        <extensions>
          <ns3:TrackPointExtension>
            <ns3:atemp>17.0</ns3:atemp>
          </ns3:TrackPointExtension>
        </extensions>
      </trkpt>
      <trkpt lat="42.6249848864972591400146484375" lon="19.88024580292403697967529296875">
        <ele>1746.800048828125</ele>
        <time>2026-06-16T08:31:32.000Z</time>
        <extensions>
          <ns3:TrackPointExtension>
            <ns3:atemp>17.0</ns3:atemp>
          </ns3:TrackPointExtension>
        </extensions>
      </trkpt>
      <trkpt lat="42.6249848864972591400146484375" lon="19.88024580292403697967529296875">
        <ele>1746.800048828125</ele>
        <time>2026-06-16T08:31:33.000Z</time>
        <extensions>
          <ns3:TrackPointExtension>
            <ns3:atemp>17.0</ns3:atemp>
          </ns3:TrackPointExtension>
        </extensions>
      </trkpt>
      <trkpt lat="42.6249848864972591400146484375" lon="19.88024580292403697967529296875">
        <ele>1746.800048828125</ele>
        <time>2026-06-16T08:31:34.000Z</time>
        <extensions>
          <ns3:TrackPointExtension>
            <ns3:atemp>17.0</ns3:atemp>
          </ns3:TrackPointExtension>
        </extensions>
      </trkpt>
      <trkpt lat="42.6249848864972591400146484375" lon="19.88024580292403697967529296875">
        <ele>1746.800048828125</ele>
        <time>2026-06-16T08:31:35.000Z</time>
        <extensions>
          <ns3:TrackPointExtension>
            <ns3:atemp>17.0</ns3:atemp>
          </ns3:TrackPointExtension>
        </extensions>
      </trkpt>
      <trkpt lat="42.6249848864972591400146484375" lon="19.88024580292403697967529296875">
        <ele>1746.800048828125</ele>
        <time>2026-06-16T08:31:36.000Z</time>
        <extensions>
          <ns3:TrackPointExtension>
            <ns3:atemp>17.0</ns3:atemp>
          </ns3:TrackPointExtension>
        </extensions>
      </trkpt>
      <trkpt lat="42.6249848864972591400146484375" lon="19.88024580292403697967529296875">
        <ele>1746.800048828125</ele>
        <time>2026-06-16T08:31:37.000Z</time>
        <extensions>
          <ns3:TrackPointExtension>
            <ns3:atemp>17.0</ns3:atemp>
          </ns3:TrackPointExtension>
        </extensions>
      </trkpt>
      <trkpt lat="42.6249848864972591400146484375" lon="19.88024580292403697967529296875">
        <ele>1746.800048828125</ele>
        <time>2026-06-16T08:31:38.000Z</time>
        <extensions>
          <ns3:TrackPointExtension>
            <ns3:atemp>17.0</ns3:atemp>
          </ns3:TrackPointExtension>
        </extensions>
      </trkpt>
      <trkpt lat="42.6249848864972591400146484375" lon="19.88024580292403697967529296875">
        <ele>1746.800048828125</ele>
        <time>2026-06-16T08:31:39.000Z</time>
        <extensions>
          <ns3:TrackPointExtension>
            <ns3:atemp>17.0</ns3:atemp>
          </ns3:TrackPointExtension>
        </extensions>
      </trkpt>
      <trkpt lat="42.6249848864972591400146484375" lon="19.88024580292403697967529296875">
        <ele>1746.800048828125</ele>
        <time>2026-06-16T08:31:40.000Z</time>
        <extensions>
          <ns3:TrackPointExtension>
            <ns3:atemp>17.0</ns3:atemp>
          </ns3:TrackPointExtension>
        </extensions>
      </trkpt>
      <trkpt lat="42.6249848864972591400146484375" lon="19.88024580292403697967529296875">
        <ele>1746.800048828125</ele>
        <time>2026-06-16T08:31:41.000Z</time>
        <extensions>
          <ns3:TrackPointExtension>
            <ns3:atemp>17.0</ns3:atemp>
          </ns3:TrackPointExtension>
        </extensions>
      </trkpt>
      <trkpt lat="42.6249848864972591400146484375" lon="19.88024580292403697967529296875">
        <ele>1746.800048828125</ele>
        <time>2026-06-16T08:31:42.000Z</time>
        <extensions>
          <ns3:TrackPointExtension>
            <ns3:atemp>17.0</ns3:atemp>
          </ns3:TrackPointExtension>
        </extensions>
      </trkpt>
      <trkpt lat="42.6249848864972591400146484375" lon="19.88024580292403697967529296875">
        <ele>1746.800048828125</ele>
        <time>2026-06-16T08:31:43.000Z</time>
        <extensions>
          <ns3:TrackPointExtension>
            <ns3:atemp>17.0</ns3:atemp>
          </ns3:TrackPointExtension>
        </extensions>
      </trkpt>
      <trkpt lat="42.6249848864972591400146484375" lon="19.88024580292403697967529296875">
        <ele>1746.800048828125</ele>
        <time>2026-06-16T08:31:44.000Z</time>
        <extensions>
          <ns3:TrackPointExtension>
            <ns3:atemp>17.0</ns3:atemp>
          </ns3:TrackPointExtension>
        </extensions>
      </trkpt>
      <trkpt lat="42.6249848864972591400146484375" lon="19.88024580292403697967529296875">
        <ele>1746.800048828125</ele>
        <time>2026-06-16T08:31:45.000Z</time>
        <extensions>
          <ns3:TrackPointExtension>
            <ns3:atemp>17.0</ns3:atemp>
          </ns3:TrackPointExtension>
        </extensions>
      </trkpt>
      <trkpt lat="42.6249848864972591400146484375" lon="19.88024580292403697967529296875">
        <ele>1746.800048828125</ele>
        <time>2026-06-16T08:31:46.000Z</time>
        <extensions>
          <ns3:TrackPointExtension>
            <ns3:atemp>17.0</ns3:atemp>
          </ns3:TrackPointExtension>
        </extensions>
      </trkpt>
      <trkpt lat="42.6249848864972591400146484375" lon="19.88024580292403697967529296875">
        <ele>1746.800048828125</ele>
        <time>2026-06-16T08:31:47.000Z</time>
        <extensions>
          <ns3:TrackPointExtension>
            <ns3:atemp>17.0</ns3:atemp>
          </ns3:TrackPointExtension>
        </extensions>
      </trkpt>
      <trkpt lat="42.6249848864972591400146484375" lon="19.88024580292403697967529296875">
        <ele>1746.800048828125</ele>
        <time>2026-06-16T08:31:48.000Z</time>
        <extensions>
          <ns3:TrackPointExtension>
            <ns3:atemp>17.0</ns3:atemp>
          </ns3:TrackPointExtension>
        </extensions>
      </trkpt>
      <trkpt lat="42.6249848864972591400146484375" lon="19.88024580292403697967529296875">
        <ele>1746.800048828125</ele>
        <time>2026-06-16T08:31:49.000Z</time>
        <extensions>
          <ns3:TrackPointExtension>
            <ns3:atemp>17.0</ns3:atemp>
          </ns3:TrackPointExtension>
        </extensions>
      </trkpt>
      <trkpt lat="42.6249848864972591400146484375" lon="19.88024580292403697967529296875">
        <ele>1746.800048828125</ele>
        <time>2026-06-16T08:31:50.000Z</time>
        <extensions>
          <ns3:TrackPointExtension>
            <ns3:atemp>17.0</ns3:atemp>
          </ns3:TrackPointExtension>
        </extensions>
      </trkpt>
      <trkpt lat="42.6249848864972591400146484375" lon="19.88024580292403697967529296875">
        <ele>1746.800048828125</ele>
        <time>2026-06-16T08:31:51.000Z</time>
        <extensions>
          <ns3:TrackPointExtension>
            <ns3:atemp>17.0</ns3:atemp>
          </ns3:TrackPointExtension>
        </extensions>
      </trkpt>
      <trkpt lat="42.6249848864972591400146484375" lon="19.88024580292403697967529296875">
        <ele>1746.800048828125</ele>
        <time>2026-06-16T08:31:52.000Z</time>
        <extensions>
          <ns3:TrackPointExtension>
            <ns3:atemp>17.0</ns3:atemp>
          </ns3:TrackPointExtension>
        </extensions>
      </trkpt>
      <trkpt lat="42.6249848864972591400146484375" lon="19.88024580292403697967529296875">
        <ele>1746.800048828125</ele>
        <time>2026-06-16T08:31:53.000Z</time>
        <extensions>
          <ns3:TrackPointExtension>
            <ns3:atemp>17.0</ns3:atemp>
          </ns3:TrackPointExtension>
        </extensions>
      </trkpt>
      <trkpt lat="42.6249848864972591400146484375" lon="19.88024580292403697967529296875">
        <ele>1746.800048828125</ele>
        <time>2026-06-16T08:31:54.000Z</time>
        <extensions>
          <ns3:TrackPointExtension>
            <ns3:atemp>17.0</ns3:atemp>
          </ns3:TrackPointExtension>
        </extensions>
      </trkpt>
      <trkpt lat="42.6249848864972591400146484375" lon="19.88024580292403697967529296875">
        <ele>1746.800048828125</ele>
        <time>2026-06-16T08:31:55.000Z</time>
        <extensions>
          <ns3:TrackPointExtension>
            <ns3:atemp>17.0</ns3:atemp>
          </ns3:TrackPointExtension>
        </extensions>
      </trkpt>
      <trkpt lat="42.6249848864972591400146484375" lon="19.88024580292403697967529296875">
        <ele>1746.800048828125</ele>
        <time>2026-06-16T08:31:56.000Z</time>
        <extensions>
          <ns3:TrackPointExtension>
            <ns3:atemp>17.0</ns3:atemp>
          </ns3:TrackPointExtension>
        </extensions>
      </trkpt>
      <trkpt lat="42.6249848864972591400146484375" lon="19.88024580292403697967529296875">
        <ele>1746.800048828125</ele>
        <time>2026-06-16T08:31:57.000Z</time>
        <extensions>
          <ns3:TrackPointExtension>
            <ns3:atemp>17.0</ns3:atemp>
          </ns3:TrackPointExtension>
        </extensions>
      </trkpt>
      <trkpt lat="42.6249848864972591400146484375" lon="19.88024580292403697967529296875">
        <ele>1746.800048828125</ele>
        <time>2026-06-16T08:31:58.000Z</time>
        <extensions>
          <ns3:TrackPointExtension>
            <ns3:atemp>17.0</ns3:atemp>
          </ns3:TrackPointExtension>
        </extensions>
      </trkpt>
      <trkpt lat="42.6249848864972591400146484375" lon="19.88024580292403697967529296875">
        <ele>1746.800048828125</ele>
        <time>2026-06-16T08:31:59.000Z</time>
        <extensions>
          <ns3:TrackPointExtension>
            <ns3:atemp>17.0</ns3:atemp>
          </ns3:TrackPointExtension>
        </extensions>
      </trkpt>
      <trkpt lat="42.6249848864972591400146484375" lon="19.88024580292403697967529296875">
        <ele>1746.800048828125</ele>
        <time>2026-06-16T08:32:00.000Z</time>
        <extensions>
          <ns3:TrackPointExtension>
            <ns3:atemp>17.0</ns3:atemp>
          </ns3:TrackPointExtension>
        </extensions>
      </trkpt>
      <trkpt lat="42.6249848864972591400146484375" lon="19.88024580292403697967529296875">
        <ele>1746.800048828125</ele>
        <time>2026-06-16T08:32:01.000Z</time>
        <extensions>
          <ns3:TrackPointExtension>
            <ns3:atemp>17.0</ns3:atemp>
          </ns3:TrackPointExtension>
        </extensions>
      </trkpt>
      <trkpt lat="42.6249848864972591400146484375" lon="19.88024580292403697967529296875">
        <ele>1746.800048828125</ele>
        <time>2026-06-16T08:32:02.000Z</time>
        <extensions>
          <ns3:TrackPointExtension>
            <ns3:atemp>17.0</ns3:atemp>
          </ns3:TrackPointExtension>
        </extensions>
      </trkpt>
      <trkpt lat="42.6249848864972591400146484375" lon="19.88024580292403697967529296875">
        <ele>1746.800048828125</ele>
        <time>2026-06-16T08:32:03.000Z</time>
        <extensions>
          <ns3:TrackPointExtension>
            <ns3:atemp>17.0</ns3:atemp>
          </ns3:TrackPointExtension>
        </extensions>
      </trkpt>
      <trkpt lat="42.6249848864972591400146484375" lon="19.88024580292403697967529296875">
        <ele>1746.800048828125</ele>
        <time>2026-06-16T08:32:04.000Z</time>
        <extensions>
          <ns3:TrackPointExtension>
            <ns3:atemp>17.0</ns3:atemp>
          </ns3:TrackPointExtension>
        </extensions>
      </trkpt>
      <trkpt lat="42.6249848864972591400146484375" lon="19.88024580292403697967529296875">
        <ele>1746.800048828125</ele>
        <time>2026-06-16T08:32:05.000Z</time>
        <extensions>
          <ns3:TrackPointExtension>
            <ns3:atemp>17.0</ns3:atemp>
          </ns3:TrackPointExtension>
        </extensions>
      </trkpt>
      <trkpt lat="42.6249848864972591400146484375" lon="19.88024580292403697967529296875">
        <ele>1746.800048828125</ele>
        <time>2026-06-16T08:32:06.000Z</time>
        <extensions>
          <ns3:TrackPointExtension>
            <ns3:atemp>17.0</ns3:atemp>
          </ns3:TrackPointExtension>
        </extensions>
      </trkpt>
      <trkpt lat="42.6249848864972591400146484375" lon="19.88024580292403697967529296875">
        <ele>1746.800048828125</ele>
        <time>2026-06-16T08:32:07.000Z</time>
        <extensions>
          <ns3:TrackPointExtension>
            <ns3:atemp>17.0</ns3:atemp>
          </ns3:TrackPointExtension>
        </extensions>
      </trkpt>
      <trkpt lat="42.6249848864972591400146484375" lon="19.88024580292403697967529296875">
        <ele>1746.800048828125</ele>
        <time>2026-06-16T08:32:08.000Z</time>
        <extensions>
          <ns3:TrackPointExtension>
            <ns3:atemp>17.0</ns3:atemp>
          </ns3:TrackPointExtension>
        </extensions>
      </trkpt>
      <trkpt lat="42.6249848864972591400146484375" lon="19.88024580292403697967529296875">
        <ele>1746.800048828125</ele>
        <time>2026-06-16T08:32:09.000Z</time>
        <extensions>
          <ns3:TrackPointExtension>
            <ns3:atemp>17.0</ns3:atemp>
          </ns3:TrackPointExtension>
        </extensions>
      </trkpt>
      <trkpt lat="42.6249848864972591400146484375" lon="19.88024580292403697967529296875">
        <ele>1746.800048828125</ele>
        <time>2026-06-16T08:32:10.000Z</time>
        <extensions>
          <ns3:TrackPointExtension>
            <ns3:atemp>17.0</ns3:atemp>
          </ns3:TrackPointExtension>
        </extensions>
      </trkpt>
      <trkpt lat="42.6249848864972591400146484375" lon="19.88024580292403697967529296875">
        <ele>1746.800048828125</ele>
        <time>2026-06-16T08:32:11.000Z</time>
        <extensions>
          <ns3:TrackPointExtension>
            <ns3:atemp>17.0</ns3:atemp>
          </ns3:TrackPointExtension>
        </extensions>
      </trkpt>
      <trkpt lat="42.6249848864972591400146484375" lon="19.88024580292403697967529296875">
        <ele>1746.800048828125</ele>
        <time>2026-06-16T08:32:12.000Z</time>
        <extensions>
          <ns3:TrackPointExtension>
            <ns3:atemp>17.0</ns3:atemp>
          </ns3:TrackPointExtension>
        </extensions>
      </trkpt>
      <trkpt lat="42.6249848864972591400146484375" lon="19.88024580292403697967529296875">
        <ele>1746.800048828125</ele>
        <time>2026-06-16T08:32:13.000Z</time>
        <extensions>
          <ns3:TrackPointExtension>
            <ns3:atemp>17.0</ns3:atemp>
          </ns3:TrackPointExtension>
        </extensions>
      </trkpt>
      <trkpt lat="42.6249848864972591400146484375" lon="19.88024580292403697967529296875">
        <ele>1746.800048828125</ele>
        <time>2026-06-16T08:32:14.000Z</time>
        <extensions>
          <ns3:TrackPointExtension>
            <ns3:atemp>17.0</ns3:atemp>
          </ns3:TrackPointExtension>
        </extensions>
      </trkpt>
      <trkpt lat="42.6249848864972591400146484375" lon="19.88024580292403697967529296875">
        <ele>1746.800048828125</ele>
        <time>2026-06-16T08:32:15.000Z</time>
        <extensions>
          <ns3:TrackPointExtension>
            <ns3:atemp>17.0</ns3:atemp>
          </ns3:TrackPointExtension>
        </extensions>
      </trkpt>
      <trkpt lat="42.6249848864972591400146484375" lon="19.88024580292403697967529296875">
        <ele>1746.800048828125</ele>
        <time>2026-06-16T08:32:16.000Z</time>
        <extensions>
          <ns3:TrackPointExtension>
            <ns3:atemp>17.0</ns3:atemp>
          </ns3:TrackPointExtension>
        </extensions>
      </trkpt>
      <trkpt lat="42.6249848864972591400146484375" lon="19.88024580292403697967529296875">
        <ele>1746.800048828125</ele>
        <time>2026-06-16T08:32:17.000Z</time>
        <extensions>
          <ns3:TrackPointExtension>
            <ns3:atemp>17.0</ns3:atemp>
          </ns3:TrackPointExtension>
        </extensions>
      </trkpt>
      <trkpt lat="42.6249848864972591400146484375" lon="19.88024580292403697967529296875">
        <ele>1746.800048828125</ele>
        <time>2026-06-16T08:32:18.000Z</time>
        <extensions>
          <ns3:TrackPointExtension>
            <ns3:atemp>17.0</ns3:atemp>
          </ns3:TrackPointExtension>
        </extensions>
      </trkpt>
      <trkpt lat="42.6249848864972591400146484375" lon="19.88024580292403697967529296875">
        <ele>1746.800048828125</ele>
        <time>2026-06-16T08:32:19.000Z</time>
        <extensions>
          <ns3:TrackPointExtension>
            <ns3:atemp>17.0</ns3:atemp>
          </ns3:TrackPointExtension>
        </extensions>
      </trkpt>
      <trkpt lat="42.6249848864972591400146484375" lon="19.88024580292403697967529296875">
        <ele>1746.800048828125</ele>
        <time>2026-06-16T08:32:20.000Z</time>
        <extensions>
          <ns3:TrackPointExtension>
            <ns3:atemp>17.0</ns3:atemp>
          </ns3:TrackPointExtension>
        </extensions>
      </trkpt>
      <trkpt lat="42.6249848864972591400146484375" lon="19.88024580292403697967529296875">
        <ele>1746.800048828125</ele>
        <time>2026-06-16T08:32:21.000Z</time>
        <extensions>
          <ns3:TrackPointExtension>
            <ns3:atemp>17.0</ns3:atemp>
          </ns3:TrackPointExtension>
        </extensions>
      </trkpt>
      <trkpt lat="42.6249848864972591400146484375" lon="19.88024580292403697967529296875">
        <ele>1746.800048828125</ele>
        <time>2026-06-16T08:32:22.000Z</time>
        <extensions>
          <ns3:TrackPointExtension>
            <ns3:atemp>17.0</ns3:atemp>
          </ns3:TrackPointExtension>
        </extensions>
      </trkpt>
      <trkpt lat="42.6249848864972591400146484375" lon="19.88024580292403697967529296875">
        <ele>1746.800048828125</ele>
        <time>2026-06-16T08:32:23.000Z</time>
        <extensions>
          <ns3:TrackPointExtension>
            <ns3:atemp>17.0</ns3:atemp>
          </ns3:TrackPointExtension>
        </extensions>
      </trkpt>
      <trkpt lat="42.6249848864972591400146484375" lon="19.88024580292403697967529296875">
        <ele>1746.800048828125</ele>
        <time>2026-06-16T08:32:24.000Z</time>
        <extensions>
          <ns3:TrackPointExtension>
            <ns3:atemp>17.0</ns3:atemp>
          </ns3:TrackPointExtension>
        </extensions>
      </trkpt>
      <trkpt lat="42.6249848864972591400146484375" lon="19.88024580292403697967529296875">
        <ele>1746.800048828125</ele>
        <time>2026-06-16T08:32:25.000Z</time>
        <extensions>
          <ns3:TrackPointExtension>
            <ns3:atemp>17.0</ns3:atemp>
          </ns3:TrackPointExtension>
        </extensions>
      </trkpt>
      <trkpt lat="42.6249848864972591400146484375" lon="19.88024580292403697967529296875">
        <ele>1746.800048828125</ele>
        <time>2026-06-16T08:32:26.000Z</time>
        <extensions>
          <ns3:TrackPointExtension>
            <ns3:atemp>17.0</ns3:atemp>
          </ns3:TrackPointExtension>
        </extensions>
      </trkpt>
      <trkpt lat="42.6249848864972591400146484375" lon="19.88024580292403697967529296875">
        <ele>1746.800048828125</ele>
        <time>2026-06-16T08:32:27.000Z</time>
        <extensions>
          <ns3:TrackPointExtension>
            <ns3:atemp>17.0</ns3:atemp>
          </ns3:TrackPointExtension>
        </extensions>
      </trkpt>
      <trkpt lat="42.6249848864972591400146484375" lon="19.88024580292403697967529296875">
        <ele>1746.800048828125</ele>
        <time>2026-06-16T08:32:28.000Z</time>
        <extensions>
          <ns3:TrackPointExtension>
            <ns3:atemp>17.0</ns3:atemp>
          </ns3:TrackPointExtension>
        </extensions>
      </trkpt>
      <trkpt lat="42.6249848864972591400146484375" lon="19.88024580292403697967529296875">
        <ele>1746.800048828125</ele>
        <time>2026-06-16T08:32:29.000Z</time>
        <extensions>
          <ns3:TrackPointExtension>
            <ns3:atemp>17.0</ns3:atemp>
          </ns3:TrackPointExtension>
        </extensions>
      </trkpt>
      <trkpt lat="42.6249848864972591400146484375" lon="19.88024580292403697967529296875">
        <ele>1746.800048828125</ele>
        <time>2026-06-16T08:32:30.000Z</time>
        <extensions>
          <ns3:TrackPointExtension>
            <ns3:atemp>17.0</ns3:atemp>
          </ns3:TrackPointExtension>
        </extensions>
      </trkpt>
      <trkpt lat="42.6249848864972591400146484375" lon="19.88024580292403697967529296875">
        <ele>1746.800048828125</ele>
        <time>2026-06-16T08:32:31.000Z</time>
        <extensions>
          <ns3:TrackPointExtension>
            <ns3:atemp>17.0</ns3:atemp>
          </ns3:TrackPointExtension>
        </extensions>
      </trkpt>
      <trkpt lat="42.6249848864972591400146484375" lon="19.88024580292403697967529296875">
        <ele>1746.800048828125</ele>
        <time>2026-06-16T08:32:32.000Z</time>
        <extensions>
          <ns3:TrackPointExtension>
            <ns3:atemp>17.0</ns3:atemp>
          </ns3:TrackPointExtension>
        </extensions>
      </trkpt>
      <trkpt lat="42.6249848864972591400146484375" lon="19.88024580292403697967529296875">
        <ele>1746.800048828125</ele>
        <time>2026-06-16T08:32:33.000Z</time>
        <extensions>
          <ns3:TrackPointExtension>
            <ns3:atemp>17.0</ns3:atemp>
          </ns3:TrackPointExtension>
        </extensions>
      </trkpt>
      <trkpt lat="42.6249848864972591400146484375" lon="19.88024580292403697967529296875">
        <ele>1746.800048828125</ele>
        <time>2026-06-16T08:32:34.000Z</time>
        <extensions>
          <ns3:TrackPointExtension>
            <ns3:atemp>17.0</ns3:atemp>
          </ns3:TrackPointExtension>
        </extensions>
      </trkpt>
      <trkpt lat="42.6249848864972591400146484375" lon="19.88024580292403697967529296875">
        <ele>1746.800048828125</ele>
        <time>2026-06-16T08:32:35.000Z</time>
        <extensions>
          <ns3:TrackPointExtension>
            <ns3:atemp>17.0</ns3:atemp>
          </ns3:TrackPointExtension>
        </extensions>
      </trkpt>
      <trkpt lat="42.6249848864972591400146484375" lon="19.88024580292403697967529296875">
        <ele>1746.800048828125</ele>
        <time>2026-06-16T08:32:36.000Z</time>
        <extensions>
          <ns3:TrackPointExtension>
            <ns3:atemp>17.0</ns3:atemp>
          </ns3:TrackPointExtension>
        </extensions>
      </trkpt>
      <trkpt lat="42.6249848864972591400146484375" lon="19.88024580292403697967529296875">
        <ele>1746.800048828125</ele>
        <time>2026-06-16T08:32:37.000Z</time>
        <extensions>
          <ns3:TrackPointExtension>
            <ns3:atemp>17.0</ns3:atemp>
          </ns3:TrackPointExtension>
        </extensions>
      </trkpt>
      <trkpt lat="42.6249848864972591400146484375" lon="19.88024580292403697967529296875">
        <ele>1746.800048828125</ele>
        <time>2026-06-16T08:32:38.000Z</time>
        <extensions>
          <ns3:TrackPointExtension>
            <ns3:atemp>17.0</ns3:atemp>
          </ns3:TrackPointExtension>
        </extensions>
      </trkpt>
      <trkpt lat="42.6249848864972591400146484375" lon="19.88024580292403697967529296875">
        <ele>1746.800048828125</ele>
        <time>2026-06-16T08:32:39.000Z</time>
        <extensions>
          <ns3:TrackPointExtension>
            <ns3:atemp>17.0</ns3:atemp>
          </ns3:TrackPointExtension>
        </extensions>
      </trkpt>
      <trkpt lat="42.6249848864972591400146484375" lon="19.88024580292403697967529296875">
        <ele>1746.800048828125</ele>
        <time>2026-06-16T08:32:40.000Z</time>
        <extensions>
          <ns3:TrackPointExtension>
            <ns3:atemp>17.0</ns3:atemp>
          </ns3:TrackPointExtension>
        </extensions>
      </trkpt>
      <trkpt lat="42.6249848864972591400146484375" lon="19.88024580292403697967529296875">
        <ele>1746.800048828125</ele>
        <time>2026-06-16T08:32:41.000Z</time>
        <extensions>
          <ns3:TrackPointExtension>
            <ns3:atemp>17.0</ns3:atemp>
          </ns3:TrackPointExtension>
        </extensions>
      </trkpt>
      <trkpt lat="42.6249848864972591400146484375" lon="19.88024580292403697967529296875">
        <ele>1746.800048828125</ele>
        <time>2026-06-16T08:32:42.000Z</time>
        <extensions>
          <ns3:TrackPointExtension>
            <ns3:atemp>17.0</ns3:atemp>
          </ns3:TrackPointExtension>
        </extensions>
      </trkpt>
      <trkpt lat="42.6249848864972591400146484375" lon="19.88024580292403697967529296875">
        <ele>1746.800048828125</ele>
        <time>2026-06-16T08:32:43.000Z</time>
        <extensions>
          <ns3:TrackPointExtension>
            <ns3:atemp>17.0</ns3:atemp>
          </ns3:TrackPointExtension>
        </extensions>
      </trkpt>
      <trkpt lat="42.6249848864972591400146484375" lon="19.88024580292403697967529296875">
        <ele>1746.800048828125</ele>
        <time>2026-06-16T08:32:44.000Z</time>
        <extensions>
          <ns3:TrackPointExtension>
            <ns3:atemp>17.0</ns3:atemp>
          </ns3:TrackPointExtension>
        </extensions>
      </trkpt>
      <trkpt lat="42.6249848864972591400146484375" lon="19.88024580292403697967529296875">
        <ele>1746.800048828125</ele>
        <time>2026-06-16T08:32:45.000Z</time>
        <extensions>
          <ns3:TrackPointExtension>
            <ns3:atemp>17.0</ns3:atemp>
          </ns3:TrackPointExtension>
        </extensions>
      </trkpt>
      <trkpt lat="42.6249848864972591400146484375" lon="19.88024580292403697967529296875">
        <ele>1746.800048828125</ele>
        <time>2026-06-16T08:32:46.000Z</time>
        <extensions>
          <ns3:TrackPointExtension>
            <ns3:atemp>17.0</ns3:atemp>
          </ns3:TrackPointExtension>
        </extensions>
      </trkpt>
      <trkpt lat="42.6249848864972591400146484375" lon="19.88024580292403697967529296875">
        <ele>1746.800048828125</ele>
        <time>2026-06-16T08:32:47.000Z</time>
        <extensions>
          <ns3:TrackPointExtension>
            <ns3:atemp>17.0</ns3:atemp>
          </ns3:TrackPointExtension>
        </extensions>
      </trkpt>
      <trkpt lat="42.6249848864972591400146484375" lon="19.88024580292403697967529296875">
        <ele>1746.800048828125</ele>
        <time>2026-06-16T08:32:48.000Z</time>
        <extensions>
          <ns3:TrackPointExtension>
            <ns3:atemp>17.0</ns3:atemp>
          </ns3:TrackPointExtension>
        </extensions>
      </trkpt>
      <trkpt lat="42.6249848864972591400146484375" lon="19.88024580292403697967529296875">
        <ele>1746.800048828125</ele>
        <time>2026-06-16T08:32:49.000Z</time>
        <extensions>
          <ns3:TrackPointExtension>
            <ns3:atemp>17.0</ns3:atemp>
          </ns3:TrackPointExtension>
        </extensions>
      </trkpt>
      <trkpt lat="42.6249848864972591400146484375" lon="19.88024580292403697967529296875">
        <ele>1746.800048828125</ele>
        <time>2026-06-16T08:32:50.000Z</time>
        <extensions>
          <ns3:TrackPointExtension>
            <ns3:atemp>17.0</ns3:atemp>
          </ns3:TrackPointExtension>
        </extensions>
      </trkpt>
      <trkpt lat="42.6249848864972591400146484375" lon="19.88024580292403697967529296875">
        <ele>1746.800048828125</ele>
        <time>2026-06-16T08:32:51.000Z</time>
        <extensions>
          <ns3:TrackPointExtension>
            <ns3:atemp>17.0</ns3:atemp>
          </ns3:TrackPointExtension>
        </extensions>
      </trkpt>
      <trkpt lat="42.6249848864972591400146484375" lon="19.88024580292403697967529296875">
        <ele>1746.800048828125</ele>
        <time>2026-06-16T08:32:52.000Z</time>
        <extensions>
          <ns3:TrackPointExtension>
            <ns3:atemp>17.0</ns3:atemp>
          </ns3:TrackPointExtension>
        </extensions>
      </trkpt>
      <trkpt lat="42.6249848864972591400146484375" lon="19.88024580292403697967529296875">
        <ele>1746.800048828125</ele>
        <time>2026-06-16T08:32:53.000Z</time>
        <extensions>
          <ns3:TrackPointExtension>
            <ns3:atemp>17.0</ns3:atemp>
          </ns3:TrackPointExtension>
        </extensions>
      </trkpt>
      <trkpt lat="42.6249848864972591400146484375" lon="19.88024580292403697967529296875">
        <ele>1746.800048828125</ele>
        <time>2026-06-16T08:32:54.000Z</time>
        <extensions>
          <ns3:TrackPointExtension>
            <ns3:atemp>17.0</ns3:atemp>
          </ns3:TrackPointExtension>
        </extensions>
      </trkpt>
      <trkpt lat="42.6249848864972591400146484375" lon="19.88024580292403697967529296875">
        <ele>1746.800048828125</ele>
        <time>2026-06-16T08:32:55.000Z</time>
        <extensions>
          <ns3:TrackPointExtension>
            <ns3:atemp>17.0</ns3:atemp>
          </ns3:TrackPointExtension>
        </extensions>
      </trkpt>
      <trkpt lat="42.6249848864972591400146484375" lon="19.88024580292403697967529296875">
        <ele>1746.800048828125</ele>
        <time>2026-06-16T08:32:56.000Z</time>
        <extensions>
          <ns3:TrackPointExtension>
            <ns3:atemp>17.0</ns3:atemp>
          </ns3:TrackPointExtension>
        </extensions>
      </trkpt>
      <trkpt lat="42.6249848864972591400146484375" lon="19.88024580292403697967529296875">
        <ele>1746.800048828125</ele>
        <time>2026-06-16T08:32:57.000Z</time>
        <extensions>
          <ns3:TrackPointExtension>
            <ns3:atemp>17.0</ns3:atemp>
          </ns3:TrackPointExtension>
        </extensions>
      </trkpt>
      <trkpt lat="42.6249848864972591400146484375" lon="19.88024580292403697967529296875">
        <ele>1746.800048828125</ele>
        <time>2026-06-16T08:32:58.000Z</time>
        <extensions>
          <ns3:TrackPointExtension>
            <ns3:atemp>17.0</ns3:atemp>
          </ns3:TrackPointExtension>
        </extensions>
      </trkpt>
      <trkpt lat="42.6249848864972591400146484375" lon="19.88024580292403697967529296875">
        <ele>1746.800048828125</ele>
        <time>2026-06-16T08:32:59.000Z</time>
        <extensions>
          <ns3:TrackPointExtension>
            <ns3:atemp>17.0</ns3:atemp>
          </ns3:TrackPointExtension>
        </extensions>
      </trkpt>
      <trkpt lat="42.6249848864972591400146484375" lon="19.88024580292403697967529296875">
        <ele>1746.800048828125</ele>
        <time>2026-06-16T08:33:00.000Z</time>
        <extensions>
          <ns3:TrackPointExtension>
            <ns3:atemp>17.0</ns3:atemp>
          </ns3:TrackPointExtension>
        </extensions>
      </trkpt>
      <trkpt lat="42.6249848864972591400146484375" lon="19.88024580292403697967529296875">
        <ele>1746.800048828125</ele>
        <time>2026-06-16T08:33:01.000Z</time>
        <extensions>
          <ns3:TrackPointExtension>
            <ns3:atemp>17.0</ns3:atemp>
          </ns3:TrackPointExtension>
        </extensions>
      </trkpt>
      <trkpt lat="42.6249848864972591400146484375" lon="19.88024580292403697967529296875">
        <ele>1746.800048828125</ele>
        <time>2026-06-16T08:33:02.000Z</time>
        <extensions>
          <ns3:TrackPointExtension>
            <ns3:atemp>17.0</ns3:atemp>
          </ns3:TrackPointExtension>
        </extensions>
      </trkpt>
      <trkpt lat="42.6249848864972591400146484375" lon="19.88024580292403697967529296875">
        <ele>1746.800048828125</ele>
        <time>2026-06-16T08:33:03.000Z</time>
        <extensions>
          <ns3:TrackPointExtension>
            <ns3:atemp>17.0</ns3:atemp>
          </ns3:TrackPointExtension>
        </extensions>
      </trkpt>
      <trkpt lat="42.6249848864972591400146484375" lon="19.88024580292403697967529296875">
        <ele>1746.800048828125</ele>
        <time>2026-06-16T08:33:04.000Z</time>
        <extensions>
          <ns3:TrackPointExtension>
            <ns3:atemp>17.0</ns3:atemp>
          </ns3:TrackPointExtension>
        </extensions>
      </trkpt>
      <trkpt lat="42.6249848864972591400146484375" lon="19.88024580292403697967529296875">
        <ele>1746.800048828125</ele>
        <time>2026-06-16T08:33:05.000Z</time>
        <extensions>
          <ns3:TrackPointExtension>
            <ns3:atemp>17.0</ns3:atemp>
          </ns3:TrackPointExtension>
        </extensions>
      </trkpt>
      <trkpt lat="42.6249848864972591400146484375" lon="19.88024580292403697967529296875">
        <ele>1746.800048828125</ele>
        <time>2026-06-16T08:33:06.000Z</time>
        <extensions>
          <ns3:TrackPointExtension>
            <ns3:atemp>17.0</ns3:atemp>
          </ns3:TrackPointExtension>
        </extensions>
      </trkpt>
      <trkpt lat="42.6249848864972591400146484375" lon="19.88024580292403697967529296875">
        <ele>1746.800048828125</ele>
        <time>2026-06-16T08:33:07.000Z</time>
        <extensions>
          <ns3:TrackPointExtension>
            <ns3:atemp>17.0</ns3:atemp>
          </ns3:TrackPointExtension>
        </extensions>
      </trkpt>
      <trkpt lat="42.6249848864972591400146484375" lon="19.88024580292403697967529296875">
        <ele>1746.800048828125</ele>
        <time>2026-06-16T08:33:08.000Z</time>
        <extensions>
          <ns3:TrackPointExtension>
            <ns3:atemp>17.0</ns3:atemp>
          </ns3:TrackPointExtension>
        </extensions>
      </trkpt>
      <trkpt lat="42.6249848864972591400146484375" lon="19.88024580292403697967529296875">
        <ele>1746.800048828125</ele>
        <time>2026-06-16T08:33:09.000Z</time>
        <extensions>
          <ns3:TrackPointExtension>
            <ns3:atemp>17.0</ns3:atemp>
          </ns3:TrackPointExtension>
        </extensions>
      </trkpt>
      <trkpt lat="42.6249848864972591400146484375" lon="19.88024580292403697967529296875">
        <ele>1746.800048828125</ele>
        <time>2026-06-16T08:33:10.000Z</time>
        <extensions>
          <ns3:TrackPointExtension>
            <ns3:atemp>17.0</ns3:atemp>
          </ns3:TrackPointExtension>
        </extensions>
      </trkpt>
      <trkpt lat="42.6249848864972591400146484375" lon="19.88024580292403697967529296875">
        <ele>1746.800048828125</ele>
        <time>2026-06-16T08:33:11.000Z</time>
        <extensions>
          <ns3:TrackPointExtension>
            <ns3:atemp>17.0</ns3:atemp>
          </ns3:TrackPointExtension>
        </extensions>
      </trkpt>
      <trkpt lat="42.6249848864972591400146484375" lon="19.88024580292403697967529296875">
        <ele>1746.800048828125</ele>
        <time>2026-06-16T08:33:12.000Z</time>
        <extensions>
          <ns3:TrackPointExtension>
            <ns3:atemp>17.0</ns3:atemp>
          </ns3:TrackPointExtension>
        </extensions>
      </trkpt>
      <trkpt lat="42.6249848864972591400146484375" lon="19.88024580292403697967529296875">
        <ele>1746.800048828125</ele>
        <time>2026-06-16T08:33:13.000Z</time>
        <extensions>
          <ns3:TrackPointExtension>
            <ns3:atemp>17.0</ns3:atemp>
          </ns3:TrackPointExtension>
        </extensions>
      </trkpt>
      <trkpt lat="42.6249848864972591400146484375" lon="19.88024580292403697967529296875">
        <ele>1746.800048828125</ele>
        <time>2026-06-16T08:33:14.000Z</time>
        <extensions>
          <ns3:TrackPointExtension>
            <ns3:atemp>17.0</ns3:atemp>
          </ns3:TrackPointExtension>
        </extensions>
      </trkpt>
      <trkpt lat="42.6249848864972591400146484375" lon="19.88024580292403697967529296875">
        <ele>1746.800048828125</ele>
        <time>2026-06-16T08:33:15.000Z</time>
        <extensions>
          <ns3:TrackPointExtension>
            <ns3:atemp>17.0</ns3:atemp>
          </ns3:TrackPointExtension>
        </extensions>
      </trkpt>
      <trkpt lat="42.6249848864972591400146484375" lon="19.88024580292403697967529296875">
        <ele>1746.800048828125</ele>
        <time>2026-06-16T08:33:16.000Z</time>
        <extensions>
          <ns3:TrackPointExtension>
            <ns3:atemp>17.0</ns3:atemp>
          </ns3:TrackPointExtension>
        </extensions>
      </trkpt>
      <trkpt lat="42.6249848864972591400146484375" lon="19.88024580292403697967529296875">
        <ele>1746.800048828125</ele>
        <time>2026-06-16T08:33:17.000Z</time>
        <extensions>
          <ns3:TrackPointExtension>
            <ns3:atemp>17.0</ns3:atemp>
          </ns3:TrackPointExtension>
        </extensions>
      </trkpt>
      <trkpt lat="42.6249848864972591400146484375" lon="19.88024580292403697967529296875">
        <ele>1746.800048828125</ele>
        <time>2026-06-16T08:33:18.000Z</time>
        <extensions>
          <ns3:TrackPointExtension>
            <ns3:atemp>17.0</ns3:atemp>
          </ns3:TrackPointExtension>
        </extensions>
      </trkpt>
      <trkpt lat="42.6249848864972591400146484375" lon="19.88024580292403697967529296875">
        <ele>1746.800048828125</ele>
        <time>2026-06-16T08:33:19.000Z</time>
        <extensions>
          <ns3:TrackPointExtension>
            <ns3:atemp>17.0</ns3:atemp>
          </ns3:TrackPointExtension>
        </extensions>
      </trkpt>
      <trkpt lat="42.6249848864972591400146484375" lon="19.88024580292403697967529296875">
        <ele>1746.800048828125</ele>
        <time>2026-06-16T08:33:20.000Z</time>
        <extensions>
          <ns3:TrackPointExtension>
            <ns3:atemp>17.0</ns3:atemp>
          </ns3:TrackPointExtension>
        </extensions>
      </trkpt>
      <trkpt lat="42.6249848864972591400146484375" lon="19.88024580292403697967529296875">
        <ele>1746.800048828125</ele>
        <time>2026-06-16T08:33:21.000Z</time>
        <extensions>
          <ns3:TrackPointExtension>
            <ns3:atemp>17.0</ns3:atemp>
          </ns3:TrackPointExtension>
        </extensions>
      </trkpt>
      <trkpt lat="42.6249848864972591400146484375" lon="19.88024580292403697967529296875">
        <ele>1746.800048828125</ele>
        <time>2026-06-16T08:33:22.000Z</time>
        <extensions>
          <ns3:TrackPointExtension>
            <ns3:atemp>17.0</ns3:atemp>
          </ns3:TrackPointExtension>
        </extensions>
      </trkpt>
      <trkpt lat="42.6249848864972591400146484375" lon="19.88024580292403697967529296875">
        <ele>1746.800048828125</ele>
        <time>2026-06-16T08:33:23.000Z</time>
        <extensions>
          <ns3:TrackPointExtension>
            <ns3:atemp>17.0</ns3:atemp>
          </ns3:TrackPointExtension>
        </extensions>
      </trkpt>
      <trkpt lat="42.6249848864972591400146484375" lon="19.88024580292403697967529296875">
        <ele>1746.800048828125</ele>
        <time>2026-06-16T08:33:24.000Z</time>
        <extensions>
          <ns3:TrackPointExtension>
            <ns3:atemp>17.0</ns3:atemp>
          </ns3:TrackPointExtension>
        </extensions>
      </trkpt>
      <trkpt lat="42.6249848864972591400146484375" lon="19.88024580292403697967529296875">
        <ele>1746.800048828125</ele>
        <time>2026-06-16T08:33:25.000Z</time>
        <extensions>
          <ns3:TrackPointExtension>
            <ns3:atemp>17.0</ns3:atemp>
          </ns3:TrackPointExtension>
        </extensions>
      </trkpt>
      <trkpt lat="42.6249848864972591400146484375" lon="19.88024580292403697967529296875">
        <ele>1746.800048828125</ele>
        <time>2026-06-16T08:33:26.000Z</time>
        <extensions>
          <ns3:TrackPointExtension>
            <ns3:atemp>17.0</ns3:atemp>
          </ns3:TrackPointExtension>
        </extensions>
      </trkpt>
      <trkpt lat="42.6249848864972591400146484375" lon="19.88024580292403697967529296875">
        <ele>1746.800048828125</ele>
        <time>2026-06-16T08:33:27.000Z</time>
        <extensions>
          <ns3:TrackPointExtension>
            <ns3:atemp>17.0</ns3:atemp>
          </ns3:TrackPointExtension>
        </extensions>
      </trkpt>
      <trkpt lat="42.6249848864972591400146484375" lon="19.88024580292403697967529296875">
        <ele>1746.800048828125</ele>
        <time>2026-06-16T08:33:28.000Z</time>
        <extensions>
          <ns3:TrackPointExtension>
            <ns3:atemp>17.0</ns3:atemp>
          </ns3:TrackPointExtension>
        </extensions>
      </trkpt>
      <trkpt lat="42.6249848864972591400146484375" lon="19.88024580292403697967529296875">
        <ele>1746.800048828125</ele>
        <time>2026-06-16T08:33:29.000Z</time>
        <extensions>
          <ns3:TrackPointExtension>
            <ns3:atemp>17.0</ns3:atemp>
          </ns3:TrackPointExtension>
        </extensions>
      </trkpt>
      <trkpt lat="42.6249848864972591400146484375" lon="19.88024580292403697967529296875">
        <ele>1746.800048828125</ele>
        <time>2026-06-16T08:33:30.000Z</time>
        <extensions>
          <ns3:TrackPointExtension>
            <ns3:atemp>17.0</ns3:atemp>
          </ns3:TrackPointExtension>
        </extensions>
      </trkpt>
      <trkpt lat="42.6249848864972591400146484375" lon="19.88024580292403697967529296875">
        <ele>1746.800048828125</ele>
        <time>2026-06-16T08:33:31.000Z</time>
        <extensions>
          <ns3:TrackPointExtension>
            <ns3:atemp>17.0</ns3:atemp>
          </ns3:TrackPointExtension>
        </extensions>
      </trkpt>
      <trkpt lat="42.6249848864972591400146484375" lon="19.88024580292403697967529296875">
        <ele>1746.800048828125</ele>
        <time>2026-06-16T08:33:32.000Z</time>
        <extensions>
          <ns3:TrackPointExtension>
            <ns3:atemp>17.0</ns3:atemp>
          </ns3:TrackPointExtension>
        </extensions>
      </trkpt>
      <trkpt lat="42.6249848864972591400146484375" lon="19.88024580292403697967529296875">
        <ele>1746.800048828125</ele>
        <time>2026-06-16T08:33:33.000Z</time>
        <extensions>
          <ns3:TrackPointExtension>
            <ns3:atemp>17.0</ns3:atemp>
          </ns3:TrackPointExtension>
        </extensions>
      </trkpt>
      <trkpt lat="42.6249848864972591400146484375" lon="19.88024580292403697967529296875">
        <ele>1746.800048828125</ele>
        <time>2026-06-16T08:33:34.000Z</time>
        <extensions>
          <ns3:TrackPointExtension>
            <ns3:atemp>17.0</ns3:atemp>
          </ns3:TrackPointExtension>
        </extensions>
      </trkpt>
      <trkpt lat="42.6249848864972591400146484375" lon="19.88024580292403697967529296875">
        <ele>1746.800048828125</ele>
        <time>2026-06-16T08:33:35.000Z</time>
        <extensions>
          <ns3:TrackPointExtension>
            <ns3:atemp>17.0</ns3:atemp>
          </ns3:TrackPointExtension>
        </extensions>
      </trkpt>
      <trkpt lat="42.6249848864972591400146484375" lon="19.88024580292403697967529296875">
        <ele>1746.800048828125</ele>
        <time>2026-06-16T08:33:36.000Z</time>
        <extensions>
          <ns3:TrackPointExtension>
            <ns3:atemp>17.0</ns3:atemp>
          </ns3:TrackPointExtension>
        </extensions>
      </trkpt>
      <trkpt lat="42.6249848864972591400146484375" lon="19.88024580292403697967529296875">
        <ele>1746.800048828125</ele>
        <time>2026-06-16T08:33:37.000Z</time>
        <extensions>
          <ns3:TrackPointExtension>
            <ns3:atemp>17.0</ns3:atemp>
          </ns3:TrackPointExtension>
        </extensions>
      </trkpt>
      <trkpt lat="42.6249848864972591400146484375" lon="19.88024580292403697967529296875">
        <ele>1746.800048828125</ele>
        <time>2026-06-16T08:33:38.000Z</time>
        <extensions>
          <ns3:TrackPointExtension>
            <ns3:atemp>17.0</ns3:atemp>
          </ns3:TrackPointExtension>
        </extensions>
      </trkpt>
      <trkpt lat="42.6249848864972591400146484375" lon="19.88024580292403697967529296875">
        <ele>1746.800048828125</ele>
        <time>2026-06-16T08:33:39.000Z</time>
        <extensions>
          <ns3:TrackPointExtension>
            <ns3:atemp>17.0</ns3:atemp>
          </ns3:TrackPointExtension>
        </extensions>
      </trkpt>
      <trkpt lat="42.6249848864972591400146484375" lon="19.88024580292403697967529296875">
        <ele>1746.800048828125</ele>
        <time>2026-06-16T08:33:40.000Z</time>
        <extensions>
          <ns3:TrackPointExtension>
            <ns3:atemp>17.0</ns3:atemp>
          </ns3:TrackPointExtension>
        </extensions>
      </trkpt>
      <trkpt lat="42.6249848864972591400146484375" lon="19.88024580292403697967529296875">
        <ele>1746.800048828125</ele>
        <time>2026-06-16T08:33:41.000Z</time>
        <extensions>
          <ns3:TrackPointExtension>
            <ns3:atemp>17.0</ns3:atemp>
          </ns3:TrackPointExtension>
        </extensions>
      </trkpt>
      <trkpt lat="42.6249848864972591400146484375" lon="19.88024580292403697967529296875">
        <ele>1746.800048828125</ele>
        <time>2026-06-16T08:33:42.000Z</time>
        <extensions>
          <ns3:TrackPointExtension>
            <ns3:atemp>17.0</ns3:atemp>
          </ns3:TrackPointExtension>
        </extensions>
      </trkpt>
      <trkpt lat="42.6249848864972591400146484375" lon="19.88024580292403697967529296875">
        <ele>1746.800048828125</ele>
        <time>2026-06-16T08:33:43.000Z</time>
        <extensions>
          <ns3:TrackPointExtension>
            <ns3:atemp>17.0</ns3:atemp>
          </ns3:TrackPointExtension>
        </extensions>
      </trkpt>
      <trkpt lat="42.6249848864972591400146484375" lon="19.88024580292403697967529296875">
        <ele>1746.800048828125</ele>
        <time>2026-06-16T08:33:44.000Z</time>
        <extensions>
          <ns3:TrackPointExtension>
            <ns3:atemp>17.0</ns3:atemp>
          </ns3:TrackPointExtension>
        </extensions>
      </trkpt>
      <trkpt lat="42.6249848864972591400146484375" lon="19.88024580292403697967529296875">
        <ele>1746.800048828125</ele>
        <time>2026-06-16T08:33:45.000Z</time>
        <extensions>
          <ns3:TrackPointExtension>
            <ns3:atemp>17.0</ns3:atemp>
          </ns3:TrackPointExtension>
        </extensions>
      </trkpt>
      <trkpt lat="42.6249848864972591400146484375" lon="19.88024580292403697967529296875">
        <ele>1746.800048828125</ele>
        <time>2026-06-16T08:33:46.000Z</time>
        <extensions>
          <ns3:TrackPointExtension>
            <ns3:atemp>17.0</ns3:atemp>
          </ns3:TrackPointExtension>
        </extensions>
      </trkpt>
      <trkpt lat="42.6249848864972591400146484375" lon="19.88024580292403697967529296875">
        <ele>1746.800048828125</ele>
        <time>2026-06-16T08:33:47.000Z</time>
        <extensions>
          <ns3:TrackPointExtension>
            <ns3:atemp>17.0</ns3:atemp>
          </ns3:TrackPointExtension>
        </extensions>
      </trkpt>
      <trkpt lat="42.6249848864972591400146484375" lon="19.88024580292403697967529296875">
        <ele>1746.800048828125</ele>
        <time>2026-06-16T08:33:48.000Z</time>
        <extensions>
          <ns3:TrackPointExtension>
            <ns3:atemp>17.0</ns3:atemp>
          </ns3:TrackPointExtension>
        </extensions>
      </trkpt>
      <trkpt lat="42.6249848864972591400146484375" lon="19.88024580292403697967529296875">
        <ele>1746.800048828125</ele>
        <time>2026-06-16T08:33:49.000Z</time>
        <extensions>
          <ns3:TrackPointExtension>
            <ns3:atemp>17.0</ns3:atemp>
          </ns3:TrackPointExtension>
        </extensions>
      </trkpt>
      <trkpt lat="42.6249848864972591400146484375" lon="19.88024580292403697967529296875">
        <ele>1746.800048828125</ele>
        <time>2026-06-16T08:33:50.000Z</time>
        <extensions>
          <ns3:TrackPointExtension>
            <ns3:atemp>17.0</ns3:atemp>
          </ns3:TrackPointExtension>
        </extensions>
      </trkpt>
      <trkpt lat="42.6249848864972591400146484375" lon="19.88024580292403697967529296875">
        <ele>1746.800048828125</ele>
        <time>2026-06-16T08:33:51.000Z</time>
        <extensions>
          <ns3:TrackPointExtension>
            <ns3:atemp>17.0</ns3:atemp>
          </ns3:TrackPointExtension>
        </extensions>
      </trkpt>
      <trkpt lat="42.6249848864972591400146484375" lon="19.88024580292403697967529296875">
        <ele>1746.800048828125</ele>
        <time>2026-06-16T08:33:52.000Z</time>
        <extensions>
          <ns3:TrackPointExtension>
            <ns3:atemp>17.0</ns3:atemp>
          </ns3:TrackPointExtension>
        </extensions>
      </trkpt>
      <trkpt lat="42.6249848864972591400146484375" lon="19.88024580292403697967529296875">
        <ele>1746.800048828125</ele>
        <time>2026-06-16T08:33:53.000Z</time>
        <extensions>
          <ns3:TrackPointExtension>
            <ns3:atemp>17.0</ns3:atemp>
          </ns3:TrackPointExtension>
        </extensions>
      </trkpt>
      <trkpt lat="42.6249848864972591400146484375" lon="19.88024580292403697967529296875">
        <ele>1746.800048828125</ele>
        <time>2026-06-16T08:33:54.000Z</time>
        <extensions>
          <ns3:TrackPointExtension>
            <ns3:atemp>17.0</ns3:atemp>
          </ns3:TrackPointExtension>
        </extensions>
      </trkpt>
      <trkpt lat="42.6249848864972591400146484375" lon="19.88024580292403697967529296875">
        <ele>1746.800048828125</ele>
        <time>2026-06-16T08:33:55.000Z</time>
        <extensions>
          <ns3:TrackPointExtension>
            <ns3:atemp>17.0</ns3:atemp>
          </ns3:TrackPointExtension>
        </extensions>
      </trkpt>
      <trkpt lat="42.6249848864972591400146484375" lon="19.88024580292403697967529296875">
        <ele>1746.800048828125</ele>
        <time>2026-06-16T08:33:56.000Z</time>
        <extensions>
          <ns3:TrackPointExtension>
            <ns3:atemp>17.0</ns3:atemp>
          </ns3:TrackPointExtension>
        </extensions>
      </trkpt>
      <trkpt lat="42.6249848864972591400146484375" lon="19.88024580292403697967529296875">
        <ele>1746.800048828125</ele>
        <time>2026-06-16T08:33:57.000Z</time>
        <extensions>
          <ns3:TrackPointExtension>
            <ns3:atemp>17.0</ns3:atemp>
          </ns3:TrackPointExtension>
        </extensions>
      </trkpt>
      <trkpt lat="42.6249848864972591400146484375" lon="19.88024580292403697967529296875">
        <ele>1746.800048828125</ele>
        <time>2026-06-16T08:33:58.000Z</time>
        <extensions>
          <ns3:TrackPointExtension>
            <ns3:atemp>17.0</ns3:atemp>
          </ns3:TrackPointExtension>
        </extensions>
      </trkpt>
      <trkpt lat="42.6249848864972591400146484375" lon="19.88024580292403697967529296875">
        <ele>1746.800048828125</ele>
        <time>2026-06-16T08:33:59.000Z</time>
        <extensions>
          <ns3:TrackPointExtension>
            <ns3:atemp>17.0</ns3:atemp>
          </ns3:TrackPointExtension>
        </extensions>
      </trkpt>
      <trkpt lat="42.6249848864972591400146484375" lon="19.88024580292403697967529296875">
        <ele>1746.800048828125</ele>
        <time>2026-06-16T08:34:00.000Z</time>
        <extensions>
          <ns3:TrackPointExtension>
            <ns3:atemp>17.0</ns3:atemp>
          </ns3:TrackPointExtension>
        </extensions>
      </trkpt>
      <trkpt lat="42.6249848864972591400146484375" lon="19.88024580292403697967529296875">
        <ele>1746.800048828125</ele>
        <time>2026-06-16T08:34:01.000Z</time>
        <extensions>
          <ns3:TrackPointExtension>
            <ns3:atemp>17.0</ns3:atemp>
          </ns3:TrackPointExtension>
        </extensions>
      </trkpt>
      <trkpt lat="42.6249848864972591400146484375" lon="19.88024580292403697967529296875">
        <ele>1746.800048828125</ele>
        <time>2026-06-16T08:34:02.000Z</time>
        <extensions>
          <ns3:TrackPointExtension>
            <ns3:atemp>17.0</ns3:atemp>
          </ns3:TrackPointExtension>
        </extensions>
      </trkpt>
      <trkpt lat="42.6249848864972591400146484375" lon="19.88024580292403697967529296875">
        <ele>1746.800048828125</ele>
        <time>2026-06-16T08:34:03.000Z</time>
        <extensions>
          <ns3:TrackPointExtension>
            <ns3:atemp>17.0</ns3:atemp>
          </ns3:TrackPointExtension>
        </extensions>
      </trkpt>
      <trkpt lat="42.6249848864972591400146484375" lon="19.88024580292403697967529296875">
        <ele>1746.800048828125</ele>
        <time>2026-06-16T08:34:04.000Z</time>
        <extensions>
          <ns3:TrackPointExtension>
            <ns3:atemp>17.0</ns3:atemp>
          </ns3:TrackPointExtension>
        </extensions>
      </trkpt>
      <trkpt lat="42.6249848864972591400146484375" lon="19.88024580292403697967529296875">
        <ele>1746.800048828125</ele>
        <time>2026-06-16T08:34:05.000Z</time>
        <extensions>
          <ns3:TrackPointExtension>
            <ns3:atemp>17.0</ns3:atemp>
          </ns3:TrackPointExtension>
        </extensions>
      </trkpt>
      <trkpt lat="42.6249848864972591400146484375" lon="19.88024580292403697967529296875">
        <ele>1746.800048828125</ele>
        <time>2026-06-16T08:34:06.000Z</time>
        <extensions>
          <ns3:TrackPointExtension>
            <ns3:atemp>17.0</ns3:atemp>
          </ns3:TrackPointExtension>
        </extensions>
      </trkpt>
      <trkpt lat="42.6249848864972591400146484375" lon="19.88024580292403697967529296875">
        <ele>1746.800048828125</ele>
        <time>2026-06-16T08:34:07.000Z</time>
        <extensions>
          <ns3:TrackPointExtension>
            <ns3:atemp>17.0</ns3:atemp>
          </ns3:TrackPointExtension>
        </extensions>
      </trkpt>
      <trkpt lat="42.6249848864972591400146484375" lon="19.88024580292403697967529296875">
        <ele>1746.800048828125</ele>
        <time>2026-06-16T08:34:08.000Z</time>
        <extensions>
          <ns3:TrackPointExtension>
            <ns3:atemp>17.0</ns3:atemp>
          </ns3:TrackPointExtension>
        </extensions>
      </trkpt>
      <trkpt lat="42.6249848864972591400146484375" lon="19.88024580292403697967529296875">
        <ele>1746.800048828125</ele>
        <time>2026-06-16T08:34:09.000Z</time>
        <extensions>
          <ns3:TrackPointExtension>
            <ns3:atemp>17.0</ns3:atemp>
          </ns3:TrackPointExtension>
        </extensions>
      </trkpt>
      <trkpt lat="42.6249848864972591400146484375" lon="19.88024580292403697967529296875">
        <ele>1746.800048828125</ele>
        <time>2026-06-16T08:34:10.000Z</time>
        <extensions>
          <ns3:TrackPointExtension>
            <ns3:atemp>17.0</ns3:atemp>
          </ns3:TrackPointExtension>
        </extensions>
      </trkpt>
      <trkpt lat="42.6249848864972591400146484375" lon="19.88024580292403697967529296875">
        <ele>1746.800048828125</ele>
        <time>2026-06-16T08:34:11.000Z</time>
        <extensions>
          <ns3:TrackPointExtension>
            <ns3:atemp>17.0</ns3:atemp>
          </ns3:TrackPointExtension>
        </extensions>
      </trkpt>
      <trkpt lat="42.6249848864972591400146484375" lon="19.88024580292403697967529296875">
        <ele>1746.800048828125</ele>
        <time>2026-06-16T08:34:12.000Z</time>
        <extensions>
          <ns3:TrackPointExtension>
            <ns3:atemp>17.0</ns3:atemp>
          </ns3:TrackPointExtension>
        </extensions>
      </trkpt>
      <trkpt lat="42.6249848864972591400146484375" lon="19.88024580292403697967529296875">
        <ele>1746.800048828125</ele>
        <time>2026-06-16T08:34:13.000Z</time>
        <extensions>
          <ns3:TrackPointExtension>
            <ns3:atemp>17.0</ns3:atemp>
          </ns3:TrackPointExtension>
        </extensions>
      </trkpt>
      <trkpt lat="42.6249848864972591400146484375" lon="19.88024580292403697967529296875">
        <ele>1746.800048828125</ele>
        <time>2026-06-16T08:34:14.000Z</time>
        <extensions>
          <ns3:TrackPointExtension>
            <ns3:atemp>17.0</ns3:atemp>
          </ns3:TrackPointExtension>
        </extensions>
      </trkpt>
      <trkpt lat="42.6249848864972591400146484375" lon="19.88024580292403697967529296875">
        <ele>1746.800048828125</ele>
        <time>2026-06-16T08:34:15.000Z</time>
        <extensions>
          <ns3:TrackPointExtension>
            <ns3:atemp>17.0</ns3:atemp>
          </ns3:TrackPointExtension>
        </extensions>
      </trkpt>
      <trkpt lat="42.6249848864972591400146484375" lon="19.88024580292403697967529296875">
        <ele>1746.800048828125</ele>
        <time>2026-06-16T08:34:16.000Z</time>
        <extensions>
          <ns3:TrackPointExtension>
            <ns3:atemp>17.0</ns3:atemp>
          </ns3:TrackPointExtension>
        </extensions>
      </trkpt>
      <trkpt lat="42.6249848864972591400146484375" lon="19.88024580292403697967529296875">
        <ele>1746.800048828125</ele>
        <time>2026-06-16T08:34:17.000Z</time>
        <extensions>
          <ns3:TrackPointExtension>
            <ns3:atemp>17.0</ns3:atemp>
          </ns3:TrackPointExtension>
        </extensions>
      </trkpt>
      <trkpt lat="42.6249848864972591400146484375" lon="19.88024580292403697967529296875">
        <ele>1746.800048828125</ele>
        <time>2026-06-16T08:34:18.000Z</time>
        <extensions>
          <ns3:TrackPointExtension>
            <ns3:atemp>17.0</ns3:atemp>
          </ns3:TrackPointExtension>
        </extensions>
      </trkpt>
      <trkpt lat="42.6249848864972591400146484375" lon="19.88024580292403697967529296875">
        <ele>1746.800048828125</ele>
        <time>2026-06-16T08:34:19.000Z</time>
        <extensions>
          <ns3:TrackPointExtension>
            <ns3:atemp>17.0</ns3:atemp>
          </ns3:TrackPointExtension>
        </extensions>
      </trkpt>
      <trkpt lat="42.6249848864972591400146484375" lon="19.88024580292403697967529296875">
        <ele>1746.800048828125</ele>
        <time>2026-06-16T08:34:20.000Z</time>
        <extensions>
          <ns3:TrackPointExtension>
            <ns3:atemp>17.0</ns3:atemp>
          </ns3:TrackPointExtension>
        </extensions>
      </trkpt>
      <trkpt lat="42.6249848864972591400146484375" lon="19.88024580292403697967529296875">
        <ele>1746.800048828125</ele>
        <time>2026-06-16T08:34:21.000Z</time>
        <extensions>
          <ns3:TrackPointExtension>
            <ns3:atemp>17.0</ns3:atemp>
          </ns3:TrackPointExtension>
        </extensions>
      </trkpt>
      <trkpt lat="42.6249848864972591400146484375" lon="19.88024580292403697967529296875">
        <ele>1746.800048828125</ele>
        <time>2026-06-16T08:34:22.000Z</time>
        <extensions>
          <ns3:TrackPointExtension>
            <ns3:atemp>17.0</ns3:atemp>
          </ns3:TrackPointExtension>
        </extensions>
      </trkpt>
      <trkpt lat="42.6249848864972591400146484375" lon="19.88024580292403697967529296875">
        <ele>1746.800048828125</ele>
        <time>2026-06-16T08:34:23.000Z</time>
        <extensions>
          <ns3:TrackPointExtension>
            <ns3:atemp>17.0</ns3:atemp>
          </ns3:TrackPointExtension>
        </extensions>
      </trkpt>
      <trkpt lat="42.6249848864972591400146484375" lon="19.88024580292403697967529296875">
        <ele>1746.800048828125</ele>
        <time>2026-06-16T08:34:24.000Z</time>
        <extensions>
          <ns3:TrackPointExtension>
            <ns3:atemp>17.0</ns3:atemp>
          </ns3:TrackPointExtension>
        </extensions>
      </trkpt>
      <trkpt lat="42.6249848864972591400146484375" lon="19.88024580292403697967529296875">
        <ele>1746.800048828125</ele>
        <time>2026-06-16T08:34:25.000Z</time>
        <extensions>
          <ns3:TrackPointExtension>
            <ns3:atemp>17.0</ns3:atemp>
          </ns3:TrackPointExtension>
        </extensions>
      </trkpt>
      <trkpt lat="42.6249848864972591400146484375" lon="19.88024580292403697967529296875">
        <ele>1746.800048828125</ele>
        <time>2026-06-16T08:34:26.000Z</time>
        <extensions>
          <ns3:TrackPointExtension>
            <ns3:atemp>17.0</ns3:atemp>
          </ns3:TrackPointExtension>
        </extensions>
      </trkpt>
      <trkpt lat="42.6249848864972591400146484375" lon="19.88024580292403697967529296875">
        <ele>1746.800048828125</ele>
        <time>2026-06-16T08:34:27.000Z</time>
        <extensions>
          <ns3:TrackPointExtension>
            <ns3:atemp>17.0</ns3:atemp>
          </ns3:TrackPointExtension>
        </extensions>
      </trkpt>
      <trkpt lat="42.6249848864972591400146484375" lon="19.88024580292403697967529296875">
        <ele>1746.800048828125</ele>
        <time>2026-06-16T08:34:28.000Z</time>
        <extensions>
          <ns3:TrackPointExtension>
            <ns3:atemp>17.0</ns3:atemp>
          </ns3:TrackPointExtension>
        </extensions>
      </trkpt>
      <trkpt lat="42.6249848864972591400146484375" lon="19.88024580292403697967529296875">
        <ele>1746.800048828125</ele>
        <time>2026-06-16T08:34:29.000Z</time>
        <extensions>
          <ns3:TrackPointExtension>
            <ns3:atemp>17.0</ns3:atemp>
          </ns3:TrackPointExtension>
        </extensions>
      </trkpt>
      <trkpt lat="42.6249848864972591400146484375" lon="19.88024580292403697967529296875">
        <ele>1746.800048828125</ele>
        <time>2026-06-16T08:34:30.000Z</time>
        <extensions>
          <ns3:TrackPointExtension>
            <ns3:atemp>17.0</ns3:atemp>
          </ns3:TrackPointExtension>
        </extensions>
      </trkpt>
      <trkpt lat="42.6249848864972591400146484375" lon="19.88024580292403697967529296875">
        <ele>1746.800048828125</ele>
        <time>2026-06-16T08:34:31.000Z</time>
        <extensions>
          <ns3:TrackPointExtension>
            <ns3:atemp>17.0</ns3:atemp>
          </ns3:TrackPointExtension>
        </extensions>
      </trkpt>
      <trkpt lat="42.6249848864972591400146484375" lon="19.88024580292403697967529296875">
        <ele>1746.800048828125</ele>
        <time>2026-06-16T08:34:32.000Z</time>
        <extensions>
          <ns3:TrackPointExtension>
            <ns3:atemp>17.0</ns3:atemp>
          </ns3:TrackPointExtension>
        </extensions>
      </trkpt>
      <trkpt lat="42.6249848864972591400146484375" lon="19.88024580292403697967529296875">
        <ele>1746.800048828125</ele>
        <time>2026-06-16T08:34:33.000Z</time>
        <extensions>
          <ns3:TrackPointExtension>
            <ns3:atemp>17.0</ns3:atemp>
          </ns3:TrackPointExtension>
        </extensions>
      </trkpt>
      <trkpt lat="42.6249848864972591400146484375" lon="19.88024580292403697967529296875">
        <ele>1746.800048828125</ele>
        <time>2026-06-16T08:34:34.000Z</time>
        <extensions>
          <ns3:TrackPointExtension>
            <ns3:atemp>17.0</ns3:atemp>
          </ns3:TrackPointExtension>
        </extensions>
      </trkpt>
      <trkpt lat="42.6249848864972591400146484375" lon="19.88024580292403697967529296875">
        <ele>1746.800048828125</ele>
        <time>2026-06-16T08:34:35.000Z</time>
        <extensions>
          <ns3:TrackPointExtension>
            <ns3:atemp>17.0</ns3:atemp>
          </ns3:TrackPointExtension>
        </extensions>
      </trkpt>
      <trkpt lat="42.6249848864972591400146484375" lon="19.88024580292403697967529296875">
        <ele>1746.800048828125</ele>
        <time>2026-06-16T08:34:36.000Z</time>
        <extensions>
          <ns3:TrackPointExtension>
            <ns3:atemp>17.0</ns3:atemp>
          </ns3:TrackPointExtension>
        </extensions>
      </trkpt>
      <trkpt lat="42.6249848864972591400146484375" lon="19.88024580292403697967529296875">
        <ele>1746.800048828125</ele>
        <time>2026-06-16T08:34:37.000Z</time>
        <extensions>
          <ns3:TrackPointExtension>
            <ns3:atemp>17.0</ns3:atemp>
          </ns3:TrackPointExtension>
        </extensions>
      </trkpt>
      <trkpt lat="42.6249848864972591400146484375" lon="19.88024580292403697967529296875">
        <ele>1746.800048828125</ele>
        <time>2026-06-16T08:34:38.000Z</time>
        <extensions>
          <ns3:TrackPointExtension>
            <ns3:atemp>17.0</ns3:atemp>
          </ns3:TrackPointExtension>
        </extensions>
      </trkpt>
      <trkpt lat="42.6249848864972591400146484375" lon="19.88024580292403697967529296875">
        <ele>1746.800048828125</ele>
        <time>2026-06-16T08:34:39.000Z</time>
        <extensions>
          <ns3:TrackPointExtension>
            <ns3:atemp>17.0</ns3:atemp>
          </ns3:TrackPointExtension>
        </extensions>
      </trkpt>
      <trkpt lat="42.6249848864972591400146484375" lon="19.88024580292403697967529296875">
        <ele>1746.800048828125</ele>
        <time>2026-06-16T08:34:40.000Z</time>
        <extensions>
          <ns3:TrackPointExtension>
            <ns3:atemp>17.0</ns3:atemp>
          </ns3:TrackPointExtension>
        </extensions>
      </trkpt>
      <trkpt lat="42.6249848864972591400146484375" lon="19.88024580292403697967529296875">
        <ele>1746.800048828125</ele>
        <time>2026-06-16T08:34:41.000Z</time>
        <extensions>
          <ns3:TrackPointExtension>
            <ns3:atemp>17.0</ns3:atemp>
          </ns3:TrackPointExtension>
        </extensions>
      </trkpt>
      <trkpt lat="42.6249848864972591400146484375" lon="19.88024580292403697967529296875">
        <ele>1746.800048828125</ele>
        <time>2026-06-16T08:34:42.000Z</time>
        <extensions>
          <ns3:TrackPointExtension>
            <ns3:atemp>17.0</ns3:atemp>
          </ns3:TrackPointExtension>
        </extensions>
      </trkpt>
      <trkpt lat="42.6249848864972591400146484375" lon="19.88024580292403697967529296875">
        <ele>1746.800048828125</ele>
        <time>2026-06-16T08:34:43.000Z</time>
        <extensions>
          <ns3:TrackPointExtension>
            <ns3:atemp>17.0</ns3:atemp>
          </ns3:TrackPointExtension>
        </extensions>
      </trkpt>
      <trkpt lat="42.6249848864972591400146484375" lon="19.88024580292403697967529296875">
        <ele>1746.800048828125</ele>
        <time>2026-06-16T08:34:44.000Z</time>
        <extensions>
          <ns3:TrackPointExtension>
            <ns3:atemp>17.0</ns3:atemp>
          </ns3:TrackPointExtension>
        </extensions>
      </trkpt>
      <trkpt lat="42.6249848864972591400146484375" lon="19.88024580292403697967529296875">
        <ele>1746.800048828125</ele>
        <time>2026-06-16T08:34:45.000Z</time>
        <extensions>
          <ns3:TrackPointExtension>
            <ns3:atemp>17.0</ns3:atemp>
          </ns3:TrackPointExtension>
        </extensions>
      </trkpt>
      <trkpt lat="42.6249848864972591400146484375" lon="19.88024580292403697967529296875">
        <ele>1746.800048828125</ele>
        <time>2026-06-16T08:34:46.000Z</time>
        <extensions>
          <ns3:TrackPointExtension>
            <ns3:atemp>17.0</ns3:atemp>
          </ns3:TrackPointExtension>
        </extensions>
      </trkpt>
      <trkpt lat="42.6249848864972591400146484375" lon="19.88024580292403697967529296875">
        <ele>1746.800048828125</ele>
        <time>2026-06-16T08:34:47.000Z</time>
        <extensions>
          <ns3:TrackPointExtension>
            <ns3:atemp>17.0</ns3:atemp>
          </ns3:TrackPointExtension>
        </extensions>
      </trkpt>
      <trkpt lat="42.6249848864972591400146484375" lon="19.88024580292403697967529296875">
        <ele>1746.800048828125</ele>
        <time>2026-06-16T08:34:48.000Z</time>
        <extensions>
          <ns3:TrackPointExtension>
            <ns3:atemp>17.0</ns3:atemp>
          </ns3:TrackPointExtension>
        </extensions>
      </trkpt>
      <trkpt lat="42.6249848864972591400146484375" lon="19.88024580292403697967529296875">
        <ele>1746.800048828125</ele>
        <time>2026-06-16T08:34:49.000Z</time>
        <extensions>
          <ns3:TrackPointExtension>
            <ns3:atemp>17.0</ns3:atemp>
          </ns3:TrackPointExtension>
        </extensions>
      </trkpt>
      <trkpt lat="42.6249848864972591400146484375" lon="19.88024580292403697967529296875">
        <ele>1746.800048828125</ele>
        <time>2026-06-16T08:34:50.000Z</time>
        <extensions>
          <ns3:TrackPointExtension>
            <ns3:atemp>17.0</ns3:atemp>
          </ns3:TrackPointExtension>
        </extensions>
      </trkpt>
      <trkpt lat="42.6249848864972591400146484375" lon="19.88024580292403697967529296875">
        <ele>1746.800048828125</ele>
        <time>2026-06-16T08:34:51.000Z</time>
        <extensions>
          <ns3:TrackPointExtension>
            <ns3:atemp>17.0</ns3:atemp>
          </ns3:TrackPointExtension>
        </extensions>
      </trkpt>
      <trkpt lat="42.6249848864972591400146484375" lon="19.88024580292403697967529296875">
        <ele>1746.800048828125</ele>
        <time>2026-06-16T08:34:52.000Z</time>
        <extensions>
          <ns3:TrackPointExtension>
            <ns3:atemp>17.0</ns3:atemp>
          </ns3:TrackPointExtension>
        </extensions>
      </trkpt>
      <trkpt lat="42.6249848864972591400146484375" lon="19.88024580292403697967529296875">
        <ele>1746.800048828125</ele>
        <time>2026-06-16T08:34:53.000Z</time>
        <extensions>
          <ns3:TrackPointExtension>
            <ns3:atemp>17.0</ns3:atemp>
          </ns3:TrackPointExtension>
        </extensions>
      </trkpt>
      <trkpt lat="42.6249848864972591400146484375" lon="19.88024580292403697967529296875">
        <ele>1746.800048828125</ele>
        <time>2026-06-16T08:34:54.000Z</time>
        <extensions>
          <ns3:TrackPointExtension>
            <ns3:atemp>17.0</ns3:atemp>
          </ns3:TrackPointExtension>
        </extensions>
      </trkpt>
      <trkpt lat="42.6249848864972591400146484375" lon="19.88024580292403697967529296875">
        <ele>1746.800048828125</ele>
        <time>2026-06-16T08:34:55.000Z</time>
        <extensions>
          <ns3:TrackPointExtension>
            <ns3:atemp>17.0</ns3:atemp>
          </ns3:TrackPointExtension>
        </extensions>
      </trkpt>
      <trkpt lat="42.6249848864972591400146484375" lon="19.88024580292403697967529296875">
        <ele>1746.800048828125</ele>
        <time>2026-06-16T08:34:56.000Z</time>
        <extensions>
          <ns3:TrackPointExtension>
            <ns3:atemp>17.0</ns3:atemp>
          </ns3:TrackPointExtension>
        </extensions>
      </trkpt>
      <trkpt lat="42.6249848864972591400146484375" lon="19.88024580292403697967529296875">
        <ele>1746.800048828125</ele>
        <time>2026-06-16T08:34:57.000Z</time>
        <extensions>
          <ns3:TrackPointExtension>
            <ns3:atemp>17.0</ns3:atemp>
          </ns3:TrackPointExtension>
        </extensions>
      </trkpt>
      <trkpt lat="42.6249848864972591400146484375" lon="19.88024580292403697967529296875">
        <ele>1746.800048828125</ele>
        <time>2026-06-16T08:34:58.000Z</time>
        <extensions>
          <ns3:TrackPointExtension>
            <ns3:atemp>17.0</ns3:atemp>
          </ns3:TrackPointExtension>
        </extensions>
      </trkpt>
      <trkpt lat="42.6249848864972591400146484375" lon="19.88024580292403697967529296875">
        <ele>1746.800048828125</ele>
        <time>2026-06-16T08:34:59.000Z</time>
        <extensions>
          <ns3:TrackPointExtension>
            <ns3:atemp>17.0</ns3:atemp>
          </ns3:TrackPointExtension>
        </extensions>
      </trkpt>
      <trkpt lat="42.6249848864972591400146484375" lon="19.88024580292403697967529296875">
        <ele>1746.800048828125</ele>
        <time>2026-06-16T08:35:00.000Z</time>
        <extensions>
          <ns3:TrackPointExtension>
            <ns3:atemp>17.0</ns3:atemp>
          </ns3:TrackPointExtension>
        </extensions>
      </trkpt>
      <trkpt lat="42.6249848864972591400146484375" lon="19.88024580292403697967529296875">
        <ele>1746.800048828125</ele>
        <time>2026-06-16T08:35:01.000Z</time>
        <extensions>
          <ns3:TrackPointExtension>
            <ns3:atemp>17.0</ns3:atemp>
          </ns3:TrackPointExtension>
        </extensions>
      </trkpt>
      <trkpt lat="42.6249848864972591400146484375" lon="19.88024580292403697967529296875">
        <ele>1746.800048828125</ele>
        <time>2026-06-16T08:35:02.000Z</time>
        <extensions>
          <ns3:TrackPointExtension>
            <ns3:atemp>17.0</ns3:atemp>
          </ns3:TrackPointExtension>
        </extensions>
      </trkpt>
      <trkpt lat="42.6249848864972591400146484375" lon="19.88024580292403697967529296875">
        <ele>1746.800048828125</ele>
        <time>2026-06-16T08:35:03.000Z</time>
        <extensions>
          <ns3:TrackPointExtension>
            <ns3:atemp>17.0</ns3:atemp>
          </ns3:TrackPointExtension>
        </extensions>
      </trkpt>
      <trkpt lat="42.6249848864972591400146484375" lon="19.88024580292403697967529296875">
        <ele>1746.800048828125</ele>
        <time>2026-06-16T08:35:04.000Z</time>
        <extensions>
          <ns3:TrackPointExtension>
            <ns3:atemp>17.0</ns3:atemp>
          </ns3:TrackPointExtension>
        </extensions>
      </trkpt>
      <trkpt lat="42.6249848864972591400146484375" lon="19.88024580292403697967529296875">
        <ele>1746.800048828125</ele>
        <time>2026-06-16T08:35:05.000Z</time>
        <extensions>
          <ns3:TrackPointExtension>
            <ns3:atemp>17.0</ns3:atemp>
          </ns3:TrackPointExtension>
        </extensions>
      </trkpt>
      <trkpt lat="42.6249848864972591400146484375" lon="19.88024580292403697967529296875">
        <ele>1746.800048828125</ele>
        <time>2026-06-16T08:35:06.000Z</time>
        <extensions>
          <ns3:TrackPointExtension>
            <ns3:atemp>17.0</ns3:atemp>
          </ns3:TrackPointExtension>
        </extensions>
      </trkpt>
      <trkpt lat="42.6249848864972591400146484375" lon="19.88024580292403697967529296875">
        <ele>1746.800048828125</ele>
        <time>2026-06-16T08:35:07.000Z</time>
        <extensions>
          <ns3:TrackPointExtension>
            <ns3:atemp>17.0</ns3:atemp>
          </ns3:TrackPointExtension>
        </extensions>
      </trkpt>
      <trkpt lat="42.6249848864972591400146484375" lon="19.88024580292403697967529296875">
        <ele>1746.800048828125</ele>
        <time>2026-06-16T08:35:08.000Z</time>
        <extensions>
          <ns3:TrackPointExtension>
            <ns3:atemp>17.0</ns3:atemp>
          </ns3:TrackPointExtension>
        </extensions>
      </trkpt>
      <trkpt lat="42.6249848864972591400146484375" lon="19.88024580292403697967529296875">
        <ele>1746.800048828125</ele>
        <time>2026-06-16T08:35:09.000Z</time>
        <extensions>
          <ns3:TrackPointExtension>
            <ns3:atemp>17.0</ns3:atemp>
          </ns3:TrackPointExtension>
        </extensions>
      </trkpt>
      <trkpt lat="42.6249848864972591400146484375" lon="19.88024580292403697967529296875">
        <ele>1746.800048828125</ele>
        <time>2026-06-16T08:35:10.000Z</time>
        <extensions>
          <ns3:TrackPointExtension>
            <ns3:atemp>17.0</ns3:atemp>
          </ns3:TrackPointExtension>
        </extensions>
      </trkpt>
      <trkpt lat="42.6249848864972591400146484375" lon="19.88024580292403697967529296875">
        <ele>1746.800048828125</ele>
        <time>2026-06-16T08:35:11.000Z</time>
        <extensions>
          <ns3:TrackPointExtension>
            <ns3:atemp>17.0</ns3:atemp>
          </ns3:TrackPointExtension>
        </extensions>
      </trkpt>
      <trkpt lat="42.6249848864972591400146484375" lon="19.88024580292403697967529296875">
        <ele>1746.800048828125</ele>
        <time>2026-06-16T08:35:12.000Z</time>
        <extensions>
          <ns3:TrackPointExtension>
            <ns3:atemp>17.0</ns3:atemp>
          </ns3:TrackPointExtension>
        </extensions>
      </trkpt>
      <trkpt lat="42.6249848864972591400146484375" lon="19.88024580292403697967529296875">
        <ele>1746.800048828125</ele>
        <time>2026-06-16T08:35:13.000Z</time>
        <extensions>
          <ns3:TrackPointExtension>
            <ns3:atemp>17.0</ns3:atemp>
          </ns3:TrackPointExtension>
        </extensions>
      </trkpt>
      <trkpt lat="42.6249848864972591400146484375" lon="19.88024580292403697967529296875">
        <ele>1746.800048828125</ele>
        <time>2026-06-16T08:35:14.000Z</time>
        <extensions>
          <ns3:TrackPointExtension>
            <ns3:atemp>17.0</ns3:atemp>
          </ns3:TrackPointExtension>
        </extensions>
      </trkpt>
      <trkpt lat="42.6249848864972591400146484375" lon="19.88024580292403697967529296875">
        <ele>1746.800048828125</ele>
        <time>2026-06-16T08:35:15.000Z</time>
        <extensions>
          <ns3:TrackPointExtension>
            <ns3:atemp>17.0</ns3:atemp>
          </ns3:TrackPointExtension>
        </extensions>
      </trkpt>
      <trkpt lat="42.6249848864972591400146484375" lon="19.88024580292403697967529296875">
        <ele>1746.800048828125</ele>
        <time>2026-06-16T08:35:16.000Z</time>
        <extensions>
          <ns3:TrackPointExtension>
            <ns3:atemp>17.0</ns3:atemp>
          </ns3:TrackPointExtension>
        </extensions>
      </trkpt>
      <trkpt lat="42.6249848864972591400146484375" lon="19.88024580292403697967529296875">
        <ele>1746.800048828125</ele>
        <time>2026-06-16T08:35:17.000Z</time>
        <extensions>
          <ns3:TrackPointExtension>
            <ns3:atemp>17.0</ns3:atemp>
          </ns3:TrackPointExtension>
        </extensions>
      </trkpt>
      <trkpt lat="42.6249848864972591400146484375" lon="19.88024580292403697967529296875">
        <ele>1746.800048828125</ele>
        <time>2026-06-16T08:35:18.000Z</time>
        <extensions>
          <ns3:TrackPointExtension>
            <ns3:atemp>17.0</ns3:atemp>
          </ns3:TrackPointExtension>
        </extensions>
      </trkpt>
      <trkpt lat="42.6249848864972591400146484375" lon="19.88024580292403697967529296875">
        <ele>1746.800048828125</ele>
        <time>2026-06-16T08:35:19.000Z</time>
        <extensions>
          <ns3:TrackPointExtension>
            <ns3:atemp>17.0</ns3:atemp>
          </ns3:TrackPointExtension>
        </extensions>
      </trkpt>
      <trkpt lat="42.6249848864972591400146484375" lon="19.88024580292403697967529296875">
        <ele>1746.800048828125</ele>
        <time>2026-06-16T08:35:20.000Z</time>
        <extensions>
          <ns3:TrackPointExtension>
            <ns3:atemp>17.0</ns3:atemp>
          </ns3:TrackPointExtension>
        </extensions>
      </trkpt>
      <trkpt lat="42.6249848864972591400146484375" lon="19.88024580292403697967529296875">
        <ele>1746.800048828125</ele>
        <time>2026-06-16T08:35:21.000Z</time>
        <extensions>
          <ns3:TrackPointExtension>
            <ns3:atemp>17.0</ns3:atemp>
          </ns3:TrackPointExtension>
        </extensions>
      </trkpt>
      <trkpt lat="42.6249848864972591400146484375" lon="19.88024580292403697967529296875">
        <ele>1746.800048828125</ele>
        <time>2026-06-16T08:35:22.000Z</time>
        <extensions>
          <ns3:TrackPointExtension>
            <ns3:atemp>17.0</ns3:atemp>
          </ns3:TrackPointExtension>
        </extensions>
      </trkpt>
      <trkpt lat="42.6249848864972591400146484375" lon="19.88024580292403697967529296875">
        <ele>1746.800048828125</ele>
        <time>2026-06-16T08:35:23.000Z</time>
        <extensions>
          <ns3:TrackPointExtension>
            <ns3:atemp>17.0</ns3:atemp>
          </ns3:TrackPointExtension>
        </extensions>
      </trkpt>
      <trkpt lat="42.6249848864972591400146484375" lon="19.88024580292403697967529296875">
        <ele>1746.800048828125</ele>
        <time>2026-06-16T08:35:24.000Z</time>
        <extensions>
          <ns3:TrackPointExtension>
            <ns3:atemp>17.0</ns3:atemp>
          </ns3:TrackPointExtension>
        </extensions>
      </trkpt>
      <trkpt lat="42.6249848864972591400146484375" lon="19.88024580292403697967529296875">
        <ele>1746.800048828125</ele>
        <time>2026-06-16T08:35:25.000Z</time>
        <extensions>
          <ns3:TrackPointExtension>
            <ns3:atemp>17.0</ns3:atemp>
          </ns3:TrackPointExtension>
        </extensions>
      </trkpt>
      <trkpt lat="42.6249848864972591400146484375" lon="19.88024580292403697967529296875">
        <ele>1746.800048828125</ele>
        <time>2026-06-16T08:35:26.000Z</time>
        <extensions>
          <ns3:TrackPointExtension>
            <ns3:atemp>17.0</ns3:atemp>
          </ns3:TrackPointExtension>
        </extensions>
      </trkpt>
      <trkpt lat="42.6249848864972591400146484375" lon="19.88024580292403697967529296875">
        <ele>1746.800048828125</ele>
        <time>2026-06-16T08:35:27.000Z</time>
        <extensions>
          <ns3:TrackPointExtension>
            <ns3:atemp>17.0</ns3:atemp>
          </ns3:TrackPointExtension>
        </extensions>
      </trkpt>
      <trkpt lat="42.6249848864972591400146484375" lon="19.88024580292403697967529296875">
        <ele>1746.800048828125</ele>
        <time>2026-06-16T08:35:28.000Z</time>
        <extensions>
          <ns3:TrackPointExtension>
            <ns3:atemp>17.0</ns3:atemp>
          </ns3:TrackPointExtension>
        </extensions>
      </trkpt>
      <trkpt lat="42.6249848864972591400146484375" lon="19.88024580292403697967529296875">
        <ele>1746.800048828125</ele>
        <time>2026-06-16T08:35:29.000Z</time>
        <extensions>
          <ns3:TrackPointExtension>
            <ns3:atemp>17.0</ns3:atemp>
          </ns3:TrackPointExtension>
        </extensions>
      </trkpt>
      <trkpt lat="42.6249848864972591400146484375" lon="19.88024580292403697967529296875">
        <ele>1746.800048828125</ele>
        <time>2026-06-16T08:35:30.000Z</time>
        <extensions>
          <ns3:TrackPointExtension>
            <ns3:atemp>17.0</ns3:atemp>
          </ns3:TrackPointExtension>
        </extensions>
      </trkpt>
      <trkpt lat="42.6249848864972591400146484375" lon="19.88024580292403697967529296875">
        <ele>1746.800048828125</ele>
        <time>2026-06-16T08:35:31.000Z</time>
        <extensions>
          <ns3:TrackPointExtension>
            <ns3:atemp>17.0</ns3:atemp>
          </ns3:TrackPointExtension>
        </extensions>
      </trkpt>
      <trkpt lat="42.6249848864972591400146484375" lon="19.88024580292403697967529296875">
        <ele>1746.800048828125</ele>
        <time>2026-06-16T08:35:32.000Z</time>
        <extensions>
          <ns3:TrackPointExtension>
            <ns3:atemp>17.0</ns3:atemp>
          </ns3:TrackPointExtension>
        </extensions>
      </trkpt>
      <trkpt lat="42.6249848864972591400146484375" lon="19.88024580292403697967529296875">
        <ele>1746.800048828125</ele>
        <time>2026-06-16T08:35:33.000Z</time>
        <extensions>
          <ns3:TrackPointExtension>
            <ns3:atemp>17.0</ns3:atemp>
          </ns3:TrackPointExtension>
        </extensions>
      </trkpt>
      <trkpt lat="42.6249848864972591400146484375" lon="19.88024580292403697967529296875">
        <ele>1746.800048828125</ele>
        <time>2026-06-16T08:35:34.000Z</time>
        <extensions>
          <ns3:TrackPointExtension>
            <ns3:atemp>17.0</ns3:atemp>
          </ns3:TrackPointExtension>
        </extensions>
      </trkpt>
      <trkpt lat="42.6249848864972591400146484375" lon="19.88024580292403697967529296875">
        <ele>1746.800048828125</ele>
        <time>2026-06-16T08:35:35.000Z</time>
        <extensions>
          <ns3:TrackPointExtension>
            <ns3:atemp>17.0</ns3:atemp>
          </ns3:TrackPointExtension>
        </extensions>
      </trkpt>
      <trkpt lat="42.6249848864972591400146484375" lon="19.88024580292403697967529296875">
        <ele>1746.800048828125</ele>
        <time>2026-06-16T08:35:36.000Z</time>
        <extensions>
          <ns3:TrackPointExtension>
            <ns3:atemp>17.0</ns3:atemp>
          </ns3:TrackPointExtension>
        </extensions>
      </trkpt>
      <trkpt lat="42.6249848864972591400146484375" lon="19.88024580292403697967529296875">
        <ele>1746.800048828125</ele>
        <time>2026-06-16T08:35:37.000Z</time>
        <extensions>
          <ns3:TrackPointExtension>
            <ns3:atemp>17.0</ns3:atemp>
          </ns3:TrackPointExtension>
        </extensions>
      </trkpt>
      <trkpt lat="42.6249848864972591400146484375" lon="19.88024580292403697967529296875">
        <ele>1746.800048828125</ele>
        <time>2026-06-16T08:35:38.000Z</time>
        <extensions>
          <ns3:TrackPointExtension>
            <ns3:atemp>17.0</ns3:atemp>
          </ns3:TrackPointExtension>
        </extensions>
      </trkpt>
      <trkpt lat="42.6249848864972591400146484375" lon="19.88024580292403697967529296875">
        <ele>1746.800048828125</ele>
        <time>2026-06-16T08:35:39.000Z</time>
        <extensions>
          <ns3:TrackPointExtension>
            <ns3:atemp>17.0</ns3:atemp>
          </ns3:TrackPointExtension>
        </extensions>
      </trkpt>
      <trkpt lat="42.6249848864972591400146484375" lon="19.88024580292403697967529296875">
        <ele>1746.800048828125</ele>
        <time>2026-06-16T08:35:40.000Z</time>
        <extensions>
          <ns3:TrackPointExtension>
            <ns3:atemp>17.0</ns3:atemp>
          </ns3:TrackPointExtension>
        </extensions>
      </trkpt>
      <trkpt lat="42.6249848864972591400146484375" lon="19.88024580292403697967529296875">
        <ele>1746.800048828125</ele>
        <time>2026-06-16T08:35:41.000Z</time>
        <extensions>
          <ns3:TrackPointExtension>
            <ns3:atemp>17.0</ns3:atemp>
          </ns3:TrackPointExtension>
        </extensions>
      </trkpt>
      <trkpt lat="42.6249848864972591400146484375" lon="19.88024580292403697967529296875">
        <ele>1746.800048828125</ele>
        <time>2026-06-16T08:35:42.000Z</time>
        <extensions>
          <ns3:TrackPointExtension>
            <ns3:atemp>17.0</ns3:atemp>
          </ns3:TrackPointExtension>
        </extensions>
      </trkpt>
      <trkpt lat="42.6249848864972591400146484375" lon="19.88024580292403697967529296875">
        <ele>1746.800048828125</ele>
        <time>2026-06-16T08:35:43.000Z</time>
        <extensions>
          <ns3:TrackPointExtension>
            <ns3:atemp>17.0</ns3:atemp>
          </ns3:TrackPointExtension>
        </extensions>
      </trkpt>
      <trkpt lat="42.6249848864972591400146484375" lon="19.88024580292403697967529296875">
        <ele>1746.800048828125</ele>
        <time>2026-06-16T08:35:44.000Z</time>
        <extensions>
          <ns3:TrackPointExtension>
            <ns3:atemp>17.0</ns3:atemp>
          </ns3:TrackPointExtension>
        </extensions>
      </trkpt>
      <trkpt lat="42.6249848864972591400146484375" lon="19.88024580292403697967529296875">
        <ele>1746.800048828125</ele>
        <time>2026-06-16T08:35:45.000Z</time>
        <extensions>
          <ns3:TrackPointExtension>
            <ns3:atemp>17.0</ns3:atemp>
          </ns3:TrackPointExtension>
        </extensions>
      </trkpt>
      <trkpt lat="42.6249848864972591400146484375" lon="19.88024580292403697967529296875">
        <ele>1746.800048828125</ele>
        <time>2026-06-16T08:35:46.000Z</time>
        <extensions>
          <ns3:TrackPointExtension>
            <ns3:atemp>17.0</ns3:atemp>
          </ns3:TrackPointExtension>
        </extensions>
      </trkpt>
      <trkpt lat="42.6249848864972591400146484375" lon="19.88024580292403697967529296875">
        <ele>1746.800048828125</ele>
        <time>2026-06-16T08:35:47.000Z</time>
        <extensions>
          <ns3:TrackPointExtension>
            <ns3:atemp>17.0</ns3:atemp>
          </ns3:TrackPointExtension>
        </extensions>
      </trkpt>
      <trkpt lat="42.6249848864972591400146484375" lon="19.88024580292403697967529296875">
        <ele>1746.800048828125</ele>
        <time>2026-06-16T08:35:48.000Z</time>
        <extensions>
          <ns3:TrackPointExtension>
            <ns3:atemp>17.0</ns3:atemp>
          </ns3:TrackPointExtension>
        </extensions>
      </trkpt>
      <trkpt lat="42.6249848864972591400146484375" lon="19.88024580292403697967529296875">
        <ele>1746.800048828125</ele>
        <time>2026-06-16T08:35:49.000Z</time>
        <extensions>
          <ns3:TrackPointExtension>
            <ns3:atemp>17.0</ns3:atemp>
          </ns3:TrackPointExtension>
        </extensions>
      </trkpt>
      <trkpt lat="42.6249848864972591400146484375" lon="19.88024580292403697967529296875">
        <ele>1746.800048828125</ele>
        <time>2026-06-16T08:35:50.000Z</time>
        <extensions>
          <ns3:TrackPointExtension>
            <ns3:atemp>17.0</ns3:atemp>
          </ns3:TrackPointExtension>
        </extensions>
      </trkpt>
      <trkpt lat="42.6249848864972591400146484375" lon="19.88024580292403697967529296875">
        <ele>1746.800048828125</ele>
        <time>2026-06-16T08:35:51.000Z</time>
        <extensions>
          <ns3:TrackPointExtension>
            <ns3:atemp>17.0</ns3:atemp>
          </ns3:TrackPointExtension>
        </extensions>
      </trkpt>
      <trkpt lat="42.6249848864972591400146484375" lon="19.88024580292403697967529296875">
        <ele>1746.800048828125</ele>
        <time>2026-06-16T08:35:52.000Z</time>
        <extensions>
          <ns3:TrackPointExtension>
            <ns3:atemp>17.0</ns3:atemp>
          </ns3:TrackPointExtension>
        </extensions>
      </trkpt>
      <trkpt lat="42.6249848864972591400146484375" lon="19.88024580292403697967529296875">
        <ele>1746.800048828125</ele>
        <time>2026-06-16T08:35:53.000Z</time>
        <extensions>
          <ns3:TrackPointExtension>
            <ns3:atemp>17.0</ns3:atemp>
          </ns3:TrackPointExtension>
        </extensions>
      </trkpt>
      <trkpt lat="42.6249848864972591400146484375" lon="19.88024580292403697967529296875">
        <ele>1746.800048828125</ele>
        <time>2026-06-16T08:35:54.000Z</time>
        <extensions>
          <ns3:TrackPointExtension>
            <ns3:atemp>17.0</ns3:atemp>
          </ns3:TrackPointExtension>
        </extensions>
      </trkpt>
      <trkpt lat="42.6249848864972591400146484375" lon="19.88024580292403697967529296875">
        <ele>1746.800048828125</ele>
        <time>2026-06-16T08:35:55.000Z</time>
        <extensions>
          <ns3:TrackPointExtension>
            <ns3:atemp>17.0</ns3:atemp>
          </ns3:TrackPointExtension>
        </extensions>
      </trkpt>
      <trkpt lat="42.6249848864972591400146484375" lon="19.88024580292403697967529296875">
        <ele>1746.800048828125</ele>
        <time>2026-06-16T08:35:56.000Z</time>
        <extensions>
          <ns3:TrackPointExtension>
            <ns3:atemp>17.0</ns3:atemp>
          </ns3:TrackPointExtension>
        </extensions>
      </trkpt>
      <trkpt lat="42.6249848864972591400146484375" lon="19.88024580292403697967529296875">
        <ele>1746.800048828125</ele>
        <time>2026-06-16T08:35:57.000Z</time>
        <extensions>
          <ns3:TrackPointExtension>
            <ns3:atemp>17.0</ns3:atemp>
          </ns3:TrackPointExtension>
        </extensions>
      </trkpt>
      <trkpt lat="42.6249848864972591400146484375" lon="19.88024580292403697967529296875">
        <ele>1746.800048828125</ele>
        <time>2026-06-16T08:35:58.000Z</time>
        <extensions>
          <ns3:TrackPointExtension>
            <ns3:atemp>17.0</ns3:atemp>
          </ns3:TrackPointExtension>
        </extensions>
      </trkpt>
      <trkpt lat="42.6249848864972591400146484375" lon="19.88024580292403697967529296875">
        <ele>1746.800048828125</ele>
        <time>2026-06-16T08:35:59.000Z</time>
        <extensions>
          <ns3:TrackPointExtension>
            <ns3:atemp>17.0</ns3:atemp>
          </ns3:TrackPointExtension>
        </extensions>
      </trkpt>
      <trkpt lat="42.6249848864972591400146484375" lon="19.88024580292403697967529296875">
        <ele>1746.800048828125</ele>
        <time>2026-06-16T08:36:00.000Z</time>
        <extensions>
          <ns3:TrackPointExtension>
            <ns3:atemp>17.0</ns3:atemp>
          </ns3:TrackPointExtension>
        </extensions>
      </trkpt>
      <trkpt lat="42.6249848864972591400146484375" lon="19.88024580292403697967529296875">
        <ele>1746.800048828125</ele>
        <time>2026-06-16T08:36:01.000Z</time>
        <extensions>
          <ns3:TrackPointExtension>
            <ns3:atemp>17.0</ns3:atemp>
          </ns3:TrackPointExtension>
        </extensions>
      </trkpt>
      <trkpt lat="42.6249848864972591400146484375" lon="19.88024580292403697967529296875">
        <ele>1746.800048828125</ele>
        <time>2026-06-16T08:36:02.000Z</time>
        <extensions>
          <ns3:TrackPointExtension>
            <ns3:atemp>17.0</ns3:atemp>
          </ns3:TrackPointExtension>
        </extensions>
      </trkpt>
      <trkpt lat="42.6249848864972591400146484375" lon="19.88024580292403697967529296875">
        <ele>1746.800048828125</ele>
        <time>2026-06-16T08:36:03.000Z</time>
        <extensions>
          <ns3:TrackPointExtension>
            <ns3:atemp>17.0</ns3:atemp>
          </ns3:TrackPointExtension>
        </extensions>
      </trkpt>
      <trkpt lat="42.6249848864972591400146484375" lon="19.88024580292403697967529296875">
        <ele>1746.800048828125</ele>
        <time>2026-06-16T08:36:04.000Z</time>
        <extensions>
          <ns3:TrackPointExtension>
            <ns3:atemp>17.0</ns3:atemp>
          </ns3:TrackPointExtension>
        </extensions>
      </trkpt>
      <trkpt lat="42.6249848864972591400146484375" lon="19.88024580292403697967529296875">
        <ele>1746.800048828125</ele>
        <time>2026-06-16T08:36:05.000Z</time>
        <extensions>
          <ns3:TrackPointExtension>
            <ns3:atemp>17.0</ns3:atemp>
          </ns3:TrackPointExtension>
        </extensions>
      </trkpt>
      <trkpt lat="42.6249848864972591400146484375" lon="19.88024580292403697967529296875">
        <ele>1746.800048828125</ele>
        <time>2026-06-16T08:36:06.000Z</time>
        <extensions>
          <ns3:TrackPointExtension>
            <ns3:atemp>17.0</ns3:atemp>
          </ns3:TrackPointExtension>
        </extensions>
      </trkpt>
      <trkpt lat="42.6249848864972591400146484375" lon="19.88024580292403697967529296875">
        <ele>1746.800048828125</ele>
        <time>2026-06-16T08:36:07.000Z</time>
        <extensions>
          <ns3:TrackPointExtension>
            <ns3:atemp>17.0</ns3:atemp>
          </ns3:TrackPointExtension>
        </extensions>
      </trkpt>
      <trkpt lat="42.6249848864972591400146484375" lon="19.88024580292403697967529296875">
        <ele>1746.800048828125</ele>
        <time>2026-06-16T08:36:08.000Z</time>
        <extensions>
          <ns3:TrackPointExtension>
            <ns3:atemp>17.0</ns3:atemp>
          </ns3:TrackPointExtension>
        </extensions>
      </trkpt>
      <trkpt lat="42.6249848864972591400146484375" lon="19.88024580292403697967529296875">
        <ele>1746.800048828125</ele>
        <time>2026-06-16T08:36:09.000Z</time>
        <extensions>
          <ns3:TrackPointExtension>
            <ns3:atemp>17.0</ns3:atemp>
          </ns3:TrackPointExtension>
        </extensions>
      </trkpt>
      <trkpt lat="42.6249848864972591400146484375" lon="19.88024580292403697967529296875">
        <ele>1746.800048828125</ele>
        <time>2026-06-16T08:36:10.000Z</time>
        <extensions>
          <ns3:TrackPointExtension>
            <ns3:atemp>17.0</ns3:atemp>
          </ns3:TrackPointExtension>
        </extensions>
      </trkpt>
      <trkpt lat="42.6249848864972591400146484375" lon="19.88024580292403697967529296875">
        <ele>1746.800048828125</ele>
        <time>2026-06-16T08:36:11.000Z</time>
        <extensions>
          <ns3:TrackPointExtension>
            <ns3:atemp>17.0</ns3:atemp>
          </ns3:TrackPointExtension>
        </extensions>
      </trkpt>
      <trkpt lat="42.6249848864972591400146484375" lon="19.88024580292403697967529296875">
        <ele>1746.800048828125</ele>
        <time>2026-06-16T08:36:12.000Z</time>
        <extensions>
          <ns3:TrackPointExtension>
            <ns3:atemp>17.0</ns3:atemp>
          </ns3:TrackPointExtension>
        </extensions>
      </trkpt>
      <trkpt lat="42.6249848864972591400146484375" lon="19.88024580292403697967529296875">
        <ele>1746.800048828125</ele>
        <time>2026-06-16T08:36:13.000Z</time>
        <extensions>
          <ns3:TrackPointExtension>
            <ns3:atemp>17.0</ns3:atemp>
          </ns3:TrackPointExtension>
        </extensions>
      </trkpt>
      <trkpt lat="42.6249848864972591400146484375" lon="19.88024580292403697967529296875">
        <ele>1746.800048828125</ele>
        <time>2026-06-16T08:36:14.000Z</time>
        <extensions>
          <ns3:TrackPointExtension>
            <ns3:atemp>17.0</ns3:atemp>
          </ns3:TrackPointExtension>
        </extensions>
      </trkpt>
      <trkpt lat="42.6249848864972591400146484375" lon="19.88024580292403697967529296875">
        <ele>1746.800048828125</ele>
        <time>2026-06-16T08:36:15.000Z</time>
        <extensions>
          <ns3:TrackPointExtension>
            <ns3:atemp>17.0</ns3:atemp>
          </ns3:TrackPointExtension>
        </extensions>
      </trkpt>
      <trkpt lat="42.6249848864972591400146484375" lon="19.88024580292403697967529296875">
        <ele>1746.800048828125</ele>
        <time>2026-06-16T08:36:16.000Z</time>
        <extensions>
          <ns3:TrackPointExtension>
            <ns3:atemp>17.0</ns3:atemp>
          </ns3:TrackPointExtension>
        </extensions>
      </trkpt>
      <trkpt lat="42.6249848864972591400146484375" lon="19.88024580292403697967529296875">
        <ele>1746.800048828125</ele>
        <time>2026-06-16T08:36:17.000Z</time>
        <extensions>
          <ns3:TrackPointExtension>
            <ns3:atemp>17.0</ns3:atemp>
          </ns3:TrackPointExtension>
        </extensions>
      </trkpt>
      <trkpt lat="42.6249848864972591400146484375" lon="19.88024580292403697967529296875">
        <ele>1746.800048828125</ele>
        <time>2026-06-16T08:36:18.000Z</time>
        <extensions>
          <ns3:TrackPointExtension>
            <ns3:atemp>17.0</ns3:atemp>
          </ns3:TrackPointExtension>
        </extensions>
      </trkpt>
      <trkpt lat="42.6249848864972591400146484375" lon="19.88024580292403697967529296875">
        <ele>1746.800048828125</ele>
        <time>2026-06-16T08:36:19.000Z</time>
        <extensions>
          <ns3:TrackPointExtension>
            <ns3:atemp>17.0</ns3:atemp>
          </ns3:TrackPointExtension>
        </extensions>
      </trkpt>
      <trkpt lat="42.6249848864972591400146484375" lon="19.88024580292403697967529296875">
        <ele>1746.800048828125</ele>
        <time>2026-06-16T08:36:20.000Z</time>
        <extensions>
          <ns3:TrackPointExtension>
            <ns3:atemp>17.0</ns3:atemp>
          </ns3:TrackPointExtension>
        </extensions>
      </trkpt>
      <trkpt lat="42.6249848864972591400146484375" lon="19.88024580292403697967529296875">
        <ele>1746.800048828125</ele>
        <time>2026-06-16T08:36:21.000Z</time>
        <extensions>
          <ns3:TrackPointExtension>
            <ns3:atemp>17.0</ns3:atemp>
          </ns3:TrackPointExtension>
        </extensions>
      </trkpt>
      <trkpt lat="42.6249848864972591400146484375" lon="19.88024580292403697967529296875">
        <ele>1746.800048828125</ele>
        <time>2026-06-16T08:36:22.000Z</time>
        <extensions>
          <ns3:TrackPointExtension>
            <ns3:atemp>17.0</ns3:atemp>
          </ns3:TrackPointExtension>
        </extensions>
      </trkpt>
      <trkpt lat="42.6249848864972591400146484375" lon="19.88024580292403697967529296875">
        <ele>1746.800048828125</ele>
        <time>2026-06-16T08:36:23.000Z</time>
        <extensions>
          <ns3:TrackPointExtension>
            <ns3:atemp>17.0</ns3:atemp>
          </ns3:TrackPointExtension>
        </extensions>
      </trkpt>
      <trkpt lat="42.6249848864972591400146484375" lon="19.88024580292403697967529296875">
        <ele>1746.800048828125</ele>
        <time>2026-06-16T08:36:24.000Z</time>
        <extensions>
          <ns3:TrackPointExtension>
            <ns3:atemp>17.0</ns3:atemp>
          </ns3:TrackPointExtension>
        </extensions>
      </trkpt>
      <trkpt lat="42.6249848864972591400146484375" lon="19.88024580292403697967529296875">
        <ele>1746.800048828125</ele>
        <time>2026-06-16T08:36:25.000Z</time>
        <extensions>
          <ns3:TrackPointExtension>
            <ns3:atemp>17.0</ns3:atemp>
          </ns3:TrackPointExtension>
        </extensions>
      </trkpt>
      <trkpt lat="42.6249848864972591400146484375" lon="19.88024580292403697967529296875">
        <ele>1746.800048828125</ele>
        <time>2026-06-16T08:36:26.000Z</time>
        <extensions>
          <ns3:TrackPointExtension>
            <ns3:atemp>17.0</ns3:atemp>
          </ns3:TrackPointExtension>
        </extensions>
      </trkpt>
      <trkpt lat="42.6249848864972591400146484375" lon="19.88024580292403697967529296875">
        <ele>1746.800048828125</ele>
        <time>2026-06-16T08:36:27.000Z</time>
        <extensions>
          <ns3:TrackPointExtension>
            <ns3:atemp>17.0</ns3:atemp>
          </ns3:TrackPointExtension>
        </extensions>
      </trkpt>
      <trkpt lat="42.6249848864972591400146484375" lon="19.88024580292403697967529296875">
        <ele>1746.800048828125</ele>
        <time>2026-06-16T08:36:28.000Z</time>
        <extensions>
          <ns3:TrackPointExtension>
            <ns3:atemp>17.0</ns3:atemp>
          </ns3:TrackPointExtension>
        </extensions>
      </trkpt>
      <trkpt lat="42.6249848864972591400146484375" lon="19.88024580292403697967529296875">
        <ele>1746.800048828125</ele>
        <time>2026-06-16T08:36:29.000Z</time>
        <extensions>
          <ns3:TrackPointExtension>
            <ns3:atemp>17.0</ns3:atemp>
          </ns3:TrackPointExtension>
        </extensions>
      </trkpt>
      <trkpt lat="42.6249848864972591400146484375" lon="19.88024580292403697967529296875">
        <ele>1746.800048828125</ele>
        <time>2026-06-16T08:36:30.000Z</time>
        <extensions>
          <ns3:TrackPointExtension>
            <ns3:atemp>17.0</ns3:atemp>
          </ns3:TrackPointExtension>
        </extensions>
      </trkpt>
      <trkpt lat="42.6249848864972591400146484375" lon="19.88024580292403697967529296875">
        <ele>1746.800048828125</ele>
        <time>2026-06-16T08:36:31.000Z</time>
        <extensions>
          <ns3:TrackPointExtension>
            <ns3:atemp>17.0</ns3:atemp>
          </ns3:TrackPointExtension>
        </extensions>
      </trkpt>
      <trkpt lat="42.6249848864972591400146484375" lon="19.88024580292403697967529296875">
        <ele>1746.800048828125</ele>
        <time>2026-06-16T08:36:32.000Z</time>
        <extensions>
          <ns3:TrackPointExtension>
            <ns3:atemp>17.0</ns3:atemp>
          </ns3:TrackPointExtension>
        </extensions>
      </trkpt>
      <trkpt lat="42.6249848864972591400146484375" lon="19.88024580292403697967529296875">
        <ele>1746.800048828125</ele>
        <time>2026-06-16T08:36:33.000Z</time>
        <extensions>
          <ns3:TrackPointExtension>
            <ns3:atemp>17.0</ns3:atemp>
          </ns3:TrackPointExtension>
        </extensions>
      </trkpt>
      <trkpt lat="42.6249848864972591400146484375" lon="19.88024580292403697967529296875">
        <ele>1746.800048828125</ele>
        <time>2026-06-16T08:36:34.000Z</time>
        <extensions>
          <ns3:TrackPointExtension>
            <ns3:atemp>17.0</ns3:atemp>
          </ns3:TrackPointExtension>
        </extensions>
      </trkpt>
      <trkpt lat="42.6249848864972591400146484375" lon="19.88024580292403697967529296875">
        <ele>1746.800048828125</ele>
        <time>2026-06-16T08:36:35.000Z</time>
        <extensions>
          <ns3:TrackPointExtension>
            <ns3:atemp>17.0</ns3:atemp>
          </ns3:TrackPointExtension>
        </extensions>
      </trkpt>
      <trkpt lat="42.6249848864972591400146484375" lon="19.88024580292403697967529296875">
        <ele>1746.800048828125</ele>
        <time>2026-06-16T08:36:36.000Z</time>
        <extensions>
          <ns3:TrackPointExtension>
            <ns3:atemp>17.0</ns3:atemp>
          </ns3:TrackPointExtension>
        </extensions>
      </trkpt>
      <trkpt lat="42.6249848864972591400146484375" lon="19.88024580292403697967529296875">
        <ele>1746.800048828125</ele>
        <time>2026-06-16T08:36:37.000Z</time>
        <extensions>
          <ns3:TrackPointExtension>
            <ns3:atemp>17.0</ns3:atemp>
          </ns3:TrackPointExtension>
        </extensions>
      </trkpt>
      <trkpt lat="42.6249848864972591400146484375" lon="19.88024580292403697967529296875">
        <ele>1746.800048828125</ele>
        <time>2026-06-16T08:36:38.000Z</time>
        <extensions>
          <ns3:TrackPointExtension>
            <ns3:atemp>17.0</ns3:atemp>
          </ns3:TrackPointExtension>
        </extensions>
      </trkpt>
      <trkpt lat="42.6249848864972591400146484375" lon="19.88024580292403697967529296875">
        <ele>1746.800048828125</ele>
        <time>2026-06-16T08:36:39.000Z</time>
        <extensions>
          <ns3:TrackPointExtension>
            <ns3:atemp>17.0</ns3:atemp>
          </ns3:TrackPointExtension>
        </extensions>
      </trkpt>
      <trkpt lat="42.6249848864972591400146484375" lon="19.88024580292403697967529296875">
        <ele>1746.800048828125</ele>
        <time>2026-06-16T08:36:40.000Z</time>
        <extensions>
          <ns3:TrackPointExtension>
            <ns3:atemp>17.0</ns3:atemp>
          </ns3:TrackPointExtension>
        </extensions>
      </trkpt>
      <trkpt lat="42.6249848864972591400146484375" lon="19.88024580292403697967529296875">
        <ele>1746.800048828125</ele>
        <time>2026-06-16T08:36:41.000Z</time>
        <extensions>
          <ns3:TrackPointExtension>
            <ns3:atemp>17.0</ns3:atemp>
          </ns3:TrackPointExtension>
        </extensions>
      </trkpt>
      <trkpt lat="42.6249848864972591400146484375" lon="19.88024580292403697967529296875">
        <ele>1746.800048828125</ele>
        <time>2026-06-16T08:36:42.000Z</time>
        <extensions>
          <ns3:TrackPointExtension>
            <ns3:atemp>17.0</ns3:atemp>
          </ns3:TrackPointExtension>
        </extensions>
      </trkpt>
      <trkpt lat="42.6249848864972591400146484375" lon="19.88024580292403697967529296875">
        <ele>1746.800048828125</ele>
        <time>2026-06-16T08:36:43.000Z</time>
        <extensions>
          <ns3:TrackPointExtension>
            <ns3:atemp>17.0</ns3:atemp>
          </ns3:TrackPointExtension>
        </extensions>
      </trkpt>
      <trkpt lat="42.6249848864972591400146484375" lon="19.88024580292403697967529296875">
        <ele>1746.800048828125</ele>
        <time>2026-06-16T08:36:44.000Z</time>
        <extensions>
          <ns3:TrackPointExtension>
            <ns3:atemp>17.0</ns3:atemp>
          </ns3:TrackPointExtension>
        </extensions>
      </trkpt>
      <trkpt lat="42.6249848864972591400146484375" lon="19.88024580292403697967529296875">
        <ele>1746.800048828125</ele>
        <time>2026-06-16T08:36:45.000Z</time>
        <extensions>
          <ns3:TrackPointExtension>
            <ns3:atemp>17.0</ns3:atemp>
          </ns3:TrackPointExtension>
        </extensions>
      </trkpt>
      <trkpt lat="42.6249848864972591400146484375" lon="19.88024580292403697967529296875">
        <ele>1746.800048828125</ele>
        <time>2026-06-16T08:36:46.000Z</time>
        <extensions>
          <ns3:TrackPointExtension>
            <ns3:atemp>17.0</ns3:atemp>
          </ns3:TrackPointExtension>
        </extensions>
      </trkpt>
      <trkpt lat="42.6249848864972591400146484375" lon="19.88024580292403697967529296875">
        <ele>1746.800048828125</ele>
        <time>2026-06-16T08:36:47.000Z</time>
        <extensions>
          <ns3:TrackPointExtension>
            <ns3:atemp>17.0</ns3:atemp>
          </ns3:TrackPointExtension>
        </extensions>
      </trkpt>
      <trkpt lat="42.6249848864972591400146484375" lon="19.88024580292403697967529296875">
        <ele>1746.800048828125</ele>
        <time>2026-06-16T08:36:48.000Z</time>
        <extensions>
          <ns3:TrackPointExtension>
            <ns3:atemp>17.0</ns3:atemp>
          </ns3:TrackPointExtension>
        </extensions>
      </trkpt>
      <trkpt lat="42.6249848864972591400146484375" lon="19.88024580292403697967529296875">
        <ele>1746.800048828125</ele>
        <time>2026-06-16T08:36:49.000Z</time>
        <extensions>
          <ns3:TrackPointExtension>
            <ns3:atemp>17.0</ns3:atemp>
          </ns3:TrackPointExtension>
        </extensions>
      </trkpt>
      <trkpt lat="42.6249848864972591400146484375" lon="19.88024580292403697967529296875">
        <ele>1746.800048828125</ele>
        <time>2026-06-16T08:36:50.000Z</time>
        <extensions>
          <ns3:TrackPointExtension>
            <ns3:atemp>17.0</ns3:atemp>
          </ns3:TrackPointExtension>
        </extensions>
      </trkpt>
      <trkpt lat="42.6249848864972591400146484375" lon="19.88024580292403697967529296875">
        <ele>1746.800048828125</ele>
        <time>2026-06-16T08:36:51.000Z</time>
        <extensions>
          <ns3:TrackPointExtension>
            <ns3:atemp>17.0</ns3:atemp>
          </ns3:TrackPointExtension>
        </extensions>
      </trkpt>
      <trkpt lat="42.6249848864972591400146484375" lon="19.88024580292403697967529296875">
        <ele>1746.800048828125</ele>
        <time>2026-06-16T08:36:52.000Z</time>
        <extensions>
          <ns3:TrackPointExtension>
            <ns3:atemp>17.0</ns3:atemp>
          </ns3:TrackPointExtension>
        </extensions>
      </trkpt>
      <trkpt lat="42.6249848864972591400146484375" lon="19.88024580292403697967529296875">
        <ele>1746.800048828125</ele>
        <time>2026-06-16T08:36:53.000Z</time>
        <extensions>
          <ns3:TrackPointExtension>
            <ns3:atemp>17.0</ns3:atemp>
          </ns3:TrackPointExtension>
        </extensions>
      </trkpt>
      <trkpt lat="42.6249848864972591400146484375" lon="19.88024580292403697967529296875">
        <ele>1746.800048828125</ele>
        <time>2026-06-16T08:36:54.000Z</time>
        <extensions>
          <ns3:TrackPointExtension>
            <ns3:atemp>17.0</ns3:atemp>
          </ns3:TrackPointExtension>
        </extensions>
      </trkpt>
      <trkpt lat="42.6249848864972591400146484375" lon="19.88024580292403697967529296875">
        <ele>1746.800048828125</ele>
        <time>2026-06-16T08:36:55.000Z</time>
        <extensions>
          <ns3:TrackPointExtension>
            <ns3:atemp>17.0</ns3:atemp>
          </ns3:TrackPointExtension>
        </extensions>
      </trkpt>
      <trkpt lat="42.6249848864972591400146484375" lon="19.88024580292403697967529296875">
        <ele>1746.800048828125</ele>
        <time>2026-06-16T08:36:56.000Z</time>
        <extensions>
          <ns3:TrackPointExtension>
            <ns3:atemp>17.0</ns3:atemp>
          </ns3:TrackPointExtension>
        </extensions>
      </trkpt>
      <trkpt lat="42.6249848864972591400146484375" lon="19.88024580292403697967529296875">
        <ele>1746.800048828125</ele>
        <time>2026-06-16T08:36:57.000Z</time>
        <extensions>
          <ns3:TrackPointExtension>
            <ns3:atemp>17.0</ns3:atemp>
          </ns3:TrackPointExtension>
        </extensions>
      </trkpt>
      <trkpt lat="42.6249848864972591400146484375" lon="19.88024580292403697967529296875">
        <ele>1746.800048828125</ele>
        <time>2026-06-16T08:36:58.000Z</time>
        <extensions>
          <ns3:TrackPointExtension>
            <ns3:atemp>17.0</ns3:atemp>
          </ns3:TrackPointExtension>
        </extensions>
      </trkpt>
      <trkpt lat="42.6249848864972591400146484375" lon="19.88024580292403697967529296875">
        <ele>1746.800048828125</ele>
        <time>2026-06-16T08:36:59.000Z</time>
        <extensions>
          <ns3:TrackPointExtension>
            <ns3:atemp>17.0</ns3:atemp>
          </ns3:TrackPointExtension>
        </extensions>
      </trkpt>
      <trkpt lat="42.6249848864972591400146484375" lon="19.88024580292403697967529296875">
        <ele>1746.800048828125</ele>
        <time>2026-06-16T08:37:00.000Z</time>
        <extensions>
          <ns3:TrackPointExtension>
            <ns3:atemp>17.0</ns3:atemp>
          </ns3:TrackPointExtension>
        </extensions>
      </trkpt>
      <trkpt lat="42.6249848864972591400146484375" lon="19.88024580292403697967529296875">
        <ele>1746.800048828125</ele>
        <time>2026-06-16T08:37:01.000Z</time>
        <extensions>
          <ns3:TrackPointExtension>
            <ns3:atemp>17.0</ns3:atemp>
          </ns3:TrackPointExtension>
        </extensions>
      </trkpt>
      <trkpt lat="42.6249848864972591400146484375" lon="19.88024580292403697967529296875">
        <ele>1746.800048828125</ele>
        <time>2026-06-16T08:37:02.000Z</time>
        <extensions>
          <ns3:TrackPointExtension>
            <ns3:atemp>17.0</ns3:atemp>
          </ns3:TrackPointExtension>
        </extensions>
      </trkpt>
      <trkpt lat="42.6249848864972591400146484375" lon="19.88024580292403697967529296875">
        <ele>1746.800048828125</ele>
        <time>2026-06-16T08:37:03.000Z</time>
        <extensions>
          <ns3:TrackPointExtension>
            <ns3:atemp>17.0</ns3:atemp>
          </ns3:TrackPointExtension>
        </extensions>
      </trkpt>
      <trkpt lat="42.6249848864972591400146484375" lon="19.88024580292403697967529296875">
        <ele>1746.800048828125</ele>
        <time>2026-06-16T08:37:04.000Z</time>
        <extensions>
          <ns3:TrackPointExtension>
            <ns3:atemp>17.0</ns3:atemp>
          </ns3:TrackPointExtension>
        </extensions>
      </trkpt>
      <trkpt lat="42.6249848864972591400146484375" lon="19.88024580292403697967529296875">
        <ele>1746.800048828125</ele>
        <time>2026-06-16T08:37:05.000Z</time>
        <extensions>
          <ns3:TrackPointExtension>
            <ns3:atemp>17.0</ns3:atemp>
          </ns3:TrackPointExtension>
        </extensions>
      </trkpt>
      <trkpt lat="42.6249848864972591400146484375" lon="19.88024580292403697967529296875">
        <ele>1746.800048828125</ele>
        <time>2026-06-16T08:37:06.000Z</time>
        <extensions>
          <ns3:TrackPointExtension>
            <ns3:atemp>17.0</ns3:atemp>
          </ns3:TrackPointExtension>
        </extensions>
      </trkpt>
      <trkpt lat="42.6249848864972591400146484375" lon="19.88024580292403697967529296875">
        <ele>1746.800048828125</ele>
        <time>2026-06-16T08:37:07.000Z</time>
        <extensions>
          <ns3:TrackPointExtension>
            <ns3:atemp>17.0</ns3:atemp>
          </ns3:TrackPointExtension>
        </extensions>
      </trkpt>
      <trkpt lat="42.6249848864972591400146484375" lon="19.88024580292403697967529296875">
        <ele>1746.800048828125</ele>
        <time>2026-06-16T08:37:08.000Z</time>
        <extensions>
          <ns3:TrackPointExtension>
            <ns3:atemp>17.0</ns3:atemp>
          </ns3:TrackPointExtension>
        </extensions>
      </trkpt>
      <trkpt lat="42.6249848864972591400146484375" lon="19.88024580292403697967529296875">
        <ele>1746.800048828125</ele>
        <time>2026-06-16T08:37:09.000Z</time>
        <extensions>
          <ns3:TrackPointExtension>
            <ns3:atemp>17.0</ns3:atemp>
          </ns3:TrackPointExtension>
        </extensions>
      </trkpt>
      <trkpt lat="42.6249848864972591400146484375" lon="19.88024580292403697967529296875">
        <ele>1746.800048828125</ele>
        <time>2026-06-16T08:37:10.000Z</time>
        <extensions>
          <ns3:TrackPointExtension>
            <ns3:atemp>17.0</ns3:atemp>
          </ns3:TrackPointExtension>
        </extensions>
      </trkpt>
      <trkpt lat="42.6249848864972591400146484375" lon="19.88024580292403697967529296875">
        <ele>1746.800048828125</ele>
        <time>2026-06-16T08:37:11.000Z</time>
        <extensions>
          <ns3:TrackPointExtension>
            <ns3:atemp>17.0</ns3:atemp>
          </ns3:TrackPointExtension>
        </extensions>
      </trkpt>
      <trkpt lat="42.6249848864972591400146484375" lon="19.88024580292403697967529296875">
        <ele>1746.800048828125</ele>
        <time>2026-06-16T08:37:12.000Z</time>
        <extensions>
          <ns3:TrackPointExtension>
            <ns3:atemp>17.0</ns3:atemp>
          </ns3:TrackPointExtension>
        </extensions>
      </trkpt>
      <trkpt lat="42.6249848864972591400146484375" lon="19.88024580292403697967529296875">
        <ele>1746.800048828125</ele>
        <time>2026-06-16T08:37:13.000Z</time>
        <extensions>
          <ns3:TrackPointExtension>
            <ns3:atemp>17.0</ns3:atemp>
          </ns3:TrackPointExtension>
        </extensions>
      </trkpt>
      <trkpt lat="42.6249848864972591400146484375" lon="19.88024580292403697967529296875">
        <ele>1746.800048828125</ele>
        <time>2026-06-16T08:37:14.000Z</time>
        <extensions>
          <ns3:TrackPointExtension>
            <ns3:atemp>17.0</ns3:atemp>
          </ns3:TrackPointExtension>
        </extensions>
      </trkpt>
      <trkpt lat="42.6249848864972591400146484375" lon="19.88024580292403697967529296875">
        <ele>1746.800048828125</ele>
        <time>2026-06-16T08:37:15.000Z</time>
        <extensions>
          <ns3:TrackPointExtension>
            <ns3:atemp>17.0</ns3:atemp>
          </ns3:TrackPointExtension>
        </extensions>
      </trkpt>
      <trkpt lat="42.6249848864972591400146484375" lon="19.88024580292403697967529296875">
        <ele>1746.800048828125</ele>
        <time>2026-06-16T08:37:16.000Z</time>
        <extensions>
          <ns3:TrackPointExtension>
            <ns3:atemp>17.0</ns3:atemp>
          </ns3:TrackPointExtension>
        </extensions>
      </trkpt>
      <trkpt lat="42.6249848864972591400146484375" lon="19.88024580292403697967529296875">
        <ele>1746.800048828125</ele>
        <time>2026-06-16T08:37:17.000Z</time>
        <extensions>
          <ns3:TrackPointExtension>
            <ns3:atemp>17.0</ns3:atemp>
          </ns3:TrackPointExtension>
        </extensions>
      </trkpt>
      <trkpt lat="42.6249848864972591400146484375" lon="19.88024580292403697967529296875">
        <ele>1746.800048828125</ele>
        <time>2026-06-16T08:37:18.000Z</time>
        <extensions>
          <ns3:TrackPointExtension>
            <ns3:atemp>17.0</ns3:atemp>
          </ns3:TrackPointExtension>
        </extensions>
      </trkpt>
      <trkpt lat="42.6249848864972591400146484375" lon="19.88024580292403697967529296875">
        <ele>1746.800048828125</ele>
        <time>2026-06-16T08:37:19.000Z</time>
        <extensions>
          <ns3:TrackPointExtension>
            <ns3:atemp>17.0</ns3:atemp>
          </ns3:TrackPointExtension>
        </extensions>
      </trkpt>
      <trkpt lat="42.6249848864972591400146484375" lon="19.88024580292403697967529296875">
        <ele>1746.800048828125</ele>
        <time>2026-06-16T08:37:20.000Z</time>
        <extensions>
          <ns3:TrackPointExtension>
            <ns3:atemp>17.0</ns3:atemp>
          </ns3:TrackPointExtension>
        </extensions>
      </trkpt>
      <trkpt lat="42.6249848864972591400146484375" lon="19.88024580292403697967529296875">
        <ele>1746.800048828125</ele>
        <time>2026-06-16T08:37:21.000Z</time>
        <extensions>
          <ns3:TrackPointExtension>
            <ns3:atemp>17.0</ns3:atemp>
          </ns3:TrackPointExtension>
        </extensions>
      </trkpt>
      <trkpt lat="42.6249848864972591400146484375" lon="19.88024580292403697967529296875">
        <ele>1746.800048828125</ele>
        <time>2026-06-16T08:37:22.000Z</time>
        <extensions>
          <ns3:TrackPointExtension>
            <ns3:atemp>17.0</ns3:atemp>
          </ns3:TrackPointExtension>
        </extensions>
      </trkpt>
      <trkpt lat="42.6249848864972591400146484375" lon="19.88024580292403697967529296875">
        <ele>1746.800048828125</ele>
        <time>2026-06-16T08:37:23.000Z</time>
        <extensions>
          <ns3:TrackPointExtension>
            <ns3:atemp>17.0</ns3:atemp>
          </ns3:TrackPointExtension>
        </extensions>
      </trkpt>
      <trkpt lat="42.6249848864972591400146484375" lon="19.88024580292403697967529296875">
        <ele>1746.800048828125</ele>
        <time>2026-06-16T08:37:24.000Z</time>
        <extensions>
          <ns3:TrackPointExtension>
            <ns3:atemp>17.0</ns3:atemp>
          </ns3:TrackPointExtension>
        </extensions>
      </trkpt>
      <trkpt lat="42.6249848864972591400146484375" lon="19.88024580292403697967529296875">
        <ele>1746.800048828125</ele>
        <time>2026-06-16T08:37:25.000Z</time>
        <extensions>
          <ns3:TrackPointExtension>
            <ns3:atemp>17.0</ns3:atemp>
          </ns3:TrackPointExtension>
        </extensions>
      </trkpt>
      <trkpt lat="42.6249848864972591400146484375" lon="19.88024580292403697967529296875">
        <ele>1746.800048828125</ele>
        <time>2026-06-16T08:37:26.000Z</time>
        <extensions>
          <ns3:TrackPointExtension>
            <ns3:atemp>17.0</ns3:atemp>
          </ns3:TrackPointExtension>
        </extensions>
      </trkpt>
      <trkpt lat="42.6249848864972591400146484375" lon="19.88024580292403697967529296875">
        <ele>1746.800048828125</ele>
        <time>2026-06-16T08:37:27.000Z</time>
        <extensions>
          <ns3:TrackPointExtension>
            <ns3:atemp>17.0</ns3:atemp>
          </ns3:TrackPointExtension>
        </extensions>
      </trkpt>
      <trkpt lat="42.6249848864972591400146484375" lon="19.88024580292403697967529296875">
        <ele>1746.800048828125</ele>
        <time>2026-06-16T08:37:28.000Z</time>
        <extensions>
          <ns3:TrackPointExtension>
            <ns3:atemp>17.0</ns3:atemp>
          </ns3:TrackPointExtension>
        </extensions>
      </trkpt>
      <trkpt lat="42.6249848864972591400146484375" lon="19.88024580292403697967529296875">
        <ele>1746.800048828125</ele>
        <time>2026-06-16T08:37:29.000Z</time>
        <extensions>
          <ns3:TrackPointExtension>
            <ns3:atemp>17.0</ns3:atemp>
          </ns3:TrackPointExtension>
        </extensions>
      </trkpt>
      <trkpt lat="42.6249848864972591400146484375" lon="19.88024580292403697967529296875">
        <ele>1746.800048828125</ele>
        <time>2026-06-16T08:37:30.000Z</time>
        <extensions>
          <ns3:TrackPointExtension>
            <ns3:atemp>17.0</ns3:atemp>
          </ns3:TrackPointExtension>
        </extensions>
      </trkpt>
      <trkpt lat="42.6249848864972591400146484375" lon="19.88024580292403697967529296875">
        <ele>1746.800048828125</ele>
        <time>2026-06-16T08:37:31.000Z</time>
        <extensions>
          <ns3:TrackPointExtension>
            <ns3:atemp>17.0</ns3:atemp>
          </ns3:TrackPointExtension>
        </extensions>
      </trkpt>
      <trkpt lat="42.6249848864972591400146484375" lon="19.88024580292403697967529296875">
        <ele>1746.800048828125</ele>
        <time>2026-06-16T08:37:32.000Z</time>
        <extensions>
          <ns3:TrackPointExtension>
            <ns3:atemp>17.0</ns3:atemp>
          </ns3:TrackPointExtension>
        </extensions>
      </trkpt>
      <trkpt lat="42.6249848864972591400146484375" lon="19.88024580292403697967529296875">
        <ele>1746.800048828125</ele>
        <time>2026-06-16T08:37:33.000Z</time>
        <extensions>
          <ns3:TrackPointExtension>
            <ns3:atemp>17.0</ns3:atemp>
          </ns3:TrackPointExtension>
        </extensions>
      </trkpt>
      <trkpt lat="42.6249848864972591400146484375" lon="19.88024580292403697967529296875">
        <ele>1746.800048828125</ele>
        <time>2026-06-16T08:37:34.000Z</time>
        <extensions>
          <ns3:TrackPointExtension>
            <ns3:atemp>17.0</ns3:atemp>
          </ns3:TrackPointExtension>
        </extensions>
      </trkpt>
      <trkpt lat="42.6249848864972591400146484375" lon="19.88024580292403697967529296875">
        <ele>1746.800048828125</ele>
        <time>2026-06-16T08:37:35.000Z</time>
        <extensions>
          <ns3:TrackPointExtension>
            <ns3:atemp>17.0</ns3:atemp>
          </ns3:TrackPointExtension>
        </extensions>
      </trkpt>
      <trkpt lat="42.6249848864972591400146484375" lon="19.88024580292403697967529296875">
        <ele>1746.800048828125</ele>
        <time>2026-06-16T08:37:36.000Z</time>
        <extensions>
          <ns3:TrackPointExtension>
            <ns3:atemp>17.0</ns3:atemp>
          </ns3:TrackPointExtension>
        </extensions>
      </trkpt>
      <trkpt lat="42.6249848864972591400146484375" lon="19.88024580292403697967529296875">
        <ele>1746.800048828125</ele>
        <time>2026-06-16T08:37:37.000Z</time>
        <extensions>
          <ns3:TrackPointExtension>
            <ns3:atemp>17.0</ns3:atemp>
          </ns3:TrackPointExtension>
        </extensions>
      </trkpt>
      <trkpt lat="42.6249848864972591400146484375" lon="19.88024580292403697967529296875">
        <ele>1746.800048828125</ele>
        <time>2026-06-16T08:37:38.000Z</time>
        <extensions>
          <ns3:TrackPointExtension>
            <ns3:atemp>17.0</ns3:atemp>
          </ns3:TrackPointExtension>
        </extensions>
      </trkpt>
      <trkpt lat="42.6249848864972591400146484375" lon="19.88024580292403697967529296875">
        <ele>1746.800048828125</ele>
        <time>2026-06-16T08:37:39.000Z</time>
        <extensions>
          <ns3:TrackPointExtension>
            <ns3:atemp>17.0</ns3:atemp>
          </ns3:TrackPointExtension>
        </extensions>
      </trkpt>
      <trkpt lat="42.6249848864972591400146484375" lon="19.88024580292403697967529296875">
        <ele>1746.800048828125</ele>
        <time>2026-06-16T08:37:40.000Z</time>
        <extensions>
          <ns3:TrackPointExtension>
            <ns3:atemp>17.0</ns3:atemp>
          </ns3:TrackPointExtension>
        </extensions>
      </trkpt>
      <trkpt lat="42.6249848864972591400146484375" lon="19.88024580292403697967529296875">
        <ele>1746.800048828125</ele>
        <time>2026-06-16T08:37:41.000Z</time>
        <extensions>
          <ns3:TrackPointExtension>
            <ns3:atemp>17.0</ns3:atemp>
          </ns3:TrackPointExtension>
        </extensions>
      </trkpt>
      <trkpt lat="42.6249848864972591400146484375" lon="19.88024580292403697967529296875">
        <ele>1746.800048828125</ele>
        <time>2026-06-16T08:37:42.000Z</time>
        <extensions>
          <ns3:TrackPointExtension>
            <ns3:atemp>17.0</ns3:atemp>
          </ns3:TrackPointExtension>
        </extensions>
      </trkpt>
      <trkpt lat="42.6249848864972591400146484375" lon="19.88024580292403697967529296875">
        <ele>1746.800048828125</ele>
        <time>2026-06-16T08:37:43.000Z</time>
        <extensions>
          <ns3:TrackPointExtension>
            <ns3:atemp>17.0</ns3:atemp>
          </ns3:TrackPointExtension>
        </extensions>
      </trkpt>
      <trkpt lat="42.6249848864972591400146484375" lon="19.88024580292403697967529296875">
        <ele>1746.800048828125</ele>
        <time>2026-06-16T08:37:44.000Z</time>
        <extensions>
          <ns3:TrackPointExtension>
            <ns3:atemp>17.0</ns3:atemp>
          </ns3:TrackPointExtension>
        </extensions>
      </trkpt>
      <trkpt lat="42.6249848864972591400146484375" lon="19.88024580292403697967529296875">
        <ele>1746.800048828125</ele>
        <time>2026-06-16T08:37:45.000Z</time>
        <extensions>
          <ns3:TrackPointExtension>
            <ns3:atemp>17.0</ns3:atemp>
          </ns3:TrackPointExtension>
        </extensions>
      </trkpt>
      <trkpt lat="42.6249848864972591400146484375" lon="19.88024580292403697967529296875">
        <ele>1746.800048828125</ele>
        <time>2026-06-16T08:37:46.000Z</time>
        <extensions>
          <ns3:TrackPointExtension>
            <ns3:atemp>17.0</ns3:atemp>
          </ns3:TrackPointExtension>
        </extensions>
      </trkpt>
      <trkpt lat="42.6249848864972591400146484375" lon="19.88024580292403697967529296875">
        <ele>1746.800048828125</ele>
        <time>2026-06-16T08:37:47.000Z</time>
        <extensions>
          <ns3:TrackPointExtension>
            <ns3:atemp>17.0</ns3:atemp>
          </ns3:TrackPointExtension>
        </extensions>
      </trkpt>
      <trkpt lat="42.6249848864972591400146484375" lon="19.88024580292403697967529296875">
        <ele>1746.800048828125</ele>
        <time>2026-06-16T08:37:48.000Z</time>
        <extensions>
          <ns3:TrackPointExtension>
            <ns3:atemp>17.0</ns3:atemp>
          </ns3:TrackPointExtension>
        </extensions>
      </trkpt>
      <trkpt lat="42.6249848864972591400146484375" lon="19.88024580292403697967529296875">
        <ele>1746.800048828125</ele>
        <time>2026-06-16T08:37:49.000Z</time>
        <extensions>
          <ns3:TrackPointExtension>
            <ns3:atemp>17.0</ns3:atemp>
          </ns3:TrackPointExtension>
        </extensions>
      </trkpt>
      <trkpt lat="42.6249848864972591400146484375" lon="19.88024580292403697967529296875">
        <ele>1746.800048828125</ele>
        <time>2026-06-16T08:37:50.000Z</time>
        <extensions>
          <ns3:TrackPointExtension>
            <ns3:atemp>17.0</ns3:atemp>
          </ns3:TrackPointExtension>
        </extensions>
      </trkpt>
      <trkpt lat="42.6249848864972591400146484375" lon="19.88024580292403697967529296875">
        <ele>1746.800048828125</ele>
        <time>2026-06-16T08:37:51.000Z</time>
        <extensions>
          <ns3:TrackPointExtension>
            <ns3:atemp>17.0</ns3:atemp>
          </ns3:TrackPointExtension>
        </extensions>
      </trkpt>
      <trkpt lat="42.6249848864972591400146484375" lon="19.88024580292403697967529296875">
        <ele>1746.800048828125</ele>
        <time>2026-06-16T08:37:52.000Z</time>
        <extensions>
          <ns3:TrackPointExtension>
            <ns3:atemp>17.0</ns3:atemp>
          </ns3:TrackPointExtension>
        </extensions>
      </trkpt>
      <trkpt lat="42.6249848864972591400146484375" lon="19.88024580292403697967529296875">
        <ele>1746.800048828125</ele>
        <time>2026-06-16T08:37:53.000Z</time>
        <extensions>
          <ns3:TrackPointExtension>
            <ns3:atemp>17.0</ns3:atemp>
          </ns3:TrackPointExtension>
        </extensions>
      </trkpt>
      <trkpt lat="42.6249848864972591400146484375" lon="19.88024580292403697967529296875">
        <ele>1746.800048828125</ele>
        <time>2026-06-16T08:37:54.000Z</time>
        <extensions>
          <ns3:TrackPointExtension>
            <ns3:atemp>17.0</ns3:atemp>
          </ns3:TrackPointExtension>
        </extensions>
      </trkpt>
      <trkpt lat="42.6249848864972591400146484375" lon="19.88024580292403697967529296875">
        <ele>1746.800048828125</ele>
        <time>2026-06-16T08:37:55.000Z</time>
        <extensions>
          <ns3:TrackPointExtension>
            <ns3:atemp>17.0</ns3:atemp>
          </ns3:TrackPointExtension>
        </extensions>
      </trkpt>
      <trkpt lat="42.6249848864972591400146484375" lon="19.88024580292403697967529296875">
        <ele>1746.800048828125</ele>
        <time>2026-06-16T08:37:56.000Z</time>
        <extensions>
          <ns3:TrackPointExtension>
            <ns3:atemp>17.0</ns3:atemp>
          </ns3:TrackPointExtension>
        </extensions>
      </trkpt>
      <trkpt lat="42.6249848864972591400146484375" lon="19.88024580292403697967529296875">
        <ele>1746.800048828125</ele>
        <time>2026-06-16T08:37:57.000Z</time>
        <extensions>
          <ns3:TrackPointExtension>
            <ns3:atemp>17.0</ns3:atemp>
          </ns3:TrackPointExtension>
        </extensions>
      </trkpt>
      <trkpt lat="42.6249848864972591400146484375" lon="19.88024580292403697967529296875">
        <ele>1746.800048828125</ele>
        <time>2026-06-16T08:37:58.000Z</time>
        <extensions>
          <ns3:TrackPointExtension>
            <ns3:atemp>17.0</ns3:atemp>
          </ns3:TrackPointExtension>
        </extensions>
      </trkpt>
      <trkpt lat="42.6249848864972591400146484375" lon="19.88024580292403697967529296875">
        <ele>1746.800048828125</ele>
        <time>2026-06-16T08:37:59.000Z</time>
        <extensions>
          <ns3:TrackPointExtension>
            <ns3:atemp>17.0</ns3:atemp>
          </ns3:TrackPointExtension>
        </extensions>
      </trkpt>
      <trkpt lat="42.6249848864972591400146484375" lon="19.88024580292403697967529296875">
        <ele>1746.800048828125</ele>
        <time>2026-06-16T08:38:00.000Z</time>
        <extensions>
          <ns3:TrackPointExtension>
            <ns3:atemp>17.0</ns3:atemp>
          </ns3:TrackPointExtension>
        </extensions>
      </trkpt>
      <trkpt lat="42.6249848864972591400146484375" lon="19.88024580292403697967529296875">
        <ele>1746.800048828125</ele>
        <time>2026-06-16T08:38:01.000Z</time>
        <extensions>
          <ns3:TrackPointExtension>
            <ns3:atemp>17.0</ns3:atemp>
          </ns3:TrackPointExtension>
        </extensions>
      </trkpt>
      <trkpt lat="42.6249848864972591400146484375" lon="19.88024580292403697967529296875">
        <ele>1746.800048828125</ele>
        <time>2026-06-16T08:38:02.000Z</time>
        <extensions>
          <ns3:TrackPointExtension>
            <ns3:atemp>17.0</ns3:atemp>
          </ns3:TrackPointExtension>
        </extensions>
      </trkpt>
      <trkpt lat="42.6249848864972591400146484375" lon="19.88024580292403697967529296875">
        <ele>1746.800048828125</ele>
        <time>2026-06-16T08:38:03.000Z</time>
        <extensions>
          <ns3:TrackPointExtension>
            <ns3:atemp>17.0</ns3:atemp>
          </ns3:TrackPointExtension>
        </extensions>
      </trkpt>
      <trkpt lat="42.6249848864972591400146484375" lon="19.88024580292403697967529296875">
        <ele>1746.800048828125</ele>
        <time>2026-06-16T08:38:04.000Z</time>
        <extensions>
          <ns3:TrackPointExtension>
            <ns3:atemp>17.0</ns3:atemp>
          </ns3:TrackPointExtension>
        </extensions>
      </trkpt>
      <trkpt lat="42.6249848864972591400146484375" lon="19.88024580292403697967529296875">
        <ele>1746.800048828125</ele>
        <time>2026-06-16T08:38:05.000Z</time>
        <extensions>
          <ns3:TrackPointExtension>
            <ns3:atemp>17.0</ns3:atemp>
          </ns3:TrackPointExtension>
        </extensions>
      </trkpt>
      <trkpt lat="42.6249848864972591400146484375" lon="19.88024580292403697967529296875">
        <ele>1746.800048828125</ele>
        <time>2026-06-16T08:38:06.000Z</time>
        <extensions>
          <ns3:TrackPointExtension>
            <ns3:atemp>17.0</ns3:atemp>
          </ns3:TrackPointExtension>
        </extensions>
      </trkpt>
      <trkpt lat="42.6249848864972591400146484375" lon="19.88024580292403697967529296875">
        <ele>1746.800048828125</ele>
        <time>2026-06-16T08:38:07.000Z</time>
        <extensions>
          <ns3:TrackPointExtension>
            <ns3:atemp>17.0</ns3:atemp>
          </ns3:TrackPointExtension>
        </extensions>
      </trkpt>
      <trkpt lat="42.6249848864972591400146484375" lon="19.88024580292403697967529296875">
        <ele>1746.800048828125</ele>
        <time>2026-06-16T08:38:08.000Z</time>
        <extensions>
          <ns3:TrackPointExtension>
            <ns3:atemp>17.0</ns3:atemp>
          </ns3:TrackPointExtension>
        </extensions>
      </trkpt>
      <trkpt lat="42.6249848864972591400146484375" lon="19.88024580292403697967529296875">
        <ele>1746.800048828125</ele>
        <time>2026-06-16T08:38:09.000Z</time>
        <extensions>
          <ns3:TrackPointExtension>
            <ns3:atemp>17.0</ns3:atemp>
          </ns3:TrackPointExtension>
        </extensions>
      </trkpt>
      <trkpt lat="42.6249848864972591400146484375" lon="19.88024580292403697967529296875">
        <ele>1746.800048828125</ele>
        <time>2026-06-16T08:38:10.000Z</time>
        <extensions>
          <ns3:TrackPointExtension>
            <ns3:atemp>17.0</ns3:atemp>
          </ns3:TrackPointExtension>
        </extensions>
      </trkpt>
      <trkpt lat="42.6249848864972591400146484375" lon="19.88024580292403697967529296875">
        <ele>1746.800048828125</ele>
        <time>2026-06-16T08:38:11.000Z</time>
        <extensions>
          <ns3:TrackPointExtension>
            <ns3:atemp>17.0</ns3:atemp>
          </ns3:TrackPointExtension>
        </extensions>
      </trkpt>
      <trkpt lat="42.6249848864972591400146484375" lon="19.88024580292403697967529296875">
        <ele>1746.800048828125</ele>
        <time>2026-06-16T08:38:12.000Z</time>
        <extensions>
          <ns3:TrackPointExtension>
            <ns3:atemp>17.0</ns3:atemp>
          </ns3:TrackPointExtension>
        </extensions>
      </trkpt>
      <trkpt lat="42.6249848864972591400146484375" lon="19.88024580292403697967529296875">
        <ele>1746.800048828125</ele>
        <time>2026-06-16T08:38:13.000Z</time>
        <extensions>
          <ns3:TrackPointExtension>
            <ns3:atemp>17.0</ns3:atemp>
          </ns3:TrackPointExtension>
        </extensions>
      </trkpt>
      <trkpt lat="42.6249848864972591400146484375" lon="19.88024580292403697967529296875">
        <ele>1746.800048828125</ele>
        <time>2026-06-16T08:38:14.000Z</time>
        <extensions>
          <ns3:TrackPointExtension>
            <ns3:atemp>17.0</ns3:atemp>
          </ns3:TrackPointExtension>
        </extensions>
      </trkpt>
      <trkpt lat="42.6249848864972591400146484375" lon="19.88024580292403697967529296875">
        <ele>1746.800048828125</ele>
        <time>2026-06-16T08:38:15.000Z</time>
        <extensions>
          <ns3:TrackPointExtension>
            <ns3:atemp>17.0</ns3:atemp>
          </ns3:TrackPointExtension>
        </extensions>
      </trkpt>
      <trkpt lat="42.6249848864972591400146484375" lon="19.88024580292403697967529296875">
        <ele>1746.800048828125</ele>
        <time>2026-06-16T08:38:16.000Z</time>
        <extensions>
          <ns3:TrackPointExtension>
            <ns3:atemp>17.0</ns3:atemp>
          </ns3:TrackPointExtension>
        </extensions>
      </trkpt>
      <trkpt lat="42.6249848864972591400146484375" lon="19.88024580292403697967529296875">
        <ele>1746.800048828125</ele>
        <time>2026-06-16T08:38:17.000Z</time>
        <extensions>
          <ns3:TrackPointExtension>
            <ns3:atemp>17.0</ns3:atemp>
          </ns3:TrackPointExtension>
        </extensions>
      </trkpt>
      <trkpt lat="42.6249848864972591400146484375" lon="19.88024580292403697967529296875">
        <ele>1746.800048828125</ele>
        <time>2026-06-16T08:38:18.000Z</time>
        <extensions>
          <ns3:TrackPointExtension>
            <ns3:atemp>17.0</ns3:atemp>
          </ns3:TrackPointExtension>
        </extensions>
      </trkpt>
      <trkpt lat="42.6249848864972591400146484375" lon="19.88024580292403697967529296875">
        <ele>1746.800048828125</ele>
        <time>2026-06-16T08:38:19.000Z</time>
        <extensions>
          <ns3:TrackPointExtension>
            <ns3:atemp>17.0</ns3:atemp>
          </ns3:TrackPointExtension>
        </extensions>
      </trkpt>
      <trkpt lat="42.6249848864972591400146484375" lon="19.88024580292403697967529296875">
        <ele>1746.800048828125</ele>
        <time>2026-06-16T08:38:20.000Z</time>
        <extensions>
          <ns3:TrackPointExtension>
            <ns3:atemp>17.0</ns3:atemp>
          </ns3:TrackPointExtension>
        </extensions>
      </trkpt>
      <trkpt lat="42.6249848864972591400146484375" lon="19.88024580292403697967529296875">
        <ele>1746.800048828125</ele>
        <time>2026-06-16T08:38:21.000Z</time>
        <extensions>
          <ns3:TrackPointExtension>
            <ns3:atemp>17.0</ns3:atemp>
          </ns3:TrackPointExtension>
        </extensions>
      </trkpt>
      <trkpt lat="42.6249848864972591400146484375" lon="19.88024580292403697967529296875">
        <ele>1746.800048828125</ele>
        <time>2026-06-16T08:38:22.000Z</time>
        <extensions>
          <ns3:TrackPointExtension>
            <ns3:atemp>17.0</ns3:atemp>
          </ns3:TrackPointExtension>
        </extensions>
      </trkpt>
      <trkpt lat="42.6249848864972591400146484375" lon="19.88024580292403697967529296875">
        <ele>1746.800048828125</ele>
        <time>2026-06-16T08:38:23.000Z</time>
        <extensions>
          <ns3:TrackPointExtension>
            <ns3:atemp>17.0</ns3:atemp>
          </ns3:TrackPointExtension>
        </extensions>
      </trkpt>
      <trkpt lat="42.6249848864972591400146484375" lon="19.88024580292403697967529296875">
        <ele>1746.800048828125</ele>
        <time>2026-06-16T08:38:24.000Z</time>
        <extensions>
          <ns3:TrackPointExtension>
            <ns3:atemp>17.0</ns3:atemp>
          </ns3:TrackPointExtension>
        </extensions>
      </trkpt>
      <trkpt lat="42.6249848864972591400146484375" lon="19.88024580292403697967529296875">
        <ele>1746.800048828125</ele>
        <time>2026-06-16T08:38:25.000Z</time>
        <extensions>
          <ns3:TrackPointExtension>
            <ns3:atemp>17.0</ns3:atemp>
          </ns3:TrackPointExtension>
        </extensions>
      </trkpt>
      <trkpt lat="42.6249848864972591400146484375" lon="19.88024580292403697967529296875">
        <ele>1746.800048828125</ele>
        <time>2026-06-16T08:38:26.000Z</time>
        <extensions>
          <ns3:TrackPointExtension>
            <ns3:atemp>17.0</ns3:atemp>
          </ns3:TrackPointExtension>
        </extensions>
      </trkpt>
      <trkpt lat="42.6249848864972591400146484375" lon="19.88024580292403697967529296875">
        <ele>1746.800048828125</ele>
        <time>2026-06-16T08:38:27.000Z</time>
        <extensions>
          <ns3:TrackPointExtension>
            <ns3:atemp>17.0</ns3:atemp>
          </ns3:TrackPointExtension>
        </extensions>
      </trkpt>
      <trkpt lat="42.6249848864972591400146484375" lon="19.88024580292403697967529296875">
        <ele>1746.800048828125</ele>
        <time>2026-06-16T08:38:28.000Z</time>
        <extensions>
          <ns3:TrackPointExtension>
            <ns3:atemp>17.0</ns3:atemp>
          </ns3:TrackPointExtension>
        </extensions>
      </trkpt>
      <trkpt lat="42.6249848864972591400146484375" lon="19.88024580292403697967529296875">
        <ele>1746.800048828125</ele>
        <time>2026-06-16T08:38:29.000Z</time>
        <extensions>
          <ns3:TrackPointExtension>
            <ns3:atemp>17.0</ns3:atemp>
          </ns3:TrackPointExtension>
        </extensions>
      </trkpt>
      <trkpt lat="42.6249848864972591400146484375" lon="19.88024580292403697967529296875">
        <ele>1746.800048828125</ele>
        <time>2026-06-16T08:38:30.000Z</time>
        <extensions>
          <ns3:TrackPointExtension>
            <ns3:atemp>17.0</ns3:atemp>
          </ns3:TrackPointExtension>
        </extensions>
      </trkpt>
      <trkpt lat="42.6249848864972591400146484375" lon="19.88024580292403697967529296875">
        <ele>1746.800048828125</ele>
        <time>2026-06-16T08:38:31.000Z</time>
        <extensions>
          <ns3:TrackPointExtension>
            <ns3:atemp>17.0</ns3:atemp>
          </ns3:TrackPointExtension>
        </extensions>
      </trkpt>
      <trkpt lat="42.6249848864972591400146484375" lon="19.88024580292403697967529296875">
        <ele>1746.800048828125</ele>
        <time>2026-06-16T08:38:32.000Z</time>
        <extensions>
          <ns3:TrackPointExtension>
            <ns3:atemp>17.0</ns3:atemp>
          </ns3:TrackPointExtension>
        </extensions>
      </trkpt>
      <trkpt lat="42.6249848864972591400146484375" lon="19.88024580292403697967529296875">
        <ele>1746.800048828125</ele>
        <time>2026-06-16T08:38:33.000Z</time>
        <extensions>
          <ns3:TrackPointExtension>
            <ns3:atemp>17.0</ns3:atemp>
          </ns3:TrackPointExtension>
        </extensions>
      </trkpt>
      <trkpt lat="42.6249848864972591400146484375" lon="19.88024580292403697967529296875">
        <ele>1746.800048828125</ele>
        <time>2026-06-16T08:38:34.000Z</time>
        <extensions>
          <ns3:TrackPointExtension>
            <ns3:atemp>17.0</ns3:atemp>
          </ns3:TrackPointExtension>
        </extensions>
      </trkpt>
      <trkpt lat="42.6249848864972591400146484375" lon="19.88024580292403697967529296875">
        <ele>1746.800048828125</ele>
        <time>2026-06-16T08:38:35.000Z</time>
        <extensions>
          <ns3:TrackPointExtension>
            <ns3:atemp>17.0</ns3:atemp>
          </ns3:TrackPointExtension>
        </extensions>
      </trkpt>
      <trkpt lat="42.6249848864972591400146484375" lon="19.88024580292403697967529296875">
        <ele>1746.800048828125</ele>
        <time>2026-06-16T08:38:36.000Z</time>
        <extensions>
          <ns3:TrackPointExtension>
            <ns3:atemp>17.0</ns3:atemp>
          </ns3:TrackPointExtension>
        </extensions>
      </trkpt>
      <trkpt lat="42.6249848864972591400146484375" lon="19.88024580292403697967529296875">
        <ele>1746.800048828125</ele>
        <time>2026-06-16T08:38:37.000Z</time>
        <extensions>
          <ns3:TrackPointExtension>
            <ns3:atemp>17.0</ns3:atemp>
          </ns3:TrackPointExtension>
        </extensions>
      </trkpt>
      <trkpt lat="42.6249848864972591400146484375" lon="19.88024580292403697967529296875">
        <ele>1746.800048828125</ele>
        <time>2026-06-16T08:38:38.000Z</time>
        <extensions>
          <ns3:TrackPointExtension>
            <ns3:atemp>17.0</ns3:atemp>
          </ns3:TrackPointExtension>
        </extensions>
      </trkpt>
      <trkpt lat="42.6249848864972591400146484375" lon="19.88024580292403697967529296875">
        <ele>1746.800048828125</ele>
        <time>2026-06-16T08:38:39.000Z</time>
        <extensions>
          <ns3:TrackPointExtension>
            <ns3:atemp>17.0</ns3:atemp>
          </ns3:TrackPointExtension>
        </extensions>
      </trkpt>
      <trkpt lat="42.6249848864972591400146484375" lon="19.88024580292403697967529296875">
        <ele>1746.800048828125</ele>
        <time>2026-06-16T08:38:40.000Z</time>
        <extensions>
          <ns3:TrackPointExtension>
            <ns3:atemp>17.0</ns3:atemp>
          </ns3:TrackPointExtension>
        </extensions>
      </trkpt>
      <trkpt lat="42.6249848864972591400146484375" lon="19.88024580292403697967529296875">
        <ele>1746.800048828125</ele>
        <time>2026-06-16T08:38:41.000Z</time>
        <extensions>
          <ns3:TrackPointExtension>
            <ns3:atemp>17.0</ns3:atemp>
          </ns3:TrackPointExtension>
        </extensions>
      </trkpt>
      <trkpt lat="42.6249848864972591400146484375" lon="19.88024580292403697967529296875">
        <ele>1746.800048828125</ele>
        <time>2026-06-16T08:38:42.000Z</time>
        <extensions>
          <ns3:TrackPointExtension>
            <ns3:atemp>17.0</ns3:atemp>
          </ns3:TrackPointExtension>
        </extensions>
      </trkpt>
      <trkpt lat="42.6249848864972591400146484375" lon="19.88024580292403697967529296875">
        <ele>1746.800048828125</ele>
        <time>2026-06-16T08:38:43.000Z</time>
        <extensions>
          <ns3:TrackPointExtension>
            <ns3:atemp>17.0</ns3:atemp>
          </ns3:TrackPointExtension>
        </extensions>
      </trkpt>
      <trkpt lat="42.6249848864972591400146484375" lon="19.88024580292403697967529296875">
        <ele>1746.800048828125</ele>
        <time>2026-06-16T08:38:44.000Z</time>
        <extensions>
          <ns3:TrackPointExtension>
            <ns3:atemp>17.0</ns3:atemp>
          </ns3:TrackPointExtension>
        </extensions>
      </trkpt>
      <trkpt lat="42.6249848864972591400146484375" lon="19.88024580292403697967529296875">
        <ele>1746.800048828125</ele>
        <time>2026-06-16T08:38:45.000Z</time>
        <extensions>
          <ns3:TrackPointExtension>
            <ns3:atemp>17.0</ns3:atemp>
          </ns3:TrackPointExtension>
        </extensions>
      </trkpt>
      <trkpt lat="42.6249848864972591400146484375" lon="19.88024580292403697967529296875">
        <ele>1746.800048828125</ele>
        <time>2026-06-16T08:38:46.000Z</time>
        <extensions>
          <ns3:TrackPointExtension>
            <ns3:atemp>17.0</ns3:atemp>
          </ns3:TrackPointExtension>
        </extensions>
      </trkpt>
      <trkpt lat="42.6249848864972591400146484375" lon="19.88024580292403697967529296875">
        <ele>1746.800048828125</ele>
        <time>2026-06-16T08:38:47.000Z</time>
        <extensions>
          <ns3:TrackPointExtension>
            <ns3:atemp>17.0</ns3:atemp>
          </ns3:TrackPointExtension>
        </extensions>
      </trkpt>
      <trkpt lat="42.6249848864972591400146484375" lon="19.88024580292403697967529296875">
        <ele>1746.800048828125</ele>
        <time>2026-06-16T08:38:48.000Z</time>
        <extensions>
          <ns3:TrackPointExtension>
            <ns3:atemp>17.0</ns3:atemp>
          </ns3:TrackPointExtension>
        </extensions>
      </trkpt>
      <trkpt lat="42.6249848864972591400146484375" lon="19.88024580292403697967529296875">
        <ele>1746.800048828125</ele>
        <time>2026-06-16T08:38:49.000Z</time>
        <extensions>
          <ns3:TrackPointExtension>
            <ns3:atemp>17.0</ns3:atemp>
          </ns3:TrackPointExtension>
        </extensions>
      </trkpt>
      <trkpt lat="42.6249848864972591400146484375" lon="19.88024580292403697967529296875">
        <ele>1746.800048828125</ele>
        <time>2026-06-16T08:38:50.000Z</time>
        <extensions>
          <ns3:TrackPointExtension>
            <ns3:atemp>17.0</ns3:atemp>
          </ns3:TrackPointExtension>
        </extensions>
      </trkpt>
      <trkpt lat="42.6249848864972591400146484375" lon="19.88024580292403697967529296875">
        <ele>1746.800048828125</ele>
        <time>2026-06-16T08:38:51.000Z</time>
        <extensions>
          <ns3:TrackPointExtension>
            <ns3:atemp>17.0</ns3:atemp>
          </ns3:TrackPointExtension>
        </extensions>
      </trkpt>
      <trkpt lat="42.6249848864972591400146484375" lon="19.88024580292403697967529296875">
        <ele>1746.800048828125</ele>
        <time>2026-06-16T08:38:52.000Z</time>
        <extensions>
          <ns3:TrackPointExtension>
            <ns3:atemp>17.0</ns3:atemp>
          </ns3:TrackPointExtension>
        </extensions>
      </trkpt>
      <trkpt lat="42.6249848864972591400146484375" lon="19.88024580292403697967529296875">
        <ele>1746.800048828125</ele>
        <time>2026-06-16T08:38:53.000Z</time>
        <extensions>
          <ns3:TrackPointExtension>
            <ns3:atemp>17.0</ns3:atemp>
          </ns3:TrackPointExtension>
        </extensions>
      </trkpt>
      <trkpt lat="42.6249848864972591400146484375" lon="19.88024580292403697967529296875">
        <ele>1746.800048828125</ele>
        <time>2026-06-16T08:38:54.000Z</time>
        <extensions>
          <ns3:TrackPointExtension>
            <ns3:atemp>17.0</ns3:atemp>
          </ns3:TrackPointExtension>
        </extensions>
      </trkpt>
      <trkpt lat="42.6249848864972591400146484375" lon="19.88024580292403697967529296875">
        <ele>1746.800048828125</ele>
        <time>2026-06-16T08:38:55.000Z</time>
        <extensions>
          <ns3:TrackPointExtension>
            <ns3:atemp>17.0</ns3:atemp>
          </ns3:TrackPointExtension>
        </extensions>
      </trkpt>
      <trkpt lat="42.6249848864972591400146484375" lon="19.88024580292403697967529296875">
        <ele>1746.800048828125</ele>
        <time>2026-06-16T08:38:56.000Z</time>
        <extensions>
          <ns3:TrackPointExtension>
            <ns3:atemp>17.0</ns3:atemp>
          </ns3:TrackPointExtension>
        </extensions>
      </trkpt>
      <trkpt lat="42.6249848864972591400146484375" lon="19.88024580292403697967529296875">
        <ele>1746.800048828125</ele>
        <time>2026-06-16T08:38:57.000Z</time>
        <extensions>
          <ns3:TrackPointExtension>
            <ns3:atemp>17.0</ns3:atemp>
          </ns3:TrackPointExtension>
        </extensions>
      </trkpt>
      <trkpt lat="42.6249848864972591400146484375" lon="19.88024580292403697967529296875">
        <ele>1746.800048828125</ele>
        <time>2026-06-16T08:38:58.000Z</time>
        <extensions>
          <ns3:TrackPointExtension>
            <ns3:atemp>17.0</ns3:atemp>
          </ns3:TrackPointExtension>
        </extensions>
      </trkpt>
      <trkpt lat="42.6249848864972591400146484375" lon="19.88024580292403697967529296875">
        <ele>1746.800048828125</ele>
        <time>2026-06-16T08:38:59.000Z</time>
        <extensions>
          <ns3:TrackPointExtension>
            <ns3:atemp>17.0</ns3:atemp>
          </ns3:TrackPointExtension>
        </extensions>
      </trkpt>
      <trkpt lat="42.6249848864972591400146484375" lon="19.88024580292403697967529296875">
        <ele>1746.800048828125</ele>
        <time>2026-06-16T08:39:00.000Z</time>
        <extensions>
          <ns3:TrackPointExtension>
            <ns3:atemp>17.0</ns3:atemp>
          </ns3:TrackPointExtension>
        </extensions>
      </trkpt>
      <trkpt lat="42.6249848864972591400146484375" lon="19.88024580292403697967529296875">
        <ele>1746.800048828125</ele>
        <time>2026-06-16T08:39:01.000Z</time>
        <extensions>
          <ns3:TrackPointExtension>
            <ns3:atemp>17.0</ns3:atemp>
          </ns3:TrackPointExtension>
        </extensions>
      </trkpt>
      <trkpt lat="42.6249848864972591400146484375" lon="19.88024580292403697967529296875">
        <ele>1746.800048828125</ele>
        <time>2026-06-16T08:39:02.000Z</time>
        <extensions>
          <ns3:TrackPointExtension>
            <ns3:atemp>17.0</ns3:atemp>
          </ns3:TrackPointExtension>
        </extensions>
      </trkpt>
      <trkpt lat="42.6249848864972591400146484375" lon="19.88024580292403697967529296875">
        <ele>1746.800048828125</ele>
        <time>2026-06-16T08:39:03.000Z</time>
        <extensions>
          <ns3:TrackPointExtension>
            <ns3:atemp>17.0</ns3:atemp>
          </ns3:TrackPointExtension>
        </extensions>
      </trkpt>
      <trkpt lat="42.6249848864972591400146484375" lon="19.88024580292403697967529296875">
        <ele>1746.800048828125</ele>
        <time>2026-06-16T08:39:04.000Z</time>
        <extensions>
          <ns3:TrackPointExtension>
            <ns3:atemp>17.0</ns3:atemp>
          </ns3:TrackPointExtension>
        </extensions>
      </trkpt>
      <trkpt lat="42.6249848864972591400146484375" lon="19.88024580292403697967529296875">
        <ele>1746.800048828125</ele>
        <time>2026-06-16T08:39:05.000Z</time>
        <extensions>
          <ns3:TrackPointExtension>
            <ns3:atemp>17.0</ns3:atemp>
          </ns3:TrackPointExtension>
        </extensions>
      </trkpt>
      <trkpt lat="42.6249848864972591400146484375" lon="19.88024580292403697967529296875">
        <ele>1746.800048828125</ele>
        <time>2026-06-16T08:39:06.000Z</time>
        <extensions>
          <ns3:TrackPointExtension>
            <ns3:atemp>17.0</ns3:atemp>
          </ns3:TrackPointExtension>
        </extensions>
      </trkpt>
      <trkpt lat="42.6249848864972591400146484375" lon="19.88024580292403697967529296875">
        <ele>1746.800048828125</ele>
        <time>2026-06-16T08:39:07.000Z</time>
        <extensions>
          <ns3:TrackPointExtension>
            <ns3:atemp>17.0</ns3:atemp>
          </ns3:TrackPointExtension>
        </extensions>
      </trkpt>
      <trkpt lat="42.6249848864972591400146484375" lon="19.88024580292403697967529296875">
        <ele>1746.800048828125</ele>
        <time>2026-06-16T08:39:08.000Z</time>
        <extensions>
          <ns3:TrackPointExtension>
            <ns3:atemp>17.0</ns3:atemp>
          </ns3:TrackPointExtension>
        </extensions>
      </trkpt>
      <trkpt lat="42.6249848864972591400146484375" lon="19.88024580292403697967529296875">
        <ele>1746.800048828125</ele>
        <time>2026-06-16T08:39:09.000Z</time>
        <extensions>
          <ns3:TrackPointExtension>
            <ns3:atemp>17.0</ns3:atemp>
          </ns3:TrackPointExtension>
        </extensions>
      </trkpt>
      <trkpt lat="42.6249848864972591400146484375" lon="19.88024580292403697967529296875">
        <ele>1746.800048828125</ele>
        <time>2026-06-16T08:39:10.000Z</time>
        <extensions>
          <ns3:TrackPointExtension>
            <ns3:atemp>17.0</ns3:atemp>
          </ns3:TrackPointExtension>
        </extensions>
      </trkpt>
      <trkpt lat="42.6249848864972591400146484375" lon="19.88024580292403697967529296875">
        <ele>1746.800048828125</ele>
        <time>2026-06-16T08:39:11.000Z</time>
        <extensions>
          <ns3:TrackPointExtension>
            <ns3:atemp>17.0</ns3:atemp>
          </ns3:TrackPointExtension>
        </extensions>
      </trkpt>
      <trkpt lat="42.6249848864972591400146484375" lon="19.88024580292403697967529296875">
        <ele>1746.800048828125</ele>
        <time>2026-06-16T08:39:12.000Z</time>
        <extensions>
          <ns3:TrackPointExtension>
            <ns3:atemp>17.0</ns3:atemp>
          </ns3:TrackPointExtension>
        </extensions>
      </trkpt>
      <trkpt lat="42.6249848864972591400146484375" lon="19.88024580292403697967529296875">
        <ele>1746.800048828125</ele>
        <time>2026-06-16T08:39:13.000Z</time>
        <extensions>
          <ns3:TrackPointExtension>
            <ns3:atemp>17.0</ns3:atemp>
          </ns3:TrackPointExtension>
        </extensions>
      </trkpt>
      <trkpt lat="42.6249848864972591400146484375" lon="19.88024580292403697967529296875">
        <ele>1746.800048828125</ele>
        <time>2026-06-16T08:39:14.000Z</time>
        <extensions>
          <ns3:TrackPointExtension>
            <ns3:atemp>17.0</ns3:atemp>
          </ns3:TrackPointExtension>
        </extensions>
      </trkpt>
      <trkpt lat="42.6249848864972591400146484375" lon="19.88024580292403697967529296875">
        <ele>1746.800048828125</ele>
        <time>2026-06-16T08:39:15.000Z</time>
        <extensions>
          <ns3:TrackPointExtension>
            <ns3:atemp>17.0</ns3:atemp>
          </ns3:TrackPointExtension>
        </extensions>
      </trkpt>
      <trkpt lat="42.6249848864972591400146484375" lon="19.88024580292403697967529296875">
        <ele>1746.800048828125</ele>
        <time>2026-06-16T08:39:16.000Z</time>
        <extensions>
          <ns3:TrackPointExtension>
            <ns3:atemp>17.0</ns3:atemp>
          </ns3:TrackPointExtension>
        </extensions>
      </trkpt>
      <trkpt lat="42.6249848864972591400146484375" lon="19.88024580292403697967529296875">
        <ele>1746.800048828125</ele>
        <time>2026-06-16T08:39:17.000Z</time>
        <extensions>
          <ns3:TrackPointExtension>
            <ns3:atemp>17.0</ns3:atemp>
          </ns3:TrackPointExtension>
        </extensions>
      </trkpt>
      <trkpt lat="42.6249848864972591400146484375" lon="19.88024580292403697967529296875">
        <ele>1746.800048828125</ele>
        <time>2026-06-16T08:39:18.000Z</time>
        <extensions>
          <ns3:TrackPointExtension>
            <ns3:atemp>17.0</ns3:atemp>
          </ns3:TrackPointExtension>
        </extensions>
      </trkpt>
      <trkpt lat="42.6249848864972591400146484375" lon="19.88024580292403697967529296875">
        <ele>1746.800048828125</ele>
        <time>2026-06-16T08:39:19.000Z</time>
        <extensions>
          <ns3:TrackPointExtension>
            <ns3:atemp>17.0</ns3:atemp>
          </ns3:TrackPointExtension>
        </extensions>
      </trkpt>
      <trkpt lat="42.6249929331243038177490234375" lon="19.88024312071502208709716796875">
        <ele>1746.800048828125</ele>
        <time>2026-06-16T08:39:20.000Z</time>
        <extensions>
          <ns3:TrackPointExtension>
            <ns3:atemp>17.0</ns3:atemp>
          </ns3:TrackPointExtension>
        </extensions>
      </trkpt>
      <trkpt lat="42.6249848864972591400146484375" lon="19.88024580292403697967529296875">
        <ele>1746.800048828125</ele>
        <time>2026-06-16T08:39:21.000Z</time>
        <extensions>
          <ns3:TrackPointExtension>
            <ns3:atemp>17.0</ns3:atemp>
          </ns3:TrackPointExtension>
        </extensions>
      </trkpt>
      <trkpt lat="42.6249848864972591400146484375" lon="19.88024580292403697967529296875">
        <ele>1746.800048828125</ele>
        <time>2026-06-16T08:39:22.000Z</time>
        <extensions>
          <ns3:TrackPointExtension>
            <ns3:atemp>17.0</ns3:atemp>
          </ns3:TrackPointExtension>
        </extensions>
      </trkpt>
      <trkpt lat="42.62499687261879444122314453125" lon="19.88024286925792694091796875">
        <ele>1746.800048828125</ele>
        <time>2026-06-16T08:39:23.000Z</time>
        <extensions>
          <ns3:TrackPointExtension>
            <ns3:atemp>17.0</ns3:atemp>
          </ns3:TrackPointExtension>
        </extensions>
      </trkpt>
      <trkpt lat="42.62500223703682422637939453125" lon="19.8802272789180278778076171875">
        <ele>1746.800048828125</ele>
        <time>2026-06-16T08:39:24.000Z</time>
        <extensions>
          <ns3:TrackPointExtension>
            <ns3:atemp>17.0</ns3:atemp>
          </ns3:TrackPointExtension>
        </extensions>
      </trkpt>
      <trkpt lat="42.62500240467488765716552734375" lon="19.8802222497761249542236328125">
        <ele>1746.800048828125</ele>
        <time>2026-06-16T08:39:25.000Z</time>
        <extensions>
          <ns3:TrackPointExtension>
            <ns3:atemp>17.0</ns3:atemp>
          </ns3:TrackPointExtension>
        </extensions>
      </trkpt>
      <trkpt lat="42.6250063441693782806396484375" lon="19.88021696917712688446044921875">
        <ele>1746.800048828125</ele>
        <time>2026-06-16T08:39:26.000Z</time>
        <extensions>
          <ns3:TrackPointExtension>
            <ns3:atemp>17.0</ns3:atemp>
          </ns3:TrackPointExtension>
        </extensions>
      </trkpt>
      <trkpt lat="42.6250066794455051422119140625" lon="19.880206994712352752685546875">
        <ele>1746.800048828125</ele>
        <time>2026-06-16T08:39:27.000Z</time>
        <extensions>
          <ns3:TrackPointExtension>
            <ns3:atemp>17.0</ns3:atemp>
          </ns3:TrackPointExtension>
        </extensions>
      </trkpt>
      <trkpt lat="42.62500919401645660400390625" lon="19.8802074976265430450439453125">
        <ele>1746.800048828125</ele>
        <time>2026-06-16T08:39:28.000Z</time>
        <extensions>
          <ns3:TrackPointExtension>
            <ns3:atemp>17.0</ns3:atemp>
          </ns3:TrackPointExtension>
        </extensions>
      </trkpt>
      <trkpt lat="42.6250112056732177734375" lon="19.8802078329026699066162109375">
        <ele>1746.800048828125</ele>
        <time>2026-06-16T08:39:29.000Z</time>
        <extensions>
          <ns3:TrackPointExtension>
            <ns3:atemp>17.0</ns3:atemp>
          </ns3:TrackPointExtension>
        </extensions>
      </trkpt>
      <trkpt lat="42.62501665391027927398681640625" lon="19.8802011273801326751708984375">
        <ele>1746.800048828125</ele>
        <time>2026-06-16T08:39:30.000Z</time>
        <extensions>
          <ns3:TrackPointExtension>
            <ns3:atemp>17.0</ns3:atemp>
          </ns3:TrackPointExtension>
        </extensions>
      </trkpt>
      <trkpt lat="42.6250214315950870513916015625" lon="19.88019769079983234405517578125">
        <ele>1746.800048828125</ele>
        <time>2026-06-16T08:39:31.000Z</time>
        <extensions>
          <ns3:TrackPointExtension>
            <ns3:atemp>17.0</ns3:atemp>
          </ns3:TrackPointExtension>
        </extensions>
      </trkpt>
      <trkpt lat="42.625021599233150482177734375" lon="19.88019752316176891326904296875">
        <ele>1746.800048828125</ele>
        <time>2026-06-16T08:39:32.000Z</time>
        <extensions>
          <ns3:TrackPointExtension>
            <ns3:atemp>17.0</ns3:atemp>
          </ns3:TrackPointExtension>
        </extensions>
      </trkpt>
      <trkpt lat="42.625021599233150482177734375" lon="19.88019752316176891326904296875">
        <ele>1746.800048828125</ele>
        <time>2026-06-16T08:39:33.000Z</time>
        <extensions>
          <ns3:TrackPointExtension>
            <ns3:atemp>17.0</ns3:atemp>
          </ns3:TrackPointExtension>
        </extensions>
      </trkpt>
      <trkpt lat="42.62502201832830905914306640625" lon="19.88019727170467376708984375">
        <ele>1746.800048828125</ele>
        <time>2026-06-16T08:39:34.000Z</time>
        <extensions>
          <ns3:TrackPointExtension>
            <ns3:atemp>17.0</ns3:atemp>
          </ns3:TrackPointExtension>
        </extensions>
      </trkpt>
      <trkpt lat="42.62502729892730712890625" lon="19.88019685260951519012451171875">
        <ele>1746.800048828125</ele>
        <time>2026-06-16T08:39:35.000Z</time>
        <extensions>
          <ns3:TrackPointExtension>
            <ns3:atemp>17.0</ns3:atemp>
          </ns3:TrackPointExtension>
        </extensions>
      </trkpt>
      <trkpt lat="42.625021599233150482177734375" lon="19.88019752316176891326904296875">
        <ele>1746.800048828125</ele>
        <time>2026-06-16T08:39:36.000Z</time>
        <extensions>
          <ns3:TrackPointExtension>
            <ns3:atemp>17.0</ns3:atemp>
          </ns3:TrackPointExtension>
        </extensions>
      </trkpt>
      <trkpt lat="42.6250328309834003448486328125" lon="19.88019056618213653564453125">
        <ele>1746.800048828125</ele>
        <time>2026-06-16T08:39:37.000Z</time>
        <extensions>
          <ns3:TrackPointExtension>
            <ns3:atemp>17.0</ns3:atemp>
          </ns3:TrackPointExtension>
        </extensions>
      </trkpt>
      <trkpt lat="42.62504833750426769256591796875" lon="19.88018117845058441162109375">
        <ele>1746.800048828125</ele>
        <time>2026-06-16T08:39:38.000Z</time>
        <extensions>
          <ns3:TrackPointExtension>
            <ns3:atemp>17.0</ns3:atemp>
          </ns3:TrackPointExtension>
        </extensions>
      </trkpt>
      <trkpt lat="42.625057809054851531982421875" lon="19.88017841242253780364990234375">
        <ele>1746.800048828125</ele>
        <time>2026-06-16T08:39:39.000Z</time>
        <extensions>
          <ns3:TrackPointExtension>
            <ns3:atemp>17.0</ns3:atemp>
          </ns3:TrackPointExtension>
        </extensions>
      </trkpt>
      <trkpt lat="42.62505705468356609344482421875" lon="19.88017841242253780364990234375">
        <ele>1746.800048828125</ele>
        <time>2026-06-16T08:39:40.000Z</time>
        <extensions>
          <ns3:TrackPointExtension>
            <ns3:atemp>17.0</ns3:atemp>
          </ns3:TrackPointExtension>
        </extensions>
      </trkpt>
      <trkpt lat="42.62505236081779003143310546875" lon="19.88017925061285495758056640625">
        <ele>1746.800048828125</ele>
        <time>2026-06-16T08:39:41.000Z</time>
        <extensions>
          <ns3:TrackPointExtension>
            <ns3:atemp>17.0</ns3:atemp>
          </ns3:TrackPointExtension>
        </extensions>
      </trkpt>
      <trkpt lat="42.62505252845585346221923828125" lon="19.88017908297479152679443359375">
        <ele>1746.800048828125</ele>
        <time>2026-06-16T08:39:42.000Z</time>
        <extensions>
          <ns3:TrackPointExtension>
            <ns3:atemp>17.0</ns3:atemp>
          </ns3:TrackPointExtension>
        </extensions>
      </trkpt>
      <trkpt lat="42.62505252845585346221923828125" lon="19.88017908297479152679443359375">
        <ele>1746.800048828125</ele>
        <time>2026-06-16T08:39:43.000Z</time>
        <extensions>
          <ns3:TrackPointExtension>
            <ns3:atemp>17.0</ns3:atemp>
          </ns3:TrackPointExtension>
        </extensions>
      </trkpt>
      <trkpt lat="42.62505252845585346221923828125" lon="19.88017908297479152679443359375">
        <ele>1746.800048828125</ele>
        <time>2026-06-16T08:39:44.000Z</time>
        <extensions>
          <ns3:TrackPointExtension>
            <ns3:atemp>17.0</ns3:atemp>
          </ns3:TrackPointExtension>
        </extensions>
      </trkpt>
      <trkpt lat="42.62505252845585346221923828125" lon="19.88017908297479152679443359375">
        <ele>1746.800048828125</ele>
        <time>2026-06-16T08:39:45.000Z</time>
        <extensions>
          <ns3:TrackPointExtension>
            <ns3:atemp>17.0</ns3:atemp>
          </ns3:TrackPointExtension>
        </extensions>
      </trkpt>
      <trkpt lat="42.62505252845585346221923828125" lon="19.88017908297479152679443359375">
        <ele>1746.800048828125</ele>
        <time>2026-06-16T08:39:46.000Z</time>
        <extensions>
          <ns3:TrackPointExtension>
            <ns3:atemp>17.0</ns3:atemp>
          </ns3:TrackPointExtension>
        </extensions>
      </trkpt>
      <trkpt lat="42.62505252845585346221923828125" lon="19.88017908297479152679443359375">
        <ele>1746.800048828125</ele>
        <time>2026-06-16T08:39:47.000Z</time>
        <extensions>
          <ns3:TrackPointExtension>
            <ns3:atemp>17.0</ns3:atemp>
          </ns3:TrackPointExtension>
        </extensions>
      </trkpt>
      <trkpt lat="42.62505252845585346221923828125" lon="19.88017908297479152679443359375">
        <ele>1746.800048828125</ele>
        <time>2026-06-16T08:39:48.000Z</time>
        <extensions>
          <ns3:TrackPointExtension>
            <ns3:atemp>17.0</ns3:atemp>
          </ns3:TrackPointExtension>
        </extensions>
      </trkpt>
      <trkpt lat="42.62505252845585346221923828125" lon="19.88017908297479152679443359375">
        <ele>1746.800048828125</ele>
        <time>2026-06-16T08:39:49.000Z</time>
        <extensions>
          <ns3:TrackPointExtension>
            <ns3:atemp>17.0</ns3:atemp>
          </ns3:TrackPointExtension>
        </extensions>
      </trkpt>
      <trkpt lat="42.62505252845585346221923828125" lon="19.88017908297479152679443359375">
        <ele>1746.800048828125</ele>
        <time>2026-06-16T08:39:50.000Z</time>
        <extensions>
          <ns3:TrackPointExtension>
            <ns3:atemp>17.0</ns3:atemp>
          </ns3:TrackPointExtension>
        </extensions>
      </trkpt>
      <trkpt lat="42.62505252845585346221923828125" lon="19.88017908297479152679443359375">
        <ele>1746.800048828125</ele>
        <time>2026-06-16T08:39:51.000Z</time>
        <extensions>
          <ns3:TrackPointExtension>
            <ns3:atemp>17.0</ns3:atemp>
          </ns3:TrackPointExtension>
        </extensions>
      </trkpt>
      <trkpt lat="42.62505252845585346221923828125" lon="19.88017908297479152679443359375">
        <ele>1746.800048828125</ele>
        <time>2026-06-16T08:39:52.000Z</time>
        <extensions>
          <ns3:TrackPointExtension>
            <ns3:atemp>17.0</ns3:atemp>
          </ns3:TrackPointExtension>
        </extensions>
      </trkpt>
      <trkpt lat="42.62505252845585346221923828125" lon="19.88017908297479152679443359375">
        <ele>1746.800048828125</ele>
        <time>2026-06-16T08:39:53.000Z</time>
        <extensions>
          <ns3:TrackPointExtension>
            <ns3:atemp>17.0</ns3:atemp>
          </ns3:TrackPointExtension>
        </extensions>
      </trkpt>
      <trkpt lat="42.62505252845585346221923828125" lon="19.88017908297479152679443359375">
        <ele>1746.800048828125</ele>
        <time>2026-06-16T08:39:54.000Z</time>
        <extensions>
          <ns3:TrackPointExtension>
            <ns3:atemp>17.0</ns3:atemp>
          </ns3:TrackPointExtension>
        </extensions>
      </trkpt>
      <trkpt lat="42.62505252845585346221923828125" lon="19.88017908297479152679443359375">
        <ele>1746.800048828125</ele>
        <time>2026-06-16T08:39:55.000Z</time>
        <extensions>
          <ns3:TrackPointExtension>
            <ns3:atemp>17.0</ns3:atemp>
          </ns3:TrackPointExtension>
        </extensions>
      </trkpt>
      <trkpt lat="42.62505252845585346221923828125" lon="19.88017908297479152679443359375">
        <ele>1746.800048828125</ele>
        <time>2026-06-16T08:39:56.000Z</time>
        <extensions>
          <ns3:TrackPointExtension>
            <ns3:atemp>17.0</ns3:atemp>
          </ns3:TrackPointExtension>
        </extensions>
      </trkpt>
      <trkpt lat="42.62505252845585346221923828125" lon="19.88017908297479152679443359375">
        <ele>1746.800048828125</ele>
        <time>2026-06-16T08:39:57.000Z</time>
        <extensions>
          <ns3:TrackPointExtension>
            <ns3:atemp>17.0</ns3:atemp>
          </ns3:TrackPointExtension>
        </extensions>
      </trkpt>
      <trkpt lat="42.62505252845585346221923828125" lon="19.88017908297479152679443359375">
        <ele>1746.800048828125</ele>
        <time>2026-06-16T08:39:58.000Z</time>
        <extensions>
          <ns3:TrackPointExtension>
            <ns3:atemp>17.0</ns3:atemp>
          </ns3:TrackPointExtension>
        </extensions>
      </trkpt>
      <trkpt lat="42.62505252845585346221923828125" lon="19.88017908297479152679443359375">
        <ele>1746.800048828125</ele>
        <time>2026-06-16T08:39:59.000Z</time>
        <extensions>
          <ns3:TrackPointExtension>
            <ns3:atemp>17.0</ns3:atemp>
          </ns3:TrackPointExtension>
        </extensions>
      </trkpt>
      <trkpt lat="42.62505252845585346221923828125" lon="19.88017908297479152679443359375">
        <ele>1746.800048828125</ele>
        <time>2026-06-16T08:40:00.000Z</time>
        <extensions>
          <ns3:TrackPointExtension>
            <ns3:atemp>17.0</ns3:atemp>
          </ns3:TrackPointExtension>
        </extensions>
      </trkpt>
      <trkpt lat="42.62505252845585346221923828125" lon="19.88017908297479152679443359375">
        <ele>1746.800048828125</ele>
        <time>2026-06-16T08:40:01.000Z</time>
        <extensions>
          <ns3:TrackPointExtension>
            <ns3:atemp>17.0</ns3:atemp>
          </ns3:TrackPointExtension>
        </extensions>
      </trkpt>
      <trkpt lat="42.62505252845585346221923828125" lon="19.88017908297479152679443359375">
        <ele>1746.800048828125</ele>
        <time>2026-06-16T08:40:02.000Z</time>
        <extensions>
          <ns3:TrackPointExtension>
            <ns3:atemp>17.0</ns3:atemp>
          </ns3:TrackPointExtension>
        </extensions>
      </trkpt>
      <trkpt lat="42.62505252845585346221923828125" lon="19.88017908297479152679443359375">
        <ele>1746.800048828125</ele>
        <time>2026-06-16T08:40:03.000Z</time>
        <extensions>
          <ns3:TrackPointExtension>
            <ns3:atemp>17.0</ns3:atemp>
          </ns3:TrackPointExtension>
        </extensions>
      </trkpt>
      <trkpt lat="42.62505252845585346221923828125" lon="19.88017908297479152679443359375">
        <ele>1746.800048828125</ele>
        <time>2026-06-16T08:40:04.000Z</time>
        <extensions>
          <ns3:TrackPointExtension>
            <ns3:atemp>17.0</ns3:atemp>
          </ns3:TrackPointExtension>
        </extensions>
      </trkpt>
      <trkpt lat="42.62505252845585346221923828125" lon="19.88017908297479152679443359375">
        <ele>1746.800048828125</ele>
        <time>2026-06-16T08:40:05.000Z</time>
        <extensions>
          <ns3:TrackPointExtension>
            <ns3:atemp>17.0</ns3:atemp>
          </ns3:TrackPointExtension>
        </extensions>
      </trkpt>
      <trkpt lat="42.62505252845585346221923828125" lon="19.88017908297479152679443359375">
        <ele>1746.800048828125</ele>
        <time>2026-06-16T08:40:06.000Z</time>
        <extensions>
          <ns3:TrackPointExtension>
            <ns3:atemp>17.0</ns3:atemp>
          </ns3:TrackPointExtension>
        </extensions>
      </trkpt>
      <trkpt lat="42.62505252845585346221923828125" lon="19.88017908297479152679443359375">
        <ele>1746.800048828125</ele>
        <time>2026-06-16T08:40:07.000Z</time>
        <extensions>
          <ns3:TrackPointExtension>
            <ns3:atemp>17.0</ns3:atemp>
          </ns3:TrackPointExtension>
        </extensions>
      </trkpt>
      <trkpt lat="42.62505252845585346221923828125" lon="19.88017908297479152679443359375">
        <ele>1746.800048828125</ele>
        <time>2026-06-16T08:40:08.000Z</time>
        <extensions>
          <ns3:TrackPointExtension>
            <ns3:atemp>17.0</ns3:atemp>
          </ns3:TrackPointExtension>
        </extensions>
      </trkpt>
      <trkpt lat="42.62505252845585346221923828125" lon="19.88017908297479152679443359375">
        <ele>1746.800048828125</ele>
        <time>2026-06-16T08:40:09.000Z</time>
        <extensions>
          <ns3:TrackPointExtension>
            <ns3:atemp>17.0</ns3:atemp>
          </ns3:TrackPointExtension>
        </extensions>
      </trkpt>
      <trkpt lat="42.62505252845585346221923828125" lon="19.88017908297479152679443359375">
        <ele>1746.800048828125</ele>
        <time>2026-06-16T08:40:10.000Z</time>
        <extensions>
          <ns3:TrackPointExtension>
            <ns3:atemp>17.0</ns3:atemp>
          </ns3:TrackPointExtension>
        </extensions>
      </trkpt>
      <trkpt lat="42.62505252845585346221923828125" lon="19.88017908297479152679443359375">
        <ele>1746.800048828125</ele>
        <time>2026-06-16T08:40:11.000Z</time>
        <extensions>
          <ns3:TrackPointExtension>
            <ns3:atemp>17.0</ns3:atemp>
          </ns3:TrackPointExtension>
        </extensions>
      </trkpt>
      <trkpt lat="42.62505252845585346221923828125" lon="19.88017908297479152679443359375">
        <ele>1746.800048828125</ele>
        <time>2026-06-16T08:40:12.000Z</time>
        <extensions>
          <ns3:TrackPointExtension>
            <ns3:atemp>17.0</ns3:atemp>
          </ns3:TrackPointExtension>
        </extensions>
      </trkpt>
      <trkpt lat="42.62505252845585346221923828125" lon="19.88017908297479152679443359375">
        <ele>1746.800048828125</ele>
        <time>2026-06-16T08:40:13.000Z</time>
        <extensions>
          <ns3:TrackPointExtension>
            <ns3:atemp>17.0</ns3:atemp>
          </ns3:TrackPointExtension>
        </extensions>
      </trkpt>
      <trkpt lat="42.62505252845585346221923828125" lon="19.88017908297479152679443359375">
        <ele>1746.800048828125</ele>
        <time>2026-06-16T08:40:14.000Z</time>
        <extensions>
          <ns3:TrackPointExtension>
            <ns3:atemp>17.0</ns3:atemp>
          </ns3:TrackPointExtension>
        </extensions>
      </trkpt>
      <trkpt lat="42.62505252845585346221923828125" lon="19.88017908297479152679443359375">
        <ele>1746.800048828125</ele>
        <time>2026-06-16T08:40:15.000Z</time>
        <extensions>
          <ns3:TrackPointExtension>
            <ns3:atemp>17.0</ns3:atemp>
          </ns3:TrackPointExtension>
        </extensions>
      </trkpt>
      <trkpt lat="42.62505252845585346221923828125" lon="19.88017908297479152679443359375">
        <ele>1746.800048828125</ele>
        <time>2026-06-16T08:40:16.000Z</time>
        <extensions>
          <ns3:TrackPointExtension>
            <ns3:atemp>17.0</ns3:atemp>
          </ns3:TrackPointExtension>
        </extensions>
      </trkpt>
      <trkpt lat="42.62505252845585346221923828125" lon="19.88017908297479152679443359375">
        <ele>1746.800048828125</ele>
        <time>2026-06-16T08:40:17.000Z</time>
        <extensions>
          <ns3:TrackPointExtension>
            <ns3:atemp>17.0</ns3:atemp>
          </ns3:TrackPointExtension>
        </extensions>
      </trkpt>
      <trkpt lat="42.62505252845585346221923828125" lon="19.88017908297479152679443359375">
        <ele>1746.800048828125</ele>
        <time>2026-06-16T08:40:18.000Z</time>
        <extensions>
          <ns3:TrackPointExtension>
            <ns3:atemp>17.0</ns3:atemp>
          </ns3:TrackPointExtension>
        </extensions>
      </trkpt>
      <trkpt lat="42.62505252845585346221923828125" lon="19.88017908297479152679443359375">
        <ele>1746.800048828125</ele>
        <time>2026-06-16T08:40:19.000Z</time>
        <extensions>
          <ns3:TrackPointExtension>
            <ns3:atemp>17.0</ns3:atemp>
          </ns3:TrackPointExtension>
        </extensions>
      </trkpt>
      <trkpt lat="42.62505252845585346221923828125" lon="19.88017908297479152679443359375">
        <ele>1746.800048828125</ele>
        <time>2026-06-16T08:40:20.000Z</time>
        <extensions>
          <ns3:TrackPointExtension>
            <ns3:atemp>17.0</ns3:atemp>
          </ns3:TrackPointExtension>
        </extensions>
      </trkpt>
      <trkpt lat="42.62505252845585346221923828125" lon="19.88017908297479152679443359375">
        <ele>1746.800048828125</ele>
        <time>2026-06-16T08:40:21.000Z</time>
        <extensions>
          <ns3:TrackPointExtension>
            <ns3:atemp>17.0</ns3:atemp>
          </ns3:TrackPointExtension>
        </extensions>
      </trkpt>
      <trkpt lat="42.62505252845585346221923828125" lon="19.88017908297479152679443359375">
        <ele>1746.800048828125</ele>
        <time>2026-06-16T08:40:22.000Z</time>
        <extensions>
          <ns3:TrackPointExtension>
            <ns3:atemp>17.0</ns3:atemp>
          </ns3:TrackPointExtension>
        </extensions>
      </trkpt>
      <trkpt lat="42.62505252845585346221923828125" lon="19.88017908297479152679443359375">
        <ele>1746.800048828125</ele>
        <time>2026-06-16T08:40:23.000Z</time>
        <extensions>
          <ns3:TrackPointExtension>
            <ns3:atemp>17.0</ns3:atemp>
          </ns3:TrackPointExtension>
        </extensions>
      </trkpt>
      <trkpt lat="42.62505252845585346221923828125" lon="19.88017908297479152679443359375">
        <ele>1746.800048828125</ele>
        <time>2026-06-16T08:40:24.000Z</time>
        <extensions>
          <ns3:TrackPointExtension>
            <ns3:atemp>17.0</ns3:atemp>
          </ns3:TrackPointExtension>
        </extensions>
      </trkpt>
      <trkpt lat="42.62505252845585346221923828125" lon="19.88017908297479152679443359375">
        <ele>1746.800048828125</ele>
        <time>2026-06-16T08:40:25.000Z</time>
        <extensions>
          <ns3:TrackPointExtension>
            <ns3:atemp>17.0</ns3:atemp>
          </ns3:TrackPointExtension>
        </extensions>
      </trkpt>
      <trkpt lat="42.62505252845585346221923828125" lon="19.88017908297479152679443359375">
        <ele>1746.800048828125</ele>
        <time>2026-06-16T08:40:26.000Z</time>
        <extensions>
          <ns3:TrackPointExtension>
            <ns3:atemp>17.0</ns3:atemp>
          </ns3:TrackPointExtension>
        </extensions>
      </trkpt>
      <trkpt lat="42.6250542886555194854736328125" lon="19.8801789991557598114013671875">
        <ele>1746.800048828125</ele>
        <time>2026-06-16T08:40:27.000Z</time>
        <extensions>
          <ns3:TrackPointExtension>
            <ns3:atemp>17.0</ns3:atemp>
          </ns3:TrackPointExtension>
        </extensions>
      </trkpt>
      <trkpt lat="42.62506191618740558624267578125" lon="19.8801867105066776275634765625">
        <ele>1746.800048828125</ele>
        <time>2026-06-16T08:40:28.000Z</time>
        <extensions>
          <ns3:TrackPointExtension>
            <ns3:atemp>17.0</ns3:atemp>
          </ns3:TrackPointExtension>
        </extensions>
      </trkpt>
      <trkpt lat="42.62507583014667034149169921875" lon="19.88020204938948154449462890625">
        <ele>1746.800048828125</ele>
        <time>2026-06-16T08:40:29.000Z</time>
        <extensions>
          <ns3:TrackPointExtension>
            <ns3:atemp>17.0</ns3:atemp>
          </ns3:TrackPointExtension>
        </extensions>
      </trkpt>
      <trkpt lat="42.62508538551628589630126953125" lon="19.88021604716777801513671875">
        <ele>1746.800048828125</ele>
        <time>2026-06-16T08:40:30.000Z</time>
        <extensions>
          <ns3:TrackPointExtension>
            <ns3:atemp>17.0</ns3:atemp>
          </ns3:TrackPointExtension>
        </extensions>
      </trkpt>
      <trkpt lat="42.6250985451042652130126953125" lon="19.8802266083657741546630859375">
        <ele>1746.800048828125</ele>
        <time>2026-06-16T08:40:31.000Z</time>
        <extensions>
          <ns3:TrackPointExtension>
            <ns3:atemp>17.0</ns3:atemp>
          </ns3:TrackPointExtension>
        </extensions>
      </trkpt>
      <trkpt lat="42.6251139678061008453369140625" lon="19.8802319727838039398193359375">
        <ele>1746.800048828125</ele>
        <time>2026-06-16T08:40:32.000Z</time>
        <extensions>
          <ns3:TrackPointExtension>
            <ns3:atemp>17.0</ns3:atemp>
          </ns3:TrackPointExtension>
        </extensions>
      </trkpt>
      <trkpt lat="42.62513064779341220855712890625" lon="19.8802356608211994171142578125">
        <ele>1747</ele>
        <time>2026-06-16T08:40:33.000Z</time>
        <extensions>
          <ns3:TrackPointExtension>
            <ns3:atemp>17.0</ns3:atemp>
          </ns3:TrackPointExtension>
        </extensions>
      </trkpt>
      <trkpt lat="42.62514187954366207122802734375" lon="19.88023507408797740936279296875">
        <ele>1747.199951171875</ele>
        <time>2026-06-16T08:40:34.000Z</time>
        <extensions>
          <ns3:TrackPointExtension>
            <ns3:atemp>17.0</ns3:atemp>
          </ns3:TrackPointExtension>
        </extensions>
      </trkpt>
      <trkpt lat="42.62515327893197536468505859375" lon="19.880232475697994232177734375">
        <ele>1747.4000244140625</ele>
        <time>2026-06-16T08:40:35.000Z</time>
        <extensions>
          <ns3:TrackPointExtension>
            <ns3:atemp>17.0</ns3:atemp>
          </ns3:TrackPointExtension>
        </extensions>
      </trkpt>
      <trkpt lat="42.62516601942479610443115234375" lon="19.88022685982286930084228515625">
        <ele>1747.5999755859375</ele>
        <time>2026-06-16T08:40:36.000Z</time>
        <extensions>
          <ns3:TrackPointExtension>
            <ns3:atemp>17.0</ns3:atemp>
          </ns3:TrackPointExtension>
        </extensions>
      </trkpt>
      <trkpt lat="42.62517272494733333587646484375" lon="19.880231805145740509033203125">
        <ele>1747.800048828125</ele>
        <time>2026-06-16T08:40:37.000Z</time>
        <extensions>
          <ns3:TrackPointExtension>
            <ns3:atemp>17.0</ns3:atemp>
          </ns3:TrackPointExtension>
        </extensions>
      </trkpt>
      <trkpt lat="42.6251823641359806060791015625" lon="19.88022669218480587005615234375">
        <ele>1747.800048828125</ele>
        <time>2026-06-16T08:40:38.000Z</time>
        <extensions>
          <ns3:TrackPointExtension>
            <ns3:atemp>17.0</ns3:atemp>
          </ns3:TrackPointExtension>
        </extensions>
      </trkpt>
      <trkpt lat="42.62519451789557933807373046875" lon="19.88021831028163433074951171875">
        <ele>1747.800048828125</ele>
        <time>2026-06-16T08:40:39.000Z</time>
        <extensions>
          <ns3:TrackPointExtension>
            <ns3:atemp>17.0</ns3:atemp>
          </ns3:TrackPointExtension>
        </extensions>
      </trkpt>
      <trkpt lat="42.625212036073207855224609375" lon="19.8802046477794647216796875">
        <ele>1748</ele>
        <time>2026-06-16T08:40:40.000Z</time>
        <extensions>
          <ns3:TrackPointExtension>
            <ns3:atemp>17.0</ns3:atemp>
          </ns3:TrackPointExtension>
        </extensions>
      </trkpt>
      <trkpt lat="42.62523475103080272674560546875" lon="19.8801898956298828125">
        <ele>1747.800048828125</ele>
        <time>2026-06-16T08:40:41.000Z</time>
        <extensions>
          <ns3:TrackPointExtension>
            <ns3:atemp>17.0</ns3:atemp>
          </ns3:TrackPointExtension>
        </extensions>
      </trkpt>
      <trkpt lat="42.6252512633800506591796875" lon="19.88018226809799671173095703125">
        <ele>1747.800048828125</ele>
        <time>2026-06-16T08:40:42.000Z</time>
        <extensions>
          <ns3:TrackPointExtension>
            <ns3:atemp>17.0</ns3:atemp>
          </ns3:TrackPointExtension>
        </extensions>
      </trkpt>
      <trkpt lat="42.62526744045317173004150390625" lon="19.8801776580512523651123046875">
        <ele>1747.800048828125</ele>
        <time>2026-06-16T08:40:43.000Z</time>
        <extensions>
          <ns3:TrackPointExtension>
            <ns3:atemp>17.0</ns3:atemp>
          </ns3:TrackPointExtension>
        </extensions>
      </trkpt>
      <trkpt lat="42.62528370134532451629638671875" lon="19.88017153926193714141845703125">
        <ele>1747.800048828125</ele>
        <time>2026-06-16T08:40:44.000Z</time>
        <extensions>
          <ns3:TrackPointExtension>
            <ns3:atemp>17.0</ns3:atemp>
          </ns3:TrackPointExtension>
        </extensions>
      </trkpt>
      <trkpt lat="42.62529912404716014862060546875" lon="19.88016449846327304840087890625">
        <ele>1747.800048828125</ele>
        <time>2026-06-16T08:40:45.000Z</time>
        <extensions>
          <ns3:TrackPointExtension>
            <ns3:atemp>17.0</ns3:atemp>
          </ns3:TrackPointExtension>
        </extensions>
      </trkpt>
      <trkpt lat="42.62531454674899578094482421875" lon="19.88016097806394100189208984375">
        <ele>1747.800048828125</ele>
        <time>2026-06-16T08:40:46.000Z</time>
        <extensions>
          <ns3:TrackPointExtension>
            <ns3:atemp>17.0</ns3:atemp>
          </ns3:TrackPointExtension>
        </extensions>
      </trkpt>
      <trkpt lat="42.62532996945083141326904296875" lon="19.880150668323040008544921875">
        <ele>1747.800048828125</ele>
        <time>2026-06-16T08:40:47.000Z</time>
        <extensions>
          <ns3:TrackPointExtension>
            <ns3:atemp>17.0</ns3:atemp>
          </ns3:TrackPointExtension>
        </extensions>
      </trkpt>
      <trkpt lat="42.62534656561911106109619140625" lon="19.88013901747763156890869140625">
        <ele>1747.800048828125</ele>
        <time>2026-06-16T08:40:48.000Z</time>
        <extensions>
          <ns3:TrackPointExtension>
            <ns3:atemp>17.0</ns3:atemp>
          </ns3:TrackPointExtension>
        </extensions>
      </trkpt>
      <trkpt lat="42.62535880319774150848388671875" lon="19.88012745045125484466552734375">
        <ele>1748</ele>
        <time>2026-06-16T08:40:49.000Z</time>
        <extensions>
          <ns3:TrackPointExtension>
            <ns3:atemp>17.0</ns3:atemp>
          </ns3:TrackPointExtension>
        </extensions>
      </trkpt>
      <trkpt lat="42.6253764890134334564208984375" lon="19.88011638633906841278076171875">
        <ele>1748</ele>
        <time>2026-06-16T08:40:50.000Z</time>
        <extensions>
          <ns3:TrackPointExtension>
            <ns3:atemp>17.0</ns3:atemp>
          </ns3:TrackPointExtension>
        </extensions>
      </trkpt>
      <trkpt lat="42.625392414629459381103515625" lon="19.8801106028258800506591796875">
        <ele>1748</ele>
        <time>2026-06-16T08:40:51.000Z</time>
        <extensions>
          <ns3:TrackPointExtension>
            <ns3:atemp>17.0</ns3:atemp>
          </ns3:TrackPointExtension>
        </extensions>
      </trkpt>
      <trkpt lat="42.625407837331295013427734375" lon="19.88010683096945285797119140625">
        <ele>1748.199951171875</ele>
        <time>2026-06-16T08:40:52.000Z</time>
        <extensions>
          <ns3:TrackPointExtension>
            <ns3:atemp>17.0</ns3:atemp>
          </ns3:TrackPointExtension>
        </extensions>
      </trkpt>
      <trkpt lat="42.6254240982234477996826171875" lon="19.88010364584624767303466796875">
        <ele>1748.199951171875</ele>
        <time>2026-06-16T08:40:53.000Z</time>
        <extensions>
          <ns3:TrackPointExtension>
            <ns3:atemp>17.0</ns3:atemp>
          </ns3:TrackPointExtension>
        </extensions>
      </trkpt>
      <trkpt lat="42.6254348270595073699951171875" lon="19.88010314293205738067626953125">
        <ele>1748.199951171875</ele>
        <time>2026-06-16T08:40:54.000Z</time>
        <extensions>
          <ns3:TrackPointExtension>
            <ns3:atemp>17.0</ns3:atemp>
          </ns3:TrackPointExtension>
        </extensions>
      </trkpt>
      <trkpt lat="42.62544773519039154052734375" lon="19.88009945489466190338134765625">
        <ele>1748.4000244140625</ele>
        <time>2026-06-16T08:40:55.000Z</time>
        <extensions>
          <ns3:TrackPointExtension>
            <ns3:atemp>17.0</ns3:atemp>
          </ns3:TrackPointExtension>
        </extensions>
      </trkpt>
      <trkpt lat="42.6254604756832122802734375" lon="19.88009442575275897979736328125">
        <ele>1748.4000244140625</ele>
        <time>2026-06-16T08:40:56.000Z</time>
        <extensions>
          <ns3:TrackPointExtension>
            <ns3:atemp>17.0</ns3:atemp>
          </ns3:TrackPointExtension>
        </extensions>
      </trkpt>
      <trkpt lat="42.6254712045192718505859375" lon="19.88008864223957061767578125">
        <ele>1748.5999755859375</ele>
        <time>2026-06-16T08:40:57.000Z</time>
        <extensions>
          <ns3:TrackPointExtension>
            <ns3:atemp>17.0</ns3:atemp>
          </ns3:TrackPointExtension>
        </extensions>
      </trkpt>
      <trkpt lat="42.6254837773740291595458984375" lon="19.88007900305092334747314453125">
        <ele>1748.5999755859375</ele>
        <time>2026-06-16T08:40:58.000Z</time>
        <extensions>
          <ns3:TrackPointExtension>
            <ns3:atemp>17.0</ns3:atemp>
          </ns3:TrackPointExtension>
        </extensions>
      </trkpt>
      <trkpt lat="42.62550230138003826141357421875" lon="19.8800636641681194305419921875">
        <ele>1748.800048828125</ele>
        <time>2026-06-16T08:40:59.000Z</time>
        <extensions>
          <ns3:TrackPointExtension>
            <ns3:atemp>17.0</ns3:atemp>
          </ns3:TrackPointExtension>
        </extensions>
      </trkpt>
      <trkpt lat="42.62552359141409397125244140625" lon="19.88005788065493106842041015625">
        <ele>1748.800048828125</ele>
        <time>2026-06-16T08:41:00.000Z</time>
        <extensions>
          <ns3:TrackPointExtension>
            <ns3:atemp>17.0</ns3:atemp>
          </ns3:TrackPointExtension>
        </extensions>
      </trkpt>
      <trkpt lat="42.62554286979138851165771484375" lon="19.88005377352237701416015625">
        <ele>1748.5999755859375</ele>
        <time>2026-06-16T08:41:01.000Z</time>
        <extensions>
          <ns3:TrackPointExtension>
            <ns3:atemp>17.0</ns3:atemp>
          </ns3:TrackPointExtension>
        </extensions>
      </trkpt>
      <trkpt lat="42.625559382140636444091796875" lon="19.8800522647798061370849609375">
        <ele>1748.5999755859375</ele>
        <time>2026-06-16T08:41:02.000Z</time>
        <extensions>
          <ns3:TrackPointExtension>
            <ns3:atemp>17.0</ns3:atemp>
          </ns3:TrackPointExtension>
        </extensions>
      </trkpt>
      <trkpt lat="42.625566758215427398681640625" lon="19.880053438246250152587890625">
        <ele>1748.5999755859375</ele>
        <time>2026-06-16T08:41:03.000Z</time>
        <extensions>
          <ns3:TrackPointExtension>
            <ns3:atemp>17.0</ns3:atemp>
          </ns3:TrackPointExtension>
        </extensions>
      </trkpt>
      <trkpt lat="42.62556985951960086822509765625" lon="19.88005486316978931427001953125">
        <ele>1748.4000244140625</ele>
        <time>2026-06-16T08:41:04.000Z</time>
        <extensions>
          <ns3:TrackPointExtension>
            <ns3:atemp>17.0</ns3:atemp>
          </ns3:TrackPointExtension>
        </extensions>
      </trkpt>
      <trkpt lat="42.62557740323245525360107421875" lon="19.88006005994975566864013671875">
        <ele>1748.4000244140625</ele>
        <time>2026-06-16T08:41:05.000Z</time>
        <extensions>
          <ns3:TrackPointExtension>
            <ns3:atemp>17.0</ns3:atemp>
          </ns3:TrackPointExtension>
        </extensions>
      </trkpt>
      <trkpt lat="42.62558586895465850830078125" lon="19.8800643347203731536865234375">
        <ele>1748.4000244140625</ele>
        <time>2026-06-16T08:41:06.000Z</time>
        <extensions>
          <ns3:TrackPointExtension>
            <ns3:atemp>17.0</ns3:atemp>
          </ns3:TrackPointExtension>
        </extensions>
      </trkpt>
      <trkpt lat="42.62559584341943264007568359375" lon="19.880065508186817169189453125">
        <ele>1748.4000244140625</ele>
        <time>2026-06-16T08:41:07.000Z</time>
        <extensions>
          <ns3:TrackPointExtension>
            <ns3:atemp>17.0</ns3:atemp>
          </ns3:TrackPointExtension>
        </extensions>
      </trkpt>
      <trkpt lat="42.62560908682644367218017578125" lon="19.8800566233694553375244140625">
        <ele>1748.4000244140625</ele>
        <time>2026-06-16T08:41:08.000Z</time>
        <extensions>
          <ns3:TrackPointExtension>
            <ns3:atemp>17.0</ns3:atemp>
          </ns3:TrackPointExtension>
        </extensions>
      </trkpt>
      <trkpt lat="42.62561813928186893463134765625" lon="19.88004840910434722900390625">
        <ele>1748.199951171875</ele>
        <time>2026-06-16T08:41:09.000Z</time>
        <extensions>
          <ns3:TrackPointExtension>
            <ns3:atemp>17.0</ns3:atemp>
          </ns3:TrackPointExtension>
        </extensions>
      </trkpt>
      <trkpt lat="42.62563725002110004425048828125" lon="19.88002971746027469635009765625">
        <ele>1748.199951171875</ele>
        <time>2026-06-16T08:41:10.000Z</time>
        <extensions>
          <ns3:TrackPointExtension>
            <ns3:atemp>17.0</ns3:atemp>
          </ns3:TrackPointExtension>
        </extensions>
      </trkpt>
      <trkpt lat="42.625651918351650238037109375" lon="19.87999266944825649261474609375">
        <ele>1748</ele>
        <time>2026-06-16T08:41:11.000Z</time>
        <extensions>
          <ns3:TrackPointExtension>
            <ns3:atemp>17.0</ns3:atemp>
          </ns3:TrackPointExtension>
        </extensions>
      </trkpt>
      <trkpt lat="42.62565694749355316162109375" lon="19.87994321621954441070556640625">
        <ele>1747.800048828125</ele>
        <time>2026-06-16T08:41:12.000Z</time>
        <extensions>
          <ns3:TrackPointExtension>
            <ns3:atemp>17.0</ns3:atemp>
          </ns3:TrackPointExtension>
        </extensions>
      </trkpt>
      <trkpt lat="42.62565828859806060791015625" lon="19.87991002388298511505126953125">
        <ele>1747.5999755859375</ele>
        <time>2026-06-16T08:41:13.000Z</time>
        <extensions>
          <ns3:TrackPointExtension>
            <ns3:atemp>17.0</ns3:atemp>
          </ns3:TrackPointExtension>
        </extensions>
      </trkpt>
      <trkpt lat="42.62565753422677516937255859375" lon="19.879885129630565643310546875">
        <ele>1747.4000244140625</ele>
        <time>2026-06-16T08:41:14.000Z</time>
        <extensions>
          <ns3:TrackPointExtension>
            <ns3:atemp>17.0</ns3:atemp>
          </ns3:TrackPointExtension>
        </extensions>
      </trkpt>
      <trkpt lat="42.62565619312226772308349609375" lon="19.87985939718782901763916015625">
        <ele>1747.4000244140625</ele>
        <time>2026-06-16T08:41:15.000Z</time>
        <extensions>
          <ns3:TrackPointExtension>
            <ns3:atemp>17.0</ns3:atemp>
          </ns3:TrackPointExtension>
        </extensions>
      </trkpt>
      <trkpt lat="42.6256601326167583465576171875" lon="19.879843890666961669921875">
        <ele>1747.4000244140625</ele>
        <time>2026-06-16T08:41:16.000Z</time>
        <extensions>
          <ns3:TrackPointExtension>
            <ns3:atemp>17.0</ns3:atemp>
          </ns3:TrackPointExtension>
        </extensions>
      </trkpt>
      <trkpt lat="42.62566155754029750823974609375" lon="19.87982285209000110626220703125">
        <ele>1747.4000244140625</ele>
        <time>2026-06-16T08:41:17.000Z</time>
        <extensions>
          <ns3:TrackPointExtension>
            <ns3:atemp>17.0</ns3:atemp>
          </ns3:TrackPointExtension>
        </extensions>
      </trkpt>
      <trkpt lat="42.62566138990223407745361328125" lon="19.87980323843657970428466796875">
        <ele>1747.5999755859375</ele>
        <time>2026-06-16T08:41:18.000Z</time>
        <extensions>
          <ns3:TrackPointExtension>
            <ns3:atemp>17.0</ns3:atemp>
          </ns3:TrackPointExtension>
        </extensions>
      </trkpt>
      <trkpt lat="42.62566524557769298553466796875" lon="19.87980055622756481170654296875">
        <ele>1747.800048828125</ele>
        <time>2026-06-16T08:41:19.000Z</time>
        <extensions>
          <ns3:TrackPointExtension>
            <ns3:atemp>17.0</ns3:atemp>
          </ns3:TrackPointExtension>
        </extensions>
      </trkpt>
      <trkpt lat="42.62566524557769298553466796875" lon="19.8798004724085330963134765625">
        <ele>1747.800048828125</ele>
        <time>2026-06-16T08:41:20.000Z</time>
        <extensions>
          <ns3:TrackPointExtension>
            <ns3:atemp>17.0</ns3:atemp>
          </ns3:TrackPointExtension>
        </extensions>
      </trkpt>
      <trkpt lat="42.62566524557769298553466796875" lon="19.8798004724085330963134765625">
        <ele>1747.800048828125</ele>
        <time>2026-06-16T08:41:21.000Z</time>
        <extensions>
          <ns3:TrackPointExtension>
            <ns3:atemp>17.0</ns3:atemp>
          </ns3:TrackPointExtension>
        </extensions>
      </trkpt>
      <trkpt lat="42.62566524557769298553466796875" lon="19.8798004724085330963134765625">
        <ele>1748</ele>
        <time>2026-06-16T08:41:22.000Z</time>
        <extensions>
          <ns3:TrackPointExtension>
            <ns3:atemp>17.0</ns3:atemp>
          </ns3:TrackPointExtension>
        </extensions>
      </trkpt>
      <trkpt lat="42.62566507793962955474853515625" lon="19.87979938276112079620361328125">
        <ele>1748</ele>
        <time>2026-06-16T08:41:23.000Z</time>
        <extensions>
          <ns3:TrackPointExtension>
            <ns3:atemp>17.0</ns3:atemp>
          </ns3:TrackPointExtension>
        </extensions>
      </trkpt>
      <trkpt lat="42.62565485201776027679443359375" lon="19.87977675162255764007568359375">
        <ele>1748</ele>
        <time>2026-06-16T08:41:24.000Z</time>
        <extensions>
          <ns3:TrackPointExtension>
            <ns3:atemp>17.0</ns3:atemp>
          </ns3:TrackPointExtension>
        </extensions>
      </trkpt>
      <trkpt lat="42.6256487332284450531005859375" lon="19.879753030836582183837890625">
        <ele>1748</ele>
        <time>2026-06-16T08:41:25.000Z</time>
        <extensions>
          <ns3:TrackPointExtension>
            <ns3:atemp>17.0</ns3:atemp>
          </ns3:TrackPointExtension>
        </extensions>
      </trkpt>
      <trkpt lat="42.6256530918180942535400390625" lon="19.879730902612209320068359375">
        <ele>1747.800048828125</ele>
        <time>2026-06-16T08:41:26.000Z</time>
        <extensions>
          <ns3:TrackPointExtension>
            <ns3:atemp>17.0</ns3:atemp>
          </ns3:TrackPointExtension>
        </extensions>
      </trkpt>
      <trkpt lat="42.6256561093032360076904296875" lon="19.8797086067497730255126953125">
        <ele>1747.800048828125</ele>
        <time>2026-06-16T08:41:27.000Z</time>
        <extensions>
          <ns3:TrackPointExtension>
            <ns3:atemp>17.0</ns3:atemp>
          </ns3:TrackPointExtension>
        </extensions>
      </trkpt>
      <trkpt lat="42.62566088698804378509521484375" lon="19.87969259731471538543701171875">
        <ele>1747.800048828125</ele>
        <time>2026-06-16T08:41:28.000Z</time>
        <extensions>
          <ns3:TrackPointExtension>
            <ns3:atemp>17.0</ns3:atemp>
          </ns3:TrackPointExtension>
        </extensions>
      </trkpt>
      <trkpt lat="42.625663988292217254638671875" lon="19.87968957982957363128662109375">
        <ele>1747.5999755859375</ele>
        <time>2026-06-16T08:41:29.000Z</time>
        <extensions>
          <ns3:TrackPointExtension>
            <ns3:atemp>17.0</ns3:atemp>
          </ns3:TrackPointExtension>
        </extensions>
      </trkpt>
      <trkpt lat="42.6256701909005641937255859375" lon="19.87968103028833866119384765625">
        <ele>1747.5999755859375</ele>
        <time>2026-06-16T08:41:30.000Z</time>
        <extensions>
          <ns3:TrackPointExtension>
            <ns3:atemp>17.0</ns3:atemp>
          </ns3:TrackPointExtension>
        </extensions>
      </trkpt>
      <trkpt lat="42.62567480094730854034423828125" lon="19.8796735703945159912109375">
        <ele>1747.5999755859375</ele>
        <time>2026-06-16T08:41:31.000Z</time>
        <extensions>
          <ns3:TrackPointExtension>
            <ns3:atemp>17.0</ns3:atemp>
          </ns3:TrackPointExtension>
        </extensions>
      </trkpt>
      <trkpt lat="42.625682093203067779541015625" lon="19.87966175191104412078857421875">
        <ele>1747.5999755859375</ele>
        <time>2026-06-16T08:41:32.000Z</time>
        <extensions>
          <ns3:TrackPointExtension>
            <ns3:atemp>17.0</ns3:atemp>
          </ns3:TrackPointExtension>
        </extensions>
      </trkpt>
      <trkpt lat="42.625697515904903411865234375" lon="19.8796395398676395416259765625">
        <ele>1747.5999755859375</ele>
        <time>2026-06-16T08:41:33.000Z</time>
        <extensions>
          <ns3:TrackPointExtension>
            <ns3:atemp>17.0</ns3:atemp>
          </ns3:TrackPointExtension>
        </extensions>
      </trkpt>
      <trkpt lat="42.62571000494062900543212890625" lon="19.87961950711905956268310546875">
        <ele>1747.5999755859375</ele>
        <time>2026-06-16T08:41:34.000Z</time>
        <extensions>
          <ns3:TrackPointExtension>
            <ns3:atemp>17.0</ns3:atemp>
          </ns3:TrackPointExtension>
        </extensions>
      </trkpt>
      <trkpt lat="42.62570698745548725128173828125" lon="19.87959067337214946746826171875">
        <ele>1747.5999755859375</ele>
        <time>2026-06-16T08:41:35.000Z</time>
        <extensions>
          <ns3:TrackPointExtension>
            <ns3:atemp>17.0</ns3:atemp>
          </ns3:TrackPointExtension>
        </extensions>
      </trkpt>
      <trkpt lat="42.62570480816066265106201171875" lon="19.879554212093353271484375">
        <ele>1747.5999755859375</ele>
        <time>2026-06-16T08:41:36.000Z</time>
        <extensions>
          <ns3:TrackPointExtension>
            <ns3:atemp>17.0</ns3:atemp>
          </ns3:TrackPointExtension>
        </extensions>
      </trkpt>
      <trkpt lat="42.62570128776133060455322265625" lon="19.87952965311706066131591796875">
        <ele>1747.5999755859375</ele>
        <time>2026-06-16T08:41:37.000Z</time>
        <extensions>
          <ns3:TrackPointExtension>
            <ns3:atemp>17.0</ns3:atemp>
          </ns3:TrackPointExtension>
        </extensions>
      </trkpt>
      <trkpt lat="42.6256919838488101959228515625" lon="19.87949461676180362701416015625">
        <ele>1747.5999755859375</ele>
        <time>2026-06-16T08:41:38.000Z</time>
        <extensions>
          <ns3:TrackPointExtension>
            <ns3:atemp>17.0</ns3:atemp>
          </ns3:TrackPointExtension>
        </extensions>
      </trkpt>
      <trkpt lat="42.6256866194307804107666015625" lon="19.879456646740436553955078125">
        <ele>1747.5999755859375</ele>
        <time>2026-06-16T08:41:39.000Z</time>
        <extensions>
          <ns3:TrackPointExtension>
            <ns3:atemp>17.0</ns3:atemp>
          </ns3:TrackPointExtension>
        </extensions>
      </trkpt>
      <trkpt lat="42.62569248676300048828125" lon="19.87943284213542938232421875">
        <ele>1747.5999755859375</ele>
        <time>2026-06-16T08:41:40.000Z</time>
        <extensions>
          <ns3:TrackPointExtension>
            <ns3:atemp>17.0</ns3:atemp>
          </ns3:TrackPointExtension>
        </extensions>
      </trkpt>
      <trkpt lat="42.62569843791425228118896484375" lon="19.8794098757207393646240234375">
        <ele>1747.800048828125</ele>
        <time>2026-06-16T08:41:41.000Z</time>
        <extensions>
          <ns3:TrackPointExtension>
            <ns3:atemp>17.0</ns3:atemp>
          </ns3:TrackPointExtension>
        </extensions>
      </trkpt>
      <trkpt lat="42.6256953366100788116455078125" lon="19.87938858568668365478515625">
        <ele>1747.800048828125</ele>
        <time>2026-06-16T08:41:42.000Z</time>
        <extensions>
          <ns3:TrackPointExtension>
            <ns3:atemp>17.0</ns3:atemp>
          </ns3:TrackPointExtension>
        </extensions>
      </trkpt>
      <trkpt lat="42.6256911456584930419921875" lon="19.8793731629848480224609375">
        <ele>1747.800048828125</ele>
        <time>2026-06-16T08:41:43.000Z</time>
        <extensions>
          <ns3:TrackPointExtension>
            <ns3:atemp>17.0</ns3:atemp>
          </ns3:TrackPointExtension>
        </extensions>
      </trkpt>
      <trkpt lat="42.62568636797368526458740234375" lon="19.87936570309102535247802734375">
        <ele>1748</ele>
        <time>2026-06-16T08:41:44.000Z</time>
        <extensions>
          <ns3:TrackPointExtension>
            <ns3:atemp>17.0</ns3:atemp>
          </ns3:TrackPointExtension>
        </extensions>
      </trkpt>
      <trkpt lat="42.62568284757435321807861328125" lon="19.87935430370271205902099609375">
        <ele>1748.199951171875</ele>
        <time>2026-06-16T08:41:45.000Z</time>
        <extensions>
          <ns3:TrackPointExtension>
            <ns3:atemp>17.0</ns3:atemp>
          </ns3:TrackPointExtension>
        </extensions>
      </trkpt>
      <trkpt lat="42.625682763755321502685546875" lon="19.8793418146669864654541015625">
        <ele>1748.199951171875</ele>
        <time>2026-06-16T08:41:46.000Z</time>
        <extensions>
          <ns3:TrackPointExtension>
            <ns3:atemp>17.0</ns3:atemp>
          </ns3:TrackPointExtension>
        </extensions>
      </trkpt>
      <trkpt lat="42.62568066827952861785888671875" lon="19.87934944219887256622314453125">
        <ele>1748.4000244140625</ele>
        <time>2026-06-16T08:41:47.000Z</time>
        <extensions>
          <ns3:TrackPointExtension>
            <ns3:atemp>17.0</ns3:atemp>
          </ns3:TrackPointExtension>
        </extensions>
      </trkpt>
      <trkpt lat="42.62567983008921146392822265625" lon="19.87935681827366352081298828125">
        <ele>1748.4000244140625</ele>
        <time>2026-06-16T08:41:48.000Z</time>
        <extensions>
          <ns3:TrackPointExtension>
            <ns3:atemp>17.0</ns3:atemp>
          </ns3:TrackPointExtension>
        </extensions>
      </trkpt>
      <trkpt lat="42.6256799139082431793212890625" lon="19.8793570697307586669921875">
        <ele>1748.4000244140625</ele>
        <time>2026-06-16T08:41:49.000Z</time>
        <extensions>
          <ns3:TrackPointExtension>
            <ns3:atemp>17.0</ns3:atemp>
          </ns3:TrackPointExtension>
        </extensions>
      </trkpt>
      <trkpt lat="42.62568033300340175628662109375" lon="19.87936201505362987518310546875">
        <ele>1748.4000244140625</ele>
        <time>2026-06-16T08:41:50.000Z</time>
        <extensions>
          <ns3:TrackPointExtension>
            <ns3:atemp>17.0</ns3:atemp>
          </ns3:TrackPointExtension>
        </extensions>
      </trkpt>
      <trkpt lat="42.6256804168224334716796875" lon="19.87936218269169330596923828125">
        <ele>1748.4000244140625</ele>
        <time>2026-06-16T08:41:51.000Z</time>
        <extensions>
          <ns3:TrackPointExtension>
            <ns3:atemp>17.0</ns3:atemp>
          </ns3:TrackPointExtension>
        </extensions>
      </trkpt>
      <trkpt lat="42.62568603269755840301513671875" lon="19.8793713189661502838134765625">
        <ele>1748.4000244140625</ele>
        <time>2026-06-16T08:41:52.000Z</time>
        <extensions>
          <ns3:TrackPointExtension>
            <ns3:atemp>17.0</ns3:atemp>
          </ns3:TrackPointExtension>
        </extensions>
      </trkpt>
      <trkpt lat="42.625685445964336395263671875" lon="19.8793880827724933624267578125">
        <ele>1748.4000244140625</ele>
        <time>2026-06-16T08:41:53.000Z</time>
        <extensions>
          <ns3:TrackPointExtension>
            <ns3:atemp>17.0</ns3:atemp>
          </ns3:TrackPointExtension>
        </extensions>
      </trkpt>
      <trkpt lat="42.62568720616400241851806640625" lon="19.8794051818549633026123046875">
        <ele>1748.199951171875</ele>
        <time>2026-06-16T08:41:54.000Z</time>
        <extensions>
          <ns3:TrackPointExtension>
            <ns3:atemp>17.0</ns3:atemp>
          </ns3:TrackPointExtension>
        </extensions>
      </trkpt>
      <trkpt lat="42.62568938545882701873779296875" lon="19.87941431812942028045654296875">
        <ele>1748.199951171875</ele>
        <time>2026-06-16T08:41:55.000Z</time>
        <extensions>
          <ns3:TrackPointExtension>
            <ns3:atemp>17.0</ns3:atemp>
          </ns3:TrackPointExtension>
        </extensions>
      </trkpt>
      <trkpt lat="42.62569156475365161895751953125" lon="19.87943024374544620513916015625">
        <ele>1748.199951171875</ele>
        <time>2026-06-16T08:41:56.000Z</time>
        <extensions>
          <ns3:TrackPointExtension>
            <ns3:atemp>17.0</ns3:atemp>
          </ns3:TrackPointExtension>
        </extensions>
      </trkpt>
      <trkpt lat="42.6256965100765228271484375" lon="19.87945354543626308441162109375">
        <ele>1748</ele>
        <time>2026-06-16T08:41:57.000Z</time>
        <extensions>
          <ns3:TrackPointExtension>
            <ns3:atemp>17.0</ns3:atemp>
          </ns3:TrackPointExtension>
        </extensions>
      </trkpt>
      <trkpt lat="42.62570279650390148162841796875" lon="19.87947349436581134796142578125">
        <ele>1748</ele>
        <time>2026-06-16T08:41:58.000Z</time>
        <extensions>
          <ns3:TrackPointExtension>
            <ns3:atemp>17.0</ns3:atemp>
          </ns3:TrackPointExtension>
        </extensions>
      </trkpt>
      <trkpt lat="42.625708244740962982177734375" lon="19.879491515457630157470703125">
        <ele>1747.800048828125</ele>
        <time>2026-06-16T08:41:59.000Z</time>
        <extensions>
          <ns3:TrackPointExtension>
            <ns3:atemp>17.0</ns3:atemp>
          </ns3:TrackPointExtension>
        </extensions>
      </trkpt>
      <trkpt lat="42.6257097534835338592529296875" lon="19.87950601615011692047119140625">
        <ele>1747.800048828125</ele>
        <time>2026-06-16T08:42:00.000Z</time>
        <extensions>
          <ns3:TrackPointExtension>
            <ns3:atemp>17.0</ns3:atemp>
          </ns3:TrackPointExtension>
        </extensions>
      </trkpt>
      <trkpt lat="42.6257161237299442291259765625" lon="19.87951976247131824493408203125">
        <ele>1747.800048828125</ele>
        <time>2026-06-16T08:42:01.000Z</time>
        <extensions>
          <ns3:TrackPointExtension>
            <ns3:atemp>17.0</ns3:atemp>
          </ns3:TrackPointExtension>
        </extensions>
      </trkpt>
      <trkpt lat="42.62572123669087886810302734375" lon="19.87953878939151763916015625">
        <ele>1747.5999755859375</ele>
        <time>2026-06-16T08:42:02.000Z</time>
        <extensions>
          <ns3:TrackPointExtension>
            <ns3:atemp>17.0</ns3:atemp>
          </ns3:TrackPointExtension>
        </extensions>
      </trkpt>
      <trkpt lat="42.62572190724313259124755859375" lon="19.8795543797314167022705078125">
        <ele>1747.5999755859375</ele>
        <time>2026-06-16T08:42:03.000Z</time>
        <extensions>
          <ns3:TrackPointExtension>
            <ns3:atemp>17.0</ns3:atemp>
          </ns3:TrackPointExtension>
        </extensions>
      </trkpt>
      <trkpt lat="42.62572006322443485260009765625" lon="19.879573993384838104248046875">
        <ele>1747.5999755859375</ele>
        <time>2026-06-16T08:42:04.000Z</time>
        <extensions>
          <ns3:TrackPointExtension>
            <ns3:atemp>17.0</ns3:atemp>
          </ns3:TrackPointExtension>
        </extensions>
      </trkpt>
      <trkpt lat="42.625706233084201812744140625" lon="19.879589416086673736572265625">
        <ele>1747.5999755859375</ele>
        <time>2026-06-16T08:42:05.000Z</time>
        <extensions>
          <ns3:TrackPointExtension>
            <ns3:atemp>17.0</ns3:atemp>
          </ns3:TrackPointExtension>
        </extensions>
      </trkpt>
      <trkpt lat="42.62569190002977848052978515625" lon="19.87960718572139739990234375">
        <ele>1747.5999755859375</ele>
        <time>2026-06-16T08:42:06.000Z</time>
        <extensions>
          <ns3:TrackPointExtension>
            <ns3:atemp>17.0</ns3:atemp>
          </ns3:TrackPointExtension>
        </extensions>
      </trkpt>
      <trkpt lat="42.62568016536533832550048828125" lon="19.879623949527740478515625">
        <ele>1747.4000244140625</ele>
        <time>2026-06-16T08:42:07.000Z</time>
        <extensions>
          <ns3:TrackPointExtension>
            <ns3:atemp>17.0</ns3:atemp>
          </ns3:TrackPointExtension>
        </extensions>
      </trkpt>
      <trkpt lat="42.62567748315632343292236328125" lon="19.8796306550502777099609375">
        <ele>1747.4000244140625</ele>
        <time>2026-06-16T08:42:08.000Z</time>
        <extensions>
          <ns3:TrackPointExtension>
            <ns3:atemp>17.0</ns3:atemp>
          </ns3:TrackPointExtension>
        </extensions>
      </trkpt>
      <trkpt lat="42.6256772316992282867431640625" lon="19.87963090650737285614013671875">
        <ele>1747.4000244140625</ele>
        <time>2026-06-16T08:42:09.000Z</time>
        <extensions>
          <ns3:TrackPointExtension>
            <ns3:atemp>17.0</ns3:atemp>
          </ns3:TrackPointExtension>
        </extensions>
      </trkpt>
      <trkpt lat="42.62567706406116485595703125" lon="19.87963132560253143310546875">
        <ele>1747.4000244140625</ele>
        <time>2026-06-16T08:42:10.000Z</time>
        <extensions>
          <ns3:TrackPointExtension>
            <ns3:atemp>17.0</ns3:atemp>
          </ns3:TrackPointExtension>
        </extensions>
      </trkpt>
      <trkpt lat="42.6256772316992282867431640625" lon="19.87963090650737285614013671875">
        <ele>1747.199951171875</ele>
        <time>2026-06-16T08:42:11.000Z</time>
        <extensions>
          <ns3:TrackPointExtension>
            <ns3:atemp>17.0</ns3:atemp>
          </ns3:TrackPointExtension>
        </extensions>
      </trkpt>
      <trkpt lat="42.6256772316992282867431640625" lon="19.87963090650737285614013671875">
        <ele>1747.199951171875</ele>
        <time>2026-06-16T08:42:12.000Z</time>
        <extensions>
          <ns3:TrackPointExtension>
            <ns3:atemp>17.0</ns3:atemp>
          </ns3:TrackPointExtension>
        </extensions>
      </trkpt>
      <trkpt lat="42.6256715320050716400146484375" lon="19.8796408809721469879150390625">
        <ele>1747.199951171875</ele>
        <time>2026-06-16T08:42:13.000Z</time>
        <extensions>
          <ns3:TrackPointExtension>
            <ns3:atemp>17.0</ns3:atemp>
          </ns3:TrackPointExtension>
        </extensions>
      </trkpt>
      <trkpt lat="42.62566524557769298553466796875" lon="19.87964431755244731903076171875">
        <ele>1747.199951171875</ele>
        <time>2026-06-16T08:42:14.000Z</time>
        <extensions>
          <ns3:TrackPointExtension>
            <ns3:atemp>17.0</ns3:atemp>
          </ns3:TrackPointExtension>
        </extensions>
      </trkpt>
      <trkpt lat="42.62566105462610721588134765625" lon="19.87965387292206287384033203125">
        <ele>1747.199951171875</ele>
        <time>2026-06-16T08:42:15.000Z</time>
        <extensions>
          <ns3:TrackPointExtension>
            <ns3:atemp>17.0</ns3:atemp>
          </ns3:TrackPointExtension>
        </extensions>
      </trkpt>
      <trkpt lat="42.625658623874187469482421875" lon="19.879669211804866790771484375">
        <ele>1747</ele>
        <time>2026-06-16T08:42:16.000Z</time>
        <extensions>
          <ns3:TrackPointExtension>
            <ns3:atemp>17.0</ns3:atemp>
          </ns3:TrackPointExtension>
        </extensions>
      </trkpt>
      <trkpt lat="42.625654600560665130615234375" lon="19.879685975611209869384765625">
        <ele>1747</ele>
        <time>2026-06-16T08:42:17.000Z</time>
        <extensions>
          <ns3:TrackPointExtension>
            <ns3:atemp>17.0</ns3:atemp>
          </ns3:TrackPointExtension>
        </extensions>
      </trkpt>
      <trkpt lat="42.62565024197101593017578125" lon="19.879692010581493377685546875">
        <ele>1747</ele>
        <time>2026-06-16T08:42:18.000Z</time>
        <extensions>
          <ns3:TrackPointExtension>
            <ns3:atemp>17.0</ns3:atemp>
          </ns3:TrackPointExtension>
        </extensions>
      </trkpt>
      <trkpt lat="42.62564814649522304534912109375" lon="19.87968974746763706207275390625">
        <ele>1746.800048828125</ele>
        <time>2026-06-16T08:42:19.000Z</time>
        <extensions>
          <ns3:TrackPointExtension>
            <ns3:atemp>17.0</ns3:atemp>
          </ns3:TrackPointExtension>
        </extensions>
      </trkpt>
      <trkpt lat="42.62564831413328647613525390625" lon="19.879691340029239654541015625">
        <ele>1747</ele>
        <time>2026-06-16T08:42:20.000Z</time>
        <extensions>
          <ns3:TrackPointExtension>
            <ns3:atemp>17.0</ns3:atemp>
          </ns3:TrackPointExtension>
        </extensions>
      </trkpt>
      <trkpt lat="42.62564831413328647613525390625" lon="19.879691340029239654541015625">
        <ele>1747</ele>
        <time>2026-06-16T08:42:21.000Z</time>
        <extensions>
          <ns3:TrackPointExtension>
            <ns3:atemp>17.0</ns3:atemp>
          </ns3:TrackPointExtension>
        </extensions>
      </trkpt>
      <trkpt lat="42.62564831413328647613525390625" lon="19.879691340029239654541015625">
        <ele>1747</ele>
        <time>2026-06-16T08:42:22.000Z</time>
        <extensions>
          <ns3:TrackPointExtension>
            <ns3:atemp>17.0</ns3:atemp>
          </ns3:TrackPointExtension>
        </extensions>
      </trkpt>
      <trkpt lat="42.62564831413328647613525390625" lon="19.879691340029239654541015625">
        <ele>1747</ele>
        <time>2026-06-16T08:42:23.000Z</time>
        <extensions>
          <ns3:TrackPointExtension>
            <ns3:atemp>17.0</ns3:atemp>
          </ns3:TrackPointExtension>
        </extensions>
      </trkpt>
      <trkpt lat="42.62564831413328647613525390625" lon="19.879691340029239654541015625">
        <ele>1747</ele>
        <time>2026-06-16T08:42:24.000Z</time>
        <extensions>
          <ns3:TrackPointExtension>
            <ns3:atemp>17.0</ns3:atemp>
          </ns3:TrackPointExtension>
        </extensions>
      </trkpt>
      <trkpt lat="42.62564831413328647613525390625" lon="19.879691340029239654541015625">
        <ele>1746.800048828125</ele>
        <time>2026-06-16T08:42:25.000Z</time>
        <extensions>
          <ns3:TrackPointExtension>
            <ns3:atemp>17.0</ns3:atemp>
          </ns3:TrackPointExtension>
        </extensions>
      </trkpt>
      <trkpt lat="42.62564831413328647613525390625" lon="19.879691340029239654541015625">
        <ele>1746.800048828125</ele>
        <time>2026-06-16T08:42:26.000Z</time>
        <extensions>
          <ns3:TrackPointExtension>
            <ns3:atemp>17.0</ns3:atemp>
          </ns3:TrackPointExtension>
        </extensions>
      </trkpt>
      <trkpt lat="42.62564831413328647613525390625" lon="19.879691340029239654541015625">
        <ele>1746.800048828125</ele>
        <time>2026-06-16T08:42:27.000Z</time>
        <extensions>
          <ns3:TrackPointExtension>
            <ns3:atemp>17.0</ns3:atemp>
          </ns3:TrackPointExtension>
        </extensions>
      </trkpt>
      <trkpt lat="42.62564831413328647613525390625" lon="19.879691340029239654541015625">
        <ele>1746.800048828125</ele>
        <time>2026-06-16T08:42:28.000Z</time>
        <extensions>
          <ns3:TrackPointExtension>
            <ns3:atemp>17.0</ns3:atemp>
          </ns3:TrackPointExtension>
        </extensions>
      </trkpt>
      <trkpt lat="42.62564831413328647613525390625" lon="19.879691340029239654541015625">
        <ele>1746.800048828125</ele>
        <time>2026-06-16T08:42:29.000Z</time>
        <extensions>
          <ns3:TrackPointExtension>
            <ns3:atemp>17.0</ns3:atemp>
          </ns3:TrackPointExtension>
        </extensions>
      </trkpt>
      <trkpt lat="42.62564831413328647613525390625" lon="19.879691340029239654541015625">
        <ele>1746.800048828125</ele>
        <time>2026-06-16T08:42:30.000Z</time>
        <extensions>
          <ns3:TrackPointExtension>
            <ns3:atemp>17.0</ns3:atemp>
          </ns3:TrackPointExtension>
        </extensions>
      </trkpt>
      <trkpt lat="42.62564831413328647613525390625" lon="19.879691340029239654541015625">
        <ele>1746.5999755859375</ele>
        <time>2026-06-16T08:42:31.000Z</time>
        <extensions>
          <ns3:TrackPointExtension>
            <ns3:atemp>17.0</ns3:atemp>
          </ns3:TrackPointExtension>
        </extensions>
      </trkpt>
      <trkpt lat="42.62564831413328647613525390625" lon="19.879691340029239654541015625">
        <ele>1746.5999755859375</ele>
        <time>2026-06-16T08:42:32.000Z</time>
        <extensions>
          <ns3:TrackPointExtension>
            <ns3:atemp>17.0</ns3:atemp>
          </ns3:TrackPointExtension>
        </extensions>
      </trkpt>
      <trkpt lat="42.62564831413328647613525390625" lon="19.87969561479985713958740234375">
        <ele>1746.5999755859375</ele>
        <time>2026-06-16T08:42:33.000Z</time>
        <extensions>
          <ns3:TrackPointExtension>
            <ns3:atemp>17.0</ns3:atemp>
          </ns3:TrackPointExtension>
        </extensions>
      </trkpt>
      <trkpt lat="42.62564831413328647613525390625" lon="19.879691340029239654541015625">
        <ele>1746.5999755859375</ele>
        <time>2026-06-16T08:42:34.000Z</time>
        <extensions>
          <ns3:TrackPointExtension>
            <ns3:atemp>17.0</ns3:atemp>
          </ns3:TrackPointExtension>
        </extensions>
      </trkpt>
      <trkpt lat="42.62564831413328647613525390625" lon="19.879691340029239654541015625">
        <ele>1746.800048828125</ele>
        <time>2026-06-16T08:42:35.000Z</time>
        <extensions>
          <ns3:TrackPointExtension>
            <ns3:atemp>17.0</ns3:atemp>
          </ns3:TrackPointExtension>
        </extensions>
      </trkpt>
      <trkpt lat="42.62564831413328647613525390625" lon="19.879691340029239654541015625">
        <ele>1746.5999755859375</ele>
        <time>2026-06-16T08:42:36.000Z</time>
        <extensions>
          <ns3:TrackPointExtension>
            <ns3:atemp>17.0</ns3:atemp>
          </ns3:TrackPointExtension>
        </extensions>
      </trkpt>
      <trkpt lat="42.62564831413328647613525390625" lon="19.879691340029239654541015625">
        <ele>1746.5999755859375</ele>
        <time>2026-06-16T08:42:37.000Z</time>
        <extensions>
          <ns3:TrackPointExtension>
            <ns3:atemp>17.0</ns3:atemp>
          </ns3:TrackPointExtension>
        </extensions>
      </trkpt>
      <trkpt lat="42.62564831413328647613525390625" lon="19.879691340029239654541015625">
        <ele>1746.5999755859375</ele>
        <time>2026-06-16T08:42:38.000Z</time>
        <extensions>
          <ns3:TrackPointExtension>
            <ns3:atemp>16.0</ns3:atemp>
          </ns3:TrackPointExtension>
        </extensions>
      </trkpt>
      <trkpt lat="42.62564831413328647613525390625" lon="19.879691340029239654541015625">
        <ele>1746.5999755859375</ele>
        <time>2026-06-16T08:42:39.000Z</time>
        <extensions>
          <ns3:TrackPointExtension>
            <ns3:atemp>16.0</ns3:atemp>
          </ns3:TrackPointExtension>
        </extensions>
      </trkpt>
      <trkpt lat="42.62564831413328647613525390625" lon="19.879691340029239654541015625">
        <ele>1746.5999755859375</ele>
        <time>2026-06-16T08:42:40.000Z</time>
        <extensions>
          <ns3:TrackPointExtension>
            <ns3:atemp>17.0</ns3:atemp>
          </ns3:TrackPointExtension>
        </extensions>
      </trkpt>
      <trkpt lat="42.62564831413328647613525390625" lon="19.879691340029239654541015625">
        <ele>1746.5999755859375</ele>
        <time>2026-06-16T08:42:41.000Z</time>
        <extensions>
          <ns3:TrackPointExtension>
            <ns3:atemp>16.0</ns3:atemp>
          </ns3:TrackPointExtension>
        </extensions>
      </trkpt>
      <trkpt lat="42.62564831413328647613525390625" lon="19.879691340029239654541015625">
        <ele>1746.5999755859375</ele>
        <time>2026-06-16T08:42:42.000Z</time>
        <extensions>
          <ns3:TrackPointExtension>
            <ns3:atemp>17.0</ns3:atemp>
          </ns3:TrackPointExtension>
        </extensions>
      </trkpt>
      <trkpt lat="42.62564831413328647613525390625" lon="19.879691340029239654541015625">
        <ele>1746.5999755859375</ele>
        <time>2026-06-16T08:42:43.000Z</time>
        <extensions>
          <ns3:TrackPointExtension>
            <ns3:atemp>17.0</ns3:atemp>
          </ns3:TrackPointExtension>
        </extensions>
      </trkpt>
      <trkpt lat="42.62564831413328647613525390625" lon="19.879691340029239654541015625">
        <ele>1746.5999755859375</ele>
        <time>2026-06-16T08:42:44.000Z</time>
        <extensions>
          <ns3:TrackPointExtension>
            <ns3:atemp>17.0</ns3:atemp>
          </ns3:TrackPointExtension>
        </extensions>
      </trkpt>
      <trkpt lat="42.62564831413328647613525390625" lon="19.879691340029239654541015625">
        <ele>1746.5999755859375</ele>
        <time>2026-06-16T08:42:45.000Z</time>
        <extensions>
          <ns3:TrackPointExtension>
            <ns3:atemp>17.0</ns3:atemp>
          </ns3:TrackPointExtension>
        </extensions>
      </trkpt>
      <trkpt lat="42.62565099634230136871337890625" lon="19.8797029070556163787841796875">
        <ele>1746.5999755859375</ele>
        <time>2026-06-16T08:42:46.000Z</time>
        <extensions>
          <ns3:TrackPointExtension>
            <ns3:atemp>17.0</ns3:atemp>
          </ns3:TrackPointExtension>
        </extensions>
      </trkpt>
      <trkpt lat="42.62566055171191692352294921875" lon="19.8796941898763179779052734375">
        <ele>1746.5999755859375</ele>
        <time>2026-06-16T08:42:47.000Z</time>
        <extensions>
          <ns3:TrackPointExtension>
            <ns3:atemp>17.0</ns3:atemp>
          </ns3:TrackPointExtension>
        </extensions>
      </trkpt>
      <trkpt lat="42.62566105462610721588134765625" lon="19.87970047630369663238525390625">
        <ele>1746.5999755859375</ele>
        <time>2026-06-16T08:42:48.000Z</time>
        <extensions>
          <ns3:TrackPointExtension>
            <ns3:atemp>17.0</ns3:atemp>
          </ns3:TrackPointExtension>
        </extensions>
      </trkpt>
      <trkpt lat="42.625660635530948638916015625" lon="19.87970131449401378631591796875">
        <ele>1746.5999755859375</ele>
        <time>2026-06-16T08:42:49.000Z</time>
        <extensions>
          <ns3:TrackPointExtension>
            <ns3:atemp>17.0</ns3:atemp>
          </ns3:TrackPointExtension>
        </extensions>
      </trkpt>
      <trkpt lat="42.625660635530948638916015625" lon="19.87970131449401378631591796875">
        <ele>1746.5999755859375</ele>
        <time>2026-06-16T08:42:50.000Z</time>
        <extensions>
          <ns3:TrackPointExtension>
            <ns3:atemp>16.0</ns3:atemp>
          </ns3:TrackPointExtension>
        </extensions>
      </trkpt>
      <trkpt lat="42.625660635530948638916015625" lon="19.87970131449401378631591796875">
        <ele>1746.5999755859375</ele>
        <time>2026-06-16T08:42:51.000Z</time>
        <extensions>
          <ns3:TrackPointExtension>
            <ns3:atemp>16.0</ns3:atemp>
          </ns3:TrackPointExtension>
        </extensions>
      </trkpt>
      <trkpt lat="42.625660635530948638916015625" lon="19.87970131449401378631591796875">
        <ele>1746.5999755859375</ele>
        <time>2026-06-16T08:42:52.000Z</time>
        <extensions>
          <ns3:TrackPointExtension>
            <ns3:atemp>16.0</ns3:atemp>
          </ns3:TrackPointExtension>
        </extensions>
      </trkpt>
      <trkpt lat="42.625660635530948638916015625" lon="19.87970131449401378631591796875">
        <ele>1746.800048828125</ele>
        <time>2026-06-16T08:42:53.000Z</time>
        <extensions>
          <ns3:TrackPointExtension>
            <ns3:atemp>16.0</ns3:atemp>
          </ns3:TrackPointExtension>
        </extensions>
      </trkpt>
      <trkpt lat="42.625660635530948638916015625" lon="19.87970131449401378631591796875">
        <ele>1746.5999755859375</ele>
        <time>2026-06-16T08:42:54.000Z</time>
        <extensions>
          <ns3:TrackPointExtension>
            <ns3:atemp>16.0</ns3:atemp>
          </ns3:TrackPointExtension>
        </extensions>
      </trkpt>
      <trkpt lat="42.625660635530948638916015625" lon="19.87970131449401378631591796875">
        <ele>1746.5999755859375</ele>
        <time>2026-06-16T08:42:55.000Z</time>
        <extensions>
          <ns3:TrackPointExtension>
            <ns3:atemp>16.0</ns3:atemp>
          </ns3:TrackPointExtension>
        </extensions>
      </trkpt>
      <trkpt lat="42.625660635530948638916015625" lon="19.87970131449401378631591796875">
        <ele>1746.5999755859375</ele>
        <time>2026-06-16T08:42:56.000Z</time>
        <extensions>
          <ns3:TrackPointExtension>
            <ns3:atemp>16.0</ns3:atemp>
          </ns3:TrackPointExtension>
        </extensions>
      </trkpt>
      <trkpt lat="42.625660635530948638916015625" lon="19.87970131449401378631591796875">
        <ele>1746.5999755859375</ele>
        <time>2026-06-16T08:42:57.000Z</time>
        <extensions>
          <ns3:TrackPointExtension>
            <ns3:atemp>16.0</ns3:atemp>
          </ns3:TrackPointExtension>
        </extensions>
      </trkpt>
      <trkpt lat="42.625660635530948638916015625" lon="19.87970131449401378631591796875">
        <ele>1746.5999755859375</ele>
        <time>2026-06-16T08:42:58.000Z</time>
        <extensions>
          <ns3:TrackPointExtension>
            <ns3:atemp>16.0</ns3:atemp>
          </ns3:TrackPointExtension>
        </extensions>
      </trkpt>
      <trkpt lat="42.625660635530948638916015625" lon="19.87970131449401378631591796875">
        <ele>1746.5999755859375</ele>
        <time>2026-06-16T08:42:59.000Z</time>
        <extensions>
          <ns3:TrackPointExtension>
            <ns3:atemp>16.0</ns3:atemp>
          </ns3:TrackPointExtension>
        </extensions>
      </trkpt>
      <trkpt lat="42.625660635530948638916015625" lon="19.87970131449401378631591796875">
        <ele>1746.5999755859375</ele>
        <time>2026-06-16T08:43:00.000Z</time>
        <extensions>
          <ns3:TrackPointExtension>
            <ns3:atemp>16.0</ns3:atemp>
          </ns3:TrackPointExtension>
        </extensions>
      </trkpt>
      <trkpt lat="42.625660635530948638916015625" lon="19.87970131449401378631591796875">
        <ele>1746.5999755859375</ele>
        <time>2026-06-16T08:43:01.000Z</time>
        <extensions>
          <ns3:TrackPointExtension>
            <ns3:atemp>16.0</ns3:atemp>
          </ns3:TrackPointExtension>
        </extensions>
      </trkpt>
      <trkpt lat="42.625660635530948638916015625" lon="19.87970131449401378631591796875">
        <ele>1746.5999755859375</ele>
        <time>2026-06-16T08:43:02.000Z</time>
        <extensions>
          <ns3:TrackPointExtension>
            <ns3:atemp>16.0</ns3:atemp>
          </ns3:TrackPointExtension>
        </extensions>
      </trkpt>
      <trkpt lat="42.625660635530948638916015625" lon="19.87970131449401378631591796875">
        <ele>1746.5999755859375</ele>
        <time>2026-06-16T08:43:03.000Z</time>
        <extensions>
          <ns3:TrackPointExtension>
            <ns3:atemp>16.0</ns3:atemp>
          </ns3:TrackPointExtension>
        </extensions>
      </trkpt>
      <trkpt lat="42.625660635530948638916015625" lon="19.87970131449401378631591796875">
        <ele>1746.5999755859375</ele>
        <time>2026-06-16T08:43:04.000Z</time>
        <extensions>
          <ns3:TrackPointExtension>
            <ns3:atemp>16.0</ns3:atemp>
          </ns3:TrackPointExtension>
        </extensions>
      </trkpt>
      <trkpt lat="42.625660635530948638916015625" lon="19.87970131449401378631591796875">
        <ele>1746.5999755859375</ele>
        <time>2026-06-16T08:43:05.000Z</time>
        <extensions>
          <ns3:TrackPointExtension>
            <ns3:atemp>16.0</ns3:atemp>
          </ns3:TrackPointExtension>
        </extensions>
      </trkpt>
      <trkpt lat="42.625660635530948638916015625" lon="19.87970131449401378631591796875">
        <ele>1746.5999755859375</ele>
        <time>2026-06-16T08:43:06.000Z</time>
        <extensions>
          <ns3:TrackPointExtension>
            <ns3:atemp>16.0</ns3:atemp>
          </ns3:TrackPointExtension>
        </extensions>
      </trkpt>
      <trkpt lat="42.625660635530948638916015625" lon="19.87970131449401378631591796875">
        <ele>1746.5999755859375</ele>
        <time>2026-06-16T08:43:07.000Z</time>
        <extensions>
          <ns3:TrackPointExtension>
            <ns3:atemp>16.0</ns3:atemp>
          </ns3:TrackPointExtension>
        </extensions>
      </trkpt>
      <trkpt lat="42.625660635530948638916015625" lon="19.87970131449401378631591796875">
        <ele>1746.5999755859375</ele>
        <time>2026-06-16T08:43:08.000Z</time>
        <extensions>
          <ns3:TrackPointExtension>
            <ns3:atemp>16.0</ns3:atemp>
          </ns3:TrackPointExtension>
        </extensions>
      </trkpt>
      <trkpt lat="42.625660635530948638916015625" lon="19.87970131449401378631591796875">
        <ele>1746.5999755859375</ele>
        <time>2026-06-16T08:43:09.000Z</time>
        <extensions>
          <ns3:TrackPointExtension>
            <ns3:atemp>16.0</ns3:atemp>
          </ns3:TrackPointExtension>
        </extensions>
      </trkpt>
      <trkpt lat="42.625660635530948638916015625" lon="19.87970131449401378631591796875">
        <ele>1746.5999755859375</ele>
        <time>2026-06-16T08:43:10.000Z</time>
        <extensions>
          <ns3:TrackPointExtension>
            <ns3:atemp>16.0</ns3:atemp>
          </ns3:TrackPointExtension>
        </extensions>
      </trkpt>
      <trkpt lat="42.625660635530948638916015625" lon="19.87970131449401378631591796875">
        <ele>1746.5999755859375</ele>
        <time>2026-06-16T08:43:11.000Z</time>
        <extensions>
          <ns3:TrackPointExtension>
            <ns3:atemp>16.0</ns3:atemp>
          </ns3:TrackPointExtension>
        </extensions>
      </trkpt>
      <trkpt lat="42.625660635530948638916015625" lon="19.87970131449401378631591796875">
        <ele>1746.5999755859375</ele>
        <time>2026-06-16T08:43:12.000Z</time>
        <extensions>
          <ns3:TrackPointExtension>
            <ns3:atemp>16.0</ns3:atemp>
          </ns3:TrackPointExtension>
        </extensions>
      </trkpt>
      <trkpt lat="42.625660635530948638916015625" lon="19.87970131449401378631591796875">
        <ele>1746.5999755859375</ele>
        <time>2026-06-16T08:43:13.000Z</time>
        <extensions>
          <ns3:TrackPointExtension>
            <ns3:atemp>16.0</ns3:atemp>
          </ns3:TrackPointExtension>
        </extensions>
      </trkpt>
      <trkpt lat="42.625660635530948638916015625" lon="19.87970131449401378631591796875">
        <ele>1746.5999755859375</ele>
        <time>2026-06-16T08:43:14.000Z</time>
        <extensions>
          <ns3:TrackPointExtension>
            <ns3:atemp>16.0</ns3:atemp>
          </ns3:TrackPointExtension>
        </extensions>
      </trkpt>
      <trkpt lat="42.625660635530948638916015625" lon="19.87970131449401378631591796875">
        <ele>1746.5999755859375</ele>
        <time>2026-06-16T08:43:15.000Z</time>
        <extensions>
          <ns3:TrackPointExtension>
            <ns3:atemp>16.0</ns3:atemp>
          </ns3:TrackPointExtension>
        </extensions>
      </trkpt>
      <trkpt lat="42.625660635530948638916015625" lon="19.87970131449401378631591796875">
        <ele>1746.5999755859375</ele>
        <time>2026-06-16T08:43:16.000Z</time>
        <extensions>
          <ns3:TrackPointExtension>
            <ns3:atemp>16.0</ns3:atemp>
          </ns3:TrackPointExtension>
        </extensions>
      </trkpt>
      <trkpt lat="42.625660635530948638916015625" lon="19.87970131449401378631591796875">
        <ele>1746.5999755859375</ele>
        <time>2026-06-16T08:43:17.000Z</time>
        <extensions>
          <ns3:TrackPointExtension>
            <ns3:atemp>16.0</ns3:atemp>
          </ns3:TrackPointExtension>
        </extensions>
      </trkpt>
      <trkpt lat="42.625660635530948638916015625" lon="19.87970131449401378631591796875">
        <ele>1746.5999755859375</ele>
        <time>2026-06-16T08:43:18.000Z</time>
        <extensions>
          <ns3:TrackPointExtension>
            <ns3:atemp>16.0</ns3:atemp>
          </ns3:TrackPointExtension>
        </extensions>
      </trkpt>
      <trkpt lat="42.625660635530948638916015625" lon="19.87970131449401378631591796875">
        <ele>1746.5999755859375</ele>
        <time>2026-06-16T08:43:19.000Z</time>
        <extensions>
          <ns3:TrackPointExtension>
            <ns3:atemp>16.0</ns3:atemp>
          </ns3:TrackPointExtension>
        </extensions>
      </trkpt>
      <trkpt lat="42.62566222809255123138427734375" lon="19.87969729118049144744873046875">
        <ele>1746.5999755859375</ele>
        <time>2026-06-16T08:43:20.000Z</time>
        <extensions>
          <ns3:TrackPointExtension>
            <ns3:atemp>16.0</ns3:atemp>
          </ns3:TrackPointExtension>
        </extensions>
      </trkpt>
      <trkpt lat="42.625660635530948638916015625" lon="19.87970131449401378631591796875">
        <ele>1746.5999755859375</ele>
        <time>2026-06-16T08:43:21.000Z</time>
        <extensions>
          <ns3:TrackPointExtension>
            <ns3:atemp>16.0</ns3:atemp>
          </ns3:TrackPointExtension>
        </extensions>
      </trkpt>
      <trkpt lat="42.625660635530948638916015625" lon="19.87970131449401378631591796875">
        <ele>1746.5999755859375</ele>
        <time>2026-06-16T08:43:22.000Z</time>
        <extensions>
          <ns3:TrackPointExtension>
            <ns3:atemp>16.0</ns3:atemp>
          </ns3:TrackPointExtension>
        </extensions>
      </trkpt>
      <trkpt lat="42.625660635530948638916015625" lon="19.87970131449401378631591796875">
        <ele>1746.5999755859375</ele>
        <time>2026-06-16T08:43:23.000Z</time>
        <extensions>
          <ns3:TrackPointExtension>
            <ns3:atemp>16.0</ns3:atemp>
          </ns3:TrackPointExtension>
        </extensions>
      </trkpt>
      <trkpt lat="42.625660635530948638916015625" lon="19.87970131449401378631591796875">
        <ele>1746.5999755859375</ele>
        <time>2026-06-16T08:43:24.000Z</time>
        <extensions>
          <ns3:TrackPointExtension>
            <ns3:atemp>16.0</ns3:atemp>
          </ns3:TrackPointExtension>
        </extensions>
      </trkpt>
      <trkpt lat="42.625660635530948638916015625" lon="19.87970131449401378631591796875">
        <ele>1746.5999755859375</ele>
        <time>2026-06-16T08:43:25.000Z</time>
        <extensions>
          <ns3:TrackPointExtension>
            <ns3:atemp>16.0</ns3:atemp>
          </ns3:TrackPointExtension>
        </extensions>
      </trkpt>
      <trkpt lat="42.625660635530948638916015625" lon="19.87970131449401378631591796875">
        <ele>1746.5999755859375</ele>
        <time>2026-06-16T08:43:26.000Z</time>
        <extensions>
          <ns3:TrackPointExtension>
            <ns3:atemp>16.0</ns3:atemp>
          </ns3:TrackPointExtension>
        </extensions>
      </trkpt>
      <trkpt lat="42.625660635530948638916015625" lon="19.87970131449401378631591796875">
        <ele>1746.5999755859375</ele>
        <time>2026-06-16T08:43:27.000Z</time>
        <extensions>
          <ns3:TrackPointExtension>
            <ns3:atemp>16.0</ns3:atemp>
          </ns3:TrackPointExtension>
        </extensions>
      </trkpt>
      <trkpt lat="42.625660635530948638916015625" lon="19.87970131449401378631591796875">
        <ele>1746.5999755859375</ele>
        <time>2026-06-16T08:43:28.000Z</time>
        <extensions>
          <ns3:TrackPointExtension>
            <ns3:atemp>16.0</ns3:atemp>
          </ns3:TrackPointExtension>
        </extensions>
      </trkpt>
      <trkpt lat="42.625660635530948638916015625" lon="19.87970131449401378631591796875">
        <ele>1746.5999755859375</ele>
        <time>2026-06-16T08:43:29.000Z</time>
        <extensions>
          <ns3:TrackPointExtension>
            <ns3:atemp>16.0</ns3:atemp>
          </ns3:TrackPointExtension>
        </extensions>
      </trkpt>
      <trkpt lat="42.6256670057773590087890625" lon="19.87969276495277881622314453125">
        <ele>1746.5999755859375</ele>
        <time>2026-06-16T08:43:30.000Z</time>
        <extensions>
          <ns3:TrackPointExtension>
            <ns3:atemp>16.0</ns3:atemp>
          </ns3:TrackPointExtension>
        </extensions>
      </trkpt>
      <trkpt lat="42.625681422650814056396484375" lon="19.8796842992305755615234375">
        <ele>1746.5999755859375</ele>
        <time>2026-06-16T08:43:31.000Z</time>
        <extensions>
          <ns3:TrackPointExtension>
            <ns3:atemp>16.0</ns3:atemp>
          </ns3:TrackPointExtension>
        </extensions>
      </trkpt>
      <trkpt lat="42.62569156475365161895751953125" lon="19.87968899309635162353515625">
        <ele>1746.5999755859375</ele>
        <time>2026-06-16T08:43:32.000Z</time>
        <extensions>
          <ns3:TrackPointExtension>
            <ns3:atemp>16.0</ns3:atemp>
          </ns3:TrackPointExtension>
        </extensions>
      </trkpt>
      <trkpt lat="42.62569642625749111175537109375" lon="19.87970064394176006317138671875">
        <ele>1746.5999755859375</ele>
        <time>2026-06-16T08:43:33.000Z</time>
        <extensions>
          <ns3:TrackPointExtension>
            <ns3:atemp>16.0</ns3:atemp>
          </ns3:TrackPointExtension>
        </extensions>
      </trkpt>
      <trkpt lat="42.62569827027618885040283203125" lon="19.87972545437514781951904296875">
        <ele>1746.5999755859375</ele>
        <time>2026-06-16T08:43:34.000Z</time>
        <extensions>
          <ns3:TrackPointExtension>
            <ns3:atemp>16.0</ns3:atemp>
          </ns3:TrackPointExtension>
        </extensions>
      </trkpt>
      <trkpt lat="42.62570120394229888916015625" lon="19.87974154762923717498779296875">
        <ele>1746.5999755859375</ele>
        <time>2026-06-16T08:43:35.000Z</time>
        <extensions>
          <ns3:TrackPointExtension>
            <ns3:atemp>16.0</ns3:atemp>
          </ns3:TrackPointExtension>
        </extensions>
      </trkpt>
      <trkpt lat="42.625702880322933197021484375" lon="19.8797594010829925537109375">
        <ele>1746.5999755859375</ele>
        <time>2026-06-16T08:43:36.000Z</time>
        <extensions>
          <ns3:TrackPointExtension>
            <ns3:atemp>16.0</ns3:atemp>
          </ns3:TrackPointExtension>
        </extensions>
      </trkpt>
      <trkpt lat="42.62570522725582122802734375" lon="19.87978010438382625579833984375">
        <ele>1746.5999755859375</ele>
        <time>2026-06-16T08:43:37.000Z</time>
        <extensions>
          <ns3:TrackPointExtension>
            <ns3:atemp>16.0</ns3:atemp>
          </ns3:TrackPointExtension>
        </extensions>
      </trkpt>
      <trkpt lat="42.62569944374263286590576171875" lon="19.87980089150369167327880859375">
        <ele>1746.800048828125</ele>
        <time>2026-06-16T08:43:38.000Z</time>
        <extensions>
          <ns3:TrackPointExtension>
            <ns3:atemp>16.0</ns3:atemp>
          </ns3:TrackPointExtension>
        </extensions>
      </trkpt>
      <trkpt lat="42.6257013715803623199462890625" lon="19.87981413491070270538330078125">
        <ele>1746.800048828125</ele>
        <time>2026-06-16T08:43:39.000Z</time>
        <extensions>
          <ns3:TrackPointExtension>
            <ns3:atemp>16.0</ns3:atemp>
          </ns3:TrackPointExtension>
        </extensions>
      </trkpt>
      <trkpt lat="42.625700533390045166015625" lon="19.879834167659282684326171875">
        <ele>1746.800048828125</ele>
        <time>2026-06-16T08:43:40.000Z</time>
        <extensions>
          <ns3:TrackPointExtension>
            <ns3:atemp>16.0</ns3:atemp>
          </ns3:TrackPointExtension>
        </extensions>
      </trkpt>
      <trkpt lat="42.6257033832371234893798828125" lon="19.87986844964325428009033203125">
        <ele>1746.800048828125</ele>
        <time>2026-06-16T08:43:41.000Z</time>
        <extensions>
          <ns3:TrackPointExtension>
            <ns3:atemp>16.0</ns3:atemp>
          </ns3:TrackPointExtension>
        </extensions>
      </trkpt>
      <trkpt lat="42.62569257058203220367431640625" lon="19.8799171485006809234619140625">
        <ele>1746.5999755859375</ele>
        <time>2026-06-16T08:43:42.000Z</time>
        <extensions>
          <ns3:TrackPointExtension>
            <ns3:atemp>16.0</ns3:atemp>
          </ns3:TrackPointExtension>
        </extensions>
      </trkpt>
      <trkpt lat="42.6256829313933849334716796875" lon="19.879948161542415618896484375">
        <ele>1746.4000244140625</ele>
        <time>2026-06-16T08:43:43.000Z</time>
        <extensions>
          <ns3:TrackPointExtension>
            <ns3:atemp>16.0</ns3:atemp>
          </ns3:TrackPointExtension>
        </extensions>
      </trkpt>
      <trkpt lat="42.6256728731095790863037109375" lon="19.87997557036578655242919921875">
        <ele>1746.199951171875</ele>
        <time>2026-06-16T08:43:44.000Z</time>
        <extensions>
          <ns3:TrackPointExtension>
            <ns3:atemp>16.0</ns3:atemp>
          </ns3:TrackPointExtension>
        </extensions>
      </trkpt>
      <trkpt lat="42.6256591267883777618408203125" lon="19.8800002969801425933837890625">
        <ele>1746.199951171875</ele>
        <time>2026-06-16T08:43:45.000Z</time>
        <extensions>
          <ns3:TrackPointExtension>
            <ns3:atemp>16.0</ns3:atemp>
          </ns3:TrackPointExtension>
        </extensions>
      </trkpt>
      <trkpt lat="42.62563523836433887481689453125" lon="19.8800110258162021636962890625">
        <ele>1746.4000244140625</ele>
        <time>2026-06-16T08:43:46.000Z</time>
        <extensions>
          <ns3:TrackPointExtension>
            <ns3:atemp>16.0</ns3:atemp>
          </ns3:TrackPointExtension>
        </extensions>
      </trkpt>
      <trkpt lat="42.6256054826080799102783203125" lon="19.88002301193773746490478515625">
        <ele>1746.5999755859375</ele>
        <time>2026-06-16T08:43:47.000Z</time>
        <extensions>
          <ns3:TrackPointExtension>
            <ns3:atemp>16.0</ns3:atemp>
          </ns3:TrackPointExtension>
        </extensions>
      </trkpt>
      <trkpt lat="42.62557086534798145294189453125" lon="19.88003231585025787353515625">
        <ele>1746.800048828125</ele>
        <time>2026-06-16T08:43:48.000Z</time>
        <extensions>
          <ns3:TrackPointExtension>
            <ns3:atemp>16.0</ns3:atemp>
          </ns3:TrackPointExtension>
        </extensions>
      </trkpt>
      <trkpt lat="42.62554228305816650390625" lon="19.880042038857936859130859375">
        <ele>1747</ele>
        <time>2026-06-16T08:43:49.000Z</time>
        <extensions>
          <ns3:TrackPointExtension>
            <ns3:atemp>16.0</ns3:atemp>
          </ns3:TrackPointExtension>
        </extensions>
      </trkpt>
      <trkpt lat="42.62551856227219104766845703125" lon="19.88005737774074077606201171875">
        <ele>1747</ele>
        <time>2026-06-16T08:43:50.000Z</time>
        <extensions>
          <ns3:TrackPointExtension>
            <ns3:atemp>16.0</ns3:atemp>
          </ns3:TrackPointExtension>
        </extensions>
      </trkpt>
      <trkpt lat="42.625497020781040191650390625" lon="19.8800718784332275390625">
        <ele>1747.199951171875</ele>
        <time>2026-06-16T08:43:51.000Z</time>
        <extensions>
          <ns3:TrackPointExtension>
            <ns3:atemp>16.0</ns3:atemp>
          </ns3:TrackPointExtension>
        </extensions>
      </trkpt>
      <trkpt lat="42.62547145597636699676513671875" lon="19.88008520565927028656005859375">
        <ele>1747.4000244140625</ele>
        <time>2026-06-16T08:43:52.000Z</time>
        <extensions>
          <ns3:TrackPointExtension>
            <ns3:atemp>16.0</ns3:atemp>
          </ns3:TrackPointExtension>
        </extensions>
      </trkpt>
      <trkpt lat="42.6254408620297908782958984375" lon="19.8800935037434101104736328125">
        <ele>1747.4000244140625</ele>
        <time>2026-06-16T08:43:53.000Z</time>
        <extensions>
          <ns3:TrackPointExtension>
            <ns3:atemp>16.0</ns3:atemp>
          </ns3:TrackPointExtension>
        </extensions>
      </trkpt>
      <trkpt lat="42.6254093460738658905029296875" lon="19.88010406494140625">
        <ele>1747.5999755859375</ele>
        <time>2026-06-16T08:43:54.000Z</time>
        <extensions>
          <ns3:TrackPointExtension>
            <ns3:atemp>16.0</ns3:atemp>
          </ns3:TrackPointExtension>
        </extensions>
      </trkpt>
      <trkpt lat="42.62537724338471889495849609375" lon="19.88012216985225677490234375">
        <ele>1747.5999755859375</ele>
        <time>2026-06-16T08:43:55.000Z</time>
        <extensions>
          <ns3:TrackPointExtension>
            <ns3:atemp>16.0</ns3:atemp>
          </ns3:TrackPointExtension>
        </extensions>
      </trkpt>
      <trkpt lat="42.62534572742879390716552734375" lon="19.88013985566794872283935546875">
        <ele>1747.5999755859375</ele>
        <time>2026-06-16T08:43:56.000Z</time>
        <extensions>
          <ns3:TrackPointExtension>
            <ns3:atemp>16.0</ns3:atemp>
          </ns3:TrackPointExtension>
        </extensions>
      </trkpt>
      <trkpt lat="42.62530717067420482635498046875" lon="19.880155362188816070556640625">
        <ele>1747.4000244140625</ele>
        <time>2026-06-16T08:43:57.000Z</time>
        <extensions>
          <ns3:TrackPointExtension>
            <ns3:atemp>17.0</ns3:atemp>
          </ns3:TrackPointExtension>
        </extensions>
      </trkpt>
      <trkpt lat="42.625267021358013153076171875" lon="19.88017455674707889556884765625">
        <ele>1747.199951171875</ele>
        <time>2026-06-16T08:43:58.000Z</time>
        <extensions>
          <ns3:TrackPointExtension>
            <ns3:atemp>16.0</ns3:atemp>
          </ns3:TrackPointExtension>
        </extensions>
      </trkpt>
      <trkpt lat="42.62524078600108623504638671875" lon="19.880196265876293182373046875">
        <ele>1747</ele>
        <time>2026-06-16T08:43:59.000Z</time>
        <extensions>
          <ns3:TrackPointExtension>
            <ns3:atemp>16.0</ns3:atemp>
          </ns3:TrackPointExtension>
        </extensions>
      </trkpt>
      <trkpt lat="42.62522402219474315643310546875" lon="19.8802145384252071380615234375">
        <ele>1747</ele>
        <time>2026-06-16T08:44:00.000Z</time>
        <extensions>
          <ns3:TrackPointExtension>
            <ns3:atemp>16.0</ns3:atemp>
          </ns3:TrackPointExtension>
        </extensions>
      </trkpt>
      <trkpt lat="42.62520499527454376220703125" lon="19.88023021258413791656494140625">
        <ele>1746.800048828125</ele>
        <time>2026-06-16T08:44:01.000Z</time>
        <extensions>
          <ns3:TrackPointExtension>
            <ns3:atemp>16.0</ns3:atemp>
          </ns3:TrackPointExtension>
        </extensions>
      </trkpt>
      <trkpt lat="42.6251907460391521453857421875" lon="19.88024211488664150238037109375">
        <ele>1747</ele>
        <time>2026-06-16T08:44:02.000Z</time>
        <extensions>
          <ns3:TrackPointExtension>
            <ns3:atemp>16.0</ns3:atemp>
          </ns3:TrackPointExtension>
        </extensions>
      </trkpt>
      <trkpt lat="42.6251761615276336669921875" lon="19.88025452010333538055419921875">
        <ele>1747</ele>
        <time>2026-06-16T08:44:03.000Z</time>
        <extensions>
          <ns3:TrackPointExtension>
            <ns3:atemp>16.0</ns3:atemp>
          </ns3:TrackPointExtension>
        </extensions>
      </trkpt>
      <trkpt lat="42.6251552067697048187255859375" lon="19.88026164472103118896484375">
        <ele>1747.199951171875</ele>
        <time>2026-06-16T08:44:04.000Z</time>
        <extensions>
          <ns3:TrackPointExtension>
            <ns3:atemp>16.0</ns3:atemp>
          </ns3:TrackPointExtension>
        </extensions>
      </trkpt>
      <trkpt lat="42.62513257563114166259765625" lon="19.88027145154774188995361328125">
        <ele>1747.199951171875</ele>
        <time>2026-06-16T08:44:05.000Z</time>
        <extensions>
          <ns3:TrackPointExtension>
            <ns3:atemp>16.0</ns3:atemp>
          </ns3:TrackPointExtension>
        </extensions>
      </trkpt>
      <trkpt lat="42.6251072622835636138916015625" lon="19.88028000108897686004638671875">
        <ele>1747.199951171875</ele>
        <time>2026-06-16T08:44:06.000Z</time>
        <extensions>
          <ns3:TrackPointExtension>
            <ns3:atemp>16.0</ns3:atemp>
          </ns3:TrackPointExtension>
        </extensions>
      </trkpt>
      <trkpt lat="42.6250797696411609649658203125" lon="19.8802819289267063140869140625">
        <ele>1747.199951171875</ele>
        <time>2026-06-16T08:44:07.000Z</time>
        <extensions>
          <ns3:TrackPointExtension>
            <ns3:atemp>17.0</ns3:atemp>
          </ns3:TrackPointExtension>
        </extensions>
      </trkpt>
      <trkpt lat="42.62506057508289813995361328125" lon="19.88028938882052898406982421875">
        <ele>1747.199951171875</ele>
        <time>2026-06-16T08:44:08.000Z</time>
        <extensions>
          <ns3:TrackPointExtension>
            <ns3:atemp>16.0</ns3:atemp>
          </ns3:TrackPointExtension>
        </extensions>
      </trkpt>
      <trkpt lat="42.6250519417226314544677734375" lon="19.8803030513226985931396484375">
        <ele>1747.199951171875</ele>
        <time>2026-06-16T08:44:09.000Z</time>
        <extensions>
          <ns3:TrackPointExtension>
            <ns3:atemp>17.0</ns3:atemp>
          </ns3:TrackPointExtension>
        </extensions>
      </trkpt>
      <trkpt lat="42.625043727457523345947265625" lon="19.88031939603388309478759765625">
        <ele>1747.199951171875</ele>
        <time>2026-06-16T08:44:10.000Z</time>
        <extensions>
          <ns3:TrackPointExtension>
            <ns3:atemp>17.0</ns3:atemp>
          </ns3:TrackPointExtension>
        </extensions>
      </trkpt>
      <trkpt lat="42.6250462420284748077392578125" lon="19.88032593391835689544677734375">
        <ele>1747.4000244140625</ele>
        <time>2026-06-16T08:44:11.000Z</time>
        <extensions>
          <ns3:TrackPointExtension>
            <ns3:atemp>17.0</ns3:atemp>
          </ns3:TrackPointExtension>
        </extensions>
      </trkpt>
      <trkpt lat="42.62504850514233112335205078125" lon="19.8803226649761199951171875">
        <ele>1747.4000244140625</ele>
        <time>2026-06-16T08:44:12.000Z</time>
        <extensions>
          <ns3:TrackPointExtension>
            <ns3:atemp>16.0</ns3:atemp>
          </ns3:TrackPointExtension>
        </extensions>
      </trkpt>
      <trkpt lat="42.625046074390411376953125" lon="19.8803092539310455322265625">
        <ele>1747.5999755859375</ele>
        <time>2026-06-16T08:44:13.000Z</time>
        <extensions>
          <ns3:TrackPointExtension>
            <ns3:atemp>16.0</ns3:atemp>
          </ns3:TrackPointExtension>
        </extensions>
      </trkpt>
      <trkpt lat="42.62505152262747287750244140625" lon="19.8803033865988254547119140625">
        <ele>1747.5999755859375</ele>
        <time>2026-06-16T08:44:14.000Z</time>
        <extensions>
          <ns3:TrackPointExtension>
            <ns3:atemp>17.0</ns3:atemp>
          </ns3:TrackPointExtension>
        </extensions>
      </trkpt>
      <trkpt lat="42.62506577186286449432373046875" lon="19.88029383122920989990234375">
        <ele>1747.5999755859375</ele>
        <time>2026-06-16T08:44:15.000Z</time>
        <extensions>
          <ns3:TrackPointExtension>
            <ns3:atemp>17.0</ns3:atemp>
          </ns3:TrackPointExtension>
        </extensions>
      </trkpt>
      <trkpt lat="42.62508387677371501922607421875" lon="19.88028452731668949127197265625">
        <ele>1747.5999755859375</ele>
        <time>2026-06-16T08:44:16.000Z</time>
        <extensions>
          <ns3:TrackPointExtension>
            <ns3:atemp>17.0</ns3:atemp>
          </ns3:TrackPointExtension>
        </extensions>
      </trkpt>
      <trkpt lat="42.6250970363616943359375" lon="19.88027748651802539825439453125">
        <ele>1747.5999755859375</ele>
        <time>2026-06-16T08:44:17.000Z</time>
        <extensions>
          <ns3:TrackPointExtension>
            <ns3:atemp>16.0</ns3:atemp>
          </ns3:TrackPointExtension>
        </extensions>
      </trkpt>
      <trkpt lat="42.62511237524449825286865234375" lon="19.8802735470235347747802734375">
        <ele>1747.4000244140625</ele>
        <time>2026-06-16T08:44:18.000Z</time>
        <extensions>
          <ns3:TrackPointExtension>
            <ns3:atemp>17.0</ns3:atemp>
          </ns3:TrackPointExtension>
        </extensions>
      </trkpt>
      <trkpt lat="42.6251267082989215850830078125" lon="19.88027111627161502838134765625">
        <ele>1747.4000244140625</ele>
        <time>2026-06-16T08:44:19.000Z</time>
        <extensions>
          <ns3:TrackPointExtension>
            <ns3:atemp>17.0</ns3:atemp>
          </ns3:TrackPointExtension>
        </extensions>
      </trkpt>
      <trkpt lat="42.62513752095401287078857421875" lon="19.8802636563777923583984375">
        <ele>1747.4000244140625</ele>
        <time>2026-06-16T08:44:20.000Z</time>
        <extensions>
          <ns3:TrackPointExtension>
            <ns3:atemp>17.0</ns3:atemp>
          </ns3:TrackPointExtension>
        </extensions>
      </trkpt>
      <trkpt lat="42.6251431368291378021240234375" lon="19.880261979997158050537109375">
        <ele>1747.4000244140625</ele>
        <time>2026-06-16T08:44:21.000Z</time>
        <extensions>
          <ns3:TrackPointExtension>
            <ns3:atemp>17.0</ns3:atemp>
          </ns3:TrackPointExtension>
        </extensions>
      </trkpt>
      <trkpt lat="42.62514992617070674896240234375" lon="19.8802598007023334503173828125">
        <ele>1747.4000244140625</ele>
        <time>2026-06-16T08:44:22.000Z</time>
        <extensions>
          <ns3:TrackPointExtension>
            <ns3:atemp>17.0</ns3:atemp>
          </ns3:TrackPointExtension>
        </extensions>
      </trkpt>
      <trkpt lat="42.62515009380877017974853515625" lon="19.8802594654262065887451171875">
        <ele>1747.4000244140625</ele>
        <time>2026-06-16T08:44:23.000Z</time>
        <extensions>
          <ns3:TrackPointExtension>
            <ns3:atemp>17.0</ns3:atemp>
          </ns3:TrackPointExtension>
        </extensions>
      </trkpt>
      <trkpt lat="42.62515009380877017974853515625" lon="19.8802594654262065887451171875">
        <ele>1747.5999755859375</ele>
        <time>2026-06-16T08:44:24.000Z</time>
        <extensions>
          <ns3:TrackPointExtension>
            <ns3:atemp>17.0</ns3:atemp>
          </ns3:TrackPointExtension>
        </extensions>
      </trkpt>
      <trkpt lat="42.62515009380877017974853515625" lon="19.8802594654262065887451171875">
        <ele>1747.5999755859375</ele>
        <time>2026-06-16T08:44:25.000Z</time>
        <extensions>
          <ns3:TrackPointExtension>
            <ns3:atemp>17.0</ns3:atemp>
          </ns3:TrackPointExtension>
        </extensions>
      </trkpt>
      <trkpt lat="42.62515009380877017974853515625" lon="19.8802594654262065887451171875">
        <ele>1747.5999755859375</ele>
        <time>2026-06-16T08:44:26.000Z</time>
        <extensions>
          <ns3:TrackPointExtension>
            <ns3:atemp>17.0</ns3:atemp>
          </ns3:TrackPointExtension>
        </extensions>
      </trkpt>
      <trkpt lat="42.62515009380877017974853515625" lon="19.8802594654262065887451171875">
        <ele>1747.5999755859375</ele>
        <time>2026-06-16T08:44:27.000Z</time>
        <extensions>
          <ns3:TrackPointExtension>
            <ns3:atemp>17.0</ns3:atemp>
          </ns3:TrackPointExtension>
        </extensions>
      </trkpt>
      <trkpt lat="42.62515009380877017974853515625" lon="19.8802594654262065887451171875">
        <ele>1747.5999755859375</ele>
        <time>2026-06-16T08:44:28.000Z</time>
        <extensions>
          <ns3:TrackPointExtension>
            <ns3:atemp>17.0</ns3:atemp>
          </ns3:TrackPointExtension>
        </extensions>
      </trkpt>
      <trkpt lat="42.62515009380877017974853515625" lon="19.8802594654262065887451171875">
        <ele>1747.5999755859375</ele>
        <time>2026-06-16T08:44:29.000Z</time>
        <extensions>
          <ns3:TrackPointExtension>
            <ns3:atemp>17.0</ns3:atemp>
          </ns3:TrackPointExtension>
        </extensions>
      </trkpt>
      <trkpt lat="42.62515009380877017974853515625" lon="19.8802594654262065887451171875">
        <ele>1747.5999755859375</ele>
        <time>2026-06-16T08:44:30.000Z</time>
        <extensions>
          <ns3:TrackPointExtension>
            <ns3:atemp>17.0</ns3:atemp>
          </ns3:TrackPointExtension>
        </extensions>
      </trkpt>
      <trkpt lat="42.62515009380877017974853515625" lon="19.8802594654262065887451171875">
        <ele>1747.5999755859375</ele>
        <time>2026-06-16T08:44:31.000Z</time>
        <extensions>
          <ns3:TrackPointExtension>
            <ns3:atemp>17.0</ns3:atemp>
          </ns3:TrackPointExtension>
        </extensions>
      </trkpt>
      <trkpt lat="42.62515009380877017974853515625" lon="19.8802594654262065887451171875">
        <ele>1747.5999755859375</ele>
        <time>2026-06-16T08:44:32.000Z</time>
        <extensions>
          <ns3:TrackPointExtension>
            <ns3:atemp>17.0</ns3:atemp>
          </ns3:TrackPointExtension>
        </extensions>
      </trkpt>
      <trkpt lat="42.62515009380877017974853515625" lon="19.8802594654262065887451171875">
        <ele>1747.5999755859375</ele>
        <time>2026-06-16T08:44:33.000Z</time>
        <extensions>
          <ns3:TrackPointExtension>
            <ns3:atemp>17.0</ns3:atemp>
          </ns3:TrackPointExtension>
        </extensions>
      </trkpt>
      <trkpt lat="42.62515009380877017974853515625" lon="19.8802594654262065887451171875">
        <ele>1747.5999755859375</ele>
        <time>2026-06-16T08:44:34.000Z</time>
        <extensions>
          <ns3:TrackPointExtension>
            <ns3:atemp>17.0</ns3:atemp>
          </ns3:TrackPointExtension>
        </extensions>
      </trkpt>
      <trkpt lat="42.62515009380877017974853515625" lon="19.8802594654262065887451171875">
        <ele>1747.5999755859375</ele>
        <time>2026-06-16T08:44:35.000Z</time>
        <extensions>
          <ns3:TrackPointExtension>
            <ns3:atemp>17.0</ns3:atemp>
          </ns3:TrackPointExtension>
        </extensions>
      </trkpt>
      <trkpt lat="42.62515009380877017974853515625" lon="19.8802594654262065887451171875">
        <ele>1747.5999755859375</ele>
        <time>2026-06-16T08:44:36.000Z</time>
        <extensions>
          <ns3:TrackPointExtension>
            <ns3:atemp>17.0</ns3:atemp>
          </ns3:TrackPointExtension>
        </extensions>
      </trkpt>
      <trkpt lat="42.62515009380877017974853515625" lon="19.8802594654262065887451171875">
        <ele>1747.5999755859375</ele>
        <time>2026-06-16T08:44:37.000Z</time>
        <extensions>
          <ns3:TrackPointExtension>
            <ns3:atemp>17.0</ns3:atemp>
          </ns3:TrackPointExtension>
        </extensions>
      </trkpt>
      <trkpt lat="42.62515009380877017974853515625" lon="19.8802594654262065887451171875">
        <ele>1747.5999755859375</ele>
        <time>2026-06-16T08:44:38.000Z</time>
        <extensions>
          <ns3:TrackPointExtension>
            <ns3:atemp>17.0</ns3:atemp>
          </ns3:TrackPointExtension>
        </extensions>
      </trkpt>
      <trkpt lat="42.62515998445451259613037109375" lon="19.88025703467428684234619140625">
        <ele>1747.5999755859375</ele>
        <time>2026-06-16T08:44:39.000Z</time>
        <extensions>
          <ns3:TrackPointExtension>
            <ns3:atemp>17.0</ns3:atemp>
          </ns3:TrackPointExtension>
        </extensions>
      </trkpt>
      <trkpt lat="42.625175826251506805419921875" lon="19.88025250844657421112060546875">
        <ele>1747.5999755859375</ele>
        <time>2026-06-16T08:44:40.000Z</time>
        <extensions>
          <ns3:TrackPointExtension>
            <ns3:atemp>17.0</ns3:atemp>
          </ns3:TrackPointExtension>
        </extensions>
      </trkpt>
      <trkpt lat="42.62517641298472881317138671875" lon="19.8802534304559230804443359375">
        <ele>1747.5999755859375</ele>
        <time>2026-06-16T08:44:41.000Z</time>
        <extensions>
          <ns3:TrackPointExtension>
            <ns3:atemp>17.0</ns3:atemp>
          </ns3:TrackPointExtension>
        </extensions>
      </trkpt>
      <trkpt lat="42.62517641298472881317138671875" lon="19.8802534304559230804443359375">
        <ele>1747.5999755859375</ele>
        <time>2026-06-16T08:44:42.000Z</time>
        <extensions>
          <ns3:TrackPointExtension>
            <ns3:atemp>17.0</ns3:atemp>
          </ns3:TrackPointExtension>
        </extensions>
      </trkpt>
      <trkpt lat="42.62517641298472881317138671875" lon="19.8802534304559230804443359375">
        <ele>1747.5999755859375</ele>
        <time>2026-06-16T08:44:43.000Z</time>
        <extensions>
          <ns3:TrackPointExtension>
            <ns3:atemp>17.0</ns3:atemp>
          </ns3:TrackPointExtension>
        </extensions>
      </trkpt>
      <trkpt lat="42.62517641298472881317138671875" lon="19.8802534304559230804443359375">
        <ele>1747.5999755859375</ele>
        <time>2026-06-16T08:44:44.000Z</time>
        <extensions>
          <ns3:TrackPointExtension>
            <ns3:atemp>17.0</ns3:atemp>
          </ns3:TrackPointExtension>
        </extensions>
      </trkpt>
      <trkpt lat="42.62517641298472881317138671875" lon="19.8802534304559230804443359375">
        <ele>1747.5999755859375</ele>
        <time>2026-06-16T08:44:45.000Z</time>
        <extensions>
          <ns3:TrackPointExtension>
            <ns3:atemp>17.0</ns3:atemp>
          </ns3:TrackPointExtension>
        </extensions>
      </trkpt>
      <trkpt lat="42.62517641298472881317138671875" lon="19.8802534304559230804443359375">
        <ele>1747.5999755859375</ele>
        <time>2026-06-16T08:44:46.000Z</time>
        <extensions>
          <ns3:TrackPointExtension>
            <ns3:atemp>17.0</ns3:atemp>
          </ns3:TrackPointExtension>
        </extensions>
      </trkpt>
      <trkpt lat="42.62517641298472881317138671875" lon="19.8802534304559230804443359375">
        <ele>1747.5999755859375</ele>
        <time>2026-06-16T08:44:47.000Z</time>
        <extensions>
          <ns3:TrackPointExtension>
            <ns3:atemp>17.0</ns3:atemp>
          </ns3:TrackPointExtension>
        </extensions>
      </trkpt>
      <trkpt lat="42.62517641298472881317138671875" lon="19.8802534304559230804443359375">
        <ele>1747.5999755859375</ele>
        <time>2026-06-16T08:44:48.000Z</time>
        <extensions>
          <ns3:TrackPointExtension>
            <ns3:atemp>17.0</ns3:atemp>
          </ns3:TrackPointExtension>
        </extensions>
      </trkpt>
      <trkpt lat="42.62517641298472881317138671875" lon="19.8802534304559230804443359375">
        <ele>1747.5999755859375</ele>
        <time>2026-06-16T08:44:49.000Z</time>
        <extensions>
          <ns3:TrackPointExtension>
            <ns3:atemp>17.0</ns3:atemp>
          </ns3:TrackPointExtension>
        </extensions>
      </trkpt>
      <trkpt lat="42.62517641298472881317138671875" lon="19.8802534304559230804443359375">
        <ele>1747.5999755859375</ele>
        <time>2026-06-16T08:44:50.000Z</time>
        <extensions>
          <ns3:TrackPointExtension>
            <ns3:atemp>17.0</ns3:atemp>
          </ns3:TrackPointExtension>
        </extensions>
      </trkpt>
      <trkpt lat="42.62517641298472881317138671875" lon="19.8802534304559230804443359375">
        <ele>1747.5999755859375</ele>
        <time>2026-06-16T08:44:51.000Z</time>
        <extensions>
          <ns3:TrackPointExtension>
            <ns3:atemp>17.0</ns3:atemp>
          </ns3:TrackPointExtension>
        </extensions>
      </trkpt>
      <trkpt lat="42.62517641298472881317138671875" lon="19.8802534304559230804443359375">
        <ele>1747.5999755859375</ele>
        <time>2026-06-16T08:44:52.000Z</time>
        <extensions>
          <ns3:TrackPointExtension>
            <ns3:atemp>17.0</ns3:atemp>
          </ns3:TrackPointExtension>
        </extensions>
      </trkpt>
      <trkpt lat="42.62517641298472881317138671875" lon="19.8802534304559230804443359375">
        <ele>1747.5999755859375</ele>
        <time>2026-06-16T08:44:53.000Z</time>
        <extensions>
          <ns3:TrackPointExtension>
            <ns3:atemp>17.0</ns3:atemp>
          </ns3:TrackPointExtension>
        </extensions>
      </trkpt>
      <trkpt lat="42.62517825700342655181884765625" lon="19.88025569356977939605712890625">
        <ele>1747.5999755859375</ele>
        <time>2026-06-16T08:44:54.000Z</time>
        <extensions>
          <ns3:TrackPointExtension>
            <ns3:atemp>17.0</ns3:atemp>
          </ns3:TrackPointExtension>
        </extensions>
      </trkpt>
      <trkpt lat="42.62517641298472881317138671875" lon="19.8802534304559230804443359375">
        <ele>1747.5999755859375</ele>
        <time>2026-06-16T08:44:55.000Z</time>
        <extensions>
          <ns3:TrackPointExtension>
            <ns3:atemp>17.0</ns3:atemp>
          </ns3:TrackPointExtension>
        </extensions>
      </trkpt>
      <trkpt lat="42.62517641298472881317138671875" lon="19.8802534304559230804443359375">
        <ele>1747.5999755859375</ele>
        <time>2026-06-16T08:44:56.000Z</time>
        <extensions>
          <ns3:TrackPointExtension>
            <ns3:atemp>17.0</ns3:atemp>
          </ns3:TrackPointExtension>
        </extensions>
      </trkpt>
      <trkpt lat="42.62517641298472881317138671875" lon="19.8802534304559230804443359375">
        <ele>1747.5999755859375</ele>
        <time>2026-06-16T08:44:57.000Z</time>
        <extensions>
          <ns3:TrackPointExtension>
            <ns3:atemp>17.0</ns3:atemp>
          </ns3:TrackPointExtension>
        </extensions>
      </trkpt>
      <trkpt lat="42.62517892755568027496337890625" lon="19.8802524246275424957275390625">
        <ele>1747.5999755859375</ele>
        <time>2026-06-16T08:44:58.000Z</time>
        <extensions>
          <ns3:TrackPointExtension>
            <ns3:atemp>17.0</ns3:atemp>
          </ns3:TrackPointExtension>
        </extensions>
      </trkpt>
      <trkpt lat="42.6251940988004207611083984375" lon="19.8802437074482440948486328125">
        <ele>1747.4000244140625</ele>
        <time>2026-06-16T08:44:59.000Z</time>
        <extensions>
          <ns3:TrackPointExtension>
            <ns3:atemp>17.0</ns3:atemp>
          </ns3:TrackPointExtension>
        </extensions>
      </trkpt>
      <trkpt lat="42.6252054981887340545654296875" lon="19.8802333138883113861083984375">
        <ele>1747.4000244140625</ele>
        <time>2026-06-16T08:45:00.000Z</time>
        <extensions>
          <ns3:TrackPointExtension>
            <ns3:atemp>17.0</ns3:atemp>
          </ns3:TrackPointExtension>
        </extensions>
      </trkpt>
      <trkpt lat="42.62522050179541110992431640625" lon="19.88021881319582462310791015625">
        <ele>1747.4000244140625</ele>
        <time>2026-06-16T08:45:01.000Z</time>
        <extensions>
          <ns3:TrackPointExtension>
            <ns3:atemp>17.0</ns3:atemp>
          </ns3:TrackPointExtension>
        </extensions>
      </trkpt>
      <trkpt lat="42.62524363584816455841064453125" lon="19.88020439632236957550048828125">
        <ele>1747.4000244140625</ele>
        <time>2026-06-16T08:45:02.000Z</time>
        <extensions>
          <ns3:TrackPointExtension>
            <ns3:atemp>17.0</ns3:atemp>
          </ns3:TrackPointExtension>
        </extensions>
      </trkpt>
      <trkpt lat="42.62526894919574260711669921875" lon="19.88018914125859737396240234375">
        <ele>1747.199951171875</ele>
        <time>2026-06-16T08:45:03.000Z</time>
        <extensions>
          <ns3:TrackPointExtension>
            <ns3:atemp>17.0</ns3:atemp>
          </ns3:TrackPointExtension>
        </extensions>
      </trkpt>
      <trkpt lat="42.62528973631560802459716796875" lon="19.8801773227751255035400390625">
        <ele>1747.199951171875</ele>
        <time>2026-06-16T08:45:04.000Z</time>
        <extensions>
          <ns3:TrackPointExtension>
            <ns3:atemp>17.0</ns3:atemp>
          </ns3:TrackPointExtension>
        </extensions>
      </trkpt>
      <trkpt lat="42.62531320564448833465576171875" lon="19.8801697790622711181640625">
        <ele>1747.199951171875</ele>
        <time>2026-06-16T08:45:05.000Z</time>
        <extensions>
          <ns3:TrackPointExtension>
            <ns3:atemp>17.0</ns3:atemp>
          </ns3:TrackPointExtension>
        </extensions>
      </trkpt>
      <trkpt lat="42.625330053269863128662109375" lon="19.880155362188816070556640625">
        <ele>1747</ele>
        <time>2026-06-16T08:45:06.000Z</time>
        <extensions>
          <ns3:TrackPointExtension>
            <ns3:atemp>17.0</ns3:atemp>
          </ns3:TrackPointExtension>
        </extensions>
      </trkpt>
      <trkpt lat="42.625344805419445037841796875" lon="19.880141280591487884521484375">
        <ele>1747</ele>
        <time>2026-06-16T08:45:07.000Z</time>
        <extensions>
          <ns3:TrackPointExtension>
            <ns3:atemp>17.0</ns3:atemp>
          </ns3:TrackPointExtension>
        </extensions>
      </trkpt>
      <trkpt lat="42.6253610663115978240966796875" lon="19.880126528441905975341796875">
        <ele>1747</ele>
        <time>2026-06-16T08:45:08.000Z</time>
        <extensions>
          <ns3:TrackPointExtension>
            <ns3:atemp>17.0</ns3:atemp>
          </ns3:TrackPointExtension>
        </extensions>
      </trkpt>
      <trkpt lat="42.62537942267954349517822265625" lon="19.88011823035776615142822265625">
        <ele>1747.199951171875</ele>
        <time>2026-06-16T08:45:09.000Z</time>
        <extensions>
          <ns3:TrackPointExtension>
            <ns3:atemp>17.0</ns3:atemp>
          </ns3:TrackPointExtension>
        </extensions>
      </trkpt>
      <trkpt lat="42.6253979466855525970458984375" lon="19.88011144101619720458984375">
        <ele>1747.199951171875</ele>
        <time>2026-06-16T08:45:10.000Z</time>
        <extensions>
          <ns3:TrackPointExtension>
            <ns3:atemp>17.0</ns3:atemp>
          </ns3:TrackPointExtension>
        </extensions>
      </trkpt>
      <trkpt lat="42.625417225062847137451171875" lon="19.88010683096945285797119140625">
        <ele>1747.199951171875</ele>
        <time>2026-06-16T08:45:11.000Z</time>
        <extensions>
          <ns3:TrackPointExtension>
            <ns3:atemp>17.0</ns3:atemp>
          </ns3:TrackPointExtension>
        </extensions>
      </trkpt>
      <trkpt lat="42.6254401914775371551513671875" lon="19.88010247237980365753173828125">
        <ele>1747.4000244140625</ele>
        <time>2026-06-16T08:45:12.000Z</time>
        <extensions>
          <ns3:TrackPointExtension>
            <ns3:atemp>17.0</ns3:atemp>
          </ns3:TrackPointExtension>
        </extensions>
      </trkpt>
      <trkpt lat="42.62545645236968994140625" lon="19.88009668886661529541015625">
        <ele>1747.4000244140625</ele>
        <time>2026-06-16T08:45:13.000Z</time>
        <extensions>
          <ns3:TrackPointExtension>
            <ns3:atemp>17.0</ns3:atemp>
          </ns3:TrackPointExtension>
        </extensions>
      </trkpt>
      <trkpt lat="42.62547765858471393585205078125" lon="19.8800827749073505401611328125">
        <ele>1747.5999755859375</ele>
        <time>2026-06-16T08:45:14.000Z</time>
        <extensions>
          <ns3:TrackPointExtension>
            <ns3:atemp>17.0</ns3:atemp>
          </ns3:TrackPointExtension>
        </extensions>
      </trkpt>
      <trkpt lat="42.6255033910274505615234375" lon="19.88007397390902042388916015625">
        <ele>1747.5999755859375</ele>
        <time>2026-06-16T08:45:15.000Z</time>
        <extensions>
          <ns3:TrackPointExtension>
            <ns3:atemp>17.0</ns3:atemp>
          </ns3:TrackPointExtension>
        </extensions>
      </trkpt>
      <trkpt lat="42.62552610598504543304443359375" lon="19.880074225366115570068359375">
        <ele>1747.800048828125</ele>
        <time>2026-06-16T08:45:16.000Z</time>
        <extensions>
          <ns3:TrackPointExtension>
            <ns3:atemp>17.0</ns3:atemp>
          </ns3:TrackPointExtension>
        </extensions>
      </trkpt>
      <trkpt lat="42.62555862776935100555419921875" lon="19.88007548265159130096435546875">
        <ele>1747.800048828125</ele>
        <time>2026-06-16T08:45:17.000Z</time>
        <extensions>
          <ns3:TrackPointExtension>
            <ns3:atemp>17.0</ns3:atemp>
          </ns3:TrackPointExtension>
        </extensions>
      </trkpt>
      <trkpt lat="42.62558008544147014617919921875" lon="19.8800693638622760772705078125">
        <ele>1747.800048828125</ele>
        <time>2026-06-16T08:45:18.000Z</time>
        <extensions>
          <ns3:TrackPointExtension>
            <ns3:atemp>17.0</ns3:atemp>
          </ns3:TrackPointExtension>
        </extensions>
      </trkpt>
      <trkpt lat="42.62560405768454074859619140625" lon="19.88005352206528186798095703125">
        <ele>1747.5999755859375</ele>
        <time>2026-06-16T08:45:19.000Z</time>
        <extensions>
          <ns3:TrackPointExtension>
            <ns3:atemp>17.0</ns3:atemp>
          </ns3:TrackPointExtension>
        </extensions>
      </trkpt>
      <trkpt lat="42.62560757808387279510498046875" lon="19.88005503080785274505615234375">
        <ele>1747.5999755859375</ele>
        <time>2026-06-16T08:45:20.000Z</time>
        <extensions>
          <ns3:TrackPointExtension>
            <ns3:atemp>17.0</ns3:atemp>
          </ns3:TrackPointExtension>
        </extensions>
      </trkpt>
      <trkpt lat="42.62561780400574207305908203125" lon="19.88004036247730255126953125">
        <ele>1747.5999755859375</ele>
        <time>2026-06-16T08:45:21.000Z</time>
        <extensions>
          <ns3:TrackPointExtension>
            <ns3:atemp>17.0</ns3:atemp>
          </ns3:TrackPointExtension>
        </extensions>
      </trkpt>
      <trkpt lat="42.62561671435832977294921875" lon="19.8800237663090229034423828125">
        <ele>1747.5999755859375</ele>
        <time>2026-06-16T08:45:22.000Z</time>
        <extensions>
          <ns3:TrackPointExtension>
            <ns3:atemp>17.0</ns3:atemp>
          </ns3:TrackPointExtension>
        </extensions>
      </trkpt>
      <trkpt lat="42.62560908682644367218017578125" lon="19.8800254426896572113037109375">
        <ele>1747.4000244140625</ele>
        <time>2026-06-16T08:45:23.000Z</time>
        <extensions>
          <ns3:TrackPointExtension>
            <ns3:atemp>17.0</ns3:atemp>
          </ns3:TrackPointExtension>
        </extensions>
      </trkpt>
      <trkpt lat="42.62560070492327213287353515625" lon="19.88003592006862163543701171875">
        <ele>1747.4000244140625</ele>
        <time>2026-06-16T08:45:24.000Z</time>
        <extensions>
          <ns3:TrackPointExtension>
            <ns3:atemp>17.0</ns3:atemp>
          </ns3:TrackPointExtension>
        </extensions>
      </trkpt>
      <trkpt lat="42.6255972683429718017578125" lon="19.8800412006676197052001953125">
        <ele>1747.4000244140625</ele>
        <time>2026-06-16T08:45:25.000Z</time>
        <extensions>
          <ns3:TrackPointExtension>
            <ns3:atemp>17.0</ns3:atemp>
          </ns3:TrackPointExtension>
        </extensions>
      </trkpt>
      <trkpt lat="42.62558746151626110076904296875" lon="19.88005218096077442169189453125">
        <ele>1747.4000244140625</ele>
        <time>2026-06-16T08:45:26.000Z</time>
        <extensions>
          <ns3:TrackPointExtension>
            <ns3:atemp>17.0</ns3:atemp>
          </ns3:TrackPointExtension>
        </extensions>
      </trkpt>
      <trkpt lat="42.6255731284618377685546875" lon="19.88005519844591617584228515625">
        <ele>1747.4000244140625</ele>
        <time>2026-06-16T08:45:27.000Z</time>
        <extensions>
          <ns3:TrackPointExtension>
            <ns3:atemp>17.0</ns3:atemp>
          </ns3:TrackPointExtension>
        </extensions>
      </trkpt>
      <trkpt lat="42.625557370483875274658203125" lon="19.88006089814007282257080078125">
        <ele>1747.4000244140625</ele>
        <time>2026-06-16T08:45:28.000Z</time>
        <extensions>
          <ns3:TrackPointExtension>
            <ns3:atemp>17.0</ns3:atemp>
          </ns3:TrackPointExtension>
        </extensions>
      </trkpt>
      <trkpt lat="42.62554521672427654266357421875" lon="19.88006659783422946929931640625">
        <ele>1747.5999755859375</ele>
        <time>2026-06-16T08:45:29.000Z</time>
        <extensions>
          <ns3:TrackPointExtension>
            <ns3:atemp>17.0</ns3:atemp>
          </ns3:TrackPointExtension>
        </extensions>
      </trkpt>
      <trkpt lat="42.62552778236567974090576171875" lon="19.88007120788097381591796875">
        <ele>1747.5999755859375</ele>
        <time>2026-06-16T08:45:30.000Z</time>
        <extensions>
          <ns3:TrackPointExtension>
            <ns3:atemp>17.0</ns3:atemp>
          </ns3:TrackPointExtension>
        </extensions>
      </trkpt>
      <trkpt lat="42.62551940046250820159912109375" lon="19.88007212989032268524169921875">
        <ele>1747.5999755859375</ele>
        <time>2026-06-16T08:45:31.000Z</time>
        <extensions>
          <ns3:TrackPointExtension>
            <ns3:atemp>17.0</ns3:atemp>
          </ns3:TrackPointExtension>
        </extensions>
      </trkpt>
      <trkpt lat="42.6255075819790363311767578125" lon="19.8800777457654476165771484375">
        <ele>1747.5999755859375</ele>
        <time>2026-06-16T08:45:32.000Z</time>
        <extensions>
          <ns3:TrackPointExtension>
            <ns3:atemp>17.0</ns3:atemp>
          </ns3:TrackPointExtension>
        </extensions>
      </trkpt>
      <trkpt lat="42.6254953444004058837890625" lon="19.88008386455476284027099609375">
        <ele>1747.5999755859375</ele>
        <time>2026-06-16T08:45:33.000Z</time>
        <extensions>
          <ns3:TrackPointExtension>
            <ns3:atemp>17.0</ns3:atemp>
          </ns3:TrackPointExtension>
        </extensions>
      </trkpt>
      <trkpt lat="42.625481598079204559326171875" lon="19.88009006716310977935791015625">
        <ele>1747.5999755859375</ele>
        <time>2026-06-16T08:45:34.000Z</time>
        <extensions>
          <ns3:TrackPointExtension>
            <ns3:atemp>17.0</ns3:atemp>
          </ns3:TrackPointExtension>
        </extensions>
      </trkpt>
      <trkpt lat="42.62546248733997344970703125" lon="19.88009828142821788787841796875">
        <ele>1747.5999755859375</ele>
        <time>2026-06-16T08:45:35.000Z</time>
        <extensions>
          <ns3:TrackPointExtension>
            <ns3:atemp>17.0</ns3:atemp>
          </ns3:TrackPointExtension>
        </extensions>
      </trkpt>
      <trkpt lat="42.6254422031342983245849609375" lon="19.8801018856465816497802734375">
        <ele>1747.5999755859375</ele>
        <time>2026-06-16T08:45:36.000Z</time>
        <extensions>
          <ns3:TrackPointExtension>
            <ns3:atemp>17.0</ns3:atemp>
          </ns3:TrackPointExtension>
        </extensions>
      </trkpt>
      <trkpt lat="42.62542099691927433013916015625" lon="19.8801102675497531890869140625">
        <ele>1747.5999755859375</ele>
        <time>2026-06-16T08:45:37.000Z</time>
        <extensions>
          <ns3:TrackPointExtension>
            <ns3:atemp>17.0</ns3:atemp>
          </ns3:TrackPointExtension>
        </extensions>
      </trkpt>
      <trkpt lat="42.625395096838474273681640625" lon="19.88012610934674739837646484375">
        <ele>1747.4000244140625</ele>
        <time>2026-06-16T08:45:38.000Z</time>
        <extensions>
          <ns3:TrackPointExtension>
            <ns3:atemp>17.0</ns3:atemp>
          </ns3:TrackPointExtension>
        </extensions>
      </trkpt>
      <trkpt lat="42.6253701187670230865478515625" lon="19.880144298076629638671875">
        <ele>1747.4000244140625</ele>
        <time>2026-06-16T08:45:39.000Z</time>
        <extensions>
          <ns3:TrackPointExtension>
            <ns3:atemp>17.0</ns3:atemp>
          </ns3:TrackPointExtension>
        </extensions>
      </trkpt>
      <trkpt lat="42.62534539215266704559326171875" lon="19.88015192560851573944091796875">
        <ele>1747.4000244140625</ele>
        <time>2026-06-16T08:45:40.000Z</time>
        <extensions>
          <ns3:TrackPointExtension>
            <ns3:atemp>17.0</ns3:atemp>
          </ns3:TrackPointExtension>
        </extensions>
      </trkpt>
      <trkpt lat="42.62531588785350322723388671875" lon="19.88016248680651187896728515625">
        <ele>1747.199951171875</ele>
        <time>2026-06-16T08:45:41.000Z</time>
        <extensions>
          <ns3:TrackPointExtension>
            <ns3:atemp>17.0</ns3:atemp>
          </ns3:TrackPointExtension>
        </extensions>
      </trkpt>
      <trkpt lat="42.6252832822501659393310546875" lon="19.88017044961452484130859375">
        <ele>1747</ele>
        <time>2026-06-16T08:45:42.000Z</time>
        <extensions>
          <ns3:TrackPointExtension>
            <ns3:atemp>17.0</ns3:atemp>
          </ns3:TrackPointExtension>
        </extensions>
      </trkpt>
      <trkpt lat="42.62526442296802997589111328125" lon="19.880187213420867919921875">
        <ele>1747</ele>
        <time>2026-06-16T08:45:43.000Z</time>
        <extensions>
          <ns3:TrackPointExtension>
            <ns3:atemp>17.0</ns3:atemp>
          </ns3:TrackPointExtension>
        </extensions>
      </trkpt>
      <trkpt lat="42.62524388730525970458984375" lon="19.88019634969532489776611328125">
        <ele>1746.800048828125</ele>
        <time>2026-06-16T08:45:44.000Z</time>
        <extensions>
          <ns3:TrackPointExtension>
            <ns3:atemp>17.0</ns3:atemp>
          </ns3:TrackPointExtension>
        </extensions>
      </trkpt>
      <trkpt lat="42.625228129327297210693359375" lon="19.8802085034549236297607421875">
        <ele>1746.800048828125</ele>
        <time>2026-06-16T08:45:45.000Z</time>
        <extensions>
          <ns3:TrackPointExtension>
            <ns3:atemp>17.0</ns3:atemp>
          </ns3:TrackPointExtension>
        </extensions>
      </trkpt>
      <trkpt lat="42.625209353864192962646484375" lon="19.88021864555776119232177734375">
        <ele>1746.800048828125</ele>
        <time>2026-06-16T08:45:46.000Z</time>
        <extensions>
          <ns3:TrackPointExtension>
            <ns3:atemp>17.0</ns3:atemp>
          </ns3:TrackPointExtension>
        </extensions>
      </trkpt>
      <trkpt lat="42.62519636191427707672119140625" lon="19.88022551871836185455322265625">
        <ele>1746.800048828125</ele>
        <time>2026-06-16T08:45:47.000Z</time>
        <extensions>
          <ns3:TrackPointExtension>
            <ns3:atemp>17.0</ns3:atemp>
          </ns3:TrackPointExtension>
        </extensions>
      </trkpt>
      <trkpt lat="42.6251850463449954986572265625" lon="19.88023758865892887115478515625">
        <ele>1746.800048828125</ele>
        <time>2026-06-16T08:45:48.000Z</time>
        <extensions>
          <ns3:TrackPointExtension>
            <ns3:atemp>17.0</ns3:atemp>
          </ns3:TrackPointExtension>
        </extensions>
      </trkpt>
      <trkpt lat="42.62517088092863559722900390625" lon="19.8802448809146881103515625">
        <ele>1747</ele>
        <time>2026-06-16T08:45:49.000Z</time>
        <extensions>
          <ns3:TrackPointExtension>
            <ns3:atemp>17.0</ns3:atemp>
          </ns3:TrackPointExtension>
        </extensions>
      </trkpt>
      <trkpt lat="42.625159062445163726806640625" lon="19.88025535829365253448486328125">
        <ele>1747</ele>
        <time>2026-06-16T08:45:50.000Z</time>
        <extensions>
          <ns3:TrackPointExtension>
            <ns3:atemp>17.0</ns3:atemp>
          </ns3:TrackPointExtension>
        </extensions>
      </trkpt>
      <trkpt lat="42.62514120899140834808349609375" lon="19.88026156090199947357177734375">
        <ele>1747</ele>
        <time>2026-06-16T08:45:51.000Z</time>
        <extensions>
          <ns3:TrackPointExtension>
            <ns3:atemp>17.0</ns3:atemp>
          </ns3:TrackPointExtension>
        </extensions>
      </trkpt>
      <trkpt lat="42.6251233555376529693603515625" lon="19.880276061594486236572265625">
        <ele>1747</ele>
        <time>2026-06-16T08:45:52.000Z</time>
        <extensions>
          <ns3:TrackPointExtension>
            <ns3:atemp>17.0</ns3:atemp>
          </ns3:TrackPointExtension>
        </extensions>
      </trkpt>
      <trkpt lat="42.6251079328358173370361328125" lon="19.8802903108298778533935546875">
        <ele>1747</ele>
        <time>2026-06-16T08:45:53.000Z</time>
        <extensions>
          <ns3:TrackPointExtension>
            <ns3:atemp>17.0</ns3:atemp>
          </ns3:TrackPointExtension>
        </extensions>
      </trkpt>
      <trkpt lat="42.6250931806862354278564453125" lon="19.8802963458001613616943359375">
        <ele>1747</ele>
        <time>2026-06-16T08:45:54.000Z</time>
        <extensions>
          <ns3:TrackPointExtension>
            <ns3:atemp>17.0</ns3:atemp>
          </ns3:TrackPointExtension>
        </extensions>
      </trkpt>
      <trkpt lat="42.6250814460217952728271484375" lon="19.88030321896076202392578125">
        <ele>1747</ele>
        <time>2026-06-16T08:45:55.000Z</time>
        <extensions>
          <ns3:TrackPointExtension>
            <ns3:atemp>17.0</ns3:atemp>
          </ns3:TrackPointExtension>
        </extensions>
      </trkpt>
      <trkpt lat="42.62507700361311435699462890625" lon="19.8803010396659374237060546875">
        <ele>1747.199951171875</ele>
        <time>2026-06-16T08:45:56.000Z</time>
        <extensions>
          <ns3:TrackPointExtension>
            <ns3:atemp>17.0</ns3:atemp>
          </ns3:TrackPointExtension>
        </extensions>
      </trkpt>
      <trkpt lat="42.62506929226219654083251953125" lon="19.88030112348496913909912109375">
        <ele>1747.199951171875</ele>
        <time>2026-06-16T08:45:57.000Z</time>
        <extensions>
          <ns3:TrackPointExtension>
            <ns3:atemp>17.0</ns3:atemp>
          </ns3:TrackPointExtension>
        </extensions>
      </trkpt>
      <trkpt lat="42.62506945990025997161865234375" lon="19.88030095584690570831298828125">
        <ele>1747.4000244140625</ele>
        <time>2026-06-16T08:45:58.000Z</time>
        <extensions>
          <ns3:TrackPointExtension>
            <ns3:atemp>17.0</ns3:atemp>
          </ns3:TrackPointExtension>
        </extensions>
      </trkpt>
      <trkpt lat="42.62506945990025997161865234375" lon="19.88030095584690570831298828125">
        <ele>1747.4000244140625</ele>
        <time>2026-06-16T08:45:59.000Z</time>
        <extensions>
          <ns3:TrackPointExtension>
            <ns3:atemp>17.0</ns3:atemp>
          </ns3:TrackPointExtension>
        </extensions>
      </trkpt>
      <trkpt lat="42.62506945990025997161865234375" lon="19.88030095584690570831298828125">
        <ele>1747.4000244140625</ele>
        <time>2026-06-16T08:46:00.000Z</time>
        <extensions>
          <ns3:TrackPointExtension>
            <ns3:atemp>17.0</ns3:atemp>
          </ns3:TrackPointExtension>
        </extensions>
      </trkpt>
      <trkpt lat="42.62506945990025997161865234375" lon="19.88030095584690570831298828125">
        <ele>1747.4000244140625</ele>
        <time>2026-06-16T08:46:01.000Z</time>
        <extensions>
          <ns3:TrackPointExtension>
            <ns3:atemp>17.0</ns3:atemp>
          </ns3:TrackPointExtension>
        </extensions>
      </trkpt>
      <trkpt lat="42.62506945990025997161865234375" lon="19.88030095584690570831298828125">
        <ele>1747.4000244140625</ele>
        <time>2026-06-16T08:46:02.000Z</time>
        <extensions>
          <ns3:TrackPointExtension>
            <ns3:atemp>17.0</ns3:atemp>
          </ns3:TrackPointExtension>
        </extensions>
      </trkpt>
      <trkpt lat="42.62506945990025997161865234375" lon="19.88030095584690570831298828125">
        <ele>1747.4000244140625</ele>
        <time>2026-06-16T08:46:03.000Z</time>
        <extensions>
          <ns3:TrackPointExtension>
            <ns3:atemp>17.0</ns3:atemp>
          </ns3:TrackPointExtension>
        </extensions>
      </trkpt>
      <trkpt lat="42.62506945990025997161865234375" lon="19.88030095584690570831298828125">
        <ele>1747.4000244140625</ele>
        <time>2026-06-16T08:46:04.000Z</time>
        <extensions>
          <ns3:TrackPointExtension>
            <ns3:atemp>17.0</ns3:atemp>
          </ns3:TrackPointExtension>
        </extensions>
      </trkpt>
      <trkpt lat="42.62506945990025997161865234375" lon="19.88030095584690570831298828125">
        <ele>1747.4000244140625</ele>
        <time>2026-06-16T08:46:05.000Z</time>
        <extensions>
          <ns3:TrackPointExtension>
            <ns3:atemp>17.0</ns3:atemp>
          </ns3:TrackPointExtension>
        </extensions>
      </trkpt>
      <trkpt lat="42.62506945990025997161865234375" lon="19.88030095584690570831298828125">
        <ele>1747.4000244140625</ele>
        <time>2026-06-16T08:46:06.000Z</time>
        <extensions>
          <ns3:TrackPointExtension>
            <ns3:atemp>17.0</ns3:atemp>
          </ns3:TrackPointExtension>
        </extensions>
      </trkpt>
      <trkpt lat="42.62506945990025997161865234375" lon="19.88030095584690570831298828125">
        <ele>1747.4000244140625</ele>
        <time>2026-06-16T08:46:07.000Z</time>
        <extensions>
          <ns3:TrackPointExtension>
            <ns3:atemp>17.0</ns3:atemp>
          </ns3:TrackPointExtension>
        </extensions>
      </trkpt>
      <trkpt lat="42.62506945990025997161865234375" lon="19.88030095584690570831298828125">
        <ele>1747.4000244140625</ele>
        <time>2026-06-16T08:46:08.000Z</time>
        <extensions>
          <ns3:TrackPointExtension>
            <ns3:atemp>17.0</ns3:atemp>
          </ns3:TrackPointExtension>
        </extensions>
      </trkpt>
      <trkpt lat="42.62506945990025997161865234375" lon="19.88030095584690570831298828125">
        <ele>1747.4000244140625</ele>
        <time>2026-06-16T08:46:09.000Z</time>
        <extensions>
          <ns3:TrackPointExtension>
            <ns3:atemp>17.0</ns3:atemp>
          </ns3:TrackPointExtension>
        </extensions>
      </trkpt>
      <trkpt lat="42.62506945990025997161865234375" lon="19.88030095584690570831298828125">
        <ele>1747.4000244140625</ele>
        <time>2026-06-16T08:46:10.000Z</time>
        <extensions>
          <ns3:TrackPointExtension>
            <ns3:atemp>17.0</ns3:atemp>
          </ns3:TrackPointExtension>
        </extensions>
      </trkpt>
      <trkpt lat="42.62506945990025997161865234375" lon="19.88030095584690570831298828125">
        <ele>1747.4000244140625</ele>
        <time>2026-06-16T08:46:11.000Z</time>
        <extensions>
          <ns3:TrackPointExtension>
            <ns3:atemp>17.0</ns3:atemp>
          </ns3:TrackPointExtension>
        </extensions>
      </trkpt>
      <trkpt lat="42.62506945990025997161865234375" lon="19.88030095584690570831298828125">
        <ele>1747.4000244140625</ele>
        <time>2026-06-16T08:46:12.000Z</time>
        <extensions>
          <ns3:TrackPointExtension>
            <ns3:atemp>17.0</ns3:atemp>
          </ns3:TrackPointExtension>
        </extensions>
      </trkpt>
      <trkpt lat="42.62506945990025997161865234375" lon="19.88030095584690570831298828125">
        <ele>1747.4000244140625</ele>
        <time>2026-06-16T08:46:13.000Z</time>
        <extensions>
          <ns3:TrackPointExtension>
            <ns3:atemp>17.0</ns3:atemp>
          </ns3:TrackPointExtension>
        </extensions>
      </trkpt>
      <trkpt lat="42.62506945990025997161865234375" lon="19.88030095584690570831298828125">
        <ele>1747.4000244140625</ele>
        <time>2026-06-16T08:46:14.000Z</time>
        <extensions>
          <ns3:TrackPointExtension>
            <ns3:atemp>17.0</ns3:atemp>
          </ns3:TrackPointExtension>
        </extensions>
      </trkpt>
      <trkpt lat="42.62506945990025997161865234375" lon="19.88030095584690570831298828125">
        <ele>1747.4000244140625</ele>
        <time>2026-06-16T08:46:15.000Z</time>
        <extensions>
          <ns3:TrackPointExtension>
            <ns3:atemp>17.0</ns3:atemp>
          </ns3:TrackPointExtension>
        </extensions>
      </trkpt>
      <trkpt lat="42.62506945990025997161865234375" lon="19.88030095584690570831298828125">
        <ele>1747.4000244140625</ele>
        <time>2026-06-16T08:46:16.000Z</time>
        <extensions>
          <ns3:TrackPointExtension>
            <ns3:atemp>17.0</ns3:atemp>
          </ns3:TrackPointExtension>
        </extensions>
      </trkpt>
      <trkpt lat="42.62506945990025997161865234375" lon="19.88030095584690570831298828125">
        <ele>1747.4000244140625</ele>
        <time>2026-06-16T08:46:17.000Z</time>
        <extensions>
          <ns3:TrackPointExtension>
            <ns3:atemp>17.0</ns3:atemp>
          </ns3:TrackPointExtension>
        </extensions>
      </trkpt>
      <trkpt lat="42.62506945990025997161865234375" lon="19.88030095584690570831298828125">
        <ele>1747.4000244140625</ele>
        <time>2026-06-16T08:46:18.000Z</time>
        <extensions>
          <ns3:TrackPointExtension>
            <ns3:atemp>17.0</ns3:atemp>
          </ns3:TrackPointExtension>
        </extensions>
      </trkpt>
      <trkpt lat="42.62506945990025997161865234375" lon="19.88030095584690570831298828125">
        <ele>1747.4000244140625</ele>
        <time>2026-06-16T08:46:19.000Z</time>
        <extensions>
          <ns3:TrackPointExtension>
            <ns3:atemp>17.0</ns3:atemp>
          </ns3:TrackPointExtension>
        </extensions>
      </trkpt>
      <trkpt lat="42.62506945990025997161865234375" lon="19.88030095584690570831298828125">
        <ele>1747.4000244140625</ele>
        <time>2026-06-16T08:46:20.000Z</time>
        <extensions>
          <ns3:TrackPointExtension>
            <ns3:atemp>17.0</ns3:atemp>
          </ns3:TrackPointExtension>
        </extensions>
      </trkpt>
      <trkpt lat="42.62506945990025997161865234375" lon="19.88030095584690570831298828125">
        <ele>1747.4000244140625</ele>
        <time>2026-06-16T08:46:21.000Z</time>
        <extensions>
          <ns3:TrackPointExtension>
            <ns3:atemp>17.0</ns3:atemp>
          </ns3:TrackPointExtension>
        </extensions>
      </trkpt>
      <trkpt lat="42.62506945990025997161865234375" lon="19.88030095584690570831298828125">
        <ele>1747.4000244140625</ele>
        <time>2026-06-16T08:46:22.000Z</time>
        <extensions>
          <ns3:TrackPointExtension>
            <ns3:atemp>17.0</ns3:atemp>
          </ns3:TrackPointExtension>
        </extensions>
      </trkpt>
      <trkpt lat="42.62506945990025997161865234375" lon="19.88030095584690570831298828125">
        <ele>1747.4000244140625</ele>
        <time>2026-06-16T08:46:23.000Z</time>
        <extensions>
          <ns3:TrackPointExtension>
            <ns3:atemp>17.0</ns3:atemp>
          </ns3:TrackPointExtension>
        </extensions>
      </trkpt>
      <trkpt lat="42.62506945990025997161865234375" lon="19.88030095584690570831298828125">
        <ele>1747.4000244140625</ele>
        <time>2026-06-16T08:46:24.000Z</time>
        <extensions>
          <ns3:TrackPointExtension>
            <ns3:atemp>17.0</ns3:atemp>
          </ns3:TrackPointExtension>
        </extensions>
      </trkpt>
      <trkpt lat="42.62506945990025997161865234375" lon="19.88030095584690570831298828125">
        <ele>1747.4000244140625</ele>
        <time>2026-06-16T08:46:25.000Z</time>
        <extensions>
          <ns3:TrackPointExtension>
            <ns3:atemp>16.0</ns3:atemp>
          </ns3:TrackPointExtension>
        </extensions>
      </trkpt>
      <trkpt lat="42.62506945990025997161865234375" lon="19.88030095584690570831298828125">
        <ele>1747.4000244140625</ele>
        <time>2026-06-16T08:46:26.000Z</time>
        <extensions>
          <ns3:TrackPointExtension>
            <ns3:atemp>16.0</ns3:atemp>
          </ns3:TrackPointExtension>
        </extensions>
      </trkpt>
      <trkpt lat="42.62506945990025997161865234375" lon="19.88030095584690570831298828125">
        <ele>1747.4000244140625</ele>
        <time>2026-06-16T08:46:27.000Z</time>
        <extensions>
          <ns3:TrackPointExtension>
            <ns3:atemp>16.0</ns3:atemp>
          </ns3:TrackPointExtension>
        </extensions>
      </trkpt>
      <trkpt lat="42.62506945990025997161865234375" lon="19.88030095584690570831298828125">
        <ele>1747.4000244140625</ele>
        <time>2026-06-16T08:46:28.000Z</time>
        <extensions>
          <ns3:TrackPointExtension>
            <ns3:atemp>16.0</ns3:atemp>
          </ns3:TrackPointExtension>
        </extensions>
      </trkpt>
      <trkpt lat="42.62506945990025997161865234375" lon="19.88030095584690570831298828125">
        <ele>1747.4000244140625</ele>
        <time>2026-06-16T08:46:29.000Z</time>
        <extensions>
          <ns3:TrackPointExtension>
            <ns3:atemp>16.0</ns3:atemp>
          </ns3:TrackPointExtension>
        </extensions>
      </trkpt>
      <trkpt lat="42.62506945990025997161865234375" lon="19.88030095584690570831298828125">
        <ele>1747.4000244140625</ele>
        <time>2026-06-16T08:46:30.000Z</time>
        <extensions>
          <ns3:TrackPointExtension>
            <ns3:atemp>16.0</ns3:atemp>
          </ns3:TrackPointExtension>
        </extensions>
      </trkpt>
      <trkpt lat="42.62506945990025997161865234375" lon="19.88030095584690570831298828125">
        <ele>1747.4000244140625</ele>
        <time>2026-06-16T08:46:31.000Z</time>
        <extensions>
          <ns3:TrackPointExtension>
            <ns3:atemp>16.0</ns3:atemp>
          </ns3:TrackPointExtension>
        </extensions>
      </trkpt>
      <trkpt lat="42.62506945990025997161865234375" lon="19.88030095584690570831298828125">
        <ele>1747.4000244140625</ele>
        <time>2026-06-16T08:46:32.000Z</time>
        <extensions>
          <ns3:TrackPointExtension>
            <ns3:atemp>16.0</ns3:atemp>
          </ns3:TrackPointExtension>
        </extensions>
      </trkpt>
      <trkpt lat="42.62506945990025997161865234375" lon="19.88030095584690570831298828125">
        <ele>1747.4000244140625</ele>
        <time>2026-06-16T08:46:33.000Z</time>
        <extensions>
          <ns3:TrackPointExtension>
            <ns3:atemp>16.0</ns3:atemp>
          </ns3:TrackPointExtension>
        </extensions>
      </trkpt>
      <trkpt lat="42.62506945990025997161865234375" lon="19.88030095584690570831298828125">
        <ele>1747.4000244140625</ele>
        <time>2026-06-16T08:46:34.000Z</time>
        <extensions>
          <ns3:TrackPointExtension>
            <ns3:atemp>16.0</ns3:atemp>
          </ns3:TrackPointExtension>
        </extensions>
      </trkpt>
      <trkpt lat="42.62506945990025997161865234375" lon="19.88030095584690570831298828125">
        <ele>1747.4000244140625</ele>
        <time>2026-06-16T08:46:35.000Z</time>
        <extensions>
          <ns3:TrackPointExtension>
            <ns3:atemp>16.0</ns3:atemp>
          </ns3:TrackPointExtension>
        </extensions>
      </trkpt>
      <trkpt lat="42.62506945990025997161865234375" lon="19.88030095584690570831298828125">
        <ele>1747.4000244140625</ele>
        <time>2026-06-16T08:46:36.000Z</time>
        <extensions>
          <ns3:TrackPointExtension>
            <ns3:atemp>16.0</ns3:atemp>
          </ns3:TrackPointExtension>
        </extensions>
      </trkpt>
      <trkpt lat="42.62506945990025997161865234375" lon="19.88030095584690570831298828125">
        <ele>1747.4000244140625</ele>
        <time>2026-06-16T08:46:37.000Z</time>
        <extensions>
          <ns3:TrackPointExtension>
            <ns3:atemp>16.0</ns3:atemp>
          </ns3:TrackPointExtension>
        </extensions>
      </trkpt>
      <trkpt lat="42.62506945990025997161865234375" lon="19.88030095584690570831298828125">
        <ele>1747.4000244140625</ele>
        <time>2026-06-16T08:46:38.000Z</time>
        <extensions>
          <ns3:TrackPointExtension>
            <ns3:atemp>16.0</ns3:atemp>
          </ns3:TrackPointExtension>
        </extensions>
      </trkpt>
      <trkpt lat="42.62506945990025997161865234375" lon="19.88030095584690570831298828125">
        <ele>1747.4000244140625</ele>
        <time>2026-06-16T08:46:39.000Z</time>
        <extensions>
          <ns3:TrackPointExtension>
            <ns3:atemp>16.0</ns3:atemp>
          </ns3:TrackPointExtension>
        </extensions>
      </trkpt>
      <trkpt lat="42.62506945990025997161865234375" lon="19.88030095584690570831298828125">
        <ele>1747.4000244140625</ele>
        <time>2026-06-16T08:46:40.000Z</time>
        <extensions>
          <ns3:TrackPointExtension>
            <ns3:atemp>16.0</ns3:atemp>
          </ns3:TrackPointExtension>
        </extensions>
      </trkpt>
      <trkpt lat="42.62506945990025997161865234375" lon="19.88030095584690570831298828125">
        <ele>1747.4000244140625</ele>
        <time>2026-06-16T08:46:41.000Z</time>
        <extensions>
          <ns3:TrackPointExtension>
            <ns3:atemp>16.0</ns3:atemp>
          </ns3:TrackPointExtension>
        </extensions>
      </trkpt>
      <trkpt lat="42.62506945990025997161865234375" lon="19.88030095584690570831298828125">
        <ele>1747.4000244140625</ele>
        <time>2026-06-16T08:46:42.000Z</time>
        <extensions>
          <ns3:TrackPointExtension>
            <ns3:atemp>16.0</ns3:atemp>
          </ns3:TrackPointExtension>
        </extensions>
      </trkpt>
      <trkpt lat="42.62506945990025997161865234375" lon="19.88030095584690570831298828125">
        <ele>1747.4000244140625</ele>
        <time>2026-06-16T08:46:43.000Z</time>
        <extensions>
          <ns3:TrackPointExtension>
            <ns3:atemp>16.0</ns3:atemp>
          </ns3:TrackPointExtension>
        </extensions>
      </trkpt>
      <trkpt lat="42.62506945990025997161865234375" lon="19.88030095584690570831298828125">
        <ele>1747.4000244140625</ele>
        <time>2026-06-16T08:46:44.000Z</time>
        <extensions>
          <ns3:TrackPointExtension>
            <ns3:atemp>16.0</ns3:atemp>
          </ns3:TrackPointExtension>
        </extensions>
      </trkpt>
      <trkpt lat="42.62506945990025997161865234375" lon="19.88030095584690570831298828125">
        <ele>1747.4000244140625</ele>
        <time>2026-06-16T08:46:45.000Z</time>
        <extensions>
          <ns3:TrackPointExtension>
            <ns3:atemp>16.0</ns3:atemp>
          </ns3:TrackPointExtension>
        </extensions>
      </trkpt>
      <trkpt lat="42.62506945990025997161865234375" lon="19.88030095584690570831298828125">
        <ele>1747.4000244140625</ele>
        <time>2026-06-16T08:46:46.000Z</time>
        <extensions>
          <ns3:TrackPointExtension>
            <ns3:atemp>16.0</ns3:atemp>
          </ns3:TrackPointExtension>
        </extensions>
      </trkpt>
      <trkpt lat="42.62506945990025997161865234375" lon="19.88030095584690570831298828125">
        <ele>1747.4000244140625</ele>
        <time>2026-06-16T08:46:47.000Z</time>
        <extensions>
          <ns3:TrackPointExtension>
            <ns3:atemp>16.0</ns3:atemp>
          </ns3:TrackPointExtension>
        </extensions>
      </trkpt>
      <trkpt lat="42.62506945990025997161865234375" lon="19.88030095584690570831298828125">
        <ele>1747.4000244140625</ele>
        <time>2026-06-16T08:46:48.000Z</time>
        <extensions>
          <ns3:TrackPointExtension>
            <ns3:atemp>16.0</ns3:atemp>
          </ns3:TrackPointExtension>
        </extensions>
      </trkpt>
      <trkpt lat="42.62506945990025997161865234375" lon="19.88030095584690570831298828125">
        <ele>1747.4000244140625</ele>
        <time>2026-06-16T08:46:49.000Z</time>
        <extensions>
          <ns3:TrackPointExtension>
            <ns3:atemp>16.0</ns3:atemp>
          </ns3:TrackPointExtension>
        </extensions>
      </trkpt>
      <trkpt lat="42.62506945990025997161865234375" lon="19.88030095584690570831298828125">
        <ele>1747.4000244140625</ele>
        <time>2026-06-16T08:46:50.000Z</time>
        <extensions>
          <ns3:TrackPointExtension>
            <ns3:atemp>16.0</ns3:atemp>
          </ns3:TrackPointExtension>
        </extensions>
      </trkpt>
      <trkpt lat="42.62506945990025997161865234375" lon="19.88030095584690570831298828125">
        <ele>1747.4000244140625</ele>
        <time>2026-06-16T08:46:51.000Z</time>
        <extensions>
          <ns3:TrackPointExtension>
            <ns3:atemp>16.0</ns3:atemp>
          </ns3:TrackPointExtension>
        </extensions>
      </trkpt>
      <trkpt lat="42.62506945990025997161865234375" lon="19.88030095584690570831298828125">
        <ele>1747.4000244140625</ele>
        <time>2026-06-16T08:46:52.000Z</time>
        <extensions>
          <ns3:TrackPointExtension>
            <ns3:atemp>16.0</ns3:atemp>
          </ns3:TrackPointExtension>
        </extensions>
      </trkpt>
      <trkpt lat="42.62506945990025997161865234375" lon="19.88030095584690570831298828125">
        <ele>1747.4000244140625</ele>
        <time>2026-06-16T08:46:53.000Z</time>
        <extensions>
          <ns3:TrackPointExtension>
            <ns3:atemp>16.0</ns3:atemp>
          </ns3:TrackPointExtension>
        </extensions>
      </trkpt>
      <trkpt lat="42.62506945990025997161865234375" lon="19.88030095584690570831298828125">
        <ele>1747.4000244140625</ele>
        <time>2026-06-16T08:46:54.000Z</time>
        <extensions>
          <ns3:TrackPointExtension>
            <ns3:atemp>16.0</ns3:atemp>
          </ns3:TrackPointExtension>
        </extensions>
      </trkpt>
      <trkpt lat="42.62506945990025997161865234375" lon="19.88030095584690570831298828125">
        <ele>1747.4000244140625</ele>
        <time>2026-06-16T08:46:55.000Z</time>
        <extensions>
          <ns3:TrackPointExtension>
            <ns3:atemp>16.0</ns3:atemp>
          </ns3:TrackPointExtension>
        </extensions>
      </trkpt>
      <trkpt lat="42.62506945990025997161865234375" lon="19.88030095584690570831298828125">
        <ele>1747.4000244140625</ele>
        <time>2026-06-16T08:46:56.000Z</time>
        <extensions>
          <ns3:TrackPointExtension>
            <ns3:atemp>16.0</ns3:atemp>
          </ns3:TrackPointExtension>
        </extensions>
      </trkpt>
      <trkpt lat="42.62506945990025997161865234375" lon="19.88030095584690570831298828125">
        <ele>1747.4000244140625</ele>
        <time>2026-06-16T08:46:57.000Z</time>
        <extensions>
          <ns3:TrackPointExtension>
            <ns3:atemp>16.0</ns3:atemp>
          </ns3:TrackPointExtension>
        </extensions>
      </trkpt>
      <trkpt lat="42.62506945990025997161865234375" lon="19.88030095584690570831298828125">
        <ele>1747.4000244140625</ele>
        <time>2026-06-16T08:46:58.000Z</time>
        <extensions>
          <ns3:TrackPointExtension>
            <ns3:atemp>16.0</ns3:atemp>
          </ns3:TrackPointExtension>
        </extensions>
      </trkpt>
      <trkpt lat="42.62506945990025997161865234375" lon="19.88030095584690570831298828125">
        <ele>1747.4000244140625</ele>
        <time>2026-06-16T08:46:59.000Z</time>
        <extensions>
          <ns3:TrackPointExtension>
            <ns3:atemp>16.0</ns3:atemp>
          </ns3:TrackPointExtension>
        </extensions>
      </trkpt>
      <trkpt lat="42.62506945990025997161865234375" lon="19.88030095584690570831298828125">
        <ele>1747.4000244140625</ele>
        <time>2026-06-16T08:47:00.000Z</time>
        <extensions>
          <ns3:TrackPointExtension>
            <ns3:atemp>16.0</ns3:atemp>
          </ns3:TrackPointExtension>
        </extensions>
      </trkpt>
      <trkpt lat="42.62506945990025997161865234375" lon="19.88030095584690570831298828125">
        <ele>1747.4000244140625</ele>
        <time>2026-06-16T08:47:01.000Z</time>
        <extensions>
          <ns3:TrackPointExtension>
            <ns3:atemp>16.0</ns3:atemp>
          </ns3:TrackPointExtension>
        </extensions>
      </trkpt>
      <trkpt lat="42.62506945990025997161865234375" lon="19.88030095584690570831298828125">
        <ele>1747.4000244140625</ele>
        <time>2026-06-16T08:47:02.000Z</time>
        <extensions>
          <ns3:TrackPointExtension>
            <ns3:atemp>16.0</ns3:atemp>
          </ns3:TrackPointExtension>
        </extensions>
      </trkpt>
      <trkpt lat="42.62506945990025997161865234375" lon="19.88030095584690570831298828125">
        <ele>1747.4000244140625</ele>
        <time>2026-06-16T08:47:03.000Z</time>
        <extensions>
          <ns3:TrackPointExtension>
            <ns3:atemp>16.0</ns3:atemp>
          </ns3:TrackPointExtension>
        </extensions>
      </trkpt>
      <trkpt lat="42.62506945990025997161865234375" lon="19.88030095584690570831298828125">
        <ele>1747.4000244140625</ele>
        <time>2026-06-16T08:47:04.000Z</time>
        <extensions>
          <ns3:TrackPointExtension>
            <ns3:atemp>16.0</ns3:atemp>
          </ns3:TrackPointExtension>
        </extensions>
      </trkpt>
      <trkpt lat="42.62506945990025997161865234375" lon="19.88030095584690570831298828125">
        <ele>1747.4000244140625</ele>
        <time>2026-06-16T08:47:05.000Z</time>
        <extensions>
          <ns3:TrackPointExtension>
            <ns3:atemp>16.0</ns3:atemp>
          </ns3:TrackPointExtension>
        </extensions>
      </trkpt>
      <trkpt lat="42.62506945990025997161865234375" lon="19.88030095584690570831298828125">
        <ele>1747.4000244140625</ele>
        <time>2026-06-16T08:47:06.000Z</time>
        <extensions>
          <ns3:TrackPointExtension>
            <ns3:atemp>16.0</ns3:atemp>
          </ns3:TrackPointExtension>
        </extensions>
      </trkpt>
      <trkpt lat="42.62506945990025997161865234375" lon="19.88030095584690570831298828125">
        <ele>1747.4000244140625</ele>
        <time>2026-06-16T08:47:07.000Z</time>
        <extensions>
          <ns3:TrackPointExtension>
            <ns3:atemp>16.0</ns3:atemp>
          </ns3:TrackPointExtension>
        </extensions>
      </trkpt>
      <trkpt lat="42.62506945990025997161865234375" lon="19.88030095584690570831298828125">
        <ele>1747.4000244140625</ele>
        <time>2026-06-16T08:47:08.000Z</time>
        <extensions>
          <ns3:TrackPointExtension>
            <ns3:atemp>16.0</ns3:atemp>
          </ns3:TrackPointExtension>
        </extensions>
      </trkpt>
      <trkpt lat="42.62506945990025997161865234375" lon="19.88030095584690570831298828125">
        <ele>1747.4000244140625</ele>
        <time>2026-06-16T08:47:09.000Z</time>
        <extensions>
          <ns3:TrackPointExtension>
            <ns3:atemp>16.0</ns3:atemp>
          </ns3:TrackPointExtension>
        </extensions>
      </trkpt>
      <trkpt lat="42.62506945990025997161865234375" lon="19.88030095584690570831298828125">
        <ele>1747.4000244140625</ele>
        <time>2026-06-16T08:47:10.000Z</time>
        <extensions>
          <ns3:TrackPointExtension>
            <ns3:atemp>16.0</ns3:atemp>
          </ns3:TrackPointExtension>
        </extensions>
      </trkpt>
      <trkpt lat="42.62506945990025997161865234375" lon="19.88030095584690570831298828125">
        <ele>1747.4000244140625</ele>
        <time>2026-06-16T08:47:11.000Z</time>
        <extensions>
          <ns3:TrackPointExtension>
            <ns3:atemp>16.0</ns3:atemp>
          </ns3:TrackPointExtension>
        </extensions>
      </trkpt>
      <trkpt lat="42.62506945990025997161865234375" lon="19.88030095584690570831298828125">
        <ele>1747.4000244140625</ele>
        <time>2026-06-16T08:47:12.000Z</time>
        <extensions>
          <ns3:TrackPointExtension>
            <ns3:atemp>16.0</ns3:atemp>
          </ns3:TrackPointExtension>
        </extensions>
      </trkpt>
      <trkpt lat="42.62506945990025997161865234375" lon="19.88030095584690570831298828125">
        <ele>1747.4000244140625</ele>
        <time>2026-06-16T08:47:13.000Z</time>
        <extensions>
          <ns3:TrackPointExtension>
            <ns3:atemp>16.0</ns3:atemp>
          </ns3:TrackPointExtension>
        </extensions>
      </trkpt>
      <trkpt lat="42.62506945990025997161865234375" lon="19.88030095584690570831298828125">
        <ele>1747.4000244140625</ele>
        <time>2026-06-16T08:47:14.000Z</time>
        <extensions>
          <ns3:TrackPointExtension>
            <ns3:atemp>16.0</ns3:atemp>
          </ns3:TrackPointExtension>
        </extensions>
      </trkpt>
      <trkpt lat="42.62506945990025997161865234375" lon="19.88030095584690570831298828125">
        <ele>1747.4000244140625</ele>
        <time>2026-06-16T08:47:15.000Z</time>
        <extensions>
          <ns3:TrackPointExtension>
            <ns3:atemp>16.0</ns3:atemp>
          </ns3:TrackPointExtension>
        </extensions>
      </trkpt>
      <trkpt lat="42.62506945990025997161865234375" lon="19.88030095584690570831298828125">
        <ele>1747.4000244140625</ele>
        <time>2026-06-16T08:47:16.000Z</time>
        <extensions>
          <ns3:TrackPointExtension>
            <ns3:atemp>16.0</ns3:atemp>
          </ns3:TrackPointExtension>
        </extensions>
      </trkpt>
      <trkpt lat="42.62506945990025997161865234375" lon="19.88030095584690570831298828125">
        <ele>1747.4000244140625</ele>
        <time>2026-06-16T08:47:17.000Z</time>
        <extensions>
          <ns3:TrackPointExtension>
            <ns3:atemp>16.0</ns3:atemp>
          </ns3:TrackPointExtension>
        </extensions>
      </trkpt>
      <trkpt lat="42.62506945990025997161865234375" lon="19.88030095584690570831298828125">
        <ele>1747.4000244140625</ele>
        <time>2026-06-16T08:47:18.000Z</time>
        <extensions>
          <ns3:TrackPointExtension>
            <ns3:atemp>16.0</ns3:atemp>
          </ns3:TrackPointExtension>
        </extensions>
      </trkpt>
      <trkpt lat="42.62506945990025997161865234375" lon="19.88030095584690570831298828125">
        <ele>1747.4000244140625</ele>
        <time>2026-06-16T08:47:19.000Z</time>
        <extensions>
          <ns3:TrackPointExtension>
            <ns3:atemp>16.0</ns3:atemp>
          </ns3:TrackPointExtension>
        </extensions>
      </trkpt>
      <trkpt lat="42.62506945990025997161865234375" lon="19.88030095584690570831298828125">
        <ele>1747.4000244140625</ele>
        <time>2026-06-16T08:47:20.000Z</time>
        <extensions>
          <ns3:TrackPointExtension>
            <ns3:atemp>16.0</ns3:atemp>
          </ns3:TrackPointExtension>
        </extensions>
      </trkpt>
      <trkpt lat="42.62506945990025997161865234375" lon="19.88030095584690570831298828125">
        <ele>1747.4000244140625</ele>
        <time>2026-06-16T08:47:21.000Z</time>
        <extensions>
          <ns3:TrackPointExtension>
            <ns3:atemp>16.0</ns3:atemp>
          </ns3:TrackPointExtension>
        </extensions>
      </trkpt>
      <trkpt lat="42.62506945990025997161865234375" lon="19.88030095584690570831298828125">
        <ele>1747.4000244140625</ele>
        <time>2026-06-16T08:47:22.000Z</time>
        <extensions>
          <ns3:TrackPointExtension>
            <ns3:atemp>16.0</ns3:atemp>
          </ns3:TrackPointExtension>
        </extensions>
      </trkpt>
      <trkpt lat="42.62506945990025997161865234375" lon="19.88030095584690570831298828125">
        <ele>1747.4000244140625</ele>
        <time>2026-06-16T08:47:23.000Z</time>
        <extensions>
          <ns3:TrackPointExtension>
            <ns3:atemp>16.0</ns3:atemp>
          </ns3:TrackPointExtension>
        </extensions>
      </trkpt>
      <trkpt lat="42.62506945990025997161865234375" lon="19.88030095584690570831298828125">
        <ele>1747.4000244140625</ele>
        <time>2026-06-16T08:47:24.000Z</time>
        <extensions>
          <ns3:TrackPointExtension>
            <ns3:atemp>16.0</ns3:atemp>
          </ns3:TrackPointExtension>
        </extensions>
      </trkpt>
      <trkpt lat="42.62506945990025997161865234375" lon="19.88030095584690570831298828125">
        <ele>1747.4000244140625</ele>
        <time>2026-06-16T08:47:25.000Z</time>
        <extensions>
          <ns3:TrackPointExtension>
            <ns3:atemp>16.0</ns3:atemp>
          </ns3:TrackPointExtension>
        </extensions>
      </trkpt>
      <trkpt lat="42.62506945990025997161865234375" lon="19.88030095584690570831298828125">
        <ele>1747.4000244140625</ele>
        <time>2026-06-16T08:47:26.000Z</time>
        <extensions>
          <ns3:TrackPointExtension>
            <ns3:atemp>16.0</ns3:atemp>
          </ns3:TrackPointExtension>
        </extensions>
      </trkpt>
      <trkpt lat="42.62506945990025997161865234375" lon="19.88030095584690570831298828125">
        <ele>1747.4000244140625</ele>
        <time>2026-06-16T08:47:27.000Z</time>
        <extensions>
          <ns3:TrackPointExtension>
            <ns3:atemp>16.0</ns3:atemp>
          </ns3:TrackPointExtension>
        </extensions>
      </trkpt>
      <trkpt lat="42.62506945990025997161865234375" lon="19.88030095584690570831298828125">
        <ele>1747.4000244140625</ele>
        <time>2026-06-16T08:47:28.000Z</time>
        <extensions>
          <ns3:TrackPointExtension>
            <ns3:atemp>16.0</ns3:atemp>
          </ns3:TrackPointExtension>
        </extensions>
      </trkpt>
      <trkpt lat="42.62506945990025997161865234375" lon="19.88030095584690570831298828125">
        <ele>1747.4000244140625</ele>
        <time>2026-06-16T08:47:29.000Z</time>
        <extensions>
          <ns3:TrackPointExtension>
            <ns3:atemp>16.0</ns3:atemp>
          </ns3:TrackPointExtension>
        </extensions>
      </trkpt>
      <trkpt lat="42.62506945990025997161865234375" lon="19.88030095584690570831298828125">
        <ele>1747.4000244140625</ele>
        <time>2026-06-16T08:47:30.000Z</time>
        <extensions>
          <ns3:TrackPointExtension>
            <ns3:atemp>16.0</ns3:atemp>
          </ns3:TrackPointExtension>
        </extensions>
      </trkpt>
      <trkpt lat="42.62506945990025997161865234375" lon="19.88030095584690570831298828125">
        <ele>1747.4000244140625</ele>
        <time>2026-06-16T08:47:31.000Z</time>
        <extensions>
          <ns3:TrackPointExtension>
            <ns3:atemp>16.0</ns3:atemp>
          </ns3:TrackPointExtension>
        </extensions>
      </trkpt>
      <trkpt lat="42.62506945990025997161865234375" lon="19.88030095584690570831298828125">
        <ele>1747.4000244140625</ele>
        <time>2026-06-16T08:47:32.000Z</time>
        <extensions>
          <ns3:TrackPointExtension>
            <ns3:atemp>16.0</ns3:atemp>
          </ns3:TrackPointExtension>
        </extensions>
      </trkpt>
      <trkpt lat="42.62506945990025997161865234375" lon="19.88030095584690570831298828125">
        <ele>1747.4000244140625</ele>
        <time>2026-06-16T08:47:33.000Z</time>
        <extensions>
          <ns3:TrackPointExtension>
            <ns3:atemp>16.0</ns3:atemp>
          </ns3:TrackPointExtension>
        </extensions>
      </trkpt>
      <trkpt lat="42.62506945990025997161865234375" lon="19.88030095584690570831298828125">
        <ele>1747.4000244140625</ele>
        <time>2026-06-16T08:47:34.000Z</time>
        <extensions>
          <ns3:TrackPointExtension>
            <ns3:atemp>16.0</ns3:atemp>
          </ns3:TrackPointExtension>
        </extensions>
      </trkpt>
      <trkpt lat="42.62506945990025997161865234375" lon="19.88030095584690570831298828125">
        <ele>1747.4000244140625</ele>
        <time>2026-06-16T08:47:35.000Z</time>
        <extensions>
          <ns3:TrackPointExtension>
            <ns3:atemp>16.0</ns3:atemp>
          </ns3:TrackPointExtension>
        </extensions>
      </trkpt>
      <trkpt lat="42.62506945990025997161865234375" lon="19.88030095584690570831298828125">
        <ele>1747.4000244140625</ele>
        <time>2026-06-16T08:47:36.000Z</time>
        <extensions>
          <ns3:TrackPointExtension>
            <ns3:atemp>16.0</ns3:atemp>
          </ns3:TrackPointExtension>
        </extensions>
      </trkpt>
      <trkpt lat="42.62506945990025997161865234375" lon="19.88030095584690570831298828125">
        <ele>1747.4000244140625</ele>
        <time>2026-06-16T08:47:37.000Z</time>
        <extensions>
          <ns3:TrackPointExtension>
            <ns3:atemp>16.0</ns3:atemp>
          </ns3:TrackPointExtension>
        </extensions>
      </trkpt>
      <trkpt lat="42.62506945990025997161865234375" lon="19.88030095584690570831298828125">
        <ele>1747.4000244140625</ele>
        <time>2026-06-16T08:47:38.000Z</time>
        <extensions>
          <ns3:TrackPointExtension>
            <ns3:atemp>16.0</ns3:atemp>
          </ns3:TrackPointExtension>
        </extensions>
      </trkpt>
      <trkpt lat="42.62506945990025997161865234375" lon="19.88030095584690570831298828125">
        <ele>1747.4000244140625</ele>
        <time>2026-06-16T08:47:39.000Z</time>
        <extensions>
          <ns3:TrackPointExtension>
            <ns3:atemp>16.0</ns3:atemp>
          </ns3:TrackPointExtension>
        </extensions>
      </trkpt>
      <trkpt lat="42.62506945990025997161865234375" lon="19.88030095584690570831298828125">
        <ele>1747.4000244140625</ele>
        <time>2026-06-16T08:47:40.000Z</time>
        <extensions>
          <ns3:TrackPointExtension>
            <ns3:atemp>16.0</ns3:atemp>
          </ns3:TrackPointExtension>
        </extensions>
      </trkpt>
      <trkpt lat="42.62506945990025997161865234375" lon="19.88030095584690570831298828125">
        <ele>1747.4000244140625</ele>
        <time>2026-06-16T08:47:41.000Z</time>
        <extensions>
          <ns3:TrackPointExtension>
            <ns3:atemp>16.0</ns3:atemp>
          </ns3:TrackPointExtension>
        </extensions>
      </trkpt>
      <trkpt lat="42.62506945990025997161865234375" lon="19.88030095584690570831298828125">
        <ele>1747.4000244140625</ele>
        <time>2026-06-16T08:47:42.000Z</time>
        <extensions>
          <ns3:TrackPointExtension>
            <ns3:atemp>16.0</ns3:atemp>
          </ns3:TrackPointExtension>
        </extensions>
      </trkpt>
      <trkpt lat="42.62506945990025997161865234375" lon="19.88030095584690570831298828125">
        <ele>1747.4000244140625</ele>
        <time>2026-06-16T08:47:43.000Z</time>
        <extensions>
          <ns3:TrackPointExtension>
            <ns3:atemp>16.0</ns3:atemp>
          </ns3:TrackPointExtension>
        </extensions>
      </trkpt>
      <trkpt lat="42.62506945990025997161865234375" lon="19.88030095584690570831298828125">
        <ele>1747.4000244140625</ele>
        <time>2026-06-16T08:47:44.000Z</time>
        <extensions>
          <ns3:TrackPointExtension>
            <ns3:atemp>16.0</ns3:atemp>
          </ns3:TrackPointExtension>
        </extensions>
      </trkpt>
      <trkpt lat="42.62506945990025997161865234375" lon="19.88030095584690570831298828125">
        <ele>1747.4000244140625</ele>
        <time>2026-06-16T08:47:45.000Z</time>
        <extensions>
          <ns3:TrackPointExtension>
            <ns3:atemp>16.0</ns3:atemp>
          </ns3:TrackPointExtension>
        </extensions>
      </trkpt>
      <trkpt lat="42.62506945990025997161865234375" lon="19.88030095584690570831298828125">
        <ele>1747.4000244140625</ele>
        <time>2026-06-16T08:47:46.000Z</time>
        <extensions>
          <ns3:TrackPointExtension>
            <ns3:atemp>16.0</ns3:atemp>
          </ns3:TrackPointExtension>
        </extensions>
      </trkpt>
      <trkpt lat="42.62506945990025997161865234375" lon="19.88030095584690570831298828125">
        <ele>1747.4000244140625</ele>
        <time>2026-06-16T08:47:47.000Z</time>
        <extensions>
          <ns3:TrackPointExtension>
            <ns3:atemp>16.0</ns3:atemp>
          </ns3:TrackPointExtension>
        </extensions>
      </trkpt>
      <trkpt lat="42.62506945990025997161865234375" lon="19.88030095584690570831298828125">
        <ele>1747.4000244140625</ele>
        <time>2026-06-16T08:47:48.000Z</time>
        <extensions>
          <ns3:TrackPointExtension>
            <ns3:atemp>16.0</ns3:atemp>
          </ns3:TrackPointExtension>
        </extensions>
      </trkpt>
      <trkpt lat="42.62506945990025997161865234375" lon="19.88030095584690570831298828125">
        <ele>1747.4000244140625</ele>
        <time>2026-06-16T08:47:49.000Z</time>
        <extensions>
          <ns3:TrackPointExtension>
            <ns3:atemp>16.0</ns3:atemp>
          </ns3:TrackPointExtension>
        </extensions>
      </trkpt>
      <trkpt lat="42.62506945990025997161865234375" lon="19.88030095584690570831298828125">
        <ele>1747.4000244140625</ele>
        <time>2026-06-16T08:47:50.000Z</time>
        <extensions>
          <ns3:TrackPointExtension>
            <ns3:atemp>16.0</ns3:atemp>
          </ns3:TrackPointExtension>
        </extensions>
      </trkpt>
      <trkpt lat="42.62506945990025997161865234375" lon="19.88030095584690570831298828125">
        <ele>1747.4000244140625</ele>
        <time>2026-06-16T08:47:51.000Z</time>
        <extensions>
          <ns3:TrackPointExtension>
            <ns3:atemp>16.0</ns3:atemp>
          </ns3:TrackPointExtension>
        </extensions>
      </trkpt>
      <trkpt lat="42.62506945990025997161865234375" lon="19.88030095584690570831298828125">
        <ele>1747.4000244140625</ele>
        <time>2026-06-16T08:47:52.000Z</time>
        <extensions>
          <ns3:TrackPointExtension>
            <ns3:atemp>16.0</ns3:atemp>
          </ns3:TrackPointExtension>
        </extensions>
      </trkpt>
      <trkpt lat="42.62506945990025997161865234375" lon="19.88030095584690570831298828125">
        <ele>1747.4000244140625</ele>
        <time>2026-06-16T08:47:53.000Z</time>
        <extensions>
          <ns3:TrackPointExtension>
            <ns3:atemp>16.0</ns3:atemp>
          </ns3:TrackPointExtension>
        </extensions>
      </trkpt>
      <trkpt lat="42.62506945990025997161865234375" lon="19.88030095584690570831298828125">
        <ele>1747.4000244140625</ele>
        <time>2026-06-16T08:47:54.000Z</time>
        <extensions>
          <ns3:TrackPointExtension>
            <ns3:atemp>16.0</ns3:atemp>
          </ns3:TrackPointExtension>
        </extensions>
      </trkpt>
      <trkpt lat="42.62506945990025997161865234375" lon="19.88030095584690570831298828125">
        <ele>1747.4000244140625</ele>
        <time>2026-06-16T08:47:55.000Z</time>
        <extensions>
          <ns3:TrackPointExtension>
            <ns3:atemp>16.0</ns3:atemp>
          </ns3:TrackPointExtension>
        </extensions>
      </trkpt>
      <trkpt lat="42.62506945990025997161865234375" lon="19.88030095584690570831298828125">
        <ele>1747.4000244140625</ele>
        <time>2026-06-16T08:47:56.000Z</time>
        <extensions>
          <ns3:TrackPointExtension>
            <ns3:atemp>16.0</ns3:atemp>
          </ns3:TrackPointExtension>
        </extensions>
      </trkpt>
      <trkpt lat="42.62506945990025997161865234375" lon="19.88030095584690570831298828125">
        <ele>1747.4000244140625</ele>
        <time>2026-06-16T08:47:57.000Z</time>
        <extensions>
          <ns3:TrackPointExtension>
            <ns3:atemp>16.0</ns3:atemp>
          </ns3:TrackPointExtension>
        </extensions>
      </trkpt>
      <trkpt lat="42.62506945990025997161865234375" lon="19.88030095584690570831298828125">
        <ele>1747.4000244140625</ele>
        <time>2026-06-16T08:47:58.000Z</time>
        <extensions>
          <ns3:TrackPointExtension>
            <ns3:atemp>16.0</ns3:atemp>
          </ns3:TrackPointExtension>
        </extensions>
      </trkpt>
      <trkpt lat="42.62506945990025997161865234375" lon="19.88030095584690570831298828125">
        <ele>1747.4000244140625</ele>
        <time>2026-06-16T08:47:59.000Z</time>
        <extensions>
          <ns3:TrackPointExtension>
            <ns3:atemp>16.0</ns3:atemp>
          </ns3:TrackPointExtension>
        </extensions>
      </trkpt>
      <trkpt lat="42.62506945990025997161865234375" lon="19.88030095584690570831298828125">
        <ele>1747.4000244140625</ele>
        <time>2026-06-16T08:48:00.000Z</time>
        <extensions>
          <ns3:TrackPointExtension>
            <ns3:atemp>17.0</ns3:atemp>
          </ns3:TrackPointExtension>
        </extensions>
      </trkpt>
      <trkpt lat="42.62506945990025997161865234375" lon="19.88030095584690570831298828125">
        <ele>1747.4000244140625</ele>
        <time>2026-06-16T08:48:01.000Z</time>
        <extensions>
          <ns3:TrackPointExtension>
            <ns3:atemp>16.0</ns3:atemp>
          </ns3:TrackPointExtension>
        </extensions>
      </trkpt>
      <trkpt lat="42.62506945990025997161865234375" lon="19.88030095584690570831298828125">
        <ele>1747.4000244140625</ele>
        <time>2026-06-16T08:48:02.000Z</time>
        <extensions>
          <ns3:TrackPointExtension>
            <ns3:atemp>16.0</ns3:atemp>
          </ns3:TrackPointExtension>
        </extensions>
      </trkpt>
      <trkpt lat="42.62506945990025997161865234375" lon="19.88030095584690570831298828125">
        <ele>1747.4000244140625</ele>
        <time>2026-06-16T08:48:03.000Z</time>
        <extensions>
          <ns3:TrackPointExtension>
            <ns3:atemp>17.0</ns3:atemp>
          </ns3:TrackPointExtension>
        </extensions>
      </trkpt>
      <trkpt lat="42.62506945990025997161865234375" lon="19.88030095584690570831298828125">
        <ele>1747.4000244140625</ele>
        <time>2026-06-16T08:48:04.000Z</time>
        <extensions>
          <ns3:TrackPointExtension>
            <ns3:atemp>17.0</ns3:atemp>
          </ns3:TrackPointExtension>
        </extensions>
      </trkpt>
      <trkpt lat="42.62506945990025997161865234375" lon="19.88030095584690570831298828125">
        <ele>1747.4000244140625</ele>
        <time>2026-06-16T08:48:05.000Z</time>
        <extensions>
          <ns3:TrackPointExtension>
            <ns3:atemp>17.0</ns3:atemp>
          </ns3:TrackPointExtension>
        </extensions>
      </trkpt>
      <trkpt lat="42.62506945990025997161865234375" lon="19.88030095584690570831298828125">
        <ele>1747.4000244140625</ele>
        <time>2026-06-16T08:48:06.000Z</time>
        <extensions>
          <ns3:TrackPointExtension>
            <ns3:atemp>17.0</ns3:atemp>
          </ns3:TrackPointExtension>
        </extensions>
      </trkpt>
      <trkpt lat="42.62506945990025997161865234375" lon="19.88030095584690570831298828125">
        <ele>1747.4000244140625</ele>
        <time>2026-06-16T08:48:07.000Z</time>
        <extensions>
          <ns3:TrackPointExtension>
            <ns3:atemp>17.0</ns3:atemp>
          </ns3:TrackPointExtension>
        </extensions>
      </trkpt>
      <trkpt lat="42.62506945990025997161865234375" lon="19.88030095584690570831298828125">
        <ele>1747.4000244140625</ele>
        <time>2026-06-16T08:48:08.000Z</time>
        <extensions>
          <ns3:TrackPointExtension>
            <ns3:atemp>17.0</ns3:atemp>
          </ns3:TrackPointExtension>
        </extensions>
      </trkpt>
      <trkpt lat="42.62506945990025997161865234375" lon="19.88030095584690570831298828125">
        <ele>1747.4000244140625</ele>
        <time>2026-06-16T08:48:09.000Z</time>
        <extensions>
          <ns3:TrackPointExtension>
            <ns3:atemp>17.0</ns3:atemp>
          </ns3:TrackPointExtension>
        </extensions>
      </trkpt>
      <trkpt lat="42.62506945990025997161865234375" lon="19.88030095584690570831298828125">
        <ele>1747.4000244140625</ele>
        <time>2026-06-16T08:48:10.000Z</time>
        <extensions>
          <ns3:TrackPointExtension>
            <ns3:atemp>17.0</ns3:atemp>
          </ns3:TrackPointExtension>
        </extensions>
      </trkpt>
      <trkpt lat="42.62506945990025997161865234375" lon="19.88030095584690570831298828125">
        <ele>1747.4000244140625</ele>
        <time>2026-06-16T08:48:11.000Z</time>
        <extensions>
          <ns3:TrackPointExtension>
            <ns3:atemp>17.0</ns3:atemp>
          </ns3:TrackPointExtension>
        </extensions>
      </trkpt>
      <trkpt lat="42.62506945990025997161865234375" lon="19.88030095584690570831298828125">
        <ele>1747.4000244140625</ele>
        <time>2026-06-16T08:48:12.000Z</time>
        <extensions>
          <ns3:TrackPointExtension>
            <ns3:atemp>17.0</ns3:atemp>
          </ns3:TrackPointExtension>
        </extensions>
      </trkpt>
      <trkpt lat="42.62506945990025997161865234375" lon="19.88030095584690570831298828125">
        <ele>1747.4000244140625</ele>
        <time>2026-06-16T08:48:13.000Z</time>
        <extensions>
          <ns3:TrackPointExtension>
            <ns3:atemp>17.0</ns3:atemp>
          </ns3:TrackPointExtension>
        </extensions>
      </trkpt>
      <trkpt lat="42.62506945990025997161865234375" lon="19.88030095584690570831298828125">
        <ele>1747.4000244140625</ele>
        <time>2026-06-16T08:48:14.000Z</time>
        <extensions>
          <ns3:TrackPointExtension>
            <ns3:atemp>17.0</ns3:atemp>
          </ns3:TrackPointExtension>
        </extensions>
      </trkpt>
      <trkpt lat="42.62506945990025997161865234375" lon="19.88030095584690570831298828125">
        <ele>1747.4000244140625</ele>
        <time>2026-06-16T08:48:15.000Z</time>
        <extensions>
          <ns3:TrackPointExtension>
            <ns3:atemp>17.0</ns3:atemp>
          </ns3:TrackPointExtension>
        </extensions>
      </trkpt>
      <trkpt lat="42.62506945990025997161865234375" lon="19.88030095584690570831298828125">
        <ele>1747.4000244140625</ele>
        <time>2026-06-16T08:48:16.000Z</time>
        <extensions>
          <ns3:TrackPointExtension>
            <ns3:atemp>17.0</ns3:atemp>
          </ns3:TrackPointExtension>
        </extensions>
      </trkpt>
      <trkpt lat="42.62506945990025997161865234375" lon="19.88030095584690570831298828125">
        <ele>1747.4000244140625</ele>
        <time>2026-06-16T08:48:17.000Z</time>
        <extensions>
          <ns3:TrackPointExtension>
            <ns3:atemp>17.0</ns3:atemp>
          </ns3:TrackPointExtension>
        </extensions>
      </trkpt>
      <trkpt lat="42.62506945990025997161865234375" lon="19.88030095584690570831298828125">
        <ele>1747.4000244140625</ele>
        <time>2026-06-16T08:48:18.000Z</time>
        <extensions>
          <ns3:TrackPointExtension>
            <ns3:atemp>17.0</ns3:atemp>
          </ns3:TrackPointExtension>
        </extensions>
      </trkpt>
      <trkpt lat="42.62506945990025997161865234375" lon="19.88030095584690570831298828125">
        <ele>1747.4000244140625</ele>
        <time>2026-06-16T08:48:19.000Z</time>
        <extensions>
          <ns3:TrackPointExtension>
            <ns3:atemp>17.0</ns3:atemp>
          </ns3:TrackPointExtension>
        </extensions>
      </trkpt>
      <trkpt lat="42.62506945990025997161865234375" lon="19.88030095584690570831298828125">
        <ele>1747.4000244140625</ele>
        <time>2026-06-16T08:48:20.000Z</time>
        <extensions>
          <ns3:TrackPointExtension>
            <ns3:atemp>17.0</ns3:atemp>
          </ns3:TrackPointExtension>
        </extensions>
      </trkpt>
      <trkpt lat="42.62506945990025997161865234375" lon="19.88030095584690570831298828125">
        <ele>1747.4000244140625</ele>
        <time>2026-06-16T08:48:21.000Z</time>
        <extensions>
          <ns3:TrackPointExtension>
            <ns3:atemp>17.0</ns3:atemp>
          </ns3:TrackPointExtension>
        </extensions>
      </trkpt>
      <trkpt lat="42.62506945990025997161865234375" lon="19.88030095584690570831298828125">
        <ele>1747.4000244140625</ele>
        <time>2026-06-16T08:48:22.000Z</time>
        <extensions>
          <ns3:TrackPointExtension>
            <ns3:atemp>17.0</ns3:atemp>
          </ns3:TrackPointExtension>
        </extensions>
      </trkpt>
      <trkpt lat="42.62506945990025997161865234375" lon="19.88030095584690570831298828125">
        <ele>1747.4000244140625</ele>
        <time>2026-06-16T08:48:23.000Z</time>
        <extensions>
          <ns3:TrackPointExtension>
            <ns3:atemp>17.0</ns3:atemp>
          </ns3:TrackPointExtension>
        </extensions>
      </trkpt>
      <trkpt lat="42.62506945990025997161865234375" lon="19.88030095584690570831298828125">
        <ele>1747.4000244140625</ele>
        <time>2026-06-16T08:48:24.000Z</time>
        <extensions>
          <ns3:TrackPointExtension>
            <ns3:atemp>17.0</ns3:atemp>
          </ns3:TrackPointExtension>
        </extensions>
      </trkpt>
      <trkpt lat="42.62506945990025997161865234375" lon="19.88030095584690570831298828125">
        <ele>1747.4000244140625</ele>
        <time>2026-06-16T08:48:25.000Z</time>
        <extensions>
          <ns3:TrackPointExtension>
            <ns3:atemp>17.0</ns3:atemp>
          </ns3:TrackPointExtension>
        </extensions>
      </trkpt>
      <trkpt lat="42.62506945990025997161865234375" lon="19.88030095584690570831298828125">
        <ele>1747.4000244140625</ele>
        <time>2026-06-16T08:48:26.000Z</time>
        <extensions>
          <ns3:TrackPointExtension>
            <ns3:atemp>17.0</ns3:atemp>
          </ns3:TrackPointExtension>
        </extensions>
      </trkpt>
      <trkpt lat="42.62506945990025997161865234375" lon="19.88030095584690570831298828125">
        <ele>1747.4000244140625</ele>
        <time>2026-06-16T08:48:27.000Z</time>
        <extensions>
          <ns3:TrackPointExtension>
            <ns3:atemp>17.0</ns3:atemp>
          </ns3:TrackPointExtension>
        </extensions>
      </trkpt>
      <trkpt lat="42.62506945990025997161865234375" lon="19.88030095584690570831298828125">
        <ele>1747.4000244140625</ele>
        <time>2026-06-16T08:48:28.000Z</time>
        <extensions>
          <ns3:TrackPointExtension>
            <ns3:atemp>17.0</ns3:atemp>
          </ns3:TrackPointExtension>
        </extensions>
      </trkpt>
      <trkpt lat="42.62506945990025997161865234375" lon="19.88030095584690570831298828125">
        <ele>1747.4000244140625</ele>
        <time>2026-06-16T08:48:29.000Z</time>
        <extensions>
          <ns3:TrackPointExtension>
            <ns3:atemp>17.0</ns3:atemp>
          </ns3:TrackPointExtension>
        </extensions>
      </trkpt>
      <trkpt lat="42.62506945990025997161865234375" lon="19.88030095584690570831298828125">
        <ele>1747.4000244140625</ele>
        <time>2026-06-16T08:48:30.000Z</time>
        <extensions>
          <ns3:TrackPointExtension>
            <ns3:atemp>17.0</ns3:atemp>
          </ns3:TrackPointExtension>
        </extensions>
      </trkpt>
      <trkpt lat="42.62506945990025997161865234375" lon="19.88030095584690570831298828125">
        <ele>1747.4000244140625</ele>
        <time>2026-06-16T08:48:31.000Z</time>
        <extensions>
          <ns3:TrackPointExtension>
            <ns3:atemp>17.0</ns3:atemp>
          </ns3:TrackPointExtension>
        </extensions>
      </trkpt>
      <trkpt lat="42.62506945990025997161865234375" lon="19.88030095584690570831298828125">
        <ele>1747.4000244140625</ele>
        <time>2026-06-16T08:48:32.000Z</time>
        <extensions>
          <ns3:TrackPointExtension>
            <ns3:atemp>17.0</ns3:atemp>
          </ns3:TrackPointExtension>
        </extensions>
      </trkpt>
      <trkpt lat="42.62506945990025997161865234375" lon="19.88030095584690570831298828125">
        <ele>1747.4000244140625</ele>
        <time>2026-06-16T08:48:33.000Z</time>
        <extensions>
          <ns3:TrackPointExtension>
            <ns3:atemp>17.0</ns3:atemp>
          </ns3:TrackPointExtension>
        </extensions>
      </trkpt>
      <trkpt lat="42.62506945990025997161865234375" lon="19.88030095584690570831298828125">
        <ele>1747.4000244140625</ele>
        <time>2026-06-16T08:48:34.000Z</time>
        <extensions>
          <ns3:TrackPointExtension>
            <ns3:atemp>17.0</ns3:atemp>
          </ns3:TrackPointExtension>
        </extensions>
      </trkpt>
      <trkpt lat="42.62506945990025997161865234375" lon="19.88030095584690570831298828125">
        <ele>1747.4000244140625</ele>
        <time>2026-06-16T08:48:35.000Z</time>
        <extensions>
          <ns3:TrackPointExtension>
            <ns3:atemp>17.0</ns3:atemp>
          </ns3:TrackPointExtension>
        </extensions>
      </trkpt>
      <trkpt lat="42.62506945990025997161865234375" lon="19.88030095584690570831298828125">
        <ele>1747.4000244140625</ele>
        <time>2026-06-16T08:48:36.000Z</time>
        <extensions>
          <ns3:TrackPointExtension>
            <ns3:atemp>17.0</ns3:atemp>
          </ns3:TrackPointExtension>
        </extensions>
      </trkpt>
      <trkpt lat="42.62506945990025997161865234375" lon="19.88030095584690570831298828125">
        <ele>1747.4000244140625</ele>
        <time>2026-06-16T08:48:37.000Z</time>
        <extensions>
          <ns3:TrackPointExtension>
            <ns3:atemp>17.0</ns3:atemp>
          </ns3:TrackPointExtension>
        </extensions>
      </trkpt>
      <trkpt lat="42.62506945990025997161865234375" lon="19.88030095584690570831298828125">
        <ele>1747.4000244140625</ele>
        <time>2026-06-16T08:48:38.000Z</time>
        <extensions>
          <ns3:TrackPointExtension>
            <ns3:atemp>17.0</ns3:atemp>
          </ns3:TrackPointExtension>
        </extensions>
      </trkpt>
      <trkpt lat="42.62506945990025997161865234375" lon="19.88030095584690570831298828125">
        <ele>1747.4000244140625</ele>
        <time>2026-06-16T08:48:39.000Z</time>
        <extensions>
          <ns3:TrackPointExtension>
            <ns3:atemp>17.0</ns3:atemp>
          </ns3:TrackPointExtension>
        </extensions>
      </trkpt>
      <trkpt lat="42.62506945990025997161865234375" lon="19.88030095584690570831298828125">
        <ele>1747.4000244140625</ele>
        <time>2026-06-16T08:48:40.000Z</time>
        <extensions>
          <ns3:TrackPointExtension>
            <ns3:atemp>17.0</ns3:atemp>
          </ns3:TrackPointExtension>
        </extensions>
      </trkpt>
      <trkpt lat="42.62506945990025997161865234375" lon="19.88030095584690570831298828125">
        <ele>1747.4000244140625</ele>
        <time>2026-06-16T08:48:41.000Z</time>
        <extensions>
          <ns3:TrackPointExtension>
            <ns3:atemp>17.0</ns3:atemp>
          </ns3:TrackPointExtension>
        </extensions>
      </trkpt>
      <trkpt lat="42.62506945990025997161865234375" lon="19.88030095584690570831298828125">
        <ele>1747.4000244140625</ele>
        <time>2026-06-16T08:48:42.000Z</time>
        <extensions>
          <ns3:TrackPointExtension>
            <ns3:atemp>17.0</ns3:atemp>
          </ns3:TrackPointExtension>
        </extensions>
      </trkpt>
      <trkpt lat="42.62506945990025997161865234375" lon="19.88030095584690570831298828125">
        <ele>1747.4000244140625</ele>
        <time>2026-06-16T08:48:43.000Z</time>
        <extensions>
          <ns3:TrackPointExtension>
            <ns3:atemp>17.0</ns3:atemp>
          </ns3:TrackPointExtension>
        </extensions>
      </trkpt>
      <trkpt lat="42.62506945990025997161865234375" lon="19.88030095584690570831298828125">
        <ele>1747.4000244140625</ele>
        <time>2026-06-16T08:48:44.000Z</time>
        <extensions>
          <ns3:TrackPointExtension>
            <ns3:atemp>17.0</ns3:atemp>
          </ns3:TrackPointExtension>
        </extensions>
      </trkpt>
      <trkpt lat="42.62506945990025997161865234375" lon="19.88030095584690570831298828125">
        <ele>1747.4000244140625</ele>
        <time>2026-06-16T08:48:45.000Z</time>
        <extensions>
          <ns3:TrackPointExtension>
            <ns3:atemp>17.0</ns3:atemp>
          </ns3:TrackPointExtension>
        </extensions>
      </trkpt>
      <trkpt lat="42.62506945990025997161865234375" lon="19.88030095584690570831298828125">
        <ele>1747.4000244140625</ele>
        <time>2026-06-16T08:48:46.000Z</time>
        <extensions>
          <ns3:TrackPointExtension>
            <ns3:atemp>17.0</ns3:atemp>
          </ns3:TrackPointExtension>
        </extensions>
      </trkpt>
      <trkpt lat="42.62506945990025997161865234375" lon="19.88030095584690570831298828125">
        <ele>1747.4000244140625</ele>
        <time>2026-06-16T08:48:47.000Z</time>
        <extensions>
          <ns3:TrackPointExtension>
            <ns3:atemp>17.0</ns3:atemp>
          </ns3:TrackPointExtension>
        </extensions>
      </trkpt>
      <trkpt lat="42.62506945990025997161865234375" lon="19.88030095584690570831298828125">
        <ele>1747.4000244140625</ele>
        <time>2026-06-16T08:48:48.000Z</time>
        <extensions>
          <ns3:TrackPointExtension>
            <ns3:atemp>17.0</ns3:atemp>
          </ns3:TrackPointExtension>
        </extensions>
      </trkpt>
      <trkpt lat="42.62506945990025997161865234375" lon="19.88030095584690570831298828125">
        <ele>1747.4000244140625</ele>
        <time>2026-06-16T08:48:49.000Z</time>
        <extensions>
          <ns3:TrackPointExtension>
            <ns3:atemp>17.0</ns3:atemp>
          </ns3:TrackPointExtension>
        </extensions>
      </trkpt>
      <trkpt lat="42.62506945990025997161865234375" lon="19.88030095584690570831298828125">
        <ele>1747.4000244140625</ele>
        <time>2026-06-16T08:48:50.000Z</time>
        <extensions>
          <ns3:TrackPointExtension>
            <ns3:atemp>17.0</ns3:atemp>
          </ns3:TrackPointExtension>
        </extensions>
      </trkpt>
      <trkpt lat="42.62506945990025997161865234375" lon="19.88030095584690570831298828125">
        <ele>1747.4000244140625</ele>
        <time>2026-06-16T08:48:51.000Z</time>
        <extensions>
          <ns3:TrackPointExtension>
            <ns3:atemp>17.0</ns3:atemp>
          </ns3:TrackPointExtension>
        </extensions>
      </trkpt>
      <trkpt lat="42.62506945990025997161865234375" lon="19.88030095584690570831298828125">
        <ele>1747.4000244140625</ele>
        <time>2026-06-16T08:48:52.000Z</time>
        <extensions>
          <ns3:TrackPointExtension>
            <ns3:atemp>17.0</ns3:atemp>
          </ns3:TrackPointExtension>
        </extensions>
      </trkpt>
      <trkpt lat="42.62506945990025997161865234375" lon="19.88030095584690570831298828125">
        <ele>1747.4000244140625</ele>
        <time>2026-06-16T08:48:53.000Z</time>
        <extensions>
          <ns3:TrackPointExtension>
            <ns3:atemp>17.0</ns3:atemp>
          </ns3:TrackPointExtension>
        </extensions>
      </trkpt>
      <trkpt lat="42.62506945990025997161865234375" lon="19.88030095584690570831298828125">
        <ele>1747.4000244140625</ele>
        <time>2026-06-16T08:48:54.000Z</time>
        <extensions>
          <ns3:TrackPointExtension>
            <ns3:atemp>17.0</ns3:atemp>
          </ns3:TrackPointExtension>
        </extensions>
      </trkpt>
      <trkpt lat="42.62506945990025997161865234375" lon="19.88030095584690570831298828125">
        <ele>1747.4000244140625</ele>
        <time>2026-06-16T08:48:55.000Z</time>
        <extensions>
          <ns3:TrackPointExtension>
            <ns3:atemp>17.0</ns3:atemp>
          </ns3:TrackPointExtension>
        </extensions>
      </trkpt>
      <trkpt lat="42.62506945990025997161865234375" lon="19.88030095584690570831298828125">
        <ele>1747.4000244140625</ele>
        <time>2026-06-16T08:48:56.000Z</time>
        <extensions>
          <ns3:TrackPointExtension>
            <ns3:atemp>17.0</ns3:atemp>
          </ns3:TrackPointExtension>
        </extensions>
      </trkpt>
      <trkpt lat="42.62506945990025997161865234375" lon="19.88030095584690570831298828125">
        <ele>1747.4000244140625</ele>
        <time>2026-06-16T08:48:57.000Z</time>
        <extensions>
          <ns3:TrackPointExtension>
            <ns3:atemp>17.0</ns3:atemp>
          </ns3:TrackPointExtension>
        </extensions>
      </trkpt>
      <trkpt lat="42.62506945990025997161865234375" lon="19.88030095584690570831298828125">
        <ele>1747.4000244140625</ele>
        <time>2026-06-16T08:48:58.000Z</time>
        <extensions>
          <ns3:TrackPointExtension>
            <ns3:atemp>17.0</ns3:atemp>
          </ns3:TrackPointExtension>
        </extensions>
      </trkpt>
      <trkpt lat="42.62506945990025997161865234375" lon="19.88030095584690570831298828125">
        <ele>1747.4000244140625</ele>
        <time>2026-06-16T08:48:59.000Z</time>
        <extensions>
          <ns3:TrackPointExtension>
            <ns3:atemp>17.0</ns3:atemp>
          </ns3:TrackPointExtension>
        </extensions>
      </trkpt>
      <trkpt lat="42.62506945990025997161865234375" lon="19.88030095584690570831298828125">
        <ele>1747.4000244140625</ele>
        <time>2026-06-16T08:49:00.000Z</time>
        <extensions>
          <ns3:TrackPointExtension>
            <ns3:atemp>17.0</ns3:atemp>
          </ns3:TrackPointExtension>
        </extensions>
      </trkpt>
      <trkpt lat="42.62506945990025997161865234375" lon="19.88030095584690570831298828125">
        <ele>1747.4000244140625</ele>
        <time>2026-06-16T08:49:01.000Z</time>
        <extensions>
          <ns3:TrackPointExtension>
            <ns3:atemp>17.0</ns3:atemp>
          </ns3:TrackPointExtension>
        </extensions>
      </trkpt>
      <trkpt lat="42.62506945990025997161865234375" lon="19.88030095584690570831298828125">
        <ele>1747.4000244140625</ele>
        <time>2026-06-16T08:49:02.000Z</time>
        <extensions>
          <ns3:TrackPointExtension>
            <ns3:atemp>17.0</ns3:atemp>
          </ns3:TrackPointExtension>
        </extensions>
      </trkpt>
      <trkpt lat="42.62506945990025997161865234375" lon="19.88030095584690570831298828125">
        <ele>1747.4000244140625</ele>
        <time>2026-06-16T08:49:03.000Z</time>
        <extensions>
          <ns3:TrackPointExtension>
            <ns3:atemp>17.0</ns3:atemp>
          </ns3:TrackPointExtension>
        </extensions>
      </trkpt>
      <trkpt lat="42.62506945990025997161865234375" lon="19.88030095584690570831298828125">
        <ele>1747.4000244140625</ele>
        <time>2026-06-16T08:49:04.000Z</time>
        <extensions>
          <ns3:TrackPointExtension>
            <ns3:atemp>17.0</ns3:atemp>
          </ns3:TrackPointExtension>
        </extensions>
      </trkpt>
      <trkpt lat="42.62506945990025997161865234375" lon="19.88030095584690570831298828125">
        <ele>1747.4000244140625</ele>
        <time>2026-06-16T08:49:05.000Z</time>
        <extensions>
          <ns3:TrackPointExtension>
            <ns3:atemp>17.0</ns3:atemp>
          </ns3:TrackPointExtension>
        </extensions>
      </trkpt>
      <trkpt lat="42.62506945990025997161865234375" lon="19.88030095584690570831298828125">
        <ele>1747.4000244140625</ele>
        <time>2026-06-16T08:49:06.000Z</time>
        <extensions>
          <ns3:TrackPointExtension>
            <ns3:atemp>17.0</ns3:atemp>
          </ns3:TrackPointExtension>
        </extensions>
      </trkpt>
      <trkpt lat="42.62506945990025997161865234375" lon="19.88030095584690570831298828125">
        <ele>1748.800048828125</ele>
        <time>2026-06-16T08:49:07.000Z</time>
        <extensions>
          <ns3:TrackPointExtension>
            <ns3:atemp>17.0</ns3:atemp>
          </ns3:TrackPointExtension>
        </extensions>
      </trkpt>
      <trkpt lat="42.62506945990025997161865234375" lon="19.88030095584690570831298828125">
        <ele>1749</ele>
        <time>2026-06-16T08:49:08.000Z</time>
        <extensions>
          <ns3:TrackPointExtension>
            <ns3:atemp>17.0</ns3:atemp>
          </ns3:TrackPointExtension>
        </extensions>
      </trkpt>
      <trkpt lat="42.62506945990025997161865234375" lon="19.88030095584690570831298828125">
        <ele>1749</ele>
        <time>2026-06-16T08:49:09.000Z</time>
        <extensions>
          <ns3:TrackPointExtension>
            <ns3:atemp>17.0</ns3:atemp>
          </ns3:TrackPointExtension>
        </extensions>
      </trkpt>
      <trkpt lat="42.62506945990025997161865234375" lon="19.88030095584690570831298828125">
        <ele>1749.199951171875</ele>
        <time>2026-06-16T08:49:10.000Z</time>
        <extensions>
          <ns3:TrackPointExtension>
            <ns3:atemp>17.0</ns3:atemp>
          </ns3:TrackPointExtension>
        </extensions>
      </trkpt>
      <trkpt lat="42.62506945990025997161865234375" lon="19.88030095584690570831298828125">
        <ele>1749</ele>
        <time>2026-06-16T08:49:11.000Z</time>
        <extensions>
          <ns3:TrackPointExtension>
            <ns3:atemp>17.0</ns3:atemp>
          </ns3:TrackPointExtension>
        </extensions>
      </trkpt>
      <trkpt lat="42.62506945990025997161865234375" lon="19.88030095584690570831298828125">
        <ele>1748.4000244140625</ele>
        <time>2026-06-16T08:49:12.000Z</time>
        <extensions>
          <ns3:TrackPointExtension>
            <ns3:atemp>17.0</ns3:atemp>
          </ns3:TrackPointExtension>
        </extensions>
      </trkpt>
      <trkpt lat="42.62506945990025997161865234375" lon="19.88030095584690570831298828125">
        <ele>1748.199951171875</ele>
        <time>2026-06-16T08:49:13.000Z</time>
        <extensions>
          <ns3:TrackPointExtension>
            <ns3:atemp>17.0</ns3:atemp>
          </ns3:TrackPointExtension>
        </extensions>
      </trkpt>
      <trkpt lat="42.62506945990025997161865234375" lon="19.88030095584690570831298828125">
        <ele>1748.199951171875</ele>
        <time>2026-06-16T08:49:14.000Z</time>
        <extensions>
          <ns3:TrackPointExtension>
            <ns3:atemp>17.0</ns3:atemp>
          </ns3:TrackPointExtension>
        </extensions>
      </trkpt>
      <trkpt lat="42.62506945990025997161865234375" lon="19.88030095584690570831298828125">
        <ele>1748</ele>
        <time>2026-06-16T08:49:15.000Z</time>
        <extensions>
          <ns3:TrackPointExtension>
            <ns3:atemp>17.0</ns3:atemp>
          </ns3:TrackPointExtension>
        </extensions>
      </trkpt>
      <trkpt lat="42.62506945990025997161865234375" lon="19.88030095584690570831298828125">
        <ele>1748.199951171875</ele>
        <time>2026-06-16T08:49:16.000Z</time>
        <extensions>
          <ns3:TrackPointExtension>
            <ns3:atemp>17.0</ns3:atemp>
          </ns3:TrackPointExtension>
        </extensions>
      </trkpt>
      <trkpt lat="42.62506945990025997161865234375" lon="19.88030095584690570831298828125">
        <ele>1748.4000244140625</ele>
        <time>2026-06-16T08:49:17.000Z</time>
        <extensions>
          <ns3:TrackPointExtension>
            <ns3:atemp>17.0</ns3:atemp>
          </ns3:TrackPointExtension>
        </extensions>
      </trkpt>
      <trkpt lat="42.62506945990025997161865234375" lon="19.88030095584690570831298828125">
        <ele>1748.800048828125</ele>
        <time>2026-06-16T08:49:18.000Z</time>
        <extensions>
          <ns3:TrackPointExtension>
            <ns3:atemp>17.0</ns3:atemp>
          </ns3:TrackPointExtension>
        </extensions>
      </trkpt>
      <trkpt lat="42.62506945990025997161865234375" lon="19.88030095584690570831298828125">
        <ele>1749</ele>
        <time>2026-06-16T08:49:19.000Z</time>
        <extensions>
          <ns3:TrackPointExtension>
            <ns3:atemp>17.0</ns3:atemp>
          </ns3:TrackPointExtension>
        </extensions>
      </trkpt>
      <trkpt lat="42.62506945990025997161865234375" lon="19.88030095584690570831298828125">
        <ele>1749</ele>
        <time>2026-06-16T08:49:20.000Z</time>
        <extensions>
          <ns3:TrackPointExtension>
            <ns3:atemp>17.0</ns3:atemp>
          </ns3:TrackPointExtension>
        </extensions>
      </trkpt>
      <trkpt lat="42.62506945990025997161865234375" lon="19.88030095584690570831298828125">
        <ele>1748.800048828125</ele>
        <time>2026-06-16T08:49:21.000Z</time>
        <extensions>
          <ns3:TrackPointExtension>
            <ns3:atemp>17.0</ns3:atemp>
          </ns3:TrackPointExtension>
        </extensions>
      </trkpt>
      <trkpt lat="42.62506945990025997161865234375" lon="19.88030095584690570831298828125">
        <ele>1748.800048828125</ele>
        <time>2026-06-16T08:49:22.000Z</time>
        <extensions>
          <ns3:TrackPointExtension>
            <ns3:atemp>17.0</ns3:atemp>
          </ns3:TrackPointExtension>
        </extensions>
      </trkpt>
      <trkpt lat="42.62506945990025997161865234375" lon="19.88030095584690570831298828125">
        <ele>1748.5999755859375</ele>
        <time>2026-06-16T08:49:23.000Z</time>
        <extensions>
          <ns3:TrackPointExtension>
            <ns3:atemp>17.0</ns3:atemp>
          </ns3:TrackPointExtension>
        </extensions>
      </trkpt>
      <trkpt lat="42.62506945990025997161865234375" lon="19.88030095584690570831298828125">
        <ele>1748.5999755859375</ele>
        <time>2026-06-16T08:49:24.000Z</time>
        <extensions>
          <ns3:TrackPointExtension>
            <ns3:atemp>17.0</ns3:atemp>
          </ns3:TrackPointExtension>
        </extensions>
      </trkpt>
      <trkpt lat="42.62506945990025997161865234375" lon="19.88030095584690570831298828125">
        <ele>1748.5999755859375</ele>
        <time>2026-06-16T08:49:25.000Z</time>
        <extensions>
          <ns3:TrackPointExtension>
            <ns3:atemp>17.0</ns3:atemp>
          </ns3:TrackPointExtension>
        </extensions>
      </trkpt>
      <trkpt lat="42.62506945990025997161865234375" lon="19.88030095584690570831298828125">
        <ele>1748.4000244140625</ele>
        <time>2026-06-16T08:49:26.000Z</time>
        <extensions>
          <ns3:TrackPointExtension>
            <ns3:atemp>17.0</ns3:atemp>
          </ns3:TrackPointExtension>
        </extensions>
      </trkpt>
      <trkpt lat="42.62506945990025997161865234375" lon="19.88030095584690570831298828125">
        <ele>1748.4000244140625</ele>
        <time>2026-06-16T08:49:27.000Z</time>
        <extensions>
          <ns3:TrackPointExtension>
            <ns3:atemp>17.0</ns3:atemp>
          </ns3:TrackPointExtension>
        </extensions>
      </trkpt>
      <trkpt lat="42.62506945990025997161865234375" lon="19.88030095584690570831298828125">
        <ele>1748.199951171875</ele>
        <time>2026-06-16T08:49:28.000Z</time>
        <extensions>
          <ns3:TrackPointExtension>
            <ns3:atemp>17.0</ns3:atemp>
          </ns3:TrackPointExtension>
        </extensions>
      </trkpt>
      <trkpt lat="42.62506945990025997161865234375" lon="19.88030095584690570831298828125">
        <ele>1748</ele>
        <time>2026-06-16T08:49:29.000Z</time>
        <extensions>
          <ns3:TrackPointExtension>
            <ns3:atemp>17.0</ns3:atemp>
          </ns3:TrackPointExtension>
        </extensions>
      </trkpt>
      <trkpt lat="42.62506945990025997161865234375" lon="19.88030095584690570831298828125">
        <ele>1747.800048828125</ele>
        <time>2026-06-16T08:49:30.000Z</time>
        <extensions>
          <ns3:TrackPointExtension>
            <ns3:atemp>17.0</ns3:atemp>
          </ns3:TrackPointExtension>
        </extensions>
      </trkpt>
      <trkpt lat="42.62506945990025997161865234375" lon="19.88030095584690570831298828125">
        <ele>1747.800048828125</ele>
        <time>2026-06-16T08:49:31.000Z</time>
        <extensions>
          <ns3:TrackPointExtension>
            <ns3:atemp>17.0</ns3:atemp>
          </ns3:TrackPointExtension>
        </extensions>
      </trkpt>
      <trkpt lat="42.62506945990025997161865234375" lon="19.88030095584690570831298828125">
        <ele>1747.800048828125</ele>
        <time>2026-06-16T08:49:32.000Z</time>
        <extensions>
          <ns3:TrackPointExtension>
            <ns3:atemp>17.0</ns3:atemp>
          </ns3:TrackPointExtension>
        </extensions>
      </trkpt>
      <trkpt lat="42.62506945990025997161865234375" lon="19.88030095584690570831298828125">
        <ele>1747.800048828125</ele>
        <time>2026-06-16T08:49:33.000Z</time>
        <extensions>
          <ns3:TrackPointExtension>
            <ns3:atemp>17.0</ns3:atemp>
          </ns3:TrackPointExtension>
        </extensions>
      </trkpt>
      <trkpt lat="42.62506945990025997161865234375" lon="19.88030095584690570831298828125">
        <ele>1748</ele>
        <time>2026-06-16T08:49:34.000Z</time>
        <extensions>
          <ns3:TrackPointExtension>
            <ns3:atemp>17.0</ns3:atemp>
          </ns3:TrackPointExtension>
        </extensions>
      </trkpt>
      <trkpt lat="42.62506945990025997161865234375" lon="19.88030095584690570831298828125">
        <ele>1748.199951171875</ele>
        <time>2026-06-16T08:49:35.000Z</time>
        <extensions>
          <ns3:TrackPointExtension>
            <ns3:atemp>17.0</ns3:atemp>
          </ns3:TrackPointExtension>
        </extensions>
      </trkpt>
      <trkpt lat="42.62506945990025997161865234375" lon="19.88030095584690570831298828125">
        <ele>1748.4000244140625</ele>
        <time>2026-06-16T08:49:36.000Z</time>
        <extensions>
          <ns3:TrackPointExtension>
            <ns3:atemp>17.0</ns3:atemp>
          </ns3:TrackPointExtension>
        </extensions>
      </trkpt>
      <trkpt lat="42.62506945990025997161865234375" lon="19.88030095584690570831298828125">
        <ele>1748.5999755859375</ele>
        <time>2026-06-16T08:49:37.000Z</time>
        <extensions>
          <ns3:TrackPointExtension>
            <ns3:atemp>17.0</ns3:atemp>
          </ns3:TrackPointExtension>
        </extensions>
      </trkpt>
      <trkpt lat="42.62506945990025997161865234375" lon="19.88030095584690570831298828125">
        <ele>1748.4000244140625</ele>
        <time>2026-06-16T08:49:38.000Z</time>
        <extensions>
          <ns3:TrackPointExtension>
            <ns3:atemp>17.0</ns3:atemp>
          </ns3:TrackPointExtension>
        </extensions>
      </trkpt>
      <trkpt lat="42.62506945990025997161865234375" lon="19.88030095584690570831298828125">
        <ele>1748.199951171875</ele>
        <time>2026-06-16T08:49:39.000Z</time>
        <extensions>
          <ns3:TrackPointExtension>
            <ns3:atemp>17.0</ns3:atemp>
          </ns3:TrackPointExtension>
        </extensions>
      </trkpt>
      <trkpt lat="42.62506945990025997161865234375" lon="19.88030095584690570831298828125">
        <ele>1748</ele>
        <time>2026-06-16T08:49:40.000Z</time>
        <extensions>
          <ns3:TrackPointExtension>
            <ns3:atemp>17.0</ns3:atemp>
          </ns3:TrackPointExtension>
        </extensions>
      </trkpt>
      <trkpt lat="42.62506945990025997161865234375" lon="19.88030095584690570831298828125">
        <ele>1748</ele>
        <time>2026-06-16T08:49:41.000Z</time>
        <extensions>
          <ns3:TrackPointExtension>
            <ns3:atemp>17.0</ns3:atemp>
          </ns3:TrackPointExtension>
        </extensions>
      </trkpt>
      <trkpt lat="42.62506945990025997161865234375" lon="19.88030095584690570831298828125">
        <ele>1748.199951171875</ele>
        <time>2026-06-16T08:49:42.000Z</time>
        <extensions>
          <ns3:TrackPointExtension>
            <ns3:atemp>17.0</ns3:atemp>
          </ns3:TrackPointExtension>
        </extensions>
      </trkpt>
      <trkpt lat="42.62506945990025997161865234375" lon="19.88030095584690570831298828125">
        <ele>1748.4000244140625</ele>
        <time>2026-06-16T08:49:43.000Z</time>
        <extensions>
          <ns3:TrackPointExtension>
            <ns3:atemp>17.0</ns3:atemp>
          </ns3:TrackPointExtension>
        </extensions>
      </trkpt>
      <trkpt lat="42.62506945990025997161865234375" lon="19.88030095584690570831298828125">
        <ele>1748.5999755859375</ele>
        <time>2026-06-16T08:49:44.000Z</time>
        <extensions>
          <ns3:TrackPointExtension>
            <ns3:atemp>17.0</ns3:atemp>
          </ns3:TrackPointExtension>
        </extensions>
      </trkpt>
      <trkpt lat="42.62506945990025997161865234375" lon="19.88030095584690570831298828125">
        <ele>1748.800048828125</ele>
        <time>2026-06-16T08:49:45.000Z</time>
        <extensions>
          <ns3:TrackPointExtension>
            <ns3:atemp>17.0</ns3:atemp>
          </ns3:TrackPointExtension>
        </extensions>
      </trkpt>
      <trkpt lat="42.62506945990025997161865234375" lon="19.88030095584690570831298828125">
        <ele>1748.800048828125</ele>
        <time>2026-06-16T08:49:46.000Z</time>
        <extensions>
          <ns3:TrackPointExtension>
            <ns3:atemp>17.0</ns3:atemp>
          </ns3:TrackPointExtension>
        </extensions>
      </trkpt>
      <trkpt lat="42.62506945990025997161865234375" lon="19.88030095584690570831298828125">
        <ele>1748.800048828125</ele>
        <time>2026-06-16T08:49:47.000Z</time>
        <extensions>
          <ns3:TrackPointExtension>
            <ns3:atemp>17.0</ns3:atemp>
          </ns3:TrackPointExtension>
        </extensions>
      </trkpt>
      <trkpt lat="42.62506945990025997161865234375" lon="19.88030095584690570831298828125">
        <ele>1748.800048828125</ele>
        <time>2026-06-16T08:49:48.000Z</time>
        <extensions>
          <ns3:TrackPointExtension>
            <ns3:atemp>17.0</ns3:atemp>
          </ns3:TrackPointExtension>
        </extensions>
      </trkpt>
      <trkpt lat="42.62506945990025997161865234375" lon="19.88030095584690570831298828125">
        <ele>1748.800048828125</ele>
        <time>2026-06-16T08:49:49.000Z</time>
        <extensions>
          <ns3:TrackPointExtension>
            <ns3:atemp>17.0</ns3:atemp>
          </ns3:TrackPointExtension>
        </extensions>
      </trkpt>
      <trkpt lat="42.625061832368373870849609375" lon="19.88030799664556980133056640625">
        <ele>1748.5999755859375</ele>
        <time>2026-06-16T08:49:50.000Z</time>
        <extensions>
          <ns3:TrackPointExtension>
            <ns3:atemp>17.0</ns3:atemp>
          </ns3:TrackPointExtension>
        </extensions>
      </trkpt>
      <trkpt lat="42.6250465773046016693115234375" lon="19.88032274879515171051025390625">
        <ele>1748.5999755859375</ele>
        <time>2026-06-16T08:49:51.000Z</time>
        <extensions>
          <ns3:TrackPointExtension>
            <ns3:atemp>17.0</ns3:atemp>
          </ns3:TrackPointExtension>
        </extensions>
      </trkpt>
      <trkpt lat="42.6250311546027660369873046875" lon="19.88032735884189605712890625">
        <ele>1748.800048828125</ele>
        <time>2026-06-16T08:49:52.000Z</time>
        <extensions>
          <ns3:TrackPointExtension>
            <ns3:atemp>17.0</ns3:atemp>
          </ns3:TrackPointExtension>
        </extensions>
      </trkpt>
      <trkpt lat="42.62500961311161518096923828125" lon="19.8803409375250339508056640625">
        <ele>1748.800048828125</ele>
        <time>2026-06-16T08:49:53.000Z</time>
        <extensions>
          <ns3:TrackPointExtension>
            <ns3:atemp>17.0</ns3:atemp>
          </ns3:TrackPointExtension>
        </extensions>
      </trkpt>
      <trkpt lat="42.6249956153333187103271484375" lon="19.8803691007196903228759765625">
        <ele>1749</ele>
        <time>2026-06-16T08:49:54.000Z</time>
        <extensions>
          <ns3:TrackPointExtension>
            <ns3:atemp>17.0</ns3:atemp>
          </ns3:TrackPointExtension>
        </extensions>
      </trkpt>
      <trkpt lat="42.6249818690121173858642578125" lon="19.88039433024823665618896484375">
        <ele>1749.199951171875</ele>
        <time>2026-06-16T08:49:55.000Z</time>
        <extensions>
          <ns3:TrackPointExtension>
            <ns3:atemp>17.0</ns3:atemp>
          </ns3:TrackPointExtension>
        </extensions>
      </trkpt>
      <trkpt lat="42.6249724812805652618408203125" lon="19.88041453063488006591796875">
        <ele>1749.4000244140625</ele>
        <time>2026-06-16T08:49:56.000Z</time>
        <extensions>
          <ns3:TrackPointExtension>
            <ns3:atemp>17.0</ns3:atemp>
          </ns3:TrackPointExtension>
        </extensions>
      </trkpt>
      <trkpt lat="42.6249580644071102142333984375" lon="19.88043489865958690643310546875">
        <ele>1749.800048828125</ele>
        <time>2026-06-16T08:49:57.000Z</time>
        <extensions>
          <ns3:TrackPointExtension>
            <ns3:atemp>17.0</ns3:atemp>
          </ns3:TrackPointExtension>
        </extensions>
      </trkpt>
      <trkpt lat="42.62494507245719432830810546875" lon="19.88045568577945232391357421875">
        <ele>1750.4000244140625</ele>
        <time>2026-06-16T08:49:58.000Z</time>
        <extensions>
          <ns3:TrackPointExtension>
            <ns3:atemp>17.0</ns3:atemp>
          </ns3:TrackPointExtension>
        </extensions>
      </trkpt>
      <trkpt lat="42.62493199668824672698974609375" lon="19.8804794065654277801513671875">
        <ele>1750.800048828125</ele>
        <time>2026-06-16T08:49:59.000Z</time>
        <extensions>
          <ns3:TrackPointExtension>
            <ns3:atemp>17.0</ns3:atemp>
          </ns3:TrackPointExtension>
        </extensions>
      </trkpt>
      <trkpt lat="42.624919675290584564208984375" lon="19.8805018700659275054931640625">
        <ele>1751.199951171875</ele>
        <time>2026-06-16T08:50:00.000Z</time>
        <extensions>
          <ns3:TrackPointExtension>
            <ns3:atemp>17.0</ns3:atemp>
          </ns3:TrackPointExtension>
        </extensions>
      </trkpt>
      <trkpt lat="42.6249087788164615631103515625" lon="19.88052760250866413116455078125">
        <ele>1751.800048828125</ele>
        <time>2026-06-16T08:50:01.000Z</time>
        <extensions>
          <ns3:TrackPointExtension>
            <ns3:atemp>17.0</ns3:atemp>
          </ns3:TrackPointExtension>
        </extensions>
      </trkpt>
      <trkpt lat="42.62490056455135345458984375" lon="19.880550317466259002685546875">
        <ele>1752.199951171875</ele>
        <time>2026-06-16T08:50:02.000Z</time>
        <extensions>
          <ns3:TrackPointExtension>
            <ns3:atemp>17.0</ns3:atemp>
          </ns3:TrackPointExtension>
        </extensions>
      </trkpt>
      <trkpt lat="42.6248936913907527923583984375" lon="19.88057437352836132049560546875">
        <ele>1752.5999755859375</ele>
        <time>2026-06-16T08:50:03.000Z</time>
        <extensions>
          <ns3:TrackPointExtension>
            <ns3:atemp>17.0</ns3:atemp>
          </ns3:TrackPointExtension>
        </extensions>
      </trkpt>
      <trkpt lat="42.62488556094467639923095703125" lon="19.8806047998368740081787109375">
        <ele>1753</ele>
        <time>2026-06-16T08:50:04.000Z</time>
        <extensions>
          <ns3:TrackPointExtension>
            <ns3:atemp>17.0</ns3:atemp>
          </ns3:TrackPointExtension>
        </extensions>
      </trkpt>
      <trkpt lat="42.6248789392411708831787109375" lon="19.8806306160986423492431640625">
        <ele>1753.5999755859375</ele>
        <time>2026-06-16T08:50:05.000Z</time>
        <extensions>
          <ns3:TrackPointExtension>
            <ns3:atemp>17.0</ns3:atemp>
          </ns3:TrackPointExtension>
        </extensions>
      </trkpt>
      <trkpt lat="42.6248703896999359130859375" lon="19.88066540099680423736572265625">
        <ele>1753.800048828125</ele>
        <time>2026-06-16T08:50:06.000Z</time>
        <extensions>
          <ns3:TrackPointExtension>
            <ns3:atemp>17.0</ns3:atemp>
          </ns3:TrackPointExtension>
        </extensions>
      </trkpt>
      <trkpt lat="42.62486527673900127410888671875" lon="19.88070127554237842559814453125">
        <ele>1754</ele>
        <time>2026-06-16T08:50:07.000Z</time>
        <extensions>
          <ns3:TrackPointExtension>
            <ns3:atemp>17.0</ns3:atemp>
          </ns3:TrackPointExtension>
        </extensions>
      </trkpt>
      <trkpt lat="42.62486301362514495849609375" lon="19.88073564134538173675537109375">
        <ele>1754.199951171875</ele>
        <time>2026-06-16T08:50:08.000Z</time>
        <extensions>
          <ns3:TrackPointExtension>
            <ns3:atemp>17.0</ns3:atemp>
          </ns3:TrackPointExtension>
        </extensions>
      </trkpt>
      <trkpt lat="42.624866031110286712646484375" lon="19.88076858222484588623046875">
        <ele>1754.4000244140625</ele>
        <time>2026-06-16T08:50:09.000Z</time>
        <extensions>
          <ns3:TrackPointExtension>
            <ns3:atemp>17.0</ns3:atemp>
          </ns3:TrackPointExtension>
        </extensions>
      </trkpt>
      <trkpt lat="42.62487013824284076690673828125" lon="19.88079532049596309661865234375">
        <ele>1754.5999755859375</ele>
        <time>2026-06-16T08:50:10.000Z</time>
        <extensions>
          <ns3:TrackPointExtension>
            <ns3:atemp>17.0</ns3:atemp>
          </ns3:TrackPointExtension>
        </extensions>
      </trkpt>
      <trkpt lat="42.6248729042708873748779296875" lon="19.88082800991833209991455078125">
        <ele>1754.800048828125</ele>
        <time>2026-06-16T08:50:11.000Z</time>
        <extensions>
          <ns3:TrackPointExtension>
            <ns3:atemp>17.0</ns3:atemp>
          </ns3:TrackPointExtension>
        </extensions>
      </trkpt>
      <trkpt lat="42.6248769275844097137451171875" lon="19.88085952587425708770751953125">
        <ele>1754.800048828125</ele>
        <time>2026-06-16T08:50:12.000Z</time>
        <extensions>
          <ns3:TrackPointExtension>
            <ns3:atemp>17.0</ns3:atemp>
          </ns3:TrackPointExtension>
        </extensions>
      </trkpt>
      <trkpt lat="42.62487910687923431396484375" lon="19.880884587764739990234375">
        <ele>1754.800048828125</ele>
        <time>2026-06-16T08:50:13.000Z</time>
        <extensions>
          <ns3:TrackPointExtension>
            <ns3:atemp>17.0</ns3:atemp>
          </ns3:TrackPointExtension>
        </extensions>
      </trkpt>
      <trkpt lat="42.62488639913499355316162109375" lon="19.8809055425226688385009765625">
        <ele>1754.800048828125</ele>
        <time>2026-06-16T08:50:14.000Z</time>
        <extensions>
          <ns3:TrackPointExtension>
            <ns3:atemp>17.0</ns3:atemp>
          </ns3:TrackPointExtension>
        </extensions>
      </trkpt>
      <trkpt lat="42.62490014545619487762451171875" lon="19.88092624582350254058837890625">
        <ele>1754.800048828125</ele>
        <time>2026-06-16T08:50:15.000Z</time>
        <extensions>
          <ns3:TrackPointExtension>
            <ns3:atemp>17.0</ns3:atemp>
          </ns3:TrackPointExtension>
        </extensions>
      </trkpt>
      <trkpt lat="42.624917663633823394775390625" lon="19.88093563355505466461181640625">
        <ele>1754.800048828125</ele>
        <time>2026-06-16T08:50:16.000Z</time>
        <extensions>
          <ns3:TrackPointExtension>
            <ns3:atemp>17.0</ns3:atemp>
          </ns3:TrackPointExtension>
        </extensions>
      </trkpt>
      <trkpt lat="42.62493618763983249664306640625" lon="19.8809417523443698883056640625">
        <ele>1754.5999755859375</ele>
        <time>2026-06-16T08:50:17.000Z</time>
        <extensions>
          <ns3:TrackPointExtension>
            <ns3:atemp>17.0</ns3:atemp>
          </ns3:TrackPointExtension>
        </extensions>
      </trkpt>
      <trkpt lat="42.624953873455524444580078125" lon="19.8809608630836009979248046875">
        <ele>1754.4000244140625</ele>
        <time>2026-06-16T08:50:18.000Z</time>
        <extensions>
          <ns3:TrackPointExtension>
            <ns3:atemp>17.0</ns3:atemp>
          </ns3:TrackPointExtension>
        </extensions>
      </trkpt>
      <trkpt lat="42.6249657757580280303955078125" lon="19.88098843954503536224365234375">
        <ele>1754.199951171875</ele>
        <time>2026-06-16T08:50:19.000Z</time>
        <extensions>
          <ns3:TrackPointExtension>
            <ns3:atemp>17.0</ns3:atemp>
          </ns3:TrackPointExtension>
        </extensions>
      </trkpt>
      <trkpt lat="42.6249657757580280303955078125" lon="19.88102070987224578857421875">
        <ele>1754</ele>
        <time>2026-06-16T08:50:20.000Z</time>
        <extensions>
          <ns3:TrackPointExtension>
            <ns3:atemp>17.0</ns3:atemp>
          </ns3:TrackPointExtension>
        </extensions>
      </trkpt>
      <trkpt lat="42.6249647699296474456787109375" lon="19.88105348311364650726318359375">
        <ele>1753.800048828125</ele>
        <time>2026-06-16T08:50:21.000Z</time>
        <extensions>
          <ns3:TrackPointExtension>
            <ns3:atemp>17.0</ns3:atemp>
          </ns3:TrackPointExtension>
        </extensions>
      </trkpt>
      <trkpt lat="42.6249540410935878753662109375" lon="19.881083071231842041015625">
        <ele>1753.4000244140625</ele>
        <time>2026-06-16T08:50:22.000Z</time>
        <extensions>
          <ns3:TrackPointExtension>
            <ns3:atemp>17.0</ns3:atemp>
          </ns3:TrackPointExtension>
        </extensions>
      </trkpt>
      <trkpt lat="42.62493903748691082000732421875" lon="19.881125986576080322265625">
        <ele>1753</ele>
        <time>2026-06-16T08:50:23.000Z</time>
        <extensions>
          <ns3:TrackPointExtension>
            <ns3:atemp>17.0</ns3:atemp>
          </ns3:TrackPointExtension>
        </extensions>
      </trkpt>
      <trkpt lat="42.6249402947723865509033203125" lon="19.88118072040379047393798828125">
        <ele>1752.5999755859375</ele>
        <time>2026-06-16T08:50:24.000Z</time>
        <extensions>
          <ns3:TrackPointExtension>
            <ns3:atemp>17.0</ns3:atemp>
          </ns3:TrackPointExtension>
        </extensions>
      </trkpt>
      <trkpt lat="42.6249463297426700592041015625" lon="19.8812357895076274871826171875">
        <ele>1751.800048828125</ele>
        <time>2026-06-16T08:50:25.000Z</time>
        <extensions>
          <ns3:TrackPointExtension>
            <ns3:atemp>17.0</ns3:atemp>
          </ns3:TrackPointExtension>
        </extensions>
      </trkpt>
      <trkpt lat="42.624952532351016998291015625" lon="19.88129563629627227783203125">
        <ele>1751.199951171875</ele>
        <time>2026-06-16T08:50:26.000Z</time>
        <extensions>
          <ns3:TrackPointExtension>
            <ns3:atemp>17.0</ns3:atemp>
          </ns3:TrackPointExtension>
        </extensions>
      </trkpt>
      <trkpt lat="42.62495462782680988311767578125" lon="19.8813538067042827606201171875">
        <ele>1750.4000244140625</ele>
        <time>2026-06-16T08:50:27.000Z</time>
        <extensions>
          <ns3:TrackPointExtension>
            <ns3:atemp>17.0</ns3:atemp>
          </ns3:TrackPointExtension>
        </extensions>
      </trkpt>
      <trkpt lat="42.6249637641012668609619140625" lon="19.881405271589756011962890625">
        <ele>1749.800048828125</ele>
        <time>2026-06-16T08:50:28.000Z</time>
        <extensions>
          <ns3:TrackPointExtension>
            <ns3:atemp>17.0</ns3:atemp>
          </ns3:TrackPointExtension>
        </extensions>
      </trkpt>
      <trkpt lat="42.62497139163315296173095703125" lon="19.8814545571804046630859375">
        <ele>1749</ele>
        <time>2026-06-16T08:50:29.000Z</time>
        <extensions>
          <ns3:TrackPointExtension>
            <ns3:atemp>17.0</ns3:atemp>
          </ns3:TrackPointExtension>
        </extensions>
      </trkpt>
      <trkpt lat="42.6249687932431697845458984375" lon="19.8814845643937587738037109375">
        <ele>1748.5999755859375</ele>
        <time>2026-06-16T08:50:30.000Z</time>
        <extensions>
          <ns3:TrackPointExtension>
            <ns3:atemp>17.0</ns3:atemp>
          </ns3:TrackPointExtension>
        </extensions>
      </trkpt>
      <trkpt lat="42.6249694637954235076904296875" lon="19.88150929100811481475830078125">
        <ele>1748.4000244140625</ele>
        <time>2026-06-16T08:50:31.000Z</time>
        <extensions>
          <ns3:TrackPointExtension>
            <ns3:atemp>17.0</ns3:atemp>
          </ns3:TrackPointExtension>
        </extensions>
      </trkpt>
      <trkpt lat="42.6249795220792293548583984375" lon="19.88153703510761260986328125">
        <ele>1748.4000244140625</ele>
        <time>2026-06-16T08:50:32.000Z</time>
        <extensions>
          <ns3:TrackPointExtension>
            <ns3:atemp>17.0</ns3:atemp>
          </ns3:TrackPointExtension>
        </extensions>
      </trkpt>
      <trkpt lat="42.6249875687062740325927734375" lon="19.88156327046453952789306640625">
        <ele>1748.4000244140625</ele>
        <time>2026-06-16T08:50:33.000Z</time>
        <extensions>
          <ns3:TrackPointExtension>
            <ns3:atemp>17.0</ns3:atemp>
          </ns3:TrackPointExtension>
        </extensions>
      </trkpt>
      <trkpt lat="42.62499150820076465606689453125" lon="19.88159294240176677703857421875">
        <ele>1748.5999755859375</ele>
        <time>2026-06-16T08:50:34.000Z</time>
        <extensions>
          <ns3:TrackPointExtension>
            <ns3:atemp>17.0</ns3:atemp>
          </ns3:TrackPointExtension>
        </extensions>
      </trkpt>
      <trkpt lat="42.62500123120844364166259765625" lon="19.88161590881645679473876953125">
        <ele>1748.5999755859375</ele>
        <time>2026-06-16T08:50:35.000Z</time>
        <extensions>
          <ns3:TrackPointExtension>
            <ns3:atemp>17.0</ns3:atemp>
          </ns3:TrackPointExtension>
        </extensions>
      </trkpt>
      <trkpt lat="42.62501095421612262725830078125" lon="19.88164298236370086669921875">
        <ele>1748.800048828125</ele>
        <time>2026-06-16T08:50:36.000Z</time>
        <extensions>
          <ns3:TrackPointExtension>
            <ns3:atemp>17.0</ns3:atemp>
          </ns3:TrackPointExtension>
        </extensions>
      </trkpt>
      <trkpt lat="42.62502855621278285980224609375" lon="19.8816662840545177459716796875">
        <ele>1748.800048828125</ele>
        <time>2026-06-16T08:50:37.000Z</time>
        <extensions>
          <ns3:TrackPointExtension>
            <ns3:atemp>17.0</ns3:atemp>
          </ns3:TrackPointExtension>
        </extensions>
      </trkpt>
      <trkpt lat="42.625047080218791961669921875" lon="19.88168346695601940155029296875">
        <ele>1748.800048828125</ele>
        <time>2026-06-16T08:50:38.000Z</time>
        <extensions>
          <ns3:TrackPointExtension>
            <ns3:atemp>17.0</ns3:atemp>
          </ns3:TrackPointExtension>
        </extensions>
      </trkpt>
      <trkpt lat="42.6250630058348178863525390625" lon="19.8817093670368194580078125">
        <ele>1748.800048828125</ele>
        <time>2026-06-16T08:50:39.000Z</time>
        <extensions>
          <ns3:TrackPointExtension>
            <ns3:atemp>17.0</ns3:atemp>
          </ns3:TrackPointExtension>
        </extensions>
      </trkpt>
      <trkpt lat="42.62507951818406581878662109375" lon="19.88173644058406352996826171875">
        <ele>1748.800048828125</ele>
        <time>2026-06-16T08:50:40.000Z</time>
        <extensions>
          <ns3:TrackPointExtension>
            <ns3:atemp>17.0</ns3:atemp>
          </ns3:TrackPointExtension>
        </extensions>
      </trkpt>
      <trkpt lat="42.62509292922914028167724609375" lon="19.88176234066486358642578125">
        <ele>1748.800048828125</ele>
        <time>2026-06-16T08:50:41.000Z</time>
        <extensions>
          <ns3:TrackPointExtension>
            <ns3:atemp>17.0</ns3:atemp>
          </ns3:TrackPointExtension>
        </extensions>
      </trkpt>
      <trkpt lat="42.62510801665484905242919921875" lon="19.88179042004048824310302734375">
        <ele>1748.5999755859375</ele>
        <time>2026-06-16T08:50:42.000Z</time>
        <extensions>
          <ns3:TrackPointExtension>
            <ns3:atemp>17.0</ns3:atemp>
          </ns3:TrackPointExtension>
        </extensions>
      </trkpt>
      <trkpt lat="42.625123523175716400146484375" lon="19.88181732594966888427734375">
        <ele>1748.5999755859375</ele>
        <time>2026-06-16T08:50:43.000Z</time>
        <extensions>
          <ns3:TrackPointExtension>
            <ns3:atemp>17.0</ns3:atemp>
          </ns3:TrackPointExtension>
        </extensions>
      </trkpt>
      <trkpt lat="42.62513919733464717864990234375" lon="19.88184020854532718658447265625">
        <ele>1748.5999755859375</ele>
        <time>2026-06-16T08:50:44.000Z</time>
        <extensions>
          <ns3:TrackPointExtension>
            <ns3:atemp>17.0</ns3:atemp>
          </ns3:TrackPointExtension>
        </extensions>
      </trkpt>
      <trkpt lat="42.62515344657003879547119140625" lon="19.88185915164649486541748046875">
        <ele>1748.800048828125</ele>
        <time>2026-06-16T08:50:45.000Z</time>
        <extensions>
          <ns3:TrackPointExtension>
            <ns3:atemp>17.0</ns3:atemp>
          </ns3:TrackPointExtension>
        </extensions>
      </trkpt>
      <trkpt lat="42.6251707971096038818359375" lon="19.8818756639957427978515625">
        <ele>1748.800048828125</ele>
        <time>2026-06-16T08:50:46.000Z</time>
        <extensions>
          <ns3:TrackPointExtension>
            <ns3:atemp>17.0</ns3:atemp>
          </ns3:TrackPointExtension>
        </extensions>
      </trkpt>
      <trkpt lat="42.625190913677215576171875" lon="19.88189108669757843017578125">
        <ele>1748.800048828125</ele>
        <time>2026-06-16T08:50:47.000Z</time>
        <extensions>
          <ns3:TrackPointExtension>
            <ns3:atemp>17.0</ns3:atemp>
          </ns3:TrackPointExtension>
        </extensions>
      </trkpt>
      <trkpt lat="42.625207342207431793212890625" lon="19.88189871422946453094482421875">
        <ele>1749</ele>
        <time>2026-06-16T08:50:48.000Z</time>
        <extensions>
          <ns3:TrackPointExtension>
            <ns3:atemp>17.0</ns3:atemp>
          </ns3:TrackPointExtension>
        </extensions>
      </trkpt>
      <trkpt lat="42.62522242963314056396484375" lon="19.88190726377069950103759765625">
        <ele>1749</ele>
        <time>2026-06-16T08:50:49.000Z</time>
        <extensions>
          <ns3:TrackPointExtension>
            <ns3:atemp>17.0</ns3:atemp>
          </ns3:TrackPointExtension>
        </extensions>
      </trkpt>
      <trkpt lat="42.6252286322414875030517578125" lon="19.88190826959908008575439453125">
        <ele>1749.199951171875</ele>
        <time>2026-06-16T08:50:50.000Z</time>
        <extensions>
          <ns3:TrackPointExtension>
            <ns3:atemp>17.0</ns3:atemp>
          </ns3:TrackPointExtension>
        </extensions>
      </trkpt>
      <trkpt lat="42.62522653676569461822509765625" lon="19.88191078417003154754638671875">
        <ele>1749.199951171875</ele>
        <time>2026-06-16T08:50:51.000Z</time>
        <extensions>
          <ns3:TrackPointExtension>
            <ns3:atemp>17.0</ns3:atemp>
          </ns3:TrackPointExtension>
        </extensions>
      </trkpt>
      <trkpt lat="42.6252266205847263336181640625" lon="19.88191078417003154754638671875">
        <ele>1749.4000244140625</ele>
        <time>2026-06-16T08:50:52.000Z</time>
        <extensions>
          <ns3:TrackPointExtension>
            <ns3:atemp>17.0</ns3:atemp>
          </ns3:TrackPointExtension>
        </extensions>
      </trkpt>
      <trkpt lat="42.6252266205847263336181640625" lon="19.88191078417003154754638671875">
        <ele>1749.5999755859375</ele>
        <time>2026-06-16T08:50:53.000Z</time>
        <extensions>
          <ns3:TrackPointExtension>
            <ns3:atemp>17.0</ns3:atemp>
          </ns3:TrackPointExtension>
        </extensions>
      </trkpt>
      <trkpt lat="42.6252266205847263336181640625" lon="19.88191078417003154754638671875">
        <ele>1749.5999755859375</ele>
        <time>2026-06-16T08:50:54.000Z</time>
        <extensions>
          <ns3:TrackPointExtension>
            <ns3:atemp>17.0</ns3:atemp>
          </ns3:TrackPointExtension>
        </extensions>
      </trkpt>
      <trkpt lat="42.6252266205847263336181640625" lon="19.88191078417003154754638671875">
        <ele>1749.5999755859375</ele>
        <time>2026-06-16T08:50:55.000Z</time>
        <extensions>
          <ns3:TrackPointExtension>
            <ns3:atemp>17.0</ns3:atemp>
          </ns3:TrackPointExtension>
        </extensions>
      </trkpt>
      <trkpt lat="42.6252266205847263336181640625" lon="19.88191078417003154754638671875">
        <ele>1749.5999755859375</ele>
        <time>2026-06-16T08:50:56.000Z</time>
        <extensions>
          <ns3:TrackPointExtension>
            <ns3:atemp>17.0</ns3:atemp>
          </ns3:TrackPointExtension>
        </extensions>
      </trkpt>
      <trkpt lat="42.6252266205847263336181640625" lon="19.88191078417003154754638671875">
        <ele>1749.5999755859375</ele>
        <time>2026-06-16T08:50:57.000Z</time>
        <extensions>
          <ns3:TrackPointExtension>
            <ns3:atemp>17.0</ns3:atemp>
          </ns3:TrackPointExtension>
        </extensions>
      </trkpt>
      <trkpt lat="42.6252266205847263336181640625" lon="19.88191078417003154754638671875">
        <ele>1749.5999755859375</ele>
        <time>2026-06-16T08:50:58.000Z</time>
        <extensions>
          <ns3:TrackPointExtension>
            <ns3:atemp>17.0</ns3:atemp>
          </ns3:TrackPointExtension>
        </extensions>
      </trkpt>
      <trkpt lat="42.6252266205847263336181640625" lon="19.88191078417003154754638671875">
        <ele>1749.5999755859375</ele>
        <time>2026-06-16T08:50:59.000Z</time>
        <extensions>
          <ns3:TrackPointExtension>
            <ns3:atemp>17.0</ns3:atemp>
          </ns3:TrackPointExtension>
        </extensions>
      </trkpt>
      <trkpt lat="42.6252266205847263336181640625" lon="19.88191078417003154754638671875">
        <ele>1749.5999755859375</ele>
        <time>2026-06-16T08:51:00.000Z</time>
        <extensions>
          <ns3:TrackPointExtension>
            <ns3:atemp>17.0</ns3:atemp>
          </ns3:TrackPointExtension>
        </extensions>
      </trkpt>
      <trkpt lat="42.6252266205847263336181640625" lon="19.88191078417003154754638671875">
        <ele>1749.5999755859375</ele>
        <time>2026-06-16T08:51:01.000Z</time>
        <extensions>
          <ns3:TrackPointExtension>
            <ns3:atemp>17.0</ns3:atemp>
          </ns3:TrackPointExtension>
        </extensions>
      </trkpt>
      <trkpt lat="42.6252266205847263336181640625" lon="19.88191078417003154754638671875">
        <ele>1749.5999755859375</ele>
        <time>2026-06-16T08:51:02.000Z</time>
        <extensions>
          <ns3:TrackPointExtension>
            <ns3:atemp>17.0</ns3:atemp>
          </ns3:TrackPointExtension>
        </extensions>
      </trkpt>
      <trkpt lat="42.6252266205847263336181640625" lon="19.88191078417003154754638671875">
        <ele>1749.5999755859375</ele>
        <time>2026-06-16T08:51:03.000Z</time>
        <extensions>
          <ns3:TrackPointExtension>
            <ns3:atemp>17.0</ns3:atemp>
          </ns3:TrackPointExtension>
        </extensions>
      </trkpt>
      <trkpt lat="42.6252266205847263336181640625" lon="19.88191078417003154754638671875">
        <ele>1749.5999755859375</ele>
        <time>2026-06-16T08:51:04.000Z</time>
        <extensions>
          <ns3:TrackPointExtension>
            <ns3:atemp>17.0</ns3:atemp>
          </ns3:TrackPointExtension>
        </extensions>
      </trkpt>
      <trkpt lat="42.6252266205847263336181640625" lon="19.88191078417003154754638671875">
        <ele>1749.5999755859375</ele>
        <time>2026-06-16T08:51:05.000Z</time>
        <extensions>
          <ns3:TrackPointExtension>
            <ns3:atemp>17.0</ns3:atemp>
          </ns3:TrackPointExtension>
        </extensions>
      </trkpt>
      <trkpt lat="42.6252266205847263336181640625" lon="19.88191078417003154754638671875">
        <ele>1749.5999755859375</ele>
        <time>2026-06-16T08:51:06.000Z</time>
        <extensions>
          <ns3:TrackPointExtension>
            <ns3:atemp>17.0</ns3:atemp>
          </ns3:TrackPointExtension>
        </extensions>
      </trkpt>
      <trkpt lat="42.6252266205847263336181640625" lon="19.88191078417003154754638671875">
        <ele>1749.5999755859375</ele>
        <time>2026-06-16T08:51:07.000Z</time>
        <extensions>
          <ns3:TrackPointExtension>
            <ns3:atemp>17.0</ns3:atemp>
          </ns3:TrackPointExtension>
        </extensions>
      </trkpt>
      <trkpt lat="42.6252266205847263336181640625" lon="19.88191078417003154754638671875">
        <ele>1749.5999755859375</ele>
        <time>2026-06-16T08:51:08.000Z</time>
        <extensions>
          <ns3:TrackPointExtension>
            <ns3:atemp>17.0</ns3:atemp>
          </ns3:TrackPointExtension>
        </extensions>
      </trkpt>
      <trkpt lat="42.6252266205847263336181640625" lon="19.88191078417003154754638671875">
        <ele>1749.5999755859375</ele>
        <time>2026-06-16T08:51:09.000Z</time>
        <extensions>
          <ns3:TrackPointExtension>
            <ns3:atemp>17.0</ns3:atemp>
          </ns3:TrackPointExtension>
        </extensions>
      </trkpt>
      <trkpt lat="42.6252266205847263336181640625" lon="19.88191078417003154754638671875">
        <ele>1749.5999755859375</ele>
        <time>2026-06-16T08:51:10.000Z</time>
        <extensions>
          <ns3:TrackPointExtension>
            <ns3:atemp>17.0</ns3:atemp>
          </ns3:TrackPointExtension>
        </extensions>
      </trkpt>
      <trkpt lat="42.6252266205847263336181640625" lon="19.88191078417003154754638671875">
        <ele>1749.5999755859375</ele>
        <time>2026-06-16T08:51:11.000Z</time>
        <extensions>
          <ns3:TrackPointExtension>
            <ns3:atemp>17.0</ns3:atemp>
          </ns3:TrackPointExtension>
        </extensions>
      </trkpt>
      <trkpt lat="42.6252266205847263336181640625" lon="19.88191078417003154754638671875">
        <ele>1749.5999755859375</ele>
        <time>2026-06-16T08:51:12.000Z</time>
        <extensions>
          <ns3:TrackPointExtension>
            <ns3:atemp>17.0</ns3:atemp>
          </ns3:TrackPointExtension>
        </extensions>
      </trkpt>
      <trkpt lat="42.6252266205847263336181640625" lon="19.88191078417003154754638671875">
        <ele>1749.5999755859375</ele>
        <time>2026-06-16T08:51:13.000Z</time>
        <extensions>
          <ns3:TrackPointExtension>
            <ns3:atemp>17.0</ns3:atemp>
          </ns3:TrackPointExtension>
        </extensions>
      </trkpt>
      <trkpt lat="42.6252266205847263336181640625" lon="19.88191078417003154754638671875">
        <ele>1749.5999755859375</ele>
        <time>2026-06-16T08:51:14.000Z</time>
        <extensions>
          <ns3:TrackPointExtension>
            <ns3:atemp>17.0</ns3:atemp>
          </ns3:TrackPointExtension>
        </extensions>
      </trkpt>
      <trkpt lat="42.6252266205847263336181640625" lon="19.88191078417003154754638671875">
        <ele>1749.5999755859375</ele>
        <time>2026-06-16T08:51:15.000Z</time>
        <extensions>
          <ns3:TrackPointExtension>
            <ns3:atemp>17.0</ns3:atemp>
          </ns3:TrackPointExtension>
        </extensions>
      </trkpt>
      <trkpt lat="42.6252266205847263336181640625" lon="19.88191078417003154754638671875">
        <ele>1749.5999755859375</ele>
        <time>2026-06-16T08:51:16.000Z</time>
        <extensions>
          <ns3:TrackPointExtension>
            <ns3:atemp>17.0</ns3:atemp>
          </ns3:TrackPointExtension>
        </extensions>
      </trkpt>
      <trkpt lat="42.6252266205847263336181640625" lon="19.88191078417003154754638671875">
        <ele>1749.5999755859375</ele>
        <time>2026-06-16T08:51:17.000Z</time>
        <extensions>
          <ns3:TrackPointExtension>
            <ns3:atemp>17.0</ns3:atemp>
          </ns3:TrackPointExtension>
        </extensions>
      </trkpt>
      <trkpt lat="42.6252266205847263336181640625" lon="19.88191078417003154754638671875">
        <ele>1749.5999755859375</ele>
        <time>2026-06-16T08:51:18.000Z</time>
        <extensions>
          <ns3:TrackPointExtension>
            <ns3:atemp>17.0</ns3:atemp>
          </ns3:TrackPointExtension>
        </extensions>
      </trkpt>
      <trkpt lat="42.6252266205847263336181640625" lon="19.88191078417003154754638671875">
        <ele>1749.5999755859375</ele>
        <time>2026-06-16T08:51:19.000Z</time>
        <extensions>
          <ns3:TrackPointExtension>
            <ns3:atemp>17.0</ns3:atemp>
          </ns3:TrackPointExtension>
        </extensions>
      </trkpt>
      <trkpt lat="42.6252266205847263336181640625" lon="19.88191078417003154754638671875">
        <ele>1749.5999755859375</ele>
        <time>2026-06-16T08:51:20.000Z</time>
        <extensions>
          <ns3:TrackPointExtension>
            <ns3:atemp>17.0</ns3:atemp>
          </ns3:TrackPointExtension>
        </extensions>
      </trkpt>
      <trkpt lat="42.6252266205847263336181640625" lon="19.88191078417003154754638671875">
        <ele>1749.5999755859375</ele>
        <time>2026-06-16T08:51:21.000Z</time>
        <extensions>
          <ns3:TrackPointExtension>
            <ns3:atemp>17.0</ns3:atemp>
          </ns3:TrackPointExtension>
        </extensions>
      </trkpt>
      <trkpt lat="42.6252266205847263336181640625" lon="19.88191078417003154754638671875">
        <ele>1749.5999755859375</ele>
        <time>2026-06-16T08:51:22.000Z</time>
        <extensions>
          <ns3:TrackPointExtension>
            <ns3:atemp>17.0</ns3:atemp>
          </ns3:TrackPointExtension>
        </extensions>
      </trkpt>
      <trkpt lat="42.6252266205847263336181640625" lon="19.88191078417003154754638671875">
        <ele>1749.5999755859375</ele>
        <time>2026-06-16T08:51:23.000Z</time>
        <extensions>
          <ns3:TrackPointExtension>
            <ns3:atemp>17.0</ns3:atemp>
          </ns3:TrackPointExtension>
        </extensions>
      </trkpt>
      <trkpt lat="42.6252266205847263336181640625" lon="19.88191078417003154754638671875">
        <ele>1749.5999755859375</ele>
        <time>2026-06-16T08:51:24.000Z</time>
        <extensions>
          <ns3:TrackPointExtension>
            <ns3:atemp>17.0</ns3:atemp>
          </ns3:TrackPointExtension>
        </extensions>
      </trkpt>
      <trkpt lat="42.6252266205847263336181640625" lon="19.88191078417003154754638671875">
        <ele>1749.5999755859375</ele>
        <time>2026-06-16T08:51:25.000Z</time>
        <extensions>
          <ns3:TrackPointExtension>
            <ns3:atemp>17.0</ns3:atemp>
          </ns3:TrackPointExtension>
        </extensions>
      </trkpt>
      <trkpt lat="42.6252266205847263336181640625" lon="19.88191078417003154754638671875">
        <ele>1749.5999755859375</ele>
        <time>2026-06-16T08:51:26.000Z</time>
        <extensions>
          <ns3:TrackPointExtension>
            <ns3:atemp>17.0</ns3:atemp>
          </ns3:TrackPointExtension>
        </extensions>
      </trkpt>
      <trkpt lat="42.6252266205847263336181640625" lon="19.88191078417003154754638671875">
        <ele>1749.5999755859375</ele>
        <time>2026-06-16T08:51:27.000Z</time>
        <extensions>
          <ns3:TrackPointExtension>
            <ns3:atemp>17.0</ns3:atemp>
          </ns3:TrackPointExtension>
        </extensions>
      </trkpt>
      <trkpt lat="42.6252266205847263336181640625" lon="19.88191078417003154754638671875">
        <ele>1749.5999755859375</ele>
        <time>2026-06-16T08:51:28.000Z</time>
        <extensions>
          <ns3:TrackPointExtension>
            <ns3:atemp>17.0</ns3:atemp>
          </ns3:TrackPointExtension>
        </extensions>
      </trkpt>
      <trkpt lat="42.6252266205847263336181640625" lon="19.88191078417003154754638671875">
        <ele>1749.5999755859375</ele>
        <time>2026-06-16T08:51:29.000Z</time>
        <extensions>
          <ns3:TrackPointExtension>
            <ns3:atemp>17.0</ns3:atemp>
          </ns3:TrackPointExtension>
        </extensions>
      </trkpt>
      <trkpt lat="42.6252266205847263336181640625" lon="19.88191078417003154754638671875">
        <ele>1749.5999755859375</ele>
        <time>2026-06-16T08:51:30.000Z</time>
        <extensions>
          <ns3:TrackPointExtension>
            <ns3:atemp>17.0</ns3:atemp>
          </ns3:TrackPointExtension>
        </extensions>
      </trkpt>
      <trkpt lat="42.6252266205847263336181640625" lon="19.88191078417003154754638671875">
        <ele>1749.5999755859375</ele>
        <time>2026-06-16T08:51:31.000Z</time>
        <extensions>
          <ns3:TrackPointExtension>
            <ns3:atemp>17.0</ns3:atemp>
          </ns3:TrackPointExtension>
        </extensions>
      </trkpt>
      <trkpt lat="42.6252266205847263336181640625" lon="19.88191078417003154754638671875">
        <ele>1749.5999755859375</ele>
        <time>2026-06-16T08:51:32.000Z</time>
        <extensions>
          <ns3:TrackPointExtension>
            <ns3:atemp>17.0</ns3:atemp>
          </ns3:TrackPointExtension>
        </extensions>
      </trkpt>
      <trkpt lat="42.6252266205847263336181640625" lon="19.88191078417003154754638671875">
        <ele>1749.5999755859375</ele>
        <time>2026-06-16T08:51:33.000Z</time>
        <extensions>
          <ns3:TrackPointExtension>
            <ns3:atemp>17.0</ns3:atemp>
          </ns3:TrackPointExtension>
        </extensions>
      </trkpt>
      <trkpt lat="42.6252266205847263336181640625" lon="19.88191078417003154754638671875">
        <ele>1749.5999755859375</ele>
        <time>2026-06-16T08:51:34.000Z</time>
        <extensions>
          <ns3:TrackPointExtension>
            <ns3:atemp>17.0</ns3:atemp>
          </ns3:TrackPointExtension>
        </extensions>
      </trkpt>
      <trkpt lat="42.6252266205847263336181640625" lon="19.88191078417003154754638671875">
        <ele>1749.5999755859375</ele>
        <time>2026-06-16T08:51:35.000Z</time>
        <extensions>
          <ns3:TrackPointExtension>
            <ns3:atemp>17.0</ns3:atemp>
          </ns3:TrackPointExtension>
        </extensions>
      </trkpt>
      <trkpt lat="42.6252266205847263336181640625" lon="19.88191078417003154754638671875">
        <ele>1749.5999755859375</ele>
        <time>2026-06-16T08:51:36.000Z</time>
        <extensions>
          <ns3:TrackPointExtension>
            <ns3:atemp>17.0</ns3:atemp>
          </ns3:TrackPointExtension>
        </extensions>
      </trkpt>
      <trkpt lat="42.6252266205847263336181640625" lon="19.88191078417003154754638671875">
        <ele>1749.5999755859375</ele>
        <time>2026-06-16T08:51:37.000Z</time>
        <extensions>
          <ns3:TrackPointExtension>
            <ns3:atemp>17.0</ns3:atemp>
          </ns3:TrackPointExtension>
        </extensions>
      </trkpt>
      <trkpt lat="42.6252266205847263336181640625" lon="19.88191078417003154754638671875">
        <ele>1749.5999755859375</ele>
        <time>2026-06-16T08:51:38.000Z</time>
        <extensions>
          <ns3:TrackPointExtension>
            <ns3:atemp>17.0</ns3:atemp>
          </ns3:TrackPointExtension>
        </extensions>
      </trkpt>
      <trkpt lat="42.6252266205847263336181640625" lon="19.88191078417003154754638671875">
        <ele>1749.5999755859375</ele>
        <time>2026-06-16T08:51:39.000Z</time>
        <extensions>
          <ns3:TrackPointExtension>
            <ns3:atemp>17.0</ns3:atemp>
          </ns3:TrackPointExtension>
        </extensions>
      </trkpt>
      <trkpt lat="42.6252266205847263336181640625" lon="19.88191078417003154754638671875">
        <ele>1749.5999755859375</ele>
        <time>2026-06-16T08:51:40.000Z</time>
        <extensions>
          <ns3:TrackPointExtension>
            <ns3:atemp>17.0</ns3:atemp>
          </ns3:TrackPointExtension>
        </extensions>
      </trkpt>
      <trkpt lat="42.6252266205847263336181640625" lon="19.88191078417003154754638671875">
        <ele>1749.5999755859375</ele>
        <time>2026-06-16T08:51:41.000Z</time>
        <extensions>
          <ns3:TrackPointExtension>
            <ns3:atemp>17.0</ns3:atemp>
          </ns3:TrackPointExtension>
        </extensions>
      </trkpt>
      <trkpt lat="42.6252266205847263336181640625" lon="19.88191078417003154754638671875">
        <ele>1749.5999755859375</ele>
        <time>2026-06-16T08:51:42.000Z</time>
        <extensions>
          <ns3:TrackPointExtension>
            <ns3:atemp>17.0</ns3:atemp>
          </ns3:TrackPointExtension>
        </extensions>
      </trkpt>
      <trkpt lat="42.6252266205847263336181640625" lon="19.88191078417003154754638671875">
        <ele>1749.5999755859375</ele>
        <time>2026-06-16T08:51:43.000Z</time>
        <extensions>
          <ns3:TrackPointExtension>
            <ns3:atemp>17.0</ns3:atemp>
          </ns3:TrackPointExtension>
        </extensions>
      </trkpt>
      <trkpt lat="42.6252266205847263336181640625" lon="19.88191078417003154754638671875">
        <ele>1749.5999755859375</ele>
        <time>2026-06-16T08:51:44.000Z</time>
        <extensions>
          <ns3:TrackPointExtension>
            <ns3:atemp>17.0</ns3:atemp>
          </ns3:TrackPointExtension>
        </extensions>
      </trkpt>
      <trkpt lat="42.6252266205847263336181640625" lon="19.88191078417003154754638671875">
        <ele>1749.5999755859375</ele>
        <time>2026-06-16T08:51:45.000Z</time>
        <extensions>
          <ns3:TrackPointExtension>
            <ns3:atemp>17.0</ns3:atemp>
          </ns3:TrackPointExtension>
        </extensions>
      </trkpt>
      <trkpt lat="42.6252266205847263336181640625" lon="19.88191078417003154754638671875">
        <ele>1749.5999755859375</ele>
        <time>2026-06-16T08:51:46.000Z</time>
        <extensions>
          <ns3:TrackPointExtension>
            <ns3:atemp>17.0</ns3:atemp>
          </ns3:TrackPointExtension>
        </extensions>
      </trkpt>
      <trkpt lat="42.6252266205847263336181640625" lon="19.88191078417003154754638671875">
        <ele>1749.5999755859375</ele>
        <time>2026-06-16T08:51:47.000Z</time>
        <extensions>
          <ns3:TrackPointExtension>
            <ns3:atemp>17.0</ns3:atemp>
          </ns3:TrackPointExtension>
        </extensions>
      </trkpt>
      <trkpt lat="42.6252266205847263336181640625" lon="19.88191078417003154754638671875">
        <ele>1749.5999755859375</ele>
        <time>2026-06-16T08:51:48.000Z</time>
        <extensions>
          <ns3:TrackPointExtension>
            <ns3:atemp>17.0</ns3:atemp>
          </ns3:TrackPointExtension>
        </extensions>
      </trkpt>
      <trkpt lat="42.6252266205847263336181640625" lon="19.88191078417003154754638671875">
        <ele>1749.5999755859375</ele>
        <time>2026-06-16T08:51:49.000Z</time>
        <extensions>
          <ns3:TrackPointExtension>
            <ns3:atemp>17.0</ns3:atemp>
          </ns3:TrackPointExtension>
        </extensions>
      </trkpt>
      <trkpt lat="42.6252266205847263336181640625" lon="19.88191078417003154754638671875">
        <ele>1749.5999755859375</ele>
        <time>2026-06-16T08:51:50.000Z</time>
        <extensions>
          <ns3:TrackPointExtension>
            <ns3:atemp>17.0</ns3:atemp>
          </ns3:TrackPointExtension>
        </extensions>
      </trkpt>
      <trkpt lat="42.6252266205847263336181640625" lon="19.88191078417003154754638671875">
        <ele>1749.5999755859375</ele>
        <time>2026-06-16T08:51:51.000Z</time>
        <extensions>
          <ns3:TrackPointExtension>
            <ns3:atemp>17.0</ns3:atemp>
          </ns3:TrackPointExtension>
        </extensions>
      </trkpt>
      <trkpt lat="42.6252266205847263336181640625" lon="19.88191078417003154754638671875">
        <ele>1749.5999755859375</ele>
        <time>2026-06-16T08:51:52.000Z</time>
        <extensions>
          <ns3:TrackPointExtension>
            <ns3:atemp>17.0</ns3:atemp>
          </ns3:TrackPointExtension>
        </extensions>
      </trkpt>
      <trkpt lat="42.6252266205847263336181640625" lon="19.88191078417003154754638671875">
        <ele>1749.5999755859375</ele>
        <time>2026-06-16T08:51:53.000Z</time>
        <extensions>
          <ns3:TrackPointExtension>
            <ns3:atemp>17.0</ns3:atemp>
          </ns3:TrackPointExtension>
        </extensions>
      </trkpt>
      <trkpt lat="42.6252266205847263336181640625" lon="19.88191078417003154754638671875">
        <ele>1749.5999755859375</ele>
        <time>2026-06-16T08:51:54.000Z</time>
        <extensions>
          <ns3:TrackPointExtension>
            <ns3:atemp>17.0</ns3:atemp>
          </ns3:TrackPointExtension>
        </extensions>
      </trkpt>
      <trkpt lat="42.6252266205847263336181640625" lon="19.88191078417003154754638671875">
        <ele>1749.5999755859375</ele>
        <time>2026-06-16T08:51:55.000Z</time>
        <extensions>
          <ns3:TrackPointExtension>
            <ns3:atemp>17.0</ns3:atemp>
          </ns3:TrackPointExtension>
        </extensions>
      </trkpt>
      <trkpt lat="42.6252266205847263336181640625" lon="19.88191078417003154754638671875">
        <ele>1749.5999755859375</ele>
        <time>2026-06-16T08:51:56.000Z</time>
        <extensions>
          <ns3:TrackPointExtension>
            <ns3:atemp>17.0</ns3:atemp>
          </ns3:TrackPointExtension>
        </extensions>
      </trkpt>
      <trkpt lat="42.6252266205847263336181640625" lon="19.88191078417003154754638671875">
        <ele>1749.5999755859375</ele>
        <time>2026-06-16T08:51:57.000Z</time>
        <extensions>
          <ns3:TrackPointExtension>
            <ns3:atemp>17.0</ns3:atemp>
          </ns3:TrackPointExtension>
        </extensions>
      </trkpt>
      <trkpt lat="42.6252266205847263336181640625" lon="19.88191078417003154754638671875">
        <ele>1749.5999755859375</ele>
        <time>2026-06-16T08:51:58.000Z</time>
        <extensions>
          <ns3:TrackPointExtension>
            <ns3:atemp>17.0</ns3:atemp>
          </ns3:TrackPointExtension>
        </extensions>
      </trkpt>
      <trkpt lat="42.6252266205847263336181640625" lon="19.88191078417003154754638671875">
        <ele>1749.5999755859375</ele>
        <time>2026-06-16T08:51:59.000Z</time>
        <extensions>
          <ns3:TrackPointExtension>
            <ns3:atemp>17.0</ns3:atemp>
          </ns3:TrackPointExtension>
        </extensions>
      </trkpt>
      <trkpt lat="42.6252266205847263336181640625" lon="19.88191078417003154754638671875">
        <ele>1749.5999755859375</ele>
        <time>2026-06-16T08:52:00.000Z</time>
        <extensions>
          <ns3:TrackPointExtension>
            <ns3:atemp>17.0</ns3:atemp>
          </ns3:TrackPointExtension>
        </extensions>
      </trkpt>
      <trkpt lat="42.6252266205847263336181640625" lon="19.88191078417003154754638671875">
        <ele>1749.5999755859375</ele>
        <time>2026-06-16T08:52:01.000Z</time>
        <extensions>
          <ns3:TrackPointExtension>
            <ns3:atemp>17.0</ns3:atemp>
          </ns3:TrackPointExtension>
        </extensions>
      </trkpt>
      <trkpt lat="42.6252266205847263336181640625" lon="19.88191078417003154754638671875">
        <ele>1749.5999755859375</ele>
        <time>2026-06-16T08:52:02.000Z</time>
        <extensions>
          <ns3:TrackPointExtension>
            <ns3:atemp>17.0</ns3:atemp>
          </ns3:TrackPointExtension>
        </extensions>
      </trkpt>
      <trkpt lat="42.6252266205847263336181640625" lon="19.88191078417003154754638671875">
        <ele>1749.5999755859375</ele>
        <time>2026-06-16T08:52:03.000Z</time>
        <extensions>
          <ns3:TrackPointExtension>
            <ns3:atemp>17.0</ns3:atemp>
          </ns3:TrackPointExtension>
        </extensions>
      </trkpt>
      <trkpt lat="42.6252266205847263336181640625" lon="19.88191078417003154754638671875">
        <ele>1749.5999755859375</ele>
        <time>2026-06-16T08:52:04.000Z</time>
        <extensions>
          <ns3:TrackPointExtension>
            <ns3:atemp>17.0</ns3:atemp>
          </ns3:TrackPointExtension>
        </extensions>
      </trkpt>
      <trkpt lat="42.6252266205847263336181640625" lon="19.88191078417003154754638671875">
        <ele>1749.5999755859375</ele>
        <time>2026-06-16T08:52:05.000Z</time>
        <extensions>
          <ns3:TrackPointExtension>
            <ns3:atemp>17.0</ns3:atemp>
          </ns3:TrackPointExtension>
        </extensions>
      </trkpt>
      <trkpt lat="42.6252266205847263336181640625" lon="19.88191078417003154754638671875">
        <ele>1749.5999755859375</ele>
        <time>2026-06-16T08:52:06.000Z</time>
        <extensions>
          <ns3:TrackPointExtension>
            <ns3:atemp>17.0</ns3:atemp>
          </ns3:TrackPointExtension>
        </extensions>
      </trkpt>
      <trkpt lat="42.6252266205847263336181640625" lon="19.88191078417003154754638671875">
        <ele>1749.5999755859375</ele>
        <time>2026-06-16T08:52:07.000Z</time>
        <extensions>
          <ns3:TrackPointExtension>
            <ns3:atemp>17.0</ns3:atemp>
          </ns3:TrackPointExtension>
        </extensions>
      </trkpt>
      <trkpt lat="42.6252266205847263336181640625" lon="19.88191078417003154754638671875">
        <ele>1749.5999755859375</ele>
        <time>2026-06-16T08:52:08.000Z</time>
        <extensions>
          <ns3:TrackPointExtension>
            <ns3:atemp>17.0</ns3:atemp>
          </ns3:TrackPointExtension>
        </extensions>
      </trkpt>
      <trkpt lat="42.6252266205847263336181640625" lon="19.88191078417003154754638671875">
        <ele>1749.5999755859375</ele>
        <time>2026-06-16T08:52:09.000Z</time>
        <extensions>
          <ns3:TrackPointExtension>
            <ns3:atemp>17.0</ns3:atemp>
          </ns3:TrackPointExtension>
        </extensions>
      </trkpt>
      <trkpt lat="42.6252266205847263336181640625" lon="19.88191078417003154754638671875">
        <ele>1749.5999755859375</ele>
        <time>2026-06-16T08:52:10.000Z</time>
        <extensions>
          <ns3:TrackPointExtension>
            <ns3:atemp>17.0</ns3:atemp>
          </ns3:TrackPointExtension>
        </extensions>
      </trkpt>
      <trkpt lat="42.6252266205847263336181640625" lon="19.88191078417003154754638671875">
        <ele>1749.5999755859375</ele>
        <time>2026-06-16T08:52:11.000Z</time>
        <extensions>
          <ns3:TrackPointExtension>
            <ns3:atemp>17.0</ns3:atemp>
          </ns3:TrackPointExtension>
        </extensions>
      </trkpt>
      <trkpt lat="42.6252266205847263336181640625" lon="19.88191078417003154754638671875">
        <ele>1749.5999755859375</ele>
        <time>2026-06-16T08:52:12.000Z</time>
        <extensions>
          <ns3:TrackPointExtension>
            <ns3:atemp>17.0</ns3:atemp>
          </ns3:TrackPointExtension>
        </extensions>
      </trkpt>
      <trkpt lat="42.6252266205847263336181640625" lon="19.88191078417003154754638671875">
        <ele>1749.5999755859375</ele>
        <time>2026-06-16T08:52:13.000Z</time>
        <extensions>
          <ns3:TrackPointExtension>
            <ns3:atemp>17.0</ns3:atemp>
          </ns3:TrackPointExtension>
        </extensions>
      </trkpt>
      <trkpt lat="42.6252266205847263336181640625" lon="19.88191078417003154754638671875">
        <ele>1749.5999755859375</ele>
        <time>2026-06-16T08:52:14.000Z</time>
        <extensions>
          <ns3:TrackPointExtension>
            <ns3:atemp>17.0</ns3:atemp>
          </ns3:TrackPointExtension>
        </extensions>
      </trkpt>
      <trkpt lat="42.6252266205847263336181640625" lon="19.88191078417003154754638671875">
        <ele>1749.5999755859375</ele>
        <time>2026-06-16T08:52:15.000Z</time>
        <extensions>
          <ns3:TrackPointExtension>
            <ns3:atemp>17.0</ns3:atemp>
          </ns3:TrackPointExtension>
        </extensions>
      </trkpt>
      <trkpt lat="42.6252266205847263336181640625" lon="19.88191078417003154754638671875">
        <ele>1749.5999755859375</ele>
        <time>2026-06-16T08:52:16.000Z</time>
        <extensions>
          <ns3:TrackPointExtension>
            <ns3:atemp>17.0</ns3:atemp>
          </ns3:TrackPointExtension>
        </extensions>
      </trkpt>
      <trkpt lat="42.6252266205847263336181640625" lon="19.88191078417003154754638671875">
        <ele>1749.5999755859375</ele>
        <time>2026-06-16T08:52:17.000Z</time>
        <extensions>
          <ns3:TrackPointExtension>
            <ns3:atemp>17.0</ns3:atemp>
          </ns3:TrackPointExtension>
        </extensions>
      </trkpt>
      <trkpt lat="42.6252266205847263336181640625" lon="19.88191078417003154754638671875">
        <ele>1749.5999755859375</ele>
        <time>2026-06-16T08:52:18.000Z</time>
        <extensions>
          <ns3:TrackPointExtension>
            <ns3:atemp>17.0</ns3:atemp>
          </ns3:TrackPointExtension>
        </extensions>
      </trkpt>
      <trkpt lat="42.6252266205847263336181640625" lon="19.88191078417003154754638671875">
        <ele>1749.5999755859375</ele>
        <time>2026-06-16T08:52:19.000Z</time>
        <extensions>
          <ns3:TrackPointExtension>
            <ns3:atemp>17.0</ns3:atemp>
          </ns3:TrackPointExtension>
        </extensions>
      </trkpt>
      <trkpt lat="42.6252266205847263336181640625" lon="19.88191078417003154754638671875">
        <ele>1749.5999755859375</ele>
        <time>2026-06-16T08:52:20.000Z</time>
        <extensions>
          <ns3:TrackPointExtension>
            <ns3:atemp>17.0</ns3:atemp>
          </ns3:TrackPointExtension>
        </extensions>
      </trkpt>
      <trkpt lat="42.6252266205847263336181640625" lon="19.88191078417003154754638671875">
        <ele>1749.5999755859375</ele>
        <time>2026-06-16T08:52:21.000Z</time>
        <extensions>
          <ns3:TrackPointExtension>
            <ns3:atemp>17.0</ns3:atemp>
          </ns3:TrackPointExtension>
        </extensions>
      </trkpt>
      <trkpt lat="42.6252266205847263336181640625" lon="19.88191078417003154754638671875">
        <ele>1749.5999755859375</ele>
        <time>2026-06-16T08:52:22.000Z</time>
        <extensions>
          <ns3:TrackPointExtension>
            <ns3:atemp>17.0</ns3:atemp>
          </ns3:TrackPointExtension>
        </extensions>
      </trkpt>
      <trkpt lat="42.6252266205847263336181640625" lon="19.88191078417003154754638671875">
        <ele>1749.5999755859375</ele>
        <time>2026-06-16T08:52:23.000Z</time>
        <extensions>
          <ns3:TrackPointExtension>
            <ns3:atemp>17.0</ns3:atemp>
          </ns3:TrackPointExtension>
        </extensions>
      </trkpt>
      <trkpt lat="42.6252266205847263336181640625" lon="19.88191078417003154754638671875">
        <ele>1749.5999755859375</ele>
        <time>2026-06-16T08:52:24.000Z</time>
        <extensions>
          <ns3:TrackPointExtension>
            <ns3:atemp>17.0</ns3:atemp>
          </ns3:TrackPointExtension>
        </extensions>
      </trkpt>
      <trkpt lat="42.6252266205847263336181640625" lon="19.88191078417003154754638671875">
        <ele>1749.5999755859375</ele>
        <time>2026-06-16T08:52:25.000Z</time>
        <extensions>
          <ns3:TrackPointExtension>
            <ns3:atemp>17.0</ns3:atemp>
          </ns3:TrackPointExtension>
        </extensions>
      </trkpt>
      <trkpt lat="42.6252266205847263336181640625" lon="19.88191078417003154754638671875">
        <ele>1749.5999755859375</ele>
        <time>2026-06-16T08:52:26.000Z</time>
        <extensions>
          <ns3:TrackPointExtension>
            <ns3:atemp>17.0</ns3:atemp>
          </ns3:TrackPointExtension>
        </extensions>
      </trkpt>
      <trkpt lat="42.6252266205847263336181640625" lon="19.88191078417003154754638671875">
        <ele>1749.5999755859375</ele>
        <time>2026-06-16T08:52:27.000Z</time>
        <extensions>
          <ns3:TrackPointExtension>
            <ns3:atemp>17.0</ns3:atemp>
          </ns3:TrackPointExtension>
        </extensions>
      </trkpt>
      <trkpt lat="42.6252266205847263336181640625" lon="19.88191078417003154754638671875">
        <ele>1749.5999755859375</ele>
        <time>2026-06-16T08:52:28.000Z</time>
        <extensions>
          <ns3:TrackPointExtension>
            <ns3:atemp>17.0</ns3:atemp>
          </ns3:TrackPointExtension>
        </extensions>
      </trkpt>
      <trkpt lat="42.6252266205847263336181640625" lon="19.88191078417003154754638671875">
        <ele>1749.5999755859375</ele>
        <time>2026-06-16T08:52:29.000Z</time>
        <extensions>
          <ns3:TrackPointExtension>
            <ns3:atemp>17.0</ns3:atemp>
          </ns3:TrackPointExtension>
        </extensions>
      </trkpt>
      <trkpt lat="42.6252266205847263336181640625" lon="19.88191078417003154754638671875">
        <ele>1749.5999755859375</ele>
        <time>2026-06-16T08:52:30.000Z</time>
        <extensions>
          <ns3:TrackPointExtension>
            <ns3:atemp>17.0</ns3:atemp>
          </ns3:TrackPointExtension>
        </extensions>
      </trkpt>
      <trkpt lat="42.6252266205847263336181640625" lon="19.88191078417003154754638671875">
        <ele>1749.5999755859375</ele>
        <time>2026-06-16T08:52:31.000Z</time>
        <extensions>
          <ns3:TrackPointExtension>
            <ns3:atemp>17.0</ns3:atemp>
          </ns3:TrackPointExtension>
        </extensions>
      </trkpt>
      <trkpt lat="42.6252266205847263336181640625" lon="19.88191078417003154754638671875">
        <ele>1749.5999755859375</ele>
        <time>2026-06-16T08:52:32.000Z</time>
        <extensions>
          <ns3:TrackPointExtension>
            <ns3:atemp>17.0</ns3:atemp>
          </ns3:TrackPointExtension>
        </extensions>
      </trkpt>
      <trkpt lat="42.6252266205847263336181640625" lon="19.88191078417003154754638671875">
        <ele>1749.5999755859375</ele>
        <time>2026-06-16T08:52:33.000Z</time>
        <extensions>
          <ns3:TrackPointExtension>
            <ns3:atemp>17.0</ns3:atemp>
          </ns3:TrackPointExtension>
        </extensions>
      </trkpt>
      <trkpt lat="42.6252266205847263336181640625" lon="19.88191078417003154754638671875">
        <ele>1749.5999755859375</ele>
        <time>2026-06-16T08:52:34.000Z</time>
        <extensions>
          <ns3:TrackPointExtension>
            <ns3:atemp>17.0</ns3:atemp>
          </ns3:TrackPointExtension>
        </extensions>
      </trkpt>
      <trkpt lat="42.6252266205847263336181640625" lon="19.88191078417003154754638671875">
        <ele>1749.5999755859375</ele>
        <time>2026-06-16T08:52:35.000Z</time>
        <extensions>
          <ns3:TrackPointExtension>
            <ns3:atemp>17.0</ns3:atemp>
          </ns3:TrackPointExtension>
        </extensions>
      </trkpt>
      <trkpt lat="42.6252266205847263336181640625" lon="19.88191078417003154754638671875">
        <ele>1749.5999755859375</ele>
        <time>2026-06-16T08:52:36.000Z</time>
        <extensions>
          <ns3:TrackPointExtension>
            <ns3:atemp>17.0</ns3:atemp>
          </ns3:TrackPointExtension>
        </extensions>
      </trkpt>
      <trkpt lat="42.6252266205847263336181640625" lon="19.88191078417003154754638671875">
        <ele>1749.5999755859375</ele>
        <time>2026-06-16T08:52:37.000Z</time>
        <extensions>
          <ns3:TrackPointExtension>
            <ns3:atemp>17.0</ns3:atemp>
          </ns3:TrackPointExtension>
        </extensions>
      </trkpt>
      <trkpt lat="42.6252266205847263336181640625" lon="19.88191078417003154754638671875">
        <ele>1749.5999755859375</ele>
        <time>2026-06-16T08:52:38.000Z</time>
        <extensions>
          <ns3:TrackPointExtension>
            <ns3:atemp>17.0</ns3:atemp>
          </ns3:TrackPointExtension>
        </extensions>
      </trkpt>
      <trkpt lat="42.6252266205847263336181640625" lon="19.88191078417003154754638671875">
        <ele>1749.5999755859375</ele>
        <time>2026-06-16T08:52:39.000Z</time>
        <extensions>
          <ns3:TrackPointExtension>
            <ns3:atemp>17.0</ns3:atemp>
          </ns3:TrackPointExtension>
        </extensions>
      </trkpt>
      <trkpt lat="42.6252266205847263336181640625" lon="19.88191078417003154754638671875">
        <ele>1749.5999755859375</ele>
        <time>2026-06-16T08:52:40.000Z</time>
        <extensions>
          <ns3:TrackPointExtension>
            <ns3:atemp>17.0</ns3:atemp>
          </ns3:TrackPointExtension>
        </extensions>
      </trkpt>
      <trkpt lat="42.6252266205847263336181640625" lon="19.88191078417003154754638671875">
        <ele>1749.5999755859375</ele>
        <time>2026-06-16T08:52:41.000Z</time>
        <extensions>
          <ns3:TrackPointExtension>
            <ns3:atemp>17.0</ns3:atemp>
          </ns3:TrackPointExtension>
        </extensions>
      </trkpt>
      <trkpt lat="42.6252266205847263336181640625" lon="19.88191078417003154754638671875">
        <ele>1749.5999755859375</ele>
        <time>2026-06-16T08:52:42.000Z</time>
        <extensions>
          <ns3:TrackPointExtension>
            <ns3:atemp>17.0</ns3:atemp>
          </ns3:TrackPointExtension>
        </extensions>
      </trkpt>
      <trkpt lat="42.6252266205847263336181640625" lon="19.88191078417003154754638671875">
        <ele>1749.5999755859375</ele>
        <time>2026-06-16T08:52:43.000Z</time>
        <extensions>
          <ns3:TrackPointExtension>
            <ns3:atemp>17.0</ns3:atemp>
          </ns3:TrackPointExtension>
        </extensions>
      </trkpt>
      <trkpt lat="42.6252266205847263336181640625" lon="19.88191078417003154754638671875">
        <ele>1749.5999755859375</ele>
        <time>2026-06-16T08:52:44.000Z</time>
        <extensions>
          <ns3:TrackPointExtension>
            <ns3:atemp>17.0</ns3:atemp>
          </ns3:TrackPointExtension>
        </extensions>
      </trkpt>
      <trkpt lat="42.6252266205847263336181640625" lon="19.88191078417003154754638671875">
        <ele>1749.5999755859375</ele>
        <time>2026-06-16T08:52:45.000Z</time>
        <extensions>
          <ns3:TrackPointExtension>
            <ns3:atemp>17.0</ns3:atemp>
          </ns3:TrackPointExtension>
        </extensions>
      </trkpt>
      <trkpt lat="42.6252266205847263336181640625" lon="19.88191078417003154754638671875">
        <ele>1749.5999755859375</ele>
        <time>2026-06-16T08:52:46.000Z</time>
        <extensions>
          <ns3:TrackPointExtension>
            <ns3:atemp>17.0</ns3:atemp>
          </ns3:TrackPointExtension>
        </extensions>
      </trkpt>
      <trkpt lat="42.6252266205847263336181640625" lon="19.88191078417003154754638671875">
        <ele>1749.5999755859375</ele>
        <time>2026-06-16T08:52:47.000Z</time>
        <extensions>
          <ns3:TrackPointExtension>
            <ns3:atemp>17.0</ns3:atemp>
          </ns3:TrackPointExtension>
        </extensions>
      </trkpt>
      <trkpt lat="42.6252266205847263336181640625" lon="19.88191078417003154754638671875">
        <ele>1749.5999755859375</ele>
        <time>2026-06-16T08:52:48.000Z</time>
        <extensions>
          <ns3:TrackPointExtension>
            <ns3:atemp>17.0</ns3:atemp>
          </ns3:TrackPointExtension>
        </extensions>
      </trkpt>
      <trkpt lat="42.62522838078439235687255859375" lon="19.881909191608428955078125">
        <ele>1749.5999755859375</ele>
        <time>2026-06-16T08:52:49.000Z</time>
        <extensions>
          <ns3:TrackPointExtension>
            <ns3:atemp>17.0</ns3:atemp>
          </ns3:TrackPointExtension>
        </extensions>
      </trkpt>
      <trkpt lat="42.62522871606051921844482421875" lon="19.88190776668488979339599609375">
        <ele>1749.5999755859375</ele>
        <time>2026-06-16T08:52:50.000Z</time>
        <extensions>
          <ns3:TrackPointExtension>
            <ns3:atemp>17.0</ns3:atemp>
          </ns3:TrackPointExtension>
        </extensions>
      </trkpt>
      <trkpt lat="42.6252266205847263336181640625" lon="19.88191078417003154754638671875">
        <ele>1749.5999755859375</ele>
        <time>2026-06-16T08:52:51.000Z</time>
        <extensions>
          <ns3:TrackPointExtension>
            <ns3:atemp>17.0</ns3:atemp>
          </ns3:TrackPointExtension>
        </extensions>
      </trkpt>
      <trkpt lat="42.6252266205847263336181640625" lon="19.88191078417003154754638671875">
        <ele>1749.5999755859375</ele>
        <time>2026-06-16T08:52:52.000Z</time>
        <extensions>
          <ns3:TrackPointExtension>
            <ns3:atemp>17.0</ns3:atemp>
          </ns3:TrackPointExtension>
        </extensions>
      </trkpt>
      <trkpt lat="42.6252266205847263336181640625" lon="19.88191078417003154754638671875">
        <ele>1749.5999755859375</ele>
        <time>2026-06-16T08:52:53.000Z</time>
        <extensions>
          <ns3:TrackPointExtension>
            <ns3:atemp>17.0</ns3:atemp>
          </ns3:TrackPointExtension>
        </extensions>
      </trkpt>
      <trkpt lat="42.6252266205847263336181640625" lon="19.88191078417003154754638671875">
        <ele>1749.5999755859375</ele>
        <time>2026-06-16T08:52:54.000Z</time>
        <extensions>
          <ns3:TrackPointExtension>
            <ns3:atemp>17.0</ns3:atemp>
          </ns3:TrackPointExtension>
        </extensions>
      </trkpt>
      <trkpt lat="42.6252266205847263336181640625" lon="19.88191078417003154754638671875">
        <ele>1749.5999755859375</ele>
        <time>2026-06-16T08:52:55.000Z</time>
        <extensions>
          <ns3:TrackPointExtension>
            <ns3:atemp>17.0</ns3:atemp>
          </ns3:TrackPointExtension>
        </extensions>
      </trkpt>
      <trkpt lat="42.6252266205847263336181640625" lon="19.88191078417003154754638671875">
        <ele>1749.5999755859375</ele>
        <time>2026-06-16T08:52:56.000Z</time>
        <extensions>
          <ns3:TrackPointExtension>
            <ns3:atemp>17.0</ns3:atemp>
          </ns3:TrackPointExtension>
        </extensions>
      </trkpt>
      <trkpt lat="42.6252266205847263336181640625" lon="19.88191078417003154754638671875">
        <ele>1749.5999755859375</ele>
        <time>2026-06-16T08:52:57.000Z</time>
        <extensions>
          <ns3:TrackPointExtension>
            <ns3:atemp>17.0</ns3:atemp>
          </ns3:TrackPointExtension>
        </extensions>
      </trkpt>
      <trkpt lat="42.6252266205847263336181640625" lon="19.88191078417003154754638671875">
        <ele>1749.5999755859375</ele>
        <time>2026-06-16T08:52:58.000Z</time>
        <extensions>
          <ns3:TrackPointExtension>
            <ns3:atemp>17.0</ns3:atemp>
          </ns3:TrackPointExtension>
        </extensions>
      </trkpt>
      <trkpt lat="42.6252266205847263336181640625" lon="19.88191078417003154754638671875">
        <ele>1749.5999755859375</ele>
        <time>2026-06-16T08:52:59.000Z</time>
        <extensions>
          <ns3:TrackPointExtension>
            <ns3:atemp>17.0</ns3:atemp>
          </ns3:TrackPointExtension>
        </extensions>
      </trkpt>
      <trkpt lat="42.6252298057079315185546875" lon="19.881905503571033477783203125">
        <ele>1749.5999755859375</ele>
        <time>2026-06-16T08:53:00.000Z</time>
        <extensions>
          <ns3:TrackPointExtension>
            <ns3:atemp>17.0</ns3:atemp>
          </ns3:TrackPointExtension>
        </extensions>
      </trkpt>
      <trkpt lat="42.62522720731794834136962890625" lon="19.881914891302585601806640625">
        <ele>1749.5999755859375</ele>
        <time>2026-06-16T08:53:01.000Z</time>
        <extensions>
          <ns3:TrackPointExtension>
            <ns3:atemp>17.0</ns3:atemp>
          </ns3:TrackPointExtension>
        </extensions>
      </trkpt>
      <trkpt lat="42.62522536329925060272216796875" lon="19.88191614858806133270263671875">
        <ele>1749.5999755859375</ele>
        <time>2026-06-16T08:53:02.000Z</time>
        <extensions>
          <ns3:TrackPointExtension>
            <ns3:atemp>17.0</ns3:atemp>
          </ns3:TrackPointExtension>
        </extensions>
      </trkpt>
      <trkpt lat="42.62522703967988491058349609375" lon="19.88191514275968074798583984375">
        <ele>1749.5999755859375</ele>
        <time>2026-06-16T08:53:03.000Z</time>
        <extensions>
          <ns3:TrackPointExtension>
            <ns3:atemp>17.0</ns3:atemp>
          </ns3:TrackPointExtension>
        </extensions>
      </trkpt>
      <trkpt lat="42.6252266205847263336181640625" lon="19.88191078417003154754638671875">
        <ele>1749.5999755859375</ele>
        <time>2026-06-16T08:53:04.000Z</time>
        <extensions>
          <ns3:TrackPointExtension>
            <ns3:atemp>17.0</ns3:atemp>
          </ns3:TrackPointExtension>
        </extensions>
      </trkpt>
      <trkpt lat="42.6252266205847263336181640625" lon="19.88191078417003154754638671875">
        <ele>1749.5999755859375</ele>
        <time>2026-06-16T08:53:05.000Z</time>
        <extensions>
          <ns3:TrackPointExtension>
            <ns3:atemp>17.0</ns3:atemp>
          </ns3:TrackPointExtension>
        </extensions>
      </trkpt>
      <trkpt lat="42.6252266205847263336181640625" lon="19.88191078417003154754638671875">
        <ele>1749.5999755859375</ele>
        <time>2026-06-16T08:53:06.000Z</time>
        <extensions>
          <ns3:TrackPointExtension>
            <ns3:atemp>17.0</ns3:atemp>
          </ns3:TrackPointExtension>
        </extensions>
      </trkpt>
      <trkpt lat="42.6252266205847263336181640625" lon="19.88191078417003154754638671875">
        <ele>1749.5999755859375</ele>
        <time>2026-06-16T08:53:07.000Z</time>
        <extensions>
          <ns3:TrackPointExtension>
            <ns3:atemp>17.0</ns3:atemp>
          </ns3:TrackPointExtension>
        </extensions>
      </trkpt>
      <trkpt lat="42.6252266205847263336181640625" lon="19.88191078417003154754638671875">
        <ele>1749.5999755859375</ele>
        <time>2026-06-16T08:53:08.000Z</time>
        <extensions>
          <ns3:TrackPointExtension>
            <ns3:atemp>17.0</ns3:atemp>
          </ns3:TrackPointExtension>
        </extensions>
      </trkpt>
      <trkpt lat="42.6252266205847263336181640625" lon="19.88191078417003154754638671875">
        <ele>1749.5999755859375</ele>
        <time>2026-06-16T08:53:09.000Z</time>
        <extensions>
          <ns3:TrackPointExtension>
            <ns3:atemp>17.0</ns3:atemp>
          </ns3:TrackPointExtension>
        </extensions>
      </trkpt>
      <trkpt lat="42.6252266205847263336181640625" lon="19.88191078417003154754638671875">
        <ele>1749.5999755859375</ele>
        <time>2026-06-16T08:53:10.000Z</time>
        <extensions>
          <ns3:TrackPointExtension>
            <ns3:atemp>17.0</ns3:atemp>
          </ns3:TrackPointExtension>
        </extensions>
      </trkpt>
      <trkpt lat="42.6252266205847263336181640625" lon="19.88191078417003154754638671875">
        <ele>1749.5999755859375</ele>
        <time>2026-06-16T08:53:11.000Z</time>
        <extensions>
          <ns3:TrackPointExtension>
            <ns3:atemp>17.0</ns3:atemp>
          </ns3:TrackPointExtension>
        </extensions>
      </trkpt>
      <trkpt lat="42.6252266205847263336181640625" lon="19.88191078417003154754638671875">
        <ele>1749.5999755859375</ele>
        <time>2026-06-16T08:53:12.000Z</time>
        <extensions>
          <ns3:TrackPointExtension>
            <ns3:atemp>17.0</ns3:atemp>
          </ns3:TrackPointExtension>
        </extensions>
      </trkpt>
      <trkpt lat="42.6252266205847263336181640625" lon="19.88191078417003154754638671875">
        <ele>1749.5999755859375</ele>
        <time>2026-06-16T08:53:13.000Z</time>
        <extensions>
          <ns3:TrackPointExtension>
            <ns3:atemp>17.0</ns3:atemp>
          </ns3:TrackPointExtension>
        </extensions>
      </trkpt>
      <trkpt lat="42.6252266205847263336181640625" lon="19.88191078417003154754638671875">
        <ele>1749.5999755859375</ele>
        <time>2026-06-16T08:53:14.000Z</time>
        <extensions>
          <ns3:TrackPointExtension>
            <ns3:atemp>17.0</ns3:atemp>
          </ns3:TrackPointExtension>
        </extensions>
      </trkpt>
      <trkpt lat="42.6252266205847263336181640625" lon="19.88191078417003154754638671875">
        <ele>1749.5999755859375</ele>
        <time>2026-06-16T08:53:15.000Z</time>
        <extensions>
          <ns3:TrackPointExtension>
            <ns3:atemp>17.0</ns3:atemp>
          </ns3:TrackPointExtension>
        </extensions>
      </trkpt>
      <trkpt lat="42.6252266205847263336181640625" lon="19.88191078417003154754638671875">
        <ele>1749.5999755859375</ele>
        <time>2026-06-16T08:53:16.000Z</time>
        <extensions>
          <ns3:TrackPointExtension>
            <ns3:atemp>17.0</ns3:atemp>
          </ns3:TrackPointExtension>
        </extensions>
      </trkpt>
      <trkpt lat="42.6252266205847263336181640625" lon="19.88191078417003154754638671875">
        <ele>1749.5999755859375</ele>
        <time>2026-06-16T08:53:17.000Z</time>
        <extensions>
          <ns3:TrackPointExtension>
            <ns3:atemp>17.0</ns3:atemp>
          </ns3:TrackPointExtension>
        </extensions>
      </trkpt>
      <trkpt lat="42.6252266205847263336181640625" lon="19.88191078417003154754638671875">
        <ele>1749.5999755859375</ele>
        <time>2026-06-16T08:53:18.000Z</time>
        <extensions>
          <ns3:TrackPointExtension>
            <ns3:atemp>17.0</ns3:atemp>
          </ns3:TrackPointExtension>
        </extensions>
      </trkpt>
      <trkpt lat="42.6252266205847263336181640625" lon="19.88191078417003154754638671875">
        <ele>1749.5999755859375</ele>
        <time>2026-06-16T08:53:19.000Z</time>
        <extensions>
          <ns3:TrackPointExtension>
            <ns3:atemp>17.0</ns3:atemp>
          </ns3:TrackPointExtension>
        </extensions>
      </trkpt>
      <trkpt lat="42.6252266205847263336181640625" lon="19.88191078417003154754638671875">
        <ele>1749.5999755859375</ele>
        <time>2026-06-16T08:53:20.000Z</time>
        <extensions>
          <ns3:TrackPointExtension>
            <ns3:atemp>17.0</ns3:atemp>
          </ns3:TrackPointExtension>
        </extensions>
      </trkpt>
      <trkpt lat="42.6252266205847263336181640625" lon="19.88191078417003154754638671875">
        <ele>1749.5999755859375</ele>
        <time>2026-06-16T08:53:21.000Z</time>
        <extensions>
          <ns3:TrackPointExtension>
            <ns3:atemp>17.0</ns3:atemp>
          </ns3:TrackPointExtension>
        </extensions>
      </trkpt>
      <trkpt lat="42.625220753252506256103515625" lon="19.88191665150225162506103515625">
        <ele>1749.5999755859375</ele>
        <time>2026-06-16T08:53:22.000Z</time>
        <extensions>
          <ns3:TrackPointExtension>
            <ns3:atemp>17.0</ns3:atemp>
          </ns3:TrackPointExtension>
        </extensions>
      </trkpt>
      <trkpt lat="42.62520927004516124725341796875" lon="19.88193458877503871917724609375">
        <ele>1749.5999755859375</ele>
        <time>2026-06-16T08:53:23.000Z</time>
        <extensions>
          <ns3:TrackPointExtension>
            <ns3:atemp>17.0</ns3:atemp>
          </ns3:TrackPointExtension>
        </extensions>
      </trkpt>
      <trkpt lat="42.6251974515616893768310546875" lon="19.88195487298071384429931640625">
        <ele>1749.5999755859375</ele>
        <time>2026-06-16T08:53:24.000Z</time>
        <extensions>
          <ns3:TrackPointExtension>
            <ns3:atemp>17.0</ns3:atemp>
          </ns3:TrackPointExtension>
        </extensions>
      </trkpt>
      <trkpt lat="42.6251796819269657135009765625" lon="19.88197146914899349212646484375">
        <ele>1747</ele>
        <time>2026-06-16T08:53:25.000Z</time>
        <extensions>
          <ns3:TrackPointExtension>
            <ns3:atemp>17.0</ns3:atemp>
          </ns3:TrackPointExtension>
        </extensions>
      </trkpt>
      <trkpt lat="42.62515897862613201141357421875" lon="19.8819797672331333160400390625">
        <ele>1747</ele>
        <time>2026-06-16T08:53:26.000Z</time>
        <extensions>
          <ns3:TrackPointExtension>
            <ns3:atemp>17.0</ns3:atemp>
          </ns3:TrackPointExtension>
        </extensions>
      </trkpt>
      <trkpt lat="42.62514087371528148651123046875" lon="19.8819858022034168243408203125">
        <ele>1747</ele>
        <time>2026-06-16T08:53:27.000Z</time>
        <extensions>
          <ns3:TrackPointExtension>
            <ns3:atemp>17.0</ns3:atemp>
          </ns3:TrackPointExtension>
        </extensions>
      </trkpt>
      <trkpt lat="42.6251283846795558929443359375" lon="19.88200130872428417205810546875">
        <ele>1747</ele>
        <time>2026-06-16T08:53:28.000Z</time>
        <extensions>
          <ns3:TrackPointExtension>
            <ns3:atemp>17.0</ns3:atemp>
          </ns3:TrackPointExtension>
        </extensions>
      </trkpt>
      <trkpt lat="42.6251210086047649383544921875" lon="19.8820169828832149505615234375">
        <ele>1747</ele>
        <time>2026-06-16T08:53:29.000Z</time>
        <extensions>
          <ns3:TrackPointExtension>
            <ns3:atemp>17.0</ns3:atemp>
          </ns3:TrackPointExtension>
        </extensions>
      </trkpt>
      <trkpt lat="42.6251139678061008453369140625" lon="19.8820347525179386138916015625">
        <ele>1747.199951171875</ele>
        <time>2026-06-16T08:53:30.000Z</time>
        <extensions>
          <ns3:TrackPointExtension>
            <ns3:atemp>17.0</ns3:atemp>
          </ns3:TrackPointExtension>
        </extensions>
      </trkpt>
      <trkpt lat="42.6251035742461681365966796875" lon="19.8820446431636810302734375">
        <ele>1747.199951171875</ele>
        <time>2026-06-16T08:53:31.000Z</time>
        <extensions>
          <ns3:TrackPointExtension>
            <ns3:atemp>17.0</ns3:atemp>
          </ns3:TrackPointExtension>
        </extensions>
      </trkpt>
      <trkpt lat="42.62508437968790531158447265625" lon="19.8820562101900577545166015625">
        <ele>1747.199951171875</ele>
        <time>2026-06-16T08:53:32.000Z</time>
        <extensions>
          <ns3:TrackPointExtension>
            <ns3:atemp>17.0</ns3:atemp>
          </ns3:TrackPointExtension>
        </extensions>
      </trkpt>
      <trkpt lat="42.62507222592830657958984375" lon="19.88207205198705196380615234375">
        <ele>1747.4000244140625</ele>
        <time>2026-06-16T08:53:33.000Z</time>
        <extensions>
          <ns3:TrackPointExtension>
            <ns3:atemp>17.0</ns3:atemp>
          </ns3:TrackPointExtension>
        </extensions>
      </trkpt>
      <trkpt lat="42.62506552040576934814453125" lon="19.88207104615867137908935546875">
        <ele>1747.4000244140625</ele>
        <time>2026-06-16T08:53:34.000Z</time>
        <extensions>
          <ns3:TrackPointExtension>
            <ns3:atemp>17.0</ns3:atemp>
          </ns3:TrackPointExtension>
        </extensions>
      </trkpt>
      <trkpt lat="42.62506292201578617095947265625" lon="19.8820890672504901885986328125">
        <ele>1747.5999755859375</ele>
        <time>2026-06-16T08:53:35.000Z</time>
        <extensions>
          <ns3:TrackPointExtension>
            <ns3:atemp>17.0</ns3:atemp>
          </ns3:TrackPointExtension>
        </extensions>
      </trkpt>
      <trkpt lat="42.62506409548223018646240234375" lon="19.8820863850414752960205078125">
        <ele>1747.800048828125</ele>
        <time>2026-06-16T08:53:36.000Z</time>
        <extensions>
          <ns3:TrackPointExtension>
            <ns3:atemp>17.0</ns3:atemp>
          </ns3:TrackPointExtension>
        </extensions>
      </trkpt>
      <trkpt lat="42.62506426312029361724853515625" lon="19.88208630122244358062744140625">
        <ele>1748</ele>
        <time>2026-06-16T08:53:37.000Z</time>
        <extensions>
          <ns3:TrackPointExtension>
            <ns3:atemp>17.0</ns3:atemp>
          </ns3:TrackPointExtension>
        </extensions>
      </trkpt>
      <trkpt lat="42.62506443075835704803466796875" lon="19.882086217403411865234375">
        <ele>1748.199951171875</ele>
        <time>2026-06-16T08:53:38.000Z</time>
        <extensions>
          <ns3:TrackPointExtension>
            <ns3:atemp>17.0</ns3:atemp>
          </ns3:TrackPointExtension>
        </extensions>
      </trkpt>
      <trkpt lat="42.62506493367254734039306640625" lon="19.88209501840174198150634765625">
        <ele>1748.4000244140625</ele>
        <time>2026-06-16T08:53:39.000Z</time>
        <extensions>
          <ns3:TrackPointExtension>
            <ns3:atemp>17.0</ns3:atemp>
          </ns3:TrackPointExtension>
        </extensions>
      </trkpt>
      <trkpt lat="42.6250626705586910247802734375" lon="19.8821031488478183746337890625">
        <ele>1748.4000244140625</ele>
        <time>2026-06-16T08:53:40.000Z</time>
        <extensions>
          <ns3:TrackPointExtension>
            <ns3:atemp>17.0</ns3:atemp>
          </ns3:TrackPointExtension>
        </extensions>
      </trkpt>
      <trkpt lat="42.6250549592077732086181640625" lon="19.88210842944681644439697265625">
        <ele>1748.4000244140625</ele>
        <time>2026-06-16T08:53:41.000Z</time>
        <extensions>
          <ns3:TrackPointExtension>
            <ns3:atemp>17.0</ns3:atemp>
          </ns3:TrackPointExtension>
        </extensions>
      </trkpt>
      <trkpt lat="42.62504984624683856964111328125" lon="19.882114715874195098876953125">
        <ele>1748.5999755859375</ele>
        <time>2026-06-16T08:53:42.000Z</time>
        <extensions>
          <ns3:TrackPointExtension>
            <ns3:atemp>17.0</ns3:atemp>
          </ns3:TrackPointExtension>
        </extensions>
      </trkpt>
      <trkpt lat="42.6250512711703777313232421875" lon="19.8821252770721912384033203125">
        <ele>1748.5999755859375</ele>
        <time>2026-06-16T08:53:43.000Z</time>
        <extensions>
          <ns3:TrackPointExtension>
            <ns3:atemp>17.0</ns3:atemp>
          </ns3:TrackPointExtension>
        </extensions>
      </trkpt>
      <trkpt lat="42.62505336664617061614990234375" lon="19.88213826902210712432861328125">
        <ele>1748.800048828125</ele>
        <time>2026-06-16T08:53:44.000Z</time>
        <extensions>
          <ns3:TrackPointExtension>
            <ns3:atemp>17.0</ns3:atemp>
          </ns3:TrackPointExtension>
        </extensions>
      </trkpt>
      <trkpt lat="42.625053115189075469970703125" lon="19.882145226001739501953125">
        <ele>1749</ele>
        <time>2026-06-16T08:53:45.000Z</time>
        <extensions>
          <ns3:TrackPointExtension>
            <ns3:atemp>17.0</ns3:atemp>
          </ns3:TrackPointExtension>
        </extensions>
      </trkpt>
      <trkpt lat="42.6250499300658702850341796875" lon="19.88215100951492786407470703125">
        <ele>1749.199951171875</ele>
        <time>2026-06-16T08:53:46.000Z</time>
        <extensions>
          <ns3:TrackPointExtension>
            <ns3:atemp>17.0</ns3:atemp>
          </ns3:TrackPointExtension>
        </extensions>
      </trkpt>
      <trkpt lat="42.62505001388490200042724609375" lon="19.882150925695896148681640625">
        <ele>1749.4000244140625</ele>
        <time>2026-06-16T08:53:47.000Z</time>
        <extensions>
          <ns3:TrackPointExtension>
            <ns3:atemp>17.0</ns3:atemp>
          </ns3:TrackPointExtension>
        </extensions>
      </trkpt>
      <trkpt lat="42.62505001388490200042724609375" lon="19.882150925695896148681640625">
        <ele>1749.4000244140625</ele>
        <time>2026-06-16T08:53:48.000Z</time>
        <extensions>
          <ns3:TrackPointExtension>
            <ns3:atemp>17.0</ns3:atemp>
          </ns3:TrackPointExtension>
        </extensions>
      </trkpt>
      <trkpt lat="42.62505001388490200042724609375" lon="19.882150925695896148681640625">
        <ele>1749.5999755859375</ele>
        <time>2026-06-16T08:53:49.000Z</time>
        <extensions>
          <ns3:TrackPointExtension>
            <ns3:atemp>17.0</ns3:atemp>
          </ns3:TrackPointExtension>
        </extensions>
      </trkpt>
      <trkpt lat="42.62505001388490200042724609375" lon="19.882150925695896148681640625">
        <ele>1749.5999755859375</ele>
        <time>2026-06-16T08:53:50.000Z</time>
        <extensions>
          <ns3:TrackPointExtension>
            <ns3:atemp>17.0</ns3:atemp>
          </ns3:TrackPointExtension>
        </extensions>
      </trkpt>
      <trkpt lat="42.62505001388490200042724609375" lon="19.882150925695896148681640625">
        <ele>1749.800048828125</ele>
        <time>2026-06-16T08:53:51.000Z</time>
        <extensions>
          <ns3:TrackPointExtension>
            <ns3:atemp>17.0</ns3:atemp>
          </ns3:TrackPointExtension>
        </extensions>
      </trkpt>
      <trkpt lat="42.62505001388490200042724609375" lon="19.882150925695896148681640625">
        <ele>1749.800048828125</ele>
        <time>2026-06-16T08:53:52.000Z</time>
        <extensions>
          <ns3:TrackPointExtension>
            <ns3:atemp>17.0</ns3:atemp>
          </ns3:TrackPointExtension>
        </extensions>
      </trkpt>
      <trkpt lat="42.62505001388490200042724609375" lon="19.882150925695896148681640625">
        <ele>1749.800048828125</ele>
        <time>2026-06-16T08:53:53.000Z</time>
        <extensions>
          <ns3:TrackPointExtension>
            <ns3:atemp>17.0</ns3:atemp>
          </ns3:TrackPointExtension>
        </extensions>
      </trkpt>
      <trkpt lat="42.62505001388490200042724609375" lon="19.882150925695896148681640625">
        <ele>1749.5999755859375</ele>
        <time>2026-06-16T08:53:54.000Z</time>
        <extensions>
          <ns3:TrackPointExtension>
            <ns3:atemp>17.0</ns3:atemp>
          </ns3:TrackPointExtension>
        </extensions>
      </trkpt>
      <trkpt lat="42.62505001388490200042724609375" lon="19.882150925695896148681640625">
        <ele>1749.5999755859375</ele>
        <time>2026-06-16T08:53:55.000Z</time>
        <extensions>
          <ns3:TrackPointExtension>
            <ns3:atemp>17.0</ns3:atemp>
          </ns3:TrackPointExtension>
        </extensions>
      </trkpt>
      <trkpt lat="42.62505001388490200042724609375" lon="19.882150925695896148681640625">
        <ele>1749.5999755859375</ele>
        <time>2026-06-16T08:53:56.000Z</time>
        <extensions>
          <ns3:TrackPointExtension>
            <ns3:atemp>17.0</ns3:atemp>
          </ns3:TrackPointExtension>
        </extensions>
      </trkpt>
      <trkpt lat="42.62505001388490200042724609375" lon="19.882150925695896148681640625">
        <ele>1749.5999755859375</ele>
        <time>2026-06-16T08:53:57.000Z</time>
        <extensions>
          <ns3:TrackPointExtension>
            <ns3:atemp>17.0</ns3:atemp>
          </ns3:TrackPointExtension>
        </extensions>
      </trkpt>
      <trkpt lat="42.62505001388490200042724609375" lon="19.882150925695896148681640625">
        <ele>1749.5999755859375</ele>
        <time>2026-06-16T08:53:58.000Z</time>
        <extensions>
          <ns3:TrackPointExtension>
            <ns3:atemp>17.0</ns3:atemp>
          </ns3:TrackPointExtension>
        </extensions>
      </trkpt>
      <trkpt lat="42.62505001388490200042724609375" lon="19.882150925695896148681640625">
        <ele>1749.5999755859375</ele>
        <time>2026-06-16T08:53:59.000Z</time>
        <extensions>
          <ns3:TrackPointExtension>
            <ns3:atemp>17.0</ns3:atemp>
          </ns3:TrackPointExtension>
        </extensions>
      </trkpt>
      <trkpt lat="42.62505001388490200042724609375" lon="19.882150925695896148681640625">
        <ele>1749.5999755859375</ele>
        <time>2026-06-16T08:54:00.000Z</time>
        <extensions>
          <ns3:TrackPointExtension>
            <ns3:atemp>17.0</ns3:atemp>
          </ns3:TrackPointExtension>
        </extensions>
      </trkpt>
      <trkpt lat="42.62505001388490200042724609375" lon="19.882150925695896148681640625">
        <ele>1749.5999755859375</ele>
        <time>2026-06-16T08:54:01.000Z</time>
        <extensions>
          <ns3:TrackPointExtension>
            <ns3:atemp>17.0</ns3:atemp>
          </ns3:TrackPointExtension>
        </extensions>
      </trkpt>
      <trkpt lat="42.62505001388490200042724609375" lon="19.882150925695896148681640625">
        <ele>1749.5999755859375</ele>
        <time>2026-06-16T08:54:02.000Z</time>
        <extensions>
          <ns3:TrackPointExtension>
            <ns3:atemp>17.0</ns3:atemp>
          </ns3:TrackPointExtension>
        </extensions>
      </trkpt>
      <trkpt lat="42.62505001388490200042724609375" lon="19.882150925695896148681640625">
        <ele>1749.5999755859375</ele>
        <time>2026-06-16T08:54:03.000Z</time>
        <extensions>
          <ns3:TrackPointExtension>
            <ns3:atemp>17.0</ns3:atemp>
          </ns3:TrackPointExtension>
        </extensions>
      </trkpt>
      <trkpt lat="42.62505001388490200042724609375" lon="19.882150925695896148681640625">
        <ele>1749.5999755859375</ele>
        <time>2026-06-16T08:54:04.000Z</time>
        <extensions>
          <ns3:TrackPointExtension>
            <ns3:atemp>17.0</ns3:atemp>
          </ns3:TrackPointExtension>
        </extensions>
      </trkpt>
      <trkpt lat="42.62505001388490200042724609375" lon="19.882150925695896148681640625">
        <ele>1749.5999755859375</ele>
        <time>2026-06-16T08:54:05.000Z</time>
        <extensions>
          <ns3:TrackPointExtension>
            <ns3:atemp>17.0</ns3:atemp>
          </ns3:TrackPointExtension>
        </extensions>
      </trkpt>
      <trkpt lat="42.62505001388490200042724609375" lon="19.882150925695896148681640625">
        <ele>1749.800048828125</ele>
        <time>2026-06-16T08:54:06.000Z</time>
        <extensions>
          <ns3:TrackPointExtension>
            <ns3:atemp>17.0</ns3:atemp>
          </ns3:TrackPointExtension>
        </extensions>
      </trkpt>
      <trkpt lat="42.62505001388490200042724609375" lon="19.882150925695896148681640625">
        <ele>1749.5999755859375</ele>
        <time>2026-06-16T08:54:07.000Z</time>
        <extensions>
          <ns3:TrackPointExtension>
            <ns3:atemp>17.0</ns3:atemp>
          </ns3:TrackPointExtension>
        </extensions>
      </trkpt>
      <trkpt lat="42.62505001388490200042724609375" lon="19.882150925695896148681640625">
        <ele>1749.5999755859375</ele>
        <time>2026-06-16T08:54:08.000Z</time>
        <extensions>
          <ns3:TrackPointExtension>
            <ns3:atemp>17.0</ns3:atemp>
          </ns3:TrackPointExtension>
        </extensions>
      </trkpt>
      <trkpt lat="42.62505001388490200042724609375" lon="19.882150925695896148681640625">
        <ele>1749.5999755859375</ele>
        <time>2026-06-16T08:54:09.000Z</time>
        <extensions>
          <ns3:TrackPointExtension>
            <ns3:atemp>17.0</ns3:atemp>
          </ns3:TrackPointExtension>
        </extensions>
      </trkpt>
      <trkpt lat="42.62505001388490200042724609375" lon="19.882150925695896148681640625">
        <ele>1749.5999755859375</ele>
        <time>2026-06-16T08:54:10.000Z</time>
        <extensions>
          <ns3:TrackPointExtension>
            <ns3:atemp>17.0</ns3:atemp>
          </ns3:TrackPointExtension>
        </extensions>
      </trkpt>
      <trkpt lat="42.62505001388490200042724609375" lon="19.882150925695896148681640625">
        <ele>1749.5999755859375</ele>
        <time>2026-06-16T08:54:11.000Z</time>
        <extensions>
          <ns3:TrackPointExtension>
            <ns3:atemp>17.0</ns3:atemp>
          </ns3:TrackPointExtension>
        </extensions>
      </trkpt>
      <trkpt lat="42.62505001388490200042724609375" lon="19.882150925695896148681640625">
        <ele>1749.5999755859375</ele>
        <time>2026-06-16T08:54:12.000Z</time>
        <extensions>
          <ns3:TrackPointExtension>
            <ns3:atemp>17.0</ns3:atemp>
          </ns3:TrackPointExtension>
        </extensions>
      </trkpt>
      <trkpt lat="42.62505001388490200042724609375" lon="19.882150925695896148681640625">
        <ele>1749.5999755859375</ele>
        <time>2026-06-16T08:54:13.000Z</time>
        <extensions>
          <ns3:TrackPointExtension>
            <ns3:atemp>17.0</ns3:atemp>
          </ns3:TrackPointExtension>
        </extensions>
      </trkpt>
      <trkpt lat="42.62505001388490200042724609375" lon="19.882150925695896148681640625">
        <ele>1749.5999755859375</ele>
        <time>2026-06-16T08:54:14.000Z</time>
        <extensions>
          <ns3:TrackPointExtension>
            <ns3:atemp>17.0</ns3:atemp>
          </ns3:TrackPointExtension>
        </extensions>
      </trkpt>
      <trkpt lat="42.62505001388490200042724609375" lon="19.882150925695896148681640625">
        <ele>1749.5999755859375</ele>
        <time>2026-06-16T08:54:15.000Z</time>
        <extensions>
          <ns3:TrackPointExtension>
            <ns3:atemp>17.0</ns3:atemp>
          </ns3:TrackPointExtension>
        </extensions>
      </trkpt>
      <trkpt lat="42.62505001388490200042724609375" lon="19.882150925695896148681640625">
        <ele>1749.5999755859375</ele>
        <time>2026-06-16T08:54:16.000Z</time>
        <extensions>
          <ns3:TrackPointExtension>
            <ns3:atemp>17.0</ns3:atemp>
          </ns3:TrackPointExtension>
        </extensions>
      </trkpt>
      <trkpt lat="42.62505001388490200042724609375" lon="19.882150925695896148681640625">
        <ele>1749.5999755859375</ele>
        <time>2026-06-16T08:54:17.000Z</time>
        <extensions>
          <ns3:TrackPointExtension>
            <ns3:atemp>17.0</ns3:atemp>
          </ns3:TrackPointExtension>
        </extensions>
      </trkpt>
      <trkpt lat="42.62505001388490200042724609375" lon="19.882150925695896148681640625">
        <ele>1749.5999755859375</ele>
        <time>2026-06-16T08:54:18.000Z</time>
        <extensions>
          <ns3:TrackPointExtension>
            <ns3:atemp>17.0</ns3:atemp>
          </ns3:TrackPointExtension>
        </extensions>
      </trkpt>
      <trkpt lat="42.62505001388490200042724609375" lon="19.882150925695896148681640625">
        <ele>1749.5999755859375</ele>
        <time>2026-06-16T08:54:19.000Z</time>
        <extensions>
          <ns3:TrackPointExtension>
            <ns3:atemp>17.0</ns3:atemp>
          </ns3:TrackPointExtension>
        </extensions>
      </trkpt>
      <trkpt lat="42.62505001388490200042724609375" lon="19.882150925695896148681640625">
        <ele>1749.5999755859375</ele>
        <time>2026-06-16T08:54:20.000Z</time>
        <extensions>
          <ns3:TrackPointExtension>
            <ns3:atemp>17.0</ns3:atemp>
          </ns3:TrackPointExtension>
        </extensions>
      </trkpt>
      <trkpt lat="42.62505001388490200042724609375" lon="19.882150925695896148681640625">
        <ele>1749.5999755859375</ele>
        <time>2026-06-16T08:54:21.000Z</time>
        <extensions>
          <ns3:TrackPointExtension>
            <ns3:atemp>17.0</ns3:atemp>
          </ns3:TrackPointExtension>
        </extensions>
      </trkpt>
      <trkpt lat="42.62505001388490200042724609375" lon="19.882150925695896148681640625">
        <ele>1749.5999755859375</ele>
        <time>2026-06-16T08:54:22.000Z</time>
        <extensions>
          <ns3:TrackPointExtension>
            <ns3:atemp>17.0</ns3:atemp>
          </ns3:TrackPointExtension>
        </extensions>
      </trkpt>
      <trkpt lat="42.62505001388490200042724609375" lon="19.882150925695896148681640625">
        <ele>1749.5999755859375</ele>
        <time>2026-06-16T08:54:23.000Z</time>
        <extensions>
          <ns3:TrackPointExtension>
            <ns3:atemp>17.0</ns3:atemp>
          </ns3:TrackPointExtension>
        </extensions>
      </trkpt>
      <trkpt lat="42.62505001388490200042724609375" lon="19.882150925695896148681640625">
        <ele>1749.5999755859375</ele>
        <time>2026-06-16T08:54:24.000Z</time>
        <extensions>
          <ns3:TrackPointExtension>
            <ns3:atemp>17.0</ns3:atemp>
          </ns3:TrackPointExtension>
        </extensions>
      </trkpt>
      <trkpt lat="42.62505001388490200042724609375" lon="19.882150925695896148681640625">
        <ele>1749.5999755859375</ele>
        <time>2026-06-16T08:54:25.000Z</time>
        <extensions>
          <ns3:TrackPointExtension>
            <ns3:atemp>17.0</ns3:atemp>
          </ns3:TrackPointExtension>
        </extensions>
      </trkpt>
      <trkpt lat="42.62505001388490200042724609375" lon="19.882150925695896148681640625">
        <ele>1749.5999755859375</ele>
        <time>2026-06-16T08:54:26.000Z</time>
        <extensions>
          <ns3:TrackPointExtension>
            <ns3:atemp>17.0</ns3:atemp>
          </ns3:TrackPointExtension>
        </extensions>
      </trkpt>
      <trkpt lat="42.62505001388490200042724609375" lon="19.882150925695896148681640625">
        <ele>1749.5999755859375</ele>
        <time>2026-06-16T08:54:27.000Z</time>
        <extensions>
          <ns3:TrackPointExtension>
            <ns3:atemp>17.0</ns3:atemp>
          </ns3:TrackPointExtension>
        </extensions>
      </trkpt>
      <trkpt lat="42.62505001388490200042724609375" lon="19.882150925695896148681640625">
        <ele>1749.5999755859375</ele>
        <time>2026-06-16T08:54:28.000Z</time>
        <extensions>
          <ns3:TrackPointExtension>
            <ns3:atemp>17.0</ns3:atemp>
          </ns3:TrackPointExtension>
        </extensions>
      </trkpt>
      <trkpt lat="42.62505001388490200042724609375" lon="19.882150925695896148681640625">
        <ele>1749.5999755859375</ele>
        <time>2026-06-16T08:54:29.000Z</time>
        <extensions>
          <ns3:TrackPointExtension>
            <ns3:atemp>17.0</ns3:atemp>
          </ns3:TrackPointExtension>
        </extensions>
      </trkpt>
      <trkpt lat="42.62505001388490200042724609375" lon="19.882150925695896148681640625">
        <ele>1749.4000244140625</ele>
        <time>2026-06-16T08:54:30.000Z</time>
        <extensions>
          <ns3:TrackPointExtension>
            <ns3:atemp>17.0</ns3:atemp>
          </ns3:TrackPointExtension>
        </extensions>
      </trkpt>
      <trkpt lat="42.62505001388490200042724609375" lon="19.882150925695896148681640625">
        <ele>1749.4000244140625</ele>
        <time>2026-06-16T08:54:31.000Z</time>
        <extensions>
          <ns3:TrackPointExtension>
            <ns3:atemp>17.0</ns3:atemp>
          </ns3:TrackPointExtension>
        </extensions>
      </trkpt>
      <trkpt lat="42.62505001388490200042724609375" lon="19.882150925695896148681640625">
        <ele>1749.4000244140625</ele>
        <time>2026-06-16T08:54:32.000Z</time>
        <extensions>
          <ns3:TrackPointExtension>
            <ns3:atemp>17.0</ns3:atemp>
          </ns3:TrackPointExtension>
        </extensions>
      </trkpt>
      <trkpt lat="42.62505001388490200042724609375" lon="19.882150925695896148681640625">
        <ele>1749.4000244140625</ele>
        <time>2026-06-16T08:54:33.000Z</time>
        <extensions>
          <ns3:TrackPointExtension>
            <ns3:atemp>17.0</ns3:atemp>
          </ns3:TrackPointExtension>
        </extensions>
      </trkpt>
      <trkpt lat="42.62505001388490200042724609375" lon="19.882150925695896148681640625">
        <ele>1749.4000244140625</ele>
        <time>2026-06-16T08:54:34.000Z</time>
        <extensions>
          <ns3:TrackPointExtension>
            <ns3:atemp>17.0</ns3:atemp>
          </ns3:TrackPointExtension>
        </extensions>
      </trkpt>
      <trkpt lat="42.62505001388490200042724609375" lon="19.882150925695896148681640625">
        <ele>1749.4000244140625</ele>
        <time>2026-06-16T08:54:35.000Z</time>
        <extensions>
          <ns3:TrackPointExtension>
            <ns3:atemp>17.0</ns3:atemp>
          </ns3:TrackPointExtension>
        </extensions>
      </trkpt>
      <trkpt lat="42.62505001388490200042724609375" lon="19.882150925695896148681640625">
        <ele>1749.4000244140625</ele>
        <time>2026-06-16T08:54:36.000Z</time>
        <extensions>
          <ns3:TrackPointExtension>
            <ns3:atemp>17.0</ns3:atemp>
          </ns3:TrackPointExtension>
        </extensions>
      </trkpt>
      <trkpt lat="42.62504716403782367706298828125" lon="19.882153607904911041259765625">
        <ele>1749.4000244140625</ele>
        <time>2026-06-16T08:54:37.000Z</time>
        <extensions>
          <ns3:TrackPointExtension>
            <ns3:atemp>17.0</ns3:atemp>
          </ns3:TrackPointExtension>
        </extensions>
      </trkpt>
      <trkpt lat="42.62505085207521915435791015625" lon="19.8821490816771984100341796875">
        <ele>1749.5999755859375</ele>
        <time>2026-06-16T08:54:38.000Z</time>
        <extensions>
          <ns3:TrackPointExtension>
            <ns3:atemp>17.0</ns3:atemp>
          </ns3:TrackPointExtension>
        </extensions>
      </trkpt>
      <trkpt lat="42.62505085207521915435791015625" lon="19.88213810138404369354248046875">
        <ele>1749.800048828125</ele>
        <time>2026-06-16T08:54:39.000Z</time>
        <extensions>
          <ns3:TrackPointExtension>
            <ns3:atemp>17.0</ns3:atemp>
          </ns3:TrackPointExtension>
        </extensions>
      </trkpt>
      <trkpt lat="42.625055126845836639404296875" lon="19.882120080292224884033203125">
        <ele>1749.800048828125</ele>
        <time>2026-06-16T08:54:40.000Z</time>
        <extensions>
          <ns3:TrackPointExtension>
            <ns3:atemp>17.0</ns3:atemp>
          </ns3:TrackPointExtension>
        </extensions>
      </trkpt>
      <trkpt lat="42.62505688704550266265869140625" lon="19.88211848773062229156494140625">
        <ele>1749.800048828125</ele>
        <time>2026-06-16T08:54:41.000Z</time>
        <extensions>
          <ns3:TrackPointExtension>
            <ns3:atemp>17.0</ns3:atemp>
          </ns3:TrackPointExtension>
        </extensions>
      </trkpt>
      <trkpt lat="42.62505839578807353973388671875" lon="19.8821162246167659759521484375">
        <ele>1749.5999755859375</ele>
        <time>2026-06-16T08:54:42.000Z</time>
        <extensions>
          <ns3:TrackPointExtension>
            <ns3:atemp>17.0</ns3:atemp>
          </ns3:TrackPointExtension>
        </extensions>
      </trkpt>
      <trkpt lat="42.6250581443309783935546875" lon="19.88211630843579769134521484375">
        <ele>1749.199951171875</ele>
        <time>2026-06-16T08:54:43.000Z</time>
        <extensions>
          <ns3:TrackPointExtension>
            <ns3:atemp>17.0</ns3:atemp>
          </ns3:TrackPointExtension>
        </extensions>
      </trkpt>
      <trkpt lat="42.6250529475510120391845703125" lon="19.88210272975265979766845703125">
        <ele>1749</ele>
        <time>2026-06-16T08:54:44.000Z</time>
        <extensions>
          <ns3:TrackPointExtension>
            <ns3:atemp>17.0</ns3:atemp>
          </ns3:TrackPointExtension>
        </extensions>
      </trkpt>
      <trkpt lat="42.62505613267421722412109375" lon="19.882082529366016387939453125">
        <ele>1748.800048828125</ele>
        <time>2026-06-16T08:54:45.000Z</time>
        <extensions>
          <ns3:TrackPointExtension>
            <ns3:atemp>17.0</ns3:atemp>
          </ns3:TrackPointExtension>
        </extensions>
      </trkpt>
      <trkpt lat="42.6250687055289745330810546875" lon="19.8820595629513263702392578125">
        <ele>1748.5999755859375</ele>
        <time>2026-06-16T08:54:46.000Z</time>
        <extensions>
          <ns3:TrackPointExtension>
            <ns3:atemp>17.0</ns3:atemp>
          </ns3:TrackPointExtension>
        </extensions>
      </trkpt>
      <trkpt lat="42.62508655898272991180419921875" lon="19.882047660648822784423828125">
        <ele>1748.5999755859375</ele>
        <time>2026-06-16T08:54:47.000Z</time>
        <extensions>
          <ns3:TrackPointExtension>
            <ns3:atemp>17.0</ns3:atemp>
          </ns3:TrackPointExtension>
        </extensions>
      </trkpt>
      <trkpt lat="42.62510483153164386749267578125" lon="19.88202913664281368255615234375">
        <ele>1748.199951171875</ele>
        <time>2026-06-16T08:54:48.000Z</time>
        <extensions>
          <ns3:TrackPointExtension>
            <ns3:atemp>17.0</ns3:atemp>
          </ns3:TrackPointExtension>
        </extensions>
      </trkpt>
      <trkpt lat="42.62511623091995716094970703125" lon="19.8820075951516628265380859375">
        <ele>1748</ele>
        <time>2026-06-16T08:54:49.000Z</time>
        <extensions>
          <ns3:TrackPointExtension>
            <ns3:atemp>17.0</ns3:atemp>
          </ns3:TrackPointExtension>
        </extensions>
      </trkpt>
      <trkpt lat="42.62513316236436367034912109375" lon="19.88198672421276569366455078125">
        <ele>1747.5999755859375</ele>
        <time>2026-06-16T08:54:50.000Z</time>
        <extensions>
          <ns3:TrackPointExtension>
            <ns3:atemp>17.0</ns3:atemp>
          </ns3:TrackPointExtension>
        </extensions>
      </trkpt>
      <trkpt lat="42.62515495531260967254638671875" lon="19.8819824494421482086181640625">
        <ele>1747.4000244140625</ele>
        <time>2026-06-16T08:54:51.000Z</time>
        <extensions>
          <ns3:TrackPointExtension>
            <ns3:atemp>17.0</ns3:atemp>
          </ns3:TrackPointExtension>
        </extensions>
      </trkpt>
      <trkpt lat="42.62517507188022136688232421875" lon="19.88197046332061290740966796875">
        <ele>1747</ele>
        <time>2026-06-16T08:54:52.000Z</time>
        <extensions>
          <ns3:TrackPointExtension>
            <ns3:atemp>17.0</ns3:atemp>
          </ns3:TrackPointExtension>
        </extensions>
      </trkpt>
      <trkpt lat="42.625193931162357330322265625" lon="19.881961829960346221923828125">
        <ele>1746.800048828125</ele>
        <time>2026-06-16T08:54:53.000Z</time>
        <extensions>
          <ns3:TrackPointExtension>
            <ns3:atemp>17.0</ns3:atemp>
          </ns3:TrackPointExtension>
        </extensions>
      </trkpt>
      <trkpt lat="42.62520792894065380096435546875" lon="19.8819445632398128509521484375">
        <ele>1746.4000244140625</ele>
        <time>2026-06-16T08:54:54.000Z</time>
        <extensions>
          <ns3:TrackPointExtension>
            <ns3:atemp>17.0</ns3:atemp>
          </ns3:TrackPointExtension>
        </extensions>
      </trkpt>
      <trkpt lat="42.62521681375801563262939453125" lon="19.88193131983280181884765625">
        <ele>1746.199951171875</ele>
        <time>2026-06-16T08:54:55.000Z</time>
        <extensions>
          <ns3:TrackPointExtension>
            <ns3:atemp>17.0</ns3:atemp>
          </ns3:TrackPointExtension>
        </extensions>
      </trkpt>
      <trkpt lat="42.625226117670536041259765625" lon="19.8819147236645221710205078125">
        <ele>1746</ele>
        <time>2026-06-16T08:54:56.000Z</time>
        <extensions>
          <ns3:TrackPointExtension>
            <ns3:atemp>17.0</ns3:atemp>
          </ns3:TrackPointExtension>
        </extensions>
      </trkpt>
      <trkpt lat="42.6252410374581813812255859375" lon="19.88190458156168460845947265625">
        <ele>1746</ele>
        <time>2026-06-16T08:54:57.000Z</time>
        <extensions>
          <ns3:TrackPointExtension>
            <ns3:atemp>17.0</ns3:atemp>
          </ns3:TrackPointExtension>
        </extensions>
      </trkpt>
      <trkpt lat="42.62525687925517559051513671875" lon="19.88190759904682636260986328125">
        <ele>1746.199951171875</ele>
        <time>2026-06-16T08:54:58.000Z</time>
        <extensions>
          <ns3:TrackPointExtension>
            <ns3:atemp>17.0</ns3:atemp>
          </ns3:TrackPointExtension>
        </extensions>
      </trkpt>
      <trkpt lat="42.62526576407253742218017578125" lon="19.88191187381744384765625">
        <ele>1746.199951171875</ele>
        <time>2026-06-16T08:54:59.000Z</time>
        <extensions>
          <ns3:TrackPointExtension>
            <ns3:atemp>17.0</ns3:atemp>
          </ns3:TrackPointExtension>
        </extensions>
      </trkpt>
      <trkpt lat="42.6252735592424869537353515625" lon="19.8819174058735370635986328125">
        <ele>1746.4000244140625</ele>
        <time>2026-06-16T08:55:00.000Z</time>
        <extensions>
          <ns3:TrackPointExtension>
            <ns3:atemp>17.0</ns3:atemp>
          </ns3:TrackPointExtension>
        </extensions>
      </trkpt>
      <trkpt lat="42.6252869702875614166259765625" lon="19.88191748969256877899169921875">
        <ele>1746.199951171875</ele>
        <time>2026-06-16T08:55:01.000Z</time>
        <extensions>
          <ns3:TrackPointExtension>
            <ns3:atemp>17.0</ns3:atemp>
          </ns3:TrackPointExtension>
        </extensions>
      </trkpt>
      <trkpt lat="42.6252983696758747100830078125" lon="19.88191145472228527069091796875">
        <ele>1746.199951171875</ele>
        <time>2026-06-16T08:55:02.000Z</time>
        <extensions>
          <ns3:TrackPointExtension>
            <ns3:atemp>17.0</ns3:atemp>
          </ns3:TrackPointExtension>
        </extensions>
      </trkpt>
      <trkpt lat="42.6253020577132701873779296875" lon="19.8819100297987461090087890625">
        <ele>1746</ele>
        <time>2026-06-16T08:55:03.000Z</time>
        <extensions>
          <ns3:TrackPointExtension>
            <ns3:atemp>17.0</ns3:atemp>
          </ns3:TrackPointExtension>
        </extensions>
      </trkpt>
      <trkpt lat="42.6253020577132701873779296875" lon="19.8819100297987461090087890625">
        <ele>1746</ele>
        <time>2026-06-16T08:55:04.000Z</time>
        <extensions>
          <ns3:TrackPointExtension>
            <ns3:atemp>17.0</ns3:atemp>
          </ns3:TrackPointExtension>
        </extensions>
      </trkpt>
      <trkpt lat="42.6253020577132701873779296875" lon="19.8819100297987461090087890625">
        <ele>1745.800048828125</ele>
        <time>2026-06-16T08:55:05.000Z</time>
        <extensions>
          <ns3:TrackPointExtension>
            <ns3:atemp>17.0</ns3:atemp>
          </ns3:TrackPointExtension>
        </extensions>
      </trkpt>
      <trkpt lat="42.6253020577132701873779296875" lon="19.8819100297987461090087890625">
        <ele>1745.800048828125</ele>
        <time>2026-06-16T08:55:06.000Z</time>
        <extensions>
          <ns3:TrackPointExtension>
            <ns3:atemp>17.0</ns3:atemp>
          </ns3:TrackPointExtension>
        </extensions>
      </trkpt>
      <trkpt lat="42.6253020577132701873779296875" lon="19.8819100297987461090087890625">
        <ele>1745.800048828125</ele>
        <time>2026-06-16T08:55:07.000Z</time>
        <extensions>
          <ns3:TrackPointExtension>
            <ns3:atemp>17.0</ns3:atemp>
          </ns3:TrackPointExtension>
        </extensions>
      </trkpt>
      <trkpt lat="42.6253020577132701873779296875" lon="19.8819100297987461090087890625">
        <ele>1745.800048828125</ele>
        <time>2026-06-16T08:55:08.000Z</time>
        <extensions>
          <ns3:TrackPointExtension>
            <ns3:atemp>17.0</ns3:atemp>
          </ns3:TrackPointExtension>
        </extensions>
      </trkpt>
      <trkpt lat="42.6253020577132701873779296875" lon="19.8819100297987461090087890625">
        <ele>1745.800048828125</ele>
        <time>2026-06-16T08:55:09.000Z</time>
        <extensions>
          <ns3:TrackPointExtension>
            <ns3:atemp>17.0</ns3:atemp>
          </ns3:TrackPointExtension>
        </extensions>
      </trkpt>
      <trkpt lat="42.6253020577132701873779296875" lon="19.8819100297987461090087890625">
        <ele>1745.5999755859375</ele>
        <time>2026-06-16T08:55:10.000Z</time>
        <extensions>
          <ns3:TrackPointExtension>
            <ns3:atemp>17.0</ns3:atemp>
          </ns3:TrackPointExtension>
        </extensions>
      </trkpt>
      <trkpt lat="42.6253020577132701873779296875" lon="19.8819100297987461090087890625">
        <ele>1745.5999755859375</ele>
        <time>2026-06-16T08:55:11.000Z</time>
        <extensions>
          <ns3:TrackPointExtension>
            <ns3:atemp>17.0</ns3:atemp>
          </ns3:TrackPointExtension>
        </extensions>
      </trkpt>
      <trkpt lat="42.6253020577132701873779296875" lon="19.8819100297987461090087890625">
        <ele>1745.5999755859375</ele>
        <time>2026-06-16T08:55:12.000Z</time>
        <extensions>
          <ns3:TrackPointExtension>
            <ns3:atemp>17.0</ns3:atemp>
          </ns3:TrackPointExtension>
        </extensions>
      </trkpt>
      <trkpt lat="42.6253020577132701873779296875" lon="19.8819100297987461090087890625">
        <ele>1745.5999755859375</ele>
        <time>2026-06-16T08:55:13.000Z</time>
        <extensions>
          <ns3:TrackPointExtension>
            <ns3:atemp>17.0</ns3:atemp>
          </ns3:TrackPointExtension>
        </extensions>
      </trkpt>
      <trkpt lat="42.6253020577132701873779296875" lon="19.8819100297987461090087890625">
        <ele>1745.5999755859375</ele>
        <time>2026-06-16T08:55:14.000Z</time>
        <extensions>
          <ns3:TrackPointExtension>
            <ns3:atemp>17.0</ns3:atemp>
          </ns3:TrackPointExtension>
        </extensions>
      </trkpt>
      <trkpt lat="42.6253020577132701873779296875" lon="19.8819100297987461090087890625">
        <ele>1745.5999755859375</ele>
        <time>2026-06-16T08:55:15.000Z</time>
        <extensions>
          <ns3:TrackPointExtension>
            <ns3:atemp>17.0</ns3:atemp>
          </ns3:TrackPointExtension>
        </extensions>
      </trkpt>
      <trkpt lat="42.6253020577132701873779296875" lon="19.8819100297987461090087890625">
        <ele>1745.5999755859375</ele>
        <time>2026-06-16T08:55:16.000Z</time>
        <extensions>
          <ns3:TrackPointExtension>
            <ns3:atemp>17.0</ns3:atemp>
          </ns3:TrackPointExtension>
        </extensions>
      </trkpt>
      <trkpt lat="42.6253020577132701873779296875" lon="19.8819100297987461090087890625">
        <ele>1745.5999755859375</ele>
        <time>2026-06-16T08:55:17.000Z</time>
        <extensions>
          <ns3:TrackPointExtension>
            <ns3:atemp>17.0</ns3:atemp>
          </ns3:TrackPointExtension>
        </extensions>
      </trkpt>
      <trkpt lat="42.6253020577132701873779296875" lon="19.8819100297987461090087890625">
        <ele>1745.5999755859375</ele>
        <time>2026-06-16T08:55:18.000Z</time>
        <extensions>
          <ns3:TrackPointExtension>
            <ns3:atemp>17.0</ns3:atemp>
          </ns3:TrackPointExtension>
        </extensions>
      </trkpt>
      <trkpt lat="42.6253020577132701873779296875" lon="19.8819100297987461090087890625">
        <ele>1745.5999755859375</ele>
        <time>2026-06-16T08:55:19.000Z</time>
        <extensions>
          <ns3:TrackPointExtension>
            <ns3:atemp>17.0</ns3:atemp>
          </ns3:TrackPointExtension>
        </extensions>
      </trkpt>
      <trkpt lat="42.6253020577132701873779296875" lon="19.8819100297987461090087890625">
        <ele>1745.5999755859375</ele>
        <time>2026-06-16T08:55:20.000Z</time>
        <extensions>
          <ns3:TrackPointExtension>
            <ns3:atemp>17.0</ns3:atemp>
          </ns3:TrackPointExtension>
        </extensions>
      </trkpt>
      <trkpt lat="42.6253020577132701873779296875" lon="19.8819100297987461090087890625">
        <ele>1745.5999755859375</ele>
        <time>2026-06-16T08:55:21.000Z</time>
        <extensions>
          <ns3:TrackPointExtension>
            <ns3:atemp>17.0</ns3:atemp>
          </ns3:TrackPointExtension>
        </extensions>
      </trkpt>
      <trkpt lat="42.6253020577132701873779296875" lon="19.8819100297987461090087890625">
        <ele>1745.5999755859375</ele>
        <time>2026-06-16T08:55:22.000Z</time>
        <extensions>
          <ns3:TrackPointExtension>
            <ns3:atemp>17.0</ns3:atemp>
          </ns3:TrackPointExtension>
        </extensions>
      </trkpt>
      <trkpt lat="42.6253020577132701873779296875" lon="19.8819100297987461090087890625">
        <ele>1745.5999755859375</ele>
        <time>2026-06-16T08:55:23.000Z</time>
        <extensions>
          <ns3:TrackPointExtension>
            <ns3:atemp>17.0</ns3:atemp>
          </ns3:TrackPointExtension>
        </extensions>
      </trkpt>
      <trkpt lat="42.6253020577132701873779296875" lon="19.8819100297987461090087890625">
        <ele>1745.5999755859375</ele>
        <time>2026-06-16T08:55:24.000Z</time>
        <extensions>
          <ns3:TrackPointExtension>
            <ns3:atemp>17.0</ns3:atemp>
          </ns3:TrackPointExtension>
        </extensions>
      </trkpt>
      <trkpt lat="42.6253020577132701873779296875" lon="19.8819100297987461090087890625">
        <ele>1745.5999755859375</ele>
        <time>2026-06-16T08:55:25.000Z</time>
        <extensions>
          <ns3:TrackPointExtension>
            <ns3:atemp>17.0</ns3:atemp>
          </ns3:TrackPointExtension>
        </extensions>
      </trkpt>
      <trkpt lat="42.62530080042779445648193359375" lon="19.8819127120077610015869140625">
        <ele>1745.5999755859375</ele>
        <time>2026-06-16T08:55:26.000Z</time>
        <extensions>
          <ns3:TrackPointExtension>
            <ns3:atemp>17.0</ns3:atemp>
          </ns3:TrackPointExtension>
        </extensions>
      </trkpt>
      <trkpt lat="42.6253231801092624664306640625" lon="19.881912209093570709228515625">
        <ele>1745.5999755859375</ele>
        <time>2026-06-16T08:55:27.000Z</time>
        <extensions>
          <ns3:TrackPointExtension>
            <ns3:atemp>17.0</ns3:atemp>
          </ns3:TrackPointExtension>
        </extensions>
      </trkpt>
      <trkpt lat="42.6253585517406463623046875" lon="19.88190072588622570037841796875">
        <ele>1745.4000244140625</ele>
        <time>2026-06-16T08:55:28.000Z</time>
        <extensions>
          <ns3:TrackPointExtension>
            <ns3:atemp>17.0</ns3:atemp>
          </ns3:TrackPointExtension>
        </extensions>
      </trkpt>
      <trkpt lat="42.62539518065750598907470703125" lon="19.881885387003421783447265625">
        <ele>1745</ele>
        <time>2026-06-16T08:55:29.000Z</time>
        <extensions>
          <ns3:TrackPointExtension>
            <ns3:atemp>17.0</ns3:atemp>
          </ns3:TrackPointExtension>
        </extensions>
      </trkpt>
      <trkpt lat="42.6254271157085895538330078125" lon="19.8818563856184482574462890625">
        <ele>1744.800048828125</ele>
        <time>2026-06-16T08:55:30.000Z</time>
        <extensions>
          <ns3:TrackPointExtension>
            <ns3:atemp>17.0</ns3:atemp>
          </ns3:TrackPointExtension>
        </extensions>
      </trkpt>
      <trkpt lat="42.62545720674097537994384765625" lon="19.88182193599641323089599609375">
        <ele>1744.4000244140625</ele>
        <time>2026-06-16T08:55:31.000Z</time>
        <extensions>
          <ns3:TrackPointExtension>
            <ns3:atemp>17.0</ns3:atemp>
          </ns3:TrackPointExtension>
        </extensions>
      </trkpt>
      <trkpt lat="42.62548402883112430572509765625" lon="19.8817809484899044036865234375">
        <ele>1744.199951171875</ele>
        <time>2026-06-16T08:55:32.000Z</time>
        <extensions>
          <ns3:TrackPointExtension>
            <ns3:atemp>17.0</ns3:atemp>
          </ns3:TrackPointExtension>
        </extensions>
      </trkpt>
      <trkpt lat="42.6255156286060810089111328125" lon="19.88173677586019039154052734375">
        <ele>1744</ele>
        <time>2026-06-16T08:55:33.000Z</time>
        <extensions>
          <ns3:TrackPointExtension>
            <ns3:atemp>17.0</ns3:atemp>
          </ns3:TrackPointExtension>
        </extensions>
      </trkpt>
      <trkpt lat="42.62554965913295745849609375" lon="19.8816914297640323638916015625">
        <ele>1743.5999755859375</ele>
        <time>2026-06-16T08:55:34.000Z</time>
        <extensions>
          <ns3:TrackPointExtension>
            <ns3:atemp>17.0</ns3:atemp>
          </ns3:TrackPointExtension>
        </extensions>
      </trkpt>
      <trkpt lat="42.6255838572978973388671875" lon="19.8816488496959209442138671875">
        <ele>1743</ele>
        <time>2026-06-16T08:55:35.000Z</time>
        <extensions>
          <ns3:TrackPointExtension>
            <ns3:atemp>17.0</ns3:atemp>
          </ns3:TrackPointExtension>
        </extensions>
      </trkpt>
      <trkpt lat="42.625635825097560882568359375" lon="19.88162345252931118011474609375">
        <ele>1742.199951171875</ele>
        <time>2026-06-16T08:55:36.000Z</time>
        <extensions>
          <ns3:TrackPointExtension>
            <ns3:atemp>17.0</ns3:atemp>
          </ns3:TrackPointExtension>
        </extensions>
      </trkpt>
      <trkpt lat="42.62567681260406970977783203125" lon="19.88162244670093059539794921875">
        <ele>1741.199951171875</ele>
        <time>2026-06-16T08:55:37.000Z</time>
        <extensions>
          <ns3:TrackPointExtension>
            <ns3:atemp>17.0</ns3:atemp>
          </ns3:TrackPointExtension>
        </extensions>
      </trkpt>
      <trkpt lat="42.62571520172059535980224609375" lon="19.8816315829753875732421875">
        <ele>1740.199951171875</ele>
        <time>2026-06-16T08:55:38.000Z</time>
        <extensions>
          <ns3:TrackPointExtension>
            <ns3:atemp>17.0</ns3:atemp>
          </ns3:TrackPointExtension>
        </extensions>
      </trkpt>
      <trkpt lat="42.62573950923979282379150390625" lon="19.88166519440710544586181640625">
        <ele>1739.199951171875</ele>
        <time>2026-06-16T08:55:39.000Z</time>
        <extensions>
          <ns3:TrackPointExtension>
            <ns3:atemp>17.0</ns3:atemp>
          </ns3:TrackPointExtension>
        </extensions>
      </trkpt>
      <trkpt lat="42.6257664151489734649658203125" lon="19.88169394433498382568359375">
        <ele>1738</ele>
        <time>2026-06-16T08:55:40.000Z</time>
        <extensions>
          <ns3:TrackPointExtension>
            <ns3:atemp>17.0</ns3:atemp>
          </ns3:TrackPointExtension>
        </extensions>
      </trkpt>
      <trkpt lat="42.62578762136399745941162109375" lon="19.8817293159663677215576171875">
        <ele>1737</ele>
        <time>2026-06-16T08:55:41.000Z</time>
        <extensions>
          <ns3:TrackPointExtension>
            <ns3:atemp>17.0</ns3:atemp>
          </ns3:TrackPointExtension>
        </extensions>
      </trkpt>
      <trkpt lat="42.62580891139805316925048828125" lon="19.8817598260939121246337890625">
        <ele>1735.4000244140625</ele>
        <time>2026-06-16T08:55:42.000Z</time>
        <extensions>
          <ns3:TrackPointExtension>
            <ns3:atemp>17.0</ns3:atemp>
          </ns3:TrackPointExtension>
        </extensions>
      </trkpt>
      <trkpt lat="42.62582232244312763214111328125" lon="19.88181489519774913787841796875">
        <ele>1734.199951171875</ele>
        <time>2026-06-16T08:55:43.000Z</time>
        <extensions>
          <ns3:TrackPointExtension>
            <ns3:atemp>17.0</ns3:atemp>
          </ns3:TrackPointExtension>
        </extensions>
      </trkpt>
      <trkpt lat="42.62583774514496326446533203125" lon="19.88186426460742950439453125">
        <ele>1732.800048828125</ele>
        <time>2026-06-16T08:55:44.000Z</time>
        <extensions>
          <ns3:TrackPointExtension>
            <ns3:atemp>17.0</ns3:atemp>
          </ns3:TrackPointExtension>
        </extensions>
      </trkpt>
      <trkpt lat="42.6258539222180843353271484375" lon="19.88191715441644191741943359375">
        <ele>1731.5999755859375</ele>
        <time>2026-06-16T08:55:45.000Z</time>
        <extensions>
          <ns3:TrackPointExtension>
            <ns3:atemp>17.0</ns3:atemp>
          </ns3:TrackPointExtension>
        </extensions>
      </trkpt>
      <trkpt lat="42.625856436789035797119140625" lon="19.88196350634098052978515625">
        <ele>1730.199951171875</ele>
        <time>2026-06-16T08:55:46.000Z</time>
        <extensions>
          <ns3:TrackPointExtension>
            <ns3:atemp>17.0</ns3:atemp>
          </ns3:TrackPointExtension>
        </extensions>
      </trkpt>
      <trkpt lat="42.6258612982928752899169921875" lon="19.88203835673630237579345703125">
        <ele>1728.800048828125</ele>
        <time>2026-06-16T08:55:47.000Z</time>
        <extensions>
          <ns3:TrackPointExtension>
            <ns3:atemp>17.0</ns3:atemp>
          </ns3:TrackPointExtension>
        </extensions>
      </trkpt>
      <trkpt lat="42.62587881647050380706787109375" lon="19.88208831287920475006103515625">
        <ele>1727.199951171875</ele>
        <time>2026-06-16T08:55:48.000Z</time>
        <extensions>
          <ns3:TrackPointExtension>
            <ns3:atemp>17.0</ns3:atemp>
          </ns3:TrackPointExtension>
        </extensions>
      </trkpt>
      <trkpt lat="42.6259048841893672943115234375" lon="19.88216609694063663482666015625">
        <ele>1725.800048828125</ele>
        <time>2026-06-16T08:55:49.000Z</time>
        <extensions>
          <ns3:TrackPointExtension>
            <ns3:atemp>17.0</ns3:atemp>
          </ns3:TrackPointExtension>
        </extensions>
      </trkpt>
      <trkpt lat="42.62593246065080165863037109375" lon="19.88224036060273647308349609375">
        <ele>1724.4000244140625</ele>
        <time>2026-06-16T08:55:50.000Z</time>
        <extensions>
          <ns3:TrackPointExtension>
            <ns3:atemp>17.0</ns3:atemp>
          </ns3:TrackPointExtension>
        </extensions>
      </trkpt>
      <trkpt lat="42.6259622164070606231689453125" lon="19.88231730647385120391845703125">
        <ele>1723.199951171875</ele>
        <time>2026-06-16T08:55:51.000Z</time>
        <extensions>
          <ns3:TrackPointExtension>
            <ns3:atemp>17.0</ns3:atemp>
          </ns3:TrackPointExtension>
        </extensions>
      </trkpt>
      <trkpt lat="42.62598954141139984130859375" lon="19.8823951743543148040771484375">
        <ele>1722</ele>
        <time>2026-06-16T08:55:52.000Z</time>
        <extensions>
          <ns3:TrackPointExtension>
            <ns3:atemp>17.0</ns3:atemp>
          </ns3:TrackPointExtension>
        </extensions>
      </trkpt>
      <trkpt lat="42.62601435184478759765625" lon="19.8824749700725078582763671875">
        <ele>1720.800048828125</ele>
        <time>2026-06-16T08:55:53.000Z</time>
        <extensions>
          <ns3:TrackPointExtension>
            <ns3:atemp>17.0</ns3:atemp>
          </ns3:TrackPointExtension>
        </extensions>
      </trkpt>
      <trkpt lat="42.6260547526180744171142578125" lon="19.88254277966916561126708984375">
        <ele>1719.5999755859375</ele>
        <time>2026-06-16T08:55:54.000Z</time>
        <extensions>
          <ns3:TrackPointExtension>
            <ns3:atemp>17.0</ns3:atemp>
          </ns3:TrackPointExtension>
        </extensions>
      </trkpt>
      <trkpt lat="42.6260854303836822509765625" lon="19.8826184682548046112060546875">
        <ele>1718.4000244140625</ele>
        <time>2026-06-16T08:55:55.000Z</time>
        <extensions>
          <ns3:TrackPointExtension>
            <ns3:atemp>17.0</ns3:atemp>
          </ns3:TrackPointExtension>
        </extensions>
      </trkpt>
      <trkpt lat="42.626102864742279052734375" lon="19.8826791532337665557861328125">
        <ele>1717.4000244140625</ele>
        <time>2026-06-16T08:55:56.000Z</time>
        <extensions>
          <ns3:TrackPointExtension>
            <ns3:atemp>17.0</ns3:atemp>
          </ns3:TrackPointExtension>
        </extensions>
      </trkpt>
      <trkpt lat="42.62610244564712047576904296875" lon="19.88273908384144306182861328125">
        <ele>1716.5999755859375</ele>
        <time>2026-06-16T08:55:57.000Z</time>
        <extensions>
          <ns3:TrackPointExtension>
            <ns3:atemp>17.0</ns3:atemp>
          </ns3:TrackPointExtension>
        </extensions>
      </trkpt>
      <trkpt lat="42.62608475983142852783203125" lon="19.882788620889186859130859375">
        <ele>1715.800048828125</ele>
        <time>2026-06-16T08:55:58.000Z</time>
        <extensions>
          <ns3:TrackPointExtension>
            <ns3:atemp>17.0</ns3:atemp>
          </ns3:TrackPointExtension>
        </extensions>
      </trkpt>
      <trkpt lat="42.62605483643710613250732421875" lon="19.88282156176865100860595703125">
        <ele>1715.199951171875</ele>
        <time>2026-06-16T08:55:59.000Z</time>
        <extensions>
          <ns3:TrackPointExtension>
            <ns3:atemp>17.0</ns3:atemp>
          </ns3:TrackPointExtension>
        </extensions>
      </trkpt>
      <trkpt lat="42.62601242400705814361572265625" lon="19.88285274244844913482666015625">
        <ele>1714.199951171875</ele>
        <time>2026-06-16T08:56:00.000Z</time>
        <extensions>
          <ns3:TrackPointExtension>
            <ns3:atemp>17.0</ns3:atemp>
          </ns3:TrackPointExtension>
        </extensions>
      </trkpt>
      <trkpt lat="42.62597478926181793212890625" lon="19.88287746906280517578125">
        <ele>1713.199951171875</ele>
        <time>2026-06-16T08:56:01.000Z</time>
        <extensions>
          <ns3:TrackPointExtension>
            <ns3:atemp>17.0</ns3:atemp>
          </ns3:TrackPointExtension>
        </extensions>
      </trkpt>
      <trkpt lat="42.62597420252859592437744140625" lon="19.8829148523509502410888671875">
        <ele>1712.4000244140625</ele>
        <time>2026-06-16T08:56:02.000Z</time>
        <extensions>
          <ns3:TrackPointExtension>
            <ns3:atemp>17.0</ns3:atemp>
          </ns3:TrackPointExtension>
        </extensions>
      </trkpt>
      <trkpt lat="42.625998593866825103759765625" lon="19.8829472064971923828125">
        <ele>1711.5999755859375</ele>
        <time>2026-06-16T08:56:03.000Z</time>
        <extensions>
          <ns3:TrackPointExtension>
            <ns3:atemp>17.0</ns3:atemp>
          </ns3:TrackPointExtension>
        </extensions>
      </trkpt>
      <trkpt lat="42.6260296069085597991943359375" lon="19.88296053372323513031005859375">
        <ele>1710.800048828125</ele>
        <time>2026-06-16T08:56:04.000Z</time>
        <extensions>
          <ns3:TrackPointExtension>
            <ns3:atemp>17.0</ns3:atemp>
          </ns3:TrackPointExtension>
        </extensions>
      </trkpt>
      <trkpt lat="42.62606439180672168731689453125" lon="19.8829862661659717559814453125">
        <ele>1710.199951171875</ele>
        <time>2026-06-16T08:56:05.000Z</time>
        <extensions>
          <ns3:TrackPointExtension>
            <ns3:atemp>17.0</ns3:atemp>
          </ns3:TrackPointExtension>
        </extensions>
      </trkpt>
      <trkpt lat="42.626097500324249267578125" lon="19.8830343782901763916015625">
        <ele>1709.5999755859375</ele>
        <time>2026-06-16T08:56:06.000Z</time>
        <extensions>
          <ns3:TrackPointExtension>
            <ns3:atemp>17.0</ns3:atemp>
          </ns3:TrackPointExtension>
        </extensions>
      </trkpt>
      <trkpt lat="42.62612742371857166290283203125" lon="19.88311140798032283782958984375">
        <ele>1708.800048828125</ele>
        <time>2026-06-16T08:56:07.000Z</time>
        <extensions>
          <ns3:TrackPointExtension>
            <ns3:atemp>17.0</ns3:atemp>
          </ns3:TrackPointExtension>
        </extensions>
      </trkpt>
      <trkpt lat="42.626151479780673980712890625" lon="19.883207716047763824462890625">
        <ele>1708</ele>
        <time>2026-06-16T08:56:08.000Z</time>
        <extensions>
          <ns3:TrackPointExtension>
            <ns3:atemp>17.0</ns3:atemp>
          </ns3:TrackPointExtension>
        </extensions>
      </trkpt>
      <trkpt lat="42.62618794105947017669677734375" lon="19.88327234052121639251708984375">
        <ele>1707.4000244140625</ele>
        <time>2026-06-16T08:56:09.000Z</time>
        <extensions>
          <ns3:TrackPointExtension>
            <ns3:atemp>17.0</ns3:atemp>
          </ns3:TrackPointExtension>
        </extensions>
      </trkpt>
      <trkpt lat="42.626244015991687774658203125" lon="19.8833272419869899749755859375">
        <ele>1706.800048828125</ele>
        <time>2026-06-16T08:56:10.000Z</time>
        <extensions>
          <ns3:TrackPointExtension>
            <ns3:atemp>17.0</ns3:atemp>
          </ns3:TrackPointExtension>
        </extensions>
      </trkpt>
      <trkpt lat="42.62630260549485683441162109375" lon="19.8833835683763027191162109375">
        <ele>1706</ele>
        <time>2026-06-16T08:56:11.000Z</time>
        <extensions>
          <ns3:TrackPointExtension>
            <ns3:atemp>17.0</ns3:atemp>
          </ns3:TrackPointExtension>
        </extensions>
      </trkpt>
      <trkpt lat="42.6263611949980258941650390625" lon="19.88344651646912097930908203125">
        <ele>1705</ele>
        <time>2026-06-16T08:56:12.000Z</time>
        <extensions>
          <ns3:TrackPointExtension>
            <ns3:atemp>17.0</ns3:atemp>
          </ns3:TrackPointExtension>
        </extensions>
      </trkpt>
      <trkpt lat="42.62641693465411663055419921875" lon="19.88349865190684795379638671875">
        <ele>1704.5999755859375</ele>
        <time>2026-06-16T08:56:13.000Z</time>
        <extensions>
          <ns3:TrackPointExtension>
            <ns3:atemp>17.0</ns3:atemp>
          </ns3:TrackPointExtension>
        </extensions>
      </trkpt>
      <trkpt lat="42.62649304233491420745849609375" lon="19.8835327662527561187744140625">
        <ele>1703.199951171875</ele>
        <time>2026-06-16T08:56:14.000Z</time>
        <extensions>
          <ns3:TrackPointExtension>
            <ns3:atemp>17.0</ns3:atemp>
          </ns3:TrackPointExtension>
        </extensions>
      </trkpt>
      <trkpt lat="42.6265593431890010833740234375" lon="19.88355598412454128265380859375">
        <ele>1702</ele>
        <time>2026-06-16T08:56:15.000Z</time>
        <extensions>
          <ns3:TrackPointExtension>
            <ns3:atemp>17.0</ns3:atemp>
          </ns3:TrackPointExtension>
        </extensions>
      </trkpt>
      <trkpt lat="42.6266072876751422882080078125" lon="19.8835639469325542449951171875">
        <ele>1700.4000244140625</ele>
        <time>2026-06-16T08:56:16.000Z</time>
        <extensions>
          <ns3:TrackPointExtension>
            <ns3:atemp>17.0</ns3:atemp>
          </ns3:TrackPointExtension>
        </extensions>
      </trkpt>
      <trkpt lat="42.62664592824876308441162109375" lon="19.883566796779632568359375">
        <ele>1699.199951171875</ele>
        <time>2026-06-16T08:56:17.000Z</time>
        <extensions>
          <ns3:TrackPointExtension>
            <ns3:atemp>17.0</ns3:atemp>
          </ns3:TrackPointExtension>
        </extensions>
      </trkpt>
      <trkpt lat="42.62666956521570682525634765625" lon="19.8835689760744571685791015625">
        <ele>1698.4000244140625</ele>
        <time>2026-06-16T08:56:18.000Z</time>
        <extensions>
          <ns3:TrackPointExtension>
            <ns3:atemp>17.0</ns3:atemp>
          </ns3:TrackPointExtension>
        </extensions>
      </trkpt>
      <trkpt lat="42.62669093906879425048828125" lon="19.88357878290116786956787109375">
        <ele>1697.4000244140625</ele>
        <time>2026-06-16T08:56:19.000Z</time>
        <extensions>
          <ns3:TrackPointExtension>
            <ns3:atemp>17.0</ns3:atemp>
          </ns3:TrackPointExtension>
        </extensions>
      </trkpt>
      <trkpt lat="42.62670543976128101348876953125" lon="19.8835894279181957244873046875">
        <ele>1697</ele>
        <time>2026-06-16T08:56:20.000Z</time>
        <extensions>
          <ns3:TrackPointExtension>
            <ns3:atemp>17.0</ns3:atemp>
          </ns3:TrackPointExtension>
        </extensions>
      </trkpt>
      <trkpt lat="42.62671784497797489166259765625" lon="19.8836004920303821563720703125">
        <ele>1696.4000244140625</ele>
        <time>2026-06-16T08:56:21.000Z</time>
        <extensions>
          <ns3:TrackPointExtension>
            <ns3:atemp>17.0</ns3:atemp>
          </ns3:TrackPointExtension>
        </extensions>
      </trkpt>
      <trkpt lat="42.62672069482505321502685546875" lon="19.88361147232353687286376953125">
        <ele>1696</ele>
        <time>2026-06-16T08:56:22.000Z</time>
        <extensions>
          <ns3:TrackPointExtension>
            <ns3:atemp>17.0</ns3:atemp>
          </ns3:TrackPointExtension>
        </extensions>
      </trkpt>
      <trkpt lat="42.62671700678765773773193359375" lon="19.88361918367445468902587890625">
        <ele>1695.5999755859375</ele>
        <time>2026-06-16T08:56:23.000Z</time>
        <extensions>
          <ns3:TrackPointExtension>
            <ns3:atemp>17.0</ns3:atemp>
          </ns3:TrackPointExtension>
        </extensions>
      </trkpt>
      <trkpt lat="42.62672052718698978424072265625" lon="19.88362806849181652069091796875">
        <ele>1695.4000244140625</ele>
        <time>2026-06-16T08:56:24.000Z</time>
        <extensions>
          <ns3:TrackPointExtension>
            <ns3:atemp>17.0</ns3:atemp>
          </ns3:TrackPointExtension>
        </extensions>
      </trkpt>
      <trkpt lat="42.6267216168344020843505859375" lon="19.8836444132030010223388671875">
        <ele>1695.199951171875</ele>
        <time>2026-06-16T08:56:25.000Z</time>
        <extensions>
          <ns3:TrackPointExtension>
            <ns3:atemp>17.0</ns3:atemp>
          </ns3:TrackPointExtension>
        </extensions>
      </trkpt>
      <trkpt lat="42.62672522105276584625244140625" lon="19.8836645297706127166748046875">
        <ele>1695</ele>
        <time>2026-06-16T08:56:26.000Z</time>
        <extensions>
          <ns3:TrackPointExtension>
            <ns3:atemp>17.0</ns3:atemp>
          </ns3:TrackPointExtension>
        </extensions>
      </trkpt>
      <trkpt lat="42.6267393864691257476806640625" lon="19.88368623889982700347900390625">
        <ele>1695</ele>
        <time>2026-06-16T08:56:27.000Z</time>
        <extensions>
          <ns3:TrackPointExtension>
            <ns3:atemp>17.0</ns3:atemp>
          </ns3:TrackPointExtension>
        </extensions>
      </trkpt>
      <trkpt lat="42.626750282943248748779296875" lon="19.88371691666543483734130859375">
        <ele>1694.800048828125</ele>
        <time>2026-06-16T08:56:28.000Z</time>
        <extensions>
          <ns3:TrackPointExtension>
            <ns3:atemp>17.0</ns3:atemp>
          </ns3:TrackPointExtension>
        </extensions>
      </trkpt>
      <trkpt lat="42.62676495127379894256591796875" lon="19.8837419785559177398681640625">
        <ele>1694.800048828125</ele>
        <time>2026-06-16T08:56:29.000Z</time>
        <extensions>
          <ns3:TrackPointExtension>
            <ns3:atemp>17.0</ns3:atemp>
          </ns3:TrackPointExtension>
        </extensions>
      </trkpt>
      <trkpt lat="42.62677718885242938995361328125" lon="19.88376301713287830352783203125">
        <ele>1694.800048828125</ele>
        <time>2026-06-16T08:56:30.000Z</time>
        <extensions>
          <ns3:TrackPointExtension>
            <ns3:atemp>17.0</ns3:atemp>
          </ns3:TrackPointExtension>
        </extensions>
      </trkpt>
      <trkpt lat="42.626789845526218414306640625" lon="19.88378279842436313629150390625">
        <ele>1694.800048828125</ele>
        <time>2026-06-16T08:56:31.000Z</time>
        <extensions>
          <ns3:TrackPointExtension>
            <ns3:atemp>17.0</ns3:atemp>
          </ns3:TrackPointExtension>
        </extensions>
      </trkpt>
      <trkpt lat="42.626805268228054046630859375" lon="19.88380023278295993804931640625">
        <ele>1694.800048828125</ele>
        <time>2026-06-16T08:56:32.000Z</time>
        <extensions>
          <ns3:TrackPointExtension>
            <ns3:atemp>17.0</ns3:atemp>
          </ns3:TrackPointExtension>
        </extensions>
      </trkpt>
      <trkpt lat="42.6268205232918262481689453125" lon="19.88382336683571338653564453125">
        <ele>1694.800048828125</ele>
        <time>2026-06-16T08:56:33.000Z</time>
        <extensions>
          <ns3:TrackPointExtension>
            <ns3:atemp>17.0</ns3:atemp>
          </ns3:TrackPointExtension>
        </extensions>
      </trkpt>
      <trkpt lat="42.6268339343369007110595703125" lon="19.88385220058262348175048828125">
        <ele>1694.800048828125</ele>
        <time>2026-06-16T08:56:34.000Z</time>
        <extensions>
          <ns3:TrackPointExtension>
            <ns3:atemp>17.0</ns3:atemp>
          </ns3:TrackPointExtension>
        </extensions>
      </trkpt>
      <trkpt lat="42.62684516608715057373046875" lon="19.88387784920632839202880859375">
        <ele>1694.800048828125</ele>
        <time>2026-06-16T08:56:35.000Z</time>
        <extensions>
          <ns3:TrackPointExtension>
            <ns3:atemp>17.0</ns3:atemp>
          </ns3:TrackPointExtension>
        </extensions>
      </trkpt>
      <trkpt lat="42.6268525421619415283203125" lon="19.8839049227535724639892578125">
        <ele>1695</ele>
        <time>2026-06-16T08:56:36.000Z</time>
        <extensions>
          <ns3:TrackPointExtension>
            <ns3:atemp>17.0</ns3:atemp>
          </ns3:TrackPointExtension>
        </extensions>
      </trkpt>
      <trkpt lat="42.62686637230217456817626953125" lon="19.8839293979108333587646484375">
        <ele>1695</ele>
        <time>2026-06-16T08:56:37.000Z</time>
        <extensions>
          <ns3:TrackPointExtension>
            <ns3:atemp>17.0</ns3:atemp>
          </ns3:TrackPointExtension>
        </extensions>
      </trkpt>
      <trkpt lat="42.62687793932855129241943359375" lon="19.8839490115642547607421875">
        <ele>1695</ele>
        <time>2026-06-16T08:56:38.000Z</time>
        <extensions>
          <ns3:TrackPointExtension>
            <ns3:atemp>17.0</ns3:atemp>
          </ns3:TrackPointExtension>
        </extensions>
      </trkpt>
      <trkpt lat="42.62689202092587947845458984375" lon="19.88396904431283473968505859375">
        <ele>1695.199951171875</ele>
        <time>2026-06-16T08:56:39.000Z</time>
        <extensions>
          <ns3:TrackPointExtension>
            <ns3:atemp>17.0</ns3:atemp>
          </ns3:TrackPointExtension>
        </extensions>
      </trkpt>
      <trkpt lat="42.62690979056060314178466796875" lon="19.88398815505206584930419921875">
        <ele>1695.4000244140625</ele>
        <time>2026-06-16T08:56:40.000Z</time>
        <extensions>
          <ns3:TrackPointExtension>
            <ns3:atemp>17.0</ns3:atemp>
          </ns3:TrackPointExtension>
        </extensions>
      </trkpt>
      <trkpt lat="42.62692605145275592803955078125" lon="19.88400978036224842071533203125">
        <ele>1695.4000244140625</ele>
        <time>2026-06-16T08:56:41.000Z</time>
        <extensions>
          <ns3:TrackPointExtension>
            <ns3:atemp>17.0</ns3:atemp>
          </ns3:TrackPointExtension>
        </extensions>
      </trkpt>
      <trkpt lat="42.6269418932497501373291015625" lon="19.884033836424350738525390625">
        <ele>1695.5999755859375</ele>
        <time>2026-06-16T08:56:42.000Z</time>
        <extensions>
          <ns3:TrackPointExtension>
            <ns3:atemp>17.0</ns3:atemp>
          </ns3:TrackPointExtension>
        </extensions>
      </trkpt>
      <trkpt lat="42.62696050107479095458984375" lon="19.8840578086674213409423828125">
        <ele>1695.800048828125</ele>
        <time>2026-06-16T08:56:43.000Z</time>
        <extensions>
          <ns3:TrackPointExtension>
            <ns3:atemp>17.0</ns3:atemp>
          </ns3:TrackPointExtension>
        </extensions>
      </trkpt>
      <trkpt lat="42.626978270709514617919921875" lon="19.8840789310634136199951171875">
        <ele>1696</ele>
        <time>2026-06-16T08:56:44.000Z</time>
        <extensions>
          <ns3:TrackPointExtension>
            <ns3:atemp>17.0</ns3:atemp>
          </ns3:TrackPointExtension>
        </extensions>
      </trkpt>
      <trkpt lat="42.626993693411350250244140625" lon="19.88410080783069133758544921875">
        <ele>1696.199951171875</ele>
        <time>2026-06-16T08:56:45.000Z</time>
        <extensions>
          <ns3:TrackPointExtension>
            <ns3:atemp>17.0</ns3:atemp>
          </ns3:TrackPointExtension>
        </extensions>
      </trkpt>
      <trkpt lat="42.62700852937996387481689453125" lon="19.88412310369312763214111328125">
        <ele>1696.5999755859375</ele>
        <time>2026-06-16T08:56:46.000Z</time>
        <extensions>
          <ns3:TrackPointExtension>
            <ns3:atemp>17.0</ns3:atemp>
          </ns3:TrackPointExtension>
        </extensions>
      </trkpt>
      <trkpt lat="42.62702261097729206085205078125" lon="19.8841446451842784881591796875">
        <ele>1696.800048828125</ele>
        <time>2026-06-16T08:56:47.000Z</time>
        <extensions>
          <ns3:TrackPointExtension>
            <ns3:atemp>17.0</ns3:atemp>
          </ns3:TrackPointExtension>
        </extensions>
      </trkpt>
      <trkpt lat="42.62702764011919498443603515625" lon="19.88417507149279117584228515625">
        <ele>1697</ele>
        <time>2026-06-16T08:56:48.000Z</time>
        <extensions>
          <ns3:TrackPointExtension>
            <ns3:atemp>17.0</ns3:atemp>
          </ns3:TrackPointExtension>
        </extensions>
      </trkpt>
      <trkpt lat="42.62704004533588886260986328125" lon="19.88420239649713039398193359375">
        <ele>1697.4000244140625</ele>
        <time>2026-06-16T08:56:49.000Z</time>
        <extensions>
          <ns3:TrackPointExtension>
            <ns3:atemp>17.0</ns3:atemp>
          </ns3:TrackPointExtension>
        </extensions>
      </trkpt>
      <trkpt lat="42.6270542107522487640380859375" lon="19.8842230997979640960693359375">
        <ele>1697.5999755859375</ele>
        <time>2026-06-16T08:56:50.000Z</time>
        <extensions>
          <ns3:TrackPointExtension>
            <ns3:atemp>17.0</ns3:atemp>
          </ns3:TrackPointExtension>
        </extensions>
      </trkpt>
      <trkpt lat="42.62706317938864231109619140625" lon="19.88424464128911495208740234375">
        <ele>1698</ele>
        <time>2026-06-16T08:56:51.000Z</time>
        <extensions>
          <ns3:TrackPointExtension>
            <ns3:atemp>17.0</ns3:atemp>
          </ns3:TrackPointExtension>
        </extensions>
      </trkpt>
      <trkpt lat="42.627074159681797027587890625" lon="19.88426811061799526214599609375">
        <ele>1698.199951171875</ele>
        <time>2026-06-16T08:56:52.000Z</time>
        <extensions>
          <ns3:TrackPointExtension>
            <ns3:atemp>17.0</ns3:atemp>
          </ns3:TrackPointExtension>
        </extensions>
      </trkpt>
      <trkpt lat="42.62708396650850772857666015625" lon="19.88429359160363674163818359375">
        <ele>1698.5999755859375</ele>
        <time>2026-06-16T08:56:53.000Z</time>
        <extensions>
          <ns3:TrackPointExtension>
            <ns3:atemp>17.0</ns3:atemp>
          </ns3:TrackPointExtension>
        </extensions>
      </trkpt>
      <trkpt lat="42.62709352187812328338623046875" lon="19.8843191564083099365234375">
        <ele>1698.800048828125</ele>
        <time>2026-06-16T08:56:54.000Z</time>
        <extensions>
          <ns3:TrackPointExtension>
            <ns3:atemp>17.0</ns3:atemp>
          </ns3:TrackPointExtension>
        </extensions>
      </trkpt>
      <trkpt lat="42.627100981771945953369140625" lon="19.88434673286974430084228515625">
        <ele>1699</ele>
        <time>2026-06-16T08:56:55.000Z</time>
        <extensions>
          <ns3:TrackPointExtension>
            <ns3:atemp>17.0</ns3:atemp>
          </ns3:TrackPointExtension>
        </extensions>
      </trkpt>
      <trkpt lat="42.6271095313131809234619140625" lon="19.88437422551214694976806640625">
        <ele>1699.199951171875</ele>
        <time>2026-06-16T08:56:56.000Z</time>
        <extensions>
          <ns3:TrackPointExtension>
            <ns3:atemp>17.0</ns3:atemp>
          </ns3:TrackPointExtension>
        </extensions>
      </trkpt>
      <trkpt lat="42.62712118215858936309814453125" lon="19.88440188579261302947998046875">
        <ele>1699.199951171875</ele>
        <time>2026-06-16T08:56:57.000Z</time>
        <extensions>
          <ns3:TrackPointExtension>
            <ns3:atemp>17.0</ns3:atemp>
          </ns3:TrackPointExtension>
        </extensions>
      </trkpt>
      <trkpt lat="42.6271350122988224029541015625" lon="19.8844264447689056396484375">
        <ele>1699.4000244140625</ele>
        <time>2026-06-16T08:56:58.000Z</time>
        <extensions>
          <ns3:TrackPointExtension>
            <ns3:atemp>17.0</ns3:atemp>
          </ns3:TrackPointExtension>
        </extensions>
      </trkpt>
      <trkpt lat="42.62714582495391368865966796875" lon="19.88445125520229339599609375">
        <ele>1699.800048828125</ele>
        <time>2026-06-16T08:56:59.000Z</time>
        <extensions>
          <ns3:TrackPointExtension>
            <ns3:atemp>17.0</ns3:atemp>
          </ns3:TrackPointExtension>
        </extensions>
      </trkpt>
      <trkpt lat="42.62715973891317844390869140625" lon="19.88446894101798534393310546875">
        <ele>1700</ele>
        <time>2026-06-16T08:57:00.000Z</time>
        <extensions>
          <ns3:TrackPointExtension>
            <ns3:atemp>17.0</ns3:atemp>
          </ns3:TrackPointExtension>
        </extensions>
      </trkpt>
      <trkpt lat="42.62717348523437976837158203125" lon="19.884488470852375030517578125">
        <ele>1700.4000244140625</ele>
        <time>2026-06-16T08:57:01.000Z</time>
        <extensions>
          <ns3:TrackPointExtension>
            <ns3:atemp>17.0</ns3:atemp>
          </ns3:TrackPointExtension>
        </extensions>
      </trkpt>
      <trkpt lat="42.6271896623075008392333984375" lon="19.88450347445905208587646484375">
        <ele>1700.5999755859375</ele>
        <time>2026-06-16T08:57:02.000Z</time>
        <extensions>
          <ns3:TrackPointExtension>
            <ns3:atemp>17.0</ns3:atemp>
          </ns3:TrackPointExtension>
        </extensions>
      </trkpt>
      <trkpt lat="42.62720567174255847930908203125" lon="19.88451537676155567169189453125">
        <ele>1700.800048828125</ele>
        <time>2026-06-16T08:57:03.000Z</time>
        <extensions>
          <ns3:TrackPointExtension>
            <ns3:atemp>17.0</ns3:atemp>
          </ns3:TrackPointExtension>
        </extensions>
      </trkpt>
      <trkpt lat="42.62721841223537921905517578125" lon="19.8845275305211544036865234375">
        <ele>1701.199951171875</ele>
        <time>2026-06-16T08:57:04.000Z</time>
        <extensions>
          <ns3:TrackPointExtension>
            <ns3:atemp>17.0</ns3:atemp>
          </ns3:TrackPointExtension>
        </extensions>
      </trkpt>
      <trkpt lat="42.62723098509013652801513671875" lon="19.8845399357378482818603515625">
        <ele>1701.4000244140625</ele>
        <time>2026-06-16T08:57:05.000Z</time>
        <extensions>
          <ns3:TrackPointExtension>
            <ns3:atemp>17.0</ns3:atemp>
          </ns3:TrackPointExtension>
        </extensions>
      </trkpt>
      <trkpt lat="42.6272480003535747528076171875" lon="19.88455309532582759857177734375">
        <ele>1701.5999755859375</ele>
        <time>2026-06-16T08:57:06.000Z</time>
        <extensions>
          <ns3:TrackPointExtension>
            <ns3:atemp>17.0</ns3:atemp>
          </ns3:TrackPointExtension>
        </extensions>
      </trkpt>
      <trkpt lat="42.627262584865093231201171875" lon="19.88456348888576030731201171875">
        <ele>1702</ele>
        <time>2026-06-16T08:57:07.000Z</time>
        <extensions>
          <ns3:TrackPointExtension>
            <ns3:atemp>17.0</ns3:atemp>
          </ns3:TrackPointExtension>
        </extensions>
      </trkpt>
      <trkpt lat="42.62727540917694568634033203125" lon="19.8845744691789150238037109375">
        <ele>1702.4000244140625</ele>
        <time>2026-06-16T08:57:08.000Z</time>
        <extensions>
          <ns3:TrackPointExtension>
            <ns3:atemp>17.0</ns3:atemp>
          </ns3:TrackPointExtension>
        </extensions>
      </trkpt>
      <trkpt lat="42.627290077507495880126953125" lon="19.8845875449478626251220703125">
        <ele>1702.800048828125</ele>
        <time>2026-06-16T08:57:09.000Z</time>
        <extensions>
          <ns3:TrackPointExtension>
            <ns3:atemp>17.0</ns3:atemp>
          </ns3:TrackPointExtension>
        </extensions>
      </trkpt>
      <trkpt lat="42.62730658985674381256103515625" lon="19.88460204564034938812255859375">
        <ele>1703</ele>
        <time>2026-06-16T08:57:10.000Z</time>
        <extensions>
          <ns3:TrackPointExtension>
            <ns3:atemp>17.0</ns3:atemp>
          </ns3:TrackPointExtension>
        </extensions>
      </trkpt>
      <trkpt lat="42.6273231022059917449951171875" lon="19.88461595959961414337158203125">
        <ele>1703.4000244140625</ele>
        <time>2026-06-16T08:57:11.000Z</time>
        <extensions>
          <ns3:TrackPointExtension>
            <ns3:atemp>17.0</ns3:atemp>
          </ns3:TrackPointExtension>
        </extensions>
      </trkpt>
      <trkpt lat="42.62733743526041507720947265625" lon="19.884628951549530029296875">
        <ele>1703.5999755859375</ele>
        <time>2026-06-16T08:57:12.000Z</time>
        <extensions>
          <ns3:TrackPointExtension>
            <ns3:atemp>17.0</ns3:atemp>
          </ns3:TrackPointExtension>
        </extensions>
      </trkpt>
      <trkpt lat="42.62735637836158275604248046875" lon="19.88464864902198314666748046875">
        <ele>1704</ele>
        <time>2026-06-16T08:57:13.000Z</time>
        <extensions>
          <ns3:TrackPointExtension>
            <ns3:atemp>17.0</ns3:atemp>
          </ns3:TrackPointExtension>
        </extensions>
      </trkpt>
      <trkpt lat="42.627371884882450103759765625" lon="19.88466843031346797943115234375">
        <ele>1704.199951171875</ele>
        <time>2026-06-16T08:57:14.000Z</time>
        <extensions>
          <ns3:TrackPointExtension>
            <ns3:atemp>17.0</ns3:atemp>
          </ns3:TrackPointExtension>
        </extensions>
      </trkpt>
      <trkpt lat="42.62738990597426891326904296875" lon="19.884684272110462188720703125">
        <ele>1704.5999755859375</ele>
        <time>2026-06-16T08:57:15.000Z</time>
        <extensions>
          <ns3:TrackPointExtension>
            <ns3:atemp>17.0</ns3:atemp>
          </ns3:TrackPointExtension>
        </extensions>
      </trkpt>
      <trkpt lat="42.627406418323516845703125" lon="19.8847028799355030059814453125">
        <ele>1704.800048828125</ele>
        <time>2026-06-16T08:57:16.000Z</time>
        <extensions>
          <ns3:TrackPointExtension>
            <ns3:atemp>17.0</ns3:atemp>
          </ns3:TrackPointExtension>
        </extensions>
      </trkpt>
      <trkpt lat="42.627422176301479339599609375" lon="19.88471813499927520751953125">
        <ele>1705.199951171875</ele>
        <time>2026-06-16T08:57:17.000Z</time>
        <extensions>
          <ns3:TrackPointExtension>
            <ns3:atemp>17.0</ns3:atemp>
          </ns3:TrackPointExtension>
        </extensions>
      </trkpt>
      <trkpt lat="42.62743734754621982574462890625" lon="19.88472928293049335479736328125">
        <ele>1705.4000244140625</ele>
        <time>2026-06-16T08:57:18.000Z</time>
        <extensions>
          <ns3:TrackPointExtension>
            <ns3:atemp>17.0</ns3:atemp>
          </ns3:TrackPointExtension>
        </extensions>
      </trkpt>
      <trkpt lat="42.627457045018672943115234375" lon="19.8847424425184726715087890625">
        <ele>1705.5999755859375</ele>
        <time>2026-06-16T08:57:19.000Z</time>
        <extensions>
          <ns3:TrackPointExtension>
            <ns3:atemp>17.0</ns3:atemp>
          </ns3:TrackPointExtension>
        </extensions>
      </trkpt>
      <trkpt lat="42.627476491034030914306640625" lon="19.8847521655261516571044921875">
        <ele>1706</ele>
        <time>2026-06-16T08:57:20.000Z</time>
        <extensions>
          <ns3:TrackPointExtension>
            <ns3:atemp>17.0</ns3:atemp>
          </ns3:TrackPointExtension>
        </extensions>
      </trkpt>
      <trkpt lat="42.62749350629746913909912109375" lon="19.884763397276401519775390625">
        <ele>1706.199951171875</ele>
        <time>2026-06-16T08:57:21.000Z</time>
        <extensions>
          <ns3:TrackPointExtension>
            <ns3:atemp>17.0</ns3:atemp>
          </ns3:TrackPointExtension>
        </extensions>
      </trkpt>
      <trkpt lat="42.6275088451802730560302734375" lon="19.88477907143533229827880859375">
        <ele>1706.4000244140625</ele>
        <time>2026-06-16T08:57:22.000Z</time>
        <extensions>
          <ns3:TrackPointExtension>
            <ns3:atemp>17.0</ns3:atemp>
          </ns3:TrackPointExtension>
        </extensions>
      </trkpt>
      <trkpt lat="42.62752267532050609588623046875" lon="19.88478787243366241455078125">
        <ele>1706.5999755859375</ele>
        <time>2026-06-16T08:57:23.000Z</time>
        <extensions>
          <ns3:TrackPointExtension>
            <ns3:atemp>17.0</ns3:atemp>
          </ns3:TrackPointExtension>
        </extensions>
      </trkpt>
      <trkpt lat="42.6275380142033100128173828125" lon="19.8848031274974346160888671875">
        <ele>1706.800048828125</ele>
        <time>2026-06-16T08:57:24.000Z</time>
        <extensions>
          <ns3:TrackPointExtension>
            <ns3:atemp>17.0</ns3:atemp>
          </ns3:TrackPointExtension>
        </extensions>
      </trkpt>
      <trkpt lat="42.627549581229686737060546875" lon="19.88481611944735050201416015625">
        <ele>1707</ele>
        <time>2026-06-16T08:57:25.000Z</time>
        <extensions>
          <ns3:TrackPointExtension>
            <ns3:atemp>17.0</ns3:atemp>
          </ns3:TrackPointExtension>
        </extensions>
      </trkpt>
      <trkpt lat="42.6275646686553955078125" lon="19.8848215676844120025634765625">
        <ele>1707.199951171875</ele>
        <time>2026-06-16T08:57:26.000Z</time>
        <extensions>
          <ns3:TrackPointExtension>
            <ns3:atemp>17.0</ns3:atemp>
          </ns3:TrackPointExtension>
        </extensions>
      </trkpt>
      <trkpt lat="42.62758101336658000946044921875" lon="19.88483087159693241119384765625">
        <ele>1707.5999755859375</ele>
        <time>2026-06-16T08:57:27.000Z</time>
        <extensions>
          <ns3:TrackPointExtension>
            <ns3:atemp>17.0</ns3:atemp>
          </ns3:TrackPointExtension>
        </extensions>
      </trkpt>
      <trkpt lat="42.6275970228016376495361328125" lon="19.8848406784236431121826171875">
        <ele>1707.800048828125</ele>
        <time>2026-06-16T08:57:28.000Z</time>
        <extensions>
          <ns3:TrackPointExtension>
            <ns3:atemp>17.0</ns3:atemp>
          </ns3:TrackPointExtension>
        </extensions>
      </trkpt>
      <trkpt lat="42.62761118821799755096435546875" lon="19.88484545610845088958740234375">
        <ele>1708</ele>
        <time>2026-06-16T08:57:29.000Z</time>
        <extensions>
          <ns3:TrackPointExtension>
            <ns3:atemp>17.0</ns3:atemp>
          </ns3:TrackPointExtension>
        </extensions>
      </trkpt>
      <trkpt lat="42.62762661091983318328857421875" lon="19.88485551439225673675537109375">
        <ele>1708.199951171875</ele>
        <time>2026-06-16T08:57:30.000Z</time>
        <extensions>
          <ns3:TrackPointExtension>
            <ns3:atemp>17.0</ns3:atemp>
          </ns3:TrackPointExtension>
        </extensions>
      </trkpt>
      <trkpt lat="42.62764488346874713897705078125" lon="19.88486372865736484527587890625">
        <ele>1708.4000244140625</ele>
        <time>2026-06-16T08:57:31.000Z</time>
        <extensions>
          <ns3:TrackPointExtension>
            <ns3:atemp>17.0</ns3:atemp>
          </ns3:TrackPointExtension>
        </extensions>
      </trkpt>
      <trkpt lat="42.62766080908477306365966796875" lon="19.88487638533115386962890625">
        <ele>1708.5999755859375</ele>
        <time>2026-06-16T08:57:32.000Z</time>
        <extensions>
          <ns3:TrackPointExtension>
            <ns3:atemp>17.0</ns3:atemp>
          </ns3:TrackPointExtension>
        </extensions>
      </trkpt>
      <trkpt lat="42.62767153792083263397216796875" lon="19.88488317467272281646728515625">
        <ele>1709</ele>
        <time>2026-06-16T08:57:33.000Z</time>
        <extensions>
          <ns3:TrackPointExtension>
            <ns3:atemp>17.0</ns3:atemp>
          </ns3:TrackPointExtension>
        </extensions>
      </trkpt>
      <trkpt lat="42.6276872120797634124755859375" lon="19.8848876170814037322998046875">
        <ele>1709.4000244140625</ele>
        <time>2026-06-16T08:57:34.000Z</time>
        <extensions>
          <ns3:TrackPointExtension>
            <ns3:atemp>17.0</ns3:atemp>
          </ns3:TrackPointExtension>
        </extensions>
      </trkpt>
      <trkpt lat="42.627706825733184814453125" lon="19.8848876170814037322998046875">
        <ele>1709.5999755859375</ele>
        <time>2026-06-16T08:57:35.000Z</time>
        <extensions>
          <ns3:TrackPointExtension>
            <ns3:atemp>17.0</ns3:atemp>
          </ns3:TrackPointExtension>
        </extensions>
      </trkpt>
      <trkpt lat="42.6277217455208301544189453125" lon="19.88489172421395778656005859375">
        <ele>1709.800048828125</ele>
        <time>2026-06-16T08:57:36.000Z</time>
        <extensions>
          <ns3:TrackPointExtension>
            <ns3:atemp>17.0</ns3:atemp>
          </ns3:TrackPointExtension>
        </extensions>
      </trkpt>
      <trkpt lat="42.62774211354553699493408203125" lon="19.88488535396754741668701171875">
        <ele>1710.199951171875</ele>
        <time>2026-06-16T08:57:37.000Z</time>
        <extensions>
          <ns3:TrackPointExtension>
            <ns3:atemp>17.0</ns3:atemp>
          </ns3:TrackPointExtension>
        </extensions>
      </trkpt>
      <trkpt lat="42.6277613081037998199462890625" lon="19.88488703034818172454833984375">
        <ele>1710.4000244140625</ele>
        <time>2026-06-16T08:57:38.000Z</time>
        <extensions>
          <ns3:TrackPointExtension>
            <ns3:atemp>17.0</ns3:atemp>
          </ns3:TrackPointExtension>
        </extensions>
      </trkpt>
      <trkpt lat="42.62778016738593578338623046875" lon="19.8848852701485157012939453125">
        <ele>1710.5999755859375</ele>
        <time>2026-06-16T08:57:39.000Z</time>
        <extensions>
          <ns3:TrackPointExtension>
            <ns3:atemp>17.0</ns3:atemp>
          </ns3:TrackPointExtension>
        </extensions>
      </trkpt>
      <trkpt lat="42.62780061922967433929443359375" lon="19.88488703034818172454833984375">
        <ele>1711</ele>
        <time>2026-06-16T08:57:40.000Z</time>
        <extensions>
          <ns3:TrackPointExtension>
            <ns3:atemp>17.0</ns3:atemp>
          </ns3:TrackPointExtension>
        </extensions>
      </trkpt>
      <trkpt lat="42.6278208196163177490234375" lon="19.88489407114684581756591796875">
        <ele>1711.199951171875</ele>
        <time>2026-06-16T08:57:41.000Z</time>
        <extensions>
          <ns3:TrackPointExtension>
            <ns3:atemp>17.0</ns3:atemp>
          </ns3:TrackPointExtension>
        </extensions>
      </trkpt>
      <trkpt lat="42.6278360746800899505615234375" lon="19.884900189936161041259765625">
        <ele>1711.4000244140625</ele>
        <time>2026-06-16T08:57:42.000Z</time>
        <extensions>
          <ns3:TrackPointExtension>
            <ns3:atemp>17.0</ns3:atemp>
          </ns3:TrackPointExtension>
        </extensions>
      </trkpt>
      <trkpt lat="42.62785761617124080657958984375" lon="19.8849094100296497344970703125">
        <ele>1711.800048828125</ele>
        <time>2026-06-16T08:57:43.000Z</time>
        <extensions>
          <ns3:TrackPointExtension>
            <ns3:atemp>17.0</ns3:atemp>
          </ns3:TrackPointExtension>
        </extensions>
      </trkpt>
      <trkpt lat="42.62787379324436187744140625" lon="19.8849172890186309814453125">
        <ele>1712</ele>
        <time>2026-06-16T08:57:44.000Z</time>
        <extensions>
          <ns3:TrackPointExtension>
            <ns3:atemp>17.0</ns3:atemp>
          </ns3:TrackPointExtension>
        </extensions>
      </trkpt>
      <trkpt lat="42.6278944127261638641357421875" lon="19.88492709584534168243408203125">
        <ele>1712.199951171875</ele>
        <time>2026-06-16T08:57:45.000Z</time>
        <extensions>
          <ns3:TrackPointExtension>
            <ns3:atemp>17.0</ns3:atemp>
          </ns3:TrackPointExtension>
        </extensions>
      </trkpt>
      <trkpt lat="42.62791310437023639678955078125" lon="19.88493799231946468353271484375">
        <ele>1712.4000244140625</ele>
        <time>2026-06-16T08:57:46.000Z</time>
        <extensions>
          <ns3:TrackPointExtension>
            <ns3:atemp>17.0</ns3:atemp>
          </ns3:TrackPointExtension>
        </extensions>
      </trkpt>
      <trkpt lat="42.62793011963367462158203125" lon="19.884950481355190277099609375">
        <ele>1712.5999755859375</ele>
        <time>2026-06-16T08:57:47.000Z</time>
        <extensions>
          <ns3:TrackPointExtension>
            <ns3:atemp>17.0</ns3:atemp>
          </ns3:TrackPointExtension>
        </extensions>
      </trkpt>
      <trkpt lat="42.627947889268398284912109375" lon="19.88496221601963043212890625">
        <ele>1712.800048828125</ele>
        <time>2026-06-16T08:57:48.000Z</time>
        <extensions>
          <ns3:TrackPointExtension>
            <ns3:atemp>17.0</ns3:atemp>
          </ns3:TrackPointExtension>
        </extensions>
      </trkpt>
      <trkpt lat="42.6279604621231555938720703125" lon="19.88496883772313594818115234375">
        <ele>1713</ele>
        <time>2026-06-16T08:57:49.000Z</time>
        <extensions>
          <ns3:TrackPointExtension>
            <ns3:atemp>17.0</ns3:atemp>
          </ns3:TrackPointExtension>
        </extensions>
      </trkpt>
      <trkpt lat="42.6279758848249912261962890625" lon="19.88497872836887836456298828125">
        <ele>1713.199951171875</ele>
        <time>2026-06-16T08:57:50.000Z</time>
        <extensions>
          <ns3:TrackPointExtension>
            <ns3:atemp>17.0</ns3:atemp>
          </ns3:TrackPointExtension>
        </extensions>
      </trkpt>
      <trkpt lat="42.62799046933650970458984375" lon="19.8849908821284770965576171875">
        <ele>1713.5999755859375</ele>
        <time>2026-06-16T08:57:51.000Z</time>
        <extensions>
          <ns3:TrackPointExtension>
            <ns3:atemp>17.0</ns3:atemp>
          </ns3:TrackPointExtension>
        </extensions>
      </trkpt>
      <trkpt lat="42.628004886209964752197265625" lon="19.88500471226871013641357421875">
        <ele>1713.800048828125</ele>
        <time>2026-06-16T08:57:52.000Z</time>
        <extensions>
          <ns3:TrackPointExtension>
            <ns3:atemp>17.0</ns3:atemp>
          </ns3:TrackPointExtension>
        </extensions>
      </trkpt>
      <trkpt lat="42.62802064418792724609375" lon="19.88501778803765773773193359375">
        <ele>1714</ele>
        <time>2026-06-16T08:57:53.000Z</time>
        <extensions>
          <ns3:TrackPointExtension>
            <ns3:atemp>17.0</ns3:atemp>
          </ns3:TrackPointExtension>
        </extensions>
      </trkpt>
      <trkpt lat="42.62803833000361919403076171875" lon="19.88502985797822475433349609375">
        <ele>1714.4000244140625</ele>
        <time>2026-06-16T08:57:54.000Z</time>
        <extensions>
          <ns3:TrackPointExtension>
            <ns3:atemp>17.0</ns3:atemp>
          </ns3:TrackPointExtension>
        </extensions>
      </trkpt>
      <trkpt lat="42.62805375270545482635498046875" lon="19.88504176028072834014892578125">
        <ele>1714.5999755859375</ele>
        <time>2026-06-16T08:57:55.000Z</time>
        <extensions>
          <ns3:TrackPointExtension>
            <ns3:atemp>17.0</ns3:atemp>
          </ns3:TrackPointExtension>
        </extensions>
      </trkpt>
      <trkpt lat="42.62806666083633899688720703125" lon="19.885049723088741302490234375">
        <ele>1714.800048828125</ele>
        <time>2026-06-16T08:57:56.000Z</time>
        <extensions>
          <ns3:TrackPointExtension>
            <ns3:atemp>17.0</ns3:atemp>
          </ns3:TrackPointExtension>
        </extensions>
      </trkpt>
      <trkpt lat="42.62808032333850860595703125" lon="19.88506590016186237335205078125">
        <ele>1715.199951171875</ele>
        <time>2026-06-16T08:57:57.000Z</time>
        <extensions>
          <ns3:TrackPointExtension>
            <ns3:atemp>17.0</ns3:atemp>
          </ns3:TrackPointExtension>
        </extensions>
      </trkpt>
      <trkpt lat="42.62809616513550281524658203125" lon="19.885084591805934906005859375">
        <ele>1715.4000244140625</ele>
        <time>2026-06-16T08:57:58.000Z</time>
        <extensions>
          <ns3:TrackPointExtension>
            <ns3:atemp>17.0</ns3:atemp>
          </ns3:TrackPointExtension>
        </extensions>
      </trkpt>
      <trkpt lat="42.62811250984668731689453125" lon="19.88509959541261196136474609375">
        <ele>1715.800048828125</ele>
        <time>2026-06-16T08:57:59.000Z</time>
        <extensions>
          <ns3:TrackPointExtension>
            <ns3:atemp>17.0</ns3:atemp>
          </ns3:TrackPointExtension>
        </extensions>
      </trkpt>
      <trkpt lat="42.62812835164368152618408203125" lon="19.88511300645768642425537109375">
        <ele>1716</ele>
        <time>2026-06-16T08:58:00.000Z</time>
        <extensions>
          <ns3:TrackPointExtension>
            <ns3:atemp>17.0</ns3:atemp>
          </ns3:TrackPointExtension>
        </extensions>
      </trkpt>
      <trkpt lat="42.62814193032681941986083984375" lon="19.88513010554015636444091796875">
        <ele>1716.199951171875</ele>
        <time>2026-06-16T08:58:01.000Z</time>
        <extensions>
          <ns3:TrackPointExtension>
            <ns3:atemp>17.0</ns3:atemp>
          </ns3:TrackPointExtension>
        </extensions>
      </trkpt>
      <trkpt lat="42.62815852649509906768798828125" lon="19.88514318130910396575927734375">
        <ele>1716.5999755859375</ele>
        <time>2026-06-16T08:58:02.000Z</time>
        <extensions>
          <ns3:TrackPointExtension>
            <ns3:atemp>17.0</ns3:atemp>
          </ns3:TrackPointExtension>
        </extensions>
      </trkpt>
      <trkpt lat="42.628173530101776123046875" lon="19.88515391014516353607177734375">
        <ele>1716.800048828125</ele>
        <time>2026-06-16T08:58:03.000Z</time>
        <extensions>
          <ns3:TrackPointExtension>
            <ns3:atemp>17.0</ns3:atemp>
          </ns3:TrackPointExtension>
        </extensions>
      </trkpt>
      <trkpt lat="42.62818761169910430908203125" lon="19.88516866229474544525146484375">
        <ele>1717.199951171875</ele>
        <time>2026-06-16T08:58:04.000Z</time>
        <extensions>
          <ns3:TrackPointExtension>
            <ns3:atemp>17.0</ns3:atemp>
          </ns3:TrackPointExtension>
        </extensions>
      </trkpt>
      <trkpt lat="42.628205716609954833984375" lon="19.88517503254115581512451171875">
        <ele>1717.4000244140625</ele>
        <time>2026-06-16T08:58:05.000Z</time>
        <extensions>
          <ns3:TrackPointExtension>
            <ns3:atemp>17.0</ns3:atemp>
          </ns3:TrackPointExtension>
        </extensions>
      </trkpt>
      <trkpt lat="42.6282223127782344818115234375" lon="19.88518081605434417724609375">
        <ele>1717.800048828125</ele>
        <time>2026-06-16T08:58:06.000Z</time>
        <extensions>
          <ns3:TrackPointExtension>
            <ns3:atemp>17.0</ns3:atemp>
          </ns3:TrackPointExtension>
        </extensions>
      </trkpt>
      <trkpt lat="42.628237903118133544921875" lon="19.88519690930843353271484375">
        <ele>1718.199951171875</ele>
        <time>2026-06-16T08:58:07.000Z</time>
        <extensions>
          <ns3:TrackPointExtension>
            <ns3:atemp>17.0</ns3:atemp>
          </ns3:TrackPointExtension>
        </extensions>
      </trkpt>
      <trkpt lat="42.62825357727706432342529296875" lon="19.8852158524096012115478515625">
        <ele>1718.4000244140625</ele>
        <time>2026-06-16T08:58:08.000Z</time>
        <extensions>
          <ns3:TrackPointExtension>
            <ns3:atemp>17.0</ns3:atemp>
          </ns3:TrackPointExtension>
        </extensions>
      </trkpt>
      <trkpt lat="42.62827101163566112518310546875" lon="19.88523001782596111297607421875">
        <ele>1718.800048828125</ele>
        <time>2026-06-16T08:58:09.000Z</time>
        <extensions>
          <ns3:TrackPointExtension>
            <ns3:atemp>17.0</ns3:atemp>
          </ns3:TrackPointExtension>
        </extensions>
      </trkpt>
      <trkpt lat="42.628289200365543365478515625" lon="19.88523789681494235992431640625">
        <ele>1719.199951171875</ele>
        <time>2026-06-16T08:58:10.000Z</time>
        <extensions>
          <ns3:TrackPointExtension>
            <ns3:atemp>17.0</ns3:atemp>
          </ns3:TrackPointExtension>
        </extensions>
      </trkpt>
      <trkpt lat="42.628304623067378997802734375" lon="19.88525164313614368438720703125">
        <ele>1719.4000244140625</ele>
        <time>2026-06-16T08:58:11.000Z</time>
        <extensions>
          <ns3:TrackPointExtension>
            <ns3:atemp>17.0</ns3:atemp>
          </ns3:TrackPointExtension>
        </extensions>
      </trkpt>
      <trkpt lat="42.6283182017505168914794921875" lon="19.885267652571201324462890625">
        <ele>1719.800048828125</ele>
        <time>2026-06-16T08:58:12.000Z</time>
        <extensions>
          <ns3:TrackPointExtension>
            <ns3:atemp>17.0</ns3:atemp>
          </ns3:TrackPointExtension>
        </extensions>
      </trkpt>
      <trkpt lat="42.6283342950046062469482421875" lon="19.885278046131134033203125">
        <ele>1720.199951171875</ele>
        <time>2026-06-16T08:58:13.000Z</time>
        <extensions>
          <ns3:TrackPointExtension>
            <ns3:atemp>17.0</ns3:atemp>
          </ns3:TrackPointExtension>
        </extensions>
      </trkpt>
      <trkpt lat="42.62834829278290271759033203125" lon="19.8852899484336376190185546875">
        <ele>1720.4000244140625</ele>
        <time>2026-06-16T08:58:14.000Z</time>
        <extensions>
          <ns3:TrackPointExtension>
            <ns3:atemp>17.0</ns3:atemp>
          </ns3:TrackPointExtension>
        </extensions>
      </trkpt>
      <trkpt lat="42.6283614523708820343017578125" lon="19.885300509631633758544921875">
        <ele>1720.800048828125</ele>
        <time>2026-06-16T08:58:15.000Z</time>
        <extensions>
          <ns3:TrackPointExtension>
            <ns3:atemp>17.0</ns3:atemp>
          </ns3:TrackPointExtension>
        </extensions>
      </trkpt>
      <trkpt lat="42.628376372158527374267578125" lon="19.88530981354415416717529296875">
        <ele>1721.199951171875</ele>
        <time>2026-06-16T08:58:16.000Z</time>
        <extensions>
          <ns3:TrackPointExtension>
            <ns3:atemp>17.0</ns3:atemp>
          </ns3:TrackPointExtension>
        </extensions>
      </trkpt>
      <trkpt lat="42.62838936410844326019287109375" lon="19.8853295110166072845458984375">
        <ele>1721.4000244140625</ele>
        <time>2026-06-16T08:58:17.000Z</time>
        <extensions>
          <ns3:TrackPointExtension>
            <ns3:atemp>17.0</ns3:atemp>
          </ns3:TrackPointExtension>
        </extensions>
      </trkpt>
      <trkpt lat="42.62840763665735721588134765625" lon="19.8853422515094280242919921875">
        <ele>1721.800048828125</ele>
        <time>2026-06-16T08:58:18.000Z</time>
        <extensions>
          <ns3:TrackPointExtension>
            <ns3:atemp>17.0</ns3:atemp>
          </ns3:TrackPointExtension>
        </extensions>
      </trkpt>
      <trkpt lat="42.6284251548349857330322265625" lon="19.88534971140325069427490234375">
        <ele>1722.199951171875</ele>
        <time>2026-06-16T08:58:19.000Z</time>
        <extensions>
          <ns3:TrackPointExtension>
            <ns3:atemp>17.0</ns3:atemp>
          </ns3:TrackPointExtension>
        </extensions>
      </trkpt>
      <trkpt lat="42.628440074622631072998046875" lon="19.885362870991230010986328125">
        <ele>1722.5999755859375</ele>
        <time>2026-06-16T08:58:20.000Z</time>
        <extensions>
          <ns3:TrackPointExtension>
            <ns3:atemp>17.0</ns3:atemp>
          </ns3:TrackPointExtension>
        </extensions>
      </trkpt>
      <trkpt lat="42.628454156219959259033203125" lon="19.88537552766501903533935546875">
        <ele>1722.800048828125</ele>
        <time>2026-06-16T08:58:21.000Z</time>
        <extensions>
          <ns3:TrackPointExtension>
            <ns3:atemp>17.0</ns3:atemp>
          </ns3:TrackPointExtension>
        </extensions>
      </trkpt>
      <trkpt lat="42.6284690760076045989990234375" lon="19.885391704738140106201171875">
        <ele>1723.199951171875</ele>
        <time>2026-06-16T08:58:22.000Z</time>
        <extensions>
          <ns3:TrackPointExtension>
            <ns3:atemp>17.0</ns3:atemp>
          </ns3:TrackPointExtension>
        </extensions>
      </trkpt>
      <trkpt lat="42.62848801910877227783203125" lon="19.8854099772870540618896484375">
        <ele>1723.5999755859375</ele>
        <time>2026-06-16T08:58:23.000Z</time>
        <extensions>
          <ns3:TrackPointExtension>
            <ns3:atemp>17.0</ns3:atemp>
          </ns3:TrackPointExtension>
        </extensions>
      </trkpt>
      <trkpt lat="42.62850335799157619476318359375" lon="19.88542347215116024017333984375">
        <ele>1723.800048828125</ele>
        <time>2026-06-16T08:58:24.000Z</time>
        <extensions>
          <ns3:TrackPointExtension>
            <ns3:atemp>17.0</ns3:atemp>
          </ns3:TrackPointExtension>
        </extensions>
      </trkpt>
      <trkpt lat="42.62852095998823642730712890625" lon="19.88543889485299587249755859375">
        <ele>1724.199951171875</ele>
        <time>2026-06-16T08:58:25.000Z</time>
        <extensions>
          <ns3:TrackPointExtension>
            <ns3:atemp>17.0</ns3:atemp>
          </ns3:TrackPointExtension>
        </extensions>
      </trkpt>
      <trkpt lat="42.6285411603748798370361328125" lon="19.8854522220790386199951171875">
        <ele>1724.5999755859375</ele>
        <time>2026-06-16T08:58:26.000Z</time>
        <extensions>
          <ns3:TrackPointExtension>
            <ns3:atemp>17.0</ns3:atemp>
          </ns3:TrackPointExtension>
        </extensions>
      </trkpt>
      <trkpt lat="42.62855700217187404632568359375" lon="19.885463453829288482666015625">
        <ele>1724.800048828125</ele>
        <time>2026-06-16T08:58:27.000Z</time>
        <extensions>
          <ns3:TrackPointExtension>
            <ns3:atemp>17.0</ns3:atemp>
          </ns3:TrackPointExtension>
        </extensions>
      </trkpt>
      <trkpt lat="42.62857250869274139404296875" lon="19.88547661341726779937744140625">
        <ele>1725.199951171875</ele>
        <time>2026-06-16T08:58:28.000Z</time>
        <extensions>
          <ns3:TrackPointExtension>
            <ns3:atemp>17.0</ns3:atemp>
          </ns3:TrackPointExtension>
        </extensions>
      </trkpt>
      <trkpt lat="42.62858684174716472625732421875" lon="19.8854891024529933929443359375">
        <ele>1725.4000244140625</ele>
        <time>2026-06-16T08:58:29.000Z</time>
        <extensions>
          <ns3:TrackPointExtension>
            <ns3:atemp>17.0</ns3:atemp>
          </ns3:TrackPointExtension>
        </extensions>
      </trkpt>
      <trkpt lat="42.62860159389674663543701171875" lon="19.88550410605967044830322265625">
        <ele>1725.5999755859375</ele>
        <time>2026-06-16T08:58:30.000Z</time>
        <extensions>
          <ns3:TrackPointExtension>
            <ns3:atemp>17.0</ns3:atemp>
          </ns3:TrackPointExtension>
        </extensions>
      </trkpt>
      <trkpt lat="42.62861567549407482147216796875" lon="19.8855112306773662567138671875">
        <ele>1726</ele>
        <time>2026-06-16T08:58:31.000Z</time>
        <extensions>
          <ns3:TrackPointExtension>
            <ns3:atemp>17.0</ns3:atemp>
          </ns3:TrackPointExtension>
        </extensions>
      </trkpt>
      <trkpt lat="42.62863017618656158447265625" lon="19.8855207860469818115234375">
        <ele>1726.4000244140625</ele>
        <time>2026-06-16T08:58:32.000Z</time>
        <extensions>
          <ns3:TrackPointExtension>
            <ns3:atemp>17.0</ns3:atemp>
          </ns3:TrackPointExtension>
        </extensions>
      </trkpt>
      <trkpt lat="42.62864551506936550140380859375" lon="19.88553126342594623565673828125">
        <ele>1726.5999755859375</ele>
        <time>2026-06-16T08:58:33.000Z</time>
        <extensions>
          <ns3:TrackPointExtension>
            <ns3:atemp>17.0</ns3:atemp>
          </ns3:TrackPointExtension>
        </extensions>
      </trkpt>
      <trkpt lat="42.62866445817053318023681640625" lon="19.88554098643362522125244140625">
        <ele>1727</ele>
        <time>2026-06-16T08:58:34.000Z</time>
        <extensions>
          <ns3:TrackPointExtension>
            <ns3:atemp>17.0</ns3:atemp>
          </ns3:TrackPointExtension>
        </extensions>
      </trkpt>
      <trkpt lat="42.62868155725300312042236328125" lon="19.8855591751635074615478515625">
        <ele>1727.199951171875</ele>
        <time>2026-06-16T08:58:35.000Z</time>
        <extensions>
          <ns3:TrackPointExtension>
            <ns3:atemp>17.0</ns3:atemp>
          </ns3:TrackPointExtension>
        </extensions>
      </trkpt>
      <trkpt lat="42.62870217673480510711669921875" lon="19.88558289594948291778564453125">
        <ele>1727.4000244140625</ele>
        <time>2026-06-16T08:58:36.000Z</time>
        <extensions>
          <ns3:TrackPointExtension>
            <ns3:atemp>17.0</ns3:atemp>
          </ns3:TrackPointExtension>
        </extensions>
      </trkpt>
      <trkpt lat="42.62872028164565563201904296875" lon="19.8856007494032382965087890625">
        <ele>1727.800048828125</ele>
        <time>2026-06-16T08:58:37.000Z</time>
        <extensions>
          <ns3:TrackPointExtension>
            <ns3:atemp>17.0</ns3:atemp>
          </ns3:TrackPointExtension>
        </extensions>
      </trkpt>
      <trkpt lat="42.62873704545199871063232421875" lon="19.88560837693512439727783203125">
        <ele>1728</ele>
        <time>2026-06-16T08:58:38.000Z</time>
        <extensions>
          <ns3:TrackPointExtension>
            <ns3:atemp>17.0</ns3:atemp>
          </ns3:TrackPointExtension>
        </extensions>
      </trkpt>
      <trkpt lat="42.628748528659343719482421875" lon="19.88561491481959819793701171875">
        <ele>1728.4000244140625</ele>
        <time>2026-06-16T08:58:39.000Z</time>
        <extensions>
          <ns3:TrackPointExtension>
            <ns3:atemp>17.0</ns3:atemp>
          </ns3:TrackPointExtension>
        </extensions>
      </trkpt>
      <trkpt lat="42.62876302935183048248291015625" lon="19.8856279067695140838623046875">
        <ele>1728.5999755859375</ele>
        <time>2026-06-16T08:58:40.000Z</time>
        <extensions>
          <ns3:TrackPointExtension>
            <ns3:atemp>17.0</ns3:atemp>
          </ns3:TrackPointExtension>
        </extensions>
      </trkpt>
      <trkpt lat="42.6287783682346343994140625" lon="19.88565229810774326324462890625">
        <ele>1729</ele>
        <time>2026-06-16T08:58:41.000Z</time>
        <extensions>
          <ns3:TrackPointExtension>
            <ns3:atemp>17.0</ns3:atemp>
          </ns3:TrackPointExtension>
        </extensions>
      </trkpt>
      <trkpt lat="42.62879203073680400848388671875" lon="19.88567660562694072723388671875">
        <ele>1729.199951171875</ele>
        <time>2026-06-16T08:58:42.000Z</time>
        <extensions>
          <ns3:TrackPointExtension>
            <ns3:atemp>17.0</ns3:atemp>
          </ns3:TrackPointExtension>
        </extensions>
      </trkpt>
      <trkpt lat="42.62880896218121051788330078125" lon="19.885695464909076690673828125">
        <ele>1729.5999755859375</ele>
        <time>2026-06-16T08:58:43.000Z</time>
        <extensions>
          <ns3:TrackPointExtension>
            <ns3:atemp>17.0</ns3:atemp>
          </ns3:TrackPointExtension>
        </extensions>
      </trkpt>
      <trkpt lat="42.6288204453885555267333984375" lon="19.885717928409576416015625">
        <ele>1730</ele>
        <time>2026-06-16T08:58:44.000Z</time>
        <extensions>
          <ns3:TrackPointExtension>
            <ns3:atemp>17.0</ns3:atemp>
          </ns3:TrackPointExtension>
        </extensions>
      </trkpt>
      <trkpt lat="42.62883159331977367401123046875" lon="19.885743744671344757080078125">
        <ele>1730.199951171875</ele>
        <time>2026-06-16T08:58:45.000Z</time>
        <extensions>
          <ns3:TrackPointExtension>
            <ns3:atemp>17.0</ns3:atemp>
          </ns3:TrackPointExtension>
        </extensions>
      </trkpt>
      <trkpt lat="42.628846429288387298583984375" lon="19.88576696254312992095947265625">
        <ele>1730.5999755859375</ele>
        <time>2026-06-16T08:58:46.000Z</time>
        <extensions>
          <ns3:TrackPointExtension>
            <ns3:atemp>17.0</ns3:atemp>
          </ns3:TrackPointExtension>
        </extensions>
      </trkpt>
      <trkpt lat="42.62886160053312778472900390625" lon="19.885789342224597930908203125">
        <ele>1730.800048828125</ele>
        <time>2026-06-16T08:58:47.000Z</time>
        <extensions>
          <ns3:TrackPointExtension>
            <ns3:atemp>17.0</ns3:atemp>
          </ns3:TrackPointExtension>
        </extensions>
      </trkpt>
      <trkpt lat="42.6288747601211071014404296875" lon="19.88581339828670024871826171875">
        <ele>1731.199951171875</ele>
        <time>2026-06-16T08:58:48.000Z</time>
        <extensions>
          <ns3:TrackPointExtension>
            <ns3:atemp>17.0</ns3:atemp>
          </ns3:TrackPointExtension>
        </extensions>
      </trkpt>
      <trkpt lat="42.6288881711661815643310546875" lon="19.88583351485431194305419921875">
        <ele>1731.4000244140625</ele>
        <time>2026-06-16T08:58:49.000Z</time>
        <extensions>
          <ns3:TrackPointExtension>
            <ns3:atemp>17.0</ns3:atemp>
          </ns3:TrackPointExtension>
        </extensions>
      </trkpt>
      <trkpt lat="42.6289035938680171966552734375" lon="19.88585312850773334503173828125">
        <ele>1731.5999755859375</ele>
        <time>2026-06-16T08:58:50.000Z</time>
        <extensions>
          <ns3:TrackPointExtension>
            <ns3:atemp>17.0</ns3:atemp>
          </ns3:TrackPointExtension>
        </extensions>
      </trkpt>
      <trkpt lat="42.62891717255115509033203125" lon="19.8858743347227573394775390625">
        <ele>1731.800048828125</ele>
        <time>2026-06-16T08:58:51.000Z</time>
        <extensions>
          <ns3:TrackPointExtension>
            <ns3:atemp>17.0</ns3:atemp>
          </ns3:TrackPointExtension>
        </extensions>
      </trkpt>
      <trkpt lat="42.62892387807369232177734375" lon="19.88589554093778133392333984375">
        <ele>1732.199951171875</ele>
        <time>2026-06-16T08:58:52.000Z</time>
        <extensions>
          <ns3:TrackPointExtension>
            <ns3:atemp>17.0</ns3:atemp>
          </ns3:TrackPointExtension>
        </extensions>
      </trkpt>
      <trkpt lat="42.62893301434814929962158203125" lon="19.88590962253510951995849609375">
        <ele>1732.4000244140625</ele>
        <time>2026-06-16T08:58:53.000Z</time>
        <extensions>
          <ns3:TrackPointExtension>
            <ns3:atemp>17.0</ns3:atemp>
          </ns3:TrackPointExtension>
        </extensions>
      </trkpt>
      <trkpt lat="42.62893888168036937713623046875" lon="19.885924793779850006103515625">
        <ele>1732.800048828125</ele>
        <time>2026-06-16T08:58:54.000Z</time>
        <extensions>
          <ns3:TrackPointExtension>
            <ns3:atemp>17.0</ns3:atemp>
          </ns3:TrackPointExtension>
        </extensions>
      </trkpt>
      <trkpt lat="42.6289518736302852630615234375" lon="19.8859445750713348388671875">
        <ele>1733</ele>
        <time>2026-06-16T08:58:55.000Z</time>
        <extensions>
          <ns3:TrackPointExtension>
            <ns3:atemp>17.0</ns3:atemp>
          </ns3:TrackPointExtension>
        </extensions>
      </trkpt>
      <trkpt lat="42.628962099552154541015625" lon="19.88596578128635883331298828125">
        <ele>1733.4000244140625</ele>
        <time>2026-06-16T08:58:56.000Z</time>
        <extensions>
          <ns3:TrackPointExtension>
            <ns3:atemp>17.0</ns3:atemp>
          </ns3:TrackPointExtension>
        </extensions>
      </trkpt>
      <trkpt lat="42.62897509150207042694091796875" lon="19.88598623313009738922119140625">
        <ele>1733.5999755859375</ele>
        <time>2026-06-16T08:58:57.000Z</time>
        <extensions>
          <ns3:TrackPointExtension>
            <ns3:atemp>17.0</ns3:atemp>
          </ns3:TrackPointExtension>
        </extensions>
      </trkpt>
      <trkpt lat="42.62899269349873065948486328125" lon="19.8860007338225841522216796875">
        <ele>1734</ele>
        <time>2026-06-16T08:58:58.000Z</time>
        <extensions>
          <ns3:TrackPointExtension>
            <ns3:atemp>17.0</ns3:atemp>
          </ns3:TrackPointExtension>
        </extensions>
      </trkpt>
      <trkpt lat="42.6290036737918853759765625" lon="19.8860201798379421234130859375">
        <ele>1734.199951171875</ele>
        <time>2026-06-16T08:58:59.000Z</time>
        <extensions>
          <ns3:TrackPointExtension>
            <ns3:atemp>17.0</ns3:atemp>
          </ns3:TrackPointExtension>
        </extensions>
      </trkpt>
      <trkpt lat="42.62901616282761096954345703125" lon="19.88603887148201465606689453125">
        <ele>1734.5999755859375</ele>
        <time>2026-06-16T08:59:00.000Z</time>
        <extensions>
          <ns3:TrackPointExtension>
            <ns3:atemp>17.0</ns3:atemp>
          </ns3:TrackPointExtension>
        </extensions>
      </trkpt>
      <trkpt lat="42.6290304958820343017578125" lon="19.88605580292642116546630859375">
        <ele>1734.800048828125</ele>
        <time>2026-06-16T08:59:01.000Z</time>
        <extensions>
          <ns3:TrackPointExtension>
            <ns3:atemp>17.0</ns3:atemp>
          </ns3:TrackPointExtension>
        </extensions>
      </trkpt>
      <trkpt lat="42.6290373690426349639892578125" lon="19.88607843406498432159423828125">
        <ele>1735</ele>
        <time>2026-06-16T08:59:02.000Z</time>
        <extensions>
          <ns3:TrackPointExtension>
            <ns3:atemp>17.0</ns3:atemp>
          </ns3:TrackPointExtension>
        </extensions>
      </trkpt>
      <trkpt lat="42.62904868461191654205322265625" lon="19.88610039465129375457763671875">
        <ele>1735.4000244140625</ele>
        <time>2026-06-16T08:59:03.000Z</time>
        <extensions>
          <ns3:TrackPointExtension>
            <ns3:atemp>17.0</ns3:atemp>
          </ns3:TrackPointExtension>
        </extensions>
      </trkpt>
      <trkpt lat="42.62906209565699100494384765625" lon="19.8861231096088886260986328125">
        <ele>1735.800048828125</ele>
        <time>2026-06-16T08:59:04.000Z</time>
        <extensions>
          <ns3:TrackPointExtension>
            <ns3:atemp>17.0</ns3:atemp>
          </ns3:TrackPointExtension>
        </extensions>
      </trkpt>
      <trkpt lat="42.62907315976917743682861328125" lon="19.8861395381391048431396484375">
        <ele>1736</ele>
        <time>2026-06-16T08:59:05.000Z</time>
        <extensions>
          <ns3:TrackPointExtension>
            <ns3:atemp>17.0</ns3:atemp>
          </ns3:TrackPointExtension>
        </extensions>
      </trkpt>
      <trkpt lat="42.62908422388136386871337890625" lon="19.8861599899828433990478515625">
        <ele>1736.199951171875</ele>
        <time>2026-06-16T08:59:06.000Z</time>
        <extensions>
          <ns3:TrackPointExtension>
            <ns3:atemp>17.0</ns3:atemp>
          </ns3:TrackPointExtension>
        </extensions>
      </trkpt>
      <trkpt lat="42.629095874726772308349609375" lon="19.8861827887594699859619140625">
        <ele>1736.5999755859375</ele>
        <time>2026-06-16T08:59:07.000Z</time>
        <extensions>
          <ns3:TrackPointExtension>
            <ns3:atemp>17.0</ns3:atemp>
          </ns3:TrackPointExtension>
        </extensions>
      </trkpt>
      <trkpt lat="42.629109285771846771240234375" lon="19.88620365969836711883544921875">
        <ele>1736.800048828125</ele>
        <time>2026-06-16T08:59:08.000Z</time>
        <extensions>
          <ns3:TrackPointExtension>
            <ns3:atemp>17.0</ns3:atemp>
          </ns3:TrackPointExtension>
        </extensions>
      </trkpt>
      <trkpt lat="42.629121355712413787841796875" lon="19.8862236924469470977783203125">
        <ele>1737</ele>
        <time>2026-06-16T08:59:09.000Z</time>
        <extensions>
          <ns3:TrackPointExtension>
            <ns3:atemp>17.0</ns3:atemp>
          </ns3:TrackPointExtension>
        </extensions>
      </trkpt>
      <trkpt lat="42.629136778414249420166015625" lon="19.88624121062457561492919921875">
        <ele>1737.4000244140625</ele>
        <time>2026-06-16T08:59:10.000Z</time>
        <extensions>
          <ns3:TrackPointExtension>
            <ns3:atemp>17.0</ns3:atemp>
          </ns3:TrackPointExtension>
        </extensions>
      </trkpt>
      <trkpt lat="42.629148177802562713623046875" lon="19.88626199774444103240966796875">
        <ele>1737.800048828125</ele>
        <time>2026-06-16T08:59:11.000Z</time>
        <extensions>
          <ns3:TrackPointExtension>
            <ns3:atemp>17.0</ns3:atemp>
          </ns3:TrackPointExtension>
        </extensions>
      </trkpt>
      <trkpt lat="42.62916653417050838470458984375" lon="19.88628211431205272674560546875">
        <ele>1738.199951171875</ele>
        <time>2026-06-16T08:59:12.000Z</time>
        <extensions>
          <ns3:TrackPointExtension>
            <ns3:atemp>17.0</ns3:atemp>
          </ns3:TrackPointExtension>
        </extensions>
      </trkpt>
      <trkpt lat="42.62918271124362945556640625" lon="19.8862959444522857666015625">
        <ele>1738.4000244140625</ele>
        <time>2026-06-16T08:59:13.000Z</time>
        <extensions>
          <ns3:TrackPointExtension>
            <ns3:atemp>17.0</ns3:atemp>
          </ns3:TrackPointExtension>
        </extensions>
      </trkpt>
      <trkpt lat="42.6291941106319427490234375" lon="19.88631228916347026824951171875">
        <ele>1738.800048828125</ele>
        <time>2026-06-16T08:59:14.000Z</time>
        <extensions>
          <ns3:TrackPointExtension>
            <ns3:atemp>17.0</ns3:atemp>
          </ns3:TrackPointExtension>
        </extensions>
      </trkpt>
      <trkpt lat="42.6292053423821926116943359375" lon="19.88632905296981334686279296875">
        <ele>1739</ele>
        <time>2026-06-16T08:59:15.000Z</time>
        <extensions>
          <ns3:TrackPointExtension>
            <ns3:atemp>17.0</ns3:atemp>
          </ns3:TrackPointExtension>
        </extensions>
      </trkpt>
      <trkpt lat="42.6292200945317745208740234375" lon="19.88634757697582244873046875">
        <ele>1739.4000244140625</ele>
        <time>2026-06-16T08:59:16.000Z</time>
        <extensions>
          <ns3:TrackPointExtension>
            <ns3:atemp>17.0</ns3:atemp>
          </ns3:TrackPointExtension>
        </extensions>
      </trkpt>
      <trkpt lat="42.62923090718686580657958984375" lon="19.88636660389602184295654296875">
        <ele>1739.5999755859375</ele>
        <time>2026-06-16T08:59:17.000Z</time>
        <extensions>
          <ns3:TrackPointExtension>
            <ns3:atemp>17.0</ns3:atemp>
          </ns3:TrackPointExtension>
        </extensions>
      </trkpt>
      <trkpt lat="42.62924029491841793060302734375" lon="19.88638454116880893707275390625">
        <ele>1740</ele>
        <time>2026-06-16T08:59:18.000Z</time>
        <extensions>
          <ns3:TrackPointExtension>
            <ns3:atemp>17.0</ns3:atemp>
          </ns3:TrackPointExtension>
        </extensions>
      </trkpt>
      <trkpt lat="42.6292569749057292938232421875" lon="19.88640256226062774658203125">
        <ele>1740.199951171875</ele>
        <time>2026-06-16T08:59:19.000Z</time>
        <extensions>
          <ns3:TrackPointExtension>
            <ns3:atemp>17.0</ns3:atemp>
          </ns3:TrackPointExtension>
        </extensions>
      </trkpt>
      <trkpt lat="42.629272900521755218505859375" lon="19.88641329109668731689453125">
        <ele>1740.4000244140625</ele>
        <time>2026-06-16T08:59:20.000Z</time>
        <extensions>
          <ns3:TrackPointExtension>
            <ns3:atemp>17.0</ns3:atemp>
          </ns3:TrackPointExtension>
        </extensions>
      </trkpt>
      <trkpt lat="42.62929243035614490509033203125" lon="19.88642527721822261810302734375">
        <ele>1740.800048828125</ele>
        <time>2026-06-16T08:59:21.000Z</time>
        <extensions>
          <ns3:TrackPointExtension>
            <ns3:atemp>17.0</ns3:atemp>
          </ns3:TrackPointExtension>
        </extensions>
      </trkpt>
      <trkpt lat="42.6293032430112361907958984375" lon="19.8864407837390899658203125">
        <ele>1741</ele>
        <time>2026-06-16T08:59:22.000Z</time>
        <extensions>
          <ns3:TrackPointExtension>
            <ns3:atemp>17.0</ns3:atemp>
          </ns3:TrackPointExtension>
        </extensions>
      </trkpt>
      <trkpt lat="42.62931271456182003021240234375" lon="19.88646014593541622161865234375">
        <ele>1741.4000244140625</ele>
        <time>2026-06-16T08:59:23.000Z</time>
        <extensions>
          <ns3:TrackPointExtension>
            <ns3:atemp>17.0</ns3:atemp>
          </ns3:TrackPointExtension>
        </extensions>
      </trkpt>
      <trkpt lat="42.629314474761486053466796875" lon="19.886481352150440216064453125">
        <ele>1741.800048828125</ele>
        <time>2026-06-16T08:59:24.000Z</time>
        <extensions>
          <ns3:TrackPointExtension>
            <ns3:atemp>17.0</ns3:atemp>
          </ns3:TrackPointExtension>
        </extensions>
      </trkpt>
      <trkpt lat="42.62931883335113525390625" lon="19.88650557585060596466064453125">
        <ele>1742.199951171875</ele>
        <time>2026-06-16T08:59:25.000Z</time>
        <extensions>
          <ns3:TrackPointExtension>
            <ns3:atemp>17.0</ns3:atemp>
          </ns3:TrackPointExtension>
        </extensions>
      </trkpt>
      <trkpt lat="42.629325203597545623779296875" lon="19.88652116619050502777099609375">
        <ele>1742.4000244140625</ele>
        <time>2026-06-16T08:59:26.000Z</time>
        <extensions>
          <ns3:TrackPointExtension>
            <ns3:atemp>17.0</ns3:atemp>
          </ns3:TrackPointExtension>
        </extensions>
      </trkpt>
      <trkpt lat="42.6293340884149074554443359375" lon="19.88654145039618015289306640625">
        <ele>1742.800048828125</ele>
        <time>2026-06-16T08:59:27.000Z</time>
        <extensions>
          <ns3:TrackPointExtension>
            <ns3:atemp>17.0</ns3:atemp>
          </ns3:TrackPointExtension>
        </extensions>
      </trkpt>
      <trkpt lat="42.629342973232269287109375" lon="19.886560142040252685546875">
        <ele>1743</ele>
        <time>2026-06-16T08:59:28.000Z</time>
        <extensions>
          <ns3:TrackPointExtension>
            <ns3:atemp>17.0</ns3:atemp>
          </ns3:TrackPointExtension>
        </extensions>
      </trkpt>
      <trkpt lat="42.6293505169451236724853515625" lon="19.88657933659851551055908203125">
        <ele>1743.199951171875</ele>
        <time>2026-06-16T08:59:29.000Z</time>
        <extensions>
          <ns3:TrackPointExtension>
            <ns3:atemp>17.0</ns3:atemp>
          </ns3:TrackPointExtension>
        </extensions>
      </trkpt>
      <trkpt lat="42.62936174869537353515625" lon="19.88659375347197055816650390625">
        <ele>1743.5999755859375</ele>
        <time>2026-06-16T08:59:30.000Z</time>
        <extensions>
          <ns3:TrackPointExtension>
            <ns3:atemp>17.0</ns3:atemp>
          </ns3:TrackPointExtension>
        </extensions>
      </trkpt>
      <trkpt lat="42.6293733157217502593994140625" lon="19.88660615868866443634033203125">
        <ele>1743.800048828125</ele>
        <time>2026-06-16T08:59:31.000Z</time>
        <extensions>
          <ns3:TrackPointExtension>
            <ns3:atemp>17.0</ns3:atemp>
          </ns3:TrackPointExtension>
        </extensions>
      </trkpt>
      <trkpt lat="42.629382871091365814208984375" lon="19.88662912510335445404052734375">
        <ele>1744.199951171875</ele>
        <time>2026-06-16T08:59:32.000Z</time>
        <extensions>
          <ns3:TrackPointExtension>
            <ns3:atemp>17.0</ns3:atemp>
          </ns3:TrackPointExtension>
        </extensions>
      </trkpt>
      <trkpt lat="42.629394270479679107666015625" lon="19.8866461403667926788330078125">
        <ele>1744.4000244140625</ele>
        <time>2026-06-16T08:59:33.000Z</time>
        <extensions>
          <ns3:TrackPointExtension>
            <ns3:atemp>17.0</ns3:atemp>
          </ns3:TrackPointExtension>
        </extensions>
      </trkpt>
      <trkpt lat="42.62940089218318462371826171875" lon="19.88666617311537265777587890625">
        <ele>1744.800048828125</ele>
        <time>2026-06-16T08:59:34.000Z</time>
        <extensions>
          <ns3:TrackPointExtension>
            <ns3:atemp>17.0</ns3:atemp>
          </ns3:TrackPointExtension>
        </extensions>
      </trkpt>
      <trkpt lat="42.62940759770572185516357421875" lon="19.88668880425393581390380859375">
        <ele>1745</ele>
        <time>2026-06-16T08:59:35.000Z</time>
        <extensions>
          <ns3:TrackPointExtension>
            <ns3:atemp>17.0</ns3:atemp>
          </ns3:TrackPointExtension>
        </extensions>
      </trkpt>
      <trkpt lat="42.62941530905663967132568359375" lon="19.8867036402225494384765625">
        <ele>1745.199951171875</ele>
        <time>2026-06-16T08:59:36.000Z</time>
        <extensions>
          <ns3:TrackPointExtension>
            <ns3:atemp>17.0</ns3:atemp>
          </ns3:TrackPointExtension>
        </extensions>
      </trkpt>
      <trkpt lat="42.62942385859787464141845703125" lon="19.8867249302566051483154296875">
        <ele>1745.5999755859375</ele>
        <time>2026-06-16T08:59:37.000Z</time>
        <extensions>
          <ns3:TrackPointExtension>
            <ns3:atemp>17.0</ns3:atemp>
          </ns3:TrackPointExtension>
        </extensions>
      </trkpt>
      <trkpt lat="42.62943106703460216522216796875" lon="19.886735491454601287841796875">
        <ele>1745.800048828125</ele>
        <time>2026-06-16T08:59:38.000Z</time>
        <extensions>
          <ns3:TrackPointExtension>
            <ns3:atemp>17.0</ns3:atemp>
          </ns3:TrackPointExtension>
        </extensions>
      </trkpt>
      <trkpt lat="42.62943844310939311981201171875" lon="19.88675669766962528228759765625">
        <ele>1746.199951171875</ele>
        <time>2026-06-16T08:59:39.000Z</time>
        <extensions>
          <ns3:TrackPointExtension>
            <ns3:atemp>17.0</ns3:atemp>
          </ns3:TrackPointExtension>
        </extensions>
      </trkpt>
      <trkpt lat="42.62944481335580348968505859375" lon="19.88677983172237873077392578125">
        <ele>1746.4000244140625</ele>
        <time>2026-06-16T08:59:40.000Z</time>
        <extensions>
          <ns3:TrackPointExtension>
            <ns3:atemp>17.0</ns3:atemp>
          </ns3:TrackPointExtension>
        </extensions>
      </trkpt>
      <trkpt lat="42.6294544525444507598876953125" lon="19.88680623471736907958984375">
        <ele>1746.5999755859375</ele>
        <time>2026-06-16T08:59:41.000Z</time>
        <extensions>
          <ns3:TrackPointExtension>
            <ns3:atemp>17.0</ns3:atemp>
          </ns3:TrackPointExtension>
        </extensions>
      </trkpt>
      <trkpt lat="42.62946157716214656829833984375" lon="19.88683062605559825897216796875">
        <ele>1747</ele>
        <time>2026-06-16T08:59:42.000Z</time>
        <extensions>
          <ns3:TrackPointExtension>
            <ns3:atemp>17.0</ns3:atemp>
          </ns3:TrackPointExtension>
        </extensions>
      </trkpt>
      <trkpt lat="42.62946710921823978424072265625" lon="19.8868530057370662689208984375">
        <ele>1747.199951171875</ele>
        <time>2026-06-16T08:59:43.000Z</time>
        <extensions>
          <ns3:TrackPointExtension>
            <ns3:atemp>17.0</ns3:atemp>
          </ns3:TrackPointExtension>
        </extensions>
      </trkpt>
      <trkpt lat="42.6294742338359355926513671875" lon="19.886876977980136871337890625">
        <ele>1747.4000244140625</ele>
        <time>2026-06-16T08:59:44.000Z</time>
        <extensions>
          <ns3:TrackPointExtension>
            <ns3:atemp>17.0</ns3:atemp>
          </ns3:TrackPointExtension>
        </extensions>
      </trkpt>
      <trkpt lat="42.62948538176715373992919921875" lon="19.88689449615776538848876953125">
        <ele>1747.800048828125</ele>
        <time>2026-06-16T08:59:45.000Z</time>
        <extensions>
          <ns3:TrackPointExtension>
            <ns3:atemp>17.0</ns3:atemp>
          </ns3:TrackPointExtension>
        </extensions>
      </trkpt>
      <trkpt lat="42.62949761934578418731689453125" lon="19.88691343925893306732177734375">
        <ele>1748</ele>
        <time>2026-06-16T08:59:46.000Z</time>
        <extensions>
          <ns3:TrackPointExtension>
            <ns3:atemp>17.0</ns3:atemp>
          </ns3:TrackPointExtension>
        </extensions>
      </trkpt>
      <trkpt lat="42.6295077614486217498779296875" lon="19.8869324661791324615478515625">
        <ele>1748.4000244140625</ele>
        <time>2026-06-16T08:59:47.000Z</time>
        <extensions>
          <ns3:TrackPointExtension>
            <ns3:atemp>17.0</ns3:atemp>
          </ns3:TrackPointExtension>
        </extensions>
      </trkpt>
      <trkpt lat="42.62951723299920558929443359375" lon="19.886959455907344818115234375">
        <ele>1748.5999755859375</ele>
        <time>2026-06-16T08:59:48.000Z</time>
        <extensions>
          <ns3:TrackPointExtension>
            <ns3:atemp>17.0</ns3:atemp>
          </ns3:TrackPointExtension>
        </extensions>
      </trkpt>
      <trkpt lat="42.629519999027252197265625" lon="19.88698518835008144378662109375">
        <ele>1749</ele>
        <time>2026-06-16T08:59:49.000Z</time>
        <extensions>
          <ns3:TrackPointExtension>
            <ns3:atemp>17.0</ns3:atemp>
          </ns3:TrackPointExtension>
        </extensions>
      </trkpt>
      <trkpt lat="42.62952377088367938995361328125" lon="19.88701519556343555450439453125">
        <ele>1749.199951171875</ele>
        <time>2026-06-16T08:59:50.000Z</time>
        <extensions>
          <ns3:TrackPointExtension>
            <ns3:atemp>17.0</ns3:atemp>
          </ns3:TrackPointExtension>
        </extensions>
      </trkpt>
      <trkpt lat="42.62953382916748523712158203125" lon="19.88704092800617218017578125">
        <ele>1749.5999755859375</ele>
        <time>2026-06-16T08:59:51.000Z</time>
        <extensions>
          <ns3:TrackPointExtension>
            <ns3:atemp>17.0</ns3:atemp>
          </ns3:TrackPointExtension>
        </extensions>
      </trkpt>
      <trkpt lat="42.62954212725162506103515625" lon="19.887068085372447967529296875">
        <ele>1749.800048828125</ele>
        <time>2026-06-16T08:59:52.000Z</time>
        <extensions>
          <ns3:TrackPointExtension>
            <ns3:atemp>17.0</ns3:atemp>
          </ns3:TrackPointExtension>
        </extensions>
      </trkpt>
      <trkpt lat="42.6295486651360988616943359375" lon="19.8870933987200260162353515625">
        <ele>1750</ele>
        <time>2026-06-16T08:59:53.000Z</time>
        <extensions>
          <ns3:TrackPointExtension>
            <ns3:atemp>17.0</ns3:atemp>
          </ns3:TrackPointExtension>
        </extensions>
      </trkpt>
      <trkpt lat="42.6295520178973674774169921875" lon="19.8871202208101749420166015625">
        <ele>1750.199951171875</ele>
        <time>2026-06-16T08:59:54.000Z</time>
        <extensions>
          <ns3:TrackPointExtension>
            <ns3:atemp>17.0</ns3:atemp>
          </ns3:TrackPointExtension>
        </extensions>
      </trkpt>
      <trkpt lat="42.629555873572826385498046875" lon="19.88714360632002353668212890625">
        <ele>1750.5999755859375</ele>
        <time>2026-06-16T08:59:55.000Z</time>
        <extensions>
          <ns3:TrackPointExtension>
            <ns3:atemp>17.0</ns3:atemp>
          </ns3:TrackPointExtension>
        </extensions>
      </trkpt>
      <trkpt lat="42.62955914251506328582763671875" lon="19.88716967403888702392578125">
        <ele>1750.800048828125</ele>
        <time>2026-06-16T08:59:56.000Z</time>
        <extensions>
          <ns3:TrackPointExtension>
            <ns3:atemp>17.0</ns3:atemp>
          </ns3:TrackPointExtension>
        </extensions>
      </trkpt>
      <trkpt lat="42.629561908543109893798828125" lon="19.88719088025391101837158203125">
        <ele>1751.199951171875</ele>
        <time>2026-06-16T08:59:57.000Z</time>
        <extensions>
          <ns3:TrackPointExtension>
            <ns3:atemp>17.0</ns3:atemp>
          </ns3:TrackPointExtension>
        </extensions>
      </trkpt>
      <trkpt lat="42.6295681111514568328857421875" lon="19.8872151039540767669677734375">
        <ele>1751.4000244140625</ele>
        <time>2026-06-16T08:59:58.000Z</time>
        <extensions>
          <ns3:TrackPointExtension>
            <ns3:atemp>17.0</ns3:atemp>
          </ns3:TrackPointExtension>
        </extensions>
      </trkpt>
      <trkpt lat="42.62957070954144001007080078125" lon="19.88723815418779850006103515625">
        <ele>1751.800048828125</ele>
        <time>2026-06-16T08:59:59.000Z</time>
        <extensions>
          <ns3:TrackPointExtension>
            <ns3:atemp>17.0</ns3:atemp>
          </ns3:TrackPointExtension>
        </extensions>
      </trkpt>
      <trkpt lat="42.6295728050172328948974609375" lon="19.887262545526027679443359375">
        <ele>1752</ele>
        <time>2026-06-16T09:00:00.000Z</time>
        <extensions>
          <ns3:TrackPointExtension>
            <ns3:atemp>17.0</ns3:atemp>
          </ns3:TrackPointExtension>
        </extensions>
      </trkpt>
      <trkpt lat="42.62957875616848468780517578125" lon="19.88728702068328857421875">
        <ele>1752.199951171875</ele>
        <time>2026-06-16T09:00:01.000Z</time>
        <extensions>
          <ns3:TrackPointExtension>
            <ns3:atemp>17.0</ns3:atemp>
          </ns3:TrackPointExtension>
        </extensions>
      </trkpt>
      <trkpt lat="42.629581354558467864990234375" lon="19.88730956800282001495361328125">
        <ele>1752.5999755859375</ele>
        <time>2026-06-16T09:00:02.000Z</time>
        <extensions>
          <ns3:TrackPointExtension>
            <ns3:atemp>17.0</ns3:atemp>
          </ns3:TrackPointExtension>
        </extensions>
      </trkpt>
      <trkpt lat="42.6295830309391021728515625" lon="19.8873327858746051788330078125">
        <ele>1752.800048828125</ele>
        <time>2026-06-16T09:00:03.000Z</time>
        <extensions>
          <ns3:TrackPointExtension>
            <ns3:atemp>17.0</ns3:atemp>
          </ns3:TrackPointExtension>
        </extensions>
      </trkpt>
      <trkpt lat="42.62958629988133907318115234375" lon="19.88735449500381946563720703125">
        <ele>1753.199951171875</ele>
        <time>2026-06-16T09:00:04.000Z</time>
        <extensions>
          <ns3:TrackPointExtension>
            <ns3:atemp>17.0</ns3:atemp>
          </ns3:TrackPointExtension>
        </extensions>
      </trkpt>
      <trkpt lat="42.6295892335474491119384765625" lon="19.88737964071333408355712890625">
        <ele>1753.4000244140625</ele>
        <time>2026-06-16T09:00:05.000Z</time>
        <extensions>
          <ns3:TrackPointExtension>
            <ns3:atemp>17.0</ns3:atemp>
          </ns3:TrackPointExtension>
        </extensions>
      </trkpt>
      <trkpt lat="42.629595436155796051025390625" lon="19.88739900290966033935546875">
        <ele>1753.800048828125</ele>
        <time>2026-06-16T09:00:06.000Z</time>
        <extensions>
          <ns3:TrackPointExtension>
            <ns3:atemp>17.0</ns3:atemp>
          </ns3:TrackPointExtension>
        </extensions>
      </trkpt>
      <trkpt lat="42.6295992918312549591064453125" lon="19.8874149285256862640380859375">
        <ele>1754</ele>
        <time>2026-06-16T09:00:07.000Z</time>
        <extensions>
          <ns3:TrackPointExtension>
            <ns3:atemp>17.0</ns3:atemp>
          </ns3:TrackPointExtension>
        </extensions>
      </trkpt>
      <trkpt lat="42.62960054911673069000244140625" lon="19.88743395544588565826416015625">
        <ele>1754.4000244140625</ele>
        <time>2026-06-16T09:00:08.000Z</time>
        <extensions>
          <ns3:TrackPointExtension>
            <ns3:atemp>17.0</ns3:atemp>
          </ns3:TrackPointExtension>
        </extensions>
      </trkpt>
      <trkpt lat="42.62960105203092098236083984375" lon="19.88745658658444881439208984375">
        <ele>1754.5999755859375</ele>
        <time>2026-06-16T09:00:09.000Z</time>
        <extensions>
          <ns3:TrackPointExtension>
            <ns3:atemp>17.0</ns3:atemp>
          </ns3:TrackPointExtension>
        </extensions>
      </trkpt>
      <trkpt lat="42.62960121966898441314697265625" lon="19.8874813131988048553466796875">
        <ele>1754.800048828125</ele>
        <time>2026-06-16T09:00:10.000Z</time>
        <extensions>
          <ns3:TrackPointExtension>
            <ns3:atemp>17.0</ns3:atemp>
          </ns3:TrackPointExtension>
        </extensions>
      </trkpt>
      <trkpt lat="42.6295986212790012359619140625" lon="19.8875071294605731964111328125">
        <ele>1755.199951171875</ele>
        <time>2026-06-16T09:00:11.000Z</time>
        <extensions>
          <ns3:TrackPointExtension>
            <ns3:atemp>17.0</ns3:atemp>
          </ns3:TrackPointExtension>
        </extensions>
      </trkpt>
      <trkpt lat="42.62959954328835010528564453125" lon="19.8875352926552295684814453125">
        <ele>1755.4000244140625</ele>
        <time>2026-06-16T09:00:12.000Z</time>
        <extensions>
          <ns3:TrackPointExtension>
            <ns3:atemp>17.0</ns3:atemp>
          </ns3:TrackPointExtension>
        </extensions>
      </trkpt>
      <trkpt lat="42.62959853745996952056884765625" lon="19.887554235756397247314453125">
        <ele>1755.800048828125</ele>
        <time>2026-06-16T09:00:13.000Z</time>
        <extensions>
          <ns3:TrackPointExtension>
            <ns3:atemp>17.0</ns3:atemp>
          </ns3:TrackPointExtension>
        </extensions>
      </trkpt>
      <trkpt lat="42.6295952685177326202392578125" lon="19.8875761963427066802978515625">
        <ele>1756.199951171875</ele>
        <time>2026-06-16T09:00:14.000Z</time>
        <extensions>
          <ns3:TrackPointExtension>
            <ns3:atemp>17.0</ns3:atemp>
          </ns3:TrackPointExtension>
        </extensions>
      </trkpt>
      <trkpt lat="42.62959367595613002777099609375" lon="19.88760142587125301361083984375">
        <ele>1756.4000244140625</ele>
        <time>2026-06-16T09:00:15.000Z</time>
        <extensions>
          <ns3:TrackPointExtension>
            <ns3:atemp>17.0</ns3:atemp>
          </ns3:TrackPointExtension>
        </extensions>
      </trkpt>
      <trkpt lat="42.629596777260303497314453125" lon="19.88762305118143558502197265625">
        <ele>1756.800048828125</ele>
        <time>2026-06-16T09:00:16.000Z</time>
        <extensions>
          <ns3:TrackPointExtension>
            <ns3:atemp>17.0</ns3:atemp>
          </ns3:TrackPointExtension>
        </extensions>
      </trkpt>
      <trkpt lat="42.62959551997482776641845703125" lon="19.887654148042201995849609375">
        <ele>1757</ele>
        <time>2026-06-16T09:00:17.000Z</time>
        <extensions>
          <ns3:TrackPointExtension>
            <ns3:atemp>17.0</ns3:atemp>
          </ns3:TrackPointExtension>
        </extensions>
      </trkpt>
      <trkpt lat="42.62959401123225688934326171875" lon="19.88767887465655803680419921875">
        <ele>1757.4000244140625</ele>
        <time>2026-06-16T09:00:18.000Z</time>
        <extensions>
          <ns3:TrackPointExtension>
            <ns3:atemp>17.0</ns3:atemp>
          </ns3:TrackPointExtension>
        </extensions>
      </trkpt>
      <trkpt lat="42.62959216721355915069580078125" lon="19.88770234398543834686279296875">
        <ele>1757.800048828125</ele>
        <time>2026-06-16T09:00:19.000Z</time>
        <extensions>
          <ns3:TrackPointExtension>
            <ns3:atemp>17.0</ns3:atemp>
          </ns3:TrackPointExtension>
        </extensions>
      </trkpt>
      <trkpt lat="42.6295910775661468505859375" lon="19.88772690296173095703125">
        <ele>1758</ele>
        <time>2026-06-16T09:00:20.000Z</time>
        <extensions>
          <ns3:TrackPointExtension>
            <ns3:atemp>17.0</ns3:atemp>
          </ns3:TrackPointExtension>
        </extensions>
      </trkpt>
      <trkpt lat="42.6295922510325908660888671875" lon="19.8877512104809284210205078125">
        <ele>1758.4000244140625</ele>
        <time>2026-06-16T09:00:21.000Z</time>
        <extensions>
          <ns3:TrackPointExtension>
            <ns3:atemp>17.0</ns3:atemp>
          </ns3:TrackPointExtension>
        </extensions>
      </trkpt>
      <trkpt lat="42.6295929215848445892333984375" lon="19.88777761347591876983642578125">
        <ele>1758.800048828125</ele>
        <time>2026-06-16T09:00:22.000Z</time>
        <extensions>
          <ns3:TrackPointExtension>
            <ns3:atemp>17.0</ns3:atemp>
          </ns3:TrackPointExtension>
        </extensions>
      </trkpt>
      <trkpt lat="42.62959518469870090484619140625" lon="19.88780259154736995697021484375">
        <ele>1759</ele>
        <time>2026-06-16T09:00:23.000Z</time>
        <extensions>
          <ns3:TrackPointExtension>
            <ns3:atemp>17.0</ns3:atemp>
          </ns3:TrackPointExtension>
        </extensions>
      </trkpt>
      <trkpt lat="42.62959602288901805877685546875" lon="19.88782404921948909759521484375">
        <ele>1759.4000244140625</ele>
        <time>2026-06-16T09:00:24.000Z</time>
        <extensions>
          <ns3:TrackPointExtension>
            <ns3:atemp>17.0</ns3:atemp>
          </ns3:TrackPointExtension>
        </extensions>
      </trkpt>
      <trkpt lat="42.6295922510325908660888671875" lon="19.8878489434719085693359375">
        <ele>1759.800048828125</ele>
        <time>2026-06-16T09:00:25.000Z</time>
        <extensions>
          <ns3:TrackPointExtension>
            <ns3:atemp>17.0</ns3:atemp>
          </ns3:TrackPointExtension>
        </extensions>
      </trkpt>
      <trkpt lat="42.62958780862390995025634765625" lon="19.88787115551531314849853515625">
        <ele>1760.199951171875</ele>
        <time>2026-06-16T09:00:26.000Z</time>
        <extensions>
          <ns3:TrackPointExtension>
            <ns3:atemp>17.0</ns3:atemp>
          </ns3:TrackPointExtension>
        </extensions>
      </trkpt>
      <trkpt lat="42.629592083394527435302734375" lon="19.8878926970064640045166015625">
        <ele>1760.4000244140625</ele>
        <time>2026-06-16T09:00:27.000Z</time>
        <extensions>
          <ns3:TrackPointExtension>
            <ns3:atemp>17.0</ns3:atemp>
          </ns3:TrackPointExtension>
        </extensions>
      </trkpt>
      <trkpt lat="42.6295964419841766357421875" lon="19.8879168368875980377197265625">
        <ele>1760.800048828125</ele>
        <time>2026-06-16T09:00:28.000Z</time>
        <extensions>
          <ns3:TrackPointExtension>
            <ns3:atemp>17.0</ns3:atemp>
          </ns3:TrackPointExtension>
        </extensions>
      </trkpt>
      <trkpt lat="42.6296029798686504364013671875" lon="19.88794089294970035552978515625">
        <ele>1761</ele>
        <time>2026-06-16T09:00:29.000Z</time>
        <extensions>
          <ns3:TrackPointExtension>
            <ns3:atemp>17.0</ns3:atemp>
          </ns3:TrackPointExtension>
        </extensions>
      </trkpt>
      <trkpt lat="42.62960758991539478302001953125" lon="19.88796000368893146514892578125">
        <ele>1761.4000244140625</ele>
        <time>2026-06-16T09:00:30.000Z</time>
        <extensions>
          <ns3:TrackPointExtension>
            <ns3:atemp>17.0</ns3:atemp>
          </ns3:TrackPointExtension>
        </extensions>
      </trkpt>
      <trkpt lat="42.62961530126631259918212890625" lon="19.88797659985721111297607421875">
        <ele>1761.800048828125</ele>
        <time>2026-06-16T09:00:31.000Z</time>
        <extensions>
          <ns3:TrackPointExtension>
            <ns3:atemp>17.0</ns3:atemp>
          </ns3:TrackPointExtension>
        </extensions>
      </trkpt>
      <trkpt lat="42.62961965985596179962158203125" lon="19.8879937827587127685546875">
        <ele>1762</ele>
        <time>2026-06-16T09:00:32.000Z</time>
        <extensions>
          <ns3:TrackPointExtension>
            <ns3:atemp>17.0</ns3:atemp>
          </ns3:TrackPointExtension>
        </extensions>
      </trkpt>
      <trkpt lat="42.62962267734110355377197265625" lon="19.88801951520144939422607421875">
        <ele>1762.4000244140625</ele>
        <time>2026-06-16T09:00:33.000Z</time>
        <extensions>
          <ns3:TrackPointExtension>
            <ns3:atemp>17.0</ns3:atemp>
          </ns3:TrackPointExtension>
        </extensions>
      </trkpt>
      <trkpt lat="42.629624940454959869384765625" lon="19.88804801367223262786865234375">
        <ele>1762.5999755859375</ele>
        <time>2026-06-16T09:00:34.000Z</time>
        <extensions>
          <ns3:TrackPointExtension>
            <ns3:atemp>17.0</ns3:atemp>
          </ns3:TrackPointExtension>
        </extensions>
      </trkpt>
      <trkpt lat="42.6296298019587993621826171875" lon="19.88807491958141326904296875">
        <ele>1763</ele>
        <time>2026-06-16T09:00:35.000Z</time>
        <extensions>
          <ns3:TrackPointExtension>
            <ns3:atemp>17.0</ns3:atemp>
          </ns3:TrackPointExtension>
        </extensions>
      </trkpt>
      <trkpt lat="42.6296375133097171783447265625" lon="19.8881009034812450408935546875">
        <ele>1763.199951171875</ele>
        <time>2026-06-16T09:00:36.000Z</time>
        <extensions>
          <ns3:TrackPointExtension>
            <ns3:atemp>17.0</ns3:atemp>
          </ns3:TrackPointExtension>
        </extensions>
      </trkpt>
      <trkpt lat="42.62964329682290554046630859375" lon="19.88812596537172794342041015625">
        <ele>1763.5999755859375</ele>
        <time>2026-06-16T09:00:37.000Z</time>
        <extensions>
          <ns3:TrackPointExtension>
            <ns3:atemp>17.0</ns3:atemp>
          </ns3:TrackPointExtension>
        </extensions>
      </trkpt>
      <trkpt lat="42.62965436093509197235107421875" lon="19.88814909942448139190673828125">
        <ele>1764</ele>
        <time>2026-06-16T09:00:38.000Z</time>
        <extensions>
          <ns3:TrackPointExtension>
            <ns3:atemp>17.0</ns3:atemp>
          </ns3:TrackPointExtension>
        </extensions>
      </trkpt>
      <trkpt lat="42.62966550886631011962890625" lon="19.888171143829822540283203125">
        <ele>1764.199951171875</ele>
        <time>2026-06-16T09:00:39.000Z</time>
        <extensions>
          <ns3:TrackPointExtension>
            <ns3:atemp>17.0</ns3:atemp>
          </ns3:TrackPointExtension>
        </extensions>
      </trkpt>
      <trkpt lat="42.6296740584075450897216796875" lon="19.8881949484348297119140625">
        <ele>1764.4000244140625</ele>
        <time>2026-06-16T09:00:40.000Z</time>
        <extensions>
          <ns3:TrackPointExtension>
            <ns3:atemp>17.0</ns3:atemp>
          </ns3:TrackPointExtension>
        </extensions>
      </trkpt>
      <trkpt lat="42.6296864636242389678955078125" lon="19.8882164061069488525390625">
        <ele>1764.800048828125</ele>
        <time>2026-06-16T09:00:41.000Z</time>
        <extensions>
          <ns3:TrackPointExtension>
            <ns3:atemp>17.0</ns3:atemp>
          </ns3:TrackPointExtension>
        </extensions>
      </trkpt>
      <trkpt lat="42.62969677336513996124267578125" lon="19.8882378637790679931640625">
        <ele>1765</ele>
        <time>2026-06-16T09:00:42.000Z</time>
        <extensions>
          <ns3:TrackPointExtension>
            <ns3:atemp>17.0</ns3:atemp>
          </ns3:TrackPointExtension>
        </extensions>
      </trkpt>
      <trkpt lat="42.62970305979251861572265625" lon="19.88826334476470947265625">
        <ele>1765.4000244140625</ele>
        <time>2026-06-16T09:00:43.000Z</time>
        <extensions>
          <ns3:TrackPointExtension>
            <ns3:atemp>17.0</ns3:atemp>
          </ns3:TrackPointExtension>
        </extensions>
      </trkpt>
      <trkpt lat="42.62970364652574062347412109375" lon="19.88829041831195354461669921875">
        <ele>1765.5999755859375</ele>
        <time>2026-06-16T09:00:44.000Z</time>
        <extensions>
          <ns3:TrackPointExtension>
            <ns3:atemp>17.0</ns3:atemp>
          </ns3:TrackPointExtension>
        </extensions>
      </trkpt>
      <trkpt lat="42.62969811446964740753173828125" lon="19.88832034170627593994140625">
        <ele>1766</ele>
        <time>2026-06-16T09:00:45.000Z</time>
        <extensions>
          <ns3:TrackPointExtension>
            <ns3:atemp>17.0</ns3:atemp>
          </ns3:TrackPointExtension>
        </extensions>
      </trkpt>
      <trkpt lat="42.629689984023571014404296875" lon="19.88834573887288570404052734375">
        <ele>1766.199951171875</ele>
        <time>2026-06-16T09:00:46.000Z</time>
        <extensions>
          <ns3:TrackPointExtension>
            <ns3:atemp>17.0</ns3:atemp>
          </ns3:TrackPointExtension>
        </extensions>
      </trkpt>
      <trkpt lat="42.629680596292018890380859375" lon="19.88836753182113170623779296875">
        <ele>1766.4000244140625</ele>
        <time>2026-06-16T09:00:47.000Z</time>
        <extensions>
          <ns3:TrackPointExtension>
            <ns3:atemp>17.0</ns3:atemp>
          </ns3:TrackPointExtension>
        </extensions>
      </trkpt>
      <trkpt lat="42.6296686939895153045654296875" lon="19.88837557844817638397216796875">
        <ele>1766.800048828125</ele>
        <time>2026-06-16T09:00:48.000Z</time>
        <extensions>
          <ns3:TrackPointExtension>
            <ns3:atemp>17.0</ns3:atemp>
          </ns3:TrackPointExtension>
        </extensions>
      </trkpt>
      <trkpt lat="42.629657126963138580322265625" lon="19.88837121985852718353271484375">
        <ele>1767</ele>
        <time>2026-06-16T09:00:49.000Z</time>
        <extensions>
          <ns3:TrackPointExtension>
            <ns3:atemp>17.0</ns3:atemp>
          </ns3:TrackPointExtension>
        </extensions>
      </trkpt>
      <trkpt lat="42.62964195571839809417724609375" lon="19.8883639276027679443359375">
        <ele>1767.4000244140625</ele>
        <time>2026-06-16T09:00:50.000Z</time>
        <extensions>
          <ns3:TrackPointExtension>
            <ns3:atemp>16.0</ns3:atemp>
          </ns3:TrackPointExtension>
        </extensions>
      </trkpt>
      <trkpt lat="42.62962770648300647735595703125" lon="19.8883557133376598358154296875">
        <ele>1767.5999755859375</ele>
        <time>2026-06-16T09:00:51.000Z</time>
        <extensions>
          <ns3:TrackPointExtension>
            <ns3:atemp>16.0</ns3:atemp>
          </ns3:TrackPointExtension>
        </extensions>
      </trkpt>
      <trkpt lat="42.629610858857631683349609375" lon="19.888341128826141357421875">
        <ele>1768</ele>
        <time>2026-06-16T09:00:52.000Z</time>
        <extensions>
          <ns3:TrackPointExtension>
            <ns3:atemp>16.0</ns3:atemp>
          </ns3:TrackPointExtension>
        </extensions>
      </trkpt>
      <trkpt lat="42.62959803454577922821044921875" lon="19.8883210122585296630859375">
        <ele>1768.199951171875</ele>
        <time>2026-06-16T09:00:53.000Z</time>
        <extensions>
          <ns3:TrackPointExtension>
            <ns3:atemp>17.0</ns3:atemp>
          </ns3:TrackPointExtension>
        </extensions>
      </trkpt>
      <trkpt lat="42.62958177365362644195556640625" lon="19.8883076012134552001953125">
        <ele>1768.4000244140625</ele>
        <time>2026-06-16T09:00:54.000Z</time>
        <extensions>
          <ns3:TrackPointExtension>
            <ns3:atemp>17.0</ns3:atemp>
          </ns3:TrackPointExtension>
        </extensions>
      </trkpt>
      <trkpt lat="42.6295634172856807708740234375" lon="19.88829796202480792999267578125">
        <ele>1768.5999755859375</ele>
        <time>2026-06-16T09:00:55.000Z</time>
        <extensions>
          <ns3:TrackPointExtension>
            <ns3:atemp>17.0</ns3:atemp>
          </ns3:TrackPointExtension>
        </extensions>
      </trkpt>
      <trkpt lat="42.62954413890838623046875" lon="19.8882869817316532135009765625">
        <ele>1769</ele>
        <time>2026-06-16T09:00:56.000Z</time>
        <extensions>
          <ns3:TrackPointExtension>
            <ns3:atemp>17.0</ns3:atemp>
          </ns3:TrackPointExtension>
        </extensions>
      </trkpt>
      <trkpt lat="42.6295238547027111053466796875" lon="19.8882745765149593353271484375">
        <ele>1769.199951171875</ele>
        <time>2026-06-16T09:00:57.000Z</time>
        <extensions>
          <ns3:TrackPointExtension>
            <ns3:atemp>17.0</ns3:atemp>
          </ns3:TrackPointExtension>
        </extensions>
      </trkpt>
      <trkpt lat="42.62950248084962368011474609375" lon="19.88826326094567775726318359375">
        <ele>1769.5999755859375</ele>
        <time>2026-06-16T09:00:58.000Z</time>
        <extensions>
          <ns3:TrackPointExtension>
            <ns3:atemp>17.0</ns3:atemp>
          </ns3:TrackPointExtension>
        </extensions>
      </trkpt>
      <trkpt lat="42.62948311865329742431640625" lon="19.8882584832608699798583984375">
        <ele>1769.800048828125</ele>
        <time>2026-06-16T09:00:59.000Z</time>
        <extensions>
          <ns3:TrackPointExtension>
            <ns3:atemp>17.0</ns3:atemp>
          </ns3:TrackPointExtension>
        </extensions>
      </trkpt>
      <trkpt lat="42.62946392409503459930419921875" lon="19.88824716769158840179443359375">
        <ele>1770</ele>
        <time>2026-06-16T09:01:00.000Z</time>
        <extensions>
          <ns3:TrackPointExtension>
            <ns3:atemp>17.0</ns3:atemp>
          </ns3:TrackPointExtension>
        </extensions>
      </trkpt>
      <trkpt lat="42.62944464571774005889892578125" lon="19.8882405459880828857421875">
        <ele>1770.199951171875</ele>
        <time>2026-06-16T09:01:01.000Z</time>
        <extensions>
          <ns3:TrackPointExtension>
            <ns3:atemp>17.0</ns3:atemp>
          </ns3:TrackPointExtension>
        </extensions>
      </trkpt>
      <trkpt lat="42.629427127540111541748046875" lon="19.8882262967526912689208984375">
        <ele>1770.5999755859375</ele>
        <time>2026-06-16T09:01:02.000Z</time>
        <extensions>
          <ns3:TrackPointExtension>
            <ns3:atemp>16.0</ns3:atemp>
          </ns3:TrackPointExtension>
        </extensions>
      </trkpt>
      <trkpt lat="42.629407010972499847412109375" lon="19.8882138915359973907470703125">
        <ele>1770.800048828125</ele>
        <time>2026-06-16T09:01:03.000Z</time>
        <extensions>
          <ns3:TrackPointExtension>
            <ns3:atemp>16.0</ns3:atemp>
          </ns3:TrackPointExtension>
        </extensions>
      </trkpt>
      <trkpt lat="42.6293899118900299072265625" lon="19.8882018215954303741455078125">
        <ele>1771</ele>
        <time>2026-06-16T09:01:04.000Z</time>
        <extensions>
          <ns3:TrackPointExtension>
            <ns3:atemp>16.0</ns3:atemp>
          </ns3:TrackPointExtension>
        </extensions>
      </trkpt>
      <trkpt lat="42.62937004677951335906982421875" lon="19.888191260397434234619140625">
        <ele>1771.199951171875</ele>
        <time>2026-06-16T09:01:05.000Z</time>
        <extensions>
          <ns3:TrackPointExtension>
            <ns3:atemp>16.0</ns3:atemp>
          </ns3:TrackPointExtension>
        </extensions>
      </trkpt>
      <trkpt lat="42.62935009784996509552001953125" lon="19.888179190456867218017578125">
        <ele>1771.4000244140625</ele>
        <time>2026-06-16T09:01:06.000Z</time>
        <extensions>
          <ns3:TrackPointExtension>
            <ns3:atemp>16.0</ns3:atemp>
          </ns3:TrackPointExtension>
        </extensions>
      </trkpt>
      <trkpt lat="42.6293287239968776702880859375" lon="19.8881679587066173553466796875">
        <ele>1771.5999755859375</ele>
        <time>2026-06-16T09:01:07.000Z</time>
        <extensions>
          <ns3:TrackPointExtension>
            <ns3:atemp>16.0</ns3:atemp>
          </ns3:TrackPointExtension>
        </extensions>
      </trkpt>
      <trkpt lat="42.62930634431540966033935546875" lon="19.88815538585186004638671875">
        <ele>1771.800048828125</ele>
        <time>2026-06-16T09:01:08.000Z</time>
        <extensions>
          <ns3:TrackPointExtension>
            <ns3:atemp>16.0</ns3:atemp>
          </ns3:TrackPointExtension>
        </extensions>
      </trkpt>
      <trkpt lat="42.62928740121424198150634765625" lon="19.88814189098775386810302734375">
        <ele>1772</ele>
        <time>2026-06-16T09:01:09.000Z</time>
        <extensions>
          <ns3:TrackPointExtension>
            <ns3:atemp>16.0</ns3:atemp>
          </ns3:TrackPointExtension>
        </extensions>
      </trkpt>
      <trkpt lat="42.62926451861858367919921875" lon="19.88813082687556743621826171875">
        <ele>1772.199951171875</ele>
        <time>2026-06-16T09:01:10.000Z</time>
        <extensions>
          <ns3:TrackPointExtension>
            <ns3:atemp>16.0</ns3:atemp>
          </ns3:TrackPointExtension>
        </extensions>
      </trkpt>
      <trkpt lat="42.62924146838486194610595703125" lon="19.888119511306285858154296875">
        <ele>1772.4000244140625</ele>
        <time>2026-06-16T09:01:11.000Z</time>
        <extensions>
          <ns3:TrackPointExtension>
            <ns3:atemp>16.0</ns3:atemp>
          </ns3:TrackPointExtension>
        </extensions>
      </trkpt>
      <trkpt lat="42.6292194239795207977294921875" lon="19.88811138086020946502685546875">
        <ele>1772.5999755859375</ele>
        <time>2026-06-16T09:01:12.000Z</time>
        <extensions>
          <ns3:TrackPointExtension>
            <ns3:atemp>16.0</ns3:atemp>
          </ns3:TrackPointExtension>
        </extensions>
      </trkpt>
      <trkpt lat="42.62919587083160877227783203125" lon="19.88810576498508453369140625">
        <ele>1772.5999755859375</ele>
        <time>2026-06-16T09:01:13.000Z</time>
        <extensions>
          <ns3:TrackPointExtension>
            <ns3:atemp>16.0</ns3:atemp>
          </ns3:TrackPointExtension>
        </extensions>
      </trkpt>
      <trkpt lat="42.62917458079755306243896484375" lon="19.8880978859961032867431640625">
        <ele>1772.800048828125</ele>
        <time>2026-06-16T09:01:14.000Z</time>
        <extensions>
          <ns3:TrackPointExtension>
            <ns3:atemp>16.0</ns3:atemp>
          </ns3:TrackPointExtension>
        </extensions>
      </trkpt>
      <trkpt lat="42.62915320694446563720703125" lon="19.888091348111629486083984375">
        <ele>1773</ele>
        <time>2026-06-16T09:01:15.000Z</time>
        <extensions>
          <ns3:TrackPointExtension>
            <ns3:atemp>16.0</ns3:atemp>
          </ns3:TrackPointExtension>
        </extensions>
      </trkpt>
      <trkpt lat="42.62913183309137821197509765625" lon="19.8880854807794094085693359375">
        <ele>1773</ele>
        <time>2026-06-16T09:01:16.000Z</time>
        <extensions>
          <ns3:TrackPointExtension>
            <ns3:atemp>16.0</ns3:atemp>
          </ns3:TrackPointExtension>
        </extensions>
      </trkpt>
      <trkpt lat="42.62911054305732250213623046875" lon="19.8880807869136333465576171875">
        <ele>1773.199951171875</ele>
        <time>2026-06-16T09:01:17.000Z</time>
        <extensions>
          <ns3:TrackPointExtension>
            <ns3:atemp>16.0</ns3:atemp>
          </ns3:TrackPointExtension>
        </extensions>
      </trkpt>
      <trkpt lat="42.62908791191875934600830078125" lon="19.88807751797139644622802734375">
        <ele>1773.4000244140625</ele>
        <time>2026-06-16T09:01:18.000Z</time>
        <extensions>
          <ns3:TrackPointExtension>
            <ns3:atemp>17.0</ns3:atemp>
          </ns3:TrackPointExtension>
        </extensions>
      </trkpt>
      <trkpt lat="42.62906695716083049774169921875" lon="19.88807584159076213836669921875">
        <ele>1773.4000244140625</ele>
        <time>2026-06-16T09:01:19.000Z</time>
        <extensions>
          <ns3:TrackPointExtension>
            <ns3:atemp>17.0</ns3:atemp>
          </ns3:TrackPointExtension>
        </extensions>
      </trkpt>
      <trkpt lat="42.62904449366033077239990234375" lon="19.88807399757206439971923828125">
        <ele>1773.5999755859375</ele>
        <time>2026-06-16T09:01:20.000Z</time>
        <extensions>
          <ns3:TrackPointExtension>
            <ns3:atemp>17.0</ns3:atemp>
          </ns3:TrackPointExtension>
        </extensions>
      </trkpt>
      <trkpt lat="42.629023455083370208740234375" lon="19.8880717344582080841064453125">
        <ele>1773.5999755859375</ele>
        <time>2026-06-16T09:01:21.000Z</time>
        <extensions>
          <ns3:TrackPointExtension>
            <ns3:atemp>17.0</ns3:atemp>
          </ns3:TrackPointExtension>
        </extensions>
      </trkpt>
      <trkpt lat="42.6290045119822025299072265625" lon="19.88806930370628833770751953125">
        <ele>1773.800048828125</ele>
        <time>2026-06-16T09:01:22.000Z</time>
        <extensions>
          <ns3:TrackPointExtension>
            <ns3:atemp>16.0</ns3:atemp>
          </ns3:TrackPointExtension>
        </extensions>
      </trkpt>
      <trkpt lat="42.62898632325232028961181640625" lon="19.8880650289356708526611328125">
        <ele>1774</ele>
        <time>2026-06-16T09:01:23.000Z</time>
        <extensions>
          <ns3:TrackPointExtension>
            <ns3:atemp>16.0</ns3:atemp>
          </ns3:TrackPointExtension>
        </extensions>
      </trkpt>
      <trkpt lat="42.628969810903072357177734375" lon="19.88806494511663913726806640625">
        <ele>1774</ele>
        <time>2026-06-16T09:01:24.000Z</time>
        <extensions>
          <ns3:TrackPointExtension>
            <ns3:atemp>16.0</ns3:atemp>
          </ns3:TrackPointExtension>
        </extensions>
      </trkpt>
      <trkpt lat="42.62895044870674610137939453125" lon="19.888062179088592529296875">
        <ele>1774.199951171875</ele>
        <time>2026-06-16T09:01:25.000Z</time>
        <extensions>
          <ns3:TrackPointExtension>
            <ns3:atemp>17.0</ns3:atemp>
          </ns3:TrackPointExtension>
        </extensions>
      </trkpt>
      <trkpt lat="42.62893049977719783782958984375" lon="19.8880556412041187286376953125">
        <ele>1774.4000244140625</ele>
        <time>2026-06-16T09:01:26.000Z</time>
        <extensions>
          <ns3:TrackPointExtension>
            <ns3:atemp>17.0</ns3:atemp>
          </ns3:TrackPointExtension>
        </extensions>
      </trkpt>
      <trkpt lat="42.6289079524576663970947265625" lon="19.88805036060512065887451171875">
        <ele>1774.5999755859375</ele>
        <time>2026-06-16T09:01:27.000Z</time>
        <extensions>
          <ns3:TrackPointExtension>
            <ns3:atemp>17.0</ns3:atemp>
          </ns3:TrackPointExtension>
        </extensions>
      </trkpt>
      <trkpt lat="42.62889076955616474151611328125" lon="19.88804566673934459686279296875">
        <ele>1774.5999755859375</ele>
        <time>2026-06-16T09:01:28.000Z</time>
        <extensions>
          <ns3:TrackPointExtension>
            <ns3:atemp>17.0</ns3:atemp>
          </ns3:TrackPointExtension>
        </extensions>
      </trkpt>
      <trkpt lat="42.62887165881693363189697265625" lon="19.8880365304648876190185546875">
        <ele>1774.800048828125</ele>
        <time>2026-06-16T09:01:29.000Z</time>
        <extensions>
          <ns3:TrackPointExtension>
            <ns3:atemp>17.0</ns3:atemp>
          </ns3:TrackPointExtension>
        </extensions>
      </trkpt>
      <trkpt lat="42.62885355390608310699462890625" lon="19.888031668961048126220703125">
        <ele>1775</ele>
        <time>2026-06-16T09:01:30.000Z</time>
        <extensions>
          <ns3:TrackPointExtension>
            <ns3:atemp>17.0</ns3:atemp>
          </ns3:TrackPointExtension>
        </extensions>
      </trkpt>
      <trkpt lat="42.62883477844297885894775390625" lon="19.88802806474268436431884765625">
        <ele>1775.199951171875</ele>
        <time>2026-06-16T09:01:31.000Z</time>
        <extensions>
          <ns3:TrackPointExtension>
            <ns3:atemp>17.0</ns3:atemp>
          </ns3:TrackPointExtension>
        </extensions>
      </trkpt>
      <trkpt lat="42.62881390750408172607421875" lon="19.88802798092365264892578125">
        <ele>1775.4000244140625</ele>
        <time>2026-06-16T09:01:32.000Z</time>
        <extensions>
          <ns3:TrackPointExtension>
            <ns3:atemp>17.0</ns3:atemp>
          </ns3:TrackPointExtension>
        </extensions>
      </trkpt>
      <trkpt lat="42.6287912763655185699462890625" lon="19.8880341835319995880126953125">
        <ele>1775.5999755859375</ele>
        <time>2026-06-16T09:01:33.000Z</time>
        <extensions>
          <ns3:TrackPointExtension>
            <ns3:atemp>17.0</ns3:atemp>
          </ns3:TrackPointExtension>
        </extensions>
      </trkpt>
      <trkpt lat="42.6287661306560039520263671875" lon="19.8880469240248203277587890625">
        <ele>1775.800048828125</ele>
        <time>2026-06-16T09:01:34.000Z</time>
        <extensions>
          <ns3:TrackPointExtension>
            <ns3:atemp>16.0</ns3:atemp>
          </ns3:TrackPointExtension>
        </extensions>
      </trkpt>
      <trkpt lat="42.62874442152678966522216796875" lon="19.88806846551597118377685546875">
        <ele>1776</ele>
        <time>2026-06-16T09:01:35.000Z</time>
        <extensions>
          <ns3:TrackPointExtension>
            <ns3:atemp>17.0</ns3:atemp>
          </ns3:TrackPointExtension>
        </extensions>
      </trkpt>
      <trkpt lat="42.62872832827270030975341796875" lon="19.88809830509126186370849609375">
        <ele>1776.199951171875</ele>
        <time>2026-06-16T09:01:36.000Z</time>
        <extensions>
          <ns3:TrackPointExtension>
            <ns3:atemp>16.0</ns3:atemp>
          </ns3:TrackPointExtension>
        </extensions>
      </trkpt>
      <trkpt lat="42.6287235505878925323486328125" lon="19.88812261261045932769775390625">
        <ele>1776.4000244140625</ele>
        <time>2026-06-16T09:01:37.000Z</time>
        <extensions>
          <ns3:TrackPointExtension>
            <ns3:atemp>16.0</ns3:atemp>
          </ns3:TrackPointExtension>
        </extensions>
      </trkpt>
      <trkpt lat="42.62872631661593914031982421875" lon="19.8881505243480205535888671875">
        <ele>1776.5999755859375</ele>
        <time>2026-06-16T09:01:38.000Z</time>
        <extensions>
          <ns3:TrackPointExtension>
            <ns3:atemp>16.0</ns3:atemp>
          </ns3:TrackPointExtension>
        </extensions>
      </trkpt>
      <trkpt lat="42.6287346147000789642333984375" lon="19.88817139528691768646240234375">
        <ele>1777</ele>
        <time>2026-06-16T09:01:39.000Z</time>
        <extensions>
          <ns3:TrackPointExtension>
            <ns3:atemp>16.0</ns3:atemp>
          </ns3:TrackPointExtension>
        </extensions>
      </trkpt>
      <trkpt lat="42.628744505345821380615234375" lon="19.88819469697773456573486328125">
        <ele>1777.199951171875</ele>
        <time>2026-06-16T09:01:40.000Z</time>
        <extensions>
          <ns3:TrackPointExtension>
            <ns3:atemp>16.0</ns3:atemp>
          </ns3:TrackPointExtension>
        </extensions>
      </trkpt>
      <trkpt lat="42.62875498272478580474853515625" lon="19.888212382793426513671875">
        <ele>1777.5999755859375</ele>
        <time>2026-06-16T09:01:41.000Z</time>
        <extensions>
          <ns3:TrackPointExtension>
            <ns3:atemp>16.0</ns3:atemp>
          </ns3:TrackPointExtension>
        </extensions>
      </trkpt>
      <trkpt lat="42.62876906432211399078369140625" lon="19.8882296495139598846435546875">
        <ele>1777.800048828125</ele>
        <time>2026-06-16T09:01:42.000Z</time>
        <extensions>
          <ns3:TrackPointExtension>
            <ns3:atemp>17.0</ns3:atemp>
          </ns3:TrackPointExtension>
        </extensions>
      </trkpt>
      <trkpt lat="42.62877610512077808380126953125" lon="19.88824984990060329437255859375">
        <ele>1778</ele>
        <time>2026-06-16T09:01:43.000Z</time>
        <extensions>
          <ns3:TrackPointExtension>
            <ns3:atemp>17.0</ns3:atemp>
          </ns3:TrackPointExtension>
        </extensions>
      </trkpt>
      <trkpt lat="42.628792114555835723876953125" lon="19.8882665298879146575927734375">
        <ele>1778.4000244140625</ele>
        <time>2026-06-16T09:01:44.000Z</time>
        <extensions>
          <ns3:TrackPointExtension>
            <ns3:atemp>17.0</ns3:atemp>
          </ns3:TrackPointExtension>
        </extensions>
      </trkpt>
      <trkpt lat="42.62880695052444934844970703125" lon="19.888285137712955474853515625">
        <ele>1778.800048828125</ele>
        <time>2026-06-16T09:01:45.000Z</time>
        <extensions>
          <ns3:TrackPointExtension>
            <ns3:atemp>16.0</ns3:atemp>
          </ns3:TrackPointExtension>
        </extensions>
      </trkpt>
      <trkpt lat="42.628821618854999542236328125" lon="19.88830215297639369964599609375">
        <ele>1779</ele>
        <time>2026-06-16T09:01:46.000Z</time>
        <extensions>
          <ns3:TrackPointExtension>
            <ns3:atemp>17.0</ns3:atemp>
          </ns3:TrackPointExtension>
        </extensions>
      </trkpt>
      <trkpt lat="42.62883595190942287445068359375" lon="19.888321347534656524658203125">
        <ele>1779.4000244140625</ele>
        <time>2026-06-16T09:01:47.000Z</time>
        <extensions>
          <ns3:TrackPointExtension>
            <ns3:atemp>16.0</ns3:atemp>
          </ns3:TrackPointExtension>
        </extensions>
      </trkpt>
      <trkpt lat="42.6288506202399730682373046875" lon="19.88834389485418796539306640625">
        <ele>1779.5999755859375</ele>
        <time>2026-06-16T09:01:48.000Z</time>
        <extensions>
          <ns3:TrackPointExtension>
            <ns3:atemp>17.0</ns3:atemp>
          </ns3:TrackPointExtension>
        </extensions>
      </trkpt>
      <trkpt lat="42.62886126525700092315673828125" lon="19.88836870528757572174072265625">
        <ele>1780</ele>
        <time>2026-06-16T09:01:49.000Z</time>
        <extensions>
          <ns3:TrackPointExtension>
            <ns3:atemp>16.0</ns3:atemp>
          </ns3:TrackPointExtension>
        </extensions>
      </trkpt>
      <trkpt lat="42.62887417338788509368896484375" lon="19.88838966004550457000732421875">
        <ele>1780.199951171875</ele>
        <time>2026-06-16T09:01:50.000Z</time>
        <extensions>
          <ns3:TrackPointExtension>
            <ns3:atemp>17.0</ns3:atemp>
          </ns3:TrackPointExtension>
        </extensions>
      </trkpt>
      <trkpt lat="42.628883309662342071533203125" lon="19.8884106986224651336669921875">
        <ele>1780.5999755859375</ele>
        <time>2026-06-16T09:01:51.000Z</time>
        <extensions>
          <ns3:TrackPointExtension>
            <ns3:atemp>16.0</ns3:atemp>
          </ns3:TrackPointExtension>
        </extensions>
      </trkpt>
      <trkpt lat="42.628892362117767333984375" lon="19.88843089900910854339599609375">
        <ele>1780.800048828125</ele>
        <time>2026-06-16T09:01:52.000Z</time>
        <extensions>
          <ns3:TrackPointExtension>
            <ns3:atemp>16.0</ns3:atemp>
          </ns3:TrackPointExtension>
        </extensions>
      </trkpt>
      <trkpt lat="42.62890510261058807373046875" lon="19.8884472437202930450439453125">
        <ele>1781</ele>
        <time>2026-06-16T09:01:53.000Z</time>
        <extensions>
          <ns3:TrackPointExtension>
            <ns3:atemp>16.0</ns3:atemp>
          </ns3:TrackPointExtension>
        </extensions>
      </trkpt>
      <trkpt lat="42.6289159990847110748291015625" lon="19.88846694119274616241455078125">
        <ele>1781.4000244140625</ele>
        <time>2026-06-16T09:01:54.000Z</time>
        <extensions>
          <ns3:TrackPointExtension>
            <ns3:atemp>16.0</ns3:atemp>
          </ns3:TrackPointExtension>
        </extensions>
      </trkpt>
      <trkpt lat="42.62892656028270721435546875" lon="19.88848890177905559539794921875">
        <ele>1781.5999755859375</ele>
        <time>2026-06-16T09:01:55.000Z</time>
        <extensions>
          <ns3:TrackPointExtension>
            <ns3:atemp>16.0</ns3:atemp>
          </ns3:TrackPointExtension>
        </extensions>
      </trkpt>
      <trkpt lat="42.62893452309072017669677734375" lon="19.88851346075534820556640625">
        <ele>1781.800048828125</ele>
        <time>2026-06-16T09:01:56.000Z</time>
        <extensions>
          <ns3:TrackPointExtension>
            <ns3:atemp>17.0</ns3:atemp>
          </ns3:TrackPointExtension>
        </extensions>
      </trkpt>
      <trkpt lat="42.6289444975554943084716796875" lon="19.88853282295167446136474609375">
        <ele>1782.199951171875</ele>
        <time>2026-06-16T09:01:57.000Z</time>
        <extensions>
          <ns3:TrackPointExtension>
            <ns3:atemp>17.0</ns3:atemp>
          </ns3:TrackPointExtension>
        </extensions>
      </trkpt>
      <trkpt lat="42.6289552263915538787841796875" lon="19.888552688062191009521484375">
        <ele>1782.4000244140625</ele>
        <time>2026-06-16T09:01:58.000Z</time>
        <extensions>
          <ns3:TrackPointExtension>
            <ns3:atemp>17.0</ns3:atemp>
          </ns3:TrackPointExtension>
        </extensions>
      </trkpt>
      <trkpt lat="42.6289713196456432342529296875" lon="19.8885669372975826263427734375">
        <ele>1782.800048828125</ele>
        <time>2026-06-16T09:01:59.000Z</time>
        <extensions>
          <ns3:TrackPointExtension>
            <ns3:atemp>17.0</ns3:atemp>
          </ns3:TrackPointExtension>
        </extensions>
      </trkpt>
      <trkpt lat="42.62898481450974941253662109375" lon="19.88858244381844997406005859375">
        <ele>1783</ele>
        <time>2026-06-16T09:02:00.000Z</time>
        <extensions>
          <ns3:TrackPointExtension>
            <ns3:atemp>17.0</ns3:atemp>
          </ns3:TrackPointExtension>
        </extensions>
      </trkpt>
      <trkpt lat="42.6289937831461429595947265625" lon="19.88859937526285648345947265625">
        <ele>1783.199951171875</ele>
        <time>2026-06-16T09:02:01.000Z</time>
        <extensions>
          <ns3:TrackPointExtension>
            <ns3:atemp>16.0</ns3:atemp>
          </ns3:TrackPointExtension>
        </extensions>
      </trkpt>
      <trkpt lat="42.62900375761091709136962890625" lon="19.88861680962145328521728515625">
        <ele>1783.5999755859375</ele>
        <time>2026-06-16T09:02:02.000Z</time>
        <extensions>
          <ns3:TrackPointExtension>
            <ns3:atemp>16.0</ns3:atemp>
          </ns3:TrackPointExtension>
        </extensions>
      </trkpt>
      <trkpt lat="42.62901683337986469268798828125" lon="19.8886269517242908477783203125">
        <ele>1783.800048828125</ele>
        <time>2026-06-16T09:02:03.000Z</time>
        <extensions>
          <ns3:TrackPointExtension>
            <ns3:atemp>16.0</ns3:atemp>
          </ns3:TrackPointExtension>
        </extensions>
      </trkpt>
      <trkpt lat="42.6290306635200977325439453125" lon="19.8886396922171115875244140625">
        <ele>1784.199951171875</ele>
        <time>2026-06-16T09:02:04.000Z</time>
        <extensions>
          <ns3:TrackPointExtension>
            <ns3:atemp>16.0</ns3:atemp>
          </ns3:TrackPointExtension>
        </extensions>
      </trkpt>
      <trkpt lat="42.62904600240290164947509765625" lon="19.8886547796428203582763671875">
        <ele>1784.4000244140625</ele>
        <time>2026-06-16T09:02:05.000Z</time>
        <extensions>
          <ns3:TrackPointExtension>
            <ns3:atemp>17.0</ns3:atemp>
          </ns3:TrackPointExtension>
        </extensions>
      </trkpt>
      <trkpt lat="42.629058994352817535400390625" lon="19.88867246545851230621337890625">
        <ele>1784.800048828125</ele>
        <time>2026-06-16T09:02:06.000Z</time>
        <extensions>
          <ns3:TrackPointExtension>
            <ns3:atemp>16.0</ns3:atemp>
          </ns3:TrackPointExtension>
        </extensions>
      </trkpt>
      <trkpt lat="42.6290707290172576904296875" lon="19.88868738524615764617919921875">
        <ele>1785</ele>
        <time>2026-06-16T09:02:07.000Z</time>
        <extensions>
          <ns3:TrackPointExtension>
            <ns3:atemp>16.0</ns3:atemp>
          </ns3:TrackPointExtension>
        </extensions>
      </trkpt>
      <trkpt lat="42.629082463681697845458984375" lon="19.88869719207286834716796875">
        <ele>1785.199951171875</ele>
        <time>2026-06-16T09:02:08.000Z</time>
        <extensions>
          <ns3:TrackPointExtension>
            <ns3:atemp>16.0</ns3:atemp>
          </ns3:TrackPointExtension>
        </extensions>
      </trkpt>
      <trkpt lat="42.6290967129170894622802734375" lon="19.88871395587921142578125">
        <ele>1785.5999755859375</ele>
        <time>2026-06-16T09:02:09.000Z</time>
        <extensions>
          <ns3:TrackPointExtension>
            <ns3:atemp>16.0</ns3:atemp>
          </ns3:TrackPointExtension>
        </extensions>
      </trkpt>
      <trkpt lat="42.6291087828576564788818359375" lon="19.88873340189456939697265625">
        <ele>1786.199951171875</ele>
        <time>2026-06-16T09:02:10.000Z</time>
        <extensions>
          <ns3:TrackPointExtension>
            <ns3:atemp>16.0</ns3:atemp>
          </ns3:TrackPointExtension>
        </extensions>
      </trkpt>
      <trkpt lat="42.62912110425531864166259765625" lon="19.88875108771026134490966796875">
        <ele>1786.5999755859375</ele>
        <time>2026-06-16T09:02:11.000Z</time>
        <extensions>
          <ns3:TrackPointExtension>
            <ns3:atemp>16.0</ns3:atemp>
          </ns3:TrackPointExtension>
        </extensions>
      </trkpt>
      <trkpt lat="42.62913418002426624298095703125" lon="19.88876835443079471588134765625">
        <ele>1786.800048828125</ele>
        <time>2026-06-16T09:02:12.000Z</time>
        <extensions>
          <ns3:TrackPointExtension>
            <ns3:atemp>16.0</ns3:atemp>
          </ns3:TrackPointExtension>
        </extensions>
      </trkpt>
      <trkpt lat="42.62914759106934070587158203125" lon="19.8887865431606769561767578125">
        <ele>1786.800048828125</ele>
        <time>2026-06-16T09:02:13.000Z</time>
        <extensions>
          <ns3:TrackPointExtension>
            <ns3:atemp>16.0</ns3:atemp>
          </ns3:TrackPointExtension>
        </extensions>
      </trkpt>
      <trkpt lat="42.629158236086368560791015625" lon="19.88880422897636890411376953125">
        <ele>1786.4000244140625</ele>
        <time>2026-06-16T09:02:14.000Z</time>
        <extensions>
          <ns3:TrackPointExtension>
            <ns3:atemp>16.0</ns3:atemp>
          </ns3:TrackPointExtension>
        </extensions>
      </trkpt>
      <trkpt lat="42.62916821055114269256591796875" lon="19.88882032223045825958251953125">
        <ele>1786.4000244140625</ele>
        <time>2026-06-16T09:02:15.000Z</time>
        <extensions>
          <ns3:TrackPointExtension>
            <ns3:atemp>16.0</ns3:atemp>
          </ns3:TrackPointExtension>
        </extensions>
      </trkpt>
      <trkpt lat="42.629179023206233978271484375" lon="19.88883708603680133819580078125">
        <ele>1786.4000244140625</ele>
        <time>2026-06-16T09:02:16.000Z</time>
        <extensions>
          <ns3:TrackPointExtension>
            <ns3:atemp>16.0</ns3:atemp>
          </ns3:TrackPointExtension>
        </extensions>
      </trkpt>
      <trkpt lat="42.62919117696583271026611328125" lon="19.8888546042144298553466796875">
        <ele>1786.5999755859375</ele>
        <time>2026-06-16T09:02:17.000Z</time>
        <extensions>
          <ns3:TrackPointExtension>
            <ns3:atemp>16.0</ns3:atemp>
          </ns3:TrackPointExtension>
        </extensions>
      </trkpt>
      <trkpt lat="42.6292021572589874267578125" lon="19.88886944018304347991943359375">
        <ele>1787.199951171875</ele>
        <time>2026-06-16T09:02:18.000Z</time>
        <extensions>
          <ns3:TrackPointExtension>
            <ns3:atemp>16.0</ns3:atemp>
          </ns3:TrackPointExtension>
        </extensions>
      </trkpt>
      <trkpt lat="42.62921246699988842010498046875" lon="19.8888814263045787811279296875">
        <ele>1787.800048828125</ele>
        <time>2026-06-16T09:02:19.000Z</time>
        <extensions>
          <ns3:TrackPointExtension>
            <ns3:atemp>16.0</ns3:atemp>
          </ns3:TrackPointExtension>
        </extensions>
      </trkpt>
      <trkpt lat="42.6292234472930431365966796875" lon="19.88889475353062152862548828125">
        <ele>1788.199951171875</ele>
        <time>2026-06-16T09:02:20.000Z</time>
        <extensions>
          <ns3:TrackPointExtension>
            <ns3:atemp>16.0</ns3:atemp>
          </ns3:TrackPointExtension>
        </extensions>
      </trkpt>
      <trkpt lat="42.62923425994813442230224609375" lon="19.888912774622440338134765625">
        <ele>1788.5999755859375</ele>
        <time>2026-06-16T09:02:21.000Z</time>
        <extensions>
          <ns3:TrackPointExtension>
            <ns3:atemp>16.0</ns3:atemp>
          </ns3:TrackPointExtension>
        </extensions>
      </trkpt>
      <trkpt lat="42.629247419536113739013671875" lon="19.88893196918070316314697265625">
        <ele>1789</ele>
        <time>2026-06-16T09:02:22.000Z</time>
        <extensions>
          <ns3:TrackPointExtension>
            <ns3:atemp>16.0</ns3:atemp>
          </ns3:TrackPointExtension>
        </extensions>
      </trkpt>
      <trkpt lat="42.62926225550472736358642578125" lon="19.88894135691225528717041015625">
        <ele>1789.199951171875</ele>
        <time>2026-06-16T09:02:23.000Z</time>
        <extensions>
          <ns3:TrackPointExtension>
            <ns3:atemp>16.0</ns3:atemp>
          </ns3:TrackPointExtension>
        </extensions>
      </trkpt>
      <trkpt lat="42.62928019277751445770263671875" lon="19.8889531753957271575927734375">
        <ele>1789.5999755859375</ele>
        <time>2026-06-16T09:02:24.000Z</time>
        <extensions>
          <ns3:TrackPointExtension>
            <ns3:atemp>16.0</ns3:atemp>
          </ns3:TrackPointExtension>
        </extensions>
      </trkpt>
      <trkpt lat="42.62929729185998439788818359375" lon="19.88896633498370647430419921875">
        <ele>1790</ele>
        <time>2026-06-16T09:02:25.000Z</time>
        <extensions>
          <ns3:TrackPointExtension>
            <ns3:atemp>16.0</ns3:atemp>
          </ns3:TrackPointExtension>
        </extensions>
      </trkpt>
      <trkpt lat="42.629311792552471160888671875" lon="19.8889796622097492218017578125">
        <ele>1790.199951171875</ele>
        <time>2026-06-16T09:02:26.000Z</time>
        <extensions>
          <ns3:TrackPointExtension>
            <ns3:atemp>16.0</ns3:atemp>
          </ns3:TrackPointExtension>
        </extensions>
      </trkpt>
      <trkpt lat="42.629325874149799346923828125" lon="19.888990558683872222900390625">
        <ele>1790.5999755859375</ele>
        <time>2026-06-16T09:02:27.000Z</time>
        <extensions>
          <ns3:TrackPointExtension>
            <ns3:atemp>16.0</ns3:atemp>
          </ns3:TrackPointExtension>
        </extensions>
      </trkpt>
      <trkpt lat="42.6293434761464595794677734375" lon="19.8890022933483123779296875">
        <ele>1790.800048828125</ele>
        <time>2026-06-16T09:02:28.000Z</time>
        <extensions>
          <ns3:TrackPointExtension>
            <ns3:atemp>16.0</ns3:atemp>
          </ns3:TrackPointExtension>
        </extensions>
      </trkpt>
      <trkpt lat="42.62935562990605831146240234375" lon="19.8890108428895473480224609375">
        <ele>1791</ele>
        <time>2026-06-16T09:02:29.000Z</time>
        <extensions>
          <ns3:TrackPointExtension>
            <ns3:atemp>16.0</ns3:atemp>
          </ns3:TrackPointExtension>
        </extensions>
      </trkpt>
      <trkpt lat="42.6293746568262577056884765625" lon="19.88902718760073184967041015625">
        <ele>1791.4000244140625</ele>
        <time>2026-06-16T09:02:30.000Z</time>
        <extensions>
          <ns3:TrackPointExtension>
            <ns3:atemp>16.0</ns3:atemp>
          </ns3:TrackPointExtension>
        </extensions>
      </trkpt>
      <trkpt lat="42.62938924133777618408203125" lon="19.889043532311916351318359375">
        <ele>1791.5999755859375</ele>
        <time>2026-06-16T09:02:31.000Z</time>
        <extensions>
          <ns3:TrackPointExtension>
            <ns3:atemp>16.0</ns3:atemp>
          </ns3:TrackPointExtension>
        </extensions>
      </trkpt>
      <trkpt lat="42.6294068433344364166259765625" lon="19.88905836828052997589111328125">
        <ele>1792</ele>
        <time>2026-06-16T09:02:32.000Z</time>
        <extensions>
          <ns3:TrackPointExtension>
            <ns3:atemp>16.0</ns3:atemp>
          </ns3:TrackPointExtension>
        </extensions>
      </trkpt>
      <trkpt lat="42.6294226013123989105224609375" lon="19.8890758864581584930419921875">
        <ele>1792.199951171875</ele>
        <time>2026-06-16T09:02:33.000Z</time>
        <extensions>
          <ns3:TrackPointExtension>
            <ns3:atemp>16.0</ns3:atemp>
          </ns3:TrackPointExtension>
        </extensions>
      </trkpt>
      <trkpt lat="42.6294373534619808197021484375" lon="19.88909474574029445648193359375">
        <ele>1792.4000244140625</ele>
        <time>2026-06-16T09:02:34.000Z</time>
        <extensions>
          <ns3:TrackPointExtension>
            <ns3:atemp>16.0</ns3:atemp>
          </ns3:TrackPointExtension>
        </extensions>
      </trkpt>
      <trkpt lat="42.62945068068802356719970703125" lon="19.88911335356533527374267578125">
        <ele>1792.800048828125</ele>
        <time>2026-06-16T09:02:35.000Z</time>
        <extensions>
          <ns3:TrackPointExtension>
            <ns3:atemp>16.0</ns3:atemp>
          </ns3:TrackPointExtension>
        </extensions>
      </trkpt>
      <trkpt lat="42.6294645108282566070556640625" lon="19.88913078792393207550048828125">
        <ele>1793</ele>
        <time>2026-06-16T09:02:36.000Z</time>
        <extensions>
          <ns3:TrackPointExtension>
            <ns3:atemp>16.0</ns3:atemp>
          </ns3:TrackPointExtension>
        </extensions>
      </trkpt>
      <trkpt lat="42.62947498820722103118896484375" lon="19.88914989866316318511962890625">
        <ele>1793.199951171875</ele>
        <time>2026-06-16T09:02:37.000Z</time>
        <extensions>
          <ns3:TrackPointExtension>
            <ns3:atemp>16.0</ns3:atemp>
          </ns3:TrackPointExtension>
        </extensions>
      </trkpt>
      <trkpt lat="42.6294852979481220245361328125" lon="19.88916900940239429473876953125">
        <ele>1793.4000244140625</ele>
        <time>2026-06-16T09:02:38.000Z</time>
        <extensions>
          <ns3:TrackPointExtension>
            <ns3:atemp>16.0</ns3:atemp>
          </ns3:TrackPointExtension>
        </extensions>
      </trkpt>
      <trkpt lat="42.62949493713676929473876953125" lon="19.88918602466583251953125">
        <ele>1793.5999755859375</ele>
        <time>2026-06-16T09:02:39.000Z</time>
        <extensions>
          <ns3:TrackPointExtension>
            <ns3:atemp>16.0</ns3:atemp>
          </ns3:TrackPointExtension>
        </extensions>
      </trkpt>
      <trkpt lat="42.6295060850679874420166015625" lon="19.88920588977634906768798828125">
        <ele>1793.800048828125</ele>
        <time>2026-06-16T09:02:40.000Z</time>
        <extensions>
          <ns3:TrackPointExtension>
            <ns3:atemp>16.0</ns3:atemp>
          </ns3:TrackPointExtension>
        </extensions>
      </trkpt>
      <trkpt lat="42.6295154727995395660400390625" lon="19.88922466523945331573486328125">
        <ele>1794</ele>
        <time>2026-06-16T09:02:41.000Z</time>
        <extensions>
          <ns3:TrackPointExtension>
            <ns3:atemp>16.0</ns3:atemp>
          </ns3:TrackPointExtension>
        </extensions>
      </trkpt>
      <trkpt lat="42.6295258663594722747802734375" lon="19.88924176432192325592041015625">
        <ele>1794.199951171875</ele>
        <time>2026-06-16T09:02:42.000Z</time>
        <extensions>
          <ns3:TrackPointExtension>
            <ns3:atemp>16.0</ns3:atemp>
          </ns3:TrackPointExtension>
        </extensions>
      </trkpt>
      <trkpt lat="42.6295372657477855682373046875" lon="19.889254085719585418701171875">
        <ele>1794.5999755859375</ele>
        <time>2026-06-16T09:02:43.000Z</time>
        <extensions>
          <ns3:TrackPointExtension>
            <ns3:atemp>16.0</ns3:atemp>
          </ns3:TrackPointExtension>
        </extensions>
      </trkpt>
      <trkpt lat="42.629545815289020538330078125" lon="19.8892723582684993743896484375">
        <ele>1794.800048828125</ele>
        <time>2026-06-16T09:02:44.000Z</time>
        <extensions>
          <ns3:TrackPointExtension>
            <ns3:atemp>16.0</ns3:atemp>
          </ns3:TrackPointExtension>
        </extensions>
      </trkpt>
      <trkpt lat="42.6295562088489532470703125" lon="19.88928417675197124481201171875">
        <ele>1795.199951171875</ele>
        <time>2026-06-16T09:02:45.000Z</time>
        <extensions>
          <ns3:TrackPointExtension>
            <ns3:atemp>16.0</ns3:atemp>
          </ns3:TrackPointExtension>
        </extensions>
      </trkpt>
      <trkpt lat="42.62957070954144001007080078125" lon="19.88929658196866512298583984375">
        <ele>1795.4000244140625</ele>
        <time>2026-06-16T09:02:46.000Z</time>
        <extensions>
          <ns3:TrackPointExtension>
            <ns3:atemp>16.0</ns3:atemp>
          </ns3:TrackPointExtension>
        </extensions>
      </trkpt>
      <trkpt lat="42.62958294712007045745849609375" lon="19.88931200467050075531005859375">
        <ele>1795.5999755859375</ele>
        <time>2026-06-16T09:02:47.000Z</time>
        <extensions>
          <ns3:TrackPointExtension>
            <ns3:atemp>16.0</ns3:atemp>
          </ns3:TrackPointExtension>
        </extensions>
      </trkpt>
      <trkpt lat="42.629590071737766265869140625" lon="19.88932692445814609527587890625">
        <ele>1796</ele>
        <time>2026-06-16T09:02:48.000Z</time>
        <extensions>
          <ns3:TrackPointExtension>
            <ns3:atemp>16.0</ns3:atemp>
          </ns3:TrackPointExtension>
        </extensions>
      </trkpt>
      <trkpt lat="42.62960172258317470550537109375" lon="19.8893431015312671661376953125">
        <ele>1796.199951171875</ele>
        <time>2026-06-16T09:02:49.000Z</time>
        <extensions>
          <ns3:TrackPointExtension>
            <ns3:atemp>16.0</ns3:atemp>
          </ns3:TrackPointExtension>
        </extensions>
      </trkpt>
      <trkpt lat="42.62961077503859996795654296875" lon="19.88936028443276882171630859375">
        <ele>1796.4000244140625</ele>
        <time>2026-06-16T09:02:50.000Z</time>
        <extensions>
          <ns3:TrackPointExtension>
            <ns3:atemp>16.0</ns3:atemp>
          </ns3:TrackPointExtension>
        </extensions>
      </trkpt>
      <trkpt lat="42.62961848638951778411865234375" lon="19.8893749527633190155029296875">
        <ele>1796.800048828125</ele>
        <time>2026-06-16T09:02:51.000Z</time>
        <extensions>
          <ns3:TrackPointExtension>
            <ns3:atemp>16.0</ns3:atemp>
          </ns3:TrackPointExtension>
        </extensions>
      </trkpt>
      <trkpt lat="42.62963022105395793914794921875" lon="19.8893954046070575714111328125">
        <ele>1797</ele>
        <time>2026-06-16T09:02:52.000Z</time>
        <extensions>
          <ns3:TrackPointExtension>
            <ns3:atemp>16.0</ns3:atemp>
          </ns3:TrackPointExtension>
        </extensions>
      </trkpt>
      <trkpt lat="42.62963960878551006317138671875" lon="19.88941200077533721923828125">
        <ele>1797.4000244140625</ele>
        <time>2026-06-16T09:02:53.000Z</time>
        <extensions>
          <ns3:TrackPointExtension>
            <ns3:atemp>16.0</ns3:atemp>
          </ns3:TrackPointExtension>
        </extensions>
      </trkpt>
      <trkpt lat="42.6296512596309185028076171875" lon="19.88942834548652172088623046875">
        <ele>1797.5999755859375</ele>
        <time>2026-06-16T09:02:54.000Z</time>
        <extensions>
          <ns3:TrackPointExtension>
            <ns3:atemp>16.0</ns3:atemp>
          </ns3:TrackPointExtension>
        </extensions>
      </trkpt>
      <trkpt lat="42.6296613179147243499755859375" lon="19.8894475400447845458984375">
        <ele>1797.800048828125</ele>
        <time>2026-06-16T09:02:55.000Z</time>
        <extensions>
          <ns3:TrackPointExtension>
            <ns3:atemp>16.0</ns3:atemp>
          </ns3:TrackPointExtension>
        </extensions>
      </trkpt>
      <trkpt lat="42.62967196293175220489501953125" lon="19.88947008736431598663330078125">
        <ele>1798.199951171875</ele>
        <time>2026-06-16T09:02:56.000Z</time>
        <extensions>
          <ns3:TrackPointExtension>
            <ns3:atemp>16.0</ns3:atemp>
          </ns3:TrackPointExtension>
        </extensions>
      </trkpt>
      <trkpt lat="42.629680596292018890380859375" lon="19.88949288614094257354736328125">
        <ele>1798.4000244140625</ele>
        <time>2026-06-16T09:02:57.000Z</time>
        <extensions>
          <ns3:TrackPointExtension>
            <ns3:atemp>16.0</ns3:atemp>
          </ns3:TrackPointExtension>
        </extensions>
      </trkpt>
      <trkpt lat="42.62968621216714382171630859375" lon="19.88951149396598339080810546875">
        <ele>1798.5999755859375</ele>
        <time>2026-06-16T09:02:58.000Z</time>
        <extensions>
          <ns3:TrackPointExtension>
            <ns3:atemp>16.0</ns3:atemp>
          </ns3:TrackPointExtension>
        </extensions>
      </trkpt>
      <trkpt lat="42.62969769537448883056640625" lon="19.8895253241062164306640625">
        <ele>1798.800048828125</ele>
        <time>2026-06-16T09:02:59.000Z</time>
        <extensions>
          <ns3:TrackPointExtension>
            <ns3:atemp>16.0</ns3:atemp>
          </ns3:TrackPointExtension>
        </extensions>
      </trkpt>
      <trkpt lat="42.62970599345862865447998046875" lon="19.88954334519803524017333984375">
        <ele>1799</ele>
        <time>2026-06-16T09:03:00.000Z</time>
        <extensions>
          <ns3:TrackPointExtension>
            <ns3:atemp>16.0</ns3:atemp>
          </ns3:TrackPointExtension>
        </extensions>
      </trkpt>
      <trkpt lat="42.6297119446098804473876953125" lon="19.88956245593726634979248046875">
        <ele>1799.199951171875</ele>
        <time>2026-06-16T09:03:01.000Z</time>
        <extensions>
          <ns3:TrackPointExtension>
            <ns3:atemp>16.0</ns3:atemp>
          </ns3:TrackPointExtension>
        </extensions>
      </trkpt>
      <trkpt lat="42.6297220028936862945556640625" lon="19.889583326876163482666015625">
        <ele>1799.5999755859375</ele>
        <time>2026-06-16T09:03:02.000Z</time>
        <extensions>
          <ns3:TrackPointExtension>
            <ns3:atemp>16.0</ns3:atemp>
          </ns3:TrackPointExtension>
        </extensions>
      </trkpt>
      <trkpt lat="42.62973533011972904205322265625" lon="19.88960335962474346160888671875">
        <ele>1799.800048828125</ele>
        <time>2026-06-16T09:03:03.000Z</time>
        <extensions>
          <ns3:TrackPointExtension>
            <ns3:atemp>16.0</ns3:atemp>
          </ns3:TrackPointExtension>
        </extensions>
      </trkpt>
      <trkpt lat="42.62974471785128116607666015625" lon="19.88962599076330661773681640625">
        <ele>1800.199951171875</ele>
        <time>2026-06-16T09:03:04.000Z</time>
        <extensions>
          <ns3:TrackPointExtension>
            <ns3:atemp>16.0</ns3:atemp>
          </ns3:TrackPointExtension>
        </extensions>
      </trkpt>
      <trkpt lat="42.62975427322089672088623046875" lon="19.88964560441672801971435546875">
        <ele>1800.4000244140625</ele>
        <time>2026-06-16T09:03:05.000Z</time>
        <extensions>
          <ns3:TrackPointExtension>
            <ns3:atemp>16.0</ns3:atemp>
          </ns3:TrackPointExtension>
        </extensions>
      </trkpt>
      <trkpt lat="42.62976332567632198333740234375" lon="19.88966471515595912933349609375">
        <ele>1800.5999755859375</ele>
        <time>2026-06-16T09:03:06.000Z</time>
        <extensions>
          <ns3:TrackPointExtension>
            <ns3:atemp>16.0</ns3:atemp>
          </ns3:TrackPointExtension>
        </extensions>
      </trkpt>
      <trkpt lat="42.62977422215044498443603515625" lon="19.8896783776581287384033203125">
        <ele>1800.800048828125</ele>
        <time>2026-06-16T09:03:07.000Z</time>
        <extensions>
          <ns3:TrackPointExtension>
            <ns3:atemp>16.0</ns3:atemp>
          </ns3:TrackPointExtension>
        </extensions>
      </trkpt>
      <trkpt lat="42.62977816164493560791015625" lon="19.88970100879669189453125">
        <ele>1801</ele>
        <time>2026-06-16T09:03:08.000Z</time>
        <extensions>
          <ns3:TrackPointExtension>
            <ns3:atemp>16.0</ns3:atemp>
          </ns3:TrackPointExtension>
        </extensions>
      </trkpt>
      <trkpt lat="42.6297830231487751007080078125" lon="19.88972045481204986572265625">
        <ele>1801.199951171875</ele>
        <time>2026-06-16T09:03:09.000Z</time>
        <extensions>
          <ns3:TrackPointExtension>
            <ns3:atemp>16.0</ns3:atemp>
          </ns3:TrackPointExtension>
        </extensions>
      </trkpt>
      <trkpt lat="42.62978889048099517822265625" lon="19.88974300213158130645751953125">
        <ele>1801.5999755859375</ele>
        <time>2026-06-16T09:03:10.000Z</time>
        <extensions>
          <ns3:TrackPointExtension>
            <ns3:atemp>16.0</ns3:atemp>
          </ns3:TrackPointExtension>
        </extensions>
      </trkpt>
      <trkpt lat="42.6297944225370883941650390625" lon="19.88976781256496906280517578125">
        <ele>1801.800048828125</ele>
        <time>2026-06-16T09:03:11.000Z</time>
        <extensions>
          <ns3:TrackPointExtension>
            <ns3:atemp>16.0</ns3:atemp>
          </ns3:TrackPointExtension>
        </extensions>
      </trkpt>
      <trkpt lat="42.62979400344192981719970703125" lon="19.889794550836086273193359375">
        <ele>1802</ele>
        <time>2026-06-16T09:03:12.000Z</time>
        <extensions>
          <ns3:TrackPointExtension>
            <ns3:atemp>16.0</ns3:atemp>
          </ns3:TrackPointExtension>
        </extensions>
      </trkpt>
      <trkpt lat="42.6297944225370883941650390625" lon="19.88981558941304683685302734375">
        <ele>1802.199951171875</ele>
        <time>2026-06-16T09:03:13.000Z</time>
        <extensions>
          <ns3:TrackPointExtension>
            <ns3:atemp>16.0</ns3:atemp>
          </ns3:TrackPointExtension>
        </extensions>
      </trkpt>
      <trkpt lat="42.629788219928741455078125" lon="19.88984115421772003173828125">
        <ele>1802.4000244140625</ele>
        <time>2026-06-16T09:03:14.000Z</time>
        <extensions>
          <ns3:TrackPointExtension>
            <ns3:atemp>16.0</ns3:atemp>
          </ns3:TrackPointExtension>
        </extensions>
      </trkpt>
      <trkpt lat="42.629783190786838531494140625" lon="19.889865629374980926513671875">
        <ele>1802.5999755859375</ele>
        <time>2026-06-16T09:03:15.000Z</time>
        <extensions>
          <ns3:TrackPointExtension>
            <ns3:atemp>16.0</ns3:atemp>
          </ns3:TrackPointExtension>
        </extensions>
      </trkpt>
      <trkpt lat="42.6297729648649692535400390625" lon="19.88988599739968776702880859375">
        <ele>1802.800048828125</ele>
        <time>2026-06-16T09:03:16.000Z</time>
        <extensions>
          <ns3:TrackPointExtension>
            <ns3:atemp>16.0</ns3:atemp>
          </ns3:TrackPointExtension>
        </extensions>
      </trkpt>
      <trkpt lat="42.62975913472473621368408203125" lon="19.88989957608282566070556640625">
        <ele>1803</ele>
        <time>2026-06-16T09:03:17.000Z</time>
        <extensions>
          <ns3:TrackPointExtension>
            <ns3:atemp>16.0</ns3:atemp>
          </ns3:TrackPointExtension>
        </extensions>
      </trkpt>
      <trkpt lat="42.62973935343325138092041015625" lon="19.88991214893758296966552734375">
        <ele>1803.199951171875</ele>
        <time>2026-06-16T09:03:18.000Z</time>
        <extensions>
          <ns3:TrackPointExtension>
            <ns3:atemp>16.0</ns3:atemp>
          </ns3:TrackPointExtension>
        </extensions>
      </trkpt>
      <trkpt lat="42.629718482494354248046875" lon="19.88991768099367618560791015625">
        <ele>1803.4000244140625</ele>
        <time>2026-06-16T09:03:19.000Z</time>
        <extensions>
          <ns3:TrackPointExtension>
            <ns3:atemp>16.0</ns3:atemp>
          </ns3:TrackPointExtension>
        </extensions>
      </trkpt>
      <trkpt lat="42.6297008804976940155029296875" lon="19.88992120139300823211669921875">
        <ele>1803.5999755859375</ele>
        <time>2026-06-16T09:03:20.000Z</time>
        <extensions>
          <ns3:TrackPointExtension>
            <ns3:atemp>16.0</ns3:atemp>
          </ns3:TrackPointExtension>
        </extensions>
      </trkpt>
      <trkpt lat="42.629679255187511444091796875" lon="19.88992120139300823211669921875">
        <ele>1803.800048828125</ele>
        <time>2026-06-16T09:03:21.000Z</time>
        <extensions>
          <ns3:TrackPointExtension>
            <ns3:atemp>16.0</ns3:atemp>
          </ns3:TrackPointExtension>
        </extensions>
      </trkpt>
      <trkpt lat="42.62965586967766284942626953125" lon="19.88991801626980304718017578125">
        <ele>1804</ele>
        <time>2026-06-16T09:03:22.000Z</time>
        <extensions>
          <ns3:TrackPointExtension>
            <ns3:atemp>16.0</ns3:atemp>
          </ns3:TrackPointExtension>
        </extensions>
      </trkpt>
      <trkpt lat="42.6296284608542919158935546875" lon="19.8899150826036930084228515625">
        <ele>1804</ele>
        <time>2026-06-16T09:03:23.000Z</time>
        <extensions>
          <ns3:TrackPointExtension>
            <ns3:atemp>16.0</ns3:atemp>
          </ns3:TrackPointExtension>
        </extensions>
      </trkpt>
      <trkpt lat="42.6296049915254116058349609375" lon="19.889911897480487823486328125">
        <ele>1804</ele>
        <time>2026-06-16T09:03:24.000Z</time>
        <extensions>
          <ns3:TrackPointExtension>
            <ns3:atemp>16.0</ns3:atemp>
          </ns3:TrackPointExtension>
        </extensions>
      </trkpt>
      <trkpt lat="42.629581354558467864990234375" lon="19.88990929909050464630126953125">
        <ele>1804</ele>
        <time>2026-06-16T09:03:25.000Z</time>
        <extensions>
          <ns3:TrackPointExtension>
            <ns3:atemp>16.0</ns3:atemp>
          </ns3:TrackPointExtension>
        </extensions>
      </trkpt>
      <trkpt lat="42.62955713085830211639404296875" lon="19.8899050243198871612548828125">
        <ele>1804</ele>
        <time>2026-06-16T09:03:26.000Z</time>
        <extensions>
          <ns3:TrackPointExtension>
            <ns3:atemp>16.0</ns3:atemp>
          </ns3:TrackPointExtension>
        </extensions>
      </trkpt>
      <trkpt lat="42.62953802011907100677490234375" lon="19.8899006657302379608154296875">
        <ele>1804</ele>
        <time>2026-06-16T09:03:27.000Z</time>
        <extensions>
          <ns3:TrackPointExtension>
            <ns3:atemp>16.0</ns3:atemp>
          </ns3:TrackPointExtension>
        </extensions>
      </trkpt>
      <trkpt lat="42.62951522134244441986083984375" lon="19.889894463121891021728515625">
        <ele>1804</ele>
        <time>2026-06-16T09:03:28.000Z</time>
        <extensions>
          <ns3:TrackPointExtension>
            <ns3:atemp>16.0</ns3:atemp>
          </ns3:TrackPointExtension>
        </extensions>
      </trkpt>
      <trkpt lat="42.6294926740229129791259765625" lon="19.889881722629070281982421875">
        <ele>1803.800048828125</ele>
        <time>2026-06-16T09:03:29.000Z</time>
        <extensions>
          <ns3:TrackPointExtension>
            <ns3:atemp>16.0</ns3:atemp>
          </ns3:TrackPointExtension>
        </extensions>
      </trkpt>
      <trkpt lat="42.6294715516269207000732421875" lon="19.88986956886947154998779296875">
        <ele>1803.800048828125</ele>
        <time>2026-06-16T09:03:30.000Z</time>
        <extensions>
          <ns3:TrackPointExtension>
            <ns3:atemp>16.0</ns3:atemp>
          </ns3:TrackPointExtension>
        </extensions>
      </trkpt>
      <trkpt lat="42.62944783084094524383544921875" lon="19.88985590636730194091796875">
        <ele>1803.5999755859375</ele>
        <time>2026-06-16T09:03:31.000Z</time>
        <extensions>
          <ns3:TrackPointExtension>
            <ns3:atemp>16.0</ns3:atemp>
          </ns3:TrackPointExtension>
        </extensions>
      </trkpt>
      <trkpt lat="42.62942670844495296478271484375" lon="19.88984358496963977813720703125">
        <ele>1803.4000244140625</ele>
        <time>2026-06-16T09:03:32.000Z</time>
        <extensions>
          <ns3:TrackPointExtension>
            <ns3:atemp>16.0</ns3:atemp>
          </ns3:TrackPointExtension>
        </extensions>
      </trkpt>
      <trkpt lat="42.6294051669538021087646484375" lon="19.88982967101037502288818359375">
        <ele>1803.4000244140625</ele>
        <time>2026-06-16T09:03:33.000Z</time>
        <extensions>
          <ns3:TrackPointExtension>
            <ns3:atemp>16.0</ns3:atemp>
          </ns3:TrackPointExtension>
        </extensions>
      </trkpt>
      <trkpt lat="42.62938563711941242218017578125" lon="19.88981709815561771392822265625">
        <ele>1803.4000244140625</ele>
        <time>2026-06-16T09:03:34.000Z</time>
        <extensions>
          <ns3:TrackPointExtension>
            <ns3:atemp>16.0</ns3:atemp>
          </ns3:TrackPointExtension>
        </extensions>
      </trkpt>
      <trkpt lat="42.6293669454753398895263671875" lon="19.8897980712354183197021484375">
        <ele>1803.4000244140625</ele>
        <time>2026-06-16T09:03:35.000Z</time>
        <extensions>
          <ns3:TrackPointExtension>
            <ns3:atemp>16.0</ns3:atemp>
          </ns3:TrackPointExtension>
        </extensions>
      </trkpt>
      <trkpt lat="42.62934724800288677215576171875" lon="19.8897829838097095489501953125">
        <ele>1803.4000244140625</ele>
        <time>2026-06-16T09:03:36.000Z</time>
        <extensions>
          <ns3:TrackPointExtension>
            <ns3:atemp>16.0</ns3:atemp>
          </ns3:TrackPointExtension>
        </extensions>
      </trkpt>
      <trkpt lat="42.62932394631206989288330078125" lon="19.88975758664309978485107421875">
        <ele>1803.4000244140625</ele>
        <time>2026-06-16T09:03:37.000Z</time>
        <extensions>
          <ns3:TrackPointExtension>
            <ns3:atemp>16.0</ns3:atemp>
          </ns3:TrackPointExtension>
        </extensions>
      </trkpt>
      <trkpt lat="42.629301734268665313720703125" lon="19.88972707651555538177490234375">
        <ele>1803.4000244140625</ele>
        <time>2026-06-16T09:03:38.000Z</time>
        <extensions>
          <ns3:TrackPointExtension>
            <ns3:atemp>16.0</ns3:atemp>
          </ns3:TrackPointExtension>
        </extensions>
      </trkpt>
      <trkpt lat="42.62927885167300701141357421875" lon="19.8896991647779941558837890625">
        <ele>1803.4000244140625</ele>
        <time>2026-06-16T09:03:39.000Z</time>
        <extensions>
          <ns3:TrackPointExtension>
            <ns3:atemp>16.0</ns3:atemp>
          </ns3:TrackPointExtension>
        </extensions>
      </trkpt>
      <trkpt lat="42.6292563043534755706787109375" lon="19.88966672681272029876708984375">
        <ele>1803.4000244140625</ele>
        <time>2026-06-16T09:03:40.000Z</time>
        <extensions>
          <ns3:TrackPointExtension>
            <ns3:atemp>16.0</ns3:atemp>
          </ns3:TrackPointExtension>
        </extensions>
      </trkpt>
      <trkpt lat="42.62923308648169040679931640625" lon="19.88963454030454158782958984375">
        <ele>1803.4000244140625</ele>
        <time>2026-06-16T09:03:41.000Z</time>
        <extensions>
          <ns3:TrackPointExtension>
            <ns3:atemp>16.0</ns3:atemp>
          </ns3:TrackPointExtension>
        </extensions>
      </trkpt>
      <trkpt lat="42.6292113773524761199951171875" lon="19.8896012641489505767822265625">
        <ele>1803.5999755859375</ele>
        <time>2026-06-16T09:03:42.000Z</time>
        <extensions>
          <ns3:TrackPointExtension>
            <ns3:atemp>16.0</ns3:atemp>
          </ns3:TrackPointExtension>
        </extensions>
      </trkpt>
      <trkpt lat="42.6291865669190883636474609375" lon="19.889571927487850189208984375">
        <ele>1803.5999755859375</ele>
        <time>2026-06-16T09:03:43.000Z</time>
        <extensions>
          <ns3:TrackPointExtension>
            <ns3:atemp>16.0</ns3:atemp>
          </ns3:TrackPointExtension>
        </extensions>
      </trkpt>
      <trkpt lat="42.62916251085698604583740234375" lon="19.88953177817165851593017578125">
        <ele>1803.5999755859375</ele>
        <time>2026-06-16T09:03:44.000Z</time>
        <extensions>
          <ns3:TrackPointExtension>
            <ns3:atemp>16.0</ns3:atemp>
          </ns3:TrackPointExtension>
        </extensions>
      </trkpt>
      <trkpt lat="42.6291402988135814666748046875" lon="19.8894958198070526123046875">
        <ele>1803.4000244140625</ele>
        <time>2026-06-16T09:03:45.000Z</time>
        <extensions>
          <ns3:TrackPointExtension>
            <ns3:atemp>16.0</ns3:atemp>
          </ns3:TrackPointExtension>
        </extensions>
      </trkpt>
      <trkpt lat="42.62911506928503513336181640625" lon="19.88945801742374897003173828125">
        <ele>1803.4000244140625</ele>
        <time>2026-06-16T09:03:46.000Z</time>
        <extensions>
          <ns3:TrackPointExtension>
            <ns3:atemp>16.0</ns3:atemp>
          </ns3:TrackPointExtension>
        </extensions>
      </trkpt>
      <trkpt lat="42.62908740900456905364990234375" lon="19.88942465744912624359130859375">
        <ele>1803.4000244140625</ele>
        <time>2026-06-16T09:03:47.000Z</time>
        <extensions>
          <ns3:TrackPointExtension>
            <ns3:atemp>16.0</ns3:atemp>
          </ns3:TrackPointExtension>
        </extensions>
      </trkpt>
      <trkpt lat="42.62905740179121494293212890625" lon="19.88938710652291774749755859375">
        <ele>1803.4000244140625</ele>
        <time>2026-06-16T09:03:48.000Z</time>
        <extensions>
          <ns3:TrackPointExtension>
            <ns3:atemp>16.0</ns3:atemp>
          </ns3:TrackPointExtension>
        </extensions>
      </trkpt>
      <trkpt lat="42.62902555055916309356689453125" lon="19.88935223780572414398193359375">
        <ele>1803.4000244140625</ele>
        <time>2026-06-16T09:03:49.000Z</time>
        <extensions>
          <ns3:TrackPointExtension>
            <ns3:atemp>16.0</ns3:atemp>
          </ns3:TrackPointExtension>
        </extensions>
      </trkpt>
      <trkpt lat="42.6289974711835384368896484375" lon="19.889314435422420501708984375">
        <ele>1803.4000244140625</ele>
        <time>2026-06-16T09:03:50.000Z</time>
        <extensions>
          <ns3:TrackPointExtension>
            <ns3:atemp>16.0</ns3:atemp>
          </ns3:TrackPointExtension>
        </extensions>
      </trkpt>
      <trkpt lat="42.628966458141803741455078125" lon="19.8892783932387828826904296875">
        <ele>1803.199951171875</ele>
        <time>2026-06-16T09:03:51.000Z</time>
        <extensions>
          <ns3:TrackPointExtension>
            <ns3:atemp>16.0</ns3:atemp>
          </ns3:TrackPointExtension>
        </extensions>
      </trkpt>
      <trkpt lat="42.62893594801425933837890625" lon="19.88924561999738216400146484375">
        <ele>1803.199951171875</ele>
        <time>2026-06-16T09:03:52.000Z</time>
        <extensions>
          <ns3:TrackPointExtension>
            <ns3:atemp>16.0</ns3:atemp>
          </ns3:TrackPointExtension>
        </extensions>
      </trkpt>
      <trkpt lat="42.62890736572444438934326171875" lon="19.88921594806015491485595703125">
        <ele>1803.199951171875</ele>
        <time>2026-06-16T09:03:53.000Z</time>
        <extensions>
          <ns3:TrackPointExtension>
            <ns3:atemp>16.0</ns3:atemp>
          </ns3:TrackPointExtension>
        </extensions>
      </trkpt>
      <trkpt lat="42.62887920252978801727294921875" lon="19.88918778486549854278564453125">
        <ele>1803.199951171875</ele>
        <time>2026-06-16T09:03:54.000Z</time>
        <extensions>
          <ns3:TrackPointExtension>
            <ns3:atemp>16.0</ns3:atemp>
          </ns3:TrackPointExtension>
        </extensions>
      </trkpt>
      <trkpt lat="42.6288496144115924835205078125" lon="19.88916129805147647857666015625">
        <ele>1803.199951171875</ele>
        <time>2026-06-16T09:03:55.000Z</time>
        <extensions>
          <ns3:TrackPointExtension>
            <ns3:atemp>16.0</ns3:atemp>
          </ns3:TrackPointExtension>
        </extensions>
      </trkpt>
      <trkpt lat="42.62882304377853870391845703125" lon="19.88913263194262981414794921875">
        <ele>1803.199951171875</ele>
        <time>2026-06-16T09:03:56.000Z</time>
        <extensions>
          <ns3:TrackPointExtension>
            <ns3:atemp>16.0</ns3:atemp>
          </ns3:TrackPointExtension>
        </extensions>
      </trkpt>
      <trkpt lat="42.62879655696451663970947265625" lon="19.8891050554811954498291015625">
        <ele>1803.4000244140625</ele>
        <time>2026-06-16T09:03:57.000Z</time>
        <extensions>
          <ns3:TrackPointExtension>
            <ns3:atemp>16.0</ns3:atemp>
          </ns3:TrackPointExtension>
        </extensions>
      </trkpt>
      <trkpt lat="42.62876990251243114471435546875" lon="19.88907136023044586181640625">
        <ele>1803.4000244140625</ele>
        <time>2026-06-16T09:03:58.000Z</time>
        <extensions>
          <ns3:TrackPointExtension>
            <ns3:atemp>16.0</ns3:atemp>
          </ns3:TrackPointExtension>
        </extensions>
      </trkpt>
      <trkpt lat="42.6287413202226161956787109375" lon="19.889043532311916351318359375">
        <ele>1803.4000244140625</ele>
        <time>2026-06-16T09:03:59.000Z</time>
        <extensions>
          <ns3:TrackPointExtension>
            <ns3:atemp>16.0</ns3:atemp>
          </ns3:TrackPointExtension>
        </extensions>
      </trkpt>
      <trkpt lat="42.62872011400759220123291015625" lon="19.8890182189643383026123046875">
        <ele>1803.5999755859375</ele>
        <time>2026-06-16T09:04:00.000Z</time>
        <extensions>
          <ns3:TrackPointExtension>
            <ns3:atemp>16.0</ns3:atemp>
          </ns3:TrackPointExtension>
        </extensions>
      </trkpt>
      <trkpt lat="42.62869899161159992218017578125" lon="19.88899223506450653076171875">
        <ele>1803.5999755859375</ele>
        <time>2026-06-16T09:04:01.000Z</time>
        <extensions>
          <ns3:TrackPointExtension>
            <ns3:atemp>16.0</ns3:atemp>
          </ns3:TrackPointExtension>
        </extensions>
      </trkpt>
      <trkpt lat="42.62867636047303676605224609375" lon="19.88896767608821392059326171875">
        <ele>1803.5999755859375</ele>
        <time>2026-06-16T09:04:02.000Z</time>
        <extensions>
          <ns3:TrackPointExtension>
            <ns3:atemp>16.0</ns3:atemp>
          </ns3:TrackPointExtension>
        </extensions>
      </trkpt>
      <trkpt lat="42.62865590862929821014404296875" lon="19.88894118927419185638427734375">
        <ele>1803.800048828125</ele>
        <time>2026-06-16T09:04:03.000Z</time>
        <extensions>
          <ns3:TrackPointExtension>
            <ns3:atemp>16.0</ns3:atemp>
          </ns3:TrackPointExtension>
        </extensions>
      </trkpt>
      <trkpt lat="42.62863688170909881591796875" lon="19.888915121555328369140625">
        <ele>1804</ele>
        <time>2026-06-16T09:04:04.000Z</time>
        <extensions>
          <ns3:TrackPointExtension>
            <ns3:atemp>16.0</ns3:atemp>
          </ns3:TrackPointExtension>
        </extensions>
      </trkpt>
      <trkpt lat="42.62861534021794795989990234375" lon="19.88889039494097232818603515625">
        <ele>1804.199951171875</ele>
        <time>2026-06-16T09:04:05.000Z</time>
        <extensions>
          <ns3:TrackPointExtension>
            <ns3:atemp>16.0</ns3:atemp>
          </ns3:TrackPointExtension>
        </extensions>
      </trkpt>
      <trkpt lat="42.6285959780216217041015625" lon="19.888865165412425994873046875">
        <ele>1804.4000244140625</ele>
        <time>2026-06-16T09:04:06.000Z</time>
        <extensions>
          <ns3:TrackPointExtension>
            <ns3:atemp>16.0</ns3:atemp>
          </ns3:TrackPointExtension>
        </extensions>
      </trkpt>
      <trkpt lat="42.628574185073375701904296875" lon="19.8888381756842136383056640625">
        <ele>1804.5999755859375</ele>
        <time>2026-06-16T09:04:07.000Z</time>
        <extensions>
          <ns3:TrackPointExtension>
            <ns3:atemp>16.0</ns3:atemp>
          </ns3:TrackPointExtension>
        </extensions>
      </trkpt>
      <trkpt lat="42.62855566106736660003662109375" lon="19.88881529308855533599853515625">
        <ele>1804.800048828125</ele>
        <time>2026-06-16T09:04:08.000Z</time>
        <extensions>
          <ns3:TrackPointExtension>
            <ns3:atemp>16.0</ns3:atemp>
          </ns3:TrackPointExtension>
        </extensions>
      </trkpt>
      <trkpt lat="42.62853286229074001312255859375" lon="19.88879383541643619537353515625">
        <ele>1805</ele>
        <time>2026-06-16T09:04:09.000Z</time>
        <extensions>
          <ns3:TrackPointExtension>
            <ns3:atemp>16.0</ns3:atemp>
          </ns3:TrackPointExtension>
        </extensions>
      </trkpt>
      <trkpt lat="42.62851341627538204193115234375" lon="19.888769946992397308349609375">
        <ele>1805.199951171875</ele>
        <time>2026-06-16T09:04:10.000Z</time>
        <extensions>
          <ns3:TrackPointExtension>
            <ns3:atemp>16.0</ns3:atemp>
          </ns3:TrackPointExtension>
        </extensions>
      </trkpt>
      <trkpt lat="42.628493718802928924560546875" lon="19.8887486569583415985107421875">
        <ele>1805.4000244140625</ele>
        <time>2026-06-16T09:04:11.000Z</time>
        <extensions>
          <ns3:TrackPointExtension>
            <ns3:atemp>16.0</ns3:atemp>
          </ns3:TrackPointExtension>
        </extensions>
      </trkpt>
      <trkpt lat="42.62847402133047580718994140625" lon="19.88873013295233249664306640625">
        <ele>1805.5999755859375</ele>
        <time>2026-06-16T09:04:12.000Z</time>
        <extensions>
          <ns3:TrackPointExtension>
            <ns3:atemp>16.0</ns3:atemp>
          </ns3:TrackPointExtension>
        </extensions>
      </trkpt>
      <trkpt lat="42.62845574878156185150146484375" lon="19.88870901055634021759033203125">
        <ele>1805.800048828125</ele>
        <time>2026-06-16T09:04:13.000Z</time>
        <extensions>
          <ns3:TrackPointExtension>
            <ns3:atemp>16.0</ns3:atemp>
          </ns3:TrackPointExtension>
        </extensions>
      </trkpt>
      <trkpt lat="42.6284350454807281494140625" lon="19.88868470303714275360107421875">
        <ele>1806.199951171875</ele>
        <time>2026-06-16T09:04:14.000Z</time>
        <extensions>
          <ns3:TrackPointExtension>
            <ns3:atemp>16.0</ns3:atemp>
          </ns3:TrackPointExtension>
        </extensions>
      </trkpt>
      <trkpt lat="42.62841769494116306304931640625" lon="19.88866173662245273590087890625">
        <ele>1806.4000244140625</ele>
        <time>2026-06-16T09:04:15.000Z</time>
        <extensions>
          <ns3:TrackPointExtension>
            <ns3:atemp>16.0</ns3:atemp>
          </ns3:TrackPointExtension>
        </extensions>
      </trkpt>
      <trkpt lat="42.6284013502299785614013671875" lon="19.8886370100080966949462890625">
        <ele>1806.4000244140625</ele>
        <time>2026-06-16T09:04:16.000Z</time>
        <extensions>
          <ns3:TrackPointExtension>
            <ns3:atemp>16.0</ns3:atemp>
          </ns3:TrackPointExtension>
        </extensions>
      </trkpt>
      <trkpt lat="42.6283872686326503753662109375" lon="19.8886118642985820770263671875">
        <ele>1806.4000244140625</ele>
        <time>2026-06-16T09:04:17.000Z</time>
        <extensions>
          <ns3:TrackPointExtension>
            <ns3:atemp>16.0</ns3:atemp>
          </ns3:TrackPointExtension>
        </extensions>
      </trkpt>
      <trkpt lat="42.62837327085435390472412109375" lon="19.88858713768422603607177734375">
        <ele>1806.4000244140625</ele>
        <time>2026-06-16T09:04:18.000Z</time>
        <extensions>
          <ns3:TrackPointExtension>
            <ns3:atemp>16.0</ns3:atemp>
          </ns3:TrackPointExtension>
        </extensions>
      </trkpt>
      <trkpt lat="42.62835985980927944183349609375" lon="19.88856182433664798736572265625">
        <ele>1806.5999755859375</ele>
        <time>2026-06-16T09:04:19.000Z</time>
        <extensions>
          <ns3:TrackPointExtension>
            <ns3:atemp>16.0</ns3:atemp>
          </ns3:TrackPointExtension>
        </extensions>
      </trkpt>
      <trkpt lat="42.628343515098094940185546875" lon="19.88854120485484600067138671875">
        <ele>1806.800048828125</ele>
        <time>2026-06-16T09:04:20.000Z</time>
        <extensions>
          <ns3:TrackPointExtension>
            <ns3:atemp>16.0</ns3:atemp>
          </ns3:TrackPointExtension>
        </extensions>
      </trkpt>
      <trkpt lat="42.62832633219659328460693359375" lon="19.88852360285818576812744140625">
        <ele>1807</ele>
        <time>2026-06-16T09:04:21.000Z</time>
        <extensions>
          <ns3:TrackPointExtension>
            <ns3:atemp>16.0</ns3:atemp>
          </ns3:TrackPointExtension>
        </extensions>
      </trkpt>
      <trkpt lat="42.62831007130444049835205078125" lon="19.88850197754800319671630859375">
        <ele>1807.4000244140625</ele>
        <time>2026-06-16T09:04:22.000Z</time>
        <extensions>
          <ns3:TrackPointExtension>
            <ns3:atemp>16.0</ns3:atemp>
          </ns3:TrackPointExtension>
        </extensions>
      </trkpt>
      <trkpt lat="42.62829414568841457366943359375" lon="19.88848471082746982574462890625">
        <ele>1807.800048828125</ele>
        <time>2026-06-16T09:04:23.000Z</time>
        <extensions>
          <ns3:TrackPointExtension>
            <ns3:atemp>16.0</ns3:atemp>
          </ns3:TrackPointExtension>
        </extensions>
      </trkpt>
      <trkpt lat="42.62827319093048572540283203125" lon="19.88847029395401477813720703125">
        <ele>1808</ele>
        <time>2026-06-16T09:04:24.000Z</time>
        <extensions>
          <ns3:TrackPointExtension>
            <ns3:atemp>16.0</ns3:atemp>
          </ns3:TrackPointExtension>
        </extensions>
      </trkpt>
      <trkpt lat="42.628256343305110931396484375" lon="19.88845554180443286895751953125">
        <ele>1808.199951171875</ele>
        <time>2026-06-16T09:04:25.000Z</time>
        <extensions>
          <ns3:TrackPointExtension>
            <ns3:atemp>16.0</ns3:atemp>
          </ns3:TrackPointExtension>
        </extensions>
      </trkpt>
      <trkpt lat="42.6282374002039432525634765625" lon="19.8884415440261363983154296875">
        <ele>1808.4000244140625</ele>
        <time>2026-06-16T09:04:26.000Z</time>
        <extensions>
          <ns3:TrackPointExtension>
            <ns3:atemp>16.0</ns3:atemp>
          </ns3:TrackPointExtension>
        </extensions>
      </trkpt>
      <trkpt lat="42.62821954675018787384033203125" lon="19.88842494785785675048828125">
        <ele>1808.5999755859375</ele>
        <time>2026-06-16T09:04:27.000Z</time>
        <extensions>
          <ns3:TrackPointExtension>
            <ns3:atemp>16.0</ns3:atemp>
          </ns3:TrackPointExtension>
        </extensions>
      </trkpt>
      <trkpt lat="42.62820362113416194915771484375" lon="19.88840307109057903289794921875">
        <ele>1808.800048828125</ele>
        <time>2026-06-16T09:04:28.000Z</time>
        <extensions>
          <ns3:TrackPointExtension>
            <ns3:atemp>16.0</ns3:atemp>
          </ns3:TrackPointExtension>
        </extensions>
      </trkpt>
      <trkpt lat="42.62818668968975543975830078125" lon="19.88838647492229938507080078125">
        <ele>1809</ele>
        <time>2026-06-16T09:04:29.000Z</time>
        <extensions>
          <ns3:TrackPointExtension>
            <ns3:atemp>16.0</ns3:atemp>
          </ns3:TrackPointExtension>
        </extensions>
      </trkpt>
      <trkpt lat="42.62817428447306156158447265625" lon="19.8883708007633686065673828125">
        <ele>1809.199951171875</ele>
        <time>2026-06-16T09:04:30.000Z</time>
        <extensions>
          <ns3:TrackPointExtension>
            <ns3:atemp>16.0</ns3:atemp>
          </ns3:TrackPointExtension>
        </extensions>
      </trkpt>
      <trkpt lat="42.628155760467052459716796875" lon="19.888350851833820343017578125">
        <ele>1809.4000244140625</ele>
        <time>2026-06-16T09:04:31.000Z</time>
        <extensions>
          <ns3:TrackPointExtension>
            <ns3:atemp>16.0</ns3:atemp>
          </ns3:TrackPointExtension>
        </extensions>
      </trkpt>
      <trkpt lat="42.62813664972782135009765625" lon="19.8883319087326526641845703125">
        <ele>1809.5999755859375</ele>
        <time>2026-06-16T09:04:32.000Z</time>
        <extensions>
          <ns3:TrackPointExtension>
            <ns3:atemp>16.0</ns3:atemp>
          </ns3:TrackPointExtension>
        </extensions>
      </trkpt>
      <trkpt lat="42.62812114320695400238037109375" lon="19.88830885849893093109130859375">
        <ele>1809.800048828125</ele>
        <time>2026-06-16T09:04:33.000Z</time>
        <extensions>
          <ns3:TrackPointExtension>
            <ns3:atemp>16.0</ns3:atemp>
          </ns3:TrackPointExtension>
        </extensions>
      </trkpt>
      <trkpt lat="42.62810991145670413970947265625" lon="19.88828890956938266754150390625">
        <ele>1810.199951171875</ele>
        <time>2026-06-16T09:04:34.000Z</time>
        <extensions>
          <ns3:TrackPointExtension>
            <ns3:atemp>16.0</ns3:atemp>
          </ns3:TrackPointExtension>
        </extensions>
      </trkpt>
      <trkpt lat="42.62809901498258113861083984375" lon="19.888268373906612396240234375">
        <ele>1810.4000244140625</ele>
        <time>2026-06-16T09:04:35.000Z</time>
        <extensions>
          <ns3:TrackPointExtension>
            <ns3:atemp>16.0</ns3:atemp>
          </ns3:TrackPointExtension>
        </extensions>
      </trkpt>
      <trkpt lat="42.62808593921363353729248046875" lon="19.88824364729225635528564453125">
        <ele>1810.5999755859375</ele>
        <time>2026-06-16T09:04:36.000Z</time>
        <extensions>
          <ns3:TrackPointExtension>
            <ns3:atemp>16.0</ns3:atemp>
          </ns3:TrackPointExtension>
        </extensions>
      </trkpt>
      <trkpt lat="42.62807630002498626708984375" lon="19.88822185434401035308837890625">
        <ele>1810.800048828125</ele>
        <time>2026-06-16T09:04:37.000Z</time>
        <extensions>
          <ns3:TrackPointExtension>
            <ns3:atemp>16.0</ns3:atemp>
          </ns3:TrackPointExtension>
        </extensions>
      </trkpt>
      <trkpt lat="42.62806565500795841217041015625" lon="19.888204671442508697509765625">
        <ele>1811</ele>
        <time>2026-06-16T09:04:38.000Z</time>
        <extensions>
          <ns3:TrackPointExtension>
            <ns3:atemp>16.0</ns3:atemp>
          </ns3:TrackPointExtension>
        </extensions>
      </trkpt>
      <trkpt lat="42.62805526144802570343017578125" lon="19.888183213770389556884765625">
        <ele>1811.199951171875</ele>
        <time>2026-06-16T09:04:39.000Z</time>
        <extensions>
          <ns3:TrackPointExtension>
            <ns3:atemp>16.0</ns3:atemp>
          </ns3:TrackPointExtension>
        </extensions>
      </trkpt>
      <trkpt lat="42.6280446164309978485107421875" lon="19.8881600797176361083984375">
        <ele>1811.4000244140625</ele>
        <time>2026-06-16T09:04:40.000Z</time>
        <extensions>
          <ns3:TrackPointExtension>
            <ns3:atemp>16.0</ns3:atemp>
          </ns3:TrackPointExtension>
        </extensions>
      </trkpt>
      <trkpt lat="42.6280382461845874786376953125" lon="19.88813166506588459014892578125">
        <ele>1811.5999755859375</ele>
        <time>2026-06-16T09:04:41.000Z</time>
        <extensions>
          <ns3:TrackPointExtension>
            <ns3:atemp>16.0</ns3:atemp>
          </ns3:TrackPointExtension>
        </extensions>
      </trkpt>
      <trkpt lat="42.6280261762440204620361328125" lon="19.88810903392732143402099609375">
        <ele>1812.199951171875</ele>
        <time>2026-06-16T09:04:42.000Z</time>
        <extensions>
          <ns3:TrackPointExtension>
            <ns3:atemp>16.0</ns3:atemp>
          </ns3:TrackPointExtension>
        </extensions>
      </trkpt>
      <trkpt lat="42.628015615046024322509765625" lon="19.88808925263583660125732421875">
        <ele>1812.5999755859375</ele>
        <time>2026-06-16T09:04:43.000Z</time>
        <extensions>
          <ns3:TrackPointExtension>
            <ns3:atemp>16.0</ns3:atemp>
          </ns3:TrackPointExtension>
        </extensions>
      </trkpt>
      <trkpt lat="42.628004550933837890625" lon="19.8880710639059543609619140625">
        <ele>1812.800048828125</ele>
        <time>2026-06-16T09:04:44.000Z</time>
        <extensions>
          <ns3:TrackPointExtension>
            <ns3:atemp>16.0</ns3:atemp>
          </ns3:TrackPointExtension>
        </extensions>
      </trkpt>
      <trkpt lat="42.62799474410712718963623046875" lon="19.8880499415099620819091796875">
        <ele>1813.199951171875</ele>
        <time>2026-06-16T09:04:45.000Z</time>
        <extensions>
          <ns3:TrackPointExtension>
            <ns3:atemp>16.0</ns3:atemp>
          </ns3:TrackPointExtension>
        </extensions>
      </trkpt>
      <trkpt lat="42.6279819197952747344970703125" lon="19.888030998408794403076171875">
        <ele>1813.4000244140625</ele>
        <time>2026-06-16T09:04:46.000Z</time>
        <extensions>
          <ns3:TrackPointExtension>
            <ns3:atemp>16.0</ns3:atemp>
          </ns3:TrackPointExtension>
        </extensions>
      </trkpt>
      <trkpt lat="42.62796473689377307891845703125" lon="19.888014234602451324462890625">
        <ele>1813.800048828125</ele>
        <time>2026-06-16T09:04:47.000Z</time>
        <extensions>
          <ns3:TrackPointExtension>
            <ns3:atemp>16.0</ns3:atemp>
          </ns3:TrackPointExtension>
        </extensions>
      </trkpt>
      <trkpt lat="42.627948224544525146484375" lon="19.8880003206431865692138671875">
        <ele>1814</ele>
        <time>2026-06-16T09:04:48.000Z</time>
        <extensions>
          <ns3:TrackPointExtension>
            <ns3:atemp>16.0</ns3:atemp>
          </ns3:TrackPointExtension>
        </extensions>
      </trkpt>
      <trkpt lat="42.6279309578239917755126953125" lon="19.88798833452165126800537109375">
        <ele>1814.199951171875</ele>
        <time>2026-06-16T09:04:49.000Z</time>
        <extensions>
          <ns3:TrackPointExtension>
            <ns3:atemp>16.0</ns3:atemp>
          </ns3:TrackPointExtension>
        </extensions>
      </trkpt>
      <trkpt lat="42.62791444547474384307861328125" lon="19.887976683676242828369140625">
        <ele>1814.4000244140625</ele>
        <time>2026-06-16T09:04:50.000Z</time>
        <extensions>
          <ns3:TrackPointExtension>
            <ns3:atemp>16.0</ns3:atemp>
          </ns3:TrackPointExtension>
        </extensions>
      </trkpt>
      <trkpt lat="42.62789650820195674896240234375" lon="19.88796654157340526580810546875">
        <ele>1814.5999755859375</ele>
        <time>2026-06-16T09:04:51.000Z</time>
        <extensions>
          <ns3:TrackPointExtension>
            <ns3:atemp>16.0</ns3:atemp>
          </ns3:TrackPointExtension>
        </extensions>
      </trkpt>
      <trkpt lat="42.6278771460056304931640625" lon="19.88796000368893146514892578125">
        <ele>1814.800048828125</ele>
        <time>2026-06-16T09:04:52.000Z</time>
        <extensions>
          <ns3:TrackPointExtension>
            <ns3:atemp>16.0</ns3:atemp>
          </ns3:TrackPointExtension>
        </extensions>
      </trkpt>
      <trkpt lat="42.6278618909418582916259765625" lon="19.88795153796672821044921875">
        <ele>1815</ele>
        <time>2026-06-16T09:04:53.000Z</time>
        <extensions>
          <ns3:TrackPointExtension>
            <ns3:atemp>16.0</ns3:atemp>
          </ns3:TrackPointExtension>
        </extensions>
      </trkpt>
      <trkpt lat="42.6278454624116420745849609375" lon="19.887941814959049224853515625">
        <ele>1815.199951171875</ele>
        <time>2026-06-16T09:04:54.000Z</time>
        <extensions>
          <ns3:TrackPointExtension>
            <ns3:atemp>16.0</ns3:atemp>
          </ns3:TrackPointExtension>
        </extensions>
      </trkpt>
      <trkpt lat="42.62783146463334560394287109375" lon="19.88792882300913333892822265625">
        <ele>1815.5999755859375</ele>
        <time>2026-06-16T09:04:55.000Z</time>
        <extensions>
          <ns3:TrackPointExtension>
            <ns3:atemp>16.0</ns3:atemp>
          </ns3:TrackPointExtension>
        </extensions>
      </trkpt>
      <trkpt lat="42.62781905941665172576904296875" lon="19.8879148252308368682861328125">
        <ele>1816.199951171875</ele>
        <time>2026-06-16T09:04:56.000Z</time>
        <extensions>
          <ns3:TrackPointExtension>
            <ns3:atemp>16.0</ns3:atemp>
          </ns3:TrackPointExtension>
        </extensions>
      </trkpt>
      <trkpt lat="42.627807743847370147705078125" lon="19.8879030905663967132568359375">
        <ele>1816.4000244140625</ele>
        <time>2026-06-16T09:04:57.000Z</time>
        <extensions>
          <ns3:TrackPointExtension>
            <ns3:atemp>16.0</ns3:atemp>
          </ns3:TrackPointExtension>
        </extensions>
      </trkpt>
      <trkpt lat="42.627797015011310577392578125" lon="19.887885488569736480712890625">
        <ele>1816.800048828125</ele>
        <time>2026-06-16T09:04:58.000Z</time>
        <extensions>
          <ns3:TrackPointExtension>
            <ns3:atemp>16.0</ns3:atemp>
          </ns3:TrackPointExtension>
        </extensions>
      </trkpt>
      <trkpt lat="42.6277844421565532684326171875" lon="19.88787199370563030242919921875">
        <ele>1817</ele>
        <time>2026-06-16T09:04:59.000Z</time>
        <extensions>
          <ns3:TrackPointExtension>
            <ns3:atemp>16.0</ns3:atemp>
          </ns3:TrackPointExtension>
        </extensions>
      </trkpt>
      <trkpt lat="42.62777077965438365936279296875" lon="19.88785455934703350067138671875">
        <ele>1817.199951171875</ele>
        <time>2026-06-16T09:05:00.000Z</time>
        <extensions>
          <ns3:TrackPointExtension>
            <ns3:atemp>16.0</ns3:atemp>
          </ns3:TrackPointExtension>
        </extensions>
      </trkpt>
      <trkpt lat="42.62775870971381664276123046875" lon="19.88783645443618297576904296875">
        <ele>1817.4000244140625</ele>
        <time>2026-06-16T09:05:01.000Z</time>
        <extensions>
          <ns3:TrackPointExtension>
            <ns3:atemp>16.0</ns3:atemp>
          </ns3:TrackPointExtension>
        </extensions>
      </trkpt>
      <trkpt lat="42.62775183655321598052978515625" lon="19.8878196068108081817626953125">
        <ele>1817.5999755859375</ele>
        <time>2026-06-16T09:05:02.000Z</time>
        <extensions>
          <ns3:TrackPointExtension>
            <ns3:atemp>16.0</ns3:atemp>
          </ns3:TrackPointExtension>
        </extensions>
      </trkpt>
      <trkpt lat="42.62774630449712276458740234375" lon="19.8878021724522113800048828125">
        <ele>1817.800048828125</ele>
        <time>2026-06-16T09:05:03.000Z</time>
        <extensions>
          <ns3:TrackPointExtension>
            <ns3:atemp>16.0</ns3:atemp>
          </ns3:TrackPointExtension>
        </extensions>
      </trkpt>
      <trkpt lat="42.62774060480296611785888671875" lon="19.88778482191264629364013671875">
        <ele>1818</ele>
        <time>2026-06-16T09:05:04.000Z</time>
        <extensions>
          <ns3:TrackPointExtension>
            <ns3:atemp>16.0</ns3:atemp>
          </ns3:TrackPointExtension>
        </extensions>
      </trkpt>
      <trkpt lat="42.62772920541465282440185546875" lon="19.88777451217174530029296875">
        <ele>1818.199951171875</ele>
        <time>2026-06-16T09:05:05.000Z</time>
        <extensions>
          <ns3:TrackPointExtension>
            <ns3:atemp>16.0</ns3:atemp>
          </ns3:TrackPointExtension>
        </extensions>
      </trkpt>
      <trkpt lat="42.627717889845371246337890625" lon="19.88775917328894138336181640625">
        <ele>1818.4000244140625</ele>
        <time>2026-06-16T09:05:06.000Z</time>
        <extensions>
          <ns3:TrackPointExtension>
            <ns3:atemp>16.0</ns3:atemp>
          </ns3:TrackPointExtension>
        </extensions>
      </trkpt>
      <trkpt lat="42.6277147047221660614013671875" lon="19.8877445049583911895751953125">
        <ele>1818.5999755859375</ele>
        <time>2026-06-16T09:05:07.000Z</time>
        <extensions>
          <ns3:TrackPointExtension>
            <ns3:atemp>16.0</ns3:atemp>
          </ns3:TrackPointExtension>
        </extensions>
      </trkpt>
      <trkpt lat="42.62770875357091426849365234375" lon="19.8877267353236675262451171875">
        <ele>1818.800048828125</ele>
        <time>2026-06-16T09:05:08.000Z</time>
        <extensions>
          <ns3:TrackPointExtension>
            <ns3:atemp>16.0</ns3:atemp>
          </ns3:TrackPointExtension>
        </extensions>
      </trkpt>
      <trkpt lat="42.62770372442901134490966796875" lon="19.8877082951366901397705078125">
        <ele>1819</ele>
        <time>2026-06-16T09:05:09.000Z</time>
        <extensions>
          <ns3:TrackPointExtension>
            <ns3:atemp>16.0</ns3:atemp>
          </ns3:TrackPointExtension>
        </extensions>
      </trkpt>
      <trkpt lat="42.62769668363034725189208984375" lon="19.88768558017909526824951171875">
        <ele>1819.4000244140625</ele>
        <time>2026-06-16T09:05:10.000Z</time>
        <extensions>
          <ns3:TrackPointExtension>
            <ns3:atemp>16.0</ns3:atemp>
          </ns3:TrackPointExtension>
        </extensions>
      </trkpt>
      <trkpt lat="42.62769031338393688201904296875" lon="19.88766730763018131256103515625">
        <ele>1819.5999755859375</ele>
        <time>2026-06-16T09:05:11.000Z</time>
        <extensions>
          <ns3:TrackPointExtension>
            <ns3:atemp>16.0</ns3:atemp>
          </ns3:TrackPointExtension>
        </extensions>
      </trkpt>
      <trkpt lat="42.62768176384270191192626953125" lon="19.887652136385440826416015625">
        <ele>1819.800048828125</ele>
        <time>2026-06-16T09:05:12.000Z</time>
        <extensions>
          <ns3:TrackPointExtension>
            <ns3:atemp>16.0</ns3:atemp>
          </ns3:TrackPointExtension>
        </extensions>
      </trkpt>
      <trkpt lat="42.6276738010346889495849609375" lon="19.88764048554003238677978515625">
        <ele>1820.199951171875</ele>
        <time>2026-06-16T09:05:13.000Z</time>
        <extensions>
          <ns3:TrackPointExtension>
            <ns3:atemp>16.0</ns3:atemp>
          </ns3:TrackPointExtension>
        </extensions>
      </trkpt>
      <trkpt lat="42.6276664249598979949951171875" lon="19.88762405700981616973876953125">
        <ele>1820.5999755859375</ele>
        <time>2026-06-16T09:05:14.000Z</time>
        <extensions>
          <ns3:TrackPointExtension>
            <ns3:atemp>16.0</ns3:atemp>
          </ns3:TrackPointExtension>
        </extensions>
      </trkpt>
      <trkpt lat="42.627661228179931640625" lon="19.887604527175426483154296875">
        <ele>1821.199951171875</ele>
        <time>2026-06-16T09:05:15.000Z</time>
        <extensions>
          <ns3:TrackPointExtension>
            <ns3:atemp>16.0</ns3:atemp>
          </ns3:TrackPointExtension>
        </extensions>
      </trkpt>
      <trkpt lat="42.62765510939061641693115234375" lon="19.88758885301649570465087890625">
        <ele>1821.4000244140625</ele>
        <time>2026-06-16T09:05:16.000Z</time>
        <extensions>
          <ns3:TrackPointExtension>
            <ns3:atemp>16.0</ns3:atemp>
          </ns3:TrackPointExtension>
        </extensions>
      </trkpt>
      <trkpt lat="42.62764706276357173919677734375" lon="19.88757175393402576446533203125">
        <ele>1821.800048828125</ele>
        <time>2026-06-16T09:05:17.000Z</time>
        <extensions>
          <ns3:TrackPointExtension>
            <ns3:atemp>16.0</ns3:atemp>
          </ns3:TrackPointExtension>
        </extensions>
      </trkpt>
      <trkpt lat="42.62763650156557559967041015625" lon="19.887562952935695648193359375">
        <ele>1822.199951171875</ele>
        <time>2026-06-16T09:05:18.000Z</time>
        <extensions>
          <ns3:TrackPointExtension>
            <ns3:atemp>16.0</ns3:atemp>
          </ns3:TrackPointExtension>
        </extensions>
      </trkpt>
      <trkpt lat="42.62762728147208690643310546875" lon="19.8875490389764308929443359375">
        <ele>1822.5999755859375</ele>
        <time>2026-06-16T09:05:19.000Z</time>
        <extensions>
          <ns3:TrackPointExtension>
            <ns3:atemp>16.0</ns3:atemp>
          </ns3:TrackPointExtension>
        </extensions>
      </trkpt>
      <trkpt lat="42.62761496007442474365234375" lon="19.887536801397800445556640625">
        <ele>1822.800048828125</ele>
        <time>2026-06-16T09:05:20.000Z</time>
        <extensions>
          <ns3:TrackPointExtension>
            <ns3:atemp>16.0</ns3:atemp>
          </ns3:TrackPointExtension>
        </extensions>
      </trkpt>
      <trkpt lat="42.62760146521031856536865234375" lon="19.8875242285430431365966796875">
        <ele>1823</ele>
        <time>2026-06-16T09:05:21.000Z</time>
        <extensions>
          <ns3:TrackPointExtension>
            <ns3:atemp>16.0</ns3:atemp>
          </ns3:TrackPointExtension>
        </extensions>
      </trkpt>
      <trkpt lat="42.62758813798427581787109375" lon="19.8875163495540618896484375">
        <ele>1823.4000244140625</ele>
        <time>2026-06-16T09:05:22.000Z</time>
        <extensions>
          <ns3:TrackPointExtension>
            <ns3:atemp>16.0</ns3:atemp>
          </ns3:TrackPointExtension>
        </extensions>
      </trkpt>
      <trkpt lat="42.6275767385959625244140625" lon="19.88750805146992206573486328125">
        <ele>1823.800048828125</ele>
        <time>2026-06-16T09:05:23.000Z</time>
        <extensions>
          <ns3:TrackPointExtension>
            <ns3:atemp>16.0</ns3:atemp>
          </ns3:TrackPointExtension>
        </extensions>
      </trkpt>
      <trkpt lat="42.627565003931522369384765625" lon="19.88749916665256023406982421875">
        <ele>1824</ele>
        <time>2026-06-16T09:05:24.000Z</time>
        <extensions>
          <ns3:TrackPointExtension>
            <ns3:atemp>16.0</ns3:atemp>
          </ns3:TrackPointExtension>
        </extensions>
      </trkpt>
      <trkpt lat="42.62755285017192363739013671875" lon="19.8874853365123271942138671875">
        <ele>1824.4000244140625</ele>
        <time>2026-06-16T09:05:25.000Z</time>
        <extensions>
          <ns3:TrackPointExtension>
            <ns3:atemp>16.0</ns3:atemp>
          </ns3:TrackPointExtension>
        </extensions>
      </trkpt>
      <trkpt lat="42.62754111550748348236083984375" lon="19.88747670315206050872802734375">
        <ele>1824.800048828125</ele>
        <time>2026-06-16T09:05:26.000Z</time>
        <extensions>
          <ns3:TrackPointExtension>
            <ns3:atemp>16.0</ns3:atemp>
          </ns3:TrackPointExtension>
        </extensions>
      </trkpt>
      <trkpt lat="42.6275306381285190582275390625" lon="19.8874645493924617767333984375">
        <ele>1825.199951171875</ele>
        <time>2026-06-16T09:05:27.000Z</time>
        <extensions>
          <ns3:TrackPointExtension>
            <ns3:atemp>16.0</ns3:atemp>
          </ns3:TrackPointExtension>
        </extensions>
      </trkpt>
      <trkpt lat="42.62751680798828601837158203125" lon="19.887455999851226806640625">
        <ele>1825.4000244140625</ele>
        <time>2026-06-16T09:05:28.000Z</time>
        <extensions>
          <ns3:TrackPointExtension>
            <ns3:atemp>16.0</ns3:atemp>
          </ns3:TrackPointExtension>
        </extensions>
      </trkpt>
      <trkpt lat="42.6275054924190044403076171875" lon="19.8874457739293575286865234375">
        <ele>1825.5999755859375</ele>
        <time>2026-06-16T09:05:29.000Z</time>
        <extensions>
          <ns3:TrackPointExtension>
            <ns3:atemp>16.0</ns3:atemp>
          </ns3:TrackPointExtension>
        </extensions>
      </trkpt>
      <trkpt lat="42.6274934224784374237060546875" lon="19.8874350450932979583740234375">
        <ele>1825.5999755859375</ele>
        <time>2026-06-16T09:05:30.000Z</time>
        <extensions>
          <ns3:TrackPointExtension>
            <ns3:atemp>16.0</ns3:atemp>
          </ns3:TrackPointExtension>
        </extensions>
      </trkpt>
      <trkpt lat="42.62747791595757007598876953125" lon="19.88742456771433353424072265625">
        <ele>1825.800048828125</ele>
        <time>2026-06-16T09:05:31.000Z</time>
        <extensions>
          <ns3:TrackPointExtension>
            <ns3:atemp>16.0</ns3:atemp>
          </ns3:TrackPointExtension>
        </extensions>
      </trkpt>
      <trkpt lat="42.627464421093463897705078125" lon="19.88741199485957622528076171875">
        <ele>1826</ele>
        <time>2026-06-16T09:05:32.000Z</time>
        <extensions>
          <ns3:TrackPointExtension>
            <ns3:atemp>16.0</ns3:atemp>
          </ns3:TrackPointExtension>
        </extensions>
      </trkpt>
      <trkpt lat="42.627449668943881988525390625" lon="19.88739875145256519317626953125">
        <ele>1826.4000244140625</ele>
        <time>2026-06-16T09:05:33.000Z</time>
        <extensions>
          <ns3:TrackPointExtension>
            <ns3:atemp>16.0</ns3:atemp>
          </ns3:TrackPointExtension>
        </extensions>
      </trkpt>
      <trkpt lat="42.62743567116558551788330078125" lon="19.887385256588459014892578125">
        <ele>1826.800048828125</ele>
        <time>2026-06-16T09:05:34.000Z</time>
        <extensions>
          <ns3:TrackPointExtension>
            <ns3:atemp>16.0</ns3:atemp>
          </ns3:TrackPointExtension>
        </extensions>
      </trkpt>
      <trkpt lat="42.62741941027343273162841796875" lon="19.88737226463854312896728515625">
        <ele>1827</ele>
        <time>2026-06-16T09:05:35.000Z</time>
        <extensions>
          <ns3:TrackPointExtension>
            <ns3:atemp>16.0</ns3:atemp>
          </ns3:TrackPointExtension>
        </extensions>
      </trkpt>
      <trkpt lat="42.62740482576191425323486328125" lon="19.88736086525022983551025390625">
        <ele>1827.199951171875</ele>
        <time>2026-06-16T09:05:36.000Z</time>
        <extensions>
          <ns3:TrackPointExtension>
            <ns3:atemp>16.0</ns3:atemp>
          </ns3:TrackPointExtension>
        </extensions>
      </trkpt>
      <trkpt lat="42.62738906778395175933837890625" lon="19.8873532377183437347412109375">
        <ele>1827.4000244140625</ele>
        <time>2026-06-16T09:05:37.000Z</time>
        <extensions>
          <ns3:TrackPointExtension>
            <ns3:atemp>16.0</ns3:atemp>
          </ns3:TrackPointExtension>
        </extensions>
      </trkpt>
      <trkpt lat="42.627375908195972442626953125" lon="19.8873445205390453338623046875">
        <ele>1827.5999755859375</ele>
        <time>2026-06-16T09:05:38.000Z</time>
        <extensions>
          <ns3:TrackPointExtension>
            <ns3:atemp>16.0</ns3:atemp>
          </ns3:TrackPointExtension>
        </extensions>
      </trkpt>
      <trkpt lat="42.6273623295128345489501953125" lon="19.88733152858912944793701171875">
        <ele>1827.800048828125</ele>
        <time>2026-06-16T09:05:39.000Z</time>
        <extensions>
          <ns3:TrackPointExtension>
            <ns3:atemp>16.0</ns3:atemp>
          </ns3:TrackPointExtension>
        </extensions>
      </trkpt>
      <trkpt lat="42.62734782882034778594970703125" lon="19.88731124438345432281494140625">
        <ele>1828</ele>
        <time>2026-06-16T09:05:40.000Z</time>
        <extensions>
          <ns3:TrackPointExtension>
            <ns3:atemp>16.0</ns3:atemp>
          </ns3:TrackPointExtension>
        </extensions>
      </trkpt>
      <trkpt lat="42.62733676470816135406494140625" lon="19.88729230128228664398193359375">
        <ele>1828.4000244140625</ele>
        <time>2026-06-16T09:05:41.000Z</time>
        <extensions>
          <ns3:TrackPointExtension>
            <ns3:atemp>16.0</ns3:atemp>
          </ns3:TrackPointExtension>
        </extensions>
      </trkpt>
      <trkpt lat="42.62732368893921375274658203125" lon="19.88727805204689502716064453125">
        <ele>1828.5999755859375</ele>
        <time>2026-06-16T09:05:42.000Z</time>
        <extensions>
          <ns3:TrackPointExtension>
            <ns3:atemp>16.0</ns3:atemp>
          </ns3:TrackPointExtension>
        </extensions>
      </trkpt>
      <trkpt lat="42.6273103617131710052490234375" lon="19.88726355135440826416015625">
        <ele>1829</ele>
        <time>2026-06-16T09:05:43.000Z</time>
        <extensions>
          <ns3:TrackPointExtension>
            <ns3:atemp>16.0</ns3:atemp>
          </ns3:TrackPointExtension>
        </extensions>
      </trkpt>
      <trkpt lat="42.62729703448712825775146484375" lon="19.88725357688963413238525390625">
        <ele>1829.199951171875</ele>
        <time>2026-06-16T09:05:44.000Z</time>
        <extensions>
          <ns3:TrackPointExtension>
            <ns3:atemp>16.0</ns3:atemp>
          </ns3:TrackPointExtension>
        </extensions>
      </trkpt>
      <trkpt lat="42.62728504836559295654296875" lon="19.88724318332970142364501953125">
        <ele>1829.5999755859375</ele>
        <time>2026-06-16T09:05:45.000Z</time>
        <extensions>
          <ns3:TrackPointExtension>
            <ns3:atemp>16.0</ns3:atemp>
          </ns3:TrackPointExtension>
        </extensions>
      </trkpt>
      <trkpt lat="42.62726962566375732421875" lon="19.88723211921751499176025390625">
        <ele>1829.800048828125</ele>
        <time>2026-06-16T09:05:46.000Z</time>
        <extensions>
          <ns3:TrackPointExtension>
            <ns3:atemp>16.0</ns3:atemp>
          </ns3:TrackPointExtension>
        </extensions>
      </trkpt>
      <trkpt lat="42.62725143693387508392333984375" lon="19.88721837289631366729736328125">
        <ele>1830.199951171875</ele>
        <time>2026-06-16T09:05:47.000Z</time>
        <extensions>
          <ns3:TrackPointExtension>
            <ns3:atemp>16.0</ns3:atemp>
          </ns3:TrackPointExtension>
        </extensions>
      </trkpt>
      <trkpt lat="42.62723567895591259002685546875" lon="19.8872052133083343505859375">
        <ele>1830.4000244140625</ele>
        <time>2026-06-16T09:05:48.000Z</time>
        <extensions>
          <ns3:TrackPointExtension>
            <ns3:atemp>16.0</ns3:atemp>
          </ns3:TrackPointExtension>
        </extensions>
      </trkpt>
      <trkpt lat="42.6272200047969818115234375" lon="19.8871956579387187957763671875">
        <ele>1830.5999755859375</ele>
        <time>2026-06-16T09:05:49.000Z</time>
        <extensions>
          <ns3:TrackPointExtension>
            <ns3:atemp>16.0</ns3:atemp>
          </ns3:TrackPointExtension>
        </extensions>
      </trkpt>
      <trkpt lat="42.62720399536192417144775390625" lon="19.8871872760355472564697265625">
        <ele>1830.800048828125</ele>
        <time>2026-06-16T09:05:50.000Z</time>
        <extensions>
          <ns3:TrackPointExtension>
            <ns3:atemp>16.0</ns3:atemp>
          </ns3:TrackPointExtension>
        </extensions>
      </trkpt>
      <trkpt lat="42.6271893270313739776611328125" lon="19.8871802352368831634521484375">
        <ele>1831</ele>
        <time>2026-06-16T09:05:51.000Z</time>
        <extensions>
          <ns3:TrackPointExtension>
            <ns3:atemp>16.0</ns3:atemp>
          </ns3:TrackPointExtension>
        </extensions>
      </trkpt>
      <trkpt lat="42.627181112766265869140625" lon="19.88716875202953815460205078125">
        <ele>1831.4000244140625</ele>
        <time>2026-06-16T09:05:52.000Z</time>
        <extensions>
          <ns3:TrackPointExtension>
            <ns3:atemp>16.0</ns3:atemp>
          </ns3:TrackPointExtension>
        </extensions>
      </trkpt>
      <trkpt lat="42.6271685399115085601806640625" lon="19.887155257165431976318359375">
        <ele>1831.5999755859375</ele>
        <time>2026-06-16T09:05:53.000Z</time>
        <extensions>
          <ns3:TrackPointExtension>
            <ns3:atemp>16.0</ns3:atemp>
          </ns3:TrackPointExtension>
        </extensions>
      </trkpt>
      <trkpt lat="42.62715403921902179718017578125" lon="19.88714285194873809814453125">
        <ele>1832</ele>
        <time>2026-06-16T09:05:54.000Z</time>
        <extensions>
          <ns3:TrackPointExtension>
            <ns3:atemp>17.0</ns3:atemp>
          </ns3:TrackPointExtension>
        </extensions>
      </trkpt>
      <trkpt lat="42.62713911943137645721435546875" lon="19.8871326260268688201904296875">
        <ele>1832.199951171875</ele>
        <time>2026-06-16T09:05:55.000Z</time>
        <extensions>
          <ns3:TrackPointExtension>
            <ns3:atemp>17.0</ns3:atemp>
          </ns3:TrackPointExtension>
        </extensions>
      </trkpt>
      <trkpt lat="42.6271252892911434173583984375" lon="19.88712181337177753448486328125">
        <ele>1832.5999755859375</ele>
        <time>2026-06-16T09:05:56.000Z</time>
        <extensions>
          <ns3:TrackPointExtension>
            <ns3:atemp>17.0</ns3:atemp>
          </ns3:TrackPointExtension>
        </extensions>
      </trkpt>
      <trkpt lat="42.62711347080767154693603515625" lon="19.887111000716686248779296875">
        <ele>1832.800048828125</ele>
        <time>2026-06-16T09:05:57.000Z</time>
        <extensions>
          <ns3:TrackPointExtension>
            <ns3:atemp>17.0</ns3:atemp>
          </ns3:TrackPointExtension>
        </extensions>
      </trkpt>
      <trkpt lat="42.6271031610667705535888671875" lon="19.88709725439548492431640625">
        <ele>1833.199951171875</ele>
        <time>2026-06-16T09:05:58.000Z</time>
        <extensions>
          <ns3:TrackPointExtension>
            <ns3:atemp>17.0</ns3:atemp>
          </ns3:TrackPointExtension>
        </extensions>
      </trkpt>
      <trkpt lat="42.627094946801662445068359375" lon="19.88708384335041046142578125">
        <ele>1833.4000244140625</ele>
        <time>2026-06-16T09:05:59.000Z</time>
        <extensions>
          <ns3:TrackPointExtension>
            <ns3:atemp>17.0</ns3:atemp>
          </ns3:TrackPointExtension>
        </extensions>
      </trkpt>
      <trkpt lat="42.627082206308841705322265625" lon="19.88707252778112888336181640625">
        <ele>1833.800048828125</ele>
        <time>2026-06-16T09:06:00.000Z</time>
        <extensions>
          <ns3:TrackPointExtension>
            <ns3:atemp>17.0</ns3:atemp>
          </ns3:TrackPointExtension>
        </extensions>
      </trkpt>
      <trkpt lat="42.627073824405670166015625" lon="19.88705744035542011260986328125">
        <ele>1834.199951171875</ele>
        <time>2026-06-16T09:06:01.000Z</time>
        <extensions>
          <ns3:TrackPointExtension>
            <ns3:atemp>17.0</ns3:atemp>
          </ns3:TrackPointExtension>
        </extensions>
      </trkpt>
      <trkpt lat="42.6270629279315471649169921875" lon="19.887045286595821380615234375">
        <ele>1834.4000244140625</ele>
        <time>2026-06-16T09:06:02.000Z</time>
        <extensions>
          <ns3:TrackPointExtension>
            <ns3:atemp>17.0</ns3:atemp>
          </ns3:TrackPointExtension>
        </extensions>
      </trkpt>
      <trkpt lat="42.6270508579909801483154296875" lon="19.887034893035888671875">
        <ele>1834.5999755859375</ele>
        <time>2026-06-16T09:06:03.000Z</time>
        <extensions>
          <ns3:TrackPointExtension>
            <ns3:atemp>17.0</ns3:atemp>
          </ns3:TrackPointExtension>
        </extensions>
      </trkpt>
      <trkpt lat="42.62703937478363513946533203125" lon="19.88702089525759220123291015625">
        <ele>1834.800048828125</ele>
        <time>2026-06-16T09:06:04.000Z</time>
        <extensions>
          <ns3:TrackPointExtension>
            <ns3:atemp>17.0</ns3:atemp>
          </ns3:TrackPointExtension>
        </extensions>
      </trkpt>
      <trkpt lat="42.62702562846243381500244140625" lon="19.8870052210986614227294921875">
        <ele>1835</ele>
        <time>2026-06-16T09:06:05.000Z</time>
        <extensions>
          <ns3:TrackPointExtension>
            <ns3:atemp>17.0</ns3:atemp>
          </ns3:TrackPointExtension>
        </extensions>
      </trkpt>
      <trkpt lat="42.627009786665439605712890625" lon="19.886989630758762359619140625">
        <ele>1835.4000244140625</ele>
        <time>2026-06-16T09:06:06.000Z</time>
        <extensions>
          <ns3:TrackPointExtension>
            <ns3:atemp>17.0</ns3:atemp>
          </ns3:TrackPointExtension>
        </extensions>
      </trkpt>
      <trkpt lat="42.62699008919298648834228515625" lon="19.8869787342846393585205078125">
        <ele>1835.800048828125</ele>
        <time>2026-06-16T09:06:07.000Z</time>
        <extensions>
          <ns3:TrackPointExtension>
            <ns3:atemp>17.0</ns3:atemp>
          </ns3:TrackPointExtension>
        </extensions>
      </trkpt>
      <trkpt lat="42.6269724033772945404052734375" lon="19.8869686760008335113525390625">
        <ele>1836.199951171875</ele>
        <time>2026-06-16T09:06:08.000Z</time>
        <extensions>
          <ns3:TrackPointExtension>
            <ns3:atemp>17.0</ns3:atemp>
          </ns3:TrackPointExtension>
        </extensions>
      </trkpt>
      <trkpt lat="42.6269559748470783233642578125" lon="19.8869589529931545257568359375">
        <ele>1836.5999755859375</ele>
        <time>2026-06-16T09:06:09.000Z</time>
        <extensions>
          <ns3:TrackPointExtension>
            <ns3:atemp>17.0</ns3:atemp>
          </ns3:TrackPointExtension>
        </extensions>
      </trkpt>
      <trkpt lat="42.62694046832621097564697265625" lon="19.886949397623538970947265625">
        <ele>1837</ele>
        <time>2026-06-16T09:06:10.000Z</time>
        <extensions>
          <ns3:TrackPointExtension>
            <ns3:atemp>17.0</ns3:atemp>
          </ns3:TrackPointExtension>
        </extensions>
      </trkpt>
      <trkpt lat="42.62692437507212162017822265625" lon="19.88694059662520885467529296875">
        <ele>1837.199951171875</ele>
        <time>2026-06-16T09:06:11.000Z</time>
        <extensions>
          <ns3:TrackPointExtension>
            <ns3:atemp>17.0</ns3:atemp>
          </ns3:TrackPointExtension>
        </extensions>
      </trkpt>
      <trkpt lat="42.6269076950848102569580078125" lon="19.88693422637879848480224609375">
        <ele>1837.5999755859375</ele>
        <time>2026-06-16T09:06:12.000Z</time>
        <extensions>
          <ns3:TrackPointExtension>
            <ns3:atemp>17.0</ns3:atemp>
          </ns3:TrackPointExtension>
        </extensions>
      </trkpt>
      <trkpt lat="42.62688766233623027801513671875" lon="19.88692366518080234527587890625">
        <ele>1838.199951171875</ele>
        <time>2026-06-16T09:06:13.000Z</time>
        <extensions>
          <ns3:TrackPointExtension>
            <ns3:atemp>17.0</ns3:atemp>
          </ns3:TrackPointExtension>
        </extensions>
      </trkpt>
      <trkpt lat="42.626868300139904022216796875" lon="19.886911846697330474853515625">
        <ele>1838.5999755859375</ele>
        <time>2026-06-16T09:06:14.000Z</time>
        <extensions>
          <ns3:TrackPointExtension>
            <ns3:atemp>17.0</ns3:atemp>
          </ns3:TrackPointExtension>
        </extensions>
      </trkpt>
      <trkpt lat="42.62685120105743408203125" lon="19.88690136931836605072021484375">
        <ele>1838.800048828125</ele>
        <time>2026-06-16T09:06:15.000Z</time>
        <extensions>
          <ns3:TrackPointExtension>
            <ns3:atemp>17.0</ns3:atemp>
          </ns3:TrackPointExtension>
        </extensions>
      </trkpt>
      <trkpt lat="42.62683452107012271881103515625" lon="19.88689013756811618804931640625">
        <ele>1839.199951171875</ele>
        <time>2026-06-16T09:06:16.000Z</time>
        <extensions>
          <ns3:TrackPointExtension>
            <ns3:atemp>17.0</ns3:atemp>
          </ns3:TrackPointExtension>
        </extensions>
      </trkpt>
      <trkpt lat="42.62682043947279453277587890625" lon="19.8868818394839763641357421875">
        <ele>1839.5999755859375</ele>
        <time>2026-06-16T09:06:17.000Z</time>
        <extensions>
          <ns3:TrackPointExtension>
            <ns3:atemp>17.0</ns3:atemp>
          </ns3:TrackPointExtension>
        </extensions>
      </trkpt>
      <trkpt lat="42.62680359184741973876953125" lon="19.8868784867227077484130859375">
        <ele>1839.800048828125</ele>
        <time>2026-06-16T09:06:18.000Z</time>
        <extensions>
          <ns3:TrackPointExtension>
            <ns3:atemp>17.0</ns3:atemp>
          </ns3:TrackPointExtension>
        </extensions>
      </trkpt>
      <trkpt lat="42.62678825296461582183837890625" lon="19.886871613562107086181640625">
        <ele>1840.199951171875</ele>
        <time>2026-06-16T09:06:19.000Z</time>
        <extensions>
          <ns3:TrackPointExtension>
            <ns3:atemp>17.0</ns3:atemp>
          </ns3:TrackPointExtension>
        </extensions>
      </trkpt>
      <trkpt lat="42.62677450664341449737548828125" lon="19.88686901517212390899658203125">
        <ele>1840.5999755859375</ele>
        <time>2026-06-16T09:06:20.000Z</time>
        <extensions>
          <ns3:TrackPointExtension>
            <ns3:atemp>17.0</ns3:atemp>
          </ns3:TrackPointExtension>
        </extensions>
      </trkpt>
      <trkpt lat="42.6267571561038494110107421875" lon="19.88686851225793361663818359375">
        <ele>1840.800048828125</ele>
        <time>2026-06-16T09:06:21.000Z</time>
        <extensions>
          <ns3:TrackPointExtension>
            <ns3:atemp>17.0</ns3:atemp>
          </ns3:TrackPointExtension>
        </extensions>
      </trkpt>
      <trkpt lat="42.6267403922975063323974609375" lon="19.88687060773372650146484375">
        <ele>1841.199951171875</ele>
        <time>2026-06-16T09:06:22.000Z</time>
        <extensions>
          <ns3:TrackPointExtension>
            <ns3:atemp>17.0</ns3:atemp>
          </ns3:TrackPointExtension>
        </extensions>
      </trkpt>
      <trkpt lat="42.62672773562371730804443359375" lon="19.88687328994274139404296875">
        <ele>1841.4000244140625</ele>
        <time>2026-06-16T09:06:23.000Z</time>
        <extensions>
          <ns3:TrackPointExtension>
            <ns3:atemp>17.0</ns3:atemp>
          </ns3:TrackPointExtension>
        </extensions>
      </trkpt>
      <trkpt lat="42.62671533040702342987060546875" lon="19.88687706179916858673095703125">
        <ele>1841.800048828125</ele>
        <time>2026-06-16T09:06:24.000Z</time>
        <extensions>
          <ns3:TrackPointExtension>
            <ns3:atemp>17.0</ns3:atemp>
          </ns3:TrackPointExtension>
        </extensions>
      </trkpt>
      <trkpt lat="42.6267023384571075439453125" lon="19.886882342398166656494140625">
        <ele>1842.199951171875</ele>
        <time>2026-06-16T09:06:25.000Z</time>
        <extensions>
          <ns3:TrackPointExtension>
            <ns3:atemp>17.0</ns3:atemp>
          </ns3:TrackPointExtension>
        </extensions>
      </trkpt>
      <trkpt lat="42.62668959796428680419921875" lon="19.886885024607181549072265625">
        <ele>1842.4000244140625</ele>
        <time>2026-06-16T09:06:26.000Z</time>
        <extensions>
          <ns3:TrackPointExtension>
            <ns3:atemp>17.0</ns3:atemp>
          </ns3:TrackPointExtension>
        </extensions>
      </trkpt>
      <trkpt lat="42.626674510538578033447265625" lon="19.8868922330439090728759765625">
        <ele>1842.5999755859375</ele>
        <time>2026-06-16T09:06:27.000Z</time>
        <extensions>
          <ns3:TrackPointExtension>
            <ns3:atemp>17.0</ns3:atemp>
          </ns3:TrackPointExtension>
        </extensions>
      </trkpt>
      <trkpt lat="42.62666185386478900909423828125" lon="19.88690505735576152801513671875">
        <ele>1842.800048828125</ele>
        <time>2026-06-16T09:06:28.000Z</time>
        <extensions>
          <ns3:TrackPointExtension>
            <ns3:atemp>17.0</ns3:atemp>
          </ns3:TrackPointExtension>
        </extensions>
      </trkpt>
      <trkpt lat="42.62665204703807830810546875" lon="19.8869173787534236907958984375">
        <ele>1842.800048828125</ele>
        <time>2026-06-16T09:06:29.000Z</time>
        <extensions>
          <ns3:TrackPointExtension>
            <ns3:atemp>17.0</ns3:atemp>
          </ns3:TrackPointExtension>
        </extensions>
      </trkpt>
      <trkpt lat="42.62664358131587505340576171875" lon="19.8869291134178638458251953125">
        <ele>1843</ele>
        <time>2026-06-16T09:06:30.000Z</time>
        <extensions>
          <ns3:TrackPointExtension>
            <ns3:atemp>17.0</ns3:atemp>
          </ns3:TrackPointExtension>
        </extensions>
      </trkpt>
      <trkpt lat="42.62663595378398895263671875" lon="19.8869351483881473541259765625">
        <ele>1843.199951171875</ele>
        <time>2026-06-16T09:06:31.000Z</time>
        <extensions>
          <ns3:TrackPointExtension>
            <ns3:atemp>17.0</ns3:atemp>
          </ns3:TrackPointExtension>
        </extensions>
      </trkpt>
      <trkpt lat="42.62663134373724460601806640625" lon="19.8869324661791324615478515625">
        <ele>1843.199951171875</ele>
        <time>2026-06-16T09:06:32.000Z</time>
        <extensions>
          <ns3:TrackPointExtension>
            <ns3:atemp>17.0</ns3:atemp>
          </ns3:TrackPointExtension>
        </extensions>
      </trkpt>
      <trkpt lat="42.6266324333846569061279296875" lon="19.88693003542721271514892578125">
        <ele>1843.4000244140625</ele>
        <time>2026-06-16T09:06:33.000Z</time>
        <extensions>
          <ns3:TrackPointExtension>
            <ns3:atemp>17.0</ns3:atemp>
          </ns3:TrackPointExtension>
        </extensions>
      </trkpt>
      <trkpt lat="42.6266324333846569061279296875" lon="19.88693003542721271514892578125">
        <ele>1843.4000244140625</ele>
        <time>2026-06-16T09:06:34.000Z</time>
        <extensions>
          <ns3:TrackPointExtension>
            <ns3:atemp>17.0</ns3:atemp>
          </ns3:TrackPointExtension>
        </extensions>
      </trkpt>
      <trkpt lat="42.6266324333846569061279296875" lon="19.88693003542721271514892578125">
        <ele>1843.5999755859375</ele>
        <time>2026-06-16T09:06:35.000Z</time>
        <extensions>
          <ns3:TrackPointExtension>
            <ns3:atemp>17.0</ns3:atemp>
          </ns3:TrackPointExtension>
        </extensions>
      </trkpt>
      <trkpt lat="42.6266324333846569061279296875" lon="19.88693003542721271514892578125">
        <ele>1843.5999755859375</ele>
        <time>2026-06-16T09:06:36.000Z</time>
        <extensions>
          <ns3:TrackPointExtension>
            <ns3:atemp>17.0</ns3:atemp>
          </ns3:TrackPointExtension>
        </extensions>
      </trkpt>
      <trkpt lat="42.6266324333846569061279296875" lon="19.88693003542721271514892578125">
        <ele>1843.800048828125</ele>
        <time>2026-06-16T09:06:37.000Z</time>
        <extensions>
          <ns3:TrackPointExtension>
            <ns3:atemp>17.0</ns3:atemp>
          </ns3:TrackPointExtension>
        </extensions>
      </trkpt>
      <trkpt lat="42.6266324333846569061279296875" lon="19.88693003542721271514892578125">
        <ele>1843.800048828125</ele>
        <time>2026-06-16T09:06:38.000Z</time>
        <extensions>
          <ns3:TrackPointExtension>
            <ns3:atemp>17.0</ns3:atemp>
          </ns3:TrackPointExtension>
        </extensions>
      </trkpt>
      <trkpt lat="42.6266324333846569061279296875" lon="19.88693003542721271514892578125">
        <ele>1843.800048828125</ele>
        <time>2026-06-16T09:06:39.000Z</time>
        <extensions>
          <ns3:TrackPointExtension>
            <ns3:atemp>17.0</ns3:atemp>
          </ns3:TrackPointExtension>
        </extensions>
      </trkpt>
      <trkpt lat="42.6266324333846569061279296875" lon="19.88693003542721271514892578125">
        <ele>1843.800048828125</ele>
        <time>2026-06-16T09:06:40.000Z</time>
        <extensions>
          <ns3:TrackPointExtension>
            <ns3:atemp>17.0</ns3:atemp>
          </ns3:TrackPointExtension>
        </extensions>
      </trkpt>
      <trkpt lat="42.6266324333846569061279296875" lon="19.88693003542721271514892578125">
        <ele>1843.800048828125</ele>
        <time>2026-06-16T09:06:41.000Z</time>
        <extensions>
          <ns3:TrackPointExtension>
            <ns3:atemp>17.0</ns3:atemp>
          </ns3:TrackPointExtension>
        </extensions>
      </trkpt>
      <trkpt lat="42.6266324333846569061279296875" lon="19.88693003542721271514892578125">
        <ele>1843.800048828125</ele>
        <time>2026-06-16T09:06:42.000Z</time>
        <extensions>
          <ns3:TrackPointExtension>
            <ns3:atemp>17.0</ns3:atemp>
          </ns3:TrackPointExtension>
        </extensions>
      </trkpt>
      <trkpt lat="42.6266324333846569061279296875" lon="19.88693003542721271514892578125">
        <ele>1843.800048828125</ele>
        <time>2026-06-16T09:06:43.000Z</time>
        <extensions>
          <ns3:TrackPointExtension>
            <ns3:atemp>17.0</ns3:atemp>
          </ns3:TrackPointExtension>
        </extensions>
      </trkpt>
      <trkpt lat="42.6266324333846569061279296875" lon="19.88693003542721271514892578125">
        <ele>1843.800048828125</ele>
        <time>2026-06-16T09:06:44.000Z</time>
        <extensions>
          <ns3:TrackPointExtension>
            <ns3:atemp>17.0</ns3:atemp>
          </ns3:TrackPointExtension>
        </extensions>
      </trkpt>
      <trkpt lat="42.6266324333846569061279296875" lon="19.88693003542721271514892578125">
        <ele>1843.800048828125</ele>
        <time>2026-06-16T09:06:45.000Z</time>
        <extensions>
          <ns3:TrackPointExtension>
            <ns3:atemp>17.0</ns3:atemp>
          </ns3:TrackPointExtension>
        </extensions>
      </trkpt>
      <trkpt lat="42.6266324333846569061279296875" lon="19.88693003542721271514892578125">
        <ele>1843.800048828125</ele>
        <time>2026-06-16T09:06:46.000Z</time>
        <extensions>
          <ns3:TrackPointExtension>
            <ns3:atemp>17.0</ns3:atemp>
          </ns3:TrackPointExtension>
        </extensions>
      </trkpt>
      <trkpt lat="42.6266324333846569061279296875" lon="19.88693003542721271514892578125">
        <ele>1843.800048828125</ele>
        <time>2026-06-16T09:06:47.000Z</time>
        <extensions>
          <ns3:TrackPointExtension>
            <ns3:atemp>17.0</ns3:atemp>
          </ns3:TrackPointExtension>
        </extensions>
      </trkpt>
      <trkpt lat="42.6266324333846569061279296875" lon="19.88693003542721271514892578125">
        <ele>1843.800048828125</ele>
        <time>2026-06-16T09:06:48.000Z</time>
        <extensions>
          <ns3:TrackPointExtension>
            <ns3:atemp>17.0</ns3:atemp>
          </ns3:TrackPointExtension>
        </extensions>
      </trkpt>
      <trkpt lat="42.6266324333846569061279296875" lon="19.88693003542721271514892578125">
        <ele>1843.5999755859375</ele>
        <time>2026-06-16T09:06:49.000Z</time>
        <extensions>
          <ns3:TrackPointExtension>
            <ns3:atemp>17.0</ns3:atemp>
          </ns3:TrackPointExtension>
        </extensions>
      </trkpt>
      <trkpt lat="42.6266324333846569061279296875" lon="19.88693003542721271514892578125">
        <ele>1843.5999755859375</ele>
        <time>2026-06-16T09:06:50.000Z</time>
        <extensions>
          <ns3:TrackPointExtension>
            <ns3:atemp>17.0</ns3:atemp>
          </ns3:TrackPointExtension>
        </extensions>
      </trkpt>
      <trkpt lat="42.6266324333846569061279296875" lon="19.88693003542721271514892578125">
        <ele>1843.5999755859375</ele>
        <time>2026-06-16T09:06:51.000Z</time>
        <extensions>
          <ns3:TrackPointExtension>
            <ns3:atemp>17.0</ns3:atemp>
          </ns3:TrackPointExtension>
        </extensions>
      </trkpt>
      <trkpt lat="42.6266324333846569061279296875" lon="19.88693003542721271514892578125">
        <ele>1843.5999755859375</ele>
        <time>2026-06-16T09:06:52.000Z</time>
        <extensions>
          <ns3:TrackPointExtension>
            <ns3:atemp>17.0</ns3:atemp>
          </ns3:TrackPointExtension>
        </extensions>
      </trkpt>
      <trkpt lat="42.6266324333846569061279296875" lon="19.88693003542721271514892578125">
        <ele>1843.5999755859375</ele>
        <time>2026-06-16T09:06:53.000Z</time>
        <extensions>
          <ns3:TrackPointExtension>
            <ns3:atemp>17.0</ns3:atemp>
          </ns3:TrackPointExtension>
        </extensions>
      </trkpt>
      <trkpt lat="42.6266324333846569061279296875" lon="19.88693003542721271514892578125">
        <ele>1843.5999755859375</ele>
        <time>2026-06-16T09:06:54.000Z</time>
        <extensions>
          <ns3:TrackPointExtension>
            <ns3:atemp>17.0</ns3:atemp>
          </ns3:TrackPointExtension>
        </extensions>
      </trkpt>
      <trkpt lat="42.6266324333846569061279296875" lon="19.88693003542721271514892578125">
        <ele>1843.800048828125</ele>
        <time>2026-06-16T09:06:55.000Z</time>
        <extensions>
          <ns3:TrackPointExtension>
            <ns3:atemp>17.0</ns3:atemp>
          </ns3:TrackPointExtension>
        </extensions>
      </trkpt>
      <trkpt lat="42.6266324333846569061279296875" lon="19.88693003542721271514892578125">
        <ele>1843.800048828125</ele>
        <time>2026-06-16T09:06:56.000Z</time>
        <extensions>
          <ns3:TrackPointExtension>
            <ns3:atemp>17.0</ns3:atemp>
          </ns3:TrackPointExtension>
        </extensions>
      </trkpt>
      <trkpt lat="42.6266324333846569061279296875" lon="19.88693003542721271514892578125">
        <ele>1843.800048828125</ele>
        <time>2026-06-16T09:06:57.000Z</time>
        <extensions>
          <ns3:TrackPointExtension>
            <ns3:atemp>17.0</ns3:atemp>
          </ns3:TrackPointExtension>
        </extensions>
      </trkpt>
      <trkpt lat="42.6266324333846569061279296875" lon="19.88693003542721271514892578125">
        <ele>1843.800048828125</ele>
        <time>2026-06-16T09:06:58.000Z</time>
        <extensions>
          <ns3:TrackPointExtension>
            <ns3:atemp>17.0</ns3:atemp>
          </ns3:TrackPointExtension>
        </extensions>
      </trkpt>
      <trkpt lat="42.6266324333846569061279296875" lon="19.88693003542721271514892578125">
        <ele>1843.800048828125</ele>
        <time>2026-06-16T09:06:59.000Z</time>
        <extensions>
          <ns3:TrackPointExtension>
            <ns3:atemp>17.0</ns3:atemp>
          </ns3:TrackPointExtension>
        </extensions>
      </trkpt>
      <trkpt lat="42.6266324333846569061279296875" lon="19.88693003542721271514892578125">
        <ele>1843.5999755859375</ele>
        <time>2026-06-16T09:07:00.000Z</time>
        <extensions>
          <ns3:TrackPointExtension>
            <ns3:atemp>17.0</ns3:atemp>
          </ns3:TrackPointExtension>
        </extensions>
      </trkpt>
      <trkpt lat="42.6266324333846569061279296875" lon="19.88693003542721271514892578125">
        <ele>1843.5999755859375</ele>
        <time>2026-06-16T09:07:01.000Z</time>
        <extensions>
          <ns3:TrackPointExtension>
            <ns3:atemp>17.0</ns3:atemp>
          </ns3:TrackPointExtension>
        </extensions>
      </trkpt>
      <trkpt lat="42.6266324333846569061279296875" lon="19.88693003542721271514892578125">
        <ele>1843.5999755859375</ele>
        <time>2026-06-16T09:07:02.000Z</time>
        <extensions>
          <ns3:TrackPointExtension>
            <ns3:atemp>17.0</ns3:atemp>
          </ns3:TrackPointExtension>
        </extensions>
      </trkpt>
      <trkpt lat="42.6266324333846569061279296875" lon="19.88693003542721271514892578125">
        <ele>1843.5999755859375</ele>
        <time>2026-06-16T09:07:03.000Z</time>
        <extensions>
          <ns3:TrackPointExtension>
            <ns3:atemp>17.0</ns3:atemp>
          </ns3:TrackPointExtension>
        </extensions>
      </trkpt>
      <trkpt lat="42.6266324333846569061279296875" lon="19.88693003542721271514892578125">
        <ele>1843.5999755859375</ele>
        <time>2026-06-16T09:07:04.000Z</time>
        <extensions>
          <ns3:TrackPointExtension>
            <ns3:atemp>17.0</ns3:atemp>
          </ns3:TrackPointExtension>
        </extensions>
      </trkpt>
      <trkpt lat="42.6266324333846569061279296875" lon="19.88693003542721271514892578125">
        <ele>1843.5999755859375</ele>
        <time>2026-06-16T09:07:05.000Z</time>
        <extensions>
          <ns3:TrackPointExtension>
            <ns3:atemp>17.0</ns3:atemp>
          </ns3:TrackPointExtension>
        </extensions>
      </trkpt>
      <trkpt lat="42.6266324333846569061279296875" lon="19.88693003542721271514892578125">
        <ele>1843.5999755859375</ele>
        <time>2026-06-16T09:07:06.000Z</time>
        <extensions>
          <ns3:TrackPointExtension>
            <ns3:atemp>17.0</ns3:atemp>
          </ns3:TrackPointExtension>
        </extensions>
      </trkpt>
      <trkpt lat="42.6266324333846569061279296875" lon="19.88693003542721271514892578125">
        <ele>1843.5999755859375</ele>
        <time>2026-06-16T09:07:07.000Z</time>
        <extensions>
          <ns3:TrackPointExtension>
            <ns3:atemp>17.0</ns3:atemp>
          </ns3:TrackPointExtension>
        </extensions>
      </trkpt>
      <trkpt lat="42.6266324333846569061279296875" lon="19.88693003542721271514892578125">
        <ele>1843.5999755859375</ele>
        <time>2026-06-16T09:07:08.000Z</time>
        <extensions>
          <ns3:TrackPointExtension>
            <ns3:atemp>17.0</ns3:atemp>
          </ns3:TrackPointExtension>
        </extensions>
      </trkpt>
      <trkpt lat="42.6266324333846569061279296875" lon="19.88693003542721271514892578125">
        <ele>1843.5999755859375</ele>
        <time>2026-06-16T09:07:09.000Z</time>
        <extensions>
          <ns3:TrackPointExtension>
            <ns3:atemp>17.0</ns3:atemp>
          </ns3:TrackPointExtension>
        </extensions>
      </trkpt>
      <trkpt lat="42.6266324333846569061279296875" lon="19.88693003542721271514892578125">
        <ele>1843.4000244140625</ele>
        <time>2026-06-16T09:07:10.000Z</time>
        <extensions>
          <ns3:TrackPointExtension>
            <ns3:atemp>17.0</ns3:atemp>
          </ns3:TrackPointExtension>
        </extensions>
      </trkpt>
      <trkpt lat="42.6266324333846569061279296875" lon="19.88693003542721271514892578125">
        <ele>1843.4000244140625</ele>
        <time>2026-06-16T09:07:11.000Z</time>
        <extensions>
          <ns3:TrackPointExtension>
            <ns3:atemp>17.0</ns3:atemp>
          </ns3:TrackPointExtension>
        </extensions>
      </trkpt>
      <trkpt lat="42.6266324333846569061279296875" lon="19.88693003542721271514892578125">
        <ele>1843.4000244140625</ele>
        <time>2026-06-16T09:07:12.000Z</time>
        <extensions>
          <ns3:TrackPointExtension>
            <ns3:atemp>17.0</ns3:atemp>
          </ns3:TrackPointExtension>
        </extensions>
      </trkpt>
      <trkpt lat="42.6266324333846569061279296875" lon="19.88693003542721271514892578125">
        <ele>1843.4000244140625</ele>
        <time>2026-06-16T09:07:13.000Z</time>
        <extensions>
          <ns3:TrackPointExtension>
            <ns3:atemp>17.0</ns3:atemp>
          </ns3:TrackPointExtension>
        </extensions>
      </trkpt>
      <trkpt lat="42.6266324333846569061279296875" lon="19.88693003542721271514892578125">
        <ele>1843.4000244140625</ele>
        <time>2026-06-16T09:07:14.000Z</time>
        <extensions>
          <ns3:TrackPointExtension>
            <ns3:atemp>17.0</ns3:atemp>
          </ns3:TrackPointExtension>
        </extensions>
      </trkpt>
      <trkpt lat="42.6266324333846569061279296875" lon="19.88693003542721271514892578125">
        <ele>1843.4000244140625</ele>
        <time>2026-06-16T09:07:15.000Z</time>
        <extensions>
          <ns3:TrackPointExtension>
            <ns3:atemp>17.0</ns3:atemp>
          </ns3:TrackPointExtension>
        </extensions>
      </trkpt>
      <trkpt lat="42.6266324333846569061279296875" lon="19.88693003542721271514892578125">
        <ele>1843.4000244140625</ele>
        <time>2026-06-16T09:07:16.000Z</time>
        <extensions>
          <ns3:TrackPointExtension>
            <ns3:atemp>17.0</ns3:atemp>
          </ns3:TrackPointExtension>
        </extensions>
      </trkpt>
      <trkpt lat="42.6266324333846569061279296875" lon="19.88693003542721271514892578125">
        <ele>1843.199951171875</ele>
        <time>2026-06-16T09:07:17.000Z</time>
        <extensions>
          <ns3:TrackPointExtension>
            <ns3:atemp>17.0</ns3:atemp>
          </ns3:TrackPointExtension>
        </extensions>
      </trkpt>
      <trkpt lat="42.6266324333846569061279296875" lon="19.88693003542721271514892578125">
        <ele>1843.199951171875</ele>
        <time>2026-06-16T09:07:18.000Z</time>
        <extensions>
          <ns3:TrackPointExtension>
            <ns3:atemp>17.0</ns3:atemp>
          </ns3:TrackPointExtension>
        </extensions>
      </trkpt>
      <trkpt lat="42.6266324333846569061279296875" lon="19.88693003542721271514892578125">
        <ele>1843.199951171875</ele>
        <time>2026-06-16T09:07:19.000Z</time>
        <extensions>
          <ns3:TrackPointExtension>
            <ns3:atemp>17.0</ns3:atemp>
          </ns3:TrackPointExtension>
        </extensions>
      </trkpt>
      <trkpt lat="42.6266324333846569061279296875" lon="19.88693003542721271514892578125">
        <ele>1843.199951171875</ele>
        <time>2026-06-16T09:07:20.000Z</time>
        <extensions>
          <ns3:TrackPointExtension>
            <ns3:atemp>17.0</ns3:atemp>
          </ns3:TrackPointExtension>
        </extensions>
      </trkpt>
      <trkpt lat="42.6266324333846569061279296875" lon="19.88693003542721271514892578125">
        <ele>1843.199951171875</ele>
        <time>2026-06-16T09:07:21.000Z</time>
        <extensions>
          <ns3:TrackPointExtension>
            <ns3:atemp>17.0</ns3:atemp>
          </ns3:TrackPointExtension>
        </extensions>
      </trkpt>
      <trkpt lat="42.6266324333846569061279296875" lon="19.88693003542721271514892578125">
        <ele>1843.199951171875</ele>
        <time>2026-06-16T09:07:22.000Z</time>
        <extensions>
          <ns3:TrackPointExtension>
            <ns3:atemp>17.0</ns3:atemp>
          </ns3:TrackPointExtension>
        </extensions>
      </trkpt>
      <trkpt lat="42.6266324333846569061279296875" lon="19.88693003542721271514892578125">
        <ele>1843.199951171875</ele>
        <time>2026-06-16T09:07:23.000Z</time>
        <extensions>
          <ns3:TrackPointExtension>
            <ns3:atemp>17.0</ns3:atemp>
          </ns3:TrackPointExtension>
        </extensions>
      </trkpt>
      <trkpt lat="42.6266324333846569061279296875" lon="19.88693003542721271514892578125">
        <ele>1843.199951171875</ele>
        <time>2026-06-16T09:07:24.000Z</time>
        <extensions>
          <ns3:TrackPointExtension>
            <ns3:atemp>17.0</ns3:atemp>
          </ns3:TrackPointExtension>
        </extensions>
      </trkpt>
      <trkpt lat="42.6266324333846569061279296875" lon="19.88693003542721271514892578125">
        <ele>1843</ele>
        <time>2026-06-16T09:07:25.000Z</time>
        <extensions>
          <ns3:TrackPointExtension>
            <ns3:atemp>17.0</ns3:atemp>
          </ns3:TrackPointExtension>
        </extensions>
      </trkpt>
      <trkpt lat="42.6266324333846569061279296875" lon="19.88693003542721271514892578125">
        <ele>1843</ele>
        <time>2026-06-16T09:07:26.000Z</time>
        <extensions>
          <ns3:TrackPointExtension>
            <ns3:atemp>17.0</ns3:atemp>
          </ns3:TrackPointExtension>
        </extensions>
      </trkpt>
      <trkpt lat="42.6266324333846569061279296875" lon="19.88693003542721271514892578125">
        <ele>1843</ele>
        <time>2026-06-16T09:07:27.000Z</time>
        <extensions>
          <ns3:TrackPointExtension>
            <ns3:atemp>17.0</ns3:atemp>
          </ns3:TrackPointExtension>
        </extensions>
      </trkpt>
      <trkpt lat="42.6266324333846569061279296875" lon="19.88693003542721271514892578125">
        <ele>1843</ele>
        <time>2026-06-16T09:07:28.000Z</time>
        <extensions>
          <ns3:TrackPointExtension>
            <ns3:atemp>17.0</ns3:atemp>
          </ns3:TrackPointExtension>
        </extensions>
      </trkpt>
      <trkpt lat="42.6266324333846569061279296875" lon="19.88693003542721271514892578125">
        <ele>1843</ele>
        <time>2026-06-16T09:07:29.000Z</time>
        <extensions>
          <ns3:TrackPointExtension>
            <ns3:atemp>17.0</ns3:atemp>
          </ns3:TrackPointExtension>
        </extensions>
      </trkpt>
      <trkpt lat="42.6266324333846569061279296875" lon="19.88693003542721271514892578125">
        <ele>1843</ele>
        <time>2026-06-16T09:07:30.000Z</time>
        <extensions>
          <ns3:TrackPointExtension>
            <ns3:atemp>17.0</ns3:atemp>
          </ns3:TrackPointExtension>
        </extensions>
      </trkpt>
      <trkpt lat="42.6266324333846569061279296875" lon="19.88693003542721271514892578125">
        <ele>1843</ele>
        <time>2026-06-16T09:07:31.000Z</time>
        <extensions>
          <ns3:TrackPointExtension>
            <ns3:atemp>17.0</ns3:atemp>
          </ns3:TrackPointExtension>
        </extensions>
      </trkpt>
      <trkpt lat="42.6266324333846569061279296875" lon="19.88693003542721271514892578125">
        <ele>1843</ele>
        <time>2026-06-16T09:07:32.000Z</time>
        <extensions>
          <ns3:TrackPointExtension>
            <ns3:atemp>17.0</ns3:atemp>
          </ns3:TrackPointExtension>
        </extensions>
      </trkpt>
      <trkpt lat="42.6266317628324031829833984375" lon="19.88692936487495899200439453125">
        <ele>1843</ele>
        <time>2026-06-16T09:07:33.000Z</time>
        <extensions>
          <ns3:TrackPointExtension>
            <ns3:atemp>17.0</ns3:atemp>
          </ns3:TrackPointExtension>
        </extensions>
      </trkpt>
      <trkpt lat="42.62662664987146854400634765625" lon="19.886941015720367431640625">
        <ele>1842.800048828125</ele>
        <time>2026-06-16T09:07:34.000Z</time>
        <extensions>
          <ns3:TrackPointExtension>
            <ns3:atemp>17.0</ns3:atemp>
          </ns3:TrackPointExtension>
        </extensions>
      </trkpt>
      <trkpt lat="42.62661122716963291168212890625" lon="19.88695484586060047149658203125">
        <ele>1842.800048828125</ele>
        <time>2026-06-16T09:07:35.000Z</time>
        <extensions>
          <ns3:TrackPointExtension>
            <ns3:atemp>17.0</ns3:atemp>
          </ns3:TrackPointExtension>
        </extensions>
      </trkpt>
      <trkpt lat="42.62659044004976749420166015625" lon="19.88696540705859661102294921875">
        <ele>1842.5999755859375</ele>
        <time>2026-06-16T09:07:36.000Z</time>
        <extensions>
          <ns3:TrackPointExtension>
            <ns3:atemp>17.0</ns3:atemp>
          </ns3:TrackPointExtension>
        </extensions>
      </trkpt>
      <trkpt lat="42.62656613253057003021240234375" lon="19.88697479479014873504638671875">
        <ele>1842.5999755859375</ele>
        <time>2026-06-16T09:07:37.000Z</time>
        <extensions>
          <ns3:TrackPointExtension>
            <ns3:atemp>17.0</ns3:atemp>
          </ns3:TrackPointExtension>
        </extensions>
      </trkpt>
      <trkpt lat="42.62653763405978679656982421875" lon="19.88697496242821216583251953125">
        <ele>1842.5999755859375</ele>
        <time>2026-06-16T09:07:38.000Z</time>
        <extensions>
          <ns3:TrackPointExtension>
            <ns3:atemp>17.0</ns3:atemp>
          </ns3:TrackPointExtension>
        </extensions>
      </trkpt>
      <trkpt lat="42.62650192715227603912353515625" lon="19.8869726993143558502197265625">
        <ele>1842.4000244140625</ele>
        <time>2026-06-16T09:07:39.000Z</time>
        <extensions>
          <ns3:TrackPointExtension>
            <ns3:atemp>17.0</ns3:atemp>
          </ns3:TrackPointExtension>
        </extensions>
      </trkpt>
      <trkpt lat="42.62645490467548370361328125" lon="19.88696557469666004180908203125">
        <ele>1842.199951171875</ele>
        <time>2026-06-16T09:07:40.000Z</time>
        <extensions>
          <ns3:TrackPointExtension>
            <ns3:atemp>17.0</ns3:atemp>
          </ns3:TrackPointExtension>
        </extensions>
      </trkpt>
      <trkpt lat="42.62640469707548618316650390625" lon="19.8869425244629383087158203125">
        <ele>1842</ele>
        <time>2026-06-16T09:07:41.000Z</time>
        <extensions>
          <ns3:TrackPointExtension>
            <ns3:atemp>17.0</ns3:atemp>
          </ns3:TrackPointExtension>
        </extensions>
      </trkpt>
      <trkpt lat="42.626360356807708740234375" lon="19.886907823383808135986328125">
        <ele>1841.5999755859375</ele>
        <time>2026-06-16T09:07:42.000Z</time>
        <extensions>
          <ns3:TrackPointExtension>
            <ns3:atemp>17.0</ns3:atemp>
          </ns3:TrackPointExtension>
        </extensions>
      </trkpt>
      <trkpt lat="42.62631635181605815887451171875" lon="19.8868731223046779632568359375">
        <ele>1841</ele>
        <time>2026-06-16T09:07:43.000Z</time>
        <extensions>
          <ns3:TrackPointExtension>
            <ns3:atemp>17.0</ns3:atemp>
          </ns3:TrackPointExtension>
        </extensions>
      </trkpt>
      <trkpt lat="42.62627628631889820098876953125" lon="19.88683531992137432098388671875">
        <ele>1840.5999755859375</ele>
        <time>2026-06-16T09:07:44.000Z</time>
        <extensions>
          <ns3:TrackPointExtension>
            <ns3:atemp>17.0</ns3:atemp>
          </ns3:TrackPointExtension>
        </extensions>
      </trkpt>
      <trkpt lat="42.6262425072491168975830078125" lon="19.8867970146238803863525390625">
        <ele>1840</ele>
        <time>2026-06-16T09:07:45.000Z</time>
        <extensions>
          <ns3:TrackPointExtension>
            <ns3:atemp>17.0</ns3:atemp>
          </ns3:TrackPointExtension>
        </extensions>
      </trkpt>
      <trkpt lat="42.6262113265693187713623046875" lon="19.88675653003156185150146484375">
        <ele>1839.5999755859375</ele>
        <time>2026-06-16T09:07:46.000Z</time>
        <extensions>
          <ns3:TrackPointExtension>
            <ns3:atemp>17.0</ns3:atemp>
          </ns3:TrackPointExtension>
        </extensions>
      </trkpt>
      <trkpt lat="42.62617670930922031402587890625" lon="19.88671143539249897003173828125">
        <ele>1839.199951171875</ele>
        <time>2026-06-16T09:07:47.000Z</time>
        <extensions>
          <ns3:TrackPointExtension>
            <ns3:atemp>17.0</ns3:atemp>
          </ns3:TrackPointExtension>
        </extensions>
      </trkpt>
      <trkpt lat="42.62613974511623382568359375" lon="19.8866612277925014495849609375">
        <ele>1839</ele>
        <time>2026-06-16T09:07:48.000Z</time>
        <extensions>
          <ns3:TrackPointExtension>
            <ns3:atemp>17.0</ns3:atemp>
          </ns3:TrackPointExtension>
        </extensions>
      </trkpt>
      <trkpt lat="42.6261060498654842376708984375" lon="19.88661353476345539093017578125">
        <ele>1838.5999755859375</ele>
        <time>2026-06-16T09:07:49.000Z</time>
        <extensions>
          <ns3:TrackPointExtension>
            <ns3:atemp>17.0</ns3:atemp>
          </ns3:TrackPointExtension>
        </extensions>
      </trkpt>
      <trkpt lat="42.6260617934167385101318359375" lon="19.8865673504769802093505859375">
        <ele>1838.199951171875</ele>
        <time>2026-06-16T09:07:50.000Z</time>
        <extensions>
          <ns3:TrackPointExtension>
            <ns3:atemp>17.0</ns3:atemp>
          </ns3:TrackPointExtension>
        </extensions>
      </trkpt>
      <trkpt lat="42.626013346016407012939453125" lon="19.88651965744793415069580078125">
        <ele>1837.4000244140625</ele>
        <time>2026-06-16T09:07:51.000Z</time>
        <extensions>
          <ns3:TrackPointExtension>
            <ns3:atemp>17.0</ns3:atemp>
          </ns3:TrackPointExtension>
        </extensions>
      </trkpt>
      <trkpt lat="42.62596548534929752349853515625" lon="19.88647523336112499237060546875">
        <ele>1836.5999755859375</ele>
        <time>2026-06-16T09:07:52.000Z</time>
        <extensions>
          <ns3:TrackPointExtension>
            <ns3:atemp>18.0</ns3:atemp>
          </ns3:TrackPointExtension>
        </extensions>
      </trkpt>
      <trkpt lat="42.62591972015798091888427734375" lon="19.88642712123692035675048828125">
        <ele>1836</ele>
        <time>2026-06-16T09:07:53.000Z</time>
        <extensions>
          <ns3:TrackPointExtension>
            <ns3:atemp>17.0</ns3:atemp>
          </ns3:TrackPointExtension>
        </extensions>
      </trkpt>
      <trkpt lat="42.6258790679275989532470703125" lon="19.8863846249878406524658203125">
        <ele>1835.199951171875</ele>
        <time>2026-06-16T09:07:54.000Z</time>
        <extensions>
          <ns3:TrackPointExtension>
            <ns3:atemp>17.0</ns3:atemp>
          </ns3:TrackPointExtension>
        </extensions>
      </trkpt>
      <trkpt lat="42.62583665549755096435546875" lon="19.88633894361555576324462890625">
        <ele>1834.4000244140625</ele>
        <time>2026-06-16T09:07:55.000Z</time>
        <extensions>
          <ns3:TrackPointExtension>
            <ns3:atemp>17.0</ns3:atemp>
          </ns3:TrackPointExtension>
        </extensions>
      </trkpt>
      <trkpt lat="42.62579918839037418365478515625" lon="19.8862897418439388275146484375">
        <ele>1833.5999755859375</ele>
        <time>2026-06-16T09:07:56.000Z</time>
        <extensions>
          <ns3:TrackPointExtension>
            <ns3:atemp>17.0</ns3:atemp>
          </ns3:TrackPointExtension>
        </extensions>
      </trkpt>
      <trkpt lat="42.62575241737067699432373046875" lon="19.8862324096262454986572265625">
        <ele>1833</ele>
        <time>2026-06-16T09:07:57.000Z</time>
        <extensions>
          <ns3:TrackPointExtension>
            <ns3:atemp>18.0</ns3:atemp>
          </ns3:TrackPointExtension>
        </extensions>
      </trkpt>
      <trkpt lat="42.62570933438837528228759765625" lon="19.8861656896770000457763671875">
        <ele>1832.4000244140625</ele>
        <time>2026-06-16T09:07:58.000Z</time>
        <extensions>
          <ns3:TrackPointExtension>
            <ns3:atemp>17.0</ns3:atemp>
          </ns3:TrackPointExtension>
        </extensions>
      </trkpt>
      <trkpt lat="42.62566901743412017822265625" lon="19.8860905878245830535888671875">
        <ele>1831.800048828125</ele>
        <time>2026-06-16T09:07:59.000Z</time>
        <extensions>
          <ns3:TrackPointExtension>
            <ns3:atemp>17.0</ns3:atemp>
          </ns3:TrackPointExtension>
        </extensions>
      </trkpt>
      <trkpt lat="42.62563238851726055145263671875" lon="19.886015318334102630615234375">
        <ele>1830.800048828125</ele>
        <time>2026-06-16T09:08:00.000Z</time>
        <extensions>
          <ns3:TrackPointExtension>
            <ns3:atemp>17.0</ns3:atemp>
          </ns3:TrackPointExtension>
        </extensions>
      </trkpt>
      <trkpt lat="42.62560154311358928680419921875" lon="19.8859410546720027923583984375">
        <ele>1830</ele>
        <time>2026-06-16T09:08:01.000Z</time>
        <extensions>
          <ns3:TrackPointExtension>
            <ns3:atemp>17.0</ns3:atemp>
          </ns3:TrackPointExtension>
        </extensions>
      </trkpt>
      <trkpt lat="42.62557036243379116058349609375" lon="19.88586821593344211578369140625">
        <ele>1829</ele>
        <time>2026-06-16T09:08:02.000Z</time>
        <extensions>
          <ns3:TrackPointExtension>
            <ns3:atemp>17.0</ns3:atemp>
          </ns3:TrackPointExtension>
        </extensions>
      </trkpt>
      <trkpt lat="42.62554429471492767333984375" lon="19.88578557036817073822021484375">
        <ele>1828.199951171875</ele>
        <time>2026-06-16T09:08:03.000Z</time>
        <extensions>
          <ns3:TrackPointExtension>
            <ns3:atemp>18.0</ns3:atemp>
          </ns3:TrackPointExtension>
        </extensions>
      </trkpt>
      <trkpt lat="42.62551344931125640869140625" lon="19.8857077024877071380615234375">
        <ele>1827.199951171875</ele>
        <time>2026-06-16T09:08:04.000Z</time>
        <extensions>
          <ns3:TrackPointExtension>
            <ns3:atemp>18.0</ns3:atemp>
          </ns3:TrackPointExtension>
        </extensions>
      </trkpt>
      <trkpt lat="42.62547589838504791259765625" lon="19.8856332711875438690185546875">
        <ele>1826.4000244140625</ele>
        <time>2026-06-16T09:08:05.000Z</time>
        <extensions>
          <ns3:TrackPointExtension>
            <ns3:atemp>18.0</ns3:atemp>
          </ns3:TrackPointExtension>
        </extensions>
      </trkpt>
      <trkpt lat="42.62544044293463230133056640625" lon="19.88555724732577800750732421875">
        <ele>1825.5999755859375</ele>
        <time>2026-06-16T09:08:06.000Z</time>
        <extensions>
          <ns3:TrackPointExtension>
            <ns3:atemp>18.0</ns3:atemp>
          </ns3:TrackPointExtension>
        </extensions>
      </trkpt>
      <trkpt lat="42.62540004216134548187255859375" lon="19.885486252605915069580078125">
        <ele>1824.5999755859375</ele>
        <time>2026-06-16T09:08:07.000Z</time>
        <extensions>
          <ns3:TrackPointExtension>
            <ns3:atemp>18.0</ns3:atemp>
          </ns3:TrackPointExtension>
        </extensions>
      </trkpt>
      <trkpt lat="42.6253603957593441009521484375" lon="19.88542498089373111724853515625">
        <ele>1823.4000244140625</ele>
        <time>2026-06-16T09:08:08.000Z</time>
        <extensions>
          <ns3:TrackPointExtension>
            <ns3:atemp>18.0</ns3:atemp>
          </ns3:TrackPointExtension>
        </extensions>
      </trkpt>
      <trkpt lat="42.6253211684525012969970703125" lon="19.8853667266666889190673828125">
        <ele>1822.4000244140625</ele>
        <time>2026-06-16T09:08:09.000Z</time>
        <extensions>
          <ns3:TrackPointExtension>
            <ns3:atemp>18.0</ns3:atemp>
          </ns3:TrackPointExtension>
        </extensions>
      </trkpt>
      <trkpt lat="42.6252759061753749847412109375" lon="19.885303862392902374267578125">
        <ele>1821.5999755859375</ele>
        <time>2026-06-16T09:08:10.000Z</time>
        <extensions>
          <ns3:TrackPointExtension>
            <ns3:atemp>18.0</ns3:atemp>
          </ns3:TrackPointExtension>
        </extensions>
      </trkpt>
      <trkpt lat="42.6252298057079315185546875" lon="19.8852393217384815216064453125">
        <ele>1820.800048828125</ele>
        <time>2026-06-16T09:08:11.000Z</time>
        <extensions>
          <ns3:TrackPointExtension>
            <ns3:atemp>18.0</ns3:atemp>
          </ns3:TrackPointExtension>
        </extensions>
      </trkpt>
      <trkpt lat="42.62518144212663173675537109375" lon="19.88517117686569690704345703125">
        <ele>1819.5999755859375</ele>
        <time>2026-06-16T09:08:12.000Z</time>
        <extensions>
          <ns3:TrackPointExtension>
            <ns3:atemp>18.0</ns3:atemp>
          </ns3:TrackPointExtension>
        </extensions>
      </trkpt>
      <trkpt lat="42.6251297257840633392333984375" lon="19.88510680384933948516845703125">
        <ele>1819</ele>
        <time>2026-06-16T09:08:13.000Z</time>
        <extensions>
          <ns3:TrackPointExtension>
            <ns3:atemp>18.0</ns3:atemp>
          </ns3:TrackPointExtension>
        </extensions>
      </trkpt>
      <trkpt lat="42.62507230974733829498291015625" lon="19.8850492201745510101318359375">
        <ele>1817.800048828125</ele>
        <time>2026-06-16T09:08:14.000Z</time>
        <extensions>
          <ns3:TrackPointExtension>
            <ns3:atemp>18.0</ns3:atemp>
          </ns3:TrackPointExtension>
        </extensions>
      </trkpt>
      <trkpt lat="42.6250103674829006195068359375" lon="19.884988032281398773193359375">
        <ele>1816.5999755859375</ele>
        <time>2026-06-16T09:08:15.000Z</time>
        <extensions>
          <ns3:TrackPointExtension>
            <ns3:atemp>18.0</ns3:atemp>
          </ns3:TrackPointExtension>
        </extensions>
      </trkpt>
      <trkpt lat="42.624945156276226043701171875" lon="19.88493313081562519073486328125">
        <ele>1815.4000244140625</ele>
        <time>2026-06-16T09:08:16.000Z</time>
        <extensions>
          <ns3:TrackPointExtension>
            <ns3:atemp>18.0</ns3:atemp>
          </ns3:TrackPointExtension>
        </extensions>
      </trkpt>
      <trkpt lat="42.62487885542213916778564453125" lon="19.88488066010177135467529296875">
        <ele>1814.5999755859375</ele>
        <time>2026-06-16T09:08:17.000Z</time>
        <extensions>
          <ns3:TrackPointExtension>
            <ns3:atemp>18.0</ns3:atemp>
          </ns3:TrackPointExtension>
        </extensions>
      </trkpt>
      <trkpt lat="42.6248185895383358001708984375" lon="19.88483011722564697265625">
        <ele>1814</ele>
        <time>2026-06-16T09:08:18.000Z</time>
        <extensions>
          <ns3:TrackPointExtension>
            <ns3:atemp>18.0</ns3:atemp>
          </ns3:TrackPointExtension>
        </extensions>
      </trkpt>
      <trkpt lat="42.62476251460611820220947265625" lon="19.88477672450244426727294921875">
        <ele>1813.5999755859375</ele>
        <time>2026-06-16T09:08:19.000Z</time>
        <extensions>
          <ns3:TrackPointExtension>
            <ns3:atemp>18.0</ns3:atemp>
          </ns3:TrackPointExtension>
        </extensions>
      </trkpt>
      <trkpt lat="42.6247123070061206817626953125" lon="19.884725511074066162109375">
        <ele>1813.4000244140625</ele>
        <time>2026-06-16T09:08:20.000Z</time>
        <extensions>
          <ns3:TrackPointExtension>
            <ns3:atemp>18.0</ns3:atemp>
          </ns3:TrackPointExtension>
        </extensions>
      </trkpt>
      <trkpt lat="42.62466645799577236175537109375" lon="19.88468368537724018096923828125">
        <ele>1813.199951171875</ele>
        <time>2026-06-16T09:08:21.000Z</time>
        <extensions>
          <ns3:TrackPointExtension>
            <ns3:atemp>18.0</ns3:atemp>
          </ns3:TrackPointExtension>
        </extensions>
      </trkpt>
      <trkpt lat="42.62462438084185123443603515625" lon="19.8846475593745708465576171875">
        <ele>1813.199951171875</ele>
        <time>2026-06-16T09:08:22.000Z</time>
        <extensions>
          <ns3:TrackPointExtension>
            <ns3:atemp>18.0</ns3:atemp>
          </ns3:TrackPointExtension>
        </extensions>
      </trkpt>
      <trkpt lat="42.6245859079062938690185546875" lon="19.8846254311501979827880859375">
        <ele>1813.199951171875</ele>
        <time>2026-06-16T09:08:23.000Z</time>
        <extensions>
          <ns3:TrackPointExtension>
            <ns3:atemp>18.0</ns3:atemp>
          </ns3:TrackPointExtension>
        </extensions>
      </trkpt>
      <trkpt lat="42.62455590069293975830078125" lon="19.8846066556870937347412109375">
        <ele>1813.4000244140625</ele>
        <time>2026-06-16T09:08:24.000Z</time>
        <extensions>
          <ns3:TrackPointExtension>
            <ns3:atemp>18.0</ns3:atemp>
          </ns3:TrackPointExtension>
        </extensions>
      </trkpt>
      <trkpt lat="42.624534107744693756103515625" lon="19.88459073007106781005859375">
        <ele>1813.5999755859375</ele>
        <time>2026-06-16T09:08:25.000Z</time>
        <extensions>
          <ns3:TrackPointExtension>
            <ns3:atemp>18.0</ns3:atemp>
          </ns3:TrackPointExtension>
        </extensions>
      </trkpt>
      <trkpt lat="42.62451608665287494659423828125" lon="19.8845781572163105010986328125">
        <ele>1814</ele>
        <time>2026-06-16T09:08:26.000Z</time>
        <extensions>
          <ns3:TrackPointExtension>
            <ns3:atemp>18.0</ns3:atemp>
          </ns3:TrackPointExtension>
        </extensions>
      </trkpt>
      <trkpt lat="42.62449982576072216033935546875" lon="19.88456793129444122314453125">
        <ele>1814.199951171875</ele>
        <time>2026-06-16T09:08:27.000Z</time>
        <extensions>
          <ns3:TrackPointExtension>
            <ns3:atemp>18.0</ns3:atemp>
          </ns3:TrackPointExtension>
        </extensions>
      </trkpt>
      <trkpt lat="42.62447987683117389678955078125" lon="19.884558878839015960693359375">
        <ele>1814.4000244140625</ele>
        <time>2026-06-16T09:08:28.000Z</time>
        <extensions>
          <ns3:TrackPointExtension>
            <ns3:atemp>18.0</ns3:atemp>
          </ns3:TrackPointExtension>
        </extensions>
      </trkpt>
      <trkpt lat="42.62446311302483081817626953125" lon="19.88455192185938358306884765625">
        <ele>1814.5999755859375</ele>
        <time>2026-06-16T09:08:29.000Z</time>
        <extensions>
          <ns3:TrackPointExtension>
            <ns3:atemp>18.0</ns3:atemp>
          </ns3:TrackPointExtension>
        </extensions>
      </trkpt>
      <trkpt lat="42.624443583190441131591796875" lon="19.88454521633684635162353515625">
        <ele>1814.800048828125</ele>
        <time>2026-06-16T09:08:30.000Z</time>
        <extensions>
          <ns3:TrackPointExtension>
            <ns3:atemp>18.0</ns3:atemp>
          </ns3:TrackPointExtension>
        </extensions>
      </trkpt>
      <trkpt lat="42.62442287988960742950439453125" lon="19.8845456354320049285888671875">
        <ele>1814.800048828125</ele>
        <time>2026-06-16T09:08:31.000Z</time>
        <extensions>
          <ns3:TrackPointExtension>
            <ns3:atemp>18.0</ns3:atemp>
          </ns3:TrackPointExtension>
        </extensions>
      </trkpt>
      <trkpt lat="42.62440142221748828887939453125" lon="19.8845526762306690216064453125">
        <ele>1815</ele>
        <time>2026-06-16T09:08:32.000Z</time>
        <extensions>
          <ns3:TrackPointExtension>
            <ns3:atemp>18.0</ns3:atemp>
          </ns3:TrackPointExtension>
        </extensions>
      </trkpt>
      <trkpt lat="42.6243803836405277252197265625" lon="19.8845556937158107757568359375">
        <ele>1815.199951171875</ele>
        <time>2026-06-16T09:08:33.000Z</time>
        <extensions>
          <ns3:TrackPointExtension>
            <ns3:atemp>18.0</ns3:atemp>
          </ns3:TrackPointExtension>
        </extensions>
      </trkpt>
      <trkpt lat="42.6243607699871063232421875" lon="19.8845533467829227447509765625">
        <ele>1815.4000244140625</ele>
        <time>2026-06-16T09:08:34.000Z</time>
        <extensions>
          <ns3:TrackPointExtension>
            <ns3:atemp>18.0</ns3:atemp>
          </ns3:TrackPointExtension>
        </extensions>
      </trkpt>
      <trkpt lat="42.6243398152291774749755859375" lon="19.8845578730106353759765625">
        <ele>1815.5999755859375</ele>
        <time>2026-06-16T09:08:35.000Z</time>
        <extensions>
          <ns3:TrackPointExtension>
            <ns3:atemp>18.0</ns3:atemp>
          </ns3:TrackPointExtension>
        </extensions>
      </trkpt>
      <trkpt lat="42.6243250630795955657958984375" lon="19.88456122577190399169921875">
        <ele>1815.800048828125</ele>
        <time>2026-06-16T09:08:36.000Z</time>
        <extensions>
          <ns3:TrackPointExtension>
            <ns3:atemp>18.0</ns3:atemp>
          </ns3:TrackPointExtension>
        </extensions>
      </trkpt>
      <trkpt lat="42.6243123225867748260498046875" lon="19.8845687694847583770751953125">
        <ele>1816.199951171875</ele>
        <time>2026-06-16T09:08:37.000Z</time>
        <extensions>
          <ns3:TrackPointExtension>
            <ns3:atemp>18.0</ns3:atemp>
          </ns3:TrackPointExtension>
        </extensions>
      </trkpt>
      <trkpt lat="42.6242975704371929168701171875" lon="19.88457757048308849334716796875">
        <ele>1816.4000244140625</ele>
        <time>2026-06-16T09:08:38.000Z</time>
        <extensions>
          <ns3:TrackPointExtension>
            <ns3:atemp>18.0</ns3:atemp>
          </ns3:TrackPointExtension>
        </extensions>
      </trkpt>
      <trkpt lat="42.62427871115505695343017578125" lon="19.884580336511135101318359375">
        <ele>1816.5999755859375</ele>
        <time>2026-06-16T09:08:39.000Z</time>
        <extensions>
          <ns3:TrackPointExtension>
            <ns3:atemp>18.0</ns3:atemp>
          </ns3:TrackPointExtension>
        </extensions>
      </trkpt>
      <trkpt lat="42.6242596842348575592041015625" lon="19.8845801688730716705322265625">
        <ele>1816.800048828125</ele>
        <time>2026-06-16T09:08:40.000Z</time>
        <extensions>
          <ns3:TrackPointExtension>
            <ns3:atemp>18.0</ns3:atemp>
          </ns3:TrackPointExtension>
        </extensions>
      </trkpt>
      <trkpt lat="42.62424132786691188812255859375" lon="19.884579665958881378173828125">
        <ele>1817.199951171875</ele>
        <time>2026-06-16T09:08:41.000Z</time>
        <extensions>
          <ns3:TrackPointExtension>
            <ns3:atemp>18.0</ns3:atemp>
          </ns3:TrackPointExtension>
        </extensions>
      </trkpt>
      <trkpt lat="42.6242244802415370941162109375" lon="19.88457773812115192413330078125">
        <ele>1817.4000244140625</ele>
        <time>2026-06-16T09:08:42.000Z</time>
        <extensions>
          <ns3:TrackPointExtension>
            <ns3:atemp>18.0</ns3:atemp>
          </ns3:TrackPointExtension>
        </extensions>
      </trkpt>
      <trkpt lat="42.6242077164351940155029296875" lon="19.8845798335969448089599609375">
        <ele>1817.800048828125</ele>
        <time>2026-06-16T09:08:43.000Z</time>
        <extensions>
          <ns3:TrackPointExtension>
            <ns3:atemp>18.0</ns3:atemp>
          </ns3:TrackPointExtension>
        </extensions>
      </trkpt>
      <trkpt lat="42.6241912879049777984619140625" lon="19.88458008505403995513916015625">
        <ele>1818</ele>
        <time>2026-06-16T09:08:44.000Z</time>
        <extensions>
          <ns3:TrackPointExtension>
            <ns3:atemp>18.0</ns3:atemp>
          </ns3:TrackPointExtension>
        </extensions>
      </trkpt>
      <trkpt lat="42.62417779304087162017822265625" lon="19.8845761455595493316650390625">
        <ele>1818.199951171875</ele>
        <time>2026-06-16T09:08:45.000Z</time>
        <extensions>
          <ns3:TrackPointExtension>
            <ns3:atemp>18.0</ns3:atemp>
          </ns3:TrackPointExtension>
        </extensions>
      </trkpt>
      <trkpt lat="42.62416295707225799560546875" lon="19.884568266570568084716796875">
        <ele>1818.5999755859375</ele>
        <time>2026-06-16T09:08:46.000Z</time>
        <extensions>
          <ns3:TrackPointExtension>
            <ns3:atemp>18.0</ns3:atemp>
          </ns3:TrackPointExtension>
        </extensions>
      </trkpt>
      <trkpt lat="42.62414828874170780181884765625" lon="19.8845647461712360382080078125">
        <ele>1819</ele>
        <time>2026-06-16T09:08:47.000Z</time>
        <extensions>
          <ns3:TrackPointExtension>
            <ns3:atemp>18.0</ns3:atemp>
          </ns3:TrackPointExtension>
        </extensions>
      </trkpt>
      <trkpt lat="42.6241322793066501617431640625" lon="19.88456281833350658416748046875">
        <ele>1819.4000244140625</ele>
        <time>2026-06-16T09:08:48.000Z</time>
        <extensions>
          <ns3:TrackPointExtension>
            <ns3:atemp>18.0</ns3:atemp>
          </ns3:TrackPointExtension>
        </extensions>
      </trkpt>
      <trkpt lat="42.62411844916641712188720703125" lon="19.8845603875815868377685546875">
        <ele>1819.800048828125</ele>
        <time>2026-06-16T09:08:49.000Z</time>
        <extensions>
          <ns3:TrackPointExtension>
            <ns3:atemp>18.0</ns3:atemp>
          </ns3:TrackPointExtension>
        </extensions>
      </trkpt>
      <trkpt lat="42.624104283750057220458984375" lon="19.8845610581338405609130859375">
        <ele>1820.199951171875</ele>
        <time>2026-06-16T09:08:50.000Z</time>
        <extensions>
          <ns3:TrackPointExtension>
            <ns3:atemp>18.0</ns3:atemp>
          </ns3:TrackPointExtension>
        </extensions>
      </trkpt>
      <trkpt lat="42.624087519943714141845703125" lon="19.88456013612449169158935546875">
        <ele>1820.4000244140625</ele>
        <time>2026-06-16T09:08:51.000Z</time>
        <extensions>
          <ns3:TrackPointExtension>
            <ns3:atemp>18.0</ns3:atemp>
          </ns3:TrackPointExtension>
        </extensions>
      </trkpt>
      <trkpt lat="42.62406773865222930908203125" lon="19.884559549391269683837890625">
        <ele>1820.5999755859375</ele>
        <time>2026-06-16T09:08:52.000Z</time>
        <extensions>
          <ns3:TrackPointExtension>
            <ns3:atemp>18.0</ns3:atemp>
          </ns3:TrackPointExtension>
        </extensions>
      </trkpt>
      <trkpt lat="42.62404535897076129913330078125" lon="19.88456189632415771484375">
        <ele>1821</ele>
        <time>2026-06-16T09:08:53.000Z</time>
        <extensions>
          <ns3:TrackPointExtension>
            <ns3:atemp>18.0</ns3:atemp>
          </ns3:TrackPointExtension>
        </extensions>
      </trkpt>
      <trkpt lat="42.62402876280248165130615234375" lon="19.88455661572515964508056640625">
        <ele>1821.199951171875</ele>
        <time>2026-06-16T09:08:54.000Z</time>
        <extensions>
          <ns3:TrackPointExtension>
            <ns3:atemp>18.0</ns3:atemp>
          </ns3:TrackPointExtension>
        </extensions>
      </trkpt>
      <trkpt lat="42.62401141226291656494140625" lon="19.88455544225871562957763671875">
        <ele>1821.800048828125</ele>
        <time>2026-06-16T09:08:55.000Z</time>
        <extensions>
          <ns3:TrackPointExtension>
            <ns3:atemp>18.0</ns3:atemp>
          </ns3:TrackPointExtension>
        </extensions>
      </trkpt>
      <trkpt lat="42.6239958219230175018310546875" lon="19.884554855525493621826171875">
        <ele>1822.199951171875</ele>
        <time>2026-06-16T09:08:56.000Z</time>
        <extensions>
          <ns3:TrackPointExtension>
            <ns3:atemp>18.0</ns3:atemp>
          </ns3:TrackPointExtension>
        </extensions>
      </trkpt>
      <trkpt lat="42.62398400343954563140869140625" lon="19.88454773090779781341552734375">
        <ele>1822.4000244140625</ele>
        <time>2026-06-16T09:08:57.000Z</time>
        <extensions>
          <ns3:TrackPointExtension>
            <ns3:atemp>18.0</ns3:atemp>
          </ns3:TrackPointExtension>
        </extensions>
      </trkpt>
      <trkpt lat="42.6239686645567417144775390625" lon="19.88454488106071949005126953125">
        <ele>1822.800048828125</ele>
        <time>2026-06-16T09:08:58.000Z</time>
        <extensions>
          <ns3:TrackPointExtension>
            <ns3:atemp>18.0</ns3:atemp>
          </ns3:TrackPointExtension>
        </extensions>
      </trkpt>
      <trkpt lat="42.62395030818879604339599609375" lon="19.88454245030879974365234375">
        <ele>1823.199951171875</ele>
        <time>2026-06-16T09:08:59.000Z</time>
        <extensions>
          <ns3:TrackPointExtension>
            <ns3:atemp>18.0</ns3:atemp>
          </ns3:TrackPointExtension>
        </extensions>
      </trkpt>
      <trkpt lat="42.62393094599246978759765625" lon="19.88453985191881656646728515625">
        <ele>1823.4000244140625</ele>
        <time>2026-06-16T09:09:00.000Z</time>
        <extensions>
          <ns3:TrackPointExtension>
            <ns3:atemp>18.0</ns3:atemp>
          </ns3:TrackPointExtension>
        </extensions>
      </trkpt>
      <trkpt lat="42.62391258962452411651611328125" lon="19.88453716970980167388916015625">
        <ele>1823.800048828125</ele>
        <time>2026-06-16T09:09:01.000Z</time>
        <extensions>
          <ns3:TrackPointExtension>
            <ns3:atemp>18.0</ns3:atemp>
          </ns3:TrackPointExtension>
        </extensions>
      </trkpt>
      <trkpt lat="42.623893730342388153076171875" lon="19.8845352418720722198486328125">
        <ele>1824.199951171875</ele>
        <time>2026-06-16T09:09:02.000Z</time>
        <extensions>
          <ns3:TrackPointExtension>
            <ns3:atemp>18.0</ns3:atemp>
          </ns3:TrackPointExtension>
        </extensions>
      </trkpt>
      <trkpt lat="42.62387939728796482086181640625" lon="19.8845375888049602508544921875">
        <ele>1824.4000244140625</ele>
        <time>2026-06-16T09:09:03.000Z</time>
        <extensions>
          <ns3:TrackPointExtension>
            <ns3:atemp>18.0</ns3:atemp>
          </ns3:TrackPointExtension>
        </extensions>
      </trkpt>
      <trkpt lat="42.6238607056438922882080078125" lon="19.88454035483300685882568359375">
        <ele>1824.800048828125</ele>
        <time>2026-06-16T09:09:04.000Z</time>
        <extensions>
          <ns3:TrackPointExtension>
            <ns3:atemp>18.0</ns3:atemp>
          </ns3:TrackPointExtension>
        </extensions>
      </trkpt>
      <trkpt lat="42.62384134344756603240966796875" lon="19.88453750498592853546142578125">
        <ele>1825.199951171875</ele>
        <time>2026-06-16T09:09:05.000Z</time>
        <extensions>
          <ns3:TrackPointExtension>
            <ns3:atemp>18.0</ns3:atemp>
          </ns3:TrackPointExtension>
        </extensions>
      </trkpt>
      <trkpt lat="42.62382273562252521514892578125" lon="19.8845355771481990814208984375">
        <ele>1825.800048828125</ele>
        <time>2026-06-16T09:09:06.000Z</time>
        <extensions>
          <ns3:TrackPointExtension>
            <ns3:atemp>18.0</ns3:atemp>
          </ns3:TrackPointExtension>
        </extensions>
      </trkpt>
      <trkpt lat="42.62380530126392841339111328125" lon="19.88454638980329036712646484375">
        <ele>1826.4000244140625</ele>
        <time>2026-06-16T09:09:07.000Z</time>
        <extensions>
          <ns3:TrackPointExtension>
            <ns3:atemp>18.0</ns3:atemp>
          </ns3:TrackPointExtension>
        </extensions>
      </trkpt>
      <trkpt lat="42.62378753162920475006103515625" lon="19.884559214115142822265625">
        <ele>1826.800048828125</ele>
        <time>2026-06-16T09:09:08.000Z</time>
        <extensions>
          <ns3:TrackPointExtension>
            <ns3:atemp>18.0</ns3:atemp>
          </ns3:TrackPointExtension>
        </extensions>
      </trkpt>
      <trkpt lat="42.6237698458135128021240234375" lon="19.88456449471414089202880859375">
        <ele>1827.4000244140625</ele>
        <time>2026-06-16T09:09:09.000Z</time>
        <extensions>
          <ns3:TrackPointExtension>
            <ns3:atemp>18.0</ns3:atemp>
          </ns3:TrackPointExtension>
        </extensions>
      </trkpt>
      <trkpt lat="42.62375467456877231597900390625" lon="19.88457254134118556976318359375">
        <ele>1827.800048828125</ele>
        <time>2026-06-16T09:09:10.000Z</time>
        <extensions>
          <ns3:TrackPointExtension>
            <ns3:atemp>18.0</ns3:atemp>
          </ns3:TrackPointExtension>
        </extensions>
      </trkpt>
      <trkpt lat="42.62373958714306354522705078125" lon="19.88458293490111827850341796875">
        <ele>1828.4000244140625</ele>
        <time>2026-06-16T09:09:11.000Z</time>
        <extensions>
          <ns3:TrackPointExtension>
            <ns3:atemp>18.0</ns3:atemp>
          </ns3:TrackPointExtension>
        </extensions>
      </trkpt>
      <trkpt lat="42.62372173368930816650390625" lon="19.8845905624330043792724609375">
        <ele>1829</ele>
        <time>2026-06-16T09:09:12.000Z</time>
        <extensions>
          <ns3:TrackPointExtension>
            <ns3:atemp>18.0</ns3:atemp>
          </ns3:TrackPointExtension>
        </extensions>
      </trkpt>
      <trkpt lat="42.6237037964165210723876953125" lon="19.88459450192749500274658203125">
        <ele>1829.4000244140625</ele>
        <time>2026-06-16T09:09:13.000Z</time>
        <extensions>
          <ns3:TrackPointExtension>
            <ns3:atemp>18.0</ns3:atemp>
          </ns3:TrackPointExtension>
        </extensions>
      </trkpt>
      <trkpt lat="42.62368711642920970916748046875" lon="19.8845981061458587646484375">
        <ele>1829.800048828125</ele>
        <time>2026-06-16T09:09:14.000Z</time>
        <extensions>
          <ns3:TrackPointExtension>
            <ns3:atemp>18.0</ns3:atemp>
          </ns3:TrackPointExtension>
        </extensions>
      </trkpt>
      <trkpt lat="42.62366984970867633819580078125" lon="19.884608499705791473388671875">
        <ele>1830.199951171875</ele>
        <time>2026-06-16T09:09:15.000Z</time>
        <extensions>
          <ns3:TrackPointExtension>
            <ns3:atemp>18.0</ns3:atemp>
          </ns3:TrackPointExtension>
        </extensions>
      </trkpt>
      <trkpt lat="42.6236551813781261444091796875" lon="19.88462132401764392852783203125">
        <ele>1830.800048828125</ele>
        <time>2026-06-16T09:09:16.000Z</time>
        <extensions>
          <ns3:TrackPointExtension>
            <ns3:atemp>18.0</ns3:atemp>
          </ns3:TrackPointExtension>
        </extensions>
      </trkpt>
      <trkpt lat="42.62364051304757595062255859375" lon="19.8846356570720672607421875">
        <ele>1831</ele>
        <time>2026-06-16T09:09:17.000Z</time>
        <extensions>
          <ns3:TrackPointExtension>
            <ns3:atemp>18.0</ns3:atemp>
          </ns3:TrackPointExtension>
        </extensions>
      </trkpt>
      <trkpt lat="42.62361855246126651763916015625" lon="19.884645044803619384765625">
        <ele>1831.5999755859375</ele>
        <time>2026-06-16T09:09:18.000Z</time>
        <extensions>
          <ns3:TrackPointExtension>
            <ns3:atemp>18.0</ns3:atemp>
          </ns3:TrackPointExtension>
        </extensions>
      </trkpt>
      <trkpt lat="42.62360103428363800048828125" lon="19.88463825546205043792724609375">
        <ele>1832</ele>
        <time>2026-06-16T09:09:19.000Z</time>
        <extensions>
          <ns3:TrackPointExtension>
            <ns3:atemp>18.0</ns3:atemp>
          </ns3:TrackPointExtension>
        </extensions>
      </trkpt>
      <trkpt lat="42.6235837675631046295166015625" lon="19.8846281133592128753662109375">
        <ele>1832.4000244140625</ele>
        <time>2026-06-16T09:09:20.000Z</time>
        <extensions>
          <ns3:TrackPointExtension>
            <ns3:atemp>18.0</ns3:atemp>
          </ns3:TrackPointExtension>
        </extensions>
      </trkpt>
      <trkpt lat="42.62356616556644439697265625" lon="19.88462098874151706695556640625">
        <ele>1832.5999755859375</ele>
        <time>2026-06-16T09:09:21.000Z</time>
        <extensions>
          <ns3:TrackPointExtension>
            <ns3:atemp>18.0</ns3:atemp>
          </ns3:TrackPointExtension>
        </extensions>
      </trkpt>
      <trkpt lat="42.623549401760101318359375" lon="19.88461621105670928955078125">
        <ele>1833</ele>
        <time>2026-06-16T09:09:22.000Z</time>
        <extensions>
          <ns3:TrackPointExtension>
            <ns3:atemp>18.0</ns3:atemp>
          </ns3:TrackPointExtension>
        </extensions>
      </trkpt>
      <trkpt lat="42.62353339232504367828369140625" lon="19.88461009226739406585693359375">
        <ele>1833.4000244140625</ele>
        <time>2026-06-16T09:09:23.000Z</time>
        <extensions>
          <ns3:TrackPointExtension>
            <ns3:atemp>18.0</ns3:atemp>
          </ns3:TrackPointExtension>
        </extensions>
      </trkpt>
      <trkpt lat="42.623515538871288299560546875" lon="19.88460321910679340362548828125">
        <ele>1833.5999755859375</ele>
        <time>2026-06-16T09:09:24.000Z</time>
        <extensions>
          <ns3:TrackPointExtension>
            <ns3:atemp>18.0</ns3:atemp>
          </ns3:TrackPointExtension>
        </extensions>
      </trkpt>
      <trkpt lat="42.6234996132552623748779296875" lon="19.88459751941263675689697265625">
        <ele>1834</ele>
        <time>2026-06-16T09:09:25.000Z</time>
        <extensions>
          <ns3:TrackPointExtension>
            <ns3:atemp>18.0</ns3:atemp>
          </ns3:TrackPointExtension>
        </extensions>
      </trkpt>
      <trkpt lat="42.62348528020083904266357421875" lon="19.88459332846105098724365234375">
        <ele>1834.4000244140625</ele>
        <time>2026-06-16T09:09:26.000Z</time>
        <extensions>
          <ns3:TrackPointExtension>
            <ns3:atemp>18.0</ns3:atemp>
          </ns3:TrackPointExtension>
        </extensions>
      </trkpt>
      <trkpt lat="42.62347203679382801055908203125" lon="19.88458804786205291748046875">
        <ele>1834.5999755859375</ele>
        <time>2026-06-16T09:09:27.000Z</time>
        <extensions>
          <ns3:TrackPointExtension>
            <ns3:atemp>18.0</ns3:atemp>
          </ns3:TrackPointExtension>
        </extensions>
      </trkpt>
      <trkpt lat="42.623458206653594970703125" lon="19.88457656465470790863037109375">
        <ele>1834.800048828125</ele>
        <time>2026-06-16T09:09:28.000Z</time>
        <extensions>
          <ns3:TrackPointExtension>
            <ns3:atemp>18.0</ns3:atemp>
          </ns3:TrackPointExtension>
        </extensions>
      </trkpt>
      <trkpt lat="42.623442113399505615234375" lon="19.88457187078893184661865234375">
        <ele>1835.199951171875</ele>
        <time>2026-06-16T09:09:29.000Z</time>
        <extensions>
          <ns3:TrackPointExtension>
            <ns3:atemp>18.0</ns3:atemp>
          </ns3:TrackPointExtension>
        </extensions>
      </trkpt>
      <trkpt lat="42.6234251819550991058349609375" lon="19.88456524908542633056640625">
        <ele>1835.4000244140625</ele>
        <time>2026-06-16T09:09:30.000Z</time>
        <extensions>
          <ns3:TrackPointExtension>
            <ns3:atemp>18.0</ns3:atemp>
          </ns3:TrackPointExtension>
        </extensions>
      </trkpt>
      <trkpt lat="42.6234064064919948577880859375" lon="19.88456600345671176910400390625">
        <ele>1835.5999755859375</ele>
        <time>2026-06-16T09:09:31.000Z</time>
        <extensions>
          <ns3:TrackPointExtension>
            <ns3:atemp>18.0</ns3:atemp>
          </ns3:TrackPointExtension>
        </extensions>
      </trkpt>
      <trkpt lat="42.62338503263890743255615234375" lon="19.88456793129444122314453125">
        <ele>1835.800048828125</ele>
        <time>2026-06-16T09:09:32.000Z</time>
        <extensions>
          <ns3:TrackPointExtension>
            <ns3:atemp>18.0</ns3:atemp>
          </ns3:TrackPointExtension>
        </extensions>
      </trkpt>
      <trkpt lat="42.62336256913840770721435546875" lon="19.8845704458653926849365234375">
        <ele>1836.199951171875</ele>
        <time>2026-06-16T09:09:33.000Z</time>
        <extensions>
          <ns3:TrackPointExtension>
            <ns3:atemp>18.0</ns3:atemp>
          </ns3:TrackPointExtension>
        </extensions>
      </trkpt>
      <trkpt lat="42.623343877494335174560546875" lon="19.88457505591213703155517578125">
        <ele>1836.4000244140625</ele>
        <time>2026-06-16T09:09:34.000Z</time>
        <extensions>
          <ns3:TrackPointExtension>
            <ns3:atemp>18.0</ns3:atemp>
          </ns3:TrackPointExtension>
        </extensions>
      </trkpt>
      <trkpt lat="42.623325772583484649658203125" lon="19.88458092324435710906982421875">
        <ele>1836.800048828125</ele>
        <time>2026-06-16T09:09:35.000Z</time>
        <extensions>
          <ns3:TrackPointExtension>
            <ns3:atemp>18.0</ns3:atemp>
          </ns3:TrackPointExtension>
        </extensions>
      </trkpt>
      <trkpt lat="42.6233061589300632476806640625" lon="19.88458360545337200164794921875">
        <ele>1836.800048828125</ele>
        <time>2026-06-16T09:09:36.000Z</time>
        <extensions>
          <ns3:TrackPointExtension>
            <ns3:atemp>18.0</ns3:atemp>
          </ns3:TrackPointExtension>
        </extensions>
      </trkpt>
      <trkpt lat="42.62328897602856159210205078125" lon="19.8845835216343402862548828125">
        <ele>1837.199951171875</ele>
        <time>2026-06-16T09:09:37.000Z</time>
        <extensions>
          <ns3:TrackPointExtension>
            <ns3:atemp>18.0</ns3:atemp>
          </ns3:TrackPointExtension>
        </extensions>
      </trkpt>
      <trkpt lat="42.6232733018696308135986328125" lon="19.8845818452537059783935546875">
        <ele>1837.4000244140625</ele>
        <time>2026-06-16T09:09:38.000Z</time>
        <extensions>
          <ns3:TrackPointExtension>
            <ns3:atemp>19.0</ns3:atemp>
          </ns3:TrackPointExtension>
        </extensions>
      </trkpt>
      <trkpt lat="42.62325637042522430419921875" lon="19.88458494655787944793701171875">
        <ele>1837.5999755859375</ele>
        <time>2026-06-16T09:09:39.000Z</time>
        <extensions>
          <ns3:TrackPointExtension>
            <ns3:atemp>19.0</ns3:atemp>
          </ns3:TrackPointExtension>
        </extensions>
      </trkpt>
      <trkpt lat="42.62324388138949871063232421875" lon="19.88459249027073383331298828125">
        <ele>1838</ele>
        <time>2026-06-16T09:09:40.000Z</time>
        <extensions>
          <ns3:TrackPointExtension>
            <ns3:atemp>19.0</ns3:atemp>
          </ns3:TrackPointExtension>
        </extensions>
      </trkpt>
      <trkpt lat="42.62323491275310516357421875" lon="19.8845999501645565032958984375">
        <ele>1838.199951171875</ele>
        <time>2026-06-16T09:09:41.000Z</time>
        <extensions>
          <ns3:TrackPointExtension>
            <ns3:atemp>19.0</ns3:atemp>
          </ns3:TrackPointExtension>
        </extensions>
      </trkpt>
      <trkpt lat="42.62322418391704559326171875" lon="19.88460372202098369598388671875">
        <ele>1838.4000244140625</ele>
        <time>2026-06-16T09:09:42.000Z</time>
        <extensions>
          <ns3:TrackPointExtension>
            <ns3:atemp>19.0</ns3:atemp>
          </ns3:TrackPointExtension>
        </extensions>
      </trkpt>
      <trkpt lat="42.6232159696519374847412109375" lon="19.884607493877410888671875">
        <ele>1838.5999755859375</ele>
        <time>2026-06-16T09:09:43.000Z</time>
        <extensions>
          <ns3:TrackPointExtension>
            <ns3:atemp>19.0</ns3:atemp>
          </ns3:TrackPointExtension>
        </extensions>
      </trkpt>
      <trkpt lat="42.62320532463490962982177734375" lon="19.8846079967916011810302734375">
        <ele>1838.800048828125</ele>
        <time>2026-06-16T09:09:44.000Z</time>
        <extensions>
          <ns3:TrackPointExtension>
            <ns3:atemp>19.0</ns3:atemp>
          </ns3:TrackPointExtension>
        </extensions>
      </trkpt>
      <trkpt lat="42.62319409288465976715087890625" lon="19.8846103437244892120361328125">
        <ele>1839</ele>
        <time>2026-06-16T09:09:45.000Z</time>
        <extensions>
          <ns3:TrackPointExtension>
            <ns3:atemp>19.0</ns3:atemp>
          </ns3:TrackPointExtension>
        </extensions>
      </trkpt>
      <trkpt lat="42.62318604625761508941650390625" lon="19.8846153728663921356201171875">
        <ele>1839.199951171875</ele>
        <time>2026-06-16T09:09:46.000Z</time>
        <extensions>
          <ns3:TrackPointExtension>
            <ns3:atemp>19.0</ns3:atemp>
          </ns3:TrackPointExtension>
        </extensions>
      </trkpt>
      <trkpt lat="42.62317514978349208831787109375" lon="19.88461981527507305145263671875">
        <ele>1839.4000244140625</ele>
        <time>2026-06-16T09:09:47.000Z</time>
        <extensions>
          <ns3:TrackPointExtension>
            <ns3:atemp>19.0</ns3:atemp>
          </ns3:TrackPointExtension>
        </extensions>
      </trkpt>
      <trkpt lat="42.623165510594844818115234375" lon="19.8846227489411830902099609375">
        <ele>1839.5999755859375</ele>
        <time>2026-06-16T09:09:48.000Z</time>
        <extensions>
          <ns3:TrackPointExtension>
            <ns3:atemp>19.0</ns3:atemp>
          </ns3:TrackPointExtension>
        </extensions>
      </trkpt>
      <trkpt lat="42.62315084226429462432861328125" lon="19.88462450914084911346435546875">
        <ele>1839.800048828125</ele>
        <time>2026-06-16T09:09:49.000Z</time>
        <extensions>
          <ns3:TrackPointExtension>
            <ns3:atemp>19.0</ns3:atemp>
          </ns3:TrackPointExtension>
        </extensions>
      </trkpt>
      <trkpt lat="42.62313692830502986907958984375" lon="19.884621910750865936279296875">
        <ele>1840</ele>
        <time>2026-06-16T09:09:50.000Z</time>
        <extensions>
          <ns3:TrackPointExtension>
            <ns3:atemp>19.0</ns3:atemp>
          </ns3:TrackPointExtension>
        </extensions>
      </trkpt>
      <trkpt lat="42.6231207512319087982177734375" lon="19.884618557989597320556640625">
        <ele>1840.199951171875</ele>
        <time>2026-06-16T09:09:51.000Z</time>
        <extensions>
          <ns3:TrackPointExtension>
            <ns3:atemp>19.0</ns3:atemp>
          </ns3:TrackPointExtension>
        </extensions>
      </trkpt>
      <trkpt lat="42.623103819787502288818359375" lon="19.88461445085704326629638671875">
        <ele>1840.4000244140625</ele>
        <time>2026-06-16T09:09:52.000Z</time>
        <extensions>
          <ns3:TrackPointExtension>
            <ns3:atemp>19.0</ns3:atemp>
          </ns3:TrackPointExtension>
        </extensions>
      </trkpt>
      <trkpt lat="42.62309049256145954132080078125" lon="19.88460992462933063507080078125">
        <ele>1840.5999755859375</ele>
        <time>2026-06-16T09:09:53.000Z</time>
        <extensions>
          <ns3:TrackPointExtension>
            <ns3:atemp>19.0</ns3:atemp>
          </ns3:TrackPointExtension>
        </extensions>
      </trkpt>
      <trkpt lat="42.623076327145099639892578125" lon="19.884607493877410888671875">
        <ele>1840.5999755859375</ele>
        <time>2026-06-16T09:09:54.000Z</time>
        <extensions>
          <ns3:TrackPointExtension>
            <ns3:atemp>19.0</ns3:atemp>
          </ns3:TrackPointExtension>
        </extensions>
      </trkpt>
      <trkpt lat="42.6230654306709766387939453125" lon="19.88460171036422252655029296875">
        <ele>1840.800048828125</ele>
        <time>2026-06-16T09:09:55.000Z</time>
        <extensions>
          <ns3:TrackPointExtension>
            <ns3:atemp>19.0</ns3:atemp>
          </ns3:TrackPointExtension>
        </extensions>
      </trkpt>
      <trkpt lat="42.6230563782155513763427734375" lon="19.88459634594619274139404296875">
        <ele>1841</ele>
        <time>2026-06-16T09:09:56.000Z</time>
        <extensions>
          <ns3:TrackPointExtension>
            <ns3:atemp>19.0</ns3:atemp>
          </ns3:TrackPointExtension>
        </extensions>
      </trkpt>
      <trkpt lat="42.62305788695812225341796875" lon="19.8845927417278289794921875">
        <ele>1841.199951171875</ele>
        <time>2026-06-16T09:09:57.000Z</time>
        <extensions>
          <ns3:TrackPointExtension>
            <ns3:atemp>19.0</ns3:atemp>
          </ns3:TrackPointExtension>
        </extensions>
      </trkpt>
      <trkpt lat="42.62305780313909053802490234375" lon="19.8845927417278289794921875">
        <ele>1841.199951171875</ele>
        <time>2026-06-16T09:09:58.000Z</time>
        <extensions>
          <ns3:TrackPointExtension>
            <ns3:atemp>19.0</ns3:atemp>
          </ns3:TrackPointExtension>
        </extensions>
      </trkpt>
      <trkpt lat="42.62305780313909053802490234375" lon="19.8845927417278289794921875">
        <ele>1841.800048828125</ele>
        <time>2026-06-16T09:09:59.000Z</time>
        <extensions>
          <ns3:TrackPointExtension>
            <ns3:atemp>19.0</ns3:atemp>
          </ns3:TrackPointExtension>
        </extensions>
      </trkpt>
      <trkpt lat="42.62305780313909053802490234375" lon="19.8845927417278289794921875">
        <ele>1841.800048828125</ele>
        <time>2026-06-16T09:10:00.000Z</time>
        <extensions>
          <ns3:TrackPointExtension>
            <ns3:atemp>19.0</ns3:atemp>
          </ns3:TrackPointExtension>
        </extensions>
      </trkpt>
      <trkpt lat="42.62305780313909053802490234375" lon="19.8845927417278289794921875">
        <ele>1841.800048828125</ele>
        <time>2026-06-16T09:10:01.000Z</time>
        <extensions>
          <ns3:TrackPointExtension>
            <ns3:atemp>19.0</ns3:atemp>
          </ns3:TrackPointExtension>
        </extensions>
      </trkpt>
      <trkpt lat="42.62305780313909053802490234375" lon="19.8845927417278289794921875">
        <ele>1841.800048828125</ele>
        <time>2026-06-16T09:10:02.000Z</time>
        <extensions>
          <ns3:TrackPointExtension>
            <ns3:atemp>19.0</ns3:atemp>
          </ns3:TrackPointExtension>
        </extensions>
      </trkpt>
      <trkpt lat="42.62305780313909053802490234375" lon="19.8845927417278289794921875">
        <ele>1841.800048828125</ele>
        <time>2026-06-16T09:10:03.000Z</time>
        <extensions>
          <ns3:TrackPointExtension>
            <ns3:atemp>19.0</ns3:atemp>
          </ns3:TrackPointExtension>
        </extensions>
      </trkpt>
      <trkpt lat="42.62305780313909053802490234375" lon="19.8845927417278289794921875">
        <ele>1841.800048828125</ele>
        <time>2026-06-16T09:10:04.000Z</time>
        <extensions>
          <ns3:TrackPointExtension>
            <ns3:atemp>19.0</ns3:atemp>
          </ns3:TrackPointExtension>
        </extensions>
      </trkpt>
      <trkpt lat="42.62305780313909053802490234375" lon="19.8845927417278289794921875">
        <ele>1841.800048828125</ele>
        <time>2026-06-16T09:10:05.000Z</time>
        <extensions>
          <ns3:TrackPointExtension>
            <ns3:atemp>19.0</ns3:atemp>
          </ns3:TrackPointExtension>
        </extensions>
      </trkpt>
      <trkpt lat="42.62305780313909053802490234375" lon="19.8845927417278289794921875">
        <ele>1841.800048828125</ele>
        <time>2026-06-16T09:10:06.000Z</time>
        <extensions>
          <ns3:TrackPointExtension>
            <ns3:atemp>19.0</ns3:atemp>
          </ns3:TrackPointExtension>
        </extensions>
      </trkpt>
      <trkpt lat="42.623056881129741668701171875" lon="19.88459349609911441802978515625">
        <ele>1841.800048828125</ele>
        <time>2026-06-16T09:10:07.000Z</time>
        <extensions>
          <ns3:TrackPointExtension>
            <ns3:atemp>19.0</ns3:atemp>
          </ns3:TrackPointExtension>
        </extensions>
      </trkpt>
      <trkpt lat="42.62304606847465038299560546875" lon="19.884589724242687225341796875">
        <ele>1841.800048828125</ele>
        <time>2026-06-16T09:10:08.000Z</time>
        <extensions>
          <ns3:TrackPointExtension>
            <ns3:atemp>19.0</ns3:atemp>
          </ns3:TrackPointExtension>
        </extensions>
      </trkpt>
      <trkpt lat="42.6230355910956859588623046875" lon="19.88458410836756229400634765625">
        <ele>1841.800048828125</ele>
        <time>2026-06-16T09:10:09.000Z</time>
        <extensions>
          <ns3:TrackPointExtension>
            <ns3:atemp>19.0</ns3:atemp>
          </ns3:TrackPointExtension>
        </extensions>
      </trkpt>
      <trkpt lat="42.62302226386964321136474609375" lon="19.8845768161118030548095703125">
        <ele>1841.800048828125</ele>
        <time>2026-06-16T09:10:10.000Z</time>
        <extensions>
          <ns3:TrackPointExtension>
            <ns3:atemp>19.0</ns3:atemp>
          </ns3:TrackPointExtension>
        </extensions>
      </trkpt>
      <trkpt lat="42.623004913330078125" lon="19.884575642645359039306640625">
        <ele>1841.800048828125</ele>
        <time>2026-06-16T09:10:11.000Z</time>
        <extensions>
          <ns3:TrackPointExtension>
            <ns3:atemp>19.0</ns3:atemp>
          </ns3:TrackPointExtension>
        </extensions>
      </trkpt>
      <trkpt lat="42.6229829527437686920166015625" lon="19.88457840867340564727783203125">
        <ele>1841.800048828125</ele>
        <time>2026-06-16T09:10:12.000Z</time>
        <extensions>
          <ns3:TrackPointExtension>
            <ns3:atemp>19.0</ns3:atemp>
          </ns3:TrackPointExtension>
        </extensions>
      </trkpt>
      <trkpt lat="42.6229651831090450286865234375" lon="19.8845751397311687469482421875">
        <ele>1842</ele>
        <time>2026-06-16T09:10:13.000Z</time>
        <extensions>
          <ns3:TrackPointExtension>
            <ns3:atemp>19.0</ns3:atemp>
          </ns3:TrackPointExtension>
        </extensions>
      </trkpt>
      <trkpt lat="42.6229514367878437042236328125" lon="19.88456885330379009246826171875">
        <ele>1842.4000244140625</ele>
        <time>2026-06-16T09:10:14.000Z</time>
        <extensions>
          <ns3:TrackPointExtension>
            <ns3:atemp>19.0</ns3:atemp>
          </ns3:TrackPointExtension>
        </extensions>
      </trkpt>
      <trkpt lat="42.6229383610188961029052734375" lon="19.884572960436344146728515625">
        <ele>1842.800048828125</ele>
        <time>2026-06-16T09:10:15.000Z</time>
        <extensions>
          <ns3:TrackPointExtension>
            <ns3:atemp>19.0</ns3:atemp>
          </ns3:TrackPointExtension>
        </extensions>
      </trkpt>
      <trkpt lat="42.62292872183024883270263671875" lon="19.88457539118826389312744140625">
        <ele>1843.199951171875</ele>
        <time>2026-06-16T09:10:16.000Z</time>
        <extensions>
          <ns3:TrackPointExtension>
            <ns3:atemp>19.0</ns3:atemp>
          </ns3:TrackPointExtension>
        </extensions>
      </trkpt>
      <trkpt lat="42.62292067520320415496826171875" lon="19.8845873773097991943359375">
        <ele>1843.4000244140625</ele>
        <time>2026-06-16T09:10:17.000Z</time>
        <extensions>
          <ns3:TrackPointExtension>
            <ns3:atemp>19.0</ns3:atemp>
          </ns3:TrackPointExtension>
        </extensions>
      </trkpt>
      <trkpt lat="42.6229083538055419921875" lon="19.88458896987140178680419921875">
        <ele>1843.800048828125</ele>
        <time>2026-06-16T09:10:18.000Z</time>
        <extensions>
          <ns3:TrackPointExtension>
            <ns3:atemp>19.0</ns3:atemp>
          </ns3:TrackPointExtension>
        </extensions>
      </trkpt>
      <trkpt lat="42.6228941045701503753662109375" lon="19.88457941450178623199462890625">
        <ele>1844</ele>
        <time>2026-06-16T09:10:19.000Z</time>
        <extensions>
          <ns3:TrackPointExtension>
            <ns3:atemp>19.0</ns3:atemp>
          </ns3:TrackPointExtension>
        </extensions>
      </trkpt>
      <trkpt lat="42.6228800229728221893310546875" lon="19.8845781572163105010986328125">
        <ele>1844.4000244140625</ele>
        <time>2026-06-16T09:10:20.000Z</time>
        <extensions>
          <ns3:TrackPointExtension>
            <ns3:atemp>19.0</ns3:atemp>
          </ns3:TrackPointExtension>
        </extensions>
      </trkpt>
      <trkpt lat="42.62286585755646228790283203125" lon="19.88458662293851375579833984375">
        <ele>1844.5999755859375</ele>
        <time>2026-06-16T09:10:21.000Z</time>
        <extensions>
          <ns3:TrackPointExtension>
            <ns3:atemp>19.0</ns3:atemp>
          </ns3:TrackPointExtension>
        </extensions>
      </trkpt>
      <trkpt lat="42.62284909375011920928955078125" lon="19.8845919035375118255615234375">
        <ele>1844.800048828125</ele>
        <time>2026-06-16T09:10:22.000Z</time>
        <extensions>
          <ns3:TrackPointExtension>
            <ns3:atemp>19.0</ns3:atemp>
          </ns3:TrackPointExtension>
        </extensions>
      </trkpt>
      <trkpt lat="42.622833251953125" lon="19.88459114916622638702392578125">
        <ele>1845</ele>
        <time>2026-06-16T09:10:23.000Z</time>
        <extensions>
          <ns3:TrackPointExtension>
            <ns3:atemp>19.0</ns3:atemp>
          </ns3:TrackPointExtension>
        </extensions>
      </trkpt>
      <trkpt lat="42.622819505631923675537109375" lon="19.88458913750946521759033203125">
        <ele>1845.199951171875</ele>
        <time>2026-06-16T09:10:24.000Z</time>
        <extensions>
          <ns3:TrackPointExtension>
            <ns3:atemp>19.0</ns3:atemp>
          </ns3:TrackPointExtension>
        </extensions>
      </trkpt>
      <trkpt lat="42.62280517257750034332275390625" lon="19.884583689272403717041015625">
        <ele>1845.5999755859375</ele>
        <time>2026-06-16T09:10:25.000Z</time>
        <extensions>
          <ns3:TrackPointExtension>
            <ns3:atemp>19.0</ns3:atemp>
          </ns3:TrackPointExtension>
        </extensions>
      </trkpt>
      <trkpt lat="42.62279528193175792694091796875" lon="19.884575642645359039306640625">
        <ele>1846</ele>
        <time>2026-06-16T09:10:26.000Z</time>
        <extensions>
          <ns3:TrackPointExtension>
            <ns3:atemp>19.0</ns3:atemp>
          </ns3:TrackPointExtension>
        </extensions>
      </trkpt>
      <trkpt lat="42.62278497219085693359375" lon="19.884568266570568084716796875">
        <ele>1846.199951171875</ele>
        <time>2026-06-16T09:10:27.000Z</time>
        <extensions>
          <ns3:TrackPointExtension>
            <ns3:atemp>19.0</ns3:atemp>
          </ns3:TrackPointExtension>
        </extensions>
      </trkpt>
      <trkpt lat="42.6227780990302562713623046875" lon="19.8845565319061279296875">
        <ele>1846.4000244140625</ele>
        <time>2026-06-16T09:10:28.000Z</time>
        <extensions>
          <ns3:TrackPointExtension>
            <ns3:atemp>19.0</ns3:atemp>
          </ns3:TrackPointExtension>
        </extensions>
      </trkpt>
      <trkpt lat="42.6227717287838459014892578125" lon="19.88454236648976802825927734375">
        <ele>1846.800048828125</ele>
        <time>2026-06-16T09:10:29.000Z</time>
        <extensions>
          <ns3:TrackPointExtension>
            <ns3:atemp>19.0</ns3:atemp>
          </ns3:TrackPointExtension>
        </extensions>
      </trkpt>
      <trkpt lat="42.62276812456548213958740234375" lon="19.88452292047441005706787109375">
        <ele>1847.199951171875</ele>
        <time>2026-06-16T09:10:30.000Z</time>
        <extensions>
          <ns3:TrackPointExtension>
            <ns3:atemp>19.0</ns3:atemp>
          </ns3:TrackPointExtension>
        </extensions>
      </trkpt>
      <trkpt lat="42.62277164496481418609619140625" lon="19.88449827767908573150634765625">
        <ele>1847.5999755859375</ele>
        <time>2026-06-16T09:10:31.000Z</time>
        <extensions>
          <ns3:TrackPointExtension>
            <ns3:atemp>19.0</ns3:atemp>
          </ns3:TrackPointExtension>
        </extensions>
      </trkpt>
      <trkpt lat="42.62277491390705108642578125" lon="19.8844782449305057525634765625">
        <ele>1847.800048828125</ele>
        <time>2026-06-16T09:10:32.000Z</time>
        <extensions>
          <ns3:TrackPointExtension>
            <ns3:atemp>19.0</ns3:atemp>
          </ns3:TrackPointExtension>
        </extensions>
      </trkpt>
      <trkpt lat="42.62278161942958831787109375" lon="19.88445905037224292755126953125">
        <ele>1848</ele>
        <time>2026-06-16T09:10:33.000Z</time>
        <extensions>
          <ns3:TrackPointExtension>
            <ns3:atemp>19.0</ns3:atemp>
          </ns3:TrackPointExtension>
        </extensions>
      </trkpt>
      <trkpt lat="42.6227921806275844573974609375" lon="19.88443876616656780242919921875">
        <ele>1848.199951171875</ele>
        <time>2026-06-16T09:10:34.000Z</time>
        <extensions>
          <ns3:TrackPointExtension>
            <ns3:atemp>19.0</ns3:atemp>
          </ns3:TrackPointExtension>
        </extensions>
      </trkpt>
      <trkpt lat="42.62280466966331005096435546875" lon="19.88442040979862213134765625">
        <ele>1848.4000244140625</ele>
        <time>2026-06-16T09:10:35.000Z</time>
        <extensions>
          <ns3:TrackPointExtension>
            <ns3:atemp>19.0</ns3:atemp>
          </ns3:TrackPointExtension>
        </extensions>
      </trkpt>
      <trkpt lat="42.622816152870655059814453125" lon="19.8844001255929470062255859375">
        <ele>1848.5999755859375</ele>
        <time>2026-06-16T09:10:36.000Z</time>
        <extensions>
          <ns3:TrackPointExtension>
            <ns3:atemp>19.0</ns3:atemp>
          </ns3:TrackPointExtension>
        </extensions>
      </trkpt>
      <trkpt lat="42.6228260435163974761962890625" lon="19.8843833617866039276123046875">
        <ele>1848.800048828125</ele>
        <time>2026-06-16T09:10:37.000Z</time>
        <extensions>
          <ns3:TrackPointExtension>
            <ns3:atemp>19.0</ns3:atemp>
          </ns3:TrackPointExtension>
        </extensions>
      </trkpt>
      <trkpt lat="42.62283786199986934661865234375" lon="19.88437036983668804168701171875">
        <ele>1849</ele>
        <time>2026-06-16T09:10:38.000Z</time>
        <extensions>
          <ns3:TrackPointExtension>
            <ns3:atemp>19.0</ns3:atemp>
          </ns3:TrackPointExtension>
        </extensions>
      </trkpt>
      <trkpt lat="42.622853033244609832763671875" lon="19.88435268402099609375">
        <ele>1849.199951171875</ele>
        <time>2026-06-16T09:10:39.000Z</time>
        <extensions>
          <ns3:TrackPointExtension>
            <ns3:atemp>19.0</ns3:atemp>
          </ns3:TrackPointExtension>
        </extensions>
      </trkpt>
      <trkpt lat="42.6228709705173969268798828125" lon="19.88434857688844203948974609375">
        <ele>1849.4000244140625</ele>
        <time>2026-06-16T09:10:40.000Z</time>
        <extensions>
          <ns3:TrackPointExtension>
            <ns3:atemp>19.0</ns3:atemp>
          </ns3:TrackPointExtension>
        </extensions>
      </trkpt>
      <trkpt lat="42.62288832105696201324462890625" lon="19.88434203900396823883056640625">
        <ele>1849.4000244140625</ele>
        <time>2026-06-16T09:10:41.000Z</time>
        <extensions>
          <ns3:TrackPointExtension>
            <ns3:atemp>19.0</ns3:atemp>
          </ns3:TrackPointExtension>
        </extensions>
      </trkpt>
      <trkpt lat="42.6229065097868442535400390625" lon="19.88433214835822582244873046875">
        <ele>1849.5999755859375</ele>
        <time>2026-06-16T09:10:42.000Z</time>
        <extensions>
          <ns3:TrackPointExtension>
            <ns3:atemp>19.0</ns3:atemp>
          </ns3:TrackPointExtension>
        </extensions>
      </trkpt>
      <trkpt lat="42.62292109429836273193359375" lon="19.88431639038026332855224609375">
        <ele>1849.5999755859375</ele>
        <time>2026-06-16T09:10:43.000Z</time>
        <extensions>
          <ns3:TrackPointExtension>
            <ns3:atemp>19.0</ns3:atemp>
          </ns3:TrackPointExtension>
        </extensions>
      </trkpt>
      <trkpt lat="42.62293425388634204864501953125" lon="19.88430633209645748138427734375">
        <ele>1849.800048828125</ele>
        <time>2026-06-16T09:10:44.000Z</time>
        <extensions>
          <ns3:TrackPointExtension>
            <ns3:atemp>19.0</ns3:atemp>
          </ns3:TrackPointExtension>
        </extensions>
      </trkpt>
      <trkpt lat="42.62294582091271877288818359375" lon="19.8842869699001312255859375">
        <ele>1850.199951171875</ele>
        <time>2026-06-16T09:10:45.000Z</time>
        <extensions>
          <ns3:TrackPointExtension>
            <ns3:atemp>19.0</ns3:atemp>
          </ns3:TrackPointExtension>
        </extensions>
      </trkpt>
      <trkpt lat="42.6229531131684780120849609375" lon="19.884269200265407562255859375">
        <ele>1850.4000244140625</ele>
        <time>2026-06-16T09:10:46.000Z</time>
        <extensions>
          <ns3:TrackPointExtension>
            <ns3:atemp>19.0</ns3:atemp>
          </ns3:TrackPointExtension>
        </extensions>
      </trkpt>
      <trkpt lat="42.62296275235712528228759765625" lon="19.8842502571642398834228515625">
        <ele>1850.800048828125</ele>
        <time>2026-06-16T09:10:47.000Z</time>
        <extensions>
          <ns3:TrackPointExtension>
            <ns3:atemp>19.0</ns3:atemp>
          </ns3:TrackPointExtension>
        </extensions>
      </trkpt>
      <trkpt lat="42.62297398410737514495849609375" lon="19.8842287994921207427978515625">
        <ele>1851.4000244140625</ele>
        <time>2026-06-16T09:10:48.000Z</time>
        <extensions>
          <ns3:TrackPointExtension>
            <ns3:atemp>19.0</ns3:atemp>
          </ns3:TrackPointExtension>
        </extensions>
      </trkpt>
      <trkpt lat="42.6229866407811641693115234375" lon="19.884210191667079925537109375">
        <ele>1851.5999755859375</ele>
        <time>2026-06-16T09:10:49.000Z</time>
        <extensions>
          <ns3:TrackPointExtension>
            <ns3:atemp>19.0</ns3:atemp>
          </ns3:TrackPointExtension>
        </extensions>
      </trkpt>
      <trkpt lat="42.6229916699230670928955078125" lon="19.8841917514801025390625">
        <ele>1851.800048828125</ele>
        <time>2026-06-16T09:10:50.000Z</time>
        <extensions>
          <ns3:TrackPointExtension>
            <ns3:atemp>19.0</ns3:atemp>
          </ns3:TrackPointExtension>
        </extensions>
      </trkpt>
      <trkpt lat="42.6229960285127162933349609375" lon="19.8841718025505542755126953125">
        <ele>1852</ele>
        <time>2026-06-16T09:10:51.000Z</time>
        <extensions>
          <ns3:TrackPointExtension>
            <ns3:atemp>19.0</ns3:atemp>
          </ns3:TrackPointExtension>
        </extensions>
      </trkpt>
      <trkpt lat="42.62300298549234867095947265625" lon="19.88414908759295940399169921875">
        <ele>1852.199951171875</ele>
        <time>2026-06-16T09:10:52.000Z</time>
        <extensions>
          <ns3:TrackPointExtension>
            <ns3:atemp>19.0</ns3:atemp>
          </ns3:TrackPointExtension>
        </extensions>
      </trkpt>
      <trkpt lat="42.6230060867965221405029296875" lon="19.884125702083110809326171875">
        <ele>1852.199951171875</ele>
        <time>2026-06-16T09:10:53.000Z</time>
        <extensions>
          <ns3:TrackPointExtension>
            <ns3:atemp>19.0</ns3:atemp>
          </ns3:TrackPointExtension>
        </extensions>
      </trkpt>
      <trkpt lat="42.6230114512145519256591796875" lon="19.88410114310681819915771484375">
        <ele>1852.4000244140625</ele>
        <time>2026-06-16T09:10:54.000Z</time>
        <extensions>
          <ns3:TrackPointExtension>
            <ns3:atemp>19.0</ns3:atemp>
          </ns3:TrackPointExtension>
        </extensions>
      </trkpt>
      <trkpt lat="42.62301363050937652587890625" lon="19.88408152945339679718017578125">
        <ele>1852.5999755859375</ele>
        <time>2026-06-16T09:10:55.000Z</time>
        <extensions>
          <ns3:TrackPointExtension>
            <ns3:atemp>19.0</ns3:atemp>
          </ns3:TrackPointExtension>
        </extensions>
      </trkpt>
      <trkpt lat="42.6230188272893428802490234375" lon="19.88406007178127765655517578125">
        <ele>1852.800048828125</ele>
        <time>2026-06-16T09:10:56.000Z</time>
        <extensions>
          <ns3:TrackPointExtension>
            <ns3:atemp>19.0</ns3:atemp>
          </ns3:TrackPointExtension>
        </extensions>
      </trkpt>
      <trkpt lat="42.6230194978415966033935546875" lon="19.8840407095849514007568359375">
        <ele>1853</ele>
        <time>2026-06-16T09:10:57.000Z</time>
        <extensions>
          <ns3:TrackPointExtension>
            <ns3:atemp>19.0</ns3:atemp>
          </ns3:TrackPointExtension>
        </extensions>
      </trkpt>
      <trkpt lat="42.62302377261221408843994140625" lon="19.8840160667896270751953125">
        <ele>1853.199951171875</ele>
        <time>2026-06-16T09:10:58.000Z</time>
        <extensions>
          <ns3:TrackPointExtension>
            <ns3:atemp>19.0</ns3:atemp>
          </ns3:TrackPointExtension>
        </extensions>
      </trkpt>
      <trkpt lat="42.6230272091925144195556640625" lon="19.88399393856525421142578125">
        <ele>1853.5999755859375</ele>
        <time>2026-06-16T09:10:59.000Z</time>
        <extensions>
          <ns3:TrackPointExtension>
            <ns3:atemp>19.0</ns3:atemp>
          </ns3:TrackPointExtension>
        </extensions>
      </trkpt>
      <trkpt lat="42.6230295561254024505615234375" lon="19.88397306762635707855224609375">
        <ele>1853.800048828125</ele>
        <time>2026-06-16T09:11:00.000Z</time>
        <extensions>
          <ns3:TrackPointExtension>
            <ns3:atemp>19.0</ns3:atemp>
          </ns3:TrackPointExtension>
        </extensions>
      </trkpt>
      <trkpt lat="42.623032741248607635498046875" lon="19.8839508555829524993896484375">
        <ele>1854.199951171875</ele>
        <time>2026-06-16T09:11:01.000Z</time>
        <extensions>
          <ns3:TrackPointExtension>
            <ns3:atemp>19.0</ns3:atemp>
          </ns3:TrackPointExtension>
        </extensions>
      </trkpt>
      <trkpt lat="42.62303282506763935089111328125" lon="19.8839290626347064971923828125">
        <ele>1854.4000244140625</ele>
        <time>2026-06-16T09:11:02.000Z</time>
        <extensions>
          <ns3:TrackPointExtension>
            <ns3:atemp>19.0</ns3:atemp>
          </ns3:TrackPointExtension>
        </extensions>
      </trkpt>
      <trkpt lat="42.62303131632506847381591796875" lon="19.88390081562101840972900390625">
        <ele>1854.800048828125</ele>
        <time>2026-06-16T09:11:03.000Z</time>
        <extensions>
          <ns3:TrackPointExtension>
            <ns3:atemp>19.0</ns3:atemp>
          </ns3:TrackPointExtension>
        </extensions>
      </trkpt>
      <trkpt lat="42.623032070696353912353515625" lon="19.88387818448245525360107421875">
        <ele>1855</ele>
        <time>2026-06-16T09:11:04.000Z</time>
        <extensions>
          <ns3:TrackPointExtension>
            <ns3:atemp>19.0</ns3:atemp>
          </ns3:TrackPointExtension>
        </extensions>
      </trkpt>
      <trkpt lat="42.6230295561254024505615234375" lon="19.883858822286128997802734375">
        <ele>1855.199951171875</ele>
        <time>2026-06-16T09:11:05.000Z</time>
        <extensions>
          <ns3:TrackPointExtension>
            <ns3:atemp>19.0</ns3:atemp>
          </ns3:TrackPointExtension>
        </extensions>
      </trkpt>
      <trkpt lat="42.623023353517055511474609375" lon="19.88384197466075420379638671875">
        <ele>1855.4000244140625</ele>
        <time>2026-06-16T09:11:06.000Z</time>
        <extensions>
          <ns3:TrackPointExtension>
            <ns3:atemp>19.0</ns3:atemp>
          </ns3:TrackPointExtension>
        </extensions>
      </trkpt>
      <trkpt lat="42.623015306890010833740234375" lon="19.88382764160633087158203125">
        <ele>1855.5999755859375</ele>
        <time>2026-06-16T09:11:07.000Z</time>
        <extensions>
          <ns3:TrackPointExtension>
            <ns3:atemp>19.0</ns3:atemp>
          </ns3:TrackPointExtension>
        </extensions>
      </trkpt>
      <trkpt lat="42.62300499714910984039306640625" lon="19.8838107101619243621826171875">
        <ele>1855.800048828125</ele>
        <time>2026-06-16T09:11:08.000Z</time>
        <extensions>
          <ns3:TrackPointExtension>
            <ns3:atemp>19.0</ns3:atemp>
          </ns3:TrackPointExtension>
        </extensions>
      </trkpt>
      <trkpt lat="42.62299410067498683929443359375" lon="19.883787743747234344482421875">
        <ele>1856</ele>
        <time>2026-06-16T09:11:09.000Z</time>
        <extensions>
          <ns3:TrackPointExtension>
            <ns3:atemp>19.0</ns3:atemp>
          </ns3:TrackPointExtension>
        </extensions>
      </trkpt>
      <trkpt lat="42.6229847967624664306640625" lon="19.883767627179622650146484375">
        <ele>1856</ele>
        <time>2026-06-16T09:11:10.000Z</time>
        <extensions>
          <ns3:TrackPointExtension>
            <ns3:atemp>19.0</ns3:atemp>
          </ns3:TrackPointExtension>
        </extensions>
      </trkpt>
      <trkpt lat="42.62297867797315120697021484375" lon="19.88375044427812099456787109375">
        <ele>1856.199951171875</ele>
        <time>2026-06-16T09:11:11.000Z</time>
        <extensions>
          <ns3:TrackPointExtension>
            <ns3:atemp>19.0</ns3:atemp>
          </ns3:TrackPointExtension>
        </extensions>
      </trkpt>
      <trkpt lat="42.622971720993518829345703125" lon="19.8837335966527462005615234375">
        <ele>1856.4000244140625</ele>
        <time>2026-06-16T09:11:12.000Z</time>
        <extensions>
          <ns3:TrackPointExtension>
            <ns3:atemp>19.0</ns3:atemp>
          </ns3:TrackPointExtension>
        </extensions>
      </trkpt>
      <trkpt lat="42.6229668594896793365478515625" lon="19.88371071405708789825439453125">
        <ele>1856.5999755859375</ele>
        <time>2026-06-16T09:11:13.000Z</time>
        <extensions>
          <ns3:TrackPointExtension>
            <ns3:atemp>19.0</ns3:atemp>
          </ns3:TrackPointExtension>
        </extensions>
      </trkpt>
      <trkpt lat="42.62296375818550586700439453125" lon="19.88368892110884189605712890625">
        <ele>1856.800048828125</ele>
        <time>2026-06-16T09:11:14.000Z</time>
        <extensions>
          <ns3:TrackPointExtension>
            <ns3:atemp>19.0</ns3:atemp>
          </ns3:TrackPointExtension>
        </extensions>
      </trkpt>
      <trkpt lat="42.622959651052951812744140625" lon="19.8836700618267059326171875">
        <ele>1857.199951171875</ele>
        <time>2026-06-16T09:11:15.000Z</time>
        <extensions>
          <ns3:TrackPointExtension>
            <ns3:atemp>19.0</ns3:atemp>
          </ns3:TrackPointExtension>
        </extensions>
      </trkpt>
      <trkpt lat="42.62295998632907867431640625" lon="19.8836440779268741607666015625">
        <ele>1857.199951171875</ele>
        <time>2026-06-16T09:11:16.000Z</time>
        <extensions>
          <ns3:TrackPointExtension>
            <ns3:atemp>19.0</ns3:atemp>
          </ns3:TrackPointExtension>
        </extensions>
      </trkpt>
      <trkpt lat="42.62295663356781005859375" lon="19.88361834548413753509521484375">
        <ele>1857.4000244140625</ele>
        <time>2026-06-16T09:11:17.000Z</time>
        <extensions>
          <ns3:TrackPointExtension>
            <ns3:atemp>19.0</ns3:atemp>
          </ns3:TrackPointExtension>
        </extensions>
      </trkpt>
      <trkpt lat="42.62295403517782688140869140625" lon="19.8835961334407329559326171875">
        <ele>1857.5999755859375</ele>
        <time>2026-06-16T09:11:18.000Z</time>
        <extensions>
          <ns3:TrackPointExtension>
            <ns3:atemp>19.0</ns3:atemp>
          </ns3:TrackPointExtension>
        </extensions>
      </trkpt>
      <trkpt lat="42.622953616082668304443359375" lon="19.88357207737863063812255859375">
        <ele>1857.800048828125</ele>
        <time>2026-06-16T09:11:19.000Z</time>
        <extensions>
          <ns3:TrackPointExtension>
            <ns3:atemp>19.0</ns3:atemp>
          </ns3:TrackPointExtension>
        </extensions>
      </trkpt>
      <trkpt lat="42.6229541189968585968017578125" lon="19.88355363719165325164794921875">
        <ele>1858</ele>
        <time>2026-06-16T09:11:20.000Z</time>
        <extensions>
          <ns3:TrackPointExtension>
            <ns3:atemp>19.0</ns3:atemp>
          </ns3:TrackPointExtension>
        </extensions>
      </trkpt>
      <trkpt lat="42.62295520864427089691162109375" lon="19.88353787921369075775146484375">
        <ele>1858</ele>
        <time>2026-06-16T09:11:21.000Z</time>
        <extensions>
          <ns3:TrackPointExtension>
            <ns3:atemp>19.0</ns3:atemp>
          </ns3:TrackPointExtension>
        </extensions>
      </trkpt>
      <trkpt lat="42.622958309948444366455078125" lon="19.88352228887379169464111328125">
        <ele>1858.199951171875</ele>
        <time>2026-06-16T09:11:22.000Z</time>
        <extensions>
          <ns3:TrackPointExtension>
            <ns3:atemp>19.0</ns3:atemp>
          </ns3:TrackPointExtension>
        </extensions>
      </trkpt>
      <trkpt lat="42.62295939959585666656494140625" lon="19.88350577652454376220703125">
        <ele>1858.199951171875</ele>
        <time>2026-06-16T09:11:23.000Z</time>
        <extensions>
          <ns3:TrackPointExtension>
            <ns3:atemp>19.0</ns3:atemp>
          </ns3:TrackPointExtension>
        </extensions>
      </trkpt>
      <trkpt lat="42.62295755557715892791748046875" lon="19.88348825834691524505615234375">
        <ele>1858.4000244140625</ele>
        <time>2026-06-16T09:11:24.000Z</time>
        <extensions>
          <ns3:TrackPointExtension>
            <ns3:atemp>19.0</ns3:atemp>
          </ns3:TrackPointExtension>
        </extensions>
      </trkpt>
      <trkpt lat="42.622950933873653411865234375" lon="19.88347652368247509002685546875">
        <ele>1858.4000244140625</ele>
        <time>2026-06-16T09:11:25.000Z</time>
        <extensions>
          <ns3:TrackPointExtension>
            <ns3:atemp>19.0</ns3:atemp>
          </ns3:TrackPointExtension>
        </extensions>
      </trkpt>
      <trkpt lat="42.62294230051338672637939453125" lon="19.88346177153289318084716796875">
        <ele>1858.4000244140625</ele>
        <time>2026-06-16T09:11:26.000Z</time>
        <extensions>
          <ns3:TrackPointExtension>
            <ns3:atemp>20.0</ns3:atemp>
          </ns3:TrackPointExtension>
        </extensions>
      </trkpt>
      <trkpt lat="42.6229293085634708404541015625" lon="19.883446432650089263916015625">
        <ele>1858.5999755859375</ele>
        <time>2026-06-16T09:11:27.000Z</time>
        <extensions>
          <ns3:TrackPointExtension>
            <ns3:atemp>20.0</ns3:atemp>
          </ns3:TrackPointExtension>
        </extensions>
      </trkpt>
      <trkpt lat="42.62291681952774524688720703125" lon="19.8834474384784698486328125">
        <ele>1858.800048828125</ele>
        <time>2026-06-16T09:11:28.000Z</time>
        <extensions>
          <ns3:TrackPointExtension>
            <ns3:atemp>20.0</ns3:atemp>
          </ns3:TrackPointExtension>
        </extensions>
      </trkpt>
      <trkpt lat="42.6229061745107173919677734375" lon="19.88345154561102390289306640625">
        <ele>1858.800048828125</ele>
        <time>2026-06-16T09:11:29.000Z</time>
        <extensions>
          <ns3:TrackPointExtension>
            <ns3:atemp>20.0</ns3:atemp>
          </ns3:TrackPointExtension>
        </extensions>
      </trkpt>
      <trkpt lat="42.6228944398462772369384765625" lon="19.8834576644003391265869140625">
        <ele>1859</ele>
        <time>2026-06-16T09:11:30.000Z</time>
        <extensions>
          <ns3:TrackPointExtension>
            <ns3:atemp>20.0</ns3:atemp>
          </ns3:TrackPointExtension>
        </extensions>
      </trkpt>
      <trkpt lat="42.62288379482924938201904296875" lon="19.8834608495235443115234375">
        <ele>1859.4000244140625</ele>
        <time>2026-06-16T09:11:31.000Z</time>
        <extensions>
          <ns3:TrackPointExtension>
            <ns3:atemp>20.0</ns3:atemp>
          </ns3:TrackPointExtension>
        </extensions>
      </trkpt>
      <trkpt lat="42.62287373654544353485107421875" lon="19.88346361555159091949462890625">
        <ele>1859.800048828125</ele>
        <time>2026-06-16T09:11:32.000Z</time>
        <extensions>
          <ns3:TrackPointExtension>
            <ns3:atemp>20.0</ns3:atemp>
          </ns3:TrackPointExtension>
        </extensions>
      </trkpt>
      <trkpt lat="42.6228589005768299102783203125" lon="19.88346596248447895050048828125">
        <ele>1860</ele>
        <time>2026-06-16T09:11:33.000Z</time>
        <extensions>
          <ns3:TrackPointExtension>
            <ns3:atemp>20.0</ns3:atemp>
          </ns3:TrackPointExtension>
        </extensions>
      </trkpt>
      <trkpt lat="42.6228426396846771240234375" lon="19.883470237255096435546875">
        <ele>1860.4000244140625</ele>
        <time>2026-06-16T09:11:34.000Z</time>
        <extensions>
          <ns3:TrackPointExtension>
            <ns3:atemp>20.0</ns3:atemp>
          </ns3:TrackPointExtension>
        </extensions>
      </trkpt>
      <trkpt lat="42.6228247024118900299072265625" lon="19.88347216509282588958740234375">
        <ele>1860.5999755859375</ele>
        <time>2026-06-16T09:11:35.000Z</time>
        <extensions>
          <ns3:TrackPointExtension>
            <ns3:atemp>20.0</ns3:atemp>
          </ns3:TrackPointExtension>
        </extensions>
      </trkpt>
      <trkpt lat="42.6228082738816738128662109375" lon="19.88346998579800128936767578125">
        <ele>1861</ele>
        <time>2026-06-16T09:11:36.000Z</time>
        <extensions>
          <ns3:TrackPointExtension>
            <ns3:atemp>20.0</ns3:atemp>
          </ns3:TrackPointExtension>
        </extensions>
      </trkpt>
      <trkpt lat="42.62279360555112361907958984375" lon="19.88346445374190807342529296875">
        <ele>1861.4000244140625</ele>
        <time>2026-06-16T09:11:37.000Z</time>
        <extensions>
          <ns3:TrackPointExtension>
            <ns3:atemp>20.0</ns3:atemp>
          </ns3:TrackPointExtension>
        </extensions>
      </trkpt>
      <trkpt lat="42.6227770932018756866455078125" lon="19.88346596248447895050048828125">
        <ele>1861.5999755859375</ele>
        <time>2026-06-16T09:11:38.000Z</time>
        <extensions>
          <ns3:TrackPointExtension>
            <ns3:atemp>20.0</ns3:atemp>
          </ns3:TrackPointExtension>
        </extensions>
      </trkpt>
      <trkpt lat="42.622760832309722900390625" lon="19.88346713595092296600341796875">
        <ele>1862</ele>
        <time>2026-06-16T09:11:39.000Z</time>
        <extensions>
          <ns3:TrackPointExtension>
            <ns3:atemp>20.0</ns3:atemp>
          </ns3:TrackPointExtension>
        </extensions>
      </trkpt>
      <trkpt lat="42.6227439008653163909912109375" lon="19.883459173142910003662109375">
        <ele>1862.4000244140625</ele>
        <time>2026-06-16T09:11:40.000Z</time>
        <extensions>
          <ns3:TrackPointExtension>
            <ns3:atemp>20.0</ns3:atemp>
          </ns3:TrackPointExtension>
        </extensions>
      </trkpt>
      <trkpt lat="42.622727639973163604736328125" lon="19.88345439545810222625732421875">
        <ele>1862.800048828125</ele>
        <time>2026-06-16T09:11:41.000Z</time>
        <extensions>
          <ns3:TrackPointExtension>
            <ns3:atemp>20.0</ns3:atemp>
          </ns3:TrackPointExtension>
        </extensions>
      </trkpt>
      <trkpt lat="42.62271129526197910308837890625" lon="19.88345506601035594940185546875">
        <ele>1863.199951171875</ele>
        <time>2026-06-16T09:11:42.000Z</time>
        <extensions>
          <ns3:TrackPointExtension>
            <ns3:atemp>20.0</ns3:atemp>
          </ns3:TrackPointExtension>
        </extensions>
      </trkpt>
      <trkpt lat="42.6226972974836826324462890625" lon="19.883448444306850433349609375">
        <ele>1863.5999755859375</ele>
        <time>2026-06-16T09:11:43.000Z</time>
        <extensions>
          <ns3:TrackPointExtension>
            <ns3:atemp>20.0</ns3:atemp>
          </ns3:TrackPointExtension>
        </extensions>
      </trkpt>
      <trkpt lat="42.62268262915313243865966796875" lon="19.8834407329559326171875">
        <ele>1864</ele>
        <time>2026-06-16T09:11:44.000Z</time>
        <extensions>
          <ns3:TrackPointExtension>
            <ns3:atemp>20.0</ns3:atemp>
          </ns3:TrackPointExtension>
        </extensions>
      </trkpt>
      <trkpt lat="42.6226698048412799835205078125" lon="19.88343679346144199371337890625">
        <ele>1864.4000244140625</ele>
        <time>2026-06-16T09:11:45.000Z</time>
        <extensions>
          <ns3:TrackPointExtension>
            <ns3:atemp>20.0</ns3:atemp>
          </ns3:TrackPointExtension>
        </extensions>
      </trkpt>
      <trkpt lat="42.6226513646543025970458984375" lon="19.8834345303475856781005859375">
        <ele>1864.800048828125</ele>
        <time>2026-06-16T09:11:46.000Z</time>
        <extensions>
          <ns3:TrackPointExtension>
            <ns3:atemp>20.0</ns3:atemp>
          </ns3:TrackPointExtension>
        </extensions>
      </trkpt>
      <trkpt lat="42.62263585813343524932861328125" lon="19.8834335245192050933837890625">
        <ele>1865.4000244140625</ele>
        <time>2026-06-16T09:11:47.000Z</time>
        <extensions>
          <ns3:TrackPointExtension>
            <ns3:atemp>20.0</ns3:atemp>
          </ns3:TrackPointExtension>
        </extensions>
      </trkpt>
      <trkpt lat="42.62262311764061450958251953125" lon="19.8834340274333953857421875">
        <ele>1865.5999755859375</ele>
        <time>2026-06-16T09:11:48.000Z</time>
        <extensions>
          <ns3:TrackPointExtension>
            <ns3:atemp>20.0</ns3:atemp>
          </ns3:TrackPointExtension>
        </extensions>
      </trkpt>
      <trkpt lat="42.622610963881015777587890625" lon="19.8834382183849811553955078125">
        <ele>1866.199951171875</ele>
        <time>2026-06-16T09:11:49.000Z</time>
        <extensions>
          <ns3:TrackPointExtension>
            <ns3:atemp>20.0</ns3:atemp>
          </ns3:TrackPointExtension>
        </extensions>
      </trkpt>
      <trkpt lat="42.62259797193109989166259765625" lon="19.88344299606978893280029296875">
        <ele>1866.5999755859375</ele>
        <time>2026-06-16T09:11:50.000Z</time>
        <extensions>
          <ns3:TrackPointExtension>
            <ns3:atemp>20.0</ns3:atemp>
          </ns3:TrackPointExtension>
        </extensions>
      </trkpt>
      <trkpt lat="42.62258305214345455169677734375" lon="19.88344668410718441009521484375">
        <ele>1867</ele>
        <time>2026-06-16T09:11:51.000Z</time>
        <extensions>
          <ns3:TrackPointExtension>
            <ns3:atemp>20.0</ns3:atemp>
          </ns3:TrackPointExtension>
        </extensions>
      </trkpt>
      <trkpt lat="42.62256829999387264251708984375" lon="19.8834514617919921875">
        <ele>1867.4000244140625</ele>
        <time>2026-06-16T09:11:52.000Z</time>
        <extensions>
          <ns3:TrackPointExtension>
            <ns3:atemp>20.0</ns3:atemp>
          </ns3:TrackPointExtension>
        </extensions>
      </trkpt>
      <trkpt lat="42.62255631387233734130859375" lon="19.8834616877138614654541015625">
        <ele>1867.800048828125</ele>
        <time>2026-06-16T09:11:53.000Z</time>
        <extensions>
          <ns3:TrackPointExtension>
            <ns3:atemp>20.0</ns3:atemp>
          </ns3:TrackPointExtension>
        </extensions>
      </trkpt>
      <trkpt lat="42.62254483066499233245849609375" lon="19.8834710754454135894775390625">
        <ele>1868.199951171875</ele>
        <time>2026-06-16T09:11:54.000Z</time>
        <extensions>
          <ns3:TrackPointExtension>
            <ns3:atemp>20.0</ns3:atemp>
          </ns3:TrackPointExtension>
        </extensions>
      </trkpt>
      <trkpt lat="42.62253024615347385406494140625" lon="19.88348104991018772125244140625">
        <ele>1868.5999755859375</ele>
        <time>2026-06-16T09:11:55.000Z</time>
        <extensions>
          <ns3:TrackPointExtension>
            <ns3:atemp>20.0</ns3:atemp>
          </ns3:TrackPointExtension>
        </extensions>
      </trkpt>
      <trkpt lat="42.62251599691808223724365234375" lon="19.88348431885242462158203125">
        <ele>1868.800048828125</ele>
        <time>2026-06-16T09:11:56.000Z</time>
        <extensions>
          <ns3:TrackPointExtension>
            <ns3:atemp>20.0</ns3:atemp>
          </ns3:TrackPointExtension>
        </extensions>
      </trkpt>
      <trkpt lat="42.62250241823494434356689453125" lon="19.8834851570427417755126953125">
        <ele>1869.199951171875</ele>
        <time>2026-06-16T09:11:57.000Z</time>
        <extensions>
          <ns3:TrackPointExtension>
            <ns3:atemp>20.0</ns3:atemp>
          </ns3:TrackPointExtension>
        </extensions>
      </trkpt>
      <trkpt lat="42.62249068357050418853759765625" lon="19.883487336337566375732421875">
        <ele>1869.5999755859375</ele>
        <time>2026-06-16T09:11:58.000Z</time>
        <extensions>
          <ns3:TrackPointExtension>
            <ns3:atemp>20.0</ns3:atemp>
          </ns3:TrackPointExtension>
        </extensions>
      </trkpt>
      <trkpt lat="42.6224760152399539947509765625" lon="19.8834854923188686370849609375">
        <ele>1869.800048828125</ele>
        <time>2026-06-16T09:11:59.000Z</time>
        <extensions>
          <ns3:TrackPointExtension>
            <ns3:atemp>20.0</ns3:atemp>
          </ns3:TrackPointExtension>
        </extensions>
      </trkpt>
      <trkpt lat="42.6224579103291034698486328125" lon="19.8834875039756298065185546875">
        <ele>1870</ele>
        <time>2026-06-16T09:12:00.000Z</time>
        <extensions>
          <ns3:TrackPointExtension>
            <ns3:atemp>20.0</ns3:atemp>
          </ns3:TrackPointExtension>
        </extensions>
      </trkpt>
      <trkpt lat="42.622441314160823822021484375" lon="19.8834848217666149139404296875">
        <ele>1870.4000244140625</ele>
        <time>2026-06-16T09:12:01.000Z</time>
        <extensions>
          <ns3:TrackPointExtension>
            <ns3:atemp>20.0</ns3:atemp>
          </ns3:TrackPointExtension>
        </extensions>
      </trkpt>
      <trkpt lat="42.622425556182861328125" lon="19.8834784515202045440673828125">
        <ele>1870.5999755859375</ele>
        <time>2026-06-16T09:12:02.000Z</time>
        <extensions>
          <ns3:TrackPointExtension>
            <ns3:atemp>20.0</ns3:atemp>
          </ns3:TrackPointExtension>
        </extensions>
      </trkpt>
      <trkpt lat="42.62240904383361339569091796875" lon="19.88347518257796764373779296875">
        <ele>1870.800048828125</ele>
        <time>2026-06-16T09:12:03.000Z</time>
        <extensions>
          <ns3:TrackPointExtension>
            <ns3:atemp>20.0</ns3:atemp>
          </ns3:TrackPointExtension>
        </extensions>
      </trkpt>
      <trkpt lat="42.62239563278853893280029296875" lon="19.883471243083477020263671875">
        <ele>1871</ele>
        <time>2026-06-16T09:12:04.000Z</time>
        <extensions>
          <ns3:TrackPointExtension>
            <ns3:atemp>20.0</ns3:atemp>
          </ns3:TrackPointExtension>
        </extensions>
      </trkpt>
      <trkpt lat="42.62238054536283016204833984375" lon="19.8834677226841449737548828125">
        <ele>1871.199951171875</ele>
        <time>2026-06-16T09:12:05.000Z</time>
        <extensions>
          <ns3:TrackPointExtension>
            <ns3:atemp>20.0</ns3:atemp>
          </ns3:TrackPointExtension>
        </extensions>
      </trkpt>
      <trkpt lat="42.62236453592777252197265625" lon="19.88346152007579803466796875">
        <ele>1871.4000244140625</ele>
        <time>2026-06-16T09:12:06.000Z</time>
        <extensions>
          <ns3:TrackPointExtension>
            <ns3:atemp>20.0</ns3:atemp>
          </ns3:TrackPointExtension>
        </extensions>
      </trkpt>
      <trkpt lat="42.62234651483595371246337890625" lon="19.8834600113332271575927734375">
        <ele>1871.5999755859375</ele>
        <time>2026-06-16T09:12:07.000Z</time>
        <extensions>
          <ns3:TrackPointExtension>
            <ns3:atemp>20.0</ns3:atemp>
          </ns3:TrackPointExtension>
        </extensions>
      </trkpt>
      <trkpt lat="42.62232698500156402587890625" lon="19.8834610171616077423095703125">
        <ele>1871.800048828125</ele>
        <time>2026-06-16T09:12:08.000Z</time>
        <extensions>
          <ns3:TrackPointExtension>
            <ns3:atemp>20.0</ns3:atemp>
          </ns3:TrackPointExtension>
        </extensions>
      </trkpt>
      <trkpt lat="42.62231030501425266265869140625" lon="19.88346076570451259613037109375">
        <ele>1872.199951171875</ele>
        <time>2026-06-16T09:12:09.000Z</time>
        <extensions>
          <ns3:TrackPointExtension>
            <ns3:atemp>20.0</ns3:atemp>
          </ns3:TrackPointExtension>
        </extensions>
      </trkpt>
      <trkpt lat="42.622291781008243560791015625" lon="19.88345825113356113433837890625">
        <ele>1872.4000244140625</ele>
        <time>2026-06-16T09:12:10.000Z</time>
        <extensions>
          <ns3:TrackPointExtension>
            <ns3:atemp>20.0</ns3:atemp>
          </ns3:TrackPointExtension>
        </extensions>
      </trkpt>
      <trkpt lat="42.62227510102093219757080078125" lon="19.8834559880197048187255859375">
        <ele>1872.5999755859375</ele>
        <time>2026-06-16T09:12:11.000Z</time>
        <extensions>
          <ns3:TrackPointExtension>
            <ns3:atemp>20.0</ns3:atemp>
          </ns3:TrackPointExtension>
        </extensions>
      </trkpt>
      <trkpt lat="42.622261941432952880859375" lon="19.88344668410718441009521484375">
        <ele>1873</ele>
        <time>2026-06-16T09:12:12.000Z</time>
        <extensions>
          <ns3:TrackPointExtension>
            <ns3:atemp>20.0</ns3:atemp>
          </ns3:TrackPointExtension>
        </extensions>
      </trkpt>
      <trkpt lat="42.6222486980259418487548828125" lon="19.88344618119299411773681640625">
        <ele>1873.199951171875</ele>
        <time>2026-06-16T09:12:13.000Z</time>
        <extensions>
          <ns3:TrackPointExtension>
            <ns3:atemp>20.0</ns3:atemp>
          </ns3:TrackPointExtension>
        </extensions>
      </trkpt>
      <trkpt lat="42.62222983874380588531494140625" lon="19.88344676792621612548828125">
        <ele>1873.4000244140625</ele>
        <time>2026-06-16T09:12:14.000Z</time>
        <extensions>
          <ns3:TrackPointExtension>
            <ns3:atemp>20.0</ns3:atemp>
          </ns3:TrackPointExtension>
        </extensions>
      </trkpt>
      <trkpt lat="42.62221056036651134490966796875" lon="19.88344484008848667144775390625">
        <ele>1873.800048828125</ele>
        <time>2026-06-16T09:12:15.000Z</time>
        <extensions>
          <ns3:TrackPointExtension>
            <ns3:atemp>20.0</ns3:atemp>
          </ns3:TrackPointExtension>
        </extensions>
      </trkpt>
      <trkpt lat="42.6221900247037410736083984375" lon="19.88343545235693454742431640625">
        <ele>1874</ele>
        <time>2026-06-16T09:12:16.000Z</time>
        <extensions>
          <ns3:TrackPointExtension>
            <ns3:atemp>20.0</ns3:atemp>
          </ns3:TrackPointExtension>
        </extensions>
      </trkpt>
      <trkpt lat="42.622171752154827117919921875" lon="19.88343478180468082427978515625">
        <ele>1874</ele>
        <time>2026-06-16T09:12:17.000Z</time>
        <extensions>
          <ns3:TrackPointExtension>
            <ns3:atemp>20.0</ns3:atemp>
          </ns3:TrackPointExtension>
        </extensions>
      </trkpt>
      <trkpt lat="42.62215389870107173919677734375" lon="19.883431680500507354736328125">
        <ele>1874.199951171875</ele>
        <time>2026-06-16T09:12:18.000Z</time>
        <extensions>
          <ns3:TrackPointExtension>
            <ns3:atemp>20.0</ns3:atemp>
          </ns3:TrackPointExtension>
        </extensions>
      </trkpt>
      <trkpt lat="42.62213520705699920654296875" lon="19.88342992030084133148193359375">
        <ele>1874.5999755859375</ele>
        <time>2026-06-16T09:12:19.000Z</time>
        <extensions>
          <ns3:TrackPointExtension>
            <ns3:atemp>20.0</ns3:atemp>
          </ns3:TrackPointExtension>
        </extensions>
      </trkpt>
      <trkpt lat="42.6221182756125926971435546875" lon="19.883425645530223846435546875">
        <ele>1874.800048828125</ele>
        <time>2026-06-16T09:12:20.000Z</time>
        <extensions>
          <ns3:TrackPointExtension>
            <ns3:atemp>20.0</ns3:atemp>
          </ns3:TrackPointExtension>
        </extensions>
      </trkpt>
      <trkpt lat="42.6221028529107570648193359375" lon="19.883425645530223846435546875">
        <ele>1875</ele>
        <time>2026-06-16T09:12:21.000Z</time>
        <extensions>
          <ns3:TrackPointExtension>
            <ns3:atemp>20.0</ns3:atemp>
          </ns3:TrackPointExtension>
        </extensions>
      </trkpt>
      <trkpt lat="42.62208315543830394744873046875" lon="19.8834244720637798309326171875">
        <ele>1875.199951171875</ele>
        <time>2026-06-16T09:12:22.000Z</time>
        <extensions>
          <ns3:TrackPointExtension>
            <ns3:atemp>20.0</ns3:atemp>
          </ns3:TrackPointExtension>
        </extensions>
      </trkpt>
      <trkpt lat="42.62206421233713626861572265625" lon="19.88342204131186008453369140625">
        <ele>1875.199951171875</ele>
        <time>2026-06-16T09:12:23.000Z</time>
        <extensions>
          <ns3:TrackPointExtension>
            <ns3:atemp>20.0</ns3:atemp>
          </ns3:TrackPointExtension>
        </extensions>
      </trkpt>
      <trkpt lat="42.62204669415950775146484375" lon="19.8834227956831455230712890625">
        <ele>1875.4000244140625</ele>
        <time>2026-06-16T09:12:24.000Z</time>
        <extensions>
          <ns3:TrackPointExtension>
            <ns3:atemp>20.0</ns3:atemp>
          </ns3:TrackPointExtension>
        </extensions>
      </trkpt>
      <trkpt lat="42.6220267452299594879150390625" lon="19.88342539407312870025634765625">
        <ele>1875.4000244140625</ele>
        <time>2026-06-16T09:12:25.000Z</time>
        <extensions>
          <ns3:TrackPointExtension>
            <ns3:atemp>20.0</ns3:atemp>
          </ns3:TrackPointExtension>
        </extensions>
      </trkpt>
      <trkpt lat="42.62200620956718921661376953125" lon="19.8834248073399066925048828125">
        <ele>1875.5999755859375</ele>
        <time>2026-06-16T09:12:26.000Z</time>
        <extensions>
          <ns3:TrackPointExtension>
            <ns3:atemp>20.0</ns3:atemp>
          </ns3:TrackPointExtension>
        </extensions>
      </trkpt>
      <trkpt lat="42.62198768556118011474609375" lon="19.883422292768955230712890625">
        <ele>1875.5999755859375</ele>
        <time>2026-06-16T09:12:27.000Z</time>
        <extensions>
          <ns3:TrackPointExtension>
            <ns3:atemp>20.0</ns3:atemp>
          </ns3:TrackPointExtension>
        </extensions>
      </trkpt>
      <trkpt lat="42.62197284959256649017333984375" lon="19.8834147490561008453369140625">
        <ele>1875.800048828125</ele>
        <time>2026-06-16T09:12:28.000Z</time>
        <extensions>
          <ns3:TrackPointExtension>
            <ns3:atemp>20.0</ns3:atemp>
          </ns3:TrackPointExtension>
        </extensions>
      </trkpt>
      <trkpt lat="42.62195625342428684234619140625" lon="19.88340980373322963714599609375">
        <ele>1876</ele>
        <time>2026-06-16T09:12:29.000Z</time>
        <extensions>
          <ns3:TrackPointExtension>
            <ns3:atemp>20.0</ns3:atemp>
          </ns3:TrackPointExtension>
        </extensions>
      </trkpt>
      <trkpt lat="42.621939070522785186767578125" lon="19.88340846262872219085693359375">
        <ele>1876.199951171875</ele>
        <time>2026-06-16T09:12:30.000Z</time>
        <extensions>
          <ns3:TrackPointExtension>
            <ns3:atemp>20.0</ns3:atemp>
          </ns3:TrackPointExtension>
        </extensions>
      </trkpt>
      <trkpt lat="42.62192121706902980804443359375" lon="19.8834050260484218597412109375">
        <ele>1876.199951171875</ele>
        <time>2026-06-16T09:12:31.000Z</time>
        <extensions>
          <ns3:TrackPointExtension>
            <ns3:atemp>20.0</ns3:atemp>
          </ns3:TrackPointExtension>
        </extensions>
      </trkpt>
      <trkpt lat="42.62190596200525760650634765625" lon="19.88339890725910663604736328125">
        <ele>1876.4000244140625</ele>
        <time>2026-06-16T09:12:32.000Z</time>
        <extensions>
          <ns3:TrackPointExtension>
            <ns3:atemp>20.0</ns3:atemp>
          </ns3:TrackPointExtension>
        </extensions>
      </trkpt>
      <trkpt lat="42.62189506553113460540771484375" lon="19.88339270465075969696044921875">
        <ele>1876.5999755859375</ele>
        <time>2026-06-16T09:12:33.000Z</time>
        <extensions>
          <ns3:TrackPointExtension>
            <ns3:atemp>20.0</ns3:atemp>
          </ns3:TrackPointExtension>
        </extensions>
      </trkpt>
      <trkpt lat="42.6218862645328044891357421875" lon="19.88338516093790531158447265625">
        <ele>1876.800048828125</ele>
        <time>2026-06-16T09:12:34.000Z</time>
        <extensions>
          <ns3:TrackPointExtension>
            <ns3:atemp>20.0</ns3:atemp>
          </ns3:TrackPointExtension>
        </extensions>
      </trkpt>
      <trkpt lat="42.62187637388706207275390625" lon="19.88337434828281402587890625">
        <ele>1877</ele>
        <time>2026-06-16T09:12:35.000Z</time>
        <extensions>
          <ns3:TrackPointExtension>
            <ns3:atemp>20.0</ns3:atemp>
          </ns3:TrackPointExtension>
        </extensions>
      </trkpt>
      <trkpt lat="42.6218644715845584869384765625" lon="19.88336588256061077117919921875">
        <ele>1877.4000244140625</ele>
        <time>2026-06-16T09:12:36.000Z</time>
        <extensions>
          <ns3:TrackPointExtension>
            <ns3:atemp>20.0</ns3:atemp>
          </ns3:TrackPointExtension>
        </extensions>
      </trkpt>
      <trkpt lat="42.6218507252633571624755859375" lon="19.88336085341870784759521484375">
        <ele>1877.5999755859375</ele>
        <time>2026-06-16T09:12:37.000Z</time>
        <extensions>
          <ns3:TrackPointExtension>
            <ns3:atemp>20.0</ns3:atemp>
          </ns3:TrackPointExtension>
        </extensions>
      </trkpt>
      <trkpt lat="42.62183538638055324554443359375" lon="19.88335557281970977783203125">
        <ele>1878</ele>
        <time>2026-06-16T09:12:38.000Z</time>
        <extensions>
          <ns3:TrackPointExtension>
            <ns3:atemp>20.0</ns3:atemp>
          </ns3:TrackPointExtension>
        </extensions>
      </trkpt>
      <trkpt lat="42.62182013131678104400634765625" lon="19.88334878347814083099365234375">
        <ele>1878.199951171875</ele>
        <time>2026-06-16T09:12:39.000Z</time>
        <extensions>
          <ns3:TrackPointExtension>
            <ns3:atemp>20.0</ns3:atemp>
          </ns3:TrackPointExtension>
        </extensions>
      </trkpt>
      <trkpt lat="42.62180504389107227325439453125" lon="19.88334358669817447662353515625">
        <ele>1878.4000244140625</ele>
        <time>2026-06-16T09:12:40.000Z</time>
        <extensions>
          <ns3:TrackPointExtension>
            <ns3:atemp>20.0</ns3:atemp>
          </ns3:TrackPointExtension>
        </extensions>
      </trkpt>
      <trkpt lat="42.62178861536085605621337890625" lon="19.88333838991820812225341796875">
        <ele>1878.5999755859375</ele>
        <time>2026-06-16T09:12:41.000Z</time>
        <extensions>
          <ns3:TrackPointExtension>
            <ns3:atemp>20.0</ns3:atemp>
          </ns3:TrackPointExtension>
        </extensions>
      </trkpt>
      <trkpt lat="42.6217705942690372467041015625" lon="19.883333779871463775634765625">
        <ele>1878.800048828125</ele>
        <time>2026-06-16T09:12:42.000Z</time>
        <extensions>
          <ns3:TrackPointExtension>
            <ns3:atemp>20.0</ns3:atemp>
          </ns3:TrackPointExtension>
        </extensions>
      </trkpt>
      <trkpt lat="42.62175525538623332977294921875" lon="19.88333168439567089080810546875">
        <ele>1879</ele>
        <time>2026-06-16T09:12:43.000Z</time>
        <extensions>
          <ns3:TrackPointExtension>
            <ns3:atemp>20.0</ns3:atemp>
          </ns3:TrackPointExtension>
        </extensions>
      </trkpt>
      <trkpt lat="42.6217370666563510894775390625" lon="19.8833326064050197601318359375">
        <ele>1879.199951171875</ele>
        <time>2026-06-16T09:12:44.000Z</time>
        <extensions>
          <ns3:TrackPointExtension>
            <ns3:atemp>20.0</ns3:atemp>
          </ns3:TrackPointExtension>
        </extensions>
      </trkpt>
      <trkpt lat="42.6217196322977542877197265625" lon="19.88333545625209808349609375">
        <ele>1879.4000244140625</ele>
        <time>2026-06-16T09:12:45.000Z</time>
        <extensions>
          <ns3:TrackPointExtension>
            <ns3:atemp>20.0</ns3:atemp>
          </ns3:TrackPointExtension>
        </extensions>
      </trkpt>
      <trkpt lat="42.621704377233982086181640625" lon="19.8833346180617809295654296875">
        <ele>1879.5999755859375</ele>
        <time>2026-06-16T09:12:46.000Z</time>
        <extensions>
          <ns3:TrackPointExtension>
            <ns3:atemp>20.0</ns3:atemp>
          </ns3:TrackPointExtension>
        </extensions>
      </trkpt>
      <trkpt lat="42.6216911338269710540771484375" lon="19.88333017565310001373291015625">
        <ele>1880</ele>
        <time>2026-06-16T09:12:47.000Z</time>
        <extensions>
          <ns3:TrackPointExtension>
            <ns3:atemp>20.0</ns3:atemp>
          </ns3:TrackPointExtension>
        </extensions>
      </trkpt>
      <trkpt lat="42.62167780660092830657958984375" lon="19.883323721587657928466796875">
        <ele>1880.4000244140625</ele>
        <time>2026-06-16T09:12:48.000Z</time>
        <extensions>
          <ns3:TrackPointExtension>
            <ns3:atemp>20.0</ns3:atemp>
          </ns3:TrackPointExtension>
        </extensions>
      </trkpt>
      <trkpt lat="42.6216636411845684051513671875" lon="19.8833215422928333282470703125">
        <ele>1880.800048828125</ele>
        <time>2026-06-16T09:12:49.000Z</time>
        <extensions>
          <ns3:TrackPointExtension>
            <ns3:atemp>20.0</ns3:atemp>
          </ns3:TrackPointExtension>
        </extensions>
      </trkpt>
      <trkpt lat="42.62164838612079620361328125" lon="19.883323721587657928466796875">
        <ele>1881.199951171875</ele>
        <time>2026-06-16T09:12:50.000Z</time>
        <extensions>
          <ns3:TrackPointExtension>
            <ns3:atemp>21.0</ns3:atemp>
          </ns3:TrackPointExtension>
        </extensions>
      </trkpt>
      <trkpt lat="42.621633298695087432861328125" lon="19.88332347013056278228759765625">
        <ele>1881.5999755859375</ele>
        <time>2026-06-16T09:12:51.000Z</time>
        <extensions>
          <ns3:TrackPointExtension>
            <ns3:atemp>21.0</ns3:atemp>
          </ns3:TrackPointExtension>
        </extensions>
      </trkpt>
      <trkpt lat="42.6216220669448375701904296875" lon="19.88332447595894336700439453125">
        <ele>1882</ele>
        <time>2026-06-16T09:12:52.000Z</time>
        <extensions>
          <ns3:TrackPointExtension>
            <ns3:atemp>21.0</ns3:atemp>
          </ns3:TrackPointExtension>
        </extensions>
      </trkpt>
      <trkpt lat="42.621608488261699676513671875" lon="19.88332984037697315216064453125">
        <ele>1882.199951171875</ele>
        <time>2026-06-16T09:12:53.000Z</time>
        <extensions>
          <ns3:TrackPointExtension>
            <ns3:atemp>21.0</ns3:atemp>
          </ns3:TrackPointExtension>
        </extensions>
      </trkpt>
      <trkpt lat="42.62159532867372035980224609375" lon="19.883337803184986114501953125">
        <ele>1882.5999755859375</ele>
        <time>2026-06-16T09:12:54.000Z</time>
        <extensions>
          <ns3:TrackPointExtension>
            <ns3:atemp>21.0</ns3:atemp>
          </ns3:TrackPointExtension>
        </extensions>
      </trkpt>
      <trkpt lat="42.6215778104960918426513671875" lon="19.88334476016461849212646484375">
        <ele>1882.800048828125</ele>
        <time>2026-06-16T09:12:55.000Z</time>
        <extensions>
          <ns3:TrackPointExtension>
            <ns3:atemp>21.0</ns3:atemp>
          </ns3:TrackPointExtension>
        </extensions>
      </trkpt>
      <trkpt lat="42.62156431563198566436767578125" lon="19.88335096277296543121337890625">
        <ele>1883.199951171875</ele>
        <time>2026-06-16T09:12:56.000Z</time>
        <extensions>
          <ns3:TrackPointExtension>
            <ns3:atemp>21.0</ns3:atemp>
          </ns3:TrackPointExtension>
        </extensions>
      </trkpt>
      <trkpt lat="42.62154889293015003204345703125" lon="19.88335532136261463165283203125">
        <ele>1883.4000244140625</ele>
        <time>2026-06-16T09:12:57.000Z</time>
        <extensions>
          <ns3:TrackPointExtension>
            <ns3:atemp>21.0</ns3:atemp>
          </ns3:TrackPointExtension>
        </extensions>
      </trkpt>
      <trkpt lat="42.6215342245995998382568359375" lon="19.88335448317229747772216796875">
        <ele>1883.800048828125</ele>
        <time>2026-06-16T09:12:58.000Z</time>
        <extensions>
          <ns3:TrackPointExtension>
            <ns3:atemp>21.0</ns3:atemp>
          </ns3:TrackPointExtension>
        </extensions>
      </trkpt>
      <trkpt lat="42.62151905335485935211181640625" lon="19.8833580873906612396240234375">
        <ele>1884</ele>
        <time>2026-06-16T09:12:59.000Z</time>
        <extensions>
          <ns3:TrackPointExtension>
            <ns3:atemp>21.0</ns3:atemp>
          </ns3:TrackPointExtension>
        </extensions>
      </trkpt>
      <trkpt lat="42.621507234871387481689453125" lon="19.8833624459803104400634765625">
        <ele>1884.199951171875</ele>
        <time>2026-06-16T09:13:00.000Z</time>
        <extensions>
          <ns3:TrackPointExtension>
            <ns3:atemp>21.0</ns3:atemp>
          </ns3:TrackPointExtension>
        </extensions>
      </trkpt>
      <trkpt lat="42.621495835483074188232421875" lon="19.8833664692938327789306640625">
        <ele>1884.5999755859375</ele>
        <time>2026-06-16T09:13:01.000Z</time>
        <extensions>
          <ns3:TrackPointExtension>
            <ns3:atemp>21.0</ns3:atemp>
          </ns3:TrackPointExtension>
        </extensions>
      </trkpt>
      <trkpt lat="42.62148879468441009521484375" lon="19.883371330797672271728515625">
        <ele>1884.800048828125</ele>
        <time>2026-06-16T09:13:02.000Z</time>
        <extensions>
          <ns3:TrackPointExtension>
            <ns3:atemp>21.0</ns3:atemp>
          </ns3:TrackPointExtension>
        </extensions>
      </trkpt>
      <trkpt lat="42.6214775629341602325439453125" lon="19.88337795250117778778076171875">
        <ele>1885</ele>
        <time>2026-06-16T09:13:03.000Z</time>
        <extensions>
          <ns3:TrackPointExtension>
            <ns3:atemp>21.0</ns3:atemp>
          </ns3:TrackPointExtension>
        </extensions>
      </trkpt>
      <trkpt lat="42.6214678399264812469482421875" lon="19.88338566385209560394287109375">
        <ele>1885.199951171875</ele>
        <time>2026-06-16T09:13:04.000Z</time>
        <extensions>
          <ns3:TrackPointExtension>
            <ns3:atemp>21.0</ns3:atemp>
          </ns3:TrackPointExtension>
        </extensions>
      </trkpt>
      <trkpt lat="42.62145468033850193023681640625" lon="19.88340158946812152862548828125">
        <ele>1885.199951171875</ele>
        <time>2026-06-16T09:13:05.000Z</time>
        <extensions>
          <ns3:TrackPointExtension>
            <ns3:atemp>21.0</ns3:atemp>
          </ns3:TrackPointExtension>
        </extensions>
      </trkpt>
      <trkpt lat="42.62144244275987148284912109375" lon="19.8834152519702911376953125">
        <ele>1885.4000244140625</ele>
        <time>2026-06-16T09:13:06.000Z</time>
        <extensions>
          <ns3:TrackPointExtension>
            <ns3:atemp>21.0</ns3:atemp>
          </ns3:TrackPointExtension>
        </extensions>
      </trkpt>
      <trkpt lat="42.6214349828660488128662109375" lon="19.88342472352087497711181640625">
        <ele>1885.4000244140625</ele>
        <time>2026-06-16T09:13:07.000Z</time>
        <extensions>
          <ns3:TrackPointExtension>
            <ns3:atemp>21.0</ns3:atemp>
          </ns3:TrackPointExtension>
        </extensions>
      </trkpt>
      <trkpt lat="42.62142383493483066558837890625" lon="19.8834301717579364776611328125">
        <ele>1885.4000244140625</ele>
        <time>2026-06-16T09:13:08.000Z</time>
        <extensions>
          <ns3:TrackPointExtension>
            <ns3:atemp>21.0</ns3:atemp>
          </ns3:TrackPointExtension>
        </extensions>
      </trkpt>
      <trkpt lat="42.62141427956521511077880859375" lon="19.88343528471887111663818359375">
        <ele>1885.5999755859375</ele>
        <time>2026-06-16T09:13:09.000Z</time>
        <extensions>
          <ns3:TrackPointExtension>
            <ns3:atemp>21.0</ns3:atemp>
          </ns3:TrackPointExtension>
        </extensions>
      </trkpt>
      <trkpt lat="42.62140673585236072540283203125" lon="19.88344676792621612548828125">
        <ele>1885.5999755859375</ele>
        <time>2026-06-16T09:13:10.000Z</time>
        <extensions>
          <ns3:TrackPointExtension>
            <ns3:atemp>21.0</ns3:atemp>
          </ns3:TrackPointExtension>
        </extensions>
      </trkpt>
      <trkpt lat="42.62139785103499889373779296875" lon="19.88346260972321033477783203125">
        <ele>1885.800048828125</ele>
        <time>2026-06-16T09:13:11.000Z</time>
        <extensions>
          <ns3:TrackPointExtension>
            <ns3:atemp>21.0</ns3:atemp>
          </ns3:TrackPointExtension>
        </extensions>
      </trkpt>
      <trkpt lat="42.6213890500366687774658203125" lon="19.88347752951085567474365234375">
        <ele>1886</ele>
        <time>2026-06-16T09:13:12.000Z</time>
        <extensions>
          <ns3:TrackPointExtension>
            <ns3:atemp>21.0</ns3:atemp>
          </ns3:TrackPointExtension>
        </extensions>
      </trkpt>
      <trkpt lat="42.62137974612414836883544921875" lon="19.88348565995693206787109375">
        <ele>1886.199951171875</ele>
        <time>2026-06-16T09:13:13.000Z</time>
        <extensions>
          <ns3:TrackPointExtension>
            <ns3:atemp>21.0</ns3:atemp>
          </ns3:TrackPointExtension>
        </extensions>
      </trkpt>
      <trkpt lat="42.6213709451258182525634765625" lon="19.88349580205976963043212890625">
        <ele>1886.4000244140625</ele>
        <time>2026-06-16T09:13:14.000Z</time>
        <extensions>
          <ns3:TrackPointExtension>
            <ns3:atemp>21.0</ns3:atemp>
          </ns3:TrackPointExtension>
        </extensions>
      </trkpt>
      <trkpt lat="42.62135745026171207427978515625" lon="19.88351256586611270904541015625">
        <ele>1886.800048828125</ele>
        <time>2026-06-16T09:13:15.000Z</time>
        <extensions>
          <ns3:TrackPointExtension>
            <ns3:atemp>21.0</ns3:atemp>
          </ns3:TrackPointExtension>
        </extensions>
      </trkpt>
      <trkpt lat="42.62135057710111141204833984375" lon="19.8835284076631069183349609375">
        <ele>1887</ele>
        <time>2026-06-16T09:13:16.000Z</time>
        <extensions>
          <ns3:TrackPointExtension>
            <ns3:atemp>21.0</ns3:atemp>
          </ns3:TrackPointExtension>
        </extensions>
      </trkpt>
      <trkpt lat="42.6213558577001094818115234375" lon="19.88353637047111988067626953125">
        <ele>1887.199951171875</ele>
        <time>2026-06-16T09:13:17.000Z</time>
        <extensions>
          <ns3:TrackPointExtension>
            <ns3:atemp>21.0</ns3:atemp>
          </ns3:TrackPointExtension>
        </extensions>
      </trkpt>
      <trkpt lat="42.62135309167206287384033203125" lon="19.8835386335849761962890625">
        <ele>1887.5999755859375</ele>
        <time>2026-06-16T09:13:18.000Z</time>
        <extensions>
          <ns3:TrackPointExtension>
            <ns3:atemp>21.0</ns3:atemp>
          </ns3:TrackPointExtension>
        </extensions>
      </trkpt>
      <trkpt lat="42.621353007853031158447265625" lon="19.88353871740400791168212890625">
        <ele>1887.5999755859375</ele>
        <time>2026-06-16T09:13:19.000Z</time>
        <extensions>
          <ns3:TrackPointExtension>
            <ns3:atemp>21.0</ns3:atemp>
          </ns3:TrackPointExtension>
        </extensions>
      </trkpt>
      <trkpt lat="42.62134286575019359588623046875" lon="19.883545674383640289306640625">
        <ele>1887.800048828125</ele>
        <time>2026-06-16T09:13:20.000Z</time>
        <extensions>
          <ns3:TrackPointExtension>
            <ns3:atemp>21.0</ns3:atemp>
          </ns3:TrackPointExtension>
        </extensions>
      </trkpt>
      <trkpt lat="42.62132895179092884063720703125" lon="19.88355003297328948974609375">
        <ele>1888</ele>
        <time>2026-06-16T09:13:21.000Z</time>
        <extensions>
          <ns3:TrackPointExtension>
            <ns3:atemp>21.0</ns3:atemp>
          </ns3:TrackPointExtension>
        </extensions>
      </trkpt>
      <trkpt lat="42.62132543139159679412841796875" lon="19.8835569061338901519775390625">
        <ele>1888</ele>
        <time>2026-06-16T09:13:22.000Z</time>
        <extensions>
          <ns3:TrackPointExtension>
            <ns3:atemp>21.0</ns3:atemp>
          </ns3:TrackPointExtension>
        </extensions>
      </trkpt>
      <trkpt lat="42.62132543139159679412841796875" lon="19.8835569061338901519775390625">
        <ele>1888.199951171875</ele>
        <time>2026-06-16T09:13:23.000Z</time>
        <extensions>
          <ns3:TrackPointExtension>
            <ns3:atemp>21.0</ns3:atemp>
          </ns3:TrackPointExtension>
        </extensions>
      </trkpt>
      <trkpt lat="42.62132543139159679412841796875" lon="19.8835569061338901519775390625">
        <ele>1888.199951171875</ele>
        <time>2026-06-16T09:13:24.000Z</time>
        <extensions>
          <ns3:TrackPointExtension>
            <ns3:atemp>21.0</ns3:atemp>
          </ns3:TrackPointExtension>
        </extensions>
      </trkpt>
      <trkpt lat="42.6213245093822479248046875" lon="19.88355749286711215972900390625">
        <ele>1888.199951171875</ele>
        <time>2026-06-16T09:13:25.000Z</time>
        <extensions>
          <ns3:TrackPointExtension>
            <ns3:atemp>21.0</ns3:atemp>
          </ns3:TrackPointExtension>
        </extensions>
      </trkpt>
      <trkpt lat="42.62131788767874240875244140625" lon="19.88356604240834712982177734375">
        <ele>1888.4000244140625</ele>
        <time>2026-06-16T09:13:26.000Z</time>
        <extensions>
          <ns3:TrackPointExtension>
            <ns3:atemp>21.0</ns3:atemp>
          </ns3:TrackPointExtension>
        </extensions>
      </trkpt>
      <trkpt lat="42.62131738476455211639404296875" lon="19.8835729993879795074462890625">
        <ele>1888.4000244140625</ele>
        <time>2026-06-16T09:13:27.000Z</time>
        <extensions>
          <ns3:TrackPointExtension>
            <ns3:atemp>21.0</ns3:atemp>
          </ns3:TrackPointExtension>
        </extensions>
      </trkpt>
      <trkpt lat="42.6213173009455204010009765625" lon="19.88357308320701122283935546875">
        <ele>1888.5999755859375</ele>
        <time>2026-06-16T09:13:28.000Z</time>
        <extensions>
          <ns3:TrackPointExtension>
            <ns3:atemp>21.0</ns3:atemp>
          </ns3:TrackPointExtension>
        </extensions>
      </trkpt>
      <trkpt lat="42.6213092543184757232666015625" lon="19.88357190974056720733642578125">
        <ele>1888.5999755859375</ele>
        <time>2026-06-16T09:13:29.000Z</time>
        <extensions>
          <ns3:TrackPointExtension>
            <ns3:atemp>21.0</ns3:atemp>
          </ns3:TrackPointExtension>
        </extensions>
      </trkpt>
      <trkpt lat="42.62129835784435272216796875" lon="19.883572496473789215087890625">
        <ele>1888.800048828125</ele>
        <time>2026-06-16T09:13:30.000Z</time>
        <extensions>
          <ns3:TrackPointExtension>
            <ns3:atemp>21.0</ns3:atemp>
          </ns3:TrackPointExtension>
        </extensions>
      </trkpt>
      <trkpt lat="42.62129894457757472991943359375" lon="19.8835823871195316314697265625">
        <ele>1888.800048828125</ele>
        <time>2026-06-16T09:13:31.000Z</time>
        <extensions>
          <ns3:TrackPointExtension>
            <ns3:atemp>21.0</ns3:atemp>
          </ns3:TrackPointExtension>
        </extensions>
      </trkpt>
      <trkpt lat="42.62130062095820903778076171875" lon="19.88357760943472385406494140625">
        <ele>1889</ele>
        <time>2026-06-16T09:13:32.000Z</time>
        <extensions>
          <ns3:TrackPointExtension>
            <ns3:atemp>21.0</ns3:atemp>
          </ns3:TrackPointExtension>
        </extensions>
      </trkpt>
      <trkpt lat="42.6213005371391773223876953125" lon="19.8835773579776287078857421875">
        <ele>1889.199951171875</ele>
        <time>2026-06-16T09:13:33.000Z</time>
        <extensions>
          <ns3:TrackPointExtension>
            <ns3:atemp>21.0</ns3:atemp>
          </ns3:TrackPointExtension>
        </extensions>
      </trkpt>
      <trkpt lat="42.62129056267440319061279296875" lon="19.8835669644176959991455078125">
        <ele>1889.199951171875</ele>
        <time>2026-06-16T09:13:34.000Z</time>
        <extensions>
          <ns3:TrackPointExtension>
            <ns3:atemp>21.0</ns3:atemp>
          </ns3:TrackPointExtension>
        </extensions>
      </trkpt>
      <trkpt lat="42.6212807558476924896240234375" lon="19.883567132055759429931640625">
        <ele>1889.4000244140625</ele>
        <time>2026-06-16T09:13:35.000Z</time>
        <extensions>
          <ns3:TrackPointExtension>
            <ns3:atemp>21.0</ns3:atemp>
          </ns3:TrackPointExtension>
        </extensions>
      </trkpt>
      <trkpt lat="42.62126960791647434234619140625" lon="19.883570484817028045654296875">
        <ele>1889.4000244140625</ele>
        <time>2026-06-16T09:13:36.000Z</time>
        <extensions>
          <ns3:TrackPointExtension>
            <ns3:atemp>21.0</ns3:atemp>
          </ns3:TrackPointExtension>
        </extensions>
      </trkpt>
      <trkpt lat="42.62126206420361995697021484375" lon="19.8835760168731212615966796875">
        <ele>1889.4000244140625</ele>
        <time>2026-06-16T09:13:37.000Z</time>
        <extensions>
          <ns3:TrackPointExtension>
            <ns3:atemp>21.0</ns3:atemp>
          </ns3:TrackPointExtension>
        </extensions>
      </trkpt>
      <trkpt lat="42.62126005254685878753662109375" lon="19.88358096219599246978759765625">
        <ele>1889.5999755859375</ele>
        <time>2026-06-16T09:13:38.000Z</time>
        <extensions>
          <ns3:TrackPointExtension>
            <ns3:atemp>21.0</ns3:atemp>
          </ns3:TrackPointExtension>
        </extensions>
      </trkpt>
      <trkpt lat="42.6212599687278270721435546875" lon="19.88358096219599246978759765625">
        <ele>1889.5999755859375</ele>
        <time>2026-06-16T09:13:39.000Z</time>
        <extensions>
          <ns3:TrackPointExtension>
            <ns3:atemp>21.0</ns3:atemp>
          </ns3:TrackPointExtension>
        </extensions>
      </trkpt>
      <trkpt lat="42.62125988490879535675048828125" lon="19.88358087837696075439453125">
        <ele>1889.800048828125</ele>
        <time>2026-06-16T09:13:40.000Z</time>
        <extensions>
          <ns3:TrackPointExtension>
            <ns3:atemp>21.0</ns3:atemp>
          </ns3:TrackPointExtension>
        </extensions>
      </trkpt>
      <trkpt lat="42.6212546043097972869873046875" lon="19.8835870809853076934814453125">
        <ele>1889.800048828125</ele>
        <time>2026-06-16T09:13:41.000Z</time>
        <extensions>
          <ns3:TrackPointExtension>
            <ns3:atemp>21.0</ns3:atemp>
          </ns3:TrackPointExtension>
        </extensions>
      </trkpt>
      <trkpt lat="42.62124781496822834014892578125" lon="19.883593618869781494140625">
        <ele>1889.800048828125</ele>
        <time>2026-06-16T09:13:42.000Z</time>
        <extensions>
          <ns3:TrackPointExtension>
            <ns3:atemp>21.0</ns3:atemp>
          </ns3:TrackPointExtension>
        </extensions>
      </trkpt>
      <trkpt lat="42.621237337589263916015625" lon="19.883595295250415802001953125">
        <ele>1890</ele>
        <time>2026-06-16T09:13:43.000Z</time>
        <extensions>
          <ns3:TrackPointExtension>
            <ns3:atemp>21.0</ns3:atemp>
          </ns3:TrackPointExtension>
        </extensions>
      </trkpt>
      <trkpt lat="42.62122719548642635345458984375" lon="19.88359068520367145538330078125">
        <ele>1890</ele>
        <time>2026-06-16T09:13:44.000Z</time>
        <extensions>
          <ns3:TrackPointExtension>
            <ns3:atemp>21.0</ns3:atemp>
          </ns3:TrackPointExtension>
        </extensions>
      </trkpt>
      <trkpt lat="42.62121428735554218292236328125" lon="19.8835857398808002471923828125">
        <ele>1890</ele>
        <time>2026-06-16T09:13:45.000Z</time>
        <extensions>
          <ns3:TrackPointExtension>
            <ns3:atemp>21.0</ns3:atemp>
          </ns3:TrackPointExtension>
        </extensions>
      </trkpt>
      <trkpt lat="42.621200792491436004638671875" lon="19.88357911817729473114013671875">
        <ele>1890</ele>
        <time>2026-06-16T09:13:46.000Z</time>
        <extensions>
          <ns3:TrackPointExtension>
            <ns3:atemp>21.0</ns3:atemp>
          </ns3:TrackPointExtension>
        </extensions>
      </trkpt>
      <trkpt lat="42.62118629179894924163818359375" lon="19.88357677124440670013427734375">
        <ele>1890.199951171875</ele>
        <time>2026-06-16T09:13:47.000Z</time>
        <extensions>
          <ns3:TrackPointExtension>
            <ns3:atemp>21.0</ns3:atemp>
          </ns3:TrackPointExtension>
        </extensions>
      </trkpt>
      <trkpt lat="42.621171288192272186279296875" lon="19.88357693888247013092041015625">
        <ele>1890.4000244140625</ele>
        <time>2026-06-16T09:13:48.000Z</time>
        <extensions>
          <ns3:TrackPointExtension>
            <ns3:atemp>21.0</ns3:atemp>
          </ns3:TrackPointExtension>
        </extensions>
      </trkpt>
      <trkpt lat="42.62115293182432651519775390625" lon="19.88357693888247013092041015625">
        <ele>1890.5999755859375</ele>
        <time>2026-06-16T09:13:49.000Z</time>
        <extensions>
          <ns3:TrackPointExtension>
            <ns3:atemp>21.0</ns3:atemp>
          </ns3:TrackPointExtension>
        </extensions>
      </trkpt>
      <trkpt lat="42.6211385987699031829833984375" lon="19.88357475958764553070068359375">
        <ele>1890.800048828125</ele>
        <time>2026-06-16T09:13:50.000Z</time>
        <extensions>
          <ns3:TrackPointExtension>
            <ns3:atemp>21.0</ns3:atemp>
          </ns3:TrackPointExtension>
        </extensions>
      </trkpt>
      <trkpt lat="42.6211221702396869659423828125" lon="19.88357308320701122283935546875">
        <ele>1891.199951171875</ele>
        <time>2026-06-16T09:13:51.000Z</time>
        <extensions>
          <ns3:TrackPointExtension>
            <ns3:atemp>21.0</ns3:atemp>
          </ns3:TrackPointExtension>
        </extensions>
      </trkpt>
      <trkpt lat="42.621104903519153594970703125" lon="19.88357576541602611541748046875">
        <ele>1891.4000244140625</ele>
        <time>2026-06-16T09:13:52.000Z</time>
        <extensions>
          <ns3:TrackPointExtension>
            <ns3:atemp>21.0</ns3:atemp>
          </ns3:TrackPointExtension>
        </extensions>
      </trkpt>
      <trkpt lat="42.62108671478927135467529296875" lon="19.883581213653087615966796875">
        <ele>1891.5999755859375</ele>
        <time>2026-06-16T09:13:53.000Z</time>
        <extensions>
          <ns3:TrackPointExtension>
            <ns3:atemp>21.0</ns3:atemp>
          </ns3:TrackPointExtension>
        </extensions>
      </trkpt>
      <trkpt lat="42.621071375906467437744140625" lon="19.883581884205341339111328125">
        <ele>1892</ele>
        <time>2026-06-16T09:13:54.000Z</time>
        <extensions>
          <ns3:TrackPointExtension>
            <ns3:atemp>21.0</ns3:atemp>
          </ns3:TrackPointExtension>
        </extensions>
      </trkpt>
      <trkpt lat="42.621053270995616912841796875" lon="19.88358129747211933135986328125">
        <ele>1892.4000244140625</ele>
        <time>2026-06-16T09:13:55.000Z</time>
        <extensions>
          <ns3:TrackPointExtension>
            <ns3:atemp>21.0</ns3:atemp>
          </ns3:TrackPointExtension>
        </extensions>
      </trkpt>
      <trkpt lat="42.6210356689989566802978515625" lon="19.88358314149081707000732421875">
        <ele>1892.5999755859375</ele>
        <time>2026-06-16T09:13:56.000Z</time>
        <extensions>
          <ns3:TrackPointExtension>
            <ns3:atemp>21.0</ns3:atemp>
          </ns3:TrackPointExtension>
        </extensions>
      </trkpt>
      <trkpt lat="42.62101613916456699371337890625" lon="19.8835847340524196624755859375">
        <ele>1892.800048828125</ele>
        <time>2026-06-16T09:13:57.000Z</time>
        <extensions>
          <ns3:TrackPointExtension>
            <ns3:atemp>21.0</ns3:atemp>
          </ns3:TrackPointExtension>
        </extensions>
      </trkpt>
      <trkpt lat="42.62100088410079479217529296875" lon="19.88359068520367145538330078125">
        <ele>1893.199951171875</ele>
        <time>2026-06-16T09:13:58.000Z</time>
        <extensions>
          <ns3:TrackPointExtension>
            <ns3:atemp>21.0</ns3:atemp>
          </ns3:TrackPointExtension>
        </extensions>
      </trkpt>
      <trkpt lat="42.62098588049411773681640625" lon="19.88358766771852970123291015625">
        <ele>1893.4000244140625</ele>
        <time>2026-06-16T09:13:59.000Z</time>
        <extensions>
          <ns3:TrackPointExtension>
            <ns3:atemp>21.0</ns3:atemp>
          </ns3:TrackPointExtension>
        </extensions>
      </trkpt>
      <trkpt lat="42.6209723018109798431396484375" lon="19.8835842311382293701171875">
        <ele>1893.800048828125</ele>
        <time>2026-06-16T09:14:00.000Z</time>
        <extensions>
          <ns3:TrackPointExtension>
            <ns3:atemp>21.0</ns3:atemp>
          </ns3:TrackPointExtension>
        </extensions>
      </trkpt>
      <trkpt lat="42.62095578946173191070556640625" lon="19.883583225309848785400390625">
        <ele>1894</ele>
        <time>2026-06-16T09:14:01.000Z</time>
        <extensions>
          <ns3:TrackPointExtension>
            <ns3:atemp>21.0</ns3:atemp>
          </ns3:TrackPointExtension>
        </extensions>
      </trkpt>
      <trkpt lat="42.6209367625415325164794921875" lon="19.88358112983405590057373046875">
        <ele>1894.4000244140625</ele>
        <time>2026-06-16T09:14:02.000Z</time>
        <extensions>
          <ns3:TrackPointExtension>
            <ns3:atemp>21.0</ns3:atemp>
          </ns3:TrackPointExtension>
        </extensions>
      </trkpt>
      <trkpt lat="42.62091890908777713775634765625" lon="19.88358221948146820068359375">
        <ele>1894.800048828125</ele>
        <time>2026-06-16T09:14:03.000Z</time>
        <extensions>
          <ns3:TrackPointExtension>
            <ns3:atemp>21.0</ns3:atemp>
          </ns3:TrackPointExtension>
        </extensions>
      </trkpt>
      <trkpt lat="42.62090365402400493621826171875" lon="19.8835740052163600921630859375">
        <ele>1895.199951171875</ele>
        <time>2026-06-16T09:14:04.000Z</time>
        <extensions>
          <ns3:TrackPointExtension>
            <ns3:atemp>21.0</ns3:atemp>
          </ns3:TrackPointExtension>
        </extensions>
      </trkpt>
      <trkpt lat="42.6208881475031375885009765625" lon="19.88356419838964939117431640625">
        <ele>1895.5999755859375</ele>
        <time>2026-06-16T09:14:05.000Z</time>
        <extensions>
          <ns3:TrackPointExtension>
            <ns3:atemp>21.0</ns3:atemp>
          </ns3:TrackPointExtension>
        </extensions>
      </trkpt>
      <trkpt lat="42.620874233543872833251953125" lon="19.8835575766861438751220703125">
        <ele>1896</ele>
        <time>2026-06-16T09:14:06.000Z</time>
        <extensions>
          <ns3:TrackPointExtension>
            <ns3:atemp>21.0</ns3:atemp>
          </ns3:TrackPointExtension>
        </extensions>
      </trkpt>
      <trkpt lat="42.6208542846143245697021484375" lon="19.88355481065809726715087890625">
        <ele>1896.4000244140625</ele>
        <time>2026-06-16T09:14:07.000Z</time>
        <extensions>
          <ns3:TrackPointExtension>
            <ns3:atemp>21.0</ns3:atemp>
          </ns3:TrackPointExtension>
        </extensions>
      </trkpt>
      <trkpt lat="42.62083861045539379119873046875" lon="19.883560426533222198486328125">
        <ele>1897</ele>
        <time>2026-06-16T09:14:08.000Z</time>
        <extensions>
          <ns3:TrackPointExtension>
            <ns3:atemp>21.0</ns3:atemp>
          </ns3:TrackPointExtension>
        </extensions>
      </trkpt>
      <trkpt lat="42.6208227686583995819091796875" lon="19.88356151618063449859619140625">
        <ele>1897.4000244140625</ele>
        <time>2026-06-16T09:14:09.000Z</time>
        <extensions>
          <ns3:TrackPointExtension>
            <ns3:atemp>21.0</ns3:atemp>
          </ns3:TrackPointExtension>
        </extensions>
      </trkpt>
      <trkpt lat="42.620811201632022857666015625" lon="19.8835579119622707366943359375">
        <ele>1898</ele>
        <time>2026-06-16T09:14:10.000Z</time>
        <extensions>
          <ns3:TrackPointExtension>
            <ns3:atemp>21.0</ns3:atemp>
          </ns3:TrackPointExtension>
        </extensions>
      </trkpt>
      <trkpt lat="42.6207992993295192718505859375" lon="19.88354600965976715087890625">
        <ele>1898.5999755859375</ele>
        <time>2026-06-16T09:14:11.000Z</time>
        <extensions>
          <ns3:TrackPointExtension>
            <ns3:atemp>21.0</ns3:atemp>
          </ns3:TrackPointExtension>
        </extensions>
      </trkpt>
      <trkpt lat="42.62078966014087200164794921875" lon="19.88353435881435871124267578125">
        <ele>1899</ele>
        <time>2026-06-16T09:14:12.000Z</time>
        <extensions>
          <ns3:TrackPointExtension>
            <ns3:atemp>21.0</ns3:atemp>
          </ns3:TrackPointExtension>
        </extensions>
      </trkpt>
      <trkpt lat="42.62078161351382732391357421875" lon="19.88352882675826549530029296875">
        <ele>1899.4000244140625</ele>
        <time>2026-06-16T09:14:13.000Z</time>
        <extensions>
          <ns3:TrackPointExtension>
            <ns3:atemp>21.0</ns3:atemp>
          </ns3:TrackPointExtension>
        </extensions>
      </trkpt>
      <trkpt lat="42.62078144587576389312744140625" lon="19.88353217951953411102294921875">
        <ele>1900</ele>
        <time>2026-06-16T09:14:14.000Z</time>
        <extensions>
          <ns3:TrackPointExtension>
            <ns3:atemp>21.0</ns3:atemp>
          </ns3:TrackPointExtension>
        </extensions>
      </trkpt>
      <trkpt lat="42.620781362056732177734375" lon="19.883532263338565826416015625">
        <ele>1900.5999755859375</ele>
        <time>2026-06-16T09:14:15.000Z</time>
        <extensions>
          <ns3:TrackPointExtension>
            <ns3:atemp>21.0</ns3:atemp>
          </ns3:TrackPointExtension>
        </extensions>
      </trkpt>
      <trkpt lat="42.62077742256224155426025390625" lon="19.88353435881435871124267578125">
        <ele>1900.800048828125</ele>
        <time>2026-06-16T09:14:16.000Z</time>
        <extensions>
          <ns3:TrackPointExtension>
            <ns3:atemp>21.0</ns3:atemp>
          </ns3:TrackPointExtension>
        </extensions>
      </trkpt>
      <trkpt lat="42.62077541090548038482666015625" lon="19.88353519700467586517333984375">
        <ele>1901.199951171875</ele>
        <time>2026-06-16T09:14:17.000Z</time>
        <extensions>
          <ns3:TrackPointExtension>
            <ns3:atemp>21.0</ns3:atemp>
          </ns3:TrackPointExtension>
        </extensions>
      </trkpt>
      <trkpt lat="42.62077541090548038482666015625" lon="19.88353519700467586517333984375">
        <ele>1901.4000244140625</ele>
        <time>2026-06-16T09:14:18.000Z</time>
        <extensions>
          <ns3:TrackPointExtension>
            <ns3:atemp>21.0</ns3:atemp>
          </ns3:TrackPointExtension>
        </extensions>
      </trkpt>
      <trkpt lat="42.62077541090548038482666015625" lon="19.88353519700467586517333984375">
        <ele>1901.5999755859375</ele>
        <time>2026-06-16T09:14:19.000Z</time>
        <extensions>
          <ns3:TrackPointExtension>
            <ns3:atemp>21.0</ns3:atemp>
          </ns3:TrackPointExtension>
        </extensions>
      </trkpt>
      <trkpt lat="42.62077507562935352325439453125" lon="19.88353519700467586517333984375">
        <ele>1901.5999755859375</ele>
        <time>2026-06-16T09:14:20.000Z</time>
        <extensions>
          <ns3:TrackPointExtension>
            <ns3:atemp>21.0</ns3:atemp>
          </ns3:TrackPointExtension>
        </extensions>
      </trkpt>
      <trkpt lat="42.6207583956420421600341796875" lon="19.8835381306707859039306640625">
        <ele>1901.800048828125</ele>
        <time>2026-06-16T09:14:21.000Z</time>
        <extensions>
          <ns3:TrackPointExtension>
            <ns3:atemp>21.0</ns3:atemp>
          </ns3:TrackPointExtension>
        </extensions>
      </trkpt>
      <trkpt lat="42.6207429729402065277099609375" lon="19.88354173488914966583251953125">
        <ele>1901.800048828125</ele>
        <time>2026-06-16T09:14:22.000Z</time>
        <extensions>
          <ns3:TrackPointExtension>
            <ns3:atemp>21.0</ns3:atemp>
          </ns3:TrackPointExtension>
        </extensions>
      </trkpt>
      <trkpt lat="42.62072696350514888763427734375" lon="19.88354072906076908111572265625">
        <ele>1902</ele>
        <time>2026-06-16T09:14:23.000Z</time>
        <extensions>
          <ns3:TrackPointExtension>
            <ns3:atemp>21.0</ns3:atemp>
          </ns3:TrackPointExtension>
        </extensions>
      </trkpt>
      <trkpt lat="42.62071120552718639373779296875" lon="19.8835332691669464111328125">
        <ele>1902.199951171875</ele>
        <time>2026-06-16T09:14:24.000Z</time>
        <extensions>
          <ns3:TrackPointExtension>
            <ns3:atemp>21.0</ns3:atemp>
          </ns3:TrackPointExtension>
        </extensions>
      </trkpt>
      <trkpt lat="42.62070165015757083892822265625" lon="19.88351960666477680206298828125">
        <ele>1902.5999755859375</ele>
        <time>2026-06-16T09:14:25.000Z</time>
        <extensions>
          <ns3:TrackPointExtension>
            <ns3:atemp>21.0</ns3:atemp>
          </ns3:TrackPointExtension>
        </extensions>
      </trkpt>
      <trkpt lat="42.62069360353052616119384765625" lon="19.88350803963840007781982421875">
        <ele>1902.800048828125</ele>
        <time>2026-06-16T09:14:26.000Z</time>
        <extensions>
          <ns3:TrackPointExtension>
            <ns3:atemp>21.0</ns3:atemp>
          </ns3:TrackPointExtension>
        </extensions>
      </trkpt>
      <trkpt lat="42.6206834614276885986328125" lon="19.8835010826587677001953125">
        <ele>1903</ele>
        <time>2026-06-16T09:14:27.000Z</time>
        <extensions>
          <ns3:TrackPointExtension>
            <ns3:atemp>21.0</ns3:atemp>
          </ns3:TrackPointExtension>
        </extensions>
      </trkpt>
      <trkpt lat="42.62067147530615329742431640625" lon="19.88349772989749908447265625">
        <ele>1903.4000244140625</ele>
        <time>2026-06-16T09:14:28.000Z</time>
        <extensions>
          <ns3:TrackPointExtension>
            <ns3:atemp>21.0</ns3:atemp>
          </ns3:TrackPointExtension>
        </extensions>
      </trkpt>
      <trkpt lat="42.6206571422517299652099609375" lon="19.88349907100200653076171875">
        <ele>1903.5999755859375</ele>
        <time>2026-06-16T09:14:29.000Z</time>
        <extensions>
          <ns3:TrackPointExtension>
            <ns3:atemp>21.0</ns3:atemp>
          </ns3:TrackPointExtension>
        </extensions>
      </trkpt>
      <trkpt lat="42.62064926326274871826171875" lon="19.8834955506026744842529296875">
        <ele>1904</ele>
        <time>2026-06-16T09:14:30.000Z</time>
        <extensions>
          <ns3:TrackPointExtension>
            <ns3:atemp>21.0</ns3:atemp>
          </ns3:TrackPointExtension>
        </extensions>
      </trkpt>
      <trkpt lat="42.62064180336892604827880859375" lon="19.883486330509185791015625">
        <ele>1904.4000244140625</ele>
        <time>2026-06-16T09:14:31.000Z</time>
        <extensions>
          <ns3:TrackPointExtension>
            <ns3:atemp>21.0</ns3:atemp>
          </ns3:TrackPointExtension>
        </extensions>
      </trkpt>
      <trkpt lat="42.62062738649547100067138671875" lon="19.88347920589148998260498046875">
        <ele>1904.800048828125</ele>
        <time>2026-06-16T09:14:32.000Z</time>
        <extensions>
          <ns3:TrackPointExtension>
            <ns3:atemp>21.0</ns3:atemp>
          </ns3:TrackPointExtension>
        </extensions>
      </trkpt>
      <trkpt lat="42.6206110417842864990234375" lon="19.88347769714891910552978515625">
        <ele>1905</ele>
        <time>2026-06-16T09:14:33.000Z</time>
        <extensions>
          <ns3:TrackPointExtension>
            <ns3:atemp>21.0</ns3:atemp>
          </ns3:TrackPointExtension>
        </extensions>
      </trkpt>
      <trkpt lat="42.6205954514443874359130859375" lon="19.8834757693111896514892578125">
        <ele>1905.4000244140625</ele>
        <time>2026-06-16T09:14:34.000Z</time>
        <extensions>
          <ns3:TrackPointExtension>
            <ns3:atemp>21.0</ns3:atemp>
          </ns3:TrackPointExtension>
        </extensions>
      </trkpt>
      <trkpt lat="42.62058011256158351898193359375" lon="19.88346822559833526611328125">
        <ele>1905.800048828125</ele>
        <time>2026-06-16T09:14:35.000Z</time>
        <extensions>
          <ns3:TrackPointExtension>
            <ns3:atemp>21.0</ns3:atemp>
          </ns3:TrackPointExtension>
        </extensions>
      </trkpt>
      <trkpt lat="42.62056485749781131744384765625" lon="19.8834673874080181121826171875">
        <ele>1906.4000244140625</ele>
        <time>2026-06-16T09:14:36.000Z</time>
        <extensions>
          <ns3:TrackPointExtension>
            <ns3:atemp>21.0</ns3:atemp>
          </ns3:TrackPointExtension>
        </extensions>
      </trkpt>
      <trkpt lat="42.6205488480627536773681640625" lon="19.88346411846578121185302734375">
        <ele>1906.800048828125</ele>
        <time>2026-06-16T09:14:37.000Z</time>
        <extensions>
          <ns3:TrackPointExtension>
            <ns3:atemp>21.0</ns3:atemp>
          </ns3:TrackPointExtension>
        </extensions>
      </trkpt>
      <trkpt lat="42.62053501792252063751220703125" lon="19.88345657475292682647705078125">
        <ele>1907.199951171875</ele>
        <time>2026-06-16T09:14:38.000Z</time>
        <extensions>
          <ns3:TrackPointExtension>
            <ns3:atemp>21.0</ns3:atemp>
          </ns3:TrackPointExtension>
        </extensions>
      </trkpt>
      <trkpt lat="42.620518840849399566650390625" lon="19.8834479413926601409912109375">
        <ele>1907.5999755859375</ele>
        <time>2026-06-16T09:14:39.000Z</time>
        <extensions>
          <ns3:TrackPointExtension>
            <ns3:atemp>21.0</ns3:atemp>
          </ns3:TrackPointExtension>
        </extensions>
      </trkpt>
      <trkpt lat="42.6205062679946422576904296875" lon="19.883439056575298309326171875">
        <ele>1908</ele>
        <time>2026-06-16T09:14:40.000Z</time>
        <extensions>
          <ns3:TrackPointExtension>
            <ns3:atemp>21.0</ns3:atemp>
          </ns3:TrackPointExtension>
        </extensions>
      </trkpt>
      <trkpt lat="42.6204935275018215179443359375" lon="19.88343595527112483978271484375">
        <ele>1908.5999755859375</ele>
        <time>2026-06-16T09:14:41.000Z</time>
        <extensions>
          <ns3:TrackPointExtension>
            <ns3:atemp>21.0</ns3:atemp>
          </ns3:TrackPointExtension>
        </extensions>
      </trkpt>
      <trkpt lat="42.62047701515257358551025390625" lon="19.8834375478327274322509765625">
        <ele>1909.199951171875</ele>
        <time>2026-06-16T09:14:42.000Z</time>
        <extensions>
          <ns3:TrackPointExtension>
            <ns3:atemp>22.0</ns3:atemp>
          </ns3:TrackPointExtension>
        </extensions>
      </trkpt>
      <trkpt lat="42.6204663701355457305908203125" lon="19.8834321834146976470947265625">
        <ele>1909.5999755859375</ele>
        <time>2026-06-16T09:14:43.000Z</time>
        <extensions>
          <ns3:TrackPointExtension>
            <ns3:atemp>22.0</ns3:atemp>
          </ns3:TrackPointExtension>
        </extensions>
      </trkpt>
      <trkpt lat="42.6204527914524078369140625" lon="19.88342396914958953857421875">
        <ele>1910.199951171875</ele>
        <time>2026-06-16T09:14:44.000Z</time>
        <extensions>
          <ns3:TrackPointExtension>
            <ns3:atemp>22.0</ns3:atemp>
          </ns3:TrackPointExtension>
        </extensions>
      </trkpt>
      <trkpt lat="42.62043627910315990447998046875" lon="19.8834150843322277069091796875">
        <ele>1910.5999755859375</ele>
        <time>2026-06-16T09:14:45.000Z</time>
        <extensions>
          <ns3:TrackPointExtension>
            <ns3:atemp>22.0</ns3:atemp>
          </ns3:TrackPointExtension>
        </extensions>
      </trkpt>
      <trkpt lat="42.62042538262903690338134765625" lon="19.883410893380641937255859375">
        <ele>1911</ele>
        <time>2026-06-16T09:14:46.000Z</time>
        <extensions>
          <ns3:TrackPointExtension>
            <ns3:atemp>22.0</ns3:atemp>
          </ns3:TrackPointExtension>
        </extensions>
      </trkpt>
      <trkpt lat="42.620410881936550140380859375" lon="19.88340527750551700592041015625">
        <ele>1911.5999755859375</ele>
        <time>2026-06-16T09:14:47.000Z</time>
        <extensions>
          <ns3:TrackPointExtension>
            <ns3:atemp>22.0</ns3:atemp>
          </ns3:TrackPointExtension>
        </extensions>
      </trkpt>
      <trkpt lat="42.6203973032534122467041015625" lon="19.88339790143072605133056640625">
        <ele>1912.199951171875</ele>
        <time>2026-06-16T09:14:48.000Z</time>
        <extensions>
          <ns3:TrackPointExtension>
            <ns3:atemp>22.0</ns3:atemp>
          </ns3:TrackPointExtension>
        </extensions>
      </trkpt>
      <trkpt lat="42.62038431130349636077880859375" lon="19.88339580595493316650390625">
        <ele>1912.5999755859375</ele>
        <time>2026-06-16T09:14:49.000Z</time>
        <extensions>
          <ns3:TrackPointExtension>
            <ns3:atemp>22.0</ns3:atemp>
          </ns3:TrackPointExtension>
        </extensions>
      </trkpt>
      <trkpt lat="42.6203708164393901824951171875" lon="19.883396141231060028076171875">
        <ele>1913</ele>
        <time>2026-06-16T09:14:50.000Z</time>
        <extensions>
          <ns3:TrackPointExtension>
            <ns3:atemp>22.0</ns3:atemp>
          </ns3:TrackPointExtension>
        </extensions>
      </trkpt>
      <trkpt lat="42.6203615963459014892578125" lon="19.88339086063206195831298828125">
        <ele>1913.199951171875</ele>
        <time>2026-06-16T09:14:51.000Z</time>
        <extensions>
          <ns3:TrackPointExtension>
            <ns3:atemp>22.0</ns3:atemp>
          </ns3:TrackPointExtension>
        </extensions>
      </trkpt>
      <trkpt lat="42.62035178951919078826904296875" lon="19.8833828978240489959716796875">
        <ele>1913.800048828125</ele>
        <time>2026-06-16T09:14:52.000Z</time>
        <extensions>
          <ns3:TrackPointExtension>
            <ns3:atemp>22.0</ns3:atemp>
          </ns3:TrackPointExtension>
        </extensions>
      </trkpt>
      <trkpt lat="42.6203401386737823486328125" lon="19.88338046707212924957275390625">
        <ele>1914</ele>
        <time>2026-06-16T09:14:53.000Z</time>
        <extensions>
          <ns3:TrackPointExtension>
            <ns3:atemp>22.0</ns3:atemp>
          </ns3:TrackPointExtension>
        </extensions>
      </trkpt>
      <trkpt lat="42.6203275658190250396728515625" lon="19.88338264636695384979248046875">
        <ele>1914.4000244140625</ele>
        <time>2026-06-16T09:14:54.000Z</time>
        <extensions>
          <ns3:TrackPointExtension>
            <ns3:atemp>22.0</ns3:atemp>
          </ns3:TrackPointExtension>
        </extensions>
      </trkpt>
      <trkpt lat="42.62031591497361660003662109375" lon="19.88338868133723735809326171875">
        <ele>1914.800048828125</ele>
        <time>2026-06-16T09:14:55.000Z</time>
        <extensions>
          <ns3:TrackPointExtension>
            <ns3:atemp>22.0</ns3:atemp>
          </ns3:TrackPointExtension>
        </extensions>
      </trkpt>
      <trkpt lat="42.62030133046209812164306640625" lon="19.8833979852497577667236328125">
        <ele>1915.199951171875</ele>
        <time>2026-06-16T09:14:56.000Z</time>
        <extensions>
          <ns3:TrackPointExtension>
            <ns3:atemp>22.0</ns3:atemp>
          </ns3:TrackPointExtension>
        </extensions>
      </trkpt>
      <trkpt lat="42.62028657831251621246337890625" lon="19.88340343348681926727294921875">
        <ele>1915.5999755859375</ele>
        <time>2026-06-16T09:14:57.000Z</time>
        <extensions>
          <ns3:TrackPointExtension>
            <ns3:atemp>22.0</ns3:atemp>
          </ns3:TrackPointExtension>
        </extensions>
      </trkpt>
      <trkpt lat="42.62027266435325145721435546875" lon="19.8834077082574367523193359375">
        <ele>1916</ele>
        <time>2026-06-16T09:14:58.000Z</time>
        <extensions>
          <ns3:TrackPointExtension>
            <ns3:atemp>22.0</ns3:atemp>
          </ns3:TrackPointExtension>
        </extensions>
      </trkpt>
      <trkpt lat="42.6202605105936527252197265625" lon="19.8834167607128620147705078125">
        <ele>1916.5999755859375</ele>
        <time>2026-06-16T09:14:59.000Z</time>
        <extensions>
          <ns3:TrackPointExtension>
            <ns3:atemp>22.0</ns3:atemp>
          </ns3:TrackPointExtension>
        </extensions>
      </trkpt>
      <trkpt lat="42.6202476024627685546875" lon="19.88342371769249439239501953125">
        <ele>1917</ele>
        <time>2026-06-16T09:15:00.000Z</time>
        <extensions>
          <ns3:TrackPointExtension>
            <ns3:atemp>22.0</ns3:atemp>
          </ns3:TrackPointExtension>
        </extensions>
      </trkpt>
      <trkpt lat="42.62023025192320346832275390625" lon="19.88342505879700183868408203125">
        <ele>1917.4000244140625</ele>
        <time>2026-06-16T09:15:01.000Z</time>
        <extensions>
          <ns3:TrackPointExtension>
            <ns3:atemp>22.0</ns3:atemp>
          </ns3:TrackPointExtension>
        </extensions>
      </trkpt>
      <trkpt lat="42.62021248228847980499267578125" lon="19.8834201134741306304931640625">
        <ele>1917.800048828125</ele>
        <time>2026-06-16T09:15:02.000Z</time>
        <extensions>
          <ns3:TrackPointExtension>
            <ns3:atemp>22.0</ns3:atemp>
          </ns3:TrackPointExtension>
        </extensions>
      </trkpt>
      <trkpt lat="42.62019462883472442626953125" lon="19.8834164254367351531982421875">
        <ele>1918.199951171875</ele>
        <time>2026-06-16T09:15:03.000Z</time>
        <extensions>
          <ns3:TrackPointExtension>
            <ns3:atemp>22.0</ns3:atemp>
          </ns3:TrackPointExtension>
        </extensions>
      </trkpt>
      <trkpt lat="42.620180882513523101806640625" lon="19.8834157548844814300537109375">
        <ele>1918.5999755859375</ele>
        <time>2026-06-16T09:15:04.000Z</time>
        <extensions>
          <ns3:TrackPointExtension>
            <ns3:atemp>22.0</ns3:atemp>
          </ns3:TrackPointExtension>
        </extensions>
      </trkpt>
      <trkpt lat="42.62016772292554378509521484375" lon="19.883418940007686614990234375">
        <ele>1919</ele>
        <time>2026-06-16T09:15:05.000Z</time>
        <extensions>
          <ns3:TrackPointExtension>
            <ns3:atemp>22.0</ns3:atemp>
          </ns3:TrackPointExtension>
        </extensions>
      </trkpt>
      <trkpt lat="42.6201548986136913299560546875" lon="19.88342472352087497711181640625">
        <ele>1919.199951171875</ele>
        <time>2026-06-16T09:15:06.000Z</time>
        <extensions>
          <ns3:TrackPointExtension>
            <ns3:atemp>22.0</ns3:atemp>
          </ns3:TrackPointExtension>
        </extensions>
      </trkpt>
      <trkpt lat="42.62014073319733142852783203125" lon="19.8834315128624439239501953125">
        <ele>1919.5999755859375</ele>
        <time>2026-06-16T09:15:07.000Z</time>
        <extensions>
          <ns3:TrackPointExtension>
            <ns3:atemp>22.0</ns3:atemp>
          </ns3:TrackPointExtension>
        </extensions>
      </trkpt>
      <trkpt lat="42.6201255619525909423828125" lon="19.88342665135860443115234375">
        <ele>1920</ele>
        <time>2026-06-16T09:15:08.000Z</time>
        <extensions>
          <ns3:TrackPointExtension>
            <ns3:atemp>22.0</ns3:atemp>
          </ns3:TrackPointExtension>
        </extensions>
      </trkpt>
      <trkpt lat="42.6201139949262142181396484375" lon="19.88341483287513256072998046875">
        <ele>1920.4000244140625</ele>
        <time>2026-06-16T09:15:09.000Z</time>
        <extensions>
          <ns3:TrackPointExtension>
            <ns3:atemp>22.0</ns3:atemp>
          </ns3:TrackPointExtension>
        </extensions>
      </trkpt>
      <trkpt lat="42.620101086795330047607421875" lon="19.883405864238739013671875">
        <ele>1920.800048828125</ele>
        <time>2026-06-16T09:15:10.000Z</time>
        <extensions>
          <ns3:TrackPointExtension>
            <ns3:atemp>22.0</ns3:atemp>
          </ns3:TrackPointExtension>
        </extensions>
      </trkpt>
      <trkpt lat="42.620087675750255584716796875" lon="19.88340142183005809783935546875">
        <ele>1921</ele>
        <time>2026-06-16T09:15:11.000Z</time>
        <extensions>
          <ns3:TrackPointExtension>
            <ns3:atemp>22.0</ns3:atemp>
          </ns3:TrackPointExtension>
        </extensions>
      </trkpt>
      <trkpt lat="42.6200754381716251373291015625" lon="19.8834006674587726593017578125">
        <ele>1921.5999755859375</ele>
        <time>2026-06-16T09:15:12.000Z</time>
        <extensions>
          <ns3:TrackPointExtension>
            <ns3:atemp>22.0</ns3:atemp>
          </ns3:TrackPointExtension>
        </extensions>
      </trkpt>
      <trkpt lat="42.62006177566945552825927734375" lon="19.8834046907722949981689453125">
        <ele>1922</ele>
        <time>2026-06-16T09:15:13.000Z</time>
        <extensions>
          <ns3:TrackPointExtension>
            <ns3:atemp>22.0</ns3:atemp>
          </ns3:TrackPointExtension>
        </extensions>
      </trkpt>
      <trkpt lat="42.62004702351987361907958984375" lon="19.883399493992328643798828125">
        <ele>1922.4000244140625</ele>
        <time>2026-06-16T09:15:14.000Z</time>
        <extensions>
          <ns3:TrackPointExtension>
            <ns3:atemp>22.0</ns3:atemp>
          </ns3:TrackPointExtension>
        </extensions>
      </trkpt>
      <trkpt lat="42.62003637850284576416015625" lon="19.8833936266601085662841796875">
        <ele>1922.800048828125</ele>
        <time>2026-06-16T09:15:15.000Z</time>
        <extensions>
          <ns3:TrackPointExtension>
            <ns3:atemp>22.0</ns3:atemp>
          </ns3:TrackPointExtension>
        </extensions>
      </trkpt>
      <trkpt lat="42.62002439238131046295166015625" lon="19.88339270465075969696044921875">
        <ele>1923.199951171875</ele>
        <time>2026-06-16T09:15:16.000Z</time>
        <extensions>
          <ns3:TrackPointExtension>
            <ns3:atemp>22.0</ns3:atemp>
          </ns3:TrackPointExtension>
        </extensions>
      </trkpt>
      <trkpt lat="42.62001492083072662353515625" lon="19.8833949677646160125732421875">
        <ele>1923.5999755859375</ele>
        <time>2026-06-16T09:15:17.000Z</time>
        <extensions>
          <ns3:TrackPointExtension>
            <ns3:atemp>22.0</ns3:atemp>
          </ns3:TrackPointExtension>
        </extensions>
      </trkpt>
      <trkpt lat="42.6200060360133647918701171875" lon="19.883394800126552581787109375">
        <ele>1923.800048828125</ele>
        <time>2026-06-16T09:15:18.000Z</time>
        <extensions>
          <ns3:TrackPointExtension>
            <ns3:atemp>22.0</ns3:atemp>
          </ns3:TrackPointExtension>
        </extensions>
      </trkpt>
      <trkpt lat="42.61999673210084438323974609375" lon="19.88339245319366455078125">
        <ele>1924.199951171875</ele>
        <time>2026-06-16T09:15:19.000Z</time>
        <extensions>
          <ns3:TrackPointExtension>
            <ns3:atemp>22.0</ns3:atemp>
          </ns3:TrackPointExtension>
        </extensions>
      </trkpt>
      <trkpt lat="42.61998181231319904327392578125" lon="19.8833872564136981964111328125">
        <ele>1924.5999755859375</ele>
        <time>2026-06-16T09:15:20.000Z</time>
        <extensions>
          <ns3:TrackPointExtension>
            <ns3:atemp>22.0</ns3:atemp>
          </ns3:TrackPointExtension>
        </extensions>
      </trkpt>
      <trkpt lat="42.61997242458164691925048828125" lon="19.88337527029216289520263671875">
        <ele>1925</ele>
        <time>2026-06-16T09:15:21.000Z</time>
        <extensions>
          <ns3:TrackPointExtension>
            <ns3:atemp>22.0</ns3:atemp>
          </ns3:TrackPointExtension>
        </extensions>
      </trkpt>
      <trkpt lat="42.61996136046946048736572265625" lon="19.88336252979934215545654296875">
        <ele>1925.199951171875</ele>
        <time>2026-06-16T09:15:22.000Z</time>
        <extensions>
          <ns3:TrackPointExtension>
            <ns3:atemp>22.0</ns3:atemp>
          </ns3:TrackPointExtension>
        </extensions>
      </trkpt>
      <trkpt lat="42.619945518672466278076171875" lon="19.88335079513490200042724609375">
        <ele>1925.5999755859375</ele>
        <time>2026-06-16T09:15:23.000Z</time>
        <extensions>
          <ns3:TrackPointExtension>
            <ns3:atemp>22.0</ns3:atemp>
          </ns3:TrackPointExtension>
        </extensions>
      </trkpt>
      <trkpt lat="42.61993017978966236114501953125" lon="19.88333721645176410675048828125">
        <ele>1926</ele>
        <time>2026-06-16T09:15:24.000Z</time>
        <extensions>
          <ns3:TrackPointExtension>
            <ns3:atemp>22.0</ns3:atemp>
          </ns3:TrackPointExtension>
        </extensions>
      </trkpt>
      <trkpt lat="42.61991542764008045196533203125" lon="19.88332740962505340576171875">
        <ele>1926.199951171875</ele>
        <time>2026-06-16T09:15:25.000Z</time>
        <extensions>
          <ns3:TrackPointExtension>
            <ns3:atemp>22.0</ns3:atemp>
          </ns3:TrackPointExtension>
        </extensions>
      </trkpt>
      <trkpt lat="42.61990302242338657379150390625" lon="19.8833222128450870513916015625">
        <ele>1926.5999755859375</ele>
        <time>2026-06-16T09:15:26.000Z</time>
        <extensions>
          <ns3:TrackPointExtension>
            <ns3:atemp>22.0</ns3:atemp>
          </ns3:TrackPointExtension>
        </extensions>
      </trkpt>
      <trkpt lat="42.61988625861704349517822265625" lon="19.88331810571253299713134765625">
        <ele>1927</ele>
        <time>2026-06-16T09:15:27.000Z</time>
        <extensions>
          <ns3:TrackPointExtension>
            <ns3:atemp>22.0</ns3:atemp>
          </ns3:TrackPointExtension>
        </extensions>
      </trkpt>
      <trkpt lat="42.6198715902864933013916015625" lon="19.883318357169628143310546875">
        <ele>1927.4000244140625</ele>
        <time>2026-06-16T09:15:28.000Z</time>
        <extensions>
          <ns3:TrackPointExtension>
            <ns3:atemp>22.0</ns3:atemp>
          </ns3:TrackPointExtension>
        </extensions>
      </trkpt>
      <trkpt lat="42.61985532939434051513671875" lon="19.8833155073225498199462890625">
        <ele>1927.800048828125</ele>
        <time>2026-06-16T09:15:29.000Z</time>
        <extensions>
          <ns3:TrackPointExtension>
            <ns3:atemp>22.0</ns3:atemp>
          </ns3:TrackPointExtension>
        </extensions>
      </trkpt>
      <trkpt lat="42.61983864940702915191650390625" lon="19.883309304714202880859375">
        <ele>1928.199951171875</ele>
        <time>2026-06-16T09:15:30.000Z</time>
        <extensions>
          <ns3:TrackPointExtension>
            <ns3:atemp>22.0</ns3:atemp>
          </ns3:TrackPointExtension>
        </extensions>
      </trkpt>
      <trkpt lat="42.61982238851487636566162109375" lon="19.883305616676807403564453125">
        <ele>1928.5999755859375</ele>
        <time>2026-06-16T09:15:31.000Z</time>
        <extensions>
          <ns3:TrackPointExtension>
            <ns3:atemp>22.0</ns3:atemp>
          </ns3:TrackPointExtension>
        </extensions>
      </trkpt>
      <trkpt lat="42.619805037975311279296875" lon="19.8833024315536022186279296875">
        <ele>1929</ele>
        <time>2026-06-16T09:15:32.000Z</time>
        <extensions>
          <ns3:TrackPointExtension>
            <ns3:atemp>22.0</ns3:atemp>
          </ns3:TrackPointExtension>
        </extensions>
      </trkpt>
      <trkpt lat="42.61978953145444393157958984375" lon="19.8833057843148708343505859375">
        <ele>1929.4000244140625</ele>
        <time>2026-06-16T09:15:33.000Z</time>
        <extensions>
          <ns3:TrackPointExtension>
            <ns3:atemp>22.0</ns3:atemp>
          </ns3:TrackPointExtension>
        </extensions>
      </trkpt>
      <trkpt lat="42.619773857295513153076171875" lon="19.8833071254193782806396484375">
        <ele>1929.800048828125</ele>
        <time>2026-06-16T09:15:34.000Z</time>
        <extensions>
          <ns3:TrackPointExtension>
            <ns3:atemp>22.0</ns3:atemp>
          </ns3:TrackPointExtension>
        </extensions>
      </trkpt>
      <trkpt lat="42.6197596080601215362548828125" lon="19.88331341184675693511962890625">
        <ele>1930.199951171875</ele>
        <time>2026-06-16T09:15:35.000Z</time>
        <extensions>
          <ns3:TrackPointExtension>
            <ns3:atemp>22.0</ns3:atemp>
          </ns3:TrackPointExtension>
        </extensions>
      </trkpt>
      <trkpt lat="42.6197468675673007965087890625" lon="19.88332347013056278228759765625">
        <ele>1930.5999755859375</ele>
        <time>2026-06-16T09:15:36.000Z</time>
        <extensions>
          <ns3:TrackPointExtension>
            <ns3:atemp>22.0</ns3:atemp>
          </ns3:TrackPointExtension>
        </extensions>
      </trkpt>
      <trkpt lat="42.619732283055782318115234375" lon="19.88333067856729030609130859375">
        <ele>1931</ele>
        <time>2026-06-16T09:15:37.000Z</time>
        <extensions>
          <ns3:TrackPointExtension>
            <ns3:atemp>22.0</ns3:atemp>
          </ns3:TrackPointExtension>
        </extensions>
      </trkpt>
      <trkpt lat="42.6197173632681369781494140625" lon="19.8833329416811466217041015625">
        <ele>1931.4000244140625</ele>
        <time>2026-06-16T09:15:38.000Z</time>
        <extensions>
          <ns3:TrackPointExtension>
            <ns3:atemp>22.0</ns3:atemp>
          </ns3:TrackPointExtension>
        </extensions>
      </trkpt>
      <trkpt lat="42.61970202438533306121826171875" lon="19.88333805464208126068115234375">
        <ele>1932</ele>
        <time>2026-06-16T09:15:39.000Z</time>
        <extensions>
          <ns3:TrackPointExtension>
            <ns3:atemp>22.0</ns3:atemp>
          </ns3:TrackPointExtension>
        </extensions>
      </trkpt>
      <trkpt lat="42.61968643404543399810791015625" lon="19.88334559835493564605712890625">
        <ele>1932.4000244140625</ele>
        <time>2026-06-16T09:15:40.000Z</time>
        <extensions>
          <ns3:TrackPointExtension>
            <ns3:atemp>22.0</ns3:atemp>
          </ns3:TrackPointExtension>
        </extensions>
      </trkpt>
      <trkpt lat="42.6196714304387569427490234375" lon="19.883352555334568023681640625">
        <ele>1932.800048828125</ele>
        <time>2026-06-16T09:15:41.000Z</time>
        <extensions>
          <ns3:TrackPointExtension>
            <ns3:atemp>22.0</ns3:atemp>
          </ns3:TrackPointExtension>
        </extensions>
      </trkpt>
      <trkpt lat="42.61965475045144557952880859375" lon="19.8833617754280567169189453125">
        <ele>1933.199951171875</ele>
        <time>2026-06-16T09:15:42.000Z</time>
        <extensions>
          <ns3:TrackPointExtension>
            <ns3:atemp>22.0</ns3:atemp>
          </ns3:TrackPointExtension>
        </extensions>
      </trkpt>
      <trkpt lat="42.6196389086544513702392578125" lon="19.88336898386478424072265625">
        <ele>1933.5999755859375</ele>
        <time>2026-06-16T09:15:43.000Z</time>
        <extensions>
          <ns3:TrackPointExtension>
            <ns3:atemp>22.0</ns3:atemp>
          </ns3:TrackPointExtension>
        </extensions>
      </trkpt>
      <trkpt lat="42.61962189339101314544677734375" lon="19.88336873240768909454345703125">
        <ele>1934</ele>
        <time>2026-06-16T09:15:44.000Z</time>
        <extensions>
          <ns3:TrackPointExtension>
            <ns3:atemp>22.0</ns3:atemp>
          </ns3:TrackPointExtension>
        </extensions>
      </trkpt>
      <trkpt lat="42.61960496194660663604736328125" lon="19.88336688838899135589599609375">
        <ele>1934.4000244140625</ele>
        <time>2026-06-16T09:15:45.000Z</time>
        <extensions>
          <ns3:TrackPointExtension>
            <ns3:atemp>22.0</ns3:atemp>
          </ns3:TrackPointExtension>
        </extensions>
      </trkpt>
      <trkpt lat="42.619588114321231842041015625" lon="19.883363954722881317138671875">
        <ele>1934.800048828125</ele>
        <time>2026-06-16T09:15:46.000Z</time>
        <extensions>
          <ns3:TrackPointExtension>
            <ns3:atemp>22.0</ns3:atemp>
          </ns3:TrackPointExtension>
        </extensions>
      </trkpt>
      <trkpt lat="42.61957109905779361724853515625" lon="19.88336353562772274017333984375">
        <ele>1935.199951171875</ele>
        <time>2026-06-16T09:15:47.000Z</time>
        <extensions>
          <ns3:TrackPointExtension>
            <ns3:atemp>22.0</ns3:atemp>
          </ns3:TrackPointExtension>
        </extensions>
      </trkpt>
      <trkpt lat="42.61955332942306995391845703125" lon="19.88336504437029361724853515625">
        <ele>1935.4000244140625</ele>
        <time>2026-06-16T09:15:48.000Z</time>
        <extensions>
          <ns3:TrackPointExtension>
            <ns3:atemp>22.0</ns3:atemp>
          </ns3:TrackPointExtension>
        </extensions>
      </trkpt>
      <trkpt lat="42.6195366494357585906982421875" lon="19.88336672075092792510986328125">
        <ele>1935.800048828125</ele>
        <time>2026-06-16T09:15:49.000Z</time>
        <extensions>
          <ns3:TrackPointExtension>
            <ns3:atemp>22.0</ns3:atemp>
          </ns3:TrackPointExtension>
        </extensions>
      </trkpt>
      <trkpt lat="42.61952198110520839691162109375" lon="19.88336772657930850982666015625">
        <ele>1936.4000244140625</ele>
        <time>2026-06-16T09:15:50.000Z</time>
        <extensions>
          <ns3:TrackPointExtension>
            <ns3:atemp>22.0</ns3:atemp>
          </ns3:TrackPointExtension>
        </extensions>
      </trkpt>
      <trkpt lat="42.61950940825045108795166015625" lon="19.88336940295994281768798828125">
        <ele>1936.5999755859375</ele>
        <time>2026-06-16T09:15:51.000Z</time>
        <extensions>
          <ns3:TrackPointExtension>
            <ns3:atemp>22.0</ns3:atemp>
          </ns3:TrackPointExtension>
        </extensions>
      </trkpt>
      <trkpt lat="42.619493901729583740234375" lon="19.88336898386478424072265625">
        <ele>1937</ele>
        <time>2026-06-16T09:15:52.000Z</time>
        <extensions>
          <ns3:TrackPointExtension>
            <ns3:atemp>22.0</ns3:atemp>
          </ns3:TrackPointExtension>
        </extensions>
      </trkpt>
      <trkpt lat="42.6194789819419384002685546875" lon="19.883368313312530517578125">
        <ele>1937.4000244140625</ele>
        <time>2026-06-16T09:15:53.000Z</time>
        <extensions>
          <ns3:TrackPointExtension>
            <ns3:atemp>22.0</ns3:atemp>
          </ns3:TrackPointExtension>
        </extensions>
      </trkpt>
      <trkpt lat="42.6194669120013713836669921875" lon="19.8833763599395751953125">
        <ele>1937.5999755859375</ele>
        <time>2026-06-16T09:15:54.000Z</time>
        <extensions>
          <ns3:TrackPointExtension>
            <ns3:atemp>22.0</ns3:atemp>
          </ns3:TrackPointExtension>
        </extensions>
      </trkpt>
      <trkpt lat="42.619454003870487213134765625" lon="19.88338599912822246551513671875">
        <ele>1938</ele>
        <time>2026-06-16T09:15:55.000Z</time>
        <extensions>
          <ns3:TrackPointExtension>
            <ns3:atemp>22.0</ns3:atemp>
          </ns3:TrackPointExtension>
        </extensions>
      </trkpt>
      <trkpt lat="42.61943967081606388092041015625" lon="19.8833942972123622894287109375">
        <ele>1938.4000244140625</ele>
        <time>2026-06-16T09:15:56.000Z</time>
        <extensions>
          <ns3:TrackPointExtension>
            <ns3:atemp>22.0</ns3:atemp>
          </ns3:TrackPointExtension>
        </extensions>
      </trkpt>
      <trkpt lat="42.61942642740905284881591796875" lon="19.88340779207646846771240234375">
        <ele>1938.800048828125</ele>
        <time>2026-06-16T09:15:57.000Z</time>
        <extensions>
          <ns3:TrackPointExtension>
            <ns3:atemp>22.0</ns3:atemp>
          </ns3:TrackPointExtension>
        </extensions>
      </trkpt>
      <trkpt lat="42.61941418983042240142822265625" lon="19.88342438824474811553955078125">
        <ele>1939.199951171875</ele>
        <time>2026-06-16T09:15:58.000Z</time>
        <extensions>
          <ns3:TrackPointExtension>
            <ns3:atemp>22.0</ns3:atemp>
          </ns3:TrackPointExtension>
        </extensions>
      </trkpt>
      <trkpt lat="42.61940337717533111572265625" lon="19.88344266079366207122802734375">
        <ele>1939.4000244140625</ele>
        <time>2026-06-16T09:15:59.000Z</time>
        <extensions>
          <ns3:TrackPointExtension>
            <ns3:atemp>22.0</ns3:atemp>
          </ns3:TrackPointExtension>
        </extensions>
      </trkpt>
      <trkpt lat="42.6193985156714916229248046875" lon="19.88345540128648281097412109375">
        <ele>1939.800048828125</ele>
        <time>2026-06-16T09:16:00.000Z</time>
        <extensions>
          <ns3:TrackPointExtension>
            <ns3:atemp>22.0</ns3:atemp>
          </ns3:TrackPointExtension>
        </extensions>
      </trkpt>
      <trkpt lat="42.61940195225179195404052734375" lon="19.88346328027546405792236328125">
        <ele>1940.199951171875</ele>
        <time>2026-06-16T09:16:01.000Z</time>
        <extensions>
          <ns3:TrackPointExtension>
            <ns3:atemp>22.0</ns3:atemp>
          </ns3:TrackPointExtension>
        </extensions>
      </trkpt>
      <trkpt lat="42.6194032095372676849365234375" lon="19.88345942460000514984130859375">
        <ele>1940.4000244140625</ele>
        <time>2026-06-16T09:16:02.000Z</time>
        <extensions>
          <ns3:TrackPointExtension>
            <ns3:atemp>22.0</ns3:atemp>
          </ns3:TrackPointExtension>
        </extensions>
      </trkpt>
      <trkpt lat="42.6194032095372676849365234375" lon="19.88345942460000514984130859375">
        <ele>1940.800048828125</ele>
        <time>2026-06-16T09:16:03.000Z</time>
        <extensions>
          <ns3:TrackPointExtension>
            <ns3:atemp>22.0</ns3:atemp>
          </ns3:TrackPointExtension>
        </extensions>
      </trkpt>
      <trkpt lat="42.6194032095372676849365234375" lon="19.88345942460000514984130859375">
        <ele>1941</ele>
        <time>2026-06-16T09:16:04.000Z</time>
        <extensions>
          <ns3:TrackPointExtension>
            <ns3:atemp>22.0</ns3:atemp>
          </ns3:TrackPointExtension>
        </extensions>
      </trkpt>
      <trkpt lat="42.6194032095372676849365234375" lon="19.88345942460000514984130859375">
        <ele>1941.199951171875</ele>
        <time>2026-06-16T09:16:05.000Z</time>
        <extensions>
          <ns3:TrackPointExtension>
            <ns3:atemp>22.0</ns3:atemp>
          </ns3:TrackPointExtension>
        </extensions>
      </trkpt>
      <trkpt lat="42.6194032095372676849365234375" lon="19.88345942460000514984130859375">
        <ele>1941.199951171875</ele>
        <time>2026-06-16T09:16:06.000Z</time>
        <extensions>
          <ns3:TrackPointExtension>
            <ns3:atemp>22.0</ns3:atemp>
          </ns3:TrackPointExtension>
        </extensions>
      </trkpt>
      <trkpt lat="42.6194032095372676849365234375" lon="19.88345942460000514984130859375">
        <ele>1941.199951171875</ele>
        <time>2026-06-16T09:16:07.000Z</time>
        <extensions>
          <ns3:TrackPointExtension>
            <ns3:atemp>22.0</ns3:atemp>
          </ns3:TrackPointExtension>
        </extensions>
      </trkpt>
      <trkpt lat="42.6194032095372676849365234375" lon="19.88345942460000514984130859375">
        <ele>1941</ele>
        <time>2026-06-16T09:16:08.000Z</time>
        <extensions>
          <ns3:TrackPointExtension>
            <ns3:atemp>22.0</ns3:atemp>
          </ns3:TrackPointExtension>
        </extensions>
      </trkpt>
      <trkpt lat="42.6194032095372676849365234375" lon="19.88345942460000514984130859375">
        <ele>1941</ele>
        <time>2026-06-16T09:16:09.000Z</time>
        <extensions>
          <ns3:TrackPointExtension>
            <ns3:atemp>22.0</ns3:atemp>
          </ns3:TrackPointExtension>
        </extensions>
      </trkpt>
      <trkpt lat="42.6194032095372676849365234375" lon="19.88345942460000514984130859375">
        <ele>1941</ele>
        <time>2026-06-16T09:16:10.000Z</time>
        <extensions>
          <ns3:TrackPointExtension>
            <ns3:atemp>22.0</ns3:atemp>
          </ns3:TrackPointExtension>
        </extensions>
      </trkpt>
      <trkpt lat="42.6194032095372676849365234375" lon="19.88345942460000514984130859375">
        <ele>1941</ele>
        <time>2026-06-16T09:16:11.000Z</time>
        <extensions>
          <ns3:TrackPointExtension>
            <ns3:atemp>22.0</ns3:atemp>
          </ns3:TrackPointExtension>
        </extensions>
      </trkpt>
      <trkpt lat="42.6194032095372676849365234375" lon="19.88345942460000514984130859375">
        <ele>1941</ele>
        <time>2026-06-16T09:16:12.000Z</time>
        <extensions>
          <ns3:TrackPointExtension>
            <ns3:atemp>22.0</ns3:atemp>
          </ns3:TrackPointExtension>
        </extensions>
      </trkpt>
      <trkpt lat="42.6194032095372676849365234375" lon="19.88345942460000514984130859375">
        <ele>1941</ele>
        <time>2026-06-16T09:16:13.000Z</time>
        <extensions>
          <ns3:TrackPointExtension>
            <ns3:atemp>22.0</ns3:atemp>
          </ns3:TrackPointExtension>
        </extensions>
      </trkpt>
      <trkpt lat="42.6194032095372676849365234375" lon="19.88345942460000514984130859375">
        <ele>1941</ele>
        <time>2026-06-16T09:16:14.000Z</time>
        <extensions>
          <ns3:TrackPointExtension>
            <ns3:atemp>22.0</ns3:atemp>
          </ns3:TrackPointExtension>
        </extensions>
      </trkpt>
      <trkpt lat="42.6194032095372676849365234375" lon="19.88345942460000514984130859375">
        <ele>1940.800048828125</ele>
        <time>2026-06-16T09:16:15.000Z</time>
        <extensions>
          <ns3:TrackPointExtension>
            <ns3:atemp>22.0</ns3:atemp>
          </ns3:TrackPointExtension>
        </extensions>
      </trkpt>
      <trkpt lat="42.6194032095372676849365234375" lon="19.88345942460000514984130859375">
        <ele>1940.800048828125</ele>
        <time>2026-06-16T09:16:16.000Z</time>
        <extensions>
          <ns3:TrackPointExtension>
            <ns3:atemp>22.0</ns3:atemp>
          </ns3:TrackPointExtension>
        </extensions>
      </trkpt>
      <trkpt lat="42.6194032095372676849365234375" lon="19.88345942460000514984130859375">
        <ele>1940.800048828125</ele>
        <time>2026-06-16T09:16:17.000Z</time>
        <extensions>
          <ns3:TrackPointExtension>
            <ns3:atemp>22.0</ns3:atemp>
          </ns3:TrackPointExtension>
        </extensions>
      </trkpt>
      <trkpt lat="42.6194032095372676849365234375" lon="19.88345942460000514984130859375">
        <ele>1940.800048828125</ele>
        <time>2026-06-16T09:16:18.000Z</time>
        <extensions>
          <ns3:TrackPointExtension>
            <ns3:atemp>22.0</ns3:atemp>
          </ns3:TrackPointExtension>
        </extensions>
      </trkpt>
      <trkpt lat="42.6194032095372676849365234375" lon="19.88345942460000514984130859375">
        <ele>1941</ele>
        <time>2026-06-16T09:16:19.000Z</time>
        <extensions>
          <ns3:TrackPointExtension>
            <ns3:atemp>22.0</ns3:atemp>
          </ns3:TrackPointExtension>
        </extensions>
      </trkpt>
      <trkpt lat="42.6194032095372676849365234375" lon="19.88345942460000514984130859375">
        <ele>1941</ele>
        <time>2026-06-16T09:16:20.000Z</time>
        <extensions>
          <ns3:TrackPointExtension>
            <ns3:atemp>22.0</ns3:atemp>
          </ns3:TrackPointExtension>
        </extensions>
      </trkpt>
      <trkpt lat="42.6194032095372676849365234375" lon="19.88345942460000514984130859375">
        <ele>1941</ele>
        <time>2026-06-16T09:16:21.000Z</time>
        <extensions>
          <ns3:TrackPointExtension>
            <ns3:atemp>22.0</ns3:atemp>
          </ns3:TrackPointExtension>
        </extensions>
      </trkpt>
      <trkpt lat="42.6194032095372676849365234375" lon="19.88345942460000514984130859375">
        <ele>1941</ele>
        <time>2026-06-16T09:16:22.000Z</time>
        <extensions>
          <ns3:TrackPointExtension>
            <ns3:atemp>22.0</ns3:atemp>
          </ns3:TrackPointExtension>
        </extensions>
      </trkpt>
      <trkpt lat="42.6194032095372676849365234375" lon="19.88345942460000514984130859375">
        <ele>1941</ele>
        <time>2026-06-16T09:16:23.000Z</time>
        <extensions>
          <ns3:TrackPointExtension>
            <ns3:atemp>22.0</ns3:atemp>
          </ns3:TrackPointExtension>
        </extensions>
      </trkpt>
      <trkpt lat="42.6194032095372676849365234375" lon="19.88345942460000514984130859375">
        <ele>1941</ele>
        <time>2026-06-16T09:16:24.000Z</time>
        <extensions>
          <ns3:TrackPointExtension>
            <ns3:atemp>22.0</ns3:atemp>
          </ns3:TrackPointExtension>
        </extensions>
      </trkpt>
      <trkpt lat="42.6194032095372676849365234375" lon="19.88345942460000514984130859375">
        <ele>1941</ele>
        <time>2026-06-16T09:16:25.000Z</time>
        <extensions>
          <ns3:TrackPointExtension>
            <ns3:atemp>22.0</ns3:atemp>
          </ns3:TrackPointExtension>
        </extensions>
      </trkpt>
      <trkpt lat="42.6194032095372676849365234375" lon="19.88345942460000514984130859375">
        <ele>1941</ele>
        <time>2026-06-16T09:16:26.000Z</time>
        <extensions>
          <ns3:TrackPointExtension>
            <ns3:atemp>22.0</ns3:atemp>
          </ns3:TrackPointExtension>
        </extensions>
      </trkpt>
      <trkpt lat="42.6194032095372676849365234375" lon="19.88345942460000514984130859375">
        <ele>1941</ele>
        <time>2026-06-16T09:16:27.000Z</time>
        <extensions>
          <ns3:TrackPointExtension>
            <ns3:atemp>22.0</ns3:atemp>
          </ns3:TrackPointExtension>
        </extensions>
      </trkpt>
      <trkpt lat="42.6194032095372676849365234375" lon="19.88345942460000514984130859375">
        <ele>1941</ele>
        <time>2026-06-16T09:16:28.000Z</time>
        <extensions>
          <ns3:TrackPointExtension>
            <ns3:atemp>22.0</ns3:atemp>
          </ns3:TrackPointExtension>
        </extensions>
      </trkpt>
      <trkpt lat="42.6194032095372676849365234375" lon="19.88345942460000514984130859375">
        <ele>1940.800048828125</ele>
        <time>2026-06-16T09:16:29.000Z</time>
        <extensions>
          <ns3:TrackPointExtension>
            <ns3:atemp>22.0</ns3:atemp>
          </ns3:TrackPointExtension>
        </extensions>
      </trkpt>
      <trkpt lat="42.6194032095372676849365234375" lon="19.88345942460000514984130859375">
        <ele>1940.800048828125</ele>
        <time>2026-06-16T09:16:30.000Z</time>
        <extensions>
          <ns3:TrackPointExtension>
            <ns3:atemp>22.0</ns3:atemp>
          </ns3:TrackPointExtension>
        </extensions>
      </trkpt>
      <trkpt lat="42.6194032095372676849365234375" lon="19.88345942460000514984130859375">
        <ele>1940.800048828125</ele>
        <time>2026-06-16T09:16:31.000Z</time>
        <extensions>
          <ns3:TrackPointExtension>
            <ns3:atemp>22.0</ns3:atemp>
          </ns3:TrackPointExtension>
        </extensions>
      </trkpt>
      <trkpt lat="42.6194032095372676849365234375" lon="19.88345942460000514984130859375">
        <ele>1940.800048828125</ele>
        <time>2026-06-16T09:16:32.000Z</time>
        <extensions>
          <ns3:TrackPointExtension>
            <ns3:atemp>22.0</ns3:atemp>
          </ns3:TrackPointExtension>
        </extensions>
      </trkpt>
      <trkpt lat="42.6194032095372676849365234375" lon="19.88345942460000514984130859375">
        <ele>1940.800048828125</ele>
        <time>2026-06-16T09:16:33.000Z</time>
        <extensions>
          <ns3:TrackPointExtension>
            <ns3:atemp>22.0</ns3:atemp>
          </ns3:TrackPointExtension>
        </extensions>
      </trkpt>
      <trkpt lat="42.6194032095372676849365234375" lon="19.88345942460000514984130859375">
        <ele>1940.800048828125</ele>
        <time>2026-06-16T09:16:34.000Z</time>
        <extensions>
          <ns3:TrackPointExtension>
            <ns3:atemp>22.0</ns3:atemp>
          </ns3:TrackPointExtension>
        </extensions>
      </trkpt>
      <trkpt lat="42.6194032095372676849365234375" lon="19.88345942460000514984130859375">
        <ele>1940.800048828125</ele>
        <time>2026-06-16T09:16:35.000Z</time>
        <extensions>
          <ns3:TrackPointExtension>
            <ns3:atemp>22.0</ns3:atemp>
          </ns3:TrackPointExtension>
        </extensions>
      </trkpt>
      <trkpt lat="42.6194032095372676849365234375" lon="19.88345942460000514984130859375">
        <ele>1940.800048828125</ele>
        <time>2026-06-16T09:16:36.000Z</time>
        <extensions>
          <ns3:TrackPointExtension>
            <ns3:atemp>22.0</ns3:atemp>
          </ns3:TrackPointExtension>
        </extensions>
      </trkpt>
      <trkpt lat="42.6194032095372676849365234375" lon="19.88345942460000514984130859375">
        <ele>1940.800048828125</ele>
        <time>2026-06-16T09:16:37.000Z</time>
        <extensions>
          <ns3:TrackPointExtension>
            <ns3:atemp>22.0</ns3:atemp>
          </ns3:TrackPointExtension>
        </extensions>
      </trkpt>
      <trkpt lat="42.6194032095372676849365234375" lon="19.88345942460000514984130859375">
        <ele>1941</ele>
        <time>2026-06-16T09:16:38.000Z</time>
        <extensions>
          <ns3:TrackPointExtension>
            <ns3:atemp>22.0</ns3:atemp>
          </ns3:TrackPointExtension>
        </extensions>
      </trkpt>
      <trkpt lat="42.6194032095372676849365234375" lon="19.88345942460000514984130859375">
        <ele>1941</ele>
        <time>2026-06-16T09:16:39.000Z</time>
        <extensions>
          <ns3:TrackPointExtension>
            <ns3:atemp>22.0</ns3:atemp>
          </ns3:TrackPointExtension>
        </extensions>
      </trkpt>
      <trkpt lat="42.6194032095372676849365234375" lon="19.88345942460000514984130859375">
        <ele>1941</ele>
        <time>2026-06-16T09:16:40.000Z</time>
        <extensions>
          <ns3:TrackPointExtension>
            <ns3:atemp>22.0</ns3:atemp>
          </ns3:TrackPointExtension>
        </extensions>
      </trkpt>
      <trkpt lat="42.6194032095372676849365234375" lon="19.88345942460000514984130859375">
        <ele>1941</ele>
        <time>2026-06-16T09:16:41.000Z</time>
        <extensions>
          <ns3:TrackPointExtension>
            <ns3:atemp>22.0</ns3:atemp>
          </ns3:TrackPointExtension>
        </extensions>
      </trkpt>
      <trkpt lat="42.6194032095372676849365234375" lon="19.88345942460000514984130859375">
        <ele>1941</ele>
        <time>2026-06-16T09:16:42.000Z</time>
        <extensions>
          <ns3:TrackPointExtension>
            <ns3:atemp>22.0</ns3:atemp>
          </ns3:TrackPointExtension>
        </extensions>
      </trkpt>
      <trkpt lat="42.6194032095372676849365234375" lon="19.88345942460000514984130859375">
        <ele>1941</ele>
        <time>2026-06-16T09:16:43.000Z</time>
        <extensions>
          <ns3:TrackPointExtension>
            <ns3:atemp>22.0</ns3:atemp>
          </ns3:TrackPointExtension>
        </extensions>
      </trkpt>
      <trkpt lat="42.6194032095372676849365234375" lon="19.88345942460000514984130859375">
        <ele>1941</ele>
        <time>2026-06-16T09:16:44.000Z</time>
        <extensions>
          <ns3:TrackPointExtension>
            <ns3:atemp>22.0</ns3:atemp>
          </ns3:TrackPointExtension>
        </extensions>
      </trkpt>
      <trkpt lat="42.6194032095372676849365234375" lon="19.88345942460000514984130859375">
        <ele>1941</ele>
        <time>2026-06-16T09:16:45.000Z</time>
        <extensions>
          <ns3:TrackPointExtension>
            <ns3:atemp>22.0</ns3:atemp>
          </ns3:TrackPointExtension>
        </extensions>
      </trkpt>
      <trkpt lat="42.6194032095372676849365234375" lon="19.88345942460000514984130859375">
        <ele>1941</ele>
        <time>2026-06-16T09:16:46.000Z</time>
        <extensions>
          <ns3:TrackPointExtension>
            <ns3:atemp>22.0</ns3:atemp>
          </ns3:TrackPointExtension>
        </extensions>
      </trkpt>
      <trkpt lat="42.6194032095372676849365234375" lon="19.88345942460000514984130859375">
        <ele>1941</ele>
        <time>2026-06-16T09:16:47.000Z</time>
        <extensions>
          <ns3:TrackPointExtension>
            <ns3:atemp>22.0</ns3:atemp>
          </ns3:TrackPointExtension>
        </extensions>
      </trkpt>
      <trkpt lat="42.6194032095372676849365234375" lon="19.88345942460000514984130859375">
        <ele>1941</ele>
        <time>2026-06-16T09:16:48.000Z</time>
        <extensions>
          <ns3:TrackPointExtension>
            <ns3:atemp>22.0</ns3:atemp>
          </ns3:TrackPointExtension>
        </extensions>
      </trkpt>
      <trkpt lat="42.6194032095372676849365234375" lon="19.88345942460000514984130859375">
        <ele>1941</ele>
        <time>2026-06-16T09:16:49.000Z</time>
        <extensions>
          <ns3:TrackPointExtension>
            <ns3:atemp>22.0</ns3:atemp>
          </ns3:TrackPointExtension>
        </extensions>
      </trkpt>
      <trkpt lat="42.6194032095372676849365234375" lon="19.88345942460000514984130859375">
        <ele>1941</ele>
        <time>2026-06-16T09:16:50.000Z</time>
        <extensions>
          <ns3:TrackPointExtension>
            <ns3:atemp>22.0</ns3:atemp>
          </ns3:TrackPointExtension>
        </extensions>
      </trkpt>
      <trkpt lat="42.6194032095372676849365234375" lon="19.88345942460000514984130859375">
        <ele>1941</ele>
        <time>2026-06-16T09:16:51.000Z</time>
        <extensions>
          <ns3:TrackPointExtension>
            <ns3:atemp>22.0</ns3:atemp>
          </ns3:TrackPointExtension>
        </extensions>
      </trkpt>
      <trkpt lat="42.6194032095372676849365234375" lon="19.88345942460000514984130859375">
        <ele>1941.199951171875</ele>
        <time>2026-06-16T09:16:52.000Z</time>
        <extensions>
          <ns3:TrackPointExtension>
            <ns3:atemp>22.0</ns3:atemp>
          </ns3:TrackPointExtension>
        </extensions>
      </trkpt>
      <trkpt lat="42.6194032095372676849365234375" lon="19.88345942460000514984130859375">
        <ele>1941.199951171875</ele>
        <time>2026-06-16T09:16:53.000Z</time>
        <extensions>
          <ns3:TrackPointExtension>
            <ns3:atemp>22.0</ns3:atemp>
          </ns3:TrackPointExtension>
        </extensions>
      </trkpt>
      <trkpt lat="42.6194032095372676849365234375" lon="19.88345942460000514984130859375">
        <ele>1941.199951171875</ele>
        <time>2026-06-16T09:16:54.000Z</time>
        <extensions>
          <ns3:TrackPointExtension>
            <ns3:atemp>22.0</ns3:atemp>
          </ns3:TrackPointExtension>
        </extensions>
      </trkpt>
      <trkpt lat="42.6194032095372676849365234375" lon="19.88345942460000514984130859375">
        <ele>1941.199951171875</ele>
        <time>2026-06-16T09:16:55.000Z</time>
        <extensions>
          <ns3:TrackPointExtension>
            <ns3:atemp>22.0</ns3:atemp>
          </ns3:TrackPointExtension>
        </extensions>
      </trkpt>
      <trkpt lat="42.6194032095372676849365234375" lon="19.88345942460000514984130859375">
        <ele>1941.199951171875</ele>
        <time>2026-06-16T09:16:56.000Z</time>
        <extensions>
          <ns3:TrackPointExtension>
            <ns3:atemp>22.0</ns3:atemp>
          </ns3:TrackPointExtension>
        </extensions>
      </trkpt>
      <trkpt lat="42.6194032095372676849365234375" lon="19.88345942460000514984130859375">
        <ele>1941.199951171875</ele>
        <time>2026-06-16T09:16:57.000Z</time>
        <extensions>
          <ns3:TrackPointExtension>
            <ns3:atemp>22.0</ns3:atemp>
          </ns3:TrackPointExtension>
        </extensions>
      </trkpt>
      <trkpt lat="42.6194032095372676849365234375" lon="19.88345942460000514984130859375">
        <ele>1941.4000244140625</ele>
        <time>2026-06-16T09:16:58.000Z</time>
        <extensions>
          <ns3:TrackPointExtension>
            <ns3:atemp>22.0</ns3:atemp>
          </ns3:TrackPointExtension>
        </extensions>
      </trkpt>
      <trkpt lat="42.6194032095372676849365234375" lon="19.88345942460000514984130859375">
        <ele>1941.4000244140625</ele>
        <time>2026-06-16T09:16:59.000Z</time>
        <extensions>
          <ns3:TrackPointExtension>
            <ns3:atemp>22.0</ns3:atemp>
          </ns3:TrackPointExtension>
        </extensions>
      </trkpt>
      <trkpt lat="42.6194032095372676849365234375" lon="19.88345942460000514984130859375">
        <ele>1941.4000244140625</ele>
        <time>2026-06-16T09:17:00.000Z</time>
        <extensions>
          <ns3:TrackPointExtension>
            <ns3:atemp>22.0</ns3:atemp>
          </ns3:TrackPointExtension>
        </extensions>
      </trkpt>
      <trkpt lat="42.6194032095372676849365234375" lon="19.88345942460000514984130859375">
        <ele>1941.4000244140625</ele>
        <time>2026-06-16T09:17:01.000Z</time>
        <extensions>
          <ns3:TrackPointExtension>
            <ns3:atemp>22.0</ns3:atemp>
          </ns3:TrackPointExtension>
        </extensions>
      </trkpt>
      <trkpt lat="42.6194032095372676849365234375" lon="19.88345942460000514984130859375">
        <ele>1941.4000244140625</ele>
        <time>2026-06-16T09:17:02.000Z</time>
        <extensions>
          <ns3:TrackPointExtension>
            <ns3:atemp>22.0</ns3:atemp>
          </ns3:TrackPointExtension>
        </extensions>
      </trkpt>
      <trkpt lat="42.6194032095372676849365234375" lon="19.88345942460000514984130859375">
        <ele>1941.4000244140625</ele>
        <time>2026-06-16T09:17:03.000Z</time>
        <extensions>
          <ns3:TrackPointExtension>
            <ns3:atemp>22.0</ns3:atemp>
          </ns3:TrackPointExtension>
        </extensions>
      </trkpt>
      <trkpt lat="42.6194032095372676849365234375" lon="19.88345942460000514984130859375">
        <ele>1941.199951171875</ele>
        <time>2026-06-16T09:17:04.000Z</time>
        <extensions>
          <ns3:TrackPointExtension>
            <ns3:atemp>22.0</ns3:atemp>
          </ns3:TrackPointExtension>
        </extensions>
      </trkpt>
      <trkpt lat="42.6194032095372676849365234375" lon="19.88345942460000514984130859375">
        <ele>1941.199951171875</ele>
        <time>2026-06-16T09:17:05.000Z</time>
        <extensions>
          <ns3:TrackPointExtension>
            <ns3:atemp>22.0</ns3:atemp>
          </ns3:TrackPointExtension>
        </extensions>
      </trkpt>
      <trkpt lat="42.6194032095372676849365234375" lon="19.88345942460000514984130859375">
        <ele>1941.199951171875</ele>
        <time>2026-06-16T09:17:06.000Z</time>
        <extensions>
          <ns3:TrackPointExtension>
            <ns3:atemp>22.0</ns3:atemp>
          </ns3:TrackPointExtension>
        </extensions>
      </trkpt>
      <trkpt lat="42.6194032095372676849365234375" lon="19.88345942460000514984130859375">
        <ele>1941.199951171875</ele>
        <time>2026-06-16T09:17:07.000Z</time>
        <extensions>
          <ns3:TrackPointExtension>
            <ns3:atemp>22.0</ns3:atemp>
          </ns3:TrackPointExtension>
        </extensions>
      </trkpt>
      <trkpt lat="42.6194032095372676849365234375" lon="19.88345942460000514984130859375">
        <ele>1941.199951171875</ele>
        <time>2026-06-16T09:17:08.000Z</time>
        <extensions>
          <ns3:TrackPointExtension>
            <ns3:atemp>22.0</ns3:atemp>
          </ns3:TrackPointExtension>
        </extensions>
      </trkpt>
      <trkpt lat="42.6194032095372676849365234375" lon="19.88345942460000514984130859375">
        <ele>1941.199951171875</ele>
        <time>2026-06-16T09:17:09.000Z</time>
        <extensions>
          <ns3:TrackPointExtension>
            <ns3:atemp>22.0</ns3:atemp>
          </ns3:TrackPointExtension>
        </extensions>
      </trkpt>
      <trkpt lat="42.6194032095372676849365234375" lon="19.88345942460000514984130859375">
        <ele>1941.199951171875</ele>
        <time>2026-06-16T09:17:10.000Z</time>
        <extensions>
          <ns3:TrackPointExtension>
            <ns3:atemp>22.0</ns3:atemp>
          </ns3:TrackPointExtension>
        </extensions>
      </trkpt>
      <trkpt lat="42.6194032095372676849365234375" lon="19.88345942460000514984130859375">
        <ele>1941.199951171875</ele>
        <time>2026-06-16T09:17:11.000Z</time>
        <extensions>
          <ns3:TrackPointExtension>
            <ns3:atemp>22.0</ns3:atemp>
          </ns3:TrackPointExtension>
        </extensions>
      </trkpt>
      <trkpt lat="42.6194032095372676849365234375" lon="19.88345942460000514984130859375">
        <ele>1941.199951171875</ele>
        <time>2026-06-16T09:17:12.000Z</time>
        <extensions>
          <ns3:TrackPointExtension>
            <ns3:atemp>22.0</ns3:atemp>
          </ns3:TrackPointExtension>
        </extensions>
      </trkpt>
      <trkpt lat="42.6194032095372676849365234375" lon="19.88345942460000514984130859375">
        <ele>1941.199951171875</ele>
        <time>2026-06-16T09:17:13.000Z</time>
        <extensions>
          <ns3:TrackPointExtension>
            <ns3:atemp>22.0</ns3:atemp>
          </ns3:TrackPointExtension>
        </extensions>
      </trkpt>
      <trkpt lat="42.6194032095372676849365234375" lon="19.88345942460000514984130859375">
        <ele>1941.199951171875</ele>
        <time>2026-06-16T09:17:14.000Z</time>
        <extensions>
          <ns3:TrackPointExtension>
            <ns3:atemp>22.0</ns3:atemp>
          </ns3:TrackPointExtension>
        </extensions>
      </trkpt>
      <trkpt lat="42.6194032095372676849365234375" lon="19.88345942460000514984130859375">
        <ele>1941.199951171875</ele>
        <time>2026-06-16T09:17:15.000Z</time>
        <extensions>
          <ns3:TrackPointExtension>
            <ns3:atemp>22.0</ns3:atemp>
          </ns3:TrackPointExtension>
        </extensions>
      </trkpt>
      <trkpt lat="42.6194032095372676849365234375" lon="19.88345942460000514984130859375">
        <ele>1941.199951171875</ele>
        <time>2026-06-16T09:17:16.000Z</time>
        <extensions>
          <ns3:TrackPointExtension>
            <ns3:atemp>22.0</ns3:atemp>
          </ns3:TrackPointExtension>
        </extensions>
      </trkpt>
      <trkpt lat="42.6194032095372676849365234375" lon="19.88345942460000514984130859375">
        <ele>1941.199951171875</ele>
        <time>2026-06-16T09:17:17.000Z</time>
        <extensions>
          <ns3:TrackPointExtension>
            <ns3:atemp>22.0</ns3:atemp>
          </ns3:TrackPointExtension>
        </extensions>
      </trkpt>
      <trkpt lat="42.6194032095372676849365234375" lon="19.88345942460000514984130859375">
        <ele>1941.199951171875</ele>
        <time>2026-06-16T09:17:18.000Z</time>
        <extensions>
          <ns3:TrackPointExtension>
            <ns3:atemp>22.0</ns3:atemp>
          </ns3:TrackPointExtension>
        </extensions>
      </trkpt>
      <trkpt lat="42.6194032095372676849365234375" lon="19.88345942460000514984130859375">
        <ele>1941.199951171875</ele>
        <time>2026-06-16T09:17:19.000Z</time>
        <extensions>
          <ns3:TrackPointExtension>
            <ns3:atemp>22.0</ns3:atemp>
          </ns3:TrackPointExtension>
        </extensions>
      </trkpt>
      <trkpt lat="42.6194032095372676849365234375" lon="19.88345942460000514984130859375">
        <ele>1941.199951171875</ele>
        <time>2026-06-16T09:17:20.000Z</time>
        <extensions>
          <ns3:TrackPointExtension>
            <ns3:atemp>22.0</ns3:atemp>
          </ns3:TrackPointExtension>
        </extensions>
      </trkpt>
      <trkpt lat="42.6194032095372676849365234375" lon="19.88345942460000514984130859375">
        <ele>1941.199951171875</ele>
        <time>2026-06-16T09:17:21.000Z</time>
        <extensions>
          <ns3:TrackPointExtension>
            <ns3:atemp>22.0</ns3:atemp>
          </ns3:TrackPointExtension>
        </extensions>
      </trkpt>
      <trkpt lat="42.6194032095372676849365234375" lon="19.88345942460000514984130859375">
        <ele>1941.199951171875</ele>
        <time>2026-06-16T09:17:22.000Z</time>
        <extensions>
          <ns3:TrackPointExtension>
            <ns3:atemp>22.0</ns3:atemp>
          </ns3:TrackPointExtension>
        </extensions>
      </trkpt>
      <trkpt lat="42.6194032095372676849365234375" lon="19.88345942460000514984130859375">
        <ele>1941.199951171875</ele>
        <time>2026-06-16T09:17:23.000Z</time>
        <extensions>
          <ns3:TrackPointExtension>
            <ns3:atemp>22.0</ns3:atemp>
          </ns3:TrackPointExtension>
        </extensions>
      </trkpt>
      <trkpt lat="42.6194032095372676849365234375" lon="19.88345942460000514984130859375">
        <ele>1941.199951171875</ele>
        <time>2026-06-16T09:17:24.000Z</time>
        <extensions>
          <ns3:TrackPointExtension>
            <ns3:atemp>22.0</ns3:atemp>
          </ns3:TrackPointExtension>
        </extensions>
      </trkpt>
      <trkpt lat="42.6194032095372676849365234375" lon="19.88345942460000514984130859375">
        <ele>1941.199951171875</ele>
        <time>2026-06-16T09:17:25.000Z</time>
        <extensions>
          <ns3:TrackPointExtension>
            <ns3:atemp>22.0</ns3:atemp>
          </ns3:TrackPointExtension>
        </extensions>
      </trkpt>
      <trkpt lat="42.6194032095372676849365234375" lon="19.88345942460000514984130859375">
        <ele>1941.199951171875</ele>
        <time>2026-06-16T09:17:26.000Z</time>
        <extensions>
          <ns3:TrackPointExtension>
            <ns3:atemp>23.0</ns3:atemp>
          </ns3:TrackPointExtension>
        </extensions>
      </trkpt>
      <trkpt lat="42.6194032095372676849365234375" lon="19.88345942460000514984130859375">
        <ele>1941.199951171875</ele>
        <time>2026-06-16T09:17:27.000Z</time>
        <extensions>
          <ns3:TrackPointExtension>
            <ns3:atemp>23.0</ns3:atemp>
          </ns3:TrackPointExtension>
        </extensions>
      </trkpt>
      <trkpt lat="42.6194032095372676849365234375" lon="19.88345942460000514984130859375">
        <ele>1941.199951171875</ele>
        <time>2026-06-16T09:17:28.000Z</time>
        <extensions>
          <ns3:TrackPointExtension>
            <ns3:atemp>23.0</ns3:atemp>
          </ns3:TrackPointExtension>
        </extensions>
      </trkpt>
      <trkpt lat="42.6194032095372676849365234375" lon="19.88345942460000514984130859375">
        <ele>1941.199951171875</ele>
        <time>2026-06-16T09:17:29.000Z</time>
        <extensions>
          <ns3:TrackPointExtension>
            <ns3:atemp>23.0</ns3:atemp>
          </ns3:TrackPointExtension>
        </extensions>
      </trkpt>
      <trkpt lat="42.6194032095372676849365234375" lon="19.88345942460000514984130859375">
        <ele>1941.199951171875</ele>
        <time>2026-06-16T09:17:30.000Z</time>
        <extensions>
          <ns3:TrackPointExtension>
            <ns3:atemp>23.0</ns3:atemp>
          </ns3:TrackPointExtension>
        </extensions>
      </trkpt>
      <trkpt lat="42.6194032095372676849365234375" lon="19.88345942460000514984130859375">
        <ele>1941.199951171875</ele>
        <time>2026-06-16T09:17:31.000Z</time>
        <extensions>
          <ns3:TrackPointExtension>
            <ns3:atemp>23.0</ns3:atemp>
          </ns3:TrackPointExtension>
        </extensions>
      </trkpt>
      <trkpt lat="42.6194032095372676849365234375" lon="19.88345942460000514984130859375">
        <ele>1941.199951171875</ele>
        <time>2026-06-16T09:17:32.000Z</time>
        <extensions>
          <ns3:TrackPointExtension>
            <ns3:atemp>23.0</ns3:atemp>
          </ns3:TrackPointExtension>
        </extensions>
      </trkpt>
      <trkpt lat="42.6194032095372676849365234375" lon="19.88345942460000514984130859375">
        <ele>1941.199951171875</ele>
        <time>2026-06-16T09:17:33.000Z</time>
        <extensions>
          <ns3:TrackPointExtension>
            <ns3:atemp>23.0</ns3:atemp>
          </ns3:TrackPointExtension>
        </extensions>
      </trkpt>
      <trkpt lat="42.6194032095372676849365234375" lon="19.88345942460000514984130859375">
        <ele>1941.199951171875</ele>
        <time>2026-06-16T09:17:34.000Z</time>
        <extensions>
          <ns3:TrackPointExtension>
            <ns3:atemp>23.0</ns3:atemp>
          </ns3:TrackPointExtension>
        </extensions>
      </trkpt>
      <trkpt lat="42.6194032095372676849365234375" lon="19.88345942460000514984130859375">
        <ele>1941.199951171875</ele>
        <time>2026-06-16T09:17:35.000Z</time>
        <extensions>
          <ns3:TrackPointExtension>
            <ns3:atemp>23.0</ns3:atemp>
          </ns3:TrackPointExtension>
        </extensions>
      </trkpt>
      <trkpt lat="42.6194032095372676849365234375" lon="19.88345942460000514984130859375">
        <ele>1941.199951171875</ele>
        <time>2026-06-16T09:17:36.000Z</time>
        <extensions>
          <ns3:TrackPointExtension>
            <ns3:atemp>23.0</ns3:atemp>
          </ns3:TrackPointExtension>
        </extensions>
      </trkpt>
      <trkpt lat="42.6194032095372676849365234375" lon="19.88345942460000514984130859375">
        <ele>1941.199951171875</ele>
        <time>2026-06-16T09:17:37.000Z</time>
        <extensions>
          <ns3:TrackPointExtension>
            <ns3:atemp>23.0</ns3:atemp>
          </ns3:TrackPointExtension>
        </extensions>
      </trkpt>
      <trkpt lat="42.6194032095372676849365234375" lon="19.88345942460000514984130859375">
        <ele>1941.199951171875</ele>
        <time>2026-06-16T09:17:38.000Z</time>
        <extensions>
          <ns3:TrackPointExtension>
            <ns3:atemp>23.0</ns3:atemp>
          </ns3:TrackPointExtension>
        </extensions>
      </trkpt>
      <trkpt lat="42.6194032095372676849365234375" lon="19.88345942460000514984130859375">
        <ele>1941.199951171875</ele>
        <time>2026-06-16T09:17:39.000Z</time>
        <extensions>
          <ns3:TrackPointExtension>
            <ns3:atemp>23.0</ns3:atemp>
          </ns3:TrackPointExtension>
        </extensions>
      </trkpt>
      <trkpt lat="42.6194032095372676849365234375" lon="19.88345942460000514984130859375">
        <ele>1941.199951171875</ele>
        <time>2026-06-16T09:17:40.000Z</time>
        <extensions>
          <ns3:TrackPointExtension>
            <ns3:atemp>23.0</ns3:atemp>
          </ns3:TrackPointExtension>
        </extensions>
      </trkpt>
      <trkpt lat="42.6194032095372676849365234375" lon="19.88345942460000514984130859375">
        <ele>1941.199951171875</ele>
        <time>2026-06-16T09:17:41.000Z</time>
        <extensions>
          <ns3:TrackPointExtension>
            <ns3:atemp>23.0</ns3:atemp>
          </ns3:TrackPointExtension>
        </extensions>
      </trkpt>
      <trkpt lat="42.6194032095372676849365234375" lon="19.88345942460000514984130859375">
        <ele>1941.199951171875</ele>
        <time>2026-06-16T09:17:42.000Z</time>
        <extensions>
          <ns3:TrackPointExtension>
            <ns3:atemp>23.0</ns3:atemp>
          </ns3:TrackPointExtension>
        </extensions>
      </trkpt>
      <trkpt lat="42.6194032095372676849365234375" lon="19.88345942460000514984130859375">
        <ele>1941.199951171875</ele>
        <time>2026-06-16T09:17:43.000Z</time>
        <extensions>
          <ns3:TrackPointExtension>
            <ns3:atemp>23.0</ns3:atemp>
          </ns3:TrackPointExtension>
        </extensions>
      </trkpt>
      <trkpt lat="42.6194032095372676849365234375" lon="19.88345942460000514984130859375">
        <ele>1941.199951171875</ele>
        <time>2026-06-16T09:17:44.000Z</time>
        <extensions>
          <ns3:TrackPointExtension>
            <ns3:atemp>23.0</ns3:atemp>
          </ns3:TrackPointExtension>
        </extensions>
      </trkpt>
      <trkpt lat="42.6194032095372676849365234375" lon="19.88345942460000514984130859375">
        <ele>1941.199951171875</ele>
        <time>2026-06-16T09:17:45.000Z</time>
        <extensions>
          <ns3:TrackPointExtension>
            <ns3:atemp>23.0</ns3:atemp>
          </ns3:TrackPointExtension>
        </extensions>
      </trkpt>
      <trkpt lat="42.6194032095372676849365234375" lon="19.88345942460000514984130859375">
        <ele>1941.199951171875</ele>
        <time>2026-06-16T09:17:46.000Z</time>
        <extensions>
          <ns3:TrackPointExtension>
            <ns3:atemp>23.0</ns3:atemp>
          </ns3:TrackPointExtension>
        </extensions>
      </trkpt>
      <trkpt lat="42.6194032095372676849365234375" lon="19.88345942460000514984130859375">
        <ele>1941.199951171875</ele>
        <time>2026-06-16T09:17:47.000Z</time>
        <extensions>
          <ns3:TrackPointExtension>
            <ns3:atemp>23.0</ns3:atemp>
          </ns3:TrackPointExtension>
        </extensions>
      </trkpt>
      <trkpt lat="42.6194032095372676849365234375" lon="19.88345942460000514984130859375">
        <ele>1941.199951171875</ele>
        <time>2026-06-16T09:17:48.000Z</time>
        <extensions>
          <ns3:TrackPointExtension>
            <ns3:atemp>23.0</ns3:atemp>
          </ns3:TrackPointExtension>
        </extensions>
      </trkpt>
      <trkpt lat="42.6194032095372676849365234375" lon="19.88345942460000514984130859375">
        <ele>1941.199951171875</ele>
        <time>2026-06-16T09:17:49.000Z</time>
        <extensions>
          <ns3:TrackPointExtension>
            <ns3:atemp>23.0</ns3:atemp>
          </ns3:TrackPointExtension>
        </extensions>
      </trkpt>
      <trkpt lat="42.6194032095372676849365234375" lon="19.88345942460000514984130859375">
        <ele>1941.199951171875</ele>
        <time>2026-06-16T09:17:50.000Z</time>
        <extensions>
          <ns3:TrackPointExtension>
            <ns3:atemp>23.0</ns3:atemp>
          </ns3:TrackPointExtension>
        </extensions>
      </trkpt>
      <trkpt lat="42.6194032095372676849365234375" lon="19.88345942460000514984130859375">
        <ele>1941.199951171875</ele>
        <time>2026-06-16T09:17:51.000Z</time>
        <extensions>
          <ns3:TrackPointExtension>
            <ns3:atemp>23.0</ns3:atemp>
          </ns3:TrackPointExtension>
        </extensions>
      </trkpt>
      <trkpt lat="42.6194032095372676849365234375" lon="19.88345942460000514984130859375">
        <ele>1941.199951171875</ele>
        <time>2026-06-16T09:17:52.000Z</time>
        <extensions>
          <ns3:TrackPointExtension>
            <ns3:atemp>23.0</ns3:atemp>
          </ns3:TrackPointExtension>
        </extensions>
      </trkpt>
      <trkpt lat="42.6194032095372676849365234375" lon="19.88345942460000514984130859375">
        <ele>1941.199951171875</ele>
        <time>2026-06-16T09:17:53.000Z</time>
        <extensions>
          <ns3:TrackPointExtension>
            <ns3:atemp>23.0</ns3:atemp>
          </ns3:TrackPointExtension>
        </extensions>
      </trkpt>
      <trkpt lat="42.6194032095372676849365234375" lon="19.88345942460000514984130859375">
        <ele>1941.199951171875</ele>
        <time>2026-06-16T09:17:54.000Z</time>
        <extensions>
          <ns3:TrackPointExtension>
            <ns3:atemp>23.0</ns3:atemp>
          </ns3:TrackPointExtension>
        </extensions>
      </trkpt>
      <trkpt lat="42.6194032095372676849365234375" lon="19.88345942460000514984130859375">
        <ele>1941.199951171875</ele>
        <time>2026-06-16T09:17:55.000Z</time>
        <extensions>
          <ns3:TrackPointExtension>
            <ns3:atemp>23.0</ns3:atemp>
          </ns3:TrackPointExtension>
        </extensions>
      </trkpt>
      <trkpt lat="42.6194032095372676849365234375" lon="19.88345942460000514984130859375">
        <ele>1941.199951171875</ele>
        <time>2026-06-16T09:17:56.000Z</time>
        <extensions>
          <ns3:TrackPointExtension>
            <ns3:atemp>23.0</ns3:atemp>
          </ns3:TrackPointExtension>
        </extensions>
      </trkpt>
      <trkpt lat="42.6194032095372676849365234375" lon="19.88345942460000514984130859375">
        <ele>1941.199951171875</ele>
        <time>2026-06-16T09:17:57.000Z</time>
        <extensions>
          <ns3:TrackPointExtension>
            <ns3:atemp>23.0</ns3:atemp>
          </ns3:TrackPointExtension>
        </extensions>
      </trkpt>
      <trkpt lat="42.6194032095372676849365234375" lon="19.88345942460000514984130859375">
        <ele>1941.199951171875</ele>
        <time>2026-06-16T09:17:58.000Z</time>
        <extensions>
          <ns3:TrackPointExtension>
            <ns3:atemp>23.0</ns3:atemp>
          </ns3:TrackPointExtension>
        </extensions>
      </trkpt>
      <trkpt lat="42.6194032095372676849365234375" lon="19.88345942460000514984130859375">
        <ele>1941.199951171875</ele>
        <time>2026-06-16T09:17:59.000Z</time>
        <extensions>
          <ns3:TrackPointExtension>
            <ns3:atemp>23.0</ns3:atemp>
          </ns3:TrackPointExtension>
        </extensions>
      </trkpt>
      <trkpt lat="42.6194032095372676849365234375" lon="19.88345942460000514984130859375">
        <ele>1941.199951171875</ele>
        <time>2026-06-16T09:18:00.000Z</time>
        <extensions>
          <ns3:TrackPointExtension>
            <ns3:atemp>23.0</ns3:atemp>
          </ns3:TrackPointExtension>
        </extensions>
      </trkpt>
      <trkpt lat="42.6194032095372676849365234375" lon="19.88345942460000514984130859375">
        <ele>1941.199951171875</ele>
        <time>2026-06-16T09:18:01.000Z</time>
        <extensions>
          <ns3:TrackPointExtension>
            <ns3:atemp>23.0</ns3:atemp>
          </ns3:TrackPointExtension>
        </extensions>
      </trkpt>
      <trkpt lat="42.6194032095372676849365234375" lon="19.88345942460000514984130859375">
        <ele>1941.199951171875</ele>
        <time>2026-06-16T09:18:02.000Z</time>
        <extensions>
          <ns3:TrackPointExtension>
            <ns3:atemp>23.0</ns3:atemp>
          </ns3:TrackPointExtension>
        </extensions>
      </trkpt>
      <trkpt lat="42.6194032095372676849365234375" lon="19.88345942460000514984130859375">
        <ele>1941.199951171875</ele>
        <time>2026-06-16T09:18:03.000Z</time>
        <extensions>
          <ns3:TrackPointExtension>
            <ns3:atemp>23.0</ns3:atemp>
          </ns3:TrackPointExtension>
        </extensions>
      </trkpt>
      <trkpt lat="42.6194032095372676849365234375" lon="19.88345942460000514984130859375">
        <ele>1941.199951171875</ele>
        <time>2026-06-16T09:18:04.000Z</time>
        <extensions>
          <ns3:TrackPointExtension>
            <ns3:atemp>23.0</ns3:atemp>
          </ns3:TrackPointExtension>
        </extensions>
      </trkpt>
      <trkpt lat="42.6194032095372676849365234375" lon="19.88345942460000514984130859375">
        <ele>1941.199951171875</ele>
        <time>2026-06-16T09:18:05.000Z</time>
        <extensions>
          <ns3:TrackPointExtension>
            <ns3:atemp>23.0</ns3:atemp>
          </ns3:TrackPointExtension>
        </extensions>
      </trkpt>
      <trkpt lat="42.6194032095372676849365234375" lon="19.88345942460000514984130859375">
        <ele>1941.199951171875</ele>
        <time>2026-06-16T09:18:06.000Z</time>
        <extensions>
          <ns3:TrackPointExtension>
            <ns3:atemp>23.0</ns3:atemp>
          </ns3:TrackPointExtension>
        </extensions>
      </trkpt>
      <trkpt lat="42.6194032095372676849365234375" lon="19.88345942460000514984130859375">
        <ele>1941.199951171875</ele>
        <time>2026-06-16T09:18:07.000Z</time>
        <extensions>
          <ns3:TrackPointExtension>
            <ns3:atemp>23.0</ns3:atemp>
          </ns3:TrackPointExtension>
        </extensions>
      </trkpt>
      <trkpt lat="42.6194032095372676849365234375" lon="19.88345942460000514984130859375">
        <ele>1941.199951171875</ele>
        <time>2026-06-16T09:18:08.000Z</time>
        <extensions>
          <ns3:TrackPointExtension>
            <ns3:atemp>23.0</ns3:atemp>
          </ns3:TrackPointExtension>
        </extensions>
      </trkpt>
      <trkpt lat="42.6194032095372676849365234375" lon="19.88345942460000514984130859375">
        <ele>1941.199951171875</ele>
        <time>2026-06-16T09:18:09.000Z</time>
        <extensions>
          <ns3:TrackPointExtension>
            <ns3:atemp>23.0</ns3:atemp>
          </ns3:TrackPointExtension>
        </extensions>
      </trkpt>
      <trkpt lat="42.6194032095372676849365234375" lon="19.88345942460000514984130859375">
        <ele>1941.199951171875</ele>
        <time>2026-06-16T09:18:10.000Z</time>
        <extensions>
          <ns3:TrackPointExtension>
            <ns3:atemp>23.0</ns3:atemp>
          </ns3:TrackPointExtension>
        </extensions>
      </trkpt>
      <trkpt lat="42.6194032095372676849365234375" lon="19.88345942460000514984130859375">
        <ele>1941.199951171875</ele>
        <time>2026-06-16T09:18:11.000Z</time>
        <extensions>
          <ns3:TrackPointExtension>
            <ns3:atemp>23.0</ns3:atemp>
          </ns3:TrackPointExtension>
        </extensions>
      </trkpt>
      <trkpt lat="42.6194032095372676849365234375" lon="19.88345942460000514984130859375">
        <ele>1941.199951171875</ele>
        <time>2026-06-16T09:18:12.000Z</time>
        <extensions>
          <ns3:TrackPointExtension>
            <ns3:atemp>23.0</ns3:atemp>
          </ns3:TrackPointExtension>
        </extensions>
      </trkpt>
      <trkpt lat="42.6194032095372676849365234375" lon="19.88345942460000514984130859375">
        <ele>1941.199951171875</ele>
        <time>2026-06-16T09:18:13.000Z</time>
        <extensions>
          <ns3:TrackPointExtension>
            <ns3:atemp>23.0</ns3:atemp>
          </ns3:TrackPointExtension>
        </extensions>
      </trkpt>
      <trkpt lat="42.6194032095372676849365234375" lon="19.88345942460000514984130859375">
        <ele>1941.199951171875</ele>
        <time>2026-06-16T09:18:14.000Z</time>
        <extensions>
          <ns3:TrackPointExtension>
            <ns3:atemp>23.0</ns3:atemp>
          </ns3:TrackPointExtension>
        </extensions>
      </trkpt>
      <trkpt lat="42.6194032095372676849365234375" lon="19.88345942460000514984130859375">
        <ele>1941.199951171875</ele>
        <time>2026-06-16T09:18:15.000Z</time>
        <extensions>
          <ns3:TrackPointExtension>
            <ns3:atemp>23.0</ns3:atemp>
          </ns3:TrackPointExtension>
        </extensions>
      </trkpt>
      <trkpt lat="42.6194032095372676849365234375" lon="19.88345942460000514984130859375">
        <ele>1941.199951171875</ele>
        <time>2026-06-16T09:18:16.000Z</time>
        <extensions>
          <ns3:TrackPointExtension>
            <ns3:atemp>23.0</ns3:atemp>
          </ns3:TrackPointExtension>
        </extensions>
      </trkpt>
      <trkpt lat="42.6194032095372676849365234375" lon="19.88345942460000514984130859375">
        <ele>1941.199951171875</ele>
        <time>2026-06-16T09:18:17.000Z</time>
        <extensions>
          <ns3:TrackPointExtension>
            <ns3:atemp>23.0</ns3:atemp>
          </ns3:TrackPointExtension>
        </extensions>
      </trkpt>
      <trkpt lat="42.6194032095372676849365234375" lon="19.88345942460000514984130859375">
        <ele>1941.199951171875</ele>
        <time>2026-06-16T09:18:18.000Z</time>
        <extensions>
          <ns3:TrackPointExtension>
            <ns3:atemp>23.0</ns3:atemp>
          </ns3:TrackPointExtension>
        </extensions>
      </trkpt>
      <trkpt lat="42.6194032095372676849365234375" lon="19.88345942460000514984130859375">
        <ele>1941.199951171875</ele>
        <time>2026-06-16T09:18:19.000Z</time>
        <extensions>
          <ns3:TrackPointExtension>
            <ns3:atemp>23.0</ns3:atemp>
          </ns3:TrackPointExtension>
        </extensions>
      </trkpt>
      <trkpt lat="42.6194032095372676849365234375" lon="19.88345942460000514984130859375">
        <ele>1941.199951171875</ele>
        <time>2026-06-16T09:18:20.000Z</time>
        <extensions>
          <ns3:TrackPointExtension>
            <ns3:atemp>23.0</ns3:atemp>
          </ns3:TrackPointExtension>
        </extensions>
      </trkpt>
      <trkpt lat="42.6194032095372676849365234375" lon="19.88345942460000514984130859375">
        <ele>1941.199951171875</ele>
        <time>2026-06-16T09:18:21.000Z</time>
        <extensions>
          <ns3:TrackPointExtension>
            <ns3:atemp>23.0</ns3:atemp>
          </ns3:TrackPointExtension>
        </extensions>
      </trkpt>
      <trkpt lat="42.6194032095372676849365234375" lon="19.88345942460000514984130859375">
        <ele>1941.199951171875</ele>
        <time>2026-06-16T09:18:22.000Z</time>
        <extensions>
          <ns3:TrackPointExtension>
            <ns3:atemp>23.0</ns3:atemp>
          </ns3:TrackPointExtension>
        </extensions>
      </trkpt>
      <trkpt lat="42.6194032095372676849365234375" lon="19.88345942460000514984130859375">
        <ele>1941.199951171875</ele>
        <time>2026-06-16T09:18:23.000Z</time>
        <extensions>
          <ns3:TrackPointExtension>
            <ns3:atemp>23.0</ns3:atemp>
          </ns3:TrackPointExtension>
        </extensions>
      </trkpt>
      <trkpt lat="42.6194032095372676849365234375" lon="19.88345942460000514984130859375">
        <ele>1941.199951171875</ele>
        <time>2026-06-16T09:18:24.000Z</time>
        <extensions>
          <ns3:TrackPointExtension>
            <ns3:atemp>23.0</ns3:atemp>
          </ns3:TrackPointExtension>
        </extensions>
      </trkpt>
      <trkpt lat="42.6194032095372676849365234375" lon="19.88345942460000514984130859375">
        <ele>1941.199951171875</ele>
        <time>2026-06-16T09:18:25.000Z</time>
        <extensions>
          <ns3:TrackPointExtension>
            <ns3:atemp>23.0</ns3:atemp>
          </ns3:TrackPointExtension>
        </extensions>
      </trkpt>
      <trkpt lat="42.6194032095372676849365234375" lon="19.88345942460000514984130859375">
        <ele>1941.199951171875</ele>
        <time>2026-06-16T09:18:26.000Z</time>
        <extensions>
          <ns3:TrackPointExtension>
            <ns3:atemp>23.0</ns3:atemp>
          </ns3:TrackPointExtension>
        </extensions>
      </trkpt>
      <trkpt lat="42.6194032095372676849365234375" lon="19.88345942460000514984130859375">
        <ele>1941.199951171875</ele>
        <time>2026-06-16T09:18:27.000Z</time>
        <extensions>
          <ns3:TrackPointExtension>
            <ns3:atemp>23.0</ns3:atemp>
          </ns3:TrackPointExtension>
        </extensions>
      </trkpt>
      <trkpt lat="42.6194032095372676849365234375" lon="19.88345942460000514984130859375">
        <ele>1941.199951171875</ele>
        <time>2026-06-16T09:18:28.000Z</time>
        <extensions>
          <ns3:TrackPointExtension>
            <ns3:atemp>23.0</ns3:atemp>
          </ns3:TrackPointExtension>
        </extensions>
      </trkpt>
      <trkpt lat="42.6194032095372676849365234375" lon="19.88345942460000514984130859375">
        <ele>1941.199951171875</ele>
        <time>2026-06-16T09:18:29.000Z</time>
        <extensions>
          <ns3:TrackPointExtension>
            <ns3:atemp>23.0</ns3:atemp>
          </ns3:TrackPointExtension>
        </extensions>
      </trkpt>
      <trkpt lat="42.6194032095372676849365234375" lon="19.88345942460000514984130859375">
        <ele>1941.199951171875</ele>
        <time>2026-06-16T09:18:30.000Z</time>
        <extensions>
          <ns3:TrackPointExtension>
            <ns3:atemp>23.0</ns3:atemp>
          </ns3:TrackPointExtension>
        </extensions>
      </trkpt>
      <trkpt lat="42.6194032095372676849365234375" lon="19.88345942460000514984130859375">
        <ele>1941.199951171875</ele>
        <time>2026-06-16T09:18:31.000Z</time>
        <extensions>
          <ns3:TrackPointExtension>
            <ns3:atemp>23.0</ns3:atemp>
          </ns3:TrackPointExtension>
        </extensions>
      </trkpt>
      <trkpt lat="42.6194032095372676849365234375" lon="19.88345942460000514984130859375">
        <ele>1941.199951171875</ele>
        <time>2026-06-16T09:18:32.000Z</time>
        <extensions>
          <ns3:TrackPointExtension>
            <ns3:atemp>23.0</ns3:atemp>
          </ns3:TrackPointExtension>
        </extensions>
      </trkpt>
      <trkpt lat="42.6194032095372676849365234375" lon="19.88345942460000514984130859375">
        <ele>1941.199951171875</ele>
        <time>2026-06-16T09:18:33.000Z</time>
        <extensions>
          <ns3:TrackPointExtension>
            <ns3:atemp>23.0</ns3:atemp>
          </ns3:TrackPointExtension>
        </extensions>
      </trkpt>
      <trkpt lat="42.6194032095372676849365234375" lon="19.88345942460000514984130859375">
        <ele>1941.199951171875</ele>
        <time>2026-06-16T09:18:34.000Z</time>
        <extensions>
          <ns3:TrackPointExtension>
            <ns3:atemp>23.0</ns3:atemp>
          </ns3:TrackPointExtension>
        </extensions>
      </trkpt>
      <trkpt lat="42.6194032095372676849365234375" lon="19.88345942460000514984130859375">
        <ele>1941.199951171875</ele>
        <time>2026-06-16T09:18:35.000Z</time>
        <extensions>
          <ns3:TrackPointExtension>
            <ns3:atemp>23.0</ns3:atemp>
          </ns3:TrackPointExtension>
        </extensions>
      </trkpt>
      <trkpt lat="42.6194032095372676849365234375" lon="19.88345942460000514984130859375">
        <ele>1941.199951171875</ele>
        <time>2026-06-16T09:18:36.000Z</time>
        <extensions>
          <ns3:TrackPointExtension>
            <ns3:atemp>23.0</ns3:atemp>
          </ns3:TrackPointExtension>
        </extensions>
      </trkpt>
      <trkpt lat="42.6194032095372676849365234375" lon="19.88345942460000514984130859375">
        <ele>1941.199951171875</ele>
        <time>2026-06-16T09:18:37.000Z</time>
        <extensions>
          <ns3:TrackPointExtension>
            <ns3:atemp>23.0</ns3:atemp>
          </ns3:TrackPointExtension>
        </extensions>
      </trkpt>
      <trkpt lat="42.6194032095372676849365234375" lon="19.88345942460000514984130859375">
        <ele>1941.199951171875</ele>
        <time>2026-06-16T09:18:38.000Z</time>
        <extensions>
          <ns3:TrackPointExtension>
            <ns3:atemp>23.0</ns3:atemp>
          </ns3:TrackPointExtension>
        </extensions>
      </trkpt>
      <trkpt lat="42.6194032095372676849365234375" lon="19.88345942460000514984130859375">
        <ele>1941.199951171875</ele>
        <time>2026-06-16T09:18:39.000Z</time>
        <extensions>
          <ns3:TrackPointExtension>
            <ns3:atemp>23.0</ns3:atemp>
          </ns3:TrackPointExtension>
        </extensions>
      </trkpt>
      <trkpt lat="42.6194032095372676849365234375" lon="19.88345942460000514984130859375">
        <ele>1941.199951171875</ele>
        <time>2026-06-16T09:18:40.000Z</time>
        <extensions>
          <ns3:TrackPointExtension>
            <ns3:atemp>23.0</ns3:atemp>
          </ns3:TrackPointExtension>
        </extensions>
      </trkpt>
      <trkpt lat="42.6194032095372676849365234375" lon="19.88345942460000514984130859375">
        <ele>1941.199951171875</ele>
        <time>2026-06-16T09:18:41.000Z</time>
        <extensions>
          <ns3:TrackPointExtension>
            <ns3:atemp>23.0</ns3:atemp>
          </ns3:TrackPointExtension>
        </extensions>
      </trkpt>
      <trkpt lat="42.6194032095372676849365234375" lon="19.88345942460000514984130859375">
        <ele>1941.199951171875</ele>
        <time>2026-06-16T09:18:42.000Z</time>
        <extensions>
          <ns3:TrackPointExtension>
            <ns3:atemp>23.0</ns3:atemp>
          </ns3:TrackPointExtension>
        </extensions>
      </trkpt>
      <trkpt lat="42.6194032095372676849365234375" lon="19.88345942460000514984130859375">
        <ele>1941.199951171875</ele>
        <time>2026-06-16T09:18:43.000Z</time>
        <extensions>
          <ns3:TrackPointExtension>
            <ns3:atemp>23.0</ns3:atemp>
          </ns3:TrackPointExtension>
        </extensions>
      </trkpt>
      <trkpt lat="42.6194032095372676849365234375" lon="19.88345942460000514984130859375">
        <ele>1941.199951171875</ele>
        <time>2026-06-16T09:18:44.000Z</time>
        <extensions>
          <ns3:TrackPointExtension>
            <ns3:atemp>23.0</ns3:atemp>
          </ns3:TrackPointExtension>
        </extensions>
      </trkpt>
      <trkpt lat="42.6194032095372676849365234375" lon="19.88345942460000514984130859375">
        <ele>1941.199951171875</ele>
        <time>2026-06-16T09:18:45.000Z</time>
        <extensions>
          <ns3:TrackPointExtension>
            <ns3:atemp>23.0</ns3:atemp>
          </ns3:TrackPointExtension>
        </extensions>
      </trkpt>
      <trkpt lat="42.6194032095372676849365234375" lon="19.88345942460000514984130859375">
        <ele>1941.199951171875</ele>
        <time>2026-06-16T09:18:46.000Z</time>
        <extensions>
          <ns3:TrackPointExtension>
            <ns3:atemp>23.0</ns3:atemp>
          </ns3:TrackPointExtension>
        </extensions>
      </trkpt>
      <trkpt lat="42.6194032095372676849365234375" lon="19.88345942460000514984130859375">
        <ele>1941.199951171875</ele>
        <time>2026-06-16T09:18:47.000Z</time>
        <extensions>
          <ns3:TrackPointExtension>
            <ns3:atemp>23.0</ns3:atemp>
          </ns3:TrackPointExtension>
        </extensions>
      </trkpt>
      <trkpt lat="42.6194032095372676849365234375" lon="19.88345942460000514984130859375">
        <ele>1941.199951171875</ele>
        <time>2026-06-16T09:18:48.000Z</time>
        <extensions>
          <ns3:TrackPointExtension>
            <ns3:atemp>23.0</ns3:atemp>
          </ns3:TrackPointExtension>
        </extensions>
      </trkpt>
      <trkpt lat="42.6194032095372676849365234375" lon="19.88345942460000514984130859375">
        <ele>1941.199951171875</ele>
        <time>2026-06-16T09:18:49.000Z</time>
        <extensions>
          <ns3:TrackPointExtension>
            <ns3:atemp>23.0</ns3:atemp>
          </ns3:TrackPointExtension>
        </extensions>
      </trkpt>
      <trkpt lat="42.6194032095372676849365234375" lon="19.88345942460000514984130859375">
        <ele>1941.199951171875</ele>
        <time>2026-06-16T09:18:50.000Z</time>
        <extensions>
          <ns3:TrackPointExtension>
            <ns3:atemp>23.0</ns3:atemp>
          </ns3:TrackPointExtension>
        </extensions>
      </trkpt>
      <trkpt lat="42.6194032095372676849365234375" lon="19.88345942460000514984130859375">
        <ele>1941.199951171875</ele>
        <time>2026-06-16T09:18:51.000Z</time>
        <extensions>
          <ns3:TrackPointExtension>
            <ns3:atemp>23.0</ns3:atemp>
          </ns3:TrackPointExtension>
        </extensions>
      </trkpt>
      <trkpt lat="42.6194032095372676849365234375" lon="19.88345942460000514984130859375">
        <ele>1941.199951171875</ele>
        <time>2026-06-16T09:18:52.000Z</time>
        <extensions>
          <ns3:TrackPointExtension>
            <ns3:atemp>23.0</ns3:atemp>
          </ns3:TrackPointExtension>
        </extensions>
      </trkpt>
      <trkpt lat="42.6194032095372676849365234375" lon="19.88345942460000514984130859375">
        <ele>1941.199951171875</ele>
        <time>2026-06-16T09:18:53.000Z</time>
        <extensions>
          <ns3:TrackPointExtension>
            <ns3:atemp>23.0</ns3:atemp>
          </ns3:TrackPointExtension>
        </extensions>
      </trkpt>
      <trkpt lat="42.6194032095372676849365234375" lon="19.88345942460000514984130859375">
        <ele>1941.199951171875</ele>
        <time>2026-06-16T09:18:54.000Z</time>
        <extensions>
          <ns3:TrackPointExtension>
            <ns3:atemp>23.0</ns3:atemp>
          </ns3:TrackPointExtension>
        </extensions>
      </trkpt>
      <trkpt lat="42.6194032095372676849365234375" lon="19.88345942460000514984130859375">
        <ele>1941.199951171875</ele>
        <time>2026-06-16T09:18:55.000Z</time>
        <extensions>
          <ns3:TrackPointExtension>
            <ns3:atemp>23.0</ns3:atemp>
          </ns3:TrackPointExtension>
        </extensions>
      </trkpt>
      <trkpt lat="42.6194032095372676849365234375" lon="19.88345942460000514984130859375">
        <ele>1941.199951171875</ele>
        <time>2026-06-16T09:18:56.000Z</time>
        <extensions>
          <ns3:TrackPointExtension>
            <ns3:atemp>23.0</ns3:atemp>
          </ns3:TrackPointExtension>
        </extensions>
      </trkpt>
      <trkpt lat="42.6194032095372676849365234375" lon="19.88345942460000514984130859375">
        <ele>1941.199951171875</ele>
        <time>2026-06-16T09:18:57.000Z</time>
        <extensions>
          <ns3:TrackPointExtension>
            <ns3:atemp>23.0</ns3:atemp>
          </ns3:TrackPointExtension>
        </extensions>
      </trkpt>
      <trkpt lat="42.6194032095372676849365234375" lon="19.88345942460000514984130859375">
        <ele>1941.199951171875</ele>
        <time>2026-06-16T09:18:58.000Z</time>
        <extensions>
          <ns3:TrackPointExtension>
            <ns3:atemp>23.0</ns3:atemp>
          </ns3:TrackPointExtension>
        </extensions>
      </trkpt>
      <trkpt lat="42.6194032095372676849365234375" lon="19.88345942460000514984130859375">
        <ele>1941.199951171875</ele>
        <time>2026-06-16T09:18:59.000Z</time>
        <extensions>
          <ns3:TrackPointExtension>
            <ns3:atemp>23.0</ns3:atemp>
          </ns3:TrackPointExtension>
        </extensions>
      </trkpt>
      <trkpt lat="42.6194032095372676849365234375" lon="19.88345942460000514984130859375">
        <ele>1941.199951171875</ele>
        <time>2026-06-16T09:19:00.000Z</time>
        <extensions>
          <ns3:TrackPointExtension>
            <ns3:atemp>23.0</ns3:atemp>
          </ns3:TrackPointExtension>
        </extensions>
      </trkpt>
      <trkpt lat="42.6194032095372676849365234375" lon="19.88345942460000514984130859375">
        <ele>1941.199951171875</ele>
        <time>2026-06-16T09:19:01.000Z</time>
        <extensions>
          <ns3:TrackPointExtension>
            <ns3:atemp>23.0</ns3:atemp>
          </ns3:TrackPointExtension>
        </extensions>
      </trkpt>
      <trkpt lat="42.6194032095372676849365234375" lon="19.88345942460000514984130859375">
        <ele>1941.199951171875</ele>
        <time>2026-06-16T09:19:02.000Z</time>
        <extensions>
          <ns3:TrackPointExtension>
            <ns3:atemp>23.0</ns3:atemp>
          </ns3:TrackPointExtension>
        </extensions>
      </trkpt>
      <trkpt lat="42.6194032095372676849365234375" lon="19.88345942460000514984130859375">
        <ele>1941.199951171875</ele>
        <time>2026-06-16T09:19:03.000Z</time>
        <extensions>
          <ns3:TrackPointExtension>
            <ns3:atemp>23.0</ns3:atemp>
          </ns3:TrackPointExtension>
        </extensions>
      </trkpt>
      <trkpt lat="42.6194032095372676849365234375" lon="19.88345942460000514984130859375">
        <ele>1941.199951171875</ele>
        <time>2026-06-16T09:19:04.000Z</time>
        <extensions>
          <ns3:TrackPointExtension>
            <ns3:atemp>23.0</ns3:atemp>
          </ns3:TrackPointExtension>
        </extensions>
      </trkpt>
      <trkpt lat="42.6194032095372676849365234375" lon="19.88345942460000514984130859375">
        <ele>1941.199951171875</ele>
        <time>2026-06-16T09:19:05.000Z</time>
        <extensions>
          <ns3:TrackPointExtension>
            <ns3:atemp>23.0</ns3:atemp>
          </ns3:TrackPointExtension>
        </extensions>
      </trkpt>
      <trkpt lat="42.6194032095372676849365234375" lon="19.88345942460000514984130859375">
        <ele>1941.199951171875</ele>
        <time>2026-06-16T09:19:06.000Z</time>
        <extensions>
          <ns3:TrackPointExtension>
            <ns3:atemp>23.0</ns3:atemp>
          </ns3:TrackPointExtension>
        </extensions>
      </trkpt>
      <trkpt lat="42.6194032095372676849365234375" lon="19.88345942460000514984130859375">
        <ele>1941.199951171875</ele>
        <time>2026-06-16T09:19:07.000Z</time>
        <extensions>
          <ns3:TrackPointExtension>
            <ns3:atemp>23.0</ns3:atemp>
          </ns3:TrackPointExtension>
        </extensions>
      </trkpt>
      <trkpt lat="42.6194032095372676849365234375" lon="19.88345942460000514984130859375">
        <ele>1941.199951171875</ele>
        <time>2026-06-16T09:19:08.000Z</time>
        <extensions>
          <ns3:TrackPointExtension>
            <ns3:atemp>23.0</ns3:atemp>
          </ns3:TrackPointExtension>
        </extensions>
      </trkpt>
      <trkpt lat="42.6194032095372676849365234375" lon="19.88345942460000514984130859375">
        <ele>1941.199951171875</ele>
        <time>2026-06-16T09:19:09.000Z</time>
        <extensions>
          <ns3:TrackPointExtension>
            <ns3:atemp>23.0</ns3:atemp>
          </ns3:TrackPointExtension>
        </extensions>
      </trkpt>
      <trkpt lat="42.6194032095372676849365234375" lon="19.88345942460000514984130859375">
        <ele>1941.199951171875</ele>
        <time>2026-06-16T09:19:10.000Z</time>
        <extensions>
          <ns3:TrackPointExtension>
            <ns3:atemp>23.0</ns3:atemp>
          </ns3:TrackPointExtension>
        </extensions>
      </trkpt>
      <trkpt lat="42.6194032095372676849365234375" lon="19.88345942460000514984130859375">
        <ele>1941.199951171875</ele>
        <time>2026-06-16T09:19:11.000Z</time>
        <extensions>
          <ns3:TrackPointExtension>
            <ns3:atemp>23.0</ns3:atemp>
          </ns3:TrackPointExtension>
        </extensions>
      </trkpt>
      <trkpt lat="42.6194032095372676849365234375" lon="19.88345942460000514984130859375">
        <ele>1941.199951171875</ele>
        <time>2026-06-16T09:19:12.000Z</time>
        <extensions>
          <ns3:TrackPointExtension>
            <ns3:atemp>23.0</ns3:atemp>
          </ns3:TrackPointExtension>
        </extensions>
      </trkpt>
      <trkpt lat="42.6194032095372676849365234375" lon="19.88345942460000514984130859375">
        <ele>1941.199951171875</ele>
        <time>2026-06-16T09:19:13.000Z</time>
        <extensions>
          <ns3:TrackPointExtension>
            <ns3:atemp>23.0</ns3:atemp>
          </ns3:TrackPointExtension>
        </extensions>
      </trkpt>
      <trkpt lat="42.6194032095372676849365234375" lon="19.88345942460000514984130859375">
        <ele>1941.199951171875</ele>
        <time>2026-06-16T09:19:14.000Z</time>
        <extensions>
          <ns3:TrackPointExtension>
            <ns3:atemp>23.0</ns3:atemp>
          </ns3:TrackPointExtension>
        </extensions>
      </trkpt>
      <trkpt lat="42.6194032095372676849365234375" lon="19.88345942460000514984130859375">
        <ele>1941.199951171875</ele>
        <time>2026-06-16T09:19:15.000Z</time>
        <extensions>
          <ns3:TrackPointExtension>
            <ns3:atemp>23.0</ns3:atemp>
          </ns3:TrackPointExtension>
        </extensions>
      </trkpt>
      <trkpt lat="42.6194032095372676849365234375" lon="19.88345942460000514984130859375">
        <ele>1941.199951171875</ele>
        <time>2026-06-16T09:19:16.000Z</time>
        <extensions>
          <ns3:TrackPointExtension>
            <ns3:atemp>23.0</ns3:atemp>
          </ns3:TrackPointExtension>
        </extensions>
      </trkpt>
      <trkpt lat="42.6194032095372676849365234375" lon="19.88345942460000514984130859375">
        <ele>1941.199951171875</ele>
        <time>2026-06-16T09:19:17.000Z</time>
        <extensions>
          <ns3:TrackPointExtension>
            <ns3:atemp>23.0</ns3:atemp>
          </ns3:TrackPointExtension>
        </extensions>
      </trkpt>
      <trkpt lat="42.6194032095372676849365234375" lon="19.88345942460000514984130859375">
        <ele>1941.199951171875</ele>
        <time>2026-06-16T09:19:18.000Z</time>
        <extensions>
          <ns3:TrackPointExtension>
            <ns3:atemp>23.0</ns3:atemp>
          </ns3:TrackPointExtension>
        </extensions>
      </trkpt>
      <trkpt lat="42.6194032095372676849365234375" lon="19.88345942460000514984130859375">
        <ele>1941.199951171875</ele>
        <time>2026-06-16T09:19:19.000Z</time>
        <extensions>
          <ns3:TrackPointExtension>
            <ns3:atemp>23.0</ns3:atemp>
          </ns3:TrackPointExtension>
        </extensions>
      </trkpt>
      <trkpt lat="42.6194032095372676849365234375" lon="19.88345942460000514984130859375">
        <ele>1941.199951171875</ele>
        <time>2026-06-16T09:19:20.000Z</time>
        <extensions>
          <ns3:TrackPointExtension>
            <ns3:atemp>23.0</ns3:atemp>
          </ns3:TrackPointExtension>
        </extensions>
      </trkpt>
      <trkpt lat="42.6194032095372676849365234375" lon="19.88345942460000514984130859375">
        <ele>1941.199951171875</ele>
        <time>2026-06-16T09:19:21.000Z</time>
        <extensions>
          <ns3:TrackPointExtension>
            <ns3:atemp>23.0</ns3:atemp>
          </ns3:TrackPointExtension>
        </extensions>
      </trkpt>
      <trkpt lat="42.6194032095372676849365234375" lon="19.88345942460000514984130859375">
        <ele>1941.199951171875</ele>
        <time>2026-06-16T09:19:22.000Z</time>
        <extensions>
          <ns3:TrackPointExtension>
            <ns3:atemp>23.0</ns3:atemp>
          </ns3:TrackPointExtension>
        </extensions>
      </trkpt>
      <trkpt lat="42.6194032095372676849365234375" lon="19.88345942460000514984130859375">
        <ele>1941.199951171875</ele>
        <time>2026-06-16T09:19:23.000Z</time>
        <extensions>
          <ns3:TrackPointExtension>
            <ns3:atemp>23.0</ns3:atemp>
          </ns3:TrackPointExtension>
        </extensions>
      </trkpt>
      <trkpt lat="42.6194032095372676849365234375" lon="19.88345942460000514984130859375">
        <ele>1941.199951171875</ele>
        <time>2026-06-16T09:19:24.000Z</time>
        <extensions>
          <ns3:TrackPointExtension>
            <ns3:atemp>23.0</ns3:atemp>
          </ns3:TrackPointExtension>
        </extensions>
      </trkpt>
      <trkpt lat="42.6194032095372676849365234375" lon="19.88345942460000514984130859375">
        <ele>1941.199951171875</ele>
        <time>2026-06-16T09:19:25.000Z</time>
        <extensions>
          <ns3:TrackPointExtension>
            <ns3:atemp>23.0</ns3:atemp>
          </ns3:TrackPointExtension>
        </extensions>
      </trkpt>
      <trkpt lat="42.6194032095372676849365234375" lon="19.88345942460000514984130859375">
        <ele>1941.199951171875</ele>
        <time>2026-06-16T09:19:26.000Z</time>
        <extensions>
          <ns3:TrackPointExtension>
            <ns3:atemp>23.0</ns3:atemp>
          </ns3:TrackPointExtension>
        </extensions>
      </trkpt>
      <trkpt lat="42.6194032095372676849365234375" lon="19.88345942460000514984130859375">
        <ele>1941.199951171875</ele>
        <time>2026-06-16T09:19:27.000Z</time>
        <extensions>
          <ns3:TrackPointExtension>
            <ns3:atemp>23.0</ns3:atemp>
          </ns3:TrackPointExtension>
        </extensions>
      </trkpt>
      <trkpt lat="42.6194032095372676849365234375" lon="19.88345942460000514984130859375">
        <ele>1941.199951171875</ele>
        <time>2026-06-16T09:19:28.000Z</time>
        <extensions>
          <ns3:TrackPointExtension>
            <ns3:atemp>23.0</ns3:atemp>
          </ns3:TrackPointExtension>
        </extensions>
      </trkpt>
      <trkpt lat="42.6194032095372676849365234375" lon="19.88345942460000514984130859375">
        <ele>1941.199951171875</ele>
        <time>2026-06-16T09:19:29.000Z</time>
        <extensions>
          <ns3:TrackPointExtension>
            <ns3:atemp>24.0</ns3:atemp>
          </ns3:TrackPointExtension>
        </extensions>
      </trkpt>
      <trkpt lat="42.6194032095372676849365234375" lon="19.88345942460000514984130859375">
        <ele>1941.199951171875</ele>
        <time>2026-06-16T09:19:30.000Z</time>
        <extensions>
          <ns3:TrackPointExtension>
            <ns3:atemp>24.0</ns3:atemp>
          </ns3:TrackPointExtension>
        </extensions>
      </trkpt>
      <trkpt lat="42.6194032095372676849365234375" lon="19.88345942460000514984130859375">
        <ele>1941.199951171875</ele>
        <time>2026-06-16T09:19:31.000Z</time>
        <extensions>
          <ns3:TrackPointExtension>
            <ns3:atemp>24.0</ns3:atemp>
          </ns3:TrackPointExtension>
        </extensions>
      </trkpt>
      <trkpt lat="42.6194032095372676849365234375" lon="19.88345942460000514984130859375">
        <ele>1941.199951171875</ele>
        <time>2026-06-16T09:19:32.000Z</time>
        <extensions>
          <ns3:TrackPointExtension>
            <ns3:atemp>24.0</ns3:atemp>
          </ns3:TrackPointExtension>
        </extensions>
      </trkpt>
      <trkpt lat="42.6194032095372676849365234375" lon="19.88345942460000514984130859375">
        <ele>1941.199951171875</ele>
        <time>2026-06-16T09:19:33.000Z</time>
        <extensions>
          <ns3:TrackPointExtension>
            <ns3:atemp>24.0</ns3:atemp>
          </ns3:TrackPointExtension>
        </extensions>
      </trkpt>
      <trkpt lat="42.6194032095372676849365234375" lon="19.88345942460000514984130859375">
        <ele>1941.199951171875</ele>
        <time>2026-06-16T09:19:34.000Z</time>
        <extensions>
          <ns3:TrackPointExtension>
            <ns3:atemp>24.0</ns3:atemp>
          </ns3:TrackPointExtension>
        </extensions>
      </trkpt>
      <trkpt lat="42.6194032095372676849365234375" lon="19.88345942460000514984130859375">
        <ele>1941.199951171875</ele>
        <time>2026-06-16T09:19:35.000Z</time>
        <extensions>
          <ns3:TrackPointExtension>
            <ns3:atemp>24.0</ns3:atemp>
          </ns3:TrackPointExtension>
        </extensions>
      </trkpt>
      <trkpt lat="42.6194032095372676849365234375" lon="19.88345942460000514984130859375">
        <ele>1941.199951171875</ele>
        <time>2026-06-16T09:19:36.000Z</time>
        <extensions>
          <ns3:TrackPointExtension>
            <ns3:atemp>24.0</ns3:atemp>
          </ns3:TrackPointExtension>
        </extensions>
      </trkpt>
      <trkpt lat="42.6194032095372676849365234375" lon="19.88345942460000514984130859375">
        <ele>1941.199951171875</ele>
        <time>2026-06-16T09:19:37.000Z</time>
        <extensions>
          <ns3:TrackPointExtension>
            <ns3:atemp>24.0</ns3:atemp>
          </ns3:TrackPointExtension>
        </extensions>
      </trkpt>
      <trkpt lat="42.6194032095372676849365234375" lon="19.88345942460000514984130859375">
        <ele>1941.199951171875</ele>
        <time>2026-06-16T09:19:38.000Z</time>
        <extensions>
          <ns3:TrackPointExtension>
            <ns3:atemp>24.0</ns3:atemp>
          </ns3:TrackPointExtension>
        </extensions>
      </trkpt>
      <trkpt lat="42.6194032095372676849365234375" lon="19.88345942460000514984130859375">
        <ele>1941.199951171875</ele>
        <time>2026-06-16T09:19:39.000Z</time>
        <extensions>
          <ns3:TrackPointExtension>
            <ns3:atemp>24.0</ns3:atemp>
          </ns3:TrackPointExtension>
        </extensions>
      </trkpt>
      <trkpt lat="42.6194032095372676849365234375" lon="19.88345942460000514984130859375">
        <ele>1941.199951171875</ele>
        <time>2026-06-16T09:19:40.000Z</time>
        <extensions>
          <ns3:TrackPointExtension>
            <ns3:atemp>24.0</ns3:atemp>
          </ns3:TrackPointExtension>
        </extensions>
      </trkpt>
      <trkpt lat="42.6194032095372676849365234375" lon="19.88345942460000514984130859375">
        <ele>1941.199951171875</ele>
        <time>2026-06-16T09:19:41.000Z</time>
        <extensions>
          <ns3:TrackPointExtension>
            <ns3:atemp>24.0</ns3:atemp>
          </ns3:TrackPointExtension>
        </extensions>
      </trkpt>
      <trkpt lat="42.6194032095372676849365234375" lon="19.88345942460000514984130859375">
        <ele>1941.199951171875</ele>
        <time>2026-06-16T09:19:42.000Z</time>
        <extensions>
          <ns3:TrackPointExtension>
            <ns3:atemp>24.0</ns3:atemp>
          </ns3:TrackPointExtension>
        </extensions>
      </trkpt>
      <trkpt lat="42.6194032095372676849365234375" lon="19.88345942460000514984130859375">
        <ele>1941.199951171875</ele>
        <time>2026-06-16T09:19:43.000Z</time>
        <extensions>
          <ns3:TrackPointExtension>
            <ns3:atemp>24.0</ns3:atemp>
          </ns3:TrackPointExtension>
        </extensions>
      </trkpt>
      <trkpt lat="42.6194032095372676849365234375" lon="19.88345942460000514984130859375">
        <ele>1941.199951171875</ele>
        <time>2026-06-16T09:19:44.000Z</time>
        <extensions>
          <ns3:TrackPointExtension>
            <ns3:atemp>24.0</ns3:atemp>
          </ns3:TrackPointExtension>
        </extensions>
      </trkpt>
      <trkpt lat="42.6194032095372676849365234375" lon="19.88345942460000514984130859375">
        <ele>1941.199951171875</ele>
        <time>2026-06-16T09:19:45.000Z</time>
        <extensions>
          <ns3:TrackPointExtension>
            <ns3:atemp>24.0</ns3:atemp>
          </ns3:TrackPointExtension>
        </extensions>
      </trkpt>
      <trkpt lat="42.6194032095372676849365234375" lon="19.88345942460000514984130859375">
        <ele>1941.199951171875</ele>
        <time>2026-06-16T09:19:46.000Z</time>
        <extensions>
          <ns3:TrackPointExtension>
            <ns3:atemp>24.0</ns3:atemp>
          </ns3:TrackPointExtension>
        </extensions>
      </trkpt>
      <trkpt lat="42.6194032095372676849365234375" lon="19.88345942460000514984130859375">
        <ele>1941.199951171875</ele>
        <time>2026-06-16T09:19:47.000Z</time>
        <extensions>
          <ns3:TrackPointExtension>
            <ns3:atemp>24.0</ns3:atemp>
          </ns3:TrackPointExtension>
        </extensions>
      </trkpt>
      <trkpt lat="42.6194032095372676849365234375" lon="19.88345942460000514984130859375">
        <ele>1941.199951171875</ele>
        <time>2026-06-16T09:19:48.000Z</time>
        <extensions>
          <ns3:TrackPointExtension>
            <ns3:atemp>24.0</ns3:atemp>
          </ns3:TrackPointExtension>
        </extensions>
      </trkpt>
      <trkpt lat="42.6194032095372676849365234375" lon="19.88345942460000514984130859375">
        <ele>1941.199951171875</ele>
        <time>2026-06-16T09:19:49.000Z</time>
        <extensions>
          <ns3:TrackPointExtension>
            <ns3:atemp>24.0</ns3:atemp>
          </ns3:TrackPointExtension>
        </extensions>
      </trkpt>
      <trkpt lat="42.6194032095372676849365234375" lon="19.88345942460000514984130859375">
        <ele>1941.199951171875</ele>
        <time>2026-06-16T09:19:50.000Z</time>
        <extensions>
          <ns3:TrackPointExtension>
            <ns3:atemp>24.0</ns3:atemp>
          </ns3:TrackPointExtension>
        </extensions>
      </trkpt>
      <trkpt lat="42.6194032095372676849365234375" lon="19.88345942460000514984130859375">
        <ele>1941.199951171875</ele>
        <time>2026-06-16T09:19:51.000Z</time>
        <extensions>
          <ns3:TrackPointExtension>
            <ns3:atemp>24.0</ns3:atemp>
          </ns3:TrackPointExtension>
        </extensions>
      </trkpt>
      <trkpt lat="42.6194032095372676849365234375" lon="19.88345942460000514984130859375">
        <ele>1941.199951171875</ele>
        <time>2026-06-16T09:19:52.000Z</time>
        <extensions>
          <ns3:TrackPointExtension>
            <ns3:atemp>24.0</ns3:atemp>
          </ns3:TrackPointExtension>
        </extensions>
      </trkpt>
      <trkpt lat="42.6194032095372676849365234375" lon="19.88345942460000514984130859375">
        <ele>1941.199951171875</ele>
        <time>2026-06-16T09:19:53.000Z</time>
        <extensions>
          <ns3:TrackPointExtension>
            <ns3:atemp>24.0</ns3:atemp>
          </ns3:TrackPointExtension>
        </extensions>
      </trkpt>
      <trkpt lat="42.6194032095372676849365234375" lon="19.88345942460000514984130859375">
        <ele>1941.199951171875</ele>
        <time>2026-06-16T09:19:54.000Z</time>
        <extensions>
          <ns3:TrackPointExtension>
            <ns3:atemp>24.0</ns3:atemp>
          </ns3:TrackPointExtension>
        </extensions>
      </trkpt>
      <trkpt lat="42.6194032095372676849365234375" lon="19.88345942460000514984130859375">
        <ele>1941.199951171875</ele>
        <time>2026-06-16T09:19:55.000Z</time>
        <extensions>
          <ns3:TrackPointExtension>
            <ns3:atemp>24.0</ns3:atemp>
          </ns3:TrackPointExtension>
        </extensions>
      </trkpt>
      <trkpt lat="42.6194032095372676849365234375" lon="19.88345942460000514984130859375">
        <ele>1941.199951171875</ele>
        <time>2026-06-16T09:19:56.000Z</time>
        <extensions>
          <ns3:TrackPointExtension>
            <ns3:atemp>24.0</ns3:atemp>
          </ns3:TrackPointExtension>
        </extensions>
      </trkpt>
      <trkpt lat="42.6194032095372676849365234375" lon="19.88345942460000514984130859375">
        <ele>1941.199951171875</ele>
        <time>2026-06-16T09:19:57.000Z</time>
        <extensions>
          <ns3:TrackPointExtension>
            <ns3:atemp>24.0</ns3:atemp>
          </ns3:TrackPointExtension>
        </extensions>
      </trkpt>
      <trkpt lat="42.6194032095372676849365234375" lon="19.88345942460000514984130859375">
        <ele>1941.199951171875</ele>
        <time>2026-06-16T09:19:58.000Z</time>
        <extensions>
          <ns3:TrackPointExtension>
            <ns3:atemp>24.0</ns3:atemp>
          </ns3:TrackPointExtension>
        </extensions>
      </trkpt>
      <trkpt lat="42.6194032095372676849365234375" lon="19.88345942460000514984130859375">
        <ele>1941.199951171875</ele>
        <time>2026-06-16T09:19:59.000Z</time>
        <extensions>
          <ns3:TrackPointExtension>
            <ns3:atemp>24.0</ns3:atemp>
          </ns3:TrackPointExtension>
        </extensions>
      </trkpt>
      <trkpt lat="42.6194032095372676849365234375" lon="19.88345942460000514984130859375">
        <ele>1941.199951171875</ele>
        <time>2026-06-16T09:20:00.000Z</time>
        <extensions>
          <ns3:TrackPointExtension>
            <ns3:atemp>24.0</ns3:atemp>
          </ns3:TrackPointExtension>
        </extensions>
      </trkpt>
      <trkpt lat="42.6194032095372676849365234375" lon="19.88345942460000514984130859375">
        <ele>1941.199951171875</ele>
        <time>2026-06-16T09:20:01.000Z</time>
        <extensions>
          <ns3:TrackPointExtension>
            <ns3:atemp>24.0</ns3:atemp>
          </ns3:TrackPointExtension>
        </extensions>
      </trkpt>
      <trkpt lat="42.6194032095372676849365234375" lon="19.88345942460000514984130859375">
        <ele>1941.199951171875</ele>
        <time>2026-06-16T09:20:02.000Z</time>
        <extensions>
          <ns3:TrackPointExtension>
            <ns3:atemp>24.0</ns3:atemp>
          </ns3:TrackPointExtension>
        </extensions>
      </trkpt>
      <trkpt lat="42.6194032095372676849365234375" lon="19.88345942460000514984130859375">
        <ele>1941.199951171875</ele>
        <time>2026-06-16T09:20:03.000Z</time>
        <extensions>
          <ns3:TrackPointExtension>
            <ns3:atemp>24.0</ns3:atemp>
          </ns3:TrackPointExtension>
        </extensions>
      </trkpt>
      <trkpt lat="42.6194032095372676849365234375" lon="19.88345942460000514984130859375">
        <ele>1941.199951171875</ele>
        <time>2026-06-16T09:20:04.000Z</time>
        <extensions>
          <ns3:TrackPointExtension>
            <ns3:atemp>24.0</ns3:atemp>
          </ns3:TrackPointExtension>
        </extensions>
      </trkpt>
      <trkpt lat="42.6194032095372676849365234375" lon="19.88345942460000514984130859375">
        <ele>1941.199951171875</ele>
        <time>2026-06-16T09:20:05.000Z</time>
        <extensions>
          <ns3:TrackPointExtension>
            <ns3:atemp>24.0</ns3:atemp>
          </ns3:TrackPointExtension>
        </extensions>
      </trkpt>
      <trkpt lat="42.6194032095372676849365234375" lon="19.88345942460000514984130859375">
        <ele>1941.199951171875</ele>
        <time>2026-06-16T09:20:06.000Z</time>
        <extensions>
          <ns3:TrackPointExtension>
            <ns3:atemp>24.0</ns3:atemp>
          </ns3:TrackPointExtension>
        </extensions>
      </trkpt>
      <trkpt lat="42.6194032095372676849365234375" lon="19.88345942460000514984130859375">
        <ele>1941.199951171875</ele>
        <time>2026-06-16T09:20:07.000Z</time>
        <extensions>
          <ns3:TrackPointExtension>
            <ns3:atemp>24.0</ns3:atemp>
          </ns3:TrackPointExtension>
        </extensions>
      </trkpt>
      <trkpt lat="42.6194032095372676849365234375" lon="19.88345942460000514984130859375">
        <ele>1941.199951171875</ele>
        <time>2026-06-16T09:20:08.000Z</time>
        <extensions>
          <ns3:TrackPointExtension>
            <ns3:atemp>24.0</ns3:atemp>
          </ns3:TrackPointExtension>
        </extensions>
      </trkpt>
      <trkpt lat="42.6194032095372676849365234375" lon="19.88345942460000514984130859375">
        <ele>1941.199951171875</ele>
        <time>2026-06-16T09:20:09.000Z</time>
        <extensions>
          <ns3:TrackPointExtension>
            <ns3:atemp>24.0</ns3:atemp>
          </ns3:TrackPointExtension>
        </extensions>
      </trkpt>
      <trkpt lat="42.6194032095372676849365234375" lon="19.88345942460000514984130859375">
        <ele>1941.199951171875</ele>
        <time>2026-06-16T09:20:10.000Z</time>
        <extensions>
          <ns3:TrackPointExtension>
            <ns3:atemp>24.0</ns3:atemp>
          </ns3:TrackPointExtension>
        </extensions>
      </trkpt>
      <trkpt lat="42.6194032095372676849365234375" lon="19.88345942460000514984130859375">
        <ele>1941.199951171875</ele>
        <time>2026-06-16T09:20:11.000Z</time>
        <extensions>
          <ns3:TrackPointExtension>
            <ns3:atemp>24.0</ns3:atemp>
          </ns3:TrackPointExtension>
        </extensions>
      </trkpt>
      <trkpt lat="42.6194032095372676849365234375" lon="19.88345942460000514984130859375">
        <ele>1941.199951171875</ele>
        <time>2026-06-16T09:20:12.000Z</time>
        <extensions>
          <ns3:TrackPointExtension>
            <ns3:atemp>24.0</ns3:atemp>
          </ns3:TrackPointExtension>
        </extensions>
      </trkpt>
      <trkpt lat="42.6194032095372676849365234375" lon="19.88345942460000514984130859375">
        <ele>1941.199951171875</ele>
        <time>2026-06-16T09:20:13.000Z</time>
        <extensions>
          <ns3:TrackPointExtension>
            <ns3:atemp>24.0</ns3:atemp>
          </ns3:TrackPointExtension>
        </extensions>
      </trkpt>
      <trkpt lat="42.6194032095372676849365234375" lon="19.88345942460000514984130859375">
        <ele>1941.199951171875</ele>
        <time>2026-06-16T09:20:14.000Z</time>
        <extensions>
          <ns3:TrackPointExtension>
            <ns3:atemp>24.0</ns3:atemp>
          </ns3:TrackPointExtension>
        </extensions>
      </trkpt>
      <trkpt lat="42.6194032095372676849365234375" lon="19.88345942460000514984130859375">
        <ele>1941.199951171875</ele>
        <time>2026-06-16T09:20:15.000Z</time>
        <extensions>
          <ns3:TrackPointExtension>
            <ns3:atemp>24.0</ns3:atemp>
          </ns3:TrackPointExtension>
        </extensions>
      </trkpt>
      <trkpt lat="42.6194032095372676849365234375" lon="19.88345942460000514984130859375">
        <ele>1941.199951171875</ele>
        <time>2026-06-16T09:20:16.000Z</time>
        <extensions>
          <ns3:TrackPointExtension>
            <ns3:atemp>24.0</ns3:atemp>
          </ns3:TrackPointExtension>
        </extensions>
      </trkpt>
      <trkpt lat="42.6194032095372676849365234375" lon="19.88345942460000514984130859375">
        <ele>1941.199951171875</ele>
        <time>2026-06-16T09:20:17.000Z</time>
        <extensions>
          <ns3:TrackPointExtension>
            <ns3:atemp>24.0</ns3:atemp>
          </ns3:TrackPointExtension>
        </extensions>
      </trkpt>
      <trkpt lat="42.6194032095372676849365234375" lon="19.88345942460000514984130859375">
        <ele>1941.199951171875</ele>
        <time>2026-06-16T09:20:18.000Z</time>
        <extensions>
          <ns3:TrackPointExtension>
            <ns3:atemp>24.0</ns3:atemp>
          </ns3:TrackPointExtension>
        </extensions>
      </trkpt>
      <trkpt lat="42.6194032095372676849365234375" lon="19.88345942460000514984130859375">
        <ele>1941.199951171875</ele>
        <time>2026-06-16T09:20:19.000Z</time>
        <extensions>
          <ns3:TrackPointExtension>
            <ns3:atemp>24.0</ns3:atemp>
          </ns3:TrackPointExtension>
        </extensions>
      </trkpt>
      <trkpt lat="42.6194032095372676849365234375" lon="19.88345942460000514984130859375">
        <ele>1941.199951171875</ele>
        <time>2026-06-16T09:20:20.000Z</time>
        <extensions>
          <ns3:TrackPointExtension>
            <ns3:atemp>24.0</ns3:atemp>
          </ns3:TrackPointExtension>
        </extensions>
      </trkpt>
      <trkpt lat="42.6194032095372676849365234375" lon="19.88345942460000514984130859375">
        <ele>1941.199951171875</ele>
        <time>2026-06-16T09:20:21.000Z</time>
        <extensions>
          <ns3:TrackPointExtension>
            <ns3:atemp>24.0</ns3:atemp>
          </ns3:TrackPointExtension>
        </extensions>
      </trkpt>
      <trkpt lat="42.6194032095372676849365234375" lon="19.88345942460000514984130859375">
        <ele>1941.199951171875</ele>
        <time>2026-06-16T09:20:22.000Z</time>
        <extensions>
          <ns3:TrackPointExtension>
            <ns3:atemp>24.0</ns3:atemp>
          </ns3:TrackPointExtension>
        </extensions>
      </trkpt>
      <trkpt lat="42.6194032095372676849365234375" lon="19.88345942460000514984130859375">
        <ele>1941.199951171875</ele>
        <time>2026-06-16T09:20:23.000Z</time>
        <extensions>
          <ns3:TrackPointExtension>
            <ns3:atemp>24.0</ns3:atemp>
          </ns3:TrackPointExtension>
        </extensions>
      </trkpt>
      <trkpt lat="42.6194032095372676849365234375" lon="19.88345942460000514984130859375">
        <ele>1941.199951171875</ele>
        <time>2026-06-16T09:20:24.000Z</time>
        <extensions>
          <ns3:TrackPointExtension>
            <ns3:atemp>24.0</ns3:atemp>
          </ns3:TrackPointExtension>
        </extensions>
      </trkpt>
      <trkpt lat="42.6194032095372676849365234375" lon="19.88345942460000514984130859375">
        <ele>1941.199951171875</ele>
        <time>2026-06-16T09:20:25.000Z</time>
        <extensions>
          <ns3:TrackPointExtension>
            <ns3:atemp>24.0</ns3:atemp>
          </ns3:TrackPointExtension>
        </extensions>
      </trkpt>
      <trkpt lat="42.6194032095372676849365234375" lon="19.88345942460000514984130859375">
        <ele>1941.199951171875</ele>
        <time>2026-06-16T09:20:26.000Z</time>
        <extensions>
          <ns3:TrackPointExtension>
            <ns3:atemp>24.0</ns3:atemp>
          </ns3:TrackPointExtension>
        </extensions>
      </trkpt>
      <trkpt lat="42.6194032095372676849365234375" lon="19.88345942460000514984130859375">
        <ele>1941.199951171875</ele>
        <time>2026-06-16T09:20:27.000Z</time>
        <extensions>
          <ns3:TrackPointExtension>
            <ns3:atemp>24.0</ns3:atemp>
          </ns3:TrackPointExtension>
        </extensions>
      </trkpt>
      <trkpt lat="42.6194032095372676849365234375" lon="19.88345942460000514984130859375">
        <ele>1941.199951171875</ele>
        <time>2026-06-16T09:20:28.000Z</time>
        <extensions>
          <ns3:TrackPointExtension>
            <ns3:atemp>24.0</ns3:atemp>
          </ns3:TrackPointExtension>
        </extensions>
      </trkpt>
      <trkpt lat="42.6194032095372676849365234375" lon="19.88345942460000514984130859375">
        <ele>1941.199951171875</ele>
        <time>2026-06-16T09:20:29.000Z</time>
        <extensions>
          <ns3:TrackPointExtension>
            <ns3:atemp>24.0</ns3:atemp>
          </ns3:TrackPointExtension>
        </extensions>
      </trkpt>
      <trkpt lat="42.6194032095372676849365234375" lon="19.88345942460000514984130859375">
        <ele>1941.199951171875</ele>
        <time>2026-06-16T09:20:30.000Z</time>
        <extensions>
          <ns3:TrackPointExtension>
            <ns3:atemp>24.0</ns3:atemp>
          </ns3:TrackPointExtension>
        </extensions>
      </trkpt>
      <trkpt lat="42.6194032095372676849365234375" lon="19.88345942460000514984130859375">
        <ele>1941.199951171875</ele>
        <time>2026-06-16T09:20:31.000Z</time>
        <extensions>
          <ns3:TrackPointExtension>
            <ns3:atemp>24.0</ns3:atemp>
          </ns3:TrackPointExtension>
        </extensions>
      </trkpt>
      <trkpt lat="42.6194032095372676849365234375" lon="19.88345942460000514984130859375">
        <ele>1941.199951171875</ele>
        <time>2026-06-16T09:20:32.000Z</time>
        <extensions>
          <ns3:TrackPointExtension>
            <ns3:atemp>24.0</ns3:atemp>
          </ns3:TrackPointExtension>
        </extensions>
      </trkpt>
      <trkpt lat="42.6194032095372676849365234375" lon="19.88345942460000514984130859375">
        <ele>1941.199951171875</ele>
        <time>2026-06-16T09:20:33.000Z</time>
        <extensions>
          <ns3:TrackPointExtension>
            <ns3:atemp>24.0</ns3:atemp>
          </ns3:TrackPointExtension>
        </extensions>
      </trkpt>
      <trkpt lat="42.6194032095372676849365234375" lon="19.88345942460000514984130859375">
        <ele>1941.199951171875</ele>
        <time>2026-06-16T09:20:34.000Z</time>
        <extensions>
          <ns3:TrackPointExtension>
            <ns3:atemp>24.0</ns3:atemp>
          </ns3:TrackPointExtension>
        </extensions>
      </trkpt>
      <trkpt lat="42.6194032095372676849365234375" lon="19.88345942460000514984130859375">
        <ele>1941.199951171875</ele>
        <time>2026-06-16T09:20:35.000Z</time>
        <extensions>
          <ns3:TrackPointExtension>
            <ns3:atemp>24.0</ns3:atemp>
          </ns3:TrackPointExtension>
        </extensions>
      </trkpt>
      <trkpt lat="42.6194032095372676849365234375" lon="19.88345942460000514984130859375">
        <ele>1941.199951171875</ele>
        <time>2026-06-16T09:20:36.000Z</time>
        <extensions>
          <ns3:TrackPointExtension>
            <ns3:atemp>24.0</ns3:atemp>
          </ns3:TrackPointExtension>
        </extensions>
      </trkpt>
      <trkpt lat="42.6194032095372676849365234375" lon="19.88345942460000514984130859375">
        <ele>1941.199951171875</ele>
        <time>2026-06-16T09:20:37.000Z</time>
        <extensions>
          <ns3:TrackPointExtension>
            <ns3:atemp>24.0</ns3:atemp>
          </ns3:TrackPointExtension>
        </extensions>
      </trkpt>
      <trkpt lat="42.6194032095372676849365234375" lon="19.88345942460000514984130859375">
        <ele>1941.199951171875</ele>
        <time>2026-06-16T09:20:38.000Z</time>
        <extensions>
          <ns3:TrackPointExtension>
            <ns3:atemp>24.0</ns3:atemp>
          </ns3:TrackPointExtension>
        </extensions>
      </trkpt>
      <trkpt lat="42.6194032095372676849365234375" lon="19.88345942460000514984130859375">
        <ele>1941.199951171875</ele>
        <time>2026-06-16T09:20:39.000Z</time>
        <extensions>
          <ns3:TrackPointExtension>
            <ns3:atemp>24.0</ns3:atemp>
          </ns3:TrackPointExtension>
        </extensions>
      </trkpt>
      <trkpt lat="42.6194032095372676849365234375" lon="19.88345942460000514984130859375">
        <ele>1941.199951171875</ele>
        <time>2026-06-16T09:20:40.000Z</time>
        <extensions>
          <ns3:TrackPointExtension>
            <ns3:atemp>24.0</ns3:atemp>
          </ns3:TrackPointExtension>
        </extensions>
      </trkpt>
      <trkpt lat="42.6194032095372676849365234375" lon="19.88345942460000514984130859375">
        <ele>1941.199951171875</ele>
        <time>2026-06-16T09:20:41.000Z</time>
        <extensions>
          <ns3:TrackPointExtension>
            <ns3:atemp>24.0</ns3:atemp>
          </ns3:TrackPointExtension>
        </extensions>
      </trkpt>
      <trkpt lat="42.6194032095372676849365234375" lon="19.88345942460000514984130859375">
        <ele>1941.199951171875</ele>
        <time>2026-06-16T09:20:42.000Z</time>
        <extensions>
          <ns3:TrackPointExtension>
            <ns3:atemp>24.0</ns3:atemp>
          </ns3:TrackPointExtension>
        </extensions>
      </trkpt>
      <trkpt lat="42.6194032095372676849365234375" lon="19.88345942460000514984130859375">
        <ele>1941.199951171875</ele>
        <time>2026-06-16T09:20:43.000Z</time>
        <extensions>
          <ns3:TrackPointExtension>
            <ns3:atemp>24.0</ns3:atemp>
          </ns3:TrackPointExtension>
        </extensions>
      </trkpt>
      <trkpt lat="42.6194032095372676849365234375" lon="19.88345942460000514984130859375">
        <ele>1941.199951171875</ele>
        <time>2026-06-16T09:20:44.000Z</time>
        <extensions>
          <ns3:TrackPointExtension>
            <ns3:atemp>24.0</ns3:atemp>
          </ns3:TrackPointExtension>
        </extensions>
      </trkpt>
      <trkpt lat="42.6194032095372676849365234375" lon="19.88345942460000514984130859375">
        <ele>1941.199951171875</ele>
        <time>2026-06-16T09:20:45.000Z</time>
        <extensions>
          <ns3:TrackPointExtension>
            <ns3:atemp>24.0</ns3:atemp>
          </ns3:TrackPointExtension>
        </extensions>
      </trkpt>
      <trkpt lat="42.6194032095372676849365234375" lon="19.88345942460000514984130859375">
        <ele>1941.199951171875</ele>
        <time>2026-06-16T09:20:46.000Z</time>
        <extensions>
          <ns3:TrackPointExtension>
            <ns3:atemp>24.0</ns3:atemp>
          </ns3:TrackPointExtension>
        </extensions>
      </trkpt>
      <trkpt lat="42.6194032095372676849365234375" lon="19.88345942460000514984130859375">
        <ele>1941.199951171875</ele>
        <time>2026-06-16T09:20:47.000Z</time>
        <extensions>
          <ns3:TrackPointExtension>
            <ns3:atemp>24.0</ns3:atemp>
          </ns3:TrackPointExtension>
        </extensions>
      </trkpt>
      <trkpt lat="42.6194032095372676849365234375" lon="19.88345942460000514984130859375">
        <ele>1941.199951171875</ele>
        <time>2026-06-16T09:20:48.000Z</time>
        <extensions>
          <ns3:TrackPointExtension>
            <ns3:atemp>24.0</ns3:atemp>
          </ns3:TrackPointExtension>
        </extensions>
      </trkpt>
      <trkpt lat="42.6194032095372676849365234375" lon="19.88345942460000514984130859375">
        <ele>1941.199951171875</ele>
        <time>2026-06-16T09:20:49.000Z</time>
        <extensions>
          <ns3:TrackPointExtension>
            <ns3:atemp>24.0</ns3:atemp>
          </ns3:TrackPointExtension>
        </extensions>
      </trkpt>
      <trkpt lat="42.6194032095372676849365234375" lon="19.88345942460000514984130859375">
        <ele>1941.199951171875</ele>
        <time>2026-06-16T09:20:50.000Z</time>
        <extensions>
          <ns3:TrackPointExtension>
            <ns3:atemp>24.0</ns3:atemp>
          </ns3:TrackPointExtension>
        </extensions>
      </trkpt>
      <trkpt lat="42.6194032095372676849365234375" lon="19.88345942460000514984130859375">
        <ele>1941.199951171875</ele>
        <time>2026-06-16T09:20:51.000Z</time>
        <extensions>
          <ns3:TrackPointExtension>
            <ns3:atemp>24.0</ns3:atemp>
          </ns3:TrackPointExtension>
        </extensions>
      </trkpt>
      <trkpt lat="42.6194032095372676849365234375" lon="19.88345942460000514984130859375">
        <ele>1941.199951171875</ele>
        <time>2026-06-16T09:20:52.000Z</time>
        <extensions>
          <ns3:TrackPointExtension>
            <ns3:atemp>24.0</ns3:atemp>
          </ns3:TrackPointExtension>
        </extensions>
      </trkpt>
      <trkpt lat="42.6194032095372676849365234375" lon="19.88345942460000514984130859375">
        <ele>1941.199951171875</ele>
        <time>2026-06-16T09:20:53.000Z</time>
        <extensions>
          <ns3:TrackPointExtension>
            <ns3:atemp>24.0</ns3:atemp>
          </ns3:TrackPointExtension>
        </extensions>
      </trkpt>
      <trkpt lat="42.6194032095372676849365234375" lon="19.88345942460000514984130859375">
        <ele>1941.199951171875</ele>
        <time>2026-06-16T09:20:54.000Z</time>
        <extensions>
          <ns3:TrackPointExtension>
            <ns3:atemp>24.0</ns3:atemp>
          </ns3:TrackPointExtension>
        </extensions>
      </trkpt>
      <trkpt lat="42.6194032095372676849365234375" lon="19.88345942460000514984130859375">
        <ele>1941.199951171875</ele>
        <time>2026-06-16T09:20:55.000Z</time>
        <extensions>
          <ns3:TrackPointExtension>
            <ns3:atemp>24.0</ns3:atemp>
          </ns3:TrackPointExtension>
        </extensions>
      </trkpt>
      <trkpt lat="42.6194032095372676849365234375" lon="19.88345942460000514984130859375">
        <ele>1941.199951171875</ele>
        <time>2026-06-16T09:20:56.000Z</time>
        <extensions>
          <ns3:TrackPointExtension>
            <ns3:atemp>24.0</ns3:atemp>
          </ns3:TrackPointExtension>
        </extensions>
      </trkpt>
      <trkpt lat="42.6194032095372676849365234375" lon="19.88345942460000514984130859375">
        <ele>1941.199951171875</ele>
        <time>2026-06-16T09:20:57.000Z</time>
        <extensions>
          <ns3:TrackPointExtension>
            <ns3:atemp>24.0</ns3:atemp>
          </ns3:TrackPointExtension>
        </extensions>
      </trkpt>
      <trkpt lat="42.6194032095372676849365234375" lon="19.88345942460000514984130859375">
        <ele>1941.199951171875</ele>
        <time>2026-06-16T09:20:58.000Z</time>
        <extensions>
          <ns3:TrackPointExtension>
            <ns3:atemp>24.0</ns3:atemp>
          </ns3:TrackPointExtension>
        </extensions>
      </trkpt>
      <trkpt lat="42.6194032095372676849365234375" lon="19.88345942460000514984130859375">
        <ele>1941.199951171875</ele>
        <time>2026-06-16T09:20:59.000Z</time>
        <extensions>
          <ns3:TrackPointExtension>
            <ns3:atemp>24.0</ns3:atemp>
          </ns3:TrackPointExtension>
        </extensions>
      </trkpt>
      <trkpt lat="42.6194032095372676849365234375" lon="19.88345942460000514984130859375">
        <ele>1941.199951171875</ele>
        <time>2026-06-16T09:21:00.000Z</time>
        <extensions>
          <ns3:TrackPointExtension>
            <ns3:atemp>24.0</ns3:atemp>
          </ns3:TrackPointExtension>
        </extensions>
      </trkpt>
      <trkpt lat="42.6194032095372676849365234375" lon="19.88345942460000514984130859375">
        <ele>1941.199951171875</ele>
        <time>2026-06-16T09:21:01.000Z</time>
        <extensions>
          <ns3:TrackPointExtension>
            <ns3:atemp>24.0</ns3:atemp>
          </ns3:TrackPointExtension>
        </extensions>
      </trkpt>
      <trkpt lat="42.6194032095372676849365234375" lon="19.88345942460000514984130859375">
        <ele>1941.199951171875</ele>
        <time>2026-06-16T09:21:02.000Z</time>
        <extensions>
          <ns3:TrackPointExtension>
            <ns3:atemp>24.0</ns3:atemp>
          </ns3:TrackPointExtension>
        </extensions>
      </trkpt>
      <trkpt lat="42.6194032095372676849365234375" lon="19.88345942460000514984130859375">
        <ele>1941.199951171875</ele>
        <time>2026-06-16T09:21:03.000Z</time>
        <extensions>
          <ns3:TrackPointExtension>
            <ns3:atemp>24.0</ns3:atemp>
          </ns3:TrackPointExtension>
        </extensions>
      </trkpt>
      <trkpt lat="42.6194032095372676849365234375" lon="19.88345942460000514984130859375">
        <ele>1941.199951171875</ele>
        <time>2026-06-16T09:21:04.000Z</time>
        <extensions>
          <ns3:TrackPointExtension>
            <ns3:atemp>24.0</ns3:atemp>
          </ns3:TrackPointExtension>
        </extensions>
      </trkpt>
      <trkpt lat="42.6194032095372676849365234375" lon="19.88345942460000514984130859375">
        <ele>1941.199951171875</ele>
        <time>2026-06-16T09:21:05.000Z</time>
        <extensions>
          <ns3:TrackPointExtension>
            <ns3:atemp>24.0</ns3:atemp>
          </ns3:TrackPointExtension>
        </extensions>
      </trkpt>
      <trkpt lat="42.6194032095372676849365234375" lon="19.88345942460000514984130859375">
        <ele>1941.199951171875</ele>
        <time>2026-06-16T09:21:06.000Z</time>
        <extensions>
          <ns3:TrackPointExtension>
            <ns3:atemp>24.0</ns3:atemp>
          </ns3:TrackPointExtension>
        </extensions>
      </trkpt>
      <trkpt lat="42.6194032095372676849365234375" lon="19.88345942460000514984130859375">
        <ele>1941.199951171875</ele>
        <time>2026-06-16T09:21:07.000Z</time>
        <extensions>
          <ns3:TrackPointExtension>
            <ns3:atemp>24.0</ns3:atemp>
          </ns3:TrackPointExtension>
        </extensions>
      </trkpt>
      <trkpt lat="42.6194032095372676849365234375" lon="19.88345942460000514984130859375">
        <ele>1941.199951171875</ele>
        <time>2026-06-16T09:21:08.000Z</time>
        <extensions>
          <ns3:TrackPointExtension>
            <ns3:atemp>24.0</ns3:atemp>
          </ns3:TrackPointExtension>
        </extensions>
      </trkpt>
      <trkpt lat="42.6194032095372676849365234375" lon="19.88345942460000514984130859375">
        <ele>1941.199951171875</ele>
        <time>2026-06-16T09:21:09.000Z</time>
        <extensions>
          <ns3:TrackPointExtension>
            <ns3:atemp>24.0</ns3:atemp>
          </ns3:TrackPointExtension>
        </extensions>
      </trkpt>
      <trkpt lat="42.6194032095372676849365234375" lon="19.88345942460000514984130859375">
        <ele>1941.199951171875</ele>
        <time>2026-06-16T09:21:10.000Z</time>
        <extensions>
          <ns3:TrackPointExtension>
            <ns3:atemp>24.0</ns3:atemp>
          </ns3:TrackPointExtension>
        </extensions>
      </trkpt>
      <trkpt lat="42.6194032095372676849365234375" lon="19.88345942460000514984130859375">
        <ele>1941.199951171875</ele>
        <time>2026-06-16T09:21:11.000Z</time>
        <extensions>
          <ns3:TrackPointExtension>
            <ns3:atemp>24.0</ns3:atemp>
          </ns3:TrackPointExtension>
        </extensions>
      </trkpt>
      <trkpt lat="42.6194032095372676849365234375" lon="19.88345942460000514984130859375">
        <ele>1941.199951171875</ele>
        <time>2026-06-16T09:21:12.000Z</time>
        <extensions>
          <ns3:TrackPointExtension>
            <ns3:atemp>24.0</ns3:atemp>
          </ns3:TrackPointExtension>
        </extensions>
      </trkpt>
      <trkpt lat="42.6194032095372676849365234375" lon="19.88345942460000514984130859375">
        <ele>1941.199951171875</ele>
        <time>2026-06-16T09:21:13.000Z</time>
        <extensions>
          <ns3:TrackPointExtension>
            <ns3:atemp>24.0</ns3:atemp>
          </ns3:TrackPointExtension>
        </extensions>
      </trkpt>
      <trkpt lat="42.6194032095372676849365234375" lon="19.88345942460000514984130859375">
        <ele>1941.199951171875</ele>
        <time>2026-06-16T09:21:14.000Z</time>
        <extensions>
          <ns3:TrackPointExtension>
            <ns3:atemp>24.0</ns3:atemp>
          </ns3:TrackPointExtension>
        </extensions>
      </trkpt>
      <trkpt lat="42.6194032095372676849365234375" lon="19.88345942460000514984130859375">
        <ele>1941.199951171875</ele>
        <time>2026-06-16T09:21:15.000Z</time>
        <extensions>
          <ns3:TrackPointExtension>
            <ns3:atemp>24.0</ns3:atemp>
          </ns3:TrackPointExtension>
        </extensions>
      </trkpt>
      <trkpt lat="42.6194032095372676849365234375" lon="19.88345942460000514984130859375">
        <ele>1944.4000244140625</ele>
        <time>2026-06-16T09:21:16.000Z</time>
        <extensions>
          <ns3:TrackPointExtension>
            <ns3:atemp>24.0</ns3:atemp>
          </ns3:TrackPointExtension>
        </extensions>
      </trkpt>
      <trkpt lat="42.6194032095372676849365234375" lon="19.88345942460000514984130859375">
        <ele>1944.4000244140625</ele>
        <time>2026-06-16T09:21:17.000Z</time>
        <extensions>
          <ns3:TrackPointExtension>
            <ns3:atemp>24.0</ns3:atemp>
          </ns3:TrackPointExtension>
        </extensions>
      </trkpt>
      <trkpt lat="42.6194032095372676849365234375" lon="19.88345942460000514984130859375">
        <ele>1944.5999755859375</ele>
        <time>2026-06-16T09:21:18.000Z</time>
        <extensions>
          <ns3:TrackPointExtension>
            <ns3:atemp>24.0</ns3:atemp>
          </ns3:TrackPointExtension>
        </extensions>
      </trkpt>
      <trkpt lat="42.6194032095372676849365234375" lon="19.88345942460000514984130859375">
        <ele>1944.5999755859375</ele>
        <time>2026-06-16T09:21:19.000Z</time>
        <extensions>
          <ns3:TrackPointExtension>
            <ns3:atemp>24.0</ns3:atemp>
          </ns3:TrackPointExtension>
        </extensions>
      </trkpt>
      <trkpt lat="42.6194032095372676849365234375" lon="19.88345942460000514984130859375">
        <ele>1944.5999755859375</ele>
        <time>2026-06-16T09:21:20.000Z</time>
        <extensions>
          <ns3:TrackPointExtension>
            <ns3:atemp>24.0</ns3:atemp>
          </ns3:TrackPointExtension>
        </extensions>
      </trkpt>
      <trkpt lat="42.6194032095372676849365234375" lon="19.88345942460000514984130859375">
        <ele>1944.5999755859375</ele>
        <time>2026-06-16T09:21:21.000Z</time>
        <extensions>
          <ns3:TrackPointExtension>
            <ns3:atemp>24.0</ns3:atemp>
          </ns3:TrackPointExtension>
        </extensions>
      </trkpt>
      <trkpt lat="42.6194032095372676849365234375" lon="19.88345942460000514984130859375">
        <ele>1944.5999755859375</ele>
        <time>2026-06-16T09:21:22.000Z</time>
        <extensions>
          <ns3:TrackPointExtension>
            <ns3:atemp>24.0</ns3:atemp>
          </ns3:TrackPointExtension>
        </extensions>
      </trkpt>
      <trkpt lat="42.6194032095372676849365234375" lon="19.88345942460000514984130859375">
        <ele>1944.5999755859375</ele>
        <time>2026-06-16T09:21:23.000Z</time>
        <extensions>
          <ns3:TrackPointExtension>
            <ns3:atemp>24.0</ns3:atemp>
          </ns3:TrackPointExtension>
        </extensions>
      </trkpt>
      <trkpt lat="42.6194032095372676849365234375" lon="19.88345942460000514984130859375">
        <ele>1944.5999755859375</ele>
        <time>2026-06-16T09:21:24.000Z</time>
        <extensions>
          <ns3:TrackPointExtension>
            <ns3:atemp>24.0</ns3:atemp>
          </ns3:TrackPointExtension>
        </extensions>
      </trkpt>
      <trkpt lat="42.6194032095372676849365234375" lon="19.88345942460000514984130859375">
        <ele>1944.5999755859375</ele>
        <time>2026-06-16T09:21:25.000Z</time>
        <extensions>
          <ns3:TrackPointExtension>
            <ns3:atemp>24.0</ns3:atemp>
          </ns3:TrackPointExtension>
        </extensions>
      </trkpt>
      <trkpt lat="42.6194032095372676849365234375" lon="19.88345942460000514984130859375">
        <ele>1944.5999755859375</ele>
        <time>2026-06-16T09:21:26.000Z</time>
        <extensions>
          <ns3:TrackPointExtension>
            <ns3:atemp>24.0</ns3:atemp>
          </ns3:TrackPointExtension>
        </extensions>
      </trkpt>
      <trkpt lat="42.6194032095372676849365234375" lon="19.88345942460000514984130859375">
        <ele>1944.5999755859375</ele>
        <time>2026-06-16T09:21:27.000Z</time>
        <extensions>
          <ns3:TrackPointExtension>
            <ns3:atemp>24.0</ns3:atemp>
          </ns3:TrackPointExtension>
        </extensions>
      </trkpt>
      <trkpt lat="42.6194032095372676849365234375" lon="19.88345942460000514984130859375">
        <ele>1944.5999755859375</ele>
        <time>2026-06-16T09:21:28.000Z</time>
        <extensions>
          <ns3:TrackPointExtension>
            <ns3:atemp>24.0</ns3:atemp>
          </ns3:TrackPointExtension>
        </extensions>
      </trkpt>
      <trkpt lat="42.6194032095372676849365234375" lon="19.88345942460000514984130859375">
        <ele>1944.5999755859375</ele>
        <time>2026-06-16T09:21:29.000Z</time>
        <extensions>
          <ns3:TrackPointExtension>
            <ns3:atemp>24.0</ns3:atemp>
          </ns3:TrackPointExtension>
        </extensions>
      </trkpt>
      <trkpt lat="42.6194032095372676849365234375" lon="19.88345942460000514984130859375">
        <ele>1944.5999755859375</ele>
        <time>2026-06-16T09:21:30.000Z</time>
        <extensions>
          <ns3:TrackPointExtension>
            <ns3:atemp>24.0</ns3:atemp>
          </ns3:TrackPointExtension>
        </extensions>
      </trkpt>
      <trkpt lat="42.6194032095372676849365234375" lon="19.88345942460000514984130859375">
        <ele>1944.5999755859375</ele>
        <time>2026-06-16T09:21:31.000Z</time>
        <extensions>
          <ns3:TrackPointExtension>
            <ns3:atemp>24.0</ns3:atemp>
          </ns3:TrackPointExtension>
        </extensions>
      </trkpt>
      <trkpt lat="42.6194032095372676849365234375" lon="19.88345942460000514984130859375">
        <ele>1944.5999755859375</ele>
        <time>2026-06-16T09:21:32.000Z</time>
        <extensions>
          <ns3:TrackPointExtension>
            <ns3:atemp>24.0</ns3:atemp>
          </ns3:TrackPointExtension>
        </extensions>
      </trkpt>
      <trkpt lat="42.6194032095372676849365234375" lon="19.88345942460000514984130859375">
        <ele>1944.4000244140625</ele>
        <time>2026-06-16T09:21:33.000Z</time>
        <extensions>
          <ns3:TrackPointExtension>
            <ns3:atemp>24.0</ns3:atemp>
          </ns3:TrackPointExtension>
        </extensions>
      </trkpt>
      <trkpt lat="42.6194032095372676849365234375" lon="19.88345942460000514984130859375">
        <ele>1944.4000244140625</ele>
        <time>2026-06-16T09:21:34.000Z</time>
        <extensions>
          <ns3:TrackPointExtension>
            <ns3:atemp>24.0</ns3:atemp>
          </ns3:TrackPointExtension>
        </extensions>
      </trkpt>
      <trkpt lat="42.6194032095372676849365234375" lon="19.88345942460000514984130859375">
        <ele>1944.4000244140625</ele>
        <time>2026-06-16T09:21:35.000Z</time>
        <extensions>
          <ns3:TrackPointExtension>
            <ns3:atemp>24.0</ns3:atemp>
          </ns3:TrackPointExtension>
        </extensions>
      </trkpt>
      <trkpt lat="42.6194032095372676849365234375" lon="19.88345942460000514984130859375">
        <ele>1944.4000244140625</ele>
        <time>2026-06-16T09:21:36.000Z</time>
        <extensions>
          <ns3:TrackPointExtension>
            <ns3:atemp>24.0</ns3:atemp>
          </ns3:TrackPointExtension>
        </extensions>
      </trkpt>
      <trkpt lat="42.6194032095372676849365234375" lon="19.88345942460000514984130859375">
        <ele>1944.4000244140625</ele>
        <time>2026-06-16T09:21:37.000Z</time>
        <extensions>
          <ns3:TrackPointExtension>
            <ns3:atemp>24.0</ns3:atemp>
          </ns3:TrackPointExtension>
        </extensions>
      </trkpt>
      <trkpt lat="42.6194032095372676849365234375" lon="19.88345942460000514984130859375">
        <ele>1944.4000244140625</ele>
        <time>2026-06-16T09:21:38.000Z</time>
        <extensions>
          <ns3:TrackPointExtension>
            <ns3:atemp>24.0</ns3:atemp>
          </ns3:TrackPointExtension>
        </extensions>
      </trkpt>
      <trkpt lat="42.6194032095372676849365234375" lon="19.88345942460000514984130859375">
        <ele>1944.4000244140625</ele>
        <time>2026-06-16T09:21:39.000Z</time>
        <extensions>
          <ns3:TrackPointExtension>
            <ns3:atemp>24.0</ns3:atemp>
          </ns3:TrackPointExtension>
        </extensions>
      </trkpt>
      <trkpt lat="42.6194032095372676849365234375" lon="19.88345942460000514984130859375">
        <ele>1944.4000244140625</ele>
        <time>2026-06-16T09:21:40.000Z</time>
        <extensions>
          <ns3:TrackPointExtension>
            <ns3:atemp>24.0</ns3:atemp>
          </ns3:TrackPointExtension>
        </extensions>
      </trkpt>
      <trkpt lat="42.6194032095372676849365234375" lon="19.88345942460000514984130859375">
        <ele>1944.4000244140625</ele>
        <time>2026-06-16T09:21:41.000Z</time>
        <extensions>
          <ns3:TrackPointExtension>
            <ns3:atemp>24.0</ns3:atemp>
          </ns3:TrackPointExtension>
        </extensions>
      </trkpt>
      <trkpt lat="42.6194032095372676849365234375" lon="19.88345942460000514984130859375">
        <ele>1944.4000244140625</ele>
        <time>2026-06-16T09:21:42.000Z</time>
        <extensions>
          <ns3:TrackPointExtension>
            <ns3:atemp>24.0</ns3:atemp>
          </ns3:TrackPointExtension>
        </extensions>
      </trkpt>
      <trkpt lat="42.6194032095372676849365234375" lon="19.88345942460000514984130859375">
        <ele>1944.5999755859375</ele>
        <time>2026-06-16T09:21:43.000Z</time>
        <extensions>
          <ns3:TrackPointExtension>
            <ns3:atemp>24.0</ns3:atemp>
          </ns3:TrackPointExtension>
        </extensions>
      </trkpt>
      <trkpt lat="42.6194032095372676849365234375" lon="19.88345942460000514984130859375">
        <ele>1944.5999755859375</ele>
        <time>2026-06-16T09:21:44.000Z</time>
        <extensions>
          <ns3:TrackPointExtension>
            <ns3:atemp>24.0</ns3:atemp>
          </ns3:TrackPointExtension>
        </extensions>
      </trkpt>
      <trkpt lat="42.6194032095372676849365234375" lon="19.88345942460000514984130859375">
        <ele>1944.5999755859375</ele>
        <time>2026-06-16T09:21:45.000Z</time>
        <extensions>
          <ns3:TrackPointExtension>
            <ns3:atemp>24.0</ns3:atemp>
          </ns3:TrackPointExtension>
        </extensions>
      </trkpt>
      <trkpt lat="42.6194032095372676849365234375" lon="19.88345942460000514984130859375">
        <ele>1944.5999755859375</ele>
        <time>2026-06-16T09:21:46.000Z</time>
        <extensions>
          <ns3:TrackPointExtension>
            <ns3:atemp>24.0</ns3:atemp>
          </ns3:TrackPointExtension>
        </extensions>
      </trkpt>
      <trkpt lat="42.6194032095372676849365234375" lon="19.88345942460000514984130859375">
        <ele>1944.4000244140625</ele>
        <time>2026-06-16T09:21:47.000Z</time>
        <extensions>
          <ns3:TrackPointExtension>
            <ns3:atemp>24.0</ns3:atemp>
          </ns3:TrackPointExtension>
        </extensions>
      </trkpt>
      <trkpt lat="42.6194032095372676849365234375" lon="19.88345942460000514984130859375">
        <ele>1944.4000244140625</ele>
        <time>2026-06-16T09:21:48.000Z</time>
        <extensions>
          <ns3:TrackPointExtension>
            <ns3:atemp>24.0</ns3:atemp>
          </ns3:TrackPointExtension>
        </extensions>
      </trkpt>
      <trkpt lat="42.6194032095372676849365234375" lon="19.88345942460000514984130859375">
        <ele>1944.4000244140625</ele>
        <time>2026-06-16T09:21:49.000Z</time>
        <extensions>
          <ns3:TrackPointExtension>
            <ns3:atemp>24.0</ns3:atemp>
          </ns3:TrackPointExtension>
        </extensions>
      </trkpt>
      <trkpt lat="42.6194032095372676849365234375" lon="19.88345942460000514984130859375">
        <ele>1944.4000244140625</ele>
        <time>2026-06-16T09:21:50.000Z</time>
        <extensions>
          <ns3:TrackPointExtension>
            <ns3:atemp>24.0</ns3:atemp>
          </ns3:TrackPointExtension>
        </extensions>
      </trkpt>
      <trkpt lat="42.6194032095372676849365234375" lon="19.88345942460000514984130859375">
        <ele>1944.199951171875</ele>
        <time>2026-06-16T09:21:51.000Z</time>
        <extensions>
          <ns3:TrackPointExtension>
            <ns3:atemp>24.0</ns3:atemp>
          </ns3:TrackPointExtension>
        </extensions>
      </trkpt>
      <trkpt lat="42.6194032095372676849365234375" lon="19.88345942460000514984130859375">
        <ele>1944.4000244140625</ele>
        <time>2026-06-16T09:21:52.000Z</time>
        <extensions>
          <ns3:TrackPointExtension>
            <ns3:atemp>24.0</ns3:atemp>
          </ns3:TrackPointExtension>
        </extensions>
      </trkpt>
      <trkpt lat="42.6194032095372676849365234375" lon="19.88345942460000514984130859375">
        <ele>1944.4000244140625</ele>
        <time>2026-06-16T09:21:53.000Z</time>
        <extensions>
          <ns3:TrackPointExtension>
            <ns3:atemp>24.0</ns3:atemp>
          </ns3:TrackPointExtension>
        </extensions>
      </trkpt>
      <trkpt lat="42.6194032095372676849365234375" lon="19.88345942460000514984130859375">
        <ele>1944.4000244140625</ele>
        <time>2026-06-16T09:21:54.000Z</time>
        <extensions>
          <ns3:TrackPointExtension>
            <ns3:atemp>25.0</ns3:atemp>
          </ns3:TrackPointExtension>
        </extensions>
      </trkpt>
      <trkpt lat="42.6194032095372676849365234375" lon="19.88345942460000514984130859375">
        <ele>1944.4000244140625</ele>
        <time>2026-06-16T09:21:55.000Z</time>
        <extensions>
          <ns3:TrackPointExtension>
            <ns3:atemp>25.0</ns3:atemp>
          </ns3:TrackPointExtension>
        </extensions>
      </trkpt>
      <trkpt lat="42.6194032095372676849365234375" lon="19.88345942460000514984130859375">
        <ele>1944.199951171875</ele>
        <time>2026-06-16T09:21:56.000Z</time>
        <extensions>
          <ns3:TrackPointExtension>
            <ns3:atemp>25.0</ns3:atemp>
          </ns3:TrackPointExtension>
        </extensions>
      </trkpt>
      <trkpt lat="42.6194032095372676849365234375" lon="19.88345942460000514984130859375">
        <ele>1944.199951171875</ele>
        <time>2026-06-16T09:21:57.000Z</time>
        <extensions>
          <ns3:TrackPointExtension>
            <ns3:atemp>25.0</ns3:atemp>
          </ns3:TrackPointExtension>
        </extensions>
      </trkpt>
      <trkpt lat="42.6194032095372676849365234375" lon="19.88345942460000514984130859375">
        <ele>1944.199951171875</ele>
        <time>2026-06-16T09:21:58.000Z</time>
        <extensions>
          <ns3:TrackPointExtension>
            <ns3:atemp>25.0</ns3:atemp>
          </ns3:TrackPointExtension>
        </extensions>
      </trkpt>
      <trkpt lat="42.6194032095372676849365234375" lon="19.88345942460000514984130859375">
        <ele>1944.199951171875</ele>
        <time>2026-06-16T09:21:59.000Z</time>
        <extensions>
          <ns3:TrackPointExtension>
            <ns3:atemp>24.0</ns3:atemp>
          </ns3:TrackPointExtension>
        </extensions>
      </trkpt>
      <trkpt lat="42.6194032095372676849365234375" lon="19.88345942460000514984130859375">
        <ele>1944.199951171875</ele>
        <time>2026-06-16T09:22:00.000Z</time>
        <extensions>
          <ns3:TrackPointExtension>
            <ns3:atemp>24.0</ns3:atemp>
          </ns3:TrackPointExtension>
        </extensions>
      </trkpt>
      <trkpt lat="42.6194032095372676849365234375" lon="19.88345942460000514984130859375">
        <ele>1944.4000244140625</ele>
        <time>2026-06-16T09:22:01.000Z</time>
        <extensions>
          <ns3:TrackPointExtension>
            <ns3:atemp>24.0</ns3:atemp>
          </ns3:TrackPointExtension>
        </extensions>
      </trkpt>
      <trkpt lat="42.6194032095372676849365234375" lon="19.88345942460000514984130859375">
        <ele>1944.4000244140625</ele>
        <time>2026-06-16T09:22:02.000Z</time>
        <extensions>
          <ns3:TrackPointExtension>
            <ns3:atemp>24.0</ns3:atemp>
          </ns3:TrackPointExtension>
        </extensions>
      </trkpt>
      <trkpt lat="42.6194032095372676849365234375" lon="19.88345942460000514984130859375">
        <ele>1944.4000244140625</ele>
        <time>2026-06-16T09:22:03.000Z</time>
        <extensions>
          <ns3:TrackPointExtension>
            <ns3:atemp>24.0</ns3:atemp>
          </ns3:TrackPointExtension>
        </extensions>
      </trkpt>
      <trkpt lat="42.6194032095372676849365234375" lon="19.88345942460000514984130859375">
        <ele>1944.4000244140625</ele>
        <time>2026-06-16T09:22:04.000Z</time>
        <extensions>
          <ns3:TrackPointExtension>
            <ns3:atemp>24.0</ns3:atemp>
          </ns3:TrackPointExtension>
        </extensions>
      </trkpt>
      <trkpt lat="42.6194032095372676849365234375" lon="19.88345942460000514984130859375">
        <ele>1944.199951171875</ele>
        <time>2026-06-16T09:22:05.000Z</time>
        <extensions>
          <ns3:TrackPointExtension>
            <ns3:atemp>25.0</ns3:atemp>
          </ns3:TrackPointExtension>
        </extensions>
      </trkpt>
      <trkpt lat="42.6194032095372676849365234375" lon="19.88345942460000514984130859375">
        <ele>1944.199951171875</ele>
        <time>2026-06-16T09:22:06.000Z</time>
        <extensions>
          <ns3:TrackPointExtension>
            <ns3:atemp>25.0</ns3:atemp>
          </ns3:TrackPointExtension>
        </extensions>
      </trkpt>
      <trkpt lat="42.6194032095372676849365234375" lon="19.88345942460000514984130859375">
        <ele>1944.199951171875</ele>
        <time>2026-06-16T09:22:07.000Z</time>
        <extensions>
          <ns3:TrackPointExtension>
            <ns3:atemp>25.0</ns3:atemp>
          </ns3:TrackPointExtension>
        </extensions>
      </trkpt>
      <trkpt lat="42.6194032095372676849365234375" lon="19.88345942460000514984130859375">
        <ele>1944.199951171875</ele>
        <time>2026-06-16T09:22:08.000Z</time>
        <extensions>
          <ns3:TrackPointExtension>
            <ns3:atemp>25.0</ns3:atemp>
          </ns3:TrackPointExtension>
        </extensions>
      </trkpt>
      <trkpt lat="42.6194032095372676849365234375" lon="19.88345942460000514984130859375">
        <ele>1944.199951171875</ele>
        <time>2026-06-16T09:22:09.000Z</time>
        <extensions>
          <ns3:TrackPointExtension>
            <ns3:atemp>24.0</ns3:atemp>
          </ns3:TrackPointExtension>
        </extensions>
      </trkpt>
      <trkpt lat="42.6194032095372676849365234375" lon="19.88345942460000514984130859375">
        <ele>1944.199951171875</ele>
        <time>2026-06-16T09:22:10.000Z</time>
        <extensions>
          <ns3:TrackPointExtension>
            <ns3:atemp>24.0</ns3:atemp>
          </ns3:TrackPointExtension>
        </extensions>
      </trkpt>
      <trkpt lat="42.6194032095372676849365234375" lon="19.88345942460000514984130859375">
        <ele>1944.199951171875</ele>
        <time>2026-06-16T09:22:11.000Z</time>
        <extensions>
          <ns3:TrackPointExtension>
            <ns3:atemp>24.0</ns3:atemp>
          </ns3:TrackPointExtension>
        </extensions>
      </trkpt>
      <trkpt lat="42.6194032095372676849365234375" lon="19.88345942460000514984130859375">
        <ele>1944.199951171875</ele>
        <time>2026-06-16T09:22:12.000Z</time>
        <extensions>
          <ns3:TrackPointExtension>
            <ns3:atemp>24.0</ns3:atemp>
          </ns3:TrackPointExtension>
        </extensions>
      </trkpt>
      <trkpt lat="42.6194032095372676849365234375" lon="19.88345942460000514984130859375">
        <ele>1944.199951171875</ele>
        <time>2026-06-16T09:22:13.000Z</time>
        <extensions>
          <ns3:TrackPointExtension>
            <ns3:atemp>24.0</ns3:atemp>
          </ns3:TrackPointExtension>
        </extensions>
      </trkpt>
      <trkpt lat="42.6194032095372676849365234375" lon="19.88345942460000514984130859375">
        <ele>1944</ele>
        <time>2026-06-16T09:22:14.000Z</time>
        <extensions>
          <ns3:TrackPointExtension>
            <ns3:atemp>25.0</ns3:atemp>
          </ns3:TrackPointExtension>
        </extensions>
      </trkpt>
      <trkpt lat="42.6194032095372676849365234375" lon="19.88345942460000514984130859375">
        <ele>1944</ele>
        <time>2026-06-16T09:22:15.000Z</time>
        <extensions>
          <ns3:TrackPointExtension>
            <ns3:atemp>25.0</ns3:atemp>
          </ns3:TrackPointExtension>
        </extensions>
      </trkpt>
      <trkpt lat="42.6194032095372676849365234375" lon="19.88345942460000514984130859375">
        <ele>1944</ele>
        <time>2026-06-16T09:22:16.000Z</time>
        <extensions>
          <ns3:TrackPointExtension>
            <ns3:atemp>25.0</ns3:atemp>
          </ns3:TrackPointExtension>
        </extensions>
      </trkpt>
      <trkpt lat="42.6194032095372676849365234375" lon="19.88345942460000514984130859375">
        <ele>1944</ele>
        <time>2026-06-16T09:22:17.000Z</time>
        <extensions>
          <ns3:TrackPointExtension>
            <ns3:atemp>25.0</ns3:atemp>
          </ns3:TrackPointExtension>
        </extensions>
      </trkpt>
      <trkpt lat="42.6194032095372676849365234375" lon="19.88345942460000514984130859375">
        <ele>1944</ele>
        <time>2026-06-16T09:22:18.000Z</time>
        <extensions>
          <ns3:TrackPointExtension>
            <ns3:atemp>25.0</ns3:atemp>
          </ns3:TrackPointExtension>
        </extensions>
      </trkpt>
      <trkpt lat="42.6194032095372676849365234375" lon="19.88345942460000514984130859375">
        <ele>1944</ele>
        <time>2026-06-16T09:22:19.000Z</time>
        <extensions>
          <ns3:TrackPointExtension>
            <ns3:atemp>25.0</ns3:atemp>
          </ns3:TrackPointExtension>
        </extensions>
      </trkpt>
      <trkpt lat="42.6194032095372676849365234375" lon="19.88345942460000514984130859375">
        <ele>1944</ele>
        <time>2026-06-16T09:22:20.000Z</time>
        <extensions>
          <ns3:TrackPointExtension>
            <ns3:atemp>25.0</ns3:atemp>
          </ns3:TrackPointExtension>
        </extensions>
      </trkpt>
      <trkpt lat="42.6194032095372676849365234375" lon="19.88345942460000514984130859375">
        <ele>1944.199951171875</ele>
        <time>2026-06-16T09:22:21.000Z</time>
        <extensions>
          <ns3:TrackPointExtension>
            <ns3:atemp>25.0</ns3:atemp>
          </ns3:TrackPointExtension>
        </extensions>
      </trkpt>
      <trkpt lat="42.6194032095372676849365234375" lon="19.88345942460000514984130859375">
        <ele>1944.199951171875</ele>
        <time>2026-06-16T09:22:22.000Z</time>
        <extensions>
          <ns3:TrackPointExtension>
            <ns3:atemp>25.0</ns3:atemp>
          </ns3:TrackPointExtension>
        </extensions>
      </trkpt>
      <trkpt lat="42.6194005273282527923583984375" lon="19.88345959223806858062744140625">
        <ele>1944.199951171875</ele>
        <time>2026-06-16T09:22:23.000Z</time>
        <extensions>
          <ns3:TrackPointExtension>
            <ns3:atemp>25.0</ns3:atemp>
          </ns3:TrackPointExtension>
        </extensions>
      </trkpt>
      <trkpt lat="42.619378566741943359375" lon="19.88345975987613201141357421875">
        <ele>1944.199951171875</ele>
        <time>2026-06-16T09:22:24.000Z</time>
        <extensions>
          <ns3:TrackPointExtension>
            <ns3:atemp>25.0</ns3:atemp>
          </ns3:TrackPointExtension>
        </extensions>
      </trkpt>
      <trkpt lat="42.6193639822304248809814453125" lon="19.88345238380134105682373046875">
        <ele>1944.199951171875</ele>
        <time>2026-06-16T09:22:25.000Z</time>
        <extensions>
          <ns3:TrackPointExtension>
            <ns3:atemp>25.0</ns3:atemp>
          </ns3:TrackPointExtension>
        </extensions>
      </trkpt>
      <trkpt lat="42.6193395070731639862060546875" lon="19.88344810903072357177734375">
        <ele>1944</ele>
        <time>2026-06-16T09:22:26.000Z</time>
        <extensions>
          <ns3:TrackPointExtension>
            <ns3:atemp>25.0</ns3:atemp>
          </ns3:TrackPointExtension>
        </extensions>
      </trkpt>
      <trkpt lat="42.61931025423109531402587890625" lon="19.88345305435359477996826171875">
        <ele>1944</ele>
        <time>2026-06-16T09:22:27.000Z</time>
        <extensions>
          <ns3:TrackPointExtension>
            <ns3:atemp>25.0</ns3:atemp>
          </ns3:TrackPointExtension>
        </extensions>
      </trkpt>
      <trkpt lat="42.6192788220942020416259765625" lon="19.88345774821937084197998046875">
        <ele>1943.800048828125</ele>
        <time>2026-06-16T09:22:28.000Z</time>
        <extensions>
          <ns3:TrackPointExtension>
            <ns3:atemp>25.0</ns3:atemp>
          </ns3:TrackPointExtension>
        </extensions>
      </trkpt>
      <trkpt lat="42.619240768253803253173828125" lon="19.88345640711486339569091796875">
        <ele>1943.5999755859375</ele>
        <time>2026-06-16T09:22:29.000Z</time>
        <extensions>
          <ns3:TrackPointExtension>
            <ns3:atemp>25.0</ns3:atemp>
          </ns3:TrackPointExtension>
        </extensions>
      </trkpt>
      <trkpt lat="42.61920095421373844146728515625" lon="19.88344651646912097930908203125">
        <ele>1943.4000244140625</ele>
        <time>2026-06-16T09:22:30.000Z</time>
        <extensions>
          <ns3:TrackPointExtension>
            <ns3:atemp>25.0</ns3:atemp>
          </ns3:TrackPointExtension>
        </extensions>
      </trkpt>
      <trkpt lat="42.619160972535610198974609375" lon="19.8834409005939960479736328125">
        <ele>1943</ele>
        <time>2026-06-16T09:22:31.000Z</time>
        <extensions>
          <ns3:TrackPointExtension>
            <ns3:atemp>25.0</ns3:atemp>
          </ns3:TrackPointExtension>
        </extensions>
      </trkpt>
      <trkpt lat="42.6191272772848606109619140625" lon="19.88342924974858760833740234375">
        <ele>1942.800048828125</ele>
        <time>2026-06-16T09:22:32.000Z</time>
        <extensions>
          <ns3:TrackPointExtension>
            <ns3:atemp>25.0</ns3:atemp>
          </ns3:TrackPointExtension>
        </extensions>
      </trkpt>
      <trkpt lat="42.619097270071506500244140625" lon="19.8834231309592723846435546875">
        <ele>1942.5999755859375</ele>
        <time>2026-06-16T09:22:33.000Z</time>
        <extensions>
          <ns3:TrackPointExtension>
            <ns3:atemp>25.0</ns3:atemp>
          </ns3:TrackPointExtension>
        </extensions>
      </trkpt>
      <trkpt lat="42.619068436324596405029296875" lon="19.88341131247580051422119140625">
        <ele>1942.5999755859375</ele>
        <time>2026-06-16T09:22:34.000Z</time>
        <extensions>
          <ns3:TrackPointExtension>
            <ns3:atemp>25.0</ns3:atemp>
          </ns3:TrackPointExtension>
        </extensions>
      </trkpt>
      <trkpt lat="42.6190394349396228790283203125" lon="19.8834026791155338287353515625">
        <ele>1942.4000244140625</ele>
        <time>2026-06-16T09:22:35.000Z</time>
        <extensions>
          <ns3:TrackPointExtension>
            <ns3:atemp>25.0</ns3:atemp>
          </ns3:TrackPointExtension>
        </extensions>
      </trkpt>
      <trkpt lat="42.61900716461241245269775390625" lon="19.883400164544582366943359375">
        <ele>1942.199951171875</ele>
        <time>2026-06-16T09:22:36.000Z</time>
        <extensions>
          <ns3:TrackPointExtension>
            <ns3:atemp>25.0</ns3:atemp>
          </ns3:TrackPointExtension>
        </extensions>
      </trkpt>
      <trkpt lat="42.61897162534296512603759765625" lon="19.88339605741202831268310546875">
        <ele>1942</ele>
        <time>2026-06-16T09:22:37.000Z</time>
        <extensions>
          <ns3:TrackPointExtension>
            <ns3:atemp>25.0</ns3:atemp>
          </ns3:TrackPointExtension>
        </extensions>
      </trkpt>
      <trkpt lat="42.6189435459673404693603515625" lon="19.88338775932788848876953125">
        <ele>1941.800048828125</ele>
        <time>2026-06-16T09:22:38.000Z</time>
        <extensions>
          <ns3:TrackPointExtension>
            <ns3:atemp>25.0</ns3:atemp>
          </ns3:TrackPointExtension>
        </extensions>
      </trkpt>
      <trkpt lat="42.61893491260707378387451171875" lon="19.88338465802371501922607421875">
        <ele>1941.5999755859375</ele>
        <time>2026-06-16T09:22:39.000Z</time>
        <extensions>
          <ns3:TrackPointExtension>
            <ns3:atemp>25.0</ns3:atemp>
          </ns3:TrackPointExtension>
        </extensions>
      </trkpt>
      <trkpt lat="42.61893239803612232208251953125" lon="19.8833803832530975341796875">
        <ele>1941.4000244140625</ele>
        <time>2026-06-16T09:22:40.000Z</time>
        <extensions>
          <ns3:TrackPointExtension>
            <ns3:atemp>25.0</ns3:atemp>
          </ns3:TrackPointExtension>
        </extensions>
      </trkpt>
      <trkpt lat="42.6189348287880420684814453125" lon="19.88338214345276355743408203125">
        <ele>1941.199951171875</ele>
        <time>2026-06-16T09:22:41.000Z</time>
        <extensions>
          <ns3:TrackPointExtension>
            <ns3:atemp>25.0</ns3:atemp>
          </ns3:TrackPointExtension>
        </extensions>
      </trkpt>
      <trkpt lat="42.61893474496901035308837890625" lon="19.88338214345276355743408203125">
        <ele>1941.199951171875</ele>
        <time>2026-06-16T09:22:42.000Z</time>
        <extensions>
          <ns3:TrackPointExtension>
            <ns3:atemp>25.0</ns3:atemp>
          </ns3:TrackPointExtension>
        </extensions>
      </trkpt>
      <trkpt lat="42.61893474496901035308837890625" lon="19.88338214345276355743408203125">
        <ele>1941.199951171875</ele>
        <time>2026-06-16T09:22:43.000Z</time>
        <extensions>
          <ns3:TrackPointExtension>
            <ns3:atemp>25.0</ns3:atemp>
          </ns3:TrackPointExtension>
        </extensions>
      </trkpt>
      <trkpt lat="42.61893474496901035308837890625" lon="19.88338214345276355743408203125">
        <ele>1941.4000244140625</ele>
        <time>2026-06-16T09:22:44.000Z</time>
        <extensions>
          <ns3:TrackPointExtension>
            <ns3:atemp>25.0</ns3:atemp>
          </ns3:TrackPointExtension>
        </extensions>
      </trkpt>
      <trkpt lat="42.61893474496901035308837890625" lon="19.88338214345276355743408203125">
        <ele>1941.4000244140625</ele>
        <time>2026-06-16T09:22:45.000Z</time>
        <extensions>
          <ns3:TrackPointExtension>
            <ns3:atemp>25.0</ns3:atemp>
          </ns3:TrackPointExtension>
        </extensions>
      </trkpt>
      <trkpt lat="42.61893474496901035308837890625" lon="19.88338214345276355743408203125">
        <ele>1941.4000244140625</ele>
        <time>2026-06-16T09:22:46.000Z</time>
        <extensions>
          <ns3:TrackPointExtension>
            <ns3:atemp>25.0</ns3:atemp>
          </ns3:TrackPointExtension>
        </extensions>
      </trkpt>
      <trkpt lat="42.61893474496901035308837890625" lon="19.88338214345276355743408203125">
        <ele>1941.199951171875</ele>
        <time>2026-06-16T09:22:47.000Z</time>
        <extensions>
          <ns3:TrackPointExtension>
            <ns3:atemp>25.0</ns3:atemp>
          </ns3:TrackPointExtension>
        </extensions>
      </trkpt>
      <trkpt lat="42.61893474496901035308837890625" lon="19.88338214345276355743408203125">
        <ele>1941.199951171875</ele>
        <time>2026-06-16T09:22:48.000Z</time>
        <extensions>
          <ns3:TrackPointExtension>
            <ns3:atemp>25.0</ns3:atemp>
          </ns3:TrackPointExtension>
        </extensions>
      </trkpt>
      <trkpt lat="42.61893373914062976837158203125" lon="19.88338214345276355743408203125">
        <ele>1941.4000244140625</ele>
        <time>2026-06-16T09:22:49.000Z</time>
        <extensions>
          <ns3:TrackPointExtension>
            <ns3:atemp>25.0</ns3:atemp>
          </ns3:TrackPointExtension>
        </extensions>
      </trkpt>
      <trkpt lat="42.61893340386450290679931640625" lon="19.88338398747146129608154296875">
        <ele>1941.4000244140625</ele>
        <time>2026-06-16T09:22:50.000Z</time>
        <extensions>
          <ns3:TrackPointExtension>
            <ns3:atemp>25.0</ns3:atemp>
          </ns3:TrackPointExtension>
        </extensions>
      </trkpt>
      <trkpt lat="42.61893440969288349151611328125" lon="19.8833889327943325042724609375">
        <ele>1941.4000244140625</ele>
        <time>2026-06-16T09:22:51.000Z</time>
        <extensions>
          <ns3:TrackPointExtension>
            <ns3:atemp>25.0</ns3:atemp>
          </ns3:TrackPointExtension>
        </extensions>
      </trkpt>
      <trkpt lat="42.61893474496901035308837890625" lon="19.88338214345276355743408203125">
        <ele>1941.4000244140625</ele>
        <time>2026-06-16T09:22:52.000Z</time>
        <extensions>
          <ns3:TrackPointExtension>
            <ns3:atemp>25.0</ns3:atemp>
          </ns3:TrackPointExtension>
        </extensions>
      </trkpt>
      <trkpt lat="42.61893474496901035308837890625" lon="19.88338214345276355743408203125">
        <ele>1941.4000244140625</ele>
        <time>2026-06-16T09:22:53.000Z</time>
        <extensions>
          <ns3:TrackPointExtension>
            <ns3:atemp>25.0</ns3:atemp>
          </ns3:TrackPointExtension>
        </extensions>
      </trkpt>
      <trkpt lat="42.61893474496901035308837890625" lon="19.88338214345276355743408203125">
        <ele>1941.199951171875</ele>
        <time>2026-06-16T09:22:54.000Z</time>
        <extensions>
          <ns3:TrackPointExtension>
            <ns3:atemp>25.0</ns3:atemp>
          </ns3:TrackPointExtension>
        </extensions>
      </trkpt>
      <trkpt lat="42.61893474496901035308837890625" lon="19.88338214345276355743408203125">
        <ele>1941</ele>
        <time>2026-06-16T09:22:55.000Z</time>
        <extensions>
          <ns3:TrackPointExtension>
            <ns3:atemp>25.0</ns3:atemp>
          </ns3:TrackPointExtension>
        </extensions>
      </trkpt>
      <trkpt lat="42.61893474496901035308837890625" lon="19.88338214345276355743408203125">
        <ele>1941</ele>
        <time>2026-06-16T09:22:56.000Z</time>
        <extensions>
          <ns3:TrackPointExtension>
            <ns3:atemp>25.0</ns3:atemp>
          </ns3:TrackPointExtension>
        </extensions>
      </trkpt>
      <trkpt lat="42.61893474496901035308837890625" lon="19.88338214345276355743408203125">
        <ele>1941</ele>
        <time>2026-06-16T09:22:57.000Z</time>
        <extensions>
          <ns3:TrackPointExtension>
            <ns3:atemp>25.0</ns3:atemp>
          </ns3:TrackPointExtension>
        </extensions>
      </trkpt>
      <trkpt lat="42.61893474496901035308837890625" lon="19.88338214345276355743408203125">
        <ele>1941.199951171875</ele>
        <time>2026-06-16T09:22:58.000Z</time>
        <extensions>
          <ns3:TrackPointExtension>
            <ns3:atemp>25.0</ns3:atemp>
          </ns3:TrackPointExtension>
        </extensions>
      </trkpt>
      <trkpt lat="42.61893474496901035308837890625" lon="19.88338214345276355743408203125">
        <ele>1941.199951171875</ele>
        <time>2026-06-16T09:22:59.000Z</time>
        <extensions>
          <ns3:TrackPointExtension>
            <ns3:atemp>25.0</ns3:atemp>
          </ns3:TrackPointExtension>
        </extensions>
      </trkpt>
      <trkpt lat="42.61893474496901035308837890625" lon="19.88338214345276355743408203125">
        <ele>1941</ele>
        <time>2026-06-16T09:23:00.000Z</time>
        <extensions>
          <ns3:TrackPointExtension>
            <ns3:atemp>25.0</ns3:atemp>
          </ns3:TrackPointExtension>
        </extensions>
      </trkpt>
      <trkpt lat="42.61893474496901035308837890625" lon="19.88338214345276355743408203125">
        <ele>1941</ele>
        <time>2026-06-16T09:23:01.000Z</time>
        <extensions>
          <ns3:TrackPointExtension>
            <ns3:atemp>25.0</ns3:atemp>
          </ns3:TrackPointExtension>
        </extensions>
      </trkpt>
      <trkpt lat="42.61893474496901035308837890625" lon="19.88338214345276355743408203125">
        <ele>1941</ele>
        <time>2026-06-16T09:23:02.000Z</time>
        <extensions>
          <ns3:TrackPointExtension>
            <ns3:atemp>25.0</ns3:atemp>
          </ns3:TrackPointExtension>
        </extensions>
      </trkpt>
      <trkpt lat="42.61893474496901035308837890625" lon="19.88338214345276355743408203125">
        <ele>1941</ele>
        <time>2026-06-16T09:23:03.000Z</time>
        <extensions>
          <ns3:TrackPointExtension>
            <ns3:atemp>25.0</ns3:atemp>
          </ns3:TrackPointExtension>
        </extensions>
      </trkpt>
      <trkpt lat="42.61893474496901035308837890625" lon="19.88338214345276355743408203125">
        <ele>1940.800048828125</ele>
        <time>2026-06-16T09:23:04.000Z</time>
        <extensions>
          <ns3:TrackPointExtension>
            <ns3:atemp>25.0</ns3:atemp>
          </ns3:TrackPointExtension>
        </extensions>
      </trkpt>
      <trkpt lat="42.61893340386450290679931640625" lon="19.8833882622420787811279296875">
        <ele>1940.800048828125</ele>
        <time>2026-06-16T09:23:05.000Z</time>
        <extensions>
          <ns3:TrackPointExtension>
            <ns3:atemp>25.0</ns3:atemp>
          </ns3:TrackPointExtension>
        </extensions>
      </trkpt>
      <trkpt lat="42.61894446797668933868408203125" lon="19.8833991587162017822265625">
        <ele>1940.800048828125</ele>
        <time>2026-06-16T09:23:06.000Z</time>
        <extensions>
          <ns3:TrackPointExtension>
            <ns3:atemp>25.0</ns3:atemp>
          </ns3:TrackPointExtension>
        </extensions>
      </trkpt>
      <trkpt lat="42.618956454098224639892578125" lon="19.88340075127780437469482421875">
        <ele>1940.800048828125</ele>
        <time>2026-06-16T09:23:07.000Z</time>
        <extensions>
          <ns3:TrackPointExtension>
            <ns3:atemp>25.0</ns3:atemp>
          </ns3:TrackPointExtension>
        </extensions>
      </trkpt>
      <trkpt lat="42.6189693622291088104248046875" lon="19.88340460695326328277587890625">
        <ele>1940.5999755859375</ele>
        <time>2026-06-16T09:23:08.000Z</time>
        <extensions>
          <ns3:TrackPointExtension>
            <ns3:atemp>25.0</ns3:atemp>
          </ns3:TrackPointExtension>
        </extensions>
      </trkpt>
      <trkpt lat="42.61898403055965900421142578125" lon="19.88340058363974094390869140625">
        <ele>1940.5999755859375</ele>
        <time>2026-06-16T09:23:09.000Z</time>
        <extensions>
          <ns3:TrackPointExtension>
            <ns3:atemp>25.0</ns3:atemp>
          </ns3:TrackPointExtension>
        </extensions>
      </trkpt>
      <trkpt lat="42.61900104582309722900390625" lon="19.883402176201343536376953125">
        <ele>1940.5999755859375</ele>
        <time>2026-06-16T09:23:10.000Z</time>
        <extensions>
          <ns3:TrackPointExtension>
            <ns3:atemp>25.0</ns3:atemp>
          </ns3:TrackPointExtension>
        </extensions>
      </trkpt>
      <trkpt lat="42.61901722289621829986572265625" lon="19.883401505649089813232421875">
        <ele>1940.5999755859375</ele>
        <time>2026-06-16T09:23:11.000Z</time>
        <extensions>
          <ns3:TrackPointExtension>
            <ns3:atemp>25.0</ns3:atemp>
          </ns3:TrackPointExtension>
        </extensions>
      </trkpt>
      <trkpt lat="42.6190347410738468170166015625" lon="19.88340477459132671356201171875">
        <ele>1940.5999755859375</ele>
        <time>2026-06-16T09:23:12.000Z</time>
        <extensions>
          <ns3:TrackPointExtension>
            <ns3:atemp>25.0</ns3:atemp>
          </ns3:TrackPointExtension>
        </extensions>
      </trkpt>
      <trkpt lat="42.61905125342309474945068359375" lon="19.883412234485149383544921875">
        <ele>1940.800048828125</ele>
        <time>2026-06-16T09:23:13.000Z</time>
        <extensions>
          <ns3:TrackPointExtension>
            <ns3:atemp>25.0</ns3:atemp>
          </ns3:TrackPointExtension>
        </extensions>
      </trkpt>
      <trkpt lat="42.61906835250556468963623046875" lon="19.883416593074798583984375">
        <ele>1941</ele>
        <time>2026-06-16T09:23:14.000Z</time>
        <extensions>
          <ns3:TrackPointExtension>
            <ns3:atemp>25.0</ns3:atemp>
          </ns3:TrackPointExtension>
        </extensions>
      </trkpt>
      <trkpt lat="42.61908528394997119903564453125" lon="19.88341994583606719970703125">
        <ele>1941</ele>
        <time>2026-06-16T09:23:15.000Z</time>
        <extensions>
          <ns3:TrackPointExtension>
            <ns3:atemp>25.0</ns3:atemp>
          </ns3:TrackPointExtension>
        </extensions>
      </trkpt>
      <trkpt lat="42.61910472996532917022705078125" lon="19.88342589698731899261474609375">
        <ele>1941.199951171875</ele>
        <time>2026-06-16T09:23:16.000Z</time>
        <extensions>
          <ns3:TrackPointExtension>
            <ns3:atemp>25.0</ns3:atemp>
          </ns3:TrackPointExtension>
        </extensions>
      </trkpt>
      <trkpt lat="42.619121409952640533447265625" lon="19.88343327306210994720458984375">
        <ele>1941.199951171875</ele>
        <time>2026-06-16T09:23:17.000Z</time>
        <extensions>
          <ns3:TrackPointExtension>
            <ns3:atemp>25.0</ns3:atemp>
          </ns3:TrackPointExtension>
        </extensions>
      </trkpt>
      <trkpt lat="42.6191385090351104736328125" lon="19.88344006240367889404296875">
        <ele>1941.4000244140625</ele>
        <time>2026-06-16T09:23:18.000Z</time>
        <extensions>
          <ns3:TrackPointExtension>
            <ns3:atemp>25.0</ns3:atemp>
          </ns3:TrackPointExtension>
        </extensions>
      </trkpt>
      <trkpt lat="42.61915686540305614471435546875" lon="19.88344416953623294830322265625">
        <ele>1941.4000244140625</ele>
        <time>2026-06-16T09:23:19.000Z</time>
        <extensions>
          <ns3:TrackPointExtension>
            <ns3:atemp>25.0</ns3:atemp>
          </ns3:TrackPointExtension>
        </extensions>
      </trkpt>
      <trkpt lat="42.6191762275993824005126953125" lon="19.8834489472210407257080078125">
        <ele>1941.5999755859375</ele>
        <time>2026-06-16T09:23:20.000Z</time>
        <extensions>
          <ns3:TrackPointExtension>
            <ns3:atemp>25.0</ns3:atemp>
          </ns3:TrackPointExtension>
        </extensions>
      </trkpt>
      <trkpt lat="42.61919324286282062530517578125" lon="19.8834528028964996337890625">
        <ele>1941.800048828125</ele>
        <time>2026-06-16T09:23:21.000Z</time>
        <extensions>
          <ns3:TrackPointExtension>
            <ns3:atemp>25.0</ns3:atemp>
          </ns3:TrackPointExtension>
        </extensions>
      </trkpt>
      <trkpt lat="42.61920933611690998077392578125" lon="19.8834579996764659881591796875">
        <ele>1942</ele>
        <time>2026-06-16T09:23:22.000Z</time>
        <extensions>
          <ns3:TrackPointExtension>
            <ns3:atemp>25.0</ns3:atemp>
          </ns3:TrackPointExtension>
        </extensions>
      </trkpt>
      <trkpt lat="42.61922576464712619781494140625" lon="19.88345942460000514984130859375">
        <ele>1942.199951171875</ele>
        <time>2026-06-16T09:23:23.000Z</time>
        <extensions>
          <ns3:TrackPointExtension>
            <ns3:atemp>25.0</ns3:atemp>
          </ns3:TrackPointExtension>
        </extensions>
      </trkpt>
      <trkpt lat="42.61924236081540584564208984375" lon="19.88345942460000514984130859375">
        <ele>1942.4000244140625</ele>
        <time>2026-06-16T09:23:24.000Z</time>
        <extensions>
          <ns3:TrackPointExtension>
            <ns3:atemp>25.0</ns3:atemp>
          </ns3:TrackPointExtension>
        </extensions>
      </trkpt>
      <trkpt lat="42.61926013045012950897216796875" lon="19.88345640711486339569091796875">
        <ele>1942.5999755859375</ele>
        <time>2026-06-16T09:23:25.000Z</time>
        <extensions>
          <ns3:TrackPointExtension>
            <ns3:atemp>25.0</ns3:atemp>
          </ns3:TrackPointExtension>
        </extensions>
      </trkpt>
      <trkpt lat="42.61927865445613861083984375" lon="19.8834533058106899261474609375">
        <ele>1942.800048828125</ele>
        <time>2026-06-16T09:23:26.000Z</time>
        <extensions>
          <ns3:TrackPointExtension>
            <ns3:atemp>25.0</ns3:atemp>
          </ns3:TrackPointExtension>
        </extensions>
      </trkpt>
      <trkpt lat="42.61929365806281566619873046875" lon="19.883449785411357879638671875">
        <ele>1943</ele>
        <time>2026-06-16T09:23:27.000Z</time>
        <extensions>
          <ns3:TrackPointExtension>
            <ns3:atemp>25.0</ns3:atemp>
          </ns3:TrackPointExtension>
        </extensions>
      </trkpt>
      <trkpt lat="42.61930706910789012908935546875" lon="19.88344785757362842559814453125">
        <ele>1943</ele>
        <time>2026-06-16T09:23:28.000Z</time>
        <extensions>
          <ns3:TrackPointExtension>
            <ns3:atemp>25.0</ns3:atemp>
          </ns3:TrackPointExtension>
        </extensions>
      </trkpt>
      <trkpt lat="42.61932148598134517669677734375" lon="19.8834492824971675872802734375">
        <ele>1943.199951171875</ele>
        <time>2026-06-16T09:23:29.000Z</time>
        <extensions>
          <ns3:TrackPointExtension>
            <ns3:atemp>25.0</ns3:atemp>
          </ns3:TrackPointExtension>
        </extensions>
      </trkpt>
      <trkpt lat="42.6193334721028804779052734375" lon="19.88344886340200901031494140625">
        <ele>1943.4000244140625</ele>
        <time>2026-06-16T09:23:30.000Z</time>
        <extensions>
          <ns3:TrackPointExtension>
            <ns3:atemp>25.0</ns3:atemp>
          </ns3:TrackPointExtension>
        </extensions>
      </trkpt>
      <trkpt lat="42.6193438656628131866455078125" lon="19.8834506236016750335693359375">
        <ele>1943.5999755859375</ele>
        <time>2026-06-16T09:23:31.000Z</time>
        <extensions>
          <ns3:TrackPointExtension>
            <ns3:atemp>25.0</ns3:atemp>
          </ns3:TrackPointExtension>
        </extensions>
      </trkpt>
      <trkpt lat="42.61934998445212841033935546875" lon="19.883444420993328094482421875">
        <ele>1943.800048828125</ele>
        <time>2026-06-16T09:23:32.000Z</time>
        <extensions>
          <ns3:TrackPointExtension>
            <ns3:atemp>25.0</ns3:atemp>
          </ns3:TrackPointExtension>
        </extensions>
      </trkpt>
      <trkpt lat="42.619356773793697357177734375" lon="19.88344500772655010223388671875">
        <ele>1944</ele>
        <time>2026-06-16T09:23:33.000Z</time>
        <extensions>
          <ns3:TrackPointExtension>
            <ns3:atemp>25.0</ns3:atemp>
          </ns3:TrackPointExtension>
        </extensions>
      </trkpt>
      <trkpt lat="42.61935668997466564178466796875" lon="19.88344500772655010223388671875">
        <ele>1944.199951171875</ele>
        <time>2026-06-16T09:23:34.000Z</time>
        <extensions>
          <ns3:TrackPointExtension>
            <ns3:atemp>25.0</ns3:atemp>
          </ns3:TrackPointExtension>
        </extensions>
      </trkpt>
      <trkpt lat="42.61935350485146045684814453125" lon="19.88344685174524784088134765625">
        <ele>1944.5999755859375</ele>
        <time>2026-06-16T09:23:35.000Z</time>
        <extensions>
          <ns3:TrackPointExtension>
            <ns3:atemp>24.0</ns3:atemp>
          </ns3:TrackPointExtension>
        </extensions>
      </trkpt>
      <trkpt lat="42.61935350485146045684814453125" lon="19.88344685174524784088134765625">
        <ele>1944.800048828125</ele>
        <time>2026-06-16T09:23:36.000Z</time>
        <extensions>
          <ns3:TrackPointExtension>
            <ns3:atemp>24.0</ns3:atemp>
          </ns3:TrackPointExtension>
        </extensions>
      </trkpt>
      <trkpt lat="42.61935350485146045684814453125" lon="19.88344685174524784088134765625">
        <ele>1944.800048828125</ele>
        <time>2026-06-16T09:23:37.000Z</time>
        <extensions>
          <ns3:TrackPointExtension>
            <ns3:atemp>24.0</ns3:atemp>
          </ns3:TrackPointExtension>
        </extensions>
      </trkpt>
      <trkpt lat="42.6193530857563018798828125" lon="19.8834474384784698486328125">
        <ele>1944.800048828125</ele>
        <time>2026-06-16T09:23:38.000Z</time>
        <extensions>
          <ns3:TrackPointExtension>
            <ns3:atemp>25.0</ns3:atemp>
          </ns3:TrackPointExtension>
        </extensions>
      </trkpt>
      <trkpt lat="42.61935350485146045684814453125" lon="19.88344685174524784088134765625">
        <ele>1944.800048828125</ele>
        <time>2026-06-16T09:23:39.000Z</time>
        <extensions>
          <ns3:TrackPointExtension>
            <ns3:atemp>25.0</ns3:atemp>
          </ns3:TrackPointExtension>
        </extensions>
      </trkpt>
      <trkpt lat="42.61935350485146045684814453125" lon="19.88344685174524784088134765625">
        <ele>1944.5999755859375</ele>
        <time>2026-06-16T09:23:40.000Z</time>
        <extensions>
          <ns3:TrackPointExtension>
            <ns3:atemp>24.0</ns3:atemp>
          </ns3:TrackPointExtension>
        </extensions>
      </trkpt>
      <trkpt lat="42.61935350485146045684814453125" lon="19.88344685174524784088134765625">
        <ele>1944.4000244140625</ele>
        <time>2026-06-16T09:23:41.000Z</time>
        <extensions>
          <ns3:TrackPointExtension>
            <ns3:atemp>24.0</ns3:atemp>
          </ns3:TrackPointExtension>
        </extensions>
      </trkpt>
      <trkpt lat="42.61935350485146045684814453125" lon="19.88344685174524784088134765625">
        <ele>1944.4000244140625</ele>
        <time>2026-06-16T09:23:42.000Z</time>
        <extensions>
          <ns3:TrackPointExtension>
            <ns3:atemp>24.0</ns3:atemp>
          </ns3:TrackPointExtension>
        </extensions>
      </trkpt>
      <trkpt lat="42.61935350485146045684814453125" lon="19.88344685174524784088134765625">
        <ele>1944.4000244140625</ele>
        <time>2026-06-16T09:23:43.000Z</time>
        <extensions>
          <ns3:TrackPointExtension>
            <ns3:atemp>24.0</ns3:atemp>
          </ns3:TrackPointExtension>
        </extensions>
      </trkpt>
      <trkpt lat="42.61935350485146045684814453125" lon="19.88344685174524784088134765625">
        <ele>1944.199951171875</ele>
        <time>2026-06-16T09:23:44.000Z</time>
        <extensions>
          <ns3:TrackPointExtension>
            <ns3:atemp>24.0</ns3:atemp>
          </ns3:TrackPointExtension>
        </extensions>
      </trkpt>
      <trkpt lat="42.61935350485146045684814453125" lon="19.88344685174524784088134765625">
        <ele>1944.199951171875</ele>
        <time>2026-06-16T09:23:45.000Z</time>
        <extensions>
          <ns3:TrackPointExtension>
            <ns3:atemp>24.0</ns3:atemp>
          </ns3:TrackPointExtension>
        </extensions>
      </trkpt>
      <trkpt lat="42.61935350485146045684814453125" lon="19.88344685174524784088134765625">
        <ele>1944.199951171875</ele>
        <time>2026-06-16T09:23:46.000Z</time>
        <extensions>
          <ns3:TrackPointExtension>
            <ns3:atemp>24.0</ns3:atemp>
          </ns3:TrackPointExtension>
        </extensions>
      </trkpt>
      <trkpt lat="42.6193442009389400482177734375" lon="19.88345481455326080322265625">
        <ele>1944.199951171875</ele>
        <time>2026-06-16T09:23:47.000Z</time>
        <extensions>
          <ns3:TrackPointExtension>
            <ns3:atemp>24.0</ns3:atemp>
          </ns3:TrackPointExtension>
        </extensions>
      </trkpt>
      <trkpt lat="42.61933020316064357757568359375" lon="19.883462525904178619384765625">
        <ele>1944.199951171875</ele>
        <time>2026-06-16T09:23:48.000Z</time>
        <extensions>
          <ns3:TrackPointExtension>
            <ns3:atemp>24.0</ns3:atemp>
          </ns3:TrackPointExtension>
        </extensions>
      </trkpt>
      <trkpt lat="42.61932668276131153106689453125" lon="19.88346311263740062713623046875">
        <ele>1944.199951171875</ele>
        <time>2026-06-16T09:23:49.000Z</time>
        <extensions>
          <ns3:TrackPointExtension>
            <ns3:atemp>24.0</ns3:atemp>
          </ns3:TrackPointExtension>
        </extensions>
      </trkpt>
      <trkpt lat="42.6193267665803432464599609375" lon="19.8834630288183689117431640625">
        <ele>1944.199951171875</ele>
        <time>2026-06-16T09:23:50.000Z</time>
        <extensions>
          <ns3:TrackPointExtension>
            <ns3:atemp>24.0</ns3:atemp>
          </ns3:TrackPointExtension>
        </extensions>
      </trkpt>
      <trkpt lat="42.6193267665803432464599609375" lon="19.8834630288183689117431640625">
        <ele>1944.199951171875</ele>
        <time>2026-06-16T09:23:51.000Z</time>
        <extensions>
          <ns3:TrackPointExtension>
            <ns3:atemp>24.0</ns3:atemp>
          </ns3:TrackPointExtension>
        </extensions>
      </trkpt>
      <trkpt lat="42.6193267665803432464599609375" lon="19.8834630288183689117431640625">
        <ele>1944</ele>
        <time>2026-06-16T09:23:52.000Z</time>
        <extensions>
          <ns3:TrackPointExtension>
            <ns3:atemp>24.0</ns3:atemp>
          </ns3:TrackPointExtension>
        </extensions>
      </trkpt>
      <trkpt lat="42.6193267665803432464599609375" lon="19.8834630288183689117431640625">
        <ele>1944</ele>
        <time>2026-06-16T09:23:53.000Z</time>
        <extensions>
          <ns3:TrackPointExtension>
            <ns3:atemp>24.0</ns3:atemp>
          </ns3:TrackPointExtension>
        </extensions>
      </trkpt>
      <trkpt lat="42.6193267665803432464599609375" lon="19.8834630288183689117431640625">
        <ele>1944</ele>
        <time>2026-06-16T09:23:54.000Z</time>
        <extensions>
          <ns3:TrackPointExtension>
            <ns3:atemp>24.0</ns3:atemp>
          </ns3:TrackPointExtension>
        </extensions>
      </trkpt>
      <trkpt lat="42.6193267665803432464599609375" lon="19.8834630288183689117431640625">
        <ele>1944</ele>
        <time>2026-06-16T09:23:55.000Z</time>
        <extensions>
          <ns3:TrackPointExtension>
            <ns3:atemp>24.0</ns3:atemp>
          </ns3:TrackPointExtension>
        </extensions>
      </trkpt>
      <trkpt lat="42.6193267665803432464599609375" lon="19.8834630288183689117431640625">
        <ele>1944</ele>
        <time>2026-06-16T09:23:56.000Z</time>
        <extensions>
          <ns3:TrackPointExtension>
            <ns3:atemp>24.0</ns3:atemp>
          </ns3:TrackPointExtension>
        </extensions>
      </trkpt>
      <trkpt lat="42.6193267665803432464599609375" lon="19.8834630288183689117431640625">
        <ele>1944</ele>
        <time>2026-06-16T09:23:57.000Z</time>
        <extensions>
          <ns3:TrackPointExtension>
            <ns3:atemp>24.0</ns3:atemp>
          </ns3:TrackPointExtension>
        </extensions>
      </trkpt>
      <trkpt lat="42.6193267665803432464599609375" lon="19.8834630288183689117431640625">
        <ele>1944</ele>
        <time>2026-06-16T09:23:58.000Z</time>
        <extensions>
          <ns3:TrackPointExtension>
            <ns3:atemp>24.0</ns3:atemp>
          </ns3:TrackPointExtension>
        </extensions>
      </trkpt>
      <trkpt lat="42.6193267665803432464599609375" lon="19.8834630288183689117431640625">
        <ele>1944</ele>
        <time>2026-06-16T09:23:59.000Z</time>
        <extensions>
          <ns3:TrackPointExtension>
            <ns3:atemp>24.0</ns3:atemp>
          </ns3:TrackPointExtension>
        </extensions>
      </trkpt>
      <trkpt lat="42.6193267665803432464599609375" lon="19.8834630288183689117431640625">
        <ele>1944</ele>
        <time>2026-06-16T09:24:00.000Z</time>
        <extensions>
          <ns3:TrackPointExtension>
            <ns3:atemp>24.0</ns3:atemp>
          </ns3:TrackPointExtension>
        </extensions>
      </trkpt>
      <trkpt lat="42.6193267665803432464599609375" lon="19.8834630288183689117431640625">
        <ele>1944</ele>
        <time>2026-06-16T09:24:01.000Z</time>
        <extensions>
          <ns3:TrackPointExtension>
            <ns3:atemp>24.0</ns3:atemp>
          </ns3:TrackPointExtension>
        </extensions>
      </trkpt>
      <trkpt lat="42.6193267665803432464599609375" lon="19.8834630288183689117431640625">
        <ele>1944</ele>
        <time>2026-06-16T09:24:02.000Z</time>
        <extensions>
          <ns3:TrackPointExtension>
            <ns3:atemp>24.0</ns3:atemp>
          </ns3:TrackPointExtension>
        </extensions>
      </trkpt>
      <trkpt lat="42.6193267665803432464599609375" lon="19.8834630288183689117431640625">
        <ele>1944</ele>
        <time>2026-06-16T09:24:03.000Z</time>
        <extensions>
          <ns3:TrackPointExtension>
            <ns3:atemp>24.0</ns3:atemp>
          </ns3:TrackPointExtension>
        </extensions>
      </trkpt>
      <trkpt lat="42.6193267665803432464599609375" lon="19.8834630288183689117431640625">
        <ele>1944</ele>
        <time>2026-06-16T09:24:04.000Z</time>
        <extensions>
          <ns3:TrackPointExtension>
            <ns3:atemp>24.0</ns3:atemp>
          </ns3:TrackPointExtension>
        </extensions>
      </trkpt>
      <trkpt lat="42.6193267665803432464599609375" lon="19.8834630288183689117431640625">
        <ele>1944</ele>
        <time>2026-06-16T09:24:05.000Z</time>
        <extensions>
          <ns3:TrackPointExtension>
            <ns3:atemp>24.0</ns3:atemp>
          </ns3:TrackPointExtension>
        </extensions>
      </trkpt>
      <trkpt lat="42.61932517401874065399169921875" lon="19.88345758058130741119384765625">
        <ele>1944</ele>
        <time>2026-06-16T09:24:06.000Z</time>
        <extensions>
          <ns3:TrackPointExtension>
            <ns3:atemp>24.0</ns3:atemp>
          </ns3:TrackPointExtension>
        </extensions>
      </trkpt>
      <trkpt lat="42.6192996092140674591064453125" lon="19.88345204852521419525146484375">
        <ele>1944</ele>
        <time>2026-06-16T09:24:07.000Z</time>
        <extensions>
          <ns3:TrackPointExtension>
            <ns3:atemp>24.0</ns3:atemp>
          </ns3:TrackPointExtension>
        </extensions>
      </trkpt>
      <trkpt lat="42.61927999556064605712890625" lon="19.8834566585719585418701171875">
        <ele>1943.800048828125</ele>
        <time>2026-06-16T09:24:08.000Z</time>
        <extensions>
          <ns3:TrackPointExtension>
            <ns3:atemp>24.0</ns3:atemp>
          </ns3:TrackPointExtension>
        </extensions>
      </trkpt>
      <trkpt lat="42.619260214269161224365234375" lon="19.88345623947679996490478515625">
        <ele>1943.5999755859375</ele>
        <time>2026-06-16T09:24:09.000Z</time>
        <extensions>
          <ns3:TrackPointExtension>
            <ns3:atemp>24.0</ns3:atemp>
          </ns3:TrackPointExtension>
        </extensions>
      </trkpt>
      <trkpt lat="42.61923649348318576812744140625" lon="19.883451126515865325927734375">
        <ele>1943.4000244140625</ele>
        <time>2026-06-16T09:24:10.000Z</time>
        <extensions>
          <ns3:TrackPointExtension>
            <ns3:atemp>24.0</ns3:atemp>
          </ns3:TrackPointExtension>
        </extensions>
      </trkpt>
      <trkpt lat="42.61920866556465625762939453125" lon="19.8834412358701229095458984375">
        <ele>1943</ele>
        <time>2026-06-16T09:24:11.000Z</time>
        <extensions>
          <ns3:TrackPointExtension>
            <ns3:atemp>24.0</ns3:atemp>
          </ns3:TrackPointExtension>
        </extensions>
      </trkpt>
      <trkpt lat="42.61917941272258758544921875" lon="19.8834368772804737091064453125">
        <ele>1942.5999755859375</ele>
        <time>2026-06-16T09:24:12.000Z</time>
        <extensions>
          <ns3:TrackPointExtension>
            <ns3:atemp>24.0</ns3:atemp>
          </ns3:TrackPointExtension>
        </extensions>
      </trkpt>
      <trkpt lat="42.61914588510990142822265625" lon="19.88342908211052417755126953125">
        <ele>1942.4000244140625</ele>
        <time>2026-06-16T09:24:13.000Z</time>
        <extensions>
          <ns3:TrackPointExtension>
            <ns3:atemp>24.0</ns3:atemp>
          </ns3:TrackPointExtension>
        </extensions>
      </trkpt>
      <trkpt lat="42.61911193840205669403076171875" lon="19.8834231309592723846435546875">
        <ele>1942.199951171875</ele>
        <time>2026-06-16T09:24:14.000Z</time>
        <extensions>
          <ns3:TrackPointExtension>
            <ns3:atemp>24.0</ns3:atemp>
          </ns3:TrackPointExtension>
        </extensions>
      </trkpt>
      <trkpt lat="42.6190786622464656829833984375" lon="19.88341382704675197601318359375">
        <ele>1942.199951171875</ele>
        <time>2026-06-16T09:24:15.000Z</time>
        <extensions>
          <ns3:TrackPointExtension>
            <ns3:atemp>24.0</ns3:atemp>
          </ns3:TrackPointExtension>
        </extensions>
      </trkpt>
      <trkpt lat="42.61904739774763584136962890625" lon="19.88340410403907299041748046875">
        <ele>1942</ele>
        <time>2026-06-16T09:24:16.000Z</time>
        <extensions>
          <ns3:TrackPointExtension>
            <ns3:atemp>24.0</ns3:atemp>
          </ns3:TrackPointExtension>
        </extensions>
      </trkpt>
      <trkpt lat="42.61901487596333026885986328125" lon="19.88339907489717006683349609375">
        <ele>1942</ele>
        <time>2026-06-16T09:24:17.000Z</time>
        <extensions>
          <ns3:TrackPointExtension>
            <ns3:atemp>24.0</ns3:atemp>
          </ns3:TrackPointExtension>
        </extensions>
      </trkpt>
      <trkpt lat="42.618978582322597503662109375" lon="19.88339102827012538909912109375">
        <ele>1941.800048828125</ele>
        <time>2026-06-16T09:24:18.000Z</time>
        <extensions>
          <ns3:TrackPointExtension>
            <ns3:atemp>24.0</ns3:atemp>
          </ns3:TrackPointExtension>
        </extensions>
      </trkpt>
      <trkpt lat="42.6189422048628330230712890625" lon="19.88337728194892406463623046875">
        <ele>1941.5999755859375</ele>
        <time>2026-06-16T09:24:19.000Z</time>
        <extensions>
          <ns3:TrackPointExtension>
            <ns3:atemp>24.0</ns3:atemp>
          </ns3:TrackPointExtension>
        </extensions>
      </trkpt>
      <trkpt lat="42.618912868201732635498046875" lon="19.88335750065743923187255859375">
        <ele>1941.4000244140625</ele>
        <time>2026-06-16T09:24:20.000Z</time>
        <extensions>
          <ns3:TrackPointExtension>
            <ns3:atemp>24.0</ns3:atemp>
          </ns3:TrackPointExtension>
        </extensions>
      </trkpt>
      <trkpt lat="42.61888193897902965545654296875" lon="19.8833294212818145751953125">
        <ele>1941.199951171875</ele>
        <time>2026-06-16T09:24:21.000Z</time>
        <extensions>
          <ns3:TrackPointExtension>
            <ns3:atemp>24.0</ns3:atemp>
          </ns3:TrackPointExtension>
        </extensions>
      </trkpt>
      <trkpt lat="42.61884874664247035980224609375" lon="19.88330997526645660400390625">
        <ele>1941</ele>
        <time>2026-06-16T09:24:22.000Z</time>
        <extensions>
          <ns3:TrackPointExtension>
            <ns3:atemp>24.0</ns3:atemp>
          </ns3:TrackPointExtension>
        </extensions>
      </trkpt>
      <trkpt lat="42.61880918405950069427490234375" lon="19.88329078070819377899169921875">
        <ele>1940.800048828125</ele>
        <time>2026-06-16T09:24:23.000Z</time>
        <extensions>
          <ns3:TrackPointExtension>
            <ns3:atemp>24.0</ns3:atemp>
          </ns3:TrackPointExtension>
        </extensions>
      </trkpt>
      <trkpt lat="42.61876895092427730560302734375" lon="19.8832757771015167236328125">
        <ele>1940.4000244140625</ele>
        <time>2026-06-16T09:24:24.000Z</time>
        <extensions>
          <ns3:TrackPointExtension>
            <ns3:atemp>24.0</ns3:atemp>
          </ns3:TrackPointExtension>
        </extensions>
      </trkpt>
      <trkpt lat="42.61872938834130764007568359375" lon="19.8832690715789794921875">
        <ele>1940.199951171875</ele>
        <time>2026-06-16T09:24:25.000Z</time>
        <extensions>
          <ns3:TrackPointExtension>
            <ns3:atemp>24.0</ns3:atemp>
          </ns3:TrackPointExtension>
        </extensions>
      </trkpt>
      <trkpt lat="42.61869166977703571319580078125" lon="19.8832719214260578155517578125">
        <ele>1939.800048828125</ele>
        <time>2026-06-16T09:24:26.000Z</time>
        <extensions>
          <ns3:TrackPointExtension>
            <ns3:atemp>24.0</ns3:atemp>
          </ns3:TrackPointExtension>
        </extensions>
      </trkpt>
      <trkpt lat="42.618656046688556671142578125" lon="19.88327736966311931610107421875">
        <ele>1939.800048828125</ele>
        <time>2026-06-16T09:24:27.000Z</time>
        <extensions>
          <ns3:TrackPointExtension>
            <ns3:atemp>24.0</ns3:atemp>
          </ns3:TrackPointExtension>
        </extensions>
      </trkpt>
      <trkpt lat="42.61862226761877536773681640625" lon="19.88328927196562290191650390625">
        <ele>1939.5999755859375</ele>
        <time>2026-06-16T09:24:28.000Z</time>
        <extensions>
          <ns3:TrackPointExtension>
            <ns3:atemp>24.0</ns3:atemp>
          </ns3:TrackPointExtension>
        </extensions>
      </trkpt>
      <trkpt lat="42.61859200894832611083984375" lon="19.88329933024942874908447265625">
        <ele>1939.4000244140625</ele>
        <time>2026-06-16T09:24:29.000Z</time>
        <extensions>
          <ns3:TrackPointExtension>
            <ns3:atemp>24.0</ns3:atemp>
          </ns3:TrackPointExtension>
        </extensions>
      </trkpt>
      <trkpt lat="42.6185640133917331695556640625" lon="19.88331408239901065826416015625">
        <ele>1939.4000244140625</ele>
        <time>2026-06-16T09:24:30.000Z</time>
        <extensions>
          <ns3:TrackPointExtension>
            <ns3:atemp>24.0</ns3:atemp>
          </ns3:TrackPointExtension>
        </extensions>
      </trkpt>
      <trkpt lat="42.61853945441544055938720703125" lon="19.88332849927246570587158203125">
        <ele>1939.199951171875</ele>
        <time>2026-06-16T09:24:31.000Z</time>
        <extensions>
          <ns3:TrackPointExtension>
            <ns3:atemp>24.0</ns3:atemp>
          </ns3:TrackPointExtension>
        </extensions>
      </trkpt>
      <trkpt lat="42.61851749382913112640380859375" lon="19.883341826498508453369140625">
        <ele>1939.199951171875</ele>
        <time>2026-06-16T09:24:32.000Z</time>
        <extensions>
          <ns3:TrackPointExtension>
            <ns3:atemp>24.0</ns3:atemp>
          </ns3:TrackPointExtension>
        </extensions>
      </trkpt>
      <trkpt lat="42.6184982992708683013916015625" lon="19.8833537288010120391845703125">
        <ele>1939.199951171875</ele>
        <time>2026-06-16T09:24:33.000Z</time>
        <extensions>
          <ns3:TrackPointExtension>
            <ns3:atemp>24.0</ns3:atemp>
          </ns3:TrackPointExtension>
        </extensions>
      </trkpt>
      <trkpt lat="42.6184818707406520843505859375" lon="19.8833704926073551177978515625">
        <ele>1939</ele>
        <time>2026-06-16T09:24:34.000Z</time>
        <extensions>
          <ns3:TrackPointExtension>
            <ns3:atemp>24.0</ns3:atemp>
          </ns3:TrackPointExtension>
        </extensions>
      </trkpt>
      <trkpt lat="42.618462257087230682373046875" lon="19.8833875916898250579833984375">
        <ele>1939</ele>
        <time>2026-06-16T09:24:35.000Z</time>
        <extensions>
          <ns3:TrackPointExtension>
            <ns3:atemp>24.0</ns3:atemp>
          </ns3:TrackPointExtension>
        </extensions>
      </trkpt>
      <trkpt lat="42.6184426434338092803955078125" lon="19.8834023438394069671630859375">
        <ele>1939</ele>
        <time>2026-06-16T09:24:36.000Z</time>
        <extensions>
          <ns3:TrackPointExtension>
            <ns3:atemp>24.0</ns3:atemp>
          </ns3:TrackPointExtension>
        </extensions>
      </trkpt>
      <trkpt lat="42.61842437088489532470703125" lon="19.883415587246417999267578125">
        <ele>1938.800048828125</ele>
        <time>2026-06-16T09:24:37.000Z</time>
        <extensions>
          <ns3:TrackPointExtension>
            <ns3:atemp>24.0</ns3:atemp>
          </ns3:TrackPointExtension>
        </extensions>
      </trkpt>
      <trkpt lat="42.61840400286018848419189453125" lon="19.88342975266277790069580078125">
        <ele>1938.800048828125</ele>
        <time>2026-06-16T09:24:38.000Z</time>
        <extensions>
          <ns3:TrackPointExtension>
            <ns3:atemp>24.0</ns3:atemp>
          </ns3:TrackPointExtension>
        </extensions>
      </trkpt>
      <trkpt lat="42.618386484682559967041015625" lon="19.88344551064074039459228515625">
        <ele>1938.800048828125</ele>
        <time>2026-06-16T09:24:39.000Z</time>
        <extensions>
          <ns3:TrackPointExtension>
            <ns3:atemp>24.0</ns3:atemp>
          </ns3:TrackPointExtension>
        </extensions>
      </trkpt>
      <trkpt lat="42.6183675415813922882080078125" lon="19.88345808349549770355224609375">
        <ele>1938.800048828125</ele>
        <time>2026-06-16T09:24:40.000Z</time>
        <extensions>
          <ns3:TrackPointExtension>
            <ns3:atemp>24.0</ns3:atemp>
          </ns3:TrackPointExtension>
        </extensions>
      </trkpt>
      <trkpt lat="42.61835102923214435577392578125" lon="19.883470572531223297119140625">
        <ele>1938.800048828125</ele>
        <time>2026-06-16T09:24:41.000Z</time>
        <extensions>
          <ns3:TrackPointExtension>
            <ns3:atemp>24.0</ns3:atemp>
          </ns3:TrackPointExtension>
        </extensions>
      </trkpt>
      <trkpt lat="42.61833510361611843109130859375" lon="19.88348725251853466033935546875">
        <ele>1939</ele>
        <time>2026-06-16T09:24:42.000Z</time>
        <extensions>
          <ns3:TrackPointExtension>
            <ns3:atemp>24.0</ns3:atemp>
          </ns3:TrackPointExtension>
        </extensions>
      </trkpt>
      <trkpt lat="42.618319429457187652587890625" lon="19.88350099883973598480224609375">
        <ele>1939</ele>
        <time>2026-06-16T09:24:43.000Z</time>
        <extensions>
          <ns3:TrackPointExtension>
            <ns3:atemp>24.0</ns3:atemp>
          </ns3:TrackPointExtension>
        </extensions>
      </trkpt>
      <trkpt lat="42.61830777861177921295166015625" lon="19.8835153318941593170166015625">
        <ele>1939.199951171875</ele>
        <time>2026-06-16T09:24:44.000Z</time>
        <extensions>
          <ns3:TrackPointExtension>
            <ns3:atemp>24.0</ns3:atemp>
          </ns3:TrackPointExtension>
        </extensions>
      </trkpt>
      <trkpt lat="42.61829160153865814208984375" lon="19.88353502936661243438720703125">
        <ele>1939.199951171875</ele>
        <time>2026-06-16T09:24:45.000Z</time>
        <extensions>
          <ns3:TrackPointExtension>
            <ns3:atemp>24.0</ns3:atemp>
          </ns3:TrackPointExtension>
        </extensions>
      </trkpt>
      <trkpt lat="42.618276178836822509765625" lon="19.88355179317295551300048828125">
        <ele>1939.4000244140625</ele>
        <time>2026-06-16T09:24:46.000Z</time>
        <extensions>
          <ns3:TrackPointExtension>
            <ns3:atemp>24.0</ns3:atemp>
          </ns3:TrackPointExtension>
        </extensions>
      </trkpt>
      <trkpt lat="42.61826117523014545440673828125" lon="19.8835672996938228607177734375">
        <ele>1939.4000244140625</ele>
        <time>2026-06-16T09:24:47.000Z</time>
        <extensions>
          <ns3:TrackPointExtension>
            <ns3:atemp>24.0</ns3:atemp>
          </ns3:TrackPointExtension>
        </extensions>
      </trkpt>
      <trkpt lat="42.61824809946119785308837890625" lon="19.883580543100833892822265625">
        <ele>1939.4000244140625</ele>
        <time>2026-06-16T09:24:48.000Z</time>
        <extensions>
          <ns3:TrackPointExtension>
            <ns3:atemp>24.0</ns3:atemp>
          </ns3:TrackPointExtension>
        </extensions>
      </trkpt>
      <trkpt lat="42.61823125183582305908203125" lon="19.8835937865078449249267578125">
        <ele>1939.4000244140625</ele>
        <time>2026-06-16T09:24:49.000Z</time>
        <extensions>
          <ns3:TrackPointExtension>
            <ns3:atemp>24.0</ns3:atemp>
          </ns3:TrackPointExtension>
        </extensions>
      </trkpt>
      <trkpt lat="42.61821893043816089630126953125" lon="19.88360895775258541107177734375">
        <ele>1939.5999755859375</ele>
        <time>2026-06-16T09:24:50.000Z</time>
        <extensions>
          <ns3:TrackPointExtension>
            <ns3:atemp>24.0</ns3:atemp>
          </ns3:TrackPointExtension>
        </extensions>
      </trkpt>
      <trkpt lat="42.61820669285953044891357421875" lon="19.8836192674934864044189453125">
        <ele>1939.800048828125</ele>
        <time>2026-06-16T09:24:51.000Z</time>
        <extensions>
          <ns3:TrackPointExtension>
            <ns3:atemp>24.0</ns3:atemp>
          </ns3:TrackPointExtension>
        </extensions>
      </trkpt>
      <trkpt lat="42.6181942038238048553466796875" lon="19.8836246319115161895751953125">
        <ele>1940</ele>
        <time>2026-06-16T09:24:52.000Z</time>
        <extensions>
          <ns3:TrackPointExtension>
            <ns3:atemp>24.0</ns3:atemp>
          </ns3:TrackPointExtension>
        </extensions>
      </trkpt>
      <trkpt lat="42.61818037368357181549072265625" lon="19.88362236879765987396240234375">
        <ele>1940.4000244140625</ele>
        <time>2026-06-16T09:24:53.000Z</time>
        <extensions>
          <ns3:TrackPointExtension>
            <ns3:atemp>24.0</ns3:atemp>
          </ns3:TrackPointExtension>
        </extensions>
      </trkpt>
      <trkpt lat="42.618164531886577606201171875" lon="19.8836232908070087432861328125">
        <ele>1940.800048828125</ele>
        <time>2026-06-16T09:24:54.000Z</time>
        <extensions>
          <ns3:TrackPointExtension>
            <ns3:atemp>24.0</ns3:atemp>
          </ns3:TrackPointExtension>
        </extensions>
      </trkpt>
      <trkpt lat="42.6181460916996002197265625" lon="19.88362672738730907440185546875">
        <ele>1941</ele>
        <time>2026-06-16T09:24:55.000Z</time>
        <extensions>
          <ns3:TrackPointExtension>
            <ns3:atemp>24.0</ns3:atemp>
          </ns3:TrackPointExtension>
        </extensions>
      </trkpt>
      <trkpt lat="42.61812907643616199493408203125" lon="19.88363292999565601348876953125">
        <ele>1941.4000244140625</ele>
        <time>2026-06-16T09:24:56.000Z</time>
        <extensions>
          <ns3:TrackPointExtension>
            <ns3:atemp>24.0</ns3:atemp>
          </ns3:TrackPointExtension>
        </extensions>
      </trkpt>
      <trkpt lat="42.618107534945011138916015625" lon="19.88364231772720813751220703125">
        <ele>1941.5999755859375</ele>
        <time>2026-06-16T09:24:57.000Z</time>
        <extensions>
          <ns3:TrackPointExtension>
            <ns3:atemp>24.0</ns3:atemp>
          </ns3:TrackPointExtension>
        </extensions>
      </trkpt>
      <trkpt lat="42.61809672228991985321044921875" lon="19.88363913260400295257568359375">
        <ele>1942</ele>
        <time>2026-06-16T09:24:58.000Z</time>
        <extensions>
          <ns3:TrackPointExtension>
            <ns3:atemp>24.0</ns3:atemp>
          </ns3:TrackPointExtension>
        </extensions>
      </trkpt>
      <trkpt lat="42.61808616109192371368408203125" lon="19.8836326785385608673095703125">
        <ele>1942.199951171875</ele>
        <time>2026-06-16T09:24:59.000Z</time>
        <extensions>
          <ns3:TrackPointExtension>
            <ns3:atemp>24.0</ns3:atemp>
          </ns3:TrackPointExtension>
        </extensions>
      </trkpt>
      <trkpt lat="42.6180803775787353515625" lon="19.88364013843238353729248046875">
        <ele>1942.5999755859375</ele>
        <time>2026-06-16T09:25:00.000Z</time>
        <extensions>
          <ns3:TrackPointExtension>
            <ns3:atemp>24.0</ns3:atemp>
          </ns3:TrackPointExtension>
        </extensions>
      </trkpt>
      <trkpt lat="42.618075348436832427978515625" lon="19.88364583812654018402099609375">
        <ele>1943</ele>
        <time>2026-06-16T09:25:01.000Z</time>
        <extensions>
          <ns3:TrackPointExtension>
            <ns3:atemp>24.0</ns3:atemp>
          </ns3:TrackPointExtension>
        </extensions>
      </trkpt>
      <trkpt lat="42.618075348436832427978515625" lon="19.8836457543075084686279296875">
        <ele>1943.199951171875</ele>
        <time>2026-06-16T09:25:02.000Z</time>
        <extensions>
          <ns3:TrackPointExtension>
            <ns3:atemp>24.0</ns3:atemp>
          </ns3:TrackPointExtension>
        </extensions>
      </trkpt>
      <trkpt lat="42.61806906200945377349853515625" lon="19.88363980315625667572021484375">
        <ele>1943.4000244140625</ele>
        <time>2026-06-16T09:25:03.000Z</time>
        <extensions>
          <ns3:TrackPointExtension>
            <ns3:atemp>24.0</ns3:atemp>
          </ns3:TrackPointExtension>
        </extensions>
      </trkpt>
      <trkpt lat="42.6180627755820751190185546875" lon="19.88363544456660747528076171875">
        <ele>1943.800048828125</ele>
        <time>2026-06-16T09:25:04.000Z</time>
        <extensions>
          <ns3:TrackPointExtension>
            <ns3:atemp>24.0</ns3:atemp>
          </ns3:TrackPointExtension>
        </extensions>
      </trkpt>
      <trkpt lat="42.618055902421474456787109375" lon="19.88363309763371944427490234375">
        <ele>1943.800048828125</ele>
        <time>2026-06-16T09:25:05.000Z</time>
        <extensions>
          <ns3:TrackPointExtension>
            <ns3:atemp>24.0</ns3:atemp>
          </ns3:TrackPointExtension>
        </extensions>
      </trkpt>
      <trkpt lat="42.61805196292698383331298828125" lon="19.88363862968981266021728515625">
        <ele>1944</ele>
        <time>2026-06-16T09:25:06.000Z</time>
        <extensions>
          <ns3:TrackPointExtension>
            <ns3:atemp>24.0</ns3:atemp>
          </ns3:TrackPointExtension>
        </extensions>
      </trkpt>
      <trkpt lat="42.61804542504251003265380859375" lon="19.883643575012683868408203125">
        <ele>1944</ele>
        <time>2026-06-16T09:25:07.000Z</time>
        <extensions>
          <ns3:TrackPointExtension>
            <ns3:atemp>24.0</ns3:atemp>
          </ns3:TrackPointExtension>
        </extensions>
      </trkpt>
      <trkpt lat="42.6180352829396724700927734375" lon="19.88364265300333499908447265625">
        <ele>1944.199951171875</ele>
        <time>2026-06-16T09:25:08.000Z</time>
        <extensions>
          <ns3:TrackPointExtension>
            <ns3:atemp>24.0</ns3:atemp>
          </ns3:TrackPointExtension>
        </extensions>
      </trkpt>
      <trkpt lat="42.61802011169493198394775390625" lon="19.883642904460430145263671875">
        <ele>1944.199951171875</ele>
        <time>2026-06-16T09:25:09.000Z</time>
        <extensions>
          <ns3:TrackPointExtension>
            <ns3:atemp>24.0</ns3:atemp>
          </ns3:TrackPointExtension>
        </extensions>
      </trkpt>
      <trkpt lat="42.6180108077824115753173828125" lon="19.88364122807979583740234375">
        <ele>1944.199951171875</ele>
        <time>2026-06-16T09:25:10.000Z</time>
        <extensions>
          <ns3:TrackPointExtension>
            <ns3:atemp>24.0</ns3:atemp>
          </ns3:TrackPointExtension>
        </extensions>
      </trkpt>
      <trkpt lat="42.61800460517406463623046875" lon="19.88364114426076412200927734375">
        <ele>1944.4000244140625</ele>
        <time>2026-06-16T09:25:11.000Z</time>
        <extensions>
          <ns3:TrackPointExtension>
            <ns3:atemp>24.0</ns3:atemp>
          </ns3:TrackPointExtension>
        </extensions>
      </trkpt>
      <trkpt lat="42.61799789965152740478515625" lon="19.88364198245108127593994140625">
        <ele>1944.4000244140625</ele>
        <time>2026-06-16T09:25:12.000Z</time>
        <extensions>
          <ns3:TrackPointExtension>
            <ns3:atemp>24.0</ns3:atemp>
          </ns3:TrackPointExtension>
        </extensions>
      </trkpt>
      <trkpt lat="42.617989517748355865478515625" lon="19.8836417309939861297607421875">
        <ele>1944.4000244140625</ele>
        <time>2026-06-16T09:25:13.000Z</time>
        <extensions>
          <ns3:TrackPointExtension>
            <ns3:atemp>24.0</ns3:atemp>
          </ns3:TrackPointExtension>
        </extensions>
      </trkpt>
      <trkpt lat="42.61797920800745487213134765625" lon="19.883638881146907806396484375">
        <ele>1944.5999755859375</ele>
        <time>2026-06-16T09:25:14.000Z</time>
        <extensions>
          <ns3:TrackPointExtension>
            <ns3:atemp>24.0</ns3:atemp>
          </ns3:TrackPointExtension>
        </extensions>
      </trkpt>
      <trkpt lat="42.6179709099233150482177734375" lon="19.8836373724043369293212890625">
        <ele>1944.5999755859375</ele>
        <time>2026-06-16T09:25:15.000Z</time>
        <extensions>
          <ns3:TrackPointExtension>
            <ns3:atemp>24.0</ns3:atemp>
          </ns3:TrackPointExtension>
        </extensions>
      </trkpt>
      <trkpt lat="42.6179601810872554779052734375" lon="19.883637540042400360107421875">
        <ele>1944.5999755859375</ele>
        <time>2026-06-16T09:25:16.000Z</time>
        <extensions>
          <ns3:TrackPointExtension>
            <ns3:atemp>24.0</ns3:atemp>
          </ns3:TrackPointExtension>
        </extensions>
      </trkpt>
      <trkpt lat="42.617949955165386199951171875" lon="19.88363712094724178314208984375">
        <ele>1944.800048828125</ele>
        <time>2026-06-16T09:25:17.000Z</time>
        <extensions>
          <ns3:TrackPointExtension>
            <ns3:atemp>24.0</ns3:atemp>
          </ns3:TrackPointExtension>
        </extensions>
      </trkpt>
      <trkpt lat="42.61794048361480236053466796875" lon="19.883633516728878021240234375">
        <ele>1944.800048828125</ele>
        <time>2026-06-16T09:25:18.000Z</time>
        <extensions>
          <ns3:TrackPointExtension>
            <ns3:atemp>24.0</ns3:atemp>
          </ns3:TrackPointExtension>
        </extensions>
      </trkpt>
      <trkpt lat="42.61793444864451885223388671875" lon="19.88362890668213367462158203125">
        <ele>1944.800048828125</ele>
        <time>2026-06-16T09:25:19.000Z</time>
        <extensions>
          <ns3:TrackPointExtension>
            <ns3:atemp>24.0</ns3:atemp>
          </ns3:TrackPointExtension>
        </extensions>
      </trkpt>
      <trkpt lat="42.61792724020779132843017578125" lon="19.883630834519863128662109375">
        <ele>1945</ele>
        <time>2026-06-16T09:25:20.000Z</time>
        <extensions>
          <ns3:TrackPointExtension>
            <ns3:atemp>24.0</ns3:atemp>
          </ns3:TrackPointExtension>
        </extensions>
      </trkpt>
      <trkpt lat="42.617919109761714935302734375" lon="19.88363544456660747528076171875">
        <ele>1945</ele>
        <time>2026-06-16T09:25:21.000Z</time>
        <extensions>
          <ns3:TrackPointExtension>
            <ns3:atemp>24.0</ns3:atemp>
          </ns3:TrackPointExtension>
        </extensions>
      </trkpt>
      <trkpt lat="42.61791206896305084228515625" lon="19.8836367018520832061767578125">
        <ele>1945.199951171875</ele>
        <time>2026-06-16T09:25:22.000Z</time>
        <extensions>
          <ns3:TrackPointExtension>
            <ns3:atemp>24.0</ns3:atemp>
          </ns3:TrackPointExtension>
        </extensions>
      </trkpt>
      <trkpt lat="42.6179008372128009796142578125" lon="19.88363779149949550628662109375">
        <ele>1945.4000244140625</ele>
        <time>2026-06-16T09:25:23.000Z</time>
        <extensions>
          <ns3:TrackPointExtension>
            <ns3:atemp>24.0</ns3:atemp>
          </ns3:TrackPointExtension>
        </extensions>
      </trkpt>
      <trkpt lat="42.6178914494812488555908203125" lon="19.883638210594654083251953125">
        <ele>1945.4000244140625</ele>
        <time>2026-06-16T09:25:24.000Z</time>
        <extensions>
          <ns3:TrackPointExtension>
            <ns3:atemp>24.0</ns3:atemp>
          </ns3:TrackPointExtension>
        </extensions>
      </trkpt>
      <trkpt lat="42.617881558835506439208984375" lon="19.883638210594654083251953125">
        <ele>1945.5999755859375</ele>
        <time>2026-06-16T09:25:25.000Z</time>
        <extensions>
          <ns3:TrackPointExtension>
            <ns3:atemp>24.0</ns3:atemp>
          </ns3:TrackPointExtension>
        </extensions>
      </trkpt>
      <trkpt lat="42.61787451803684234619140625" lon="19.88364013843238353729248046875">
        <ele>1945.5999755859375</ele>
        <time>2026-06-16T09:25:26.000Z</time>
        <extensions>
          <ns3:TrackPointExtension>
            <ns3:atemp>24.0</ns3:atemp>
          </ns3:TrackPointExtension>
        </extensions>
      </trkpt>
      <trkpt lat="42.6178656332194805145263671875" lon="19.88364634104073047637939453125">
        <ele>1945.5999755859375</ele>
        <time>2026-06-16T09:25:27.000Z</time>
        <extensions>
          <ns3:TrackPointExtension>
            <ns3:atemp>24.0</ns3:atemp>
          </ns3:TrackPointExtension>
        </extensions>
      </trkpt>
      <trkpt lat="42.617857418954372406005859375" lon="19.88365053199231624603271484375">
        <ele>1945.800048828125</ele>
        <time>2026-06-16T09:25:28.000Z</time>
        <extensions>
          <ns3:TrackPointExtension>
            <ns3:atemp>24.0</ns3:atemp>
          </ns3:TrackPointExtension>
        </extensions>
      </trkpt>
      <trkpt lat="42.61784995906054973602294921875" lon="19.8836507834494113922119140625">
        <ele>1945.800048828125</ele>
        <time>2026-06-16T09:25:29.000Z</time>
        <extensions>
          <ns3:TrackPointExtension>
            <ns3:atemp>24.0</ns3:atemp>
          </ns3:TrackPointExtension>
        </extensions>
      </trkpt>
      <trkpt lat="42.617847025394439697265625" lon="19.8836507834494113922119140625">
        <ele>1946</ele>
        <time>2026-06-16T09:25:30.000Z</time>
        <extensions>
          <ns3:TrackPointExtension>
            <ns3:atemp>24.0</ns3:atemp>
          </ns3:TrackPointExtension>
        </extensions>
      </trkpt>
      <trkpt lat="42.617847025394439697265625" lon="19.8836507834494113922119140625">
        <ele>1946</ele>
        <time>2026-06-16T09:25:31.000Z</time>
        <extensions>
          <ns3:TrackPointExtension>
            <ns3:atemp>24.0</ns3:atemp>
          </ns3:TrackPointExtension>
        </extensions>
      </trkpt>
      <trkpt lat="42.6178468577563762664794921875" lon="19.88365086726844310760498046875">
        <ele>1946.199951171875</ele>
        <time>2026-06-16T09:25:32.000Z</time>
        <extensions>
          <ns3:TrackPointExtension>
            <ns3:atemp>24.0</ns3:atemp>
          </ns3:TrackPointExtension>
        </extensions>
      </trkpt>
      <trkpt lat="42.61783403344452381134033203125" lon="19.8836524598300457000732421875">
        <ele>1946.199951171875</ele>
        <time>2026-06-16T09:25:33.000Z</time>
        <extensions>
          <ns3:TrackPointExtension>
            <ns3:atemp>24.0</ns3:atemp>
          </ns3:TrackPointExtension>
        </extensions>
      </trkpt>
      <trkpt lat="42.6178250648081302642822265625" lon="19.88365556113421916961669921875">
        <ele>1946.199951171875</ele>
        <time>2026-06-16T09:25:34.000Z</time>
        <extensions>
          <ns3:TrackPointExtension>
            <ns3:atemp>24.0</ns3:atemp>
          </ns3:TrackPointExtension>
        </extensions>
      </trkpt>
      <trkpt lat="42.6178129948675632476806640625" lon="19.88365204073488712310791015625">
        <ele>1946.199951171875</ele>
        <time>2026-06-16T09:25:35.000Z</time>
        <extensions>
          <ns3:TrackPointExtension>
            <ns3:atemp>24.0</ns3:atemp>
          </ns3:TrackPointExtension>
        </extensions>
      </trkpt>
      <trkpt lat="42.617801763117313385009765625" lon="19.88364667631685733795166015625">
        <ele>1946.199951171875</ele>
        <time>2026-06-16T09:25:36.000Z</time>
        <extensions>
          <ns3:TrackPointExtension>
            <ns3:atemp>24.0</ns3:atemp>
          </ns3:TrackPointExtension>
        </extensions>
      </trkpt>
      <trkpt lat="42.617791034281253814697265625" lon="19.88364215008914470672607421875">
        <ele>1946.199951171875</ele>
        <time>2026-06-16T09:25:37.000Z</time>
        <extensions>
          <ns3:TrackPointExtension>
            <ns3:atemp>24.0</ns3:atemp>
          </ns3:TrackPointExtension>
        </extensions>
      </trkpt>
      <trkpt lat="42.617778964340686798095703125" lon="19.883640222251415252685546875">
        <ele>1946.199951171875</ele>
        <time>2026-06-16T09:25:38.000Z</time>
        <extensions>
          <ns3:TrackPointExtension>
            <ns3:atemp>24.0</ns3:atemp>
          </ns3:TrackPointExtension>
        </extensions>
      </trkpt>
      <trkpt lat="42.61776261962950229644775390625" lon="19.88363695330917835235595703125">
        <ele>1946.4000244140625</ele>
        <time>2026-06-16T09:25:39.000Z</time>
        <extensions>
          <ns3:TrackPointExtension>
            <ns3:atemp>24.0</ns3:atemp>
          </ns3:TrackPointExtension>
        </extensions>
      </trkpt>
      <trkpt lat="42.61774937622249126434326171875" lon="19.8836316727101802825927734375">
        <ele>1946.4000244140625</ele>
        <time>2026-06-16T09:25:40.000Z</time>
        <extensions>
          <ns3:TrackPointExtension>
            <ns3:atemp>24.0</ns3:atemp>
          </ns3:TrackPointExtension>
        </extensions>
      </trkpt>
      <trkpt lat="42.61774283833801746368408203125" lon="19.88362773321568965911865234375">
        <ele>1946.4000244140625</ele>
        <time>2026-06-16T09:25:41.000Z</time>
        <extensions>
          <ns3:TrackPointExtension>
            <ns3:atemp>24.0</ns3:atemp>
          </ns3:TrackPointExtension>
        </extensions>
      </trkpt>
      <trkpt lat="42.617743425071239471435546875" lon="19.88362119533121585845947265625">
        <ele>1946.4000244140625</ele>
        <time>2026-06-16T09:25:42.000Z</time>
        <extensions>
          <ns3:TrackPointExtension>
            <ns3:atemp>24.0</ns3:atemp>
          </ns3:TrackPointExtension>
        </extensions>
      </trkpt>
      <trkpt lat="42.6177432574331760406494140625" lon="19.88362337462604045867919921875">
        <ele>1946.4000244140625</ele>
        <time>2026-06-16T09:25:43.000Z</time>
        <extensions>
          <ns3:TrackPointExtension>
            <ns3:atemp>24.0</ns3:atemp>
          </ns3:TrackPointExtension>
        </extensions>
      </trkpt>
      <trkpt lat="42.6177432574331760406494140625" lon="19.88362337462604045867919921875">
        <ele>1946.5999755859375</ele>
        <time>2026-06-16T09:25:44.000Z</time>
        <extensions>
          <ns3:TrackPointExtension>
            <ns3:atemp>24.0</ns3:atemp>
          </ns3:TrackPointExtension>
        </extensions>
      </trkpt>
      <trkpt lat="42.6177432574331760406494140625" lon="19.88362337462604045867919921875">
        <ele>1946.5999755859375</ele>
        <time>2026-06-16T09:25:45.000Z</time>
        <extensions>
          <ns3:TrackPointExtension>
            <ns3:atemp>24.0</ns3:atemp>
          </ns3:TrackPointExtension>
        </extensions>
      </trkpt>
      <trkpt lat="42.6177432574331760406494140625" lon="19.88362337462604045867919921875">
        <ele>1946.5999755859375</ele>
        <time>2026-06-16T09:25:46.000Z</time>
        <extensions>
          <ns3:TrackPointExtension>
            <ns3:atemp>24.0</ns3:atemp>
          </ns3:TrackPointExtension>
        </extensions>
      </trkpt>
      <trkpt lat="42.6177432574331760406494140625" lon="19.88362337462604045867919921875">
        <ele>1946.4000244140625</ele>
        <time>2026-06-16T09:25:47.000Z</time>
        <extensions>
          <ns3:TrackPointExtension>
            <ns3:atemp>24.0</ns3:atemp>
          </ns3:TrackPointExtension>
        </extensions>
      </trkpt>
      <trkpt lat="42.6177432574331760406494140625" lon="19.88362337462604045867919921875">
        <ele>1946.4000244140625</ele>
        <time>2026-06-16T09:25:48.000Z</time>
        <extensions>
          <ns3:TrackPointExtension>
            <ns3:atemp>24.0</ns3:atemp>
          </ns3:TrackPointExtension>
        </extensions>
      </trkpt>
      <trkpt lat="42.6177432574331760406494140625" lon="19.88362337462604045867919921875">
        <ele>1946.4000244140625</ele>
        <time>2026-06-16T09:25:49.000Z</time>
        <extensions>
          <ns3:TrackPointExtension>
            <ns3:atemp>24.0</ns3:atemp>
          </ns3:TrackPointExtension>
        </extensions>
      </trkpt>
      <trkpt lat="42.6177432574331760406494140625" lon="19.88362337462604045867919921875">
        <ele>1946.199951171875</ele>
        <time>2026-06-16T09:25:50.000Z</time>
        <extensions>
          <ns3:TrackPointExtension>
            <ns3:atemp>24.0</ns3:atemp>
          </ns3:TrackPointExtension>
        </extensions>
      </trkpt>
      <trkpt lat="42.6177432574331760406494140625" lon="19.88362337462604045867919921875">
        <ele>1946.199951171875</ele>
        <time>2026-06-16T09:25:51.000Z</time>
        <extensions>
          <ns3:TrackPointExtension>
            <ns3:atemp>24.0</ns3:atemp>
          </ns3:TrackPointExtension>
        </extensions>
      </trkpt>
      <trkpt lat="42.6177432574331760406494140625" lon="19.88362337462604045867919921875">
        <ele>1946.199951171875</ele>
        <time>2026-06-16T09:25:52.000Z</time>
        <extensions>
          <ns3:TrackPointExtension>
            <ns3:atemp>24.0</ns3:atemp>
          </ns3:TrackPointExtension>
        </extensions>
      </trkpt>
      <trkpt lat="42.6177432574331760406494140625" lon="19.88362337462604045867919921875">
        <ele>1946</ele>
        <time>2026-06-16T09:25:53.000Z</time>
        <extensions>
          <ns3:TrackPointExtension>
            <ns3:atemp>24.0</ns3:atemp>
          </ns3:TrackPointExtension>
        </extensions>
      </trkpt>
      <trkpt lat="42.6177432574331760406494140625" lon="19.88362337462604045867919921875">
        <ele>1946</ele>
        <time>2026-06-16T09:25:54.000Z</time>
        <extensions>
          <ns3:TrackPointExtension>
            <ns3:atemp>23.0</ns3:atemp>
          </ns3:TrackPointExtension>
        </extensions>
      </trkpt>
      <trkpt lat="42.6177432574331760406494140625" lon="19.88362337462604045867919921875">
        <ele>1946</ele>
        <time>2026-06-16T09:25:55.000Z</time>
        <extensions>
          <ns3:TrackPointExtension>
            <ns3:atemp>23.0</ns3:atemp>
          </ns3:TrackPointExtension>
        </extensions>
      </trkpt>
      <trkpt lat="42.6177432574331760406494140625" lon="19.88362337462604045867919921875">
        <ele>1946</ele>
        <time>2026-06-16T09:25:56.000Z</time>
        <extensions>
          <ns3:TrackPointExtension>
            <ns3:atemp>23.0</ns3:atemp>
          </ns3:TrackPointExtension>
        </extensions>
      </trkpt>
      <trkpt lat="42.6177432574331760406494140625" lon="19.88362337462604045867919921875">
        <ele>1946</ele>
        <time>2026-06-16T09:25:57.000Z</time>
        <extensions>
          <ns3:TrackPointExtension>
            <ns3:atemp>23.0</ns3:atemp>
          </ns3:TrackPointExtension>
        </extensions>
      </trkpt>
      <trkpt lat="42.6177432574331760406494140625" lon="19.88362337462604045867919921875">
        <ele>1946</ele>
        <time>2026-06-16T09:25:58.000Z</time>
        <extensions>
          <ns3:TrackPointExtension>
            <ns3:atemp>23.0</ns3:atemp>
          </ns3:TrackPointExtension>
        </extensions>
      </trkpt>
      <trkpt lat="42.6177432574331760406494140625" lon="19.88362337462604045867919921875">
        <ele>1946</ele>
        <time>2026-06-16T09:25:59.000Z</time>
        <extensions>
          <ns3:TrackPointExtension>
            <ns3:atemp>23.0</ns3:atemp>
          </ns3:TrackPointExtension>
        </extensions>
      </trkpt>
      <trkpt lat="42.6177432574331760406494140625" lon="19.88362337462604045867919921875">
        <ele>1946</ele>
        <time>2026-06-16T09:26:00.000Z</time>
        <extensions>
          <ns3:TrackPointExtension>
            <ns3:atemp>23.0</ns3:atemp>
          </ns3:TrackPointExtension>
        </extensions>
      </trkpt>
      <trkpt lat="42.6177432574331760406494140625" lon="19.88362337462604045867919921875">
        <ele>1946</ele>
        <time>2026-06-16T09:26:01.000Z</time>
        <extensions>
          <ns3:TrackPointExtension>
            <ns3:atemp>23.0</ns3:atemp>
          </ns3:TrackPointExtension>
        </extensions>
      </trkpt>
      <trkpt lat="42.6177432574331760406494140625" lon="19.88362337462604045867919921875">
        <ele>1946</ele>
        <time>2026-06-16T09:26:02.000Z</time>
        <extensions>
          <ns3:TrackPointExtension>
            <ns3:atemp>23.0</ns3:atemp>
          </ns3:TrackPointExtension>
        </extensions>
      </trkpt>
      <trkpt lat="42.6177432574331760406494140625" lon="19.88362337462604045867919921875">
        <ele>1946.199951171875</ele>
        <time>2026-06-16T09:26:03.000Z</time>
        <extensions>
          <ns3:TrackPointExtension>
            <ns3:atemp>23.0</ns3:atemp>
          </ns3:TrackPointExtension>
        </extensions>
      </trkpt>
      <trkpt lat="42.6177432574331760406494140625" lon="19.88362337462604045867919921875">
        <ele>1946</ele>
        <time>2026-06-16T09:26:04.000Z</time>
        <extensions>
          <ns3:TrackPointExtension>
            <ns3:atemp>23.0</ns3:atemp>
          </ns3:TrackPointExtension>
        </extensions>
      </trkpt>
      <trkpt lat="42.6177432574331760406494140625" lon="19.88362337462604045867919921875">
        <ele>1946</ele>
        <time>2026-06-16T09:26:05.000Z</time>
        <extensions>
          <ns3:TrackPointExtension>
            <ns3:atemp>23.0</ns3:atemp>
          </ns3:TrackPointExtension>
        </extensions>
      </trkpt>
      <trkpt lat="42.6177432574331760406494140625" lon="19.88362337462604045867919921875">
        <ele>1946</ele>
        <time>2026-06-16T09:26:06.000Z</time>
        <extensions>
          <ns3:TrackPointExtension>
            <ns3:atemp>23.0</ns3:atemp>
          </ns3:TrackPointExtension>
        </extensions>
      </trkpt>
      <trkpt lat="42.6177432574331760406494140625" lon="19.88362337462604045867919921875">
        <ele>1946</ele>
        <time>2026-06-16T09:26:07.000Z</time>
        <extensions>
          <ns3:TrackPointExtension>
            <ns3:atemp>23.0</ns3:atemp>
          </ns3:TrackPointExtension>
        </extensions>
      </trkpt>
      <trkpt lat="42.6177432574331760406494140625" lon="19.88362337462604045867919921875">
        <ele>1946</ele>
        <time>2026-06-16T09:26:08.000Z</time>
        <extensions>
          <ns3:TrackPointExtension>
            <ns3:atemp>23.0</ns3:atemp>
          </ns3:TrackPointExtension>
        </extensions>
      </trkpt>
      <trkpt lat="42.6177432574331760406494140625" lon="19.88362337462604045867919921875">
        <ele>1946</ele>
        <time>2026-06-16T09:26:09.000Z</time>
        <extensions>
          <ns3:TrackPointExtension>
            <ns3:atemp>23.0</ns3:atemp>
          </ns3:TrackPointExtension>
        </extensions>
      </trkpt>
      <trkpt lat="42.6177432574331760406494140625" lon="19.88362337462604045867919921875">
        <ele>1946</ele>
        <time>2026-06-16T09:26:10.000Z</time>
        <extensions>
          <ns3:TrackPointExtension>
            <ns3:atemp>23.0</ns3:atemp>
          </ns3:TrackPointExtension>
        </extensions>
      </trkpt>
      <trkpt lat="42.6177432574331760406494140625" lon="19.88362337462604045867919921875">
        <ele>1945.800048828125</ele>
        <time>2026-06-16T09:26:11.000Z</time>
        <extensions>
          <ns3:TrackPointExtension>
            <ns3:atemp>23.0</ns3:atemp>
          </ns3:TrackPointExtension>
        </extensions>
      </trkpt>
      <trkpt lat="42.6177432574331760406494140625" lon="19.88362337462604045867919921875">
        <ele>1945.800048828125</ele>
        <time>2026-06-16T09:26:12.000Z</time>
        <extensions>
          <ns3:TrackPointExtension>
            <ns3:atemp>23.0</ns3:atemp>
          </ns3:TrackPointExtension>
        </extensions>
      </trkpt>
      <trkpt lat="42.6177432574331760406494140625" lon="19.88362337462604045867919921875">
        <ele>1945.800048828125</ele>
        <time>2026-06-16T09:26:13.000Z</time>
        <extensions>
          <ns3:TrackPointExtension>
            <ns3:atemp>23.0</ns3:atemp>
          </ns3:TrackPointExtension>
        </extensions>
      </trkpt>
      <trkpt lat="42.6177432574331760406494140625" lon="19.88362337462604045867919921875">
        <ele>1945.5999755859375</ele>
        <time>2026-06-16T09:26:14.000Z</time>
        <extensions>
          <ns3:TrackPointExtension>
            <ns3:atemp>23.0</ns3:atemp>
          </ns3:TrackPointExtension>
        </extensions>
      </trkpt>
      <trkpt lat="42.6177432574331760406494140625" lon="19.88362337462604045867919921875">
        <ele>1945.5999755859375</ele>
        <time>2026-06-16T09:26:15.000Z</time>
        <extensions>
          <ns3:TrackPointExtension>
            <ns3:atemp>23.0</ns3:atemp>
          </ns3:TrackPointExtension>
        </extensions>
      </trkpt>
      <trkpt lat="42.6177432574331760406494140625" lon="19.88362337462604045867919921875">
        <ele>1945.5999755859375</ele>
        <time>2026-06-16T09:26:16.000Z</time>
        <extensions>
          <ns3:TrackPointExtension>
            <ns3:atemp>23.0</ns3:atemp>
          </ns3:TrackPointExtension>
        </extensions>
      </trkpt>
      <trkpt lat="42.6177432574331760406494140625" lon="19.88362337462604045867919921875">
        <ele>1945.5999755859375</ele>
        <time>2026-06-16T09:26:17.000Z</time>
        <extensions>
          <ns3:TrackPointExtension>
            <ns3:atemp>23.0</ns3:atemp>
          </ns3:TrackPointExtension>
        </extensions>
      </trkpt>
      <trkpt lat="42.6177432574331760406494140625" lon="19.88362337462604045867919921875">
        <ele>1945.5999755859375</ele>
        <time>2026-06-16T09:26:18.000Z</time>
        <extensions>
          <ns3:TrackPointExtension>
            <ns3:atemp>23.0</ns3:atemp>
          </ns3:TrackPointExtension>
        </extensions>
      </trkpt>
      <trkpt lat="42.6177432574331760406494140625" lon="19.88362337462604045867919921875">
        <ele>1945.5999755859375</ele>
        <time>2026-06-16T09:26:19.000Z</time>
        <extensions>
          <ns3:TrackPointExtension>
            <ns3:atemp>23.0</ns3:atemp>
          </ns3:TrackPointExtension>
        </extensions>
      </trkpt>
      <trkpt lat="42.6177432574331760406494140625" lon="19.88362337462604045867919921875">
        <ele>1945.5999755859375</ele>
        <time>2026-06-16T09:26:20.000Z</time>
        <extensions>
          <ns3:TrackPointExtension>
            <ns3:atemp>23.0</ns3:atemp>
          </ns3:TrackPointExtension>
        </extensions>
      </trkpt>
      <trkpt lat="42.6177432574331760406494140625" lon="19.88362337462604045867919921875">
        <ele>1945.5999755859375</ele>
        <time>2026-06-16T09:26:21.000Z</time>
        <extensions>
          <ns3:TrackPointExtension>
            <ns3:atemp>23.0</ns3:atemp>
          </ns3:TrackPointExtension>
        </extensions>
      </trkpt>
      <trkpt lat="42.6177432574331760406494140625" lon="19.88362337462604045867919921875">
        <ele>1945.5999755859375</ele>
        <time>2026-06-16T09:26:22.000Z</time>
        <extensions>
          <ns3:TrackPointExtension>
            <ns3:atemp>23.0</ns3:atemp>
          </ns3:TrackPointExtension>
        </extensions>
      </trkpt>
      <trkpt lat="42.6177432574331760406494140625" lon="19.88362337462604045867919921875">
        <ele>1945.5999755859375</ele>
        <time>2026-06-16T09:26:23.000Z</time>
        <extensions>
          <ns3:TrackPointExtension>
            <ns3:atemp>23.0</ns3:atemp>
          </ns3:TrackPointExtension>
        </extensions>
      </trkpt>
      <trkpt lat="42.6177435927093029022216796875" lon="19.883622117340564727783203125">
        <ele>1945.5999755859375</ele>
        <time>2026-06-16T09:26:24.000Z</time>
        <extensions>
          <ns3:TrackPointExtension>
            <ns3:atemp>23.0</ns3:atemp>
          </ns3:TrackPointExtension>
        </extensions>
      </trkpt>
      <trkpt lat="42.6177432574331760406494140625" lon="19.88362337462604045867919921875">
        <ele>1945.5999755859375</ele>
        <time>2026-06-16T09:26:25.000Z</time>
        <extensions>
          <ns3:TrackPointExtension>
            <ns3:atemp>23.0</ns3:atemp>
          </ns3:TrackPointExtension>
        </extensions>
      </trkpt>
      <trkpt lat="42.6177432574331760406494140625" lon="19.88362337462604045867919921875">
        <ele>1945.5999755859375</ele>
        <time>2026-06-16T09:26:26.000Z</time>
        <extensions>
          <ns3:TrackPointExtension>
            <ns3:atemp>23.0</ns3:atemp>
          </ns3:TrackPointExtension>
        </extensions>
      </trkpt>
      <trkpt lat="42.6177432574331760406494140625" lon="19.88362337462604045867919921875">
        <ele>1945.4000244140625</ele>
        <time>2026-06-16T09:26:27.000Z</time>
        <extensions>
          <ns3:TrackPointExtension>
            <ns3:atemp>23.0</ns3:atemp>
          </ns3:TrackPointExtension>
        </extensions>
      </trkpt>
      <trkpt lat="42.6177432574331760406494140625" lon="19.88362337462604045867919921875">
        <ele>1945.4000244140625</ele>
        <time>2026-06-16T09:26:28.000Z</time>
        <extensions>
          <ns3:TrackPointExtension>
            <ns3:atemp>23.0</ns3:atemp>
          </ns3:TrackPointExtension>
        </extensions>
      </trkpt>
      <trkpt lat="42.6177432574331760406494140625" lon="19.88362337462604045867919921875">
        <ele>1945.199951171875</ele>
        <time>2026-06-16T09:26:29.000Z</time>
        <extensions>
          <ns3:TrackPointExtension>
            <ns3:atemp>23.0</ns3:atemp>
          </ns3:TrackPointExtension>
        </extensions>
      </trkpt>
      <trkpt lat="42.6177432574331760406494140625" lon="19.88362337462604045867919921875">
        <ele>1945.199951171875</ele>
        <time>2026-06-16T09:26:30.000Z</time>
        <extensions>
          <ns3:TrackPointExtension>
            <ns3:atemp>23.0</ns3:atemp>
          </ns3:TrackPointExtension>
        </extensions>
      </trkpt>
      <trkpt lat="42.6177432574331760406494140625" lon="19.88362337462604045867919921875">
        <ele>1945</ele>
        <time>2026-06-16T09:26:31.000Z</time>
        <extensions>
          <ns3:TrackPointExtension>
            <ns3:atemp>23.0</ns3:atemp>
          </ns3:TrackPointExtension>
        </extensions>
      </trkpt>
      <trkpt lat="42.6177432574331760406494140625" lon="19.88362337462604045867919921875">
        <ele>1945</ele>
        <time>2026-06-16T09:26:32.000Z</time>
        <extensions>
          <ns3:TrackPointExtension>
            <ns3:atemp>23.0</ns3:atemp>
          </ns3:TrackPointExtension>
        </extensions>
      </trkpt>
      <trkpt lat="42.6177432574331760406494140625" lon="19.88362337462604045867919921875">
        <ele>1944.800048828125</ele>
        <time>2026-06-16T09:26:33.000Z</time>
        <extensions>
          <ns3:TrackPointExtension>
            <ns3:atemp>23.0</ns3:atemp>
          </ns3:TrackPointExtension>
        </extensions>
      </trkpt>
      <trkpt lat="42.6177432574331760406494140625" lon="19.88362337462604045867919921875">
        <ele>1944.800048828125</ele>
        <time>2026-06-16T09:26:34.000Z</time>
        <extensions>
          <ns3:TrackPointExtension>
            <ns3:atemp>23.0</ns3:atemp>
          </ns3:TrackPointExtension>
        </extensions>
      </trkpt>
      <trkpt lat="42.61774308979511260986328125" lon="19.88362069241702556610107421875">
        <ele>1944.800048828125</ele>
        <time>2026-06-16T09:26:35.000Z</time>
        <extensions>
          <ns3:TrackPointExtension>
            <ns3:atemp>23.0</ns3:atemp>
          </ns3:TrackPointExtension>
        </extensions>
      </trkpt>
      <trkpt lat="42.61775306425988674163818359375" lon="19.8836085386574268341064453125">
        <ele>1944.5999755859375</ele>
        <time>2026-06-16T09:26:36.000Z</time>
        <extensions>
          <ns3:TrackPointExtension>
            <ns3:atemp>23.0</ns3:atemp>
          </ns3:TrackPointExtension>
        </extensions>
      </trkpt>
      <trkpt lat="42.61776027269661426544189453125" lon="19.88360627554357051849365234375">
        <ele>1944.5999755859375</ele>
        <time>2026-06-16T09:26:37.000Z</time>
        <extensions>
          <ns3:TrackPointExtension>
            <ns3:atemp>23.0</ns3:atemp>
          </ns3:TrackPointExtension>
        </extensions>
      </trkpt>
      <trkpt lat="42.6177633740007877349853515625" lon="19.88360644318163394927978515625">
        <ele>1944.800048828125</ele>
        <time>2026-06-16T09:26:38.000Z</time>
        <extensions>
          <ns3:TrackPointExtension>
            <ns3:atemp>23.0</ns3:atemp>
          </ns3:TrackPointExtension>
        </extensions>
      </trkpt>
      <trkpt lat="42.61776463128626346588134765625" lon="19.8836065270006656646728515625">
        <ele>1945</ele>
        <time>2026-06-16T09:26:39.000Z</time>
        <extensions>
          <ns3:TrackPointExtension>
            <ns3:atemp>23.0</ns3:atemp>
          </ns3:TrackPointExtension>
        </extensions>
      </trkpt>
      <trkpt lat="42.6177667267620563507080078125" lon="19.88360644318163394927978515625">
        <ele>1945.199951171875</ele>
        <time>2026-06-16T09:26:40.000Z</time>
        <extensions>
          <ns3:TrackPointExtension>
            <ns3:atemp>23.0</ns3:atemp>
          </ns3:TrackPointExtension>
        </extensions>
      </trkpt>
      <trkpt lat="42.6177667267620563507080078125" lon="19.88360644318163394927978515625">
        <ele>1945.5999755859375</ele>
        <time>2026-06-16T09:26:41.000Z</time>
        <extensions>
          <ns3:TrackPointExtension>
            <ns3:atemp>23.0</ns3:atemp>
          </ns3:TrackPointExtension>
        </extensions>
      </trkpt>
      <trkpt lat="42.6177667267620563507080078125" lon="19.88360644318163394927978515625">
        <ele>1945.800048828125</ele>
        <time>2026-06-16T09:26:42.000Z</time>
        <extensions>
          <ns3:TrackPointExtension>
            <ns3:atemp>23.0</ns3:atemp>
          </ns3:TrackPointExtension>
        </extensions>
      </trkpt>
      <trkpt lat="42.6177667267620563507080078125" lon="19.88360644318163394927978515625">
        <ele>1945.800048828125</ele>
        <time>2026-06-16T09:26:43.000Z</time>
        <extensions>
          <ns3:TrackPointExtension>
            <ns3:atemp>23.0</ns3:atemp>
          </ns3:TrackPointExtension>
        </extensions>
      </trkpt>
      <trkpt lat="42.6177667267620563507080078125" lon="19.88360644318163394927978515625">
        <ele>1945.800048828125</ele>
        <time>2026-06-16T09:26:44.000Z</time>
        <extensions>
          <ns3:TrackPointExtension>
            <ns3:atemp>23.0</ns3:atemp>
          </ns3:TrackPointExtension>
        </extensions>
      </trkpt>
      <trkpt lat="42.6177667267620563507080078125" lon="19.88360644318163394927978515625">
        <ele>1945.5999755859375</ele>
        <time>2026-06-16T09:26:45.000Z</time>
        <extensions>
          <ns3:TrackPointExtension>
            <ns3:atemp>23.0</ns3:atemp>
          </ns3:TrackPointExtension>
        </extensions>
      </trkpt>
      <trkpt lat="42.6177667267620563507080078125" lon="19.88360644318163394927978515625">
        <ele>1945.4000244140625</ele>
        <time>2026-06-16T09:26:46.000Z</time>
        <extensions>
          <ns3:TrackPointExtension>
            <ns3:atemp>23.0</ns3:atemp>
          </ns3:TrackPointExtension>
        </extensions>
      </trkpt>
      <trkpt lat="42.6177667267620563507080078125" lon="19.88360644318163394927978515625">
        <ele>1945.4000244140625</ele>
        <time>2026-06-16T09:26:47.000Z</time>
        <extensions>
          <ns3:TrackPointExtension>
            <ns3:atemp>23.0</ns3:atemp>
          </ns3:TrackPointExtension>
        </extensions>
      </trkpt>
      <trkpt lat="42.6177667267620563507080078125" lon="19.88360644318163394927978515625">
        <ele>1945.199951171875</ele>
        <time>2026-06-16T09:26:48.000Z</time>
        <extensions>
          <ns3:TrackPointExtension>
            <ns3:atemp>23.0</ns3:atemp>
          </ns3:TrackPointExtension>
        </extensions>
      </trkpt>
      <trkpt lat="42.6177667267620563507080078125" lon="19.88360644318163394927978515625">
        <ele>1945.199951171875</ele>
        <time>2026-06-16T09:26:49.000Z</time>
        <extensions>
          <ns3:TrackPointExtension>
            <ns3:atemp>23.0</ns3:atemp>
          </ns3:TrackPointExtension>
        </extensions>
      </trkpt>
      <trkpt lat="42.6177667267620563507080078125" lon="19.88360644318163394927978515625">
        <ele>1945.199951171875</ele>
        <time>2026-06-16T09:26:50.000Z</time>
        <extensions>
          <ns3:TrackPointExtension>
            <ns3:atemp>23.0</ns3:atemp>
          </ns3:TrackPointExtension>
        </extensions>
      </trkpt>
      <trkpt lat="42.6177667267620563507080078125" lon="19.88360644318163394927978515625">
        <ele>1945.199951171875</ele>
        <time>2026-06-16T09:26:51.000Z</time>
        <extensions>
          <ns3:TrackPointExtension>
            <ns3:atemp>23.0</ns3:atemp>
          </ns3:TrackPointExtension>
        </extensions>
      </trkpt>
      <trkpt lat="42.6177667267620563507080078125" lon="19.88360644318163394927978515625">
        <ele>1945.199951171875</ele>
        <time>2026-06-16T09:26:52.000Z</time>
        <extensions>
          <ns3:TrackPointExtension>
            <ns3:atemp>23.0</ns3:atemp>
          </ns3:TrackPointExtension>
        </extensions>
      </trkpt>
      <trkpt lat="42.6177667267620563507080078125" lon="19.88360644318163394927978515625">
        <ele>1945.4000244140625</ele>
        <time>2026-06-16T09:26:53.000Z</time>
        <extensions>
          <ns3:TrackPointExtension>
            <ns3:atemp>23.0</ns3:atemp>
          </ns3:TrackPointExtension>
        </extensions>
      </trkpt>
      <trkpt lat="42.6177667267620563507080078125" lon="19.88360644318163394927978515625">
        <ele>1945.4000244140625</ele>
        <time>2026-06-16T09:26:54.000Z</time>
        <extensions>
          <ns3:TrackPointExtension>
            <ns3:atemp>23.0</ns3:atemp>
          </ns3:TrackPointExtension>
        </extensions>
      </trkpt>
      <trkpt lat="42.6177667267620563507080078125" lon="19.88360644318163394927978515625">
        <ele>1945.199951171875</ele>
        <time>2026-06-16T09:26:55.000Z</time>
        <extensions>
          <ns3:TrackPointExtension>
            <ns3:atemp>23.0</ns3:atemp>
          </ns3:TrackPointExtension>
        </extensions>
      </trkpt>
      <trkpt lat="42.6177667267620563507080078125" lon="19.88360644318163394927978515625">
        <ele>1945.199951171875</ele>
        <time>2026-06-16T09:26:56.000Z</time>
        <extensions>
          <ns3:TrackPointExtension>
            <ns3:atemp>23.0</ns3:atemp>
          </ns3:TrackPointExtension>
        </extensions>
      </trkpt>
      <trkpt lat="42.6177667267620563507080078125" lon="19.88360644318163394927978515625">
        <ele>1945.199951171875</ele>
        <time>2026-06-16T09:26:57.000Z</time>
        <extensions>
          <ns3:TrackPointExtension>
            <ns3:atemp>23.0</ns3:atemp>
          </ns3:TrackPointExtension>
        </extensions>
      </trkpt>
      <trkpt lat="42.6177667267620563507080078125" lon="19.88360644318163394927978515625">
        <ele>1945.199951171875</ele>
        <time>2026-06-16T09:26:58.000Z</time>
        <extensions>
          <ns3:TrackPointExtension>
            <ns3:atemp>23.0</ns3:atemp>
          </ns3:TrackPointExtension>
        </extensions>
      </trkpt>
      <trkpt lat="42.6177667267620563507080078125" lon="19.88360644318163394927978515625">
        <ele>1945.199951171875</ele>
        <time>2026-06-16T09:26:59.000Z</time>
        <extensions>
          <ns3:TrackPointExtension>
            <ns3:atemp>23.0</ns3:atemp>
          </ns3:TrackPointExtension>
        </extensions>
      </trkpt>
      <trkpt lat="42.6177667267620563507080078125" lon="19.88360644318163394927978515625">
        <ele>1945</ele>
        <time>2026-06-16T09:27:00.000Z</time>
        <extensions>
          <ns3:TrackPointExtension>
            <ns3:atemp>23.0</ns3:atemp>
          </ns3:TrackPointExtension>
        </extensions>
      </trkpt>
      <trkpt lat="42.6177667267620563507080078125" lon="19.88360644318163394927978515625">
        <ele>1945</ele>
        <time>2026-06-16T09:27:01.000Z</time>
        <extensions>
          <ns3:TrackPointExtension>
            <ns3:atemp>23.0</ns3:atemp>
          </ns3:TrackPointExtension>
        </extensions>
      </trkpt>
      <trkpt lat="42.6177667267620563507080078125" lon="19.88360644318163394927978515625">
        <ele>1945</ele>
        <time>2026-06-16T09:27:02.000Z</time>
        <extensions>
          <ns3:TrackPointExtension>
            <ns3:atemp>23.0</ns3:atemp>
          </ns3:TrackPointExtension>
        </extensions>
      </trkpt>
      <trkpt lat="42.6177667267620563507080078125" lon="19.88360644318163394927978515625">
        <ele>1945</ele>
        <time>2026-06-16T09:27:03.000Z</time>
        <extensions>
          <ns3:TrackPointExtension>
            <ns3:atemp>23.0</ns3:atemp>
          </ns3:TrackPointExtension>
        </extensions>
      </trkpt>
      <trkpt lat="42.6177667267620563507080078125" lon="19.88360644318163394927978515625">
        <ele>1945</ele>
        <time>2026-06-16T09:27:04.000Z</time>
        <extensions>
          <ns3:TrackPointExtension>
            <ns3:atemp>23.0</ns3:atemp>
          </ns3:TrackPointExtension>
        </extensions>
      </trkpt>
      <trkpt lat="42.6177667267620563507080078125" lon="19.88360644318163394927978515625">
        <ele>1945</ele>
        <time>2026-06-16T09:27:05.000Z</time>
        <extensions>
          <ns3:TrackPointExtension>
            <ns3:atemp>23.0</ns3:atemp>
          </ns3:TrackPointExtension>
        </extensions>
      </trkpt>
      <trkpt lat="42.6177670620381832122802734375" lon="19.8836071975529193878173828125">
        <ele>1945</ele>
        <time>2026-06-16T09:27:06.000Z</time>
        <extensions>
          <ns3:TrackPointExtension>
            <ns3:atemp>23.0</ns3:atemp>
          </ns3:TrackPointExtension>
        </extensions>
      </trkpt>
      <trkpt lat="42.61776245199143886566162109375" lon="19.88360828720033168792724609375">
        <ele>1945</ele>
        <time>2026-06-16T09:27:07.000Z</time>
        <extensions>
          <ns3:TrackPointExtension>
            <ns3:atemp>23.0</ns3:atemp>
          </ns3:TrackPointExtension>
        </extensions>
      </trkpt>
      <trkpt lat="42.61776044033467769622802734375" lon="19.88360543735325336456298828125">
        <ele>1945</ele>
        <time>2026-06-16T09:27:08.000Z</time>
        <extensions>
          <ns3:TrackPointExtension>
            <ns3:atemp>23.0</ns3:atemp>
          </ns3:TrackPointExtension>
        </extensions>
      </trkpt>
      <trkpt lat="42.617758847773075103759765625" lon="19.8836051858961582183837890625">
        <ele>1945</ele>
        <time>2026-06-16T09:27:09.000Z</time>
        <extensions>
          <ns3:TrackPointExtension>
            <ns3:atemp>23.0</ns3:atemp>
          </ns3:TrackPointExtension>
        </extensions>
      </trkpt>
      <trkpt lat="42.61775507591664791107177734375" lon="19.883600659668445587158203125">
        <ele>1944.800048828125</ele>
        <time>2026-06-16T09:27:10.000Z</time>
        <extensions>
          <ns3:TrackPointExtension>
            <ns3:atemp>23.0</ns3:atemp>
          </ns3:TrackPointExtension>
        </extensions>
      </trkpt>
      <trkpt lat="42.61774267069995403289794921875" lon="19.8835870809853076934814453125">
        <ele>1944.800048828125</ele>
        <time>2026-06-16T09:27:11.000Z</time>
        <extensions>
          <ns3:TrackPointExtension>
            <ns3:atemp>23.0</ns3:atemp>
          </ns3:TrackPointExtension>
        </extensions>
      </trkpt>
      <trkpt lat="42.61772741563618183135986328125" lon="19.8835740052163600921630859375">
        <ele>1945</ele>
        <time>2026-06-16T09:27:12.000Z</time>
        <extensions>
          <ns3:TrackPointExtension>
            <ns3:atemp>23.0</ns3:atemp>
          </ns3:TrackPointExtension>
        </extensions>
      </trkpt>
      <trkpt lat="42.61770763434469699859619140625" lon="19.88356973044574260711669921875">
        <ele>1945</ele>
        <time>2026-06-16T09:27:13.000Z</time>
        <extensions>
          <ns3:TrackPointExtension>
            <ns3:atemp>23.0</ns3:atemp>
          </ns3:TrackPointExtension>
        </extensions>
      </trkpt>
      <trkpt lat="42.61768667958676815032958984375" lon="19.88356553949415683746337890625">
        <ele>1944.800048828125</ele>
        <time>2026-06-16T09:27:14.000Z</time>
        <extensions>
          <ns3:TrackPointExtension>
            <ns3:atemp>23.0</ns3:atemp>
          </ns3:TrackPointExtension>
        </extensions>
      </trkpt>
      <trkpt lat="42.61767025105655193328857421875" lon="19.88355598412454128265380859375">
        <ele>1944.5999755859375</ele>
        <time>2026-06-16T09:27:15.000Z</time>
        <extensions>
          <ns3:TrackPointExtension>
            <ns3:atemp>23.0</ns3:atemp>
          </ns3:TrackPointExtension>
        </extensions>
      </trkpt>
      <trkpt lat="42.61765968985855579376220703125" lon="19.8835471831262111663818359375">
        <ele>1944.5999755859375</ele>
        <time>2026-06-16T09:27:16.000Z</time>
        <extensions>
          <ns3:TrackPointExtension>
            <ns3:atemp>23.0</ns3:atemp>
          </ns3:TrackPointExtension>
        </extensions>
      </trkpt>
      <trkpt lat="42.61765214614570140838623046875" lon="19.8835357837378978729248046875">
        <ele>1944.4000244140625</ele>
        <time>2026-06-16T09:27:17.000Z</time>
        <extensions>
          <ns3:TrackPointExtension>
            <ns3:atemp>23.0</ns3:atemp>
          </ns3:TrackPointExtension>
        </extensions>
      </trkpt>
      <trkpt lat="42.6176510564982891082763671875" lon="19.88352245651185512542724609375">
        <ele>1944.4000244140625</ele>
        <time>2026-06-16T09:27:18.000Z</time>
        <extensions>
          <ns3:TrackPointExtension>
            <ns3:atemp>23.0</ns3:atemp>
          </ns3:TrackPointExtension>
        </extensions>
      </trkpt>
      <trkpt lat="42.6176445186138153076171875" lon="19.88350921310484409332275390625">
        <ele>1944.4000244140625</ele>
        <time>2026-06-16T09:27:19.000Z</time>
        <extensions>
          <ns3:TrackPointExtension>
            <ns3:atemp>23.0</ns3:atemp>
          </ns3:TrackPointExtension>
        </extensions>
      </trkpt>
      <trkpt lat="42.617635466158390045166015625" lon="19.88349563442170619964599609375">
        <ele>1944.4000244140625</ele>
        <time>2026-06-16T09:27:20.000Z</time>
        <extensions>
          <ns3:TrackPointExtension>
            <ns3:atemp>23.0</ns3:atemp>
          </ns3:TrackPointExtension>
        </extensions>
      </trkpt>
      <trkpt lat="42.61762239038944244384765625" lon="19.88348297774791717529296875">
        <ele>1944.199951171875</ele>
        <time>2026-06-16T09:27:21.000Z</time>
        <extensions>
          <ns3:TrackPointExtension>
            <ns3:atemp>23.0</ns3:atemp>
          </ns3:TrackPointExtension>
        </extensions>
      </trkpt>
      <trkpt lat="42.617611996829509735107421875" lon="19.88347669132053852081298828125">
        <ele>1944</ele>
        <time>2026-06-16T09:27:22.000Z</time>
        <extensions>
          <ns3:TrackPointExtension>
            <ns3:atemp>23.0</ns3:atemp>
          </ns3:TrackPointExtension>
        </extensions>
      </trkpt>
      <trkpt lat="42.6176084764301776885986328125" lon="19.88347367383539676666259765625">
        <ele>1943.800048828125</ele>
        <time>2026-06-16T09:27:23.000Z</time>
        <extensions>
          <ns3:TrackPointExtension>
            <ns3:atemp>23.0</ns3:atemp>
          </ns3:TrackPointExtension>
        </extensions>
      </trkpt>
      <trkpt lat="42.6176084764301776885986328125" lon="19.88347367383539676666259765625">
        <ele>1943.800048828125</ele>
        <time>2026-06-16T09:27:24.000Z</time>
        <extensions>
          <ns3:TrackPointExtension>
            <ns3:atemp>23.0</ns3:atemp>
          </ns3:TrackPointExtension>
        </extensions>
      </trkpt>
      <trkpt lat="42.6176084764301776885986328125" lon="19.88347367383539676666259765625">
        <ele>1943.5999755859375</ele>
        <time>2026-06-16T09:27:25.000Z</time>
        <extensions>
          <ns3:TrackPointExtension>
            <ns3:atemp>23.0</ns3:atemp>
          </ns3:TrackPointExtension>
        </extensions>
      </trkpt>
      <trkpt lat="42.6176084764301776885986328125" lon="19.88347367383539676666259765625">
        <ele>1943.4000244140625</ele>
        <time>2026-06-16T09:27:26.000Z</time>
        <extensions>
          <ns3:TrackPointExtension>
            <ns3:atemp>23.0</ns3:atemp>
          </ns3:TrackPointExtension>
        </extensions>
      </trkpt>
      <trkpt lat="42.6176084764301776885986328125" lon="19.88347367383539676666259765625">
        <ele>1943.4000244140625</ele>
        <time>2026-06-16T09:27:27.000Z</time>
        <extensions>
          <ns3:TrackPointExtension>
            <ns3:atemp>23.0</ns3:atemp>
          </ns3:TrackPointExtension>
        </extensions>
      </trkpt>
      <trkpt lat="42.6176084764301776885986328125" lon="19.88347367383539676666259765625">
        <ele>1943.199951171875</ele>
        <time>2026-06-16T09:27:28.000Z</time>
        <extensions>
          <ns3:TrackPointExtension>
            <ns3:atemp>23.0</ns3:atemp>
          </ns3:TrackPointExtension>
        </extensions>
      </trkpt>
      <trkpt lat="42.6176084764301776885986328125" lon="19.88347367383539676666259765625">
        <ele>1943.199951171875</ele>
        <time>2026-06-16T09:27:29.000Z</time>
        <extensions>
          <ns3:TrackPointExtension>
            <ns3:atemp>23.0</ns3:atemp>
          </ns3:TrackPointExtension>
        </extensions>
      </trkpt>
      <trkpt lat="42.6176084764301776885986328125" lon="19.88347367383539676666259765625">
        <ele>1943.199951171875</ele>
        <time>2026-06-16T09:27:30.000Z</time>
        <extensions>
          <ns3:TrackPointExtension>
            <ns3:atemp>23.0</ns3:atemp>
          </ns3:TrackPointExtension>
        </extensions>
      </trkpt>
      <trkpt lat="42.6176084764301776885986328125" lon="19.88347367383539676666259765625">
        <ele>1943</ele>
        <time>2026-06-16T09:27:31.000Z</time>
        <extensions>
          <ns3:TrackPointExtension>
            <ns3:atemp>23.0</ns3:atemp>
          </ns3:TrackPointExtension>
        </extensions>
      </trkpt>
      <trkpt lat="42.6176084764301776885986328125" lon="19.88347367383539676666259765625">
        <ele>1943</ele>
        <time>2026-06-16T09:27:32.000Z</time>
        <extensions>
          <ns3:TrackPointExtension>
            <ns3:atemp>23.0</ns3:atemp>
          </ns3:TrackPointExtension>
        </extensions>
      </trkpt>
      <trkpt lat="42.6176084764301776885986328125" lon="19.88347367383539676666259765625">
        <ele>1943</ele>
        <time>2026-06-16T09:27:33.000Z</time>
        <extensions>
          <ns3:TrackPointExtension>
            <ns3:atemp>23.0</ns3:atemp>
          </ns3:TrackPointExtension>
        </extensions>
      </trkpt>
      <trkpt lat="42.6176084764301776885986328125" lon="19.88347367383539676666259765625">
        <ele>1943</ele>
        <time>2026-06-16T09:27:34.000Z</time>
        <extensions>
          <ns3:TrackPointExtension>
            <ns3:atemp>23.0</ns3:atemp>
          </ns3:TrackPointExtension>
        </extensions>
      </trkpt>
      <trkpt lat="42.6176084764301776885986328125" lon="19.88347367383539676666259765625">
        <ele>1942.800048828125</ele>
        <time>2026-06-16T09:27:35.000Z</time>
        <extensions>
          <ns3:TrackPointExtension>
            <ns3:atemp>23.0</ns3:atemp>
          </ns3:TrackPointExtension>
        </extensions>
      </trkpt>
      <trkpt lat="42.6176084764301776885986328125" lon="19.88347367383539676666259765625">
        <ele>1942.800048828125</ele>
        <time>2026-06-16T09:27:36.000Z</time>
        <extensions>
          <ns3:TrackPointExtension>
            <ns3:atemp>23.0</ns3:atemp>
          </ns3:TrackPointExtension>
        </extensions>
      </trkpt>
      <trkpt lat="42.6176084764301776885986328125" lon="19.88347367383539676666259765625">
        <ele>1942.800048828125</ele>
        <time>2026-06-16T09:27:37.000Z</time>
        <extensions>
          <ns3:TrackPointExtension>
            <ns3:atemp>23.0</ns3:atemp>
          </ns3:TrackPointExtension>
        </extensions>
      </trkpt>
      <trkpt lat="42.6176084764301776885986328125" lon="19.88347367383539676666259765625">
        <ele>1942.800048828125</ele>
        <time>2026-06-16T09:27:38.000Z</time>
        <extensions>
          <ns3:TrackPointExtension>
            <ns3:atemp>23.0</ns3:atemp>
          </ns3:TrackPointExtension>
        </extensions>
      </trkpt>
      <trkpt lat="42.6176084764301776885986328125" lon="19.88347367383539676666259765625">
        <ele>1942.800048828125</ele>
        <time>2026-06-16T09:27:39.000Z</time>
        <extensions>
          <ns3:TrackPointExtension>
            <ns3:atemp>23.0</ns3:atemp>
          </ns3:TrackPointExtension>
        </extensions>
      </trkpt>
      <trkpt lat="42.6176084764301776885986328125" lon="19.88347367383539676666259765625">
        <ele>1943</ele>
        <time>2026-06-16T09:27:40.000Z</time>
        <extensions>
          <ns3:TrackPointExtension>
            <ns3:atemp>23.0</ns3:atemp>
          </ns3:TrackPointExtension>
        </extensions>
      </trkpt>
      <trkpt lat="42.6176084764301776885986328125" lon="19.88347367383539676666259765625">
        <ele>1943</ele>
        <time>2026-06-16T09:27:41.000Z</time>
        <extensions>
          <ns3:TrackPointExtension>
            <ns3:atemp>23.0</ns3:atemp>
          </ns3:TrackPointExtension>
        </extensions>
      </trkpt>
      <trkpt lat="42.6176084764301776885986328125" lon="19.88347367383539676666259765625">
        <ele>1943</ele>
        <time>2026-06-16T09:27:42.000Z</time>
        <extensions>
          <ns3:TrackPointExtension>
            <ns3:atemp>23.0</ns3:atemp>
          </ns3:TrackPointExtension>
        </extensions>
      </trkpt>
      <trkpt lat="42.6176084764301776885986328125" lon="19.88347367383539676666259765625">
        <ele>1943</ele>
        <time>2026-06-16T09:27:43.000Z</time>
        <extensions>
          <ns3:TrackPointExtension>
            <ns3:atemp>23.0</ns3:atemp>
          </ns3:TrackPointExtension>
        </extensions>
      </trkpt>
      <trkpt lat="42.6176084764301776885986328125" lon="19.88347367383539676666259765625">
        <ele>1942.800048828125</ele>
        <time>2026-06-16T09:27:44.000Z</time>
        <extensions>
          <ns3:TrackPointExtension>
            <ns3:atemp>23.0</ns3:atemp>
          </ns3:TrackPointExtension>
        </extensions>
      </trkpt>
      <trkpt lat="42.6176084764301776885986328125" lon="19.88347367383539676666259765625">
        <ele>1942.800048828125</ele>
        <time>2026-06-16T09:27:45.000Z</time>
        <extensions>
          <ns3:TrackPointExtension>
            <ns3:atemp>23.0</ns3:atemp>
          </ns3:TrackPointExtension>
        </extensions>
      </trkpt>
      <trkpt lat="42.6176084764301776885986328125" lon="19.88347367383539676666259765625">
        <ele>1942.800048828125</ele>
        <time>2026-06-16T09:27:46.000Z</time>
        <extensions>
          <ns3:TrackPointExtension>
            <ns3:atemp>23.0</ns3:atemp>
          </ns3:TrackPointExtension>
        </extensions>
      </trkpt>
      <trkpt lat="42.6176084764301776885986328125" lon="19.88347367383539676666259765625">
        <ele>1942.800048828125</ele>
        <time>2026-06-16T09:27:47.000Z</time>
        <extensions>
          <ns3:TrackPointExtension>
            <ns3:atemp>23.0</ns3:atemp>
          </ns3:TrackPointExtension>
        </extensions>
      </trkpt>
      <trkpt lat="42.6176054589450359344482421875" lon="19.8834715783596038818359375">
        <ele>1942.800048828125</ele>
        <time>2026-06-16T09:27:48.000Z</time>
        <extensions>
          <ns3:TrackPointExtension>
            <ns3:atemp>23.0</ns3:atemp>
          </ns3:TrackPointExtension>
        </extensions>
      </trkpt>
      <trkpt lat="42.6175855100154876708984375" lon="19.88346663303673267364501953125">
        <ele>1942.5999755859375</ele>
        <time>2026-06-16T09:27:49.000Z</time>
        <extensions>
          <ns3:TrackPointExtension>
            <ns3:atemp>23.0</ns3:atemp>
          </ns3:TrackPointExtension>
        </extensions>
      </trkpt>
      <trkpt lat="42.6175679080188274383544921875" lon="19.88346110098063945770263671875">
        <ele>1942.5999755859375</ele>
        <time>2026-06-16T09:27:50.000Z</time>
        <extensions>
          <ns3:TrackPointExtension>
            <ns3:atemp>23.0</ns3:atemp>
          </ns3:TrackPointExtension>
        </extensions>
      </trkpt>
      <trkpt lat="42.61755491606891155242919921875" lon="19.8834479413926601409912109375">
        <ele>1942.4000244140625</ele>
        <time>2026-06-16T09:27:51.000Z</time>
        <extensions>
          <ns3:TrackPointExtension>
            <ns3:atemp>23.0</ns3:atemp>
          </ns3:TrackPointExtension>
        </extensions>
      </trkpt>
      <trkpt lat="42.61754955165088176727294921875" lon="19.883427657186985015869140625">
        <ele>1942.199951171875</ele>
        <time>2026-06-16T09:27:52.000Z</time>
        <extensions>
          <ns3:TrackPointExtension>
            <ns3:atemp>23.0</ns3:atemp>
          </ns3:TrackPointExtension>
        </extensions>
      </trkpt>
      <trkpt lat="42.6175417564809322357177734375" lon="19.88341013900935649871826171875">
        <ele>1941.800048828125</ele>
        <time>2026-06-16T09:27:53.000Z</time>
        <extensions>
          <ns3:TrackPointExtension>
            <ns3:atemp>23.0</ns3:atemp>
          </ns3:TrackPointExtension>
        </extensions>
      </trkpt>
      <trkpt lat="42.61752490885555744171142578125" lon="19.8833966441452503204345703125">
        <ele>1941.4000244140625</ele>
        <time>2026-06-16T09:27:54.000Z</time>
        <extensions>
          <ns3:TrackPointExtension>
            <ns3:atemp>23.0</ns3:atemp>
          </ns3:TrackPointExtension>
        </extensions>
      </trkpt>
      <trkpt lat="42.61752340011298656463623046875" lon="19.88339823670685291290283203125">
        <ele>1941</ele>
        <time>2026-06-16T09:27:55.000Z</time>
        <extensions>
          <ns3:TrackPointExtension>
            <ns3:atemp>23.0</ns3:atemp>
          </ns3:TrackPointExtension>
        </extensions>
      </trkpt>
      <trkpt lat="42.61751166544854640960693359375" lon="19.8834077082574367523193359375">
        <ele>1940.800048828125</ele>
        <time>2026-06-16T09:27:56.000Z</time>
        <extensions>
          <ns3:TrackPointExtension>
            <ns3:atemp>23.0</ns3:atemp>
          </ns3:TrackPointExtension>
        </extensions>
      </trkpt>
      <trkpt lat="42.617503702640533447265625" lon="19.88341600634157657623291015625">
        <ele>1940.4000244140625</ele>
        <time>2026-06-16T09:27:57.000Z</time>
        <extensions>
          <ns3:TrackPointExtension>
            <ns3:atemp>23.0</ns3:atemp>
          </ns3:TrackPointExtension>
        </extensions>
      </trkpt>
      <trkpt lat="42.6174954883754253387451171875" lon="19.88341734744608402252197265625">
        <ele>1940.199951171875</ele>
        <time>2026-06-16T09:27:58.000Z</time>
        <extensions>
          <ns3:TrackPointExtension>
            <ns3:atemp>23.0</ns3:atemp>
          </ns3:TrackPointExtension>
        </extensions>
      </trkpt>
      <trkpt lat="42.61748199351131916046142578125" lon="19.883405864238739013671875">
        <ele>1939.800048828125</ele>
        <time>2026-06-16T09:27:59.000Z</time>
        <extensions>
          <ns3:TrackPointExtension>
            <ns3:atemp>23.0</ns3:atemp>
          </ns3:TrackPointExtension>
        </extensions>
      </trkpt>
      <trkpt lat="42.617475204169750213623046875" lon="19.8833808861672878265380859375">
        <ele>1939.4000244140625</ele>
        <time>2026-06-16T09:28:00.000Z</time>
        <extensions>
          <ns3:TrackPointExtension>
            <ns3:atemp>23.0</ns3:atemp>
          </ns3:TrackPointExtension>
        </extensions>
      </trkpt>
      <trkpt lat="42.61746673844754695892333984375" lon="19.88336093723773956298828125">
        <ele>1939</ele>
        <time>2026-06-16T09:28:01.000Z</time>
        <extensions>
          <ns3:TrackPointExtension>
            <ns3:atemp>23.0</ns3:atemp>
          </ns3:TrackPointExtension>
        </extensions>
      </trkpt>
      <trkpt lat="42.61745600961148738861083984375" lon="19.8833455145359039306640625">
        <ele>1938.800048828125</ele>
        <time>2026-06-16T09:28:02.000Z</time>
        <extensions>
          <ns3:TrackPointExtension>
            <ns3:atemp>23.0</ns3:atemp>
          </ns3:TrackPointExtension>
        </extensions>
      </trkpt>
      <trkpt lat="42.61745517142117023468017578125" lon="19.88332212902605533599853515625">
        <ele>1938.4000244140625</ele>
        <time>2026-06-16T09:28:03.000Z</time>
        <extensions>
          <ns3:TrackPointExtension>
            <ns3:atemp>23.0</ns3:atemp>
          </ns3:TrackPointExtension>
        </extensions>
      </trkpt>
      <trkpt lat="42.61745315976440906524658203125" lon="19.88330058753490447998046875">
        <ele>1938</ele>
        <time>2026-06-16T09:28:04.000Z</time>
        <extensions>
          <ns3:TrackPointExtension>
            <ns3:atemp>23.0</ns3:atemp>
          </ns3:TrackPointExtension>
        </extensions>
      </trkpt>
      <trkpt lat="42.61744427494704723358154296875" lon="19.88326999358832836151123046875">
        <ele>1937.5999755859375</ele>
        <time>2026-06-16T09:28:05.000Z</time>
        <extensions>
          <ns3:TrackPointExtension>
            <ns3:atemp>23.0</ns3:atemp>
          </ns3:TrackPointExtension>
        </extensions>
      </trkpt>
      <trkpt lat="42.61743287555873394012451171875" lon="19.88322607241570949554443359375">
        <ele>1937.199951171875</ele>
        <time>2026-06-16T09:28:06.000Z</time>
        <extensions>
          <ns3:TrackPointExtension>
            <ns3:atemp>23.0</ns3:atemp>
          </ns3:TrackPointExtension>
        </extensions>
      </trkpt>
      <trkpt lat="42.61742818169295787811279296875" lon="19.8831666447222232818603515625">
        <ele>1936.5999755859375</ele>
        <time>2026-06-16T09:28:07.000Z</time>
        <extensions>
          <ns3:TrackPointExtension>
            <ns3:atemp>23.0</ns3:atemp>
          </ns3:TrackPointExtension>
        </extensions>
      </trkpt>
      <trkpt lat="42.61742181144654750823974609375" lon="19.88310151733458042144775390625">
        <ele>1936</ele>
        <time>2026-06-16T09:28:08.000Z</time>
        <extensions>
          <ns3:TrackPointExtension>
            <ns3:atemp>23.0</ns3:atemp>
          </ns3:TrackPointExtension>
        </extensions>
      </trkpt>
      <trkpt lat="42.61740504764020442962646484375" lon="19.88304041326045989990234375">
        <ele>1935.4000244140625</ele>
        <time>2026-06-16T09:28:09.000Z</time>
        <extensions>
          <ns3:TrackPointExtension>
            <ns3:atemp>23.0</ns3:atemp>
          </ns3:TrackPointExtension>
        </extensions>
      </trkpt>
      <trkpt lat="42.6173888705670833587646484375" lon="19.882996492087841033935546875">
        <ele>1934.800048828125</ele>
        <time>2026-06-16T09:28:10.000Z</time>
        <extensions>
          <ns3:TrackPointExtension>
            <ns3:atemp>23.0</ns3:atemp>
          </ns3:TrackPointExtension>
        </extensions>
      </trkpt>
      <trkpt lat="42.61737822555005550384521484375" lon="19.882971011102199554443359375">
        <ele>1934.4000244140625</ele>
        <time>2026-06-16T09:28:11.000Z</time>
        <extensions>
          <ns3:TrackPointExtension>
            <ns3:atemp>23.0</ns3:atemp>
          </ns3:TrackPointExtension>
        </extensions>
      </trkpt>
      <trkpt lat="42.61737487278878688812255859375" lon="19.88295818679034709930419921875">
        <ele>1934</ele>
        <time>2026-06-16T09:28:12.000Z</time>
        <extensions>
          <ns3:TrackPointExtension>
            <ns3:atemp>23.0</ns3:atemp>
          </ns3:TrackPointExtension>
        </extensions>
      </trkpt>
      <trkpt lat="42.61736716143786907196044921875" lon="19.88293354399502277374267578125">
        <ele>1933.800048828125</ele>
        <time>2026-06-16T09:28:13.000Z</time>
        <extensions>
          <ns3:TrackPointExtension>
            <ns3:atemp>23.0</ns3:atemp>
          </ns3:TrackPointExtension>
        </extensions>
      </trkpt>
      <trkpt lat="42.6173590309917926788330078125" lon="19.8829098232090473175048828125">
        <ele>1933.5999755859375</ele>
        <time>2026-06-16T09:28:14.000Z</time>
        <extensions>
          <ns3:TrackPointExtension>
            <ns3:atemp>23.0</ns3:atemp>
          </ns3:TrackPointExtension>
        </extensions>
      </trkpt>
      <trkpt lat="42.6173516549170017242431640625" lon="19.8828893713653087615966796875">
        <ele>1933.4000244140625</ele>
        <time>2026-06-16T09:28:15.000Z</time>
        <extensions>
          <ns3:TrackPointExtension>
            <ns3:atemp>23.0</ns3:atemp>
          </ns3:TrackPointExtension>
        </extensions>
      </trkpt>
      <trkpt lat="42.6173429377377033233642578125" lon="19.88287118263542652130126953125">
        <ele>1933.199951171875</ele>
        <time>2026-06-16T09:28:16.000Z</time>
        <extensions>
          <ns3:TrackPointExtension>
            <ns3:atemp>23.0</ns3:atemp>
          </ns3:TrackPointExtension>
        </extensions>
      </trkpt>
      <trkpt lat="42.6173332147300243377685546875" lon="19.88285064697265625">
        <ele>1933</ele>
        <time>2026-06-16T09:28:17.000Z</time>
        <extensions>
          <ns3:TrackPointExtension>
            <ns3:atemp>23.0</ns3:atemp>
          </ns3:TrackPointExtension>
        </extensions>
      </trkpt>
      <trkpt lat="42.61732793413102626800537109375" lon="19.88282181322574615478515625">
        <ele>1932.800048828125</ele>
        <time>2026-06-16T09:28:18.000Z</time>
        <extensions>
          <ns3:TrackPointExtension>
            <ns3:atemp>22.0</ns3:atemp>
          </ns3:TrackPointExtension>
        </extensions>
      </trkpt>
      <trkpt lat="42.61732340790331363677978515625" lon="19.88279909826815128326416015625">
        <ele>1932.800048828125</ele>
        <time>2026-06-16T09:28:19.000Z</time>
        <extensions>
          <ns3:TrackPointExtension>
            <ns3:atemp>22.0</ns3:atemp>
          </ns3:TrackPointExtension>
        </extensions>
      </trkpt>
      <trkpt lat="42.617318965494632720947265625" lon="19.882788956165313720703125">
        <ele>1932.800048828125</ele>
        <time>2026-06-16T09:28:20.000Z</time>
        <extensions>
          <ns3:TrackPointExtension>
            <ns3:atemp>22.0</ns3:atemp>
          </ns3:TrackPointExtension>
        </extensions>
      </trkpt>
      <trkpt lat="42.6173114217817783355712890625" lon="19.8827780596911907196044921875">
        <ele>1932.800048828125</ele>
        <time>2026-06-16T09:28:21.000Z</time>
        <extensions>
          <ns3:TrackPointExtension>
            <ns3:atemp>22.0</ns3:atemp>
          </ns3:TrackPointExtension>
        </extensions>
      </trkpt>
      <trkpt lat="42.61730563826858997344970703125" lon="19.88275735639035701751708984375">
        <ele>1932.800048828125</ele>
        <time>2026-06-16T09:28:22.000Z</time>
        <extensions>
          <ns3:TrackPointExtension>
            <ns3:atemp>22.0</ns3:atemp>
          </ns3:TrackPointExtension>
        </extensions>
      </trkpt>
      <trkpt lat="42.61730630882084369659423828125" lon="19.88272667862474918365478515625">
        <ele>1932.5999755859375</ele>
        <time>2026-06-16T09:28:23.000Z</time>
        <extensions>
          <ns3:TrackPointExtension>
            <ns3:atemp>22.0</ns3:atemp>
          </ns3:TrackPointExtension>
        </extensions>
      </trkpt>
      <trkpt lat="42.6172983460128307342529296875" lon="19.882704801857471466064453125">
        <ele>1932.5999755859375</ele>
        <time>2026-06-16T09:28:24.000Z</time>
        <extensions>
          <ns3:TrackPointExtension>
            <ns3:atemp>22.0</ns3:atemp>
          </ns3:TrackPointExtension>
        </extensions>
      </trkpt>
      <trkpt lat="42.61729038320481777191162109375" lon="19.88267001695930957794189453125">
        <ele>1932.4000244140625</ele>
        <time>2026-06-16T09:28:25.000Z</time>
        <extensions>
          <ns3:TrackPointExtension>
            <ns3:atemp>22.0</ns3:atemp>
          </ns3:TrackPointExtension>
        </extensions>
      </trkpt>
      <trkpt lat="42.6172845996916294097900390625" lon="19.88263615407049655914306640625">
        <ele>1932.199951171875</ele>
        <time>2026-06-16T09:28:26.000Z</time>
        <extensions>
          <ns3:TrackPointExtension>
            <ns3:atemp>22.0</ns3:atemp>
          </ns3:TrackPointExtension>
        </extensions>
      </trkpt>
      <trkpt lat="42.61727278120815753936767578125" lon="19.88260748796164989471435546875">
        <ele>1932</ele>
        <time>2026-06-16T09:28:27.000Z</time>
        <extensions>
          <ns3:TrackPointExtension>
            <ns3:atemp>22.0</ns3:atemp>
          </ns3:TrackPointExtension>
        </extensions>
      </trkpt>
      <trkpt lat="42.6172571070492267608642578125" lon="19.8825869522988796234130859375">
        <ele>1931.800048828125</ele>
        <time>2026-06-16T09:28:28.000Z</time>
        <extensions>
          <ns3:TrackPointExtension>
            <ns3:atemp>22.0</ns3:atemp>
          </ns3:TrackPointExtension>
        </extensions>
      </trkpt>
      <trkpt lat="42.6172403432428836822509765625" lon="19.8825641535222530364990234375">
        <ele>1931.800048828125</ele>
        <time>2026-06-16T09:28:29.000Z</time>
        <extensions>
          <ns3:TrackPointExtension>
            <ns3:atemp>22.0</ns3:atemp>
          </ns3:TrackPointExtension>
        </extensions>
      </trkpt>
      <trkpt lat="42.61722282506525516510009765625" lon="19.8825423605740070343017578125">
        <ele>1931.5999755859375</ele>
        <time>2026-06-16T09:28:30.000Z</time>
        <extensions>
          <ns3:TrackPointExtension>
            <ns3:atemp>22.0</ns3:atemp>
          </ns3:TrackPointExtension>
        </extensions>
      </trkpt>
      <trkpt lat="42.6172004453837871551513671875" lon="19.88252484239637851715087890625">
        <ele>1931.5999755859375</ele>
        <time>2026-06-16T09:28:31.000Z</time>
        <extensions>
          <ns3:TrackPointExtension>
            <ns3:atemp>22.0</ns3:atemp>
          </ns3:TrackPointExtension>
        </extensions>
      </trkpt>
      <trkpt lat="42.61717714369297027587890625" lon="19.8825111798942089080810546875">
        <ele>1931.5999755859375</ele>
        <time>2026-06-16T09:28:32.000Z</time>
        <extensions>
          <ns3:TrackPointExtension>
            <ns3:atemp>22.0</ns3:atemp>
          </ns3:TrackPointExtension>
        </extensions>
      </trkpt>
      <trkpt lat="42.61715291999280452728271484375" lon="19.88250019960105419158935546875">
        <ele>1931.5999755859375</ele>
        <time>2026-06-16T09:28:33.000Z</time>
        <extensions>
          <ns3:TrackPointExtension>
            <ns3:atemp>22.0</ns3:atemp>
          </ns3:TrackPointExtension>
        </extensions>
      </trkpt>
      <trkpt lat="42.6171297021210193634033203125" lon="19.8824850283563137054443359375">
        <ele>1931.5999755859375</ele>
        <time>2026-06-16T09:28:34.000Z</time>
        <extensions>
          <ns3:TrackPointExtension>
            <ns3:atemp>22.0</ns3:atemp>
          </ns3:TrackPointExtension>
        </extensions>
      </trkpt>
      <trkpt lat="42.61710899882018566131591796875" lon="19.88247186876833438873291015625">
        <ele>1931.5999755859375</ele>
        <time>2026-06-16T09:28:35.000Z</time>
        <extensions>
          <ns3:TrackPointExtension>
            <ns3:atemp>22.0</ns3:atemp>
          </ns3:TrackPointExtension>
        </extensions>
      </trkpt>
      <trkpt lat="42.61708955280482769012451171875" lon="19.8824605531990528106689453125">
        <ele>1931.800048828125</ele>
        <time>2026-06-16T09:28:36.000Z</time>
        <extensions>
          <ns3:TrackPointExtension>
            <ns3:atemp>22.0</ns3:atemp>
          </ns3:TrackPointExtension>
        </extensions>
      </trkpt>
      <trkpt lat="42.6170653291046619415283203125" lon="19.882449992001056671142578125">
        <ele>1931.800048828125</ele>
        <time>2026-06-16T09:28:37.000Z</time>
        <extensions>
          <ns3:TrackPointExtension>
            <ns3:atemp>22.0</ns3:atemp>
          </ns3:TrackPointExtension>
        </extensions>
      </trkpt>
      <trkpt lat="42.6170401833951473236083984375" lon="19.8824434541165828704833984375">
        <ele>1931.800048828125</ele>
        <time>2026-06-16T09:28:38.000Z</time>
        <extensions>
          <ns3:TrackPointExtension>
            <ns3:atemp>22.0</ns3:atemp>
          </ns3:TrackPointExtension>
        </extensions>
      </trkpt>
      <trkpt lat="42.61701629497110843658447265625" lon="19.8824350722134113311767578125">
        <ele>1932</ele>
        <time>2026-06-16T09:28:39.000Z</time>
        <extensions>
          <ns3:TrackPointExtension>
            <ns3:atemp>22.0</ns3:atemp>
          </ns3:TrackPointExtension>
        </extensions>
      </trkpt>
      <trkpt lat="42.616995088756084442138671875" lon="19.8824270255863666534423828125">
        <ele>1932.199951171875</ele>
        <time>2026-06-16T09:28:40.000Z</time>
        <extensions>
          <ns3:TrackPointExtension>
            <ns3:atemp>22.0</ns3:atemp>
          </ns3:TrackPointExtension>
        </extensions>
      </trkpt>
      <trkpt lat="42.6169761456549167633056640625" lon="19.88241923041641712188720703125">
        <ele>1932.4000244140625</ele>
        <time>2026-06-16T09:28:41.000Z</time>
        <extensions>
          <ns3:TrackPointExtension>
            <ns3:atemp>22.0</ns3:atemp>
          </ns3:TrackPointExtension>
        </extensions>
      </trkpt>
      <trkpt lat="42.616956196725368499755859375" lon="19.8824119381606578826904296875">
        <ele>1932.5999755859375</ele>
        <time>2026-06-16T09:28:42.000Z</time>
        <extensions>
          <ns3:TrackPointExtension>
            <ns3:atemp>22.0</ns3:atemp>
          </ns3:TrackPointExtension>
        </extensions>
      </trkpt>
      <trkpt lat="42.61692979373037815093994140625" lon="19.88240229897201061248779296875">
        <ele>1932.800048828125</ele>
        <time>2026-06-16T09:28:43.000Z</time>
        <extensions>
          <ns3:TrackPointExtension>
            <ns3:atemp>22.0</ns3:atemp>
          </ns3:TrackPointExtension>
        </extensions>
      </trkpt>
      <trkpt lat="42.6169013790786266326904296875" lon="19.88238352350890636444091796875">
        <ele>1933</ele>
        <time>2026-06-16T09:28:44.000Z</time>
        <extensions>
          <ns3:TrackPointExtension>
            <ns3:atemp>22.0</ns3:atemp>
          </ns3:TrackPointExtension>
        </extensions>
      </trkpt>
      <trkpt lat="42.6168675161898136138916015625" lon="19.882358796894550323486328125">
        <ele>1933</ele>
        <time>2026-06-16T09:28:45.000Z</time>
        <extensions>
          <ns3:TrackPointExtension>
            <ns3:atemp>22.0</ns3:atemp>
          </ns3:TrackPointExtension>
        </extensions>
      </trkpt>
      <trkpt lat="42.616837508976459503173828125" lon="19.8823334835469722747802734375">
        <ele>1933.199951171875</ele>
        <time>2026-06-16T09:28:46.000Z</time>
        <extensions>
          <ns3:TrackPointExtension>
            <ns3:atemp>22.0</ns3:atemp>
          </ns3:TrackPointExtension>
        </extensions>
      </trkpt>
      <trkpt lat="42.616808675229549407958984375" lon="19.8823046498000621795654296875">
        <ele>1933.199951171875</ele>
        <time>2026-06-16T09:28:47.000Z</time>
        <extensions>
          <ns3:TrackPointExtension>
            <ns3:atemp>22.0</ns3:atemp>
          </ns3:TrackPointExtension>
        </extensions>
      </trkpt>
      <trkpt lat="42.61677992530167102813720703125" lon="19.8822744749486446380615234375">
        <ele>1933.199951171875</ele>
        <time>2026-06-16T09:28:48.000Z</time>
        <extensions>
          <ns3:TrackPointExtension>
            <ns3:atemp>22.0</ns3:atemp>
          </ns3:TrackPointExtension>
        </extensions>
      </trkpt>
      <trkpt lat="42.6167511753737926483154296875" lon="19.8822375945746898651123046875">
        <ele>1933.199951171875</ele>
        <time>2026-06-16T09:28:49.000Z</time>
        <extensions>
          <ns3:TrackPointExtension>
            <ns3:atemp>22.0</ns3:atemp>
          </ns3:TrackPointExtension>
        </extensions>
      </trkpt>
      <trkpt lat="42.61672653257846832275390625" lon="19.88219744525849819183349609375">
        <ele>1933.199951171875</ele>
        <time>2026-06-16T09:28:50.000Z</time>
        <extensions>
          <ns3:TrackPointExtension>
            <ns3:atemp>22.0</ns3:atemp>
          </ns3:TrackPointExtension>
        </extensions>
      </trkpt>
      <trkpt lat="42.61669677682220935821533203125" lon="19.88215939141809940338134765625">
        <ele>1933</ele>
        <time>2026-06-16T09:28:51.000Z</time>
        <extensions>
          <ns3:TrackPointExtension>
            <ns3:atemp>22.0</ns3:atemp>
          </ns3:TrackPointExtension>
        </extensions>
      </trkpt>
      <trkpt lat="42.61666777543723583221435546875" lon="19.882114715874195098876953125">
        <ele>1933</ele>
        <time>2026-06-16T09:28:52.000Z</time>
        <extensions>
          <ns3:TrackPointExtension>
            <ns3:atemp>22.0</ns3:atemp>
          </ns3:TrackPointExtension>
        </extensions>
      </trkpt>
      <trkpt lat="42.6166348345577716827392578125" lon="19.8820857144892215728759765625">
        <ele>1932.800048828125</ele>
        <time>2026-06-16T09:28:53.000Z</time>
        <extensions>
          <ns3:TrackPointExtension>
            <ns3:atemp>22.0</ns3:atemp>
          </ns3:TrackPointExtension>
        </extensions>
      </trkpt>
      <trkpt lat="42.61659954674541950225830078125" lon="19.88205612637102603912353515625">
        <ele>1932.5999755859375</ele>
        <time>2026-06-16T09:28:54.000Z</time>
        <extensions>
          <ns3:TrackPointExtension>
            <ns3:atemp>22.0</ns3:atemp>
          </ns3:TrackPointExtension>
        </extensions>
      </trkpt>
      <trkpt lat="42.61657104827463626861572265625" lon="19.8820285499095916748046875">
        <ele>1932.4000244140625</ele>
        <time>2026-06-16T09:28:55.000Z</time>
        <extensions>
          <ns3:TrackPointExtension>
            <ns3:atemp>22.0</ns3:atemp>
          </ns3:TrackPointExtension>
        </extensions>
      </trkpt>
      <trkpt lat="42.61654791422188282012939453125" lon="19.88199963234364986419677734375">
        <ele>1932</ele>
        <time>2026-06-16T09:28:56.000Z</time>
        <extensions>
          <ns3:TrackPointExtension>
            <ns3:atemp>22.0</ns3:atemp>
          </ns3:TrackPointExtension>
        </extensions>
      </trkpt>
      <trkpt lat="42.6165191642940044403076171875" lon="19.88197364844381809234619140625">
        <ele>1931.800048828125</ele>
        <time>2026-06-16T09:28:57.000Z</time>
        <extensions>
          <ns3:TrackPointExtension>
            <ns3:atemp>22.0</ns3:atemp>
          </ns3:TrackPointExtension>
        </extensions>
      </trkpt>
      <trkpt lat="42.616488151252269744873046875" lon="19.8819425515830516815185546875">
        <ele>1931.5999755859375</ele>
        <time>2026-06-16T09:28:58.000Z</time>
        <extensions>
          <ns3:TrackPointExtension>
            <ns3:atemp>22.0</ns3:atemp>
          </ns3:TrackPointExtension>
        </extensions>
      </trkpt>
      <trkpt lat="42.616461999714374542236328125" lon="19.8819130472838878631591796875">
        <ele>1931.4000244140625</ele>
        <time>2026-06-16T09:28:59.000Z</time>
        <extensions>
          <ns3:TrackPointExtension>
            <ns3:atemp>22.0</ns3:atemp>
          </ns3:TrackPointExtension>
        </extensions>
      </trkpt>
      <trkpt lat="42.61643274687230587005615234375" lon="19.88188882358372211456298828125">
        <ele>1931.4000244140625</ele>
        <time>2026-06-16T09:29:00.000Z</time>
        <extensions>
          <ns3:TrackPointExtension>
            <ns3:atemp>22.0</ns3:atemp>
          </ns3:TrackPointExtension>
        </extensions>
      </trkpt>
      <trkpt lat="42.6163959503173828125" lon="19.8818684555590152740478515625">
        <ele>1931.199951171875</ele>
        <time>2026-06-16T09:29:01.000Z</time>
        <extensions>
          <ns3:TrackPointExtension>
            <ns3:atemp>22.0</ns3:atemp>
          </ns3:TrackPointExtension>
        </extensions>
      </trkpt>
      <trkpt lat="42.616356052458286285400390625" lon="19.88184490241110324859619140625">
        <ele>1931</ele>
        <time>2026-06-16T09:29:02.000Z</time>
        <extensions>
          <ns3:TrackPointExtension>
            <ns3:atemp>22.0</ns3:atemp>
          </ns3:TrackPointExtension>
        </extensions>
      </trkpt>
      <trkpt lat="42.61631674133241176605224609375" lon="19.881823360919952392578125">
        <ele>1930.5999755859375</ele>
        <time>2026-06-16T09:29:03.000Z</time>
        <extensions>
          <ns3:TrackPointExtension>
            <ns3:atemp>22.0</ns3:atemp>
          </ns3:TrackPointExtension>
        </extensions>
      </trkpt>
      <trkpt lat="42.61627592146396636962890625" lon="19.88180835731327533721923828125">
        <ele>1930.4000244140625</ele>
        <time>2026-06-16T09:29:04.000Z</time>
        <extensions>
          <ns3:TrackPointExtension>
            <ns3:atemp>22.0</ns3:atemp>
          </ns3:TrackPointExtension>
        </extensions>
      </trkpt>
      <trkpt lat="42.61623426340520381927490234375" lon="19.8818044178187847137451171875">
        <ele>1930.199951171875</ele>
        <time>2026-06-16T09:29:05.000Z</time>
        <extensions>
          <ns3:TrackPointExtension>
            <ns3:atemp>22.0</ns3:atemp>
          </ns3:TrackPointExtension>
        </extensions>
      </trkpt>
      <trkpt lat="42.61619922704994678497314453125" lon="19.8817933537065982818603515625">
        <ele>1930</ele>
        <time>2026-06-16T09:29:06.000Z</time>
        <extensions>
          <ns3:TrackPointExtension>
            <ns3:atemp>22.0</ns3:atemp>
          </ns3:TrackPointExtension>
        </extensions>
      </trkpt>
      <trkpt lat="42.6161681301891803741455078125" lon="19.8817802779376506805419921875">
        <ele>1929.800048828125</ele>
        <time>2026-06-16T09:29:07.000Z</time>
        <extensions>
          <ns3:TrackPointExtension>
            <ns3:atemp>22.0</ns3:atemp>
          </ns3:TrackPointExtension>
        </extensions>
      </trkpt>
      <trkpt lat="42.6161344349384307861328125" lon="19.88177441060543060302734375">
        <ele>1929.800048828125</ele>
        <time>2026-06-16T09:29:08.000Z</time>
        <extensions>
          <ns3:TrackPointExtension>
            <ns3:atemp>22.0</ns3:atemp>
          </ns3:TrackPointExtension>
        </extensions>
      </trkpt>
      <trkpt lat="42.61610032059252262115478515625" lon="19.8817630112171173095703125">
        <ele>1929.800048828125</ele>
        <time>2026-06-16T09:29:09.000Z</time>
        <extensions>
          <ns3:TrackPointExtension>
            <ns3:atemp>22.0</ns3:atemp>
          </ns3:TrackPointExtension>
        </extensions>
      </trkpt>
      <trkpt lat="42.61606075800955295562744140625" lon="19.8817504383623600006103515625">
        <ele>1929.800048828125</ele>
        <time>2026-06-16T09:29:10.000Z</time>
        <extensions>
          <ns3:TrackPointExtension>
            <ns3:atemp>22.0</ns3:atemp>
          </ns3:TrackPointExtension>
        </extensions>
      </trkpt>
      <trkpt lat="42.61602739803493022918701171875" lon="19.881731830537319183349609375">
        <ele>1930</ele>
        <time>2026-06-16T09:29:11.000Z</time>
        <extensions>
          <ns3:TrackPointExtension>
            <ns3:atemp>22.0</ns3:atemp>
          </ns3:TrackPointExtension>
        </extensions>
      </trkpt>
      <trkpt lat="42.6159984804689884185791015625" lon="19.8817152343690395355224609375">
        <ele>1930</ele>
        <time>2026-06-16T09:29:12.000Z</time>
        <extensions>
          <ns3:TrackPointExtension>
            <ns3:atemp>22.0</ns3:atemp>
          </ns3:TrackPointExtension>
        </extensions>
      </trkpt>
      <trkpt lat="42.6159676350653171539306640625" lon="19.8816974647343158721923828125">
        <ele>1930</ele>
        <time>2026-06-16T09:29:13.000Z</time>
        <extensions>
          <ns3:TrackPointExtension>
            <ns3:atemp>22.0</ns3:atemp>
          </ns3:TrackPointExtension>
        </extensions>
      </trkpt>
      <trkpt lat="42.61594341136515140533447265625" lon="19.88168296404182910919189453125">
        <ele>1930.199951171875</ele>
        <time>2026-06-16T09:29:14.000Z</time>
        <extensions>
          <ns3:TrackPointExtension>
            <ns3:atemp>22.0</ns3:atemp>
          </ns3:TrackPointExtension>
        </extensions>
      </trkpt>
      <trkpt lat="42.61591692455112934112548828125" lon="19.88166754133999347686767578125">
        <ele>1930.199951171875</ele>
        <time>2026-06-16T09:29:15.000Z</time>
        <extensions>
          <ns3:TrackPointExtension>
            <ns3:atemp>22.0</ns3:atemp>
          </ns3:TrackPointExtension>
        </extensions>
      </trkpt>
      <trkpt lat="42.61589161120355129241943359375" lon="19.8816557228565216064453125">
        <ele>1930.4000244140625</ele>
        <time>2026-06-16T09:29:16.000Z</time>
        <extensions>
          <ns3:TrackPointExtension>
            <ns3:atemp>22.0</ns3:atemp>
          </ns3:TrackPointExtension>
        </extensions>
      </trkpt>
      <trkpt lat="42.61586093343794345855712890625" lon="19.88164759241044521331787109375">
        <ele>1930.4000244140625</ele>
        <time>2026-06-16T09:29:17.000Z</time>
        <extensions>
          <ns3:TrackPointExtension>
            <ns3:atemp>22.0</ns3:atemp>
          </ns3:TrackPointExtension>
        </extensions>
      </trkpt>
      <trkpt lat="42.61582891456782817840576171875" lon="19.8816397972404956817626953125">
        <ele>1930.5999755859375</ele>
        <time>2026-06-16T09:29:18.000Z</time>
        <extensions>
          <ns3:TrackPointExtension>
            <ns3:atemp>22.0</ns3:atemp>
          </ns3:TrackPointExtension>
        </extensions>
      </trkpt>
      <trkpt lat="42.61579723097383975982666015625" lon="19.88163066096603870391845703125">
        <ele>1930.800048828125</ele>
        <time>2026-06-16T09:29:19.000Z</time>
        <extensions>
          <ns3:TrackPointExtension>
            <ns3:atemp>22.0</ns3:atemp>
          </ns3:TrackPointExtension>
        </extensions>
      </trkpt>
      <trkpt lat="42.6157684810459613800048828125" lon="19.88161406479775905609130859375">
        <ele>1930.800048828125</ele>
        <time>2026-06-16T09:29:20.000Z</time>
        <extensions>
          <ns3:TrackPointExtension>
            <ns3:atemp>22.0</ns3:atemp>
          </ns3:TrackPointExtension>
        </extensions>
      </trkpt>
      <trkpt lat="42.61574308387935161590576171875" lon="19.8815953731536865234375">
        <ele>1931</ele>
        <time>2026-06-16T09:29:21.000Z</time>
        <extensions>
          <ns3:TrackPointExtension>
            <ns3:atemp>22.0</ns3:atemp>
          </ns3:TrackPointExtension>
        </extensions>
      </trkpt>
      <trkpt lat="42.61572212912142276763916015625" lon="19.88157651387155055999755859375">
        <ele>1931.199951171875</ele>
        <time>2026-06-16T09:29:22.000Z</time>
        <extensions>
          <ns3:TrackPointExtension>
            <ns3:atemp>22.0</ns3:atemp>
          </ns3:TrackPointExtension>
        </extensions>
      </trkpt>
      <trkpt lat="42.61570368893444538116455078125" lon="19.88155421800911426544189453125">
        <ele>1931.199951171875</ele>
        <time>2026-06-16T09:29:23.000Z</time>
        <extensions>
          <ns3:TrackPointExtension>
            <ns3:atemp>22.0</ns3:atemp>
          </ns3:TrackPointExtension>
        </extensions>
      </trkpt>
      <trkpt lat="42.615679465234279632568359375" lon="19.88153695128858089447021484375">
        <ele>1931.4000244140625</ele>
        <time>2026-06-16T09:29:24.000Z</time>
        <extensions>
          <ns3:TrackPointExtension>
            <ns3:atemp>22.0</ns3:atemp>
          </ns3:TrackPointExtension>
        </extensions>
      </trkpt>
      <trkpt lat="42.61564920656383037567138671875" lon="19.8815288208425045013427734375">
        <ele>1931.5999755859375</ele>
        <time>2026-06-16T09:29:25.000Z</time>
        <extensions>
          <ns3:TrackPointExtension>
            <ns3:atemp>22.0</ns3:atemp>
          </ns3:TrackPointExtension>
        </extensions>
      </trkpt>
      <trkpt lat="42.61561400257050991058349609375" lon="19.881521947681903839111328125">
        <ele>1931.5999755859375</ele>
        <time>2026-06-16T09:29:26.000Z</time>
        <extensions>
          <ns3:TrackPointExtension>
            <ns3:atemp>22.0</ns3:atemp>
          </ns3:TrackPointExtension>
        </extensions>
      </trkpt>
      <trkpt lat="42.6155803911387920379638671875" lon="19.881507866084575653076171875">
        <ele>1931.5999755859375</ele>
        <time>2026-06-16T09:29:27.000Z</time>
        <extensions>
          <ns3:TrackPointExtension>
            <ns3:atemp>22.0</ns3:atemp>
          </ns3:TrackPointExtension>
        </extensions>
      </trkpt>
      <trkpt lat="42.61554996483027935028076171875" lon="19.88149722106754779815673828125">
        <ele>1931.5999755859375</ele>
        <time>2026-06-16T09:29:28.000Z</time>
        <extensions>
          <ns3:TrackPointExtension>
            <ns3:atemp>22.0</ns3:atemp>
          </ns3:TrackPointExtension>
        </extensions>
      </trkpt>
      <trkpt lat="42.6155187003314495086669921875" lon="19.88150484859943389892578125">
        <ele>1931.5999755859375</ele>
        <time>2026-06-16T09:29:29.000Z</time>
        <extensions>
          <ns3:TrackPointExtension>
            <ns3:atemp>22.0</ns3:atemp>
          </ns3:TrackPointExtension>
        </extensions>
      </trkpt>
      <trkpt lat="42.6154960691928863525390625" lon="19.88153167068958282470703125">
        <ele>1931.5999755859375</ele>
        <time>2026-06-16T09:29:30.000Z</time>
        <extensions>
          <ns3:TrackPointExtension>
            <ns3:atemp>22.0</ns3:atemp>
          </ns3:TrackPointExtension>
        </extensions>
      </trkpt>
      <trkpt lat="42.61546857655048370361328125" lon="19.88155505619943141937255859375">
        <ele>1931.5999755859375</ele>
        <time>2026-06-16T09:29:31.000Z</time>
        <extensions>
          <ns3:TrackPointExtension>
            <ns3:atemp>22.0</ns3:atemp>
          </ns3:TrackPointExtension>
        </extensions>
      </trkpt>
      <trkpt lat="42.6154425926506519317626953125" lon="19.88156729377806186676025390625">
        <ele>1931.800048828125</ele>
        <time>2026-06-16T09:29:32.000Z</time>
        <extensions>
          <ns3:TrackPointExtension>
            <ns3:atemp>22.0</ns3:atemp>
          </ns3:TrackPointExtension>
        </extensions>
      </trkpt>
      <trkpt lat="42.61542440392076969146728515625" lon="19.8815700598061084747314453125">
        <ele>1932</ele>
        <time>2026-06-16T09:29:33.000Z</time>
        <extensions>
          <ns3:TrackPointExtension>
            <ns3:atemp>22.0</ns3:atemp>
          </ns3:TrackPointExtension>
        </extensions>
      </trkpt>
      <trkpt lat="42.61540814302861690521240234375" lon="19.881570897996425628662109375">
        <ele>1932.199951171875</ele>
        <time>2026-06-16T09:29:34.000Z</time>
        <extensions>
          <ns3:TrackPointExtension>
            <ns3:atemp>22.0</ns3:atemp>
          </ns3:TrackPointExtension>
        </extensions>
      </trkpt>
      <trkpt lat="42.615393809974193572998046875" lon="19.88156829960644245147705078125">
        <ele>1932.4000244140625</ele>
        <time>2026-06-16T09:29:35.000Z</time>
        <extensions>
          <ns3:TrackPointExtension>
            <ns3:atemp>22.0</ns3:atemp>
          </ns3:TrackPointExtension>
        </extensions>
      </trkpt>
      <trkpt lat="42.61537201702594757080078125" lon="19.8815643601119518280029296875">
        <ele>1932.5999755859375</ele>
        <time>2026-06-16T09:29:36.000Z</time>
        <extensions>
          <ns3:TrackPointExtension>
            <ns3:atemp>22.0</ns3:atemp>
          </ns3:TrackPointExtension>
        </extensions>
      </trkpt>
      <trkpt lat="42.615344524383544921875" lon="19.881565868854522705078125">
        <ele>1932.800048828125</ele>
        <time>2026-06-16T09:29:37.000Z</time>
        <extensions>
          <ns3:TrackPointExtension>
            <ns3:atemp>22.0</ns3:atemp>
          </ns3:TrackPointExtension>
        </extensions>
      </trkpt>
      <trkpt lat="42.615316696465015411376953125" lon="19.88157483749091625213623046875">
        <ele>1932.800048828125</ele>
        <time>2026-06-16T09:29:38.000Z</time>
        <extensions>
          <ns3:TrackPointExtension>
            <ns3:atemp>22.0</ns3:atemp>
          </ns3:TrackPointExtension>
        </extensions>
      </trkpt>
      <trkpt lat="42.61529280804097652435302734375" lon="19.8815817944705486297607421875">
        <ele>1933</ele>
        <time>2026-06-16T09:29:39.000Z</time>
        <extensions>
          <ns3:TrackPointExtension>
            <ns3:atemp>22.0</ns3:atemp>
          </ns3:TrackPointExtension>
        </extensions>
      </trkpt>
      <trkpt lat="42.6152692548930644989013671875" lon="19.88158925436437129974365234375">
        <ele>1933</ele>
        <time>2026-06-16T09:29:40.000Z</time>
        <extensions>
          <ns3:TrackPointExtension>
            <ns3:atemp>22.0</ns3:atemp>
          </ns3:TrackPointExtension>
        </extensions>
      </trkpt>
      <trkpt lat="42.61524184606969356536865234375" lon="19.88159964792430400848388671875">
        <ele>1933.199951171875</ele>
        <time>2026-06-16T09:29:41.000Z</time>
        <extensions>
          <ns3:TrackPointExtension>
            <ns3:atemp>22.0</ns3:atemp>
          </ns3:TrackPointExtension>
        </extensions>
      </trkpt>
      <trkpt lat="42.615213431417942047119140625" lon="19.88160802982747554779052734375">
        <ele>1933.199951171875</ele>
        <time>2026-06-16T09:29:42.000Z</time>
        <extensions>
          <ns3:TrackPointExtension>
            <ns3:atemp>22.0</ns3:atemp>
          </ns3:TrackPointExtension>
        </extensions>
      </trkpt>
      <trkpt lat="42.6151844300329685211181640625" lon="19.88161507062613964080810546875">
        <ele>1933.199951171875</ele>
        <time>2026-06-16T09:29:43.000Z</time>
        <extensions>
          <ns3:TrackPointExtension>
            <ns3:atemp>22.0</ns3:atemp>
          </ns3:TrackPointExtension>
        </extensions>
      </trkpt>
      <trkpt lat="42.6151586137712001800537109375" lon="19.88162688910961151123046875">
        <ele>1933.4000244140625</ele>
        <time>2026-06-16T09:29:44.000Z</time>
        <extensions>
          <ns3:TrackPointExtension>
            <ns3:atemp>22.0</ns3:atemp>
          </ns3:TrackPointExtension>
        </extensions>
      </trkpt>
      <trkpt lat="42.615134306252002716064453125" lon="19.8816364444792270660400390625">
        <ele>1933.4000244140625</ele>
        <time>2026-06-16T09:29:45.000Z</time>
        <extensions>
          <ns3:TrackPointExtension>
            <ns3:atemp>22.0</ns3:atemp>
          </ns3:TrackPointExtension>
        </extensions>
      </trkpt>
      <trkpt lat="42.6151116751134395599365234375" lon="19.88164910115301609039306640625">
        <ele>1933.4000244140625</ele>
        <time>2026-06-16T09:29:46.000Z</time>
        <extensions>
          <ns3:TrackPointExtension>
            <ns3:atemp>22.0</ns3:atemp>
          </ns3:TrackPointExtension>
        </extensions>
      </trkpt>
      <trkpt lat="42.61509197764098644256591796875" lon="19.8816662840545177459716796875">
        <ele>1933.4000244140625</ele>
        <time>2026-06-16T09:29:47.000Z</time>
        <extensions>
          <ns3:TrackPointExtension>
            <ns3:atemp>22.0</ns3:atemp>
          </ns3:TrackPointExtension>
        </extensions>
      </trkpt>
      <trkpt lat="42.61507563292980194091796875" lon="19.88167877309024333953857421875">
        <ele>1933.5999755859375</ele>
        <time>2026-06-16T09:29:48.000Z</time>
        <extensions>
          <ns3:TrackPointExtension>
            <ns3:atemp>22.0</ns3:atemp>
          </ns3:TrackPointExtension>
        </extensions>
      </trkpt>
      <trkpt lat="42.61506012640893459320068359375" lon="19.8816927708685398101806640625">
        <ele>1933.5999755859375</ele>
        <time>2026-06-16T09:29:49.000Z</time>
        <extensions>
          <ns3:TrackPointExtension>
            <ns3:atemp>22.0</ns3:atemp>
          </ns3:TrackPointExtension>
        </extensions>
      </trkpt>
      <trkpt lat="42.61504302732646465301513671875" lon="19.88170391879975795745849609375">
        <ele>1933.800048828125</ele>
        <time>2026-06-16T09:29:50.000Z</time>
        <extensions>
          <ns3:TrackPointExtension>
            <ns3:atemp>22.0</ns3:atemp>
          </ns3:TrackPointExtension>
        </extensions>
      </trkpt>
      <trkpt lat="42.615027017891407012939453125" lon="19.8817174136638641357421875">
        <ele>1934</ele>
        <time>2026-06-16T09:29:51.000Z</time>
        <extensions>
          <ns3:TrackPointExtension>
            <ns3:atemp>22.0</ns3:atemp>
          </ns3:TrackPointExtension>
        </extensions>
      </trkpt>
      <trkpt lat="42.615013606846332550048828125" lon="19.88172889687120914459228515625">
        <ele>1934.199951171875</ele>
        <time>2026-06-16T09:29:52.000Z</time>
        <extensions>
          <ns3:TrackPointExtension>
            <ns3:atemp>22.0</ns3:atemp>
          </ns3:TrackPointExtension>
        </extensions>
      </trkpt>
      <trkpt lat="42.6150017045438289642333984375" lon="19.881743900477886199951171875">
        <ele>1934.4000244140625</ele>
        <time>2026-06-16T09:29:53.000Z</time>
        <extensions>
          <ns3:TrackPointExtension>
            <ns3:atemp>22.0</ns3:atemp>
          </ns3:TrackPointExtension>
        </extensions>
      </trkpt>
      <trkpt lat="42.6149933226406574249267578125" lon="19.88175990991294384002685546875">
        <ele>1934.5999755859375</ele>
        <time>2026-06-16T09:29:54.000Z</time>
        <extensions>
          <ns3:TrackPointExtension>
            <ns3:atemp>22.0</ns3:atemp>
          </ns3:TrackPointExtension>
        </extensions>
      </trkpt>
      <trkpt lat="42.61498309671878814697265625" lon="19.88177516497671604156494140625">
        <ele>1934.800048828125</ele>
        <time>2026-06-16T09:29:55.000Z</time>
        <extensions>
          <ns3:TrackPointExtension>
            <ns3:atemp>22.0</ns3:atemp>
          </ns3:TrackPointExtension>
        </extensions>
      </trkpt>
      <trkpt lat="42.61497261933982372283935546875" lon="19.8817980475723743438720703125">
        <ele>1934.800048828125</ele>
        <time>2026-06-16T09:29:56.000Z</time>
        <extensions>
          <ns3:TrackPointExtension>
            <ns3:atemp>22.0</ns3:atemp>
          </ns3:TrackPointExtension>
        </extensions>
      </trkpt>
      <trkpt lat="42.61496373452246189117431640625" lon="19.8818268813192844390869140625">
        <ele>1935</ele>
        <time>2026-06-16T09:29:57.000Z</time>
        <extensions>
          <ns3:TrackPointExtension>
            <ns3:atemp>22.0</ns3:atemp>
          </ns3:TrackPointExtension>
        </extensions>
      </trkpt>
      <trkpt lat="42.61495627462863922119140625" lon="19.88184574060142040252685546875">
        <ele>1935.199951171875</ele>
        <time>2026-06-16T09:29:58.000Z</time>
        <extensions>
          <ns3:TrackPointExtension>
            <ns3:atemp>22.0</ns3:atemp>
          </ns3:TrackPointExtension>
        </extensions>
      </trkpt>
      <trkpt lat="42.6149507425725460052490234375" lon="19.88186703063547611236572265625">
        <ele>1935.4000244140625</ele>
        <time>2026-06-16T09:29:59.000Z</time>
        <extensions>
          <ns3:TrackPointExtension>
            <ns3:atemp>22.0</ns3:atemp>
          </ns3:TrackPointExtension>
        </extensions>
      </trkpt>
      <trkpt lat="42.61494546197354793548583984375" lon="19.88188647665083408355712890625">
        <ele>1935.5999755859375</ele>
        <time>2026-06-16T09:30:00.000Z</time>
        <extensions>
          <ns3:TrackPointExtension>
            <ns3:atemp>22.0</ns3:atemp>
          </ns3:TrackPointExtension>
        </extensions>
      </trkpt>
      <trkpt lat="42.61494127102196216583251953125" lon="19.881902150809764862060546875">
        <ele>1935.800048828125</ele>
        <time>2026-06-16T09:30:01.000Z</time>
        <extensions>
          <ns3:TrackPointExtension>
            <ns3:atemp>22.0</ns3:atemp>
          </ns3:TrackPointExtension>
        </extensions>
      </trkpt>
      <trkpt lat="42.6149363256990909576416015625" lon="19.881909191608428955078125">
        <ele>1936.199951171875</ele>
        <time>2026-06-16T09:30:02.000Z</time>
        <extensions>
          <ns3:TrackPointExtension>
            <ns3:atemp>22.0</ns3:atemp>
          </ns3:TrackPointExtension>
        </extensions>
      </trkpt>
      <trkpt lat="42.6149316318333148956298828125" lon="19.881919585168361663818359375">
        <ele>1936.4000244140625</ele>
        <time>2026-06-16T09:30:03.000Z</time>
        <extensions>
          <ns3:TrackPointExtension>
            <ns3:atemp>22.0</ns3:atemp>
          </ns3:TrackPointExtension>
        </extensions>
      </trkpt>
      <trkpt lat="42.614927776157855987548828125" lon="19.881932996213436126708984375">
        <ele>1936.5999755859375</ele>
        <time>2026-06-16T09:30:04.000Z</time>
        <extensions>
          <ns3:TrackPointExtension>
            <ns3:atemp>22.0</ns3:atemp>
          </ns3:TrackPointExtension>
        </extensions>
      </trkpt>
      <trkpt lat="42.61492006480693817138671875" lon="19.88195453770458698272705078125">
        <ele>1936.800048828125</ele>
        <time>2026-06-16T09:30:05.000Z</time>
        <extensions>
          <ns3:TrackPointExtension>
            <ns3:atemp>22.0</ns3:atemp>
          </ns3:TrackPointExtension>
        </extensions>
      </trkpt>
      <trkpt lat="42.614909000694751739501953125" lon="19.88198094069957733154296875">
        <ele>1936.800048828125</ele>
        <time>2026-06-16T09:30:06.000Z</time>
        <extensions>
          <ns3:TrackPointExtension>
            <ns3:atemp>22.0</ns3:atemp>
          </ns3:TrackPointExtension>
        </extensions>
      </trkpt>
      <trkpt lat="42.61489483527839183807373046875" lon="19.88200315274298191070556640625">
        <ele>1937.199951171875</ele>
        <time>2026-06-16T09:30:07.000Z</time>
        <extensions>
          <ns3:TrackPointExtension>
            <ns3:atemp>22.0</ns3:atemp>
          </ns3:TrackPointExtension>
        </extensions>
      </trkpt>
      <trkpt lat="42.614885866641998291015625" lon="19.88202276639640331268310546875">
        <ele>1937.4000244140625</ele>
        <time>2026-06-16T09:30:08.000Z</time>
        <extensions>
          <ns3:TrackPointExtension>
            <ns3:atemp>22.0</ns3:atemp>
          </ns3:TrackPointExtension>
        </extensions>
      </trkpt>
      <trkpt lat="42.61487446725368499755859375" lon="19.88203600980341434478759765625">
        <ele>1937.4000244140625</ele>
        <time>2026-06-16T09:30:09.000Z</time>
        <extensions>
          <ns3:TrackPointExtension>
            <ns3:atemp>22.0</ns3:atemp>
          </ns3:TrackPointExtension>
        </extensions>
      </trkpt>
      <trkpt lat="42.61486365459859371185302734375" lon="19.88204673863947391510009765625">
        <ele>1937.5999755859375</ele>
        <time>2026-06-16T09:30:10.000Z</time>
        <extensions>
          <ns3:TrackPointExtension>
            <ns3:atemp>22.0</ns3:atemp>
          </ns3:TrackPointExtension>
        </extensions>
      </trkpt>
      <trkpt lat="42.6148535124957561492919921875" lon="19.8820553719997406005859375">
        <ele>1937.800048828125</ele>
        <time>2026-06-16T09:30:11.000Z</time>
        <extensions>
          <ns3:TrackPointExtension>
            <ns3:atemp>22.0</ns3:atemp>
          </ns3:TrackPointExtension>
        </extensions>
      </trkpt>
      <trkpt lat="42.61484571732580661773681640625" lon="19.88206568174064159393310546875">
        <ele>1938</ele>
        <time>2026-06-16T09:30:12.000Z</time>
        <extensions>
          <ns3:TrackPointExtension>
            <ns3:atemp>22.0</ns3:atemp>
          </ns3:TrackPointExtension>
        </extensions>
      </trkpt>
      <trkpt lat="42.6148350723087787628173828125" lon="19.8820743151009082794189453125">
        <ele>1938.199951171875</ele>
        <time>2026-06-16T09:30:13.000Z</time>
        <extensions>
          <ns3:TrackPointExtension>
            <ns3:atemp>22.0</ns3:atemp>
          </ns3:TrackPointExtension>
        </extensions>
      </trkpt>
      <trkpt lat="42.61482442729175090789794921875" lon="19.88208462484180927276611328125">
        <ele>1938.4000244140625</ele>
        <time>2026-06-16T09:30:14.000Z</time>
        <extensions>
          <ns3:TrackPointExtension>
            <ns3:atemp>21.0</ns3:atemp>
          </ns3:TrackPointExtension>
        </extensions>
      </trkpt>
      <trkpt lat="42.61481168679893016815185546875" lon="19.8820967786014080047607421875">
        <ele>1938.5999755859375</ele>
        <time>2026-06-16T09:30:15.000Z</time>
        <extensions>
          <ns3:TrackPointExtension>
            <ns3:atemp>22.0</ns3:atemp>
          </ns3:TrackPointExtension>
        </extensions>
      </trkpt>
      <trkpt lat="42.61480028741061687469482421875" lon="19.88210968673229217529296875">
        <ele>1938.5999755859375</ele>
        <time>2026-06-16T09:30:16.000Z</time>
        <extensions>
          <ns3:TrackPointExtension>
            <ns3:atemp>21.0</ns3:atemp>
          </ns3:TrackPointExtension>
        </extensions>
      </trkpt>
      <trkpt lat="42.61478469707071781158447265625" lon="19.88212712109088897705078125">
        <ele>1938.800048828125</ele>
        <time>2026-06-16T09:30:17.000Z</time>
        <extensions>
          <ns3:TrackPointExtension>
            <ns3:atemp>22.0</ns3:atemp>
          </ns3:TrackPointExtension>
        </extensions>
      </trkpt>
      <trkpt lat="42.61477522552013397216796875" lon="19.8821370117366313934326171875">
        <ele>1938.800048828125</ele>
        <time>2026-06-16T09:30:18.000Z</time>
        <extensions>
          <ns3:TrackPointExtension>
            <ns3:atemp>21.0</ns3:atemp>
          </ns3:TrackPointExtension>
        </extensions>
      </trkpt>
      <trkpt lat="42.6147680170834064483642578125" lon="19.8821433819830417633056640625">
        <ele>1939</ele>
        <time>2026-06-16T09:30:19.000Z</time>
        <extensions>
          <ns3:TrackPointExtension>
            <ns3:atemp>22.0</ns3:atemp>
          </ns3:TrackPointExtension>
        </extensions>
      </trkpt>
      <trkpt lat="42.61476709507405757904052734375" lon="19.8821412026882171630859375">
        <ele>1939</ele>
        <time>2026-06-16T09:30:20.000Z</time>
        <extensions>
          <ns3:TrackPointExtension>
            <ns3:atemp>21.0</ns3:atemp>
          </ns3:TrackPointExtension>
        </extensions>
      </trkpt>
      <trkpt lat="42.61476709507405757904052734375" lon="19.8821412026882171630859375">
        <ele>1939</ele>
        <time>2026-06-16T09:30:21.000Z</time>
        <extensions>
          <ns3:TrackPointExtension>
            <ns3:atemp>21.0</ns3:atemp>
          </ns3:TrackPointExtension>
        </extensions>
      </trkpt>
      <trkpt lat="42.61476709507405757904052734375" lon="19.8821412026882171630859375">
        <ele>1939</ele>
        <time>2026-06-16T09:30:22.000Z</time>
        <extensions>
          <ns3:TrackPointExtension>
            <ns3:atemp>21.0</ns3:atemp>
          </ns3:TrackPointExtension>
        </extensions>
      </trkpt>
      <trkpt lat="42.61476709507405757904052734375" lon="19.8821412026882171630859375">
        <ele>1939</ele>
        <time>2026-06-16T09:30:23.000Z</time>
        <extensions>
          <ns3:TrackPointExtension>
            <ns3:atemp>21.0</ns3:atemp>
          </ns3:TrackPointExtension>
        </extensions>
      </trkpt>
      <trkpt lat="42.61476709507405757904052734375" lon="19.8821412026882171630859375">
        <ele>1939</ele>
        <time>2026-06-16T09:30:24.000Z</time>
        <extensions>
          <ns3:TrackPointExtension>
            <ns3:atemp>21.0</ns3:atemp>
          </ns3:TrackPointExtension>
        </extensions>
      </trkpt>
      <trkpt lat="42.61476709507405757904052734375" lon="19.8821412026882171630859375">
        <ele>1939</ele>
        <time>2026-06-16T09:30:25.000Z</time>
        <extensions>
          <ns3:TrackPointExtension>
            <ns3:atemp>21.0</ns3:atemp>
          </ns3:TrackPointExtension>
        </extensions>
      </trkpt>
      <trkpt lat="42.61476709507405757904052734375" lon="19.8821412026882171630859375">
        <ele>1939</ele>
        <time>2026-06-16T09:30:26.000Z</time>
        <extensions>
          <ns3:TrackPointExtension>
            <ns3:atemp>21.0</ns3:atemp>
          </ns3:TrackPointExtension>
        </extensions>
      </trkpt>
      <trkpt lat="42.61476709507405757904052734375" lon="19.8821412026882171630859375">
        <ele>1939</ele>
        <time>2026-06-16T09:30:27.000Z</time>
        <extensions>
          <ns3:TrackPointExtension>
            <ns3:atemp>21.0</ns3:atemp>
          </ns3:TrackPointExtension>
        </extensions>
      </trkpt>
      <trkpt lat="42.61476709507405757904052734375" lon="19.8821412026882171630859375">
        <ele>1939</ele>
        <time>2026-06-16T09:30:28.000Z</time>
        <extensions>
          <ns3:TrackPointExtension>
            <ns3:atemp>21.0</ns3:atemp>
          </ns3:TrackPointExtension>
        </extensions>
      </trkpt>
      <trkpt lat="42.61476709507405757904052734375" lon="19.8821412026882171630859375">
        <ele>1939</ele>
        <time>2026-06-16T09:30:29.000Z</time>
        <extensions>
          <ns3:TrackPointExtension>
            <ns3:atemp>21.0</ns3:atemp>
          </ns3:TrackPointExtension>
        </extensions>
      </trkpt>
      <trkpt lat="42.61476709507405757904052734375" lon="19.8821412026882171630859375">
        <ele>1939</ele>
        <time>2026-06-16T09:30:30.000Z</time>
        <extensions>
          <ns3:TrackPointExtension>
            <ns3:atemp>21.0</ns3:atemp>
          </ns3:TrackPointExtension>
        </extensions>
      </trkpt>
      <trkpt lat="42.61476709507405757904052734375" lon="19.8821412026882171630859375">
        <ele>1938.800048828125</ele>
        <time>2026-06-16T09:30:31.000Z</time>
        <extensions>
          <ns3:TrackPointExtension>
            <ns3:atemp>21.0</ns3:atemp>
          </ns3:TrackPointExtension>
        </extensions>
      </trkpt>
      <trkpt lat="42.61476709507405757904052734375" lon="19.8821412026882171630859375">
        <ele>1938.800048828125</ele>
        <time>2026-06-16T09:30:32.000Z</time>
        <extensions>
          <ns3:TrackPointExtension>
            <ns3:atemp>21.0</ns3:atemp>
          </ns3:TrackPointExtension>
        </extensions>
      </trkpt>
      <trkpt lat="42.61476709507405757904052734375" lon="19.8821412026882171630859375">
        <ele>1938.800048828125</ele>
        <time>2026-06-16T09:30:33.000Z</time>
        <extensions>
          <ns3:TrackPointExtension>
            <ns3:atemp>21.0</ns3:atemp>
          </ns3:TrackPointExtension>
        </extensions>
      </trkpt>
      <trkpt lat="42.61476709507405757904052734375" lon="19.8821412026882171630859375">
        <ele>1938.800048828125</ele>
        <time>2026-06-16T09:30:34.000Z</time>
        <extensions>
          <ns3:TrackPointExtension>
            <ns3:atemp>21.0</ns3:atemp>
          </ns3:TrackPointExtension>
        </extensions>
      </trkpt>
      <trkpt lat="42.61476709507405757904052734375" lon="19.8821412026882171630859375">
        <ele>1938.800048828125</ele>
        <time>2026-06-16T09:30:35.000Z</time>
        <extensions>
          <ns3:TrackPointExtension>
            <ns3:atemp>21.0</ns3:atemp>
          </ns3:TrackPointExtension>
        </extensions>
      </trkpt>
      <trkpt lat="42.61476709507405757904052734375" lon="19.8821412026882171630859375">
        <ele>1938.800048828125</ele>
        <time>2026-06-16T09:30:36.000Z</time>
        <extensions>
          <ns3:TrackPointExtension>
            <ns3:atemp>21.0</ns3:atemp>
          </ns3:TrackPointExtension>
        </extensions>
      </trkpt>
      <trkpt lat="42.61476709507405757904052734375" lon="19.8821412026882171630859375">
        <ele>1938.800048828125</ele>
        <time>2026-06-16T09:30:37.000Z</time>
        <extensions>
          <ns3:TrackPointExtension>
            <ns3:atemp>21.0</ns3:atemp>
          </ns3:TrackPointExtension>
        </extensions>
      </trkpt>
      <trkpt lat="42.61476709507405757904052734375" lon="19.8821412026882171630859375">
        <ele>1938.800048828125</ele>
        <time>2026-06-16T09:30:38.000Z</time>
        <extensions>
          <ns3:TrackPointExtension>
            <ns3:atemp>21.0</ns3:atemp>
          </ns3:TrackPointExtension>
        </extensions>
      </trkpt>
      <trkpt lat="42.61476709507405757904052734375" lon="19.8821412026882171630859375">
        <ele>1938.800048828125</ele>
        <time>2026-06-16T09:30:39.000Z</time>
        <extensions>
          <ns3:TrackPointExtension>
            <ns3:atemp>21.0</ns3:atemp>
          </ns3:TrackPointExtension>
        </extensions>
      </trkpt>
      <trkpt lat="42.61476709507405757904052734375" lon="19.8821412026882171630859375">
        <ele>1938.800048828125</ele>
        <time>2026-06-16T09:30:40.000Z</time>
        <extensions>
          <ns3:TrackPointExtension>
            <ns3:atemp>21.0</ns3:atemp>
          </ns3:TrackPointExtension>
        </extensions>
      </trkpt>
      <trkpt lat="42.61476709507405757904052734375" lon="19.8821412026882171630859375">
        <ele>1938.800048828125</ele>
        <time>2026-06-16T09:30:41.000Z</time>
        <extensions>
          <ns3:TrackPointExtension>
            <ns3:atemp>21.0</ns3:atemp>
          </ns3:TrackPointExtension>
        </extensions>
      </trkpt>
      <trkpt lat="42.61476709507405757904052734375" lon="19.8821412026882171630859375">
        <ele>1938.800048828125</ele>
        <time>2026-06-16T09:30:42.000Z</time>
        <extensions>
          <ns3:TrackPointExtension>
            <ns3:atemp>21.0</ns3:atemp>
          </ns3:TrackPointExtension>
        </extensions>
      </trkpt>
      <trkpt lat="42.61476709507405757904052734375" lon="19.8821412026882171630859375">
        <ele>1938.800048828125</ele>
        <time>2026-06-16T09:30:43.000Z</time>
        <extensions>
          <ns3:TrackPointExtension>
            <ns3:atemp>21.0</ns3:atemp>
          </ns3:TrackPointExtension>
        </extensions>
      </trkpt>
      <trkpt lat="42.61476709507405757904052734375" lon="19.8821412026882171630859375">
        <ele>1938.800048828125</ele>
        <time>2026-06-16T09:30:44.000Z</time>
        <extensions>
          <ns3:TrackPointExtension>
            <ns3:atemp>21.0</ns3:atemp>
          </ns3:TrackPointExtension>
        </extensions>
      </trkpt>
      <trkpt lat="42.61476709507405757904052734375" lon="19.8821412026882171630859375">
        <ele>1938.800048828125</ele>
        <time>2026-06-16T09:30:45.000Z</time>
        <extensions>
          <ns3:TrackPointExtension>
            <ns3:atemp>21.0</ns3:atemp>
          </ns3:TrackPointExtension>
        </extensions>
      </trkpt>
      <trkpt lat="42.61476709507405757904052734375" lon="19.8821412026882171630859375">
        <ele>1938.800048828125</ele>
        <time>2026-06-16T09:30:46.000Z</time>
        <extensions>
          <ns3:TrackPointExtension>
            <ns3:atemp>21.0</ns3:atemp>
          </ns3:TrackPointExtension>
        </extensions>
      </trkpt>
      <trkpt lat="42.61476709507405757904052734375" lon="19.8821412026882171630859375">
        <ele>1938.800048828125</ele>
        <time>2026-06-16T09:30:47.000Z</time>
        <extensions>
          <ns3:TrackPointExtension>
            <ns3:atemp>21.0</ns3:atemp>
          </ns3:TrackPointExtension>
        </extensions>
      </trkpt>
      <trkpt lat="42.61476709507405757904052734375" lon="19.8821412026882171630859375">
        <ele>1938.800048828125</ele>
        <time>2026-06-16T09:30:48.000Z</time>
        <extensions>
          <ns3:TrackPointExtension>
            <ns3:atemp>21.0</ns3:atemp>
          </ns3:TrackPointExtension>
        </extensions>
      </trkpt>
      <trkpt lat="42.61476709507405757904052734375" lon="19.8821412026882171630859375">
        <ele>1938.800048828125</ele>
        <time>2026-06-16T09:30:49.000Z</time>
        <extensions>
          <ns3:TrackPointExtension>
            <ns3:atemp>21.0</ns3:atemp>
          </ns3:TrackPointExtension>
        </extensions>
      </trkpt>
      <trkpt lat="42.61476709507405757904052734375" lon="19.8821412026882171630859375">
        <ele>1938.800048828125</ele>
        <time>2026-06-16T09:30:50.000Z</time>
        <extensions>
          <ns3:TrackPointExtension>
            <ns3:atemp>21.0</ns3:atemp>
          </ns3:TrackPointExtension>
        </extensions>
      </trkpt>
      <trkpt lat="42.61476709507405757904052734375" lon="19.8821412026882171630859375">
        <ele>1938.800048828125</ele>
        <time>2026-06-16T09:30:51.000Z</time>
        <extensions>
          <ns3:TrackPointExtension>
            <ns3:atemp>21.0</ns3:atemp>
          </ns3:TrackPointExtension>
        </extensions>
      </trkpt>
      <trkpt lat="42.61476709507405757904052734375" lon="19.8821412026882171630859375">
        <ele>1938.800048828125</ele>
        <time>2026-06-16T09:30:52.000Z</time>
        <extensions>
          <ns3:TrackPointExtension>
            <ns3:atemp>21.0</ns3:atemp>
          </ns3:TrackPointExtension>
        </extensions>
      </trkpt>
      <trkpt lat="42.61476709507405757904052734375" lon="19.8821412026882171630859375">
        <ele>1938.800048828125</ele>
        <time>2026-06-16T09:30:53.000Z</time>
        <extensions>
          <ns3:TrackPointExtension>
            <ns3:atemp>21.0</ns3:atemp>
          </ns3:TrackPointExtension>
        </extensions>
      </trkpt>
      <trkpt lat="42.61476709507405757904052734375" lon="19.8821412026882171630859375">
        <ele>1938.800048828125</ele>
        <time>2026-06-16T09:30:54.000Z</time>
        <extensions>
          <ns3:TrackPointExtension>
            <ns3:atemp>21.0</ns3:atemp>
          </ns3:TrackPointExtension>
        </extensions>
      </trkpt>
      <trkpt lat="42.61476709507405757904052734375" lon="19.8821412026882171630859375">
        <ele>1938.800048828125</ele>
        <time>2026-06-16T09:30:55.000Z</time>
        <extensions>
          <ns3:TrackPointExtension>
            <ns3:atemp>21.0</ns3:atemp>
          </ns3:TrackPointExtension>
        </extensions>
      </trkpt>
      <trkpt lat="42.61476709507405757904052734375" lon="19.8821412026882171630859375">
        <ele>1938.800048828125</ele>
        <time>2026-06-16T09:30:56.000Z</time>
        <extensions>
          <ns3:TrackPointExtension>
            <ns3:atemp>21.0</ns3:atemp>
          </ns3:TrackPointExtension>
        </extensions>
      </trkpt>
      <trkpt lat="42.61476709507405757904052734375" lon="19.8821412026882171630859375">
        <ele>1938.5999755859375</ele>
        <time>2026-06-16T09:30:57.000Z</time>
        <extensions>
          <ns3:TrackPointExtension>
            <ns3:atemp>21.0</ns3:atemp>
          </ns3:TrackPointExtension>
        </extensions>
      </trkpt>
      <trkpt lat="42.61476709507405757904052734375" lon="19.8821412026882171630859375">
        <ele>1938.5999755859375</ele>
        <time>2026-06-16T09:30:58.000Z</time>
        <extensions>
          <ns3:TrackPointExtension>
            <ns3:atemp>21.0</ns3:atemp>
          </ns3:TrackPointExtension>
        </extensions>
      </trkpt>
      <trkpt lat="42.61476709507405757904052734375" lon="19.8821412026882171630859375">
        <ele>1938.5999755859375</ele>
        <time>2026-06-16T09:30:59.000Z</time>
        <extensions>
          <ns3:TrackPointExtension>
            <ns3:atemp>21.0</ns3:atemp>
          </ns3:TrackPointExtension>
        </extensions>
      </trkpt>
      <trkpt lat="42.61476709507405757904052734375" lon="19.8821412026882171630859375">
        <ele>1938.4000244140625</ele>
        <time>2026-06-16T09:31:00.000Z</time>
        <extensions>
          <ns3:TrackPointExtension>
            <ns3:atemp>21.0</ns3:atemp>
          </ns3:TrackPointExtension>
        </extensions>
      </trkpt>
      <trkpt lat="42.61476709507405757904052734375" lon="19.8821412026882171630859375">
        <ele>1938.4000244140625</ele>
        <time>2026-06-16T09:31:01.000Z</time>
        <extensions>
          <ns3:TrackPointExtension>
            <ns3:atemp>21.0</ns3:atemp>
          </ns3:TrackPointExtension>
        </extensions>
      </trkpt>
      <trkpt lat="42.61476709507405757904052734375" lon="19.8821412026882171630859375">
        <ele>1938.4000244140625</ele>
        <time>2026-06-16T09:31:02.000Z</time>
        <extensions>
          <ns3:TrackPointExtension>
            <ns3:atemp>21.0</ns3:atemp>
          </ns3:TrackPointExtension>
        </extensions>
      </trkpt>
      <trkpt lat="42.61476709507405757904052734375" lon="19.8821412026882171630859375">
        <ele>1938.4000244140625</ele>
        <time>2026-06-16T09:31:03.000Z</time>
        <extensions>
          <ns3:TrackPointExtension>
            <ns3:atemp>21.0</ns3:atemp>
          </ns3:TrackPointExtension>
        </extensions>
      </trkpt>
      <trkpt lat="42.61476709507405757904052734375" lon="19.8821412026882171630859375">
        <ele>1938.199951171875</ele>
        <time>2026-06-16T09:31:04.000Z</time>
        <extensions>
          <ns3:TrackPointExtension>
            <ns3:atemp>21.0</ns3:atemp>
          </ns3:TrackPointExtension>
        </extensions>
      </trkpt>
      <trkpt lat="42.61476709507405757904052734375" lon="19.8821412026882171630859375">
        <ele>1938.199951171875</ele>
        <time>2026-06-16T09:31:05.000Z</time>
        <extensions>
          <ns3:TrackPointExtension>
            <ns3:atemp>21.0</ns3:atemp>
          </ns3:TrackPointExtension>
        </extensions>
      </trkpt>
      <trkpt lat="42.61476709507405757904052734375" lon="19.8821412026882171630859375">
        <ele>1938.199951171875</ele>
        <time>2026-06-16T09:31:06.000Z</time>
        <extensions>
          <ns3:TrackPointExtension>
            <ns3:atemp>21.0</ns3:atemp>
          </ns3:TrackPointExtension>
        </extensions>
      </trkpt>
      <trkpt lat="42.61476709507405757904052734375" lon="19.8821412026882171630859375">
        <ele>1938.199951171875</ele>
        <time>2026-06-16T09:31:07.000Z</time>
        <extensions>
          <ns3:TrackPointExtension>
            <ns3:atemp>21.0</ns3:atemp>
          </ns3:TrackPointExtension>
        </extensions>
      </trkpt>
      <trkpt lat="42.61476709507405757904052734375" lon="19.8821412026882171630859375">
        <ele>1938.199951171875</ele>
        <time>2026-06-16T09:31:08.000Z</time>
        <extensions>
          <ns3:TrackPointExtension>
            <ns3:atemp>21.0</ns3:atemp>
          </ns3:TrackPointExtension>
        </extensions>
      </trkpt>
      <trkpt lat="42.61476709507405757904052734375" lon="19.8821412026882171630859375">
        <ele>1938</ele>
        <time>2026-06-16T09:31:09.000Z</time>
        <extensions>
          <ns3:TrackPointExtension>
            <ns3:atemp>21.0</ns3:atemp>
          </ns3:TrackPointExtension>
        </extensions>
      </trkpt>
      <trkpt lat="42.61476709507405757904052734375" lon="19.8821412026882171630859375">
        <ele>1938</ele>
        <time>2026-06-16T09:31:10.000Z</time>
        <extensions>
          <ns3:TrackPointExtension>
            <ns3:atemp>21.0</ns3:atemp>
          </ns3:TrackPointExtension>
        </extensions>
      </trkpt>
      <trkpt lat="42.61476709507405757904052734375" lon="19.8821412026882171630859375">
        <ele>1937.800048828125</ele>
        <time>2026-06-16T09:31:11.000Z</time>
        <extensions>
          <ns3:TrackPointExtension>
            <ns3:atemp>21.0</ns3:atemp>
          </ns3:TrackPointExtension>
        </extensions>
      </trkpt>
      <trkpt lat="42.61476709507405757904052734375" lon="19.8821412026882171630859375">
        <ele>1937.5999755859375</ele>
        <time>2026-06-16T09:31:12.000Z</time>
        <extensions>
          <ns3:TrackPointExtension>
            <ns3:atemp>21.0</ns3:atemp>
          </ns3:TrackPointExtension>
        </extensions>
      </trkpt>
      <trkpt lat="42.61476709507405757904052734375" lon="19.8821412026882171630859375">
        <ele>1937.5999755859375</ele>
        <time>2026-06-16T09:31:13.000Z</time>
        <extensions>
          <ns3:TrackPointExtension>
            <ns3:atemp>21.0</ns3:atemp>
          </ns3:TrackPointExtension>
        </extensions>
      </trkpt>
      <trkpt lat="42.61476709507405757904052734375" lon="19.8821412026882171630859375">
        <ele>1937.5999755859375</ele>
        <time>2026-06-16T09:31:14.000Z</time>
        <extensions>
          <ns3:TrackPointExtension>
            <ns3:atemp>21.0</ns3:atemp>
          </ns3:TrackPointExtension>
        </extensions>
      </trkpt>
      <trkpt lat="42.61476709507405757904052734375" lon="19.8821412026882171630859375">
        <ele>1937.5999755859375</ele>
        <time>2026-06-16T09:31:15.000Z</time>
        <extensions>
          <ns3:TrackPointExtension>
            <ns3:atemp>21.0</ns3:atemp>
          </ns3:TrackPointExtension>
        </extensions>
      </trkpt>
      <trkpt lat="42.61476709507405757904052734375" lon="19.8821412026882171630859375">
        <ele>1937.5999755859375</ele>
        <time>2026-06-16T09:31:16.000Z</time>
        <extensions>
          <ns3:TrackPointExtension>
            <ns3:atemp>21.0</ns3:atemp>
          </ns3:TrackPointExtension>
        </extensions>
      </trkpt>
      <trkpt lat="42.61476709507405757904052734375" lon="19.8821412026882171630859375">
        <ele>1937.5999755859375</ele>
        <time>2026-06-16T09:31:17.000Z</time>
        <extensions>
          <ns3:TrackPointExtension>
            <ns3:atemp>21.0</ns3:atemp>
          </ns3:TrackPointExtension>
        </extensions>
      </trkpt>
      <trkpt lat="42.61476709507405757904052734375" lon="19.8821412026882171630859375">
        <ele>1937.800048828125</ele>
        <time>2026-06-16T09:31:18.000Z</time>
        <extensions>
          <ns3:TrackPointExtension>
            <ns3:atemp>21.0</ns3:atemp>
          </ns3:TrackPointExtension>
        </extensions>
      </trkpt>
      <trkpt lat="42.61476709507405757904052734375" lon="19.8821412026882171630859375">
        <ele>1938</ele>
        <time>2026-06-16T09:31:19.000Z</time>
        <extensions>
          <ns3:TrackPointExtension>
            <ns3:atemp>21.0</ns3:atemp>
          </ns3:TrackPointExtension>
        </extensions>
      </trkpt>
      <trkpt lat="42.61476709507405757904052734375" lon="19.8821412026882171630859375">
        <ele>1938</ele>
        <time>2026-06-16T09:31:20.000Z</time>
        <extensions>
          <ns3:TrackPointExtension>
            <ns3:atemp>21.0</ns3:atemp>
          </ns3:TrackPointExtension>
        </extensions>
      </trkpt>
      <trkpt lat="42.61476709507405757904052734375" lon="19.8821412026882171630859375">
        <ele>1938</ele>
        <time>2026-06-16T09:31:21.000Z</time>
        <extensions>
          <ns3:TrackPointExtension>
            <ns3:atemp>21.0</ns3:atemp>
          </ns3:TrackPointExtension>
        </extensions>
      </trkpt>
      <trkpt lat="42.61476709507405757904052734375" lon="19.8821412026882171630859375">
        <ele>1938</ele>
        <time>2026-06-16T09:31:22.000Z</time>
        <extensions>
          <ns3:TrackPointExtension>
            <ns3:atemp>21.0</ns3:atemp>
          </ns3:TrackPointExtension>
        </extensions>
      </trkpt>
      <trkpt lat="42.61476709507405757904052734375" lon="19.8821412026882171630859375">
        <ele>1938</ele>
        <time>2026-06-16T09:31:23.000Z</time>
        <extensions>
          <ns3:TrackPointExtension>
            <ns3:atemp>21.0</ns3:atemp>
          </ns3:TrackPointExtension>
        </extensions>
      </trkpt>
      <trkpt lat="42.61476709507405757904052734375" lon="19.8821412026882171630859375">
        <ele>1938.199951171875</ele>
        <time>2026-06-16T09:31:24.000Z</time>
        <extensions>
          <ns3:TrackPointExtension>
            <ns3:atemp>21.0</ns3:atemp>
          </ns3:TrackPointExtension>
        </extensions>
      </trkpt>
      <trkpt lat="42.61476709507405757904052734375" lon="19.8821412026882171630859375">
        <ele>1938.199951171875</ele>
        <time>2026-06-16T09:31:25.000Z</time>
        <extensions>
          <ns3:TrackPointExtension>
            <ns3:atemp>21.0</ns3:atemp>
          </ns3:TrackPointExtension>
        </extensions>
      </trkpt>
      <trkpt lat="42.61476709507405757904052734375" lon="19.8821412026882171630859375">
        <ele>1938.199951171875</ele>
        <time>2026-06-16T09:31:26.000Z</time>
        <extensions>
          <ns3:TrackPointExtension>
            <ns3:atemp>21.0</ns3:atemp>
          </ns3:TrackPointExtension>
        </extensions>
      </trkpt>
      <trkpt lat="42.61476709507405757904052734375" lon="19.8821412026882171630859375">
        <ele>1938.199951171875</ele>
        <time>2026-06-16T09:31:27.000Z</time>
        <extensions>
          <ns3:TrackPointExtension>
            <ns3:atemp>21.0</ns3:atemp>
          </ns3:TrackPointExtension>
        </extensions>
      </trkpt>
      <trkpt lat="42.61476709507405757904052734375" lon="19.8821412026882171630859375">
        <ele>1938.199951171875</ele>
        <time>2026-06-16T09:31:28.000Z</time>
        <extensions>
          <ns3:TrackPointExtension>
            <ns3:atemp>21.0</ns3:atemp>
          </ns3:TrackPointExtension>
        </extensions>
      </trkpt>
      <trkpt lat="42.61476709507405757904052734375" lon="19.8821412026882171630859375">
        <ele>1938.199951171875</ele>
        <time>2026-06-16T09:31:29.000Z</time>
        <extensions>
          <ns3:TrackPointExtension>
            <ns3:atemp>21.0</ns3:atemp>
          </ns3:TrackPointExtension>
        </extensions>
      </trkpt>
      <trkpt lat="42.61476709507405757904052734375" lon="19.8821412026882171630859375">
        <ele>1938.199951171875</ele>
        <time>2026-06-16T09:31:30.000Z</time>
        <extensions>
          <ns3:TrackPointExtension>
            <ns3:atemp>21.0</ns3:atemp>
          </ns3:TrackPointExtension>
        </extensions>
      </trkpt>
      <trkpt lat="42.61476709507405757904052734375" lon="19.8821412026882171630859375">
        <ele>1938.4000244140625</ele>
        <time>2026-06-16T09:31:31.000Z</time>
        <extensions>
          <ns3:TrackPointExtension>
            <ns3:atemp>21.0</ns3:atemp>
          </ns3:TrackPointExtension>
        </extensions>
      </trkpt>
      <trkpt lat="42.61476709507405757904052734375" lon="19.8821412026882171630859375">
        <ele>1938.4000244140625</ele>
        <time>2026-06-16T09:31:32.000Z</time>
        <extensions>
          <ns3:TrackPointExtension>
            <ns3:atemp>21.0</ns3:atemp>
          </ns3:TrackPointExtension>
        </extensions>
      </trkpt>
      <trkpt lat="42.61476709507405757904052734375" lon="19.8821412026882171630859375">
        <ele>1938.4000244140625</ele>
        <time>2026-06-16T09:31:33.000Z</time>
        <extensions>
          <ns3:TrackPointExtension>
            <ns3:atemp>21.0</ns3:atemp>
          </ns3:TrackPointExtension>
        </extensions>
      </trkpt>
      <trkpt lat="42.61476709507405757904052734375" lon="19.8821412026882171630859375">
        <ele>1938.4000244140625</ele>
        <time>2026-06-16T09:31:34.000Z</time>
        <extensions>
          <ns3:TrackPointExtension>
            <ns3:atemp>21.0</ns3:atemp>
          </ns3:TrackPointExtension>
        </extensions>
      </trkpt>
      <trkpt lat="42.61476709507405757904052734375" lon="19.8821412026882171630859375">
        <ele>1938.4000244140625</ele>
        <time>2026-06-16T09:31:35.000Z</time>
        <extensions>
          <ns3:TrackPointExtension>
            <ns3:atemp>21.0</ns3:atemp>
          </ns3:TrackPointExtension>
        </extensions>
      </trkpt>
      <trkpt lat="42.61476709507405757904052734375" lon="19.8821412026882171630859375">
        <ele>1938.4000244140625</ele>
        <time>2026-06-16T09:31:36.000Z</time>
        <extensions>
          <ns3:TrackPointExtension>
            <ns3:atemp>21.0</ns3:atemp>
          </ns3:TrackPointExtension>
        </extensions>
      </trkpt>
      <trkpt lat="42.61476709507405757904052734375" lon="19.8821412026882171630859375">
        <ele>1938.4000244140625</ele>
        <time>2026-06-16T09:31:37.000Z</time>
        <extensions>
          <ns3:TrackPointExtension>
            <ns3:atemp>21.0</ns3:atemp>
          </ns3:TrackPointExtension>
        </extensions>
      </trkpt>
      <trkpt lat="42.61476709507405757904052734375" lon="19.8821412026882171630859375">
        <ele>1938.4000244140625</ele>
        <time>2026-06-16T09:31:38.000Z</time>
        <extensions>
          <ns3:TrackPointExtension>
            <ns3:atemp>21.0</ns3:atemp>
          </ns3:TrackPointExtension>
        </extensions>
      </trkpt>
      <trkpt lat="42.61476709507405757904052734375" lon="19.8821412026882171630859375">
        <ele>1938.4000244140625</ele>
        <time>2026-06-16T09:31:39.000Z</time>
        <extensions>
          <ns3:TrackPointExtension>
            <ns3:atemp>21.0</ns3:atemp>
          </ns3:TrackPointExtension>
        </extensions>
      </trkpt>
      <trkpt lat="42.61476709507405757904052734375" lon="19.8821412026882171630859375">
        <ele>1938.4000244140625</ele>
        <time>2026-06-16T09:31:40.000Z</time>
        <extensions>
          <ns3:TrackPointExtension>
            <ns3:atemp>21.0</ns3:atemp>
          </ns3:TrackPointExtension>
        </extensions>
      </trkpt>
      <trkpt lat="42.61476709507405757904052734375" lon="19.8821412026882171630859375">
        <ele>1938.4000244140625</ele>
        <time>2026-06-16T09:31:41.000Z</time>
        <extensions>
          <ns3:TrackPointExtension>
            <ns3:atemp>21.0</ns3:atemp>
          </ns3:TrackPointExtension>
        </extensions>
      </trkpt>
      <trkpt lat="42.61476709507405757904052734375" lon="19.8821412026882171630859375">
        <ele>1938.4000244140625</ele>
        <time>2026-06-16T09:31:42.000Z</time>
        <extensions>
          <ns3:TrackPointExtension>
            <ns3:atemp>21.0</ns3:atemp>
          </ns3:TrackPointExtension>
        </extensions>
      </trkpt>
      <trkpt lat="42.61476709507405757904052734375" lon="19.8821412026882171630859375">
        <ele>1938.4000244140625</ele>
        <time>2026-06-16T09:31:43.000Z</time>
        <extensions>
          <ns3:TrackPointExtension>
            <ns3:atemp>21.0</ns3:atemp>
          </ns3:TrackPointExtension>
        </extensions>
      </trkpt>
      <trkpt lat="42.61476709507405757904052734375" lon="19.8821412026882171630859375">
        <ele>1938.4000244140625</ele>
        <time>2026-06-16T09:31:44.000Z</time>
        <extensions>
          <ns3:TrackPointExtension>
            <ns3:atemp>21.0</ns3:atemp>
          </ns3:TrackPointExtension>
        </extensions>
      </trkpt>
      <trkpt lat="42.61476709507405757904052734375" lon="19.8821412026882171630859375">
        <ele>1938.4000244140625</ele>
        <time>2026-06-16T09:31:45.000Z</time>
        <extensions>
          <ns3:TrackPointExtension>
            <ns3:atemp>21.0</ns3:atemp>
          </ns3:TrackPointExtension>
        </extensions>
      </trkpt>
      <trkpt lat="42.61476709507405757904052734375" lon="19.8821412026882171630859375">
        <ele>1938.4000244140625</ele>
        <time>2026-06-16T09:31:46.000Z</time>
        <extensions>
          <ns3:TrackPointExtension>
            <ns3:atemp>21.0</ns3:atemp>
          </ns3:TrackPointExtension>
        </extensions>
      </trkpt>
      <trkpt lat="42.61476709507405757904052734375" lon="19.8821412026882171630859375">
        <ele>1938.4000244140625</ele>
        <time>2026-06-16T09:31:47.000Z</time>
        <extensions>
          <ns3:TrackPointExtension>
            <ns3:atemp>21.0</ns3:atemp>
          </ns3:TrackPointExtension>
        </extensions>
      </trkpt>
      <trkpt lat="42.61476709507405757904052734375" lon="19.8821412026882171630859375">
        <ele>1938.4000244140625</ele>
        <time>2026-06-16T09:31:48.000Z</time>
        <extensions>
          <ns3:TrackPointExtension>
            <ns3:atemp>21.0</ns3:atemp>
          </ns3:TrackPointExtension>
        </extensions>
      </trkpt>
      <trkpt lat="42.61476709507405757904052734375" lon="19.8821412026882171630859375">
        <ele>1938.4000244140625</ele>
        <time>2026-06-16T09:31:49.000Z</time>
        <extensions>
          <ns3:TrackPointExtension>
            <ns3:atemp>21.0</ns3:atemp>
          </ns3:TrackPointExtension>
        </extensions>
      </trkpt>
      <trkpt lat="42.61476709507405757904052734375" lon="19.8821412026882171630859375">
        <ele>1938.4000244140625</ele>
        <time>2026-06-16T09:31:50.000Z</time>
        <extensions>
          <ns3:TrackPointExtension>
            <ns3:atemp>21.0</ns3:atemp>
          </ns3:TrackPointExtension>
        </extensions>
      </trkpt>
      <trkpt lat="42.61476709507405757904052734375" lon="19.8821412026882171630859375">
        <ele>1938.4000244140625</ele>
        <time>2026-06-16T09:31:51.000Z</time>
        <extensions>
          <ns3:TrackPointExtension>
            <ns3:atemp>21.0</ns3:atemp>
          </ns3:TrackPointExtension>
        </extensions>
      </trkpt>
      <trkpt lat="42.61476709507405757904052734375" lon="19.8821412026882171630859375">
        <ele>1938.4000244140625</ele>
        <time>2026-06-16T09:31:52.000Z</time>
        <extensions>
          <ns3:TrackPointExtension>
            <ns3:atemp>21.0</ns3:atemp>
          </ns3:TrackPointExtension>
        </extensions>
      </trkpt>
      <trkpt lat="42.61476709507405757904052734375" lon="19.8821412026882171630859375">
        <ele>1938.4000244140625</ele>
        <time>2026-06-16T09:31:53.000Z</time>
        <extensions>
          <ns3:TrackPointExtension>
            <ns3:atemp>21.0</ns3:atemp>
          </ns3:TrackPointExtension>
        </extensions>
      </trkpt>
      <trkpt lat="42.61476709507405757904052734375" lon="19.8821412026882171630859375">
        <ele>1938.4000244140625</ele>
        <time>2026-06-16T09:31:54.000Z</time>
        <extensions>
          <ns3:TrackPointExtension>
            <ns3:atemp>21.0</ns3:atemp>
          </ns3:TrackPointExtension>
        </extensions>
      </trkpt>
      <trkpt lat="42.61476709507405757904052734375" lon="19.8821412026882171630859375">
        <ele>1938.4000244140625</ele>
        <time>2026-06-16T09:31:55.000Z</time>
        <extensions>
          <ns3:TrackPointExtension>
            <ns3:atemp>21.0</ns3:atemp>
          </ns3:TrackPointExtension>
        </extensions>
      </trkpt>
      <trkpt lat="42.61476709507405757904052734375" lon="19.8821412026882171630859375">
        <ele>1938.4000244140625</ele>
        <time>2026-06-16T09:31:56.000Z</time>
        <extensions>
          <ns3:TrackPointExtension>
            <ns3:atemp>21.0</ns3:atemp>
          </ns3:TrackPointExtension>
        </extensions>
      </trkpt>
      <trkpt lat="42.61476709507405757904052734375" lon="19.8821412026882171630859375">
        <ele>1938.4000244140625</ele>
        <time>2026-06-16T09:31:57.000Z</time>
        <extensions>
          <ns3:TrackPointExtension>
            <ns3:atemp>21.0</ns3:atemp>
          </ns3:TrackPointExtension>
        </extensions>
      </trkpt>
      <trkpt lat="42.61476709507405757904052734375" lon="19.8821412026882171630859375">
        <ele>1938.4000244140625</ele>
        <time>2026-06-16T09:31:58.000Z</time>
        <extensions>
          <ns3:TrackPointExtension>
            <ns3:atemp>21.0</ns3:atemp>
          </ns3:TrackPointExtension>
        </extensions>
      </trkpt>
      <trkpt lat="42.61476709507405757904052734375" lon="19.8821412026882171630859375">
        <ele>1938.4000244140625</ele>
        <time>2026-06-16T09:31:59.000Z</time>
        <extensions>
          <ns3:TrackPointExtension>
            <ns3:atemp>20.0</ns3:atemp>
          </ns3:TrackPointExtension>
        </extensions>
      </trkpt>
      <trkpt lat="42.61476709507405757904052734375" lon="19.8821412026882171630859375">
        <ele>1938.4000244140625</ele>
        <time>2026-06-16T09:32:00.000Z</time>
        <extensions>
          <ns3:TrackPointExtension>
            <ns3:atemp>20.0</ns3:atemp>
          </ns3:TrackPointExtension>
        </extensions>
      </trkpt>
      <trkpt lat="42.61476709507405757904052734375" lon="19.8821412026882171630859375">
        <ele>1938.4000244140625</ele>
        <time>2026-06-16T09:32:01.000Z</time>
        <extensions>
          <ns3:TrackPointExtension>
            <ns3:atemp>20.0</ns3:atemp>
          </ns3:TrackPointExtension>
        </extensions>
      </trkpt>
      <trkpt lat="42.61476709507405757904052734375" lon="19.8821412026882171630859375">
        <ele>1938.4000244140625</ele>
        <time>2026-06-16T09:32:02.000Z</time>
        <extensions>
          <ns3:TrackPointExtension>
            <ns3:atemp>20.0</ns3:atemp>
          </ns3:TrackPointExtension>
        </extensions>
      </trkpt>
      <trkpt lat="42.61476709507405757904052734375" lon="19.8821412026882171630859375">
        <ele>1938.4000244140625</ele>
        <time>2026-06-16T09:32:03.000Z</time>
        <extensions>
          <ns3:TrackPointExtension>
            <ns3:atemp>20.0</ns3:atemp>
          </ns3:TrackPointExtension>
        </extensions>
      </trkpt>
      <trkpt lat="42.61476709507405757904052734375" lon="19.8821412026882171630859375">
        <ele>1938.4000244140625</ele>
        <time>2026-06-16T09:32:04.000Z</time>
        <extensions>
          <ns3:TrackPointExtension>
            <ns3:atemp>20.0</ns3:atemp>
          </ns3:TrackPointExtension>
        </extensions>
      </trkpt>
      <trkpt lat="42.61476709507405757904052734375" lon="19.8821412026882171630859375">
        <ele>1938.4000244140625</ele>
        <time>2026-06-16T09:32:05.000Z</time>
        <extensions>
          <ns3:TrackPointExtension>
            <ns3:atemp>20.0</ns3:atemp>
          </ns3:TrackPointExtension>
        </extensions>
      </trkpt>
      <trkpt lat="42.61476709507405757904052734375" lon="19.8821412026882171630859375">
        <ele>1938.4000244140625</ele>
        <time>2026-06-16T09:32:06.000Z</time>
        <extensions>
          <ns3:TrackPointExtension>
            <ns3:atemp>20.0</ns3:atemp>
          </ns3:TrackPointExtension>
        </extensions>
      </trkpt>
      <trkpt lat="42.61476709507405757904052734375" lon="19.8821412026882171630859375">
        <ele>1938.4000244140625</ele>
        <time>2026-06-16T09:32:07.000Z</time>
        <extensions>
          <ns3:TrackPointExtension>
            <ns3:atemp>20.0</ns3:atemp>
          </ns3:TrackPointExtension>
        </extensions>
      </trkpt>
      <trkpt lat="42.61476709507405757904052734375" lon="19.8821412026882171630859375">
        <ele>1938.5999755859375</ele>
        <time>2026-06-16T09:32:08.000Z</time>
        <extensions>
          <ns3:TrackPointExtension>
            <ns3:atemp>20.0</ns3:atemp>
          </ns3:TrackPointExtension>
        </extensions>
      </trkpt>
      <trkpt lat="42.61476709507405757904052734375" lon="19.8821412026882171630859375">
        <ele>1938.5999755859375</ele>
        <time>2026-06-16T09:32:09.000Z</time>
        <extensions>
          <ns3:TrackPointExtension>
            <ns3:atemp>20.0</ns3:atemp>
          </ns3:TrackPointExtension>
        </extensions>
      </trkpt>
      <trkpt lat="42.61476709507405757904052734375" lon="19.8821412026882171630859375">
        <ele>1938.5999755859375</ele>
        <time>2026-06-16T09:32:10.000Z</time>
        <extensions>
          <ns3:TrackPointExtension>
            <ns3:atemp>20.0</ns3:atemp>
          </ns3:TrackPointExtension>
        </extensions>
      </trkpt>
      <trkpt lat="42.61476709507405757904052734375" lon="19.8821412026882171630859375">
        <ele>1938.5999755859375</ele>
        <time>2026-06-16T09:32:11.000Z</time>
        <extensions>
          <ns3:TrackPointExtension>
            <ns3:atemp>20.0</ns3:atemp>
          </ns3:TrackPointExtension>
        </extensions>
      </trkpt>
      <trkpt lat="42.61476709507405757904052734375" lon="19.8821412026882171630859375">
        <ele>1938.5999755859375</ele>
        <time>2026-06-16T09:32:12.000Z</time>
        <extensions>
          <ns3:TrackPointExtension>
            <ns3:atemp>20.0</ns3:atemp>
          </ns3:TrackPointExtension>
        </extensions>
      </trkpt>
      <trkpt lat="42.61476709507405757904052734375" lon="19.8821412026882171630859375">
        <ele>1938.5999755859375</ele>
        <time>2026-06-16T09:32:13.000Z</time>
        <extensions>
          <ns3:TrackPointExtension>
            <ns3:atemp>20.0</ns3:atemp>
          </ns3:TrackPointExtension>
        </extensions>
      </trkpt>
      <trkpt lat="42.61476709507405757904052734375" lon="19.8821412026882171630859375">
        <ele>1938.4000244140625</ele>
        <time>2026-06-16T09:32:14.000Z</time>
        <extensions>
          <ns3:TrackPointExtension>
            <ns3:atemp>20.0</ns3:atemp>
          </ns3:TrackPointExtension>
        </extensions>
      </trkpt>
      <trkpt lat="42.61476709507405757904052734375" lon="19.8821412026882171630859375">
        <ele>1938.4000244140625</ele>
        <time>2026-06-16T09:32:15.000Z</time>
        <extensions>
          <ns3:TrackPointExtension>
            <ns3:atemp>20.0</ns3:atemp>
          </ns3:TrackPointExtension>
        </extensions>
      </trkpt>
      <trkpt lat="42.61476709507405757904052734375" lon="19.8821412026882171630859375">
        <ele>1938.4000244140625</ele>
        <time>2026-06-16T09:32:16.000Z</time>
        <extensions>
          <ns3:TrackPointExtension>
            <ns3:atemp>20.0</ns3:atemp>
          </ns3:TrackPointExtension>
        </extensions>
      </trkpt>
      <trkpt lat="42.61476709507405757904052734375" lon="19.8821412026882171630859375">
        <ele>1938.4000244140625</ele>
        <time>2026-06-16T09:32:17.000Z</time>
        <extensions>
          <ns3:TrackPointExtension>
            <ns3:atemp>20.0</ns3:atemp>
          </ns3:TrackPointExtension>
        </extensions>
      </trkpt>
      <trkpt lat="42.61476709507405757904052734375" lon="19.8821412026882171630859375">
        <ele>1938.4000244140625</ele>
        <time>2026-06-16T09:32:18.000Z</time>
        <extensions>
          <ns3:TrackPointExtension>
            <ns3:atemp>20.0</ns3:atemp>
          </ns3:TrackPointExtension>
        </extensions>
      </trkpt>
      <trkpt lat="42.61476709507405757904052734375" lon="19.8821412026882171630859375">
        <ele>1938.5999755859375</ele>
        <time>2026-06-16T09:32:19.000Z</time>
        <extensions>
          <ns3:TrackPointExtension>
            <ns3:atemp>20.0</ns3:atemp>
          </ns3:TrackPointExtension>
        </extensions>
      </trkpt>
      <trkpt lat="42.61476709507405757904052734375" lon="19.8821412026882171630859375">
        <ele>1938.5999755859375</ele>
        <time>2026-06-16T09:32:20.000Z</time>
        <extensions>
          <ns3:TrackPointExtension>
            <ns3:atemp>20.0</ns3:atemp>
          </ns3:TrackPointExtension>
        </extensions>
      </trkpt>
      <trkpt lat="42.61476709507405757904052734375" lon="19.8821412026882171630859375">
        <ele>1938.5999755859375</ele>
        <time>2026-06-16T09:32:21.000Z</time>
        <extensions>
          <ns3:TrackPointExtension>
            <ns3:atemp>20.0</ns3:atemp>
          </ns3:TrackPointExtension>
        </extensions>
      </trkpt>
      <trkpt lat="42.61476709507405757904052734375" lon="19.8821412026882171630859375">
        <ele>1938.5999755859375</ele>
        <time>2026-06-16T09:32:22.000Z</time>
        <extensions>
          <ns3:TrackPointExtension>
            <ns3:atemp>20.0</ns3:atemp>
          </ns3:TrackPointExtension>
        </extensions>
      </trkpt>
      <trkpt lat="42.61476709507405757904052734375" lon="19.8821412026882171630859375">
        <ele>1938.5999755859375</ele>
        <time>2026-06-16T09:32:23.000Z</time>
        <extensions>
          <ns3:TrackPointExtension>
            <ns3:atemp>20.0</ns3:atemp>
          </ns3:TrackPointExtension>
        </extensions>
      </trkpt>
      <trkpt lat="42.61476709507405757904052734375" lon="19.8821412026882171630859375">
        <ele>1938.5999755859375</ele>
        <time>2026-06-16T09:32:24.000Z</time>
        <extensions>
          <ns3:TrackPointExtension>
            <ns3:atemp>20.0</ns3:atemp>
          </ns3:TrackPointExtension>
        </extensions>
      </trkpt>
      <trkpt lat="42.61476709507405757904052734375" lon="19.8821412026882171630859375">
        <ele>1938.5999755859375</ele>
        <time>2026-06-16T09:32:25.000Z</time>
        <extensions>
          <ns3:TrackPointExtension>
            <ns3:atemp>20.0</ns3:atemp>
          </ns3:TrackPointExtension>
        </extensions>
      </trkpt>
      <trkpt lat="42.61476709507405757904052734375" lon="19.8821412026882171630859375">
        <ele>1938.5999755859375</ele>
        <time>2026-06-16T09:32:26.000Z</time>
        <extensions>
          <ns3:TrackPointExtension>
            <ns3:atemp>20.0</ns3:atemp>
          </ns3:TrackPointExtension>
        </extensions>
      </trkpt>
      <trkpt lat="42.61476709507405757904052734375" lon="19.8821412026882171630859375">
        <ele>1938.800048828125</ele>
        <time>2026-06-16T09:32:27.000Z</time>
        <extensions>
          <ns3:TrackPointExtension>
            <ns3:atemp>20.0</ns3:atemp>
          </ns3:TrackPointExtension>
        </extensions>
      </trkpt>
      <trkpt lat="42.61476709507405757904052734375" lon="19.8821412026882171630859375">
        <ele>1938.800048828125</ele>
        <time>2026-06-16T09:32:28.000Z</time>
        <extensions>
          <ns3:TrackPointExtension>
            <ns3:atemp>20.0</ns3:atemp>
          </ns3:TrackPointExtension>
        </extensions>
      </trkpt>
      <trkpt lat="42.61476709507405757904052734375" lon="19.8821412026882171630859375">
        <ele>1938.800048828125</ele>
        <time>2026-06-16T09:32:29.000Z</time>
        <extensions>
          <ns3:TrackPointExtension>
            <ns3:atemp>20.0</ns3:atemp>
          </ns3:TrackPointExtension>
        </extensions>
      </trkpt>
      <trkpt lat="42.61476709507405757904052734375" lon="19.8821412026882171630859375">
        <ele>1938.800048828125</ele>
        <time>2026-06-16T09:32:30.000Z</time>
        <extensions>
          <ns3:TrackPointExtension>
            <ns3:atemp>20.0</ns3:atemp>
          </ns3:TrackPointExtension>
        </extensions>
      </trkpt>
      <trkpt lat="42.61476709507405757904052734375" lon="19.8821412026882171630859375">
        <ele>1938.800048828125</ele>
        <time>2026-06-16T09:32:31.000Z</time>
        <extensions>
          <ns3:TrackPointExtension>
            <ns3:atemp>20.0</ns3:atemp>
          </ns3:TrackPointExtension>
        </extensions>
      </trkpt>
      <trkpt lat="42.61476709507405757904052734375" lon="19.8821412026882171630859375">
        <ele>1938.800048828125</ele>
        <time>2026-06-16T09:32:32.000Z</time>
        <extensions>
          <ns3:TrackPointExtension>
            <ns3:atemp>20.0</ns3:atemp>
          </ns3:TrackPointExtension>
        </extensions>
      </trkpt>
      <trkpt lat="42.61476709507405757904052734375" lon="19.8821412026882171630859375">
        <ele>1938.800048828125</ele>
        <time>2026-06-16T09:32:33.000Z</time>
        <extensions>
          <ns3:TrackPointExtension>
            <ns3:atemp>20.0</ns3:atemp>
          </ns3:TrackPointExtension>
        </extensions>
      </trkpt>
      <trkpt lat="42.61476709507405757904052734375" lon="19.8821412026882171630859375">
        <ele>1938.800048828125</ele>
        <time>2026-06-16T09:32:34.000Z</time>
        <extensions>
          <ns3:TrackPointExtension>
            <ns3:atemp>20.0</ns3:atemp>
          </ns3:TrackPointExtension>
        </extensions>
      </trkpt>
      <trkpt lat="42.61476709507405757904052734375" lon="19.8821412026882171630859375">
        <ele>1938.800048828125</ele>
        <time>2026-06-16T09:32:35.000Z</time>
        <extensions>
          <ns3:TrackPointExtension>
            <ns3:atemp>20.0</ns3:atemp>
          </ns3:TrackPointExtension>
        </extensions>
      </trkpt>
      <trkpt lat="42.61476709507405757904052734375" lon="19.8821412026882171630859375">
        <ele>1938.800048828125</ele>
        <time>2026-06-16T09:32:36.000Z</time>
        <extensions>
          <ns3:TrackPointExtension>
            <ns3:atemp>20.0</ns3:atemp>
          </ns3:TrackPointExtension>
        </extensions>
      </trkpt>
      <trkpt lat="42.61476709507405757904052734375" lon="19.8821412026882171630859375">
        <ele>1938.800048828125</ele>
        <time>2026-06-16T09:32:37.000Z</time>
        <extensions>
          <ns3:TrackPointExtension>
            <ns3:atemp>20.0</ns3:atemp>
          </ns3:TrackPointExtension>
        </extensions>
      </trkpt>
      <trkpt lat="42.61476709507405757904052734375" lon="19.8821412026882171630859375">
        <ele>1938.800048828125</ele>
        <time>2026-06-16T09:32:38.000Z</time>
        <extensions>
          <ns3:TrackPointExtension>
            <ns3:atemp>20.0</ns3:atemp>
          </ns3:TrackPointExtension>
        </extensions>
      </trkpt>
      <trkpt lat="42.61476709507405757904052734375" lon="19.8821412026882171630859375">
        <ele>1938.800048828125</ele>
        <time>2026-06-16T09:32:39.000Z</time>
        <extensions>
          <ns3:TrackPointExtension>
            <ns3:atemp>20.0</ns3:atemp>
          </ns3:TrackPointExtension>
        </extensions>
      </trkpt>
      <trkpt lat="42.61476709507405757904052734375" lon="19.8821412026882171630859375">
        <ele>1938.800048828125</ele>
        <time>2026-06-16T09:32:40.000Z</time>
        <extensions>
          <ns3:TrackPointExtension>
            <ns3:atemp>20.0</ns3:atemp>
          </ns3:TrackPointExtension>
        </extensions>
      </trkpt>
      <trkpt lat="42.61476709507405757904052734375" lon="19.8821412026882171630859375">
        <ele>1938.800048828125</ele>
        <time>2026-06-16T09:32:41.000Z</time>
        <extensions>
          <ns3:TrackPointExtension>
            <ns3:atemp>20.0</ns3:atemp>
          </ns3:TrackPointExtension>
        </extensions>
      </trkpt>
      <trkpt lat="42.61476709507405757904052734375" lon="19.8821412026882171630859375">
        <ele>1938.800048828125</ele>
        <time>2026-06-16T09:32:42.000Z</time>
        <extensions>
          <ns3:TrackPointExtension>
            <ns3:atemp>20.0</ns3:atemp>
          </ns3:TrackPointExtension>
        </extensions>
      </trkpt>
      <trkpt lat="42.61476709507405757904052734375" lon="19.8821412026882171630859375">
        <ele>1938.800048828125</ele>
        <time>2026-06-16T09:32:43.000Z</time>
        <extensions>
          <ns3:TrackPointExtension>
            <ns3:atemp>20.0</ns3:atemp>
          </ns3:TrackPointExtension>
        </extensions>
      </trkpt>
      <trkpt lat="42.61476709507405757904052734375" lon="19.8821412026882171630859375">
        <ele>1938.800048828125</ele>
        <time>2026-06-16T09:32:44.000Z</time>
        <extensions>
          <ns3:TrackPointExtension>
            <ns3:atemp>20.0</ns3:atemp>
          </ns3:TrackPointExtension>
        </extensions>
      </trkpt>
      <trkpt lat="42.61476709507405757904052734375" lon="19.8821412026882171630859375">
        <ele>1938.800048828125</ele>
        <time>2026-06-16T09:32:45.000Z</time>
        <extensions>
          <ns3:TrackPointExtension>
            <ns3:atemp>20.0</ns3:atemp>
          </ns3:TrackPointExtension>
        </extensions>
      </trkpt>
      <trkpt lat="42.61476709507405757904052734375" lon="19.8821412026882171630859375">
        <ele>1938.800048828125</ele>
        <time>2026-06-16T09:32:46.000Z</time>
        <extensions>
          <ns3:TrackPointExtension>
            <ns3:atemp>20.0</ns3:atemp>
          </ns3:TrackPointExtension>
        </extensions>
      </trkpt>
      <trkpt lat="42.61476709507405757904052734375" lon="19.8821412026882171630859375">
        <ele>1938.800048828125</ele>
        <time>2026-06-16T09:32:47.000Z</time>
        <extensions>
          <ns3:TrackPointExtension>
            <ns3:atemp>20.0</ns3:atemp>
          </ns3:TrackPointExtension>
        </extensions>
      </trkpt>
      <trkpt lat="42.61476709507405757904052734375" lon="19.8821412026882171630859375">
        <ele>1938.800048828125</ele>
        <time>2026-06-16T09:32:48.000Z</time>
        <extensions>
          <ns3:TrackPointExtension>
            <ns3:atemp>20.0</ns3:atemp>
          </ns3:TrackPointExtension>
        </extensions>
      </trkpt>
      <trkpt lat="42.61476709507405757904052734375" lon="19.8821412026882171630859375">
        <ele>1938.800048828125</ele>
        <time>2026-06-16T09:32:49.000Z</time>
        <extensions>
          <ns3:TrackPointExtension>
            <ns3:atemp>20.0</ns3:atemp>
          </ns3:TrackPointExtension>
        </extensions>
      </trkpt>
      <trkpt lat="42.61476709507405757904052734375" lon="19.8821412026882171630859375">
        <ele>1938.800048828125</ele>
        <time>2026-06-16T09:32:50.000Z</time>
        <extensions>
          <ns3:TrackPointExtension>
            <ns3:atemp>20.0</ns3:atemp>
          </ns3:TrackPointExtension>
        </extensions>
      </trkpt>
      <trkpt lat="42.61476709507405757904052734375" lon="19.8821412026882171630859375">
        <ele>1938.5999755859375</ele>
        <time>2026-06-16T09:32:51.000Z</time>
        <extensions>
          <ns3:TrackPointExtension>
            <ns3:atemp>20.0</ns3:atemp>
          </ns3:TrackPointExtension>
        </extensions>
      </trkpt>
      <trkpt lat="42.61476709507405757904052734375" lon="19.8821412026882171630859375">
        <ele>1938.5999755859375</ele>
        <time>2026-06-16T09:32:52.000Z</time>
        <extensions>
          <ns3:TrackPointExtension>
            <ns3:atemp>20.0</ns3:atemp>
          </ns3:TrackPointExtension>
        </extensions>
      </trkpt>
      <trkpt lat="42.61476709507405757904052734375" lon="19.8821412026882171630859375">
        <ele>1938.5999755859375</ele>
        <time>2026-06-16T09:32:53.000Z</time>
        <extensions>
          <ns3:TrackPointExtension>
            <ns3:atemp>20.0</ns3:atemp>
          </ns3:TrackPointExtension>
        </extensions>
      </trkpt>
      <trkpt lat="42.61476709507405757904052734375" lon="19.8821412026882171630859375">
        <ele>1938.5999755859375</ele>
        <time>2026-06-16T09:32:54.000Z</time>
        <extensions>
          <ns3:TrackPointExtension>
            <ns3:atemp>20.0</ns3:atemp>
          </ns3:TrackPointExtension>
        </extensions>
      </trkpt>
      <trkpt lat="42.61476709507405757904052734375" lon="19.8821412026882171630859375">
        <ele>1938.5999755859375</ele>
        <time>2026-06-16T09:32:55.000Z</time>
        <extensions>
          <ns3:TrackPointExtension>
            <ns3:atemp>20.0</ns3:atemp>
          </ns3:TrackPointExtension>
        </extensions>
      </trkpt>
      <trkpt lat="42.61476709507405757904052734375" lon="19.8821412026882171630859375">
        <ele>1938.5999755859375</ele>
        <time>2026-06-16T09:32:56.000Z</time>
        <extensions>
          <ns3:TrackPointExtension>
            <ns3:atemp>20.0</ns3:atemp>
          </ns3:TrackPointExtension>
        </extensions>
      </trkpt>
      <trkpt lat="42.61476709507405757904052734375" lon="19.8821412026882171630859375">
        <ele>1938.5999755859375</ele>
        <time>2026-06-16T09:32:57.000Z</time>
        <extensions>
          <ns3:TrackPointExtension>
            <ns3:atemp>20.0</ns3:atemp>
          </ns3:TrackPointExtension>
        </extensions>
      </trkpt>
      <trkpt lat="42.61476709507405757904052734375" lon="19.8821412026882171630859375">
        <ele>1938.5999755859375</ele>
        <time>2026-06-16T09:32:58.000Z</time>
        <extensions>
          <ns3:TrackPointExtension>
            <ns3:atemp>20.0</ns3:atemp>
          </ns3:TrackPointExtension>
        </extensions>
      </trkpt>
      <trkpt lat="42.61476709507405757904052734375" lon="19.8821412026882171630859375">
        <ele>1938.5999755859375</ele>
        <time>2026-06-16T09:32:59.000Z</time>
        <extensions>
          <ns3:TrackPointExtension>
            <ns3:atemp>20.0</ns3:atemp>
          </ns3:TrackPointExtension>
        </extensions>
      </trkpt>
      <trkpt lat="42.6147649995982646942138671875" lon="19.88214229233562946319580078125">
        <ele>1938.5999755859375</ele>
        <time>2026-06-16T09:33:00.000Z</time>
        <extensions>
          <ns3:TrackPointExtension>
            <ns3:atemp>20.0</ns3:atemp>
          </ns3:TrackPointExtension>
        </extensions>
      </trkpt>
      <trkpt lat="42.61476709507405757904052734375" lon="19.8821412026882171630859375">
        <ele>1938.800048828125</ele>
        <time>2026-06-16T09:33:01.000Z</time>
        <extensions>
          <ns3:TrackPointExtension>
            <ns3:atemp>20.0</ns3:atemp>
          </ns3:TrackPointExtension>
        </extensions>
      </trkpt>
      <trkpt lat="42.61476709507405757904052734375" lon="19.8821412026882171630859375">
        <ele>1938.800048828125</ele>
        <time>2026-06-16T09:33:02.000Z</time>
        <extensions>
          <ns3:TrackPointExtension>
            <ns3:atemp>20.0</ns3:atemp>
          </ns3:TrackPointExtension>
        </extensions>
      </trkpt>
      <trkpt lat="42.61476709507405757904052734375" lon="19.8821412026882171630859375">
        <ele>1938.800048828125</ele>
        <time>2026-06-16T09:33:03.000Z</time>
        <extensions>
          <ns3:TrackPointExtension>
            <ns3:atemp>20.0</ns3:atemp>
          </ns3:TrackPointExtension>
        </extensions>
      </trkpt>
      <trkpt lat="42.61476709507405757904052734375" lon="19.8821412026882171630859375">
        <ele>1938.800048828125</ele>
        <time>2026-06-16T09:33:04.000Z</time>
        <extensions>
          <ns3:TrackPointExtension>
            <ns3:atemp>20.0</ns3:atemp>
          </ns3:TrackPointExtension>
        </extensions>
      </trkpt>
      <trkpt lat="42.61476709507405757904052734375" lon="19.8821412026882171630859375">
        <ele>1938.800048828125</ele>
        <time>2026-06-16T09:33:05.000Z</time>
        <extensions>
          <ns3:TrackPointExtension>
            <ns3:atemp>20.0</ns3:atemp>
          </ns3:TrackPointExtension>
        </extensions>
      </trkpt>
      <trkpt lat="42.61476709507405757904052734375" lon="19.8821412026882171630859375">
        <ele>1938.5999755859375</ele>
        <time>2026-06-16T09:33:06.000Z</time>
        <extensions>
          <ns3:TrackPointExtension>
            <ns3:atemp>20.0</ns3:atemp>
          </ns3:TrackPointExtension>
        </extensions>
      </trkpt>
      <trkpt lat="42.61476709507405757904052734375" lon="19.8821412026882171630859375">
        <ele>1938.4000244140625</ele>
        <time>2026-06-16T09:33:07.000Z</time>
        <extensions>
          <ns3:TrackPointExtension>
            <ns3:atemp>20.0</ns3:atemp>
          </ns3:TrackPointExtension>
        </extensions>
      </trkpt>
      <trkpt lat="42.61476709507405757904052734375" lon="19.8821412026882171630859375">
        <ele>1938.199951171875</ele>
        <time>2026-06-16T09:33:08.000Z</time>
        <extensions>
          <ns3:TrackPointExtension>
            <ns3:atemp>20.0</ns3:atemp>
          </ns3:TrackPointExtension>
        </extensions>
      </trkpt>
      <trkpt lat="42.61476709507405757904052734375" lon="19.8821412026882171630859375">
        <ele>1938.199951171875</ele>
        <time>2026-06-16T09:33:09.000Z</time>
        <extensions>
          <ns3:TrackPointExtension>
            <ns3:atemp>20.0</ns3:atemp>
          </ns3:TrackPointExtension>
        </extensions>
      </trkpt>
      <trkpt lat="42.61476709507405757904052734375" lon="19.8821412026882171630859375">
        <ele>1938.199951171875</ele>
        <time>2026-06-16T09:33:10.000Z</time>
        <extensions>
          <ns3:TrackPointExtension>
            <ns3:atemp>20.0</ns3:atemp>
          </ns3:TrackPointExtension>
        </extensions>
      </trkpt>
      <trkpt lat="42.61476709507405757904052734375" lon="19.8821412026882171630859375">
        <ele>1938.199951171875</ele>
        <time>2026-06-16T09:33:11.000Z</time>
        <extensions>
          <ns3:TrackPointExtension>
            <ns3:atemp>20.0</ns3:atemp>
          </ns3:TrackPointExtension>
        </extensions>
      </trkpt>
      <trkpt lat="42.61476709507405757904052734375" lon="19.8821412026882171630859375">
        <ele>1938.199951171875</ele>
        <time>2026-06-16T09:33:12.000Z</time>
        <extensions>
          <ns3:TrackPointExtension>
            <ns3:atemp>20.0</ns3:atemp>
          </ns3:TrackPointExtension>
        </extensions>
      </trkpt>
      <trkpt lat="42.61476709507405757904052734375" lon="19.8821412026882171630859375">
        <ele>1938.199951171875</ele>
        <time>2026-06-16T09:33:13.000Z</time>
        <extensions>
          <ns3:TrackPointExtension>
            <ns3:atemp>20.0</ns3:atemp>
          </ns3:TrackPointExtension>
        </extensions>
      </trkpt>
      <trkpt lat="42.61476709507405757904052734375" lon="19.8821412026882171630859375">
        <ele>1938.199951171875</ele>
        <time>2026-06-16T09:33:14.000Z</time>
        <extensions>
          <ns3:TrackPointExtension>
            <ns3:atemp>20.0</ns3:atemp>
          </ns3:TrackPointExtension>
        </extensions>
      </trkpt>
      <trkpt lat="42.61476709507405757904052734375" lon="19.8821412026882171630859375">
        <ele>1938.199951171875</ele>
        <time>2026-06-16T09:33:15.000Z</time>
        <extensions>
          <ns3:TrackPointExtension>
            <ns3:atemp>20.0</ns3:atemp>
          </ns3:TrackPointExtension>
        </extensions>
      </trkpt>
      <trkpt lat="42.61476709507405757904052734375" lon="19.8821412026882171630859375">
        <ele>1938.199951171875</ele>
        <time>2026-06-16T09:33:16.000Z</time>
        <extensions>
          <ns3:TrackPointExtension>
            <ns3:atemp>20.0</ns3:atemp>
          </ns3:TrackPointExtension>
        </extensions>
      </trkpt>
      <trkpt lat="42.61476709507405757904052734375" lon="19.8821412026882171630859375">
        <ele>1938.199951171875</ele>
        <time>2026-06-16T09:33:17.000Z</time>
        <extensions>
          <ns3:TrackPointExtension>
            <ns3:atemp>20.0</ns3:atemp>
          </ns3:TrackPointExtension>
        </extensions>
      </trkpt>
      <trkpt lat="42.61476709507405757904052734375" lon="19.8821412026882171630859375">
        <ele>1938.199951171875</ele>
        <time>2026-06-16T09:33:18.000Z</time>
        <extensions>
          <ns3:TrackPointExtension>
            <ns3:atemp>20.0</ns3:atemp>
          </ns3:TrackPointExtension>
        </extensions>
      </trkpt>
      <trkpt lat="42.61476709507405757904052734375" lon="19.8821412026882171630859375">
        <ele>1938.199951171875</ele>
        <time>2026-06-16T09:33:19.000Z</time>
        <extensions>
          <ns3:TrackPointExtension>
            <ns3:atemp>20.0</ns3:atemp>
          </ns3:TrackPointExtension>
        </extensions>
      </trkpt>
      <trkpt lat="42.61476709507405757904052734375" lon="19.8821412026882171630859375">
        <ele>1938.199951171875</ele>
        <time>2026-06-16T09:33:20.000Z</time>
        <extensions>
          <ns3:TrackPointExtension>
            <ns3:atemp>20.0</ns3:atemp>
          </ns3:TrackPointExtension>
        </extensions>
      </trkpt>
      <trkpt lat="42.61476709507405757904052734375" lon="19.8821412026882171630859375">
        <ele>1938.199951171875</ele>
        <time>2026-06-16T09:33:21.000Z</time>
        <extensions>
          <ns3:TrackPointExtension>
            <ns3:atemp>20.0</ns3:atemp>
          </ns3:TrackPointExtension>
        </extensions>
      </trkpt>
      <trkpt lat="42.61476709507405757904052734375" lon="19.8821412026882171630859375">
        <ele>1938.199951171875</ele>
        <time>2026-06-16T09:33:22.000Z</time>
        <extensions>
          <ns3:TrackPointExtension>
            <ns3:atemp>20.0</ns3:atemp>
          </ns3:TrackPointExtension>
        </extensions>
      </trkpt>
      <trkpt lat="42.61476709507405757904052734375" lon="19.8821412026882171630859375">
        <ele>1938.199951171875</ele>
        <time>2026-06-16T09:33:23.000Z</time>
        <extensions>
          <ns3:TrackPointExtension>
            <ns3:atemp>20.0</ns3:atemp>
          </ns3:TrackPointExtension>
        </extensions>
      </trkpt>
      <trkpt lat="42.61476709507405757904052734375" lon="19.8821412026882171630859375">
        <ele>1938.199951171875</ele>
        <time>2026-06-16T09:33:24.000Z</time>
        <extensions>
          <ns3:TrackPointExtension>
            <ns3:atemp>20.0</ns3:atemp>
          </ns3:TrackPointExtension>
        </extensions>
      </trkpt>
      <trkpt lat="42.61476709507405757904052734375" lon="19.8821412026882171630859375">
        <ele>1938.199951171875</ele>
        <time>2026-06-16T09:33:25.000Z</time>
        <extensions>
          <ns3:TrackPointExtension>
            <ns3:atemp>20.0</ns3:atemp>
          </ns3:TrackPointExtension>
        </extensions>
      </trkpt>
      <trkpt lat="42.61476709507405757904052734375" lon="19.8821412026882171630859375">
        <ele>1938.199951171875</ele>
        <time>2026-06-16T09:33:26.000Z</time>
        <extensions>
          <ns3:TrackPointExtension>
            <ns3:atemp>20.0</ns3:atemp>
          </ns3:TrackPointExtension>
        </extensions>
      </trkpt>
      <trkpt lat="42.61476709507405757904052734375" lon="19.8821412026882171630859375">
        <ele>1938.199951171875</ele>
        <time>2026-06-16T09:33:27.000Z</time>
        <extensions>
          <ns3:TrackPointExtension>
            <ns3:atemp>20.0</ns3:atemp>
          </ns3:TrackPointExtension>
        </extensions>
      </trkpt>
      <trkpt lat="42.61476709507405757904052734375" lon="19.8821412026882171630859375">
        <ele>1938.199951171875</ele>
        <time>2026-06-16T09:33:28.000Z</time>
        <extensions>
          <ns3:TrackPointExtension>
            <ns3:atemp>20.0</ns3:atemp>
          </ns3:TrackPointExtension>
        </extensions>
      </trkpt>
      <trkpt lat="42.61476709507405757904052734375" lon="19.8821412026882171630859375">
        <ele>1938.199951171875</ele>
        <time>2026-06-16T09:33:29.000Z</time>
        <extensions>
          <ns3:TrackPointExtension>
            <ns3:atemp>20.0</ns3:atemp>
          </ns3:TrackPointExtension>
        </extensions>
      </trkpt>
      <trkpt lat="42.61476709507405757904052734375" lon="19.8821412026882171630859375">
        <ele>1938.199951171875</ele>
        <time>2026-06-16T09:33:30.000Z</time>
        <extensions>
          <ns3:TrackPointExtension>
            <ns3:atemp>20.0</ns3:atemp>
          </ns3:TrackPointExtension>
        </extensions>
      </trkpt>
      <trkpt lat="42.61476709507405757904052734375" lon="19.8821412026882171630859375">
        <ele>1938.199951171875</ele>
        <time>2026-06-16T09:33:31.000Z</time>
        <extensions>
          <ns3:TrackPointExtension>
            <ns3:atemp>20.0</ns3:atemp>
          </ns3:TrackPointExtension>
        </extensions>
      </trkpt>
      <trkpt lat="42.61476709507405757904052734375" lon="19.8821412026882171630859375">
        <ele>1938</ele>
        <time>2026-06-16T09:33:32.000Z</time>
        <extensions>
          <ns3:TrackPointExtension>
            <ns3:atemp>20.0</ns3:atemp>
          </ns3:TrackPointExtension>
        </extensions>
      </trkpt>
      <trkpt lat="42.61476315557956695556640625" lon="19.88214178942143917083740234375">
        <ele>1938</ele>
        <time>2026-06-16T09:33:33.000Z</time>
        <extensions>
          <ns3:TrackPointExtension>
            <ns3:atemp>20.0</ns3:atemp>
          </ns3:TrackPointExtension>
        </extensions>
      </trkpt>
      <trkpt lat="42.61476709507405757904052734375" lon="19.8821412026882171630859375">
        <ele>1938</ele>
        <time>2026-06-16T09:33:34.000Z</time>
        <extensions>
          <ns3:TrackPointExtension>
            <ns3:atemp>20.0</ns3:atemp>
          </ns3:TrackPointExtension>
        </extensions>
      </trkpt>
      <trkpt lat="42.61476709507405757904052734375" lon="19.8821412026882171630859375">
        <ele>1938</ele>
        <time>2026-06-16T09:33:35.000Z</time>
        <extensions>
          <ns3:TrackPointExtension>
            <ns3:atemp>20.0</ns3:atemp>
          </ns3:TrackPointExtension>
        </extensions>
      </trkpt>
      <trkpt lat="42.61476709507405757904052734375" lon="19.8821412026882171630859375">
        <ele>1938</ele>
        <time>2026-06-16T09:33:36.000Z</time>
        <extensions>
          <ns3:TrackPointExtension>
            <ns3:atemp>20.0</ns3:atemp>
          </ns3:TrackPointExtension>
        </extensions>
      </trkpt>
      <trkpt lat="42.61476709507405757904052734375" lon="19.8821412026882171630859375">
        <ele>1938</ele>
        <time>2026-06-16T09:33:37.000Z</time>
        <extensions>
          <ns3:TrackPointExtension>
            <ns3:atemp>20.0</ns3:atemp>
          </ns3:TrackPointExtension>
        </extensions>
      </trkpt>
      <trkpt lat="42.61476709507405757904052734375" lon="19.8821412026882171630859375">
        <ele>1938</ele>
        <time>2026-06-16T09:33:38.000Z</time>
        <extensions>
          <ns3:TrackPointExtension>
            <ns3:atemp>20.0</ns3:atemp>
          </ns3:TrackPointExtension>
        </extensions>
      </trkpt>
      <trkpt lat="42.61476709507405757904052734375" lon="19.8821412026882171630859375">
        <ele>1938</ele>
        <time>2026-06-16T09:33:39.000Z</time>
        <extensions>
          <ns3:TrackPointExtension>
            <ns3:atemp>20.0</ns3:atemp>
          </ns3:TrackPointExtension>
        </extensions>
      </trkpt>
      <trkpt lat="42.61476709507405757904052734375" lon="19.8821412026882171630859375">
        <ele>1938.199951171875</ele>
        <time>2026-06-16T09:33:40.000Z</time>
        <extensions>
          <ns3:TrackPointExtension>
            <ns3:atemp>20.0</ns3:atemp>
          </ns3:TrackPointExtension>
        </extensions>
      </trkpt>
      <trkpt lat="42.61476709507405757904052734375" lon="19.8821412026882171630859375">
        <ele>1938.199951171875</ele>
        <time>2026-06-16T09:33:41.000Z</time>
        <extensions>
          <ns3:TrackPointExtension>
            <ns3:atemp>20.0</ns3:atemp>
          </ns3:TrackPointExtension>
        </extensions>
      </trkpt>
      <trkpt lat="42.61476709507405757904052734375" lon="19.8821412026882171630859375">
        <ele>1938.199951171875</ele>
        <time>2026-06-16T09:33:42.000Z</time>
        <extensions>
          <ns3:TrackPointExtension>
            <ns3:atemp>20.0</ns3:atemp>
          </ns3:TrackPointExtension>
        </extensions>
      </trkpt>
      <trkpt lat="42.61476709507405757904052734375" lon="19.8821412026882171630859375">
        <ele>1938.199951171875</ele>
        <time>2026-06-16T09:33:43.000Z</time>
        <extensions>
          <ns3:TrackPointExtension>
            <ns3:atemp>20.0</ns3:atemp>
          </ns3:TrackPointExtension>
        </extensions>
      </trkpt>
      <trkpt lat="42.61476709507405757904052734375" lon="19.8821412026882171630859375">
        <ele>1938.4000244140625</ele>
        <time>2026-06-16T09:33:44.000Z</time>
        <extensions>
          <ns3:TrackPointExtension>
            <ns3:atemp>20.0</ns3:atemp>
          </ns3:TrackPointExtension>
        </extensions>
      </trkpt>
      <trkpt lat="42.61476709507405757904052734375" lon="19.8821412026882171630859375">
        <ele>1938.4000244140625</ele>
        <time>2026-06-16T09:33:45.000Z</time>
        <extensions>
          <ns3:TrackPointExtension>
            <ns3:atemp>20.0</ns3:atemp>
          </ns3:TrackPointExtension>
        </extensions>
      </trkpt>
      <trkpt lat="42.61476709507405757904052734375" lon="19.8821412026882171630859375">
        <ele>1938.4000244140625</ele>
        <time>2026-06-16T09:33:46.000Z</time>
        <extensions>
          <ns3:TrackPointExtension>
            <ns3:atemp>20.0</ns3:atemp>
          </ns3:TrackPointExtension>
        </extensions>
      </trkpt>
      <trkpt lat="42.61476709507405757904052734375" lon="19.8821412026882171630859375">
        <ele>1938.4000244140625</ele>
        <time>2026-06-16T09:33:47.000Z</time>
        <extensions>
          <ns3:TrackPointExtension>
            <ns3:atemp>20.0</ns3:atemp>
          </ns3:TrackPointExtension>
        </extensions>
      </trkpt>
      <trkpt lat="42.61476709507405757904052734375" lon="19.8821412026882171630859375">
        <ele>1938.4000244140625</ele>
        <time>2026-06-16T09:33:48.000Z</time>
        <extensions>
          <ns3:TrackPointExtension>
            <ns3:atemp>20.0</ns3:atemp>
          </ns3:TrackPointExtension>
        </extensions>
      </trkpt>
      <trkpt lat="42.61476709507405757904052734375" lon="19.8821412026882171630859375">
        <ele>1938.4000244140625</ele>
        <time>2026-06-16T09:33:49.000Z</time>
        <extensions>
          <ns3:TrackPointExtension>
            <ns3:atemp>20.0</ns3:atemp>
          </ns3:TrackPointExtension>
        </extensions>
      </trkpt>
      <trkpt lat="42.61476709507405757904052734375" lon="19.8821412026882171630859375">
        <ele>1938.4000244140625</ele>
        <time>2026-06-16T09:33:50.000Z</time>
        <extensions>
          <ns3:TrackPointExtension>
            <ns3:atemp>20.0</ns3:atemp>
          </ns3:TrackPointExtension>
        </extensions>
      </trkpt>
      <trkpt lat="42.61476709507405757904052734375" lon="19.8821412026882171630859375">
        <ele>1938.4000244140625</ele>
        <time>2026-06-16T09:33:51.000Z</time>
        <extensions>
          <ns3:TrackPointExtension>
            <ns3:atemp>20.0</ns3:atemp>
          </ns3:TrackPointExtension>
        </extensions>
      </trkpt>
      <trkpt lat="42.61476709507405757904052734375" lon="19.8821412026882171630859375">
        <ele>1938.4000244140625</ele>
        <time>2026-06-16T09:33:52.000Z</time>
        <extensions>
          <ns3:TrackPointExtension>
            <ns3:atemp>20.0</ns3:atemp>
          </ns3:TrackPointExtension>
        </extensions>
      </trkpt>
      <trkpt lat="42.61476709507405757904052734375" lon="19.8821412026882171630859375">
        <ele>1938.4000244140625</ele>
        <time>2026-06-16T09:33:53.000Z</time>
        <extensions>
          <ns3:TrackPointExtension>
            <ns3:atemp>20.0</ns3:atemp>
          </ns3:TrackPointExtension>
        </extensions>
      </trkpt>
      <trkpt lat="42.61476709507405757904052734375" lon="19.8821412026882171630859375">
        <ele>1938.4000244140625</ele>
        <time>2026-06-16T09:33:54.000Z</time>
        <extensions>
          <ns3:TrackPointExtension>
            <ns3:atemp>20.0</ns3:atemp>
          </ns3:TrackPointExtension>
        </extensions>
      </trkpt>
      <trkpt lat="42.61476709507405757904052734375" lon="19.8821412026882171630859375">
        <ele>1938.4000244140625</ele>
        <time>2026-06-16T09:33:55.000Z</time>
        <extensions>
          <ns3:TrackPointExtension>
            <ns3:atemp>20.0</ns3:atemp>
          </ns3:TrackPointExtension>
        </extensions>
      </trkpt>
      <trkpt lat="42.61476709507405757904052734375" lon="19.8821412026882171630859375">
        <ele>1938.4000244140625</ele>
        <time>2026-06-16T09:33:56.000Z</time>
        <extensions>
          <ns3:TrackPointExtension>
            <ns3:atemp>20.0</ns3:atemp>
          </ns3:TrackPointExtension>
        </extensions>
      </trkpt>
      <trkpt lat="42.61476709507405757904052734375" lon="19.8821412026882171630859375">
        <ele>1938.4000244140625</ele>
        <time>2026-06-16T09:33:57.000Z</time>
        <extensions>
          <ns3:TrackPointExtension>
            <ns3:atemp>20.0</ns3:atemp>
          </ns3:TrackPointExtension>
        </extensions>
      </trkpt>
      <trkpt lat="42.61476709507405757904052734375" lon="19.8821412026882171630859375">
        <ele>1938.4000244140625</ele>
        <time>2026-06-16T09:33:58.000Z</time>
        <extensions>
          <ns3:TrackPointExtension>
            <ns3:atemp>20.0</ns3:atemp>
          </ns3:TrackPointExtension>
        </extensions>
      </trkpt>
      <trkpt lat="42.61476709507405757904052734375" lon="19.8821412026882171630859375">
        <ele>1938.4000244140625</ele>
        <time>2026-06-16T09:33:59.000Z</time>
        <extensions>
          <ns3:TrackPointExtension>
            <ns3:atemp>20.0</ns3:atemp>
          </ns3:TrackPointExtension>
        </extensions>
      </trkpt>
      <trkpt lat="42.61476709507405757904052734375" lon="19.8821412026882171630859375">
        <ele>1938.4000244140625</ele>
        <time>2026-06-16T09:34:00.000Z</time>
        <extensions>
          <ns3:TrackPointExtension>
            <ns3:atemp>20.0</ns3:atemp>
          </ns3:TrackPointExtension>
        </extensions>
      </trkpt>
      <trkpt lat="42.61476709507405757904052734375" lon="19.8821412026882171630859375">
        <ele>1938.4000244140625</ele>
        <time>2026-06-16T09:34:01.000Z</time>
        <extensions>
          <ns3:TrackPointExtension>
            <ns3:atemp>20.0</ns3:atemp>
          </ns3:TrackPointExtension>
        </extensions>
      </trkpt>
      <trkpt lat="42.61476709507405757904052734375" lon="19.8821412026882171630859375">
        <ele>1938.4000244140625</ele>
        <time>2026-06-16T09:34:02.000Z</time>
        <extensions>
          <ns3:TrackPointExtension>
            <ns3:atemp>20.0</ns3:atemp>
          </ns3:TrackPointExtension>
        </extensions>
      </trkpt>
      <trkpt lat="42.61476709507405757904052734375" lon="19.8821412026882171630859375">
        <ele>1938.4000244140625</ele>
        <time>2026-06-16T09:34:03.000Z</time>
        <extensions>
          <ns3:TrackPointExtension>
            <ns3:atemp>20.0</ns3:atemp>
          </ns3:TrackPointExtension>
        </extensions>
      </trkpt>
      <trkpt lat="42.61476709507405757904052734375" lon="19.8821412026882171630859375">
        <ele>1938.4000244140625</ele>
        <time>2026-06-16T09:34:04.000Z</time>
        <extensions>
          <ns3:TrackPointExtension>
            <ns3:atemp>20.0</ns3:atemp>
          </ns3:TrackPointExtension>
        </extensions>
      </trkpt>
      <trkpt lat="42.61476709507405757904052734375" lon="19.8821412026882171630859375">
        <ele>1938.4000244140625</ele>
        <time>2026-06-16T09:34:05.000Z</time>
        <extensions>
          <ns3:TrackPointExtension>
            <ns3:atemp>20.0</ns3:atemp>
          </ns3:TrackPointExtension>
        </extensions>
      </trkpt>
      <trkpt lat="42.61476709507405757904052734375" lon="19.8821412026882171630859375">
        <ele>1938.4000244140625</ele>
        <time>2026-06-16T09:34:06.000Z</time>
        <extensions>
          <ns3:TrackPointExtension>
            <ns3:atemp>20.0</ns3:atemp>
          </ns3:TrackPointExtension>
        </extensions>
      </trkpt>
      <trkpt lat="42.61476709507405757904052734375" lon="19.8821412026882171630859375">
        <ele>1938.4000244140625</ele>
        <time>2026-06-16T09:34:07.000Z</time>
        <extensions>
          <ns3:TrackPointExtension>
            <ns3:atemp>20.0</ns3:atemp>
          </ns3:TrackPointExtension>
        </extensions>
      </trkpt>
      <trkpt lat="42.61476709507405757904052734375" lon="19.8821412026882171630859375">
        <ele>1938.4000244140625</ele>
        <time>2026-06-16T09:34:08.000Z</time>
        <extensions>
          <ns3:TrackPointExtension>
            <ns3:atemp>20.0</ns3:atemp>
          </ns3:TrackPointExtension>
        </extensions>
      </trkpt>
      <trkpt lat="42.61476709507405757904052734375" lon="19.8821412026882171630859375">
        <ele>1938.4000244140625</ele>
        <time>2026-06-16T09:34:09.000Z</time>
        <extensions>
          <ns3:TrackPointExtension>
            <ns3:atemp>20.0</ns3:atemp>
          </ns3:TrackPointExtension>
        </extensions>
      </trkpt>
      <trkpt lat="42.61476709507405757904052734375" lon="19.8821412026882171630859375">
        <ele>1938.4000244140625</ele>
        <time>2026-06-16T09:34:10.000Z</time>
        <extensions>
          <ns3:TrackPointExtension>
            <ns3:atemp>20.0</ns3:atemp>
          </ns3:TrackPointExtension>
        </extensions>
      </trkpt>
      <trkpt lat="42.61476709507405757904052734375" lon="19.8821412026882171630859375">
        <ele>1938.4000244140625</ele>
        <time>2026-06-16T09:34:11.000Z</time>
        <extensions>
          <ns3:TrackPointExtension>
            <ns3:atemp>20.0</ns3:atemp>
          </ns3:TrackPointExtension>
        </extensions>
      </trkpt>
      <trkpt lat="42.61476709507405757904052734375" lon="19.8821412026882171630859375">
        <ele>1938.4000244140625</ele>
        <time>2026-06-16T09:34:12.000Z</time>
        <extensions>
          <ns3:TrackPointExtension>
            <ns3:atemp>20.0</ns3:atemp>
          </ns3:TrackPointExtension>
        </extensions>
      </trkpt>
      <trkpt lat="42.61476709507405757904052734375" lon="19.8821412026882171630859375">
        <ele>1938.4000244140625</ele>
        <time>2026-06-16T09:34:13.000Z</time>
        <extensions>
          <ns3:TrackPointExtension>
            <ns3:atemp>20.0</ns3:atemp>
          </ns3:TrackPointExtension>
        </extensions>
      </trkpt>
      <trkpt lat="42.61476709507405757904052734375" lon="19.8821412026882171630859375">
        <ele>1938.4000244140625</ele>
        <time>2026-06-16T09:34:14.000Z</time>
        <extensions>
          <ns3:TrackPointExtension>
            <ns3:atemp>20.0</ns3:atemp>
          </ns3:TrackPointExtension>
        </extensions>
      </trkpt>
      <trkpt lat="42.61476709507405757904052734375" lon="19.8821412026882171630859375">
        <ele>1938.4000244140625</ele>
        <time>2026-06-16T09:34:15.000Z</time>
        <extensions>
          <ns3:TrackPointExtension>
            <ns3:atemp>20.0</ns3:atemp>
          </ns3:TrackPointExtension>
        </extensions>
      </trkpt>
      <trkpt lat="42.61476709507405757904052734375" lon="19.8821412026882171630859375">
        <ele>1938.4000244140625</ele>
        <time>2026-06-16T09:34:16.000Z</time>
        <extensions>
          <ns3:TrackPointExtension>
            <ns3:atemp>20.0</ns3:atemp>
          </ns3:TrackPointExtension>
        </extensions>
      </trkpt>
      <trkpt lat="42.61476709507405757904052734375" lon="19.8821412026882171630859375">
        <ele>1938.4000244140625</ele>
        <time>2026-06-16T09:34:17.000Z</time>
        <extensions>
          <ns3:TrackPointExtension>
            <ns3:atemp>20.0</ns3:atemp>
          </ns3:TrackPointExtension>
        </extensions>
      </trkpt>
      <trkpt lat="42.61476709507405757904052734375" lon="19.8821412026882171630859375">
        <ele>1938.199951171875</ele>
        <time>2026-06-16T09:34:18.000Z</time>
        <extensions>
          <ns3:TrackPointExtension>
            <ns3:atemp>20.0</ns3:atemp>
          </ns3:TrackPointExtension>
        </extensions>
      </trkpt>
      <trkpt lat="42.61476709507405757904052734375" lon="19.8821412026882171630859375">
        <ele>1938.199951171875</ele>
        <time>2026-06-16T09:34:19.000Z</time>
        <extensions>
          <ns3:TrackPointExtension>
            <ns3:atemp>20.0</ns3:atemp>
          </ns3:TrackPointExtension>
        </extensions>
      </trkpt>
      <trkpt lat="42.61476709507405757904052734375" lon="19.8821412026882171630859375">
        <ele>1938.199951171875</ele>
        <time>2026-06-16T09:34:20.000Z</time>
        <extensions>
          <ns3:TrackPointExtension>
            <ns3:atemp>20.0</ns3:atemp>
          </ns3:TrackPointExtension>
        </extensions>
      </trkpt>
      <trkpt lat="42.61476709507405757904052734375" lon="19.8821412026882171630859375">
        <ele>1938.199951171875</ele>
        <time>2026-06-16T09:34:21.000Z</time>
        <extensions>
          <ns3:TrackPointExtension>
            <ns3:atemp>20.0</ns3:atemp>
          </ns3:TrackPointExtension>
        </extensions>
      </trkpt>
      <trkpt lat="42.61476709507405757904052734375" lon="19.8821412026882171630859375">
        <ele>1938.199951171875</ele>
        <time>2026-06-16T09:34:22.000Z</time>
        <extensions>
          <ns3:TrackPointExtension>
            <ns3:atemp>20.0</ns3:atemp>
          </ns3:TrackPointExtension>
        </extensions>
      </trkpt>
      <trkpt lat="42.61476709507405757904052734375" lon="19.8821412026882171630859375">
        <ele>1938.199951171875</ele>
        <time>2026-06-16T09:34:23.000Z</time>
        <extensions>
          <ns3:TrackPointExtension>
            <ns3:atemp>20.0</ns3:atemp>
          </ns3:TrackPointExtension>
        </extensions>
      </trkpt>
      <trkpt lat="42.61476709507405757904052734375" lon="19.8821412026882171630859375">
        <ele>1938.199951171875</ele>
        <time>2026-06-16T09:34:24.000Z</time>
        <extensions>
          <ns3:TrackPointExtension>
            <ns3:atemp>20.0</ns3:atemp>
          </ns3:TrackPointExtension>
        </extensions>
      </trkpt>
      <trkpt lat="42.61476592160761356353759765625" lon="19.88214095123112201690673828125">
        <ele>1938.199951171875</ele>
        <time>2026-06-16T09:34:25.000Z</time>
        <extensions>
          <ns3:TrackPointExtension>
            <ns3:atemp>20.0</ns3:atemp>
          </ns3:TrackPointExtension>
        </extensions>
      </trkpt>
      <trkpt lat="42.61475552804768085479736328125" lon="19.8821500875055789947509765625">
        <ele>1938.199951171875</ele>
        <time>2026-06-16T09:34:26.000Z</time>
        <extensions>
          <ns3:TrackPointExtension>
            <ns3:atemp>20.0</ns3:atemp>
          </ns3:TrackPointExtension>
        </extensions>
      </trkpt>
      <trkpt lat="42.61473826132714748382568359375" lon="19.88215419463813304901123046875">
        <ele>1938.199951171875</ele>
        <time>2026-06-16T09:34:27.000Z</time>
        <extensions>
          <ns3:TrackPointExtension>
            <ns3:atemp>20.0</ns3:atemp>
          </ns3:TrackPointExtension>
        </extensions>
      </trkpt>
      <trkpt lat="42.6147207431495189666748046875" lon="19.88215855322778224945068359375">
        <ele>1938.199951171875</ele>
        <time>2026-06-16T09:34:28.000Z</time>
        <extensions>
          <ns3:TrackPointExtension>
            <ns3:atemp>20.0</ns3:atemp>
          </ns3:TrackPointExtension>
        </extensions>
      </trkpt>
      <trkpt lat="42.61470280587673187255859375" lon="19.8821631632745265960693359375">
        <ele>1938.199951171875</ele>
        <time>2026-06-16T09:34:29.000Z</time>
        <extensions>
          <ns3:TrackPointExtension>
            <ns3:atemp>20.0</ns3:atemp>
          </ns3:TrackPointExtension>
        </extensions>
      </trkpt>
      <trkpt lat="42.614682018756866455078125" lon="19.88217213191092014312744140625">
        <ele>1938.199951171875</ele>
        <time>2026-06-16T09:34:30.000Z</time>
        <extensions>
          <ns3:TrackPointExtension>
            <ns3:atemp>20.0</ns3:atemp>
          </ns3:TrackPointExtension>
        </extensions>
      </trkpt>
      <trkpt lat="42.61466131545603275299072265625" lon="19.88217447884380817413330078125">
        <ele>1938.199951171875</ele>
        <time>2026-06-16T09:34:31.000Z</time>
        <extensions>
          <ns3:TrackPointExtension>
            <ns3:atemp>20.0</ns3:atemp>
          </ns3:TrackPointExtension>
        </extensions>
      </trkpt>
      <trkpt lat="42.6146392710506916046142578125" lon="19.88218872807919979095458984375">
        <ele>1938</ele>
        <time>2026-06-16T09:34:32.000Z</time>
        <extensions>
          <ns3:TrackPointExtension>
            <ns3:atemp>20.0</ns3:atemp>
          </ns3:TrackPointExtension>
        </extensions>
      </trkpt>
      <trkpt lat="42.614620663225650787353515625" lon="19.8822087608277797698974609375">
        <ele>1938</ele>
        <time>2026-06-16T09:34:33.000Z</time>
        <extensions>
          <ns3:TrackPointExtension>
            <ns3:atemp>20.0</ns3:atemp>
          </ns3:TrackPointExtension>
        </extensions>
      </trkpt>
      <trkpt lat="42.61459744535386562347412109375" lon="19.88222829066216945648193359375">
        <ele>1938</ele>
        <time>2026-06-16T09:34:34.000Z</time>
        <extensions>
          <ns3:TrackPointExtension>
            <ns3:atemp>20.0</ns3:atemp>
          </ns3:TrackPointExtension>
        </extensions>
      </trkpt>
      <trkpt lat="42.614579088985919952392578125" lon="19.8822377622127532958984375">
        <ele>1938</ele>
        <time>2026-06-16T09:34:35.000Z</time>
        <extensions>
          <ns3:TrackPointExtension>
            <ns3:atemp>20.0</ns3:atemp>
          </ns3:TrackPointExtension>
        </extensions>
      </trkpt>
      <trkpt lat="42.6145618222653865814208984375" lon="19.882242120802402496337890625">
        <ele>1938</ele>
        <time>2026-06-16T09:34:36.000Z</time>
        <extensions>
          <ns3:TrackPointExtension>
            <ns3:atemp>20.0</ns3:atemp>
          </ns3:TrackPointExtension>
        </extensions>
      </trkpt>
      <trkpt lat="42.61453961022198200225830078125" lon="19.8822399415075778961181640625">
        <ele>1938</ele>
        <time>2026-06-16T09:34:37.000Z</time>
        <extensions>
          <ns3:TrackPointExtension>
            <ns3:atemp>20.0</ns3:atemp>
          </ns3:TrackPointExtension>
        </extensions>
      </trkpt>
      <trkpt lat="42.6145170629024505615234375" lon="19.882234744727611541748046875">
        <ele>1938</ele>
        <time>2026-06-16T09:34:38.000Z</time>
        <extensions>
          <ns3:TrackPointExtension>
            <ns3:atemp>20.0</ns3:atemp>
          </ns3:TrackPointExtension>
        </extensions>
      </trkpt>
      <trkpt lat="42.61449761688709259033203125" lon="19.8822272010147571563720703125">
        <ele>1938</ele>
        <time>2026-06-16T09:34:39.000Z</time>
        <extensions>
          <ns3:TrackPointExtension>
            <ns3:atemp>20.0</ns3:atemp>
          </ns3:TrackPointExtension>
        </extensions>
      </trkpt>
      <trkpt lat="42.6144769974052906036376953125" lon="19.88222393207252025604248046875">
        <ele>1938</ele>
        <time>2026-06-16T09:34:40.000Z</time>
        <extensions>
          <ns3:TrackPointExtension>
            <ns3:atemp>19.0</ns3:atemp>
          </ns3:TrackPointExtension>
        </extensions>
      </trkpt>
      <trkpt lat="42.61445411480963230133056640625" lon="19.8822154663503170013427734375">
        <ele>1938</ele>
        <time>2026-06-16T09:34:41.000Z</time>
        <extensions>
          <ns3:TrackPointExtension>
            <ns3:atemp>19.0</ns3:atemp>
          </ns3:TrackPointExtension>
        </extensions>
      </trkpt>
      <trkpt lat="42.61443215422332286834716796875" lon="19.88220582716166973114013671875">
        <ele>1938.199951171875</ele>
        <time>2026-06-16T09:34:42.000Z</time>
        <extensions>
          <ns3:TrackPointExtension>
            <ns3:atemp>20.0</ns3:atemp>
          </ns3:TrackPointExtension>
        </extensions>
      </trkpt>
      <trkpt lat="42.6144049130380153656005859375" lon="19.88219543360173702239990234375">
        <ele>1938.199951171875</ele>
        <time>2026-06-16T09:34:43.000Z</time>
        <extensions>
          <ns3:TrackPointExtension>
            <ns3:atemp>19.0</ns3:atemp>
          </ns3:TrackPointExtension>
        </extensions>
      </trkpt>
      <trkpt lat="42.61438094079494476318359375" lon="19.882185794413089752197265625">
        <ele>1938.199951171875</ele>
        <time>2026-06-16T09:34:44.000Z</time>
        <extensions>
          <ns3:TrackPointExtension>
            <ns3:atemp>20.0</ns3:atemp>
          </ns3:TrackPointExtension>
        </extensions>
      </trkpt>
      <trkpt lat="42.6143596507608890533447265625" lon="19.8821852914988994598388671875">
        <ele>1938.199951171875</ele>
        <time>2026-06-16T09:34:45.000Z</time>
        <extensions>
          <ns3:TrackPointExtension>
            <ns3:atemp>19.0</ns3:atemp>
          </ns3:TrackPointExtension>
        </extensions>
      </trkpt>
      <trkpt lat="42.61433693580329418182373046875" lon="19.88218822516500949859619140625">
        <ele>1938.199951171875</ele>
        <time>2026-06-16T09:34:46.000Z</time>
        <extensions>
          <ns3:TrackPointExtension>
            <ns3:atemp>19.0</ns3:atemp>
          </ns3:TrackPointExtension>
        </extensions>
      </trkpt>
      <trkpt lat="42.61431950144469738006591796875" lon="19.88218872807919979095458984375">
        <ele>1938.199951171875</ele>
        <time>2026-06-16T09:34:47.000Z</time>
        <extensions>
          <ns3:TrackPointExtension>
            <ns3:atemp>19.0</ns3:atemp>
          </ns3:TrackPointExtension>
        </extensions>
      </trkpt>
      <trkpt lat="42.61430843733251094818115234375" lon="19.88218210637569427490234375">
        <ele>1938.199951171875</ele>
        <time>2026-06-16T09:34:48.000Z</time>
        <extensions>
          <ns3:TrackPointExtension>
            <ns3:atemp>19.0</ns3:atemp>
          </ns3:TrackPointExtension>
        </extensions>
      </trkpt>
      <trkpt lat="42.61429402045905590057373046875" lon="19.88217540085315704345703125">
        <ele>1938.199951171875</ele>
        <time>2026-06-16T09:34:49.000Z</time>
        <extensions>
          <ns3:TrackPointExtension>
            <ns3:atemp>19.0</ns3:atemp>
          </ns3:TrackPointExtension>
        </extensions>
      </trkpt>
      <trkpt lat="42.61427541263401508331298828125" lon="19.88217045553028583526611328125">
        <ele>1938.199951171875</ele>
        <time>2026-06-16T09:34:50.000Z</time>
        <extensions>
          <ns3:TrackPointExtension>
            <ns3:atemp>19.0</ns3:atemp>
          </ns3:TrackPointExtension>
        </extensions>
      </trkpt>
      <trkpt lat="42.6142568886280059814453125" lon="19.88215260207653045654296875">
        <ele>1938.199951171875</ele>
        <time>2026-06-16T09:34:51.000Z</time>
        <extensions>
          <ns3:TrackPointExtension>
            <ns3:atemp>19.0</ns3:atemp>
          </ns3:TrackPointExtension>
        </extensions>
      </trkpt>
      <trkpt lat="42.6142406277358531951904296875" lon="19.88213072530925273895263671875">
        <ele>1938.199951171875</ele>
        <time>2026-06-16T09:34:52.000Z</time>
        <extensions>
          <ns3:TrackPointExtension>
            <ns3:atemp>19.0</ns3:atemp>
          </ns3:TrackPointExtension>
        </extensions>
      </trkpt>
      <trkpt lat="42.614230401813983917236328125" lon="19.88211681134998798370361328125">
        <ele>1938.199951171875</ele>
        <time>2026-06-16T09:34:53.000Z</time>
        <extensions>
          <ns3:TrackPointExtension>
            <ns3:atemp>19.0</ns3:atemp>
          </ns3:TrackPointExtension>
        </extensions>
      </trkpt>
      <trkpt lat="42.61421808041632175445556640625" lon="19.8821103572845458984375">
        <ele>1938.4000244140625</ele>
        <time>2026-06-16T09:34:54.000Z</time>
        <extensions>
          <ns3:TrackPointExtension>
            <ns3:atemp>19.0</ns3:atemp>
          </ns3:TrackPointExtension>
        </extensions>
      </trkpt>
      <trkpt lat="42.61420383118093013763427734375" lon="19.882107339799404144287109375">
        <ele>1938.4000244140625</ele>
        <time>2026-06-16T09:34:55.000Z</time>
        <extensions>
          <ns3:TrackPointExtension>
            <ns3:atemp>19.0</ns3:atemp>
          </ns3:TrackPointExtension>
        </extensions>
      </trkpt>
      <trkpt lat="42.6141839660704135894775390625" lon="19.88210834562778472900390625">
        <ele>1938.4000244140625</ele>
        <time>2026-06-16T09:34:56.000Z</time>
        <extensions>
          <ns3:TrackPointExtension>
            <ns3:atemp>19.0</ns3:atemp>
          </ns3:TrackPointExtension>
        </extensions>
      </trkpt>
      <trkpt lat="42.61416410095989704132080078125" lon="19.88210893236100673675537109375">
        <ele>1938.5999755859375</ele>
        <time>2026-06-16T09:34:57.000Z</time>
        <extensions>
          <ns3:TrackPointExtension>
            <ns3:atemp>19.0</ns3:atemp>
          </ns3:TrackPointExtension>
        </extensions>
      </trkpt>
      <trkpt lat="42.6141423918306827545166015625" lon="19.88210968673229217529296875">
        <ele>1938.5999755859375</ele>
        <time>2026-06-16T09:34:58.000Z</time>
        <extensions>
          <ns3:TrackPointExtension>
            <ns3:atemp>19.0</ns3:atemp>
          </ns3:TrackPointExtension>
        </extensions>
      </trkpt>
      <trkpt lat="42.61412101797759532928466796875" lon="19.8821044899523258209228515625">
        <ele>1938.5999755859375</ele>
        <time>2026-06-16T09:34:59.000Z</time>
        <extensions>
          <ns3:TrackPointExtension>
            <ns3:atemp>19.0</ns3:atemp>
          </ns3:TrackPointExtension>
        </extensions>
      </trkpt>
      <trkpt lat="42.6141051761806011199951171875" lon="19.882094599306583404541015625">
        <ele>1938.5999755859375</ele>
        <time>2026-06-16T09:35:00.000Z</time>
        <extensions>
          <ns3:TrackPointExtension>
            <ns3:atemp>19.0</ns3:atemp>
          </ns3:TrackPointExtension>
        </extensions>
      </trkpt>
      <trkpt lat="42.61409084312617778778076171875" lon="19.88208420574665069580078125">
        <ele>1938.5999755859375</ele>
        <time>2026-06-16T09:35:01.000Z</time>
        <extensions>
          <ns3:TrackPointExtension>
            <ns3:atemp>19.0</ns3:atemp>
          </ns3:TrackPointExtension>
        </extensions>
      </trkpt>
      <trkpt lat="42.61408028192818164825439453125" lon="19.882081188261508941650390625">
        <ele>1938.5999755859375</ele>
        <time>2026-06-16T09:35:02.000Z</time>
        <extensions>
          <ns3:TrackPointExtension>
            <ns3:atemp>19.0</ns3:atemp>
          </ns3:TrackPointExtension>
        </extensions>
      </trkpt>
      <trkpt lat="42.614071480929851531982421875" lon="19.882086552679538726806640625">
        <ele>1938.4000244140625</ele>
        <time>2026-06-16T09:35:03.000Z</time>
        <extensions>
          <ns3:TrackPointExtension>
            <ns3:atemp>19.0</ns3:atemp>
          </ns3:TrackPointExtension>
        </extensions>
      </trkpt>
      <trkpt lat="42.6140682958066463470458984375" lon="19.88208445720374584197998046875">
        <ele>1938.4000244140625</ele>
        <time>2026-06-16T09:35:04.000Z</time>
        <extensions>
          <ns3:TrackPointExtension>
            <ns3:atemp>19.0</ns3:atemp>
          </ns3:TrackPointExtension>
        </extensions>
      </trkpt>
      <trkpt lat="42.61405999772250652313232421875" lon="19.8820830322802066802978515625">
        <ele>1938.4000244140625</ele>
        <time>2026-06-16T09:35:05.000Z</time>
        <extensions>
          <ns3:TrackPointExtension>
            <ns3:atemp>19.0</ns3:atemp>
          </ns3:TrackPointExtension>
        </extensions>
      </trkpt>
      <trkpt lat="42.61404943652451038360595703125" lon="19.8820914141833782196044921875">
        <ele>1938.4000244140625</ele>
        <time>2026-06-16T09:35:06.000Z</time>
        <extensions>
          <ns3:TrackPointExtension>
            <ns3:atemp>19.0</ns3:atemp>
          </ns3:TrackPointExtension>
        </extensions>
      </trkpt>
      <trkpt lat="42.61403686366975307464599609375" lon="19.88209971226751804351806640625">
        <ele>1938.199951171875</ele>
        <time>2026-06-16T09:35:07.000Z</time>
        <extensions>
          <ns3:TrackPointExtension>
            <ns3:atemp>19.0</ns3:atemp>
          </ns3:TrackPointExtension>
        </extensions>
      </trkpt>
      <trkpt lat="42.61402127332985401153564453125" lon="19.88210658542811870574951171875">
        <ele>1938.199951171875</ele>
        <time>2026-06-16T09:35:08.000Z</time>
        <extensions>
          <ns3:TrackPointExtension>
            <ns3:atemp>19.0</ns3:atemp>
          </ns3:TrackPointExtension>
        </extensions>
      </trkpt>
      <trkpt lat="42.6140049286186695098876953125" lon="19.88211236894130706787109375">
        <ele>1938</ele>
        <time>2026-06-16T09:35:09.000Z</time>
        <extensions>
          <ns3:TrackPointExtension>
            <ns3:atemp>19.0</ns3:atemp>
          </ns3:TrackPointExtension>
        </extensions>
      </trkpt>
      <trkpt lat="42.61398757807910442352294921875" lon="19.88211597315967082977294921875">
        <ele>1937.800048828125</ele>
        <time>2026-06-16T09:35:10.000Z</time>
        <extensions>
          <ns3:TrackPointExtension>
            <ns3:atemp>19.0</ns3:atemp>
          </ns3:TrackPointExtension>
        </extensions>
      </trkpt>
      <trkpt lat="42.61396461166441440582275390625" lon="19.882117398083209991455078125">
        <ele>1937.5999755859375</ele>
        <time>2026-06-16T09:35:11.000Z</time>
        <extensions>
          <ns3:TrackPointExtension>
            <ns3:atemp>19.0</ns3:atemp>
          </ns3:TrackPointExtension>
        </extensions>
      </trkpt>
      <trkpt lat="42.61394080705940723419189453125" lon="19.88211144693195819854736328125">
        <ele>1937.4000244140625</ele>
        <time>2026-06-16T09:35:12.000Z</time>
        <extensions>
          <ns3:TrackPointExtension>
            <ns3:atemp>19.0</ns3:atemp>
          </ns3:TrackPointExtension>
        </extensions>
      </trkpt>
      <trkpt lat="42.61392286978662014007568359375" lon="19.88209703005850315093994140625">
        <ele>1937.199951171875</ele>
        <time>2026-06-16T09:35:13.000Z</time>
        <extensions>
          <ns3:TrackPointExtension>
            <ns3:atemp>19.0</ns3:atemp>
          </ns3:TrackPointExtension>
        </extensions>
      </trkpt>
      <trkpt lat="42.61390493251383304595947265625" lon="19.88208261318504810333251953125">
        <ele>1936.800048828125</ele>
        <time>2026-06-16T09:35:14.000Z</time>
        <extensions>
          <ns3:TrackPointExtension>
            <ns3:atemp>19.0</ns3:atemp>
          </ns3:TrackPointExtension>
        </extensions>
      </trkpt>
      <trkpt lat="42.61388615705072879791259765625" lon="19.88207213580608367919921875">
        <ele>1936.5999755859375</ele>
        <time>2026-06-16T09:35:15.000Z</time>
        <extensions>
          <ns3:TrackPointExtension>
            <ns3:atemp>19.0</ns3:atemp>
          </ns3:TrackPointExtension>
        </extensions>
      </trkpt>
      <trkpt lat="42.61386461555957794189453125" lon="19.88206274807453155517578125">
        <ele>1936.4000244140625</ele>
        <time>2026-06-16T09:35:16.000Z</time>
        <extensions>
          <ns3:TrackPointExtension>
            <ns3:atemp>19.0</ns3:atemp>
          </ns3:TrackPointExtension>
        </extensions>
      </trkpt>
      <trkpt lat="42.613842487335205078125" lon="19.88205126486718654632568359375">
        <ele>1936.199951171875</ele>
        <time>2026-06-16T09:35:17.000Z</time>
        <extensions>
          <ns3:TrackPointExtension>
            <ns3:atemp>19.0</ns3:atemp>
          </ns3:TrackPointExtension>
        </extensions>
      </trkpt>
      <trkpt lat="42.6138201914727687835693359375" lon="19.88204305060207843780517578125">
        <ele>1936</ele>
        <time>2026-06-16T09:35:18.000Z</time>
        <extensions>
          <ns3:TrackPointExtension>
            <ns3:atemp>19.0</ns3:atemp>
          </ns3:TrackPointExtension>
        </extensions>
      </trkpt>
      <trkpt lat="42.61380133219063282012939453125" lon="19.88203835673630237579345703125">
        <ele>1935.5999755859375</ele>
        <time>2026-06-16T09:35:19.000Z</time>
        <extensions>
          <ns3:TrackPointExtension>
            <ns3:atemp>19.0</ns3:atemp>
          </ns3:TrackPointExtension>
        </extensions>
      </trkpt>
      <trkpt lat="42.61378121562302112579345703125" lon="19.882032908499240875244140625">
        <ele>1935.4000244140625</ele>
        <time>2026-06-16T09:35:20.000Z</time>
        <extensions>
          <ns3:TrackPointExtension>
            <ns3:atemp>19.0</ns3:atemp>
          </ns3:TrackPointExtension>
        </extensions>
      </trkpt>
      <trkpt lat="42.61376311071217060089111328125" lon="19.882032573223114013671875">
        <ele>1935</ele>
        <time>2026-06-16T09:35:21.000Z</time>
        <extensions>
          <ns3:TrackPointExtension>
            <ns3:atemp>19.0</ns3:atemp>
          </ns3:TrackPointExtension>
        </extensions>
      </trkpt>
      <trkpt lat="42.6137595064938068389892578125" lon="19.8820357583463191986083984375">
        <ele>1934.5999755859375</ele>
        <time>2026-06-16T09:35:22.000Z</time>
        <extensions>
          <ns3:TrackPointExtension>
            <ns3:atemp>19.0</ns3:atemp>
          </ns3:TrackPointExtension>
        </extensions>
      </trkpt>
      <trkpt lat="42.613748274743556976318359375" lon="19.88203835673630237579345703125">
        <ele>1934.199951171875</ele>
        <time>2026-06-16T09:35:23.000Z</time>
        <extensions>
          <ns3:TrackPointExtension>
            <ns3:atemp>19.0</ns3:atemp>
          </ns3:TrackPointExtension>
        </extensions>
      </trkpt>
      <trkpt lat="42.61372941546142101287841796875" lon="19.882035590708255767822265625">
        <ele>1933.800048828125</ele>
        <time>2026-06-16T09:35:24.000Z</time>
        <extensions>
          <ns3:TrackPointExtension>
            <ns3:atemp>19.0</ns3:atemp>
          </ns3:TrackPointExtension>
        </extensions>
      </trkpt>
      <trkpt lat="42.61370837688446044921875" lon="19.8820273764431476593017578125">
        <ele>1933.4000244140625</ele>
        <time>2026-06-16T09:35:25.000Z</time>
        <extensions>
          <ns3:TrackPointExtension>
            <ns3:atemp>19.0</ns3:atemp>
          </ns3:TrackPointExtension>
        </extensions>
      </trkpt>
      <trkpt lat="42.613687254488468170166015625" lon="19.88201505504548549652099609375">
        <ele>1933</ele>
        <time>2026-06-16T09:35:26.000Z</time>
        <extensions>
          <ns3:TrackPointExtension>
            <ns3:atemp>19.0</ns3:atemp>
          </ns3:TrackPointExtension>
        </extensions>
      </trkpt>
      <trkpt lat="42.61365984566509723663330078125" lon="19.88200734369456768035888671875">
        <ele>1932.4000244140625</ele>
        <time>2026-06-16T09:35:27.000Z</time>
        <extensions>
          <ns3:TrackPointExtension>
            <ns3:atemp>19.0</ns3:atemp>
          </ns3:TrackPointExtension>
        </extensions>
      </trkpt>
      <trkpt lat="42.61363402940332889556884765625" lon="19.8820018954575061798095703125">
        <ele>1931.800048828125</ele>
        <time>2026-06-16T09:35:28.000Z</time>
        <extensions>
          <ns3:TrackPointExtension>
            <ns3:atemp>19.0</ns3:atemp>
          </ns3:TrackPointExtension>
        </extensions>
      </trkpt>
      <trkpt lat="42.61360938660800457000732421875" lon="19.88199192099273204803466796875">
        <ele>1931.199951171875</ele>
        <time>2026-06-16T09:35:29.000Z</time>
        <extensions>
          <ns3:TrackPointExtension>
            <ns3:atemp>19.0</ns3:atemp>
          </ns3:TrackPointExtension>
        </extensions>
      </trkpt>
      <trkpt lat="42.6135784573853015899658203125" lon="19.88197817467153072357177734375">
        <ele>1930.4000244140625</ele>
        <time>2026-06-16T09:35:30.000Z</time>
        <extensions>
          <ns3:TrackPointExtension>
            <ns3:atemp>19.0</ns3:atemp>
          </ns3:TrackPointExtension>
        </extensions>
      </trkpt>
      <trkpt lat="42.6135499589145183563232421875" lon="19.8819589801132678985595703125">
        <ele>1929.4000244140625</ele>
        <time>2026-06-16T09:35:31.000Z</time>
        <extensions>
          <ns3:TrackPointExtension>
            <ns3:atemp>19.0</ns3:atemp>
          </ns3:TrackPointExtension>
        </extensions>
      </trkpt>
      <trkpt lat="42.61351517401635646820068359375" lon="19.88192369230091571807861328125">
        <ele>1928.5999755859375</ele>
        <time>2026-06-16T09:35:32.000Z</time>
        <extensions>
          <ns3:TrackPointExtension>
            <ns3:atemp>19.0</ns3:atemp>
          </ns3:TrackPointExtension>
        </extensions>
      </trkpt>
      <trkpt lat="42.6134855858981609344482421875" lon="19.88187759183347225189208984375">
        <ele>1927.5999755859375</ele>
        <time>2026-06-16T09:35:33.000Z</time>
        <extensions>
          <ns3:TrackPointExtension>
            <ns3:atemp>19.0</ns3:atemp>
          </ns3:TrackPointExtension>
        </extensions>
      </trkpt>
      <trkpt lat="42.61345264501869678497314453125" lon="19.8818325810134410858154296875">
        <ele>1926.4000244140625</ele>
        <time>2026-06-16T09:35:34.000Z</time>
        <extensions>
          <ns3:TrackPointExtension>
            <ns3:atemp>19.0</ns3:atemp>
          </ns3:TrackPointExtension>
        </extensions>
      </trkpt>
      <trkpt lat="42.61341593228280544281005859375" lon="19.88178874365985393524169921875">
        <ele>1925.199951171875</ele>
        <time>2026-06-16T09:35:35.000Z</time>
        <extensions>
          <ns3:TrackPointExtension>
            <ns3:atemp>19.0</ns3:atemp>
          </ns3:TrackPointExtension>
        </extensions>
      </trkpt>
      <trkpt lat="42.61337100528180599212646484375" lon="19.8817501030862331390380859375">
        <ele>1924.199951171875</ele>
        <time>2026-06-16T09:35:36.000Z</time>
        <extensions>
          <ns3:TrackPointExtension>
            <ns3:atemp>19.0</ns3:atemp>
          </ns3:TrackPointExtension>
        </extensions>
      </trkpt>
      <trkpt lat="42.6133186183869838714599609375" lon="19.881715066730976104736328125">
        <ele>1922.800048828125</ele>
        <time>2026-06-16T09:35:37.000Z</time>
        <extensions>
          <ns3:TrackPointExtension>
            <ns3:atemp>19.0</ns3:atemp>
          </ns3:TrackPointExtension>
        </extensions>
      </trkpt>
      <trkpt lat="42.61327243410050868988037109375" lon="19.88168899901211261749267578125">
        <ele>1921.800048828125</ele>
        <time>2026-06-16T09:35:38.000Z</time>
        <extensions>
          <ns3:TrackPointExtension>
            <ns3:atemp>19.0</ns3:atemp>
          </ns3:TrackPointExtension>
        </extensions>
      </trkpt>
      <trkpt lat="42.61323429644107818603515625" lon="19.88165228627622127532958984375">
        <ele>1921</ele>
        <time>2026-06-16T09:35:39.000Z</time>
        <extensions>
          <ns3:TrackPointExtension>
            <ns3:atemp>19.0</ns3:atemp>
          </ns3:TrackPointExtension>
        </extensions>
      </trkpt>
      <trkpt lat="42.61319364421069622039794921875" lon="19.8816394619643688201904296875">
        <ele>1920</ele>
        <time>2026-06-16T09:35:40.000Z</time>
        <extensions>
          <ns3:TrackPointExtension>
            <ns3:atemp>19.0</ns3:atemp>
          </ns3:TrackPointExtension>
        </extensions>
      </trkpt>
      <trkpt lat="42.6131570152938365936279296875" lon="19.88162018358707427978515625">
        <ele>1919.199951171875</ele>
        <time>2026-06-16T09:35:41.000Z</time>
        <extensions>
          <ns3:TrackPointExtension>
            <ns3:atemp>19.0</ns3:atemp>
          </ns3:TrackPointExtension>
        </extensions>
      </trkpt>
      <trkpt lat="42.61311770416796207427978515625" lon="19.8816047608852386474609375">
        <ele>1918.800048828125</ele>
        <time>2026-06-16T09:35:42.000Z</time>
        <extensions>
          <ns3:TrackPointExtension>
            <ns3:atemp>19.0</ns3:atemp>
          </ns3:TrackPointExtension>
        </extensions>
      </trkpt>
      <trkpt lat="42.61307193897664546966552734375" lon="19.88159067928791046142578125">
        <ele>1918.4000244140625</ele>
        <time>2026-06-16T09:35:43.000Z</time>
        <extensions>
          <ns3:TrackPointExtension>
            <ns3:atemp>19.0</ns3:atemp>
          </ns3:TrackPointExtension>
        </extensions>
      </trkpt>
      <trkpt lat="42.61302282102406024932861328125" lon="19.88158129155635833740234375">
        <ele>1918</ele>
        <time>2026-06-16T09:35:44.000Z</time>
        <extensions>
          <ns3:TrackPointExtension>
            <ns3:atemp>19.0</ns3:atemp>
          </ns3:TrackPointExtension>
        </extensions>
      </trkpt>
      <trkpt lat="42.61297621764242649078369140625" lon="19.8815690539777278900146484375">
        <ele>1917.5999755859375</ele>
        <time>2026-06-16T09:35:45.000Z</time>
        <extensions>
          <ns3:TrackPointExtension>
            <ns3:atemp>19.0</ns3:atemp>
          </ns3:TrackPointExtension>
        </extensions>
      </trkpt>
      <trkpt lat="42.61293330229818820953369140625" lon="19.88155371509492397308349609375">
        <ele>1917.4000244140625</ele>
        <time>2026-06-16T09:35:46.000Z</time>
        <extensions>
          <ns3:TrackPointExtension>
            <ns3:atemp>19.0</ns3:atemp>
          </ns3:TrackPointExtension>
        </extensions>
      </trkpt>
      <trkpt lat="42.61290195398032665252685546875" lon="19.88153292797505855560302734375">
        <ele>1917</ele>
        <time>2026-06-16T09:35:47.000Z</time>
        <extensions>
          <ns3:TrackPointExtension>
            <ns3:atemp>19.0</ns3:atemp>
          </ns3:TrackPointExtension>
        </extensions>
      </trkpt>
      <trkpt lat="42.61287395842373371124267578125" lon="19.8815120570361614227294921875">
        <ele>1916.800048828125</ele>
        <time>2026-06-16T09:35:48.000Z</time>
        <extensions>
          <ns3:TrackPointExtension>
            <ns3:atemp>19.0</ns3:atemp>
          </ns3:TrackPointExtension>
        </extensions>
      </trkpt>
      <trkpt lat="42.61284981854259967803955078125" lon="19.8815001547336578369140625">
        <ele>1916.800048828125</ele>
        <time>2026-06-16T09:35:49.000Z</time>
        <extensions>
          <ns3:TrackPointExtension>
            <ns3:atemp>19.0</ns3:atemp>
          </ns3:TrackPointExtension>
        </extensions>
      </trkpt>
      <trkpt lat="42.612824924290180206298828125" lon="19.881493784487247467041015625">
        <ele>1916.5999755859375</ele>
        <time>2026-06-16T09:35:50.000Z</time>
        <extensions>
          <ns3:TrackPointExtension>
            <ns3:atemp>19.0</ns3:atemp>
          </ns3:TrackPointExtension>
        </extensions>
      </trkpt>
      <trkpt lat="42.61280070059001445770263671875" lon="19.88148867152631282806396484375">
        <ele>1916.800048828125</ele>
        <time>2026-06-16T09:35:51.000Z</time>
        <extensions>
          <ns3:TrackPointExtension>
            <ns3:atemp>19.0</ns3:atemp>
          </ns3:TrackPointExtension>
        </extensions>
      </trkpt>
      <trkpt lat="42.61277656070888042449951171875" lon="19.88148163072764873504638671875">
        <ele>1916.800048828125</ele>
        <time>2026-06-16T09:35:52.000Z</time>
        <extensions>
          <ns3:TrackPointExtension>
            <ns3:atemp>19.0</ns3:atemp>
          </ns3:TrackPointExtension>
        </extensions>
      </trkpt>
      <trkpt lat="42.6127516664564609527587890625" lon="19.8814838938415050506591796875">
        <ele>1917</ele>
        <time>2026-06-16T09:35:53.000Z</time>
        <extensions>
          <ns3:TrackPointExtension>
            <ns3:atemp>19.0</ns3:atemp>
          </ns3:TrackPointExtension>
        </extensions>
      </trkpt>
      <trkpt lat="42.61272794567048549652099609375" lon="19.88148531876504421234130859375">
        <ele>1917</ele>
        <time>2026-06-16T09:35:54.000Z</time>
        <extensions>
          <ns3:TrackPointExtension>
            <ns3:atemp>19.0</ns3:atemp>
          </ns3:TrackPointExtension>
        </extensions>
      </trkpt>
      <trkpt lat="42.6127065718173980712890625" lon="19.8814899288117885589599609375">
        <ele>1917</ele>
        <time>2026-06-16T09:35:55.000Z</time>
        <extensions>
          <ns3:TrackPointExtension>
            <ns3:atemp>19.0</ns3:atemp>
          </ns3:TrackPointExtension>
        </extensions>
      </trkpt>
      <trkpt lat="42.6126909814774990081787109375" lon="19.88148749805986881256103515625">
        <ele>1917.199951171875</ele>
        <time>2026-06-16T09:35:56.000Z</time>
        <extensions>
          <ns3:TrackPointExtension>
            <ns3:atemp>19.0</ns3:atemp>
          </ns3:TrackPointExtension>
        </extensions>
      </trkpt>
      <trkpt lat="42.6126768998801708221435546875" lon="19.8814939521253108978271484375">
        <ele>1917.4000244140625</ele>
        <time>2026-06-16T09:35:57.000Z</time>
        <extensions>
          <ns3:TrackPointExtension>
            <ns3:atemp>19.0</ns3:atemp>
          </ns3:TrackPointExtension>
        </extensions>
      </trkpt>
      <trkpt lat="42.61266608722507953643798828125" lon="19.88149814307689666748046875">
        <ele>1917.5999755859375</ele>
        <time>2026-06-16T09:35:58.000Z</time>
        <extensions>
          <ns3:TrackPointExtension>
            <ns3:atemp>19.0</ns3:atemp>
          </ns3:TrackPointExtension>
        </extensions>
      </trkpt>
      <trkpt lat="42.6126574538648128509521484375" lon="19.881492443382740020751953125">
        <ele>1917.800048828125</ele>
        <time>2026-06-16T09:35:59.000Z</time>
        <extensions>
          <ns3:TrackPointExtension>
            <ns3:atemp>19.0</ns3:atemp>
          </ns3:TrackPointExtension>
        </extensions>
      </trkpt>
      <trkpt lat="42.612650580704212188720703125" lon="19.88148800097405910491943359375">
        <ele>1918</ele>
        <time>2026-06-16T09:36:00.000Z</time>
        <extensions>
          <ns3:TrackPointExtension>
            <ns3:atemp>19.0</ns3:atemp>
          </ns3:TrackPointExtension>
        </extensions>
      </trkpt>
      <trkpt lat="42.6126400195062160491943359375" lon="19.8814894258975982666015625">
        <ele>1918.4000244140625</ele>
        <time>2026-06-16T09:36:01.000Z</time>
        <extensions>
          <ns3:TrackPointExtension>
            <ns3:atemp>19.0</ns3:atemp>
          </ns3:TrackPointExtension>
        </extensions>
      </trkpt>
      <trkpt lat="42.612627781927585601806640625" lon="19.88149143755435943603515625">
        <ele>1918.5999755859375</ele>
        <time>2026-06-16T09:36:02.000Z</time>
        <extensions>
          <ns3:TrackPointExtension>
            <ns3:atemp>19.0</ns3:atemp>
          </ns3:TrackPointExtension>
        </extensions>
      </trkpt>
      <trkpt lat="42.6126101799309253692626953125" lon="19.88150007091462612152099609375">
        <ele>1918.800048828125</ele>
        <time>2026-06-16T09:36:03.000Z</time>
        <extensions>
          <ns3:TrackPointExtension>
            <ns3:atemp>19.0</ns3:atemp>
          </ns3:TrackPointExtension>
        </extensions>
      </trkpt>
      <trkpt lat="42.612592242658138275146484375" lon="19.88151348195970058441162109375">
        <ele>1918.800048828125</ele>
        <time>2026-06-16T09:36:04.000Z</time>
        <extensions>
          <ns3:TrackPointExtension>
            <ns3:atemp>19.0</ns3:atemp>
          </ns3:TrackPointExtension>
        </extensions>
      </trkpt>
      <trkpt lat="42.6125746406614780426025390625" lon="19.88152404315769672393798828125">
        <ele>1919</ele>
        <time>2026-06-16T09:36:05.000Z</time>
        <extensions>
          <ns3:TrackPointExtension>
            <ns3:atemp>19.0</ns3:atemp>
          </ns3:TrackPointExtension>
        </extensions>
      </trkpt>
      <trkpt lat="42.6125605590641498565673828125" lon="19.88152437843382358551025390625">
        <ele>1919.199951171875</ele>
        <time>2026-06-16T09:36:06.000Z</time>
        <extensions>
          <ns3:TrackPointExtension>
            <ns3:atemp>19.0</ns3:atemp>
          </ns3:TrackPointExtension>
        </extensions>
      </trkpt>
      <trkpt lat="42.6125448010861873626708984375" lon="19.8815214447677135467529296875">
        <ele>1919.4000244140625</ele>
        <time>2026-06-16T09:36:07.000Z</time>
        <extensions>
          <ns3:TrackPointExtension>
            <ns3:atemp>19.0</ns3:atemp>
          </ns3:TrackPointExtension>
        </extensions>
      </trkpt>
      <trkpt lat="42.6125263608992099761962890625" lon="19.88152236677706241607666015625">
        <ele>1919.4000244140625</ele>
        <time>2026-06-16T09:36:08.000Z</time>
        <extensions>
          <ns3:TrackPointExtension>
            <ns3:atemp>19.0</ns3:atemp>
          </ns3:TrackPointExtension>
        </extensions>
      </trkpt>
      <trkpt lat="42.61250398121774196624755859375" lon="19.88152555190026760101318359375">
        <ele>1919.4000244140625</ele>
        <time>2026-06-16T09:36:09.000Z</time>
        <extensions>
          <ns3:TrackPointExtension>
            <ns3:atemp>19.0</ns3:atemp>
          </ns3:TrackPointExtension>
        </extensions>
      </trkpt>
      <trkpt lat="42.612481601536273956298828125" lon="19.8815310001373291015625">
        <ele>1919.5999755859375</ele>
        <time>2026-06-16T09:36:10.000Z</time>
        <extensions>
          <ns3:TrackPointExtension>
            <ns3:atemp>19.0</ns3:atemp>
          </ns3:TrackPointExtension>
        </extensions>
      </trkpt>
      <trkpt lat="42.61245955713093280792236328125" lon="19.88153913058340549468994140625">
        <ele>1919.800048828125</ele>
        <time>2026-06-16T09:36:11.000Z</time>
        <extensions>
          <ns3:TrackPointExtension>
            <ns3:atemp>19.0</ns3:atemp>
          </ns3:TrackPointExtension>
        </extensions>
      </trkpt>
      <trkpt lat="42.6124388538300991058349609375" lon="19.88153703510761260986328125">
        <ele>1919.800048828125</ele>
        <time>2026-06-16T09:36:12.000Z</time>
        <extensions>
          <ns3:TrackPointExtension>
            <ns3:atemp>19.0</ns3:atemp>
          </ns3:TrackPointExtension>
        </extensions>
      </trkpt>
      <trkpt lat="42.61241697706282138824462890625" lon="19.88154298625886440277099609375">
        <ele>1920</ele>
        <time>2026-06-16T09:36:13.000Z</time>
        <extensions>
          <ns3:TrackPointExtension>
            <ns3:atemp>19.0</ns3:atemp>
          </ns3:TrackPointExtension>
        </extensions>
      </trkpt>
      <trkpt lat="42.6123954355716705322265625" lon="19.88154684193432331085205078125">
        <ele>1920.199951171875</ele>
        <time>2026-06-16T09:36:14.000Z</time>
        <extensions>
          <ns3:TrackPointExtension>
            <ns3:atemp>19.0</ns3:atemp>
          </ns3:TrackPointExtension>
        </extensions>
      </trkpt>
      <trkpt lat="42.612375654280185699462890625" lon="19.881547428667545318603515625">
        <ele>1920.199951171875</ele>
        <time>2026-06-16T09:36:15.000Z</time>
        <extensions>
          <ns3:TrackPointExtension>
            <ns3:atemp>19.0</ns3:atemp>
          </ns3:TrackPointExtension>
        </extensions>
      </trkpt>
      <trkpt lat="42.61235746555030345916748046875" lon="19.88154483027756214141845703125">
        <ele>1920.4000244140625</ele>
        <time>2026-06-16T09:36:16.000Z</time>
        <extensions>
          <ns3:TrackPointExtension>
            <ns3:atemp>19.0</ns3:atemp>
          </ns3:TrackPointExtension>
        </extensions>
      </trkpt>
      <trkpt lat="42.61233902536332607269287109375" lon="19.88154734484851360321044921875">
        <ele>1920.5999755859375</ele>
        <time>2026-06-16T09:36:17.000Z</time>
        <extensions>
          <ns3:TrackPointExtension>
            <ns3:atemp>19.0</ns3:atemp>
          </ns3:TrackPointExtension>
        </extensions>
      </trkpt>
      <trkpt lat="42.6123231835663318634033203125" lon="19.8815489374101161956787109375">
        <ele>1920.800048828125</ele>
        <time>2026-06-16T09:36:18.000Z</time>
        <extensions>
          <ns3:TrackPointExtension>
            <ns3:atemp>19.0</ns3:atemp>
          </ns3:TrackPointExtension>
        </extensions>
      </trkpt>
      <trkpt lat="42.6123087666928768157958984375" lon="19.88155069760978221893310546875">
        <ele>1921</ele>
        <time>2026-06-16T09:36:19.000Z</time>
        <extensions>
          <ns3:TrackPointExtension>
            <ns3:atemp>19.0</ns3:atemp>
          </ns3:TrackPointExtension>
        </extensions>
      </trkpt>
      <trkpt lat="42.61229191906750202178955078125" lon="19.88155203871428966522216796875">
        <ele>1921</ele>
        <time>2026-06-16T09:36:20.000Z</time>
        <extensions>
          <ns3:TrackPointExtension>
            <ns3:atemp>19.0</ns3:atemp>
          </ns3:TrackPointExtension>
        </extensions>
      </trkpt>
      <trkpt lat="42.6122765801846981048583984375" lon="19.88155757077038288116455078125">
        <ele>1921.199951171875</ele>
        <time>2026-06-16T09:36:21.000Z</time>
        <extensions>
          <ns3:TrackPointExtension>
            <ns3:atemp>19.0</ns3:atemp>
          </ns3:TrackPointExtension>
        </extensions>
      </trkpt>
      <trkpt lat="42.61226409114897251129150390625" lon="19.8815576545894145965576171875">
        <ele>1921.4000244140625</ele>
        <time>2026-06-16T09:36:22.000Z</time>
        <extensions>
          <ns3:TrackPointExtension>
            <ns3:atemp>19.0</ns3:atemp>
          </ns3:TrackPointExtension>
        </extensions>
      </trkpt>
      <trkpt lat="42.61225302703678607940673828125" lon="19.88155723549425601959228515625">
        <ele>1921.5999755859375</ele>
        <time>2026-06-16T09:36:23.000Z</time>
        <extensions>
          <ns3:TrackPointExtension>
            <ns3:atemp>19.0</ns3:atemp>
          </ns3:TrackPointExtension>
        </extensions>
      </trkpt>
      <trkpt lat="42.61224146001040935516357421875" lon="19.8815583251416683197021484375">
        <ele>1921.800048828125</ele>
        <time>2026-06-16T09:36:24.000Z</time>
        <extensions>
          <ns3:TrackPointExtension>
            <ns3:atemp>19.0</ns3:atemp>
          </ns3:TrackPointExtension>
        </extensions>
      </trkpt>
      <trkpt lat="42.61222553439438343048095703125" lon="19.881560839712619781494140625">
        <ele>1922</ele>
        <time>2026-06-16T09:36:25.000Z</time>
        <extensions>
          <ns3:TrackPointExtension>
            <ns3:atemp>19.0</ns3:atemp>
          </ns3:TrackPointExtension>
        </extensions>
      </trkpt>
      <trkpt lat="42.6122128777205944061279296875" lon="19.88155690021812915802001953125">
        <ele>1922.199951171875</ele>
        <time>2026-06-16T09:36:26.000Z</time>
        <extensions>
          <ns3:TrackPointExtension>
            <ns3:atemp>19.0</ns3:atemp>
          </ns3:TrackPointExtension>
        </extensions>
      </trkpt>
      <trkpt lat="42.61219854466617107391357421875" lon="19.88155455328524112701416015625">
        <ele>1922.4000244140625</ele>
        <time>2026-06-16T09:36:27.000Z</time>
        <extensions>
          <ns3:TrackPointExtension>
            <ns3:atemp>19.0</ns3:atemp>
          </ns3:TrackPointExtension>
        </extensions>
      </trkpt>
      <trkpt lat="42.61218194849789142608642578125" lon="19.881554134190082550048828125">
        <ele>1922.5999755859375</ele>
        <time>2026-06-16T09:36:28.000Z</time>
        <extensions>
          <ns3:TrackPointExtension>
            <ns3:atemp>19.0</ns3:atemp>
          </ns3:TrackPointExtension>
        </extensions>
      </trkpt>
      <trkpt lat="42.612160407006740570068359375" lon="19.88155438564717769622802734375">
        <ele>1922.800048828125</ele>
        <time>2026-06-16T09:36:29.000Z</time>
        <extensions>
          <ns3:TrackPointExtension>
            <ns3:atemp>19.0</ns3:atemp>
          </ns3:TrackPointExtension>
        </extensions>
      </trkpt>
      <trkpt lat="42.6121407933533191680908203125" lon="19.881552122533321380615234375">
        <ele>1923</ele>
        <time>2026-06-16T09:36:30.000Z</time>
        <extensions>
          <ns3:TrackPointExtension>
            <ns3:atemp>19.0</ns3:atemp>
          </ns3:TrackPointExtension>
        </extensions>
      </trkpt>
      <trkpt lat="42.6121186651289463043212890625" lon="19.88155120052397251129150390625">
        <ele>1923.4000244140625</ele>
        <time>2026-06-16T09:36:31.000Z</time>
        <extensions>
          <ns3:TrackPointExtension>
            <ns3:atemp>19.0</ns3:atemp>
          </ns3:TrackPointExtension>
        </extensions>
      </trkpt>
      <trkpt lat="42.6120988838374614715576171875" lon="19.88154667429625988006591796875">
        <ele>1923.800048828125</ele>
        <time>2026-06-16T09:36:32.000Z</time>
        <extensions>
          <ns3:TrackPointExtension>
            <ns3:atemp>19.0</ns3:atemp>
          </ns3:TrackPointExtension>
        </extensions>
      </trkpt>
      <trkpt lat="42.61208019219338893890380859375" lon="19.881544411182403564453125">
        <ele>1924.4000244140625</ele>
        <time>2026-06-16T09:36:33.000Z</time>
        <extensions>
          <ns3:TrackPointExtension>
            <ns3:atemp>19.0</ns3:atemp>
          </ns3:TrackPointExtension>
        </extensions>
      </trkpt>
      <trkpt lat="42.6120609976351261138916015625" lon="19.88154231570661067962646484375">
        <ele>1924.800048828125</ele>
        <time>2026-06-16T09:36:34.000Z</time>
        <extensions>
          <ns3:TrackPointExtension>
            <ns3:atemp>19.0</ns3:atemp>
          </ns3:TrackPointExtension>
        </extensions>
      </trkpt>
      <trkpt lat="42.61204347945749759674072265625" lon="19.88153678365051746368408203125">
        <ele>1925.4000244140625</ele>
        <time>2026-06-16T09:36:35.000Z</time>
        <extensions>
          <ns3:TrackPointExtension>
            <ns3:atemp>19.0</ns3:atemp>
          </ns3:TrackPointExtension>
        </extensions>
      </trkpt>
      <trkpt lat="42.6120252907276153564453125" lon="19.8815294913947582244873046875">
        <ele>1925.800048828125</ele>
        <time>2026-06-16T09:36:36.000Z</time>
        <extensions>
          <ns3:TrackPointExtension>
            <ns3:atemp>19.0</ns3:atemp>
          </ns3:TrackPointExtension>
        </extensions>
      </trkpt>
      <trkpt lat="42.6120063476264476776123046875" lon="19.88152069039642810821533203125">
        <ele>1926.4000244140625</ele>
        <time>2026-06-16T09:36:37.000Z</time>
        <extensions>
          <ns3:TrackPointExtension>
            <ns3:atemp>19.0</ns3:atemp>
          </ns3:TrackPointExtension>
        </extensions>
      </trkpt>
      <trkpt lat="42.61199201457202434539794921875" lon="19.88151180557906627655029296875">
        <ele>1926.800048828125</ele>
        <time>2026-06-16T09:36:38.000Z</time>
        <extensions>
          <ns3:TrackPointExtension>
            <ns3:atemp>19.0</ns3:atemp>
          </ns3:TrackPointExtension>
        </extensions>
      </trkpt>
      <trkpt lat="42.6119823753833770751953125" lon="19.88150644116103649139404296875">
        <ele>1927.4000244140625</ele>
        <time>2026-06-16T09:36:39.000Z</time>
        <extensions>
          <ns3:TrackPointExtension>
            <ns3:atemp>19.0</ns3:atemp>
          </ns3:TrackPointExtension>
        </extensions>
      </trkpt>
      <trkpt lat="42.6119704730808734893798828125" lon="19.8815009929239749908447265625">
        <ele>1927.800048828125</ele>
        <time>2026-06-16T09:36:40.000Z</time>
        <extensions>
          <ns3:TrackPointExtension>
            <ns3:atemp>19.0</ns3:atemp>
          </ns3:TrackPointExtension>
        </extensions>
      </trkpt>
      <trkpt lat="42.6119553856551647186279296875" lon="19.88149504177272319793701171875">
        <ele>1928.199951171875</ele>
        <time>2026-06-16T09:36:41.000Z</time>
        <extensions>
          <ns3:TrackPointExtension>
            <ns3:atemp>19.0</ns3:atemp>
          </ns3:TrackPointExtension>
        </extensions>
      </trkpt>
      <trkpt lat="42.6119402982294559478759765625" lon="19.88149068318307399749755859375">
        <ele>1928.800048828125</ele>
        <time>2026-06-16T09:36:42.000Z</time>
        <extensions>
          <ns3:TrackPointExtension>
            <ns3:atemp>19.0</ns3:atemp>
          </ns3:TrackPointExtension>
        </extensions>
      </trkpt>
      <trkpt lat="42.61192269623279571533203125" lon="19.88148607313632965087890625">
        <ele>1929.199951171875</ele>
        <time>2026-06-16T09:36:43.000Z</time>
        <extensions>
          <ns3:TrackPointExtension>
            <ns3:atemp>19.0</ns3:atemp>
          </ns3:TrackPointExtension>
        </extensions>
      </trkpt>
      <trkpt lat="42.6119087822735309600830078125" lon="19.88148431293666362762451171875">
        <ele>1929.5999755859375</ele>
        <time>2026-06-16T09:36:44.000Z</time>
        <extensions>
          <ns3:TrackPointExtension>
            <ns3:atemp>19.0</ns3:atemp>
          </ns3:TrackPointExtension>
        </extensions>
      </trkpt>
      <trkpt lat="42.61189377866685390472412109375" lon="19.881487749516963958740234375">
        <ele>1930</ele>
        <time>2026-06-16T09:36:45.000Z</time>
        <extensions>
          <ns3:TrackPointExtension>
            <ns3:atemp>19.0</ns3:atemp>
          </ns3:TrackPointExtension>
        </extensions>
      </trkpt>
      <trkpt lat="42.61187550611793994903564453125" lon="19.88149738870561122894287109375">
        <ele>1930.4000244140625</ele>
        <time>2026-06-16T09:36:46.000Z</time>
        <extensions>
          <ns3:TrackPointExtension>
            <ns3:atemp>19.0</ns3:atemp>
          </ns3:TrackPointExtension>
        </extensions>
      </trkpt>
      <trkpt lat="42.6118615083396434783935546875" lon="19.8814922757446765899658203125">
        <ele>1930.800048828125</ele>
        <time>2026-06-16T09:36:47.000Z</time>
        <extensions>
          <ns3:TrackPointExtension>
            <ns3:atemp>19.0</ns3:atemp>
          </ns3:TrackPointExtension>
        </extensions>
      </trkpt>
      <trkpt lat="42.611854970455169677734375" lon="19.8814786970615386962890625">
        <ele>1931</ele>
        <time>2026-06-16T09:36:48.000Z</time>
        <extensions>
          <ns3:TrackPointExtension>
            <ns3:atemp>19.0</ns3:atemp>
          </ns3:TrackPointExtension>
        </extensions>
      </trkpt>
      <trkpt lat="42.61184616945683956146240234375" lon="19.88146386109292507171630859375">
        <ele>1931.4000244140625</ele>
        <time>2026-06-16T09:36:49.000Z</time>
        <extensions>
          <ns3:TrackPointExtension>
            <ns3:atemp>19.0</ns3:atemp>
          </ns3:TrackPointExtension>
        </extensions>
      </trkpt>
      <trkpt lat="42.61183946393430233001708984375" lon="19.881445504724979400634765625">
        <ele>1931.800048828125</ele>
        <time>2026-06-16T09:36:50.000Z</time>
        <extensions>
          <ns3:TrackPointExtension>
            <ns3:atemp>19.0</ns3:atemp>
          </ns3:TrackPointExtension>
        </extensions>
      </trkpt>
      <trkpt lat="42.61183309368789196014404296875" lon="19.8814315907657146453857421875">
        <ele>1932</ele>
        <time>2026-06-16T09:36:51.000Z</time>
        <extensions>
          <ns3:TrackPointExtension>
            <ns3:atemp>19.0</ns3:atemp>
          </ns3:TrackPointExtension>
        </extensions>
      </trkpt>
      <trkpt lat="42.61181783862411975860595703125" lon="19.88141457550227642059326171875">
        <ele>1932.4000244140625</ele>
        <time>2026-06-16T09:36:52.000Z</time>
        <extensions>
          <ns3:TrackPointExtension>
            <ns3:atemp>19.0</ns3:atemp>
          </ns3:TrackPointExtension>
        </extensions>
      </trkpt>
      <trkpt lat="42.61180258356034755706787109375" lon="19.8814014159142971038818359375">
        <ele>1932.5999755859375</ele>
        <time>2026-06-16T09:36:53.000Z</time>
        <extensions>
          <ns3:TrackPointExtension>
            <ns3:atemp>19.0</ns3:atemp>
          </ns3:TrackPointExtension>
        </extensions>
      </trkpt>
      <trkpt lat="42.61178196407854557037353515625" lon="19.88139144144952297210693359375">
        <ele>1932.800048828125</ele>
        <time>2026-06-16T09:36:54.000Z</time>
        <extensions>
          <ns3:TrackPointExtension>
            <ns3:atemp>19.0</ns3:atemp>
          </ns3:TrackPointExtension>
        </extensions>
      </trkpt>
      <trkpt lat="42.611765451729297637939453125" lon="19.88138205371797084808349609375">
        <ele>1933.199951171875</ele>
        <time>2026-06-16T09:36:55.000Z</time>
        <extensions>
          <ns3:TrackPointExtension>
            <ns3:atemp>19.0</ns3:atemp>
          </ns3:TrackPointExtension>
        </extensions>
      </trkpt>
      <trkpt lat="42.611747346818447113037109375" lon="19.88137098960578441619873046875">
        <ele>1933.5999755859375</ele>
        <time>2026-06-16T09:36:56.000Z</time>
        <extensions>
          <ns3:TrackPointExtension>
            <ns3:atemp>19.0</ns3:atemp>
          </ns3:TrackPointExtension>
        </extensions>
      </trkpt>
      <trkpt lat="42.61172848753631114959716796875" lon="19.88136562518775463104248046875">
        <ele>1933.800048828125</ele>
        <time>2026-06-16T09:36:57.000Z</time>
        <extensions>
          <ns3:TrackPointExtension>
            <ns3:atemp>19.0</ns3:atemp>
          </ns3:TrackPointExtension>
        </extensions>
      </trkpt>
      <trkpt lat="42.61171105317771434783935546875" lon="19.8813608475029468536376953125">
        <ele>1934</ele>
        <time>2026-06-16T09:36:58.000Z</time>
        <extensions>
          <ns3:TrackPointExtension>
            <ns3:atemp>19.0</ns3:atemp>
          </ns3:TrackPointExtension>
        </extensions>
      </trkpt>
      <trkpt lat="42.61169646866619586944580078125" lon="19.881361685693264007568359375">
        <ele>1934.199951171875</ele>
        <time>2026-06-16T09:36:59.000Z</time>
        <extensions>
          <ns3:TrackPointExtension>
            <ns3:atemp>19.0</ns3:atemp>
          </ns3:TrackPointExtension>
        </extensions>
      </trkpt>
      <trkpt lat="42.6116794534027576446533203125" lon="19.8813579976558685302734375">
        <ele>1934.5999755859375</ele>
        <time>2026-06-16T09:37:00.000Z</time>
        <extensions>
          <ns3:TrackPointExtension>
            <ns3:atemp>19.0</ns3:atemp>
          </ns3:TrackPointExtension>
        </extensions>
      </trkpt>
      <trkpt lat="42.6116643659770488739013671875" lon="19.8813467659056186676025390625">
        <ele>1934.800048828125</ele>
        <time>2026-06-16T09:37:01.000Z</time>
        <extensions>
          <ns3:TrackPointExtension>
            <ns3:atemp>19.0</ns3:atemp>
          </ns3:TrackPointExtension>
        </extensions>
      </trkpt>
      <trkpt lat="42.6116509549319744110107421875" lon="19.8813383840024471282958984375">
        <ele>1935</ele>
        <time>2026-06-16T09:37:02.000Z</time>
        <extensions>
          <ns3:TrackPointExtension>
            <ns3:atemp>19.0</ns3:atemp>
          </ns3:TrackPointExtension>
        </extensions>
      </trkpt>
      <trkpt lat="42.61163343675434589385986328125" lon="19.88132639788091182708740234375">
        <ele>1935.199951171875</ele>
        <time>2026-06-16T09:37:03.000Z</time>
        <extensions>
          <ns3:TrackPointExtension>
            <ns3:atemp>19.0</ns3:atemp>
          </ns3:TrackPointExtension>
        </extensions>
      </trkpt>
      <trkpt lat="42.6116175949573516845703125" lon="19.88131617195904254913330078125">
        <ele>1935.199951171875</ele>
        <time>2026-06-16T09:37:04.000Z</time>
        <extensions>
          <ns3:TrackPointExtension>
            <ns3:atemp>19.0</ns3:atemp>
          </ns3:TrackPointExtension>
        </extensions>
      </trkpt>
      <trkpt lat="42.61160544119775295257568359375" lon="19.881306029856204986572265625">
        <ele>1935.4000244140625</ele>
        <time>2026-06-16T09:37:05.000Z</time>
        <extensions>
          <ns3:TrackPointExtension>
            <ns3:atemp>19.0</ns3:atemp>
          </ns3:TrackPointExtension>
        </extensions>
      </trkpt>
      <trkpt lat="42.6115906052291393280029296875" lon="19.88129454664885997772216796875">
        <ele>1935.4000244140625</ele>
        <time>2026-06-16T09:37:06.000Z</time>
        <extensions>
          <ns3:TrackPointExtension>
            <ns3:atemp>19.0</ns3:atemp>
          </ns3:TrackPointExtension>
        </extensions>
      </trkpt>
      <trkpt lat="42.611576020717620849609375" lon="19.8812864162027835845947265625">
        <ele>1935.5999755859375</ele>
        <time>2026-06-16T09:37:07.000Z</time>
        <extensions>
          <ns3:TrackPointExtension>
            <ns3:atemp>19.0</ns3:atemp>
          </ns3:TrackPointExtension>
        </extensions>
      </trkpt>
      <trkpt lat="42.6115585863590240478515625" lon="19.88128063268959522247314453125">
        <ele>1935.800048828125</ele>
        <time>2026-06-16T09:37:08.000Z</time>
        <extensions>
          <ns3:TrackPointExtension>
            <ns3:atemp>19.0</ns3:atemp>
          </ns3:TrackPointExtension>
        </extensions>
      </trkpt>
      <trkpt lat="42.61154525913298130035400390625" lon="19.88127359189093112945556640625">
        <ele>1936</ele>
        <time>2026-06-16T09:37:09.000Z</time>
        <extensions>
          <ns3:TrackPointExtension>
            <ns3:atemp>19.0</ns3:atemp>
          </ns3:TrackPointExtension>
        </extensions>
      </trkpt>
      <trkpt lat="42.61153084225952625274658203125" lon="19.88127040676772594451904296875">
        <ele>1936.199951171875</ele>
        <time>2026-06-16T09:37:10.000Z</time>
        <extensions>
          <ns3:TrackPointExtension>
            <ns3:atemp>19.0</ns3:atemp>
          </ns3:TrackPointExtension>
        </extensions>
      </trkpt>
      <trkpt lat="42.61151097714900970458984375" lon="19.881267137825489044189453125">
        <ele>1936.4000244140625</ele>
        <time>2026-06-16T09:37:11.000Z</time>
        <extensions>
          <ns3:TrackPointExtension>
            <ns3:atemp>19.0</ns3:atemp>
          </ns3:TrackPointExtension>
        </extensions>
      </trkpt>
      <trkpt lat="42.61148817837238311767578125" lon="19.8812641203403472900390625">
        <ele>1936.800048828125</ele>
        <time>2026-06-16T09:37:12.000Z</time>
        <extensions>
          <ns3:TrackPointExtension>
            <ns3:atemp>19.0</ns3:atemp>
          </ns3:TrackPointExtension>
        </extensions>
      </trkpt>
      <trkpt lat="42.61146864853799343109130859375" lon="19.88126034848392009735107421875">
        <ele>1937</ele>
        <time>2026-06-16T09:37:13.000Z</time>
        <extensions>
          <ns3:TrackPointExtension>
            <ns3:atemp>19.0</ns3:atemp>
          </ns3:TrackPointExtension>
        </extensions>
      </trkpt>
      <trkpt lat="42.61145154945552349090576171875" lon="19.88125942647457122802734375">
        <ele>1937.4000244140625</ele>
        <time>2026-06-16T09:37:14.000Z</time>
        <extensions>
          <ns3:TrackPointExtension>
            <ns3:atemp>19.0</ns3:atemp>
          </ns3:TrackPointExtension>
        </extensions>
      </trkpt>
      <trkpt lat="42.611434869468212127685546875" lon="19.88125883974134922027587890625">
        <ele>1937.800048828125</ele>
        <time>2026-06-16T09:37:15.000Z</time>
        <extensions>
          <ns3:TrackPointExtension>
            <ns3:atemp>19.0</ns3:atemp>
          </ns3:TrackPointExtension>
        </extensions>
      </trkpt>
      <trkpt lat="42.61141751892864704132080078125" lon="19.8812605999410152435302734375">
        <ele>1938.199951171875</ele>
        <time>2026-06-16T09:37:16.000Z</time>
        <extensions>
          <ns3:TrackPointExtension>
            <ns3:atemp>19.0</ns3:atemp>
          </ns3:TrackPointExtension>
        </extensions>
      </trkpt>
      <trkpt lat="42.6113984920084476470947265625" lon="19.88126453943550586700439453125">
        <ele>1938.5999755859375</ele>
        <time>2026-06-16T09:37:17.000Z</time>
        <extensions>
          <ns3:TrackPointExtension>
            <ns3:atemp>19.0</ns3:atemp>
          </ns3:TrackPointExtension>
        </extensions>
      </trkpt>
      <trkpt lat="42.61138248257339000701904296875" lon="19.881265796720981597900390625">
        <ele>1939</ele>
        <time>2026-06-16T09:37:18.000Z</time>
        <extensions>
          <ns3:TrackPointExtension>
            <ns3:atemp>19.0</ns3:atemp>
          </ns3:TrackPointExtension>
        </extensions>
      </trkpt>
      <trkpt lat="42.61136454530060291290283203125" lon="19.881269149482250213623046875">
        <ele>1939.4000244140625</ele>
        <time>2026-06-16T09:37:19.000Z</time>
        <extensions>
          <ns3:TrackPointExtension>
            <ns3:atemp>19.0</ns3:atemp>
          </ns3:TrackPointExtension>
        </extensions>
      </trkpt>
      <trkpt lat="42.61134996078908443450927734375" lon="19.881275855004787445068359375">
        <ele>1939.800048828125</ele>
        <time>2026-06-16T09:37:20.000Z</time>
        <extensions>
          <ns3:TrackPointExtension>
            <ns3:atemp>19.0</ns3:atemp>
          </ns3:TrackPointExtension>
        </extensions>
      </trkpt>
      <trkpt lat="42.61133621446788311004638671875" lon="19.88127912394702434539794921875">
        <ele>1940</ele>
        <time>2026-06-16T09:37:21.000Z</time>
        <extensions>
          <ns3:TrackPointExtension>
            <ns3:atemp>19.0</ns3:atemp>
          </ns3:TrackPointExtension>
        </extensions>
      </trkpt>
      <trkpt lat="42.611323893070220947265625" lon="19.88128934986889362335205078125">
        <ele>1940.4000244140625</ele>
        <time>2026-06-16T09:37:22.000Z</time>
        <extensions>
          <ns3:TrackPointExtension>
            <ns3:atemp>19.0</ns3:atemp>
          </ns3:TrackPointExtension>
        </extensions>
      </trkpt>
      <trkpt lat="42.61131056584417819976806640625" lon="19.88130100071430206298828125">
        <ele>1940.5999755859375</ele>
        <time>2026-06-16T09:37:23.000Z</time>
        <extensions>
          <ns3:TrackPointExtension>
            <ns3:atemp>19.0</ns3:atemp>
          </ns3:TrackPointExtension>
        </extensions>
      </trkpt>
      <trkpt lat="42.61129774153232574462890625" lon="19.88130846060812473297119140625">
        <ele>1941</ele>
        <time>2026-06-16T09:37:24.000Z</time>
        <extensions>
          <ns3:TrackPointExtension>
            <ns3:atemp>19.0</ns3:atemp>
          </ns3:TrackPointExtension>
        </extensions>
      </trkpt>
      <trkpt lat="42.6112814806401729583740234375" lon="19.8813129030168056488037109375">
        <ele>1941.199951171875</ele>
        <time>2026-06-16T09:37:25.000Z</time>
        <extensions>
          <ns3:TrackPointExtension>
            <ns3:atemp>19.0</ns3:atemp>
          </ns3:TrackPointExtension>
        </extensions>
      </trkpt>
      <trkpt lat="42.61126748286187648773193359375" lon="19.88132472150027751922607421875">
        <ele>1941.4000244140625</ele>
        <time>2026-06-16T09:37:26.000Z</time>
        <extensions>
          <ns3:TrackPointExtension>
            <ns3:atemp>19.0</ns3:atemp>
          </ns3:TrackPointExtension>
        </extensions>
      </trkpt>
      <trkpt lat="42.61125239543616771697998046875" lon="19.88133695907890796661376953125">
        <ele>1941.800048828125</ele>
        <time>2026-06-16T09:37:27.000Z</time>
        <extensions>
          <ns3:TrackPointExtension>
            <ns3:atemp>19.0</ns3:atemp>
          </ns3:TrackPointExtension>
        </extensions>
      </trkpt>
      <trkpt lat="42.61123680509626865386962890625" lon="19.88134718500077724456787109375">
        <ele>1941.800048828125</ele>
        <time>2026-06-16T09:37:28.000Z</time>
        <extensions>
          <ns3:TrackPointExtension>
            <ns3:atemp>19.0</ns3:atemp>
          </ns3:TrackPointExtension>
        </extensions>
      </trkpt>
      <trkpt lat="42.611211575567722320556640625" lon="19.88136403262615203857421875">
        <ele>1942</ele>
        <time>2026-06-16T09:37:29.000Z</time>
        <extensions>
          <ns3:TrackPointExtension>
            <ns3:atemp>19.0</ns3:atemp>
          </ns3:TrackPointExtension>
        </extensions>
      </trkpt>
      <trkpt lat="42.6111845858395099639892578125" lon="19.8814007453620433807373046875">
        <ele>1941.800048828125</ele>
        <time>2026-06-16T09:37:30.000Z</time>
        <extensions>
          <ns3:TrackPointExtension>
            <ns3:atemp>19.0</ns3:atemp>
          </ns3:TrackPointExtension>
        </extensions>
      </trkpt>
      <trkpt lat="42.611160613596439361572265625" lon="19.881444163620471954345703125">
        <ele>1941.800048828125</ele>
        <time>2026-06-16T09:37:31.000Z</time>
        <extensions>
          <ns3:TrackPointExtension>
            <ns3:atemp>19.0</ns3:atemp>
          </ns3:TrackPointExtension>
        </extensions>
      </trkpt>
      <trkpt lat="42.61113823391497135162353515625" lon="19.8814828880131244659423828125">
        <ele>1941.5999755859375</ele>
        <time>2026-06-16T09:37:32.000Z</time>
        <extensions>
          <ns3:TrackPointExtension>
            <ns3:atemp>19.0</ns3:atemp>
          </ns3:TrackPointExtension>
        </extensions>
      </trkpt>
      <trkpt lat="42.61111644096672534942626953125" lon="19.8815013282001018524169921875">
        <ele>1941.4000244140625</ele>
        <time>2026-06-16T09:37:33.000Z</time>
        <extensions>
          <ns3:TrackPointExtension>
            <ns3:atemp>19.0</ns3:atemp>
          </ns3:TrackPointExtension>
        </extensions>
      </trkpt>
      <trkpt lat="42.61110587976872920989990234375" lon="19.881501160562038421630859375">
        <ele>1941.4000244140625</ele>
        <time>2026-06-16T09:37:34.000Z</time>
        <extensions>
          <ns3:TrackPointExtension>
            <ns3:atemp>19.0</ns3:atemp>
          </ns3:TrackPointExtension>
        </extensions>
      </trkpt>
      <trkpt lat="42.6110917143523693084716796875" lon="19.88149604760110378265380859375">
        <ele>1941.5999755859375</ele>
        <time>2026-06-16T09:37:35.000Z</time>
        <extensions>
          <ns3:TrackPointExtension>
            <ns3:atemp>19.0</ns3:atemp>
          </ns3:TrackPointExtension>
        </extensions>
      </trkpt>
      <trkpt lat="42.61107838712632656097412109375" lon="19.88149118609726428985595703125">
        <ele>1941.5999755859375</ele>
        <time>2026-06-16T09:37:36.000Z</time>
        <extensions>
          <ns3:TrackPointExtension>
            <ns3:atemp>19.0</ns3:atemp>
          </ns3:TrackPointExtension>
        </extensions>
      </trkpt>
      <trkpt lat="42.61106112040579319000244140625" lon="19.88148950971662998199462890625">
        <ele>1941.5999755859375</ele>
        <time>2026-06-16T09:37:37.000Z</time>
        <extensions>
          <ns3:TrackPointExtension>
            <ns3:atemp>19.0</ns3:atemp>
          </ns3:TrackPointExtension>
        </extensions>
      </trkpt>
      <trkpt lat="42.6110330410301685333251953125" lon="19.8814973048865795135498046875">
        <ele>1941.5999755859375</ele>
        <time>2026-06-16T09:37:38.000Z</time>
        <extensions>
          <ns3:TrackPointExtension>
            <ns3:atemp>19.0</ns3:atemp>
          </ns3:TrackPointExtension>
        </extensions>
      </trkpt>
      <trkpt lat="42.61100429110229015350341796875" lon="19.8815019987523555755615234375">
        <ele>1941.5999755859375</ele>
        <time>2026-06-16T09:37:39.000Z</time>
        <extensions>
          <ns3:TrackPointExtension>
            <ns3:atemp>19.0</ns3:atemp>
          </ns3:TrackPointExtension>
        </extensions>
      </trkpt>
      <trkpt lat="42.61098702438175678253173828125" lon="19.8815023340284824371337890625">
        <ele>1941.5999755859375</ele>
        <time>2026-06-16T09:37:40.000Z</time>
        <extensions>
          <ns3:TrackPointExtension>
            <ns3:atemp>19.0</ns3:atemp>
          </ns3:TrackPointExtension>
        </extensions>
      </trkpt>
      <trkpt lat="42.6109738647937774658203125" lon="19.8814974725246429443359375">
        <ele>1941.5999755859375</ele>
        <time>2026-06-16T09:37:41.000Z</time>
        <extensions>
          <ns3:TrackPointExtension>
            <ns3:atemp>19.0</ns3:atemp>
          </ns3:TrackPointExtension>
        </extensions>
      </trkpt>
      <trkpt lat="42.6109579391777515411376953125" lon="19.88150082528591156005859375">
        <ele>1941.5999755859375</ele>
        <time>2026-06-16T09:37:42.000Z</time>
        <extensions>
          <ns3:TrackPointExtension>
            <ns3:atemp>19.0</ns3:atemp>
          </ns3:TrackPointExtension>
        </extensions>
      </trkpt>
      <trkpt lat="42.61094125919044017791748046875" lon="19.88149814307689666748046875">
        <ele>1941.800048828125</ele>
        <time>2026-06-16T09:37:43.000Z</time>
        <extensions>
          <ns3:TrackPointExtension>
            <ns3:atemp>19.0</ns3:atemp>
          </ns3:TrackPointExtension>
        </extensions>
      </trkpt>
      <trkpt lat="42.6109274290502071380615234375" lon="19.88150392659008502960205078125">
        <ele>1942</ele>
        <time>2026-06-16T09:37:44.000Z</time>
        <extensions>
          <ns3:TrackPointExtension>
            <ns3:atemp>19.0</ns3:atemp>
          </ns3:TrackPointExtension>
        </extensions>
      </trkpt>
      <trkpt lat="42.61090924032032489776611328125" lon="19.8815056867897510528564453125">
        <ele>1942.199951171875</ele>
        <time>2026-06-16T09:37:45.000Z</time>
        <extensions>
          <ns3:TrackPointExtension>
            <ns3:atemp>19.0</ns3:atemp>
          </ns3:TrackPointExtension>
        </extensions>
      </trkpt>
      <trkpt lat="42.61089080013334751129150390625" lon="19.88150476478040218353271484375">
        <ele>1942.199951171875</ele>
        <time>2026-06-16T09:37:46.000Z</time>
        <extensions>
          <ns3:TrackPointExtension>
            <ns3:atemp>19.0</ns3:atemp>
          </ns3:TrackPointExtension>
        </extensions>
      </trkpt>
      <trkpt lat="42.6108778081834316253662109375" lon="19.88150292076170444488525390625">
        <ele>1942.4000244140625</ele>
        <time>2026-06-16T09:37:47.000Z</time>
        <extensions>
          <ns3:TrackPointExtension>
            <ns3:atemp>19.0</ns3:atemp>
          </ns3:TrackPointExtension>
        </extensions>
      </trkpt>
      <trkpt lat="42.61086783371865749359130859375" lon="19.881501495838165283203125">
        <ele>1942.5999755859375</ele>
        <time>2026-06-16T09:37:48.000Z</time>
        <extensions>
          <ns3:TrackPointExtension>
            <ns3:atemp>19.0</ns3:atemp>
          </ns3:TrackPointExtension>
        </extensions>
      </trkpt>
      <trkpt lat="42.61085408739745616912841796875" lon="19.88149940036237239837646484375">
        <ele>1942.800048828125</ele>
        <time>2026-06-16T09:37:49.000Z</time>
        <extensions>
          <ns3:TrackPointExtension>
            <ns3:atemp>19.0</ns3:atemp>
          </ns3:TrackPointExtension>
        </extensions>
      </trkpt>
      <trkpt lat="42.61083933524787425994873046875" lon="19.8814932815730571746826171875">
        <ele>1943.199951171875</ele>
        <time>2026-06-16T09:37:50.000Z</time>
        <extensions>
          <ns3:TrackPointExtension>
            <ns3:atemp>19.0</ns3:atemp>
          </ns3:TrackPointExtension>
        </extensions>
      </trkpt>
      <trkpt lat="42.6108194701373577117919921875" lon="19.8814916051924228668212890625">
        <ele>1943.5999755859375</ele>
        <time>2026-06-16T09:37:51.000Z</time>
        <extensions>
          <ns3:TrackPointExtension>
            <ns3:atemp>19.0</ns3:atemp>
          </ns3:TrackPointExtension>
        </extensions>
      </trkpt>
      <trkpt lat="42.61079994030296802520751953125" lon="19.88149487413465976715087890625">
        <ele>1943.800048828125</ele>
        <time>2026-06-16T09:37:52.000Z</time>
        <extensions>
          <ns3:TrackPointExtension>
            <ns3:atemp>19.0</ns3:atemp>
          </ns3:TrackPointExtension>
        </extensions>
      </trkpt>
      <trkpt lat="42.6107842661440372467041015625" lon="19.88149504177272319793701171875">
        <ele>1944.199951171875</ele>
        <time>2026-06-16T09:37:53.000Z</time>
        <extensions>
          <ns3:TrackPointExtension>
            <ns3:atemp>19.0</ns3:atemp>
          </ns3:TrackPointExtension>
        </extensions>
      </trkpt>
      <trkpt lat="42.61076792143285274505615234375" lon="19.88149118609726428985595703125">
        <ele>1944.5999755859375</ele>
        <time>2026-06-16T09:37:54.000Z</time>
        <extensions>
          <ns3:TrackPointExtension>
            <ns3:atemp>19.0</ns3:atemp>
          </ns3:TrackPointExtension>
        </extensions>
      </trkpt>
      <trkpt lat="42.61074964888393878936767578125" lon="19.88148431293666362762451171875">
        <ele>1944.800048828125</ele>
        <time>2026-06-16T09:37:55.000Z</time>
        <extensions>
          <ns3:TrackPointExtension>
            <ns3:atemp>19.0</ns3:atemp>
          </ns3:TrackPointExtension>
        </extensions>
      </trkpt>
      <trkpt lat="42.6107346452772617340087890625" lon="19.881481043994426727294921875">
        <ele>1945.199951171875</ele>
        <time>2026-06-16T09:37:56.000Z</time>
        <extensions>
          <ns3:TrackPointExtension>
            <ns3:atemp>19.0</ns3:atemp>
          </ns3:TrackPointExtension>
        </extensions>
      </trkpt>
      <trkpt lat="42.61071964167058467864990234375" lon="19.8814813792705535888671875">
        <ele>1945.800048828125</ele>
        <time>2026-06-16T09:37:57.000Z</time>
        <extensions>
          <ns3:TrackPointExtension>
            <ns3:atemp>19.0</ns3:atemp>
          </ns3:TrackPointExtension>
        </extensions>
      </trkpt>
      <trkpt lat="42.6107078231871128082275390625" lon="19.8814805410802364349365234375">
        <ele>1946.4000244140625</ele>
        <time>2026-06-16T09:37:58.000Z</time>
        <extensions>
          <ns3:TrackPointExtension>
            <ns3:atemp>19.0</ns3:atemp>
          </ns3:TrackPointExtension>
        </extensions>
      </trkpt>
      <trkpt lat="42.6106960885226726531982421875" lon="19.88147911615669727325439453125">
        <ele>1946.800048828125</ele>
        <time>2026-06-16T09:37:59.000Z</time>
        <extensions>
          <ns3:TrackPointExtension>
            <ns3:atemp>19.0</ns3:atemp>
          </ns3:TrackPointExtension>
        </extensions>
      </trkpt>
      <trkpt lat="42.61067949235439300537109375" lon="19.88147199153900146484375">
        <ele>1947.199951171875</ele>
        <time>2026-06-16T09:38:00.000Z</time>
        <extensions>
          <ns3:TrackPointExtension>
            <ns3:atemp>19.0</ns3:atemp>
          </ns3:TrackPointExtension>
        </extensions>
      </trkpt>
      <trkpt lat="42.6106622256338596343994140625" lon="19.881466291844844818115234375">
        <ele>1947.800048828125</ele>
        <time>2026-06-16T09:38:01.000Z</time>
        <extensions>
          <ns3:TrackPointExtension>
            <ns3:atemp>19.0</ns3:atemp>
          </ns3:TrackPointExtension>
        </extensions>
      </trkpt>
      <trkpt lat="42.6106468029320240020751953125" lon="19.88145497627556324005126953125">
        <ele>1948.199951171875</ele>
        <time>2026-06-16T09:38:02.000Z</time>
        <extensions>
          <ns3:TrackPointExtension>
            <ns3:atemp>19.0</ns3:atemp>
          </ns3:TrackPointExtension>
        </extensions>
      </trkpt>
      <trkpt lat="42.6106333918869495391845703125" lon="19.881437458097934722900390625">
        <ele>1948.5999755859375</ele>
        <time>2026-06-16T09:38:03.000Z</time>
        <extensions>
          <ns3:TrackPointExtension>
            <ns3:atemp>19.0</ns3:atemp>
          </ns3:TrackPointExtension>
        </extensions>
      </trkpt>
      <trkpt lat="42.6106189750134944915771484375" lon="19.88142580725252628326416015625">
        <ele>1949.199951171875</ele>
        <time>2026-06-16T09:38:04.000Z</time>
        <extensions>
          <ns3:TrackPointExtension>
            <ns3:atemp>19.0</ns3:atemp>
          </ns3:TrackPointExtension>
        </extensions>
      </trkpt>
      <trkpt lat="42.6106008701026439666748046875" lon="19.88142228685319423675537109375">
        <ele>1949.800048828125</ele>
        <time>2026-06-16T09:38:05.000Z</time>
        <extensions>
          <ns3:TrackPointExtension>
            <ns3:atemp>19.0</ns3:atemp>
          </ns3:TrackPointExtension>
        </extensions>
      </trkpt>
      <trkpt lat="42.6105822622776031494140625" lon="19.8814151622354984283447265625">
        <ele>1950.199951171875</ele>
        <time>2026-06-16T09:38:06.000Z</time>
        <extensions>
          <ns3:TrackPointExtension>
            <ns3:atemp>19.0</ns3:atemp>
          </ns3:TrackPointExtension>
        </extensions>
      </trkpt>
      <trkpt lat="42.61056642048060894012451171875" lon="19.88140183500945568084716796875">
        <ele>1950.800048828125</ele>
        <time>2026-06-16T09:38:07.000Z</time>
        <extensions>
          <ns3:TrackPointExtension>
            <ns3:atemp>19.0</ns3:atemp>
          </ns3:TrackPointExtension>
        </extensions>
      </trkpt>
      <trkpt lat="42.61054898612201213836669921875" lon="19.88138322718441486358642578125">
        <ele>1951.199951171875</ele>
        <time>2026-06-16T09:38:08.000Z</time>
        <extensions>
          <ns3:TrackPointExtension>
            <ns3:atemp>19.0</ns3:atemp>
          </ns3:TrackPointExtension>
        </extensions>
      </trkpt>
      <trkpt lat="42.6105313003063201904296875" lon="19.88137283362448215484619140625">
        <ele>1951.800048828125</ele>
        <time>2026-06-16T09:38:09.000Z</time>
        <extensions>
          <ns3:TrackPointExtension>
            <ns3:atemp>19.0</ns3:atemp>
          </ns3:TrackPointExtension>
        </extensions>
      </trkpt>
      <trkpt lat="42.6105152070522308349609375" lon="19.8813601769506931304931640625">
        <ele>1952.4000244140625</ele>
        <time>2026-06-16T09:38:10.000Z</time>
        <extensions>
          <ns3:TrackPointExtension>
            <ns3:atemp>19.0</ns3:atemp>
          </ns3:TrackPointExtension>
        </extensions>
      </trkpt>
      <trkpt lat="42.61049785651266574859619140625" lon="19.8813504539430141448974609375">
        <ele>1952.800048828125</ele>
        <time>2026-06-16T09:38:11.000Z</time>
        <extensions>
          <ns3:TrackPointExtension>
            <ns3:atemp>19.0</ns3:atemp>
          </ns3:TrackPointExtension>
        </extensions>
      </trkpt>
      <trkpt lat="42.61048327200114727020263671875" lon="19.8813474364578723907470703125">
        <ele>1953.199951171875</ele>
        <time>2026-06-16T09:38:12.000Z</time>
        <extensions>
          <ns3:TrackPointExtension>
            <ns3:atemp>19.0</ns3:atemp>
          </ns3:TrackPointExtension>
        </extensions>
      </trkpt>
      <trkpt lat="42.6104669272899627685546875" lon="19.8813445866107940673828125">
        <ele>1953.5999755859375</ele>
        <time>2026-06-16T09:38:13.000Z</time>
        <extensions>
          <ns3:TrackPointExtension>
            <ns3:atemp>19.0</ns3:atemp>
          </ns3:TrackPointExtension>
        </extensions>
      </trkpt>
      <trkpt lat="42.61045209132134914398193359375" lon="19.88134383223950862884521484375">
        <ele>1953.800048828125</ele>
        <time>2026-06-16T09:38:14.000Z</time>
        <extensions>
          <ns3:TrackPointExtension>
            <ns3:atemp>19.0</ns3:atemp>
          </ns3:TrackPointExtension>
        </extensions>
      </trkpt>
      <trkpt lat="42.61043675243854522705078125" lon="19.88134659826755523681640625">
        <ele>1954.199951171875</ele>
        <time>2026-06-16T09:38:15.000Z</time>
        <extensions>
          <ns3:TrackPointExtension>
            <ns3:atemp>19.0</ns3:atemp>
          </ns3:TrackPointExtension>
        </extensions>
      </trkpt>
      <trkpt lat="42.61042107827961444854736328125" lon="19.88134467042982578277587890625">
        <ele>1954.5999755859375</ele>
        <time>2026-06-16T09:38:16.000Z</time>
        <extensions>
          <ns3:TrackPointExtension>
            <ns3:atemp>19.0</ns3:atemp>
          </ns3:TrackPointExtension>
        </extensions>
      </trkpt>
      <trkpt lat="42.61040599085390567779541015625" lon="19.88133679144084453582763671875">
        <ele>1954.800048828125</ele>
        <time>2026-06-16T09:38:17.000Z</time>
        <extensions>
          <ns3:TrackPointExtension>
            <ns3:atemp>19.0</ns3:atemp>
          </ns3:TrackPointExtension>
        </extensions>
      </trkpt>
      <trkpt lat="42.61039475910365581512451171875" lon="19.88133813254535198211669921875">
        <ele>1955</ele>
        <time>2026-06-16T09:38:18.000Z</time>
        <extensions>
          <ns3:TrackPointExtension>
            <ns3:atemp>19.0</ns3:atemp>
          </ns3:TrackPointExtension>
        </extensions>
      </trkpt>
      <trkpt lat="42.6103859581053256988525390625" lon="19.88133561797440052032470703125">
        <ele>1955.199951171875</ele>
        <time>2026-06-16T09:38:19.000Z</time>
        <extensions>
          <ns3:TrackPointExtension>
            <ns3:atemp>19.0</ns3:atemp>
          </ns3:TrackPointExtension>
        </extensions>
      </trkpt>
      <trkpt lat="42.6103730499744415283203125" lon="19.8813289962708950042724609375">
        <ele>1955.4000244140625</ele>
        <time>2026-06-16T09:38:20.000Z</time>
        <extensions>
          <ns3:TrackPointExtension>
            <ns3:atemp>19.0</ns3:atemp>
          </ns3:TrackPointExtension>
        </extensions>
      </trkpt>
      <trkpt lat="42.61035955511033535003662109375" lon="19.88131985999643802642822265625">
        <ele>1955.5999755859375</ele>
        <time>2026-06-16T09:38:21.000Z</time>
        <extensions>
          <ns3:TrackPointExtension>
            <ns3:atemp>19.0</ns3:atemp>
          </ns3:TrackPointExtension>
        </extensions>
      </trkpt>
      <trkpt lat="42.6103427074849605560302734375" lon="19.88131030462682247161865234375">
        <ele>1955.800048828125</ele>
        <time>2026-06-16T09:38:22.000Z</time>
        <extensions>
          <ns3:TrackPointExtension>
            <ns3:atemp>19.0</ns3:atemp>
          </ns3:TrackPointExtension>
        </extensions>
      </trkpt>
      <trkpt lat="42.61032686568796634674072265625" lon="19.88130192272365093231201171875">
        <ele>1956.199951171875</ele>
        <time>2026-06-16T09:38:23.000Z</time>
        <extensions>
          <ns3:TrackPointExtension>
            <ns3:atemp>19.0</ns3:atemp>
          </ns3:TrackPointExtension>
        </extensions>
      </trkpt>
      <trkpt lat="42.61031177826225757598876953125" lon="19.8812931217253208160400390625">
        <ele>1956.4000244140625</ele>
        <time>2026-06-16T09:38:24.000Z</time>
        <extensions>
          <ns3:TrackPointExtension>
            <ns3:atemp>19.0</ns3:atemp>
          </ns3:TrackPointExtension>
        </extensions>
      </trkpt>
      <trkpt lat="42.6103006303310394287109375" lon="19.8812840692698955535888671875">
        <ele>1956.800048828125</ele>
        <time>2026-06-16T09:38:25.000Z</time>
        <extensions>
          <ns3:TrackPointExtension>
            <ns3:atemp>19.0</ns3:atemp>
          </ns3:TrackPointExtension>
        </extensions>
      </trkpt>
      <trkpt lat="42.61028923094272613525390625" lon="19.88127820193767547607421875">
        <ele>1957.199951171875</ele>
        <time>2026-06-16T09:38:26.000Z</time>
        <extensions>
          <ns3:TrackPointExtension>
            <ns3:atemp>19.0</ns3:atemp>
          </ns3:TrackPointExtension>
        </extensions>
      </trkpt>
      <trkpt lat="42.61028411798179149627685546875" lon="19.88128012977540493011474609375">
        <ele>1957.5999755859375</ele>
        <time>2026-06-16T09:38:27.000Z</time>
        <extensions>
          <ns3:TrackPointExtension>
            <ns3:atemp>19.0</ns3:atemp>
          </ns3:TrackPointExtension>
        </extensions>
      </trkpt>
      <trkpt lat="42.610281519591808319091796875" lon="19.88128356635570526123046875">
        <ele>1958</ele>
        <time>2026-06-16T09:38:28.000Z</time>
        <extensions>
          <ns3:TrackPointExtension>
            <ns3:atemp>19.0</ns3:atemp>
          </ns3:TrackPointExtension>
        </extensions>
      </trkpt>
      <trkpt lat="42.61028143577277660369873046875" lon="19.88128356635570526123046875">
        <ele>1958.4000244140625</ele>
        <time>2026-06-16T09:38:29.000Z</time>
        <extensions>
          <ns3:TrackPointExtension>
            <ns3:atemp>19.0</ns3:atemp>
          </ns3:TrackPointExtension>
        </extensions>
      </trkpt>
      <trkpt lat="42.61028143577277660369873046875" lon="19.88128356635570526123046875">
        <ele>1958.5999755859375</ele>
        <time>2026-06-16T09:38:30.000Z</time>
        <extensions>
          <ns3:TrackPointExtension>
            <ns3:atemp>19.0</ns3:atemp>
          </ns3:TrackPointExtension>
        </extensions>
      </trkpt>
      <trkpt lat="42.61028143577277660369873046875" lon="19.88128356635570526123046875">
        <ele>1958.800048828125</ele>
        <time>2026-06-16T09:38:31.000Z</time>
        <extensions>
          <ns3:TrackPointExtension>
            <ns3:atemp>19.0</ns3:atemp>
          </ns3:TrackPointExtension>
        </extensions>
      </trkpt>
      <trkpt lat="42.61028143577277660369873046875" lon="19.88128365017473697662353515625">
        <ele>1959</ele>
        <time>2026-06-16T09:38:32.000Z</time>
        <extensions>
          <ns3:TrackPointExtension>
            <ns3:atemp>19.0</ns3:atemp>
          </ns3:TrackPointExtension>
        </extensions>
      </trkpt>
      <trkpt lat="42.61027607135474681854248046875" lon="19.88128197379410266876220703125">
        <ele>1959</ele>
        <time>2026-06-16T09:38:33.000Z</time>
        <extensions>
          <ns3:TrackPointExtension>
            <ns3:atemp>19.0</ns3:atemp>
          </ns3:TrackPointExtension>
        </extensions>
      </trkpt>
      <trkpt lat="42.6102712936699390411376953125" lon="19.88128214143216609954833984375">
        <ele>1959</ele>
        <time>2026-06-16T09:38:34.000Z</time>
        <extensions>
          <ns3:TrackPointExtension>
            <ns3:atemp>19.0</ns3:atemp>
          </ns3:TrackPointExtension>
        </extensions>
      </trkpt>
      <trkpt lat="42.61026509106159210205078125" lon="19.88128264434635639190673828125">
        <ele>1959.199951171875</ele>
        <time>2026-06-16T09:38:35.000Z</time>
        <extensions>
          <ns3:TrackPointExtension>
            <ns3:atemp>19.0</ns3:atemp>
          </ns3:TrackPointExtension>
        </extensions>
      </trkpt>
      <trkpt lat="42.61026081629097461700439453125" lon="19.88128331489861011505126953125">
        <ele>1959.199951171875</ele>
        <time>2026-06-16T09:38:36.000Z</time>
        <extensions>
          <ns3:TrackPointExtension>
            <ns3:atemp>19.0</ns3:atemp>
          </ns3:TrackPointExtension>
        </extensions>
      </trkpt>
      <trkpt lat="42.61025897227227687835693359375" lon="19.8812802135944366455078125">
        <ele>1959.4000244140625</ele>
        <time>2026-06-16T09:38:37.000Z</time>
        <extensions>
          <ns3:TrackPointExtension>
            <ns3:atemp>19.0</ns3:atemp>
          </ns3:TrackPointExtension>
        </extensions>
      </trkpt>
      <trkpt lat="42.61025545187294483184814453125" lon="19.88127443008124828338623046875">
        <ele>1959.5999755859375</ele>
        <time>2026-06-16T09:38:38.000Z</time>
        <extensions>
          <ns3:TrackPointExtension>
            <ns3:atemp>19.0</ns3:atemp>
          </ns3:TrackPointExtension>
        </extensions>
      </trkpt>
      <trkpt lat="42.61025109328329563140869140625" lon="19.88127090968191623687744140625">
        <ele>1959.5999755859375</ele>
        <time>2026-06-16T09:38:39.000Z</time>
        <extensions>
          <ns3:TrackPointExtension>
            <ns3:atemp>19.0</ns3:atemp>
          </ns3:TrackPointExtension>
        </extensions>
      </trkpt>
      <trkpt lat="42.610247991979122161865234375" lon="19.8812713287770748138427734375">
        <ele>1959.800048828125</ele>
        <time>2026-06-16T09:38:40.000Z</time>
        <extensions>
          <ns3:TrackPointExtension>
            <ns3:atemp>19.0</ns3:atemp>
          </ns3:TrackPointExtension>
        </extensions>
      </trkpt>
      <trkpt lat="42.6102478243410587310791015625" lon="19.88127124495804309844970703125">
        <ele>1960</ele>
        <time>2026-06-16T09:38:41.000Z</time>
        <extensions>
          <ns3:TrackPointExtension>
            <ns3:atemp>19.0</ns3:atemp>
          </ns3:TrackPointExtension>
        </extensions>
      </trkpt>
      <trkpt lat="42.61024765670299530029296875" lon="19.881271161139011383056640625">
        <ele>1960.199951171875</ele>
        <time>2026-06-16T09:38:42.000Z</time>
        <extensions>
          <ns3:TrackPointExtension>
            <ns3:atemp>19.0</ns3:atemp>
          </ns3:TrackPointExtension>
        </extensions>
      </trkpt>
      <trkpt lat="42.6102411188185214996337890625" lon="19.88126621581614017486572265625">
        <ele>1960.4000244140625</ele>
        <time>2026-06-16T09:38:43.000Z</time>
        <extensions>
          <ns3:TrackPointExtension>
            <ns3:atemp>19.0</ns3:atemp>
          </ns3:TrackPointExtension>
        </extensions>
      </trkpt>
      <trkpt lat="42.61023919098079204559326171875" lon="19.88126336596906185150146484375">
        <ele>1960.4000244140625</ele>
        <time>2026-06-16T09:38:44.000Z</time>
        <extensions>
          <ns3:TrackPointExtension>
            <ns3:atemp>19.0</ns3:atemp>
          </ns3:TrackPointExtension>
        </extensions>
      </trkpt>
      <trkpt lat="42.61023617349565029144287109375" lon="19.881259761750698089599609375">
        <ele>1960.5999755859375</ele>
        <time>2026-06-16T09:38:45.000Z</time>
        <extensions>
          <ns3:TrackPointExtension>
            <ns3:atemp>19.0</ns3:atemp>
          </ns3:TrackPointExtension>
        </extensions>
      </trkpt>
      <trkpt lat="42.61023483239114284515380859375" lon="19.88125431351363658905029296875">
        <ele>1960.5999755859375</ele>
        <time>2026-06-16T09:38:46.000Z</time>
        <extensions>
          <ns3:TrackPointExtension>
            <ns3:atemp>19.0</ns3:atemp>
          </ns3:TrackPointExtension>
        </extensions>
      </trkpt>
      <trkpt lat="42.61023382656276226043701171875" lon="19.88124978728592395782470703125">
        <ele>1960.5999755859375</ele>
        <time>2026-06-16T09:38:47.000Z</time>
        <extensions>
          <ns3:TrackPointExtension>
            <ns3:atemp>19.0</ns3:atemp>
          </ns3:TrackPointExtension>
        </extensions>
      </trkpt>
      <trkpt lat="42.61023147962987422943115234375" lon="19.88124542869627475738525390625">
        <ele>1960.800048828125</ele>
        <time>2026-06-16T09:38:48.000Z</time>
        <extensions>
          <ns3:TrackPointExtension>
            <ns3:atemp>19.0</ns3:atemp>
          </ns3:TrackPointExtension>
        </extensions>
      </trkpt>
      <trkpt lat="42.6102310605347156524658203125" lon="19.88124157302081584930419921875">
        <ele>1960.800048828125</ele>
        <time>2026-06-16T09:38:49.000Z</time>
        <extensions>
          <ns3:TrackPointExtension>
            <ns3:atemp>19.0</ns3:atemp>
          </ns3:TrackPointExtension>
        </extensions>
      </trkpt>
      <trkpt lat="42.61022678576409816741943359375" lon="19.88123486749827861785888671875">
        <ele>1961</ele>
        <time>2026-06-16T09:38:50.000Z</time>
        <extensions>
          <ns3:TrackPointExtension>
            <ns3:atemp>19.0</ns3:atemp>
          </ns3:TrackPointExtension>
        </extensions>
      </trkpt>
      <trkpt lat="42.61022393591701984405517578125" lon="19.8812305927276611328125">
        <ele>1961.199951171875</ele>
        <time>2026-06-16T09:38:51.000Z</time>
        <extensions>
          <ns3:TrackPointExtension>
            <ns3:atemp>19.0</ns3:atemp>
          </ns3:TrackPointExtension>
        </extensions>
      </trkpt>
      <trkpt lat="42.61021681129932403564453125" lon="19.8812257312238216400146484375">
        <ele>1961.4000244140625</ele>
        <time>2026-06-16T09:38:52.000Z</time>
        <extensions>
          <ns3:TrackPointExtension>
            <ns3:atemp>19.0</ns3:atemp>
          </ns3:TrackPointExtension>
        </extensions>
      </trkpt>
      <trkpt lat="42.61021052487194538116455078125" lon="19.8812253959476947784423828125">
        <ele>1961.5999755859375</ele>
        <time>2026-06-16T09:38:53.000Z</time>
        <extensions>
          <ns3:TrackPointExtension>
            <ns3:atemp>19.0</ns3:atemp>
          </ns3:TrackPointExtension>
        </extensions>
      </trkpt>
      <trkpt lat="42.61020616628229618072509765625" lon="19.88122095353901386260986328125">
        <ele>1961.800048828125</ele>
        <time>2026-06-16T09:38:54.000Z</time>
        <extensions>
          <ns3:TrackPointExtension>
            <ns3:atemp>19.0</ns3:atemp>
          </ns3:TrackPointExtension>
        </extensions>
      </trkpt>
      <trkpt lat="42.61020340025424957275390625" lon="19.8812163434922695159912109375">
        <ele>1962</ele>
        <time>2026-06-16T09:38:55.000Z</time>
        <extensions>
          <ns3:TrackPointExtension>
            <ns3:atemp>19.0</ns3:atemp>
          </ns3:TrackPointExtension>
        </extensions>
      </trkpt>
      <trkpt lat="42.610202394425868988037109375" lon="19.88120737485587596893310546875">
        <ele>1962.199951171875</ele>
        <time>2026-06-16T09:38:56.000Z</time>
        <extensions>
          <ns3:TrackPointExtension>
            <ns3:atemp>19.0</ns3:atemp>
          </ns3:TrackPointExtension>
        </extensions>
      </trkpt>
      <trkpt lat="42.61020465753972530364990234375" lon="19.88120310008525848388671875">
        <ele>1962.4000244140625</ele>
        <time>2026-06-16T09:38:57.000Z</time>
        <extensions>
          <ns3:TrackPointExtension>
            <ns3:atemp>19.0</ns3:atemp>
          </ns3:TrackPointExtension>
        </extensions>
      </trkpt>
      <trkpt lat="42.61019845493137836456298828125" lon="19.88120377063751220703125">
        <ele>1962.5999755859375</ele>
        <time>2026-06-16T09:38:58.000Z</time>
        <extensions>
          <ns3:TrackPointExtension>
            <ns3:atemp>19.0</ns3:atemp>
          </ns3:TrackPointExtension>
        </extensions>
      </trkpt>
      <trkpt lat="42.61018973775207996368408203125" lon="19.88120175898075103759765625">
        <ele>1962.800048828125</ele>
        <time>2026-06-16T09:38:59.000Z</time>
        <extensions>
          <ns3:TrackPointExtension>
            <ns3:atemp>19.0</ns3:atemp>
          </ns3:TrackPointExtension>
        </extensions>
      </trkpt>
      <trkpt lat="42.61018487624824047088623046875" lon="19.88120301626622676849365234375">
        <ele>1963</ele>
        <time>2026-06-16T09:39:00.000Z</time>
        <extensions>
          <ns3:TrackPointExtension>
            <ns3:atemp>19.0</ns3:atemp>
          </ns3:TrackPointExtension>
        </extensions>
      </trkpt>
      <trkpt lat="42.61017766781151294708251953125" lon="19.88120117224752902984619140625">
        <ele>1963.199951171875</ele>
        <time>2026-06-16T09:39:01.000Z</time>
        <extensions>
          <ns3:TrackPointExtension>
            <ns3:atemp>19.0</ns3:atemp>
          </ns3:TrackPointExtension>
        </extensions>
      </trkpt>
      <trkpt lat="42.6101720519363880157470703125" lon="19.8812029324471950531005859375">
        <ele>1963.4000244140625</ele>
        <time>2026-06-16T09:39:02.000Z</time>
        <extensions>
          <ns3:TrackPointExtension>
            <ns3:atemp>19.0</ns3:atemp>
          </ns3:TrackPointExtension>
        </extensions>
      </trkpt>
      <trkpt lat="42.61016408912837505340576171875" lon="19.8812062852084636688232421875">
        <ele>1963.5999755859375</ele>
        <time>2026-06-16T09:39:03.000Z</time>
        <extensions>
          <ns3:TrackPointExtension>
            <ns3:atemp>19.0</ns3:atemp>
          </ns3:TrackPointExtension>
        </extensions>
      </trkpt>
      <trkpt lat="42.610158137977123260498046875" lon="19.88120888359844684600830078125">
        <ele>1963.800048828125</ele>
        <time>2026-06-16T09:39:04.000Z</time>
        <extensions>
          <ns3:TrackPointExtension>
            <ns3:atemp>19.0</ns3:atemp>
          </ns3:TrackPointExtension>
        </extensions>
      </trkpt>
      <trkpt lat="42.6101532764732837677001953125" lon="19.88121391274034976959228515625">
        <ele>1964</ele>
        <time>2026-06-16T09:39:05.000Z</time>
        <extensions>
          <ns3:TrackPointExtension>
            <ns3:atemp>19.0</ns3:atemp>
          </ns3:TrackPointExtension>
        </extensions>
      </trkpt>
      <trkpt lat="42.61015168391168117523193359375" lon="19.88121810369193553924560546875">
        <ele>1964.199951171875</ele>
        <time>2026-06-16T09:39:06.000Z</time>
        <extensions>
          <ns3:TrackPointExtension>
            <ns3:atemp>19.0</ns3:atemp>
          </ns3:TrackPointExtension>
        </extensions>
      </trkpt>
      <trkpt lat="42.61014841496944427490234375" lon="19.88121919333934783935546875">
        <ele>1964.4000244140625</ele>
        <time>2026-06-16T09:39:07.000Z</time>
        <extensions>
          <ns3:TrackPointExtension>
            <ns3:atemp>19.0</ns3:atemp>
          </ns3:TrackPointExtension>
        </extensions>
      </trkpt>
      <trkpt lat="42.61013902723789215087890625" lon="19.88122346810996532440185546875">
        <ele>1964.4000244140625</ele>
        <time>2026-06-16T09:39:08.000Z</time>
        <extensions>
          <ns3:TrackPointExtension>
            <ns3:atemp>19.0</ns3:atemp>
          </ns3:TrackPointExtension>
        </extensions>
      </trkpt>
      <trkpt lat="42.6101334951817989349365234375" lon="19.88122799433767795562744140625">
        <ele>1964.5999755859375</ele>
        <time>2026-06-16T09:39:09.000Z</time>
        <extensions>
          <ns3:TrackPointExtension>
            <ns3:atemp>19.0</ns3:atemp>
          </ns3:TrackPointExtension>
        </extensions>
      </trkpt>
      <trkpt lat="42.6101264543831348419189453125" lon="19.88123168237507343292236328125">
        <ele>1964.800048828125</ele>
        <time>2026-06-16T09:39:10.000Z</time>
        <extensions>
          <ns3:TrackPointExtension>
            <ns3:atemp>19.0</ns3:atemp>
          </ns3:TrackPointExtension>
        </extensions>
      </trkpt>
      <trkpt lat="42.61012217961251735687255859375" lon="19.88123419694602489471435546875">
        <ele>1965</ele>
        <time>2026-06-16T09:39:11.000Z</time>
        <extensions>
          <ns3:TrackPointExtension>
            <ns3:atemp>19.0</ns3:atemp>
          </ns3:TrackPointExtension>
        </extensions>
      </trkpt>
      <trkpt lat="42.6101150549948215484619140625" lon="19.881238639354705810546875">
        <ele>1965.199951171875</ele>
        <time>2026-06-16T09:39:12.000Z</time>
        <extensions>
          <ns3:TrackPointExtension>
            <ns3:atemp>19.0</ns3:atemp>
          </ns3:TrackPointExtension>
        </extensions>
      </trkpt>
      <trkpt lat="42.610113881528377532958984375" lon="19.88123989664018154144287109375">
        <ele>1965.4000244140625</ele>
        <time>2026-06-16T09:39:13.000Z</time>
        <extensions>
          <ns3:TrackPointExtension>
            <ns3:atemp>19.0</ns3:atemp>
          </ns3:TrackPointExtension>
        </extensions>
      </trkpt>
      <trkpt lat="42.610108852386474609375" lon="19.88124693743884563446044921875">
        <ele>1965.5999755859375</ele>
        <time>2026-06-16T09:39:14.000Z</time>
        <extensions>
          <ns3:TrackPointExtension>
            <ns3:atemp>19.0</ns3:atemp>
          </ns3:TrackPointExtension>
        </extensions>
      </trkpt>
      <trkpt lat="42.61010424233973026275634765625" lon="19.88125003874301910400390625">
        <ele>1965.800048828125</ele>
        <time>2026-06-16T09:39:15.000Z</time>
        <extensions>
          <ns3:TrackPointExtension>
            <ns3:atemp>19.0</ns3:atemp>
          </ns3:TrackPointExtension>
        </extensions>
      </trkpt>
      <trkpt lat="42.61010290123522281646728515625" lon="19.88125137984752655029296875">
        <ele>1965.800048828125</ele>
        <time>2026-06-16T09:39:16.000Z</time>
        <extensions>
          <ns3:TrackPointExtension>
            <ns3:atemp>19.0</ns3:atemp>
          </ns3:TrackPointExtension>
        </extensions>
      </trkpt>
      <trkpt lat="42.61010290123522281646728515625" lon="19.88125137984752655029296875">
        <ele>1966</ele>
        <time>2026-06-16T09:39:17.000Z</time>
        <extensions>
          <ns3:TrackPointExtension>
            <ns3:atemp>19.0</ns3:atemp>
          </ns3:TrackPointExtension>
        </extensions>
      </trkpt>
      <trkpt lat="42.61010290123522281646728515625" lon="19.88125146366655826568603515625">
        <ele>1966.199951171875</ele>
        <time>2026-06-16T09:39:18.000Z</time>
        <extensions>
          <ns3:TrackPointExtension>
            <ns3:atemp>19.0</ns3:atemp>
          </ns3:TrackPointExtension>
        </extensions>
      </trkpt>
      <trkpt lat="42.61009636335074901580810546875" lon="19.88125942647457122802734375">
        <ele>1966.4000244140625</ele>
        <time>2026-06-16T09:39:19.000Z</time>
        <extensions>
          <ns3:TrackPointExtension>
            <ns3:atemp>19.0</ns3:atemp>
          </ns3:TrackPointExtension>
        </extensions>
      </trkpt>
      <trkpt lat="42.61009351350367069244384765625" lon="19.88126814365386962890625">
        <ele>1966.5999755859375</ele>
        <time>2026-06-16T09:39:20.000Z</time>
        <extensions>
          <ns3:TrackPointExtension>
            <ns3:atemp>19.0</ns3:atemp>
          </ns3:TrackPointExtension>
        </extensions>
      </trkpt>
      <trkpt lat="42.61009133420884609222412109375" lon="19.88127493299543857574462890625">
        <ele>1966.800048828125</ele>
        <time>2026-06-16T09:39:21.000Z</time>
        <extensions>
          <ns3:TrackPointExtension>
            <ns3:atemp>19.0</ns3:atemp>
          </ns3:TrackPointExtension>
        </extensions>
      </trkpt>
      <trkpt lat="42.61008898727595806121826171875" lon="19.88127845339477062225341796875">
        <ele>1966.800048828125</ele>
        <time>2026-06-16T09:39:22.000Z</time>
        <extensions>
          <ns3:TrackPointExtension>
            <ns3:atemp>19.0</ns3:atemp>
          </ns3:TrackPointExtension>
        </extensions>
      </trkpt>
      <trkpt lat="42.61008898727595806121826171875" lon="19.881278537213802337646484375">
        <ele>1967</ele>
        <time>2026-06-16T09:39:23.000Z</time>
        <extensions>
          <ns3:TrackPointExtension>
            <ns3:atemp>19.0</ns3:atemp>
          </ns3:TrackPointExtension>
        </extensions>
      </trkpt>
      <trkpt lat="42.61008781380951404571533203125" lon="19.88128851167857646942138671875">
        <ele>1967.199951171875</ele>
        <time>2026-06-16T09:39:24.000Z</time>
        <extensions>
          <ns3:TrackPointExtension>
            <ns3:atemp>19.0</ns3:atemp>
          </ns3:TrackPointExtension>
        </extensions>
      </trkpt>
      <trkpt lat="42.6100828684866428375244140625" lon="19.88129655830562114715576171875">
        <ele>1967.4000244140625</ele>
        <time>2026-06-16T09:39:25.000Z</time>
        <extensions>
          <ns3:TrackPointExtension>
            <ns3:atemp>19.0</ns3:atemp>
          </ns3:TrackPointExtension>
        </extensions>
      </trkpt>
      <trkpt lat="42.61008127592504024505615234375" lon="19.88130561076104640960693359375">
        <ele>1967.5999755859375</ele>
        <time>2026-06-16T09:39:26.000Z</time>
        <extensions>
          <ns3:TrackPointExtension>
            <ns3:atemp>19.0</ns3:atemp>
          </ns3:TrackPointExtension>
        </extensions>
      </trkpt>
      <trkpt lat="42.6100811921060085296630859375" lon="19.88131265155971050262451171875">
        <ele>1967.800048828125</ele>
        <time>2026-06-16T09:39:27.000Z</time>
        <extensions>
          <ns3:TrackPointExtension>
            <ns3:atemp>19.0</ns3:atemp>
          </ns3:TrackPointExtension>
        </extensions>
      </trkpt>
      <trkpt lat="42.61007842607796192169189453125" lon="19.8813179321587085723876953125">
        <ele>1968</ele>
        <time>2026-06-16T09:39:28.000Z</time>
        <extensions>
          <ns3:TrackPointExtension>
            <ns3:atemp>19.0</ns3:atemp>
          </ns3:TrackPointExtension>
        </extensions>
      </trkpt>
      <trkpt lat="42.610076330602169036865234375" lon="19.881326816976070404052734375">
        <ele>1968.199951171875</ele>
        <time>2026-06-16T09:39:29.000Z</time>
        <extensions>
          <ns3:TrackPointExtension>
            <ns3:atemp>19.0</ns3:atemp>
          </ns3:TrackPointExtension>
        </extensions>
      </trkpt>
      <trkpt lat="42.61007624678313732147216796875" lon="19.8813323490321636199951171875">
        <ele>1968.4000244140625</ele>
        <time>2026-06-16T09:39:30.000Z</time>
        <extensions>
          <ns3:TrackPointExtension>
            <ns3:atemp>19.0</ns3:atemp>
          </ns3:TrackPointExtension>
        </extensions>
      </trkpt>
      <trkpt lat="42.610073648393154144287109375" lon="19.88134324550628662109375">
        <ele>1968.4000244140625</ele>
        <time>2026-06-16T09:39:31.000Z</time>
        <extensions>
          <ns3:TrackPointExtension>
            <ns3:atemp>19.0</ns3:atemp>
          </ns3:TrackPointExtension>
        </extensions>
      </trkpt>
      <trkpt lat="42.610068954527378082275390625" lon="19.881350956857204437255859375">
        <ele>1968.5999755859375</ele>
        <time>2026-06-16T09:39:32.000Z</time>
        <extensions>
          <ns3:TrackPointExtension>
            <ns3:atemp>19.0</ns3:atemp>
          </ns3:TrackPointExtension>
        </extensions>
      </trkpt>
      <trkpt lat="42.61006786487996578216552734375" lon="19.88135305233299732208251953125">
        <ele>1968.800048828125</ele>
        <time>2026-06-16T09:39:33.000Z</time>
        <extensions>
          <ns3:TrackPointExtension>
            <ns3:atemp>19.0</ns3:atemp>
          </ns3:TrackPointExtension>
        </extensions>
      </trkpt>
      <trkpt lat="42.6100654341280460357666015625" lon="19.88136042840778827667236328125">
        <ele>1969</ele>
        <time>2026-06-16T09:39:34.000Z</time>
        <extensions>
          <ns3:TrackPointExtension>
            <ns3:atemp>19.0</ns3:atemp>
          </ns3:TrackPointExtension>
        </extensions>
      </trkpt>
      <trkpt lat="42.61006266809999942779541015625" lon="19.881365709006786346435546875">
        <ele>1969</ele>
        <time>2026-06-16T09:39:35.000Z</time>
        <extensions>
          <ns3:TrackPointExtension>
            <ns3:atemp>19.0</ns3:atemp>
          </ns3:TrackPointExtension>
        </extensions>
      </trkpt>
      <trkpt lat="42.6100647635757923126220703125" lon="19.881365038454532623291015625">
        <ele>1969.199951171875</ele>
        <time>2026-06-16T09:39:36.000Z</time>
        <extensions>
          <ns3:TrackPointExtension>
            <ns3:atemp>19.0</ns3:atemp>
          </ns3:TrackPointExtension>
        </extensions>
      </trkpt>
      <trkpt lat="42.61006467975676059722900390625" lon="19.88136512227356433868408203125">
        <ele>1969.4000244140625</ele>
        <time>2026-06-16T09:39:37.000Z</time>
        <extensions>
          <ns3:TrackPointExtension>
            <ns3:atemp>19.0</ns3:atemp>
          </ns3:TrackPointExtension>
        </extensions>
      </trkpt>
      <trkpt lat="42.61006099171936511993408203125" lon="19.88137266598641872406005859375">
        <ele>1969.5999755859375</ele>
        <time>2026-06-16T09:39:38.000Z</time>
        <extensions>
          <ns3:TrackPointExtension>
            <ns3:atemp>19.0</ns3:atemp>
          </ns3:TrackPointExtension>
        </extensions>
      </trkpt>
      <trkpt lat="42.61005495674908161163330078125" lon="19.88138272427022457122802734375">
        <ele>1969.800048828125</ele>
        <time>2026-06-16T09:39:39.000Z</time>
        <extensions>
          <ns3:TrackPointExtension>
            <ns3:atemp>19.0</ns3:atemp>
          </ns3:TrackPointExtension>
        </extensions>
      </trkpt>
      <trkpt lat="42.61004975996911525726318359375" lon="19.8813916929066181182861328125">
        <ele>1970</ele>
        <time>2026-06-16T09:39:40.000Z</time>
        <extensions>
          <ns3:TrackPointExtension>
            <ns3:atemp>19.0</ns3:atemp>
          </ns3:TrackPointExtension>
        </extensions>
      </trkpt>
      <trkpt lat="42.61004783213138580322265625" lon="19.88140082918107509613037109375">
        <ele>1970</ele>
        <time>2026-06-16T09:39:41.000Z</time>
        <extensions>
          <ns3:TrackPointExtension>
            <ns3:atemp>19.0</ns3:atemp>
          </ns3:TrackPointExtension>
        </extensions>
      </trkpt>
      <trkpt lat="42.6100458204746246337890625" lon="19.8814064450562000274658203125">
        <ele>1970.199951171875</ele>
        <time>2026-06-16T09:39:42.000Z</time>
        <extensions>
          <ns3:TrackPointExtension>
            <ns3:atemp>19.0</ns3:atemp>
          </ns3:TrackPointExtension>
        </extensions>
      </trkpt>
      <trkpt lat="42.61004003696143627166748046875" lon="19.88141834735870361328125">
        <ele>1970.199951171875</ele>
        <time>2026-06-16T09:39:43.000Z</time>
        <extensions>
          <ns3:TrackPointExtension>
            <ns3:atemp>19.0</ns3:atemp>
          </ns3:TrackPointExtension>
        </extensions>
      </trkpt>
      <trkpt lat="42.61003416962921619415283203125" lon="19.8814265616238117218017578125">
        <ele>1970.4000244140625</ele>
        <time>2026-06-16T09:39:44.000Z</time>
        <extensions>
          <ns3:TrackPointExtension>
            <ns3:atemp>19.0</ns3:atemp>
          </ns3:TrackPointExtension>
        </extensions>
      </trkpt>
      <trkpt lat="42.61002746410667896270751953125" lon="19.88143485970795154571533203125">
        <ele>1970.5999755859375</ele>
        <time>2026-06-16T09:39:45.000Z</time>
        <extensions>
          <ns3:TrackPointExtension>
            <ns3:atemp>19.0</ns3:atemp>
          </ns3:TrackPointExtension>
        </extensions>
      </trkpt>
      <trkpt lat="42.610020674765110015869140625" lon="19.8814429901540279388427734375">
        <ele>1970.5999755859375</ele>
        <time>2026-06-16T09:39:46.000Z</time>
        <extensions>
          <ns3:TrackPointExtension>
            <ns3:atemp>19.0</ns3:atemp>
          </ns3:TrackPointExtension>
        </extensions>
      </trkpt>
      <trkpt lat="42.61001908220350742340087890625" lon="19.88144827075302600860595703125">
        <ele>1970.800048828125</ele>
        <time>2026-06-16T09:39:47.000Z</time>
        <extensions>
          <ns3:TrackPointExtension>
            <ns3:atemp>19.0</ns3:atemp>
          </ns3:TrackPointExtension>
        </extensions>
      </trkpt>
      <trkpt lat="42.61001623235642910003662109375" lon="19.8814510367810726165771484375">
        <ele>1971</ele>
        <time>2026-06-16T09:39:48.000Z</time>
        <extensions>
          <ns3:TrackPointExtension>
            <ns3:atemp>19.0</ns3:atemp>
          </ns3:TrackPointExtension>
        </extensions>
      </trkpt>
      <trkpt lat="42.6100136339664459228515625" lon="19.88145028240978717803955078125">
        <ele>1971</ele>
        <time>2026-06-16T09:39:49.000Z</time>
        <extensions>
          <ns3:TrackPointExtension>
            <ns3:atemp>19.0</ns3:atemp>
          </ns3:TrackPointExtension>
        </extensions>
      </trkpt>
      <trkpt lat="42.6100074313580989837646484375" lon="19.881453216075897216796875">
        <ele>1971.199951171875</ele>
        <time>2026-06-16T09:39:50.000Z</time>
        <extensions>
          <ns3:TrackPointExtension>
            <ns3:atemp>19.0</ns3:atemp>
          </ns3:TrackPointExtension>
        </extensions>
      </trkpt>
      <trkpt lat="42.61000365950167179107666015625" lon="19.88145631738007068634033203125">
        <ele>1971.4000244140625</ele>
        <time>2026-06-16T09:39:51.000Z</time>
        <extensions>
          <ns3:TrackPointExtension>
            <ns3:atemp>18.0</ns3:atemp>
          </ns3:TrackPointExtension>
        </extensions>
      </trkpt>
      <trkpt lat="42.610004581511020660400390625" lon="19.88145682029426097869873046875">
        <ele>1971.5999755859375</ele>
        <time>2026-06-16T09:39:52.000Z</time>
        <extensions>
          <ns3:TrackPointExtension>
            <ns3:atemp>18.0</ns3:atemp>
          </ns3:TrackPointExtension>
        </extensions>
      </trkpt>
      <trkpt lat="42.609998881816864013671875" lon="19.88146595656871795654296875">
        <ele>1971.800048828125</ele>
        <time>2026-06-16T09:39:53.000Z</time>
        <extensions>
          <ns3:TrackPointExtension>
            <ns3:atemp>19.0</ns3:atemp>
          </ns3:TrackPointExtension>
        </extensions>
      </trkpt>
      <trkpt lat="42.609996534883975982666015625" lon="19.88147073425352573394775390625">
        <ele>1972</ele>
        <time>2026-06-16T09:39:54.000Z</time>
        <extensions>
          <ns3:TrackPointExtension>
            <ns3:atemp>19.0</ns3:atemp>
          </ns3:TrackPointExtension>
        </extensions>
      </trkpt>
      <trkpt lat="42.609996534883975982666015625" lon="19.88147174008190631866455078125">
        <ele>1972</ele>
        <time>2026-06-16T09:39:55.000Z</time>
        <extensions>
          <ns3:TrackPointExtension>
            <ns3:atemp>19.0</ns3:atemp>
          </ns3:TrackPointExtension>
        </extensions>
      </trkpt>
      <trkpt lat="42.609996534883975982666015625" lon="19.88147174008190631866455078125">
        <ele>1972.199951171875</ele>
        <time>2026-06-16T09:39:56.000Z</time>
        <extensions>
          <ns3:TrackPointExtension>
            <ns3:atemp>19.0</ns3:atemp>
          </ns3:TrackPointExtension>
        </extensions>
      </trkpt>
      <trkpt lat="42.609996534883975982666015625" lon="19.88147174008190631866455078125">
        <ele>1972.4000244140625</ele>
        <time>2026-06-16T09:39:57.000Z</time>
        <extensions>
          <ns3:TrackPointExtension>
            <ns3:atemp>19.0</ns3:atemp>
          </ns3:TrackPointExtension>
        </extensions>
      </trkpt>
      <trkpt lat="42.609996534883975982666015625" lon="19.88147174008190631866455078125">
        <ele>1972.4000244140625</ele>
        <time>2026-06-16T09:39:58.000Z</time>
        <extensions>
          <ns3:TrackPointExtension>
            <ns3:atemp>18.0</ns3:atemp>
          </ns3:TrackPointExtension>
        </extensions>
      </trkpt>
      <trkpt lat="42.609996534883975982666015625" lon="19.88147174008190631866455078125">
        <ele>1972.5999755859375</ele>
        <time>2026-06-16T09:39:59.000Z</time>
        <extensions>
          <ns3:TrackPointExtension>
            <ns3:atemp>19.0</ns3:atemp>
          </ns3:TrackPointExtension>
        </extensions>
      </trkpt>
      <trkpt lat="42.609996534883975982666015625" lon="19.88147174008190631866455078125">
        <ele>1972.5999755859375</ele>
        <time>2026-06-16T09:40:00.000Z</time>
        <extensions>
          <ns3:TrackPointExtension>
            <ns3:atemp>19.0</ns3:atemp>
          </ns3:TrackPointExtension>
        </extensions>
      </trkpt>
      <trkpt lat="42.609996534883975982666015625" lon="19.88147199153900146484375">
        <ele>1972.5999755859375</ele>
        <time>2026-06-16T09:40:01.000Z</time>
        <extensions>
          <ns3:TrackPointExtension>
            <ns3:atemp>18.0</ns3:atemp>
          </ns3:TrackPointExtension>
        </extensions>
      </trkpt>
      <trkpt lat="42.60999326594173908233642578125" lon="19.88147878088057041168212890625">
        <ele>1972.5999755859375</ele>
        <time>2026-06-16T09:40:02.000Z</time>
        <extensions>
          <ns3:TrackPointExtension>
            <ns3:atemp>19.0</ns3:atemp>
          </ns3:TrackPointExtension>
        </extensions>
      </trkpt>
      <trkpt lat="42.60998739860951900482177734375" lon="19.881483726203441619873046875">
        <ele>1972.800048828125</ele>
        <time>2026-06-16T09:40:03.000Z</time>
        <extensions>
          <ns3:TrackPointExtension>
            <ns3:atemp>19.0</ns3:atemp>
          </ns3:TrackPointExtension>
        </extensions>
      </trkpt>
      <trkpt lat="42.60998102836310863494873046875" lon="19.88148473203182220458984375">
        <ele>1972.800048828125</ele>
        <time>2026-06-16T09:40:04.000Z</time>
        <extensions>
          <ns3:TrackPointExtension>
            <ns3:atemp>19.0</ns3:atemp>
          </ns3:TrackPointExtension>
        </extensions>
      </trkpt>
      <trkpt lat="42.609975747764110565185546875" lon="19.8814885877072811126708984375">
        <ele>1973</ele>
        <time>2026-06-16T09:40:05.000Z</time>
        <extensions>
          <ns3:TrackPointExtension>
            <ns3:atemp>19.0</ns3:atemp>
          </ns3:TrackPointExtension>
        </extensions>
      </trkpt>
      <trkpt lat="42.60997130535542964935302734375" lon="19.8814942874014377593994140625">
        <ele>1973</ele>
        <time>2026-06-16T09:40:06.000Z</time>
        <extensions>
          <ns3:TrackPointExtension>
            <ns3:atemp>19.0</ns3:atemp>
          </ns3:TrackPointExtension>
        </extensions>
      </trkpt>
      <trkpt lat="42.60996459983289241790771484375" lon="19.88149872981011867523193359375">
        <ele>1973.199951171875</ele>
        <time>2026-06-16T09:40:07.000Z</time>
        <extensions>
          <ns3:TrackPointExtension>
            <ns3:atemp>19.0</ns3:atemp>
          </ns3:TrackPointExtension>
        </extensions>
      </trkpt>
      <trkpt lat="42.60995839722454547882080078125" lon="19.88150216639041900634765625">
        <ele>1973.4000244140625</ele>
        <time>2026-06-16T09:40:08.000Z</time>
        <extensions>
          <ns3:TrackPointExtension>
            <ns3:atemp>19.0</ns3:atemp>
          </ns3:TrackPointExtension>
        </extensions>
      </trkpt>
      <trkpt lat="42.60995370335876941680908203125" lon="19.88150887191295623779296875">
        <ele>1973.5999755859375</ele>
        <time>2026-06-16T09:40:09.000Z</time>
        <extensions>
          <ns3:TrackPointExtension>
            <ns3:atemp>19.0</ns3:atemp>
          </ns3:TrackPointExtension>
        </extensions>
      </trkpt>
      <trkpt lat="42.60995035059750080108642578125" lon="19.8815093748271465301513671875">
        <ele>1973.800048828125</ele>
        <time>2026-06-16T09:40:10.000Z</time>
        <extensions>
          <ns3:TrackPointExtension>
            <ns3:atemp>19.0</ns3:atemp>
          </ns3:TrackPointExtension>
        </extensions>
      </trkpt>
      <trkpt lat="42.60994456708431243896484375" lon="19.8815117217600345611572265625">
        <ele>1974</ele>
        <time>2026-06-16T09:40:11.000Z</time>
        <extensions>
          <ns3:TrackPointExtension>
            <ns3:atemp>19.0</ns3:atemp>
          </ns3:TrackPointExtension>
        </extensions>
      </trkpt>
      <trkpt lat="42.60993995703756809234619140625" lon="19.88151314668357372283935546875">
        <ele>1974.199951171875</ele>
        <time>2026-06-16T09:40:12.000Z</time>
        <extensions>
          <ns3:TrackPointExtension>
            <ns3:atemp>19.0</ns3:atemp>
          </ns3:TrackPointExtension>
        </extensions>
      </trkpt>
      <trkpt lat="42.60993274860084056854248046875" lon="19.8815123923122882843017578125">
        <ele>1974.4000244140625</ele>
        <time>2026-06-16T09:40:13.000Z</time>
        <extensions>
          <ns3:TrackPointExtension>
            <ns3:atemp>19.0</ns3:atemp>
          </ns3:TrackPointExtension>
        </extensions>
      </trkpt>
      <trkpt lat="42.60992201976478099822998046875" lon="19.88151197321712970733642578125">
        <ele>1974.5999755859375</ele>
        <time>2026-06-16T09:40:14.000Z</time>
        <extensions>
          <ns3:TrackPointExtension>
            <ns3:atemp>19.0</ns3:atemp>
          </ns3:TrackPointExtension>
        </extensions>
      </trkpt>
      <trkpt lat="42.609912045300006866455078125" lon="19.88151214085519313812255859375">
        <ele>1974.800048828125</ele>
        <time>2026-06-16T09:40:15.000Z</time>
        <extensions>
          <ns3:TrackPointExtension>
            <ns3:atemp>18.0</ns3:atemp>
          </ns3:TrackPointExtension>
        </extensions>
      </trkpt>
      <trkpt lat="42.609903328120708465576171875" lon="19.88151415251195430755615234375">
        <ele>1975</ele>
        <time>2026-06-16T09:40:16.000Z</time>
        <extensions>
          <ns3:TrackPointExtension>
            <ns3:atemp>18.0</ns3:atemp>
          </ns3:TrackPointExtension>
        </extensions>
      </trkpt>
      <trkpt lat="42.60989737696945667266845703125" lon="19.88151230849325656890869140625">
        <ele>1975</ele>
        <time>2026-06-16T09:40:17.000Z</time>
        <extensions>
          <ns3:TrackPointExtension>
            <ns3:atemp>19.0</ns3:atemp>
          </ns3:TrackPointExtension>
        </extensions>
      </trkpt>
      <trkpt lat="42.609891258180141448974609375" lon="19.88151423633098602294921875">
        <ele>1975.199951171875</ele>
        <time>2026-06-16T09:40:18.000Z</time>
        <extensions>
          <ns3:TrackPointExtension>
            <ns3:atemp>18.0</ns3:atemp>
          </ns3:TrackPointExtension>
        </extensions>
      </trkpt>
      <trkpt lat="42.60988664813339710235595703125" lon="19.88151633180677890777587890625">
        <ele>1975.4000244140625</ele>
        <time>2026-06-16T09:40:19.000Z</time>
        <extensions>
          <ns3:TrackPointExtension>
            <ns3:atemp>18.0</ns3:atemp>
          </ns3:TrackPointExtension>
        </extensions>
      </trkpt>
      <trkpt lat="42.609886564314365386962890625" lon="19.88151633180677890777587890625">
        <ele>1975.5999755859375</ele>
        <time>2026-06-16T09:40:20.000Z</time>
        <extensions>
          <ns3:TrackPointExtension>
            <ns3:atemp>18.0</ns3:atemp>
          </ns3:TrackPointExtension>
        </extensions>
      </trkpt>
      <trkpt lat="42.609886564314365386962890625" lon="19.88151633180677890777587890625">
        <ele>1975.5999755859375</ele>
        <time>2026-06-16T09:40:21.000Z</time>
        <extensions>
          <ns3:TrackPointExtension>
            <ns3:atemp>19.0</ns3:atemp>
          </ns3:TrackPointExtension>
        </extensions>
      </trkpt>
      <trkpt lat="42.609886564314365386962890625" lon="19.88151633180677890777587890625">
        <ele>1975.800048828125</ele>
        <time>2026-06-16T09:40:22.000Z</time>
        <extensions>
          <ns3:TrackPointExtension>
            <ns3:atemp>19.0</ns3:atemp>
          </ns3:TrackPointExtension>
        </extensions>
      </trkpt>
      <trkpt lat="42.609886564314365386962890625" lon="19.88151633180677890777587890625">
        <ele>1975.800048828125</ele>
        <time>2026-06-16T09:40:23.000Z</time>
        <extensions>
          <ns3:TrackPointExtension>
            <ns3:atemp>19.0</ns3:atemp>
          </ns3:TrackPointExtension>
        </extensions>
      </trkpt>
      <trkpt lat="42.609886564314365386962890625" lon="19.88151633180677890777587890625">
        <ele>1975.800048828125</ele>
        <time>2026-06-16T09:40:24.000Z</time>
        <extensions>
          <ns3:TrackPointExtension>
            <ns3:atemp>18.0</ns3:atemp>
          </ns3:TrackPointExtension>
        </extensions>
      </trkpt>
      <trkpt lat="42.60988648049533367156982421875" lon="19.88151616416871547698974609375">
        <ele>1975.800048828125</ele>
        <time>2026-06-16T09:40:25.000Z</time>
        <extensions>
          <ns3:TrackPointExtension>
            <ns3:atemp>18.0</ns3:atemp>
          </ns3:TrackPointExtension>
        </extensions>
      </trkpt>
      <trkpt lat="42.60987994261085987091064453125" lon="19.88151423633098602294921875">
        <ele>1975.800048828125</ele>
        <time>2026-06-16T09:40:26.000Z</time>
        <extensions>
          <ns3:TrackPointExtension>
            <ns3:atemp>18.0</ns3:atemp>
          </ns3:TrackPointExtension>
        </extensions>
      </trkpt>
      <trkpt lat="42.60986812412738800048828125" lon="19.88151180557906627655029296875">
        <ele>1976</ele>
        <time>2026-06-16T09:40:27.000Z</time>
        <extensions>
          <ns3:TrackPointExtension>
            <ns3:atemp>18.0</ns3:atemp>
          </ns3:TrackPointExtension>
        </extensions>
      </trkpt>
      <trkpt lat="42.6098532043397426605224609375" lon="19.88150292076170444488525390625">
        <ele>1976</ele>
        <time>2026-06-16T09:40:28.000Z</time>
        <extensions>
          <ns3:TrackPointExtension>
            <ns3:atemp>18.0</ns3:atemp>
          </ns3:TrackPointExtension>
        </extensions>
      </trkpt>
      <trkpt lat="42.6098337583243846893310546875" lon="19.8814932815730571746826171875">
        <ele>1976</ele>
        <time>2026-06-16T09:40:29.000Z</time>
        <extensions>
          <ns3:TrackPointExtension>
            <ns3:atemp>18.0</ns3:atemp>
          </ns3:TrackPointExtension>
        </extensions>
      </trkpt>
      <trkpt lat="42.60981724597513675689697265625" lon="19.881484396755695343017578125">
        <ele>1976.199951171875</ele>
        <time>2026-06-16T09:40:30.000Z</time>
        <extensions>
          <ns3:TrackPointExtension>
            <ns3:atemp>18.0</ns3:atemp>
          </ns3:TrackPointExtension>
        </extensions>
      </trkpt>
      <trkpt lat="42.60979813523590564727783203125" lon="19.88148800097405910491943359375">
        <ele>1976.4000244140625</ele>
        <time>2026-06-16T09:40:31.000Z</time>
        <extensions>
          <ns3:TrackPointExtension>
            <ns3:atemp>18.0</ns3:atemp>
          </ns3:TrackPointExtension>
        </extensions>
      </trkpt>
      <trkpt lat="42.6097794435918331146240234375" lon="19.8815001547336578369140625">
        <ele>1976.4000244140625</ele>
        <time>2026-06-16T09:40:32.000Z</time>
        <extensions>
          <ns3:TrackPointExtension>
            <ns3:atemp>18.0</ns3:atemp>
          </ns3:TrackPointExtension>
        </extensions>
      </trkpt>
      <trkpt lat="42.6097610034048557281494140625" lon="19.88150275312364101409912109375">
        <ele>1976.5999755859375</ele>
        <time>2026-06-16T09:40:33.000Z</time>
        <extensions>
          <ns3:TrackPointExtension>
            <ns3:atemp>18.0</ns3:atemp>
          </ns3:TrackPointExtension>
        </extensions>
      </trkpt>
      <trkpt lat="42.6097422279417514801025390625" lon="19.88149755634367465972900390625">
        <ele>1977</ele>
        <time>2026-06-16T09:40:34.000Z</time>
        <extensions>
          <ns3:TrackPointExtension>
            <ns3:atemp>18.0</ns3:atemp>
          </ns3:TrackPointExtension>
        </extensions>
      </trkpt>
      <trkpt lat="42.60972755961120128631591796875" lon="19.88149135373532772064208984375">
        <ele>1977.199951171875</ele>
        <time>2026-06-16T09:40:35.000Z</time>
        <extensions>
          <ns3:TrackPointExtension>
            <ns3:atemp>18.0</ns3:atemp>
          </ns3:TrackPointExtension>
        </extensions>
      </trkpt>
      <trkpt lat="42.6097090356051921844482421875" lon="19.88149202428758144378662109375">
        <ele>1977.5999755859375</ele>
        <time>2026-06-16T09:40:36.000Z</time>
        <extensions>
          <ns3:TrackPointExtension>
            <ns3:atemp>18.0</ns3:atemp>
          </ns3:TrackPointExtension>
        </extensions>
      </trkpt>
      <trkpt lat="42.6096879132091999053955078125" lon="19.8814993165433406829833984375">
        <ele>1978</ele>
        <time>2026-06-16T09:40:37.000Z</time>
        <extensions>
          <ns3:TrackPointExtension>
            <ns3:atemp>18.0</ns3:atemp>
          </ns3:TrackPointExtension>
        </extensions>
      </trkpt>
      <trkpt lat="42.60967005975544452667236328125" lon="19.88149504177272319793701171875">
        <ele>1978.199951171875</ele>
        <time>2026-06-16T09:40:38.000Z</time>
        <extensions>
          <ns3:TrackPointExtension>
            <ns3:atemp>18.0</ns3:atemp>
          </ns3:TrackPointExtension>
        </extensions>
      </trkpt>
      <trkpt lat="42.60965287685394287109375" lon="19.88148917444050312042236328125">
        <ele>1978.5999755859375</ele>
        <time>2026-06-16T09:40:39.000Z</time>
        <extensions>
          <ns3:TrackPointExtension>
            <ns3:atemp>18.0</ns3:atemp>
          </ns3:TrackPointExtension>
        </extensions>
      </trkpt>
      <trkpt lat="42.60963602922856807708740234375" lon="19.88148146308958530426025390625">
        <ele>1978.800048828125</ele>
        <time>2026-06-16T09:40:40.000Z</time>
        <extensions>
          <ns3:TrackPointExtension>
            <ns3:atemp>18.0</ns3:atemp>
          </ns3:TrackPointExtension>
        </extensions>
      </trkpt>
      <trkpt lat="42.60961867868900299072265625" lon="19.88147132098674774169921875">
        <ele>1979.199951171875</ele>
        <time>2026-06-16T09:40:41.000Z</time>
        <extensions>
          <ns3:TrackPointExtension>
            <ns3:atemp>18.0</ns3:atemp>
          </ns3:TrackPointExtension>
        </extensions>
      </trkpt>
      <trkpt lat="42.609599567949771881103515625" lon="19.8814621008932590484619140625">
        <ele>1979.5999755859375</ele>
        <time>2026-06-16T09:40:42.000Z</time>
        <extensions>
          <ns3:TrackPointExtension>
            <ns3:atemp>18.0</ns3:atemp>
          </ns3:TrackPointExtension>
        </extensions>
      </trkpt>
      <trkpt lat="42.609578780829906463623046875" lon="19.881450198590755462646484375">
        <ele>1979.800048828125</ele>
        <time>2026-06-16T09:40:43.000Z</time>
        <extensions>
          <ns3:TrackPointExtension>
            <ns3:atemp>18.0</ns3:atemp>
          </ns3:TrackPointExtension>
        </extensions>
      </trkpt>
      <trkpt lat="42.60956126265227794647216796875" lon="19.881442822515964508056640625">
        <ele>1980</ele>
        <time>2026-06-16T09:40:44.000Z</time>
        <extensions>
          <ns3:TrackPointExtension>
            <ns3:atemp>18.0</ns3:atemp>
          </ns3:TrackPointExtension>
        </extensions>
      </trkpt>
      <trkpt lat="42.60953980498015880584716796875" lon="19.8814465105533599853515625">
        <ele>1980.199951171875</ele>
        <time>2026-06-16T09:40:45.000Z</time>
        <extensions>
          <ns3:TrackPointExtension>
            <ns3:atemp>18.0</ns3:atemp>
          </ns3:TrackPointExtension>
        </extensions>
      </trkpt>
      <trkpt lat="42.60951952077448368072509765625" lon="19.8814463429152965545654296875">
        <ele>1980.4000244140625</ele>
        <time>2026-06-16T09:40:46.000Z</time>
        <extensions>
          <ns3:TrackPointExtension>
            <ns3:atemp>18.0</ns3:atemp>
          </ns3:TrackPointExtension>
        </extensions>
      </trkpt>
      <trkpt lat="42.60950200259685516357421875" lon="19.88144718110561370849609375">
        <ele>1980.800048828125</ele>
        <time>2026-06-16T09:40:47.000Z</time>
        <extensions>
          <ns3:TrackPointExtension>
            <ns3:atemp>18.0</ns3:atemp>
          </ns3:TrackPointExtension>
        </extensions>
      </trkpt>
      <trkpt lat="42.60948649607598781585693359375" lon="19.8814446665346622467041015625">
        <ele>1981</ele>
        <time>2026-06-16T09:40:48.000Z</time>
        <extensions>
          <ns3:TrackPointExtension>
            <ns3:atemp>18.0</ns3:atemp>
          </ns3:TrackPointExtension>
        </extensions>
      </trkpt>
      <trkpt lat="42.609469480812549591064453125" lon="19.88144039176404476165771484375">
        <ele>1981.199951171875</ele>
        <time>2026-06-16T09:40:49.000Z</time>
        <extensions>
          <ns3:TrackPointExtension>
            <ns3:atemp>18.0</ns3:atemp>
          </ns3:TrackPointExtension>
        </extensions>
      </trkpt>
      <trkpt lat="42.60945548303425312042236328125" lon="19.881428070366382598876953125">
        <ele>1981.199951171875</ele>
        <time>2026-06-16T09:40:50.000Z</time>
        <extensions>
          <ns3:TrackPointExtension>
            <ns3:atemp>18.0</ns3:atemp>
          </ns3:TrackPointExtension>
        </extensions>
      </trkpt>
      <trkpt lat="42.6094398088753223419189453125" lon="19.881415665149688720703125">
        <ele>1981.4000244140625</ele>
        <time>2026-06-16T09:40:51.000Z</time>
        <extensions>
          <ns3:TrackPointExtension>
            <ns3:atemp>18.0</ns3:atemp>
          </ns3:TrackPointExtension>
        </extensions>
      </trkpt>
      <trkpt lat="42.60941843502223491668701171875" lon="19.88140619359910488128662109375">
        <ele>1981.4000244140625</ele>
        <time>2026-06-16T09:40:52.000Z</time>
        <extensions>
          <ns3:TrackPointExtension>
            <ns3:atemp>18.0</ns3:atemp>
          </ns3:TrackPointExtension>
        </extensions>
      </trkpt>
      <trkpt lat="42.60939873754978179931640625" lon="19.88140200264751911163330078125">
        <ele>1981.5999755859375</ele>
        <time>2026-06-16T09:40:53.000Z</time>
        <extensions>
          <ns3:TrackPointExtension>
            <ns3:atemp>18.0</ns3:atemp>
          </ns3:TrackPointExtension>
        </extensions>
      </trkpt>
      <trkpt lat="42.609378956258296966552734375" lon="19.88139948807656764984130859375">
        <ele>1981.5999755859375</ele>
        <time>2026-06-16T09:40:54.000Z</time>
        <extensions>
          <ns3:TrackPointExtension>
            <ns3:atemp>18.0</ns3:atemp>
          </ns3:TrackPointExtension>
        </extensions>
      </trkpt>
      <trkpt lat="42.609360516071319580078125" lon="19.88139714114367961883544921875">
        <ele>1981.800048828125</ele>
        <time>2026-06-16T09:40:55.000Z</time>
        <extensions>
          <ns3:TrackPointExtension>
            <ns3:atemp>18.0</ns3:atemp>
          </ns3:TrackPointExtension>
        </extensions>
      </trkpt>
      <trkpt lat="42.6093430817127227783203125" lon="19.88139596767723560333251953125">
        <ele>1981.800048828125</ele>
        <time>2026-06-16T09:40:56.000Z</time>
        <extensions>
          <ns3:TrackPointExtension>
            <ns3:atemp>18.0</ns3:atemp>
          </ns3:TrackPointExtension>
        </extensions>
      </trkpt>
      <trkpt lat="42.6093256473541259765625" lon="19.88139378838241100311279296875">
        <ele>1982</ele>
        <time>2026-06-16T09:40:57.000Z</time>
        <extensions>
          <ns3:TrackPointExtension>
            <ns3:atemp>18.0</ns3:atemp>
          </ns3:TrackPointExtension>
        </extensions>
      </trkpt>
      <trkpt lat="42.609307207167148590087890625" lon="19.88139026798307895660400390625">
        <ele>1982</ele>
        <time>2026-06-16T09:40:58.000Z</time>
        <extensions>
          <ns3:TrackPointExtension>
            <ns3:atemp>18.0</ns3:atemp>
          </ns3:TrackPointExtension>
        </extensions>
      </trkpt>
      <trkpt lat="42.60929304175078868865966796875" lon="19.8813829757273197174072265625">
        <ele>1982.199951171875</ele>
        <time>2026-06-16T09:40:59.000Z</time>
        <extensions>
          <ns3:TrackPointExtension>
            <ns3:atemp>18.0</ns3:atemp>
          </ns3:TrackPointExtension>
        </extensions>
      </trkpt>
      <trkpt lat="42.609275691211223602294921875" lon="19.881383813917636871337890625">
        <ele>1982.199951171875</ele>
        <time>2026-06-16T09:41:00.000Z</time>
        <extensions>
          <ns3:TrackPointExtension>
            <ns3:atemp>18.0</ns3:atemp>
          </ns3:TrackPointExtension>
        </extensions>
      </trkpt>
      <trkpt lat="42.60925901122391223907470703125" lon="19.88138641230762004852294921875">
        <ele>1982.4000244140625</ele>
        <time>2026-06-16T09:41:01.000Z</time>
        <extensions>
          <ns3:TrackPointExtension>
            <ns3:atemp>18.0</ns3:atemp>
          </ns3:TrackPointExtension>
        </extensions>
      </trkpt>
      <trkpt lat="42.60924006812274456024169921875" lon="19.8813915252685546875">
        <ele>1982.4000244140625</ele>
        <time>2026-06-16T09:41:02.000Z</time>
        <extensions>
          <ns3:TrackPointExtension>
            <ns3:atemp>18.0</ns3:atemp>
          </ns3:TrackPointExtension>
        </extensions>
      </trkpt>
      <trkpt lat="42.60922129265964031219482421875" lon="19.8814024217426776885986328125">
        <ele>1982.4000244140625</ele>
        <time>2026-06-16T09:41:03.000Z</time>
        <extensions>
          <ns3:TrackPointExtension>
            <ns3:atemp>18.0</ns3:atemp>
          </ns3:TrackPointExtension>
        </extensions>
      </trkpt>
      <trkpt lat="42.60920486412942409515380859375" lon="19.88141289912164211273193359375">
        <ele>1982.5999755859375</ele>
        <time>2026-06-16T09:41:04.000Z</time>
        <extensions>
          <ns3:TrackPointExtension>
            <ns3:atemp>18.0</ns3:atemp>
          </ns3:TrackPointExtension>
        </extensions>
      </trkpt>
      <trkpt lat="42.6091937161982059478759765625" lon="19.88142572343349456787109375">
        <ele>1982.5999755859375</ele>
        <time>2026-06-16T09:41:05.000Z</time>
        <extensions>
          <ns3:TrackPointExtension>
            <ns3:atemp>18.0</ns3:atemp>
          </ns3:TrackPointExtension>
        </extensions>
      </trkpt>
      <trkpt lat="42.609178125858306884765625" lon="19.8814376257359981536865234375">
        <ele>1982.5999755859375</ele>
        <time>2026-06-16T09:41:06.000Z</time>
        <extensions>
          <ns3:TrackPointExtension>
            <ns3:atemp>18.0</ns3:atemp>
          </ns3:TrackPointExtension>
        </extensions>
      </trkpt>
      <trkpt lat="42.60915909893810749053955078125" lon="19.881442822515964508056640625">
        <ele>1982.800048828125</ele>
        <time>2026-06-16T09:41:07.000Z</time>
        <extensions>
          <ns3:TrackPointExtension>
            <ns3:atemp>18.0</ns3:atemp>
          </ns3:TrackPointExtension>
        </extensions>
      </trkpt>
      <trkpt lat="42.60913998819887638092041015625" lon="19.881451539695262908935546875">
        <ele>1982.800048828125</ele>
        <time>2026-06-16T09:41:08.000Z</time>
        <extensions>
          <ns3:TrackPointExtension>
            <ns3:atemp>18.0</ns3:atemp>
          </ns3:TrackPointExtension>
        </extensions>
      </trkpt>
      <trkpt lat="42.60912104509770870208740234375" lon="19.8814614303410053253173828125">
        <ele>1983</ele>
        <time>2026-06-16T09:41:09.000Z</time>
        <extensions>
          <ns3:TrackPointExtension>
            <ns3:atemp>18.0</ns3:atemp>
          </ns3:TrackPointExtension>
        </extensions>
      </trkpt>
      <trkpt lat="42.6091016829013824462890625" lon="19.8814751766622066497802734375">
        <ele>1983</ele>
        <time>2026-06-16T09:41:10.000Z</time>
        <extensions>
          <ns3:TrackPointExtension>
            <ns3:atemp>18.0</ns3:atemp>
          </ns3:TrackPointExtension>
        </extensions>
      </trkpt>
      <trkpt lat="42.609084583818912506103515625" lon="19.8814845643937587738037109375">
        <ele>1983.199951171875</ele>
        <time>2026-06-16T09:41:11.000Z</time>
        <extensions>
          <ns3:TrackPointExtension>
            <ns3:atemp>18.0</ns3:atemp>
          </ns3:TrackPointExtension>
        </extensions>
      </trkpt>
      <trkpt lat="42.6090668141841888427734375" lon="19.88149336539208889007568359375">
        <ele>1983.4000244140625</ele>
        <time>2026-06-16T09:41:12.000Z</time>
        <extensions>
          <ns3:TrackPointExtension>
            <ns3:atemp>18.0</ns3:atemp>
          </ns3:TrackPointExtension>
        </extensions>
      </trkpt>
      <trkpt lat="42.60904929600656032562255859375" lon="19.88150426186621189117431640625">
        <ele>1983.4000244140625</ele>
        <time>2026-06-16T09:41:13.000Z</time>
        <extensions>
          <ns3:TrackPointExtension>
            <ns3:atemp>18.0</ns3:atemp>
          </ns3:TrackPointExtension>
        </extensions>
      </trkpt>
      <trkpt lat="42.609036974608898162841796875" lon="19.88151264376938343048095703125">
        <ele>1983.5999755859375</ele>
        <time>2026-06-16T09:41:14.000Z</time>
        <extensions>
          <ns3:TrackPointExtension>
            <ns3:atemp>18.0</ns3:atemp>
          </ns3:TrackPointExtension>
        </extensions>
      </trkpt>
      <trkpt lat="42.6090240664780139923095703125" lon="19.88151951692998409271240234375">
        <ele>1983.5999755859375</ele>
        <time>2026-06-16T09:41:15.000Z</time>
        <extensions>
          <ns3:TrackPointExtension>
            <ns3:atemp>18.0</ns3:atemp>
          </ns3:TrackPointExtension>
        </extensions>
      </trkpt>
      <trkpt lat="42.6090076379477977752685546875" lon="19.88152739591896533966064453125">
        <ele>1983.5999755859375</ele>
        <time>2026-06-16T09:41:16.000Z</time>
        <extensions>
          <ns3:TrackPointExtension>
            <ns3:atemp>18.0</ns3:atemp>
          </ns3:TrackPointExtension>
        </extensions>
      </trkpt>
      <trkpt lat="42.6089895330369472503662109375" lon="19.88153343088924884796142578125">
        <ele>1983.5999755859375</ele>
        <time>2026-06-16T09:41:17.000Z</time>
        <extensions>
          <ns3:TrackPointExtension>
            <ns3:atemp>18.0</ns3:atemp>
          </ns3:TrackPointExtension>
        </extensions>
      </trkpt>
      <trkpt lat="42.60897218249738216400146484375" lon="19.88153879530727863311767578125">
        <ele>1983.5999755859375</ele>
        <time>2026-06-16T09:41:18.000Z</time>
        <extensions>
          <ns3:TrackPointExtension>
            <ns3:atemp>18.0</ns3:atemp>
          </ns3:TrackPointExtension>
        </extensions>
      </trkpt>
      <trkpt lat="42.60895659215748310089111328125" lon="19.881546758115291595458984375">
        <ele>1983.5999755859375</ele>
        <time>2026-06-16T09:41:19.000Z</time>
        <extensions>
          <ns3:TrackPointExtension>
            <ns3:atemp>18.0</ns3:atemp>
          </ns3:TrackPointExtension>
        </extensions>
      </trkpt>
      <trkpt lat="42.60894351638853549957275390625" lon="19.88155312836170196533203125">
        <ele>1983.5999755859375</ele>
        <time>2026-06-16T09:41:20.000Z</time>
        <extensions>
          <ns3:TrackPointExtension>
            <ns3:atemp>18.0</ns3:atemp>
          </ns3:TrackPointExtension>
        </extensions>
      </trkpt>
      <trkpt lat="42.60892658494412899017333984375" lon="19.881562851369380950927734375">
        <ele>1983.5999755859375</ele>
        <time>2026-06-16T09:41:21.000Z</time>
        <extensions>
          <ns3:TrackPointExtension>
            <ns3:atemp>18.0</ns3:atemp>
          </ns3:TrackPointExtension>
        </extensions>
      </trkpt>
      <trkpt lat="42.6089083962142467498779296875" lon="19.8815693892538547515869140625">
        <ele>1983.5999755859375</ele>
        <time>2026-06-16T09:41:22.000Z</time>
        <extensions>
          <ns3:TrackPointExtension>
            <ns3:atemp>18.0</ns3:atemp>
          </ns3:TrackPointExtension>
        </extensions>
      </trkpt>
      <trkpt lat="42.608894817531108856201171875" lon="19.88158003427088260650634765625">
        <ele>1983.5999755859375</ele>
        <time>2026-06-16T09:41:23.000Z</time>
        <extensions>
          <ns3:TrackPointExtension>
            <ns3:atemp>18.0</ns3:atemp>
          </ns3:TrackPointExtension>
        </extensions>
      </trkpt>
      <trkpt lat="42.60888350196182727813720703125" lon="19.88158640451729297637939453125">
        <ele>1983.5999755859375</ele>
        <time>2026-06-16T09:41:24.000Z</time>
        <extensions>
          <ns3:TrackPointExtension>
            <ns3:atemp>18.0</ns3:atemp>
          </ns3:TrackPointExtension>
        </extensions>
      </trkpt>
      <trkpt lat="42.60887025855481624603271484375" lon="19.881595037877559661865234375">
        <ele>1983.5999755859375</ele>
        <time>2026-06-16T09:41:25.000Z</time>
        <extensions>
          <ns3:TrackPointExtension>
            <ns3:atemp>18.0</ns3:atemp>
          </ns3:TrackPointExtension>
        </extensions>
      </trkpt>
      <trkpt lat="42.60885617695748805999755859375" lon="19.88160484470427036285400390625">
        <ele>1983.800048828125</ele>
        <time>2026-06-16T09:41:26.000Z</time>
        <extensions>
          <ns3:TrackPointExtension>
            <ns3:atemp>18.0</ns3:atemp>
          </ns3:TrackPointExtension>
        </extensions>
      </trkpt>
      <trkpt lat="42.60884410701692104339599609375" lon="19.8816149868071079254150390625">
        <ele>1983.800048828125</ele>
        <time>2026-06-16T09:41:27.000Z</time>
        <extensions>
          <ns3:TrackPointExtension>
            <ns3:atemp>18.0</ns3:atemp>
          </ns3:TrackPointExtension>
        </extensions>
      </trkpt>
      <trkpt lat="42.60883086360991001129150390625" lon="19.8816240392625331878662109375">
        <ele>1983.800048828125</ele>
        <time>2026-06-16T09:41:28.000Z</time>
        <extensions>
          <ns3:TrackPointExtension>
            <ns3:atemp>18.0</ns3:atemp>
          </ns3:TrackPointExtension>
        </extensions>
      </trkpt>
      <trkpt lat="42.60881493799388408660888671875" lon="19.881632588803768157958984375">
        <ele>1983.800048828125</ele>
        <time>2026-06-16T09:41:29.000Z</time>
        <extensions>
          <ns3:TrackPointExtension>
            <ns3:atemp>18.0</ns3:atemp>
          </ns3:TrackPointExtension>
        </extensions>
      </trkpt>
      <trkpt lat="42.60880018584430217742919921875" lon="19.881644658744335174560546875">
        <ele>1983.800048828125</ele>
        <time>2026-06-16T09:41:30.000Z</time>
        <extensions>
          <ns3:TrackPointExtension>
            <ns3:atemp>18.0</ns3:atemp>
          </ns3:TrackPointExtension>
        </extensions>
      </trkpt>
      <trkpt lat="42.60878426022827625274658203125" lon="19.881654717028141021728515625">
        <ele>1984</ele>
        <time>2026-06-16T09:41:31.000Z</time>
        <extensions>
          <ns3:TrackPointExtension>
            <ns3:atemp>18.0</ns3:atemp>
          </ns3:TrackPointExtension>
        </extensions>
      </trkpt>
      <trkpt lat="42.60876984335482120513916015625" lon="19.8816669546067714691162109375">
        <ele>1984</ele>
        <time>2026-06-16T09:41:32.000Z</time>
        <extensions>
          <ns3:TrackPointExtension>
            <ns3:atemp>18.0</ns3:atemp>
          </ns3:TrackPointExtension>
        </extensions>
      </trkpt>
      <trkpt lat="42.60875492356717586517333984375" lon="19.88168296404182910919189453125">
        <ele>1984</ele>
        <time>2026-06-16T09:41:33.000Z</time>
        <extensions>
          <ns3:TrackPointExtension>
            <ns3:atemp>18.0</ns3:atemp>
          </ns3:TrackPointExtension>
        </extensions>
      </trkpt>
      <trkpt lat="42.60874385945498943328857421875" lon="19.881696291267871856689453125">
        <ele>1984.199951171875</ele>
        <time>2026-06-16T09:41:34.000Z</time>
        <extensions>
          <ns3:TrackPointExtension>
            <ns3:atemp>18.0</ns3:atemp>
          </ns3:TrackPointExtension>
        </extensions>
      </trkpt>
      <trkpt lat="42.60873246006667613983154296875" lon="19.88170810975134372711181640625">
        <ele>1984.199951171875</ele>
        <time>2026-06-16T09:41:35.000Z</time>
        <extensions>
          <ns3:TrackPointExtension>
            <ns3:atemp>18.0</ns3:atemp>
          </ns3:TrackPointExtension>
        </extensions>
      </trkpt>
      <trkpt lat="42.60871921665966510772705078125" lon="19.88171917386353015899658203125">
        <ele>1984.199951171875</ele>
        <time>2026-06-16T09:41:36.000Z</time>
        <extensions>
          <ns3:TrackPointExtension>
            <ns3:atemp>18.0</ns3:atemp>
          </ns3:TrackPointExtension>
        </extensions>
      </trkpt>
      <trkpt lat="42.60870681144297122955322265625" lon="19.8817309923470020294189453125">
        <ele>1984.4000244140625</ele>
        <time>2026-06-16T09:41:37.000Z</time>
        <extensions>
          <ns3:TrackPointExtension>
            <ns3:atemp>18.0</ns3:atemp>
          </ns3:TrackPointExtension>
        </extensions>
      </trkpt>
      <trkpt lat="42.6086961664259433746337890625" lon="19.88174415193498134613037109375">
        <ele>1984.4000244140625</ele>
        <time>2026-06-16T09:41:38.000Z</time>
        <extensions>
          <ns3:TrackPointExtension>
            <ns3:atemp>18.0</ns3:atemp>
          </ns3:TrackPointExtension>
        </extensions>
      </trkpt>
      <trkpt lat="42.6086817495524883270263671875" lon="19.8817594908177852630615234375">
        <ele>1984.4000244140625</ele>
        <time>2026-06-16T09:41:39.000Z</time>
        <extensions>
          <ns3:TrackPointExtension>
            <ns3:atemp>18.0</ns3:atemp>
          </ns3:TrackPointExtension>
        </extensions>
      </trkpt>
      <trkpt lat="42.60867328383028507232666015625" lon="19.8817749135196208953857421875">
        <ele>1984.4000244140625</ele>
        <time>2026-06-16T09:41:40.000Z</time>
        <extensions>
          <ns3:TrackPointExtension>
            <ns3:atemp>18.0</ns3:atemp>
          </ns3:TrackPointExtension>
        </extensions>
      </trkpt>
      <trkpt lat="42.60866456665098667144775390625" lon="19.8817883245646953582763671875">
        <ele>1984.4000244140625</ele>
        <time>2026-06-16T09:41:41.000Z</time>
        <extensions>
          <ns3:TrackPointExtension>
            <ns3:atemp>18.0</ns3:atemp>
          </ns3:TrackPointExtension>
        </extensions>
      </trkpt>
      <trkpt lat="42.6086569391191005706787109375" lon="19.88180123269557952880859375">
        <ele>1984.5999755859375</ele>
        <time>2026-06-16T09:41:42.000Z</time>
        <extensions>
          <ns3:TrackPointExtension>
            <ns3:atemp>18.0</ns3:atemp>
          </ns3:TrackPointExtension>
        </extensions>
      </trkpt>
      <trkpt lat="42.60864897631108760833740234375" lon="19.8818161524832248687744140625">
        <ele>1984.5999755859375</ele>
        <time>2026-06-16T09:41:43.000Z</time>
        <extensions>
          <ns3:TrackPointExtension>
            <ns3:atemp>18.0</ns3:atemp>
          </ns3:TrackPointExtension>
        </extensions>
      </trkpt>
      <trkpt lat="42.6086398400366306304931640625" lon="19.88182981498539447784423828125">
        <ele>1984.5999755859375</ele>
        <time>2026-06-16T09:41:44.000Z</time>
        <extensions>
          <ns3:TrackPointExtension>
            <ns3:atemp>18.0</ns3:atemp>
          </ns3:TrackPointExtension>
        </extensions>
      </trkpt>
      <trkpt lat="42.60863388888537883758544921875" lon="19.8818456567823886871337890625">
        <ele>1984.5999755859375</ele>
        <time>2026-06-16T09:41:45.000Z</time>
        <extensions>
          <ns3:TrackPointExtension>
            <ns3:atemp>18.0</ns3:atemp>
          </ns3:TrackPointExtension>
        </extensions>
      </trkpt>
      <trkpt lat="42.60862626135349273681640625" lon="19.8818644322454929351806640625">
        <ele>1984.5999755859375</ele>
        <time>2026-06-16T09:41:46.000Z</time>
        <extensions>
          <ns3:TrackPointExtension>
            <ns3:atemp>18.0</ns3:atemp>
          </ns3:TrackPointExtension>
        </extensions>
      </trkpt>
      <trkpt lat="42.608619220554828643798828125" lon="19.881884716451168060302734375">
        <ele>1984.5999755859375</ele>
        <time>2026-06-16T09:41:47.000Z</time>
        <extensions>
          <ns3:TrackPointExtension>
            <ns3:atemp>18.0</ns3:atemp>
          </ns3:TrackPointExtension>
        </extensions>
      </trkpt>
      <trkpt lat="42.6086163707077503204345703125" lon="19.88190424628555774688720703125">
        <ele>1984.800048828125</ele>
        <time>2026-06-16T09:41:48.000Z</time>
        <extensions>
          <ns3:TrackPointExtension>
            <ns3:atemp>18.0</ns3:atemp>
          </ns3:TrackPointExtension>
        </extensions>
      </trkpt>
      <trkpt lat="42.608616538345813751220703125" lon="19.881924949586391448974609375">
        <ele>1984.800048828125</ele>
        <time>2026-06-16T09:41:49.000Z</time>
        <extensions>
          <ns3:TrackPointExtension>
            <ns3:atemp>18.0</ns3:atemp>
          </ns3:TrackPointExtension>
        </extensions>
      </trkpt>
      <trkpt lat="42.60861159302294254302978515625" lon="19.88194447942078113555908203125">
        <ele>1985</ele>
        <time>2026-06-16T09:41:50.000Z</time>
        <extensions>
          <ns3:TrackPointExtension>
            <ns3:atemp>18.0</ns3:atemp>
          </ns3:TrackPointExtension>
        </extensions>
      </trkpt>
      <trkpt lat="42.6086043007671833038330078125" lon="19.8819650150835514068603515625">
        <ele>1985.199951171875</ele>
        <time>2026-06-16T09:41:51.000Z</time>
        <extensions>
          <ns3:TrackPointExtension>
            <ns3:atemp>18.0</ns3:atemp>
          </ns3:TrackPointExtension>
        </extensions>
      </trkpt>
      <trkpt lat="42.60859700851142406463623046875" lon="19.8819834552705287933349609375">
        <ele>1985.4000244140625</ele>
        <time>2026-06-16T09:41:52.000Z</time>
        <extensions>
          <ns3:TrackPointExtension>
            <ns3:atemp>18.0</ns3:atemp>
          </ns3:TrackPointExtension>
        </extensions>
      </trkpt>
      <trkpt lat="42.6085912249982357025146484375" lon="19.88200264982879161834716796875">
        <ele>1985.800048828125</ele>
        <time>2026-06-16T09:41:53.000Z</time>
        <extensions>
          <ns3:TrackPointExtension>
            <ns3:atemp>18.0</ns3:atemp>
          </ns3:TrackPointExtension>
        </extensions>
      </trkpt>
      <trkpt lat="42.60858963243663311004638671875" lon="19.882019497454166412353515625">
        <ele>1986.199951171875</ele>
        <time>2026-06-16T09:41:54.000Z</time>
        <extensions>
          <ns3:TrackPointExtension>
            <ns3:atemp>18.0</ns3:atemp>
          </ns3:TrackPointExtension>
        </extensions>
      </trkpt>
      <trkpt lat="42.60858845897018909454345703125" lon="19.88203953020274639129638671875">
        <ele>1986.5999755859375</ele>
        <time>2026-06-16T09:41:55.000Z</time>
        <extensions>
          <ns3:TrackPointExtension>
            <ns3:atemp>18.0</ns3:atemp>
          </ns3:TrackPointExtension>
        </extensions>
      </trkpt>
      <trkpt lat="42.608578987419605255126953125" lon="19.88205713219940662384033203125">
        <ele>1987.199951171875</ele>
        <time>2026-06-16T09:41:56.000Z</time>
        <extensions>
          <ns3:TrackPointExtension>
            <ns3:atemp>18.0</ns3:atemp>
          </ns3:TrackPointExtension>
        </extensions>
      </trkpt>
      <trkpt lat="42.60856498964130878448486328125" lon="19.88206450827419757843017578125">
        <ele>1987.5999755859375</ele>
        <time>2026-06-16T09:41:57.000Z</time>
        <extensions>
          <ns3:TrackPointExtension>
            <ns3:atemp>18.0</ns3:atemp>
          </ns3:TrackPointExtension>
        </extensions>
      </trkpt>
      <trkpt lat="42.6085550151765346527099609375" lon="19.88208143971860408782958984375">
        <ele>1988.199951171875</ele>
        <time>2026-06-16T09:41:58.000Z</time>
        <extensions>
          <ns3:TrackPointExtension>
            <ns3:atemp>18.0</ns3:atemp>
          </ns3:TrackPointExtension>
        </extensions>
      </trkpt>
      <trkpt lat="42.60855191387236118316650390625" lon="19.88210541196167469024658203125">
        <ele>1988.5999755859375</ele>
        <time>2026-06-16T09:41:59.000Z</time>
        <extensions>
          <ns3:TrackPointExtension>
            <ns3:atemp>18.0</ns3:atemp>
          </ns3:TrackPointExtension>
        </extensions>
      </trkpt>
      <trkpt lat="42.60854587890207767486572265625" lon="19.8821239359676837921142578125">
        <ele>1989.199951171875</ele>
        <time>2026-06-16T09:42:00.000Z</time>
        <extensions>
          <ns3:TrackPointExtension>
            <ns3:atemp>18.0</ns3:atemp>
          </ns3:TrackPointExtension>
        </extensions>
      </trkpt>
      <trkpt lat="42.608542777597904205322265625" lon="19.8821403644979000091552734375">
        <ele>1989.800048828125</ele>
        <time>2026-06-16T09:42:01.000Z</time>
        <extensions>
          <ns3:TrackPointExtension>
            <ns3:atemp>18.0</ns3:atemp>
          </ns3:TrackPointExtension>
        </extensions>
      </trkpt>
      <trkpt lat="42.6085362397134304046630859375" lon="19.8821581341326236724853515625">
        <ele>1990.5999755859375</ele>
        <time>2026-06-16T09:42:02.000Z</time>
        <extensions>
          <ns3:TrackPointExtension>
            <ns3:atemp>18.0</ns3:atemp>
          </ns3:TrackPointExtension>
        </extensions>
      </trkpt>
      <trkpt lat="42.60853079147636890411376953125" lon="19.88217297010123729705810546875">
        <ele>1991.199951171875</ele>
        <time>2026-06-16T09:42:03.000Z</time>
        <extensions>
          <ns3:TrackPointExtension>
            <ns3:atemp>18.0</ns3:atemp>
          </ns3:TrackPointExtension>
        </extensions>
      </trkpt>
      <trkpt lat="42.60852609761059284210205078125" lon="19.882185123860836029052734375">
        <ele>1991.800048828125</ele>
        <time>2026-06-16T09:42:04.000Z</time>
        <extensions>
          <ns3:TrackPointExtension>
            <ns3:atemp>18.0</ns3:atemp>
          </ns3:TrackPointExtension>
        </extensions>
      </trkpt>
      <trkpt lat="42.60852844454348087310791015625" lon="19.88220079801976680755615234375">
        <ele>1992.4000244140625</ele>
        <time>2026-06-16T09:42:05.000Z</time>
        <extensions>
          <ns3:TrackPointExtension>
            <ns3:atemp>18.0</ns3:atemp>
          </ns3:TrackPointExtension>
        </extensions>
      </trkpt>
      <trkpt lat="42.608534730970859527587890625" lon="19.88221689127385616302490234375">
        <ele>1993</ele>
        <time>2026-06-16T09:42:06.000Z</time>
        <extensions>
          <ns3:TrackPointExtension>
            <ns3:atemp>18.0</ns3:atemp>
          </ns3:TrackPointExtension>
        </extensions>
      </trkpt>
      <trkpt lat="42.60854319669306278228759765625" lon="19.882237426936626434326171875">
        <ele>1993.4000244140625</ele>
        <time>2026-06-16T09:42:07.000Z</time>
        <extensions>
          <ns3:TrackPointExtension>
            <ns3:atemp>18.0</ns3:atemp>
          </ns3:TrackPointExtension>
        </extensions>
      </trkpt>
      <trkpt lat="42.60855141095817089080810546875" lon="19.8822605609893798828125">
        <ele>1994</ele>
        <time>2026-06-16T09:42:08.000Z</time>
        <extensions>
          <ns3:TrackPointExtension>
            <ns3:atemp>18.0</ns3:atemp>
          </ns3:TrackPointExtension>
        </extensions>
      </trkpt>
      <trkpt lat="42.6085550151765346527099609375" lon="19.88228738307952880859375">
        <ele>1994.4000244140625</ele>
        <time>2026-06-16T09:42:09.000Z</time>
        <extensions>
          <ns3:TrackPointExtension>
            <ns3:atemp>18.0</ns3:atemp>
          </ns3:TrackPointExtension>
        </extensions>
      </trkpt>
      <trkpt lat="42.60855652391910552978515625" lon="19.882315210998058319091796875">
        <ele>1995</ele>
        <time>2026-06-16T09:42:10.000Z</time>
        <extensions>
          <ns3:TrackPointExtension>
            <ns3:atemp>18.0</ns3:atemp>
          </ns3:TrackPointExtension>
        </extensions>
      </trkpt>
      <trkpt lat="42.6085553504526615142822265625" lon="19.88233859650790691375732421875">
        <ele>1995.4000244140625</ele>
        <time>2026-06-16T09:42:11.000Z</time>
        <extensions>
          <ns3:TrackPointExtension>
            <ns3:atemp>18.0</ns3:atemp>
          </ns3:TrackPointExtension>
        </extensions>
      </trkpt>
      <trkpt lat="42.60855644010007381439208984375" lon="19.8823616467416286468505859375">
        <ele>1996</ele>
        <time>2026-06-16T09:42:12.000Z</time>
        <extensions>
          <ns3:TrackPointExtension>
            <ns3:atemp>18.0</ns3:atemp>
          </ns3:TrackPointExtension>
        </extensions>
      </trkpt>
      <trkpt lat="42.60855560190975666046142578125" lon="19.882383607327938079833984375">
        <ele>1996.5999755859375</ele>
        <time>2026-06-16T09:42:13.000Z</time>
        <extensions>
          <ns3:TrackPointExtension>
            <ns3:atemp>18.0</ns3:atemp>
          </ns3:TrackPointExtension>
        </extensions>
      </trkpt>
      <trkpt lat="42.6085506565868854522705078125" lon="19.8824008740484714508056640625">
        <ele>1997.199951171875</ele>
        <time>2026-06-16T09:42:14.000Z</time>
        <extensions>
          <ns3:TrackPointExtension>
            <ns3:atemp>18.0</ns3:atemp>
          </ns3:TrackPointExtension>
        </extensions>
      </trkpt>
      <trkpt lat="42.60854453779757022857666015625" lon="19.8824196495115756988525390625">
        <ele>1997.800048828125</ele>
        <time>2026-06-16T09:42:15.000Z</time>
        <extensions>
          <ns3:TrackPointExtension>
            <ns3:atemp>18.0</ns3:atemp>
          </ns3:TrackPointExtension>
        </extensions>
      </trkpt>
      <trkpt lat="42.60854168795049190521240234375" lon="19.8824389278888702392578125">
        <ele>1998.4000244140625</ele>
        <time>2026-06-16T09:42:16.000Z</time>
        <extensions>
          <ns3:TrackPointExtension>
            <ns3:atemp>18.0</ns3:atemp>
          </ns3:TrackPointExtension>
        </extensions>
      </trkpt>
      <trkpt lat="42.60853682644665241241455078125" lon="19.8824632354080677032470703125">
        <ele>1999</ele>
        <time>2026-06-16T09:42:17.000Z</time>
        <extensions>
          <ns3:TrackPointExtension>
            <ns3:atemp>18.0</ns3:atemp>
          </ns3:TrackPointExtension>
        </extensions>
      </trkpt>
      <trkpt lat="42.60853062383830547332763671875" lon="19.88248678855597972869873046875">
        <ele>1999.4000244140625</ele>
        <time>2026-06-16T09:42:18.000Z</time>
        <extensions>
          <ns3:TrackPointExtension>
            <ns3:atemp>18.0</ns3:atemp>
          </ns3:TrackPointExtension>
        </extensions>
      </trkpt>
      <trkpt lat="42.608524002134799957275390625" lon="19.88250925205647945404052734375">
        <ele>1999.800048828125</ele>
        <time>2026-06-16T09:42:19.000Z</time>
        <extensions>
          <ns3:TrackPointExtension>
            <ns3:atemp>18.0</ns3:atemp>
          </ns3:TrackPointExtension>
        </extensions>
      </trkpt>
      <trkpt lat="42.60852023027837276458740234375" lon="19.88253205083310604095458984375">
        <ele>2000.199951171875</ele>
        <time>2026-06-16T09:42:20.000Z</time>
        <extensions>
          <ns3:TrackPointExtension>
            <ns3:atemp>18.0</ns3:atemp>
          </ns3:TrackPointExtension>
        </extensions>
      </trkpt>
      <trkpt lat="42.608515955507755279541015625" lon="19.88254764117300510406494140625">
        <ele>2000.800048828125</ele>
        <time>2026-06-16T09:42:21.000Z</time>
        <extensions>
          <ns3:TrackPointExtension>
            <ns3:atemp>18.0</ns3:atemp>
          </ns3:TrackPointExtension>
        </extensions>
      </trkpt>
      <trkpt lat="42.6085077412426471710205078125" lon="19.88255987875163555145263671875">
        <ele>2001.199951171875</ele>
        <time>2026-06-16T09:42:22.000Z</time>
        <extensions>
          <ns3:TrackPointExtension>
            <ns3:atemp>18.0</ns3:atemp>
          </ns3:TrackPointExtension>
        </extensions>
      </trkpt>
      <trkpt lat="42.60850950144231319427490234375" lon="19.8825648240745067596435546875">
        <ele>2001.5999755859375</ele>
        <time>2026-06-16T09:42:23.000Z</time>
        <extensions>
          <ns3:TrackPointExtension>
            <ns3:atemp>18.0</ns3:atemp>
          </ns3:TrackPointExtension>
        </extensions>
      </trkpt>
      <trkpt lat="42.6085174642503261566162109375" lon="19.8825718648731708526611328125">
        <ele>2001.800048828125</ele>
        <time>2026-06-16T09:42:24.000Z</time>
        <extensions>
          <ns3:TrackPointExtension>
            <ns3:atemp>18.0</ns3:atemp>
          </ns3:TrackPointExtension>
        </extensions>
      </trkpt>
      <trkpt lat="42.6085144467651844024658203125" lon="19.88256507553160190582275390625">
        <ele>2002.199951171875</ele>
        <time>2026-06-16T09:42:25.000Z</time>
        <extensions>
          <ns3:TrackPointExtension>
            <ns3:atemp>18.0</ns3:atemp>
          </ns3:TrackPointExtension>
        </extensions>
      </trkpt>
      <trkpt lat="42.6085144467651844024658203125" lon="19.88256507553160190582275390625">
        <ele>2002.199951171875</ele>
        <time>2026-06-16T09:42:26.000Z</time>
        <extensions>
          <ns3:TrackPointExtension>
            <ns3:atemp>18.0</ns3:atemp>
          </ns3:TrackPointExtension>
        </extensions>
      </trkpt>
      <trkpt lat="42.6085144467651844024658203125" lon="19.88256507553160190582275390625">
        <ele>2002.4000244140625</ele>
        <time>2026-06-16T09:42:27.000Z</time>
        <extensions>
          <ns3:TrackPointExtension>
            <ns3:atemp>18.0</ns3:atemp>
          </ns3:TrackPointExtension>
        </extensions>
      </trkpt>
      <trkpt lat="42.6085144467651844024658203125" lon="19.88256507553160190582275390625">
        <ele>2002.4000244140625</ele>
        <time>2026-06-16T09:42:28.000Z</time>
        <extensions>
          <ns3:TrackPointExtension>
            <ns3:atemp>18.0</ns3:atemp>
          </ns3:TrackPointExtension>
        </extensions>
      </trkpt>
      <trkpt lat="42.6085144467651844024658203125" lon="19.88256507553160190582275390625">
        <ele>2002.199951171875</ele>
        <time>2026-06-16T09:42:29.000Z</time>
        <extensions>
          <ns3:TrackPointExtension>
            <ns3:atemp>18.0</ns3:atemp>
          </ns3:TrackPointExtension>
        </extensions>
      </trkpt>
      <trkpt lat="42.6085144467651844024658203125" lon="19.88256507553160190582275390625">
        <ele>2002.199951171875</ele>
        <time>2026-06-16T09:42:30.000Z</time>
        <extensions>
          <ns3:TrackPointExtension>
            <ns3:atemp>18.0</ns3:atemp>
          </ns3:TrackPointExtension>
        </extensions>
      </trkpt>
      <trkpt lat="42.6085144467651844024658203125" lon="19.88256507553160190582275390625">
        <ele>2002</ele>
        <time>2026-06-16T09:42:31.000Z</time>
        <extensions>
          <ns3:TrackPointExtension>
            <ns3:atemp>18.0</ns3:atemp>
          </ns3:TrackPointExtension>
        </extensions>
      </trkpt>
      <trkpt lat="42.6085144467651844024658203125" lon="19.88256507553160190582275390625">
        <ele>2002</ele>
        <time>2026-06-16T09:42:32.000Z</time>
        <extensions>
          <ns3:TrackPointExtension>
            <ns3:atemp>18.0</ns3:atemp>
          </ns3:TrackPointExtension>
        </extensions>
      </trkpt>
      <trkpt lat="42.6085144467651844024658203125" lon="19.88256507553160190582275390625">
        <ele>2002</ele>
        <time>2026-06-16T09:42:33.000Z</time>
        <extensions>
          <ns3:TrackPointExtension>
            <ns3:atemp>18.0</ns3:atemp>
          </ns3:TrackPointExtension>
        </extensions>
      </trkpt>
      <trkpt lat="42.6085144467651844024658203125" lon="19.88256507553160190582275390625">
        <ele>2002</ele>
        <time>2026-06-16T09:42:34.000Z</time>
        <extensions>
          <ns3:TrackPointExtension>
            <ns3:atemp>18.0</ns3:atemp>
          </ns3:TrackPointExtension>
        </extensions>
      </trkpt>
      <trkpt lat="42.6085144467651844024658203125" lon="19.88256507553160190582275390625">
        <ele>2002</ele>
        <time>2026-06-16T09:42:35.000Z</time>
        <extensions>
          <ns3:TrackPointExtension>
            <ns3:atemp>18.0</ns3:atemp>
          </ns3:TrackPointExtension>
        </extensions>
      </trkpt>
      <trkpt lat="42.6085144467651844024658203125" lon="19.88256507553160190582275390625">
        <ele>2002</ele>
        <time>2026-06-16T09:42:36.000Z</time>
        <extensions>
          <ns3:TrackPointExtension>
            <ns3:atemp>18.0</ns3:atemp>
          </ns3:TrackPointExtension>
        </extensions>
      </trkpt>
      <trkpt lat="42.6085144467651844024658203125" lon="19.88256507553160190582275390625">
        <ele>2002</ele>
        <time>2026-06-16T09:42:37.000Z</time>
        <extensions>
          <ns3:TrackPointExtension>
            <ns3:atemp>18.0</ns3:atemp>
          </ns3:TrackPointExtension>
        </extensions>
      </trkpt>
      <trkpt lat="42.6085144467651844024658203125" lon="19.88256507553160190582275390625">
        <ele>2002.199951171875</ele>
        <time>2026-06-16T09:42:38.000Z</time>
        <extensions>
          <ns3:TrackPointExtension>
            <ns3:atemp>18.0</ns3:atemp>
          </ns3:TrackPointExtension>
        </extensions>
      </trkpt>
      <trkpt lat="42.6085144467651844024658203125" lon="19.88256507553160190582275390625">
        <ele>2002.199951171875</ele>
        <time>2026-06-16T09:42:39.000Z</time>
        <extensions>
          <ns3:TrackPointExtension>
            <ns3:atemp>18.0</ns3:atemp>
          </ns3:TrackPointExtension>
        </extensions>
      </trkpt>
      <trkpt lat="42.6085144467651844024658203125" lon="19.88256507553160190582275390625">
        <ele>2002</ele>
        <time>2026-06-16T09:42:40.000Z</time>
        <extensions>
          <ns3:TrackPointExtension>
            <ns3:atemp>18.0</ns3:atemp>
          </ns3:TrackPointExtension>
        </extensions>
      </trkpt>
      <trkpt lat="42.6085144467651844024658203125" lon="19.88256507553160190582275390625">
        <ele>2002</ele>
        <time>2026-06-16T09:42:41.000Z</time>
        <extensions>
          <ns3:TrackPointExtension>
            <ns3:atemp>18.0</ns3:atemp>
          </ns3:TrackPointExtension>
        </extensions>
      </trkpt>
      <trkpt lat="42.6085144467651844024658203125" lon="19.88256507553160190582275390625">
        <ele>2002.199951171875</ele>
        <time>2026-06-16T09:42:42.000Z</time>
        <extensions>
          <ns3:TrackPointExtension>
            <ns3:atemp>18.0</ns3:atemp>
          </ns3:TrackPointExtension>
        </extensions>
      </trkpt>
      <trkpt lat="42.6085144467651844024658203125" lon="19.88256507553160190582275390625">
        <ele>2002.199951171875</ele>
        <time>2026-06-16T09:42:43.000Z</time>
        <extensions>
          <ns3:TrackPointExtension>
            <ns3:atemp>18.0</ns3:atemp>
          </ns3:TrackPointExtension>
        </extensions>
      </trkpt>
      <trkpt lat="42.6085144467651844024658203125" lon="19.88256507553160190582275390625">
        <ele>2002.199951171875</ele>
        <time>2026-06-16T09:42:44.000Z</time>
        <extensions>
          <ns3:TrackPointExtension>
            <ns3:atemp>18.0</ns3:atemp>
          </ns3:TrackPointExtension>
        </extensions>
      </trkpt>
      <trkpt lat="42.6085144467651844024658203125" lon="19.88256507553160190582275390625">
        <ele>2002.199951171875</ele>
        <time>2026-06-16T09:42:45.000Z</time>
        <extensions>
          <ns3:TrackPointExtension>
            <ns3:atemp>18.0</ns3:atemp>
          </ns3:TrackPointExtension>
        </extensions>
      </trkpt>
      <trkpt lat="42.6085144467651844024658203125" lon="19.88256507553160190582275390625">
        <ele>2002.199951171875</ele>
        <time>2026-06-16T09:42:46.000Z</time>
        <extensions>
          <ns3:TrackPointExtension>
            <ns3:atemp>18.0</ns3:atemp>
          </ns3:TrackPointExtension>
        </extensions>
      </trkpt>
      <trkpt lat="42.6085144467651844024658203125" lon="19.88256507553160190582275390625">
        <ele>2002.199951171875</ele>
        <time>2026-06-16T09:42:47.000Z</time>
        <extensions>
          <ns3:TrackPointExtension>
            <ns3:atemp>18.0</ns3:atemp>
          </ns3:TrackPointExtension>
        </extensions>
      </trkpt>
      <trkpt lat="42.6085144467651844024658203125" lon="19.88256507553160190582275390625">
        <ele>2002.199951171875</ele>
        <time>2026-06-16T09:42:48.000Z</time>
        <extensions>
          <ns3:TrackPointExtension>
            <ns3:atemp>18.0</ns3:atemp>
          </ns3:TrackPointExtension>
        </extensions>
      </trkpt>
      <trkpt lat="42.6085144467651844024658203125" lon="19.88256507553160190582275390625">
        <ele>2002.199951171875</ele>
        <time>2026-06-16T09:42:49.000Z</time>
        <extensions>
          <ns3:TrackPointExtension>
            <ns3:atemp>18.0</ns3:atemp>
          </ns3:TrackPointExtension>
        </extensions>
      </trkpt>
      <trkpt lat="42.6085144467651844024658203125" lon="19.88256507553160190582275390625">
        <ele>2002.199951171875</ele>
        <time>2026-06-16T09:42:50.000Z</time>
        <extensions>
          <ns3:TrackPointExtension>
            <ns3:atemp>18.0</ns3:atemp>
          </ns3:TrackPointExtension>
        </extensions>
      </trkpt>
      <trkpt lat="42.6085144467651844024658203125" lon="19.88256507553160190582275390625">
        <ele>2002.199951171875</ele>
        <time>2026-06-16T09:42:51.000Z</time>
        <extensions>
          <ns3:TrackPointExtension>
            <ns3:atemp>18.0</ns3:atemp>
          </ns3:TrackPointExtension>
        </extensions>
      </trkpt>
      <trkpt lat="42.6085144467651844024658203125" lon="19.88256507553160190582275390625">
        <ele>2002.199951171875</ele>
        <time>2026-06-16T09:42:52.000Z</time>
        <extensions>
          <ns3:TrackPointExtension>
            <ns3:atemp>18.0</ns3:atemp>
          </ns3:TrackPointExtension>
        </extensions>
      </trkpt>
      <trkpt lat="42.6085144467651844024658203125" lon="19.88256507553160190582275390625">
        <ele>2002.199951171875</ele>
        <time>2026-06-16T09:42:53.000Z</time>
        <extensions>
          <ns3:TrackPointExtension>
            <ns3:atemp>18.0</ns3:atemp>
          </ns3:TrackPointExtension>
        </extensions>
      </trkpt>
      <trkpt lat="42.6085144467651844024658203125" lon="19.88256507553160190582275390625">
        <ele>2002.199951171875</ele>
        <time>2026-06-16T09:42:54.000Z</time>
        <extensions>
          <ns3:TrackPointExtension>
            <ns3:atemp>18.0</ns3:atemp>
          </ns3:TrackPointExtension>
        </extensions>
      </trkpt>
      <trkpt lat="42.6085144467651844024658203125" lon="19.88256507553160190582275390625">
        <ele>2002.199951171875</ele>
        <time>2026-06-16T09:42:55.000Z</time>
        <extensions>
          <ns3:TrackPointExtension>
            <ns3:atemp>18.0</ns3:atemp>
          </ns3:TrackPointExtension>
        </extensions>
      </trkpt>
      <trkpt lat="42.6085144467651844024658203125" lon="19.88256507553160190582275390625">
        <ele>2002.199951171875</ele>
        <time>2026-06-16T09:42:56.000Z</time>
        <extensions>
          <ns3:TrackPointExtension>
            <ns3:atemp>18.0</ns3:atemp>
          </ns3:TrackPointExtension>
        </extensions>
      </trkpt>
      <trkpt lat="42.6085144467651844024658203125" lon="19.88256507553160190582275390625">
        <ele>2002.199951171875</ele>
        <time>2026-06-16T09:42:57.000Z</time>
        <extensions>
          <ns3:TrackPointExtension>
            <ns3:atemp>18.0</ns3:atemp>
          </ns3:TrackPointExtension>
        </extensions>
      </trkpt>
      <trkpt lat="42.6085144467651844024658203125" lon="19.88256507553160190582275390625">
        <ele>2002.199951171875</ele>
        <time>2026-06-16T09:42:58.000Z</time>
        <extensions>
          <ns3:TrackPointExtension>
            <ns3:atemp>18.0</ns3:atemp>
          </ns3:TrackPointExtension>
        </extensions>
      </trkpt>
      <trkpt lat="42.6085144467651844024658203125" lon="19.88256507553160190582275390625">
        <ele>2002.199951171875</ele>
        <time>2026-06-16T09:42:59.000Z</time>
        <extensions>
          <ns3:TrackPointExtension>
            <ns3:atemp>18.0</ns3:atemp>
          </ns3:TrackPointExtension>
        </extensions>
      </trkpt>
      <trkpt lat="42.6085144467651844024658203125" lon="19.88256507553160190582275390625">
        <ele>2002.199951171875</ele>
        <time>2026-06-16T09:43:00.000Z</time>
        <extensions>
          <ns3:TrackPointExtension>
            <ns3:atemp>18.0</ns3:atemp>
          </ns3:TrackPointExtension>
        </extensions>
      </trkpt>
      <trkpt lat="42.6085144467651844024658203125" lon="19.88256507553160190582275390625">
        <ele>2002.199951171875</ele>
        <time>2026-06-16T09:43:01.000Z</time>
        <extensions>
          <ns3:TrackPointExtension>
            <ns3:atemp>18.0</ns3:atemp>
          </ns3:TrackPointExtension>
        </extensions>
      </trkpt>
      <trkpt lat="42.6085144467651844024658203125" lon="19.88256507553160190582275390625">
        <ele>2002.199951171875</ele>
        <time>2026-06-16T09:43:02.000Z</time>
        <extensions>
          <ns3:TrackPointExtension>
            <ns3:atemp>18.0</ns3:atemp>
          </ns3:TrackPointExtension>
        </extensions>
      </trkpt>
      <trkpt lat="42.6085144467651844024658203125" lon="19.88256507553160190582275390625">
        <ele>2002.199951171875</ele>
        <time>2026-06-16T09:43:03.000Z</time>
        <extensions>
          <ns3:TrackPointExtension>
            <ns3:atemp>18.0</ns3:atemp>
          </ns3:TrackPointExtension>
        </extensions>
      </trkpt>
      <trkpt lat="42.6085144467651844024658203125" lon="19.88256507553160190582275390625">
        <ele>2002.199951171875</ele>
        <time>2026-06-16T09:43:04.000Z</time>
        <extensions>
          <ns3:TrackPointExtension>
            <ns3:atemp>18.0</ns3:atemp>
          </ns3:TrackPointExtension>
        </extensions>
      </trkpt>
      <trkpt lat="42.6085144467651844024658203125" lon="19.88256507553160190582275390625">
        <ele>2002.4000244140625</ele>
        <time>2026-06-16T09:43:05.000Z</time>
        <extensions>
          <ns3:TrackPointExtension>
            <ns3:atemp>18.0</ns3:atemp>
          </ns3:TrackPointExtension>
        </extensions>
      </trkpt>
      <trkpt lat="42.6085144467651844024658203125" lon="19.88256507553160190582275390625">
        <ele>2002.4000244140625</ele>
        <time>2026-06-16T09:43:06.000Z</time>
        <extensions>
          <ns3:TrackPointExtension>
            <ns3:atemp>18.0</ns3:atemp>
          </ns3:TrackPointExtension>
        </extensions>
      </trkpt>
      <trkpt lat="42.6085144467651844024658203125" lon="19.88256507553160190582275390625">
        <ele>2002.199951171875</ele>
        <time>2026-06-16T09:43:07.000Z</time>
        <extensions>
          <ns3:TrackPointExtension>
            <ns3:atemp>18.0</ns3:atemp>
          </ns3:TrackPointExtension>
        </extensions>
      </trkpt>
      <trkpt lat="42.6085144467651844024658203125" lon="19.88256507553160190582275390625">
        <ele>2002.199951171875</ele>
        <time>2026-06-16T09:43:08.000Z</time>
        <extensions>
          <ns3:TrackPointExtension>
            <ns3:atemp>18.0</ns3:atemp>
          </ns3:TrackPointExtension>
        </extensions>
      </trkpt>
      <trkpt lat="42.6085144467651844024658203125" lon="19.88256507553160190582275390625">
        <ele>2002.4000244140625</ele>
        <time>2026-06-16T09:43:09.000Z</time>
        <extensions>
          <ns3:TrackPointExtension>
            <ns3:atemp>18.0</ns3:atemp>
          </ns3:TrackPointExtension>
        </extensions>
      </trkpt>
      <trkpt lat="42.6085144467651844024658203125" lon="19.88256507553160190582275390625">
        <ele>2002.4000244140625</ele>
        <time>2026-06-16T09:43:10.000Z</time>
        <extensions>
          <ns3:TrackPointExtension>
            <ns3:atemp>18.0</ns3:atemp>
          </ns3:TrackPointExtension>
        </extensions>
      </trkpt>
      <trkpt lat="42.6085144467651844024658203125" lon="19.88256507553160190582275390625">
        <ele>2002.4000244140625</ele>
        <time>2026-06-16T09:43:11.000Z</time>
        <extensions>
          <ns3:TrackPointExtension>
            <ns3:atemp>18.0</ns3:atemp>
          </ns3:TrackPointExtension>
        </extensions>
      </trkpt>
      <trkpt lat="42.6085144467651844024658203125" lon="19.88256507553160190582275390625">
        <ele>2002.4000244140625</ele>
        <time>2026-06-16T09:43:12.000Z</time>
        <extensions>
          <ns3:TrackPointExtension>
            <ns3:atemp>18.0</ns3:atemp>
          </ns3:TrackPointExtension>
        </extensions>
      </trkpt>
      <trkpt lat="42.6085144467651844024658203125" lon="19.88256507553160190582275390625">
        <ele>2002.4000244140625</ele>
        <time>2026-06-16T09:43:13.000Z</time>
        <extensions>
          <ns3:TrackPointExtension>
            <ns3:atemp>18.0</ns3:atemp>
          </ns3:TrackPointExtension>
        </extensions>
      </trkpt>
      <trkpt lat="42.6085144467651844024658203125" lon="19.88256507553160190582275390625">
        <ele>2002.4000244140625</ele>
        <time>2026-06-16T09:43:14.000Z</time>
        <extensions>
          <ns3:TrackPointExtension>
            <ns3:atemp>18.0</ns3:atemp>
          </ns3:TrackPointExtension>
        </extensions>
      </trkpt>
      <trkpt lat="42.6085144467651844024658203125" lon="19.88256507553160190582275390625">
        <ele>2002.4000244140625</ele>
        <time>2026-06-16T09:43:15.000Z</time>
        <extensions>
          <ns3:TrackPointExtension>
            <ns3:atemp>18.0</ns3:atemp>
          </ns3:TrackPointExtension>
        </extensions>
      </trkpt>
      <trkpt lat="42.6085144467651844024658203125" lon="19.88256507553160190582275390625">
        <ele>2002.4000244140625</ele>
        <time>2026-06-16T09:43:16.000Z</time>
        <extensions>
          <ns3:TrackPointExtension>
            <ns3:atemp>18.0</ns3:atemp>
          </ns3:TrackPointExtension>
        </extensions>
      </trkpt>
      <trkpt lat="42.6085144467651844024658203125" lon="19.88256507553160190582275390625">
        <ele>2002.4000244140625</ele>
        <time>2026-06-16T09:43:17.000Z</time>
        <extensions>
          <ns3:TrackPointExtension>
            <ns3:atemp>18.0</ns3:atemp>
          </ns3:TrackPointExtension>
        </extensions>
      </trkpt>
      <trkpt lat="42.6085144467651844024658203125" lon="19.88256507553160190582275390625">
        <ele>2002.199951171875</ele>
        <time>2026-06-16T09:43:18.000Z</time>
        <extensions>
          <ns3:TrackPointExtension>
            <ns3:atemp>18.0</ns3:atemp>
          </ns3:TrackPointExtension>
        </extensions>
      </trkpt>
      <trkpt lat="42.6085144467651844024658203125" lon="19.88256507553160190582275390625">
        <ele>2002.199951171875</ele>
        <time>2026-06-16T09:43:19.000Z</time>
        <extensions>
          <ns3:TrackPointExtension>
            <ns3:atemp>18.0</ns3:atemp>
          </ns3:TrackPointExtension>
        </extensions>
      </trkpt>
      <trkpt lat="42.6085144467651844024658203125" lon="19.88256507553160190582275390625">
        <ele>2002.4000244140625</ele>
        <time>2026-06-16T09:43:20.000Z</time>
        <extensions>
          <ns3:TrackPointExtension>
            <ns3:atemp>18.0</ns3:atemp>
          </ns3:TrackPointExtension>
        </extensions>
      </trkpt>
      <trkpt lat="42.6085144467651844024658203125" lon="19.88256507553160190582275390625">
        <ele>2002.4000244140625</ele>
        <time>2026-06-16T09:43:21.000Z</time>
        <extensions>
          <ns3:TrackPointExtension>
            <ns3:atemp>18.0</ns3:atemp>
          </ns3:TrackPointExtension>
        </extensions>
      </trkpt>
      <trkpt lat="42.6085144467651844024658203125" lon="19.88256507553160190582275390625">
        <ele>2002.4000244140625</ele>
        <time>2026-06-16T09:43:22.000Z</time>
        <extensions>
          <ns3:TrackPointExtension>
            <ns3:atemp>18.0</ns3:atemp>
          </ns3:TrackPointExtension>
        </extensions>
      </trkpt>
      <trkpt lat="42.6085144467651844024658203125" lon="19.88256507553160190582275390625">
        <ele>2002.199951171875</ele>
        <time>2026-06-16T09:43:23.000Z</time>
        <extensions>
          <ns3:TrackPointExtension>
            <ns3:atemp>18.0</ns3:atemp>
          </ns3:TrackPointExtension>
        </extensions>
      </trkpt>
      <trkpt lat="42.6085144467651844024658203125" lon="19.88256507553160190582275390625">
        <ele>2002.199951171875</ele>
        <time>2026-06-16T09:43:24.000Z</time>
        <extensions>
          <ns3:TrackPointExtension>
            <ns3:atemp>18.0</ns3:atemp>
          </ns3:TrackPointExtension>
        </extensions>
      </trkpt>
      <trkpt lat="42.6085144467651844024658203125" lon="19.88256507553160190582275390625">
        <ele>2002.199951171875</ele>
        <time>2026-06-16T09:43:25.000Z</time>
        <extensions>
          <ns3:TrackPointExtension>
            <ns3:atemp>18.0</ns3:atemp>
          </ns3:TrackPointExtension>
        </extensions>
      </trkpt>
      <trkpt lat="42.6085144467651844024658203125" lon="19.88256507553160190582275390625">
        <ele>2002.199951171875</ele>
        <time>2026-06-16T09:43:26.000Z</time>
        <extensions>
          <ns3:TrackPointExtension>
            <ns3:atemp>18.0</ns3:atemp>
          </ns3:TrackPointExtension>
        </extensions>
      </trkpt>
      <trkpt lat="42.6085144467651844024658203125" lon="19.88256507553160190582275390625">
        <ele>2002.199951171875</ele>
        <time>2026-06-16T09:43:27.000Z</time>
        <extensions>
          <ns3:TrackPointExtension>
            <ns3:atemp>18.0</ns3:atemp>
          </ns3:TrackPointExtension>
        </extensions>
      </trkpt>
      <trkpt lat="42.6085144467651844024658203125" lon="19.88256507553160190582275390625">
        <ele>2002.199951171875</ele>
        <time>2026-06-16T09:43:28.000Z</time>
        <extensions>
          <ns3:TrackPointExtension>
            <ns3:atemp>18.0</ns3:atemp>
          </ns3:TrackPointExtension>
        </extensions>
      </trkpt>
      <trkpt lat="42.6085144467651844024658203125" lon="19.88256507553160190582275390625">
        <ele>2002.199951171875</ele>
        <time>2026-06-16T09:43:29.000Z</time>
        <extensions>
          <ns3:TrackPointExtension>
            <ns3:atemp>18.0</ns3:atemp>
          </ns3:TrackPointExtension>
        </extensions>
      </trkpt>
      <trkpt lat="42.6085144467651844024658203125" lon="19.88256507553160190582275390625">
        <ele>2002.199951171875</ele>
        <time>2026-06-16T09:43:30.000Z</time>
        <extensions>
          <ns3:TrackPointExtension>
            <ns3:atemp>18.0</ns3:atemp>
          </ns3:TrackPointExtension>
        </extensions>
      </trkpt>
      <trkpt lat="42.6085144467651844024658203125" lon="19.88256507553160190582275390625">
        <ele>2002.199951171875</ele>
        <time>2026-06-16T09:43:31.000Z</time>
        <extensions>
          <ns3:TrackPointExtension>
            <ns3:atemp>18.0</ns3:atemp>
          </ns3:TrackPointExtension>
        </extensions>
      </trkpt>
      <trkpt lat="42.6085144467651844024658203125" lon="19.88256507553160190582275390625">
        <ele>2002.199951171875</ele>
        <time>2026-06-16T09:43:32.000Z</time>
        <extensions>
          <ns3:TrackPointExtension>
            <ns3:atemp>18.0</ns3:atemp>
          </ns3:TrackPointExtension>
        </extensions>
      </trkpt>
      <trkpt lat="42.6085144467651844024658203125" lon="19.88256507553160190582275390625">
        <ele>2002.199951171875</ele>
        <time>2026-06-16T09:43:33.000Z</time>
        <extensions>
          <ns3:TrackPointExtension>
            <ns3:atemp>18.0</ns3:atemp>
          </ns3:TrackPointExtension>
        </extensions>
      </trkpt>
      <trkpt lat="42.6085144467651844024658203125" lon="19.88256507553160190582275390625">
        <ele>2002.199951171875</ele>
        <time>2026-06-16T09:43:34.000Z</time>
        <extensions>
          <ns3:TrackPointExtension>
            <ns3:atemp>18.0</ns3:atemp>
          </ns3:TrackPointExtension>
        </extensions>
      </trkpt>
      <trkpt lat="42.6085144467651844024658203125" lon="19.88256507553160190582275390625">
        <ele>2002.199951171875</ele>
        <time>2026-06-16T09:43:35.000Z</time>
        <extensions>
          <ns3:TrackPointExtension>
            <ns3:atemp>18.0</ns3:atemp>
          </ns3:TrackPointExtension>
        </extensions>
      </trkpt>
      <trkpt lat="42.6085144467651844024658203125" lon="19.88256507553160190582275390625">
        <ele>2002.199951171875</ele>
        <time>2026-06-16T09:43:36.000Z</time>
        <extensions>
          <ns3:TrackPointExtension>
            <ns3:atemp>18.0</ns3:atemp>
          </ns3:TrackPointExtension>
        </extensions>
      </trkpt>
      <trkpt lat="42.6085144467651844024658203125" lon="19.88256507553160190582275390625">
        <ele>2002.199951171875</ele>
        <time>2026-06-16T09:43:37.000Z</time>
        <extensions>
          <ns3:TrackPointExtension>
            <ns3:atemp>18.0</ns3:atemp>
          </ns3:TrackPointExtension>
        </extensions>
      </trkpt>
      <trkpt lat="42.6085144467651844024658203125" lon="19.88256507553160190582275390625">
        <ele>2002.199951171875</ele>
        <time>2026-06-16T09:43:38.000Z</time>
        <extensions>
          <ns3:TrackPointExtension>
            <ns3:atemp>18.0</ns3:atemp>
          </ns3:TrackPointExtension>
        </extensions>
      </trkpt>
      <trkpt lat="42.6085144467651844024658203125" lon="19.88256507553160190582275390625">
        <ele>2002.199951171875</ele>
        <time>2026-06-16T09:43:39.000Z</time>
        <extensions>
          <ns3:TrackPointExtension>
            <ns3:atemp>18.0</ns3:atemp>
          </ns3:TrackPointExtension>
        </extensions>
      </trkpt>
      <trkpt lat="42.6085144467651844024658203125" lon="19.88256507553160190582275390625">
        <ele>2002.199951171875</ele>
        <time>2026-06-16T09:43:40.000Z</time>
        <extensions>
          <ns3:TrackPointExtension>
            <ns3:atemp>18.0</ns3:atemp>
          </ns3:TrackPointExtension>
        </extensions>
      </trkpt>
      <trkpt lat="42.6085144467651844024658203125" lon="19.88256507553160190582275390625">
        <ele>2002.199951171875</ele>
        <time>2026-06-16T09:43:41.000Z</time>
        <extensions>
          <ns3:TrackPointExtension>
            <ns3:atemp>18.0</ns3:atemp>
          </ns3:TrackPointExtension>
        </extensions>
      </trkpt>
      <trkpt lat="42.6085144467651844024658203125" lon="19.88256507553160190582275390625">
        <ele>2002.199951171875</ele>
        <time>2026-06-16T09:43:42.000Z</time>
        <extensions>
          <ns3:TrackPointExtension>
            <ns3:atemp>18.0</ns3:atemp>
          </ns3:TrackPointExtension>
        </extensions>
      </trkpt>
      <trkpt lat="42.6085144467651844024658203125" lon="19.88256507553160190582275390625">
        <ele>2002.199951171875</ele>
        <time>2026-06-16T09:43:43.000Z</time>
        <extensions>
          <ns3:TrackPointExtension>
            <ns3:atemp>18.0</ns3:atemp>
          </ns3:TrackPointExtension>
        </extensions>
      </trkpt>
      <trkpt lat="42.6085144467651844024658203125" lon="19.88256507553160190582275390625">
        <ele>2002.199951171875</ele>
        <time>2026-06-16T09:43:44.000Z</time>
        <extensions>
          <ns3:TrackPointExtension>
            <ns3:atemp>18.0</ns3:atemp>
          </ns3:TrackPointExtension>
        </extensions>
      </trkpt>
      <trkpt lat="42.6085144467651844024658203125" lon="19.88256507553160190582275390625">
        <ele>2002.199951171875</ele>
        <time>2026-06-16T09:43:45.000Z</time>
        <extensions>
          <ns3:TrackPointExtension>
            <ns3:atemp>18.0</ns3:atemp>
          </ns3:TrackPointExtension>
        </extensions>
      </trkpt>
      <trkpt lat="42.6085144467651844024658203125" lon="19.88256507553160190582275390625">
        <ele>2002.199951171875</ele>
        <time>2026-06-16T09:43:46.000Z</time>
        <extensions>
          <ns3:TrackPointExtension>
            <ns3:atemp>18.0</ns3:atemp>
          </ns3:TrackPointExtension>
        </extensions>
      </trkpt>
      <trkpt lat="42.6085144467651844024658203125" lon="19.88256507553160190582275390625">
        <ele>2002.199951171875</ele>
        <time>2026-06-16T09:43:47.000Z</time>
        <extensions>
          <ns3:TrackPointExtension>
            <ns3:atemp>18.0</ns3:atemp>
          </ns3:TrackPointExtension>
        </extensions>
      </trkpt>
      <trkpt lat="42.6085144467651844024658203125" lon="19.88256507553160190582275390625">
        <ele>2002.199951171875</ele>
        <time>2026-06-16T09:43:48.000Z</time>
        <extensions>
          <ns3:TrackPointExtension>
            <ns3:atemp>18.0</ns3:atemp>
          </ns3:TrackPointExtension>
        </extensions>
      </trkpt>
      <trkpt lat="42.6085144467651844024658203125" lon="19.88256507553160190582275390625">
        <ele>2002.199951171875</ele>
        <time>2026-06-16T09:43:49.000Z</time>
        <extensions>
          <ns3:TrackPointExtension>
            <ns3:atemp>18.0</ns3:atemp>
          </ns3:TrackPointExtension>
        </extensions>
      </trkpt>
      <trkpt lat="42.6085144467651844024658203125" lon="19.88256507553160190582275390625">
        <ele>2002.199951171875</ele>
        <time>2026-06-16T09:43:50.000Z</time>
        <extensions>
          <ns3:TrackPointExtension>
            <ns3:atemp>18.0</ns3:atemp>
          </ns3:TrackPointExtension>
        </extensions>
      </trkpt>
      <trkpt lat="42.6085144467651844024658203125" lon="19.88256507553160190582275390625">
        <ele>2002.199951171875</ele>
        <time>2026-06-16T09:43:51.000Z</time>
        <extensions>
          <ns3:TrackPointExtension>
            <ns3:atemp>18.0</ns3:atemp>
          </ns3:TrackPointExtension>
        </extensions>
      </trkpt>
      <trkpt lat="42.6085144467651844024658203125" lon="19.88256507553160190582275390625">
        <ele>2002.199951171875</ele>
        <time>2026-06-16T09:43:52.000Z</time>
        <extensions>
          <ns3:TrackPointExtension>
            <ns3:atemp>18.0</ns3:atemp>
          </ns3:TrackPointExtension>
        </extensions>
      </trkpt>
      <trkpt lat="42.6085144467651844024658203125" lon="19.88256507553160190582275390625">
        <ele>2002.199951171875</ele>
        <time>2026-06-16T09:43:53.000Z</time>
        <extensions>
          <ns3:TrackPointExtension>
            <ns3:atemp>18.0</ns3:atemp>
          </ns3:TrackPointExtension>
        </extensions>
      </trkpt>
      <trkpt lat="42.6085144467651844024658203125" lon="19.88256507553160190582275390625">
        <ele>2002.199951171875</ele>
        <time>2026-06-16T09:43:54.000Z</time>
        <extensions>
          <ns3:TrackPointExtension>
            <ns3:atemp>18.0</ns3:atemp>
          </ns3:TrackPointExtension>
        </extensions>
      </trkpt>
      <trkpt lat="42.6085144467651844024658203125" lon="19.88256507553160190582275390625">
        <ele>2002.199951171875</ele>
        <time>2026-06-16T09:43:55.000Z</time>
        <extensions>
          <ns3:TrackPointExtension>
            <ns3:atemp>18.0</ns3:atemp>
          </ns3:TrackPointExtension>
        </extensions>
      </trkpt>
      <trkpt lat="42.6085144467651844024658203125" lon="19.88256507553160190582275390625">
        <ele>2002.199951171875</ele>
        <time>2026-06-16T09:43:56.000Z</time>
        <extensions>
          <ns3:TrackPointExtension>
            <ns3:atemp>18.0</ns3:atemp>
          </ns3:TrackPointExtension>
        </extensions>
      </trkpt>
      <trkpt lat="42.6085144467651844024658203125" lon="19.88256507553160190582275390625">
        <ele>2002.199951171875</ele>
        <time>2026-06-16T09:43:57.000Z</time>
        <extensions>
          <ns3:TrackPointExtension>
            <ns3:atemp>18.0</ns3:atemp>
          </ns3:TrackPointExtension>
        </extensions>
      </trkpt>
      <trkpt lat="42.6085144467651844024658203125" lon="19.88256507553160190582275390625">
        <ele>2002.199951171875</ele>
        <time>2026-06-16T09:43:58.000Z</time>
        <extensions>
          <ns3:TrackPointExtension>
            <ns3:atemp>18.0</ns3:atemp>
          </ns3:TrackPointExtension>
        </extensions>
      </trkpt>
      <trkpt lat="42.6085144467651844024658203125" lon="19.88256507553160190582275390625">
        <ele>2002.199951171875</ele>
        <time>2026-06-16T09:43:59.000Z</time>
        <extensions>
          <ns3:TrackPointExtension>
            <ns3:atemp>18.0</ns3:atemp>
          </ns3:TrackPointExtension>
        </extensions>
      </trkpt>
      <trkpt lat="42.6085144467651844024658203125" lon="19.88256507553160190582275390625">
        <ele>2002.199951171875</ele>
        <time>2026-06-16T09:44:00.000Z</time>
        <extensions>
          <ns3:TrackPointExtension>
            <ns3:atemp>18.0</ns3:atemp>
          </ns3:TrackPointExtension>
        </extensions>
      </trkpt>
      <trkpt lat="42.6085144467651844024658203125" lon="19.88256507553160190582275390625">
        <ele>2002.199951171875</ele>
        <time>2026-06-16T09:44:01.000Z</time>
        <extensions>
          <ns3:TrackPointExtension>
            <ns3:atemp>18.0</ns3:atemp>
          </ns3:TrackPointExtension>
        </extensions>
      </trkpt>
      <trkpt lat="42.6085144467651844024658203125" lon="19.88256507553160190582275390625">
        <ele>2002.199951171875</ele>
        <time>2026-06-16T09:44:02.000Z</time>
        <extensions>
          <ns3:TrackPointExtension>
            <ns3:atemp>18.0</ns3:atemp>
          </ns3:TrackPointExtension>
        </extensions>
      </trkpt>
      <trkpt lat="42.6085144467651844024658203125" lon="19.88256507553160190582275390625">
        <ele>2002.199951171875</ele>
        <time>2026-06-16T09:44:03.000Z</time>
        <extensions>
          <ns3:TrackPointExtension>
            <ns3:atemp>18.0</ns3:atemp>
          </ns3:TrackPointExtension>
        </extensions>
      </trkpt>
      <trkpt lat="42.6085144467651844024658203125" lon="19.88256507553160190582275390625">
        <ele>2002.199951171875</ele>
        <time>2026-06-16T09:44:04.000Z</time>
        <extensions>
          <ns3:TrackPointExtension>
            <ns3:atemp>18.0</ns3:atemp>
          </ns3:TrackPointExtension>
        </extensions>
      </trkpt>
      <trkpt lat="42.6085144467651844024658203125" lon="19.88256507553160190582275390625">
        <ele>2002.199951171875</ele>
        <time>2026-06-16T09:44:05.000Z</time>
        <extensions>
          <ns3:TrackPointExtension>
            <ns3:atemp>18.0</ns3:atemp>
          </ns3:TrackPointExtension>
        </extensions>
      </trkpt>
      <trkpt lat="42.6085144467651844024658203125" lon="19.88256507553160190582275390625">
        <ele>2002.199951171875</ele>
        <time>2026-06-16T09:44:06.000Z</time>
        <extensions>
          <ns3:TrackPointExtension>
            <ns3:atemp>18.0</ns3:atemp>
          </ns3:TrackPointExtension>
        </extensions>
      </trkpt>
      <trkpt lat="42.6085144467651844024658203125" lon="19.88256507553160190582275390625">
        <ele>2002.199951171875</ele>
        <time>2026-06-16T09:44:07.000Z</time>
        <extensions>
          <ns3:TrackPointExtension>
            <ns3:atemp>18.0</ns3:atemp>
          </ns3:TrackPointExtension>
        </extensions>
      </trkpt>
      <trkpt lat="42.6085144467651844024658203125" lon="19.88256507553160190582275390625">
        <ele>2002.199951171875</ele>
        <time>2026-06-16T09:44:08.000Z</time>
        <extensions>
          <ns3:TrackPointExtension>
            <ns3:atemp>18.0</ns3:atemp>
          </ns3:TrackPointExtension>
        </extensions>
      </trkpt>
      <trkpt lat="42.6085144467651844024658203125" lon="19.88256507553160190582275390625">
        <ele>2002.199951171875</ele>
        <time>2026-06-16T09:44:09.000Z</time>
        <extensions>
          <ns3:TrackPointExtension>
            <ns3:atemp>18.0</ns3:atemp>
          </ns3:TrackPointExtension>
        </extensions>
      </trkpt>
      <trkpt lat="42.6085144467651844024658203125" lon="19.88256507553160190582275390625">
        <ele>2002.199951171875</ele>
        <time>2026-06-16T09:44:10.000Z</time>
        <extensions>
          <ns3:TrackPointExtension>
            <ns3:atemp>18.0</ns3:atemp>
          </ns3:TrackPointExtension>
        </extensions>
      </trkpt>
      <trkpt lat="42.6085144467651844024658203125" lon="19.88256507553160190582275390625">
        <ele>2002.199951171875</ele>
        <time>2026-06-16T09:44:11.000Z</time>
        <extensions>
          <ns3:TrackPointExtension>
            <ns3:atemp>18.0</ns3:atemp>
          </ns3:TrackPointExtension>
        </extensions>
      </trkpt>
      <trkpt lat="42.6085144467651844024658203125" lon="19.88256507553160190582275390625">
        <ele>2002.199951171875</ele>
        <time>2026-06-16T09:44:12.000Z</time>
        <extensions>
          <ns3:TrackPointExtension>
            <ns3:atemp>18.0</ns3:atemp>
          </ns3:TrackPointExtension>
        </extensions>
      </trkpt>
      <trkpt lat="42.6085144467651844024658203125" lon="19.88256507553160190582275390625">
        <ele>2002.199951171875</ele>
        <time>2026-06-16T09:44:13.000Z</time>
        <extensions>
          <ns3:TrackPointExtension>
            <ns3:atemp>18.0</ns3:atemp>
          </ns3:TrackPointExtension>
        </extensions>
      </trkpt>
      <trkpt lat="42.6085144467651844024658203125" lon="19.88256507553160190582275390625">
        <ele>2002.199951171875</ele>
        <time>2026-06-16T09:44:14.000Z</time>
        <extensions>
          <ns3:TrackPointExtension>
            <ns3:atemp>18.0</ns3:atemp>
          </ns3:TrackPointExtension>
        </extensions>
      </trkpt>
      <trkpt lat="42.6085144467651844024658203125" lon="19.88256507553160190582275390625">
        <ele>2002.199951171875</ele>
        <time>2026-06-16T09:44:15.000Z</time>
        <extensions>
          <ns3:TrackPointExtension>
            <ns3:atemp>18.0</ns3:atemp>
          </ns3:TrackPointExtension>
        </extensions>
      </trkpt>
      <trkpt lat="42.6085144467651844024658203125" lon="19.88256507553160190582275390625">
        <ele>2002.199951171875</ele>
        <time>2026-06-16T09:44:16.000Z</time>
        <extensions>
          <ns3:TrackPointExtension>
            <ns3:atemp>18.0</ns3:atemp>
          </ns3:TrackPointExtension>
        </extensions>
      </trkpt>
      <trkpt lat="42.6085144467651844024658203125" lon="19.88256507553160190582275390625">
        <ele>2002.199951171875</ele>
        <time>2026-06-16T09:44:17.000Z</time>
        <extensions>
          <ns3:TrackPointExtension>
            <ns3:atemp>18.0</ns3:atemp>
          </ns3:TrackPointExtension>
        </extensions>
      </trkpt>
      <trkpt lat="42.6085144467651844024658203125" lon="19.88256507553160190582275390625">
        <ele>2002.199951171875</ele>
        <time>2026-06-16T09:44:18.000Z</time>
        <extensions>
          <ns3:TrackPointExtension>
            <ns3:atemp>18.0</ns3:atemp>
          </ns3:TrackPointExtension>
        </extensions>
      </trkpt>
      <trkpt lat="42.6085144467651844024658203125" lon="19.88256507553160190582275390625">
        <ele>2002.199951171875</ele>
        <time>2026-06-16T09:44:19.000Z</time>
        <extensions>
          <ns3:TrackPointExtension>
            <ns3:atemp>18.0</ns3:atemp>
          </ns3:TrackPointExtension>
        </extensions>
      </trkpt>
      <trkpt lat="42.6085144467651844024658203125" lon="19.88256507553160190582275390625">
        <ele>2002.199951171875</ele>
        <time>2026-06-16T09:44:20.000Z</time>
        <extensions>
          <ns3:TrackPointExtension>
            <ns3:atemp>18.0</ns3:atemp>
          </ns3:TrackPointExtension>
        </extensions>
      </trkpt>
      <trkpt lat="42.6085144467651844024658203125" lon="19.88256507553160190582275390625">
        <ele>2002.199951171875</ele>
        <time>2026-06-16T09:44:21.000Z</time>
        <extensions>
          <ns3:TrackPointExtension>
            <ns3:atemp>18.0</ns3:atemp>
          </ns3:TrackPointExtension>
        </extensions>
      </trkpt>
      <trkpt lat="42.6085144467651844024658203125" lon="19.88256507553160190582275390625">
        <ele>2002.199951171875</ele>
        <time>2026-06-16T09:44:22.000Z</time>
        <extensions>
          <ns3:TrackPointExtension>
            <ns3:atemp>18.0</ns3:atemp>
          </ns3:TrackPointExtension>
        </extensions>
      </trkpt>
      <trkpt lat="42.6085144467651844024658203125" lon="19.88256507553160190582275390625">
        <ele>2002.199951171875</ele>
        <time>2026-06-16T09:44:23.000Z</time>
        <extensions>
          <ns3:TrackPointExtension>
            <ns3:atemp>18.0</ns3:atemp>
          </ns3:TrackPointExtension>
        </extensions>
      </trkpt>
      <trkpt lat="42.6085144467651844024658203125" lon="19.88256507553160190582275390625">
        <ele>2002.199951171875</ele>
        <time>2026-06-16T09:44:24.000Z</time>
        <extensions>
          <ns3:TrackPointExtension>
            <ns3:atemp>18.0</ns3:atemp>
          </ns3:TrackPointExtension>
        </extensions>
      </trkpt>
      <trkpt lat="42.6085144467651844024658203125" lon="19.88256507553160190582275390625">
        <ele>2002.199951171875</ele>
        <time>2026-06-16T09:44:25.000Z</time>
        <extensions>
          <ns3:TrackPointExtension>
            <ns3:atemp>18.0</ns3:atemp>
          </ns3:TrackPointExtension>
        </extensions>
      </trkpt>
      <trkpt lat="42.6085144467651844024658203125" lon="19.88256507553160190582275390625">
        <ele>2002.199951171875</ele>
        <time>2026-06-16T09:44:26.000Z</time>
        <extensions>
          <ns3:TrackPointExtension>
            <ns3:atemp>18.0</ns3:atemp>
          </ns3:TrackPointExtension>
        </extensions>
      </trkpt>
      <trkpt lat="42.6085144467651844024658203125" lon="19.88256507553160190582275390625">
        <ele>2002.199951171875</ele>
        <time>2026-06-16T09:44:27.000Z</time>
        <extensions>
          <ns3:TrackPointExtension>
            <ns3:atemp>18.0</ns3:atemp>
          </ns3:TrackPointExtension>
        </extensions>
      </trkpt>
      <trkpt lat="42.6085144467651844024658203125" lon="19.88256507553160190582275390625">
        <ele>2002.199951171875</ele>
        <time>2026-06-16T09:44:28.000Z</time>
        <extensions>
          <ns3:TrackPointExtension>
            <ns3:atemp>18.0</ns3:atemp>
          </ns3:TrackPointExtension>
        </extensions>
      </trkpt>
      <trkpt lat="42.6085144467651844024658203125" lon="19.88256507553160190582275390625">
        <ele>2002.199951171875</ele>
        <time>2026-06-16T09:44:29.000Z</time>
        <extensions>
          <ns3:TrackPointExtension>
            <ns3:atemp>18.0</ns3:atemp>
          </ns3:TrackPointExtension>
        </extensions>
      </trkpt>
      <trkpt lat="42.6085144467651844024658203125" lon="19.88256507553160190582275390625">
        <ele>2002.199951171875</ele>
        <time>2026-06-16T09:44:30.000Z</time>
        <extensions>
          <ns3:TrackPointExtension>
            <ns3:atemp>18.0</ns3:atemp>
          </ns3:TrackPointExtension>
        </extensions>
      </trkpt>
      <trkpt lat="42.6085144467651844024658203125" lon="19.88256507553160190582275390625">
        <ele>2002.199951171875</ele>
        <time>2026-06-16T09:44:31.000Z</time>
        <extensions>
          <ns3:TrackPointExtension>
            <ns3:atemp>18.0</ns3:atemp>
          </ns3:TrackPointExtension>
        </extensions>
      </trkpt>
      <trkpt lat="42.6085144467651844024658203125" lon="19.88256507553160190582275390625">
        <ele>2002.199951171875</ele>
        <time>2026-06-16T09:44:32.000Z</time>
        <extensions>
          <ns3:TrackPointExtension>
            <ns3:atemp>18.0</ns3:atemp>
          </ns3:TrackPointExtension>
        </extensions>
      </trkpt>
      <trkpt lat="42.6085144467651844024658203125" lon="19.88256507553160190582275390625">
        <ele>2002.199951171875</ele>
        <time>2026-06-16T09:44:33.000Z</time>
        <extensions>
          <ns3:TrackPointExtension>
            <ns3:atemp>18.0</ns3:atemp>
          </ns3:TrackPointExtension>
        </extensions>
      </trkpt>
      <trkpt lat="42.6085144467651844024658203125" lon="19.88256507553160190582275390625">
        <ele>2002.199951171875</ele>
        <time>2026-06-16T09:44:34.000Z</time>
        <extensions>
          <ns3:TrackPointExtension>
            <ns3:atemp>18.0</ns3:atemp>
          </ns3:TrackPointExtension>
        </extensions>
      </trkpt>
      <trkpt lat="42.6085144467651844024658203125" lon="19.88256507553160190582275390625">
        <ele>2002.199951171875</ele>
        <time>2026-06-16T09:44:35.000Z</time>
        <extensions>
          <ns3:TrackPointExtension>
            <ns3:atemp>18.0</ns3:atemp>
          </ns3:TrackPointExtension>
        </extensions>
      </trkpt>
      <trkpt lat="42.6085144467651844024658203125" lon="19.88256507553160190582275390625">
        <ele>2002.199951171875</ele>
        <time>2026-06-16T09:44:36.000Z</time>
        <extensions>
          <ns3:TrackPointExtension>
            <ns3:atemp>18.0</ns3:atemp>
          </ns3:TrackPointExtension>
        </extensions>
      </trkpt>
      <trkpt lat="42.6085144467651844024658203125" lon="19.88256507553160190582275390625">
        <ele>2002.199951171875</ele>
        <time>2026-06-16T09:44:37.000Z</time>
        <extensions>
          <ns3:TrackPointExtension>
            <ns3:atemp>18.0</ns3:atemp>
          </ns3:TrackPointExtension>
        </extensions>
      </trkpt>
      <trkpt lat="42.6085144467651844024658203125" lon="19.88256507553160190582275390625">
        <ele>2002.199951171875</ele>
        <time>2026-06-16T09:44:38.000Z</time>
        <extensions>
          <ns3:TrackPointExtension>
            <ns3:atemp>18.0</ns3:atemp>
          </ns3:TrackPointExtension>
        </extensions>
      </trkpt>
      <trkpt lat="42.6085144467651844024658203125" lon="19.88256507553160190582275390625">
        <ele>2002.199951171875</ele>
        <time>2026-06-16T09:44:39.000Z</time>
        <extensions>
          <ns3:TrackPointExtension>
            <ns3:atemp>18.0</ns3:atemp>
          </ns3:TrackPointExtension>
        </extensions>
      </trkpt>
      <trkpt lat="42.6085144467651844024658203125" lon="19.88256507553160190582275390625">
        <ele>2002.199951171875</ele>
        <time>2026-06-16T09:44:40.000Z</time>
        <extensions>
          <ns3:TrackPointExtension>
            <ns3:atemp>18.0</ns3:atemp>
          </ns3:TrackPointExtension>
        </extensions>
      </trkpt>
      <trkpt lat="42.6085144467651844024658203125" lon="19.88256507553160190582275390625">
        <ele>2002.199951171875</ele>
        <time>2026-06-16T09:44:41.000Z</time>
        <extensions>
          <ns3:TrackPointExtension>
            <ns3:atemp>18.0</ns3:atemp>
          </ns3:TrackPointExtension>
        </extensions>
      </trkpt>
      <trkpt lat="42.6085144467651844024658203125" lon="19.88256507553160190582275390625">
        <ele>2002.199951171875</ele>
        <time>2026-06-16T09:44:42.000Z</time>
        <extensions>
          <ns3:TrackPointExtension>
            <ns3:atemp>18.0</ns3:atemp>
          </ns3:TrackPointExtension>
        </extensions>
      </trkpt>
      <trkpt lat="42.6085144467651844024658203125" lon="19.88256507553160190582275390625">
        <ele>2002.199951171875</ele>
        <time>2026-06-16T09:44:43.000Z</time>
        <extensions>
          <ns3:TrackPointExtension>
            <ns3:atemp>18.0</ns3:atemp>
          </ns3:TrackPointExtension>
        </extensions>
      </trkpt>
      <trkpt lat="42.6085144467651844024658203125" lon="19.88256507553160190582275390625">
        <ele>2002.199951171875</ele>
        <time>2026-06-16T09:44:44.000Z</time>
        <extensions>
          <ns3:TrackPointExtension>
            <ns3:atemp>18.0</ns3:atemp>
          </ns3:TrackPointExtension>
        </extensions>
      </trkpt>
      <trkpt lat="42.6085144467651844024658203125" lon="19.88256507553160190582275390625">
        <ele>2002.199951171875</ele>
        <time>2026-06-16T09:44:45.000Z</time>
        <extensions>
          <ns3:TrackPointExtension>
            <ns3:atemp>18.0</ns3:atemp>
          </ns3:TrackPointExtension>
        </extensions>
      </trkpt>
      <trkpt lat="42.6085144467651844024658203125" lon="19.88256507553160190582275390625">
        <ele>2002.199951171875</ele>
        <time>2026-06-16T09:44:46.000Z</time>
        <extensions>
          <ns3:TrackPointExtension>
            <ns3:atemp>18.0</ns3:atemp>
          </ns3:TrackPointExtension>
        </extensions>
      </trkpt>
      <trkpt lat="42.6085144467651844024658203125" lon="19.88256507553160190582275390625">
        <ele>2002.199951171875</ele>
        <time>2026-06-16T09:44:47.000Z</time>
        <extensions>
          <ns3:TrackPointExtension>
            <ns3:atemp>18.0</ns3:atemp>
          </ns3:TrackPointExtension>
        </extensions>
      </trkpt>
      <trkpt lat="42.6085144467651844024658203125" lon="19.88256507553160190582275390625">
        <ele>2002.199951171875</ele>
        <time>2026-06-16T09:44:48.000Z</time>
        <extensions>
          <ns3:TrackPointExtension>
            <ns3:atemp>18.0</ns3:atemp>
          </ns3:TrackPointExtension>
        </extensions>
      </trkpt>
      <trkpt lat="42.6085144467651844024658203125" lon="19.88256507553160190582275390625">
        <ele>2002.199951171875</ele>
        <time>2026-06-16T09:44:49.000Z</time>
        <extensions>
          <ns3:TrackPointExtension>
            <ns3:atemp>18.0</ns3:atemp>
          </ns3:TrackPointExtension>
        </extensions>
      </trkpt>
      <trkpt lat="42.6085144467651844024658203125" lon="19.88256507553160190582275390625">
        <ele>2002.199951171875</ele>
        <time>2026-06-16T09:44:50.000Z</time>
        <extensions>
          <ns3:TrackPointExtension>
            <ns3:atemp>18.0</ns3:atemp>
          </ns3:TrackPointExtension>
        </extensions>
      </trkpt>
      <trkpt lat="42.6085144467651844024658203125" lon="19.88256507553160190582275390625">
        <ele>2002.199951171875</ele>
        <time>2026-06-16T09:44:51.000Z</time>
        <extensions>
          <ns3:TrackPointExtension>
            <ns3:atemp>18.0</ns3:atemp>
          </ns3:TrackPointExtension>
        </extensions>
      </trkpt>
      <trkpt lat="42.6085144467651844024658203125" lon="19.88256507553160190582275390625">
        <ele>2002.199951171875</ele>
        <time>2026-06-16T09:44:52.000Z</time>
        <extensions>
          <ns3:TrackPointExtension>
            <ns3:atemp>18.0</ns3:atemp>
          </ns3:TrackPointExtension>
        </extensions>
      </trkpt>
      <trkpt lat="42.6085144467651844024658203125" lon="19.88256507553160190582275390625">
        <ele>2002.199951171875</ele>
        <time>2026-06-16T09:44:53.000Z</time>
        <extensions>
          <ns3:TrackPointExtension>
            <ns3:atemp>18.0</ns3:atemp>
          </ns3:TrackPointExtension>
        </extensions>
      </trkpt>
      <trkpt lat="42.6085144467651844024658203125" lon="19.88256507553160190582275390625">
        <ele>2002.199951171875</ele>
        <time>2026-06-16T09:44:54.000Z</time>
        <extensions>
          <ns3:TrackPointExtension>
            <ns3:atemp>18.0</ns3:atemp>
          </ns3:TrackPointExtension>
        </extensions>
      </trkpt>
      <trkpt lat="42.6085144467651844024658203125" lon="19.88256507553160190582275390625">
        <ele>2002.199951171875</ele>
        <time>2026-06-16T09:44:55.000Z</time>
        <extensions>
          <ns3:TrackPointExtension>
            <ns3:atemp>18.0</ns3:atemp>
          </ns3:TrackPointExtension>
        </extensions>
      </trkpt>
      <trkpt lat="42.6085144467651844024658203125" lon="19.88256507553160190582275390625">
        <ele>2002.199951171875</ele>
        <time>2026-06-16T09:44:56.000Z</time>
        <extensions>
          <ns3:TrackPointExtension>
            <ns3:atemp>18.0</ns3:atemp>
          </ns3:TrackPointExtension>
        </extensions>
      </trkpt>
      <trkpt lat="42.6085144467651844024658203125" lon="19.88256507553160190582275390625">
        <ele>2002.199951171875</ele>
        <time>2026-06-16T09:44:57.000Z</time>
        <extensions>
          <ns3:TrackPointExtension>
            <ns3:atemp>18.0</ns3:atemp>
          </ns3:TrackPointExtension>
        </extensions>
      </trkpt>
      <trkpt lat="42.6085144467651844024658203125" lon="19.88256507553160190582275390625">
        <ele>2002.199951171875</ele>
        <time>2026-06-16T09:44:58.000Z</time>
        <extensions>
          <ns3:TrackPointExtension>
            <ns3:atemp>18.0</ns3:atemp>
          </ns3:TrackPointExtension>
        </extensions>
      </trkpt>
      <trkpt lat="42.6085144467651844024658203125" lon="19.88256507553160190582275390625">
        <ele>2002.199951171875</ele>
        <time>2026-06-16T09:44:59.000Z</time>
        <extensions>
          <ns3:TrackPointExtension>
            <ns3:atemp>18.0</ns3:atemp>
          </ns3:TrackPointExtension>
        </extensions>
      </trkpt>
      <trkpt lat="42.6085144467651844024658203125" lon="19.88256507553160190582275390625">
        <ele>2002.199951171875</ele>
        <time>2026-06-16T09:45:00.000Z</time>
        <extensions>
          <ns3:TrackPointExtension>
            <ns3:atemp>18.0</ns3:atemp>
          </ns3:TrackPointExtension>
        </extensions>
      </trkpt>
      <trkpt lat="42.6085144467651844024658203125" lon="19.88256507553160190582275390625">
        <ele>2002.199951171875</ele>
        <time>2026-06-16T09:45:01.000Z</time>
        <extensions>
          <ns3:TrackPointExtension>
            <ns3:atemp>18.0</ns3:atemp>
          </ns3:TrackPointExtension>
        </extensions>
      </trkpt>
      <trkpt lat="42.6085144467651844024658203125" lon="19.88256507553160190582275390625">
        <ele>2002.199951171875</ele>
        <time>2026-06-16T09:45:02.000Z</time>
        <extensions>
          <ns3:TrackPointExtension>
            <ns3:atemp>18.0</ns3:atemp>
          </ns3:TrackPointExtension>
        </extensions>
      </trkpt>
      <trkpt lat="42.6085144467651844024658203125" lon="19.88256507553160190582275390625">
        <ele>2002.199951171875</ele>
        <time>2026-06-16T09:45:03.000Z</time>
        <extensions>
          <ns3:TrackPointExtension>
            <ns3:atemp>18.0</ns3:atemp>
          </ns3:TrackPointExtension>
        </extensions>
      </trkpt>
      <trkpt lat="42.6085144467651844024658203125" lon="19.88256507553160190582275390625">
        <ele>2002.199951171875</ele>
        <time>2026-06-16T09:45:04.000Z</time>
        <extensions>
          <ns3:TrackPointExtension>
            <ns3:atemp>18.0</ns3:atemp>
          </ns3:TrackPointExtension>
        </extensions>
      </trkpt>
      <trkpt lat="42.6085144467651844024658203125" lon="19.88256507553160190582275390625">
        <ele>2002.199951171875</ele>
        <time>2026-06-16T09:45:05.000Z</time>
        <extensions>
          <ns3:TrackPointExtension>
            <ns3:atemp>18.0</ns3:atemp>
          </ns3:TrackPointExtension>
        </extensions>
      </trkpt>
      <trkpt lat="42.6085144467651844024658203125" lon="19.88256507553160190582275390625">
        <ele>2002.199951171875</ele>
        <time>2026-06-16T09:45:06.000Z</time>
        <extensions>
          <ns3:TrackPointExtension>
            <ns3:atemp>18.0</ns3:atemp>
          </ns3:TrackPointExtension>
        </extensions>
      </trkpt>
      <trkpt lat="42.6085144467651844024658203125" lon="19.88256507553160190582275390625">
        <ele>2002.199951171875</ele>
        <time>2026-06-16T09:45:07.000Z</time>
        <extensions>
          <ns3:TrackPointExtension>
            <ns3:atemp>18.0</ns3:atemp>
          </ns3:TrackPointExtension>
        </extensions>
      </trkpt>
      <trkpt lat="42.6085144467651844024658203125" lon="19.88256507553160190582275390625">
        <ele>2002.199951171875</ele>
        <time>2026-06-16T09:45:08.000Z</time>
        <extensions>
          <ns3:TrackPointExtension>
            <ns3:atemp>18.0</ns3:atemp>
          </ns3:TrackPointExtension>
        </extensions>
      </trkpt>
      <trkpt lat="42.6085144467651844024658203125" lon="19.88256507553160190582275390625">
        <ele>2002.199951171875</ele>
        <time>2026-06-16T09:45:09.000Z</time>
        <extensions>
          <ns3:TrackPointExtension>
            <ns3:atemp>18.0</ns3:atemp>
          </ns3:TrackPointExtension>
        </extensions>
      </trkpt>
      <trkpt lat="42.6085144467651844024658203125" lon="19.88256507553160190582275390625">
        <ele>2002.199951171875</ele>
        <time>2026-06-16T09:45:10.000Z</time>
        <extensions>
          <ns3:TrackPointExtension>
            <ns3:atemp>18.0</ns3:atemp>
          </ns3:TrackPointExtension>
        </extensions>
      </trkpt>
      <trkpt lat="42.6085144467651844024658203125" lon="19.88256507553160190582275390625">
        <ele>2002.199951171875</ele>
        <time>2026-06-16T09:45:11.000Z</time>
        <extensions>
          <ns3:TrackPointExtension>
            <ns3:atemp>18.0</ns3:atemp>
          </ns3:TrackPointExtension>
        </extensions>
      </trkpt>
      <trkpt lat="42.6085144467651844024658203125" lon="19.88256507553160190582275390625">
        <ele>2002.199951171875</ele>
        <time>2026-06-16T09:45:12.000Z</time>
        <extensions>
          <ns3:TrackPointExtension>
            <ns3:atemp>18.0</ns3:atemp>
          </ns3:TrackPointExtension>
        </extensions>
      </trkpt>
      <trkpt lat="42.6085144467651844024658203125" lon="19.88256507553160190582275390625">
        <ele>2002.199951171875</ele>
        <time>2026-06-16T09:45:13.000Z</time>
        <extensions>
          <ns3:TrackPointExtension>
            <ns3:atemp>18.0</ns3:atemp>
          </ns3:TrackPointExtension>
        </extensions>
      </trkpt>
      <trkpt lat="42.6085144467651844024658203125" lon="19.88256507553160190582275390625">
        <ele>2002.199951171875</ele>
        <time>2026-06-16T09:45:14.000Z</time>
        <extensions>
          <ns3:TrackPointExtension>
            <ns3:atemp>18.0</ns3:atemp>
          </ns3:TrackPointExtension>
        </extensions>
      </trkpt>
      <trkpt lat="42.6085144467651844024658203125" lon="19.88256507553160190582275390625">
        <ele>2002.199951171875</ele>
        <time>2026-06-16T09:45:15.000Z</time>
        <extensions>
          <ns3:TrackPointExtension>
            <ns3:atemp>18.0</ns3:atemp>
          </ns3:TrackPointExtension>
        </extensions>
      </trkpt>
      <trkpt lat="42.6085144467651844024658203125" lon="19.88256507553160190582275390625">
        <ele>2002.199951171875</ele>
        <time>2026-06-16T09:45:16.000Z</time>
        <extensions>
          <ns3:TrackPointExtension>
            <ns3:atemp>18.0</ns3:atemp>
          </ns3:TrackPointExtension>
        </extensions>
      </trkpt>
      <trkpt lat="42.6085144467651844024658203125" lon="19.88256507553160190582275390625">
        <ele>2002.199951171875</ele>
        <time>2026-06-16T09:45:17.000Z</time>
        <extensions>
          <ns3:TrackPointExtension>
            <ns3:atemp>18.0</ns3:atemp>
          </ns3:TrackPointExtension>
        </extensions>
      </trkpt>
      <trkpt lat="42.6085144467651844024658203125" lon="19.88256507553160190582275390625">
        <ele>2002.199951171875</ele>
        <time>2026-06-16T09:45:18.000Z</time>
        <extensions>
          <ns3:TrackPointExtension>
            <ns3:atemp>18.0</ns3:atemp>
          </ns3:TrackPointExtension>
        </extensions>
      </trkpt>
      <trkpt lat="42.6085144467651844024658203125" lon="19.88256507553160190582275390625">
        <ele>2002.199951171875</ele>
        <time>2026-06-16T09:45:19.000Z</time>
        <extensions>
          <ns3:TrackPointExtension>
            <ns3:atemp>18.0</ns3:atemp>
          </ns3:TrackPointExtension>
        </extensions>
      </trkpt>
      <trkpt lat="42.6085144467651844024658203125" lon="19.88256507553160190582275390625">
        <ele>2002.199951171875</ele>
        <time>2026-06-16T09:45:20.000Z</time>
        <extensions>
          <ns3:TrackPointExtension>
            <ns3:atemp>18.0</ns3:atemp>
          </ns3:TrackPointExtension>
        </extensions>
      </trkpt>
      <trkpt lat="42.6085144467651844024658203125" lon="19.88256507553160190582275390625">
        <ele>2002.199951171875</ele>
        <time>2026-06-16T09:45:21.000Z</time>
        <extensions>
          <ns3:TrackPointExtension>
            <ns3:atemp>18.0</ns3:atemp>
          </ns3:TrackPointExtension>
        </extensions>
      </trkpt>
      <trkpt lat="42.6085144467651844024658203125" lon="19.88256507553160190582275390625">
        <ele>2002.199951171875</ele>
        <time>2026-06-16T09:45:22.000Z</time>
        <extensions>
          <ns3:TrackPointExtension>
            <ns3:atemp>18.0</ns3:atemp>
          </ns3:TrackPointExtension>
        </extensions>
      </trkpt>
      <trkpt lat="42.6085144467651844024658203125" lon="19.88256507553160190582275390625">
        <ele>2002.199951171875</ele>
        <time>2026-06-16T09:45:23.000Z</time>
        <extensions>
          <ns3:TrackPointExtension>
            <ns3:atemp>18.0</ns3:atemp>
          </ns3:TrackPointExtension>
        </extensions>
      </trkpt>
      <trkpt lat="42.6085144467651844024658203125" lon="19.88256507553160190582275390625">
        <ele>2002.199951171875</ele>
        <time>2026-06-16T09:45:24.000Z</time>
        <extensions>
          <ns3:TrackPointExtension>
            <ns3:atemp>18.0</ns3:atemp>
          </ns3:TrackPointExtension>
        </extensions>
      </trkpt>
      <trkpt lat="42.6085144467651844024658203125" lon="19.88256507553160190582275390625">
        <ele>2002.199951171875</ele>
        <time>2026-06-16T09:45:25.000Z</time>
        <extensions>
          <ns3:TrackPointExtension>
            <ns3:atemp>18.0</ns3:atemp>
          </ns3:TrackPointExtension>
        </extensions>
      </trkpt>
      <trkpt lat="42.6085144467651844024658203125" lon="19.88256507553160190582275390625">
        <ele>2002.199951171875</ele>
        <time>2026-06-16T09:45:26.000Z</time>
        <extensions>
          <ns3:TrackPointExtension>
            <ns3:atemp>18.0</ns3:atemp>
          </ns3:TrackPointExtension>
        </extensions>
      </trkpt>
      <trkpt lat="42.6085144467651844024658203125" lon="19.88256507553160190582275390625">
        <ele>2002.199951171875</ele>
        <time>2026-06-16T09:45:27.000Z</time>
        <extensions>
          <ns3:TrackPointExtension>
            <ns3:atemp>18.0</ns3:atemp>
          </ns3:TrackPointExtension>
        </extensions>
      </trkpt>
      <trkpt lat="42.6085144467651844024658203125" lon="19.88256507553160190582275390625">
        <ele>2002.199951171875</ele>
        <time>2026-06-16T09:45:28.000Z</time>
        <extensions>
          <ns3:TrackPointExtension>
            <ns3:atemp>18.0</ns3:atemp>
          </ns3:TrackPointExtension>
        </extensions>
      </trkpt>
      <trkpt lat="42.6085144467651844024658203125" lon="19.88256507553160190582275390625">
        <ele>2002.199951171875</ele>
        <time>2026-06-16T09:45:29.000Z</time>
        <extensions>
          <ns3:TrackPointExtension>
            <ns3:atemp>18.0</ns3:atemp>
          </ns3:TrackPointExtension>
        </extensions>
      </trkpt>
      <trkpt lat="42.6085144467651844024658203125" lon="19.88256507553160190582275390625">
        <ele>2002.199951171875</ele>
        <time>2026-06-16T09:45:30.000Z</time>
        <extensions>
          <ns3:TrackPointExtension>
            <ns3:atemp>18.0</ns3:atemp>
          </ns3:TrackPointExtension>
        </extensions>
      </trkpt>
      <trkpt lat="42.6085144467651844024658203125" lon="19.88256507553160190582275390625">
        <ele>2002.199951171875</ele>
        <time>2026-06-16T09:45:31.000Z</time>
        <extensions>
          <ns3:TrackPointExtension>
            <ns3:atemp>18.0</ns3:atemp>
          </ns3:TrackPointExtension>
        </extensions>
      </trkpt>
      <trkpt lat="42.6085144467651844024658203125" lon="19.88256507553160190582275390625">
        <ele>2002.199951171875</ele>
        <time>2026-06-16T09:45:32.000Z</time>
        <extensions>
          <ns3:TrackPointExtension>
            <ns3:atemp>18.0</ns3:atemp>
          </ns3:TrackPointExtension>
        </extensions>
      </trkpt>
      <trkpt lat="42.6085144467651844024658203125" lon="19.88256507553160190582275390625">
        <ele>2002.199951171875</ele>
        <time>2026-06-16T09:45:33.000Z</time>
        <extensions>
          <ns3:TrackPointExtension>
            <ns3:atemp>18.0</ns3:atemp>
          </ns3:TrackPointExtension>
        </extensions>
      </trkpt>
      <trkpt lat="42.6085144467651844024658203125" lon="19.88256507553160190582275390625">
        <ele>2002.199951171875</ele>
        <time>2026-06-16T09:45:34.000Z</time>
        <extensions>
          <ns3:TrackPointExtension>
            <ns3:atemp>18.0</ns3:atemp>
          </ns3:TrackPointExtension>
        </extensions>
      </trkpt>
      <trkpt lat="42.6085144467651844024658203125" lon="19.88256507553160190582275390625">
        <ele>2002.199951171875</ele>
        <time>2026-06-16T09:45:35.000Z</time>
        <extensions>
          <ns3:TrackPointExtension>
            <ns3:atemp>18.0</ns3:atemp>
          </ns3:TrackPointExtension>
        </extensions>
      </trkpt>
      <trkpt lat="42.6085144467651844024658203125" lon="19.88256507553160190582275390625">
        <ele>2002.199951171875</ele>
        <time>2026-06-16T09:45:36.000Z</time>
        <extensions>
          <ns3:TrackPointExtension>
            <ns3:atemp>18.0</ns3:atemp>
          </ns3:TrackPointExtension>
        </extensions>
      </trkpt>
      <trkpt lat="42.6085144467651844024658203125" lon="19.88256507553160190582275390625">
        <ele>2002.199951171875</ele>
        <time>2026-06-16T09:45:37.000Z</time>
        <extensions>
          <ns3:TrackPointExtension>
            <ns3:atemp>18.0</ns3:atemp>
          </ns3:TrackPointExtension>
        </extensions>
      </trkpt>
      <trkpt lat="42.6085144467651844024658203125" lon="19.88256507553160190582275390625">
        <ele>2002.199951171875</ele>
        <time>2026-06-16T09:45:38.000Z</time>
        <extensions>
          <ns3:TrackPointExtension>
            <ns3:atemp>18.0</ns3:atemp>
          </ns3:TrackPointExtension>
        </extensions>
      </trkpt>
      <trkpt lat="42.6085144467651844024658203125" lon="19.88256507553160190582275390625">
        <ele>2002.199951171875</ele>
        <time>2026-06-16T09:45:39.000Z</time>
        <extensions>
          <ns3:TrackPointExtension>
            <ns3:atemp>18.0</ns3:atemp>
          </ns3:TrackPointExtension>
        </extensions>
      </trkpt>
      <trkpt lat="42.6085144467651844024658203125" lon="19.88256507553160190582275390625">
        <ele>2002.199951171875</ele>
        <time>2026-06-16T09:45:40.000Z</time>
        <extensions>
          <ns3:TrackPointExtension>
            <ns3:atemp>18.0</ns3:atemp>
          </ns3:TrackPointExtension>
        </extensions>
      </trkpt>
      <trkpt lat="42.6085144467651844024658203125" lon="19.88256507553160190582275390625">
        <ele>2002.199951171875</ele>
        <time>2026-06-16T09:45:41.000Z</time>
        <extensions>
          <ns3:TrackPointExtension>
            <ns3:atemp>18.0</ns3:atemp>
          </ns3:TrackPointExtension>
        </extensions>
      </trkpt>
      <trkpt lat="42.6085144467651844024658203125" lon="19.88256507553160190582275390625">
        <ele>2002.199951171875</ele>
        <time>2026-06-16T09:45:42.000Z</time>
        <extensions>
          <ns3:TrackPointExtension>
            <ns3:atemp>18.0</ns3:atemp>
          </ns3:TrackPointExtension>
        </extensions>
      </trkpt>
      <trkpt lat="42.6085144467651844024658203125" lon="19.88256507553160190582275390625">
        <ele>2002.199951171875</ele>
        <time>2026-06-16T09:45:43.000Z</time>
        <extensions>
          <ns3:TrackPointExtension>
            <ns3:atemp>18.0</ns3:atemp>
          </ns3:TrackPointExtension>
        </extensions>
      </trkpt>
      <trkpt lat="42.6085144467651844024658203125" lon="19.88256507553160190582275390625">
        <ele>2002.199951171875</ele>
        <time>2026-06-16T09:45:44.000Z</time>
        <extensions>
          <ns3:TrackPointExtension>
            <ns3:atemp>18.0</ns3:atemp>
          </ns3:TrackPointExtension>
        </extensions>
      </trkpt>
      <trkpt lat="42.6085144467651844024658203125" lon="19.88256507553160190582275390625">
        <ele>2002.199951171875</ele>
        <time>2026-06-16T09:45:45.000Z</time>
        <extensions>
          <ns3:TrackPointExtension>
            <ns3:atemp>18.0</ns3:atemp>
          </ns3:TrackPointExtension>
        </extensions>
      </trkpt>
      <trkpt lat="42.6085144467651844024658203125" lon="19.88256507553160190582275390625">
        <ele>2002.199951171875</ele>
        <time>2026-06-16T09:45:46.000Z</time>
        <extensions>
          <ns3:TrackPointExtension>
            <ns3:atemp>18.0</ns3:atemp>
          </ns3:TrackPointExtension>
        </extensions>
      </trkpt>
      <trkpt lat="42.6085144467651844024658203125" lon="19.88256507553160190582275390625">
        <ele>2002.199951171875</ele>
        <time>2026-06-16T09:45:47.000Z</time>
        <extensions>
          <ns3:TrackPointExtension>
            <ns3:atemp>18.0</ns3:atemp>
          </ns3:TrackPointExtension>
        </extensions>
      </trkpt>
      <trkpt lat="42.6085144467651844024658203125" lon="19.88256507553160190582275390625">
        <ele>2002.199951171875</ele>
        <time>2026-06-16T09:45:48.000Z</time>
        <extensions>
          <ns3:TrackPointExtension>
            <ns3:atemp>18.0</ns3:atemp>
          </ns3:TrackPointExtension>
        </extensions>
      </trkpt>
      <trkpt lat="42.6085144467651844024658203125" lon="19.88256507553160190582275390625">
        <ele>2002.199951171875</ele>
        <time>2026-06-16T09:45:49.000Z</time>
        <extensions>
          <ns3:TrackPointExtension>
            <ns3:atemp>18.0</ns3:atemp>
          </ns3:TrackPointExtension>
        </extensions>
      </trkpt>
      <trkpt lat="42.6085144467651844024658203125" lon="19.88256507553160190582275390625">
        <ele>2002.199951171875</ele>
        <time>2026-06-16T09:45:50.000Z</time>
        <extensions>
          <ns3:TrackPointExtension>
            <ns3:atemp>18.0</ns3:atemp>
          </ns3:TrackPointExtension>
        </extensions>
      </trkpt>
      <trkpt lat="42.6085144467651844024658203125" lon="19.88256507553160190582275390625">
        <ele>2002.199951171875</ele>
        <time>2026-06-16T09:45:51.000Z</time>
        <extensions>
          <ns3:TrackPointExtension>
            <ns3:atemp>18.0</ns3:atemp>
          </ns3:TrackPointExtension>
        </extensions>
      </trkpt>
      <trkpt lat="42.6085144467651844024658203125" lon="19.88256507553160190582275390625">
        <ele>2002.199951171875</ele>
        <time>2026-06-16T09:45:52.000Z</time>
        <extensions>
          <ns3:TrackPointExtension>
            <ns3:atemp>18.0</ns3:atemp>
          </ns3:TrackPointExtension>
        </extensions>
      </trkpt>
      <trkpt lat="42.6085144467651844024658203125" lon="19.88256507553160190582275390625">
        <ele>2002.199951171875</ele>
        <time>2026-06-16T09:45:53.000Z</time>
        <extensions>
          <ns3:TrackPointExtension>
            <ns3:atemp>18.0</ns3:atemp>
          </ns3:TrackPointExtension>
        </extensions>
      </trkpt>
      <trkpt lat="42.6085144467651844024658203125" lon="19.88256507553160190582275390625">
        <ele>2002.199951171875</ele>
        <time>2026-06-16T09:45:54.000Z</time>
        <extensions>
          <ns3:TrackPointExtension>
            <ns3:atemp>18.0</ns3:atemp>
          </ns3:TrackPointExtension>
        </extensions>
      </trkpt>
      <trkpt lat="42.6085144467651844024658203125" lon="19.88256507553160190582275390625">
        <ele>2002.199951171875</ele>
        <time>2026-06-16T09:45:55.000Z</time>
        <extensions>
          <ns3:TrackPointExtension>
            <ns3:atemp>18.0</ns3:atemp>
          </ns3:TrackPointExtension>
        </extensions>
      </trkpt>
      <trkpt lat="42.6085144467651844024658203125" lon="19.88256507553160190582275390625">
        <ele>2002.199951171875</ele>
        <time>2026-06-16T09:45:56.000Z</time>
        <extensions>
          <ns3:TrackPointExtension>
            <ns3:atemp>18.0</ns3:atemp>
          </ns3:TrackPointExtension>
        </extensions>
      </trkpt>
      <trkpt lat="42.6085144467651844024658203125" lon="19.88256507553160190582275390625">
        <ele>2002.199951171875</ele>
        <time>2026-06-16T09:45:57.000Z</time>
        <extensions>
          <ns3:TrackPointExtension>
            <ns3:atemp>18.0</ns3:atemp>
          </ns3:TrackPointExtension>
        </extensions>
      </trkpt>
      <trkpt lat="42.6085144467651844024658203125" lon="19.88256507553160190582275390625">
        <ele>2002.199951171875</ele>
        <time>2026-06-16T09:45:58.000Z</time>
        <extensions>
          <ns3:TrackPointExtension>
            <ns3:atemp>18.0</ns3:atemp>
          </ns3:TrackPointExtension>
        </extensions>
      </trkpt>
      <trkpt lat="42.6085144467651844024658203125" lon="19.88256507553160190582275390625">
        <ele>2002.199951171875</ele>
        <time>2026-06-16T09:45:59.000Z</time>
        <extensions>
          <ns3:TrackPointExtension>
            <ns3:atemp>18.0</ns3:atemp>
          </ns3:TrackPointExtension>
        </extensions>
      </trkpt>
      <trkpt lat="42.6085144467651844024658203125" lon="19.88256507553160190582275390625">
        <ele>2002.199951171875</ele>
        <time>2026-06-16T09:46:00.000Z</time>
        <extensions>
          <ns3:TrackPointExtension>
            <ns3:atemp>18.0</ns3:atemp>
          </ns3:TrackPointExtension>
        </extensions>
      </trkpt>
      <trkpt lat="42.6085144467651844024658203125" lon="19.88256507553160190582275390625">
        <ele>2002.199951171875</ele>
        <time>2026-06-16T09:46:01.000Z</time>
        <extensions>
          <ns3:TrackPointExtension>
            <ns3:atemp>18.0</ns3:atemp>
          </ns3:TrackPointExtension>
        </extensions>
      </trkpt>
      <trkpt lat="42.6085144467651844024658203125" lon="19.88256507553160190582275390625">
        <ele>2002.199951171875</ele>
        <time>2026-06-16T09:46:02.000Z</time>
        <extensions>
          <ns3:TrackPointExtension>
            <ns3:atemp>18.0</ns3:atemp>
          </ns3:TrackPointExtension>
        </extensions>
      </trkpt>
      <trkpt lat="42.6085144467651844024658203125" lon="19.88256507553160190582275390625">
        <ele>2002.199951171875</ele>
        <time>2026-06-16T09:46:03.000Z</time>
        <extensions>
          <ns3:TrackPointExtension>
            <ns3:atemp>18.0</ns3:atemp>
          </ns3:TrackPointExtension>
        </extensions>
      </trkpt>
      <trkpt lat="42.6085144467651844024658203125" lon="19.88256507553160190582275390625">
        <ele>2002.199951171875</ele>
        <time>2026-06-16T09:46:04.000Z</time>
        <extensions>
          <ns3:TrackPointExtension>
            <ns3:atemp>18.0</ns3:atemp>
          </ns3:TrackPointExtension>
        </extensions>
      </trkpt>
      <trkpt lat="42.6085144467651844024658203125" lon="19.88256507553160190582275390625">
        <ele>2002.199951171875</ele>
        <time>2026-06-16T09:46:05.000Z</time>
        <extensions>
          <ns3:TrackPointExtension>
            <ns3:atemp>18.0</ns3:atemp>
          </ns3:TrackPointExtension>
        </extensions>
      </trkpt>
      <trkpt lat="42.6085144467651844024658203125" lon="19.88256507553160190582275390625">
        <ele>2002.199951171875</ele>
        <time>2026-06-16T09:46:06.000Z</time>
        <extensions>
          <ns3:TrackPointExtension>
            <ns3:atemp>18.0</ns3:atemp>
          </ns3:TrackPointExtension>
        </extensions>
      </trkpt>
      <trkpt lat="42.6085144467651844024658203125" lon="19.88256507553160190582275390625">
        <ele>2002.199951171875</ele>
        <time>2026-06-16T09:46:07.000Z</time>
        <extensions>
          <ns3:TrackPointExtension>
            <ns3:atemp>18.0</ns3:atemp>
          </ns3:TrackPointExtension>
        </extensions>
      </trkpt>
      <trkpt lat="42.608517296612262725830078125" lon="19.88256624899804592132568359375">
        <ele>2002.199951171875</ele>
        <time>2026-06-16T09:46:08.000Z</time>
        <extensions>
          <ns3:TrackPointExtension>
            <ns3:atemp>18.0</ns3:atemp>
          </ns3:TrackPointExtension>
        </extensions>
      </trkpt>
      <trkpt lat="42.6085144467651844024658203125" lon="19.88256507553160190582275390625">
        <ele>2002.199951171875</ele>
        <time>2026-06-16T09:46:09.000Z</time>
        <extensions>
          <ns3:TrackPointExtension>
            <ns3:atemp>18.0</ns3:atemp>
          </ns3:TrackPointExtension>
        </extensions>
      </trkpt>
      <trkpt lat="42.6085144467651844024658203125" lon="19.88256507553160190582275390625">
        <ele>2002.199951171875</ele>
        <time>2026-06-16T09:46:10.000Z</time>
        <extensions>
          <ns3:TrackPointExtension>
            <ns3:atemp>18.0</ns3:atemp>
          </ns3:TrackPointExtension>
        </extensions>
      </trkpt>
      <trkpt lat="42.6085144467651844024658203125" lon="19.88256507553160190582275390625">
        <ele>2002.199951171875</ele>
        <time>2026-06-16T09:46:11.000Z</time>
        <extensions>
          <ns3:TrackPointExtension>
            <ns3:atemp>18.0</ns3:atemp>
          </ns3:TrackPointExtension>
        </extensions>
      </trkpt>
      <trkpt lat="42.6085144467651844024658203125" lon="19.88256507553160190582275390625">
        <ele>2002.199951171875</ele>
        <time>2026-06-16T09:46:12.000Z</time>
        <extensions>
          <ns3:TrackPointExtension>
            <ns3:atemp>18.0</ns3:atemp>
          </ns3:TrackPointExtension>
        </extensions>
      </trkpt>
      <trkpt lat="42.6085144467651844024658203125" lon="19.88256507553160190582275390625">
        <ele>2002.199951171875</ele>
        <time>2026-06-16T09:46:13.000Z</time>
        <extensions>
          <ns3:TrackPointExtension>
            <ns3:atemp>18.0</ns3:atemp>
          </ns3:TrackPointExtension>
        </extensions>
      </trkpt>
      <trkpt lat="42.6085144467651844024658203125" lon="19.88256507553160190582275390625">
        <ele>2002.199951171875</ele>
        <time>2026-06-16T09:46:14.000Z</time>
        <extensions>
          <ns3:TrackPointExtension>
            <ns3:atemp>18.0</ns3:atemp>
          </ns3:TrackPointExtension>
        </extensions>
      </trkpt>
      <trkpt lat="42.6085144467651844024658203125" lon="19.88256507553160190582275390625">
        <ele>2002.199951171875</ele>
        <time>2026-06-16T09:46:15.000Z</time>
        <extensions>
          <ns3:TrackPointExtension>
            <ns3:atemp>18.0</ns3:atemp>
          </ns3:TrackPointExtension>
        </extensions>
      </trkpt>
      <trkpt lat="42.6085144467651844024658203125" lon="19.88256507553160190582275390625">
        <ele>2002.199951171875</ele>
        <time>2026-06-16T09:46:16.000Z</time>
        <extensions>
          <ns3:TrackPointExtension>
            <ns3:atemp>18.0</ns3:atemp>
          </ns3:TrackPointExtension>
        </extensions>
      </trkpt>
      <trkpt lat="42.6085144467651844024658203125" lon="19.88256507553160190582275390625">
        <ele>2002.199951171875</ele>
        <time>2026-06-16T09:46:17.000Z</time>
        <extensions>
          <ns3:TrackPointExtension>
            <ns3:atemp>18.0</ns3:atemp>
          </ns3:TrackPointExtension>
        </extensions>
      </trkpt>
      <trkpt lat="42.6085144467651844024658203125" lon="19.88256507553160190582275390625">
        <ele>2002.199951171875</ele>
        <time>2026-06-16T09:46:18.000Z</time>
        <extensions>
          <ns3:TrackPointExtension>
            <ns3:atemp>18.0</ns3:atemp>
          </ns3:TrackPointExtension>
        </extensions>
      </trkpt>
      <trkpt lat="42.6085144467651844024658203125" lon="19.88256507553160190582275390625">
        <ele>2002.199951171875</ele>
        <time>2026-06-16T09:46:19.000Z</time>
        <extensions>
          <ns3:TrackPointExtension>
            <ns3:atemp>18.0</ns3:atemp>
          </ns3:TrackPointExtension>
        </extensions>
      </trkpt>
      <trkpt lat="42.6085144467651844024658203125" lon="19.88256507553160190582275390625">
        <ele>2002.199951171875</ele>
        <time>2026-06-16T09:46:20.000Z</time>
        <extensions>
          <ns3:TrackPointExtension>
            <ns3:atemp>18.0</ns3:atemp>
          </ns3:TrackPointExtension>
        </extensions>
      </trkpt>
      <trkpt lat="42.6085144467651844024658203125" lon="19.88256507553160190582275390625">
        <ele>2002.199951171875</ele>
        <time>2026-06-16T09:46:21.000Z</time>
        <extensions>
          <ns3:TrackPointExtension>
            <ns3:atemp>18.0</ns3:atemp>
          </ns3:TrackPointExtension>
        </extensions>
      </trkpt>
      <trkpt lat="42.6085144467651844024658203125" lon="19.88256507553160190582275390625">
        <ele>2002.199951171875</ele>
        <time>2026-06-16T09:46:22.000Z</time>
        <extensions>
          <ns3:TrackPointExtension>
            <ns3:atemp>18.0</ns3:atemp>
          </ns3:TrackPointExtension>
        </extensions>
      </trkpt>
      <trkpt lat="42.6085144467651844024658203125" lon="19.88256507553160190582275390625">
        <ele>2002.199951171875</ele>
        <time>2026-06-16T09:46:23.000Z</time>
        <extensions>
          <ns3:TrackPointExtension>
            <ns3:atemp>18.0</ns3:atemp>
          </ns3:TrackPointExtension>
        </extensions>
      </trkpt>
      <trkpt lat="42.6085144467651844024658203125" lon="19.88256507553160190582275390625">
        <ele>2002.199951171875</ele>
        <time>2026-06-16T09:46:24.000Z</time>
        <extensions>
          <ns3:TrackPointExtension>
            <ns3:atemp>18.0</ns3:atemp>
          </ns3:TrackPointExtension>
        </extensions>
      </trkpt>
      <trkpt lat="42.6085144467651844024658203125" lon="19.88256507553160190582275390625">
        <ele>2002.199951171875</ele>
        <time>2026-06-16T09:46:25.000Z</time>
        <extensions>
          <ns3:TrackPointExtension>
            <ns3:atemp>18.0</ns3:atemp>
          </ns3:TrackPointExtension>
        </extensions>
      </trkpt>
      <trkpt lat="42.6085144467651844024658203125" lon="19.88256507553160190582275390625">
        <ele>2002.199951171875</ele>
        <time>2026-06-16T09:46:26.000Z</time>
        <extensions>
          <ns3:TrackPointExtension>
            <ns3:atemp>18.0</ns3:atemp>
          </ns3:TrackPointExtension>
        </extensions>
      </trkpt>
      <trkpt lat="42.6085144467651844024658203125" lon="19.88256507553160190582275390625">
        <ele>2002.199951171875</ele>
        <time>2026-06-16T09:46:27.000Z</time>
        <extensions>
          <ns3:TrackPointExtension>
            <ns3:atemp>18.0</ns3:atemp>
          </ns3:TrackPointExtension>
        </extensions>
      </trkpt>
      <trkpt lat="42.6085144467651844024658203125" lon="19.88256507553160190582275390625">
        <ele>2002.199951171875</ele>
        <time>2026-06-16T09:46:28.000Z</time>
        <extensions>
          <ns3:TrackPointExtension>
            <ns3:atemp>18.0</ns3:atemp>
          </ns3:TrackPointExtension>
        </extensions>
      </trkpt>
      <trkpt lat="42.6085144467651844024658203125" lon="19.88256507553160190582275390625">
        <ele>2002.199951171875</ele>
        <time>2026-06-16T09:46:29.000Z</time>
        <extensions>
          <ns3:TrackPointExtension>
            <ns3:atemp>18.0</ns3:atemp>
          </ns3:TrackPointExtension>
        </extensions>
      </trkpt>
      <trkpt lat="42.6085144467651844024658203125" lon="19.88256507553160190582275390625">
        <ele>2002.199951171875</ele>
        <time>2026-06-16T09:46:30.000Z</time>
        <extensions>
          <ns3:TrackPointExtension>
            <ns3:atemp>18.0</ns3:atemp>
          </ns3:TrackPointExtension>
        </extensions>
      </trkpt>
      <trkpt lat="42.6085144467651844024658203125" lon="19.88256507553160190582275390625">
        <ele>2002.199951171875</ele>
        <time>2026-06-16T09:46:31.000Z</time>
        <extensions>
          <ns3:TrackPointExtension>
            <ns3:atemp>18.0</ns3:atemp>
          </ns3:TrackPointExtension>
        </extensions>
      </trkpt>
      <trkpt lat="42.6085144467651844024658203125" lon="19.88256507553160190582275390625">
        <ele>2002.199951171875</ele>
        <time>2026-06-16T09:46:32.000Z</time>
        <extensions>
          <ns3:TrackPointExtension>
            <ns3:atemp>18.0</ns3:atemp>
          </ns3:TrackPointExtension>
        </extensions>
      </trkpt>
      <trkpt lat="42.6085144467651844024658203125" lon="19.88256507553160190582275390625">
        <ele>2002.199951171875</ele>
        <time>2026-06-16T09:46:33.000Z</time>
        <extensions>
          <ns3:TrackPointExtension>
            <ns3:atemp>18.0</ns3:atemp>
          </ns3:TrackPointExtension>
        </extensions>
      </trkpt>
      <trkpt lat="42.6085144467651844024658203125" lon="19.88256507553160190582275390625">
        <ele>2002.199951171875</ele>
        <time>2026-06-16T09:46:34.000Z</time>
        <extensions>
          <ns3:TrackPointExtension>
            <ns3:atemp>18.0</ns3:atemp>
          </ns3:TrackPointExtension>
        </extensions>
      </trkpt>
      <trkpt lat="42.6085144467651844024658203125" lon="19.88256507553160190582275390625">
        <ele>2002.199951171875</ele>
        <time>2026-06-16T09:46:35.000Z</time>
        <extensions>
          <ns3:TrackPointExtension>
            <ns3:atemp>18.0</ns3:atemp>
          </ns3:TrackPointExtension>
        </extensions>
      </trkpt>
      <trkpt lat="42.6085144467651844024658203125" lon="19.88256507553160190582275390625">
        <ele>2002.199951171875</ele>
        <time>2026-06-16T09:46:36.000Z</time>
        <extensions>
          <ns3:TrackPointExtension>
            <ns3:atemp>18.0</ns3:atemp>
          </ns3:TrackPointExtension>
        </extensions>
      </trkpt>
      <trkpt lat="42.6085144467651844024658203125" lon="19.88256507553160190582275390625">
        <ele>2002.199951171875</ele>
        <time>2026-06-16T09:46:37.000Z</time>
        <extensions>
          <ns3:TrackPointExtension>
            <ns3:atemp>18.0</ns3:atemp>
          </ns3:TrackPointExtension>
        </extensions>
      </trkpt>
      <trkpt lat="42.6085144467651844024658203125" lon="19.88256507553160190582275390625">
        <ele>2002.199951171875</ele>
        <time>2026-06-16T09:46:38.000Z</time>
        <extensions>
          <ns3:TrackPointExtension>
            <ns3:atemp>18.0</ns3:atemp>
          </ns3:TrackPointExtension>
        </extensions>
      </trkpt>
      <trkpt lat="42.6085144467651844024658203125" lon="19.88256507553160190582275390625">
        <ele>2002.199951171875</ele>
        <time>2026-06-16T09:46:39.000Z</time>
        <extensions>
          <ns3:TrackPointExtension>
            <ns3:atemp>18.0</ns3:atemp>
          </ns3:TrackPointExtension>
        </extensions>
      </trkpt>
      <trkpt lat="42.6085144467651844024658203125" lon="19.88256507553160190582275390625">
        <ele>2002.199951171875</ele>
        <time>2026-06-16T09:46:40.000Z</time>
        <extensions>
          <ns3:TrackPointExtension>
            <ns3:atemp>18.0</ns3:atemp>
          </ns3:TrackPointExtension>
        </extensions>
      </trkpt>
      <trkpt lat="42.6085144467651844024658203125" lon="19.88256507553160190582275390625">
        <ele>2002.199951171875</ele>
        <time>2026-06-16T09:46:41.000Z</time>
        <extensions>
          <ns3:TrackPointExtension>
            <ns3:atemp>18.0</ns3:atemp>
          </ns3:TrackPointExtension>
        </extensions>
      </trkpt>
      <trkpt lat="42.6085144467651844024658203125" lon="19.88256507553160190582275390625">
        <ele>2002.199951171875</ele>
        <time>2026-06-16T09:46:42.000Z</time>
        <extensions>
          <ns3:TrackPointExtension>
            <ns3:atemp>18.0</ns3:atemp>
          </ns3:TrackPointExtension>
        </extensions>
      </trkpt>
      <trkpt lat="42.6085144467651844024658203125" lon="19.88256507553160190582275390625">
        <ele>2002.199951171875</ele>
        <time>2026-06-16T09:46:43.000Z</time>
        <extensions>
          <ns3:TrackPointExtension>
            <ns3:atemp>18.0</ns3:atemp>
          </ns3:TrackPointExtension>
        </extensions>
      </trkpt>
      <trkpt lat="42.6085144467651844024658203125" lon="19.88256507553160190582275390625">
        <ele>2002.199951171875</ele>
        <time>2026-06-16T09:46:44.000Z</time>
        <extensions>
          <ns3:TrackPointExtension>
            <ns3:atemp>18.0</ns3:atemp>
          </ns3:TrackPointExtension>
        </extensions>
      </trkpt>
      <trkpt lat="42.6085144467651844024658203125" lon="19.88256507553160190582275390625">
        <ele>2002.199951171875</ele>
        <time>2026-06-16T09:46:45.000Z</time>
        <extensions>
          <ns3:TrackPointExtension>
            <ns3:atemp>18.0</ns3:atemp>
          </ns3:TrackPointExtension>
        </extensions>
      </trkpt>
      <trkpt lat="42.6085144467651844024658203125" lon="19.88256507553160190582275390625">
        <ele>2002.199951171875</ele>
        <time>2026-06-16T09:46:46.000Z</time>
        <extensions>
          <ns3:TrackPointExtension>
            <ns3:atemp>18.0</ns3:atemp>
          </ns3:TrackPointExtension>
        </extensions>
      </trkpt>
      <trkpt lat="42.6085144467651844024658203125" lon="19.88256507553160190582275390625">
        <ele>2002.199951171875</ele>
        <time>2026-06-16T09:46:47.000Z</time>
        <extensions>
          <ns3:TrackPointExtension>
            <ns3:atemp>18.0</ns3:atemp>
          </ns3:TrackPointExtension>
        </extensions>
      </trkpt>
      <trkpt lat="42.6085144467651844024658203125" lon="19.88256507553160190582275390625">
        <ele>2002.199951171875</ele>
        <time>2026-06-16T09:46:48.000Z</time>
        <extensions>
          <ns3:TrackPointExtension>
            <ns3:atemp>18.0</ns3:atemp>
          </ns3:TrackPointExtension>
        </extensions>
      </trkpt>
      <trkpt lat="42.6085144467651844024658203125" lon="19.88256507553160190582275390625">
        <ele>2002.199951171875</ele>
        <time>2026-06-16T09:46:49.000Z</time>
        <extensions>
          <ns3:TrackPointExtension>
            <ns3:atemp>18.0</ns3:atemp>
          </ns3:TrackPointExtension>
        </extensions>
      </trkpt>
      <trkpt lat="42.6085144467651844024658203125" lon="19.88256507553160190582275390625">
        <ele>2002.199951171875</ele>
        <time>2026-06-16T09:46:50.000Z</time>
        <extensions>
          <ns3:TrackPointExtension>
            <ns3:atemp>18.0</ns3:atemp>
          </ns3:TrackPointExtension>
        </extensions>
      </trkpt>
      <trkpt lat="42.6085144467651844024658203125" lon="19.88256507553160190582275390625">
        <ele>2002.199951171875</ele>
        <time>2026-06-16T09:46:51.000Z</time>
        <extensions>
          <ns3:TrackPointExtension>
            <ns3:atemp>18.0</ns3:atemp>
          </ns3:TrackPointExtension>
        </extensions>
      </trkpt>
      <trkpt lat="42.6085144467651844024658203125" lon="19.88256507553160190582275390625">
        <ele>2002.199951171875</ele>
        <time>2026-06-16T09:46:52.000Z</time>
        <extensions>
          <ns3:TrackPointExtension>
            <ns3:atemp>18.0</ns3:atemp>
          </ns3:TrackPointExtension>
        </extensions>
      </trkpt>
      <trkpt lat="42.6085144467651844024658203125" lon="19.88256507553160190582275390625">
        <ele>2002.199951171875</ele>
        <time>2026-06-16T09:46:53.000Z</time>
        <extensions>
          <ns3:TrackPointExtension>
            <ns3:atemp>18.0</ns3:atemp>
          </ns3:TrackPointExtension>
        </extensions>
      </trkpt>
      <trkpt lat="42.6085144467651844024658203125" lon="19.88256507553160190582275390625">
        <ele>2002.199951171875</ele>
        <time>2026-06-16T09:46:54.000Z</time>
        <extensions>
          <ns3:TrackPointExtension>
            <ns3:atemp>18.0</ns3:atemp>
          </ns3:TrackPointExtension>
        </extensions>
      </trkpt>
      <trkpt lat="42.6085144467651844024658203125" lon="19.88256507553160190582275390625">
        <ele>2002.199951171875</ele>
        <time>2026-06-16T09:46:55.000Z</time>
        <extensions>
          <ns3:TrackPointExtension>
            <ns3:atemp>18.0</ns3:atemp>
          </ns3:TrackPointExtension>
        </extensions>
      </trkpt>
      <trkpt lat="42.6085144467651844024658203125" lon="19.88256507553160190582275390625">
        <ele>2002.199951171875</ele>
        <time>2026-06-16T09:46:56.000Z</time>
        <extensions>
          <ns3:TrackPointExtension>
            <ns3:atemp>18.0</ns3:atemp>
          </ns3:TrackPointExtension>
        </extensions>
      </trkpt>
      <trkpt lat="42.6085144467651844024658203125" lon="19.88256507553160190582275390625">
        <ele>2002.199951171875</ele>
        <time>2026-06-16T09:46:57.000Z</time>
        <extensions>
          <ns3:TrackPointExtension>
            <ns3:atemp>18.0</ns3:atemp>
          </ns3:TrackPointExtension>
        </extensions>
      </trkpt>
      <trkpt lat="42.6085144467651844024658203125" lon="19.88256507553160190582275390625">
        <ele>2002.199951171875</ele>
        <time>2026-06-16T09:46:58.000Z</time>
        <extensions>
          <ns3:TrackPointExtension>
            <ns3:atemp>18.0</ns3:atemp>
          </ns3:TrackPointExtension>
        </extensions>
      </trkpt>
      <trkpt lat="42.6085144467651844024658203125" lon="19.88256507553160190582275390625">
        <ele>2002.199951171875</ele>
        <time>2026-06-16T09:46:59.000Z</time>
        <extensions>
          <ns3:TrackPointExtension>
            <ns3:atemp>18.0</ns3:atemp>
          </ns3:TrackPointExtension>
        </extensions>
      </trkpt>
      <trkpt lat="42.6085144467651844024658203125" lon="19.88256507553160190582275390625">
        <ele>2002.199951171875</ele>
        <time>2026-06-16T09:47:00.000Z</time>
        <extensions>
          <ns3:TrackPointExtension>
            <ns3:atemp>18.0</ns3:atemp>
          </ns3:TrackPointExtension>
        </extensions>
      </trkpt>
      <trkpt lat="42.6085144467651844024658203125" lon="19.88256507553160190582275390625">
        <ele>2002.199951171875</ele>
        <time>2026-06-16T09:47:01.000Z</time>
        <extensions>
          <ns3:TrackPointExtension>
            <ns3:atemp>18.0</ns3:atemp>
          </ns3:TrackPointExtension>
        </extensions>
      </trkpt>
      <trkpt lat="42.6085144467651844024658203125" lon="19.88256507553160190582275390625">
        <ele>2002.199951171875</ele>
        <time>2026-06-16T09:47:02.000Z</time>
        <extensions>
          <ns3:TrackPointExtension>
            <ns3:atemp>18.0</ns3:atemp>
          </ns3:TrackPointExtension>
        </extensions>
      </trkpt>
      <trkpt lat="42.6085144467651844024658203125" lon="19.88256507553160190582275390625">
        <ele>2002.199951171875</ele>
        <time>2026-06-16T09:47:03.000Z</time>
        <extensions>
          <ns3:TrackPointExtension>
            <ns3:atemp>18.0</ns3:atemp>
          </ns3:TrackPointExtension>
        </extensions>
      </trkpt>
      <trkpt lat="42.6085144467651844024658203125" lon="19.88256507553160190582275390625">
        <ele>2002.199951171875</ele>
        <time>2026-06-16T09:47:04.000Z</time>
        <extensions>
          <ns3:TrackPointExtension>
            <ns3:atemp>18.0</ns3:atemp>
          </ns3:TrackPointExtension>
        </extensions>
      </trkpt>
      <trkpt lat="42.6085144467651844024658203125" lon="19.88256507553160190582275390625">
        <ele>2002.199951171875</ele>
        <time>2026-06-16T09:47:05.000Z</time>
        <extensions>
          <ns3:TrackPointExtension>
            <ns3:atemp>18.0</ns3:atemp>
          </ns3:TrackPointExtension>
        </extensions>
      </trkpt>
      <trkpt lat="42.6085144467651844024658203125" lon="19.88256507553160190582275390625">
        <ele>2002.199951171875</ele>
        <time>2026-06-16T09:47:06.000Z</time>
        <extensions>
          <ns3:TrackPointExtension>
            <ns3:atemp>18.0</ns3:atemp>
          </ns3:TrackPointExtension>
        </extensions>
      </trkpt>
      <trkpt lat="42.6085144467651844024658203125" lon="19.88256507553160190582275390625">
        <ele>2002.199951171875</ele>
        <time>2026-06-16T09:47:07.000Z</time>
        <extensions>
          <ns3:TrackPointExtension>
            <ns3:atemp>18.0</ns3:atemp>
          </ns3:TrackPointExtension>
        </extensions>
      </trkpt>
      <trkpt lat="42.6085144467651844024658203125" lon="19.88256507553160190582275390625">
        <ele>2002.199951171875</ele>
        <time>2026-06-16T09:47:08.000Z</time>
        <extensions>
          <ns3:TrackPointExtension>
            <ns3:atemp>18.0</ns3:atemp>
          </ns3:TrackPointExtension>
        </extensions>
      </trkpt>
      <trkpt lat="42.6085144467651844024658203125" lon="19.88256507553160190582275390625">
        <ele>2002.199951171875</ele>
        <time>2026-06-16T09:47:09.000Z</time>
        <extensions>
          <ns3:TrackPointExtension>
            <ns3:atemp>18.0</ns3:atemp>
          </ns3:TrackPointExtension>
        </extensions>
      </trkpt>
      <trkpt lat="42.6085144467651844024658203125" lon="19.88256507553160190582275390625">
        <ele>2002.199951171875</ele>
        <time>2026-06-16T09:47:10.000Z</time>
        <extensions>
          <ns3:TrackPointExtension>
            <ns3:atemp>18.0</ns3:atemp>
          </ns3:TrackPointExtension>
        </extensions>
      </trkpt>
      <trkpt lat="42.6085144467651844024658203125" lon="19.88256507553160190582275390625">
        <ele>2002.199951171875</ele>
        <time>2026-06-16T09:47:11.000Z</time>
        <extensions>
          <ns3:TrackPointExtension>
            <ns3:atemp>18.0</ns3:atemp>
          </ns3:TrackPointExtension>
        </extensions>
      </trkpt>
      <trkpt lat="42.6085144467651844024658203125" lon="19.88256507553160190582275390625">
        <ele>2002.199951171875</ele>
        <time>2026-06-16T09:47:12.000Z</time>
        <extensions>
          <ns3:TrackPointExtension>
            <ns3:atemp>18.0</ns3:atemp>
          </ns3:TrackPointExtension>
        </extensions>
      </trkpt>
      <trkpt lat="42.6085144467651844024658203125" lon="19.88256507553160190582275390625">
        <ele>2002.199951171875</ele>
        <time>2026-06-16T09:47:13.000Z</time>
        <extensions>
          <ns3:TrackPointExtension>
            <ns3:atemp>18.0</ns3:atemp>
          </ns3:TrackPointExtension>
        </extensions>
      </trkpt>
      <trkpt lat="42.6085144467651844024658203125" lon="19.88256507553160190582275390625">
        <ele>2002.199951171875</ele>
        <time>2026-06-16T09:47:14.000Z</time>
        <extensions>
          <ns3:TrackPointExtension>
            <ns3:atemp>18.0</ns3:atemp>
          </ns3:TrackPointExtension>
        </extensions>
      </trkpt>
      <trkpt lat="42.6085144467651844024658203125" lon="19.88256507553160190582275390625">
        <ele>2002.199951171875</ele>
        <time>2026-06-16T09:47:15.000Z</time>
        <extensions>
          <ns3:TrackPointExtension>
            <ns3:atemp>18.0</ns3:atemp>
          </ns3:TrackPointExtension>
        </extensions>
      </trkpt>
      <trkpt lat="42.6085144467651844024658203125" lon="19.88256507553160190582275390625">
        <ele>2002.199951171875</ele>
        <time>2026-06-16T09:47:16.000Z</time>
        <extensions>
          <ns3:TrackPointExtension>
            <ns3:atemp>18.0</ns3:atemp>
          </ns3:TrackPointExtension>
        </extensions>
      </trkpt>
      <trkpt lat="42.6085144467651844024658203125" lon="19.88256507553160190582275390625">
        <ele>2002.199951171875</ele>
        <time>2026-06-16T09:47:17.000Z</time>
        <extensions>
          <ns3:TrackPointExtension>
            <ns3:atemp>18.0</ns3:atemp>
          </ns3:TrackPointExtension>
        </extensions>
      </trkpt>
      <trkpt lat="42.6085144467651844024658203125" lon="19.88256507553160190582275390625">
        <ele>2002.199951171875</ele>
        <time>2026-06-16T09:47:18.000Z</time>
        <extensions>
          <ns3:TrackPointExtension>
            <ns3:atemp>18.0</ns3:atemp>
          </ns3:TrackPointExtension>
        </extensions>
      </trkpt>
      <trkpt lat="42.6085144467651844024658203125" lon="19.88256507553160190582275390625">
        <ele>2002.199951171875</ele>
        <time>2026-06-16T09:47:19.000Z</time>
        <extensions>
          <ns3:TrackPointExtension>
            <ns3:atemp>18.0</ns3:atemp>
          </ns3:TrackPointExtension>
        </extensions>
      </trkpt>
      <trkpt lat="42.6085144467651844024658203125" lon="19.88256507553160190582275390625">
        <ele>2002.199951171875</ele>
        <time>2026-06-16T09:47:20.000Z</time>
        <extensions>
          <ns3:TrackPointExtension>
            <ns3:atemp>18.0</ns3:atemp>
          </ns3:TrackPointExtension>
        </extensions>
      </trkpt>
      <trkpt lat="42.6085144467651844024658203125" lon="19.88256507553160190582275390625">
        <ele>2002.199951171875</ele>
        <time>2026-06-16T09:47:21.000Z</time>
        <extensions>
          <ns3:TrackPointExtension>
            <ns3:atemp>18.0</ns3:atemp>
          </ns3:TrackPointExtension>
        </extensions>
      </trkpt>
      <trkpt lat="42.6085144467651844024658203125" lon="19.88256507553160190582275390625">
        <ele>2002.199951171875</ele>
        <time>2026-06-16T09:47:22.000Z</time>
        <extensions>
          <ns3:TrackPointExtension>
            <ns3:atemp>18.0</ns3:atemp>
          </ns3:TrackPointExtension>
        </extensions>
      </trkpt>
      <trkpt lat="42.6085144467651844024658203125" lon="19.88256507553160190582275390625">
        <ele>2002.199951171875</ele>
        <time>2026-06-16T09:47:23.000Z</time>
        <extensions>
          <ns3:TrackPointExtension>
            <ns3:atemp>18.0</ns3:atemp>
          </ns3:TrackPointExtension>
        </extensions>
      </trkpt>
      <trkpt lat="42.6085144467651844024658203125" lon="19.88256507553160190582275390625">
        <ele>2002.199951171875</ele>
        <time>2026-06-16T09:47:24.000Z</time>
        <extensions>
          <ns3:TrackPointExtension>
            <ns3:atemp>18.0</ns3:atemp>
          </ns3:TrackPointExtension>
        </extensions>
      </trkpt>
      <trkpt lat="42.6085144467651844024658203125" lon="19.88256507553160190582275390625">
        <ele>2002.199951171875</ele>
        <time>2026-06-16T09:47:25.000Z</time>
        <extensions>
          <ns3:TrackPointExtension>
            <ns3:atemp>18.0</ns3:atemp>
          </ns3:TrackPointExtension>
        </extensions>
      </trkpt>
      <trkpt lat="42.6085144467651844024658203125" lon="19.88256507553160190582275390625">
        <ele>2002.199951171875</ele>
        <time>2026-06-16T09:47:26.000Z</time>
        <extensions>
          <ns3:TrackPointExtension>
            <ns3:atemp>18.0</ns3:atemp>
          </ns3:TrackPointExtension>
        </extensions>
      </trkpt>
      <trkpt lat="42.6085144467651844024658203125" lon="19.88256507553160190582275390625">
        <ele>2002.199951171875</ele>
        <time>2026-06-16T09:47:27.000Z</time>
        <extensions>
          <ns3:TrackPointExtension>
            <ns3:atemp>18.0</ns3:atemp>
          </ns3:TrackPointExtension>
        </extensions>
      </trkpt>
      <trkpt lat="42.6085144467651844024658203125" lon="19.88256507553160190582275390625">
        <ele>2002.199951171875</ele>
        <time>2026-06-16T09:47:28.000Z</time>
        <extensions>
          <ns3:TrackPointExtension>
            <ns3:atemp>18.0</ns3:atemp>
          </ns3:TrackPointExtension>
        </extensions>
      </trkpt>
      <trkpt lat="42.6085144467651844024658203125" lon="19.88256507553160190582275390625">
        <ele>2002.199951171875</ele>
        <time>2026-06-16T09:47:29.000Z</time>
        <extensions>
          <ns3:TrackPointExtension>
            <ns3:atemp>18.0</ns3:atemp>
          </ns3:TrackPointExtension>
        </extensions>
      </trkpt>
      <trkpt lat="42.6085144467651844024658203125" lon="19.88256507553160190582275390625">
        <ele>2002.199951171875</ele>
        <time>2026-06-16T09:47:30.000Z</time>
        <extensions>
          <ns3:TrackPointExtension>
            <ns3:atemp>18.0</ns3:atemp>
          </ns3:TrackPointExtension>
        </extensions>
      </trkpt>
      <trkpt lat="42.6085144467651844024658203125" lon="19.88256507553160190582275390625">
        <ele>2002.199951171875</ele>
        <time>2026-06-16T09:47:31.000Z</time>
        <extensions>
          <ns3:TrackPointExtension>
            <ns3:atemp>18.0</ns3:atemp>
          </ns3:TrackPointExtension>
        </extensions>
      </trkpt>
      <trkpt lat="42.6085144467651844024658203125" lon="19.88256507553160190582275390625">
        <ele>2002.199951171875</ele>
        <time>2026-06-16T09:47:32.000Z</time>
        <extensions>
          <ns3:TrackPointExtension>
            <ns3:atemp>18.0</ns3:atemp>
          </ns3:TrackPointExtension>
        </extensions>
      </trkpt>
      <trkpt lat="42.6085144467651844024658203125" lon="19.88256507553160190582275390625">
        <ele>2002.199951171875</ele>
        <time>2026-06-16T09:47:33.000Z</time>
        <extensions>
          <ns3:TrackPointExtension>
            <ns3:atemp>18.0</ns3:atemp>
          </ns3:TrackPointExtension>
        </extensions>
      </trkpt>
      <trkpt lat="42.6085144467651844024658203125" lon="19.88256507553160190582275390625">
        <ele>2002.199951171875</ele>
        <time>2026-06-16T09:47:34.000Z</time>
        <extensions>
          <ns3:TrackPointExtension>
            <ns3:atemp>18.0</ns3:atemp>
          </ns3:TrackPointExtension>
        </extensions>
      </trkpt>
      <trkpt lat="42.6085144467651844024658203125" lon="19.88256507553160190582275390625">
        <ele>2002.199951171875</ele>
        <time>2026-06-16T09:47:35.000Z</time>
        <extensions>
          <ns3:TrackPointExtension>
            <ns3:atemp>18.0</ns3:atemp>
          </ns3:TrackPointExtension>
        </extensions>
      </trkpt>
      <trkpt lat="42.6085144467651844024658203125" lon="19.88256507553160190582275390625">
        <ele>2002.199951171875</ele>
        <time>2026-06-16T09:47:36.000Z</time>
        <extensions>
          <ns3:TrackPointExtension>
            <ns3:atemp>18.0</ns3:atemp>
          </ns3:TrackPointExtension>
        </extensions>
      </trkpt>
      <trkpt lat="42.6085144467651844024658203125" lon="19.88256507553160190582275390625">
        <ele>2002.199951171875</ele>
        <time>2026-06-16T09:47:37.000Z</time>
        <extensions>
          <ns3:TrackPointExtension>
            <ns3:atemp>18.0</ns3:atemp>
          </ns3:TrackPointExtension>
        </extensions>
      </trkpt>
      <trkpt lat="42.6085144467651844024658203125" lon="19.88256507553160190582275390625">
        <ele>2002.199951171875</ele>
        <time>2026-06-16T09:47:38.000Z</time>
        <extensions>
          <ns3:TrackPointExtension>
            <ns3:atemp>18.0</ns3:atemp>
          </ns3:TrackPointExtension>
        </extensions>
      </trkpt>
      <trkpt lat="42.6085144467651844024658203125" lon="19.88256507553160190582275390625">
        <ele>2002.199951171875</ele>
        <time>2026-06-16T09:47:39.000Z</time>
        <extensions>
          <ns3:TrackPointExtension>
            <ns3:atemp>18.0</ns3:atemp>
          </ns3:TrackPointExtension>
        </extensions>
      </trkpt>
      <trkpt lat="42.6085144467651844024658203125" lon="19.88256507553160190582275390625">
        <ele>2002.199951171875</ele>
        <time>2026-06-16T09:47:40.000Z</time>
        <extensions>
          <ns3:TrackPointExtension>
            <ns3:atemp>18.0</ns3:atemp>
          </ns3:TrackPointExtension>
        </extensions>
      </trkpt>
      <trkpt lat="42.60852073319256305694580078125" lon="19.8825701884925365447998046875">
        <ele>2002.199951171875</ele>
        <time>2026-06-16T09:47:41.000Z</time>
        <extensions>
          <ns3:TrackPointExtension>
            <ns3:atemp>18.0</ns3:atemp>
          </ns3:TrackPointExtension>
        </extensions>
      </trkpt>
      <trkpt lat="42.6085020415484905242919921875" lon="19.88257345743477344512939453125">
        <ele>2002.199951171875</ele>
        <time>2026-06-16T09:47:42.000Z</time>
        <extensions>
          <ns3:TrackPointExtension>
            <ns3:atemp>18.0</ns3:atemp>
          </ns3:TrackPointExtension>
        </extensions>
      </trkpt>
      <trkpt lat="42.60848921723663806915283203125" lon="19.88258318044245243072509765625">
        <ele>2002.199951171875</ele>
        <time>2026-06-16T09:47:43.000Z</time>
        <extensions>
          <ns3:TrackPointExtension>
            <ns3:atemp>18.0</ns3:atemp>
          </ns3:TrackPointExtension>
        </extensions>
      </trkpt>
      <trkpt lat="42.608486451208591461181640625" lon="19.882598184049129486083984375">
        <ele>2002.4000244140625</ele>
        <time>2026-06-16T09:47:44.000Z</time>
        <extensions>
          <ns3:TrackPointExtension>
            <ns3:atemp>18.0</ns3:atemp>
          </ns3:TrackPointExtension>
        </extensions>
      </trkpt>
      <trkpt lat="42.6084842719137668609619140625" lon="19.88261553458869457244873046875">
        <ele>2002.4000244140625</ele>
        <time>2026-06-16T09:47:45.000Z</time>
        <extensions>
          <ns3:TrackPointExtension>
            <ns3:atemp>18.0</ns3:atemp>
          </ns3:TrackPointExtension>
        </extensions>
      </trkpt>
      <trkpt lat="42.60848066769540309906005859375" lon="19.88262944854795932769775390625">
        <ele>2002.5999755859375</ele>
        <time>2026-06-16T09:47:46.000Z</time>
        <extensions>
          <ns3:TrackPointExtension>
            <ns3:atemp>18.0</ns3:atemp>
          </ns3:TrackPointExtension>
        </extensions>
      </trkpt>
      <trkpt lat="42.60848133824765682220458984375" lon="19.8826479725539684295654296875">
        <ele>2002.5999755859375</ele>
        <time>2026-06-16T09:47:47.000Z</time>
        <extensions>
          <ns3:TrackPointExtension>
            <ns3:atemp>18.0</ns3:atemp>
          </ns3:TrackPointExtension>
        </extensions>
      </trkpt>
      <trkpt lat="42.60848603211343288421630859375" lon="19.882675968110561370849609375">
        <ele>2002.800048828125</ele>
        <time>2026-06-16T09:47:48.000Z</time>
        <extensions>
          <ns3:TrackPointExtension>
            <ns3:atemp>18.0</ns3:atemp>
          </ns3:TrackPointExtension>
        </extensions>
      </trkpt>
      <trkpt lat="42.60847932659089565277099609375" lon="19.88270471803843975067138671875">
        <ele>2002.800048828125</ele>
        <time>2026-06-16T09:47:49.000Z</time>
        <extensions>
          <ns3:TrackPointExtension>
            <ns3:atemp>18.0</ns3:atemp>
          </ns3:TrackPointExtension>
        </extensions>
      </trkpt>
      <trkpt lat="42.60847605764865875244140625" lon="19.88273070193827152252197265625">
        <ele>2003</ele>
        <time>2026-06-16T09:47:50.000Z</time>
        <extensions>
          <ns3:TrackPointExtension>
            <ns3:atemp>18.0</ns3:atemp>
          </ns3:TrackPointExtension>
        </extensions>
      </trkpt>
      <trkpt lat="42.6084673404693603515625" lon="19.88275081850588321685791015625">
        <ele>2003.199951171875</ele>
        <time>2026-06-16T09:47:51.000Z</time>
        <extensions>
          <ns3:TrackPointExtension>
            <ns3:atemp>18.0</ns3:atemp>
          </ns3:TrackPointExtension>
        </extensions>
      </trkpt>
      <trkpt lat="42.6084633171558380126953125" lon="19.8827669955790042877197265625">
        <ele>2003.5999755859375</ele>
        <time>2026-06-16T09:47:52.000Z</time>
        <extensions>
          <ns3:TrackPointExtension>
            <ns3:atemp>18.0</ns3:atemp>
          </ns3:TrackPointExtension>
        </extensions>
      </trkpt>
      <trkpt lat="42.608456276357173919677734375" lon="19.8827948234975337982177734375">
        <ele>2003.800048828125</ele>
        <time>2026-06-16T09:47:53.000Z</time>
        <extensions>
          <ns3:TrackPointExtension>
            <ns3:atemp>18.0</ns3:atemp>
          </ns3:TrackPointExtension>
        </extensions>
      </trkpt>
      <trkpt lat="42.60844646953046321868896484375" lon="19.8828166164457798004150390625">
        <ele>2004.199951171875</ele>
        <time>2026-06-16T09:47:54.000Z</time>
        <extensions>
          <ns3:TrackPointExtension>
            <ns3:atemp>18.0</ns3:atemp>
          </ns3:TrackPointExtension>
        </extensions>
      </trkpt>
      <trkpt lat="42.6084359921514987945556640625" lon="19.88283782266080379486083984375">
        <ele>2004.4000244140625</ele>
        <time>2026-06-16T09:47:55.000Z</time>
        <extensions>
          <ns3:TrackPointExtension>
            <ns3:atemp>18.0</ns3:atemp>
          </ns3:TrackPointExtension>
        </extensions>
      </trkpt>
      <trkpt lat="42.608418725430965423583984375" lon="19.882860369980335235595703125">
        <ele>2004.4000244140625</ele>
        <time>2026-06-16T09:47:56.000Z</time>
        <extensions>
          <ns3:TrackPointExtension>
            <ns3:atemp>18.0</ns3:atemp>
          </ns3:TrackPointExtension>
        </extensions>
      </trkpt>
      <trkpt lat="42.60840472765266895294189453125" lon="19.8828816600143909454345703125">
        <ele>2004.5999755859375</ele>
        <time>2026-06-16T09:47:57.000Z</time>
        <extensions>
          <ns3:TrackPointExtension>
            <ns3:atemp>18.0</ns3:atemp>
          </ns3:TrackPointExtension>
        </extensions>
      </trkpt>
      <trkpt lat="42.6083957590162754058837890625" lon="19.88289959728717803955078125">
        <ele>2004.5999755859375</ele>
        <time>2026-06-16T09:47:58.000Z</time>
        <extensions>
          <ns3:TrackPointExtension>
            <ns3:atemp>18.0</ns3:atemp>
          </ns3:TrackPointExtension>
        </extensions>
      </trkpt>
      <trkpt lat="42.6083789952099323272705078125" lon="19.88291376270353794097900390625">
        <ele>2004.5999755859375</ele>
        <time>2026-06-16T09:47:59.000Z</time>
        <extensions>
          <ns3:TrackPointExtension>
            <ns3:atemp>18.0</ns3:atemp>
          </ns3:TrackPointExtension>
        </extensions>
      </trkpt>
      <trkpt lat="42.6083600521087646484375" lon="19.88291828893125057220458984375">
        <ele>2004.5999755859375</ele>
        <time>2026-06-16T09:48:00.000Z</time>
        <extensions>
          <ns3:TrackPointExtension>
            <ns3:atemp>18.0</ns3:atemp>
          </ns3:TrackPointExtension>
        </extensions>
      </trkpt>
      <trkpt lat="42.6083397679030895233154296875" lon="19.88291862420737743377685546875">
        <ele>2004.800048828125</ele>
        <time>2026-06-16T09:48:01.000Z</time>
        <extensions>
          <ns3:TrackPointExtension>
            <ns3:atemp>18.0</ns3:atemp>
          </ns3:TrackPointExtension>
        </extensions>
      </trkpt>
      <trkpt lat="42.60832074098289012908935546875" lon="19.88291569054126739501953125">
        <ele>2004.800048828125</ele>
        <time>2026-06-16T09:48:02.000Z</time>
        <extensions>
          <ns3:TrackPointExtension>
            <ns3:atemp>18.0</ns3:atemp>
          </ns3:TrackPointExtension>
        </extensions>
      </trkpt>
      <trkpt lat="42.60829727165400981903076171875" lon="19.88290973939001560211181640625">
        <ele>2004.800048828125</ele>
        <time>2026-06-16T09:48:03.000Z</time>
        <extensions>
          <ns3:TrackPointExtension>
            <ns3:atemp>18.0</ns3:atemp>
          </ns3:TrackPointExtension>
        </extensions>
      </trkpt>
      <trkpt lat="42.60828168131411075592041015625" lon="19.8829188756644725799560546875">
        <ele>2004.800048828125</ele>
        <time>2026-06-16T09:48:04.000Z</time>
        <extensions>
          <ns3:TrackPointExtension>
            <ns3:atemp>18.0</ns3:atemp>
          </ns3:TrackPointExtension>
        </extensions>
      </trkpt>
      <trkpt lat="42.6082680188119411468505859375" lon="19.882928431034088134765625">
        <ele>2004.800048828125</ele>
        <time>2026-06-16T09:48:05.000Z</time>
        <extensions>
          <ns3:TrackPointExtension>
            <ns3:atemp>18.0</ns3:atemp>
          </ns3:TrackPointExtension>
        </extensions>
      </trkpt>
      <trkpt lat="42.60825477540493011474609375" lon="19.88293756730854511260986328125">
        <ele>2004.800048828125</ele>
        <time>2026-06-16T09:48:06.000Z</time>
        <extensions>
          <ns3:TrackPointExtension>
            <ns3:atemp>18.0</ns3:atemp>
          </ns3:TrackPointExtension>
        </extensions>
      </trkpt>
      <trkpt lat="42.60824128054082393646240234375" lon="19.88294930197298526763916015625">
        <ele>2005</ele>
        <time>2026-06-16T09:48:07.000Z</time>
        <extensions>
          <ns3:TrackPointExtension>
            <ns3:atemp>18.0</ns3:atemp>
          </ns3:TrackPointExtension>
        </extensions>
      </trkpt>
      <trkpt lat="42.60822527110576629638671875" lon="19.88296355120837688446044921875">
        <ele>2005.199951171875</ele>
        <time>2026-06-16T09:48:08.000Z</time>
        <extensions>
          <ns3:TrackPointExtension>
            <ns3:atemp>18.0</ns3:atemp>
          </ns3:TrackPointExtension>
        </extensions>
      </trkpt>
      <trkpt lat="42.60821060277521610260009765625" lon="19.8829718492925167083740234375">
        <ele>2005.4000244140625</ele>
        <time>2026-06-16T09:48:09.000Z</time>
        <extensions>
          <ns3:TrackPointExtension>
            <ns3:atemp>18.0</ns3:atemp>
          </ns3:TrackPointExtension>
        </extensions>
      </trkpt>
      <trkpt lat="42.6081969402730464935302734375" lon="19.8829819075763225555419921875">
        <ele>2005.4000244140625</ele>
        <time>2026-06-16T09:48:10.000Z</time>
        <extensions>
          <ns3:TrackPointExtension>
            <ns3:atemp>18.0</ns3:atemp>
          </ns3:TrackPointExtension>
        </extensions>
      </trkpt>
      <trkpt lat="42.6081828586757183074951171875" lon="19.88299590535461902618408203125">
        <ele>2005.800048828125</ele>
        <time>2026-06-16T09:48:11.000Z</time>
        <extensions>
          <ns3:TrackPointExtension>
            <ns3:atemp>18.0</ns3:atemp>
          </ns3:TrackPointExtension>
        </extensions>
      </trkpt>
      <trkpt lat="42.60817187838256359100341796875" lon="19.883009232580661773681640625">
        <ele>2006</ele>
        <time>2026-06-16T09:48:12.000Z</time>
        <extensions>
          <ns3:TrackPointExtension>
            <ns3:atemp>18.0</ns3:atemp>
          </ns3:TrackPointExtension>
        </extensions>
      </trkpt>
      <trkpt lat="42.608159221708774566650390625" lon="19.88302490673959255218505859375">
        <ele>2006.199951171875</ele>
        <time>2026-06-16T09:48:13.000Z</time>
        <extensions>
          <ns3:TrackPointExtension>
            <ns3:atemp>18.0</ns3:atemp>
          </ns3:TrackPointExtension>
        </extensions>
      </trkpt>
      <trkpt lat="42.60815092362463474273681640625" lon="19.8830442689359188079833984375">
        <ele>2006.4000244140625</ele>
        <time>2026-06-16T09:48:14.000Z</time>
        <extensions>
          <ns3:TrackPointExtension>
            <ns3:atemp>18.0</ns3:atemp>
          </ns3:TrackPointExtension>
        </extensions>
      </trkpt>
      <trkpt lat="42.608142457902431488037109375" lon="19.88305508159101009368896484375">
        <ele>2006.5999755859375</ele>
        <time>2026-06-16T09:48:15.000Z</time>
        <extensions>
          <ns3:TrackPointExtension>
            <ns3:atemp>18.0</ns3:atemp>
          </ns3:TrackPointExtension>
        </extensions>
      </trkpt>
      <trkpt lat="42.608130387961864471435546875" lon="19.88306857645511627197265625">
        <ele>2006.800048828125</ele>
        <time>2026-06-16T09:48:16.000Z</time>
        <extensions>
          <ns3:TrackPointExtension>
            <ns3:atemp>18.0</ns3:atemp>
          </ns3:TrackPointExtension>
        </extensions>
      </trkpt>
      <trkpt lat="42.60811991058290004730224609375" lon="19.883080981671810150146484375">
        <ele>2007</ele>
        <time>2026-06-16T09:48:17.000Z</time>
        <extensions>
          <ns3:TrackPointExtension>
            <ns3:atemp>18.0</ns3:atemp>
          </ns3:TrackPointExtension>
        </extensions>
      </trkpt>
      <trkpt lat="42.60810499079525470733642578125" lon="19.88309900276362895965576171875">
        <ele>2007.199951171875</ele>
        <time>2026-06-16T09:48:18.000Z</time>
        <extensions>
          <ns3:TrackPointExtension>
            <ns3:atemp>18.0</ns3:atemp>
          </ns3:TrackPointExtension>
        </extensions>
      </trkpt>
      <trkpt lat="42.60808705352246761322021484375" lon="19.883114509284496307373046875">
        <ele>2007.4000244140625</ele>
        <time>2026-06-16T09:48:19.000Z</time>
        <extensions>
          <ns3:TrackPointExtension>
            <ns3:atemp>18.0</ns3:atemp>
          </ns3:TrackPointExtension>
        </extensions>
      </trkpt>
      <trkpt lat="42.60807129554450511932373046875" lon="19.88313001580536365509033203125">
        <ele>2007.5999755859375</ele>
        <time>2026-06-16T09:48:20.000Z</time>
        <extensions>
          <ns3:TrackPointExtension>
            <ns3:atemp>18.0</ns3:atemp>
          </ns3:TrackPointExtension>
        </extensions>
      </trkpt>
      <trkpt lat="42.6080578006803989410400390625" lon="19.88314879126846790313720703125">
        <ele>2007.800048828125</ele>
        <time>2026-06-16T09:48:21.000Z</time>
        <extensions>
          <ns3:TrackPointExtension>
            <ns3:atemp>18.0</ns3:atemp>
          </ns3:TrackPointExtension>
        </extensions>
      </trkpt>
      <trkpt lat="42.60804313234984874725341796875" lon="19.8831617832183837890625">
        <ele>2007.800048828125</ele>
        <time>2026-06-16T09:48:22.000Z</time>
        <extensions>
          <ns3:TrackPointExtension>
            <ns3:atemp>18.0</ns3:atemp>
          </ns3:TrackPointExtension>
        </extensions>
      </trkpt>
      <trkpt lat="42.60802988894283771514892578125" lon="19.8831746913492679595947265625">
        <ele>2007.800048828125</ele>
        <time>2026-06-16T09:48:23.000Z</time>
        <extensions>
          <ns3:TrackPointExtension>
            <ns3:atemp>18.0</ns3:atemp>
          </ns3:TrackPointExtension>
        </extensions>
      </trkpt>
      <trkpt lat="42.60802033357322216033935546875" lon="19.883189611136913299560546875">
        <ele>2008</ele>
        <time>2026-06-16T09:48:24.000Z</time>
        <extensions>
          <ns3:TrackPointExtension>
            <ns3:atemp>18.0</ns3:atemp>
          </ns3:TrackPointExtension>
        </extensions>
      </trkpt>
      <trkpt lat="42.60800910182297229766845703125" lon="19.88321215845644474029541015625">
        <ele>2008</ele>
        <time>2026-06-16T09:48:25.000Z</time>
        <extensions>
          <ns3:TrackPointExtension>
            <ns3:atemp>18.0</ns3:atemp>
          </ns3:TrackPointExtension>
        </extensions>
      </trkpt>
      <trkpt lat="42.6080028153955936431884765625" lon="19.88323629833757877349853515625">
        <ele>2008.199951171875</ele>
        <time>2026-06-16T09:48:26.000Z</time>
        <extensions>
          <ns3:TrackPointExtension>
            <ns3:atemp>18.0</ns3:atemp>
          </ns3:TrackPointExtension>
        </extensions>
      </trkpt>
      <trkpt lat="42.6079940982162952423095703125" lon="19.883253313601016998291015625">
        <ele>2008.4000244140625</ele>
        <time>2026-06-16T09:48:27.000Z</time>
        <extensions>
          <ns3:TrackPointExtension>
            <ns3:atemp>18.0</ns3:atemp>
          </ns3:TrackPointExtension>
        </extensions>
      </trkpt>
      <trkpt lat="42.607988901436328887939453125" lon="19.88327016122639179229736328125">
        <ele>2008.4000244140625</ele>
        <time>2026-06-16T09:48:28.000Z</time>
        <extensions>
          <ns3:TrackPointExtension>
            <ns3:atemp>18.0</ns3:atemp>
          </ns3:TrackPointExtension>
        </extensions>
      </trkpt>
      <trkpt lat="42.6079826988279819488525390625" lon="19.88328985869884490966796875">
        <ele>2008.5999755859375</ele>
        <time>2026-06-16T09:48:29.000Z</time>
        <extensions>
          <ns3:TrackPointExtension>
            <ns3:atemp>18.0</ns3:atemp>
          </ns3:TrackPointExtension>
        </extensions>
      </trkpt>
      <trkpt lat="42.6079723052680492401123046875" lon="19.8833111487329006195068359375">
        <ele>2009</ele>
        <time>2026-06-16T09:48:30.000Z</time>
        <extensions>
          <ns3:TrackPointExtension>
            <ns3:atemp>18.0</ns3:atemp>
          </ns3:TrackPointExtension>
        </extensions>
      </trkpt>
      <trkpt lat="42.60796434246003627777099609375" lon="19.8833329416811466217041015625">
        <ele>2009.199951171875</ele>
        <time>2026-06-16T09:48:31.000Z</time>
        <extensions>
          <ns3:TrackPointExtension>
            <ns3:atemp>18.0</ns3:atemp>
          </ns3:TrackPointExtension>
        </extensions>
      </trkpt>
      <trkpt lat="42.60795964859426021575927734375" lon="19.88335163332521915435791015625">
        <ele>2009.4000244140625</ele>
        <time>2026-06-16T09:48:32.000Z</time>
        <extensions>
          <ns3:TrackPointExtension>
            <ns3:atemp>18.0</ns3:atemp>
          </ns3:TrackPointExtension>
        </extensions>
      </trkpt>
      <trkpt lat="42.6079505123198032379150390625" lon="19.883373677730560302734375">
        <ele>2009.800048828125</ele>
        <time>2026-06-16T09:48:33.000Z</time>
        <extensions>
          <ns3:TrackPointExtension>
            <ns3:atemp>18.0</ns3:atemp>
          </ns3:TrackPointExtension>
        </extensions>
      </trkpt>
      <trkpt lat="42.60794171132147312164306640625" lon="19.88339924253523349761962890625">
        <ele>2010</ele>
        <time>2026-06-16T09:48:34.000Z</time>
        <extensions>
          <ns3:TrackPointExtension>
            <ns3:atemp>18.0</ns3:atemp>
          </ns3:TrackPointExtension>
        </extensions>
      </trkpt>
      <trkpt lat="42.6079334132373332977294921875" lon="19.88342120312154293060302734375">
        <ele>2010.4000244140625</ele>
        <time>2026-06-16T09:48:35.000Z</time>
        <extensions>
          <ns3:TrackPointExtension>
            <ns3:atemp>18.0</ns3:atemp>
          </ns3:TrackPointExtension>
        </extensions>
      </trkpt>
      <trkpt lat="42.6079257018864154815673828125" lon="19.88343662582337856292724609375">
        <ele>2010.800048828125</ele>
        <time>2026-06-16T09:48:36.000Z</time>
        <extensions>
          <ns3:TrackPointExtension>
            <ns3:atemp>18.0</ns3:atemp>
          </ns3:TrackPointExtension>
        </extensions>
      </trkpt>
      <trkpt lat="42.60791589505970478057861328125" lon="19.88344551064074039459228515625">
        <ele>2011.199951171875</ele>
        <time>2026-06-16T09:48:37.000Z</time>
        <extensions>
          <ns3:TrackPointExtension>
            <ns3:atemp>18.0</ns3:atemp>
          </ns3:TrackPointExtension>
        </extensions>
      </trkpt>
      <trkpt lat="42.60790499858558177947998046875" lon="19.883455149829387664794921875">
        <ele>2011.5999755859375</ele>
        <time>2026-06-16T09:48:38.000Z</time>
        <extensions>
          <ns3:TrackPointExtension>
            <ns3:atemp>18.0</ns3:atemp>
          </ns3:TrackPointExtension>
        </extensions>
      </trkpt>
      <trkpt lat="42.607890665531158447265625" lon="19.88346160389482975006103515625">
        <ele>2012</ele>
        <time>2026-06-16T09:48:39.000Z</time>
        <extensions>
          <ns3:TrackPointExtension>
            <ns3:atemp>18.0</ns3:atemp>
          </ns3:TrackPointExtension>
        </extensions>
      </trkpt>
      <trkpt lat="42.607877254486083984375" lon="19.88346378318965435028076171875">
        <ele>2012.4000244140625</ele>
        <time>2026-06-16T09:48:40.000Z</time>
        <extensions>
          <ns3:TrackPointExtension>
            <ns3:atemp>18.0</ns3:atemp>
          </ns3:TrackPointExtension>
        </extensions>
      </trkpt>
      <trkpt lat="42.60786811821162700653076171875" lon="19.88346897996962070465087890625">
        <ele>2012.800048828125</ele>
        <time>2026-06-16T09:48:41.000Z</time>
        <extensions>
          <ns3:TrackPointExtension>
            <ns3:atemp>18.0</ns3:atemp>
          </ns3:TrackPointExtension>
        </extensions>
      </trkpt>
      <trkpt lat="42.6078549586236476898193359375" lon="19.883470237255096435546875">
        <ele>2013.199951171875</ele>
        <time>2026-06-16T09:48:42.000Z</time>
        <extensions>
          <ns3:TrackPointExtension>
            <ns3:atemp>18.0</ns3:atemp>
          </ns3:TrackPointExtension>
        </extensions>
      </trkpt>
      <trkpt lat="42.6078398711979389190673828125" lon="19.88346311263740062713623046875">
        <ele>2013.4000244140625</ele>
        <time>2026-06-16T09:48:43.000Z</time>
        <extensions>
          <ns3:TrackPointExtension>
            <ns3:atemp>18.0</ns3:atemp>
          </ns3:TrackPointExtension>
        </extensions>
      </trkpt>
      <trkpt lat="42.60782453231513500213623046875" lon="19.88345749676227569580078125">
        <ele>2013.800048828125</ele>
        <time>2026-06-16T09:48:44.000Z</time>
        <extensions>
          <ns3:TrackPointExtension>
            <ns3:atemp>18.0</ns3:atemp>
          </ns3:TrackPointExtension>
        </extensions>
      </trkpt>
      <trkpt lat="42.60780709795653820037841796875" lon="19.883447773754596710205078125">
        <ele>2014</ele>
        <time>2026-06-16T09:48:45.000Z</time>
        <extensions>
          <ns3:TrackPointExtension>
            <ns3:atemp>18.0</ns3:atemp>
          </ns3:TrackPointExtension>
        </extensions>
      </trkpt>
      <trkpt lat="42.60779871605336666107177734375" lon="19.8834321834146976470947265625">
        <ele>2014.199951171875</ele>
        <time>2026-06-16T09:48:46.000Z</time>
        <extensions>
          <ns3:TrackPointExtension>
            <ns3:atemp>18.0</ns3:atemp>
          </ns3:TrackPointExtension>
        </extensions>
      </trkpt>
      <trkpt lat="42.60779938660562038421630859375" lon="19.88341432996094226837158203125">
        <ele>2014.4000244140625</ele>
        <time>2026-06-16T09:48:47.000Z</time>
        <extensions>
          <ns3:TrackPointExtension>
            <ns3:atemp>18.0</ns3:atemp>
          </ns3:TrackPointExtension>
        </extensions>
      </trkpt>
      <trkpt lat="42.60779787786304950714111328125" lon="19.8834013380110263824462890625">
        <ele>2014.800048828125</ele>
        <time>2026-06-16T09:48:48.000Z</time>
        <extensions>
          <ns3:TrackPointExtension>
            <ns3:atemp>18.0</ns3:atemp>
          </ns3:TrackPointExtension>
        </extensions>
      </trkpt>
      <trkpt lat="42.607799135148525238037109375" lon="19.883384741842746734619140625">
        <ele>2015</ele>
        <time>2026-06-16T09:48:49.000Z</time>
        <extensions>
          <ns3:TrackPointExtension>
            <ns3:atemp>18.0</ns3:atemp>
          </ns3:TrackPointExtension>
        </extensions>
      </trkpt>
      <trkpt lat="42.6078008115291595458984375" lon="19.883361272513866424560546875">
        <ele>2015.199951171875</ele>
        <time>2026-06-16T09:48:50.000Z</time>
        <extensions>
          <ns3:TrackPointExtension>
            <ns3:atemp>18.0</ns3:atemp>
          </ns3:TrackPointExtension>
        </extensions>
      </trkpt>
      <trkpt lat="42.6077989675104618072509765625" lon="19.88334040157496929168701171875">
        <ele>2015.4000244140625</ele>
        <time>2026-06-16T09:48:51.000Z</time>
        <extensions>
          <ns3:TrackPointExtension>
            <ns3:atemp>18.0</ns3:atemp>
          </ns3:TrackPointExtension>
        </extensions>
      </trkpt>
      <trkpt lat="42.60779678821563720703125" lon="19.88331575877964496612548828125">
        <ele>2015.5999755859375</ele>
        <time>2026-06-16T09:48:52.000Z</time>
        <extensions>
          <ns3:TrackPointExtension>
            <ns3:atemp>18.0</ns3:atemp>
          </ns3:TrackPointExtension>
        </extensions>
      </trkpt>
      <trkpt lat="42.6077929325401782989501953125" lon="19.88329597748816013336181640625">
        <ele>2015.800048828125</ele>
        <time>2026-06-16T09:48:53.000Z</time>
        <extensions>
          <ns3:TrackPointExtension>
            <ns3:atemp>18.0</ns3:atemp>
          </ns3:TrackPointExtension>
        </extensions>
      </trkpt>
      <trkpt lat="42.607788741588592529296875" lon="19.883274100720882415771484375">
        <ele>2016.199951171875</ele>
        <time>2026-06-16T09:48:54.000Z</time>
        <extensions>
          <ns3:TrackPointExtension>
            <ns3:atemp>18.0</ns3:atemp>
          </ns3:TrackPointExtension>
        </extensions>
      </trkpt>
      <trkpt lat="42.60778941214084625244140625" lon="19.88325155340135097503662109375">
        <ele>2016.5999755859375</ele>
        <time>2026-06-16T09:48:55.000Z</time>
        <extensions>
          <ns3:TrackPointExtension>
            <ns3:atemp>18.0</ns3:atemp>
          </ns3:TrackPointExtension>
        </extensions>
      </trkpt>
      <trkpt lat="42.60778932832181453704833984375" lon="19.88323085010051727294921875">
        <ele>2016.800048828125</ele>
        <time>2026-06-16T09:48:56.000Z</time>
        <extensions>
          <ns3:TrackPointExtension>
            <ns3:atemp>18.0</ns3:atemp>
          </ns3:TrackPointExtension>
        </extensions>
      </trkpt>
      <trkpt lat="42.60778564028441905975341796875" lon="19.88320796750485897064208984375">
        <ele>2017.199951171875</ele>
        <time>2026-06-16T09:48:57.000Z</time>
        <extensions>
          <ns3:TrackPointExtension>
            <ns3:atemp>18.0</ns3:atemp>
          </ns3:TrackPointExtension>
        </extensions>
      </trkpt>
      <trkpt lat="42.60778027586638927459716796875" lon="19.88318667747080326080322265625">
        <ele>2017.4000244140625</ele>
        <time>2026-06-16T09:48:58.000Z</time>
        <extensions>
          <ns3:TrackPointExtension>
            <ns3:atemp>18.0</ns3:atemp>
          </ns3:TrackPointExtension>
        </extensions>
      </trkpt>
      <trkpt lat="42.60777273215353488922119140625" lon="19.88316404633224010467529296875">
        <ele>2017.5999755859375</ele>
        <time>2026-06-16T09:48:59.000Z</time>
        <extensions>
          <ns3:TrackPointExtension>
            <ns3:atemp>18.0</ns3:atemp>
          </ns3:TrackPointExtension>
        </extensions>
      </trkpt>
      <trkpt lat="42.60776837356388568878173828125" lon="19.88315130583941936492919921875">
        <ele>2017.800048828125</ele>
        <time>2026-06-16T09:49:00.000Z</time>
        <extensions>
          <ns3:TrackPointExtension>
            <ns3:atemp>18.0</ns3:atemp>
          </ns3:TrackPointExtension>
        </extensions>
      </trkpt>
      <trkpt lat="42.6077632606029510498046875" lon="19.8831391520798206329345703125">
        <ele>2018</ele>
        <time>2026-06-16T09:49:01.000Z</time>
        <extensions>
          <ns3:TrackPointExtension>
            <ns3:atemp>18.0</ns3:atemp>
          </ns3:TrackPointExtension>
        </extensions>
      </trkpt>
      <trkpt lat="42.60775429196655750274658203125" lon="19.88312817178666591644287109375">
        <ele>2018.199951171875</ele>
        <time>2026-06-16T09:49:02.000Z</time>
        <extensions>
          <ns3:TrackPointExtension>
            <ns3:atemp>18.0</ns3:atemp>
          </ns3:TrackPointExtension>
        </extensions>
      </trkpt>
      <trkpt lat="42.6077446527779102325439453125" lon="19.88311358727514743804931640625">
        <ele>2018.4000244140625</ele>
        <time>2026-06-16T09:49:03.000Z</time>
        <extensions>
          <ns3:TrackPointExtension>
            <ns3:atemp>18.0</ns3:atemp>
          </ns3:TrackPointExtension>
        </extensions>
      </trkpt>
      <trkpt lat="42.60773886926472187042236328125" lon="19.88309313543140888214111328125">
        <ele>2018.5999755859375</ele>
        <time>2026-06-16T09:49:04.000Z</time>
        <extensions>
          <ns3:TrackPointExtension>
            <ns3:atemp>18.0</ns3:atemp>
          </ns3:TrackPointExtension>
        </extensions>
      </trkpt>
      <trkpt lat="42.6077362708747386932373046875" lon="19.883068911731243133544921875">
        <ele>2018.800048828125</ele>
        <time>2026-06-16T09:49:05.000Z</time>
        <extensions>
          <ns3:TrackPointExtension>
            <ns3:atemp>18.0</ns3:atemp>
          </ns3:TrackPointExtension>
        </extensions>
      </trkpt>
      <trkpt lat="42.60773015208542346954345703125" lon="19.88305114209651947021484375">
        <ele>2019</ele>
        <time>2026-06-16T09:49:06.000Z</time>
        <extensions>
          <ns3:TrackPointExtension>
            <ns3:atemp>18.0</ns3:atemp>
          </ns3:TrackPointExtension>
        </extensions>
      </trkpt>
      <trkpt lat="42.60772545821964740753173828125" lon="19.88302909769117832183837890625">
        <ele>2019.199951171875</ele>
        <time>2026-06-16T09:49:07.000Z</time>
        <extensions>
          <ns3:TrackPointExtension>
            <ns3:atemp>18.0</ns3:atemp>
          </ns3:TrackPointExtension>
        </extensions>
      </trkpt>
      <trkpt lat="42.60772277601063251495361328125" lon="19.88301149569451808929443359375">
        <ele>2019.4000244140625</ele>
        <time>2026-06-16T09:49:08.000Z</time>
        <extensions>
          <ns3:TrackPointExtension>
            <ns3:atemp>18.0</ns3:atemp>
          </ns3:TrackPointExtension>
        </extensions>
      </trkpt>
      <trkpt lat="42.60771959088742733001708984375" lon="19.88298987038433551788330078125">
        <ele>2019.5999755859375</ele>
        <time>2026-06-16T09:49:09.000Z</time>
        <extensions>
          <ns3:TrackPointExtension>
            <ns3:atemp>18.0</ns3:atemp>
          </ns3:TrackPointExtension>
        </extensions>
      </trkpt>
      <trkpt lat="42.6077138073742389678955078125" lon="19.8829718492925167083740234375">
        <ele>2019.800048828125</ele>
        <time>2026-06-16T09:49:10.000Z</time>
        <extensions>
          <ns3:TrackPointExtension>
            <ns3:atemp>18.0</ns3:atemp>
          </ns3:TrackPointExtension>
        </extensions>
      </trkpt>
      <trkpt lat="42.60770400054752826690673828125" lon="19.88295164890587329864501953125">
        <ele>2020</ele>
        <time>2026-06-16T09:49:11.000Z</time>
        <extensions>
          <ns3:TrackPointExtension>
            <ns3:atemp>18.0</ns3:atemp>
          </ns3:TrackPointExtension>
        </extensions>
      </trkpt>
      <trkpt lat="42.6076920144259929656982421875" lon="19.88293304108083248138427734375">
        <ele>2020.199951171875</ele>
        <time>2026-06-16T09:49:12.000Z</time>
        <extensions>
          <ns3:TrackPointExtension>
            <ns3:atemp>18.0</ns3:atemp>
          </ns3:TrackPointExtension>
        </extensions>
      </trkpt>
      <trkpt lat="42.607687823474407196044921875" lon="19.88291745074093341827392578125">
        <ele>2020.5999755859375</ele>
        <time>2026-06-16T09:49:13.000Z</time>
        <extensions>
          <ns3:TrackPointExtension>
            <ns3:atemp>18.0</ns3:atemp>
          </ns3:TrackPointExtension>
        </extensions>
      </trkpt>
      <trkpt lat="42.607687152922153472900390625" lon="19.88289850763976573944091796875">
        <ele>2020.800048828125</ele>
        <time>2026-06-16T09:49:14.000Z</time>
        <extensions>
          <ns3:TrackPointExtension>
            <ns3:atemp>18.0</ns3:atemp>
          </ns3:TrackPointExtension>
        </extensions>
      </trkpt>
      <trkpt lat="42.607692182064056396484375" lon="19.8828813247382640838623046875">
        <ele>2021.199951171875</ele>
        <time>2026-06-16T09:49:15.000Z</time>
        <extensions>
          <ns3:TrackPointExtension>
            <ns3:atemp>18.0</ns3:atemp>
          </ns3:TrackPointExtension>
        </extensions>
      </trkpt>
      <trkpt lat="42.60770483873784542083740234375" lon="19.8828627169132232666015625">
        <ele>2021.5999755859375</ele>
        <time>2026-06-16T09:49:16.000Z</time>
        <extensions>
          <ns3:TrackPointExtension>
            <ns3:atemp>18.0</ns3:atemp>
          </ns3:TrackPointExtension>
        </extensions>
      </trkpt>
      <trkpt lat="42.60770735330879688262939453125" lon="19.8828377388417720794677734375">
        <ele>2021.800048828125</ele>
        <time>2026-06-16T09:49:17.000Z</time>
        <extensions>
          <ns3:TrackPointExtension>
            <ns3:atemp>18.0</ns3:atemp>
          </ns3:TrackPointExtension>
        </extensions>
      </trkpt>
      <trkpt lat="42.60770383290946483612060546875" lon="19.8828129284083843231201171875">
        <ele>2022.199951171875</ele>
        <time>2026-06-16T09:49:18.000Z</time>
        <extensions>
          <ns3:TrackPointExtension>
            <ns3:atemp>18.0</ns3:atemp>
          </ns3:TrackPointExtension>
        </extensions>
      </trkpt>
      <trkpt lat="42.6077015697956085205078125" lon="19.88279163837432861328125">
        <ele>2022.4000244140625</ele>
        <time>2026-06-16T09:49:19.000Z</time>
        <extensions>
          <ns3:TrackPointExtension>
            <ns3:atemp>18.0</ns3:atemp>
          </ns3:TrackPointExtension>
        </extensions>
      </trkpt>
      <trkpt lat="42.60770232416689395904541015625" lon="19.8827680014073848724365234375">
        <ele>2022.800048828125</ele>
        <time>2026-06-16T09:49:20.000Z</time>
        <extensions>
          <ns3:TrackPointExtension>
            <ns3:atemp>18.0</ns3:atemp>
          </ns3:TrackPointExtension>
        </extensions>
      </trkpt>
      <trkpt lat="42.607699222862720489501953125" lon="19.8827473819255828857421875">
        <ele>2023.199951171875</ele>
        <time>2026-06-16T09:49:21.000Z</time>
        <extensions>
          <ns3:TrackPointExtension>
            <ns3:atemp>18.0</ns3:atemp>
          </ns3:TrackPointExtension>
        </extensions>
      </trkpt>
      <trkpt lat="42.607692182064056396484375" lon="19.88272600807249546051025390625">
        <ele>2023.5999755859375</ele>
        <time>2026-06-16T09:49:22.000Z</time>
        <extensions>
          <ns3:TrackPointExtension>
            <ns3:atemp>18.0</ns3:atemp>
          </ns3:TrackPointExtension>
        </extensions>
      </trkpt>
      <trkpt lat="42.60768623091280460357666015625" lon="19.8827136866748332977294921875">
        <ele>2024</ele>
        <time>2026-06-16T09:49:23.000Z</time>
        <extensions>
          <ns3:TrackPointExtension>
            <ns3:atemp>18.0</ns3:atemp>
          </ns3:TrackPointExtension>
        </extensions>
      </trkpt>
      <trkpt lat="42.6076816208660602569580078125" lon="19.88270287401974201202392578125">
        <ele>2024.5999755859375</ele>
        <time>2026-06-16T09:49:24.000Z</time>
        <extensions>
          <ns3:TrackPointExtension>
            <ns3:atemp>18.0</ns3:atemp>
          </ns3:TrackPointExtension>
        </extensions>
      </trkpt>
      <trkpt lat="42.60767969302833080291748046875" lon="19.88269030116498470306396484375">
        <ele>2025</ele>
        <time>2026-06-16T09:49:25.000Z</time>
        <extensions>
          <ns3:TrackPointExtension>
            <ns3:atemp>18.0</ns3:atemp>
          </ns3:TrackPointExtension>
        </extensions>
      </trkpt>
      <trkpt lat="42.60767097584903240203857421875" lon="19.882674627006053924560546875">
        <ele>2025.4000244140625</ele>
        <time>2026-06-16T09:49:26.000Z</time>
        <extensions>
          <ns3:TrackPointExtension>
            <ns3:atemp>18.0</ns3:atemp>
          </ns3:TrackPointExtension>
        </extensions>
      </trkpt>
      <trkpt lat="42.6076618395745754241943359375" lon="19.88266431726515293121337890625">
        <ele>2025.5999755859375</ele>
        <time>2026-06-16T09:49:27.000Z</time>
        <extensions>
          <ns3:TrackPointExtension>
            <ns3:atemp>18.0</ns3:atemp>
          </ns3:TrackPointExtension>
        </extensions>
      </trkpt>
      <trkpt lat="42.60764784179627895355224609375" lon="19.882655180990695953369140625">
        <ele>2025.5999755859375</ele>
        <time>2026-06-16T09:49:28.000Z</time>
        <extensions>
          <ns3:TrackPointExtension>
            <ns3:atemp>18.0</ns3:atemp>
          </ns3:TrackPointExtension>
        </extensions>
      </trkpt>
      <trkpt lat="42.60763174854218959808349609375" lon="19.88265057094395160675048828125">
        <ele>2025.5999755859375</ele>
        <time>2026-06-16T09:49:29.000Z</time>
        <extensions>
          <ns3:TrackPointExtension>
            <ns3:atemp>18.0</ns3:atemp>
          </ns3:TrackPointExtension>
        </extensions>
      </trkpt>
      <trkpt lat="42.60761397890746593475341796875" lon="19.88264872692525386810302734375">
        <ele>2025.5999755859375</ele>
        <time>2026-06-16T09:49:30.000Z</time>
        <extensions>
          <ns3:TrackPointExtension>
            <ns3:atemp>18.0</ns3:atemp>
          </ns3:TrackPointExtension>
        </extensions>
      </trkpt>
      <trkpt lat="42.60759956203401088714599609375" lon="19.882645122706890106201171875">
        <ele>2025.5999755859375</ele>
        <time>2026-06-16T09:49:31.000Z</time>
        <extensions>
          <ns3:TrackPointExtension>
            <ns3:atemp>18.0</ns3:atemp>
          </ns3:TrackPointExtension>
        </extensions>
      </trkpt>
      <trkpt lat="42.6075860671699047088623046875" lon="19.8826352320611476898193359375">
        <ele>2025.800048828125</ele>
        <time>2026-06-16T09:49:32.000Z</time>
        <extensions>
          <ns3:TrackPointExtension>
            <ns3:atemp>18.0</ns3:atemp>
          </ns3:TrackPointExtension>
        </extensions>
      </trkpt>
      <trkpt lat="42.6075743325054645538330078125" lon="19.882626347243785858154296875">
        <ele>2026</ele>
        <time>2026-06-16T09:49:33.000Z</time>
        <extensions>
          <ns3:TrackPointExtension>
            <ns3:atemp>18.0</ns3:atemp>
          </ns3:TrackPointExtension>
        </extensions>
      </trkpt>
      <trkpt lat="42.6075656153261661529541015625" lon="19.882614947855472564697265625">
        <ele>2026.199951171875</ele>
        <time>2026-06-16T09:49:34.000Z</time>
        <extensions>
          <ns3:TrackPointExtension>
            <ns3:atemp>18.0</ns3:atemp>
          </ns3:TrackPointExtension>
        </extensions>
      </trkpt>
      <trkpt lat="42.60755530558526515960693359375" lon="19.88260011188685894012451171875">
        <ele>2026.4000244140625</ele>
        <time>2026-06-16T09:49:35.000Z</time>
        <extensions>
          <ns3:TrackPointExtension>
            <ns3:atemp>18.0</ns3:atemp>
          </ns3:TrackPointExtension>
        </extensions>
      </trkpt>
      <trkpt lat="42.60754122398793697357177734375" lon="19.88259407691657543182373046875">
        <ele>2026.4000244140625</ele>
        <time>2026-06-16T09:49:36.000Z</time>
        <extensions>
          <ns3:TrackPointExtension>
            <ns3:atemp>18.0</ns3:atemp>
          </ns3:TrackPointExtension>
        </extensions>
      </trkpt>
      <trkpt lat="42.60753485374152660369873046875" lon="19.8825960047543048858642578125">
        <ele>2026.5999755859375</ele>
        <time>2026-06-16T09:49:37.000Z</time>
        <extensions>
          <ns3:TrackPointExtension>
            <ns3:atemp>18.0</ns3:atemp>
          </ns3:TrackPointExtension>
        </extensions>
      </trkpt>
      <trkpt lat="42.6075213588774204254150390625" lon="19.88259608857333660125732421875">
        <ele>2026.800048828125</ele>
        <time>2026-06-16T09:49:38.000Z</time>
        <extensions>
          <ns3:TrackPointExtension>
            <ns3:atemp>18.0</ns3:atemp>
          </ns3:TrackPointExtension>
        </extensions>
      </trkpt>
      <trkpt lat="42.60750886984169483184814453125" lon="19.882604889571666717529296875">
        <ele>2026.800048828125</ele>
        <time>2026-06-16T09:49:39.000Z</time>
        <extensions>
          <ns3:TrackPointExtension>
            <ns3:atemp>18.0</ns3:atemp>
          </ns3:TrackPointExtension>
        </extensions>
      </trkpt>
      <trkpt lat="42.60749327950179576873779296875" lon="19.88260966725647449493408203125">
        <ele>2026.800048828125</ele>
        <time>2026-06-16T09:49:40.000Z</time>
        <extensions>
          <ns3:TrackPointExtension>
            <ns3:atemp>18.0</ns3:atemp>
          </ns3:TrackPointExtension>
        </extensions>
      </trkpt>
      <trkpt lat="42.60748271830379962921142578125" lon="19.8826194740831851959228515625">
        <ele>2026.800048828125</ele>
        <time>2026-06-16T09:49:41.000Z</time>
        <extensions>
          <ns3:TrackPointExtension>
            <ns3:atemp>18.0</ns3:atemp>
          </ns3:TrackPointExtension>
        </extensions>
      </trkpt>
      <trkpt lat="42.6074817962944507598876953125" lon="19.8826379142701625823974609375">
        <ele>2027</ele>
        <time>2026-06-16T09:49:42.000Z</time>
        <extensions>
          <ns3:TrackPointExtension>
            <ns3:atemp>18.0</ns3:atemp>
          </ns3:TrackPointExtension>
        </extensions>
      </trkpt>
      <trkpt lat="42.6074762642383575439453125" lon="19.88266180269420146942138671875">
        <ele>2027.199951171875</ele>
        <time>2026-06-16T09:49:43.000Z</time>
        <extensions>
          <ns3:TrackPointExtension>
            <ns3:atemp>18.0</ns3:atemp>
          </ns3:TrackPointExtension>
        </extensions>
      </trkpt>
      <trkpt lat="42.60747559368610382080078125" lon="19.88268502056598663330078125">
        <ele>2027.4000244140625</ele>
        <time>2026-06-16T09:49:44.000Z</time>
        <extensions>
          <ns3:TrackPointExtension>
            <ns3:atemp>18.0</ns3:atemp>
          </ns3:TrackPointExtension>
        </extensions>
      </trkpt>
      <trkpt lat="42.6074754260480403900146484375" lon="19.88270723260939121246337890625">
        <ele>2027.800048828125</ele>
        <time>2026-06-16T09:49:45.000Z</time>
        <extensions>
          <ns3:TrackPointExtension>
            <ns3:atemp>18.0</ns3:atemp>
          </ns3:TrackPointExtension>
        </extensions>
      </trkpt>
      <trkpt lat="42.60747701860964298248291015625" lon="19.8827270977199077606201171875">
        <ele>2028</ele>
        <time>2026-06-16T09:49:46.000Z</time>
        <extensions>
          <ns3:TrackPointExtension>
            <ns3:atemp>18.0</ns3:atemp>
          </ns3:TrackPointExtension>
        </extensions>
      </trkpt>
      <trkpt lat="42.607474587857723236083984375" lon="19.88275467418134212493896484375">
        <ele>2028.199951171875</ele>
        <time>2026-06-16T09:49:47.000Z</time>
        <extensions>
          <ns3:TrackPointExtension>
            <ns3:atemp>18.0</ns3:atemp>
          </ns3:TrackPointExtension>
        </extensions>
      </trkpt>
      <trkpt lat="42.60747115127742290496826171875" lon="19.882780574262142181396484375">
        <ele>2028.4000244140625</ele>
        <time>2026-06-16T09:49:48.000Z</time>
        <extensions>
          <ns3:TrackPointExtension>
            <ns3:atemp>18.0</ns3:atemp>
          </ns3:TrackPointExtension>
        </extensions>
      </trkpt>
      <trkpt lat="42.60747098363935947418212890625" lon="19.88279943354427814483642578125">
        <ele>2028.800048828125</ele>
        <time>2026-06-16T09:49:49.000Z</time>
        <extensions>
          <ns3:TrackPointExtension>
            <ns3:atemp>18.0</ns3:atemp>
          </ns3:TrackPointExtension>
        </extensions>
      </trkpt>
      <trkpt lat="42.60747366584837436676025390625" lon="19.88282390870153903961181640625">
        <ele>2029</ele>
        <time>2026-06-16T09:49:50.000Z</time>
        <extensions>
          <ns3:TrackPointExtension>
            <ns3:atemp>18.0</ns3:atemp>
          </ns3:TrackPointExtension>
        </extensions>
      </trkpt>
      <trkpt lat="42.60747718624770641326904296875" lon="19.88284184597432613372802734375">
        <ele>2029.199951171875</ele>
        <time>2026-06-16T09:49:51.000Z</time>
        <extensions>
          <ns3:TrackPointExtension>
            <ns3:atemp>18.0</ns3:atemp>
          </ns3:TrackPointExtension>
        </extensions>
      </trkpt>
      <trkpt lat="42.60747584514319896697998046875" lon="19.88285760395228862762451171875">
        <ele>2029.4000244140625</ele>
        <time>2026-06-16T09:49:52.000Z</time>
        <extensions>
          <ns3:TrackPointExtension>
            <ns3:atemp>18.0</ns3:atemp>
          </ns3:TrackPointExtension>
        </extensions>
      </trkpt>
      <trkpt lat="42.60747936554253101348876953125" lon="19.88286414183676242828369140625">
        <ele>2029.4000244140625</ele>
        <time>2026-06-16T09:49:53.000Z</time>
        <extensions>
          <ns3:TrackPointExtension>
            <ns3:atemp>18.0</ns3:atemp>
          </ns3:TrackPointExtension>
        </extensions>
      </trkpt>
      <trkpt lat="42.60748238302767276763916015625" lon="19.882879145443439483642578125">
        <ele>2029.5999755859375</ele>
        <time>2026-06-16T09:49:54.000Z</time>
        <extensions>
          <ns3:TrackPointExtension>
            <ns3:atemp>18.0</ns3:atemp>
          </ns3:TrackPointExtension>
        </extensions>
      </trkpt>
      <trkpt lat="42.60748472996056079864501953125" lon="19.88288191147148609161376953125">
        <ele>2029.5999755859375</ele>
        <time>2026-06-16T09:49:55.000Z</time>
        <extensions>
          <ns3:TrackPointExtension>
            <ns3:atemp>18.0</ns3:atemp>
          </ns3:TrackPointExtension>
        </extensions>
      </trkpt>
      <trkpt lat="42.607481293380260467529296875" lon="19.88288660533726215362548828125">
        <ele>2029.5999755859375</ele>
        <time>2026-06-16T09:49:56.000Z</time>
        <extensions>
          <ns3:TrackPointExtension>
            <ns3:atemp>18.0</ns3:atemp>
          </ns3:TrackPointExtension>
        </extensions>
      </trkpt>
      <trkpt lat="42.60748229920864105224609375" lon="19.88288660533726215362548828125">
        <ele>2029.5999755859375</ele>
        <time>2026-06-16T09:49:57.000Z</time>
        <extensions>
          <ns3:TrackPointExtension>
            <ns3:atemp>18.0</ns3:atemp>
          </ns3:TrackPointExtension>
        </extensions>
      </trkpt>
      <trkpt lat="42.60748229920864105224609375" lon="19.88288643769919872283935546875">
        <ele>2029.5999755859375</ele>
        <time>2026-06-16T09:49:58.000Z</time>
        <extensions>
          <ns3:TrackPointExtension>
            <ns3:atemp>18.0</ns3:atemp>
          </ns3:TrackPointExtension>
        </extensions>
      </trkpt>
      <trkpt lat="42.60748229920864105224609375" lon="19.88288618624210357666015625">
        <ele>2029.5999755859375</ele>
        <time>2026-06-16T09:49:59.000Z</time>
        <extensions>
          <ns3:TrackPointExtension>
            <ns3:atemp>18.0</ns3:atemp>
          </ns3:TrackPointExtension>
        </extensions>
      </trkpt>
      <trkpt lat="42.60747953318059444427490234375" lon="19.88287679851055145263671875">
        <ele>2029.800048828125</ele>
        <time>2026-06-16T09:50:00.000Z</time>
        <extensions>
          <ns3:TrackPointExtension>
            <ns3:atemp>18.0</ns3:atemp>
          </ns3:TrackPointExtension>
        </extensions>
      </trkpt>
      <trkpt lat="42.60748229920864105224609375" lon="19.88288643769919872283935546875">
        <ele>2030.199951171875</ele>
        <time>2026-06-16T09:50:01.000Z</time>
        <extensions>
          <ns3:TrackPointExtension>
            <ns3:atemp>18.0</ns3:atemp>
          </ns3:TrackPointExtension>
        </extensions>
      </trkpt>
      <trkpt lat="42.60748229920864105224609375" lon="19.88288643769919872283935546875">
        <ele>2030.5999755859375</ele>
        <time>2026-06-16T09:50:02.000Z</time>
        <extensions>
          <ns3:TrackPointExtension>
            <ns3:atemp>18.0</ns3:atemp>
          </ns3:TrackPointExtension>
        </extensions>
      </trkpt>
      <trkpt lat="42.60748229920864105224609375" lon="19.88288643769919872283935546875">
        <ele>2031</ele>
        <time>2026-06-16T09:50:03.000Z</time>
        <extensions>
          <ns3:TrackPointExtension>
            <ns3:atemp>18.0</ns3:atemp>
          </ns3:TrackPointExtension>
        </extensions>
      </trkpt>
      <trkpt lat="42.6074794493615627288818359375" lon="19.882877804338932037353515625">
        <ele>2031.199951171875</ele>
        <time>2026-06-16T09:50:04.000Z</time>
        <extensions>
          <ns3:TrackPointExtension>
            <ns3:atemp>18.0</ns3:atemp>
          </ns3:TrackPointExtension>
        </extensions>
      </trkpt>
      <trkpt lat="42.6074797846376895904541015625" lon="19.88286606967449188232421875">
        <ele>2031.199951171875</ele>
        <time>2026-06-16T09:50:05.000Z</time>
        <extensions>
          <ns3:TrackPointExtension>
            <ns3:atemp>18.0</ns3:atemp>
          </ns3:TrackPointExtension>
        </extensions>
      </trkpt>
      <trkpt lat="42.60747735388576984405517578125" lon="19.8828578554093837738037109375">
        <ele>2030.800048828125</ele>
        <time>2026-06-16T09:50:06.000Z</time>
        <extensions>
          <ns3:TrackPointExtension>
            <ns3:atemp>18.0</ns3:atemp>
          </ns3:TrackPointExtension>
        </extensions>
      </trkpt>
      <trkpt lat="42.60747366584837436676025390625" lon="19.88285609520971775054931640625">
        <ele>2030.4000244140625</ele>
        <time>2026-06-16T09:50:07.000Z</time>
        <extensions>
          <ns3:TrackPointExtension>
            <ns3:atemp>18.0</ns3:atemp>
          </ns3:TrackPointExtension>
        </extensions>
      </trkpt>
      <trkpt lat="42.6074735820293426513671875" lon="19.88285601139068603515625">
        <ele>2030</ele>
        <time>2026-06-16T09:50:08.000Z</time>
        <extensions>
          <ns3:TrackPointExtension>
            <ns3:atemp>18.0</ns3:atemp>
          </ns3:TrackPointExtension>
        </extensions>
      </trkpt>
      <trkpt lat="42.6074735820293426513671875" lon="19.88285601139068603515625">
        <ele>2029.800048828125</ele>
        <time>2026-06-16T09:50:09.000Z</time>
        <extensions>
          <ns3:TrackPointExtension>
            <ns3:atemp>18.0</ns3:atemp>
          </ns3:TrackPointExtension>
        </extensions>
      </trkpt>
      <trkpt lat="42.6074734143912792205810546875" lon="19.88285592757165431976318359375">
        <ele>2029.5999755859375</ele>
        <time>2026-06-16T09:50:10.000Z</time>
        <extensions>
          <ns3:TrackPointExtension>
            <ns3:atemp>18.0</ns3:atemp>
          </ns3:TrackPointExtension>
        </extensions>
      </trkpt>
      <trkpt lat="42.60747022926807403564453125" lon="19.8828384093940258026123046875">
        <ele>2029.5999755859375</ele>
        <time>2026-06-16T09:50:11.000Z</time>
        <extensions>
          <ns3:TrackPointExtension>
            <ns3:atemp>18.0</ns3:atemp>
          </ns3:TrackPointExtension>
        </extensions>
      </trkpt>
      <trkpt lat="42.60747433640062808990478515625" lon="19.88283312879502773284912109375">
        <ele>2029.5999755859375</ele>
        <time>2026-06-16T09:50:12.000Z</time>
        <extensions>
          <ns3:TrackPointExtension>
            <ns3:atemp>18.0</ns3:atemp>
          </ns3:TrackPointExtension>
        </extensions>
      </trkpt>
      <trkpt lat="42.607479281723499298095703125" lon="19.88280379213392734527587890625">
        <ele>2029.5999755859375</ele>
        <time>2026-06-16T09:50:13.000Z</time>
        <extensions>
          <ns3:TrackPointExtension>
            <ns3:atemp>18.0</ns3:atemp>
          </ns3:TrackPointExtension>
        </extensions>
      </trkpt>
      <trkpt lat="42.6074791140854358673095703125" lon="19.88276590593159198760986328125">
        <ele>2029.4000244140625</ele>
        <time>2026-06-16T09:50:14.000Z</time>
        <extensions>
          <ns3:TrackPointExtension>
            <ns3:atemp>18.0</ns3:atemp>
          </ns3:TrackPointExtension>
        </extensions>
      </trkpt>
      <trkpt lat="42.60747718624770641326904296875" lon="19.88274025730788707733154296875">
        <ele>2029.199951171875</ele>
        <time>2026-06-16T09:50:15.000Z</time>
        <extensions>
          <ns3:TrackPointExtension>
            <ns3:atemp>18.0</ns3:atemp>
          </ns3:TrackPointExtension>
        </extensions>
      </trkpt>
      <trkpt lat="42.60747416876256465911865234375" lon="19.882714189589023590087890625">
        <ele>2029</ele>
        <time>2026-06-16T09:50:16.000Z</time>
        <extensions>
          <ns3:TrackPointExtension>
            <ns3:atemp>18.0</ns3:atemp>
          </ns3:TrackPointExtension>
        </extensions>
      </trkpt>
      <trkpt lat="42.607471235096454620361328125" lon="19.8826754651963710784912109375">
        <ele>2028.800048828125</ele>
        <time>2026-06-16T09:50:17.000Z</time>
        <extensions>
          <ns3:TrackPointExtension>
            <ns3:atemp>18.0</ns3:atemp>
          </ns3:TrackPointExtension>
        </extensions>
      </trkpt>
      <trkpt lat="42.6074735820293426513671875" lon="19.88262995146214962005615234375">
        <ele>2028.5999755859375</ele>
        <time>2026-06-16T09:50:18.000Z</time>
        <extensions>
          <ns3:TrackPointExtension>
            <ns3:atemp>18.0</ns3:atemp>
          </ns3:TrackPointExtension>
        </extensions>
      </trkpt>
      <trkpt lat="42.607482969760894775390625" lon="19.8825869522988796234130859375">
        <ele>2028.199951171875</ele>
        <time>2026-06-16T09:50:19.000Z</time>
        <extensions>
          <ns3:TrackPointExtension>
            <ns3:atemp>18.0</ns3:atemp>
          </ns3:TrackPointExtension>
        </extensions>
      </trkpt>
      <trkpt lat="42.607497386634349822998046875" lon="19.88254948519170284271240234375">
        <ele>2028</ele>
        <time>2026-06-16T09:50:20.000Z</time>
        <extensions>
          <ns3:TrackPointExtension>
            <ns3:atemp>18.0</ns3:atemp>
          </ns3:TrackPointExtension>
        </extensions>
      </trkpt>
      <trkpt lat="42.60751314461231231689453125" lon="19.88250506110489368438720703125">
        <ele>2027.5999755859375</ele>
        <time>2026-06-16T09:50:21.000Z</time>
        <extensions>
          <ns3:TrackPointExtension>
            <ns3:atemp>18.0</ns3:atemp>
          </ns3:TrackPointExtension>
        </extensions>
      </trkpt>
      <trkpt lat="42.60751993395388126373291015625" lon="19.882467426359653472900390625">
        <ele>2027</ele>
        <time>2026-06-16T09:50:22.000Z</time>
        <extensions>
          <ns3:TrackPointExtension>
            <ns3:atemp>18.0</ns3:atemp>
          </ns3:TrackPointExtension>
        </extensions>
      </trkpt>
      <trkpt lat="42.6075280643999576568603515625" lon="19.88243800587952136993408203125">
        <ele>2026.4000244140625</ele>
        <time>2026-06-16T09:50:23.000Z</time>
        <extensions>
          <ns3:TrackPointExtension>
            <ns3:atemp>18.0</ns3:atemp>
          </ns3:TrackPointExtension>
        </extensions>
      </trkpt>
      <trkpt lat="42.607535608112812042236328125" lon="19.88241051323711872100830078125">
        <ele>2025.800048828125</ele>
        <time>2026-06-16T09:50:24.000Z</time>
        <extensions>
          <ns3:TrackPointExtension>
            <ns3:atemp>18.0</ns3:atemp>
          </ns3:TrackPointExtension>
        </extensions>
      </trkpt>
      <trkpt lat="42.607542984187602996826171875" lon="19.8823874630033969879150390625">
        <ele>2025.4000244140625</ele>
        <time>2026-06-16T09:50:25.000Z</time>
        <extensions>
          <ns3:TrackPointExtension>
            <ns3:atemp>18.0</ns3:atemp>
          </ns3:TrackPointExtension>
        </extensions>
      </trkpt>
      <trkpt lat="42.60754373855888843536376953125" lon="19.882370196282863616943359375">
        <ele>2024.800048828125</ele>
        <time>2026-06-16T09:50:26.000Z</time>
        <extensions>
          <ns3:TrackPointExtension>
            <ns3:atemp>18.0</ns3:atemp>
          </ns3:TrackPointExtension>
        </extensions>
      </trkpt>
      <trkpt lat="42.607542313635349273681640625" lon="19.8823552764952182769775390625">
        <ele>2024.4000244140625</ele>
        <time>2026-06-16T09:50:27.000Z</time>
        <extensions>
          <ns3:TrackPointExtension>
            <ns3:atemp>18.0</ns3:atemp>
          </ns3:TrackPointExtension>
        </extensions>
      </trkpt>
      <trkpt lat="42.60754189454019069671630859375" lon="19.8823381774127483367919921875">
        <ele>2024.199951171875</ele>
        <time>2026-06-16T09:50:28.000Z</time>
        <extensions>
          <ns3:TrackPointExtension>
            <ns3:atemp>18.0</ns3:atemp>
          </ns3:TrackPointExtension>
        </extensions>
      </trkpt>
      <trkpt lat="42.6075421459972858428955078125" lon="19.88231244497001171112060546875">
        <ele>2024</ele>
        <time>2026-06-16T09:50:29.000Z</time>
        <extensions>
          <ns3:TrackPointExtension>
            <ns3:atemp>18.0</ns3:atemp>
          </ns3:TrackPointExtension>
        </extensions>
      </trkpt>
      <trkpt lat="42.60754264891147613525390625" lon="19.88228662870824337005615234375">
        <ele>2024</ele>
        <time>2026-06-16T09:50:30.000Z</time>
        <extensions>
          <ns3:TrackPointExtension>
            <ns3:atemp>18.0</ns3:atemp>
          </ns3:TrackPointExtension>
        </extensions>
      </trkpt>
      <trkpt lat="42.607541978359222412109375" lon="19.882261566817760467529296875">
        <ele>2024</ele>
        <time>2026-06-16T09:50:31.000Z</time>
        <extensions>
          <ns3:TrackPointExtension>
            <ns3:atemp>18.0</ns3:atemp>
          </ns3:TrackPointExtension>
        </extensions>
      </trkpt>
      <trkpt lat="42.60754105634987354278564453125" lon="19.88223977386951446533203125">
        <ele>2024.199951171875</ele>
        <time>2026-06-16T09:50:32.000Z</time>
        <extensions>
          <ns3:TrackPointExtension>
            <ns3:atemp>18.0</ns3:atemp>
          </ns3:TrackPointExtension>
        </extensions>
      </trkpt>
      <trkpt lat="42.60753401555120944976806640625" lon="19.8822228424251079559326171875">
        <ele>2024.4000244140625</ele>
        <time>2026-06-16T09:50:33.000Z</time>
        <extensions>
          <ns3:TrackPointExtension>
            <ns3:atemp>18.0</ns3:atemp>
          </ns3:TrackPointExtension>
        </extensions>
      </trkpt>
      <trkpt lat="42.60752513073384761810302734375" lon="19.882202558219432830810546875">
        <ele>2024.5999755859375</ele>
        <time>2026-06-16T09:50:34.000Z</time>
        <extensions>
          <ns3:TrackPointExtension>
            <ns3:atemp>18.0</ns3:atemp>
          </ns3:TrackPointExtension>
        </extensions>
      </trkpt>
      <trkpt lat="42.60751222260296344757080078125" lon="19.88218319602310657501220703125">
        <ele>2025.199951171875</ele>
        <time>2026-06-16T09:50:35.000Z</time>
        <extensions>
          <ns3:TrackPointExtension>
            <ns3:atemp>18.0</ns3:atemp>
          </ns3:TrackPointExtension>
        </extensions>
      </trkpt>
      <trkpt lat="42.60749713517725467681884765625" lon="19.88218269310891628265380859375">
        <ele>2025.4000244140625</ele>
        <time>2026-06-16T09:50:36.000Z</time>
        <extensions>
          <ns3:TrackPointExtension>
            <ns3:atemp>18.0</ns3:atemp>
          </ns3:TrackPointExtension>
        </extensions>
      </trkpt>
      <trkpt lat="42.60748154483735561370849609375" lon="19.8821755684912204742431640625">
        <ele>2025.800048828125</ele>
        <time>2026-06-16T09:50:37.000Z</time>
        <extensions>
          <ns3:TrackPointExtension>
            <ns3:atemp>18.0</ns3:atemp>
          </ns3:TrackPointExtension>
        </extensions>
      </trkpt>
      <trkpt lat="42.60746679268777370452880859375" lon="19.88217062316834926605224609375">
        <ele>2026.199951171875</ele>
        <time>2026-06-16T09:50:38.000Z</time>
        <extensions>
          <ns3:TrackPointExtension>
            <ns3:atemp>18.0</ns3:atemp>
          </ns3:TrackPointExtension>
        </extensions>
      </trkpt>
      <trkpt lat="42.60744784958660602569580078125" lon="19.8821738921105861663818359375">
        <ele>2026.5999755859375</ele>
        <time>2026-06-16T09:50:39.000Z</time>
        <extensions>
          <ns3:TrackPointExtension>
            <ns3:atemp>18.0</ns3:atemp>
          </ns3:TrackPointExtension>
        </extensions>
      </trkpt>
      <trkpt lat="42.60743376798927783966064453125" lon="19.88217967562377452850341796875">
        <ele>2027</ele>
        <time>2026-06-16T09:50:40.000Z</time>
        <extensions>
          <ns3:TrackPointExtension>
            <ns3:atemp>18.0</ns3:atemp>
          </ns3:TrackPointExtension>
        </extensions>
      </trkpt>
      <trkpt lat="42.60742454789578914642333984375" lon="19.8821919970214366912841796875">
        <ele>2027.199951171875</ele>
        <time>2026-06-16T09:50:41.000Z</time>
        <extensions>
          <ns3:TrackPointExtension>
            <ns3:atemp>18.0</ns3:atemp>
          </ns3:TrackPointExtension>
        </extensions>
      </trkpt>
      <trkpt lat="42.60741801001131534576416015625" lon="19.88221286796033382415771484375">
        <ele>2027.5999755859375</ele>
        <time>2026-06-16T09:50:42.000Z</time>
        <extensions>
          <ns3:TrackPointExtension>
            <ns3:atemp>18.0</ns3:atemp>
          </ns3:TrackPointExtension>
        </extensions>
      </trkpt>
      <trkpt lat="42.60741096921265125274658203125" lon="19.88222896121442317962646484375">
        <ele>2027.800048828125</ele>
        <time>2026-06-16T09:50:43.000Z</time>
        <extensions>
          <ns3:TrackPointExtension>
            <ns3:atemp>18.0</ns3:atemp>
          </ns3:TrackPointExtension>
        </extensions>
      </trkpt>
      <trkpt lat="42.60740040801465511322021484375" lon="19.88224119879305362701416015625">
        <ele>2028</ele>
        <time>2026-06-16T09:50:44.000Z</time>
        <extensions>
          <ns3:TrackPointExtension>
            <ns3:atemp>18.0</ns3:atemp>
          </ns3:TrackPointExtension>
        </extensions>
      </trkpt>
      <trkpt lat="42.60739244520664215087890625" lon="19.88226081244647502899169921875">
        <ele>2028.199951171875</ele>
        <time>2026-06-16T09:50:45.000Z</time>
        <extensions>
          <ns3:TrackPointExtension>
            <ns3:atemp>18.0</ns3:atemp>
          </ns3:TrackPointExtension>
        </extensions>
      </trkpt>
      <trkpt lat="42.60738448239862918853759765625" lon="19.882284700870513916015625">
        <ele>2028.5999755859375</ele>
        <time>2026-06-16T09:50:46.000Z</time>
        <extensions>
          <ns3:TrackPointExtension>
            <ns3:atemp>18.0</ns3:atemp>
          </ns3:TrackPointExtension>
        </extensions>
      </trkpt>
      <trkpt lat="42.6073758490383625030517578125" lon="19.88230775110423564910888671875">
        <ele>2029</ele>
        <time>2026-06-16T09:50:47.000Z</time>
        <extensions>
          <ns3:TrackPointExtension>
            <ns3:atemp>18.0</ns3:atemp>
          </ns3:TrackPointExtension>
        </extensions>
      </trkpt>
      <trkpt lat="42.6073698140680789947509765625" lon="19.88233457319438457489013671875">
        <ele>2029.4000244140625</ele>
        <time>2026-06-16T09:50:48.000Z</time>
        <extensions>
          <ns3:TrackPointExtension>
            <ns3:atemp>18.0</ns3:atemp>
          </ns3:TrackPointExtension>
        </extensions>
      </trkpt>
      <trkpt lat="42.6073597557842731475830078125" lon="19.88235150463879108428955078125">
        <ele>2029.800048828125</ele>
        <time>2026-06-16T09:50:49.000Z</time>
        <extensions>
          <ns3:TrackPointExtension>
            <ns3:atemp>18.0</ns3:atemp>
          </ns3:TrackPointExtension>
        </extensions>
      </trkpt>
      <trkpt lat="42.6073480211198329925537109375" lon="19.882359467446804046630859375">
        <ele>2030.199951171875</ele>
        <time>2026-06-16T09:50:50.000Z</time>
        <extensions>
          <ns3:TrackPointExtension>
            <ns3:atemp>18.0</ns3:atemp>
          </ns3:TrackPointExtension>
        </extensions>
      </trkpt>
      <trkpt lat="42.6073389686644077301025390625" lon="19.8823549412190914154052734375">
        <ele>2030.800048828125</ele>
        <time>2026-06-16T09:50:51.000Z</time>
        <extensions>
          <ns3:TrackPointExtension>
            <ns3:atemp>18.0</ns3:atemp>
          </ns3:TrackPointExtension>
        </extensions>
      </trkpt>
      <trkpt lat="42.60732807219028472900390625" lon="19.88234362564980983734130859375">
        <ele>2031.4000244140625</ele>
        <time>2026-06-16T09:50:52.000Z</time>
        <extensions>
          <ns3:TrackPointExtension>
            <ns3:atemp>18.0</ns3:atemp>
          </ns3:TrackPointExtension>
        </extensions>
      </trkpt>
      <trkpt lat="42.60731340385973453521728515625" lon="19.88233021460473537445068359375">
        <ele>2031.800048828125</ele>
        <time>2026-06-16T09:50:53.000Z</time>
        <extensions>
          <ns3:TrackPointExtension>
            <ns3:atemp>18.0</ns3:atemp>
          </ns3:TrackPointExtension>
        </extensions>
      </trkpt>
      <trkpt lat="42.6072967238724231719970703125" lon="19.8823209106922149658203125">
        <ele>2032.4000244140625</ele>
        <time>2026-06-16T09:50:54.000Z</time>
        <extensions>
          <ns3:TrackPointExtension>
            <ns3:atemp>18.0</ns3:atemp>
          </ns3:TrackPointExtension>
        </extensions>
      </trkpt>
      <trkpt lat="42.60728389956057071685791015625" lon="19.8823173902928829193115234375">
        <ele>2032.800048828125</ele>
        <time>2026-06-16T09:50:55.000Z</time>
        <extensions>
          <ns3:TrackPointExtension>
            <ns3:atemp>18.0</ns3:atemp>
          </ns3:TrackPointExtension>
        </extensions>
      </trkpt>
      <trkpt lat="42.60727250017225742340087890625" lon="19.88232518546283245086669921875">
        <ele>2033.199951171875</ele>
        <time>2026-06-16T09:50:56.000Z</time>
        <extensions>
          <ns3:TrackPointExtension>
            <ns3:atemp>18.0</ns3:atemp>
          </ns3:TrackPointExtension>
        </extensions>
      </trkpt>
      <trkpt lat="42.6072578318417072296142578125" lon="19.8823331482708454132080078125">
        <ele>2033.5999755859375</ele>
        <time>2026-06-16T09:50:57.000Z</time>
        <extensions>
          <ns3:TrackPointExtension>
            <ns3:atemp>18.0</ns3:atemp>
          </ns3:TrackPointExtension>
        </extensions>
      </trkpt>
      <trkpt lat="42.60724584572017192840576171875" lon="19.88232870586216449737548828125">
        <ele>2034.199951171875</ele>
        <time>2026-06-16T09:50:58.000Z</time>
        <extensions>
          <ns3:TrackPointExtension>
            <ns3:atemp>18.0</ns3:atemp>
          </ns3:TrackPointExtension>
        </extensions>
      </trkpt>
      <trkpt lat="42.60723578743636608123779296875" lon="19.88232158124446868896484375">
        <ele>2034.5999755859375</ele>
        <time>2026-06-16T09:50:59.000Z</time>
        <extensions>
          <ns3:TrackPointExtension>
            <ns3:atemp>18.0</ns3:atemp>
          </ns3:TrackPointExtension>
        </extensions>
      </trkpt>
      <trkpt lat="42.60723109357059001922607421875" lon="19.88231982104480266571044921875">
        <ele>2035</ele>
        <time>2026-06-16T09:51:00.000Z</time>
        <extensions>
          <ns3:TrackPointExtension>
            <ns3:atemp>18.0</ns3:atemp>
          </ns3:TrackPointExtension>
        </extensions>
      </trkpt>
      <trkpt lat="42.6072216220200061798095703125" lon="19.882319904863834381103515625">
        <ele>2035.4000244140625</ele>
        <time>2026-06-16T09:51:01.000Z</time>
        <extensions>
          <ns3:TrackPointExtension>
            <ns3:atemp>18.0</ns3:atemp>
          </ns3:TrackPointExtension>
        </extensions>
      </trkpt>
      <trkpt lat="42.60720510967075824737548828125" lon="19.88231328316032886505126953125">
        <ele>2035.5999755859375</ele>
        <time>2026-06-16T09:51:02.000Z</time>
        <extensions>
          <ns3:TrackPointExtension>
            <ns3:atemp>18.0</ns3:atemp>
          </ns3:TrackPointExtension>
        </extensions>
      </trkpt>
      <trkpt lat="42.60717895813286304473876953125" lon="19.8823083378374576568603515625">
        <ele>2035.5999755859375</ele>
        <time>2026-06-16T09:51:03.000Z</time>
        <extensions>
          <ns3:TrackPointExtension>
            <ns3:atemp>18.0</ns3:atemp>
          </ns3:TrackPointExtension>
        </extensions>
      </trkpt>
      <trkpt lat="42.60715632699429988861083984375" lon="19.88230305723845958709716796875">
        <ele>2035.5999755859375</ele>
        <time>2026-06-16T09:51:04.000Z</time>
        <extensions>
          <ns3:TrackPointExtension>
            <ns3:atemp>18.0</ns3:atemp>
          </ns3:TrackPointExtension>
        </extensions>
      </trkpt>
      <trkpt lat="42.6071435026824474334716796875" lon="19.88229266367852687835693359375">
        <ele>2035.5999755859375</ele>
        <time>2026-06-16T09:51:05.000Z</time>
        <extensions>
          <ns3:TrackPointExtension>
            <ns3:atemp>18.0</ns3:atemp>
          </ns3:TrackPointExtension>
        </extensions>
      </trkpt>
      <trkpt lat="42.60713436640799045562744140625" lon="19.88228461705148220062255859375">
        <ele>2035.5999755859375</ele>
        <time>2026-06-16T09:51:06.000Z</time>
        <extensions>
          <ns3:TrackPointExtension>
            <ns3:atemp>18.0</ns3:atemp>
          </ns3:TrackPointExtension>
        </extensions>
      </trkpt>
      <trkpt lat="42.60712430812418460845947265625" lon="19.88227740861475467681884765625">
        <ele>2035.800048828125</ele>
        <time>2026-06-16T09:51:07.000Z</time>
        <extensions>
          <ns3:TrackPointExtension>
            <ns3:atemp>18.0</ns3:atemp>
          </ns3:TrackPointExtension>
        </extensions>
      </trkpt>
      <trkpt lat="42.60711324401199817657470703125" lon="19.8822645843029022216796875">
        <ele>2036</ele>
        <time>2026-06-16T09:51:08.000Z</time>
        <extensions>
          <ns3:TrackPointExtension>
            <ns3:atemp>18.0</ns3:atemp>
          </ns3:TrackPointExtension>
        </extensions>
      </trkpt>
      <trkpt lat="42.60709865950047969818115234375" lon="19.8822523467242717742919921875">
        <ele>2036.199951171875</ele>
        <time>2026-06-16T09:51:09.000Z</time>
        <extensions>
          <ns3:TrackPointExtension>
            <ns3:atemp>18.0</ns3:atemp>
          </ns3:TrackPointExtension>
        </extensions>
      </trkpt>
      <trkpt lat="42.607084996998310089111328125" lon="19.88224170170724391937255859375">
        <ele>2036.4000244140625</ele>
        <time>2026-06-16T09:51:10.000Z</time>
        <extensions>
          <ns3:TrackPointExtension>
            <ns3:atemp>18.0</ns3:atemp>
          </ns3:TrackPointExtension>
        </extensions>
      </trkpt>
      <trkpt lat="42.607072256505489349365234375" lon="19.8822295479476451873779296875">
        <ele>2036.4000244140625</ele>
        <time>2026-06-16T09:51:11.000Z</time>
        <extensions>
          <ns3:TrackPointExtension>
            <ns3:atemp>18.0</ns3:atemp>
          </ns3:TrackPointExtension>
        </extensions>
      </trkpt>
      <trkpt lat="42.607059516012668609619140625" lon="19.882215969264507293701171875">
        <ele>2036.5999755859375</ele>
        <time>2026-06-16T09:51:12.000Z</time>
        <extensions>
          <ns3:TrackPointExtension>
            <ns3:atemp>18.0</ns3:atemp>
          </ns3:TrackPointExtension>
        </extensions>
      </trkpt>
      <trkpt lat="42.60704836808145046234130859375" lon="19.88220758736133575439453125">
        <ele>2036.800048828125</ele>
        <time>2026-06-16T09:51:13.000Z</time>
        <extensions>
          <ns3:TrackPointExtension>
            <ns3:atemp>18.0</ns3:atemp>
          </ns3:TrackPointExtension>
        </extensions>
      </trkpt>
      <trkpt lat="42.60703898034989833831787109375" lon="19.88219828344881534576416015625">
        <ele>2037</ele>
        <time>2026-06-16T09:51:14.000Z</time>
        <extensions>
          <ns3:TrackPointExtension>
            <ns3:atemp>18.0</ns3:atemp>
          </ns3:TrackPointExtension>
        </extensions>
      </trkpt>
      <trkpt lat="42.607024647295475006103515625" lon="19.8821961879730224609375">
        <ele>2037.4000244140625</ele>
        <time>2026-06-16T09:51:15.000Z</time>
        <extensions>
          <ns3:TrackPointExtension>
            <ns3:atemp>18.0</ns3:atemp>
          </ns3:TrackPointExtension>
        </extensions>
      </trkpt>
      <trkpt lat="42.6070070452988147735595703125" lon="19.88220213912427425384521484375">
        <ele>2037.800048828125</ele>
        <time>2026-06-16T09:51:16.000Z</time>
        <extensions>
          <ns3:TrackPointExtension>
            <ns3:atemp>18.0</ns3:atemp>
          </ns3:TrackPointExtension>
        </extensions>
      </trkpt>
      <trkpt lat="42.6069934666156768798828125" lon="19.88220951519906520843505859375">
        <ele>2038</ele>
        <time>2026-06-16T09:51:17.000Z</time>
        <extensions>
          <ns3:TrackPointExtension>
            <ns3:atemp>18.0</ns3:atemp>
          </ns3:TrackPointExtension>
        </extensions>
      </trkpt>
      <trkpt lat="42.606980390846729278564453125" lon="19.882218651473522186279296875">
        <ele>2038.4000244140625</ele>
        <time>2026-06-16T09:51:18.000Z</time>
        <extensions>
          <ns3:TrackPointExtension>
            <ns3:atemp>18.0</ns3:atemp>
          </ns3:TrackPointExtension>
        </extensions>
      </trkpt>
      <trkpt lat="42.6069674827158451080322265625" lon="19.8822208307683467864990234375">
        <ele>2038.5999755859375</ele>
        <time>2026-06-16T09:51:19.000Z</time>
        <extensions>
          <ns3:TrackPointExtension>
            <ns3:atemp>18.0</ns3:atemp>
          </ns3:TrackPointExtension>
        </extensions>
      </trkpt>
      <trkpt lat="42.606956921517848968505859375" lon="19.88221840001642704010009765625">
        <ele>2039</ele>
        <time>2026-06-16T09:51:20.000Z</time>
        <extensions>
          <ns3:TrackPointExtension>
            <ns3:atemp>18.0</ns3:atemp>
          </ns3:TrackPointExtension>
        </extensions>
      </trkpt>
      <trkpt lat="42.60694292373955249786376953125" lon="19.88222057931125164031982421875">
        <ele>2039.199951171875</ele>
        <time>2026-06-16T09:51:21.000Z</time>
        <extensions>
          <ns3:TrackPointExtension>
            <ns3:atemp>18.0</ns3:atemp>
          </ns3:TrackPointExtension>
        </extensions>
      </trkpt>
      <trkpt lat="42.60693102143704891204833984375" lon="19.8822211660444736480712890625">
        <ele>2039.5999755859375</ele>
        <time>2026-06-16T09:51:22.000Z</time>
        <extensions>
          <ns3:TrackPointExtension>
            <ns3:atemp>18.0</ns3:atemp>
          </ns3:TrackPointExtension>
        </extensions>
      </trkpt>
      <trkpt lat="42.606918029487133026123046875" lon="19.8822285421192646026611328125">
        <ele>2040</ele>
        <time>2026-06-16T09:51:23.000Z</time>
        <extensions>
          <ns3:TrackPointExtension>
            <ns3:atemp>18.0</ns3:atemp>
          </ns3:TrackPointExtension>
        </extensions>
      </trkpt>
      <trkpt lat="42.6069088093936443328857421875" lon="19.8822251893579959869384765625">
        <ele>2040.4000244140625</ele>
        <time>2026-06-16T09:51:24.000Z</time>
        <extensions>
          <ns3:TrackPointExtension>
            <ns3:atemp>18.0</ns3:atemp>
          </ns3:TrackPointExtension>
        </extensions>
      </trkpt>
      <trkpt lat="42.60689866729080677032470703125" lon="19.88221638835966587066650390625">
        <ele>2040.5999755859375</ele>
        <time>2026-06-16T09:51:25.000Z</time>
        <extensions>
          <ns3:TrackPointExtension>
            <ns3:atemp>18.0</ns3:atemp>
          </ns3:TrackPointExtension>
        </extensions>
      </trkpt>
      <trkpt lat="42.60688341222703456878662109375" lon="19.88220498897135257720947265625">
        <ele>2040.800048828125</ele>
        <time>2026-06-16T09:51:26.000Z</time>
        <extensions>
          <ns3:TrackPointExtension>
            <ns3:atemp>18.0</ns3:atemp>
          </ns3:TrackPointExtension>
        </extensions>
      </trkpt>
      <trkpt lat="42.60686648078262805938720703125" lon="19.8822003789246082305908203125">
        <ele>2041</ele>
        <time>2026-06-16T09:51:27.000Z</time>
        <extensions>
          <ns3:TrackPointExtension>
            <ns3:atemp>18.0</ns3:atemp>
          </ns3:TrackPointExtension>
        </extensions>
      </trkpt>
      <trkpt lat="42.60684887878596782684326171875" lon="19.88219962455332279205322265625">
        <ele>2041.4000244140625</ele>
        <time>2026-06-16T09:51:28.000Z</time>
        <extensions>
          <ns3:TrackPointExtension>
            <ns3:atemp>18.0</ns3:atemp>
          </ns3:TrackPointExtension>
        </extensions>
      </trkpt>
      <trkpt lat="42.60683186352252960205078125" lon="19.88220850937068462371826171875">
        <ele>2041.4000244140625</ele>
        <time>2026-06-16T09:51:29.000Z</time>
        <extensions>
          <ns3:TrackPointExtension>
            <ns3:atemp>18.0</ns3:atemp>
          </ns3:TrackPointExtension>
        </extensions>
      </trkpt>
      <trkpt lat="42.6068142615258693695068359375" lon="19.882218651473522186279296875">
        <ele>2041.5999755859375</ele>
        <time>2026-06-16T09:51:30.000Z</time>
        <extensions>
          <ns3:TrackPointExtension>
            <ns3:atemp>18.0</ns3:atemp>
          </ns3:TrackPointExtension>
        </extensions>
      </trkpt>
      <trkpt lat="42.6067968271672725677490234375" lon="19.88222627900540828704833984375">
        <ele>2041.800048828125</ele>
        <time>2026-06-16T09:51:31.000Z</time>
        <extensions>
          <ns3:TrackPointExtension>
            <ns3:atemp>18.0</ns3:atemp>
          </ns3:TrackPointExtension>
        </extensions>
      </trkpt>
      <trkpt lat="42.60678282938897609710693359375" lon="19.88222896121442317962646484375">
        <ele>2042</ele>
        <time>2026-06-16T09:51:32.000Z</time>
        <extensions>
          <ns3:TrackPointExtension>
            <ns3:atemp>18.0</ns3:atemp>
          </ns3:TrackPointExtension>
        </extensions>
      </trkpt>
      <trkpt lat="42.60676975362002849578857421875" lon="19.88222728483378887176513671875">
        <ele>2042.199951171875</ele>
        <time>2026-06-16T09:51:33.000Z</time>
        <extensions>
          <ns3:TrackPointExtension>
            <ns3:atemp>18.0</ns3:atemp>
          </ns3:TrackPointExtension>
        </extensions>
      </trkpt>
      <trkpt lat="42.6067599467933177947998046875" lon="19.88222326152026653289794921875">
        <ele>2042.5999755859375</ele>
        <time>2026-06-16T09:51:34.000Z</time>
        <extensions>
          <ns3:TrackPointExtension>
            <ns3:atemp>18.0</ns3:atemp>
          </ns3:TrackPointExtension>
        </extensions>
      </trkpt>
      <trkpt lat="42.6067505590617656707763671875" lon="19.88222636282444000244140625">
        <ele>2043</ele>
        <time>2026-06-16T09:51:35.000Z</time>
        <extensions>
          <ns3:TrackPointExtension>
            <ns3:atemp>18.0</ns3:atemp>
          </ns3:TrackPointExtension>
        </extensions>
      </trkpt>
      <trkpt lat="42.606744356453418731689453125" lon="19.8822382651269435882568359375">
        <ele>2043.199951171875</ele>
        <time>2026-06-16T09:51:36.000Z</time>
        <extensions>
          <ns3:TrackPointExtension>
            <ns3:atemp>18.0</ns3:atemp>
          </ns3:TrackPointExtension>
        </extensions>
      </trkpt>
      <trkpt lat="42.6067394949495792388916015625" lon="19.882248155772686004638671875">
        <ele>2043.5999755859375</ele>
        <time>2026-06-16T09:51:37.000Z</time>
        <extensions>
          <ns3:TrackPointExtension>
            <ns3:atemp>18.0</ns3:atemp>
          </ns3:TrackPointExtension>
        </extensions>
      </trkpt>
      <trkpt lat="42.60673756711184978485107421875" lon="19.88224706612527370452880859375">
        <ele>2043.800048828125</ele>
        <time>2026-06-16T09:51:38.000Z</time>
        <extensions>
          <ns3:TrackPointExtension>
            <ns3:atemp>18.0</ns3:atemp>
          </ns3:TrackPointExtension>
        </extensions>
      </trkpt>
      <trkpt lat="42.60673756711184978485107421875" lon="19.882247149944305419921875">
        <ele>2044.199951171875</ele>
        <time>2026-06-16T09:51:39.000Z</time>
        <extensions>
          <ns3:TrackPointExtension>
            <ns3:atemp>18.0</ns3:atemp>
          </ns3:TrackPointExtension>
        </extensions>
      </trkpt>
      <trkpt lat="42.60673756711184978485107421875" lon="19.882247149944305419921875">
        <ele>2044.5999755859375</ele>
        <time>2026-06-16T09:51:40.000Z</time>
        <extensions>
          <ns3:TrackPointExtension>
            <ns3:atemp>18.0</ns3:atemp>
          </ns3:TrackPointExtension>
        </extensions>
      </trkpt>
      <trkpt lat="42.60673756711184978485107421875" lon="19.882247149944305419921875">
        <ele>2044.800048828125</ele>
        <time>2026-06-16T09:51:41.000Z</time>
        <extensions>
          <ns3:TrackPointExtension>
            <ns3:atemp>18.0</ns3:atemp>
          </ns3:TrackPointExtension>
        </extensions>
      </trkpt>
      <trkpt lat="42.60673756711184978485107421875" lon="19.882247149944305419921875">
        <ele>2045</ele>
        <time>2026-06-16T09:51:42.000Z</time>
        <extensions>
          <ns3:TrackPointExtension>
            <ns3:atemp>18.0</ns3:atemp>
          </ns3:TrackPointExtension>
        </extensions>
      </trkpt>
      <trkpt lat="42.60673756711184978485107421875" lon="19.882247149944305419921875">
        <ele>2045</ele>
        <time>2026-06-16T09:51:43.000Z</time>
        <extensions>
          <ns3:TrackPointExtension>
            <ns3:atemp>18.0</ns3:atemp>
          </ns3:TrackPointExtension>
        </extensions>
      </trkpt>
      <trkpt lat="42.60673756711184978485107421875" lon="19.882247149944305419921875">
        <ele>2045</ele>
        <time>2026-06-16T09:51:44.000Z</time>
        <extensions>
          <ns3:TrackPointExtension>
            <ns3:atemp>18.0</ns3:atemp>
          </ns3:TrackPointExtension>
        </extensions>
      </trkpt>
      <trkpt lat="42.60673756711184978485107421875" lon="19.882247149944305419921875">
        <ele>2045.199951171875</ele>
        <time>2026-06-16T09:51:45.000Z</time>
        <extensions>
          <ns3:TrackPointExtension>
            <ns3:atemp>18.0</ns3:atemp>
          </ns3:TrackPointExtension>
        </extensions>
      </trkpt>
      <trkpt lat="42.60673756711184978485107421875" lon="19.882247149944305419921875">
        <ele>2045.199951171875</ele>
        <time>2026-06-16T09:51:46.000Z</time>
        <extensions>
          <ns3:TrackPointExtension>
            <ns3:atemp>18.0</ns3:atemp>
          </ns3:TrackPointExtension>
        </extensions>
      </trkpt>
      <trkpt lat="42.60673756711184978485107421875" lon="19.882247149944305419921875">
        <ele>2045.199951171875</ele>
        <time>2026-06-16T09:51:47.000Z</time>
        <extensions>
          <ns3:TrackPointExtension>
            <ns3:atemp>18.0</ns3:atemp>
          </ns3:TrackPointExtension>
        </extensions>
      </trkpt>
      <trkpt lat="42.60673756711184978485107421875" lon="19.882247149944305419921875">
        <ele>2045.4000244140625</ele>
        <time>2026-06-16T09:51:48.000Z</time>
        <extensions>
          <ns3:TrackPointExtension>
            <ns3:atemp>18.0</ns3:atemp>
          </ns3:TrackPointExtension>
        </extensions>
      </trkpt>
      <trkpt lat="42.60673756711184978485107421875" lon="19.882247149944305419921875">
        <ele>2045.4000244140625</ele>
        <time>2026-06-16T09:51:49.000Z</time>
        <extensions>
          <ns3:TrackPointExtension>
            <ns3:atemp>18.0</ns3:atemp>
          </ns3:TrackPointExtension>
        </extensions>
      </trkpt>
      <trkpt lat="42.60673756711184978485107421875" lon="19.882247149944305419921875">
        <ele>2045.4000244140625</ele>
        <time>2026-06-16T09:51:50.000Z</time>
        <extensions>
          <ns3:TrackPointExtension>
            <ns3:atemp>18.0</ns3:atemp>
          </ns3:TrackPointExtension>
        </extensions>
      </trkpt>
      <trkpt lat="42.60673756711184978485107421875" lon="19.882247149944305419921875">
        <ele>2045.4000244140625</ele>
        <time>2026-06-16T09:51:51.000Z</time>
        <extensions>
          <ns3:TrackPointExtension>
            <ns3:atemp>18.0</ns3:atemp>
          </ns3:TrackPointExtension>
        </extensions>
      </trkpt>
      <trkpt lat="42.60673756711184978485107421875" lon="19.882247149944305419921875">
        <ele>2045.5999755859375</ele>
        <time>2026-06-16T09:51:52.000Z</time>
        <extensions>
          <ns3:TrackPointExtension>
            <ns3:atemp>18.0</ns3:atemp>
          </ns3:TrackPointExtension>
        </extensions>
      </trkpt>
      <trkpt lat="42.60673756711184978485107421875" lon="19.882247149944305419921875">
        <ele>2045.5999755859375</ele>
        <time>2026-06-16T09:51:53.000Z</time>
        <extensions>
          <ns3:TrackPointExtension>
            <ns3:atemp>18.0</ns3:atemp>
          </ns3:TrackPointExtension>
        </extensions>
      </trkpt>
      <trkpt lat="42.60673756711184978485107421875" lon="19.882247149944305419921875">
        <ele>2045.5999755859375</ele>
        <time>2026-06-16T09:51:54.000Z</time>
        <extensions>
          <ns3:TrackPointExtension>
            <ns3:atemp>18.0</ns3:atemp>
          </ns3:TrackPointExtension>
        </extensions>
      </trkpt>
      <trkpt lat="42.60673756711184978485107421875" lon="19.882247149944305419921875">
        <ele>2045.5999755859375</ele>
        <time>2026-06-16T09:51:55.000Z</time>
        <extensions>
          <ns3:TrackPointExtension>
            <ns3:atemp>18.0</ns3:atemp>
          </ns3:TrackPointExtension>
        </extensions>
      </trkpt>
      <trkpt lat="42.60673756711184978485107421875" lon="19.882247149944305419921875">
        <ele>2045.800048828125</ele>
        <time>2026-06-16T09:51:56.000Z</time>
        <extensions>
          <ns3:TrackPointExtension>
            <ns3:atemp>18.0</ns3:atemp>
          </ns3:TrackPointExtension>
        </extensions>
      </trkpt>
      <trkpt lat="42.60673756711184978485107421875" lon="19.882247149944305419921875">
        <ele>2045.800048828125</ele>
        <time>2026-06-16T09:51:57.000Z</time>
        <extensions>
          <ns3:TrackPointExtension>
            <ns3:atemp>18.0</ns3:atemp>
          </ns3:TrackPointExtension>
        </extensions>
      </trkpt>
      <trkpt lat="42.60673756711184978485107421875" lon="19.882247149944305419921875">
        <ele>2045.800048828125</ele>
        <time>2026-06-16T09:51:58.000Z</time>
        <extensions>
          <ns3:TrackPointExtension>
            <ns3:atemp>18.0</ns3:atemp>
          </ns3:TrackPointExtension>
        </extensions>
      </trkpt>
      <trkpt lat="42.60673756711184978485107421875" lon="19.882247149944305419921875">
        <ele>2046</ele>
        <time>2026-06-16T09:51:59.000Z</time>
        <extensions>
          <ns3:TrackPointExtension>
            <ns3:atemp>18.0</ns3:atemp>
          </ns3:TrackPointExtension>
        </extensions>
      </trkpt>
      <trkpt lat="42.60673756711184978485107421875" lon="19.882247149944305419921875">
        <ele>2046</ele>
        <time>2026-06-16T09:52:00.000Z</time>
        <extensions>
          <ns3:TrackPointExtension>
            <ns3:atemp>18.0</ns3:atemp>
          </ns3:TrackPointExtension>
        </extensions>
      </trkpt>
      <trkpt lat="42.60673756711184978485107421875" lon="19.882247149944305419921875">
        <ele>2046</ele>
        <time>2026-06-16T09:52:01.000Z</time>
        <extensions>
          <ns3:TrackPointExtension>
            <ns3:atemp>18.0</ns3:atemp>
          </ns3:TrackPointExtension>
        </extensions>
      </trkpt>
      <trkpt lat="42.60673756711184978485107421875" lon="19.882247149944305419921875">
        <ele>2046</ele>
        <time>2026-06-16T09:52:02.000Z</time>
        <extensions>
          <ns3:TrackPointExtension>
            <ns3:atemp>18.0</ns3:atemp>
          </ns3:TrackPointExtension>
        </extensions>
      </trkpt>
      <trkpt lat="42.60673823766410350799560546875" lon="19.8822493292391300201416015625">
        <ele>2046.199951171875</ele>
        <time>2026-06-16T09:52:03.000Z</time>
        <extensions>
          <ns3:TrackPointExtension>
            <ns3:atemp>18.0</ns3:atemp>
          </ns3:TrackPointExtension>
        </extensions>
      </trkpt>
      <trkpt lat="42.606741674244403839111328125" lon="19.8822791688144207000732421875">
        <ele>2046.199951171875</ele>
        <time>2026-06-16T09:52:04.000Z</time>
        <extensions>
          <ns3:TrackPointExtension>
            <ns3:atemp>18.0</ns3:atemp>
          </ns3:TrackPointExtension>
        </extensions>
      </trkpt>
      <trkpt lat="42.60674561373889446258544921875" lon="19.8822994530200958251953125">
        <ele>2046.199951171875</ele>
        <time>2026-06-16T09:52:05.000Z</time>
        <extensions>
          <ns3:TrackPointExtension>
            <ns3:atemp>19.0</ns3:atemp>
          </ns3:TrackPointExtension>
        </extensions>
      </trkpt>
      <trkpt lat="42.60675298981368541717529296875" lon="19.88232082687318325042724609375">
        <ele>2046.199951171875</ele>
        <time>2026-06-16T09:52:06.000Z</time>
        <extensions>
          <ns3:TrackPointExtension>
            <ns3:atemp>18.0</ns3:atemp>
          </ns3:TrackPointExtension>
        </extensions>
      </trkpt>
      <trkpt lat="42.606760449707508087158203125" lon="19.88234027288854122161865234375">
        <ele>2046.4000244140625</ele>
        <time>2026-06-16T09:52:07.000Z</time>
        <extensions>
          <ns3:TrackPointExtension>
            <ns3:atemp>19.0</ns3:atemp>
          </ns3:TrackPointExtension>
        </extensions>
      </trkpt>
      <trkpt lat="42.6067706756293773651123046875" lon="19.88236256875097751617431640625">
        <ele>2046.5999755859375</ele>
        <time>2026-06-16T09:52:08.000Z</time>
        <extensions>
          <ns3:TrackPointExtension>
            <ns3:atemp>19.0</ns3:atemp>
          </ns3:TrackPointExtension>
        </extensions>
      </trkpt>
      <trkpt lat="42.60676640085875988006591796875" lon="19.88237614743411540985107421875">
        <ele>2047</ele>
        <time>2026-06-16T09:52:09.000Z</time>
        <extensions>
          <ns3:TrackPointExtension>
            <ns3:atemp>18.0</ns3:atemp>
          </ns3:TrackPointExtension>
        </extensions>
      </trkpt>
      <trkpt lat="42.606761455535888671875" lon="19.882386624813079833984375">
        <ele>2047.199951171875</ele>
        <time>2026-06-16T09:52:10.000Z</time>
        <extensions>
          <ns3:TrackPointExtension>
            <ns3:atemp>18.0</ns3:atemp>
          </ns3:TrackPointExtension>
        </extensions>
      </trkpt>
      <trkpt lat="42.60674930177628993988037109375" lon="19.88240699283778667449951171875">
        <ele>2047.5999755859375</ele>
        <time>2026-06-16T09:52:11.000Z</time>
        <extensions>
          <ns3:TrackPointExtension>
            <ns3:atemp>19.0</ns3:atemp>
          </ns3:TrackPointExtension>
        </extensions>
      </trkpt>
      <trkpt lat="42.606737315654754638671875" lon="19.882424511015415191650390625">
        <ele>2047.800048828125</ele>
        <time>2026-06-16T09:52:12.000Z</time>
        <extensions>
          <ns3:TrackPointExtension>
            <ns3:atemp>18.0</ns3:atemp>
          </ns3:TrackPointExtension>
        </extensions>
      </trkpt>
      <trkpt lat="42.606719546020030975341796875" lon="19.88242979161441326141357421875">
        <ele>2048</ele>
        <time>2026-06-16T09:52:13.000Z</time>
        <extensions>
          <ns3:TrackPointExtension>
            <ns3:atemp>18.0</ns3:atemp>
          </ns3:TrackPointExtension>
        </extensions>
      </trkpt>
      <trkpt lat="42.606703452765941619873046875" lon="19.8824226669967174530029296875">
        <ele>2048.39990234375</ele>
        <time>2026-06-16T09:52:14.000Z</time>
        <extensions>
          <ns3:TrackPointExtension>
            <ns3:atemp>19.0</ns3:atemp>
          </ns3:TrackPointExtension>
        </extensions>
      </trkpt>
      <trkpt lat="42.6066881977021694183349609375" lon="19.8824149556457996368408203125">
        <ele>2048.60009765625</ele>
        <time>2026-06-16T09:52:15.000Z</time>
        <extensions>
          <ns3:TrackPointExtension>
            <ns3:atemp>18.0</ns3:atemp>
          </ns3:TrackPointExtension>
        </extensions>
      </trkpt>
      <trkpt lat="42.60667185299098491668701171875" lon="19.88240816630423069000244140625">
        <ele>2048.800048828125</ele>
        <time>2026-06-16T09:52:16.000Z</time>
        <extensions>
          <ns3:TrackPointExtension>
            <ns3:atemp>19.0</ns3:atemp>
          </ns3:TrackPointExtension>
        </extensions>
      </trkpt>
      <trkpt lat="42.60664469562470912933349609375" lon="19.8824035562574863433837890625">
        <ele>2049</ele>
        <time>2026-06-16T09:52:17.000Z</time>
        <extensions>
          <ns3:TrackPointExtension>
            <ns3:atemp>19.0</ns3:atemp>
          </ns3:TrackPointExtension>
        </extensions>
      </trkpt>
      <trkpt lat="42.60661167092621326446533203125" lon="19.8823975212872028350830078125">
        <ele>2049.199951171875</ele>
        <time>2026-06-16T09:52:18.000Z</time>
        <extensions>
          <ns3:TrackPointExtension>
            <ns3:atemp>19.0</ns3:atemp>
          </ns3:TrackPointExtension>
        </extensions>
      </trkpt>
      <trkpt lat="42.606588117778301239013671875" lon="19.88239559344947338104248046875">
        <ele>2049.39990234375</ele>
        <time>2026-06-16T09:52:19.000Z</time>
        <extensions>
          <ns3:TrackPointExtension>
            <ns3:atemp>19.0</ns3:atemp>
          </ns3:TrackPointExtension>
        </extensions>
      </trkpt>
      <trkpt lat="42.60657043196260929107666015625" lon="19.88239592872560024261474609375">
        <ele>2049.60009765625</ele>
        <time>2026-06-16T09:52:20.000Z</time>
        <extensions>
          <ns3:TrackPointExtension>
            <ns3:atemp>19.0</ns3:atemp>
          </ns3:TrackPointExtension>
        </extensions>
      </trkpt>
      <trkpt lat="42.60655182413756847381591796875" lon="19.88240364007651805877685546875">
        <ele>2049.800048828125</ele>
        <time>2026-06-16T09:52:21.000Z</time>
        <extensions>
          <ns3:TrackPointExtension>
            <ns3:atemp>19.0</ns3:atemp>
          </ns3:TrackPointExtension>
        </extensions>
      </trkpt>
      <trkpt lat="42.60653413832187652587890625" lon="19.882413446903228759765625">
        <ele>2050</ele>
        <time>2026-06-16T09:52:22.000Z</time>
        <extensions>
          <ns3:TrackPointExtension>
            <ns3:atemp>19.0</ns3:atemp>
          </ns3:TrackPointExtension>
        </extensions>
      </trkpt>
      <trkpt lat="42.60651041753590106964111328125" lon="19.8824203200638294219970703125">
        <ele>2050.199951171875</ele>
        <time>2026-06-16T09:52:23.000Z</time>
        <extensions>
          <ns3:TrackPointExtension>
            <ns3:atemp>19.0</ns3:atemp>
          </ns3:TrackPointExtension>
        </extensions>
      </trkpt>
      <trkpt lat="42.606486864387989044189453125" lon="19.882425852119922637939453125">
        <ele>2050.39990234375</ele>
        <time>2026-06-16T09:52:24.000Z</time>
        <extensions>
          <ns3:TrackPointExtension>
            <ns3:atemp>19.0</ns3:atemp>
          </ns3:TrackPointExtension>
        </extensions>
      </trkpt>
      <trkpt lat="42.606472112238407135009765625" lon="19.88243155181407928466796875">
        <ele>2050.60009765625</ele>
        <time>2026-06-16T09:52:25.000Z</time>
        <extensions>
          <ns3:TrackPointExtension>
            <ns3:atemp>19.0</ns3:atemp>
          </ns3:TrackPointExtension>
        </extensions>
      </trkpt>
      <trkpt lat="42.60645945556461811065673828125" lon="19.882443286478519439697265625">
        <ele>2050.800048828125</ele>
        <time>2026-06-16T09:52:26.000Z</time>
        <extensions>
          <ns3:TrackPointExtension>
            <ns3:atemp>19.0</ns3:atemp>
          </ns3:TrackPointExtension>
        </extensions>
      </trkpt>
      <trkpt lat="42.60644294321537017822265625" lon="19.88245259039103984832763671875">
        <ele>2050.800048828125</ele>
        <time>2026-06-16T09:52:27.000Z</time>
        <extensions>
          <ns3:TrackPointExtension>
            <ns3:atemp>19.0</ns3:atemp>
          </ns3:TrackPointExtension>
        </extensions>
      </trkpt>
      <trkpt lat="42.6064248383045196533203125" lon="19.88245761953294277191162109375">
        <ele>2051</ele>
        <time>2026-06-16T09:52:28.000Z</time>
        <extensions>
          <ns3:TrackPointExtension>
            <ns3:atemp>19.0</ns3:atemp>
          </ns3:TrackPointExtension>
        </extensions>
      </trkpt>
      <trkpt lat="42.60640799067914485931396484375" lon="19.8824608884751796722412109375">
        <ele>2051.199951171875</ele>
        <time>2026-06-16T09:52:29.000Z</time>
        <extensions>
          <ns3:TrackPointExtension>
            <ns3:atemp>19.0</ns3:atemp>
          </ns3:TrackPointExtension>
        </extensions>
      </trkpt>
      <trkpt lat="42.60638904757797718048095703125" lon="19.88246365450322628021240234375">
        <ele>2051.39990234375</ele>
        <time>2026-06-16T09:52:30.000Z</time>
        <extensions>
          <ns3:TrackPointExtension>
            <ns3:atemp>19.0</ns3:atemp>
          </ns3:TrackPointExtension>
        </extensions>
      </trkpt>
      <trkpt lat="42.6063683442771434783935546875" lon="19.8824655823409557342529296875">
        <ele>2051.60009765625</ele>
        <time>2026-06-16T09:52:31.000Z</time>
        <extensions>
          <ns3:TrackPointExtension>
            <ns3:atemp>19.0</ns3:atemp>
          </ns3:TrackPointExtension>
        </extensions>
      </trkpt>
      <trkpt lat="42.60634764097630977630615234375" lon="19.88246382214128971099853515625">
        <ele>2051.800048828125</ele>
        <time>2026-06-16T09:52:32.000Z</time>
        <extensions>
          <ns3:TrackPointExtension>
            <ns3:atemp>19.0</ns3:atemp>
          </ns3:TrackPointExtension>
        </extensions>
      </trkpt>
      <trkpt lat="42.606330625712871551513671875" lon="19.88245812244713306427001953125">
        <ele>2052.199951171875</ele>
        <time>2026-06-16T09:52:33.000Z</time>
        <extensions>
          <ns3:TrackPointExtension>
            <ns3:atemp>19.0</ns3:atemp>
          </ns3:TrackPointExtension>
        </extensions>
      </trkpt>
      <trkpt lat="42.6063147000968456268310546875" lon="19.8824541829526424407958984375">
        <ele>2052.60009765625</ele>
        <time>2026-06-16T09:52:34.000Z</time>
        <extensions>
          <ns3:TrackPointExtension>
            <ns3:atemp>19.0</ns3:atemp>
          </ns3:TrackPointExtension>
        </extensions>
      </trkpt>
      <trkpt lat="42.60629567317664623260498046875" lon="19.8824521712958812713623046875">
        <ele>2053.199951171875</ele>
        <time>2026-06-16T09:52:35.000Z</time>
        <extensions>
          <ns3:TrackPointExtension>
            <ns3:atemp>19.0</ns3:atemp>
          </ns3:TrackPointExtension>
        </extensions>
      </trkpt>
      <trkpt lat="42.6062788255512714385986328125" lon="19.88245166838169097900390625">
        <ele>2053.800048828125</ele>
        <time>2026-06-16T09:52:36.000Z</time>
        <extensions>
          <ns3:TrackPointExtension>
            <ns3:atemp>19.0</ns3:atemp>
          </ns3:TrackPointExtension>
        </extensions>
      </trkpt>
      <trkpt lat="42.60626030154526233673095703125" lon="19.88245393149554729461669921875">
        <ele>2054.39990234375</ele>
        <time>2026-06-16T09:52:37.000Z</time>
        <extensions>
          <ns3:TrackPointExtension>
            <ns3:atemp>19.0</ns3:atemp>
          </ns3:TrackPointExtension>
        </extensions>
      </trkpt>
      <trkpt lat="42.6062426157295703887939453125" lon="19.88244923762977123260498046875">
        <ele>2055.199951171875</ele>
        <time>2026-06-16T09:52:38.000Z</time>
        <extensions>
          <ns3:TrackPointExtension>
            <ns3:atemp>19.0</ns3:atemp>
          </ns3:TrackPointExtension>
        </extensions>
      </trkpt>
      <trkpt lat="42.60622811503708362579345703125" lon="19.882439263164997100830078125">
        <ele>2056</ele>
        <time>2026-06-16T09:52:39.000Z</time>
        <extensions>
          <ns3:TrackPointExtension>
            <ns3:atemp>19.0</ns3:atemp>
          </ns3:TrackPointExtension>
        </extensions>
      </trkpt>
      <trkpt lat="42.6062084175646305084228515625" lon="19.8824370838701725006103515625">
        <ele>2056.60009765625</ele>
        <time>2026-06-16T09:52:40.000Z</time>
        <extensions>
          <ns3:TrackPointExtension>
            <ns3:atemp>19.0</ns3:atemp>
          </ns3:TrackPointExtension>
        </extensions>
      </trkpt>
      <trkpt lat="42.60618553496897220611572265625" lon="19.88244789652526378631591796875">
        <ele>2057.39990234375</ele>
        <time>2026-06-16T09:52:41.000Z</time>
        <extensions>
          <ns3:TrackPointExtension>
            <ns3:atemp>19.0</ns3:atemp>
          </ns3:TrackPointExtension>
        </extensions>
      </trkpt>
      <trkpt lat="42.60617069900035858154296875" lon="19.88246214576065540313720703125">
        <ele>2058</ele>
        <time>2026-06-16T09:52:42.000Z</time>
        <extensions>
          <ns3:TrackPointExtension>
            <ns3:atemp>19.0</ns3:atemp>
          </ns3:TrackPointExtension>
        </extensions>
      </trkpt>
      <trkpt lat="42.6061611436307430267333984375" lon="19.88247404806315898895263671875">
        <ele>2058.60009765625</ele>
        <time>2026-06-16T09:52:43.000Z</time>
        <extensions>
          <ns3:TrackPointExtension>
            <ns3:atemp>19.0</ns3:atemp>
          </ns3:TrackPointExtension>
        </extensions>
      </trkpt>
      <trkpt lat="42.60615460574626922607421875" lon="19.8824897222220897674560546875">
        <ele>2059</ele>
        <time>2026-06-16T09:52:44.000Z</time>
        <extensions>
          <ns3:TrackPointExtension>
            <ns3:atemp>19.0</ns3:atemp>
          </ns3:TrackPointExtension>
        </extensions>
      </trkpt>
      <trkpt lat="42.60614815168082714080810546875" lon="19.88250489346683025360107421875">
        <ele>2059.39990234375</ele>
        <time>2026-06-16T09:52:45.000Z</time>
        <extensions>
          <ns3:TrackPointExtension>
            <ns3:atemp>19.0</ns3:atemp>
          </ns3:TrackPointExtension>
        </extensions>
      </trkpt>
      <trkpt lat="42.60614228434860706329345703125" lon="19.8825172148644924163818359375">
        <ele>2059.800048828125</ele>
        <time>2026-06-16T09:52:46.000Z</time>
        <extensions>
          <ns3:TrackPointExtension>
            <ns3:atemp>19.0</ns3:atemp>
          </ns3:TrackPointExtension>
        </extensions>
      </trkpt>
      <trkpt lat="42.60613675229251384735107421875" lon="19.88252702169120311737060546875">
        <ele>2060</ele>
        <time>2026-06-16T09:52:47.000Z</time>
        <extensions>
          <ns3:TrackPointExtension>
            <ns3:atemp>19.0</ns3:atemp>
          </ns3:TrackPointExtension>
        </extensions>
      </trkpt>
      <trkpt lat="42.60612468235194683074951171875" lon="19.88252953626215457916259765625">
        <ele>2060.199951171875</ele>
        <time>2026-06-16T09:52:48.000Z</time>
        <extensions>
          <ns3:TrackPointExtension>
            <ns3:atemp>19.0</ns3:atemp>
          </ns3:TrackPointExtension>
        </extensions>
      </trkpt>
      <trkpt lat="42.60610909201204776763916015625" lon="19.88253506831824779510498046875">
        <ele>2060.60009765625</ele>
        <time>2026-06-16T09:52:49.000Z</time>
        <extensions>
          <ns3:TrackPointExtension>
            <ns3:atemp>19.0</ns3:atemp>
          </ns3:TrackPointExtension>
        </extensions>
      </trkpt>
      <trkpt lat="42.60610506869852542877197265625" lon="19.88253154791891574859619140625">
        <ele>2060.60009765625</ele>
        <time>2026-06-16T09:52:50.000Z</time>
        <extensions>
          <ns3:TrackPointExtension>
            <ns3:atemp>19.0</ns3:atemp>
          </ns3:TrackPointExtension>
        </extensions>
      </trkpt>
      <trkpt lat="42.60610364377498626708984375" lon="19.8825343139469623565673828125">
        <ele>2060.800048828125</ele>
        <time>2026-06-16T09:52:51.000Z</time>
        <extensions>
          <ns3:TrackPointExtension>
            <ns3:atemp>19.0</ns3:atemp>
          </ns3:TrackPointExtension>
        </extensions>
      </trkpt>
      <trkpt lat="42.60610355995595455169677734375" lon="19.8825343139469623565673828125">
        <ele>2061</ele>
        <time>2026-06-16T09:52:52.000Z</time>
        <extensions>
          <ns3:TrackPointExtension>
            <ns3:atemp>19.0</ns3:atemp>
          </ns3:TrackPointExtension>
        </extensions>
      </trkpt>
      <trkpt lat="42.6061034761369228363037109375" lon="19.88253439776599407196044921875">
        <ele>2061.199951171875</ele>
        <time>2026-06-16T09:52:53.000Z</time>
        <extensions>
          <ns3:TrackPointExtension>
            <ns3:atemp>19.0</ns3:atemp>
          </ns3:TrackPointExtension>
        </extensions>
      </trkpt>
      <trkpt lat="42.6060997880995273590087890625" lon="19.8825400136411190032958984375">
        <ele>2061.39990234375</ele>
        <time>2026-06-16T09:52:54.000Z</time>
        <extensions>
          <ns3:TrackPointExtension>
            <ns3:atemp>19.0</ns3:atemp>
          </ns3:TrackPointExtension>
        </extensions>
      </trkpt>
      <trkpt lat="42.60609383694827556610107421875" lon="19.8825473897159099578857421875">
        <ele>2061.39990234375</ele>
        <time>2026-06-16T09:52:55.000Z</time>
        <extensions>
          <ns3:TrackPointExtension>
            <ns3:atemp>19.0</ns3:atemp>
          </ns3:TrackPointExtension>
        </extensions>
      </trkpt>
      <trkpt lat="42.60609400458633899688720703125" lon="19.88255493342876434326171875">
        <ele>2061.60009765625</ele>
        <time>2026-06-16T09:52:56.000Z</time>
        <extensions>
          <ns3:TrackPointExtension>
            <ns3:atemp>19.0</ns3:atemp>
          </ns3:TrackPointExtension>
        </extensions>
      </trkpt>
      <trkpt lat="42.60609299875795841217041015625" lon="19.882560633122920989990234375">
        <ele>2061.39990234375</ele>
        <time>2026-06-16T09:52:57.000Z</time>
        <extensions>
          <ns3:TrackPointExtension>
            <ns3:atemp>19.0</ns3:atemp>
          </ns3:TrackPointExtension>
        </extensions>
      </trkpt>
      <trkpt lat="42.6060867123305797576904296875" lon="19.88256658427417278289794921875">
        <ele>2061.39990234375</ele>
        <time>2026-06-16T09:52:58.000Z</time>
        <extensions>
          <ns3:TrackPointExtension>
            <ns3:atemp>19.0</ns3:atemp>
          </ns3:TrackPointExtension>
        </extensions>
      </trkpt>
      <trkpt lat="42.6060813479125499725341796875" lon="19.88257194869220256805419921875">
        <ele>2061.39990234375</ele>
        <time>2026-06-16T09:52:59.000Z</time>
        <extensions>
          <ns3:TrackPointExtension>
            <ns3:atemp>19.0</ns3:atemp>
          </ns3:TrackPointExtension>
        </extensions>
      </trkpt>
      <trkpt lat="42.60607204400002956390380859375" lon="19.88257907330989837646484375">
        <ele>2061.39990234375</ele>
        <time>2026-06-16T09:53:00.000Z</time>
        <extensions>
          <ns3:TrackPointExtension>
            <ns3:atemp>19.0</ns3:atemp>
          </ns3:TrackPointExtension>
        </extensions>
      </trkpt>
      <trkpt lat="42.60605670511722564697265625" lon="19.8825899697840213775634765625">
        <ele>2061.199951171875</ele>
        <time>2026-06-16T09:53:01.000Z</time>
        <extensions>
          <ns3:TrackPointExtension>
            <ns3:atemp>19.0</ns3:atemp>
          </ns3:TrackPointExtension>
        </extensions>
      </trkpt>
      <trkpt lat="42.606044970452785491943359375" lon="19.88260128535330295562744140625">
        <ele>2061.199951171875</ele>
        <time>2026-06-16T09:53:02.000Z</time>
        <extensions>
          <ns3:TrackPointExtension>
            <ns3:atemp>19.0</ns3:atemp>
          </ns3:TrackPointExtension>
        </extensions>
      </trkpt>
      <trkpt lat="42.60602778755128383636474609375" lon="19.8826186358928680419921875">
        <ele>2061.199951171875</ele>
        <time>2026-06-16T09:53:03.000Z</time>
        <extensions>
          <ns3:TrackPointExtension>
            <ns3:atemp>19.0</ns3:atemp>
          </ns3:TrackPointExtension>
        </extensions>
      </trkpt>
      <trkpt lat="42.6060166396200656890869140625" lon="19.88264688290655612945556640625">
        <ele>2061</ele>
        <time>2026-06-16T09:53:04.000Z</time>
        <extensions>
          <ns3:TrackPointExtension>
            <ns3:atemp>19.0</ns3:atemp>
          </ns3:TrackPointExtension>
        </extensions>
      </trkpt>
      <trkpt lat="42.606011442840099334716796875" lon="19.882676638662815093994140625">
        <ele>2061</ele>
        <time>2026-06-16T09:53:05.000Z</time>
        <extensions>
          <ns3:TrackPointExtension>
            <ns3:atemp>19.0</ns3:atemp>
          </ns3:TrackPointExtension>
        </extensions>
      </trkpt>
      <trkpt lat="42.60601672343909740447998046875" lon="19.88270781934261322021484375">
        <ele>2061</ele>
        <time>2026-06-16T09:53:06.000Z</time>
        <extensions>
          <ns3:TrackPointExtension>
            <ns3:atemp>19.0</ns3:atemp>
          </ns3:TrackPointExtension>
        </extensions>
      </trkpt>
      <trkpt lat="42.60601353831589221954345703125" lon="19.8827187158167362213134765625">
        <ele>2061.199951171875</ele>
        <time>2026-06-16T09:53:07.000Z</time>
        <extensions>
          <ns3:TrackPointExtension>
            <ns3:atemp>19.0</ns3:atemp>
          </ns3:TrackPointExtension>
        </extensions>
      </trkpt>
      <trkpt lat="42.6060116104781627655029296875" lon="19.88273003138601779937744140625">
        <ele>2061.39990234375</ele>
        <time>2026-06-16T09:53:08.000Z</time>
        <extensions>
          <ns3:TrackPointExtension>
            <ns3:atemp>19.0</ns3:atemp>
          </ns3:TrackPointExtension>
        </extensions>
      </trkpt>
      <trkpt lat="42.60600306093692779541015625" lon="19.88274134695529937744140625">
        <ele>2061.60009765625</ele>
        <time>2026-06-16T09:53:09.000Z</time>
        <extensions>
          <ns3:TrackPointExtension>
            <ns3:atemp>19.0</ns3:atemp>
          </ns3:TrackPointExtension>
        </extensions>
      </trkpt>
      <trkpt lat="42.60599459521472454071044921875" lon="19.88274671137332916259765625">
        <ele>2061.800048828125</ele>
        <time>2026-06-16T09:53:10.000Z</time>
        <extensions>
          <ns3:TrackPointExtension>
            <ns3:atemp>19.0</ns3:atemp>
          </ns3:TrackPointExtension>
        </extensions>
      </trkpt>
      <trkpt lat="42.605980932712554931640625" lon="19.88274897448718547821044921875">
        <ele>2061.800048828125</ele>
        <time>2026-06-16T09:53:11.000Z</time>
        <extensions>
          <ns3:TrackPointExtension>
            <ns3:atemp>19.0</ns3:atemp>
          </ns3:TrackPointExtension>
        </extensions>
      </trkpt>
      <trkpt lat="42.60596576146781444549560546875" lon="19.882754422724246978759765625">
        <ele>2062</ele>
        <time>2026-06-16T09:53:12.000Z</time>
        <extensions>
          <ns3:TrackPointExtension>
            <ns3:atemp>19.0</ns3:atemp>
          </ns3:TrackPointExtension>
        </extensions>
      </trkpt>
      <trkpt lat="42.6059519313275814056396484375" lon="19.8827566020190715789794921875">
        <ele>2062.199951171875</ele>
        <time>2026-06-16T09:53:13.000Z</time>
        <extensions>
          <ns3:TrackPointExtension>
            <ns3:atemp>19.0</ns3:atemp>
          </ns3:TrackPointExtension>
        </extensions>
      </trkpt>
      <trkpt lat="42.60593726299703121185302734375" lon="19.88276137970387935638427734375">
        <ele>2062.199951171875</ele>
        <time>2026-06-16T09:53:14.000Z</time>
        <extensions>
          <ns3:TrackPointExtension>
            <ns3:atemp>19.0</ns3:atemp>
          </ns3:TrackPointExtension>
        </extensions>
      </trkpt>
      <trkpt lat="42.605924941599369049072265625" lon="19.8827690072357654571533203125">
        <ele>2062.39990234375</ele>
        <time>2026-06-16T09:53:15.000Z</time>
        <extensions>
          <ns3:TrackPointExtension>
            <ns3:atemp>19.0</ns3:atemp>
          </ns3:TrackPointExtension>
        </extensions>
      </trkpt>
      <trkpt lat="42.60592301376163959503173828125" lon="19.88277629949152469635009765625">
        <ele>2062.60009765625</ele>
        <time>2026-06-16T09:53:16.000Z</time>
        <extensions>
          <ns3:TrackPointExtension>
            <ns3:atemp>19.0</ns3:atemp>
          </ns3:TrackPointExtension>
        </extensions>
      </trkpt>
      <trkpt lat="42.60592251084744930267333984375" lon="19.88279440440237522125244140625">
        <ele>2062.800048828125</ele>
        <time>2026-06-16T09:53:17.000Z</time>
        <extensions>
          <ns3:TrackPointExtension>
            <ns3:atemp>19.0</ns3:atemp>
          </ns3:TrackPointExtension>
        </extensions>
      </trkpt>
      <trkpt lat="42.60591496713459491729736328125" lon="19.88280982710421085357666015625">
        <ele>2063</ele>
        <time>2026-06-16T09:53:18.000Z</time>
        <extensions>
          <ns3:TrackPointExtension>
            <ns3:atemp>19.0</ns3:atemp>
          </ns3:TrackPointExtension>
        </extensions>
      </trkpt>
      <trkpt lat="42.60590918362140655517578125" lon="19.88282659091055393218994140625">
        <ele>2063</ele>
        <time>2026-06-16T09:53:19.000Z</time>
        <extensions>
          <ns3:TrackPointExtension>
            <ns3:atemp>19.0</ns3:atemp>
          </ns3:TrackPointExtension>
        </extensions>
      </trkpt>
      <trkpt lat="42.60590524412691593170166015625" lon="19.8828385770320892333984375">
        <ele>2063</ele>
        <time>2026-06-16T09:53:20.000Z</time>
        <extensions>
          <ns3:TrackPointExtension>
            <ns3:atemp>19.0</ns3:atemp>
          </ns3:TrackPointExtension>
        </extensions>
      </trkpt>
      <trkpt lat="42.6059009693562984466552734375" lon="19.8828558437526226043701171875">
        <ele>2063</ele>
        <time>2026-06-16T09:53:21.000Z</time>
        <extensions>
          <ns3:TrackPointExtension>
            <ns3:atemp>19.0</ns3:atemp>
          </ns3:TrackPointExtension>
        </extensions>
      </trkpt>
      <trkpt lat="42.605896778404712677001953125" lon="19.88286615349352359771728515625">
        <ele>2063</ele>
        <time>2026-06-16T09:53:22.000Z</time>
        <extensions>
          <ns3:TrackPointExtension>
            <ns3:atemp>19.0</ns3:atemp>
          </ns3:TrackPointExtension>
        </extensions>
      </trkpt>
      <trkpt lat="42.6058915816247463226318359375" lon="19.88288392312824726104736328125">
        <ele>2063</ele>
        <time>2026-06-16T09:53:23.000Z</time>
        <extensions>
          <ns3:TrackPointExtension>
            <ns3:atemp>19.0</ns3:atemp>
          </ns3:TrackPointExtension>
        </extensions>
      </trkpt>
      <trkpt lat="42.60588814504444599151611328125" lon="19.8828950710594654083251953125">
        <ele>2063</ele>
        <time>2026-06-16T09:53:24.000Z</time>
        <extensions>
          <ns3:TrackPointExtension>
            <ns3:atemp>19.0</ns3:atemp>
          </ns3:TrackPointExtension>
        </extensions>
      </trkpt>
      <trkpt lat="42.60588370263576507568359375" lon="19.8829101584851741790771484375">
        <ele>2063.199951171875</ele>
        <time>2026-06-16T09:53:25.000Z</time>
        <extensions>
          <ns3:TrackPointExtension>
            <ns3:atemp>19.0</ns3:atemp>
          </ns3:TrackPointExtension>
        </extensions>
      </trkpt>
      <trkpt lat="42.605880014598369598388671875" lon="19.88291644491255283355712890625">
        <ele>2063.199951171875</ele>
        <time>2026-06-16T09:53:26.000Z</time>
        <extensions>
          <ns3:TrackPointExtension>
            <ns3:atemp>19.0</ns3:atemp>
          </ns3:TrackPointExtension>
        </extensions>
      </trkpt>
      <trkpt lat="42.60587255470454692840576171875" lon="19.8829232342541217803955078125">
        <ele>2063.199951171875</ele>
        <time>2026-06-16T09:53:27.000Z</time>
        <extensions>
          <ns3:TrackPointExtension>
            <ns3:atemp>19.0</ns3:atemp>
          </ns3:TrackPointExtension>
        </extensions>
      </trkpt>
      <trkpt lat="42.6058627478778362274169921875" lon="19.88293387927114963531494140625">
        <ele>2063.39990234375</ele>
        <time>2026-06-16T09:53:28.000Z</time>
        <extensions>
          <ns3:TrackPointExtension>
            <ns3:atemp>19.0</ns3:atemp>
          </ns3:TrackPointExtension>
        </extensions>
      </trkpt>
      <trkpt lat="42.60585847310721874237060546875" lon="19.8829473741352558135986328125">
        <ele>2063.39990234375</ele>
        <time>2026-06-16T09:53:29.000Z</time>
        <extensions>
          <ns3:TrackPointExtension>
            <ns3:atemp>19.0</ns3:atemp>
          </ns3:TrackPointExtension>
        </extensions>
      </trkpt>
      <trkpt lat="42.60585327632725238800048828125" lon="19.8829668201506137847900390625">
        <ele>2063.60009765625</ele>
        <time>2026-06-16T09:53:30.000Z</time>
        <extensions>
          <ns3:TrackPointExtension>
            <ns3:atemp>19.0</ns3:atemp>
          </ns3:TrackPointExtension>
        </extensions>
      </trkpt>
      <trkpt lat="42.60584824718534946441650390625" lon="19.8829822428524494171142578125">
        <ele>2063.60009765625</ele>
        <time>2026-06-16T09:53:31.000Z</time>
        <extensions>
          <ns3:TrackPointExtension>
            <ns3:atemp>19.0</ns3:atemp>
          </ns3:TrackPointExtension>
        </extensions>
      </trkpt>
      <trkpt lat="42.60584338568150997161865234375" lon="19.88299590535461902618408203125">
        <ele>2063.60009765625</ele>
        <time>2026-06-16T09:53:32.000Z</time>
        <extensions>
          <ns3:TrackPointExtension>
            <ns3:atemp>19.0</ns3:atemp>
          </ns3:TrackPointExtension>
        </extensions>
      </trkpt>
      <trkpt lat="42.60583969764411449432373046875" lon="19.88300696946680545806884765625">
        <ele>2063.60009765625</ele>
        <time>2026-06-16T09:53:33.000Z</time>
        <extensions>
          <ns3:TrackPointExtension>
            <ns3:atemp>19.0</ns3:atemp>
          </ns3:TrackPointExtension>
        </extensions>
      </trkpt>
      <trkpt lat="42.605830393731594085693359375" lon="19.88301753066480159759521484375">
        <ele>2063.800048828125</ele>
        <time>2026-06-16T09:53:34.000Z</time>
        <extensions>
          <ns3:TrackPointExtension>
            <ns3:atemp>19.0</ns3:atemp>
          </ns3:TrackPointExtension>
        </extensions>
      </trkpt>
      <trkpt lat="42.60582528077065944671630859375" lon="19.8830251581966876983642578125">
        <ele>2063.800048828125</ele>
        <time>2026-06-16T09:53:35.000Z</time>
        <extensions>
          <ns3:TrackPointExtension>
            <ns3:atemp>19.0</ns3:atemp>
          </ns3:TrackPointExtension>
        </extensions>
      </trkpt>
      <trkpt lat="42.60581723414361476898193359375" lon="19.88303194753825664520263671875">
        <ele>2064</ele>
        <time>2026-06-16T09:53:36.000Z</time>
        <extensions>
          <ns3:TrackPointExtension>
            <ns3:atemp>19.0</ns3:atemp>
          </ns3:TrackPointExtension>
        </extensions>
      </trkpt>
      <trkpt lat="42.60581396520137786865234375" lon="19.8830342106521129608154296875">
        <ele>2064.199951171875</ele>
        <time>2026-06-16T09:53:37.000Z</time>
        <extensions>
          <ns3:TrackPointExtension>
            <ns3:atemp>19.0</ns3:atemp>
          </ns3:TrackPointExtension>
        </extensions>
      </trkpt>
      <trkpt lat="42.6058097742497920989990234375" lon="19.88304485566914081573486328125">
        <ele>2064.199951171875</ele>
        <time>2026-06-16T09:53:38.000Z</time>
        <extensions>
          <ns3:TrackPointExtension>
            <ns3:atemp>19.0</ns3:atemp>
          </ns3:TrackPointExtension>
        </extensions>
      </trkpt>
      <trkpt lat="42.60580332018435001373291015625" lon="19.8830549977719783782958984375">
        <ele>2064.39990234375</ele>
        <time>2026-06-16T09:53:39.000Z</time>
        <extensions>
          <ns3:TrackPointExtension>
            <ns3:atemp>19.0</ns3:atemp>
          </ns3:TrackPointExtension>
        </extensions>
      </trkpt>
      <trkpt lat="42.60579342953860759735107421875" lon="19.8830667324364185333251953125">
        <ele>2064.60009765625</ele>
        <time>2026-06-16T09:53:40.000Z</time>
        <extensions>
          <ns3:TrackPointExtension>
            <ns3:atemp>19.0</ns3:atemp>
          </ns3:TrackPointExtension>
        </extensions>
      </trkpt>
      <trkpt lat="42.605786137282848358154296875" lon="19.8830737732350826263427734375">
        <ele>2064.60009765625</ele>
        <time>2026-06-16T09:53:41.000Z</time>
        <extensions>
          <ns3:TrackPointExtension>
            <ns3:atemp>19.0</ns3:atemp>
          </ns3:TrackPointExtension>
        </extensions>
      </trkpt>
      <trkpt lat="42.60578068904578685760498046875" lon="19.883085004985332489013671875">
        <ele>2064.800048828125</ele>
        <time>2026-06-16T09:53:42.000Z</time>
        <extensions>
          <ns3:TrackPointExtension>
            <ns3:atemp>19.0</ns3:atemp>
          </ns3:TrackPointExtension>
        </extensions>
      </trkpt>
      <trkpt lat="42.60577448643743991851806640625" lon="19.8831012658774852752685546875">
        <ele>2065</ele>
        <time>2026-06-16T09:53:43.000Z</time>
        <extensions>
          <ns3:TrackPointExtension>
            <ns3:atemp>19.0</ns3:atemp>
          </ns3:TrackPointExtension>
        </extensions>
      </trkpt>
      <trkpt lat="42.60576811619102954864501953125" lon="19.8831166885793209075927734375">
        <ele>2065</ele>
        <time>2026-06-16T09:53:44.000Z</time>
        <extensions>
          <ns3:TrackPointExtension>
            <ns3:atemp>19.0</ns3:atemp>
          </ns3:TrackPointExtension>
        </extensions>
      </trkpt>
      <trkpt lat="42.6057578064501285552978515625" lon="19.883136637508869171142578125">
        <ele>2065</ele>
        <time>2026-06-16T09:53:45.000Z</time>
        <extensions>
          <ns3:TrackPointExtension>
            <ns3:atemp>19.0</ns3:atemp>
          </ns3:TrackPointExtension>
        </extensions>
      </trkpt>
      <trkpt lat="42.605750262737274169921875" lon="19.88315331749618053436279296875">
        <ele>2065.199951171875</ele>
        <time>2026-06-16T09:53:46.000Z</time>
        <extensions>
          <ns3:TrackPointExtension>
            <ns3:atemp>19.0</ns3:atemp>
          </ns3:TrackPointExtension>
        </extensions>
      </trkpt>
      <trkpt lat="42.605741880834102630615234375" lon="19.8831616155803203582763671875">
        <ele>2065.39990234375</ele>
        <time>2026-06-16T09:53:47.000Z</time>
        <extensions>
          <ns3:TrackPointExtension>
            <ns3:atemp>19.0</ns3:atemp>
          </ns3:TrackPointExtension>
        </extensions>
      </trkpt>
      <trkpt lat="42.6057329960167407989501953125" lon="19.88316287286579608917236328125">
        <ele>2065.60009765625</ele>
        <time>2026-06-16T09:53:48.000Z</time>
        <extensions>
          <ns3:TrackPointExtension>
            <ns3:atemp>19.0</ns3:atemp>
          </ns3:TrackPointExtension>
        </extensions>
      </trkpt>
      <trkpt lat="42.6057293079793453216552734375" lon="19.88316823728382587432861328125">
        <ele>2066</ele>
        <time>2026-06-16T09:53:49.000Z</time>
        <extensions>
          <ns3:TrackPointExtension>
            <ns3:atemp>19.0</ns3:atemp>
          </ns3:TrackPointExtension>
        </extensions>
      </trkpt>
      <trkpt lat="42.60572285391390323638916015625" lon="19.883177541196346282958984375">
        <ele>2066.199951171875</ele>
        <time>2026-06-16T09:53:50.000Z</time>
        <extensions>
          <ns3:TrackPointExtension>
            <ns3:atemp>19.0</ns3:atemp>
          </ns3:TrackPointExtension>
        </extensions>
      </trkpt>
      <trkpt lat="42.60571011342108249664306640625" lon="19.8831891082227230072021484375">
        <ele>2066.60009765625</ele>
        <time>2026-06-16T09:53:51.000Z</time>
        <extensions>
          <ns3:TrackPointExtension>
            <ns3:atemp>19.0</ns3:atemp>
          </ns3:TrackPointExtension>
        </extensions>
      </trkpt>
      <trkpt lat="42.60570173151791095733642578125" lon="19.8831939697265625">
        <ele>2067</ele>
        <time>2026-06-16T09:53:52.000Z</time>
        <extensions>
          <ns3:TrackPointExtension>
            <ns3:atemp>19.0</ns3:atemp>
          </ns3:TrackPointExtension>
        </extensions>
      </trkpt>
      <trkpt lat="42.6056847162544727325439453125" lon="19.8832033574581146240234375">
        <ele>2067.199951171875</ele>
        <time>2026-06-16T09:53:53.000Z</time>
        <extensions>
          <ns3:TrackPointExtension>
            <ns3:atemp>19.0</ns3:atemp>
          </ns3:TrackPointExtension>
        </extensions>
      </trkpt>
      <trkpt lat="42.6056736521422863006591796875" lon="19.88321215845644474029541015625">
        <ele>2067.39990234375</ele>
        <time>2026-06-16T09:53:54.000Z</time>
        <extensions>
          <ns3:TrackPointExtension>
            <ns3:atemp>19.0</ns3:atemp>
          </ns3:TrackPointExtension>
        </extensions>
      </trkpt>
      <trkpt lat="42.6056652702391147613525390625" lon="19.8832249827682971954345703125">
        <ele>2067.800048828125</ele>
        <time>2026-06-16T09:53:55.000Z</time>
        <extensions>
          <ns3:TrackPointExtension>
            <ns3:atemp>19.0</ns3:atemp>
          </ns3:TrackPointExtension>
        </extensions>
      </trkpt>
      <trkpt lat="42.6056555472314357757568359375" lon="19.8832476139068603515625">
        <ele>2068.199951171875</ele>
        <time>2026-06-16T09:53:56.000Z</time>
        <extensions>
          <ns3:TrackPointExtension>
            <ns3:atemp>19.0</ns3:atemp>
          </ns3:TrackPointExtension>
        </extensions>
      </trkpt>
      <trkpt lat="42.60564230382442474365234375" lon="19.88326840102672576904296875">
        <ele>2068.60009765625</ele>
        <time>2026-06-16T09:53:57.000Z</time>
        <extensions>
          <ns3:TrackPointExtension>
            <ns3:atemp>19.0</ns3:atemp>
          </ns3:TrackPointExtension>
        </extensions>
      </trkpt>
      <trkpt lat="42.60563015006482601165771484375" lon="19.88327854312956333160400390625">
        <ele>2069</ele>
        <time>2026-06-16T09:53:58.000Z</time>
        <extensions>
          <ns3:TrackPointExtension>
            <ns3:atemp>19.0</ns3:atemp>
          </ns3:TrackPointExtension>
        </extensions>
      </trkpt>
      <trkpt lat="42.60562730021774768829345703125" lon="19.8832762800157070159912109375">
        <ele>2069.39990234375</ele>
        <time>2026-06-16T09:53:59.000Z</time>
        <extensions>
          <ns3:TrackPointExtension>
            <ns3:atemp>19.0</ns3:atemp>
          </ns3:TrackPointExtension>
        </extensions>
      </trkpt>
      <trkpt lat="42.60562478564679622650146484375" lon="19.88327116705477237701416015625">
        <ele>2069.800048828125</ele>
        <time>2026-06-16T09:54:00.000Z</time>
        <extensions>
          <ns3:TrackPointExtension>
            <ns3:atemp>19.0</ns3:atemp>
          </ns3:TrackPointExtension>
        </extensions>
      </trkpt>
      <trkpt lat="42.60562486946582794189453125" lon="19.88327116705477237701416015625">
        <ele>2070.199951171875</ele>
        <time>2026-06-16T09:54:01.000Z</time>
        <extensions>
          <ns3:TrackPointExtension>
            <ns3:atemp>19.0</ns3:atemp>
          </ns3:TrackPointExtension>
        </extensions>
      </trkpt>
      <trkpt lat="42.60562486946582794189453125" lon="19.88327116705477237701416015625">
        <ele>2070.60009765625</ele>
        <time>2026-06-16T09:54:02.000Z</time>
        <extensions>
          <ns3:TrackPointExtension>
            <ns3:atemp>19.0</ns3:atemp>
          </ns3:TrackPointExtension>
        </extensions>
      </trkpt>
      <trkpt lat="42.6056250371038913726806640625" lon="19.88327133469283580780029296875">
        <ele>2071</ele>
        <time>2026-06-16T09:54:03.000Z</time>
        <extensions>
          <ns3:TrackPointExtension>
            <ns3:atemp>19.0</ns3:atemp>
          </ns3:TrackPointExtension>
        </extensions>
      </trkpt>
      <trkpt lat="42.6056340895593166351318359375" lon="19.88327066414058208465576171875">
        <ele>2071.199951171875</ele>
        <time>2026-06-16T09:54:04.000Z</time>
        <extensions>
          <ns3:TrackPointExtension>
            <ns3:atemp>19.0</ns3:atemp>
          </ns3:TrackPointExtension>
        </extensions>
      </trkpt>
      <trkpt lat="42.605630569159984588623046875" lon="19.883272089064121246337890625">
        <ele>2071.199951171875</ele>
        <time>2026-06-16T09:54:05.000Z</time>
        <extensions>
          <ns3:TrackPointExtension>
            <ns3:atemp>19.0</ns3:atemp>
          </ns3:TrackPointExtension>
        </extensions>
      </trkpt>
      <trkpt lat="42.60562847368419170379638671875" lon="19.88326613791286945343017578125">
        <ele>2071.199951171875</ele>
        <time>2026-06-16T09:54:06.000Z</time>
        <extensions>
          <ns3:TrackPointExtension>
            <ns3:atemp>19.0</ns3:atemp>
          </ns3:TrackPointExtension>
        </extensions>
      </trkpt>
      <trkpt lat="42.60562621057033538818359375" lon="19.88325901329517364501953125">
        <ele>2071</ele>
        <time>2026-06-16T09:54:07.000Z</time>
        <extensions>
          <ns3:TrackPointExtension>
            <ns3:atemp>19.0</ns3:atemp>
          </ns3:TrackPointExtension>
        </extensions>
      </trkpt>
      <trkpt lat="42.6056236959993839263916015625" lon="19.8832548223435878753662109375">
        <ele>2071</ele>
        <time>2026-06-16T09:54:08.000Z</time>
        <extensions>
          <ns3:TrackPointExtension>
            <ns3:atemp>19.0</ns3:atemp>
          </ns3:TrackPointExtension>
        </extensions>
      </trkpt>
      <trkpt lat="42.605621516704559326171875" lon="19.88325071521103382110595703125">
        <ele>2070.800048828125</ele>
        <time>2026-06-16T09:54:09.000Z</time>
        <extensions>
          <ns3:TrackPointExtension>
            <ns3:atemp>19.0</ns3:atemp>
          </ns3:TrackPointExtension>
        </extensions>
      </trkpt>
      <trkpt lat="42.605617828667163848876953125" lon="19.88324233330786228179931640625">
        <ele>2070.800048828125</ele>
        <time>2026-06-16T09:54:10.000Z</time>
        <extensions>
          <ns3:TrackPointExtension>
            <ns3:atemp>19.0</ns3:atemp>
          </ns3:TrackPointExtension>
        </extensions>
      </trkpt>
      <trkpt lat="42.60561372153460979461669921875" lon="19.88323663361370563507080078125">
        <ele>2071</ele>
        <time>2026-06-16T09:54:11.000Z</time>
        <extensions>
          <ns3:TrackPointExtension>
            <ns3:atemp>19.0</ns3:atemp>
          </ns3:TrackPointExtension>
        </extensions>
      </trkpt>
      <trkpt lat="42.60560818947851657867431640625" lon="19.88323328085243701934814453125">
        <ele>2071.199951171875</ele>
        <time>2026-06-16T09:54:12.000Z</time>
        <extensions>
          <ns3:TrackPointExtension>
            <ns3:atemp>19.0</ns3:atemp>
          </ns3:TrackPointExtension>
        </extensions>
      </trkpt>
      <trkpt lat="42.60560818947851657867431640625" lon="19.88323328085243701934814453125">
        <ele>2071.39990234375</ele>
        <time>2026-06-16T09:54:13.000Z</time>
        <extensions>
          <ns3:TrackPointExtension>
            <ns3:atemp>19.0</ns3:atemp>
          </ns3:TrackPointExtension>
        </extensions>
      </trkpt>
      <trkpt lat="42.6056045852601528167724609375" lon="19.8832249827682971954345703125">
        <ele>2071.60009765625</ele>
        <time>2026-06-16T09:54:14.000Z</time>
        <extensions>
          <ns3:TrackPointExtension>
            <ns3:atemp>19.0</ns3:atemp>
          </ns3:TrackPointExtension>
        </extensions>
      </trkpt>
      <trkpt lat="42.6056032441556453704833984375" lon="19.883222468197345733642578125">
        <ele>2071.800048828125</ele>
        <time>2026-06-16T09:54:15.000Z</time>
        <extensions>
          <ns3:TrackPointExtension>
            <ns3:atemp>19.0</ns3:atemp>
          </ns3:TrackPointExtension>
        </extensions>
      </trkpt>
      <trkpt lat="42.6056032441556453704833984375" lon="19.883222468197345733642578125">
        <ele>2071.800048828125</ele>
        <time>2026-06-16T09:54:16.000Z</time>
        <extensions>
          <ns3:TrackPointExtension>
            <ns3:atemp>19.0</ns3:atemp>
          </ns3:TrackPointExtension>
        </extensions>
      </trkpt>
      <trkpt lat="42.605603076517581939697265625" lon="19.8832223005592823028564453125">
        <ele>2072</ele>
        <time>2026-06-16T09:54:17.000Z</time>
        <extensions>
          <ns3:TrackPointExtension>
            <ns3:atemp>19.0</ns3:atemp>
          </ns3:TrackPointExtension>
        </extensions>
      </trkpt>
      <trkpt lat="42.6056032441556453704833984375" lon="19.883222468197345733642578125">
        <ele>2072</ele>
        <time>2026-06-16T09:54:18.000Z</time>
        <extensions>
          <ns3:TrackPointExtension>
            <ns3:atemp>19.0</ns3:atemp>
          </ns3:TrackPointExtension>
        </extensions>
      </trkpt>
      <trkpt lat="42.6056032441556453704833984375" lon="19.883222468197345733642578125">
        <ele>2072.199951171875</ele>
        <time>2026-06-16T09:54:19.000Z</time>
        <extensions>
          <ns3:TrackPointExtension>
            <ns3:atemp>19.0</ns3:atemp>
          </ns3:TrackPointExtension>
        </extensions>
      </trkpt>
      <trkpt lat="42.6056032441556453704833984375" lon="19.883222468197345733642578125">
        <ele>2072.199951171875</ele>
        <time>2026-06-16T09:54:20.000Z</time>
        <extensions>
          <ns3:TrackPointExtension>
            <ns3:atemp>19.0</ns3:atemp>
          </ns3:TrackPointExtension>
        </extensions>
      </trkpt>
      <trkpt lat="42.6056032441556453704833984375" lon="19.883222468197345733642578125">
        <ele>2072.199951171875</ele>
        <time>2026-06-16T09:54:21.000Z</time>
        <extensions>
          <ns3:TrackPointExtension>
            <ns3:atemp>19.0</ns3:atemp>
          </ns3:TrackPointExtension>
        </extensions>
      </trkpt>
      <trkpt lat="42.6056032441556453704833984375" lon="19.883222468197345733642578125">
        <ele>2072.199951171875</ele>
        <time>2026-06-16T09:54:22.000Z</time>
        <extensions>
          <ns3:TrackPointExtension>
            <ns3:atemp>19.0</ns3:atemp>
          </ns3:TrackPointExtension>
        </extensions>
      </trkpt>
      <trkpt lat="42.6056032441556453704833984375" lon="19.883222468197345733642578125">
        <ele>2072.199951171875</ele>
        <time>2026-06-16T09:54:23.000Z</time>
        <extensions>
          <ns3:TrackPointExtension>
            <ns3:atemp>19.0</ns3:atemp>
          </ns3:TrackPointExtension>
        </extensions>
      </trkpt>
      <trkpt lat="42.6056032441556453704833984375" lon="19.883222468197345733642578125">
        <ele>2072.199951171875</ele>
        <time>2026-06-16T09:54:24.000Z</time>
        <extensions>
          <ns3:TrackPointExtension>
            <ns3:atemp>19.0</ns3:atemp>
          </ns3:TrackPointExtension>
        </extensions>
      </trkpt>
      <trkpt lat="42.6056032441556453704833984375" lon="19.883222468197345733642578125">
        <ele>2072.199951171875</ele>
        <time>2026-06-16T09:54:25.000Z</time>
        <extensions>
          <ns3:TrackPointExtension>
            <ns3:atemp>19.0</ns3:atemp>
          </ns3:TrackPointExtension>
        </extensions>
      </trkpt>
      <trkpt lat="42.6056032441556453704833984375" lon="19.883222468197345733642578125">
        <ele>2072.199951171875</ele>
        <time>2026-06-16T09:54:26.000Z</time>
        <extensions>
          <ns3:TrackPointExtension>
            <ns3:atemp>19.0</ns3:atemp>
          </ns3:TrackPointExtension>
        </extensions>
      </trkpt>
      <trkpt lat="42.6056032441556453704833984375" lon="19.883222468197345733642578125">
        <ele>2072.199951171875</ele>
        <time>2026-06-16T09:54:27.000Z</time>
        <extensions>
          <ns3:TrackPointExtension>
            <ns3:atemp>19.0</ns3:atemp>
          </ns3:TrackPointExtension>
        </extensions>
      </trkpt>
      <trkpt lat="42.6056032441556453704833984375" lon="19.883222468197345733642578125">
        <ele>2072.199951171875</ele>
        <time>2026-06-16T09:54:28.000Z</time>
        <extensions>
          <ns3:TrackPointExtension>
            <ns3:atemp>19.0</ns3:atemp>
          </ns3:TrackPointExtension>
        </extensions>
      </trkpt>
      <trkpt lat="42.6056032441556453704833984375" lon="19.883222468197345733642578125">
        <ele>2072.199951171875</ele>
        <time>2026-06-16T09:54:29.000Z</time>
        <extensions>
          <ns3:TrackPointExtension>
            <ns3:atemp>19.0</ns3:atemp>
          </ns3:TrackPointExtension>
        </extensions>
      </trkpt>
      <trkpt lat="42.6056019030511379241943359375" lon="19.8832209594547748565673828125">
        <ele>2072.199951171875</ele>
        <time>2026-06-16T09:54:30.000Z</time>
        <extensions>
          <ns3:TrackPointExtension>
            <ns3:atemp>19.0</ns3:atemp>
          </ns3:TrackPointExtension>
        </extensions>
      </trkpt>
      <trkpt lat="42.60559846647083759307861328125" lon="19.88321903161704540252685546875">
        <ele>2072.199951171875</ele>
        <time>2026-06-16T09:54:31.000Z</time>
        <extensions>
          <ns3:TrackPointExtension>
            <ns3:atemp>19.0</ns3:atemp>
          </ns3:TrackPointExtension>
        </extensions>
      </trkpt>
      <trkpt lat="42.6055920124053955078125" lon="19.88321534357964992523193359375">
        <ele>2072.199951171875</ele>
        <time>2026-06-16T09:54:32.000Z</time>
        <extensions>
          <ns3:TrackPointExtension>
            <ns3:atemp>19.0</ns3:atemp>
          </ns3:TrackPointExtension>
        </extensions>
      </trkpt>
      <trkpt lat="42.60558991692960262298583984375" lon="19.88320964388549327850341796875">
        <ele>2072.199951171875</ele>
        <time>2026-06-16T09:54:33.000Z</time>
        <extensions>
          <ns3:TrackPointExtension>
            <ns3:atemp>19.0</ns3:atemp>
          </ns3:TrackPointExtension>
        </extensions>
      </trkpt>
      <trkpt lat="42.6055868156254291534423828125" lon="19.88320712931454181671142578125">
        <ele>2072.39990234375</ele>
        <time>2026-06-16T09:54:34.000Z</time>
        <extensions>
          <ns3:TrackPointExtension>
            <ns3:atemp>19.0</ns3:atemp>
          </ns3:TrackPointExtension>
        </extensions>
      </trkpt>
      <trkpt lat="42.6055868156254291534423828125" lon="19.88320712931454181671142578125">
        <ele>2072.39990234375</ele>
        <time>2026-06-16T09:54:35.000Z</time>
        <extensions>
          <ns3:TrackPointExtension>
            <ns3:atemp>19.0</ns3:atemp>
          </ns3:TrackPointExtension>
        </extensions>
      </trkpt>
      <trkpt lat="42.6055868156254291534423828125" lon="19.88320712931454181671142578125">
        <ele>2072.60009765625</ele>
        <time>2026-06-16T09:54:36.000Z</time>
        <extensions>
          <ns3:TrackPointExtension>
            <ns3:atemp>19.0</ns3:atemp>
          </ns3:TrackPointExtension>
        </extensions>
      </trkpt>
      <trkpt lat="42.6055868156254291534423828125" lon="19.88320712931454181671142578125">
        <ele>2072.60009765625</ele>
        <time>2026-06-16T09:54:37.000Z</time>
        <extensions>
          <ns3:TrackPointExtension>
            <ns3:atemp>19.0</ns3:atemp>
          </ns3:TrackPointExtension>
        </extensions>
      </trkpt>
      <trkpt lat="42.6055868156254291534423828125" lon="19.88320746459066867828369140625">
        <ele>2072.60009765625</ele>
        <time>2026-06-16T09:54:38.000Z</time>
        <extensions>
          <ns3:TrackPointExtension>
            <ns3:atemp>19.0</ns3:atemp>
          </ns3:TrackPointExtension>
        </extensions>
      </trkpt>
      <trkpt lat="42.6055824570357799530029296875" lon="19.8832098953425884246826171875">
        <ele>2072.60009765625</ele>
        <time>2026-06-16T09:54:39.000Z</time>
        <extensions>
          <ns3:TrackPointExtension>
            <ns3:atemp>19.0</ns3:atemp>
          </ns3:TrackPointExtension>
        </extensions>
      </trkpt>
      <trkpt lat="42.6055868156254291534423828125" lon="19.88320712931454181671142578125">
        <ele>2072.60009765625</ele>
        <time>2026-06-16T09:54:40.000Z</time>
        <extensions>
          <ns3:TrackPointExtension>
            <ns3:atemp>19.0</ns3:atemp>
          </ns3:TrackPointExtension>
        </extensions>
      </trkpt>
      <trkpt lat="42.6055868156254291534423828125" lon="19.88320712931454181671142578125">
        <ele>2072.800048828125</ele>
        <time>2026-06-16T09:54:41.000Z</time>
        <extensions>
          <ns3:TrackPointExtension>
            <ns3:atemp>19.0</ns3:atemp>
          </ns3:TrackPointExtension>
        </extensions>
      </trkpt>
      <trkpt lat="42.6055824570357799530029296875" lon="19.88320914097130298614501953125">
        <ele>2072.800048828125</ele>
        <time>2026-06-16T09:54:42.000Z</time>
        <extensions>
          <ns3:TrackPointExtension>
            <ns3:atemp>19.0</ns3:atemp>
          </ns3:TrackPointExtension>
        </extensions>
      </trkpt>
      <trkpt lat="42.60557332076132297515869140625" lon="19.88320847041904926300048828125">
        <ele>2072.800048828125</ele>
        <time>2026-06-16T09:54:43.000Z</time>
        <extensions>
          <ns3:TrackPointExtension>
            <ns3:atemp>19.0</ns3:atemp>
          </ns3:TrackPointExtension>
        </extensions>
      </trkpt>
      <trkpt lat="42.60556996800005435943603515625" lon="19.88320847041904926300048828125">
        <ele>2073</ele>
        <time>2026-06-16T09:54:44.000Z</time>
        <extensions>
          <ns3:TrackPointExtension>
            <ns3:atemp>19.0</ns3:atemp>
          </ns3:TrackPointExtension>
        </extensions>
      </trkpt>
      <trkpt lat="42.6055623404681682586669921875" lon="19.8832075484097003936767578125">
        <ele>2073.199951171875</ele>
        <time>2026-06-16T09:54:45.000Z</time>
        <extensions>
          <ns3:TrackPointExtension>
            <ns3:atemp>19.0</ns3:atemp>
          </ns3:TrackPointExtension>
        </extensions>
      </trkpt>
      <trkpt lat="42.605554126203060150146484375" lon="19.88320495001971721649169921875">
        <ele>2073.39990234375</ele>
        <time>2026-06-16T09:54:46.000Z</time>
        <extensions>
          <ns3:TrackPointExtension>
            <ns3:atemp>19.0</ns3:atemp>
          </ns3:TrackPointExtension>
        </extensions>
      </trkpt>
      <trkpt lat="42.60554633103311061859130859375" lon="19.88320595584809780120849609375">
        <ele>2073.60009765625</ele>
        <time>2026-06-16T09:54:47.000Z</time>
        <extensions>
          <ns3:TrackPointExtension>
            <ns3:atemp>19.0</ns3:atemp>
          </ns3:TrackPointExtension>
        </extensions>
      </trkpt>
      <trkpt lat="42.60553828440606594085693359375" lon="19.8832105658948421478271484375">
        <ele>2073.800048828125</ele>
        <time>2026-06-16T09:54:48.000Z</time>
        <extensions>
          <ns3:TrackPointExtension>
            <ns3:atemp>19.0</ns3:atemp>
          </ns3:TrackPointExtension>
        </extensions>
      </trkpt>
      <trkpt lat="42.605536021292209625244140625" lon="19.88321048207581043243408203125">
        <ele>2074</ele>
        <time>2026-06-16T09:54:49.000Z</time>
        <extensions>
          <ns3:TrackPointExtension>
            <ns3:atemp>19.0</ns3:atemp>
          </ns3:TrackPointExtension>
        </extensions>
      </trkpt>
      <trkpt lat="42.6055351831018924713134765625" lon="19.88321031443774700164794921875">
        <ele>2074.199951171875</ele>
        <time>2026-06-16T09:54:50.000Z</time>
        <extensions>
          <ns3:TrackPointExtension>
            <ns3:atemp>19.0</ns3:atemp>
          </ns3:TrackPointExtension>
        </extensions>
      </trkpt>
      <trkpt lat="42.6055351831018924713134765625" lon="19.883210398256778717041015625">
        <ele>2074.39990234375</ele>
        <time>2026-06-16T09:54:51.000Z</time>
        <extensions>
          <ns3:TrackPointExtension>
            <ns3:atemp>19.0</ns3:atemp>
          </ns3:TrackPointExtension>
        </extensions>
      </trkpt>
      <trkpt lat="42.6055351831018924713134765625" lon="19.88321048207581043243408203125">
        <ele>2074.60009765625</ele>
        <time>2026-06-16T09:54:52.000Z</time>
        <extensions>
          <ns3:TrackPointExtension>
            <ns3:atemp>19.0</ns3:atemp>
          </ns3:TrackPointExtension>
        </extensions>
      </trkpt>
      <trkpt lat="42.6055294834077358245849609375" lon="19.883214421570301055908203125">
        <ele>2074.800048828125</ele>
        <time>2026-06-16T09:54:53.000Z</time>
        <extensions>
          <ns3:TrackPointExtension>
            <ns3:atemp>19.0</ns3:atemp>
          </ns3:TrackPointExtension>
        </extensions>
      </trkpt>
      <trkpt lat="42.6055278070271015167236328125" lon="19.883218444883823394775390625">
        <ele>2074.800048828125</ele>
        <time>2026-06-16T09:54:54.000Z</time>
        <extensions>
          <ns3:TrackPointExtension>
            <ns3:atemp>19.0</ns3:atemp>
          </ns3:TrackPointExtension>
        </extensions>
      </trkpt>
      <trkpt lat="42.60552604682743549346923828125" lon="19.88321970216929912567138671875">
        <ele>2075</ele>
        <time>2026-06-16T09:54:55.000Z</time>
        <extensions>
          <ns3:TrackPointExtension>
            <ns3:atemp>19.0</ns3:atemp>
          </ns3:TrackPointExtension>
        </extensions>
      </trkpt>
      <trkpt lat="42.6055214367806911468505859375" lon="19.88322305493056774139404296875">
        <ele>2075.199951171875</ele>
        <time>2026-06-16T09:54:56.000Z</time>
        <extensions>
          <ns3:TrackPointExtension>
            <ns3:atemp>19.0</ns3:atemp>
          </ns3:TrackPointExtension>
        </extensions>
      </trkpt>
      <trkpt lat="42.605513893067836761474609375" lon="19.88322774879634380340576171875">
        <ele>2075.199951171875</ele>
        <time>2026-06-16T09:54:57.000Z</time>
        <extensions>
          <ns3:TrackPointExtension>
            <ns3:atemp>19.0</ns3:atemp>
          </ns3:TrackPointExtension>
        </extensions>
      </trkpt>
      <trkpt lat="42.60550894774496555328369140625" lon="19.883235879242420196533203125">
        <ele>2075.39990234375</ele>
        <time>2026-06-16T09:54:58.000Z</time>
        <extensions>
          <ns3:TrackPointExtension>
            <ns3:atemp>19.0</ns3:atemp>
          </ns3:TrackPointExtension>
        </extensions>
      </trkpt>
      <trkpt lat="42.6055063493549823760986328125" lon="19.883244931697845458984375">
        <ele>2075.39990234375</ele>
        <time>2026-06-16T09:54:59.000Z</time>
        <extensions>
          <ns3:TrackPointExtension>
            <ns3:atemp>19.0</ns3:atemp>
          </ns3:TrackPointExtension>
        </extensions>
      </trkpt>
      <trkpt lat="42.60550425387918949127197265625" lon="19.88325364887714385986328125">
        <ele>2075.60009765625</ele>
        <time>2026-06-16T09:55:00.000Z</time>
        <extensions>
          <ns3:TrackPointExtension>
            <ns3:atemp>19.0</ns3:atemp>
          </ns3:TrackPointExtension>
        </extensions>
      </trkpt>
      <trkpt lat="42.60550425387918949127197265625" lon="19.88325356505811214447021484375">
        <ele>2075.800048828125</ele>
        <time>2026-06-16T09:55:01.000Z</time>
        <extensions>
          <ns3:TrackPointExtension>
            <ns3:atemp>19.0</ns3:atemp>
          </ns3:TrackPointExtension>
        </extensions>
      </trkpt>
      <trkpt lat="42.60550425387918949127197265625" lon="19.88325356505811214447021484375">
        <ele>2076</ele>
        <time>2026-06-16T09:55:02.000Z</time>
        <extensions>
          <ns3:TrackPointExtension>
            <ns3:atemp>19.0</ns3:atemp>
          </ns3:TrackPointExtension>
        </extensions>
      </trkpt>
      <trkpt lat="42.60550425387918949127197265625" lon="19.88325356505811214447021484375">
        <ele>2076</ele>
        <time>2026-06-16T09:55:03.000Z</time>
        <extensions>
          <ns3:TrackPointExtension>
            <ns3:atemp>19.0</ns3:atemp>
          </ns3:TrackPointExtension>
        </extensions>
      </trkpt>
      <trkpt lat="42.60550425387918949127197265625" lon="19.88325356505811214447021484375">
        <ele>2076.199951171875</ele>
        <time>2026-06-16T09:55:04.000Z</time>
        <extensions>
          <ns3:TrackPointExtension>
            <ns3:atemp>19.0</ns3:atemp>
          </ns3:TrackPointExtension>
        </extensions>
      </trkpt>
      <trkpt lat="42.60550425387918949127197265625" lon="19.88325356505811214447021484375">
        <ele>2076.199951171875</ele>
        <time>2026-06-16T09:55:05.000Z</time>
        <extensions>
          <ns3:TrackPointExtension>
            <ns3:atemp>19.0</ns3:atemp>
          </ns3:TrackPointExtension>
        </extensions>
      </trkpt>
      <trkpt lat="42.60550425387918949127197265625" lon="19.88325356505811214447021484375">
        <ele>2076.39990234375</ele>
        <time>2026-06-16T09:55:06.000Z</time>
        <extensions>
          <ns3:TrackPointExtension>
            <ns3:atemp>19.0</ns3:atemp>
          </ns3:TrackPointExtension>
        </extensions>
      </trkpt>
      <trkpt lat="42.6055036671459674835205078125" lon="19.88325297832489013671875">
        <ele>2076.39990234375</ele>
        <time>2026-06-16T09:55:07.000Z</time>
        <extensions>
          <ns3:TrackPointExtension>
            <ns3:atemp>19.0</ns3:atemp>
          </ns3:TrackPointExtension>
        </extensions>
      </trkpt>
      <trkpt lat="42.6054942794144153594970703125" lon="19.88325607962906360626220703125">
        <ele>2076.60009765625</ele>
        <time>2026-06-16T09:55:08.000Z</time>
        <extensions>
          <ns3:TrackPointExtension>
            <ns3:atemp>19.0</ns3:atemp>
          </ns3:TrackPointExtension>
        </extensions>
      </trkpt>
      <trkpt lat="42.6054887473583221435546875" lon="19.88326429389417171478271484375">
        <ele>2076.60009765625</ele>
        <time>2026-06-16T09:55:09.000Z</time>
        <extensions>
          <ns3:TrackPointExtension>
            <ns3:atemp>19.0</ns3:atemp>
          </ns3:TrackPointExtension>
        </extensions>
      </trkpt>
      <trkpt lat="42.60548430494964122772216796875" lon="19.88327451981604099273681640625">
        <ele>2076.800048828125</ele>
        <time>2026-06-16T09:55:10.000Z</time>
        <extensions>
          <ns3:TrackPointExtension>
            <ns3:atemp>19.0</ns3:atemp>
          </ns3:TrackPointExtension>
        </extensions>
      </trkpt>
      <trkpt lat="42.60548229329288005828857421875" lon="19.88328524865210056304931640625">
        <ele>2077</ele>
        <time>2026-06-16T09:55:11.000Z</time>
        <extensions>
          <ns3:TrackPointExtension>
            <ns3:atemp>19.0</ns3:atemp>
          </ns3:TrackPointExtension>
        </extensions>
      </trkpt>
      <trkpt lat="42.6054825447499752044677734375" lon="19.8832945525646209716796875">
        <ele>2077</ele>
        <time>2026-06-16T09:55:12.000Z</time>
        <extensions>
          <ns3:TrackPointExtension>
            <ns3:atemp>19.0</ns3:atemp>
          </ns3:TrackPointExtension>
        </extensions>
      </trkpt>
      <trkpt lat="42.60547642596065998077392578125" lon="19.8833067901432514190673828125">
        <ele>2077.199951171875</ele>
        <time>2026-06-16T09:55:13.000Z</time>
        <extensions>
          <ns3:TrackPointExtension>
            <ns3:atemp>19.0</ns3:atemp>
          </ns3:TrackPointExtension>
        </extensions>
      </trkpt>
      <trkpt lat="42.6054734922945499420166015625" lon="19.88331458531320095062255859375">
        <ele>2077.39990234375</ele>
        <time>2026-06-16T09:55:14.000Z</time>
        <extensions>
          <ns3:TrackPointExtension>
            <ns3:atemp>19.0</ns3:atemp>
          </ns3:TrackPointExtension>
        </extensions>
      </trkpt>
      <trkpt lat="42.6054731570184230804443359375" lon="19.8833228833973407745361328125">
        <ele>2077.60009765625</ele>
        <time>2026-06-16T09:55:15.000Z</time>
        <extensions>
          <ns3:TrackPointExtension>
            <ns3:atemp>19.0</ns3:atemp>
          </ns3:TrackPointExtension>
        </extensions>
      </trkpt>
      <trkpt lat="42.6054724864661693572998046875" lon="19.883330427110195159912109375">
        <ele>2077.800048828125</ele>
        <time>2026-06-16T09:55:16.000Z</time>
        <extensions>
          <ns3:TrackPointExtension>
            <ns3:atemp>19.0</ns3:atemp>
          </ns3:TrackPointExtension>
        </extensions>
      </trkpt>
      <trkpt lat="42.605470977723598480224609375" lon="19.88332699052989482879638671875">
        <ele>2078</ele>
        <time>2026-06-16T09:55:17.000Z</time>
        <extensions>
          <ns3:TrackPointExtension>
            <ns3:atemp>19.0</ns3:atemp>
          </ns3:TrackPointExtension>
        </extensions>
      </trkpt>
      <trkpt lat="42.605470977723598480224609375" lon="19.883327074348926544189453125">
        <ele>2078.199951171875</ele>
        <time>2026-06-16T09:55:18.000Z</time>
        <extensions>
          <ns3:TrackPointExtension>
            <ns3:atemp>19.0</ns3:atemp>
          </ns3:TrackPointExtension>
        </extensions>
      </trkpt>
      <trkpt lat="42.605470977723598480224609375" lon="19.883327074348926544189453125">
        <ele>2078.199951171875</ele>
        <time>2026-06-16T09:55:19.000Z</time>
        <extensions>
          <ns3:TrackPointExtension>
            <ns3:atemp>19.0</ns3:atemp>
          </ns3:TrackPointExtension>
        </extensions>
      </trkpt>
      <trkpt lat="42.605470977723598480224609375" lon="19.88332732580602169036865234375">
        <ele>2078.39990234375</ele>
        <time>2026-06-16T09:55:20.000Z</time>
        <extensions>
          <ns3:TrackPointExtension>
            <ns3:atemp>19.0</ns3:atemp>
          </ns3:TrackPointExtension>
        </extensions>
      </trkpt>
      <trkpt lat="42.605470977723598480224609375" lon="19.883327074348926544189453125">
        <ele>2078.39990234375</ele>
        <time>2026-06-16T09:55:21.000Z</time>
        <extensions>
          <ns3:TrackPointExtension>
            <ns3:atemp>19.0</ns3:atemp>
          </ns3:TrackPointExtension>
        </extensions>
      </trkpt>
      <trkpt lat="42.605470977723598480224609375" lon="19.883327074348926544189453125">
        <ele>2078.39990234375</ele>
        <time>2026-06-16T09:55:22.000Z</time>
        <extensions>
          <ns3:TrackPointExtension>
            <ns3:atemp>19.0</ns3:atemp>
          </ns3:TrackPointExtension>
        </extensions>
      </trkpt>
      <trkpt lat="42.605470977723598480224609375" lon="19.883327074348926544189453125">
        <ele>2078.39990234375</ele>
        <time>2026-06-16T09:55:23.000Z</time>
        <extensions>
          <ns3:TrackPointExtension>
            <ns3:atemp>19.0</ns3:atemp>
          </ns3:TrackPointExtension>
        </extensions>
      </trkpt>
      <trkpt lat="42.605470977723598480224609375" lon="19.883327074348926544189453125">
        <ele>2078.60009765625</ele>
        <time>2026-06-16T09:55:24.000Z</time>
        <extensions>
          <ns3:TrackPointExtension>
            <ns3:atemp>19.0</ns3:atemp>
          </ns3:TrackPointExtension>
        </extensions>
      </trkpt>
      <trkpt lat="42.605470977723598480224609375" lon="19.883327074348926544189453125">
        <ele>2078.60009765625</ele>
        <time>2026-06-16T09:55:25.000Z</time>
        <extensions>
          <ns3:TrackPointExtension>
            <ns3:atemp>19.0</ns3:atemp>
          </ns3:TrackPointExtension>
        </extensions>
      </trkpt>
      <trkpt lat="42.605470977723598480224609375" lon="19.883327074348926544189453125">
        <ele>2078.60009765625</ele>
        <time>2026-06-16T09:55:26.000Z</time>
        <extensions>
          <ns3:TrackPointExtension>
            <ns3:atemp>19.0</ns3:atemp>
          </ns3:TrackPointExtension>
        </extensions>
      </trkpt>
      <trkpt lat="42.605470977723598480224609375" lon="19.883327074348926544189453125">
        <ele>2078.60009765625</ele>
        <time>2026-06-16T09:55:27.000Z</time>
        <extensions>
          <ns3:TrackPointExtension>
            <ns3:atemp>19.0</ns3:atemp>
          </ns3:TrackPointExtension>
        </extensions>
      </trkpt>
      <trkpt lat="42.605470977723598480224609375" lon="19.883327074348926544189453125">
        <ele>2078.800048828125</ele>
        <time>2026-06-16T09:55:28.000Z</time>
        <extensions>
          <ns3:TrackPointExtension>
            <ns3:atemp>19.0</ns3:atemp>
          </ns3:TrackPointExtension>
        </extensions>
      </trkpt>
      <trkpt lat="42.605470977723598480224609375" lon="19.883327074348926544189453125">
        <ele>2078.800048828125</ele>
        <time>2026-06-16T09:55:29.000Z</time>
        <extensions>
          <ns3:TrackPointExtension>
            <ns3:atemp>19.0</ns3:atemp>
          </ns3:TrackPointExtension>
        </extensions>
      </trkpt>
      <trkpt lat="42.605470977723598480224609375" lon="19.883327074348926544189453125">
        <ele>2078.800048828125</ele>
        <time>2026-06-16T09:55:30.000Z</time>
        <extensions>
          <ns3:TrackPointExtension>
            <ns3:atemp>19.0</ns3:atemp>
          </ns3:TrackPointExtension>
        </extensions>
      </trkpt>
      <trkpt lat="42.605470977723598480224609375" lon="19.883327074348926544189453125">
        <ele>2078.800048828125</ele>
        <time>2026-06-16T09:55:31.000Z</time>
        <extensions>
          <ns3:TrackPointExtension>
            <ns3:atemp>19.0</ns3:atemp>
          </ns3:TrackPointExtension>
        </extensions>
      </trkpt>
      <trkpt lat="42.605470977723598480224609375" lon="19.883327074348926544189453125">
        <ele>2078.800048828125</ele>
        <time>2026-06-16T09:55:32.000Z</time>
        <extensions>
          <ns3:TrackPointExtension>
            <ns3:atemp>19.0</ns3:atemp>
          </ns3:TrackPointExtension>
        </extensions>
      </trkpt>
      <trkpt lat="42.605470977723598480224609375" lon="19.883327074348926544189453125">
        <ele>2078.800048828125</ele>
        <time>2026-06-16T09:55:33.000Z</time>
        <extensions>
          <ns3:TrackPointExtension>
            <ns3:atemp>19.0</ns3:atemp>
          </ns3:TrackPointExtension>
        </extensions>
      </trkpt>
      <trkpt lat="42.605470977723598480224609375" lon="19.883327074348926544189453125">
        <ele>2078.800048828125</ele>
        <time>2026-06-16T09:55:34.000Z</time>
        <extensions>
          <ns3:TrackPointExtension>
            <ns3:atemp>19.0</ns3:atemp>
          </ns3:TrackPointExtension>
        </extensions>
      </trkpt>
      <trkpt lat="42.605470977723598480224609375" lon="19.883327074348926544189453125">
        <ele>2078.800048828125</ele>
        <time>2026-06-16T09:55:35.000Z</time>
        <extensions>
          <ns3:TrackPointExtension>
            <ns3:atemp>19.0</ns3:atemp>
          </ns3:TrackPointExtension>
        </extensions>
      </trkpt>
      <trkpt lat="42.605470977723598480224609375" lon="19.883327074348926544189453125">
        <ele>2078.800048828125</ele>
        <time>2026-06-16T09:55:36.000Z</time>
        <extensions>
          <ns3:TrackPointExtension>
            <ns3:atemp>19.0</ns3:atemp>
          </ns3:TrackPointExtension>
        </extensions>
      </trkpt>
      <trkpt lat="42.605470977723598480224609375" lon="19.883327074348926544189453125">
        <ele>2078.800048828125</ele>
        <time>2026-06-16T09:55:37.000Z</time>
        <extensions>
          <ns3:TrackPointExtension>
            <ns3:atemp>19.0</ns3:atemp>
          </ns3:TrackPointExtension>
        </extensions>
      </trkpt>
      <trkpt lat="42.605470977723598480224609375" lon="19.883327074348926544189453125">
        <ele>2078.800048828125</ele>
        <time>2026-06-16T09:55:38.000Z</time>
        <extensions>
          <ns3:TrackPointExtension>
            <ns3:atemp>19.0</ns3:atemp>
          </ns3:TrackPointExtension>
        </extensions>
      </trkpt>
      <trkpt lat="42.605470977723598480224609375" lon="19.883327074348926544189453125">
        <ele>2078.800048828125</ele>
        <time>2026-06-16T09:55:39.000Z</time>
        <extensions>
          <ns3:TrackPointExtension>
            <ns3:atemp>19.0</ns3:atemp>
          </ns3:TrackPointExtension>
        </extensions>
      </trkpt>
      <trkpt lat="42.605470977723598480224609375" lon="19.883327074348926544189453125">
        <ele>2078.800048828125</ele>
        <time>2026-06-16T09:55:40.000Z</time>
        <extensions>
          <ns3:TrackPointExtension>
            <ns3:atemp>19.0</ns3:atemp>
          </ns3:TrackPointExtension>
        </extensions>
      </trkpt>
      <trkpt lat="42.605470977723598480224609375" lon="19.883327074348926544189453125">
        <ele>2078.800048828125</ele>
        <time>2026-06-16T09:55:41.000Z</time>
        <extensions>
          <ns3:TrackPointExtension>
            <ns3:atemp>19.0</ns3:atemp>
          </ns3:TrackPointExtension>
        </extensions>
      </trkpt>
      <trkpt lat="42.605470977723598480224609375" lon="19.883327074348926544189453125">
        <ele>2078.800048828125</ele>
        <time>2026-06-16T09:55:42.000Z</time>
        <extensions>
          <ns3:TrackPointExtension>
            <ns3:atemp>19.0</ns3:atemp>
          </ns3:TrackPointExtension>
        </extensions>
      </trkpt>
      <trkpt lat="42.605470977723598480224609375" lon="19.883327074348926544189453125">
        <ele>2078.800048828125</ele>
        <time>2026-06-16T09:55:43.000Z</time>
        <extensions>
          <ns3:TrackPointExtension>
            <ns3:atemp>19.0</ns3:atemp>
          </ns3:TrackPointExtension>
        </extensions>
      </trkpt>
      <trkpt lat="42.605470977723598480224609375" lon="19.883327074348926544189453125">
        <ele>2078.800048828125</ele>
        <time>2026-06-16T09:55:44.000Z</time>
        <extensions>
          <ns3:TrackPointExtension>
            <ns3:atemp>19.0</ns3:atemp>
          </ns3:TrackPointExtension>
        </extensions>
      </trkpt>
      <trkpt lat="42.605470977723598480224609375" lon="19.883327074348926544189453125">
        <ele>2078.800048828125</ele>
        <time>2026-06-16T09:55:45.000Z</time>
        <extensions>
          <ns3:TrackPointExtension>
            <ns3:atemp>19.0</ns3:atemp>
          </ns3:TrackPointExtension>
        </extensions>
      </trkpt>
      <trkpt lat="42.605470977723598480224609375" lon="19.883327074348926544189453125">
        <ele>2078.800048828125</ele>
        <time>2026-06-16T09:55:46.000Z</time>
        <extensions>
          <ns3:TrackPointExtension>
            <ns3:atemp>19.0</ns3:atemp>
          </ns3:TrackPointExtension>
        </extensions>
      </trkpt>
      <trkpt lat="42.605470977723598480224609375" lon="19.883327074348926544189453125">
        <ele>2078.800048828125</ele>
        <time>2026-06-16T09:55:47.000Z</time>
        <extensions>
          <ns3:TrackPointExtension>
            <ns3:atemp>19.0</ns3:atemp>
          </ns3:TrackPointExtension>
        </extensions>
      </trkpt>
      <trkpt lat="42.605470977723598480224609375" lon="19.883327074348926544189453125">
        <ele>2078.800048828125</ele>
        <time>2026-06-16T09:55:48.000Z</time>
        <extensions>
          <ns3:TrackPointExtension>
            <ns3:atemp>19.0</ns3:atemp>
          </ns3:TrackPointExtension>
        </extensions>
      </trkpt>
      <trkpt lat="42.605470977723598480224609375" lon="19.883327074348926544189453125">
        <ele>2078.800048828125</ele>
        <time>2026-06-16T09:55:49.000Z</time>
        <extensions>
          <ns3:TrackPointExtension>
            <ns3:atemp>19.0</ns3:atemp>
          </ns3:TrackPointExtension>
        </extensions>
      </trkpt>
      <trkpt lat="42.605470977723598480224609375" lon="19.883327074348926544189453125">
        <ele>2078.800048828125</ele>
        <time>2026-06-16T09:55:50.000Z</time>
        <extensions>
          <ns3:TrackPointExtension>
            <ns3:atemp>19.0</ns3:atemp>
          </ns3:TrackPointExtension>
        </extensions>
      </trkpt>
      <trkpt lat="42.605470977723598480224609375" lon="19.883327074348926544189453125">
        <ele>2079</ele>
        <time>2026-06-16T09:55:51.000Z</time>
        <extensions>
          <ns3:TrackPointExtension>
            <ns3:atemp>19.0</ns3:atemp>
          </ns3:TrackPointExtension>
        </extensions>
      </trkpt>
      <trkpt lat="42.605470977723598480224609375" lon="19.883327074348926544189453125">
        <ele>2079</ele>
        <time>2026-06-16T09:55:52.000Z</time>
        <extensions>
          <ns3:TrackPointExtension>
            <ns3:atemp>19.0</ns3:atemp>
          </ns3:TrackPointExtension>
        </extensions>
      </trkpt>
      <trkpt lat="42.605470977723598480224609375" lon="19.883327074348926544189453125">
        <ele>2079</ele>
        <time>2026-06-16T09:55:53.000Z</time>
        <extensions>
          <ns3:TrackPointExtension>
            <ns3:atemp>19.0</ns3:atemp>
          </ns3:TrackPointExtension>
        </extensions>
      </trkpt>
      <trkpt lat="42.605470977723598480224609375" lon="19.883327074348926544189453125">
        <ele>2079</ele>
        <time>2026-06-16T09:55:54.000Z</time>
        <extensions>
          <ns3:TrackPointExtension>
            <ns3:atemp>19.0</ns3:atemp>
          </ns3:TrackPointExtension>
        </extensions>
      </trkpt>
      <trkpt lat="42.605470977723598480224609375" lon="19.883327074348926544189453125">
        <ele>2079</ele>
        <time>2026-06-16T09:55:55.000Z</time>
        <extensions>
          <ns3:TrackPointExtension>
            <ns3:atemp>19.0</ns3:atemp>
          </ns3:TrackPointExtension>
        </extensions>
      </trkpt>
      <trkpt lat="42.605470977723598480224609375" lon="19.883327074348926544189453125">
        <ele>2078.800048828125</ele>
        <time>2026-06-16T09:55:56.000Z</time>
        <extensions>
          <ns3:TrackPointExtension>
            <ns3:atemp>19.0</ns3:atemp>
          </ns3:TrackPointExtension>
        </extensions>
      </trkpt>
      <trkpt lat="42.605470977723598480224609375" lon="19.883327074348926544189453125">
        <ele>2078.800048828125</ele>
        <time>2026-06-16T09:55:57.000Z</time>
        <extensions>
          <ns3:TrackPointExtension>
            <ns3:atemp>19.0</ns3:atemp>
          </ns3:TrackPointExtension>
        </extensions>
      </trkpt>
      <trkpt lat="42.605470977723598480224609375" lon="19.883327074348926544189453125">
        <ele>2078.800048828125</ele>
        <time>2026-06-16T09:55:58.000Z</time>
        <extensions>
          <ns3:TrackPointExtension>
            <ns3:atemp>19.0</ns3:atemp>
          </ns3:TrackPointExtension>
        </extensions>
      </trkpt>
      <trkpt lat="42.605470977723598480224609375" lon="19.883327074348926544189453125">
        <ele>2078.800048828125</ele>
        <time>2026-06-16T09:55:59.000Z</time>
        <extensions>
          <ns3:TrackPointExtension>
            <ns3:atemp>19.0</ns3:atemp>
          </ns3:TrackPointExtension>
        </extensions>
      </trkpt>
      <trkpt lat="42.605470977723598480224609375" lon="19.883327074348926544189453125">
        <ele>2078.800048828125</ele>
        <time>2026-06-16T09:56:00.000Z</time>
        <extensions>
          <ns3:TrackPointExtension>
            <ns3:atemp>19.0</ns3:atemp>
          </ns3:TrackPointExtension>
        </extensions>
      </trkpt>
      <trkpt lat="42.605470977723598480224609375" lon="19.883327074348926544189453125">
        <ele>2078.800048828125</ele>
        <time>2026-06-16T09:56:01.000Z</time>
        <extensions>
          <ns3:TrackPointExtension>
            <ns3:atemp>19.0</ns3:atemp>
          </ns3:TrackPointExtension>
        </extensions>
      </trkpt>
      <trkpt lat="42.605470977723598480224609375" lon="19.883327074348926544189453125">
        <ele>2078.800048828125</ele>
        <time>2026-06-16T09:56:02.000Z</time>
        <extensions>
          <ns3:TrackPointExtension>
            <ns3:atemp>19.0</ns3:atemp>
          </ns3:TrackPointExtension>
        </extensions>
      </trkpt>
      <trkpt lat="42.605470977723598480224609375" lon="19.883327074348926544189453125">
        <ele>2078.800048828125</ele>
        <time>2026-06-16T09:56:03.000Z</time>
        <extensions>
          <ns3:TrackPointExtension>
            <ns3:atemp>19.0</ns3:atemp>
          </ns3:TrackPointExtension>
        </extensions>
      </trkpt>
      <trkpt lat="42.605470977723598480224609375" lon="19.883327074348926544189453125">
        <ele>2078.800048828125</ele>
        <time>2026-06-16T09:56:04.000Z</time>
        <extensions>
          <ns3:TrackPointExtension>
            <ns3:atemp>19.0</ns3:atemp>
          </ns3:TrackPointExtension>
        </extensions>
      </trkpt>
      <trkpt lat="42.605470977723598480224609375" lon="19.883327074348926544189453125">
        <ele>2078.800048828125</ele>
        <time>2026-06-16T09:56:05.000Z</time>
        <extensions>
          <ns3:TrackPointExtension>
            <ns3:atemp>19.0</ns3:atemp>
          </ns3:TrackPointExtension>
        </extensions>
      </trkpt>
      <trkpt lat="42.605470977723598480224609375" lon="19.883327074348926544189453125">
        <ele>2078.800048828125</ele>
        <time>2026-06-16T09:56:06.000Z</time>
        <extensions>
          <ns3:TrackPointExtension>
            <ns3:atemp>19.0</ns3:atemp>
          </ns3:TrackPointExtension>
        </extensions>
      </trkpt>
      <trkpt lat="42.605470977723598480224609375" lon="19.883327074348926544189453125">
        <ele>2078.800048828125</ele>
        <time>2026-06-16T09:56:07.000Z</time>
        <extensions>
          <ns3:TrackPointExtension>
            <ns3:atemp>19.0</ns3:atemp>
          </ns3:TrackPointExtension>
        </extensions>
      </trkpt>
      <trkpt lat="42.605470977723598480224609375" lon="19.883327074348926544189453125">
        <ele>2078.800048828125</ele>
        <time>2026-06-16T09:56:08.000Z</time>
        <extensions>
          <ns3:TrackPointExtension>
            <ns3:atemp>19.0</ns3:atemp>
          </ns3:TrackPointExtension>
        </extensions>
      </trkpt>
      <trkpt lat="42.605470977723598480224609375" lon="19.883327074348926544189453125">
        <ele>2078.800048828125</ele>
        <time>2026-06-16T09:56:09.000Z</time>
        <extensions>
          <ns3:TrackPointExtension>
            <ns3:atemp>19.0</ns3:atemp>
          </ns3:TrackPointExtension>
        </extensions>
      </trkpt>
      <trkpt lat="42.605470977723598480224609375" lon="19.883327074348926544189453125">
        <ele>2078.800048828125</ele>
        <time>2026-06-16T09:56:10.000Z</time>
        <extensions>
          <ns3:TrackPointExtension>
            <ns3:atemp>19.0</ns3:atemp>
          </ns3:TrackPointExtension>
        </extensions>
      </trkpt>
      <trkpt lat="42.605470977723598480224609375" lon="19.883327074348926544189453125">
        <ele>2078.800048828125</ele>
        <time>2026-06-16T09:56:11.000Z</time>
        <extensions>
          <ns3:TrackPointExtension>
            <ns3:atemp>19.0</ns3:atemp>
          </ns3:TrackPointExtension>
        </extensions>
      </trkpt>
      <trkpt lat="42.605470977723598480224609375" lon="19.883327074348926544189453125">
        <ele>2078.800048828125</ele>
        <time>2026-06-16T09:56:12.000Z</time>
        <extensions>
          <ns3:TrackPointExtension>
            <ns3:atemp>19.0</ns3:atemp>
          </ns3:TrackPointExtension>
        </extensions>
      </trkpt>
      <trkpt lat="42.605470977723598480224609375" lon="19.883327074348926544189453125">
        <ele>2078.800048828125</ele>
        <time>2026-06-16T09:56:13.000Z</time>
        <extensions>
          <ns3:TrackPointExtension>
            <ns3:atemp>19.0</ns3:atemp>
          </ns3:TrackPointExtension>
        </extensions>
      </trkpt>
      <trkpt lat="42.605470977723598480224609375" lon="19.883327074348926544189453125">
        <ele>2078.800048828125</ele>
        <time>2026-06-16T09:56:14.000Z</time>
        <extensions>
          <ns3:TrackPointExtension>
            <ns3:atemp>19.0</ns3:atemp>
          </ns3:TrackPointExtension>
        </extensions>
      </trkpt>
      <trkpt lat="42.605470977723598480224609375" lon="19.883327074348926544189453125">
        <ele>2078.800048828125</ele>
        <time>2026-06-16T09:56:15.000Z</time>
        <extensions>
          <ns3:TrackPointExtension>
            <ns3:atemp>19.0</ns3:atemp>
          </ns3:TrackPointExtension>
        </extensions>
      </trkpt>
      <trkpt lat="42.605470977723598480224609375" lon="19.883327074348926544189453125">
        <ele>2078.800048828125</ele>
        <time>2026-06-16T09:56:16.000Z</time>
        <extensions>
          <ns3:TrackPointExtension>
            <ns3:atemp>19.0</ns3:atemp>
          </ns3:TrackPointExtension>
        </extensions>
      </trkpt>
      <trkpt lat="42.605470977723598480224609375" lon="19.883327074348926544189453125">
        <ele>2078.800048828125</ele>
        <time>2026-06-16T09:56:17.000Z</time>
        <extensions>
          <ns3:TrackPointExtension>
            <ns3:atemp>19.0</ns3:atemp>
          </ns3:TrackPointExtension>
        </extensions>
      </trkpt>
      <trkpt lat="42.605470977723598480224609375" lon="19.883327074348926544189453125">
        <ele>2078.800048828125</ele>
        <time>2026-06-16T09:56:18.000Z</time>
        <extensions>
          <ns3:TrackPointExtension>
            <ns3:atemp>19.0</ns3:atemp>
          </ns3:TrackPointExtension>
        </extensions>
      </trkpt>
      <trkpt lat="42.605470977723598480224609375" lon="19.883327074348926544189453125">
        <ele>2078.60009765625</ele>
        <time>2026-06-16T09:56:19.000Z</time>
        <extensions>
          <ns3:TrackPointExtension>
            <ns3:atemp>19.0</ns3:atemp>
          </ns3:TrackPointExtension>
        </extensions>
      </trkpt>
      <trkpt lat="42.605470977723598480224609375" lon="19.883327074348926544189453125">
        <ele>2078.60009765625</ele>
        <time>2026-06-16T09:56:20.000Z</time>
        <extensions>
          <ns3:TrackPointExtension>
            <ns3:atemp>19.0</ns3:atemp>
          </ns3:TrackPointExtension>
        </extensions>
      </trkpt>
      <trkpt lat="42.605470977723598480224609375" lon="19.883327074348926544189453125">
        <ele>2078.60009765625</ele>
        <time>2026-06-16T09:56:21.000Z</time>
        <extensions>
          <ns3:TrackPointExtension>
            <ns3:atemp>19.0</ns3:atemp>
          </ns3:TrackPointExtension>
        </extensions>
      </trkpt>
      <trkpt lat="42.605470977723598480224609375" lon="19.883327074348926544189453125">
        <ele>2078.60009765625</ele>
        <time>2026-06-16T09:56:22.000Z</time>
        <extensions>
          <ns3:TrackPointExtension>
            <ns3:atemp>19.0</ns3:atemp>
          </ns3:TrackPointExtension>
        </extensions>
      </trkpt>
      <trkpt lat="42.605470977723598480224609375" lon="19.883327074348926544189453125">
        <ele>2078.60009765625</ele>
        <time>2026-06-16T09:56:23.000Z</time>
        <extensions>
          <ns3:TrackPointExtension>
            <ns3:atemp>19.0</ns3:atemp>
          </ns3:TrackPointExtension>
        </extensions>
      </trkpt>
      <trkpt lat="42.605470977723598480224609375" lon="19.883327074348926544189453125">
        <ele>2078.60009765625</ele>
        <time>2026-06-16T09:56:24.000Z</time>
        <extensions>
          <ns3:TrackPointExtension>
            <ns3:atemp>19.0</ns3:atemp>
          </ns3:TrackPointExtension>
        </extensions>
      </trkpt>
      <trkpt lat="42.605470977723598480224609375" lon="19.883327074348926544189453125">
        <ele>2078.60009765625</ele>
        <time>2026-06-16T09:56:25.000Z</time>
        <extensions>
          <ns3:TrackPointExtension>
            <ns3:atemp>19.0</ns3:atemp>
          </ns3:TrackPointExtension>
        </extensions>
      </trkpt>
      <trkpt lat="42.605470977723598480224609375" lon="19.883327074348926544189453125">
        <ele>2078.60009765625</ele>
        <time>2026-06-16T09:56:26.000Z</time>
        <extensions>
          <ns3:TrackPointExtension>
            <ns3:atemp>19.0</ns3:atemp>
          </ns3:TrackPointExtension>
        </extensions>
      </trkpt>
      <trkpt lat="42.605470977723598480224609375" lon="19.883327074348926544189453125">
        <ele>2078.60009765625</ele>
        <time>2026-06-16T09:56:27.000Z</time>
        <extensions>
          <ns3:TrackPointExtension>
            <ns3:atemp>19.0</ns3:atemp>
          </ns3:TrackPointExtension>
        </extensions>
      </trkpt>
      <trkpt lat="42.605470977723598480224609375" lon="19.883327074348926544189453125">
        <ele>2078.60009765625</ele>
        <time>2026-06-16T09:56:28.000Z</time>
        <extensions>
          <ns3:TrackPointExtension>
            <ns3:atemp>19.0</ns3:atemp>
          </ns3:TrackPointExtension>
        </extensions>
      </trkpt>
      <trkpt lat="42.605470977723598480224609375" lon="19.883327074348926544189453125">
        <ele>2078.60009765625</ele>
        <time>2026-06-16T09:56:29.000Z</time>
        <extensions>
          <ns3:TrackPointExtension>
            <ns3:atemp>19.0</ns3:atemp>
          </ns3:TrackPointExtension>
        </extensions>
      </trkpt>
      <trkpt lat="42.605470977723598480224609375" lon="19.883327074348926544189453125">
        <ele>2078.60009765625</ele>
        <time>2026-06-16T09:56:30.000Z</time>
        <extensions>
          <ns3:TrackPointExtension>
            <ns3:atemp>19.0</ns3:atemp>
          </ns3:TrackPointExtension>
        </extensions>
      </trkpt>
      <trkpt lat="42.605470977723598480224609375" lon="19.883327074348926544189453125">
        <ele>2078.39990234375</ele>
        <time>2026-06-16T09:56:31.000Z</time>
        <extensions>
          <ns3:TrackPointExtension>
            <ns3:atemp>19.0</ns3:atemp>
          </ns3:TrackPointExtension>
        </extensions>
      </trkpt>
      <trkpt lat="42.605470977723598480224609375" lon="19.883327074348926544189453125">
        <ele>2078.39990234375</ele>
        <time>2026-06-16T09:56:32.000Z</time>
        <extensions>
          <ns3:TrackPointExtension>
            <ns3:atemp>19.0</ns3:atemp>
          </ns3:TrackPointExtension>
        </extensions>
      </trkpt>
      <trkpt lat="42.605470977723598480224609375" lon="19.883327074348926544189453125">
        <ele>2078.39990234375</ele>
        <time>2026-06-16T09:56:33.000Z</time>
        <extensions>
          <ns3:TrackPointExtension>
            <ns3:atemp>19.0</ns3:atemp>
          </ns3:TrackPointExtension>
        </extensions>
      </trkpt>
      <trkpt lat="42.605470977723598480224609375" lon="19.883327074348926544189453125">
        <ele>2078.39990234375</ele>
        <time>2026-06-16T09:56:34.000Z</time>
        <extensions>
          <ns3:TrackPointExtension>
            <ns3:atemp>19.0</ns3:atemp>
          </ns3:TrackPointExtension>
        </extensions>
      </trkpt>
      <trkpt lat="42.605470977723598480224609375" lon="19.883327074348926544189453125">
        <ele>2078.39990234375</ele>
        <time>2026-06-16T09:56:35.000Z</time>
        <extensions>
          <ns3:TrackPointExtension>
            <ns3:atemp>19.0</ns3:atemp>
          </ns3:TrackPointExtension>
        </extensions>
      </trkpt>
      <trkpt lat="42.605470977723598480224609375" lon="19.883327074348926544189453125">
        <ele>2078.39990234375</ele>
        <time>2026-06-16T09:56:36.000Z</time>
        <extensions>
          <ns3:TrackPointExtension>
            <ns3:atemp>19.0</ns3:atemp>
          </ns3:TrackPointExtension>
        </extensions>
      </trkpt>
      <trkpt lat="42.605470977723598480224609375" lon="19.883327074348926544189453125">
        <ele>2078.39990234375</ele>
        <time>2026-06-16T09:56:37.000Z</time>
        <extensions>
          <ns3:TrackPointExtension>
            <ns3:atemp>19.0</ns3:atemp>
          </ns3:TrackPointExtension>
        </extensions>
      </trkpt>
      <trkpt lat="42.605470977723598480224609375" lon="19.883327074348926544189453125">
        <ele>2078.39990234375</ele>
        <time>2026-06-16T09:56:38.000Z</time>
        <extensions>
          <ns3:TrackPointExtension>
            <ns3:atemp>19.0</ns3:atemp>
          </ns3:TrackPointExtension>
        </extensions>
      </trkpt>
      <trkpt lat="42.605470977723598480224609375" lon="19.883327074348926544189453125">
        <ele>2078.39990234375</ele>
        <time>2026-06-16T09:56:39.000Z</time>
        <extensions>
          <ns3:TrackPointExtension>
            <ns3:atemp>19.0</ns3:atemp>
          </ns3:TrackPointExtension>
        </extensions>
      </trkpt>
      <trkpt lat="42.605470977723598480224609375" lon="19.883327074348926544189453125">
        <ele>2078.39990234375</ele>
        <time>2026-06-16T09:56:40.000Z</time>
        <extensions>
          <ns3:TrackPointExtension>
            <ns3:atemp>19.0</ns3:atemp>
          </ns3:TrackPointExtension>
        </extensions>
      </trkpt>
      <trkpt lat="42.605470977723598480224609375" lon="19.883327074348926544189453125">
        <ele>2078.39990234375</ele>
        <time>2026-06-16T09:56:41.000Z</time>
        <extensions>
          <ns3:TrackPointExtension>
            <ns3:atemp>19.0</ns3:atemp>
          </ns3:TrackPointExtension>
        </extensions>
      </trkpt>
      <trkpt lat="42.605470977723598480224609375" lon="19.883327074348926544189453125">
        <ele>2078.39990234375</ele>
        <time>2026-06-16T09:56:42.000Z</time>
        <extensions>
          <ns3:TrackPointExtension>
            <ns3:atemp>19.0</ns3:atemp>
          </ns3:TrackPointExtension>
        </extensions>
      </trkpt>
      <trkpt lat="42.605470977723598480224609375" lon="19.883327074348926544189453125">
        <ele>2078.39990234375</ele>
        <time>2026-06-16T09:56:43.000Z</time>
        <extensions>
          <ns3:TrackPointExtension>
            <ns3:atemp>19.0</ns3:atemp>
          </ns3:TrackPointExtension>
        </extensions>
      </trkpt>
      <trkpt lat="42.605470977723598480224609375" lon="19.883327074348926544189453125">
        <ele>2078.39990234375</ele>
        <time>2026-06-16T09:56:44.000Z</time>
        <extensions>
          <ns3:TrackPointExtension>
            <ns3:atemp>19.0</ns3:atemp>
          </ns3:TrackPointExtension>
        </extensions>
      </trkpt>
      <trkpt lat="42.605470977723598480224609375" lon="19.883327074348926544189453125">
        <ele>2078.39990234375</ele>
        <time>2026-06-16T09:56:45.000Z</time>
        <extensions>
          <ns3:TrackPointExtension>
            <ns3:atemp>19.0</ns3:atemp>
          </ns3:TrackPointExtension>
        </extensions>
      </trkpt>
      <trkpt lat="42.605470977723598480224609375" lon="19.883327074348926544189453125">
        <ele>2078.39990234375</ele>
        <time>2026-06-16T09:56:46.000Z</time>
        <extensions>
          <ns3:TrackPointExtension>
            <ns3:atemp>19.0</ns3:atemp>
          </ns3:TrackPointExtension>
        </extensions>
      </trkpt>
      <trkpt lat="42.605470977723598480224609375" lon="19.883327074348926544189453125">
        <ele>2078.39990234375</ele>
        <time>2026-06-16T09:56:47.000Z</time>
        <extensions>
          <ns3:TrackPointExtension>
            <ns3:atemp>19.0</ns3:atemp>
          </ns3:TrackPointExtension>
        </extensions>
      </trkpt>
      <trkpt lat="42.605470977723598480224609375" lon="19.883327074348926544189453125">
        <ele>2078.39990234375</ele>
        <time>2026-06-16T09:56:48.000Z</time>
        <extensions>
          <ns3:TrackPointExtension>
            <ns3:atemp>19.0</ns3:atemp>
          </ns3:TrackPointExtension>
        </extensions>
      </trkpt>
      <trkpt lat="42.605470977723598480224609375" lon="19.883327074348926544189453125">
        <ele>2078.39990234375</ele>
        <time>2026-06-16T09:56:49.000Z</time>
        <extensions>
          <ns3:TrackPointExtension>
            <ns3:atemp>19.0</ns3:atemp>
          </ns3:TrackPointExtension>
        </extensions>
      </trkpt>
      <trkpt lat="42.605470977723598480224609375" lon="19.883327074348926544189453125">
        <ele>2078.39990234375</ele>
        <time>2026-06-16T09:56:50.000Z</time>
        <extensions>
          <ns3:TrackPointExtension>
            <ns3:atemp>19.0</ns3:atemp>
          </ns3:TrackPointExtension>
        </extensions>
      </trkpt>
      <trkpt lat="42.605470977723598480224609375" lon="19.883327074348926544189453125">
        <ele>2078.39990234375</ele>
        <time>2026-06-16T09:56:51.000Z</time>
        <extensions>
          <ns3:TrackPointExtension>
            <ns3:atemp>19.0</ns3:atemp>
          </ns3:TrackPointExtension>
        </extensions>
      </trkpt>
      <trkpt lat="42.605470977723598480224609375" lon="19.883327074348926544189453125">
        <ele>2078.39990234375</ele>
        <time>2026-06-16T09:56:52.000Z</time>
        <extensions>
          <ns3:TrackPointExtension>
            <ns3:atemp>19.0</ns3:atemp>
          </ns3:TrackPointExtension>
        </extensions>
      </trkpt>
      <trkpt lat="42.605470977723598480224609375" lon="19.883327074348926544189453125">
        <ele>2078.39990234375</ele>
        <time>2026-06-16T09:56:53.000Z</time>
        <extensions>
          <ns3:TrackPointExtension>
            <ns3:atemp>19.0</ns3:atemp>
          </ns3:TrackPointExtension>
        </extensions>
      </trkpt>
      <trkpt lat="42.605470977723598480224609375" lon="19.883327074348926544189453125">
        <ele>2078.39990234375</ele>
        <time>2026-06-16T09:56:54.000Z</time>
        <extensions>
          <ns3:TrackPointExtension>
            <ns3:atemp>19.0</ns3:atemp>
          </ns3:TrackPointExtension>
        </extensions>
      </trkpt>
      <trkpt lat="42.605470977723598480224609375" lon="19.883327074348926544189453125">
        <ele>2078.39990234375</ele>
        <time>2026-06-16T09:56:55.000Z</time>
        <extensions>
          <ns3:TrackPointExtension>
            <ns3:atemp>19.0</ns3:atemp>
          </ns3:TrackPointExtension>
        </extensions>
      </trkpt>
      <trkpt lat="42.605470977723598480224609375" lon="19.883327074348926544189453125">
        <ele>2078.39990234375</ele>
        <time>2026-06-16T09:56:56.000Z</time>
        <extensions>
          <ns3:TrackPointExtension>
            <ns3:atemp>19.0</ns3:atemp>
          </ns3:TrackPointExtension>
        </extensions>
      </trkpt>
      <trkpt lat="42.605470977723598480224609375" lon="19.883327074348926544189453125">
        <ele>2078.39990234375</ele>
        <time>2026-06-16T09:56:57.000Z</time>
        <extensions>
          <ns3:TrackPointExtension>
            <ns3:atemp>19.0</ns3:atemp>
          </ns3:TrackPointExtension>
        </extensions>
      </trkpt>
      <trkpt lat="42.605470977723598480224609375" lon="19.883327074348926544189453125">
        <ele>2078.39990234375</ele>
        <time>2026-06-16T09:56:58.000Z</time>
        <extensions>
          <ns3:TrackPointExtension>
            <ns3:atemp>19.0</ns3:atemp>
          </ns3:TrackPointExtension>
        </extensions>
      </trkpt>
      <trkpt lat="42.605470977723598480224609375" lon="19.883327074348926544189453125">
        <ele>2078.39990234375</ele>
        <time>2026-06-16T09:56:59.000Z</time>
        <extensions>
          <ns3:TrackPointExtension>
            <ns3:atemp>19.0</ns3:atemp>
          </ns3:TrackPointExtension>
        </extensions>
      </trkpt>
      <trkpt lat="42.605470977723598480224609375" lon="19.883327074348926544189453125">
        <ele>2078.199951171875</ele>
        <time>2026-06-16T09:57:00.000Z</time>
        <extensions>
          <ns3:TrackPointExtension>
            <ns3:atemp>19.0</ns3:atemp>
          </ns3:TrackPointExtension>
        </extensions>
      </trkpt>
      <trkpt lat="42.605470977723598480224609375" lon="19.883327074348926544189453125">
        <ele>2078.199951171875</ele>
        <time>2026-06-16T09:57:01.000Z</time>
        <extensions>
          <ns3:TrackPointExtension>
            <ns3:atemp>19.0</ns3:atemp>
          </ns3:TrackPointExtension>
        </extensions>
      </trkpt>
      <trkpt lat="42.605470977723598480224609375" lon="19.883327074348926544189453125">
        <ele>2078.39990234375</ele>
        <time>2026-06-16T09:57:02.000Z</time>
        <extensions>
          <ns3:TrackPointExtension>
            <ns3:atemp>19.0</ns3:atemp>
          </ns3:TrackPointExtension>
        </extensions>
      </trkpt>
      <trkpt lat="42.605470977723598480224609375" lon="19.883327074348926544189453125">
        <ele>2078.39990234375</ele>
        <time>2026-06-16T09:57:03.000Z</time>
        <extensions>
          <ns3:TrackPointExtension>
            <ns3:atemp>19.0</ns3:atemp>
          </ns3:TrackPointExtension>
        </extensions>
      </trkpt>
      <trkpt lat="42.605470977723598480224609375" lon="19.883327074348926544189453125">
        <ele>2078.39990234375</ele>
        <time>2026-06-16T09:57:04.000Z</time>
        <extensions>
          <ns3:TrackPointExtension>
            <ns3:atemp>19.0</ns3:atemp>
          </ns3:TrackPointExtension>
        </extensions>
      </trkpt>
      <trkpt lat="42.605470977723598480224609375" lon="19.883327074348926544189453125">
        <ele>2078.39990234375</ele>
        <time>2026-06-16T09:57:05.000Z</time>
        <extensions>
          <ns3:TrackPointExtension>
            <ns3:atemp>19.0</ns3:atemp>
          </ns3:TrackPointExtension>
        </extensions>
      </trkpt>
      <trkpt lat="42.605470977723598480224609375" lon="19.883327074348926544189453125">
        <ele>2078.39990234375</ele>
        <time>2026-06-16T09:57:06.000Z</time>
        <extensions>
          <ns3:TrackPointExtension>
            <ns3:atemp>19.0</ns3:atemp>
          </ns3:TrackPointExtension>
        </extensions>
      </trkpt>
      <trkpt lat="42.605470977723598480224609375" lon="19.883327074348926544189453125">
        <ele>2078.39990234375</ele>
        <time>2026-06-16T09:57:07.000Z</time>
        <extensions>
          <ns3:TrackPointExtension>
            <ns3:atemp>19.0</ns3:atemp>
          </ns3:TrackPointExtension>
        </extensions>
      </trkpt>
      <trkpt lat="42.605470977723598480224609375" lon="19.883327074348926544189453125">
        <ele>2078.39990234375</ele>
        <time>2026-06-16T09:57:08.000Z</time>
        <extensions>
          <ns3:TrackPointExtension>
            <ns3:atemp>19.0</ns3:atemp>
          </ns3:TrackPointExtension>
        </extensions>
      </trkpt>
      <trkpt lat="42.605470977723598480224609375" lon="19.883327074348926544189453125">
        <ele>2078.39990234375</ele>
        <time>2026-06-16T09:57:09.000Z</time>
        <extensions>
          <ns3:TrackPointExtension>
            <ns3:atemp>19.0</ns3:atemp>
          </ns3:TrackPointExtension>
        </extensions>
      </trkpt>
      <trkpt lat="42.605470977723598480224609375" lon="19.883327074348926544189453125">
        <ele>2078.39990234375</ele>
        <time>2026-06-16T09:57:10.000Z</time>
        <extensions>
          <ns3:TrackPointExtension>
            <ns3:atemp>19.0</ns3:atemp>
          </ns3:TrackPointExtension>
        </extensions>
      </trkpt>
      <trkpt lat="42.605470977723598480224609375" lon="19.883327074348926544189453125">
        <ele>2078.39990234375</ele>
        <time>2026-06-16T09:57:11.000Z</time>
        <extensions>
          <ns3:TrackPointExtension>
            <ns3:atemp>19.0</ns3:atemp>
          </ns3:TrackPointExtension>
        </extensions>
      </trkpt>
      <trkpt lat="42.605470977723598480224609375" lon="19.883327074348926544189453125">
        <ele>2078.39990234375</ele>
        <time>2026-06-16T09:57:12.000Z</time>
        <extensions>
          <ns3:TrackPointExtension>
            <ns3:atemp>19.0</ns3:atemp>
          </ns3:TrackPointExtension>
        </extensions>
      </trkpt>
      <trkpt lat="42.605470977723598480224609375" lon="19.883327074348926544189453125">
        <ele>2078.39990234375</ele>
        <time>2026-06-16T09:57:13.000Z</time>
        <extensions>
          <ns3:TrackPointExtension>
            <ns3:atemp>19.0</ns3:atemp>
          </ns3:TrackPointExtension>
        </extensions>
      </trkpt>
      <trkpt lat="42.605470977723598480224609375" lon="19.883327074348926544189453125">
        <ele>2078.39990234375</ele>
        <time>2026-06-16T09:57:14.000Z</time>
        <extensions>
          <ns3:TrackPointExtension>
            <ns3:atemp>19.0</ns3:atemp>
          </ns3:TrackPointExtension>
        </extensions>
      </trkpt>
      <trkpt lat="42.605470977723598480224609375" lon="19.883327074348926544189453125">
        <ele>2078.39990234375</ele>
        <time>2026-06-16T09:57:15.000Z</time>
        <extensions>
          <ns3:TrackPointExtension>
            <ns3:atemp>19.0</ns3:atemp>
          </ns3:TrackPointExtension>
        </extensions>
      </trkpt>
      <trkpt lat="42.605470977723598480224609375" lon="19.883327074348926544189453125">
        <ele>2078.39990234375</ele>
        <time>2026-06-16T09:57:16.000Z</time>
        <extensions>
          <ns3:TrackPointExtension>
            <ns3:atemp>19.0</ns3:atemp>
          </ns3:TrackPointExtension>
        </extensions>
      </trkpt>
      <trkpt lat="42.605470977723598480224609375" lon="19.883327074348926544189453125">
        <ele>2078.39990234375</ele>
        <time>2026-06-16T09:57:17.000Z</time>
        <extensions>
          <ns3:TrackPointExtension>
            <ns3:atemp>19.0</ns3:atemp>
          </ns3:TrackPointExtension>
        </extensions>
      </trkpt>
      <trkpt lat="42.605470977723598480224609375" lon="19.883327074348926544189453125">
        <ele>2078.39990234375</ele>
        <time>2026-06-16T09:57:18.000Z</time>
        <extensions>
          <ns3:TrackPointExtension>
            <ns3:atemp>19.0</ns3:atemp>
          </ns3:TrackPointExtension>
        </extensions>
      </trkpt>
      <trkpt lat="42.605470977723598480224609375" lon="19.883327074348926544189453125">
        <ele>2078.39990234375</ele>
        <time>2026-06-16T09:57:19.000Z</time>
        <extensions>
          <ns3:TrackPointExtension>
            <ns3:atemp>19.0</ns3:atemp>
          </ns3:TrackPointExtension>
        </extensions>
      </trkpt>
      <trkpt lat="42.605470977723598480224609375" lon="19.883327074348926544189453125">
        <ele>2078.39990234375</ele>
        <time>2026-06-16T09:57:20.000Z</time>
        <extensions>
          <ns3:TrackPointExtension>
            <ns3:atemp>19.0</ns3:atemp>
          </ns3:TrackPointExtension>
        </extensions>
      </trkpt>
      <trkpt lat="42.605470977723598480224609375" lon="19.883327074348926544189453125">
        <ele>2078.39990234375</ele>
        <time>2026-06-16T09:57:21.000Z</time>
        <extensions>
          <ns3:TrackPointExtension>
            <ns3:atemp>19.0</ns3:atemp>
          </ns3:TrackPointExtension>
        </extensions>
      </trkpt>
      <trkpt lat="42.6054708100855350494384765625" lon="19.88333168439567089080810546875">
        <ele>2078.39990234375</ele>
        <time>2026-06-16T09:57:22.000Z</time>
        <extensions>
          <ns3:TrackPointExtension>
            <ns3:atemp>19.0</ns3:atemp>
          </ns3:TrackPointExtension>
        </extensions>
      </trkpt>
      <trkpt lat="42.605470977723598480224609375" lon="19.883327074348926544189453125">
        <ele>2078.39990234375</ele>
        <time>2026-06-16T09:57:23.000Z</time>
        <extensions>
          <ns3:TrackPointExtension>
            <ns3:atemp>19.0</ns3:atemp>
          </ns3:TrackPointExtension>
        </extensions>
      </trkpt>
      <trkpt lat="42.605470977723598480224609375" lon="19.883327074348926544189453125">
        <ele>2078.39990234375</ele>
        <time>2026-06-16T09:57:24.000Z</time>
        <extensions>
          <ns3:TrackPointExtension>
            <ns3:atemp>19.0</ns3:atemp>
          </ns3:TrackPointExtension>
        </extensions>
      </trkpt>
      <trkpt lat="42.605470977723598480224609375" lon="19.883327074348926544189453125">
        <ele>2078.39990234375</ele>
        <time>2026-06-16T09:57:25.000Z</time>
        <extensions>
          <ns3:TrackPointExtension>
            <ns3:atemp>19.0</ns3:atemp>
          </ns3:TrackPointExtension>
        </extensions>
      </trkpt>
      <trkpt lat="42.605470977723598480224609375" lon="19.883327074348926544189453125">
        <ele>2078.39990234375</ele>
        <time>2026-06-16T09:57:26.000Z</time>
        <extensions>
          <ns3:TrackPointExtension>
            <ns3:atemp>19.0</ns3:atemp>
          </ns3:TrackPointExtension>
        </extensions>
      </trkpt>
      <trkpt lat="42.605470977723598480224609375" lon="19.883327074348926544189453125">
        <ele>2078.39990234375</ele>
        <time>2026-06-16T09:57:27.000Z</time>
        <extensions>
          <ns3:TrackPointExtension>
            <ns3:atemp>19.0</ns3:atemp>
          </ns3:TrackPointExtension>
        </extensions>
      </trkpt>
      <trkpt lat="42.605470977723598480224609375" lon="19.883327074348926544189453125">
        <ele>2078.39990234375</ele>
        <time>2026-06-16T09:57:28.000Z</time>
        <extensions>
          <ns3:TrackPointExtension>
            <ns3:atemp>19.0</ns3:atemp>
          </ns3:TrackPointExtension>
        </extensions>
      </trkpt>
      <trkpt lat="42.605470977723598480224609375" lon="19.883327074348926544189453125">
        <ele>2078.39990234375</ele>
        <time>2026-06-16T09:57:29.000Z</time>
        <extensions>
          <ns3:TrackPointExtension>
            <ns3:atemp>19.0</ns3:atemp>
          </ns3:TrackPointExtension>
        </extensions>
      </trkpt>
      <trkpt lat="42.605470977723598480224609375" lon="19.883327074348926544189453125">
        <ele>2078.39990234375</ele>
        <time>2026-06-16T09:57:30.000Z</time>
        <extensions>
          <ns3:TrackPointExtension>
            <ns3:atemp>19.0</ns3:atemp>
          </ns3:TrackPointExtension>
        </extensions>
      </trkpt>
      <trkpt lat="42.605470977723598480224609375" lon="19.883327074348926544189453125">
        <ele>2078.39990234375</ele>
        <time>2026-06-16T09:57:31.000Z</time>
        <extensions>
          <ns3:TrackPointExtension>
            <ns3:atemp>19.0</ns3:atemp>
          </ns3:TrackPointExtension>
        </extensions>
      </trkpt>
      <trkpt lat="42.605470977723598480224609375" lon="19.883327074348926544189453125">
        <ele>2078.39990234375</ele>
        <time>2026-06-16T09:57:32.000Z</time>
        <extensions>
          <ns3:TrackPointExtension>
            <ns3:atemp>19.0</ns3:atemp>
          </ns3:TrackPointExtension>
        </extensions>
      </trkpt>
      <trkpt lat="42.60547122918069362640380859375" lon="19.883333109319210052490234375">
        <ele>2078.39990234375</ele>
        <time>2026-06-16T09:57:33.000Z</time>
        <extensions>
          <ns3:TrackPointExtension>
            <ns3:atemp>19.0</ns3:atemp>
          </ns3:TrackPointExtension>
        </extensions>
      </trkpt>
      <trkpt lat="42.605457566678524017333984375" lon="19.8833510465919971466064453125">
        <ele>2078.39990234375</ele>
        <time>2026-06-16T09:57:34.000Z</time>
        <extensions>
          <ns3:TrackPointExtension>
            <ns3:atemp>19.0</ns3:atemp>
          </ns3:TrackPointExtension>
        </extensions>
      </trkpt>
      <trkpt lat="42.60544516146183013916015625" lon="19.883355237543582916259765625">
        <ele>2078.39990234375</ele>
        <time>2026-06-16T09:57:35.000Z</time>
        <extensions>
          <ns3:TrackPointExtension>
            <ns3:atemp>19.0</ns3:atemp>
          </ns3:TrackPointExtension>
        </extensions>
      </trkpt>
      <trkpt lat="42.60543619282543659210205078125" lon="19.8833574168384075164794921875">
        <ele>2078.39990234375</ele>
        <time>2026-06-16T09:57:36.000Z</time>
        <extensions>
          <ns3:TrackPointExtension>
            <ns3:atemp>19.0</ns3:atemp>
          </ns3:TrackPointExtension>
        </extensions>
      </trkpt>
      <trkpt lat="42.6054238714277744293212890625" lon="19.88335213623940944671630859375">
        <ele>2078.60009765625</ele>
        <time>2026-06-16T09:57:37.000Z</time>
        <extensions>
          <ns3:TrackPointExtension>
            <ns3:atemp>19.0</ns3:atemp>
          </ns3:TrackPointExtension>
        </extensions>
      </trkpt>
      <trkpt lat="42.60540853254497051239013671875" lon="19.88333587534725666046142578125">
        <ele>2078.60009765625</ele>
        <time>2026-06-16T09:57:38.000Z</time>
        <extensions>
          <ns3:TrackPointExtension>
            <ns3:atemp>19.0</ns3:atemp>
          </ns3:TrackPointExtension>
        </extensions>
      </trkpt>
      <trkpt lat="42.6053903438150882720947265625" lon="19.88333269022405147552490234375">
        <ele>2078.800048828125</ele>
        <time>2026-06-16T09:57:39.000Z</time>
        <extensions>
          <ns3:TrackPointExtension>
            <ns3:atemp>19.0</ns3:atemp>
          </ns3:TrackPointExtension>
        </extensions>
      </trkpt>
      <trkpt lat="42.60537316091358661651611328125" lon="19.88333201967179775238037109375">
        <ele>2079.199951171875</ele>
        <time>2026-06-16T09:57:40.000Z</time>
        <extensions>
          <ns3:TrackPointExtension>
            <ns3:atemp>19.0</ns3:atemp>
          </ns3:TrackPointExtension>
        </extensions>
      </trkpt>
      <trkpt lat="42.60535798966884613037109375" lon="19.88333277404308319091796875">
        <ele>2079.60009765625</ele>
        <time>2026-06-16T09:57:41.000Z</time>
        <extensions>
          <ns3:TrackPointExtension>
            <ns3:atemp>19.0</ns3:atemp>
          </ns3:TrackPointExtension>
        </extensions>
      </trkpt>
      <trkpt lat="42.6053491048514842987060546875" lon="19.88333906047046184539794921875">
        <ele>2080</ele>
        <time>2026-06-16T09:57:42.000Z</time>
        <extensions>
          <ns3:TrackPointExtension>
            <ns3:atemp>19.0</ns3:atemp>
          </ns3:TrackPointExtension>
        </extensions>
      </trkpt>
      <trkpt lat="42.605342231690883636474609375" lon="19.8833513818681240081787109375">
        <ele>2080.60009765625</ele>
        <time>2026-06-16T09:57:43.000Z</time>
        <extensions>
          <ns3:TrackPointExtension>
            <ns3:atemp>19.0</ns3:atemp>
          </ns3:TrackPointExtension>
        </extensions>
      </trkpt>
      <trkpt lat="42.60532806627452373504638671875" lon="19.883371330797672271728515625">
        <ele>2081</ele>
        <time>2026-06-16T09:57:44.000Z</time>
        <extensions>
          <ns3:TrackPointExtension>
            <ns3:atemp>19.0</ns3:atemp>
          </ns3:TrackPointExtension>
        </extensions>
      </trkpt>
      <trkpt lat="42.60532035492360591888427734375" lon="19.88339991308748722076416015625">
        <ele>2081.39990234375</ele>
        <time>2026-06-16T09:57:45.000Z</time>
        <extensions>
          <ns3:TrackPointExtension>
            <ns3:atemp>19.0</ns3:atemp>
          </ns3:TrackPointExtension>
        </extensions>
      </trkpt>
      <trkpt lat="42.60531633161008358001708984375" lon="19.88342623226344585418701171875">
        <ele>2081.800048828125</ele>
        <time>2026-06-16T09:57:46.000Z</time>
        <extensions>
          <ns3:TrackPointExtension>
            <ns3:atemp>19.0</ns3:atemp>
          </ns3:TrackPointExtension>
        </extensions>
      </trkpt>
      <trkpt lat="42.60531247593462467193603515625" lon="19.8834553174674510955810546875">
        <ele>2082.199951171875</ele>
        <time>2026-06-16T09:57:47.000Z</time>
        <extensions>
          <ns3:TrackPointExtension>
            <ns3:atemp>19.0</ns3:atemp>
          </ns3:TrackPointExtension>
        </extensions>
      </trkpt>
      <trkpt lat="42.6053082011640071868896484375" lon="19.88347451202571392059326171875">
        <ele>2082.60009765625</ele>
        <time>2026-06-16T09:57:48.000Z</time>
        <extensions>
          <ns3:TrackPointExtension>
            <ns3:atemp>19.0</ns3:atemp>
          </ns3:TrackPointExtension>
        </extensions>
      </trkpt>
      <trkpt lat="42.605305351316928863525390625" lon="19.88349814899265766143798828125">
        <ele>2082.800048828125</ele>
        <time>2026-06-16T09:57:49.000Z</time>
        <extensions>
          <ns3:TrackPointExtension>
            <ns3:atemp>19.0</ns3:atemp>
          </ns3:TrackPointExtension>
        </extensions>
      </trkpt>
      <trkpt lat="42.60530141182243824005126953125" lon="19.88352329470217227935791015625">
        <ele>2083.199951171875</ele>
        <time>2026-06-16T09:57:50.000Z</time>
        <extensions>
          <ns3:TrackPointExtension>
            <ns3:atemp>19.0</ns3:atemp>
          </ns3:TrackPointExtension>
        </extensions>
      </trkpt>
      <trkpt lat="42.60529520921409130096435546875" lon="19.88354542292654514312744140625">
        <ele>2083.39990234375</ele>
        <time>2026-06-16T09:57:51.000Z</time>
        <extensions>
          <ns3:TrackPointExtension>
            <ns3:atemp>19.0</ns3:atemp>
          </ns3:TrackPointExtension>
        </extensions>
      </trkpt>
      <trkpt lat="42.605287916958332061767578125" lon="19.88356101326644420623779296875">
        <ele>2083.800048828125</ele>
        <time>2026-06-16T09:57:52.000Z</time>
        <extensions>
          <ns3:TrackPointExtension>
            <ns3:atemp>19.0</ns3:atemp>
          </ns3:TrackPointExtension>
        </extensions>
      </trkpt>
      <trkpt lat="42.60527911596000194549560546875" lon="19.88357283174991607666015625">
        <ele>2084</ele>
        <time>2026-06-16T09:57:53.000Z</time>
        <extensions>
          <ns3:TrackPointExtension>
            <ns3:atemp>19.0</ns3:atemp>
          </ns3:TrackPointExtension>
        </extensions>
      </trkpt>
      <trkpt lat="42.6052686385810375213623046875" lon="19.88358599133789539337158203125">
        <ele>2084.39990234375</ele>
        <time>2026-06-16T09:57:54.000Z</time>
        <extensions>
          <ns3:TrackPointExtension>
            <ns3:atemp>19.0</ns3:atemp>
          </ns3:TrackPointExtension>
        </extensions>
      </trkpt>
      <trkpt lat="42.6052518747746944427490234375" lon="19.88359621725976467132568359375">
        <ele>2084.800048828125</ele>
        <time>2026-06-16T09:57:55.000Z</time>
        <extensions>
          <ns3:TrackPointExtension>
            <ns3:atemp>19.0</ns3:atemp>
          </ns3:TrackPointExtension>
        </extensions>
      </trkpt>
      <trkpt lat="42.60524542070925235748291015625" lon="19.8836031742393970489501953125">
        <ele>2085.199951171875</ele>
        <time>2026-06-16T09:57:56.000Z</time>
        <extensions>
          <ns3:TrackPointExtension>
            <ns3:atemp>19.0</ns3:atemp>
          </ns3:TrackPointExtension>
        </extensions>
      </trkpt>
      <trkpt lat="42.6052455045282840728759765625" lon="19.8836031742393970489501953125">
        <ele>2085.60009765625</ele>
        <time>2026-06-16T09:57:57.000Z</time>
        <extensions>
          <ns3:TrackPointExtension>
            <ns3:atemp>19.0</ns3:atemp>
          </ns3:TrackPointExtension>
        </extensions>
      </trkpt>
      <trkpt lat="42.6052455045282840728759765625" lon="19.88360309042036533355712890625">
        <ele>2086</ele>
        <time>2026-06-16T09:57:58.000Z</time>
        <extensions>
          <ns3:TrackPointExtension>
            <ns3:atemp>19.0</ns3:atemp>
          </ns3:TrackPointExtension>
        </extensions>
      </trkpt>
      <trkpt lat="42.60524374432861804962158203125" lon="19.8836095444858074188232421875">
        <ele>2086.39990234375</ele>
        <time>2026-06-16T09:57:59.000Z</time>
        <extensions>
          <ns3:TrackPointExtension>
            <ns3:atemp>19.0</ns3:atemp>
          </ns3:TrackPointExtension>
        </extensions>
      </trkpt>
      <trkpt lat="42.6052414812147617340087890625" lon="19.883615076541900634765625">
        <ele>2086.60009765625</ele>
        <time>2026-06-16T09:58:00.000Z</time>
        <extensions>
          <ns3:TrackPointExtension>
            <ns3:atemp>19.0</ns3:atemp>
          </ns3:TrackPointExtension>
        </extensions>
      </trkpt>
      <trkpt lat="42.60523729026317596435546875" lon="19.88362723030149936676025390625">
        <ele>2086.60009765625</ele>
        <time>2026-06-16T09:58:01.000Z</time>
        <extensions>
          <ns3:TrackPointExtension>
            <ns3:atemp>19.0</ns3:atemp>
          </ns3:TrackPointExtension>
        </extensions>
      </trkpt>
      <trkpt lat="42.6052387990057468414306640625" lon="19.88363184034824371337890625">
        <ele>2086.800048828125</ele>
        <time>2026-06-16T09:58:02.000Z</time>
        <extensions>
          <ns3:TrackPointExtension>
            <ns3:atemp>19.0</ns3:atemp>
          </ns3:TrackPointExtension>
        </extensions>
      </trkpt>
      <trkpt lat="42.6052371226251125335693359375" lon="19.8836333490908145904541015625">
        <ele>2087</ele>
        <time>2026-06-16T09:58:03.000Z</time>
        <extensions>
          <ns3:TrackPointExtension>
            <ns3:atemp>19.0</ns3:atemp>
          </ns3:TrackPointExtension>
        </extensions>
      </trkpt>
      <trkpt lat="42.60523720644414424896240234375" lon="19.88363343290984630584716796875">
        <ele>2087</ele>
        <time>2026-06-16T09:58:04.000Z</time>
        <extensions>
          <ns3:TrackPointExtension>
            <ns3:atemp>19.0</ns3:atemp>
          </ns3:TrackPointExtension>
        </extensions>
      </trkpt>
      <trkpt lat="42.60523720644414424896240234375" lon="19.88363343290984630584716796875">
        <ele>2087.199951171875</ele>
        <time>2026-06-16T09:58:05.000Z</time>
        <extensions>
          <ns3:TrackPointExtension>
            <ns3:atemp>19.0</ns3:atemp>
          </ns3:TrackPointExtension>
        </extensions>
      </trkpt>
      <trkpt lat="42.60523720644414424896240234375" lon="19.88363343290984630584716796875">
        <ele>2087.199951171875</ele>
        <time>2026-06-16T09:58:06.000Z</time>
        <extensions>
          <ns3:TrackPointExtension>
            <ns3:atemp>19.0</ns3:atemp>
          </ns3:TrackPointExtension>
        </extensions>
      </trkpt>
      <trkpt lat="42.60523720644414424896240234375" lon="19.88363343290984630584716796875">
        <ele>2087.39990234375</ele>
        <time>2026-06-16T09:58:07.000Z</time>
        <extensions>
          <ns3:TrackPointExtension>
            <ns3:atemp>19.0</ns3:atemp>
          </ns3:TrackPointExtension>
        </extensions>
      </trkpt>
      <trkpt lat="42.60523720644414424896240234375" lon="19.88363343290984630584716796875">
        <ele>2087.39990234375</ele>
        <time>2026-06-16T09:58:08.000Z</time>
        <extensions>
          <ns3:TrackPointExtension>
            <ns3:atemp>19.0</ns3:atemp>
          </ns3:TrackPointExtension>
        </extensions>
      </trkpt>
      <trkpt lat="42.60523720644414424896240234375" lon="19.88363343290984630584716796875">
        <ele>2087.39990234375</ele>
        <time>2026-06-16T09:58:09.000Z</time>
        <extensions>
          <ns3:TrackPointExtension>
            <ns3:atemp>19.0</ns3:atemp>
          </ns3:TrackPointExtension>
        </extensions>
      </trkpt>
      <trkpt lat="42.60523729026317596435546875" lon="19.88363460637629032135009765625">
        <ele>2087.39990234375</ele>
        <time>2026-06-16T09:58:10.000Z</time>
        <extensions>
          <ns3:TrackPointExtension>
            <ns3:atemp>19.0</ns3:atemp>
          </ns3:TrackPointExtension>
        </extensions>
      </trkpt>
      <trkpt lat="42.60523687116801738739013671875" lon="19.883650951087474822998046875">
        <ele>2087.39990234375</ele>
        <time>2026-06-16T09:58:11.000Z</time>
        <extensions>
          <ns3:TrackPointExtension>
            <ns3:atemp>19.0</ns3:atemp>
          </ns3:TrackPointExtension>
        </extensions>
      </trkpt>
      <trkpt lat="42.60523586533963680267333984375" lon="19.88366293720901012420654296875">
        <ele>2087.39990234375</ele>
        <time>2026-06-16T09:58:12.000Z</time>
        <extensions>
          <ns3:TrackPointExtension>
            <ns3:atemp>19.0</ns3:atemp>
          </ns3:TrackPointExtension>
        </extensions>
      </trkpt>
      <trkpt lat="42.60522966273128986358642578125" lon="19.88366964273154735565185546875">
        <ele>2087.39990234375</ele>
        <time>2026-06-16T09:58:13.000Z</time>
        <extensions>
          <ns3:TrackPointExtension>
            <ns3:atemp>19.0</ns3:atemp>
          </ns3:TrackPointExtension>
        </extensions>
      </trkpt>
      <trkpt lat="42.60521641932427883148193359375" lon="19.8836729116737842559814453125">
        <ele>2087.39990234375</ele>
        <time>2026-06-16T09:58:14.000Z</time>
        <extensions>
          <ns3:TrackPointExtension>
            <ns3:atemp>19.0</ns3:atemp>
          </ns3:TrackPointExtension>
        </extensions>
      </trkpt>
      <trkpt lat="42.60521113872528076171875" lon="19.88367701880633831024169921875">
        <ele>2087.60009765625</ele>
        <time>2026-06-16T09:58:15.000Z</time>
        <extensions>
          <ns3:TrackPointExtension>
            <ns3:atemp>19.0</ns3:atemp>
          </ns3:TrackPointExtension>
        </extensions>
      </trkpt>
      <trkpt lat="42.60520786978304386138916015625" lon="19.8836759291589260101318359375">
        <ele>2087.800048828125</ele>
        <time>2026-06-16T09:58:16.000Z</time>
        <extensions>
          <ns3:TrackPointExtension>
            <ns3:atemp>19.0</ns3:atemp>
          </ns3:TrackPointExtension>
        </extensions>
      </trkpt>
      <trkpt lat="42.60520778596401214599609375" lon="19.88367609679698944091796875">
        <ele>2088</ele>
        <time>2026-06-16T09:58:17.000Z</time>
        <extensions>
          <ns3:TrackPointExtension>
            <ns3:atemp>19.0</ns3:atemp>
          </ns3:TrackPointExtension>
        </extensions>
      </trkpt>
      <trkpt lat="42.60519973933696746826171875" lon="19.88368590362370014190673828125">
        <ele>2088.199951171875</ele>
        <time>2026-06-16T09:58:18.000Z</time>
        <extensions>
          <ns3:TrackPointExtension>
            <ns3:atemp>19.0</ns3:atemp>
          </ns3:TrackPointExtension>
        </extensions>
      </trkpt>
      <trkpt lat="42.605196051299571990966796875" lon="19.88368816673755645751953125">
        <ele>2088.39990234375</ele>
        <time>2026-06-16T09:58:19.000Z</time>
        <extensions>
          <ns3:TrackPointExtension>
            <ns3:atemp>19.0</ns3:atemp>
          </ns3:TrackPointExtension>
        </extensions>
      </trkpt>
      <trkpt lat="42.60519479401409626007080078125" lon="19.8836913518607616424560546875">
        <ele>2088.60009765625</ele>
        <time>2026-06-16T09:58:20.000Z</time>
        <extensions>
          <ns3:TrackPointExtension>
            <ns3:atemp>19.0</ns3:atemp>
          </ns3:TrackPointExtension>
        </extensions>
      </trkpt>
      <trkpt lat="42.60519571602344512939453125" lon="19.88369294442236423492431640625">
        <ele>2088.60009765625</ele>
        <time>2026-06-16T09:58:21.000Z</time>
        <extensions>
          <ns3:TrackPointExtension>
            <ns3:atemp>19.0</ns3:atemp>
          </ns3:TrackPointExtension>
        </extensions>
      </trkpt>
      <trkpt lat="42.60519571602344512939453125" lon="19.88369294442236423492431640625">
        <ele>2088.800048828125</ele>
        <time>2026-06-16T09:58:22.000Z</time>
        <extensions>
          <ns3:TrackPointExtension>
            <ns3:atemp>19.0</ns3:atemp>
          </ns3:TrackPointExtension>
        </extensions>
      </trkpt>
      <trkpt lat="42.6051955483853816986083984375" lon="19.883693195879459381103515625">
        <ele>2088.800048828125</ele>
        <time>2026-06-16T09:58:23.000Z</time>
        <extensions>
          <ns3:TrackPointExtension>
            <ns3:atemp>19.0</ns3:atemp>
          </ns3:TrackPointExtension>
        </extensions>
      </trkpt>
      <trkpt lat="42.60518607683479785919189453125" lon="19.883708618581295013427734375">
        <ele>2088.800048828125</ele>
        <time>2026-06-16T09:58:24.000Z</time>
        <extensions>
          <ns3:TrackPointExtension>
            <ns3:atemp>19.0</ns3:atemp>
          </ns3:TrackPointExtension>
        </extensions>
      </trkpt>
      <trkpt lat="42.60517828166484832763671875" lon="19.883718006312847137451171875">
        <ele>2089</ele>
        <time>2026-06-16T09:58:25.000Z</time>
        <extensions>
          <ns3:TrackPointExtension>
            <ns3:atemp>19.0</ns3:atemp>
          </ns3:TrackPointExtension>
        </extensions>
      </trkpt>
      <trkpt lat="42.60516889393329620361328125" lon="19.88373016007244586944580078125">
        <ele>2089</ele>
        <time>2026-06-16T09:58:26.000Z</time>
        <extensions>
          <ns3:TrackPointExtension>
            <ns3:atemp>19.0</ns3:atemp>
          </ns3:TrackPointExtension>
        </extensions>
      </trkpt>
      <trkpt lat="42.605158500373363494873046875" lon="19.88373720087110996246337890625">
        <ele>2089.199951171875</ele>
        <time>2026-06-16T09:58:27.000Z</time>
        <extensions>
          <ns3:TrackPointExtension>
            <ns3:atemp>19.0</ns3:atemp>
          </ns3:TrackPointExtension>
        </extensions>
      </trkpt>
      <trkpt lat="42.6051486097276210784912109375" lon="19.88373904488980770111083984375">
        <ele>2089.39990234375</ele>
        <time>2026-06-16T09:58:28.000Z</time>
        <extensions>
          <ns3:TrackPointExtension>
            <ns3:atemp>19.0</ns3:atemp>
          </ns3:TrackPointExtension>
        </extensions>
      </trkpt>
      <trkpt lat="42.60514182038605213165283203125" lon="19.88373912870883941650390625">
        <ele>2089.60009765625</ele>
        <time>2026-06-16T09:58:29.000Z</time>
        <extensions>
          <ns3:TrackPointExtension>
            <ns3:atemp>19.0</ns3:atemp>
          </ns3:TrackPointExtension>
        </extensions>
      </trkpt>
      <trkpt lat="42.605130672454833984375" lon="19.88374608568847179412841796875">
        <ele>2089.800048828125</ele>
        <time>2026-06-16T09:58:30.000Z</time>
        <extensions>
          <ns3:TrackPointExtension>
            <ns3:atemp>19.0</ns3:atemp>
          </ns3:TrackPointExtension>
        </extensions>
      </trkpt>
      <trkpt lat="42.60512136854231357574462890625" lon="19.8837523721158504486083984375">
        <ele>2090.199951171875</ele>
        <time>2026-06-16T09:58:31.000Z</time>
        <extensions>
          <ns3:TrackPointExtension>
            <ns3:atemp>19.0</ns3:atemp>
          </ns3:TrackPointExtension>
        </extensions>
      </trkpt>
      <trkpt lat="42.60511097498238086700439453125" lon="19.8837585747241973876953125">
        <ele>2090.39990234375</ele>
        <time>2026-06-16T09:58:32.000Z</time>
        <extensions>
          <ns3:TrackPointExtension>
            <ns3:atemp>19.0</ns3:atemp>
          </ns3:TrackPointExtension>
        </extensions>
      </trkpt>
      <trkpt lat="42.605112232267856597900390625" lon="19.88375832326710224151611328125">
        <ele>2090.60009765625</ele>
        <time>2026-06-16T09:58:33.000Z</time>
        <extensions>
          <ns3:TrackPointExtension>
            <ns3:atemp>19.0</ns3:atemp>
          </ns3:TrackPointExtension>
        </extensions>
      </trkpt>
      <trkpt lat="42.60510728694498538970947265625" lon="19.88375924527645111083984375">
        <ele>2091</ele>
        <time>2026-06-16T09:58:34.000Z</time>
        <extensions>
          <ns3:TrackPointExtension>
            <ns3:atemp>19.0</ns3:atemp>
          </ns3:TrackPointExtension>
        </extensions>
      </trkpt>
      <trkpt lat="42.6051051914691925048828125" lon="19.88376326858997344970703125">
        <ele>2091.199951171875</ele>
        <time>2026-06-16T09:58:35.000Z</time>
        <extensions>
          <ns3:TrackPointExtension>
            <ns3:atemp>19.0</ns3:atemp>
          </ns3:TrackPointExtension>
        </extensions>
      </trkpt>
      <trkpt lat="42.605104185640811920166015625" lon="19.8837657831609249114990234375">
        <ele>2091.39990234375</ele>
        <time>2026-06-16T09:58:36.000Z</time>
        <extensions>
          <ns3:TrackPointExtension>
            <ns3:atemp>19.0</ns3:atemp>
          </ns3:TrackPointExtension>
        </extensions>
      </trkpt>
      <trkpt lat="42.6051016710698604583740234375" lon="19.88377106375992298126220703125">
        <ele>2091.60009765625</ele>
        <time>2026-06-16T09:58:37.000Z</time>
        <extensions>
          <ns3:TrackPointExtension>
            <ns3:atemp>19.0</ns3:atemp>
          </ns3:TrackPointExtension>
        </extensions>
      </trkpt>
      <trkpt lat="42.6050971448421478271484375" lon="19.88377257250249385833740234375">
        <ele>2091.60009765625</ele>
        <time>2026-06-16T09:58:38.000Z</time>
        <extensions>
          <ns3:TrackPointExtension>
            <ns3:atemp>19.0</ns3:atemp>
          </ns3:TrackPointExtension>
        </extensions>
      </trkpt>
      <trkpt lat="42.60509320534765720367431640625" lon="19.8837785236537456512451171875">
        <ele>2091.800048828125</ele>
        <time>2026-06-16T09:58:39.000Z</time>
        <extensions>
          <ns3:TrackPointExtension>
            <ns3:atemp>19.0</ns3:atemp>
          </ns3:TrackPointExtension>
        </extensions>
      </trkpt>
      <trkpt lat="42.60508532635867595672607421875" lon="19.88378296606242656707763671875">
        <ele>2091.800048828125</ele>
        <time>2026-06-16T09:58:40.000Z</time>
        <extensions>
          <ns3:TrackPointExtension>
            <ns3:atemp>19.0</ns3:atemp>
          </ns3:TrackPointExtension>
        </extensions>
      </trkpt>
      <trkpt lat="42.60508381761610507965087890625" lon="19.883783049881458282470703125">
        <ele>2091.800048828125</ele>
        <time>2026-06-16T09:58:41.000Z</time>
        <extensions>
          <ns3:TrackPointExtension>
            <ns3:atemp>19.0</ns3:atemp>
          </ns3:TrackPointExtension>
        </extensions>
      </trkpt>
      <trkpt lat="42.60508381761610507965087890625" lon="19.88378296606242656707763671875">
        <ele>2091.800048828125</ele>
        <time>2026-06-16T09:58:42.000Z</time>
        <extensions>
          <ns3:TrackPointExtension>
            <ns3:atemp>19.0</ns3:atemp>
          </ns3:TrackPointExtension>
        </extensions>
      </trkpt>
      <trkpt lat="42.60508381761610507965087890625" lon="19.88378296606242656707763671875">
        <ele>2091.800048828125</ele>
        <time>2026-06-16T09:58:43.000Z</time>
        <extensions>
          <ns3:TrackPointExtension>
            <ns3:atemp>19.0</ns3:atemp>
          </ns3:TrackPointExtension>
        </extensions>
      </trkpt>
      <trkpt lat="42.60508381761610507965087890625" lon="19.88378296606242656707763671875">
        <ele>2091.800048828125</ele>
        <time>2026-06-16T09:58:44.000Z</time>
        <extensions>
          <ns3:TrackPointExtension>
            <ns3:atemp>19.0</ns3:atemp>
          </ns3:TrackPointExtension>
        </extensions>
      </trkpt>
      <trkpt lat="42.6050837337970733642578125" lon="19.88378296606242656707763671875">
        <ele>2092</ele>
        <time>2026-06-16T09:58:45.000Z</time>
        <extensions>
          <ns3:TrackPointExtension>
            <ns3:atemp>19.0</ns3:atemp>
          </ns3:TrackPointExtension>
        </extensions>
      </trkpt>
      <trkpt lat="42.60507593862712383270263671875" lon="19.88379335962235927581787109375">
        <ele>2092</ele>
        <time>2026-06-16T09:58:46.000Z</time>
        <extensions>
          <ns3:TrackPointExtension>
            <ns3:atemp>19.0</ns3:atemp>
          </ns3:TrackPointExtension>
        </extensions>
      </trkpt>
      <trkpt lat="42.60506504215300083160400390625" lon="19.883809871971607208251953125">
        <ele>2092</ele>
        <time>2026-06-16T09:58:47.000Z</time>
        <extensions>
          <ns3:TrackPointExtension>
            <ns3:atemp>19.0</ns3:atemp>
          </ns3:TrackPointExtension>
        </extensions>
      </trkpt>
      <trkpt lat="42.6050547324120998382568359375" lon="19.8838328383862972259521484375">
        <ele>2091.800048828125</ele>
        <time>2026-06-16T09:58:48.000Z</time>
        <extensions>
          <ns3:TrackPointExtension>
            <ns3:atemp>19.0</ns3:atemp>
          </ns3:TrackPointExtension>
        </extensions>
      </trkpt>
      <trkpt lat="42.605042159557342529296875" lon="19.8838603310286998748779296875">
        <ele>2091.800048828125</ele>
        <time>2026-06-16T09:58:49.000Z</time>
        <extensions>
          <ns3:TrackPointExtension>
            <ns3:atemp>19.0</ns3:atemp>
          </ns3:TrackPointExtension>
        </extensions>
      </trkpt>
      <trkpt lat="42.60503889061510562896728515625" lon="19.88387399353086948394775390625">
        <ele>2091.60009765625</ele>
        <time>2026-06-16T09:58:50.000Z</time>
        <extensions>
          <ns3:TrackPointExtension>
            <ns3:atemp>19.0</ns3:atemp>
          </ns3:TrackPointExtension>
        </extensions>
      </trkpt>
      <trkpt lat="42.60503419674932956695556640625" lon="19.88388799130916595458984375">
        <ele>2091.60009765625</ele>
        <time>2026-06-16T09:58:51.000Z</time>
        <extensions>
          <ns3:TrackPointExtension>
            <ns3:atemp>19.0</ns3:atemp>
          </ns3:TrackPointExtension>
        </extensions>
      </trkpt>
      <trkpt lat="42.605030424892902374267578125" lon="19.8839082755148410797119140625">
        <ele>2091.60009765625</ele>
        <time>2026-06-16T09:58:52.000Z</time>
        <extensions>
          <ns3:TrackPointExtension>
            <ns3:atemp>19.0</ns3:atemp>
          </ns3:TrackPointExtension>
        </extensions>
      </trkpt>
      <trkpt lat="42.60502665303647518157958984375" lon="19.88392462022602558135986328125">
        <ele>2091.60009765625</ele>
        <time>2026-06-16T09:58:53.000Z</time>
        <extensions>
          <ns3:TrackPointExtension>
            <ns3:atemp>19.0</ns3:atemp>
          </ns3:TrackPointExtension>
        </extensions>
      </trkpt>
      <trkpt lat="42.6050193607807159423828125" lon="19.8839350976049900054931640625">
        <ele>2091.800048828125</ele>
        <time>2026-06-16T09:58:54.000Z</time>
        <extensions>
          <ns3:TrackPointExtension>
            <ns3:atemp>19.0</ns3:atemp>
          </ns3:TrackPointExtension>
        </extensions>
      </trkpt>
      <trkpt lat="42.6050121523439884185791015625" lon="19.88394607789814472198486328125">
        <ele>2092</ele>
        <time>2026-06-16T09:58:55.000Z</time>
        <extensions>
          <ns3:TrackPointExtension>
            <ns3:atemp>19.0</ns3:atemp>
          </ns3:TrackPointExtension>
        </extensions>
      </trkpt>
      <trkpt lat="42.6050014235079288482666015625" lon="19.8839649371802806854248046875">
        <ele>2092</ele>
        <time>2026-06-16T09:58:56.000Z</time>
        <extensions>
          <ns3:TrackPointExtension>
            <ns3:atemp>19.0</ns3:atemp>
          </ns3:TrackPointExtension>
        </extensions>
      </trkpt>
      <trkpt lat="42.60499077849090099334716796875" lon="19.88399251364171504974365234375">
        <ele>2092</ele>
        <time>2026-06-16T09:58:57.000Z</time>
        <extensions>
          <ns3:TrackPointExtension>
            <ns3:atemp>19.0</ns3:atemp>
          </ns3:TrackPointExtension>
        </extensions>
      </trkpt>
      <trkpt lat="42.60499044321477413177490234375" lon="19.8840080201625823974609375">
        <ele>2092</ele>
        <time>2026-06-16T09:58:58.000Z</time>
        <extensions>
          <ns3:TrackPointExtension>
            <ns3:atemp>19.0</ns3:atemp>
          </ns3:TrackPointExtension>
        </extensions>
      </trkpt>
      <trkpt lat="42.604987509548664093017578125" lon="19.88403207622468471527099609375">
        <ele>2092.199951171875</ele>
        <time>2026-06-16T09:58:59.000Z</time>
        <extensions>
          <ns3:TrackPointExtension>
            <ns3:atemp>19.0</ns3:atemp>
          </ns3:TrackPointExtension>
        </extensions>
      </trkpt>
      <trkpt lat="42.6049796305596828460693359375" lon="19.884048588573932647705078125">
        <ele>2092.199951171875</ele>
        <time>2026-06-16T09:59:00.000Z</time>
        <extensions>
          <ns3:TrackPointExtension>
            <ns3:atemp>19.0</ns3:atemp>
          </ns3:TrackPointExtension>
        </extensions>
      </trkpt>
      <trkpt lat="42.6049737632274627685546875" lon="19.8840591497719287872314453125">
        <ele>2092.199951171875</ele>
        <time>2026-06-16T09:59:01.000Z</time>
        <extensions>
          <ns3:TrackPointExtension>
            <ns3:atemp>19.0</ns3:atemp>
          </ns3:TrackPointExtension>
        </extensions>
      </trkpt>
      <trkpt lat="42.604977451264858245849609375" lon="19.8840635083615779876708984375">
        <ele>2092.199951171875</ele>
        <time>2026-06-16T09:59:02.000Z</time>
        <extensions>
          <ns3:TrackPointExtension>
            <ns3:atemp>19.0</ns3:atemp>
          </ns3:TrackPointExtension>
        </extensions>
      </trkpt>
      <trkpt lat="42.6049776189029216766357421875" lon="19.88406367599964141845703125">
        <ele>2092.199951171875</ele>
        <time>2026-06-16T09:59:03.000Z</time>
        <extensions>
          <ns3:TrackPointExtension>
            <ns3:atemp>19.0</ns3:atemp>
          </ns3:TrackPointExtension>
        </extensions>
      </trkpt>
      <trkpt lat="42.60498248040676116943359375" lon="19.88407147116959095001220703125">
        <ele>2092.39990234375</ele>
        <time>2026-06-16T09:59:04.000Z</time>
        <extensions>
          <ns3:TrackPointExtension>
            <ns3:atemp>19.0</ns3:atemp>
          </ns3:TrackPointExtension>
        </extensions>
      </trkpt>
      <trkpt lat="42.60497870855033397674560546875" lon="19.8840802721679210662841796875">
        <ele>2092.60009765625</ele>
        <time>2026-06-16T09:59:05.000Z</time>
        <extensions>
          <ns3:TrackPointExtension>
            <ns3:atemp>19.0</ns3:atemp>
          </ns3:TrackPointExtension>
        </extensions>
      </trkpt>
      <trkpt lat="42.60497552342712879180908203125" lon="19.88408513367176055908203125">
        <ele>2092.60009765625</ele>
        <time>2026-06-16T09:59:06.000Z</time>
        <extensions>
          <ns3:TrackPointExtension>
            <ns3:atemp>19.0</ns3:atemp>
          </ns3:TrackPointExtension>
        </extensions>
      </trkpt>
      <trkpt lat="42.604970075190067291259765625" lon="19.88408605568110942840576171875">
        <ele>2092.800048828125</ele>
        <time>2026-06-16T09:59:07.000Z</time>
        <extensions>
          <ns3:TrackPointExtension>
            <ns3:atemp>19.0</ns3:atemp>
          </ns3:TrackPointExtension>
        </extensions>
      </trkpt>
      <trkpt lat="42.60495926253497600555419921875" lon="19.88409309647977352142333984375">
        <ele>2092.800048828125</ele>
        <time>2026-06-16T09:59:08.000Z</time>
        <extensions>
          <ns3:TrackPointExtension>
            <ns3:atemp>19.0</ns3:atemp>
          </ns3:TrackPointExtension>
        </extensions>
      </trkpt>
      <trkpt lat="42.604947946965694427490234375" lon="19.88410416059195995330810546875">
        <ele>2093</ele>
        <time>2026-06-16T09:59:09.000Z</time>
        <extensions>
          <ns3:TrackPointExtension>
            <ns3:atemp>19.0</ns3:atemp>
          </ns3:TrackPointExtension>
        </extensions>
      </trkpt>
      <trkpt lat="42.60493755340576171875" lon="19.884115643799304962158203125">
        <ele>2093.199951171875</ele>
        <time>2026-06-16T09:59:10.000Z</time>
        <extensions>
          <ns3:TrackPointExtension>
            <ns3:atemp>19.0</ns3:atemp>
          </ns3:TrackPointExtension>
        </extensions>
      </trkpt>
      <trkpt lat="42.6049263216555118560791015625" lon="19.88412410952150821685791015625">
        <ele>2093.199951171875</ele>
        <time>2026-06-16T09:59:11.000Z</time>
        <extensions>
          <ns3:TrackPointExtension>
            <ns3:atemp>19.0</ns3:atemp>
          </ns3:TrackPointExtension>
        </extensions>
      </trkpt>
      <trkpt lat="42.6049119047820568084716796875" lon="19.88413869403302669525146484375">
        <ele>2093.39990234375</ele>
        <time>2026-06-16T09:59:12.000Z</time>
        <extensions>
          <ns3:TrackPointExtension>
            <ns3:atemp>19.0</ns3:atemp>
          </ns3:TrackPointExtension>
        </extensions>
      </trkpt>
      <trkpt lat="42.60489773936569690704345703125" lon="19.8841528594493865966796875">
        <ele>2093.60009765625</ele>
        <time>2026-06-16T09:59:13.000Z</time>
        <extensions>
          <ns3:TrackPointExtension>
            <ns3:atemp>19.0</ns3:atemp>
          </ns3:TrackPointExtension>
        </extensions>
      </trkpt>
      <trkpt lat="42.60488231666386127471923828125" lon="19.88416551612317562103271484375">
        <ele>2094</ele>
        <time>2026-06-16T09:59:14.000Z</time>
        <extensions>
          <ns3:TrackPointExtension>
            <ns3:atemp>19.0</ns3:atemp>
          </ns3:TrackPointExtension>
        </extensions>
      </trkpt>
      <trkpt lat="42.60486722923815250396728515625" lon="19.8841771669685840606689453125">
        <ele>2094.199951171875</ele>
        <time>2026-06-16T09:59:15.000Z</time>
        <extensions>
          <ns3:TrackPointExtension>
            <ns3:atemp>19.0</ns3:atemp>
          </ns3:TrackPointExtension>
        </extensions>
      </trkpt>
      <trkpt lat="42.604854069650173187255859375" lon="19.884186722338199615478515625">
        <ele>2094.60009765625</ele>
        <time>2026-06-16T09:59:16.000Z</time>
        <extensions>
          <ns3:TrackPointExtension>
            <ns3:atemp>19.0</ns3:atemp>
          </ns3:TrackPointExtension>
        </extensions>
      </trkpt>
      <trkpt lat="42.6048404909670352935791015625" lon="19.8841932602226734161376953125">
        <ele>2095</ele>
        <time>2026-06-16T09:59:17.000Z</time>
        <extensions>
          <ns3:TrackPointExtension>
            <ns3:atemp>19.0</ns3:atemp>
          </ns3:TrackPointExtension>
        </extensions>
      </trkpt>
      <trkpt lat="42.6048284210264682769775390625" lon="19.88419242203235626220703125">
        <ele>2095.39990234375</ele>
        <time>2026-06-16T09:59:18.000Z</time>
        <extensions>
          <ns3:TrackPointExtension>
            <ns3:atemp>19.0</ns3:atemp>
          </ns3:TrackPointExtension>
        </extensions>
      </trkpt>
      <trkpt lat="42.60481945239007472991943359375" lon="19.88418638706207275390625">
        <ele>2096</ele>
        <time>2026-06-16T09:59:19.000Z</time>
        <extensions>
          <ns3:TrackPointExtension>
            <ns3:atemp>19.0</ns3:atemp>
          </ns3:TrackPointExtension>
        </extensions>
      </trkpt>
      <trkpt lat="42.6048069633543491363525390625" lon="19.884187392890453338623046875">
        <ele>2096.39990234375</ele>
        <time>2026-06-16T09:59:20.000Z</time>
        <extensions>
          <ns3:TrackPointExtension>
            <ns3:atemp>19.0</ns3:atemp>
          </ns3:TrackPointExtension>
        </extensions>
      </trkpt>
      <trkpt lat="42.6047952286899089813232421875" lon="19.88419376313686370849609375">
        <ele>2096.800048828125</ele>
        <time>2026-06-16T09:59:21.000Z</time>
        <extensions>
          <ns3:TrackPointExtension>
            <ns3:atemp>19.0</ns3:atemp>
          </ns3:TrackPointExtension>
        </extensions>
      </trkpt>
      <trkpt lat="42.60478139854967594146728515625" lon="19.8842143826186656951904296875">
        <ele>2097.39990234375</ele>
        <time>2026-06-16T09:59:22.000Z</time>
        <extensions>
          <ns3:TrackPointExtension>
            <ns3:atemp>19.0</ns3:atemp>
          </ns3:TrackPointExtension>
        </extensions>
      </trkpt>
      <trkpt lat="42.60477326810359954833984375" lon="19.88424028269946575164794921875">
        <ele>2097.800048828125</ele>
        <time>2026-06-16T09:59:23.000Z</time>
        <extensions>
          <ns3:TrackPointExtension>
            <ns3:atemp>19.0</ns3:atemp>
          </ns3:TrackPointExtension>
        </extensions>
      </trkpt>
      <trkpt lat="42.6047684065997600555419921875" lon="19.88426827825605869293212890625">
        <ele>2098.199951171875</ele>
        <time>2026-06-16T09:59:24.000Z</time>
        <extensions>
          <ns3:TrackPointExtension>
            <ns3:atemp>19.0</ns3:atemp>
          </ns3:TrackPointExtension>
        </extensions>
      </trkpt>
      <trkpt lat="42.60476388037204742431640625" lon="19.88429300487041473388671875">
        <ele>2098.800048828125</ele>
        <time>2026-06-16T09:59:25.000Z</time>
        <extensions>
          <ns3:TrackPointExtension>
            <ns3:atemp>19.0</ns3:atemp>
          </ns3:TrackPointExtension>
        </extensions>
      </trkpt>
      <trkpt lat="42.6047543250024318695068359375" lon="19.8843097686767578125">
        <ele>2099.199951171875</ele>
        <time>2026-06-16T09:59:26.000Z</time>
        <extensions>
          <ns3:TrackPointExtension>
            <ns3:atemp>19.0</ns3:atemp>
          </ns3:TrackPointExtension>
        </extensions>
      </trkpt>
      <trkpt lat="42.6047503016889095306396484375" lon="19.8843136243522167205810546875">
        <ele>2099.60009765625</ele>
        <time>2026-06-16T09:59:27.000Z</time>
        <extensions>
          <ns3:TrackPointExtension>
            <ns3:atemp>19.0</ns3:atemp>
          </ns3:TrackPointExtension>
        </extensions>
      </trkpt>
      <trkpt lat="42.6047503016889095306396484375" lon="19.8843136243522167205810546875">
        <ele>2099.800048828125</ele>
        <time>2026-06-16T09:59:28.000Z</time>
        <extensions>
          <ns3:TrackPointExtension>
            <ns3:atemp>19.0</ns3:atemp>
          </ns3:TrackPointExtension>
        </extensions>
      </trkpt>
      <trkpt lat="42.6047503016889095306396484375" lon="19.8843136243522167205810546875">
        <ele>2100.199951171875</ele>
        <time>2026-06-16T09:59:29.000Z</time>
        <extensions>
          <ns3:TrackPointExtension>
            <ns3:atemp>19.0</ns3:atemp>
          </ns3:TrackPointExtension>
        </extensions>
      </trkpt>
      <trkpt lat="42.6047503016889095306396484375" lon="19.8843136243522167205810546875">
        <ele>2100.60009765625</ele>
        <time>2026-06-16T09:59:30.000Z</time>
        <extensions>
          <ns3:TrackPointExtension>
            <ns3:atemp>19.0</ns3:atemp>
          </ns3:TrackPointExtension>
        </extensions>
      </trkpt>
      <trkpt lat="42.6047503016889095306396484375" lon="19.8843136243522167205810546875">
        <ele>2100.800048828125</ele>
        <time>2026-06-16T09:59:31.000Z</time>
        <extensions>
          <ns3:TrackPointExtension>
            <ns3:atemp>19.0</ns3:atemp>
          </ns3:TrackPointExtension>
        </extensions>
      </trkpt>
      <trkpt lat="42.6047503016889095306396484375" lon="19.8843136243522167205810546875">
        <ele>2101</ele>
        <time>2026-06-16T09:59:32.000Z</time>
        <extensions>
          <ns3:TrackPointExtension>
            <ns3:atemp>19.0</ns3:atemp>
          </ns3:TrackPointExtension>
        </extensions>
      </trkpt>
      <trkpt lat="42.6047503016889095306396484375" lon="19.8843136243522167205810546875">
        <ele>2101</ele>
        <time>2026-06-16T09:59:33.000Z</time>
        <extensions>
          <ns3:TrackPointExtension>
            <ns3:atemp>19.0</ns3:atemp>
          </ns3:TrackPointExtension>
        </extensions>
      </trkpt>
      <trkpt lat="42.6047503016889095306396484375" lon="19.8843136243522167205810546875">
        <ele>2101</ele>
        <time>2026-06-16T09:59:34.000Z</time>
        <extensions>
          <ns3:TrackPointExtension>
            <ns3:atemp>19.0</ns3:atemp>
          </ns3:TrackPointExtension>
        </extensions>
      </trkpt>
      <trkpt lat="42.6047503016889095306396484375" lon="19.8843136243522167205810546875">
        <ele>2101</ele>
        <time>2026-06-16T09:59:35.000Z</time>
        <extensions>
          <ns3:TrackPointExtension>
            <ns3:atemp>19.0</ns3:atemp>
          </ns3:TrackPointExtension>
        </extensions>
      </trkpt>
      <trkpt lat="42.6047503016889095306396484375" lon="19.8843136243522167205810546875">
        <ele>2101</ele>
        <time>2026-06-16T09:59:36.000Z</time>
        <extensions>
          <ns3:TrackPointExtension>
            <ns3:atemp>19.0</ns3:atemp>
          </ns3:TrackPointExtension>
        </extensions>
      </trkpt>
      <trkpt lat="42.6047503016889095306396484375" lon="19.8843136243522167205810546875">
        <ele>2101</ele>
        <time>2026-06-16T09:59:37.000Z</time>
        <extensions>
          <ns3:TrackPointExtension>
            <ns3:atemp>19.0</ns3:atemp>
          </ns3:TrackPointExtension>
        </extensions>
      </trkpt>
      <trkpt lat="42.6047503016889095306396484375" lon="19.8843136243522167205810546875">
        <ele>2101</ele>
        <time>2026-06-16T09:59:38.000Z</time>
        <extensions>
          <ns3:TrackPointExtension>
            <ns3:atemp>19.0</ns3:atemp>
          </ns3:TrackPointExtension>
        </extensions>
      </trkpt>
      <trkpt lat="42.60475046932697296142578125" lon="19.88431488163769245147705078125">
        <ele>2101</ele>
        <time>2026-06-16T09:59:39.000Z</time>
        <extensions>
          <ns3:TrackPointExtension>
            <ns3:atemp>19.0</ns3:atemp>
          </ns3:TrackPointExtension>
        </extensions>
      </trkpt>
      <trkpt lat="42.6047503016889095306396484375" lon="19.8843136243522167205810546875">
        <ele>2101.199951171875</ele>
        <time>2026-06-16T09:59:40.000Z</time>
        <extensions>
          <ns3:TrackPointExtension>
            <ns3:atemp>19.0</ns3:atemp>
          </ns3:TrackPointExtension>
        </extensions>
      </trkpt>
      <trkpt lat="42.6047503016889095306396484375" lon="19.8843136243522167205810546875">
        <ele>2101.199951171875</ele>
        <time>2026-06-16T09:59:41.000Z</time>
        <extensions>
          <ns3:TrackPointExtension>
            <ns3:atemp>19.0</ns3:atemp>
          </ns3:TrackPointExtension>
        </extensions>
      </trkpt>
      <trkpt lat="42.6047503016889095306396484375" lon="19.8843136243522167205810546875">
        <ele>2101.199951171875</ele>
        <time>2026-06-16T09:59:42.000Z</time>
        <extensions>
          <ns3:TrackPointExtension>
            <ns3:atemp>19.0</ns3:atemp>
          </ns3:TrackPointExtension>
        </extensions>
      </trkpt>
      <trkpt lat="42.6047533191740512847900390625" lon="19.884320162236690521240234375">
        <ele>2101.199951171875</ele>
        <time>2026-06-16T09:59:43.000Z</time>
        <extensions>
          <ns3:TrackPointExtension>
            <ns3:atemp>19.0</ns3:atemp>
          </ns3:TrackPointExtension>
        </extensions>
      </trkpt>
      <trkpt lat="42.6047499664127826690673828125" lon="19.88433248363435268402099609375">
        <ele>2101.39990234375</ele>
        <time>2026-06-16T09:59:44.000Z</time>
        <extensions>
          <ns3:TrackPointExtension>
            <ns3:atemp>19.0</ns3:atemp>
          </ns3:TrackPointExtension>
        </extensions>
      </trkpt>
      <trkpt lat="42.6047389023005962371826171875" lon="19.8843384347856044769287109375">
        <ele>2101.39990234375</ele>
        <time>2026-06-16T09:59:45.000Z</time>
        <extensions>
          <ns3:TrackPointExtension>
            <ns3:atemp>19.0</ns3:atemp>
          </ns3:TrackPointExtension>
        </extensions>
      </trkpt>
      <trkpt lat="42.60472691617906093597412109375" lon="19.88434799015522003173828125">
        <ele>2101.39990234375</ele>
        <time>2026-06-16T09:59:46.000Z</time>
        <extensions>
          <ns3:TrackPointExtension>
            <ns3:atemp>19.0</ns3:atemp>
          </ns3:TrackPointExtension>
        </extensions>
      </trkpt>
      <trkpt lat="42.60472004301846027374267578125" lon="19.88435980863869190216064453125">
        <ele>2101.39990234375</ele>
        <time>2026-06-16T09:59:47.000Z</time>
        <extensions>
          <ns3:TrackPointExtension>
            <ns3:atemp>19.0</ns3:atemp>
          </ns3:TrackPointExtension>
        </extensions>
      </trkpt>
      <trkpt lat="42.60471870191395282745361328125" lon="19.88437372259795665740966796875">
        <ele>2101.60009765625</ele>
        <time>2026-06-16T09:59:48.000Z</time>
        <extensions>
          <ns3:TrackPointExtension>
            <ns3:atemp>19.0</ns3:atemp>
          </ns3:TrackPointExtension>
        </extensions>
      </trkpt>
      <trkpt lat="42.6047147624194622039794921875" lon="19.88439400680363178253173828125">
        <ele>2101.800048828125</ele>
        <time>2026-06-16T09:59:49.000Z</time>
        <extensions>
          <ns3:TrackPointExtension>
            <ns3:atemp>19.0</ns3:atemp>
          </ns3:TrackPointExtension>
        </extensions>
      </trkpt>
      <trkpt lat="42.6047080568969249725341796875" lon="19.88441563211381435394287109375">
        <ele>2102.199951171875</ele>
        <time>2026-06-16T09:59:50.000Z</time>
        <extensions>
          <ns3:TrackPointExtension>
            <ns3:atemp>19.0</ns3:atemp>
          </ns3:TrackPointExtension>
        </extensions>
      </trkpt>
      <trkpt lat="42.6047057099640369415283203125" lon="19.88443172536790370941162109375">
        <ele>2102.39990234375</ele>
        <time>2026-06-16T09:59:51.000Z</time>
        <extensions>
          <ns3:TrackPointExtension>
            <ns3:atemp>19.0</ns3:atemp>
          </ns3:TrackPointExtension>
        </extensions>
      </trkpt>
      <trkpt lat="42.6046993397176265716552734375" lon="19.88444580696523189544677734375">
        <ele>2102.60009765625</ele>
        <time>2026-06-16T09:59:52.000Z</time>
        <extensions>
          <ns3:TrackPointExtension>
            <ns3:atemp>19.0</ns3:atemp>
          </ns3:TrackPointExtension>
        </extensions>
      </trkpt>
      <trkpt lat="42.6046889461576938629150390625" lon="19.88446072675287723541259765625">
        <ele>2103</ele>
        <time>2026-06-16T09:59:53.000Z</time>
        <extensions>
          <ns3:TrackPointExtension>
            <ns3:atemp>19.0</ns3:atemp>
          </ns3:TrackPointExtension>
        </extensions>
      </trkpt>
      <trkpt lat="42.6046758703887462615966796875" lon="19.8844618164002895355224609375">
        <ele>2103.39990234375</ele>
        <time>2026-06-16T09:59:54.000Z</time>
        <extensions>
          <ns3:TrackPointExtension>
            <ns3:atemp>19.0</ns3:atemp>
          </ns3:TrackPointExtension>
        </extensions>
      </trkpt>
      <trkpt lat="42.604662962257862091064453125" lon="19.8844561167061328887939453125">
        <ele>2103.800048828125</ele>
        <time>2026-06-16T09:59:55.000Z</time>
        <extensions>
          <ns3:TrackPointExtension>
            <ns3:atemp>19.0</ns3:atemp>
          </ns3:TrackPointExtension>
        </extensions>
      </trkpt>
      <trkpt lat="42.60464913211762905120849609375" lon="19.8844460584223270416259765625">
        <ele>2104.39990234375</ele>
        <time>2026-06-16T09:59:56.000Z</time>
        <extensions>
          <ns3:TrackPointExtension>
            <ns3:atemp>19.0</ns3:atemp>
          </ns3:TrackPointExtension>
        </extensions>
      </trkpt>
      <trkpt lat="42.60463437996804714202880859375" lon="19.88443088717758655548095703125">
        <ele>2104.800048828125</ele>
        <time>2026-06-16T09:59:57.000Z</time>
        <extensions>
          <ns3:TrackPointExtension>
            <ns3:atemp>19.0</ns3:atemp>
          </ns3:TrackPointExtension>
        </extensions>
      </trkpt>
      <trkpt lat="42.604618035256862640380859375" lon="19.88442015834152698516845703125">
        <ele>2105.199951171875</ele>
        <time>2026-06-16T09:59:58.000Z</time>
        <extensions>
          <ns3:TrackPointExtension>
            <ns3:atemp>19.0</ns3:atemp>
          </ns3:TrackPointExtension>
        </extensions>
      </trkpt>
      <trkpt lat="42.60460269637405872344970703125" lon="19.88441043533384799957275390625">
        <ele>2105.800048828125</ele>
        <time>2026-06-16T09:59:59.000Z</time>
        <extensions>
          <ns3:TrackPointExtension>
            <ns3:atemp>19.0</ns3:atemp>
          </ns3:TrackPointExtension>
        </extensions>
      </trkpt>
      <trkpt lat="42.60458978824317455291748046875" lon="19.8843944258987903594970703125">
        <ele>2106.199951171875</ele>
        <time>2026-06-16T10:00:00.000Z</time>
        <extensions>
          <ns3:TrackPointExtension>
            <ns3:atemp>19.0</ns3:atemp>
          </ns3:TrackPointExtension>
        </extensions>
      </trkpt>
      <trkpt lat="42.60457553900778293609619140625" lon="19.88437774591147899627685546875">
        <ele>2106.60009765625</ele>
        <time>2026-06-16T10:00:01.000Z</time>
        <extensions>
          <ns3:TrackPointExtension>
            <ns3:atemp>19.0</ns3:atemp>
          </ns3:TrackPointExtension>
        </extensions>
      </trkpt>
      <trkpt lat="42.60455743409693241119384765625" lon="19.884372465312480926513671875">
        <ele>2107.199951171875</ele>
        <time>2026-06-16T10:00:02.000Z</time>
        <extensions>
          <ns3:TrackPointExtension>
            <ns3:atemp>19.0</ns3:atemp>
          </ns3:TrackPointExtension>
        </extensions>
      </trkpt>
      <trkpt lat="42.60453748516738414764404296875" lon="19.88436785526573657989501953125">
        <ele>2107.60009765625</ele>
        <time>2026-06-16T10:00:03.000Z</time>
        <extensions>
          <ns3:TrackPointExtension>
            <ns3:atemp>19.0</ns3:atemp>
          </ns3:TrackPointExtension>
        </extensions>
      </trkpt>
      <trkpt lat="42.604521475732326507568359375" lon="19.88435804843902587890625">
        <ele>2108</ele>
        <time>2026-06-16T10:00:04.000Z</time>
        <extensions>
          <ns3:TrackPointExtension>
            <ns3:atemp>19.0</ns3:atemp>
          </ns3:TrackPointExtension>
        </extensions>
      </trkpt>
      <trkpt lat="42.604510076344013214111328125" lon="19.88435394130647182464599609375">
        <ele>2108.60009765625</ele>
        <time>2026-06-16T10:00:05.000Z</time>
        <extensions>
          <ns3:TrackPointExtension>
            <ns3:atemp>19.0</ns3:atemp>
          </ns3:TrackPointExtension>
        </extensions>
      </trkpt>
      <trkpt lat="42.60449700057506561279296875" lon="19.8843458108603954315185546875">
        <ele>2109</ele>
        <time>2026-06-16T10:00:06.000Z</time>
        <extensions>
          <ns3:TrackPointExtension>
            <ns3:atemp>19.0</ns3:atemp>
          </ns3:TrackPointExtension>
        </extensions>
      </trkpt>
      <trkpt lat="42.60448166169226169586181640625" lon="19.8843397758901119232177734375">
        <ele>2109.60009765625</ele>
        <time>2026-06-16T10:00:07.000Z</time>
        <extensions>
          <ns3:TrackPointExtension>
            <ns3:atemp>19.0</ns3:atemp>
          </ns3:TrackPointExtension>
        </extensions>
      </trkpt>
      <trkpt lat="42.604465819895267486572265625" lon="19.88432846032083034515380859375">
        <ele>2110.199951171875</ele>
        <time>2026-06-16T10:00:08.000Z</time>
        <extensions>
          <ns3:TrackPointExtension>
            <ns3:atemp>19.0</ns3:atemp>
          </ns3:TrackPointExtension>
        </extensions>
      </trkpt>
      <trkpt lat="42.60445534251630306243896484375" lon="19.8843142949044704437255859375">
        <ele>2110.800048828125</ele>
        <time>2026-06-16T10:00:09.000Z</time>
        <extensions>
          <ns3:TrackPointExtension>
            <ns3:atemp>19.0</ns3:atemp>
          </ns3:TrackPointExtension>
        </extensions>
      </trkpt>
      <trkpt lat="42.60444595478475093841552734375" lon="19.88429761491715908050537109375">
        <ele>2111.199951171875</ele>
        <time>2026-06-16T10:00:10.000Z</time>
        <extensions>
          <ns3:TrackPointExtension>
            <ns3:atemp>19.0</ns3:atemp>
          </ns3:TrackPointExtension>
        </extensions>
      </trkpt>
      <trkpt lat="42.604438327252864837646484375" lon="19.884283952414989471435546875">
        <ele>2111.800048828125</ele>
        <time>2026-06-16T10:00:11.000Z</time>
        <extensions>
          <ns3:TrackPointExtension>
            <ns3:atemp>19.0</ns3:atemp>
          </ns3:TrackPointExtension>
        </extensions>
      </trkpt>
      <trkpt lat="42.60442919097840785980224609375" lon="19.88426827825605869293212890625">
        <ele>2112.39990234375</ele>
        <time>2026-06-16T10:00:12.000Z</time>
        <extensions>
          <ns3:TrackPointExtension>
            <ns3:atemp>19.0</ns3:atemp>
          </ns3:TrackPointExtension>
        </extensions>
      </trkpt>
      <trkpt lat="42.604419887065887451171875" lon="19.88425218500196933746337890625">
        <ele>2113</ele>
        <time>2026-06-16T10:00:13.000Z</time>
        <extensions>
          <ns3:TrackPointExtension>
            <ns3:atemp>19.0</ns3:atemp>
          </ns3:TrackPointExtension>
        </extensions>
      </trkpt>
      <trkpt lat="42.6044103316962718963623046875" lon="19.8842334933578968048095703125">
        <ele>2113.800048828125</ele>
        <time>2026-06-16T10:00:14.000Z</time>
        <extensions>
          <ns3:TrackPointExtension>
            <ns3:atemp>19.0</ns3:atemp>
          </ns3:TrackPointExtension>
        </extensions>
      </trkpt>
      <trkpt lat="42.60439583100378513336181640625" lon="19.88422058522701263427734375">
        <ele>2114.39990234375</ele>
        <time>2026-06-16T10:00:15.000Z</time>
        <extensions>
          <ns3:TrackPointExtension>
            <ns3:atemp>19.0</ns3:atemp>
          </ns3:TrackPointExtension>
        </extensions>
      </trkpt>
      <trkpt lat="42.6043814979493618011474609375" lon="19.88420717418193817138671875">
        <ele>2114.800048828125</ele>
        <time>2026-06-16T10:00:16.000Z</time>
        <extensions>
          <ns3:TrackPointExtension>
            <ns3:atemp>19.0</ns3:atemp>
          </ns3:TrackPointExtension>
        </extensions>
      </trkpt>
      <trkpt lat="42.60436649434268474578857421875" lon="19.88418965600430965423583984375">
        <ele>2115.39990234375</ele>
        <time>2026-06-16T10:00:17.000Z</time>
        <extensions>
          <ns3:TrackPointExtension>
            <ns3:atemp>19.0</ns3:atemp>
          </ns3:TrackPointExtension>
        </extensions>
      </trkpt>
      <trkpt lat="42.604352496564388275146484375" lon="19.88417356275022029876708984375">
        <ele>2116</ele>
        <time>2026-06-16T10:00:18.000Z</time>
        <extensions>
          <ns3:TrackPointExtension>
            <ns3:atemp>19.0</ns3:atemp>
          </ns3:TrackPointExtension>
        </extensions>
      </trkpt>
      <trkpt lat="42.60433740913867950439453125" lon="19.88415948115289211273193359375">
        <ele>2116.60009765625</ele>
        <time>2026-06-16T10:00:19.000Z</time>
        <extensions>
          <ns3:TrackPointExtension>
            <ns3:atemp>19.0</ns3:atemp>
          </ns3:TrackPointExtension>
        </extensions>
      </trkpt>
      <trkpt lat="42.6043208129703998565673828125" lon="19.88414724357426166534423828125">
        <ele>2117.39990234375</ele>
        <time>2026-06-16T10:00:20.000Z</time>
        <extensions>
          <ns3:TrackPointExtension>
            <ns3:atemp>19.0</ns3:atemp>
          </ns3:TrackPointExtension>
        </extensions>
      </trkpt>
      <trkpt lat="42.6043045520782470703125" lon="19.88413835875689983367919921875">
        <ele>2118.199951171875</ele>
        <time>2026-06-16T10:00:21.000Z</time>
        <extensions>
          <ns3:TrackPointExtension>
            <ns3:atemp>19.0</ns3:atemp>
          </ns3:TrackPointExtension>
        </extensions>
      </trkpt>
      <trkpt lat="42.6042933203279972076416015625" lon="19.88413936458528041839599609375">
        <ele>2118.800048828125</ele>
        <time>2026-06-16T10:00:22.000Z</time>
        <extensions>
          <ns3:TrackPointExtension>
            <ns3:atemp>19.0</ns3:atemp>
          </ns3:TrackPointExtension>
        </extensions>
      </trkpt>
      <trkpt lat="42.60427848435938358306884765625" lon="19.88415126688778400421142578125">
        <ele>2119.39990234375</ele>
        <time>2026-06-16T10:00:23.000Z</time>
        <extensions>
          <ns3:TrackPointExtension>
            <ns3:atemp>19.0</ns3:atemp>
          </ns3:TrackPointExtension>
        </extensions>
      </trkpt>
      <trkpt lat="42.60426306165754795074462890625" lon="19.88417322747409343719482421875">
        <ele>2120</ele>
        <time>2026-06-16T10:00:24.000Z</time>
        <extensions>
          <ns3:TrackPointExtension>
            <ns3:atemp>19.0</ns3:atemp>
          </ns3:TrackPointExtension>
        </extensions>
      </trkpt>
      <trkpt lat="42.60424981825053691864013671875" lon="19.88418797962367534637451171875">
        <ele>2120.60009765625</ele>
        <time>2026-06-16T10:00:25.000Z</time>
        <extensions>
          <ns3:TrackPointExtension>
            <ns3:atemp>19.0</ns3:atemp>
          </ns3:TrackPointExtension>
        </extensions>
      </trkpt>
      <trkpt lat="42.6042376644909381866455078125" lon="19.88419912755489349365234375">
        <ele>2121.199951171875</ele>
        <time>2026-06-16T10:00:26.000Z</time>
        <extensions>
          <ns3:TrackPointExtension>
            <ns3:atemp>19.0</ns3:atemp>
          </ns3:TrackPointExtension>
        </extensions>
      </trkpt>
      <trkpt lat="42.604223750531673431396484375" lon="19.884211532771587371826171875">
        <ele>2121.800048828125</ele>
        <time>2026-06-16T10:00:27.000Z</time>
        <extensions>
          <ns3:TrackPointExtension>
            <ns3:atemp>19.0</ns3:atemp>
          </ns3:TrackPointExtension>
        </extensions>
      </trkpt>
      <trkpt lat="42.60420941747725009918212890625" lon="19.884226284921169281005859375">
        <ele>2122.39990234375</ele>
        <time>2026-06-16T10:00:28.000Z</time>
        <extensions>
          <ns3:TrackPointExtension>
            <ns3:atemp>19.0</ns3:atemp>
          </ns3:TrackPointExtension>
        </extensions>
      </trkpt>
      <trkpt lat="42.60419634170830249786376953125" lon="19.8842482455074787139892578125">
        <ele>2122.800048828125</ele>
        <time>2026-06-16T10:00:29.000Z</time>
        <extensions>
          <ns3:TrackPointExtension>
            <ns3:atemp>19.0</ns3:atemp>
          </ns3:TrackPointExtension>
        </extensions>
      </trkpt>
      <trkpt lat="42.604186199605464935302734375" lon="19.88427163101732730865478515625">
        <ele>2123.39990234375</ele>
        <time>2026-06-16T10:00:30.000Z</time>
        <extensions>
          <ns3:TrackPointExtension>
            <ns3:atemp>19.0</ns3:atemp>
          </ns3:TrackPointExtension>
        </extensions>
      </trkpt>
      <trkpt lat="42.6041803322732448577880859375" lon="19.8842931725084781646728515625">
        <ele>2123.800048828125</ele>
        <time>2026-06-16T10:00:31.000Z</time>
        <extensions>
          <ns3:TrackPointExtension>
            <ns3:atemp>19.0</ns3:atemp>
          </ns3:TrackPointExtension>
        </extensions>
      </trkpt>
      <trkpt lat="42.6041744649410247802734375" lon="19.8843179829418659210205078125">
        <ele>2124.39990234375</ele>
        <time>2026-06-16T10:00:32.000Z</time>
        <extensions>
          <ns3:TrackPointExtension>
            <ns3:atemp>19.0</ns3:atemp>
          </ns3:TrackPointExtension>
        </extensions>
      </trkpt>
      <trkpt lat="42.6041696034371852874755859375" lon="19.88433952443301677703857421875">
        <ele>2125</ele>
        <time>2026-06-16T10:00:33.000Z</time>
        <extensions>
          <ns3:TrackPointExtension>
            <ns3:atemp>19.0</ns3:atemp>
          </ns3:TrackPointExtension>
        </extensions>
      </trkpt>
      <trkpt lat="42.60416080243885517120361328125" lon="19.8843598924577236175537109375">
        <ele>2125.60009765625</ele>
        <time>2026-06-16T10:00:34.000Z</time>
        <extensions>
          <ns3:TrackPointExtension>
            <ns3:atemp>19.0</ns3:atemp>
          </ns3:TrackPointExtension>
        </extensions>
      </trkpt>
      <trkpt lat="42.6041478104889392852783203125" lon="19.8843749798834323883056640625">
        <ele>2126.199951171875</ele>
        <time>2026-06-16T10:00:35.000Z</time>
        <extensions>
          <ns3:TrackPointExtension>
            <ns3:atemp>19.0</ns3:atemp>
          </ns3:TrackPointExtension>
        </extensions>
      </trkpt>
      <trkpt lat="42.60413515381515026092529296875" lon="19.8843783326447010040283203125">
        <ele>2126.800048828125</ele>
        <time>2026-06-16T10:00:36.000Z</time>
        <extensions>
          <ns3:TrackPointExtension>
            <ns3:atemp>19.0</ns3:atemp>
          </ns3:TrackPointExtension>
        </extensions>
      </trkpt>
      <trkpt lat="42.6041216589510440826416015625" lon="19.88435846753418445587158203125">
        <ele>2127.60009765625</ele>
        <time>2026-06-16T10:00:37.000Z</time>
        <extensions>
          <ns3:TrackPointExtension>
            <ns3:atemp>18.0</ns3:atemp>
          </ns3:TrackPointExtension>
        </extensions>
      </trkpt>
      <trkpt lat="42.60410615243017673492431640625" lon="19.88434237428009510040283203125">
        <ele>2128.199951171875</ele>
        <time>2026-06-16T10:00:38.000Z</time>
        <extensions>
          <ns3:TrackPointExtension>
            <ns3:atemp>18.0</ns3:atemp>
          </ns3:TrackPointExtension>
        </extensions>
      </trkpt>
      <trkpt lat="42.60408972389996051788330078125" lon="19.88433667458593845367431640625">
        <ele>2129</ele>
        <time>2026-06-16T10:00:39.000Z</time>
        <extensions>
          <ns3:TrackPointExtension>
            <ns3:atemp>18.0</ns3:atemp>
          </ns3:TrackPointExtension>
        </extensions>
      </trkpt>
      <trkpt lat="42.60407798923552036285400390625" lon="19.88433231599628925323486328125">
        <ele>2129.60009765625</ele>
        <time>2026-06-16T10:00:40.000Z</time>
        <extensions>
          <ns3:TrackPointExtension>
            <ns3:atemp>18.0</ns3:atemp>
          </ns3:TrackPointExtension>
        </extensions>
      </trkpt>
      <trkpt lat="42.60406256653368473052978515625" lon="19.88433047197759151458740234375">
        <ele>2130</ele>
        <time>2026-06-16T10:00:41.000Z</time>
        <extensions>
          <ns3:TrackPointExtension>
            <ns3:atemp>18.0</ns3:atemp>
          </ns3:TrackPointExtension>
        </extensions>
      </trkpt>
      <trkpt lat="42.60406374000012874603271484375" lon="19.884335584938526153564453125">
        <ele>2130.60009765625</ele>
        <time>2026-06-16T10:00:42.000Z</time>
        <extensions>
          <ns3:TrackPointExtension>
            <ns3:atemp>18.0</ns3:atemp>
          </ns3:TrackPointExtension>
        </extensions>
      </trkpt>
      <trkpt lat="42.604063488543033599853515625" lon="19.88434053026139736175537109375">
        <ele>2131.199951171875</ele>
        <time>2026-06-16T10:00:43.000Z</time>
        <extensions>
          <ns3:TrackPointExtension>
            <ns3:atemp>19.0</ns3:atemp>
          </ns3:TrackPointExtension>
        </extensions>
      </trkpt>
      <trkpt lat="42.60406340472400188446044921875" lon="19.8843406140804290771484375">
        <ele>2131.60009765625</ele>
        <time>2026-06-16T10:00:44.000Z</time>
        <extensions>
          <ns3:TrackPointExtension>
            <ns3:atemp>18.0</ns3:atemp>
          </ns3:TrackPointExtension>
        </extensions>
      </trkpt>
      <trkpt lat="42.604058124125003814697265625" lon="19.8843354173004627227783203125">
        <ele>2132</ele>
        <time>2026-06-16T10:00:45.000Z</time>
        <extensions>
          <ns3:TrackPointExtension>
            <ns3:atemp>18.0</ns3:atemp>
          </ns3:TrackPointExtension>
        </extensions>
      </trkpt>
      <trkpt lat="42.6040572859346866607666015625" lon="19.8843270353972911834716796875">
        <ele>2132.39990234375</ele>
        <time>2026-06-16T10:00:46.000Z</time>
        <extensions>
          <ns3:TrackPointExtension>
            <ns3:atemp>18.0</ns3:atemp>
          </ns3:TrackPointExtension>
        </extensions>
      </trkpt>
      <trkpt lat="42.6040549390017986297607421875" lon="19.88431957550346851348876953125">
        <ele>2132.60009765625</ele>
        <time>2026-06-16T10:00:47.000Z</time>
        <extensions>
          <ns3:TrackPointExtension>
            <ns3:atemp>19.0</ns3:atemp>
          </ns3:TrackPointExtension>
        </extensions>
      </trkpt>
      <trkpt lat="42.60405301116406917572021484375" lon="19.884308092296123504638671875">
        <ele>2132.60009765625</ele>
        <time>2026-06-16T10:00:48.000Z</time>
        <extensions>
          <ns3:TrackPointExtension>
            <ns3:atemp>19.0</ns3:atemp>
          </ns3:TrackPointExtension>
        </extensions>
      </trkpt>
      <trkpt lat="42.60404664091765880584716796875" lon="19.884307421743869781494140625">
        <ele>2132.60009765625</ele>
        <time>2026-06-16T10:00:49.000Z</time>
        <extensions>
          <ns3:TrackPointExtension>
            <ns3:atemp>18.0</ns3:atemp>
          </ns3:TrackPointExtension>
        </extensions>
      </trkpt>
      <trkpt lat="42.6040405221283435821533203125" lon="19.8842998780310153961181640625">
        <ele>2132.800048828125</ele>
        <time>2026-06-16T10:00:50.000Z</time>
        <extensions>
          <ns3:TrackPointExtension>
            <ns3:atemp>18.0</ns3:atemp>
          </ns3:TrackPointExtension>
        </extensions>
      </trkpt>
      <trkpt lat="42.60403960011899471282958984375" lon="19.88429694436490535736083984375">
        <ele>2132.800048828125</ele>
        <time>2026-06-16T10:00:51.000Z</time>
        <extensions>
          <ns3:TrackPointExtension>
            <ns3:atemp>18.0</ns3:atemp>
          </ns3:TrackPointExtension>
        </extensions>
      </trkpt>
      <trkpt lat="42.60403960011899471282958984375" lon="19.88429694436490535736083984375">
        <ele>2133</ele>
        <time>2026-06-16T10:00:52.000Z</time>
        <extensions>
          <ns3:TrackPointExtension>
            <ns3:atemp>18.0</ns3:atemp>
          </ns3:TrackPointExtension>
        </extensions>
      </trkpt>
      <trkpt lat="42.6040395162999629974365234375" lon="19.88429677672684192657470703125">
        <ele>2133.199951171875</ele>
        <time>2026-06-16T10:00:53.000Z</time>
        <extensions>
          <ns3:TrackPointExtension>
            <ns3:atemp>18.0</ns3:atemp>
          </ns3:TrackPointExtension>
        </extensions>
      </trkpt>
      <trkpt lat="42.60403960011899471282958984375" lon="19.88429694436490535736083984375">
        <ele>2133.199951171875</ele>
        <time>2026-06-16T10:00:54.000Z</time>
        <extensions>
          <ns3:TrackPointExtension>
            <ns3:atemp>18.0</ns3:atemp>
          </ns3:TrackPointExtension>
        </extensions>
      </trkpt>
      <trkpt lat="42.60403960011899471282958984375" lon="19.88429694436490535736083984375">
        <ele>2133.39990234375</ele>
        <time>2026-06-16T10:00:55.000Z</time>
        <extensions>
          <ns3:TrackPointExtension>
            <ns3:atemp>18.0</ns3:atemp>
          </ns3:TrackPointExtension>
        </extensions>
      </trkpt>
      <trkpt lat="42.60403641499578952789306640625" lon="19.884291999042034149169921875">
        <ele>2133.60009765625</ele>
        <time>2026-06-16T10:00:56.000Z</time>
        <extensions>
          <ns3:TrackPointExtension>
            <ns3:atemp>18.0</ns3:atemp>
          </ns3:TrackPointExtension>
        </extensions>
      </trkpt>
      <trkpt lat="42.60403960011899471282958984375" lon="19.88429694436490535736083984375">
        <ele>2133.60009765625</ele>
        <time>2026-06-16T10:00:57.000Z</time>
        <extensions>
          <ns3:TrackPointExtension>
            <ns3:atemp>18.0</ns3:atemp>
          </ns3:TrackPointExtension>
        </extensions>
      </trkpt>
      <trkpt lat="42.604035325348377227783203125" lon="19.88428956829011440277099609375">
        <ele>2133.60009765625</ele>
        <time>2026-06-16T10:00:58.000Z</time>
        <extensions>
          <ns3:TrackPointExtension>
            <ns3:atemp>18.0</ns3:atemp>
          </ns3:TrackPointExtension>
        </extensions>
      </trkpt>
      <trkpt lat="42.60403960011899471282958984375" lon="19.88429694436490535736083984375">
        <ele>2133.800048828125</ele>
        <time>2026-06-16T10:00:59.000Z</time>
        <extensions>
          <ns3:TrackPointExtension>
            <ns3:atemp>18.0</ns3:atemp>
          </ns3:TrackPointExtension>
        </extensions>
      </trkpt>
      <trkpt lat="42.60403960011899471282958984375" lon="19.88429694436490535736083984375">
        <ele>2133.800048828125</ele>
        <time>2026-06-16T10:01:00.000Z</time>
        <extensions>
          <ns3:TrackPointExtension>
            <ns3:atemp>18.0</ns3:atemp>
          </ns3:TrackPointExtension>
        </extensions>
      </trkpt>
      <trkpt lat="42.60403960011899471282958984375" lon="19.88429694436490535736083984375">
        <ele>2133.800048828125</ele>
        <time>2026-06-16T10:01:01.000Z</time>
        <extensions>
          <ns3:TrackPointExtension>
            <ns3:atemp>18.0</ns3:atemp>
          </ns3:TrackPointExtension>
        </extensions>
      </trkpt>
      <trkpt lat="42.60403960011899471282958984375" lon="19.88429694436490535736083984375">
        <ele>2134</ele>
        <time>2026-06-16T10:01:02.000Z</time>
        <extensions>
          <ns3:TrackPointExtension>
            <ns3:atemp>18.0</ns3:atemp>
          </ns3:TrackPointExtension>
        </extensions>
      </trkpt>
      <trkpt lat="42.604031972587108612060546875" lon="19.88428629934787750244140625">
        <ele>2134</ele>
        <time>2026-06-16T10:01:03.000Z</time>
        <extensions>
          <ns3:TrackPointExtension>
            <ns3:atemp>18.0</ns3:atemp>
          </ns3:TrackPointExtension>
        </extensions>
      </trkpt>
      <trkpt lat="42.6040281169116497039794921875" lon="19.88427431322634220123291015625">
        <ele>2134</ele>
        <time>2026-06-16T10:01:04.000Z</time>
        <extensions>
          <ns3:TrackPointExtension>
            <ns3:atemp>18.0</ns3:atemp>
          </ns3:TrackPointExtension>
        </extensions>
      </trkpt>
      <trkpt lat="42.60402803309261798858642578125" lon="19.88427020609378814697265625">
        <ele>2134</ele>
        <time>2026-06-16T10:01:05.000Z</time>
        <extensions>
          <ns3:TrackPointExtension>
            <ns3:atemp>18.0</ns3:atemp>
          </ns3:TrackPointExtension>
        </extensions>
      </trkpt>
      <trkpt lat="42.604027949273586273193359375" lon="19.88427012227475643157958984375">
        <ele>2134.199951171875</ele>
        <time>2026-06-16T10:01:06.000Z</time>
        <extensions>
          <ns3:TrackPointExtension>
            <ns3:atemp>18.0</ns3:atemp>
          </ns3:TrackPointExtension>
        </extensions>
      </trkpt>
      <trkpt lat="42.604027949273586273193359375" lon="19.88427012227475643157958984375">
        <ele>2134.199951171875</ele>
        <time>2026-06-16T10:01:07.000Z</time>
        <extensions>
          <ns3:TrackPointExtension>
            <ns3:atemp>18.0</ns3:atemp>
          </ns3:TrackPointExtension>
        </extensions>
      </trkpt>
      <trkpt lat="42.6040277816355228424072265625" lon="19.884269870817661285400390625">
        <ele>2134.199951171875</ele>
        <time>2026-06-16T10:01:08.000Z</time>
        <extensions>
          <ns3:TrackPointExtension>
            <ns3:atemp>18.0</ns3:atemp>
          </ns3:TrackPointExtension>
        </extensions>
      </trkpt>
      <trkpt lat="42.60402266867458820343017578125" lon="19.8842572979629039764404296875">
        <ele>2134.199951171875</ele>
        <time>2026-06-16T10:01:09.000Z</time>
        <extensions>
          <ns3:TrackPointExtension>
            <ns3:atemp>18.0</ns3:atemp>
          </ns3:TrackPointExtension>
        </extensions>
      </trkpt>
      <trkpt lat="42.60402166284620761871337890625" lon="19.8842512629926204681396484375">
        <ele>2134.199951171875</ele>
        <time>2026-06-16T10:01:10.000Z</time>
        <extensions>
          <ns3:TrackPointExtension>
            <ns3:atemp>18.0</ns3:atemp>
          </ns3:TrackPointExtension>
        </extensions>
      </trkpt>
      <trkpt lat="42.6040163822472095489501953125" lon="19.8842442221939563751220703125">
        <ele>2134.39990234375</ele>
        <time>2026-06-16T10:01:11.000Z</time>
        <extensions>
          <ns3:TrackPointExtension>
            <ns3:atemp>18.0</ns3:atemp>
          </ns3:TrackPointExtension>
        </extensions>
      </trkpt>
      <trkpt lat="42.604012526571750640869140625" lon="19.884236343204975128173828125">
        <ele>2134.39990234375</ele>
        <time>2026-06-16T10:01:12.000Z</time>
        <extensions>
          <ns3:TrackPointExtension>
            <ns3:atemp>18.0</ns3:atemp>
          </ns3:TrackPointExtension>
        </extensions>
      </trkpt>
      <trkpt lat="42.6040056534111499786376953125" lon="19.88422821275889873504638671875">
        <ele>2134.39990234375</ele>
        <time>2026-06-16T10:01:13.000Z</time>
        <extensions>
          <ns3:TrackPointExtension>
            <ns3:atemp>18.0</ns3:atemp>
          </ns3:TrackPointExtension>
        </extensions>
      </trkpt>
      <trkpt lat="42.60399945080280303955078125" lon="19.884216226637363433837890625">
        <ele>2134.60009765625</ele>
        <time>2026-06-16T10:01:14.000Z</time>
        <extensions>
          <ns3:TrackPointExtension>
            <ns3:atemp>18.0</ns3:atemp>
          </ns3:TrackPointExtension>
        </extensions>
      </trkpt>
      <trkpt lat="42.60399400256574153900146484375" lon="19.884205162525177001953125">
        <ele>2134.800048828125</ele>
        <time>2026-06-16T10:01:15.000Z</time>
        <extensions>
          <ns3:TrackPointExtension>
            <ns3:atemp>18.0</ns3:atemp>
          </ns3:TrackPointExtension>
        </extensions>
      </trkpt>
      <trkpt lat="42.60398310609161853790283203125" lon="19.8841946013271808624267578125">
        <ele>2134.800048828125</ele>
        <time>2026-06-16T10:01:16.000Z</time>
        <extensions>
          <ns3:TrackPointExtension>
            <ns3:atemp>18.0</ns3:atemp>
          </ns3:TrackPointExtension>
        </extensions>
      </trkpt>
      <trkpt lat="42.603980340063571929931640625" lon="19.88418378867208957672119140625">
        <ele>2135</ele>
        <time>2026-06-16T10:01:17.000Z</time>
        <extensions>
          <ns3:TrackPointExtension>
            <ns3:atemp>18.0</ns3:atemp>
          </ns3:TrackPointExtension>
        </extensions>
      </trkpt>
      <trkpt lat="42.60397740639746189117431640625" lon="19.8841724731028079986572265625">
        <ele>2135</ele>
        <time>2026-06-16T10:01:18.000Z</time>
        <extensions>
          <ns3:TrackPointExtension>
            <ns3:atemp>18.0</ns3:atemp>
          </ns3:TrackPointExtension>
        </extensions>
      </trkpt>
      <trkpt lat="42.60397824458777904510498046875" lon="19.8841637559235095977783203125">
        <ele>2135.199951171875</ele>
        <time>2026-06-16T10:01:19.000Z</time>
        <extensions>
          <ns3:TrackPointExtension>
            <ns3:atemp>18.0</ns3:atemp>
          </ns3:TrackPointExtension>
        </extensions>
      </trkpt>
      <trkpt lat="42.6039714552462100982666015625" lon="19.8841583915054798126220703125">
        <ele>2135.39990234375</ele>
        <time>2026-06-16T10:01:20.000Z</time>
        <extensions>
          <ns3:TrackPointExtension>
            <ns3:atemp>18.0</ns3:atemp>
          </ns3:TrackPointExtension>
        </extensions>
      </trkpt>
      <trkpt lat="42.603966929018497467041015625" lon="19.88415084779262542724609375">
        <ele>2135.39990234375</ele>
        <time>2026-06-16T10:01:21.000Z</time>
        <extensions>
          <ns3:TrackPointExtension>
            <ns3:atemp>18.0</ns3:atemp>
          </ns3:TrackPointExtension>
        </extensions>
      </trkpt>
      <trkpt lat="42.6039624027907848358154296875" lon="19.884140789508819580078125">
        <ele>2135.60009765625</ele>
        <time>2026-06-16T10:01:22.000Z</time>
        <extensions>
          <ns3:TrackPointExtension>
            <ns3:atemp>18.0</ns3:atemp>
          </ns3:TrackPointExtension>
        </extensions>
      </trkpt>
      <trkpt lat="42.60395846329629421234130859375" lon="19.88413047976791858673095703125">
        <ele>2135.60009765625</ele>
        <time>2026-06-16T10:01:23.000Z</time>
        <extensions>
          <ns3:TrackPointExtension>
            <ns3:atemp>18.0</ns3:atemp>
          </ns3:TrackPointExtension>
        </extensions>
      </trkpt>
      <trkpt lat="42.60395787656307220458984375" lon="19.8841287195682525634765625">
        <ele>2135.800048828125</ele>
        <time>2026-06-16T10:01:24.000Z</time>
        <extensions>
          <ns3:TrackPointExtension>
            <ns3:atemp>18.0</ns3:atemp>
          </ns3:TrackPointExtension>
        </extensions>
      </trkpt>
      <trkpt lat="42.60395779274404048919677734375" lon="19.8841288872063159942626953125">
        <ele>2136</ele>
        <time>2026-06-16T10:01:25.000Z</time>
        <extensions>
          <ns3:TrackPointExtension>
            <ns3:atemp>18.0</ns3:atemp>
          </ns3:TrackPointExtension>
        </extensions>
      </trkpt>
      <trkpt lat="42.6039577089250087738037109375" lon="19.884129054844379425048828125">
        <ele>2136</ele>
        <time>2026-06-16T10:01:26.000Z</time>
        <extensions>
          <ns3:TrackPointExtension>
            <ns3:atemp>18.0</ns3:atemp>
          </ns3:TrackPointExtension>
        </extensions>
      </trkpt>
      <trkpt lat="42.6039600558578968048095703125" lon="19.8841367661952972412109375">
        <ele>2136.199951171875</ele>
        <time>2026-06-16T10:01:27.000Z</time>
        <extensions>
          <ns3:TrackPointExtension>
            <ns3:atemp>18.0</ns3:atemp>
          </ns3:TrackPointExtension>
        </extensions>
      </trkpt>
      <trkpt lat="42.60395561344921588897705078125" lon="19.88413953222334384918212890625">
        <ele>2136.39990234375</ele>
        <time>2026-06-16T10:01:28.000Z</time>
        <extensions>
          <ns3:TrackPointExtension>
            <ns3:atemp>18.0</ns3:atemp>
          </ns3:TrackPointExtension>
        </extensions>
      </trkpt>
      <trkpt lat="42.60395779274404048919677734375" lon="19.8841288872063159942626953125">
        <ele>2136.39990234375</ele>
        <time>2026-06-16T10:01:29.000Z</time>
        <extensions>
          <ns3:TrackPointExtension>
            <ns3:atemp>18.0</ns3:atemp>
          </ns3:TrackPointExtension>
        </extensions>
      </trkpt>
      <trkpt lat="42.60395779274404048919677734375" lon="19.8841288872063159942626953125">
        <ele>2136.60009765625</ele>
        <time>2026-06-16T10:01:30.000Z</time>
        <extensions>
          <ns3:TrackPointExtension>
            <ns3:atemp>18.0</ns3:atemp>
          </ns3:TrackPointExtension>
        </extensions>
      </trkpt>
      <trkpt lat="42.60395779274404048919677734375" lon="19.8841288872063159942626953125">
        <ele>2136.60009765625</ele>
        <time>2026-06-16T10:01:31.000Z</time>
        <extensions>
          <ns3:TrackPointExtension>
            <ns3:atemp>18.0</ns3:atemp>
          </ns3:TrackPointExtension>
        </extensions>
      </trkpt>
      <trkpt lat="42.60395779274404048919677734375" lon="19.8841288872063159942626953125">
        <ele>2136.60009765625</ele>
        <time>2026-06-16T10:01:32.000Z</time>
        <extensions>
          <ns3:TrackPointExtension>
            <ns3:atemp>18.0</ns3:atemp>
          </ns3:TrackPointExtension>
        </extensions>
      </trkpt>
      <trkpt lat="42.60395779274404048919677734375" lon="19.8841288872063159942626953125">
        <ele>2136.60009765625</ele>
        <time>2026-06-16T10:01:33.000Z</time>
        <extensions>
          <ns3:TrackPointExtension>
            <ns3:atemp>18.0</ns3:atemp>
          </ns3:TrackPointExtension>
        </extensions>
      </trkpt>
      <trkpt lat="42.60395779274404048919677734375" lon="19.8841288872063159942626953125">
        <ele>2136.60009765625</ele>
        <time>2026-06-16T10:01:34.000Z</time>
        <extensions>
          <ns3:TrackPointExtension>
            <ns3:atemp>18.0</ns3:atemp>
          </ns3:TrackPointExtension>
        </extensions>
      </trkpt>
      <trkpt lat="42.60395209304988384246826171875" lon="19.88414187915623188018798828125">
        <ele>2136.800048828125</ele>
        <time>2026-06-16T10:01:35.000Z</time>
        <extensions>
          <ns3:TrackPointExtension>
            <ns3:atemp>18.0</ns3:atemp>
          </ns3:TrackPointExtension>
        </extensions>
      </trkpt>
      <trkpt lat="42.60395779274404048919677734375" lon="19.8841288872063159942626953125">
        <ele>2136.60009765625</ele>
        <time>2026-06-16T10:01:36.000Z</time>
        <extensions>
          <ns3:TrackPointExtension>
            <ns3:atemp>18.0</ns3:atemp>
          </ns3:TrackPointExtension>
        </extensions>
      </trkpt>
      <trkpt lat="42.60395779274404048919677734375" lon="19.8841288872063159942626953125">
        <ele>2136.60009765625</ele>
        <time>2026-06-16T10:01:37.000Z</time>
        <extensions>
          <ns3:TrackPointExtension>
            <ns3:atemp>18.0</ns3:atemp>
          </ns3:TrackPointExtension>
        </extensions>
      </trkpt>
      <trkpt lat="42.60395779274404048919677734375" lon="19.8841288872063159942626953125">
        <ele>2136.60009765625</ele>
        <time>2026-06-16T10:01:38.000Z</time>
        <extensions>
          <ns3:TrackPointExtension>
            <ns3:atemp>18.0</ns3:atemp>
          </ns3:TrackPointExtension>
        </extensions>
      </trkpt>
      <trkpt lat="42.60395779274404048919677734375" lon="19.8841288872063159942626953125">
        <ele>2136.60009765625</ele>
        <time>2026-06-16T10:01:39.000Z</time>
        <extensions>
          <ns3:TrackPointExtension>
            <ns3:atemp>18.0</ns3:atemp>
          </ns3:TrackPointExtension>
        </extensions>
      </trkpt>
      <trkpt lat="42.60395779274404048919677734375" lon="19.8841288872063159942626953125">
        <ele>2136.60009765625</ele>
        <time>2026-06-16T10:01:40.000Z</time>
        <extensions>
          <ns3:TrackPointExtension>
            <ns3:atemp>18.0</ns3:atemp>
          </ns3:TrackPointExtension>
        </extensions>
      </trkpt>
      <trkpt lat="42.6039513386785984039306640625" lon="19.88414355553686618804931640625">
        <ele>2136.60009765625</ele>
        <time>2026-06-16T10:01:41.000Z</time>
        <extensions>
          <ns3:TrackPointExtension>
            <ns3:atemp>18.0</ns3:atemp>
          </ns3:TrackPointExtension>
        </extensions>
      </trkpt>
      <trkpt lat="42.60394035838544368743896484375" lon="19.8841406218707561492919921875">
        <ele>2136.800048828125</ele>
        <time>2026-06-16T10:01:42.000Z</time>
        <extensions>
          <ns3:TrackPointExtension>
            <ns3:atemp>18.0</ns3:atemp>
          </ns3:TrackPointExtension>
        </extensions>
      </trkpt>
      <trkpt lat="42.60393935255706310272216796875" lon="19.88413752056658267974853515625">
        <ele>2136.800048828125</ele>
        <time>2026-06-16T10:01:43.000Z</time>
        <extensions>
          <ns3:TrackPointExtension>
            <ns3:atemp>18.0</ns3:atemp>
          </ns3:TrackPointExtension>
        </extensions>
      </trkpt>
      <trkpt lat="42.6039392687380313873291015625" lon="19.88413743674755096435546875">
        <ele>2137</ele>
        <time>2026-06-16T10:01:44.000Z</time>
        <extensions>
          <ns3:TrackPointExtension>
            <ns3:atemp>18.0</ns3:atemp>
          </ns3:TrackPointExtension>
        </extensions>
      </trkpt>
      <trkpt lat="42.6039392687380313873291015625" lon="19.88413743674755096435546875">
        <ele>2137.199951171875</ele>
        <time>2026-06-16T10:01:45.000Z</time>
        <extensions>
          <ns3:TrackPointExtension>
            <ns3:atemp>18.0</ns3:atemp>
          </ns3:TrackPointExtension>
        </extensions>
      </trkpt>
      <trkpt lat="42.6039392687380313873291015625" lon="19.88413743674755096435546875">
        <ele>2137.199951171875</ele>
        <time>2026-06-16T10:01:46.000Z</time>
        <extensions>
          <ns3:TrackPointExtension>
            <ns3:atemp>18.0</ns3:atemp>
          </ns3:TrackPointExtension>
        </extensions>
      </trkpt>
      <trkpt lat="42.60393910109996795654296875" lon="19.88413701765239238739013671875">
        <ele>2137.199951171875</ele>
        <time>2026-06-16T10:01:47.000Z</time>
        <extensions>
          <ns3:TrackPointExtension>
            <ns3:atemp>18.0</ns3:atemp>
          </ns3:TrackPointExtension>
        </extensions>
      </trkpt>
      <trkpt lat="42.60392837226390838623046875" lon="19.88411866128444671630859375">
        <ele>2137.39990234375</ele>
        <time>2026-06-16T10:01:48.000Z</time>
        <extensions>
          <ns3:TrackPointExtension>
            <ns3:atemp>18.0</ns3:atemp>
          </ns3:TrackPointExtension>
        </extensions>
      </trkpt>
      <trkpt lat="42.60391764342784881591796875" lon="19.88409929908812046051025390625">
        <ele>2137.39990234375</ele>
        <time>2026-06-16T10:01:49.000Z</time>
        <extensions>
          <ns3:TrackPointExtension>
            <ns3:atemp>18.0</ns3:atemp>
          </ns3:TrackPointExtension>
        </extensions>
      </trkpt>
      <trkpt lat="42.60390716604888439178466796875" lon="19.88408739678561687469482421875">
        <ele>2137.60009765625</ele>
        <time>2026-06-16T10:01:50.000Z</time>
        <extensions>
          <ns3:TrackPointExtension>
            <ns3:atemp>18.0</ns3:atemp>
          </ns3:TrackPointExtension>
        </extensions>
      </trkpt>
      <trkpt lat="42.60389073751866817474365234375" lon="19.8840819485485553741455078125">
        <ele>2137.800048828125</ele>
        <time>2026-06-16T10:01:51.000Z</time>
        <extensions>
          <ns3:TrackPointExtension>
            <ns3:atemp>18.0</ns3:atemp>
          </ns3:TrackPointExtension>
        </extensions>
      </trkpt>
      <trkpt lat="42.60387363843619823455810546875" lon="19.8840765841305255889892578125">
        <ele>2138.199951171875</ele>
        <time>2026-06-16T10:01:52.000Z</time>
        <extensions>
          <ns3:TrackPointExtension>
            <ns3:atemp>18.0</ns3:atemp>
          </ns3:TrackPointExtension>
        </extensions>
      </trkpt>
      <trkpt lat="42.60385461151599884033203125" lon="19.884074069559574127197265625">
        <ele>2138.60009765625</ele>
        <time>2026-06-16T10:01:53.000Z</time>
        <extensions>
          <ns3:TrackPointExtension>
            <ns3:atemp>18.0</ns3:atemp>
          </ns3:TrackPointExtension>
        </extensions>
      </trkpt>
      <trkpt lat="42.60383927263319492340087890625" lon="19.88406845368444919586181640625">
        <ele>2139.199951171875</ele>
        <time>2026-06-16T10:01:54.000Z</time>
        <extensions>
          <ns3:TrackPointExtension>
            <ns3:atemp>18.0</ns3:atemp>
          </ns3:TrackPointExtension>
        </extensions>
      </trkpt>
      <trkpt lat="42.6038230955600738525390625" lon="19.88406375981867313385009765625">
        <ele>2139.800048828125</ele>
        <time>2026-06-16T10:01:55.000Z</time>
        <extensions>
          <ns3:TrackPointExtension>
            <ns3:atemp>18.0</ns3:atemp>
          </ns3:TrackPointExtension>
        </extensions>
      </trkpt>
      <trkpt lat="42.603808678686618804931640625" lon="19.8840621672570705413818359375">
        <ele>2140.199951171875</ele>
        <time>2026-06-16T10:01:56.000Z</time>
        <extensions>
          <ns3:TrackPointExtension>
            <ns3:atemp>18.0</ns3:atemp>
          </ns3:TrackPointExtension>
        </extensions>
      </trkpt>
      <trkpt lat="42.60379300452768802642822265625" lon="19.88406342454254627227783203125">
        <ele>2140.800048828125</ele>
        <time>2026-06-16T10:01:57.000Z</time>
        <extensions>
          <ns3:TrackPointExtension>
            <ns3:atemp>18.0</ns3:atemp>
          </ns3:TrackPointExtension>
        </extensions>
      </trkpt>
      <trkpt lat="42.6037786714732646942138671875" lon="19.88407038152217864990234375">
        <ele>2141.199951171875</ele>
        <time>2026-06-16T10:01:58.000Z</time>
        <extensions>
          <ns3:TrackPointExtension>
            <ns3:atemp>18.0</ns3:atemp>
          </ns3:TrackPointExtension>
        </extensions>
      </trkpt>
      <trkpt lat="42.6037649251520633697509765625" lon="19.88408002071082592010498046875">
        <ele>2141.60009765625</ele>
        <time>2026-06-16T10:01:59.000Z</time>
        <extensions>
          <ns3:TrackPointExtension>
            <ns3:atemp>18.0</ns3:atemp>
          </ns3:TrackPointExtension>
        </extensions>
      </trkpt>
      <trkpt lat="42.603754363954067230224609375" lon="19.88407968543469905853271484375">
        <ele>2142</ele>
        <time>2026-06-16T10:02:00.000Z</time>
        <extensions>
          <ns3:TrackPointExtension>
            <ns3:atemp>18.0</ns3:atemp>
          </ns3:TrackPointExtension>
        </extensions>
      </trkpt>
      <trkpt lat="42.6037515141069889068603515625" lon="19.88408639095723628997802734375">
        <ele>2142.39990234375</ele>
        <time>2026-06-16T10:02:01.000Z</time>
        <extensions>
          <ns3:TrackPointExtension>
            <ns3:atemp>18.0</ns3:atemp>
          </ns3:TrackPointExtension>
        </extensions>
      </trkpt>
      <trkpt lat="42.603748999536037445068359375" lon="19.88409091718494892120361328125">
        <ele>2142.800048828125</ele>
        <time>2026-06-16T10:02:02.000Z</time>
        <extensions>
          <ns3:TrackPointExtension>
            <ns3:atemp>18.0</ns3:atemp>
          </ns3:TrackPointExtension>
        </extensions>
      </trkpt>
      <trkpt lat="42.603748999536037445068359375" lon="19.88409091718494892120361328125">
        <ele>2143</ele>
        <time>2026-06-16T10:02:03.000Z</time>
        <extensions>
          <ns3:TrackPointExtension>
            <ns3:atemp>18.0</ns3:atemp>
          </ns3:TrackPointExtension>
        </extensions>
      </trkpt>
      <trkpt lat="42.603748999536037445068359375" lon="19.88409091718494892120361328125">
        <ele>2143.199951171875</ele>
        <time>2026-06-16T10:02:04.000Z</time>
        <extensions>
          <ns3:TrackPointExtension>
            <ns3:atemp>18.0</ns3:atemp>
          </ns3:TrackPointExtension>
        </extensions>
      </trkpt>
      <trkpt lat="42.603748999536037445068359375" lon="19.88409091718494892120361328125">
        <ele>2143.199951171875</ele>
        <time>2026-06-16T10:02:05.000Z</time>
        <extensions>
          <ns3:TrackPointExtension>
            <ns3:atemp>18.0</ns3:atemp>
          </ns3:TrackPointExtension>
        </extensions>
      </trkpt>
      <trkpt lat="42.603748999536037445068359375" lon="19.88409091718494892120361328125">
        <ele>2143.39990234375</ele>
        <time>2026-06-16T10:02:06.000Z</time>
        <extensions>
          <ns3:TrackPointExtension>
            <ns3:atemp>18.0</ns3:atemp>
          </ns3:TrackPointExtension>
        </extensions>
      </trkpt>
      <trkpt lat="42.603748999536037445068359375" lon="19.88409091718494892120361328125">
        <ele>2143.199951171875</ele>
        <time>2026-06-16T10:02:07.000Z</time>
        <extensions>
          <ns3:TrackPointExtension>
            <ns3:atemp>18.0</ns3:atemp>
          </ns3:TrackPointExtension>
        </extensions>
      </trkpt>
      <trkpt lat="42.603748999536037445068359375" lon="19.88409091718494892120361328125">
        <ele>2143.199951171875</ele>
        <time>2026-06-16T10:02:08.000Z</time>
        <extensions>
          <ns3:TrackPointExtension>
            <ns3:atemp>18.0</ns3:atemp>
          </ns3:TrackPointExtension>
        </extensions>
      </trkpt>
      <trkpt lat="42.603748999536037445068359375" lon="19.88409091718494892120361328125">
        <ele>2143.199951171875</ele>
        <time>2026-06-16T10:02:09.000Z</time>
        <extensions>
          <ns3:TrackPointExtension>
            <ns3:atemp>18.0</ns3:atemp>
          </ns3:TrackPointExtension>
        </extensions>
      </trkpt>
      <trkpt lat="42.603748999536037445068359375" lon="19.88409091718494892120361328125">
        <ele>2143</ele>
        <time>2026-06-16T10:02:10.000Z</time>
        <extensions>
          <ns3:TrackPointExtension>
            <ns3:atemp>18.0</ns3:atemp>
          </ns3:TrackPointExtension>
        </extensions>
      </trkpt>
      <trkpt lat="42.603748999536037445068359375" lon="19.88409091718494892120361328125">
        <ele>2143</ele>
        <time>2026-06-16T10:02:11.000Z</time>
        <extensions>
          <ns3:TrackPointExtension>
            <ns3:atemp>18.0</ns3:atemp>
          </ns3:TrackPointExtension>
        </extensions>
      </trkpt>
      <trkpt lat="42.603748999536037445068359375" lon="19.88409091718494892120361328125">
        <ele>2143</ele>
        <time>2026-06-16T10:02:12.000Z</time>
        <extensions>
          <ns3:TrackPointExtension>
            <ns3:atemp>18.0</ns3:atemp>
          </ns3:TrackPointExtension>
        </extensions>
      </trkpt>
      <trkpt lat="42.603748999536037445068359375" lon="19.88409091718494892120361328125">
        <ele>2143</ele>
        <time>2026-06-16T10:02:13.000Z</time>
        <extensions>
          <ns3:TrackPointExtension>
            <ns3:atemp>18.0</ns3:atemp>
          </ns3:TrackPointExtension>
        </extensions>
      </trkpt>
      <trkpt lat="42.603748999536037445068359375" lon="19.88409091718494892120361328125">
        <ele>2143</ele>
        <time>2026-06-16T10:02:14.000Z</time>
        <extensions>
          <ns3:TrackPointExtension>
            <ns3:atemp>18.0</ns3:atemp>
          </ns3:TrackPointExtension>
        </extensions>
      </trkpt>
      <trkpt lat="42.603748999536037445068359375" lon="19.88409091718494892120361328125">
        <ele>2143</ele>
        <time>2026-06-16T10:02:15.000Z</time>
        <extensions>
          <ns3:TrackPointExtension>
            <ns3:atemp>18.0</ns3:atemp>
          </ns3:TrackPointExtension>
        </extensions>
      </trkpt>
      <trkpt lat="42.603748999536037445068359375" lon="19.88409091718494892120361328125">
        <ele>2143</ele>
        <time>2026-06-16T10:02:16.000Z</time>
        <extensions>
          <ns3:TrackPointExtension>
            <ns3:atemp>18.0</ns3:atemp>
          </ns3:TrackPointExtension>
        </extensions>
      </trkpt>
      <trkpt lat="42.603748999536037445068359375" lon="19.88409091718494892120361328125">
        <ele>2143</ele>
        <time>2026-06-16T10:02:17.000Z</time>
        <extensions>
          <ns3:TrackPointExtension>
            <ns3:atemp>18.0</ns3:atemp>
          </ns3:TrackPointExtension>
        </extensions>
      </trkpt>
      <trkpt lat="42.603748999536037445068359375" lon="19.88409091718494892120361328125">
        <ele>2143</ele>
        <time>2026-06-16T10:02:18.000Z</time>
        <extensions>
          <ns3:TrackPointExtension>
            <ns3:atemp>18.0</ns3:atemp>
          </ns3:TrackPointExtension>
        </extensions>
      </trkpt>
      <trkpt lat="42.603748999536037445068359375" lon="19.88409091718494892120361328125">
        <ele>2143</ele>
        <time>2026-06-16T10:02:19.000Z</time>
        <extensions>
          <ns3:TrackPointExtension>
            <ns3:atemp>18.0</ns3:atemp>
          </ns3:TrackPointExtension>
        </extensions>
      </trkpt>
      <trkpt lat="42.603748999536037445068359375" lon="19.88409091718494892120361328125">
        <ele>2143</ele>
        <time>2026-06-16T10:02:20.000Z</time>
        <extensions>
          <ns3:TrackPointExtension>
            <ns3:atemp>18.0</ns3:atemp>
          </ns3:TrackPointExtension>
        </extensions>
      </trkpt>
      <trkpt lat="42.603748999536037445068359375" lon="19.88409091718494892120361328125">
        <ele>2143</ele>
        <time>2026-06-16T10:02:21.000Z</time>
        <extensions>
          <ns3:TrackPointExtension>
            <ns3:atemp>18.0</ns3:atemp>
          </ns3:TrackPointExtension>
        </extensions>
      </trkpt>
      <trkpt lat="42.603748999536037445068359375" lon="19.88409091718494892120361328125">
        <ele>2142.800048828125</ele>
        <time>2026-06-16T10:02:22.000Z</time>
        <extensions>
          <ns3:TrackPointExtension>
            <ns3:atemp>18.0</ns3:atemp>
          </ns3:TrackPointExtension>
        </extensions>
      </trkpt>
      <trkpt lat="42.603748999536037445068359375" lon="19.88409091718494892120361328125">
        <ele>2142.800048828125</ele>
        <time>2026-06-16T10:02:23.000Z</time>
        <extensions>
          <ns3:TrackPointExtension>
            <ns3:atemp>18.0</ns3:atemp>
          </ns3:TrackPointExtension>
        </extensions>
      </trkpt>
      <trkpt lat="42.603748999536037445068359375" lon="19.88409091718494892120361328125">
        <ele>2142.800048828125</ele>
        <time>2026-06-16T10:02:24.000Z</time>
        <extensions>
          <ns3:TrackPointExtension>
            <ns3:atemp>18.0</ns3:atemp>
          </ns3:TrackPointExtension>
        </extensions>
      </trkpt>
      <trkpt lat="42.603748999536037445068359375" lon="19.88409091718494892120361328125">
        <ele>2142.800048828125</ele>
        <time>2026-06-16T10:02:25.000Z</time>
        <extensions>
          <ns3:TrackPointExtension>
            <ns3:atemp>18.0</ns3:atemp>
          </ns3:TrackPointExtension>
        </extensions>
      </trkpt>
      <trkpt lat="42.603748999536037445068359375" lon="19.88409091718494892120361328125">
        <ele>2142.800048828125</ele>
        <time>2026-06-16T10:02:26.000Z</time>
        <extensions>
          <ns3:TrackPointExtension>
            <ns3:atemp>18.0</ns3:atemp>
          </ns3:TrackPointExtension>
        </extensions>
      </trkpt>
      <trkpt lat="42.603748999536037445068359375" lon="19.88409091718494892120361328125">
        <ele>2142.800048828125</ele>
        <time>2026-06-16T10:02:27.000Z</time>
        <extensions>
          <ns3:TrackPointExtension>
            <ns3:atemp>18.0</ns3:atemp>
          </ns3:TrackPointExtension>
        </extensions>
      </trkpt>
      <trkpt lat="42.603748999536037445068359375" lon="19.88409091718494892120361328125">
        <ele>2142.800048828125</ele>
        <time>2026-06-16T10:02:28.000Z</time>
        <extensions>
          <ns3:TrackPointExtension>
            <ns3:atemp>18.0</ns3:atemp>
          </ns3:TrackPointExtension>
        </extensions>
      </trkpt>
      <trkpt lat="42.603748999536037445068359375" lon="19.88409091718494892120361328125">
        <ele>2142.800048828125</ele>
        <time>2026-06-16T10:02:29.000Z</time>
        <extensions>
          <ns3:TrackPointExtension>
            <ns3:atemp>18.0</ns3:atemp>
          </ns3:TrackPointExtension>
        </extensions>
      </trkpt>
      <trkpt lat="42.603748999536037445068359375" lon="19.88409091718494892120361328125">
        <ele>2142.800048828125</ele>
        <time>2026-06-16T10:02:30.000Z</time>
        <extensions>
          <ns3:TrackPointExtension>
            <ns3:atemp>18.0</ns3:atemp>
          </ns3:TrackPointExtension>
        </extensions>
      </trkpt>
      <trkpt lat="42.603748999536037445068359375" lon="19.88409091718494892120361328125">
        <ele>2142.800048828125</ele>
        <time>2026-06-16T10:02:31.000Z</time>
        <extensions>
          <ns3:TrackPointExtension>
            <ns3:atemp>18.0</ns3:atemp>
          </ns3:TrackPointExtension>
        </extensions>
      </trkpt>
      <trkpt lat="42.603748999536037445068359375" lon="19.88409091718494892120361328125">
        <ele>2142.800048828125</ele>
        <time>2026-06-16T10:02:32.000Z</time>
        <extensions>
          <ns3:TrackPointExtension>
            <ns3:atemp>18.0</ns3:atemp>
          </ns3:TrackPointExtension>
        </extensions>
      </trkpt>
      <trkpt lat="42.603748999536037445068359375" lon="19.88409091718494892120361328125">
        <ele>2142.800048828125</ele>
        <time>2026-06-16T10:02:33.000Z</time>
        <extensions>
          <ns3:TrackPointExtension>
            <ns3:atemp>18.0</ns3:atemp>
          </ns3:TrackPointExtension>
        </extensions>
      </trkpt>
      <trkpt lat="42.603748999536037445068359375" lon="19.88409091718494892120361328125">
        <ele>2142.800048828125</ele>
        <time>2026-06-16T10:02:34.000Z</time>
        <extensions>
          <ns3:TrackPointExtension>
            <ns3:atemp>18.0</ns3:atemp>
          </ns3:TrackPointExtension>
        </extensions>
      </trkpt>
      <trkpt lat="42.603748999536037445068359375" lon="19.88409091718494892120361328125">
        <ele>2142.800048828125</ele>
        <time>2026-06-16T10:02:35.000Z</time>
        <extensions>
          <ns3:TrackPointExtension>
            <ns3:atemp>18.0</ns3:atemp>
          </ns3:TrackPointExtension>
        </extensions>
      </trkpt>
      <trkpt lat="42.603748999536037445068359375" lon="19.88409091718494892120361328125">
        <ele>2142.800048828125</ele>
        <time>2026-06-16T10:02:36.000Z</time>
        <extensions>
          <ns3:TrackPointExtension>
            <ns3:atemp>18.0</ns3:atemp>
          </ns3:TrackPointExtension>
        </extensions>
      </trkpt>
      <trkpt lat="42.603748999536037445068359375" lon="19.88409091718494892120361328125">
        <ele>2142.800048828125</ele>
        <time>2026-06-16T10:02:37.000Z</time>
        <extensions>
          <ns3:TrackPointExtension>
            <ns3:atemp>18.0</ns3:atemp>
          </ns3:TrackPointExtension>
        </extensions>
      </trkpt>
      <trkpt lat="42.603748999536037445068359375" lon="19.88409091718494892120361328125">
        <ele>2142.800048828125</ele>
        <time>2026-06-16T10:02:38.000Z</time>
        <extensions>
          <ns3:TrackPointExtension>
            <ns3:atemp>18.0</ns3:atemp>
          </ns3:TrackPointExtension>
        </extensions>
      </trkpt>
      <trkpt lat="42.603748999536037445068359375" lon="19.88409091718494892120361328125">
        <ele>2142.800048828125</ele>
        <time>2026-06-16T10:02:39.000Z</time>
        <extensions>
          <ns3:TrackPointExtension>
            <ns3:atemp>18.0</ns3:atemp>
          </ns3:TrackPointExtension>
        </extensions>
      </trkpt>
      <trkpt lat="42.603748999536037445068359375" lon="19.88409091718494892120361328125">
        <ele>2142.800048828125</ele>
        <time>2026-06-16T10:02:40.000Z</time>
        <extensions>
          <ns3:TrackPointExtension>
            <ns3:atemp>18.0</ns3:atemp>
          </ns3:TrackPointExtension>
        </extensions>
      </trkpt>
      <trkpt lat="42.603748999536037445068359375" lon="19.88409091718494892120361328125">
        <ele>2142.800048828125</ele>
        <time>2026-06-16T10:02:41.000Z</time>
        <extensions>
          <ns3:TrackPointExtension>
            <ns3:atemp>18.0</ns3:atemp>
          </ns3:TrackPointExtension>
        </extensions>
      </trkpt>
      <trkpt lat="42.603748999536037445068359375" lon="19.88409091718494892120361328125">
        <ele>2142.800048828125</ele>
        <time>2026-06-16T10:02:42.000Z</time>
        <extensions>
          <ns3:TrackPointExtension>
            <ns3:atemp>18.0</ns3:atemp>
          </ns3:TrackPointExtension>
        </extensions>
      </trkpt>
      <trkpt lat="42.603748999536037445068359375" lon="19.88409091718494892120361328125">
        <ele>2142.800048828125</ele>
        <time>2026-06-16T10:02:43.000Z</time>
        <extensions>
          <ns3:TrackPointExtension>
            <ns3:atemp>18.0</ns3:atemp>
          </ns3:TrackPointExtension>
        </extensions>
      </trkpt>
      <trkpt lat="42.603748999536037445068359375" lon="19.88409091718494892120361328125">
        <ele>2142.800048828125</ele>
        <time>2026-06-16T10:02:44.000Z</time>
        <extensions>
          <ns3:TrackPointExtension>
            <ns3:atemp>18.0</ns3:atemp>
          </ns3:TrackPointExtension>
        </extensions>
      </trkpt>
      <trkpt lat="42.603748999536037445068359375" lon="19.88409091718494892120361328125">
        <ele>2142.800048828125</ele>
        <time>2026-06-16T10:02:45.000Z</time>
        <extensions>
          <ns3:TrackPointExtension>
            <ns3:atemp>18.0</ns3:atemp>
          </ns3:TrackPointExtension>
        </extensions>
      </trkpt>
      <trkpt lat="42.603748999536037445068359375" lon="19.88409091718494892120361328125">
        <ele>2142.800048828125</ele>
        <time>2026-06-16T10:02:46.000Z</time>
        <extensions>
          <ns3:TrackPointExtension>
            <ns3:atemp>18.0</ns3:atemp>
          </ns3:TrackPointExtension>
        </extensions>
      </trkpt>
      <trkpt lat="42.603748999536037445068359375" lon="19.88409091718494892120361328125">
        <ele>2142.800048828125</ele>
        <time>2026-06-16T10:02:47.000Z</time>
        <extensions>
          <ns3:TrackPointExtension>
            <ns3:atemp>18.0</ns3:atemp>
          </ns3:TrackPointExtension>
        </extensions>
      </trkpt>
      <trkpt lat="42.603748999536037445068359375" lon="19.88409091718494892120361328125">
        <ele>2142.800048828125</ele>
        <time>2026-06-16T10:02:48.000Z</time>
        <extensions>
          <ns3:TrackPointExtension>
            <ns3:atemp>18.0</ns3:atemp>
          </ns3:TrackPointExtension>
        </extensions>
      </trkpt>
      <trkpt lat="42.603748999536037445068359375" lon="19.88409091718494892120361328125">
        <ele>2142.60009765625</ele>
        <time>2026-06-16T10:02:49.000Z</time>
        <extensions>
          <ns3:TrackPointExtension>
            <ns3:atemp>18.0</ns3:atemp>
          </ns3:TrackPointExtension>
        </extensions>
      </trkpt>
      <trkpt lat="42.603748999536037445068359375" lon="19.88409091718494892120361328125">
        <ele>2142.60009765625</ele>
        <time>2026-06-16T10:02:50.000Z</time>
        <extensions>
          <ns3:TrackPointExtension>
            <ns3:atemp>18.0</ns3:atemp>
          </ns3:TrackPointExtension>
        </extensions>
      </trkpt>
      <trkpt lat="42.603748999536037445068359375" lon="19.88409091718494892120361328125">
        <ele>2142.60009765625</ele>
        <time>2026-06-16T10:02:51.000Z</time>
        <extensions>
          <ns3:TrackPointExtension>
            <ns3:atemp>18.0</ns3:atemp>
          </ns3:TrackPointExtension>
        </extensions>
      </trkpt>
      <trkpt lat="42.603748999536037445068359375" lon="19.88409091718494892120361328125">
        <ele>2142.60009765625</ele>
        <time>2026-06-16T10:02:52.000Z</time>
        <extensions>
          <ns3:TrackPointExtension>
            <ns3:atemp>18.0</ns3:atemp>
          </ns3:TrackPointExtension>
        </extensions>
      </trkpt>
      <trkpt lat="42.603748999536037445068359375" lon="19.88409091718494892120361328125">
        <ele>2142.60009765625</ele>
        <time>2026-06-16T10:02:53.000Z</time>
        <extensions>
          <ns3:TrackPointExtension>
            <ns3:atemp>18.0</ns3:atemp>
          </ns3:TrackPointExtension>
        </extensions>
      </trkpt>
      <trkpt lat="42.603748999536037445068359375" lon="19.88409091718494892120361328125">
        <ele>2142.60009765625</ele>
        <time>2026-06-16T10:02:54.000Z</time>
        <extensions>
          <ns3:TrackPointExtension>
            <ns3:atemp>18.0</ns3:atemp>
          </ns3:TrackPointExtension>
        </extensions>
      </trkpt>
      <trkpt lat="42.603748999536037445068359375" lon="19.88409091718494892120361328125">
        <ele>2142.60009765625</ele>
        <time>2026-06-16T10:02:55.000Z</time>
        <extensions>
          <ns3:TrackPointExtension>
            <ns3:atemp>18.0</ns3:atemp>
          </ns3:TrackPointExtension>
        </extensions>
      </trkpt>
      <trkpt lat="42.603748999536037445068359375" lon="19.88409091718494892120361328125">
        <ele>2142.60009765625</ele>
        <time>2026-06-16T10:02:56.000Z</time>
        <extensions>
          <ns3:TrackPointExtension>
            <ns3:atemp>18.0</ns3:atemp>
          </ns3:TrackPointExtension>
        </extensions>
      </trkpt>
      <trkpt lat="42.603748999536037445068359375" lon="19.88409091718494892120361328125">
        <ele>2142.60009765625</ele>
        <time>2026-06-16T10:02:57.000Z</time>
        <extensions>
          <ns3:TrackPointExtension>
            <ns3:atemp>18.0</ns3:atemp>
          </ns3:TrackPointExtension>
        </extensions>
      </trkpt>
      <trkpt lat="42.603748999536037445068359375" lon="19.88409091718494892120361328125">
        <ele>2142.60009765625</ele>
        <time>2026-06-16T10:02:58.000Z</time>
        <extensions>
          <ns3:TrackPointExtension>
            <ns3:atemp>18.0</ns3:atemp>
          </ns3:TrackPointExtension>
        </extensions>
      </trkpt>
      <trkpt lat="42.603748999536037445068359375" lon="19.88409091718494892120361328125">
        <ele>2142.60009765625</ele>
        <time>2026-06-16T10:02:59.000Z</time>
        <extensions>
          <ns3:TrackPointExtension>
            <ns3:atemp>18.0</ns3:atemp>
          </ns3:TrackPointExtension>
        </extensions>
      </trkpt>
      <trkpt lat="42.603748999536037445068359375" lon="19.88409091718494892120361328125">
        <ele>2142.60009765625</ele>
        <time>2026-06-16T10:03:00.000Z</time>
        <extensions>
          <ns3:TrackPointExtension>
            <ns3:atemp>18.0</ns3:atemp>
          </ns3:TrackPointExtension>
        </extensions>
      </trkpt>
      <trkpt lat="42.603748999536037445068359375" lon="19.88409091718494892120361328125">
        <ele>2142.800048828125</ele>
        <time>2026-06-16T10:03:01.000Z</time>
        <extensions>
          <ns3:TrackPointExtension>
            <ns3:atemp>18.0</ns3:atemp>
          </ns3:TrackPointExtension>
        </extensions>
      </trkpt>
      <trkpt lat="42.603748999536037445068359375" lon="19.88409091718494892120361328125">
        <ele>2142.800048828125</ele>
        <time>2026-06-16T10:03:02.000Z</time>
        <extensions>
          <ns3:TrackPointExtension>
            <ns3:atemp>18.0</ns3:atemp>
          </ns3:TrackPointExtension>
        </extensions>
      </trkpt>
      <trkpt lat="42.603748999536037445068359375" lon="19.88409091718494892120361328125">
        <ele>2142.800048828125</ele>
        <time>2026-06-16T10:03:03.000Z</time>
        <extensions>
          <ns3:TrackPointExtension>
            <ns3:atemp>18.0</ns3:atemp>
          </ns3:TrackPointExtension>
        </extensions>
      </trkpt>
      <trkpt lat="42.603748999536037445068359375" lon="19.88409091718494892120361328125">
        <ele>2142.800048828125</ele>
        <time>2026-06-16T10:03:04.000Z</time>
        <extensions>
          <ns3:TrackPointExtension>
            <ns3:atemp>18.0</ns3:atemp>
          </ns3:TrackPointExtension>
        </extensions>
      </trkpt>
      <trkpt lat="42.603748999536037445068359375" lon="19.88409091718494892120361328125">
        <ele>2142.800048828125</ele>
        <time>2026-06-16T10:03:05.000Z</time>
        <extensions>
          <ns3:TrackPointExtension>
            <ns3:atemp>18.0</ns3:atemp>
          </ns3:TrackPointExtension>
        </extensions>
      </trkpt>
      <trkpt lat="42.603748999536037445068359375" lon="19.88409091718494892120361328125">
        <ele>2142.800048828125</ele>
        <time>2026-06-16T10:03:06.000Z</time>
        <extensions>
          <ns3:TrackPointExtension>
            <ns3:atemp>18.0</ns3:atemp>
          </ns3:TrackPointExtension>
        </extensions>
      </trkpt>
      <trkpt lat="42.603748999536037445068359375" lon="19.88409091718494892120361328125">
        <ele>2142.800048828125</ele>
        <time>2026-06-16T10:03:07.000Z</time>
        <extensions>
          <ns3:TrackPointExtension>
            <ns3:atemp>18.0</ns3:atemp>
          </ns3:TrackPointExtension>
        </extensions>
      </trkpt>
      <trkpt lat="42.603748999536037445068359375" lon="19.88409091718494892120361328125">
        <ele>2142.800048828125</ele>
        <time>2026-06-16T10:03:08.000Z</time>
        <extensions>
          <ns3:TrackPointExtension>
            <ns3:atemp>18.0</ns3:atemp>
          </ns3:TrackPointExtension>
        </extensions>
      </trkpt>
      <trkpt lat="42.603748999536037445068359375" lon="19.88409091718494892120361328125">
        <ele>2142.800048828125</ele>
        <time>2026-06-16T10:03:09.000Z</time>
        <extensions>
          <ns3:TrackPointExtension>
            <ns3:atemp>18.0</ns3:atemp>
          </ns3:TrackPointExtension>
        </extensions>
      </trkpt>
      <trkpt lat="42.603748999536037445068359375" lon="19.88409091718494892120361328125">
        <ele>2142.800048828125</ele>
        <time>2026-06-16T10:03:10.000Z</time>
        <extensions>
          <ns3:TrackPointExtension>
            <ns3:atemp>18.0</ns3:atemp>
          </ns3:TrackPointExtension>
        </extensions>
      </trkpt>
      <trkpt lat="42.603748999536037445068359375" lon="19.88409091718494892120361328125">
        <ele>2142.800048828125</ele>
        <time>2026-06-16T10:03:11.000Z</time>
        <extensions>
          <ns3:TrackPointExtension>
            <ns3:atemp>18.0</ns3:atemp>
          </ns3:TrackPointExtension>
        </extensions>
      </trkpt>
      <trkpt lat="42.603748999536037445068359375" lon="19.88409091718494892120361328125">
        <ele>2142.800048828125</ele>
        <time>2026-06-16T10:03:12.000Z</time>
        <extensions>
          <ns3:TrackPointExtension>
            <ns3:atemp>18.0</ns3:atemp>
          </ns3:TrackPointExtension>
        </extensions>
      </trkpt>
      <trkpt lat="42.603748999536037445068359375" lon="19.88409091718494892120361328125">
        <ele>2142.800048828125</ele>
        <time>2026-06-16T10:03:13.000Z</time>
        <extensions>
          <ns3:TrackPointExtension>
            <ns3:atemp>18.0</ns3:atemp>
          </ns3:TrackPointExtension>
        </extensions>
      </trkpt>
      <trkpt lat="42.603748999536037445068359375" lon="19.88409091718494892120361328125">
        <ele>2143</ele>
        <time>2026-06-16T10:03:14.000Z</time>
        <extensions>
          <ns3:TrackPointExtension>
            <ns3:atemp>18.0</ns3:atemp>
          </ns3:TrackPointExtension>
        </extensions>
      </trkpt>
      <trkpt lat="42.603748999536037445068359375" lon="19.88409091718494892120361328125">
        <ele>2143</ele>
        <time>2026-06-16T10:03:15.000Z</time>
        <extensions>
          <ns3:TrackPointExtension>
            <ns3:atemp>18.0</ns3:atemp>
          </ns3:TrackPointExtension>
        </extensions>
      </trkpt>
      <trkpt lat="42.603748999536037445068359375" lon="19.88409091718494892120361328125">
        <ele>2143</ele>
        <time>2026-06-16T10:03:16.000Z</time>
        <extensions>
          <ns3:TrackPointExtension>
            <ns3:atemp>18.0</ns3:atemp>
          </ns3:TrackPointExtension>
        </extensions>
      </trkpt>
      <trkpt lat="42.603748999536037445068359375" lon="19.88409091718494892120361328125">
        <ele>2143</ele>
        <time>2026-06-16T10:03:17.000Z</time>
        <extensions>
          <ns3:TrackPointExtension>
            <ns3:atemp>18.0</ns3:atemp>
          </ns3:TrackPointExtension>
        </extensions>
      </trkpt>
      <trkpt lat="42.603748999536037445068359375" lon="19.88409091718494892120361328125">
        <ele>2143</ele>
        <time>2026-06-16T10:03:18.000Z</time>
        <extensions>
          <ns3:TrackPointExtension>
            <ns3:atemp>18.0</ns3:atemp>
          </ns3:TrackPointExtension>
        </extensions>
      </trkpt>
      <trkpt lat="42.603748999536037445068359375" lon="19.88409091718494892120361328125">
        <ele>2143</ele>
        <time>2026-06-16T10:03:19.000Z</time>
        <extensions>
          <ns3:TrackPointExtension>
            <ns3:atemp>18.0</ns3:atemp>
          </ns3:TrackPointExtension>
        </extensions>
      </trkpt>
      <trkpt lat="42.603748999536037445068359375" lon="19.88409091718494892120361328125">
        <ele>2143</ele>
        <time>2026-06-16T10:03:20.000Z</time>
        <extensions>
          <ns3:TrackPointExtension>
            <ns3:atemp>18.0</ns3:atemp>
          </ns3:TrackPointExtension>
        </extensions>
      </trkpt>
      <trkpt lat="42.603748999536037445068359375" lon="19.88409091718494892120361328125">
        <ele>2143</ele>
        <time>2026-06-16T10:03:21.000Z</time>
        <extensions>
          <ns3:TrackPointExtension>
            <ns3:atemp>18.0</ns3:atemp>
          </ns3:TrackPointExtension>
        </extensions>
      </trkpt>
      <trkpt lat="42.603748999536037445068359375" lon="19.88409091718494892120361328125">
        <ele>2142.800048828125</ele>
        <time>2026-06-16T10:03:22.000Z</time>
        <extensions>
          <ns3:TrackPointExtension>
            <ns3:atemp>18.0</ns3:atemp>
          </ns3:TrackPointExtension>
        </extensions>
      </trkpt>
      <trkpt lat="42.603748999536037445068359375" lon="19.88409091718494892120361328125">
        <ele>2142.800048828125</ele>
        <time>2026-06-16T10:03:23.000Z</time>
        <extensions>
          <ns3:TrackPointExtension>
            <ns3:atemp>18.0</ns3:atemp>
          </ns3:TrackPointExtension>
        </extensions>
      </trkpt>
      <trkpt lat="42.603748999536037445068359375" lon="19.88409091718494892120361328125">
        <ele>2142.800048828125</ele>
        <time>2026-06-16T10:03:24.000Z</time>
        <extensions>
          <ns3:TrackPointExtension>
            <ns3:atemp>18.0</ns3:atemp>
          </ns3:TrackPointExtension>
        </extensions>
      </trkpt>
      <trkpt lat="42.603748999536037445068359375" lon="19.88409091718494892120361328125">
        <ele>2142.800048828125</ele>
        <time>2026-06-16T10:03:25.000Z</time>
        <extensions>
          <ns3:TrackPointExtension>
            <ns3:atemp>18.0</ns3:atemp>
          </ns3:TrackPointExtension>
        </extensions>
      </trkpt>
      <trkpt lat="42.603748999536037445068359375" lon="19.88409091718494892120361328125">
        <ele>2142.800048828125</ele>
        <time>2026-06-16T10:03:26.000Z</time>
        <extensions>
          <ns3:TrackPointExtension>
            <ns3:atemp>18.0</ns3:atemp>
          </ns3:TrackPointExtension>
        </extensions>
      </trkpt>
      <trkpt lat="42.603748999536037445068359375" lon="19.88409091718494892120361328125">
        <ele>2142.800048828125</ele>
        <time>2026-06-16T10:03:27.000Z</time>
        <extensions>
          <ns3:TrackPointExtension>
            <ns3:atemp>18.0</ns3:atemp>
          </ns3:TrackPointExtension>
        </extensions>
      </trkpt>
      <trkpt lat="42.603748999536037445068359375" lon="19.88409091718494892120361328125">
        <ele>2142.800048828125</ele>
        <time>2026-06-16T10:03:28.000Z</time>
        <extensions>
          <ns3:TrackPointExtension>
            <ns3:atemp>18.0</ns3:atemp>
          </ns3:TrackPointExtension>
        </extensions>
      </trkpt>
      <trkpt lat="42.603748999536037445068359375" lon="19.88409091718494892120361328125">
        <ele>2143</ele>
        <time>2026-06-16T10:03:29.000Z</time>
        <extensions>
          <ns3:TrackPointExtension>
            <ns3:atemp>18.0</ns3:atemp>
          </ns3:TrackPointExtension>
        </extensions>
      </trkpt>
      <trkpt lat="42.603748999536037445068359375" lon="19.88409091718494892120361328125">
        <ele>2143</ele>
        <time>2026-06-16T10:03:30.000Z</time>
        <extensions>
          <ns3:TrackPointExtension>
            <ns3:atemp>18.0</ns3:atemp>
          </ns3:TrackPointExtension>
        </extensions>
      </trkpt>
      <trkpt lat="42.603748999536037445068359375" lon="19.88409091718494892120361328125">
        <ele>2143</ele>
        <time>2026-06-16T10:03:31.000Z</time>
        <extensions>
          <ns3:TrackPointExtension>
            <ns3:atemp>18.0</ns3:atemp>
          </ns3:TrackPointExtension>
        </extensions>
      </trkpt>
      <trkpt lat="42.603748999536037445068359375" lon="19.88409091718494892120361328125">
        <ele>2143</ele>
        <time>2026-06-16T10:03:32.000Z</time>
        <extensions>
          <ns3:TrackPointExtension>
            <ns3:atemp>18.0</ns3:atemp>
          </ns3:TrackPointExtension>
        </extensions>
      </trkpt>
      <trkpt lat="42.603748999536037445068359375" lon="19.88409091718494892120361328125">
        <ele>2143</ele>
        <time>2026-06-16T10:03:33.000Z</time>
        <extensions>
          <ns3:TrackPointExtension>
            <ns3:atemp>18.0</ns3:atemp>
          </ns3:TrackPointExtension>
        </extensions>
      </trkpt>
      <trkpt lat="42.603748999536037445068359375" lon="19.88409091718494892120361328125">
        <ele>2143</ele>
        <time>2026-06-16T10:03:34.000Z</time>
        <extensions>
          <ns3:TrackPointExtension>
            <ns3:atemp>18.0</ns3:atemp>
          </ns3:TrackPointExtension>
        </extensions>
      </trkpt>
      <trkpt lat="42.603748999536037445068359375" lon="19.88409091718494892120361328125">
        <ele>2143</ele>
        <time>2026-06-16T10:03:35.000Z</time>
        <extensions>
          <ns3:TrackPointExtension>
            <ns3:atemp>18.0</ns3:atemp>
          </ns3:TrackPointExtension>
        </extensions>
      </trkpt>
      <trkpt lat="42.603748999536037445068359375" lon="19.88409091718494892120361328125">
        <ele>2143</ele>
        <time>2026-06-16T10:03:36.000Z</time>
        <extensions>
          <ns3:TrackPointExtension>
            <ns3:atemp>18.0</ns3:atemp>
          </ns3:TrackPointExtension>
        </extensions>
      </trkpt>
      <trkpt lat="42.603748999536037445068359375" lon="19.88409091718494892120361328125">
        <ele>2143</ele>
        <time>2026-06-16T10:03:37.000Z</time>
        <extensions>
          <ns3:TrackPointExtension>
            <ns3:atemp>18.0</ns3:atemp>
          </ns3:TrackPointExtension>
        </extensions>
      </trkpt>
      <trkpt lat="42.603748999536037445068359375" lon="19.88409091718494892120361328125">
        <ele>2143</ele>
        <time>2026-06-16T10:03:38.000Z</time>
        <extensions>
          <ns3:TrackPointExtension>
            <ns3:atemp>18.0</ns3:atemp>
          </ns3:TrackPointExtension>
        </extensions>
      </trkpt>
      <trkpt lat="42.603748999536037445068359375" lon="19.88409091718494892120361328125">
        <ele>2143</ele>
        <time>2026-06-16T10:03:39.000Z</time>
        <extensions>
          <ns3:TrackPointExtension>
            <ns3:atemp>18.0</ns3:atemp>
          </ns3:TrackPointExtension>
        </extensions>
      </trkpt>
      <trkpt lat="42.603748999536037445068359375" lon="19.88409091718494892120361328125">
        <ele>2142.800048828125</ele>
        <time>2026-06-16T10:03:40.000Z</time>
        <extensions>
          <ns3:TrackPointExtension>
            <ns3:atemp>18.0</ns3:atemp>
          </ns3:TrackPointExtension>
        </extensions>
      </trkpt>
      <trkpt lat="42.603748999536037445068359375" lon="19.88409091718494892120361328125">
        <ele>2142.800048828125</ele>
        <time>2026-06-16T10:03:41.000Z</time>
        <extensions>
          <ns3:TrackPointExtension>
            <ns3:atemp>18.0</ns3:atemp>
          </ns3:TrackPointExtension>
        </extensions>
      </trkpt>
      <trkpt lat="42.603748999536037445068359375" lon="19.88409091718494892120361328125">
        <ele>2142.800048828125</ele>
        <time>2026-06-16T10:03:42.000Z</time>
        <extensions>
          <ns3:TrackPointExtension>
            <ns3:atemp>18.0</ns3:atemp>
          </ns3:TrackPointExtension>
        </extensions>
      </trkpt>
      <trkpt lat="42.603748999536037445068359375" lon="19.88409091718494892120361328125">
        <ele>2142.800048828125</ele>
        <time>2026-06-16T10:03:43.000Z</time>
        <extensions>
          <ns3:TrackPointExtension>
            <ns3:atemp>18.0</ns3:atemp>
          </ns3:TrackPointExtension>
        </extensions>
      </trkpt>
      <trkpt lat="42.603748999536037445068359375" lon="19.88409091718494892120361328125">
        <ele>2142.800048828125</ele>
        <time>2026-06-16T10:03:44.000Z</time>
        <extensions>
          <ns3:TrackPointExtension>
            <ns3:atemp>18.0</ns3:atemp>
          </ns3:TrackPointExtension>
        </extensions>
      </trkpt>
      <trkpt lat="42.603748999536037445068359375" lon="19.88409091718494892120361328125">
        <ele>2142.800048828125</ele>
        <time>2026-06-16T10:03:45.000Z</time>
        <extensions>
          <ns3:TrackPointExtension>
            <ns3:atemp>18.0</ns3:atemp>
          </ns3:TrackPointExtension>
        </extensions>
      </trkpt>
      <trkpt lat="42.603748999536037445068359375" lon="19.88409091718494892120361328125">
        <ele>2142.800048828125</ele>
        <time>2026-06-16T10:03:46.000Z</time>
        <extensions>
          <ns3:TrackPointExtension>
            <ns3:atemp>18.0</ns3:atemp>
          </ns3:TrackPointExtension>
        </extensions>
      </trkpt>
      <trkpt lat="42.603748999536037445068359375" lon="19.88409091718494892120361328125">
        <ele>2142.800048828125</ele>
        <time>2026-06-16T10:03:47.000Z</time>
        <extensions>
          <ns3:TrackPointExtension>
            <ns3:atemp>18.0</ns3:atemp>
          </ns3:TrackPointExtension>
        </extensions>
      </trkpt>
      <trkpt lat="42.603748999536037445068359375" lon="19.88409091718494892120361328125">
        <ele>2142.800048828125</ele>
        <time>2026-06-16T10:03:48.000Z</time>
        <extensions>
          <ns3:TrackPointExtension>
            <ns3:atemp>18.0</ns3:atemp>
          </ns3:TrackPointExtension>
        </extensions>
      </trkpt>
      <trkpt lat="42.603748999536037445068359375" lon="19.88409091718494892120361328125">
        <ele>2142.800048828125</ele>
        <time>2026-06-16T10:03:49.000Z</time>
        <extensions>
          <ns3:TrackPointExtension>
            <ns3:atemp>18.0</ns3:atemp>
          </ns3:TrackPointExtension>
        </extensions>
      </trkpt>
      <trkpt lat="42.603748999536037445068359375" lon="19.88409091718494892120361328125">
        <ele>2142.800048828125</ele>
        <time>2026-06-16T10:03:50.000Z</time>
        <extensions>
          <ns3:TrackPointExtension>
            <ns3:atemp>18.0</ns3:atemp>
          </ns3:TrackPointExtension>
        </extensions>
      </trkpt>
      <trkpt lat="42.603748999536037445068359375" lon="19.88409091718494892120361328125">
        <ele>2142.800048828125</ele>
        <time>2026-06-16T10:03:51.000Z</time>
        <extensions>
          <ns3:TrackPointExtension>
            <ns3:atemp>18.0</ns3:atemp>
          </ns3:TrackPointExtension>
        </extensions>
      </trkpt>
      <trkpt lat="42.603748999536037445068359375" lon="19.88409091718494892120361328125">
        <ele>2142.800048828125</ele>
        <time>2026-06-16T10:03:52.000Z</time>
        <extensions>
          <ns3:TrackPointExtension>
            <ns3:atemp>18.0</ns3:atemp>
          </ns3:TrackPointExtension>
        </extensions>
      </trkpt>
      <trkpt lat="42.603748999536037445068359375" lon="19.88409091718494892120361328125">
        <ele>2142.800048828125</ele>
        <time>2026-06-16T10:03:53.000Z</time>
        <extensions>
          <ns3:TrackPointExtension>
            <ns3:atemp>18.0</ns3:atemp>
          </ns3:TrackPointExtension>
        </extensions>
      </trkpt>
      <trkpt lat="42.603748999536037445068359375" lon="19.88409091718494892120361328125">
        <ele>2142.800048828125</ele>
        <time>2026-06-16T10:03:54.000Z</time>
        <extensions>
          <ns3:TrackPointExtension>
            <ns3:atemp>18.0</ns3:atemp>
          </ns3:TrackPointExtension>
        </extensions>
      </trkpt>
      <trkpt lat="42.603748999536037445068359375" lon="19.88409091718494892120361328125">
        <ele>2142.800048828125</ele>
        <time>2026-06-16T10:03:55.000Z</time>
        <extensions>
          <ns3:TrackPointExtension>
            <ns3:atemp>18.0</ns3:atemp>
          </ns3:TrackPointExtension>
        </extensions>
      </trkpt>
      <trkpt lat="42.603748999536037445068359375" lon="19.88409091718494892120361328125">
        <ele>2142.800048828125</ele>
        <time>2026-06-16T10:03:56.000Z</time>
        <extensions>
          <ns3:TrackPointExtension>
            <ns3:atemp>18.0</ns3:atemp>
          </ns3:TrackPointExtension>
        </extensions>
      </trkpt>
      <trkpt lat="42.603748999536037445068359375" lon="19.88409091718494892120361328125">
        <ele>2142.800048828125</ele>
        <time>2026-06-16T10:03:57.000Z</time>
        <extensions>
          <ns3:TrackPointExtension>
            <ns3:atemp>18.0</ns3:atemp>
          </ns3:TrackPointExtension>
        </extensions>
      </trkpt>
      <trkpt lat="42.603748999536037445068359375" lon="19.88409091718494892120361328125">
        <ele>2142.800048828125</ele>
        <time>2026-06-16T10:03:58.000Z</time>
        <extensions>
          <ns3:TrackPointExtension>
            <ns3:atemp>18.0</ns3:atemp>
          </ns3:TrackPointExtension>
        </extensions>
      </trkpt>
      <trkpt lat="42.603748999536037445068359375" lon="19.88409091718494892120361328125">
        <ele>2142.800048828125</ele>
        <time>2026-06-16T10:03:59.000Z</time>
        <extensions>
          <ns3:TrackPointExtension>
            <ns3:atemp>18.0</ns3:atemp>
          </ns3:TrackPointExtension>
        </extensions>
      </trkpt>
      <trkpt lat="42.603748999536037445068359375" lon="19.88409091718494892120361328125">
        <ele>2142.800048828125</ele>
        <time>2026-06-16T10:04:00.000Z</time>
        <extensions>
          <ns3:TrackPointExtension>
            <ns3:atemp>18.0</ns3:atemp>
          </ns3:TrackPointExtension>
        </extensions>
      </trkpt>
      <trkpt lat="42.603748999536037445068359375" lon="19.88409091718494892120361328125">
        <ele>2142.800048828125</ele>
        <time>2026-06-16T10:04:01.000Z</time>
        <extensions>
          <ns3:TrackPointExtension>
            <ns3:atemp>18.0</ns3:atemp>
          </ns3:TrackPointExtension>
        </extensions>
      </trkpt>
      <trkpt lat="42.603748999536037445068359375" lon="19.88409091718494892120361328125">
        <ele>2142.800048828125</ele>
        <time>2026-06-16T10:04:02.000Z</time>
        <extensions>
          <ns3:TrackPointExtension>
            <ns3:atemp>18.0</ns3:atemp>
          </ns3:TrackPointExtension>
        </extensions>
      </trkpt>
      <trkpt lat="42.603748999536037445068359375" lon="19.88409091718494892120361328125">
        <ele>2142.800048828125</ele>
        <time>2026-06-16T10:04:03.000Z</time>
        <extensions>
          <ns3:TrackPointExtension>
            <ns3:atemp>18.0</ns3:atemp>
          </ns3:TrackPointExtension>
        </extensions>
      </trkpt>
      <trkpt lat="42.603748999536037445068359375" lon="19.88409091718494892120361328125">
        <ele>2142.800048828125</ele>
        <time>2026-06-16T10:04:04.000Z</time>
        <extensions>
          <ns3:TrackPointExtension>
            <ns3:atemp>18.0</ns3:atemp>
          </ns3:TrackPointExtension>
        </extensions>
      </trkpt>
      <trkpt lat="42.603748999536037445068359375" lon="19.88409091718494892120361328125">
        <ele>2142.800048828125</ele>
        <time>2026-06-16T10:04:05.000Z</time>
        <extensions>
          <ns3:TrackPointExtension>
            <ns3:atemp>18.0</ns3:atemp>
          </ns3:TrackPointExtension>
        </extensions>
      </trkpt>
      <trkpt lat="42.603748999536037445068359375" lon="19.88409091718494892120361328125">
        <ele>2142.800048828125</ele>
        <time>2026-06-16T10:04:06.000Z</time>
        <extensions>
          <ns3:TrackPointExtension>
            <ns3:atemp>18.0</ns3:atemp>
          </ns3:TrackPointExtension>
        </extensions>
      </trkpt>
      <trkpt lat="42.603748999536037445068359375" lon="19.88409091718494892120361328125">
        <ele>2142.800048828125</ele>
        <time>2026-06-16T10:04:07.000Z</time>
        <extensions>
          <ns3:TrackPointExtension>
            <ns3:atemp>18.0</ns3:atemp>
          </ns3:TrackPointExtension>
        </extensions>
      </trkpt>
      <trkpt lat="42.603748999536037445068359375" lon="19.88409091718494892120361328125">
        <ele>2142.800048828125</ele>
        <time>2026-06-16T10:04:08.000Z</time>
        <extensions>
          <ns3:TrackPointExtension>
            <ns3:atemp>18.0</ns3:atemp>
          </ns3:TrackPointExtension>
        </extensions>
      </trkpt>
      <trkpt lat="42.603748999536037445068359375" lon="19.88409091718494892120361328125">
        <ele>2142.800048828125</ele>
        <time>2026-06-16T10:04:09.000Z</time>
        <extensions>
          <ns3:TrackPointExtension>
            <ns3:atemp>18.0</ns3:atemp>
          </ns3:TrackPointExtension>
        </extensions>
      </trkpt>
      <trkpt lat="42.603748999536037445068359375" lon="19.88409091718494892120361328125">
        <ele>2142.800048828125</ele>
        <time>2026-06-16T10:04:10.000Z</time>
        <extensions>
          <ns3:TrackPointExtension>
            <ns3:atemp>18.0</ns3:atemp>
          </ns3:TrackPointExtension>
        </extensions>
      </trkpt>
      <trkpt lat="42.603748999536037445068359375" lon="19.88409091718494892120361328125">
        <ele>2142.800048828125</ele>
        <time>2026-06-16T10:04:11.000Z</time>
        <extensions>
          <ns3:TrackPointExtension>
            <ns3:atemp>18.0</ns3:atemp>
          </ns3:TrackPointExtension>
        </extensions>
      </trkpt>
      <trkpt lat="42.603748999536037445068359375" lon="19.88409091718494892120361328125">
        <ele>2142.800048828125</ele>
        <time>2026-06-16T10:04:12.000Z</time>
        <extensions>
          <ns3:TrackPointExtension>
            <ns3:atemp>18.0</ns3:atemp>
          </ns3:TrackPointExtension>
        </extensions>
      </trkpt>
      <trkpt lat="42.603748999536037445068359375" lon="19.88409091718494892120361328125">
        <ele>2142.800048828125</ele>
        <time>2026-06-16T10:04:13.000Z</time>
        <extensions>
          <ns3:TrackPointExtension>
            <ns3:atemp>18.0</ns3:atemp>
          </ns3:TrackPointExtension>
        </extensions>
      </trkpt>
      <trkpt lat="42.603748999536037445068359375" lon="19.88409091718494892120361328125">
        <ele>2142.800048828125</ele>
        <time>2026-06-16T10:04:14.000Z</time>
        <extensions>
          <ns3:TrackPointExtension>
            <ns3:atemp>18.0</ns3:atemp>
          </ns3:TrackPointExtension>
        </extensions>
      </trkpt>
      <trkpt lat="42.603748999536037445068359375" lon="19.88409091718494892120361328125">
        <ele>2142.800048828125</ele>
        <time>2026-06-16T10:04:15.000Z</time>
        <extensions>
          <ns3:TrackPointExtension>
            <ns3:atemp>18.0</ns3:atemp>
          </ns3:TrackPointExtension>
        </extensions>
      </trkpt>
      <trkpt lat="42.603748999536037445068359375" lon="19.88409091718494892120361328125">
        <ele>2142.800048828125</ele>
        <time>2026-06-16T10:04:16.000Z</time>
        <extensions>
          <ns3:TrackPointExtension>
            <ns3:atemp>18.0</ns3:atemp>
          </ns3:TrackPointExtension>
        </extensions>
      </trkpt>
      <trkpt lat="42.603748999536037445068359375" lon="19.88409091718494892120361328125">
        <ele>2142.800048828125</ele>
        <time>2026-06-16T10:04:17.000Z</time>
        <extensions>
          <ns3:TrackPointExtension>
            <ns3:atemp>18.0</ns3:atemp>
          </ns3:TrackPointExtension>
        </extensions>
      </trkpt>
      <trkpt lat="42.603748999536037445068359375" lon="19.88409091718494892120361328125">
        <ele>2142.800048828125</ele>
        <time>2026-06-16T10:04:18.000Z</time>
        <extensions>
          <ns3:TrackPointExtension>
            <ns3:atemp>18.0</ns3:atemp>
          </ns3:TrackPointExtension>
        </extensions>
      </trkpt>
      <trkpt lat="42.603748999536037445068359375" lon="19.88409091718494892120361328125">
        <ele>2142.800048828125</ele>
        <time>2026-06-16T10:04:19.000Z</time>
        <extensions>
          <ns3:TrackPointExtension>
            <ns3:atemp>18.0</ns3:atemp>
          </ns3:TrackPointExtension>
        </extensions>
      </trkpt>
      <trkpt lat="42.603748999536037445068359375" lon="19.88409091718494892120361328125">
        <ele>2142.800048828125</ele>
        <time>2026-06-16T10:04:20.000Z</time>
        <extensions>
          <ns3:TrackPointExtension>
            <ns3:atemp>18.0</ns3:atemp>
          </ns3:TrackPointExtension>
        </extensions>
      </trkpt>
      <trkpt lat="42.603748999536037445068359375" lon="19.88409091718494892120361328125">
        <ele>2142.800048828125</ele>
        <time>2026-06-16T10:04:21.000Z</time>
        <extensions>
          <ns3:TrackPointExtension>
            <ns3:atemp>18.0</ns3:atemp>
          </ns3:TrackPointExtension>
        </extensions>
      </trkpt>
      <trkpt lat="42.603748999536037445068359375" lon="19.88409091718494892120361328125">
        <ele>2142.800048828125</ele>
        <time>2026-06-16T10:04:22.000Z</time>
        <extensions>
          <ns3:TrackPointExtension>
            <ns3:atemp>18.0</ns3:atemp>
          </ns3:TrackPointExtension>
        </extensions>
      </trkpt>
      <trkpt lat="42.603748999536037445068359375" lon="19.88409091718494892120361328125">
        <ele>2142.800048828125</ele>
        <time>2026-06-16T10:04:23.000Z</time>
        <extensions>
          <ns3:TrackPointExtension>
            <ns3:atemp>18.0</ns3:atemp>
          </ns3:TrackPointExtension>
        </extensions>
      </trkpt>
      <trkpt lat="42.603748999536037445068359375" lon="19.88409091718494892120361328125">
        <ele>2142.800048828125</ele>
        <time>2026-06-16T10:04:24.000Z</time>
        <extensions>
          <ns3:TrackPointExtension>
            <ns3:atemp>18.0</ns3:atemp>
          </ns3:TrackPointExtension>
        </extensions>
      </trkpt>
      <trkpt lat="42.603748999536037445068359375" lon="19.88409091718494892120361328125">
        <ele>2142.800048828125</ele>
        <time>2026-06-16T10:04:25.000Z</time>
        <extensions>
          <ns3:TrackPointExtension>
            <ns3:atemp>18.0</ns3:atemp>
          </ns3:TrackPointExtension>
        </extensions>
      </trkpt>
      <trkpt lat="42.603748999536037445068359375" lon="19.88409091718494892120361328125">
        <ele>2142.800048828125</ele>
        <time>2026-06-16T10:04:26.000Z</time>
        <extensions>
          <ns3:TrackPointExtension>
            <ns3:atemp>18.0</ns3:atemp>
          </ns3:TrackPointExtension>
        </extensions>
      </trkpt>
      <trkpt lat="42.603748999536037445068359375" lon="19.88409091718494892120361328125">
        <ele>2142.800048828125</ele>
        <time>2026-06-16T10:04:27.000Z</time>
        <extensions>
          <ns3:TrackPointExtension>
            <ns3:atemp>18.0</ns3:atemp>
          </ns3:TrackPointExtension>
        </extensions>
      </trkpt>
      <trkpt lat="42.603748999536037445068359375" lon="19.88409091718494892120361328125">
        <ele>2142.800048828125</ele>
        <time>2026-06-16T10:04:28.000Z</time>
        <extensions>
          <ns3:TrackPointExtension>
            <ns3:atemp>18.0</ns3:atemp>
          </ns3:TrackPointExtension>
        </extensions>
      </trkpt>
      <trkpt lat="42.603748999536037445068359375" lon="19.88409091718494892120361328125">
        <ele>2142.800048828125</ele>
        <time>2026-06-16T10:04:29.000Z</time>
        <extensions>
          <ns3:TrackPointExtension>
            <ns3:atemp>18.0</ns3:atemp>
          </ns3:TrackPointExtension>
        </extensions>
      </trkpt>
      <trkpt lat="42.603748999536037445068359375" lon="19.88409091718494892120361328125">
        <ele>2142.800048828125</ele>
        <time>2026-06-16T10:04:30.000Z</time>
        <extensions>
          <ns3:TrackPointExtension>
            <ns3:atemp>18.0</ns3:atemp>
          </ns3:TrackPointExtension>
        </extensions>
      </trkpt>
      <trkpt lat="42.603748999536037445068359375" lon="19.88409091718494892120361328125">
        <ele>2142.800048828125</ele>
        <time>2026-06-16T10:04:31.000Z</time>
        <extensions>
          <ns3:TrackPointExtension>
            <ns3:atemp>18.0</ns3:atemp>
          </ns3:TrackPointExtension>
        </extensions>
      </trkpt>
      <trkpt lat="42.603748999536037445068359375" lon="19.88409091718494892120361328125">
        <ele>2142.800048828125</ele>
        <time>2026-06-16T10:04:32.000Z</time>
        <extensions>
          <ns3:TrackPointExtension>
            <ns3:atemp>18.0</ns3:atemp>
          </ns3:TrackPointExtension>
        </extensions>
      </trkpt>
      <trkpt lat="42.603748999536037445068359375" lon="19.88409091718494892120361328125">
        <ele>2142.800048828125</ele>
        <time>2026-06-16T10:04:33.000Z</time>
        <extensions>
          <ns3:TrackPointExtension>
            <ns3:atemp>18.0</ns3:atemp>
          </ns3:TrackPointExtension>
        </extensions>
      </trkpt>
      <trkpt lat="42.603748999536037445068359375" lon="19.88409091718494892120361328125">
        <ele>2142.800048828125</ele>
        <time>2026-06-16T10:04:34.000Z</time>
        <extensions>
          <ns3:TrackPointExtension>
            <ns3:atemp>18.0</ns3:atemp>
          </ns3:TrackPointExtension>
        </extensions>
      </trkpt>
      <trkpt lat="42.603748999536037445068359375" lon="19.88409091718494892120361328125">
        <ele>2142.800048828125</ele>
        <time>2026-06-16T10:04:35.000Z</time>
        <extensions>
          <ns3:TrackPointExtension>
            <ns3:atemp>18.0</ns3:atemp>
          </ns3:TrackPointExtension>
        </extensions>
      </trkpt>
      <trkpt lat="42.603748999536037445068359375" lon="19.88409091718494892120361328125">
        <ele>2142.800048828125</ele>
        <time>2026-06-16T10:04:36.000Z</time>
        <extensions>
          <ns3:TrackPointExtension>
            <ns3:atemp>18.0</ns3:atemp>
          </ns3:TrackPointExtension>
        </extensions>
      </trkpt>
      <trkpt lat="42.603748999536037445068359375" lon="19.88409091718494892120361328125">
        <ele>2142.800048828125</ele>
        <time>2026-06-16T10:04:37.000Z</time>
        <extensions>
          <ns3:TrackPointExtension>
            <ns3:atemp>18.0</ns3:atemp>
          </ns3:TrackPointExtension>
        </extensions>
      </trkpt>
      <trkpt lat="42.603748999536037445068359375" lon="19.88409091718494892120361328125">
        <ele>2142.800048828125</ele>
        <time>2026-06-16T10:04:38.000Z</time>
        <extensions>
          <ns3:TrackPointExtension>
            <ns3:atemp>18.0</ns3:atemp>
          </ns3:TrackPointExtension>
        </extensions>
      </trkpt>
      <trkpt lat="42.603748999536037445068359375" lon="19.88409091718494892120361328125">
        <ele>2142.800048828125</ele>
        <time>2026-06-16T10:04:39.000Z</time>
        <extensions>
          <ns3:TrackPointExtension>
            <ns3:atemp>18.0</ns3:atemp>
          </ns3:TrackPointExtension>
        </extensions>
      </trkpt>
      <trkpt lat="42.603748999536037445068359375" lon="19.88409091718494892120361328125">
        <ele>2142.800048828125</ele>
        <time>2026-06-16T10:04:40.000Z</time>
        <extensions>
          <ns3:TrackPointExtension>
            <ns3:atemp>18.0</ns3:atemp>
          </ns3:TrackPointExtension>
        </extensions>
      </trkpt>
      <trkpt lat="42.603748999536037445068359375" lon="19.88409091718494892120361328125">
        <ele>2142.800048828125</ele>
        <time>2026-06-16T10:04:41.000Z</time>
        <extensions>
          <ns3:TrackPointExtension>
            <ns3:atemp>18.0</ns3:atemp>
          </ns3:TrackPointExtension>
        </extensions>
      </trkpt>
      <trkpt lat="42.603748999536037445068359375" lon="19.88409091718494892120361328125">
        <ele>2142.800048828125</ele>
        <time>2026-06-16T10:04:42.000Z</time>
        <extensions>
          <ns3:TrackPointExtension>
            <ns3:atemp>18.0</ns3:atemp>
          </ns3:TrackPointExtension>
        </extensions>
      </trkpt>
      <trkpt lat="42.603748999536037445068359375" lon="19.88409091718494892120361328125">
        <ele>2142.800048828125</ele>
        <time>2026-06-16T10:04:43.000Z</time>
        <extensions>
          <ns3:TrackPointExtension>
            <ns3:atemp>18.0</ns3:atemp>
          </ns3:TrackPointExtension>
        </extensions>
      </trkpt>
      <trkpt lat="42.603748999536037445068359375" lon="19.88409091718494892120361328125">
        <ele>2142.800048828125</ele>
        <time>2026-06-16T10:04:44.000Z</time>
        <extensions>
          <ns3:TrackPointExtension>
            <ns3:atemp>18.0</ns3:atemp>
          </ns3:TrackPointExtension>
        </extensions>
      </trkpt>
      <trkpt lat="42.603748999536037445068359375" lon="19.88409091718494892120361328125">
        <ele>2142.800048828125</ele>
        <time>2026-06-16T10:04:45.000Z</time>
        <extensions>
          <ns3:TrackPointExtension>
            <ns3:atemp>18.0</ns3:atemp>
          </ns3:TrackPointExtension>
        </extensions>
      </trkpt>
      <trkpt lat="42.603748999536037445068359375" lon="19.88409091718494892120361328125">
        <ele>2142.800048828125</ele>
        <time>2026-06-16T10:04:46.000Z</time>
        <extensions>
          <ns3:TrackPointExtension>
            <ns3:atemp>18.0</ns3:atemp>
          </ns3:TrackPointExtension>
        </extensions>
      </trkpt>
      <trkpt lat="42.603748999536037445068359375" lon="19.88409091718494892120361328125">
        <ele>2142.800048828125</ele>
        <time>2026-06-16T10:04:47.000Z</time>
        <extensions>
          <ns3:TrackPointExtension>
            <ns3:atemp>18.0</ns3:atemp>
          </ns3:TrackPointExtension>
        </extensions>
      </trkpt>
      <trkpt lat="42.603748999536037445068359375" lon="19.88409091718494892120361328125">
        <ele>2142.800048828125</ele>
        <time>2026-06-16T10:04:48.000Z</time>
        <extensions>
          <ns3:TrackPointExtension>
            <ns3:atemp>18.0</ns3:atemp>
          </ns3:TrackPointExtension>
        </extensions>
      </trkpt>
      <trkpt lat="42.603748999536037445068359375" lon="19.88409091718494892120361328125">
        <ele>2142.800048828125</ele>
        <time>2026-06-16T10:04:49.000Z</time>
        <extensions>
          <ns3:TrackPointExtension>
            <ns3:atemp>18.0</ns3:atemp>
          </ns3:TrackPointExtension>
        </extensions>
      </trkpt>
      <trkpt lat="42.603748999536037445068359375" lon="19.88409091718494892120361328125">
        <ele>2142.800048828125</ele>
        <time>2026-06-16T10:04:50.000Z</time>
        <extensions>
          <ns3:TrackPointExtension>
            <ns3:atemp>18.0</ns3:atemp>
          </ns3:TrackPointExtension>
        </extensions>
      </trkpt>
      <trkpt lat="42.603748999536037445068359375" lon="19.88409091718494892120361328125">
        <ele>2142.800048828125</ele>
        <time>2026-06-16T10:04:51.000Z</time>
        <extensions>
          <ns3:TrackPointExtension>
            <ns3:atemp>18.0</ns3:atemp>
          </ns3:TrackPointExtension>
        </extensions>
      </trkpt>
      <trkpt lat="42.603748999536037445068359375" lon="19.88409091718494892120361328125">
        <ele>2142.800048828125</ele>
        <time>2026-06-16T10:04:52.000Z</time>
        <extensions>
          <ns3:TrackPointExtension>
            <ns3:atemp>18.0</ns3:atemp>
          </ns3:TrackPointExtension>
        </extensions>
      </trkpt>
      <trkpt lat="42.603748999536037445068359375" lon="19.88409091718494892120361328125">
        <ele>2142.800048828125</ele>
        <time>2026-06-16T10:04:53.000Z</time>
        <extensions>
          <ns3:TrackPointExtension>
            <ns3:atemp>18.0</ns3:atemp>
          </ns3:TrackPointExtension>
        </extensions>
      </trkpt>
      <trkpt lat="42.603748999536037445068359375" lon="19.88409091718494892120361328125">
        <ele>2142.800048828125</ele>
        <time>2026-06-16T10:04:54.000Z</time>
        <extensions>
          <ns3:TrackPointExtension>
            <ns3:atemp>18.0</ns3:atemp>
          </ns3:TrackPointExtension>
        </extensions>
      </trkpt>
      <trkpt lat="42.603748999536037445068359375" lon="19.88409091718494892120361328125">
        <ele>2142.800048828125</ele>
        <time>2026-06-16T10:04:55.000Z</time>
        <extensions>
          <ns3:TrackPointExtension>
            <ns3:atemp>18.0</ns3:atemp>
          </ns3:TrackPointExtension>
        </extensions>
      </trkpt>
      <trkpt lat="42.603748999536037445068359375" lon="19.88409091718494892120361328125">
        <ele>2142.800048828125</ele>
        <time>2026-06-16T10:04:56.000Z</time>
        <extensions>
          <ns3:TrackPointExtension>
            <ns3:atemp>18.0</ns3:atemp>
          </ns3:TrackPointExtension>
        </extensions>
      </trkpt>
      <trkpt lat="42.603748999536037445068359375" lon="19.88409091718494892120361328125">
        <ele>2142.800048828125</ele>
        <time>2026-06-16T10:04:57.000Z</time>
        <extensions>
          <ns3:TrackPointExtension>
            <ns3:atemp>18.0</ns3:atemp>
          </ns3:TrackPointExtension>
        </extensions>
      </trkpt>
      <trkpt lat="42.603748999536037445068359375" lon="19.88409091718494892120361328125">
        <ele>2142.800048828125</ele>
        <time>2026-06-16T10:04:58.000Z</time>
        <extensions>
          <ns3:TrackPointExtension>
            <ns3:atemp>18.0</ns3:atemp>
          </ns3:TrackPointExtension>
        </extensions>
      </trkpt>
      <trkpt lat="42.603748999536037445068359375" lon="19.88409091718494892120361328125">
        <ele>2142.800048828125</ele>
        <time>2026-06-16T10:04:59.000Z</time>
        <extensions>
          <ns3:TrackPointExtension>
            <ns3:atemp>18.0</ns3:atemp>
          </ns3:TrackPointExtension>
        </extensions>
      </trkpt>
      <trkpt lat="42.603748999536037445068359375" lon="19.88409091718494892120361328125">
        <ele>2142.800048828125</ele>
        <time>2026-06-16T10:05:00.000Z</time>
        <extensions>
          <ns3:TrackPointExtension>
            <ns3:atemp>18.0</ns3:atemp>
          </ns3:TrackPointExtension>
        </extensions>
      </trkpt>
      <trkpt lat="42.603748999536037445068359375" lon="19.88409091718494892120361328125">
        <ele>2142.800048828125</ele>
        <time>2026-06-16T10:05:01.000Z</time>
        <extensions>
          <ns3:TrackPointExtension>
            <ns3:atemp>18.0</ns3:atemp>
          </ns3:TrackPointExtension>
        </extensions>
      </trkpt>
      <trkpt lat="42.603748999536037445068359375" lon="19.88409091718494892120361328125">
        <ele>2142.800048828125</ele>
        <time>2026-06-16T10:05:02.000Z</time>
        <extensions>
          <ns3:TrackPointExtension>
            <ns3:atemp>18.0</ns3:atemp>
          </ns3:TrackPointExtension>
        </extensions>
      </trkpt>
      <trkpt lat="42.603748999536037445068359375" lon="19.88409091718494892120361328125">
        <ele>2142.800048828125</ele>
        <time>2026-06-16T10:05:03.000Z</time>
        <extensions>
          <ns3:TrackPointExtension>
            <ns3:atemp>18.0</ns3:atemp>
          </ns3:TrackPointExtension>
        </extensions>
      </trkpt>
      <trkpt lat="42.603748999536037445068359375" lon="19.88409091718494892120361328125">
        <ele>2142.800048828125</ele>
        <time>2026-06-16T10:05:04.000Z</time>
        <extensions>
          <ns3:TrackPointExtension>
            <ns3:atemp>18.0</ns3:atemp>
          </ns3:TrackPointExtension>
        </extensions>
      </trkpt>
      <trkpt lat="42.603748999536037445068359375" lon="19.88409091718494892120361328125">
        <ele>2142.800048828125</ele>
        <time>2026-06-16T10:05:05.000Z</time>
        <extensions>
          <ns3:TrackPointExtension>
            <ns3:atemp>18.0</ns3:atemp>
          </ns3:TrackPointExtension>
        </extensions>
      </trkpt>
      <trkpt lat="42.603748999536037445068359375" lon="19.88409091718494892120361328125">
        <ele>2142.800048828125</ele>
        <time>2026-06-16T10:05:06.000Z</time>
        <extensions>
          <ns3:TrackPointExtension>
            <ns3:atemp>18.0</ns3:atemp>
          </ns3:TrackPointExtension>
        </extensions>
      </trkpt>
      <trkpt lat="42.603748999536037445068359375" lon="19.88409091718494892120361328125">
        <ele>2142.800048828125</ele>
        <time>2026-06-16T10:05:07.000Z</time>
        <extensions>
          <ns3:TrackPointExtension>
            <ns3:atemp>18.0</ns3:atemp>
          </ns3:TrackPointExtension>
        </extensions>
      </trkpt>
      <trkpt lat="42.603748999536037445068359375" lon="19.88409091718494892120361328125">
        <ele>2142.800048828125</ele>
        <time>2026-06-16T10:05:08.000Z</time>
        <extensions>
          <ns3:TrackPointExtension>
            <ns3:atemp>18.0</ns3:atemp>
          </ns3:TrackPointExtension>
        </extensions>
      </trkpt>
      <trkpt lat="42.603748999536037445068359375" lon="19.88409091718494892120361328125">
        <ele>2142.800048828125</ele>
        <time>2026-06-16T10:05:09.000Z</time>
        <extensions>
          <ns3:TrackPointExtension>
            <ns3:atemp>18.0</ns3:atemp>
          </ns3:TrackPointExtension>
        </extensions>
      </trkpt>
      <trkpt lat="42.603748999536037445068359375" lon="19.88409091718494892120361328125">
        <ele>2142.800048828125</ele>
        <time>2026-06-16T10:05:10.000Z</time>
        <extensions>
          <ns3:TrackPointExtension>
            <ns3:atemp>18.0</ns3:atemp>
          </ns3:TrackPointExtension>
        </extensions>
      </trkpt>
      <trkpt lat="42.603748999536037445068359375" lon="19.88409091718494892120361328125">
        <ele>2142.800048828125</ele>
        <time>2026-06-16T10:05:11.000Z</time>
        <extensions>
          <ns3:TrackPointExtension>
            <ns3:atemp>18.0</ns3:atemp>
          </ns3:TrackPointExtension>
        </extensions>
      </trkpt>
      <trkpt lat="42.603748999536037445068359375" lon="19.88409091718494892120361328125">
        <ele>2142.800048828125</ele>
        <time>2026-06-16T10:05:12.000Z</time>
        <extensions>
          <ns3:TrackPointExtension>
            <ns3:atemp>18.0</ns3:atemp>
          </ns3:TrackPointExtension>
        </extensions>
      </trkpt>
      <trkpt lat="42.603748999536037445068359375" lon="19.88409091718494892120361328125">
        <ele>2142.800048828125</ele>
        <time>2026-06-16T10:05:13.000Z</time>
        <extensions>
          <ns3:TrackPointExtension>
            <ns3:atemp>18.0</ns3:atemp>
          </ns3:TrackPointExtension>
        </extensions>
      </trkpt>
      <trkpt lat="42.603748999536037445068359375" lon="19.88409091718494892120361328125">
        <ele>2142.800048828125</ele>
        <time>2026-06-16T10:05:14.000Z</time>
        <extensions>
          <ns3:TrackPointExtension>
            <ns3:atemp>18.0</ns3:atemp>
          </ns3:TrackPointExtension>
        </extensions>
      </trkpt>
      <trkpt lat="42.603748999536037445068359375" lon="19.88409091718494892120361328125">
        <ele>2142.800048828125</ele>
        <time>2026-06-16T10:05:15.000Z</time>
        <extensions>
          <ns3:TrackPointExtension>
            <ns3:atemp>18.0</ns3:atemp>
          </ns3:TrackPointExtension>
        </extensions>
      </trkpt>
      <trkpt lat="42.603748999536037445068359375" lon="19.88409091718494892120361328125">
        <ele>2142.800048828125</ele>
        <time>2026-06-16T10:05:16.000Z</time>
        <extensions>
          <ns3:TrackPointExtension>
            <ns3:atemp>18.0</ns3:atemp>
          </ns3:TrackPointExtension>
        </extensions>
      </trkpt>
      <trkpt lat="42.603748999536037445068359375" lon="19.88409091718494892120361328125">
        <ele>2142.800048828125</ele>
        <time>2026-06-16T10:05:17.000Z</time>
        <extensions>
          <ns3:TrackPointExtension>
            <ns3:atemp>18.0</ns3:atemp>
          </ns3:TrackPointExtension>
        </extensions>
      </trkpt>
      <trkpt lat="42.603748999536037445068359375" lon="19.88409091718494892120361328125">
        <ele>2142.800048828125</ele>
        <time>2026-06-16T10:05:18.000Z</time>
        <extensions>
          <ns3:TrackPointExtension>
            <ns3:atemp>18.0</ns3:atemp>
          </ns3:TrackPointExtension>
        </extensions>
      </trkpt>
      <trkpt lat="42.603748999536037445068359375" lon="19.88409091718494892120361328125">
        <ele>2142.800048828125</ele>
        <time>2026-06-16T10:05:19.000Z</time>
        <extensions>
          <ns3:TrackPointExtension>
            <ns3:atemp>18.0</ns3:atemp>
          </ns3:TrackPointExtension>
        </extensions>
      </trkpt>
      <trkpt lat="42.603748999536037445068359375" lon="19.88409091718494892120361328125">
        <ele>2142.800048828125</ele>
        <time>2026-06-16T10:05:20.000Z</time>
        <extensions>
          <ns3:TrackPointExtension>
            <ns3:atemp>18.0</ns3:atemp>
          </ns3:TrackPointExtension>
        </extensions>
      </trkpt>
      <trkpt lat="42.603748999536037445068359375" lon="19.88409091718494892120361328125">
        <ele>2142.800048828125</ele>
        <time>2026-06-16T10:05:21.000Z</time>
        <extensions>
          <ns3:TrackPointExtension>
            <ns3:atemp>18.0</ns3:atemp>
          </ns3:TrackPointExtension>
        </extensions>
      </trkpt>
      <trkpt lat="42.603748999536037445068359375" lon="19.88409091718494892120361328125">
        <ele>2142.800048828125</ele>
        <time>2026-06-16T10:05:22.000Z</time>
        <extensions>
          <ns3:TrackPointExtension>
            <ns3:atemp>18.0</ns3:atemp>
          </ns3:TrackPointExtension>
        </extensions>
      </trkpt>
      <trkpt lat="42.603748999536037445068359375" lon="19.88409091718494892120361328125">
        <ele>2142.800048828125</ele>
        <time>2026-06-16T10:05:23.000Z</time>
        <extensions>
          <ns3:TrackPointExtension>
            <ns3:atemp>18.0</ns3:atemp>
          </ns3:TrackPointExtension>
        </extensions>
      </trkpt>
      <trkpt lat="42.603748999536037445068359375" lon="19.88409091718494892120361328125">
        <ele>2142.800048828125</ele>
        <time>2026-06-16T10:05:24.000Z</time>
        <extensions>
          <ns3:TrackPointExtension>
            <ns3:atemp>18.0</ns3:atemp>
          </ns3:TrackPointExtension>
        </extensions>
      </trkpt>
      <trkpt lat="42.603748999536037445068359375" lon="19.88409091718494892120361328125">
        <ele>2142.800048828125</ele>
        <time>2026-06-16T10:05:25.000Z</time>
        <extensions>
          <ns3:TrackPointExtension>
            <ns3:atemp>18.0</ns3:atemp>
          </ns3:TrackPointExtension>
        </extensions>
      </trkpt>
      <trkpt lat="42.603748999536037445068359375" lon="19.88409091718494892120361328125">
        <ele>2142.800048828125</ele>
        <time>2026-06-16T10:05:26.000Z</time>
        <extensions>
          <ns3:TrackPointExtension>
            <ns3:atemp>18.0</ns3:atemp>
          </ns3:TrackPointExtension>
        </extensions>
      </trkpt>
      <trkpt lat="42.603748999536037445068359375" lon="19.88409091718494892120361328125">
        <ele>2142.800048828125</ele>
        <time>2026-06-16T10:05:27.000Z</time>
        <extensions>
          <ns3:TrackPointExtension>
            <ns3:atemp>18.0</ns3:atemp>
          </ns3:TrackPointExtension>
        </extensions>
      </trkpt>
      <trkpt lat="42.603748999536037445068359375" lon="19.88409091718494892120361328125">
        <ele>2142.800048828125</ele>
        <time>2026-06-16T10:05:28.000Z</time>
        <extensions>
          <ns3:TrackPointExtension>
            <ns3:atemp>18.0</ns3:atemp>
          </ns3:TrackPointExtension>
        </extensions>
      </trkpt>
      <trkpt lat="42.603748999536037445068359375" lon="19.88409091718494892120361328125">
        <ele>2142.800048828125</ele>
        <time>2026-06-16T10:05:29.000Z</time>
        <extensions>
          <ns3:TrackPointExtension>
            <ns3:atemp>18.0</ns3:atemp>
          </ns3:TrackPointExtension>
        </extensions>
      </trkpt>
      <trkpt lat="42.603748999536037445068359375" lon="19.88409091718494892120361328125">
        <ele>2142.800048828125</ele>
        <time>2026-06-16T10:05:30.000Z</time>
        <extensions>
          <ns3:TrackPointExtension>
            <ns3:atemp>18.0</ns3:atemp>
          </ns3:TrackPointExtension>
        </extensions>
      </trkpt>
      <trkpt lat="42.603748999536037445068359375" lon="19.88409091718494892120361328125">
        <ele>2142.800048828125</ele>
        <time>2026-06-16T10:05:31.000Z</time>
        <extensions>
          <ns3:TrackPointExtension>
            <ns3:atemp>17.0</ns3:atemp>
          </ns3:TrackPointExtension>
        </extensions>
      </trkpt>
      <trkpt lat="42.603748999536037445068359375" lon="19.88409091718494892120361328125">
        <ele>2142.800048828125</ele>
        <time>2026-06-16T10:05:32.000Z</time>
        <extensions>
          <ns3:TrackPointExtension>
            <ns3:atemp>18.0</ns3:atemp>
          </ns3:TrackPointExtension>
        </extensions>
      </trkpt>
      <trkpt lat="42.603748999536037445068359375" lon="19.88409091718494892120361328125">
        <ele>2142.800048828125</ele>
        <time>2026-06-16T10:05:33.000Z</time>
        <extensions>
          <ns3:TrackPointExtension>
            <ns3:atemp>18.0</ns3:atemp>
          </ns3:TrackPointExtension>
        </extensions>
      </trkpt>
      <trkpt lat="42.603748999536037445068359375" lon="19.88409091718494892120361328125">
        <ele>2142.800048828125</ele>
        <time>2026-06-16T10:05:34.000Z</time>
        <extensions>
          <ns3:TrackPointExtension>
            <ns3:atemp>18.0</ns3:atemp>
          </ns3:TrackPointExtension>
        </extensions>
      </trkpt>
      <trkpt lat="42.603748999536037445068359375" lon="19.88409091718494892120361328125">
        <ele>2142.800048828125</ele>
        <time>2026-06-16T10:05:35.000Z</time>
        <extensions>
          <ns3:TrackPointExtension>
            <ns3:atemp>18.0</ns3:atemp>
          </ns3:TrackPointExtension>
        </extensions>
      </trkpt>
      <trkpt lat="42.603748999536037445068359375" lon="19.88409091718494892120361328125">
        <ele>2142.800048828125</ele>
        <time>2026-06-16T10:05:36.000Z</time>
        <extensions>
          <ns3:TrackPointExtension>
            <ns3:atemp>18.0</ns3:atemp>
          </ns3:TrackPointExtension>
        </extensions>
      </trkpt>
      <trkpt lat="42.603748999536037445068359375" lon="19.88409091718494892120361328125">
        <ele>2142.800048828125</ele>
        <time>2026-06-16T10:05:37.000Z</time>
        <extensions>
          <ns3:TrackPointExtension>
            <ns3:atemp>18.0</ns3:atemp>
          </ns3:TrackPointExtension>
        </extensions>
      </trkpt>
      <trkpt lat="42.603748999536037445068359375" lon="19.88409091718494892120361328125">
        <ele>2142.800048828125</ele>
        <time>2026-06-16T10:05:38.000Z</time>
        <extensions>
          <ns3:TrackPointExtension>
            <ns3:atemp>18.0</ns3:atemp>
          </ns3:TrackPointExtension>
        </extensions>
      </trkpt>
      <trkpt lat="42.603748999536037445068359375" lon="19.88409091718494892120361328125">
        <ele>2142.800048828125</ele>
        <time>2026-06-16T10:05:39.000Z</time>
        <extensions>
          <ns3:TrackPointExtension>
            <ns3:atemp>18.0</ns3:atemp>
          </ns3:TrackPointExtension>
        </extensions>
      </trkpt>
      <trkpt lat="42.603748999536037445068359375" lon="19.88409091718494892120361328125">
        <ele>2142.800048828125</ele>
        <time>2026-06-16T10:05:40.000Z</time>
        <extensions>
          <ns3:TrackPointExtension>
            <ns3:atemp>17.0</ns3:atemp>
          </ns3:TrackPointExtension>
        </extensions>
      </trkpt>
      <trkpt lat="42.603748999536037445068359375" lon="19.88409091718494892120361328125">
        <ele>2142.800048828125</ele>
        <time>2026-06-16T10:05:41.000Z</time>
        <extensions>
          <ns3:TrackPointExtension>
            <ns3:atemp>17.0</ns3:atemp>
          </ns3:TrackPointExtension>
        </extensions>
      </trkpt>
      <trkpt lat="42.603748999536037445068359375" lon="19.88409091718494892120361328125">
        <ele>2142.800048828125</ele>
        <time>2026-06-16T10:05:42.000Z</time>
        <extensions>
          <ns3:TrackPointExtension>
            <ns3:atemp>17.0</ns3:atemp>
          </ns3:TrackPointExtension>
        </extensions>
      </trkpt>
      <trkpt lat="42.603748999536037445068359375" lon="19.88409091718494892120361328125">
        <ele>2142.800048828125</ele>
        <time>2026-06-16T10:05:43.000Z</time>
        <extensions>
          <ns3:TrackPointExtension>
            <ns3:atemp>17.0</ns3:atemp>
          </ns3:TrackPointExtension>
        </extensions>
      </trkpt>
      <trkpt lat="42.603748999536037445068359375" lon="19.88409091718494892120361328125">
        <ele>2142.800048828125</ele>
        <time>2026-06-16T10:05:44.000Z</time>
        <extensions>
          <ns3:TrackPointExtension>
            <ns3:atemp>17.0</ns3:atemp>
          </ns3:TrackPointExtension>
        </extensions>
      </trkpt>
      <trkpt lat="42.603748999536037445068359375" lon="19.88409091718494892120361328125">
        <ele>2142.800048828125</ele>
        <time>2026-06-16T10:05:45.000Z</time>
        <extensions>
          <ns3:TrackPointExtension>
            <ns3:atemp>17.0</ns3:atemp>
          </ns3:TrackPointExtension>
        </extensions>
      </trkpt>
      <trkpt lat="42.603748999536037445068359375" lon="19.88409091718494892120361328125">
        <ele>2142.800048828125</ele>
        <time>2026-06-16T10:05:46.000Z</time>
        <extensions>
          <ns3:TrackPointExtension>
            <ns3:atemp>17.0</ns3:atemp>
          </ns3:TrackPointExtension>
        </extensions>
      </trkpt>
      <trkpt lat="42.603748999536037445068359375" lon="19.88409091718494892120361328125">
        <ele>2142.800048828125</ele>
        <time>2026-06-16T10:05:47.000Z</time>
        <extensions>
          <ns3:TrackPointExtension>
            <ns3:atemp>17.0</ns3:atemp>
          </ns3:TrackPointExtension>
        </extensions>
      </trkpt>
      <trkpt lat="42.603748999536037445068359375" lon="19.88409091718494892120361328125">
        <ele>2142.800048828125</ele>
        <time>2026-06-16T10:05:48.000Z</time>
        <extensions>
          <ns3:TrackPointExtension>
            <ns3:atemp>17.0</ns3:atemp>
          </ns3:TrackPointExtension>
        </extensions>
      </trkpt>
      <trkpt lat="42.603748999536037445068359375" lon="19.88409091718494892120361328125">
        <ele>2142.800048828125</ele>
        <time>2026-06-16T10:05:49.000Z</time>
        <extensions>
          <ns3:TrackPointExtension>
            <ns3:atemp>18.0</ns3:atemp>
          </ns3:TrackPointExtension>
        </extensions>
      </trkpt>
      <trkpt lat="42.603748999536037445068359375" lon="19.88409091718494892120361328125">
        <ele>2142.800048828125</ele>
        <time>2026-06-16T10:05:50.000Z</time>
        <extensions>
          <ns3:TrackPointExtension>
            <ns3:atemp>18.0</ns3:atemp>
          </ns3:TrackPointExtension>
        </extensions>
      </trkpt>
      <trkpt lat="42.603748999536037445068359375" lon="19.88409091718494892120361328125">
        <ele>2142.800048828125</ele>
        <time>2026-06-16T10:05:51.000Z</time>
        <extensions>
          <ns3:TrackPointExtension>
            <ns3:atemp>17.0</ns3:atemp>
          </ns3:TrackPointExtension>
        </extensions>
      </trkpt>
      <trkpt lat="42.603748999536037445068359375" lon="19.88409091718494892120361328125">
        <ele>2142.800048828125</ele>
        <time>2026-06-16T10:05:52.000Z</time>
        <extensions>
          <ns3:TrackPointExtension>
            <ns3:atemp>17.0</ns3:atemp>
          </ns3:TrackPointExtension>
        </extensions>
      </trkpt>
      <trkpt lat="42.603748999536037445068359375" lon="19.88409091718494892120361328125">
        <ele>2142.800048828125</ele>
        <time>2026-06-16T10:05:53.000Z</time>
        <extensions>
          <ns3:TrackPointExtension>
            <ns3:atemp>17.0</ns3:atemp>
          </ns3:TrackPointExtension>
        </extensions>
      </trkpt>
      <trkpt lat="42.603748999536037445068359375" lon="19.88409091718494892120361328125">
        <ele>2142.800048828125</ele>
        <time>2026-06-16T10:05:54.000Z</time>
        <extensions>
          <ns3:TrackPointExtension>
            <ns3:atemp>17.0</ns3:atemp>
          </ns3:TrackPointExtension>
        </extensions>
      </trkpt>
      <trkpt lat="42.603748999536037445068359375" lon="19.88409091718494892120361328125">
        <ele>2142.800048828125</ele>
        <time>2026-06-16T10:05:55.000Z</time>
        <extensions>
          <ns3:TrackPointExtension>
            <ns3:atemp>17.0</ns3:atemp>
          </ns3:TrackPointExtension>
        </extensions>
      </trkpt>
      <trkpt lat="42.603748999536037445068359375" lon="19.88409091718494892120361328125">
        <ele>2142.800048828125</ele>
        <time>2026-06-16T10:05:56.000Z</time>
        <extensions>
          <ns3:TrackPointExtension>
            <ns3:atemp>18.0</ns3:atemp>
          </ns3:TrackPointExtension>
        </extensions>
      </trkpt>
      <trkpt lat="42.603748999536037445068359375" lon="19.88409091718494892120361328125">
        <ele>2142.800048828125</ele>
        <time>2026-06-16T10:05:57.000Z</time>
        <extensions>
          <ns3:TrackPointExtension>
            <ns3:atemp>17.0</ns3:atemp>
          </ns3:TrackPointExtension>
        </extensions>
      </trkpt>
      <trkpt lat="42.603748999536037445068359375" lon="19.88409091718494892120361328125">
        <ele>2142.800048828125</ele>
        <time>2026-06-16T10:05:58.000Z</time>
        <extensions>
          <ns3:TrackPointExtension>
            <ns3:atemp>17.0</ns3:atemp>
          </ns3:TrackPointExtension>
        </extensions>
      </trkpt>
      <trkpt lat="42.603748999536037445068359375" lon="19.88409091718494892120361328125">
        <ele>2142.800048828125</ele>
        <time>2026-06-16T10:05:59.000Z</time>
        <extensions>
          <ns3:TrackPointExtension>
            <ns3:atemp>17.0</ns3:atemp>
          </ns3:TrackPointExtension>
        </extensions>
      </trkpt>
      <trkpt lat="42.603748999536037445068359375" lon="19.88409091718494892120361328125">
        <ele>2142.800048828125</ele>
        <time>2026-06-16T10:06:00.000Z</time>
        <extensions>
          <ns3:TrackPointExtension>
            <ns3:atemp>17.0</ns3:atemp>
          </ns3:TrackPointExtension>
        </extensions>
      </trkpt>
      <trkpt lat="42.603748999536037445068359375" lon="19.88409091718494892120361328125">
        <ele>2142.800048828125</ele>
        <time>2026-06-16T10:06:01.000Z</time>
        <extensions>
          <ns3:TrackPointExtension>
            <ns3:atemp>17.0</ns3:atemp>
          </ns3:TrackPointExtension>
        </extensions>
      </trkpt>
      <trkpt lat="42.603748999536037445068359375" lon="19.88409091718494892120361328125">
        <ele>2142.800048828125</ele>
        <time>2026-06-16T10:06:02.000Z</time>
        <extensions>
          <ns3:TrackPointExtension>
            <ns3:atemp>17.0</ns3:atemp>
          </ns3:TrackPointExtension>
        </extensions>
      </trkpt>
      <trkpt lat="42.603748999536037445068359375" lon="19.88409091718494892120361328125">
        <ele>2142.800048828125</ele>
        <time>2026-06-16T10:06:03.000Z</time>
        <extensions>
          <ns3:TrackPointExtension>
            <ns3:atemp>17.0</ns3:atemp>
          </ns3:TrackPointExtension>
        </extensions>
      </trkpt>
      <trkpt lat="42.603748999536037445068359375" lon="19.88409091718494892120361328125">
        <ele>2142.800048828125</ele>
        <time>2026-06-16T10:06:04.000Z</time>
        <extensions>
          <ns3:TrackPointExtension>
            <ns3:atemp>18.0</ns3:atemp>
          </ns3:TrackPointExtension>
        </extensions>
      </trkpt>
      <trkpt lat="42.603748999536037445068359375" lon="19.88409091718494892120361328125">
        <ele>2142.800048828125</ele>
        <time>2026-06-16T10:06:05.000Z</time>
        <extensions>
          <ns3:TrackPointExtension>
            <ns3:atemp>17.0</ns3:atemp>
          </ns3:TrackPointExtension>
        </extensions>
      </trkpt>
      <trkpt lat="42.603748999536037445068359375" lon="19.88409091718494892120361328125">
        <ele>2142.800048828125</ele>
        <time>2026-06-16T10:06:06.000Z</time>
        <extensions>
          <ns3:TrackPointExtension>
            <ns3:atemp>17.0</ns3:atemp>
          </ns3:TrackPointExtension>
        </extensions>
      </trkpt>
      <trkpt lat="42.603748999536037445068359375" lon="19.88409091718494892120361328125">
        <ele>2142.800048828125</ele>
        <time>2026-06-16T10:06:07.000Z</time>
        <extensions>
          <ns3:TrackPointExtension>
            <ns3:atemp>17.0</ns3:atemp>
          </ns3:TrackPointExtension>
        </extensions>
      </trkpt>
      <trkpt lat="42.603748999536037445068359375" lon="19.88409091718494892120361328125">
        <ele>2142.800048828125</ele>
        <time>2026-06-16T10:06:08.000Z</time>
        <extensions>
          <ns3:TrackPointExtension>
            <ns3:atemp>17.0</ns3:atemp>
          </ns3:TrackPointExtension>
        </extensions>
      </trkpt>
      <trkpt lat="42.603748999536037445068359375" lon="19.88409091718494892120361328125">
        <ele>2142.800048828125</ele>
        <time>2026-06-16T10:06:09.000Z</time>
        <extensions>
          <ns3:TrackPointExtension>
            <ns3:atemp>17.0</ns3:atemp>
          </ns3:TrackPointExtension>
        </extensions>
      </trkpt>
      <trkpt lat="42.603748999536037445068359375" lon="19.88409091718494892120361328125">
        <ele>2142.800048828125</ele>
        <time>2026-06-16T10:06:10.000Z</time>
        <extensions>
          <ns3:TrackPointExtension>
            <ns3:atemp>18.0</ns3:atemp>
          </ns3:TrackPointExtension>
        </extensions>
      </trkpt>
      <trkpt lat="42.603748999536037445068359375" lon="19.88409091718494892120361328125">
        <ele>2142.800048828125</ele>
        <time>2026-06-16T10:06:11.000Z</time>
        <extensions>
          <ns3:TrackPointExtension>
            <ns3:atemp>17.0</ns3:atemp>
          </ns3:TrackPointExtension>
        </extensions>
      </trkpt>
      <trkpt lat="42.603748999536037445068359375" lon="19.88409091718494892120361328125">
        <ele>2142.800048828125</ele>
        <time>2026-06-16T10:06:12.000Z</time>
        <extensions>
          <ns3:TrackPointExtension>
            <ns3:atemp>17.0</ns3:atemp>
          </ns3:TrackPointExtension>
        </extensions>
      </trkpt>
      <trkpt lat="42.603748999536037445068359375" lon="19.88409091718494892120361328125">
        <ele>2142.800048828125</ele>
        <time>2026-06-16T10:06:13.000Z</time>
        <extensions>
          <ns3:TrackPointExtension>
            <ns3:atemp>17.0</ns3:atemp>
          </ns3:TrackPointExtension>
        </extensions>
      </trkpt>
      <trkpt lat="42.603748999536037445068359375" lon="19.88409091718494892120361328125">
        <ele>2142.800048828125</ele>
        <time>2026-06-16T10:06:14.000Z</time>
        <extensions>
          <ns3:TrackPointExtension>
            <ns3:atemp>17.0</ns3:atemp>
          </ns3:TrackPointExtension>
        </extensions>
      </trkpt>
      <trkpt lat="42.603748999536037445068359375" lon="19.88409091718494892120361328125">
        <ele>2142.800048828125</ele>
        <time>2026-06-16T10:06:15.000Z</time>
        <extensions>
          <ns3:TrackPointExtension>
            <ns3:atemp>17.0</ns3:atemp>
          </ns3:TrackPointExtension>
        </extensions>
      </trkpt>
      <trkpt lat="42.603748999536037445068359375" lon="19.88409091718494892120361328125">
        <ele>2142.800048828125</ele>
        <time>2026-06-16T10:06:16.000Z</time>
        <extensions>
          <ns3:TrackPointExtension>
            <ns3:atemp>17.0</ns3:atemp>
          </ns3:TrackPointExtension>
        </extensions>
      </trkpt>
      <trkpt lat="42.603748999536037445068359375" lon="19.88409091718494892120361328125">
        <ele>2142.800048828125</ele>
        <time>2026-06-16T10:06:17.000Z</time>
        <extensions>
          <ns3:TrackPointExtension>
            <ns3:atemp>17.0</ns3:atemp>
          </ns3:TrackPointExtension>
        </extensions>
      </trkpt>
      <trkpt lat="42.603748999536037445068359375" lon="19.88409091718494892120361328125">
        <ele>2142.800048828125</ele>
        <time>2026-06-16T10:06:18.000Z</time>
        <extensions>
          <ns3:TrackPointExtension>
            <ns3:atemp>17.0</ns3:atemp>
          </ns3:TrackPointExtension>
        </extensions>
      </trkpt>
      <trkpt lat="42.603748999536037445068359375" lon="19.88409091718494892120361328125">
        <ele>2142.800048828125</ele>
        <time>2026-06-16T10:06:19.000Z</time>
        <extensions>
          <ns3:TrackPointExtension>
            <ns3:atemp>17.0</ns3:atemp>
          </ns3:TrackPointExtension>
        </extensions>
      </trkpt>
      <trkpt lat="42.603748999536037445068359375" lon="19.88409091718494892120361328125">
        <ele>2142.800048828125</ele>
        <time>2026-06-16T10:06:20.000Z</time>
        <extensions>
          <ns3:TrackPointExtension>
            <ns3:atemp>17.0</ns3:atemp>
          </ns3:TrackPointExtension>
        </extensions>
      </trkpt>
      <trkpt lat="42.603748999536037445068359375" lon="19.88409091718494892120361328125">
        <ele>2142.800048828125</ele>
        <time>2026-06-16T10:06:21.000Z</time>
        <extensions>
          <ns3:TrackPointExtension>
            <ns3:atemp>17.0</ns3:atemp>
          </ns3:TrackPointExtension>
        </extensions>
      </trkpt>
      <trkpt lat="42.603748999536037445068359375" lon="19.88409091718494892120361328125">
        <ele>2142.800048828125</ele>
        <time>2026-06-16T10:06:22.000Z</time>
        <extensions>
          <ns3:TrackPointExtension>
            <ns3:atemp>17.0</ns3:atemp>
          </ns3:TrackPointExtension>
        </extensions>
      </trkpt>
      <trkpt lat="42.603748999536037445068359375" lon="19.88409091718494892120361328125">
        <ele>2142.800048828125</ele>
        <time>2026-06-16T10:06:23.000Z</time>
        <extensions>
          <ns3:TrackPointExtension>
            <ns3:atemp>17.0</ns3:atemp>
          </ns3:TrackPointExtension>
        </extensions>
      </trkpt>
      <trkpt lat="42.603748999536037445068359375" lon="19.88409091718494892120361328125">
        <ele>2142.800048828125</ele>
        <time>2026-06-16T10:06:24.000Z</time>
        <extensions>
          <ns3:TrackPointExtension>
            <ns3:atemp>17.0</ns3:atemp>
          </ns3:TrackPointExtension>
        </extensions>
      </trkpt>
      <trkpt lat="42.603748999536037445068359375" lon="19.88409091718494892120361328125">
        <ele>2142.800048828125</ele>
        <time>2026-06-16T10:06:25.000Z</time>
        <extensions>
          <ns3:TrackPointExtension>
            <ns3:atemp>17.0</ns3:atemp>
          </ns3:TrackPointExtension>
        </extensions>
      </trkpt>
      <trkpt lat="42.603748999536037445068359375" lon="19.88409091718494892120361328125">
        <ele>2142.800048828125</ele>
        <time>2026-06-16T10:06:26.000Z</time>
        <extensions>
          <ns3:TrackPointExtension>
            <ns3:atemp>17.0</ns3:atemp>
          </ns3:TrackPointExtension>
        </extensions>
      </trkpt>
      <trkpt lat="42.603748999536037445068359375" lon="19.88409091718494892120361328125">
        <ele>2142.800048828125</ele>
        <time>2026-06-16T10:06:27.000Z</time>
        <extensions>
          <ns3:TrackPointExtension>
            <ns3:atemp>17.0</ns3:atemp>
          </ns3:TrackPointExtension>
        </extensions>
      </trkpt>
      <trkpt lat="42.603748999536037445068359375" lon="19.88409091718494892120361328125">
        <ele>2142.800048828125</ele>
        <time>2026-06-16T10:06:28.000Z</time>
        <extensions>
          <ns3:TrackPointExtension>
            <ns3:atemp>17.0</ns3:atemp>
          </ns3:TrackPointExtension>
        </extensions>
      </trkpt>
      <trkpt lat="42.603748999536037445068359375" lon="19.88409091718494892120361328125">
        <ele>2142.800048828125</ele>
        <time>2026-06-16T10:06:29.000Z</time>
        <extensions>
          <ns3:TrackPointExtension>
            <ns3:atemp>17.0</ns3:atemp>
          </ns3:TrackPointExtension>
        </extensions>
      </trkpt>
      <trkpt lat="42.603748999536037445068359375" lon="19.88409091718494892120361328125">
        <ele>2142.800048828125</ele>
        <time>2026-06-16T10:06:30.000Z</time>
        <extensions>
          <ns3:TrackPointExtension>
            <ns3:atemp>17.0</ns3:atemp>
          </ns3:TrackPointExtension>
        </extensions>
      </trkpt>
      <trkpt lat="42.603748999536037445068359375" lon="19.88409091718494892120361328125">
        <ele>2142.800048828125</ele>
        <time>2026-06-16T10:06:31.000Z</time>
        <extensions>
          <ns3:TrackPointExtension>
            <ns3:atemp>17.0</ns3:atemp>
          </ns3:TrackPointExtension>
        </extensions>
      </trkpt>
      <trkpt lat="42.603748999536037445068359375" lon="19.88409091718494892120361328125">
        <ele>2142.800048828125</ele>
        <time>2026-06-16T10:06:32.000Z</time>
        <extensions>
          <ns3:TrackPointExtension>
            <ns3:atemp>17.0</ns3:atemp>
          </ns3:TrackPointExtension>
        </extensions>
      </trkpt>
      <trkpt lat="42.603748999536037445068359375" lon="19.88409091718494892120361328125">
        <ele>2142.800048828125</ele>
        <time>2026-06-16T10:06:33.000Z</time>
        <extensions>
          <ns3:TrackPointExtension>
            <ns3:atemp>17.0</ns3:atemp>
          </ns3:TrackPointExtension>
        </extensions>
      </trkpt>
      <trkpt lat="42.603748999536037445068359375" lon="19.88409091718494892120361328125">
        <ele>2142.800048828125</ele>
        <time>2026-06-16T10:06:34.000Z</time>
        <extensions>
          <ns3:TrackPointExtension>
            <ns3:atemp>17.0</ns3:atemp>
          </ns3:TrackPointExtension>
        </extensions>
      </trkpt>
      <trkpt lat="42.603748999536037445068359375" lon="19.88409091718494892120361328125">
        <ele>2142.800048828125</ele>
        <time>2026-06-16T10:06:35.000Z</time>
        <extensions>
          <ns3:TrackPointExtension>
            <ns3:atemp>17.0</ns3:atemp>
          </ns3:TrackPointExtension>
        </extensions>
      </trkpt>
      <trkpt lat="42.603748999536037445068359375" lon="19.88409091718494892120361328125">
        <ele>2142.800048828125</ele>
        <time>2026-06-16T10:06:36.000Z</time>
        <extensions>
          <ns3:TrackPointExtension>
            <ns3:atemp>17.0</ns3:atemp>
          </ns3:TrackPointExtension>
        </extensions>
      </trkpt>
      <trkpt lat="42.603748999536037445068359375" lon="19.88409091718494892120361328125">
        <ele>2142.800048828125</ele>
        <time>2026-06-16T10:06:37.000Z</time>
        <extensions>
          <ns3:TrackPointExtension>
            <ns3:atemp>17.0</ns3:atemp>
          </ns3:TrackPointExtension>
        </extensions>
      </trkpt>
      <trkpt lat="42.603748999536037445068359375" lon="19.88409091718494892120361328125">
        <ele>2142.800048828125</ele>
        <time>2026-06-16T10:06:38.000Z</time>
        <extensions>
          <ns3:TrackPointExtension>
            <ns3:atemp>17.0</ns3:atemp>
          </ns3:TrackPointExtension>
        </extensions>
      </trkpt>
      <trkpt lat="42.603748999536037445068359375" lon="19.88409091718494892120361328125">
        <ele>2142.800048828125</ele>
        <time>2026-06-16T10:06:39.000Z</time>
        <extensions>
          <ns3:TrackPointExtension>
            <ns3:atemp>17.0</ns3:atemp>
          </ns3:TrackPointExtension>
        </extensions>
      </trkpt>
      <trkpt lat="42.603748999536037445068359375" lon="19.88409091718494892120361328125">
        <ele>2142.800048828125</ele>
        <time>2026-06-16T10:06:40.000Z</time>
        <extensions>
          <ns3:TrackPointExtension>
            <ns3:atemp>17.0</ns3:atemp>
          </ns3:TrackPointExtension>
        </extensions>
      </trkpt>
      <trkpt lat="42.603748999536037445068359375" lon="19.88409091718494892120361328125">
        <ele>2142.800048828125</ele>
        <time>2026-06-16T10:06:41.000Z</time>
        <extensions>
          <ns3:TrackPointExtension>
            <ns3:atemp>17.0</ns3:atemp>
          </ns3:TrackPointExtension>
        </extensions>
      </trkpt>
      <trkpt lat="42.603748999536037445068359375" lon="19.88409091718494892120361328125">
        <ele>2142.800048828125</ele>
        <time>2026-06-16T10:06:42.000Z</time>
        <extensions>
          <ns3:TrackPointExtension>
            <ns3:atemp>17.0</ns3:atemp>
          </ns3:TrackPointExtension>
        </extensions>
      </trkpt>
      <trkpt lat="42.603748999536037445068359375" lon="19.88409091718494892120361328125">
        <ele>2142.800048828125</ele>
        <time>2026-06-16T10:06:43.000Z</time>
        <extensions>
          <ns3:TrackPointExtension>
            <ns3:atemp>17.0</ns3:atemp>
          </ns3:TrackPointExtension>
        </extensions>
      </trkpt>
      <trkpt lat="42.603748999536037445068359375" lon="19.88409091718494892120361328125">
        <ele>2142.800048828125</ele>
        <time>2026-06-16T10:06:44.000Z</time>
        <extensions>
          <ns3:TrackPointExtension>
            <ns3:atemp>17.0</ns3:atemp>
          </ns3:TrackPointExtension>
        </extensions>
      </trkpt>
      <trkpt lat="42.603748999536037445068359375" lon="19.88409091718494892120361328125">
        <ele>2142.800048828125</ele>
        <time>2026-06-16T10:06:45.000Z</time>
        <extensions>
          <ns3:TrackPointExtension>
            <ns3:atemp>17.0</ns3:atemp>
          </ns3:TrackPointExtension>
        </extensions>
      </trkpt>
      <trkpt lat="42.603748999536037445068359375" lon="19.88409091718494892120361328125">
        <ele>2142.800048828125</ele>
        <time>2026-06-16T10:06:46.000Z</time>
        <extensions>
          <ns3:TrackPointExtension>
            <ns3:atemp>17.0</ns3:atemp>
          </ns3:TrackPointExtension>
        </extensions>
      </trkpt>
      <trkpt lat="42.603748999536037445068359375" lon="19.88409091718494892120361328125">
        <ele>2142.800048828125</ele>
        <time>2026-06-16T10:06:47.000Z</time>
        <extensions>
          <ns3:TrackPointExtension>
            <ns3:atemp>17.0</ns3:atemp>
          </ns3:TrackPointExtension>
        </extensions>
      </trkpt>
      <trkpt lat="42.603748999536037445068359375" lon="19.88409091718494892120361328125">
        <ele>2142.800048828125</ele>
        <time>2026-06-16T10:06:48.000Z</time>
        <extensions>
          <ns3:TrackPointExtension>
            <ns3:atemp>17.0</ns3:atemp>
          </ns3:TrackPointExtension>
        </extensions>
      </trkpt>
      <trkpt lat="42.603748999536037445068359375" lon="19.88409091718494892120361328125">
        <ele>2142.800048828125</ele>
        <time>2026-06-16T10:06:49.000Z</time>
        <extensions>
          <ns3:TrackPointExtension>
            <ns3:atemp>17.0</ns3:atemp>
          </ns3:TrackPointExtension>
        </extensions>
      </trkpt>
      <trkpt lat="42.603748999536037445068359375" lon="19.88409091718494892120361328125">
        <ele>2142.800048828125</ele>
        <time>2026-06-16T10:06:50.000Z</time>
        <extensions>
          <ns3:TrackPointExtension>
            <ns3:atemp>17.0</ns3:atemp>
          </ns3:TrackPointExtension>
        </extensions>
      </trkpt>
      <trkpt lat="42.603748999536037445068359375" lon="19.88409091718494892120361328125">
        <ele>2142.800048828125</ele>
        <time>2026-06-16T10:06:51.000Z</time>
        <extensions>
          <ns3:TrackPointExtension>
            <ns3:atemp>17.0</ns3:atemp>
          </ns3:TrackPointExtension>
        </extensions>
      </trkpt>
      <trkpt lat="42.603748999536037445068359375" lon="19.88409091718494892120361328125">
        <ele>2142.800048828125</ele>
        <time>2026-06-16T10:06:52.000Z</time>
        <extensions>
          <ns3:TrackPointExtension>
            <ns3:atemp>17.0</ns3:atemp>
          </ns3:TrackPointExtension>
        </extensions>
      </trkpt>
      <trkpt lat="42.603748999536037445068359375" lon="19.88409091718494892120361328125">
        <ele>2142.800048828125</ele>
        <time>2026-06-16T10:06:53.000Z</time>
        <extensions>
          <ns3:TrackPointExtension>
            <ns3:atemp>17.0</ns3:atemp>
          </ns3:TrackPointExtension>
        </extensions>
      </trkpt>
      <trkpt lat="42.603748999536037445068359375" lon="19.88409091718494892120361328125">
        <ele>2142.800048828125</ele>
        <time>2026-06-16T10:06:54.000Z</time>
        <extensions>
          <ns3:TrackPointExtension>
            <ns3:atemp>17.0</ns3:atemp>
          </ns3:TrackPointExtension>
        </extensions>
      </trkpt>
      <trkpt lat="42.603748999536037445068359375" lon="19.88409091718494892120361328125">
        <ele>2142.800048828125</ele>
        <time>2026-06-16T10:06:55.000Z</time>
        <extensions>
          <ns3:TrackPointExtension>
            <ns3:atemp>17.0</ns3:atemp>
          </ns3:TrackPointExtension>
        </extensions>
      </trkpt>
      <trkpt lat="42.603748999536037445068359375" lon="19.88409091718494892120361328125">
        <ele>2142.800048828125</ele>
        <time>2026-06-16T10:06:56.000Z</time>
        <extensions>
          <ns3:TrackPointExtension>
            <ns3:atemp>17.0</ns3:atemp>
          </ns3:TrackPointExtension>
        </extensions>
      </trkpt>
      <trkpt lat="42.603748999536037445068359375" lon="19.88409091718494892120361328125">
        <ele>2142.800048828125</ele>
        <time>2026-06-16T10:06:57.000Z</time>
        <extensions>
          <ns3:TrackPointExtension>
            <ns3:atemp>17.0</ns3:atemp>
          </ns3:TrackPointExtension>
        </extensions>
      </trkpt>
      <trkpt lat="42.603748999536037445068359375" lon="19.88409091718494892120361328125">
        <ele>2142.800048828125</ele>
        <time>2026-06-16T10:06:58.000Z</time>
        <extensions>
          <ns3:TrackPointExtension>
            <ns3:atemp>17.0</ns3:atemp>
          </ns3:TrackPointExtension>
        </extensions>
      </trkpt>
      <trkpt lat="42.603748999536037445068359375" lon="19.88409091718494892120361328125">
        <ele>2142.800048828125</ele>
        <time>2026-06-16T10:06:59.000Z</time>
        <extensions>
          <ns3:TrackPointExtension>
            <ns3:atemp>17.0</ns3:atemp>
          </ns3:TrackPointExtension>
        </extensions>
      </trkpt>
      <trkpt lat="42.603748999536037445068359375" lon="19.88409091718494892120361328125">
        <ele>2142.800048828125</ele>
        <time>2026-06-16T10:07:00.000Z</time>
        <extensions>
          <ns3:TrackPointExtension>
            <ns3:atemp>17.0</ns3:atemp>
          </ns3:TrackPointExtension>
        </extensions>
      </trkpt>
      <trkpt lat="42.603748999536037445068359375" lon="19.88409091718494892120361328125">
        <ele>2142.800048828125</ele>
        <time>2026-06-16T10:07:01.000Z</time>
        <extensions>
          <ns3:TrackPointExtension>
            <ns3:atemp>17.0</ns3:atemp>
          </ns3:TrackPointExtension>
        </extensions>
      </trkpt>
      <trkpt lat="42.603748999536037445068359375" lon="19.88409091718494892120361328125">
        <ele>2142.800048828125</ele>
        <time>2026-06-16T10:07:02.000Z</time>
        <extensions>
          <ns3:TrackPointExtension>
            <ns3:atemp>17.0</ns3:atemp>
          </ns3:TrackPointExtension>
        </extensions>
      </trkpt>
      <trkpt lat="42.603748999536037445068359375" lon="19.88409091718494892120361328125">
        <ele>2142.800048828125</ele>
        <time>2026-06-16T10:07:03.000Z</time>
        <extensions>
          <ns3:TrackPointExtension>
            <ns3:atemp>17.0</ns3:atemp>
          </ns3:TrackPointExtension>
        </extensions>
      </trkpt>
      <trkpt lat="42.603748999536037445068359375" lon="19.88409091718494892120361328125">
        <ele>2142.800048828125</ele>
        <time>2026-06-16T10:07:04.000Z</time>
        <extensions>
          <ns3:TrackPointExtension>
            <ns3:atemp>17.0</ns3:atemp>
          </ns3:TrackPointExtension>
        </extensions>
      </trkpt>
      <trkpt lat="42.603748999536037445068359375" lon="19.88409091718494892120361328125">
        <ele>2142.800048828125</ele>
        <time>2026-06-16T10:07:05.000Z</time>
        <extensions>
          <ns3:TrackPointExtension>
            <ns3:atemp>17.0</ns3:atemp>
          </ns3:TrackPointExtension>
        </extensions>
      </trkpt>
      <trkpt lat="42.603748999536037445068359375" lon="19.88409091718494892120361328125">
        <ele>2142.800048828125</ele>
        <time>2026-06-16T10:07:06.000Z</time>
        <extensions>
          <ns3:TrackPointExtension>
            <ns3:atemp>17.0</ns3:atemp>
          </ns3:TrackPointExtension>
        </extensions>
      </trkpt>
      <trkpt lat="42.603748999536037445068359375" lon="19.88409091718494892120361328125">
        <ele>2142.800048828125</ele>
        <time>2026-06-16T10:07:07.000Z</time>
        <extensions>
          <ns3:TrackPointExtension>
            <ns3:atemp>17.0</ns3:atemp>
          </ns3:TrackPointExtension>
        </extensions>
      </trkpt>
      <trkpt lat="42.603748999536037445068359375" lon="19.88409091718494892120361328125">
        <ele>2142.800048828125</ele>
        <time>2026-06-16T10:07:08.000Z</time>
        <extensions>
          <ns3:TrackPointExtension>
            <ns3:atemp>17.0</ns3:atemp>
          </ns3:TrackPointExtension>
        </extensions>
      </trkpt>
      <trkpt lat="42.603748999536037445068359375" lon="19.88409091718494892120361328125">
        <ele>2142.800048828125</ele>
        <time>2026-06-16T10:07:09.000Z</time>
        <extensions>
          <ns3:TrackPointExtension>
            <ns3:atemp>17.0</ns3:atemp>
          </ns3:TrackPointExtension>
        </extensions>
      </trkpt>
      <trkpt lat="42.603748999536037445068359375" lon="19.88409091718494892120361328125">
        <ele>2142.800048828125</ele>
        <time>2026-06-16T10:07:10.000Z</time>
        <extensions>
          <ns3:TrackPointExtension>
            <ns3:atemp>17.0</ns3:atemp>
          </ns3:TrackPointExtension>
        </extensions>
      </trkpt>
      <trkpt lat="42.603748999536037445068359375" lon="19.88409091718494892120361328125">
        <ele>2142.800048828125</ele>
        <time>2026-06-16T10:07:11.000Z</time>
        <extensions>
          <ns3:TrackPointExtension>
            <ns3:atemp>17.0</ns3:atemp>
          </ns3:TrackPointExtension>
        </extensions>
      </trkpt>
      <trkpt lat="42.603748999536037445068359375" lon="19.88409091718494892120361328125">
        <ele>2142.800048828125</ele>
        <time>2026-06-16T10:07:12.000Z</time>
        <extensions>
          <ns3:TrackPointExtension>
            <ns3:atemp>17.0</ns3:atemp>
          </ns3:TrackPointExtension>
        </extensions>
      </trkpt>
      <trkpt lat="42.603748999536037445068359375" lon="19.88409091718494892120361328125">
        <ele>2142.800048828125</ele>
        <time>2026-06-16T10:07:13.000Z</time>
        <extensions>
          <ns3:TrackPointExtension>
            <ns3:atemp>17.0</ns3:atemp>
          </ns3:TrackPointExtension>
        </extensions>
      </trkpt>
      <trkpt lat="42.603748999536037445068359375" lon="19.88409091718494892120361328125">
        <ele>2142.800048828125</ele>
        <time>2026-06-16T10:07:14.000Z</time>
        <extensions>
          <ns3:TrackPointExtension>
            <ns3:atemp>17.0</ns3:atemp>
          </ns3:TrackPointExtension>
        </extensions>
      </trkpt>
      <trkpt lat="42.603748999536037445068359375" lon="19.88409091718494892120361328125">
        <ele>2142.800048828125</ele>
        <time>2026-06-16T10:07:15.000Z</time>
        <extensions>
          <ns3:TrackPointExtension>
            <ns3:atemp>17.0</ns3:atemp>
          </ns3:TrackPointExtension>
        </extensions>
      </trkpt>
      <trkpt lat="42.603748999536037445068359375" lon="19.88409091718494892120361328125">
        <ele>2142.800048828125</ele>
        <time>2026-06-16T10:07:16.000Z</time>
        <extensions>
          <ns3:TrackPointExtension>
            <ns3:atemp>17.0</ns3:atemp>
          </ns3:TrackPointExtension>
        </extensions>
      </trkpt>
      <trkpt lat="42.603748999536037445068359375" lon="19.88409091718494892120361328125">
        <ele>2142.800048828125</ele>
        <time>2026-06-16T10:07:17.000Z</time>
        <extensions>
          <ns3:TrackPointExtension>
            <ns3:atemp>17.0</ns3:atemp>
          </ns3:TrackPointExtension>
        </extensions>
      </trkpt>
      <trkpt lat="42.603748999536037445068359375" lon="19.88409091718494892120361328125">
        <ele>2142.800048828125</ele>
        <time>2026-06-16T10:07:18.000Z</time>
        <extensions>
          <ns3:TrackPointExtension>
            <ns3:atemp>17.0</ns3:atemp>
          </ns3:TrackPointExtension>
        </extensions>
      </trkpt>
      <trkpt lat="42.603748999536037445068359375" lon="19.88409091718494892120361328125">
        <ele>2142.800048828125</ele>
        <time>2026-06-16T10:07:19.000Z</time>
        <extensions>
          <ns3:TrackPointExtension>
            <ns3:atemp>17.0</ns3:atemp>
          </ns3:TrackPointExtension>
        </extensions>
      </trkpt>
      <trkpt lat="42.603748999536037445068359375" lon="19.88409091718494892120361328125">
        <ele>2142.800048828125</ele>
        <time>2026-06-16T10:07:20.000Z</time>
        <extensions>
          <ns3:TrackPointExtension>
            <ns3:atemp>17.0</ns3:atemp>
          </ns3:TrackPointExtension>
        </extensions>
      </trkpt>
      <trkpt lat="42.603748999536037445068359375" lon="19.88409091718494892120361328125">
        <ele>2142.800048828125</ele>
        <time>2026-06-16T10:07:21.000Z</time>
        <extensions>
          <ns3:TrackPointExtension>
            <ns3:atemp>17.0</ns3:atemp>
          </ns3:TrackPointExtension>
        </extensions>
      </trkpt>
      <trkpt lat="42.603748999536037445068359375" lon="19.88409091718494892120361328125">
        <ele>2142.800048828125</ele>
        <time>2026-06-16T10:07:22.000Z</time>
        <extensions>
          <ns3:TrackPointExtension>
            <ns3:atemp>17.0</ns3:atemp>
          </ns3:TrackPointExtension>
        </extensions>
      </trkpt>
      <trkpt lat="42.603748999536037445068359375" lon="19.88409091718494892120361328125">
        <ele>2142.800048828125</ele>
        <time>2026-06-16T10:07:23.000Z</time>
        <extensions>
          <ns3:TrackPointExtension>
            <ns3:atemp>17.0</ns3:atemp>
          </ns3:TrackPointExtension>
        </extensions>
      </trkpt>
      <trkpt lat="42.603748999536037445068359375" lon="19.88409091718494892120361328125">
        <ele>2142.800048828125</ele>
        <time>2026-06-16T10:07:24.000Z</time>
        <extensions>
          <ns3:TrackPointExtension>
            <ns3:atemp>17.0</ns3:atemp>
          </ns3:TrackPointExtension>
        </extensions>
      </trkpt>
      <trkpt lat="42.603748999536037445068359375" lon="19.88409091718494892120361328125">
        <ele>2142.800048828125</ele>
        <time>2026-06-16T10:07:25.000Z</time>
        <extensions>
          <ns3:TrackPointExtension>
            <ns3:atemp>17.0</ns3:atemp>
          </ns3:TrackPointExtension>
        </extensions>
      </trkpt>
      <trkpt lat="42.603748999536037445068359375" lon="19.88409091718494892120361328125">
        <ele>2142.800048828125</ele>
        <time>2026-06-16T10:07:26.000Z</time>
        <extensions>
          <ns3:TrackPointExtension>
            <ns3:atemp>17.0</ns3:atemp>
          </ns3:TrackPointExtension>
        </extensions>
      </trkpt>
      <trkpt lat="42.603748999536037445068359375" lon="19.88409091718494892120361328125">
        <ele>2142.800048828125</ele>
        <time>2026-06-16T10:07:27.000Z</time>
        <extensions>
          <ns3:TrackPointExtension>
            <ns3:atemp>17.0</ns3:atemp>
          </ns3:TrackPointExtension>
        </extensions>
      </trkpt>
      <trkpt lat="42.603748999536037445068359375" lon="19.88409091718494892120361328125">
        <ele>2142.800048828125</ele>
        <time>2026-06-16T10:07:28.000Z</time>
        <extensions>
          <ns3:TrackPointExtension>
            <ns3:atemp>17.0</ns3:atemp>
          </ns3:TrackPointExtension>
        </extensions>
      </trkpt>
      <trkpt lat="42.603748999536037445068359375" lon="19.88409091718494892120361328125">
        <ele>2142.800048828125</ele>
        <time>2026-06-16T10:07:29.000Z</time>
        <extensions>
          <ns3:TrackPointExtension>
            <ns3:atemp>17.0</ns3:atemp>
          </ns3:TrackPointExtension>
        </extensions>
      </trkpt>
      <trkpt lat="42.603748999536037445068359375" lon="19.88409091718494892120361328125">
        <ele>2142.800048828125</ele>
        <time>2026-06-16T10:07:30.000Z</time>
        <extensions>
          <ns3:TrackPointExtension>
            <ns3:atemp>17.0</ns3:atemp>
          </ns3:TrackPointExtension>
        </extensions>
      </trkpt>
      <trkpt lat="42.603748999536037445068359375" lon="19.88409091718494892120361328125">
        <ele>2142.800048828125</ele>
        <time>2026-06-16T10:07:31.000Z</time>
        <extensions>
          <ns3:TrackPointExtension>
            <ns3:atemp>17.0</ns3:atemp>
          </ns3:TrackPointExtension>
        </extensions>
      </trkpt>
      <trkpt lat="42.603748999536037445068359375" lon="19.88409091718494892120361328125">
        <ele>2142.800048828125</ele>
        <time>2026-06-16T10:07:32.000Z</time>
        <extensions>
          <ns3:TrackPointExtension>
            <ns3:atemp>17.0</ns3:atemp>
          </ns3:TrackPointExtension>
        </extensions>
      </trkpt>
      <trkpt lat="42.603748999536037445068359375" lon="19.88409091718494892120361328125">
        <ele>2142.800048828125</ele>
        <time>2026-06-16T10:07:33.000Z</time>
        <extensions>
          <ns3:TrackPointExtension>
            <ns3:atemp>17.0</ns3:atemp>
          </ns3:TrackPointExtension>
        </extensions>
      </trkpt>
      <trkpt lat="42.603748999536037445068359375" lon="19.88409091718494892120361328125">
        <ele>2142.800048828125</ele>
        <time>2026-06-16T10:07:34.000Z</time>
        <extensions>
          <ns3:TrackPointExtension>
            <ns3:atemp>17.0</ns3:atemp>
          </ns3:TrackPointExtension>
        </extensions>
      </trkpt>
      <trkpt lat="42.603748999536037445068359375" lon="19.88409091718494892120361328125">
        <ele>2142.800048828125</ele>
        <time>2026-06-16T10:07:35.000Z</time>
        <extensions>
          <ns3:TrackPointExtension>
            <ns3:atemp>17.0</ns3:atemp>
          </ns3:TrackPointExtension>
        </extensions>
      </trkpt>
      <trkpt lat="42.603748999536037445068359375" lon="19.88409091718494892120361328125">
        <ele>2142.800048828125</ele>
        <time>2026-06-16T10:07:36.000Z</time>
        <extensions>
          <ns3:TrackPointExtension>
            <ns3:atemp>17.0</ns3:atemp>
          </ns3:TrackPointExtension>
        </extensions>
      </trkpt>
      <trkpt lat="42.603748999536037445068359375" lon="19.88409091718494892120361328125">
        <ele>2142.800048828125</ele>
        <time>2026-06-16T10:07:37.000Z</time>
        <extensions>
          <ns3:TrackPointExtension>
            <ns3:atemp>17.0</ns3:atemp>
          </ns3:TrackPointExtension>
        </extensions>
      </trkpt>
      <trkpt lat="42.603748999536037445068359375" lon="19.88409091718494892120361328125">
        <ele>2142.800048828125</ele>
        <time>2026-06-16T10:07:38.000Z</time>
        <extensions>
          <ns3:TrackPointExtension>
            <ns3:atemp>17.0</ns3:atemp>
          </ns3:TrackPointExtension>
        </extensions>
      </trkpt>
      <trkpt lat="42.603748999536037445068359375" lon="19.88409091718494892120361328125">
        <ele>2142.800048828125</ele>
        <time>2026-06-16T10:07:39.000Z</time>
        <extensions>
          <ns3:TrackPointExtension>
            <ns3:atemp>17.0</ns3:atemp>
          </ns3:TrackPointExtension>
        </extensions>
      </trkpt>
      <trkpt lat="42.603748999536037445068359375" lon="19.88409091718494892120361328125">
        <ele>2142.800048828125</ele>
        <time>2026-06-16T10:07:40.000Z</time>
        <extensions>
          <ns3:TrackPointExtension>
            <ns3:atemp>17.0</ns3:atemp>
          </ns3:TrackPointExtension>
        </extensions>
      </trkpt>
      <trkpt lat="42.603748999536037445068359375" lon="19.88409091718494892120361328125">
        <ele>2142.800048828125</ele>
        <time>2026-06-16T10:07:41.000Z</time>
        <extensions>
          <ns3:TrackPointExtension>
            <ns3:atemp>17.0</ns3:atemp>
          </ns3:TrackPointExtension>
        </extensions>
      </trkpt>
      <trkpt lat="42.603748999536037445068359375" lon="19.88409091718494892120361328125">
        <ele>2142.800048828125</ele>
        <time>2026-06-16T10:07:42.000Z</time>
        <extensions>
          <ns3:TrackPointExtension>
            <ns3:atemp>17.0</ns3:atemp>
          </ns3:TrackPointExtension>
        </extensions>
      </trkpt>
      <trkpt lat="42.603748999536037445068359375" lon="19.88409091718494892120361328125">
        <ele>2142.800048828125</ele>
        <time>2026-06-16T10:07:43.000Z</time>
        <extensions>
          <ns3:TrackPointExtension>
            <ns3:atemp>17.0</ns3:atemp>
          </ns3:TrackPointExtension>
        </extensions>
      </trkpt>
      <trkpt lat="42.603748999536037445068359375" lon="19.88409091718494892120361328125">
        <ele>2142.800048828125</ele>
        <time>2026-06-16T10:07:44.000Z</time>
        <extensions>
          <ns3:TrackPointExtension>
            <ns3:atemp>17.0</ns3:atemp>
          </ns3:TrackPointExtension>
        </extensions>
      </trkpt>
      <trkpt lat="42.603748999536037445068359375" lon="19.88409091718494892120361328125">
        <ele>2142.800048828125</ele>
        <time>2026-06-16T10:07:45.000Z</time>
        <extensions>
          <ns3:TrackPointExtension>
            <ns3:atemp>17.0</ns3:atemp>
          </ns3:TrackPointExtension>
        </extensions>
      </trkpt>
      <trkpt lat="42.603748999536037445068359375" lon="19.88409091718494892120361328125">
        <ele>2142.800048828125</ele>
        <time>2026-06-16T10:07:46.000Z</time>
        <extensions>
          <ns3:TrackPointExtension>
            <ns3:atemp>17.0</ns3:atemp>
          </ns3:TrackPointExtension>
        </extensions>
      </trkpt>
      <trkpt lat="42.603748999536037445068359375" lon="19.88409091718494892120361328125">
        <ele>2142.800048828125</ele>
        <time>2026-06-16T10:07:47.000Z</time>
        <extensions>
          <ns3:TrackPointExtension>
            <ns3:atemp>17.0</ns3:atemp>
          </ns3:TrackPointExtension>
        </extensions>
      </trkpt>
      <trkpt lat="42.603748999536037445068359375" lon="19.88409091718494892120361328125">
        <ele>2142.800048828125</ele>
        <time>2026-06-16T10:07:48.000Z</time>
        <extensions>
          <ns3:TrackPointExtension>
            <ns3:atemp>17.0</ns3:atemp>
          </ns3:TrackPointExtension>
        </extensions>
      </trkpt>
      <trkpt lat="42.603748999536037445068359375" lon="19.88409091718494892120361328125">
        <ele>2142.800048828125</ele>
        <time>2026-06-16T10:07:49.000Z</time>
        <extensions>
          <ns3:TrackPointExtension>
            <ns3:atemp>17.0</ns3:atemp>
          </ns3:TrackPointExtension>
        </extensions>
      </trkpt>
      <trkpt lat="42.603748999536037445068359375" lon="19.88409091718494892120361328125">
        <ele>2142.800048828125</ele>
        <time>2026-06-16T10:07:50.000Z</time>
        <extensions>
          <ns3:TrackPointExtension>
            <ns3:atemp>17.0</ns3:atemp>
          </ns3:TrackPointExtension>
        </extensions>
      </trkpt>
      <trkpt lat="42.603748999536037445068359375" lon="19.88409091718494892120361328125">
        <ele>2142.800048828125</ele>
        <time>2026-06-16T10:07:51.000Z</time>
        <extensions>
          <ns3:TrackPointExtension>
            <ns3:atemp>17.0</ns3:atemp>
          </ns3:TrackPointExtension>
        </extensions>
      </trkpt>
      <trkpt lat="42.603748999536037445068359375" lon="19.88409091718494892120361328125">
        <ele>2142.800048828125</ele>
        <time>2026-06-16T10:07:52.000Z</time>
        <extensions>
          <ns3:TrackPointExtension>
            <ns3:atemp>17.0</ns3:atemp>
          </ns3:TrackPointExtension>
        </extensions>
      </trkpt>
      <trkpt lat="42.603748999536037445068359375" lon="19.88409091718494892120361328125">
        <ele>2142.800048828125</ele>
        <time>2026-06-16T10:07:53.000Z</time>
        <extensions>
          <ns3:TrackPointExtension>
            <ns3:atemp>17.0</ns3:atemp>
          </ns3:TrackPointExtension>
        </extensions>
      </trkpt>
      <trkpt lat="42.603748999536037445068359375" lon="19.88409091718494892120361328125">
        <ele>2142.800048828125</ele>
        <time>2026-06-16T10:07:54.000Z</time>
        <extensions>
          <ns3:TrackPointExtension>
            <ns3:atemp>17.0</ns3:atemp>
          </ns3:TrackPointExtension>
        </extensions>
      </trkpt>
      <trkpt lat="42.603748999536037445068359375" lon="19.88409091718494892120361328125">
        <ele>2142.800048828125</ele>
        <time>2026-06-16T10:07:55.000Z</time>
        <extensions>
          <ns3:TrackPointExtension>
            <ns3:atemp>17.0</ns3:atemp>
          </ns3:TrackPointExtension>
        </extensions>
      </trkpt>
      <trkpt lat="42.603748999536037445068359375" lon="19.88409091718494892120361328125">
        <ele>2142.800048828125</ele>
        <time>2026-06-16T10:07:56.000Z</time>
        <extensions>
          <ns3:TrackPointExtension>
            <ns3:atemp>17.0</ns3:atemp>
          </ns3:TrackPointExtension>
        </extensions>
      </trkpt>
      <trkpt lat="42.603748999536037445068359375" lon="19.88409091718494892120361328125">
        <ele>2142.800048828125</ele>
        <time>2026-06-16T10:07:57.000Z</time>
        <extensions>
          <ns3:TrackPointExtension>
            <ns3:atemp>17.0</ns3:atemp>
          </ns3:TrackPointExtension>
        </extensions>
      </trkpt>
      <trkpt lat="42.603748999536037445068359375" lon="19.88409091718494892120361328125">
        <ele>2142.800048828125</ele>
        <time>2026-06-16T10:07:58.000Z</time>
        <extensions>
          <ns3:TrackPointExtension>
            <ns3:atemp>17.0</ns3:atemp>
          </ns3:TrackPointExtension>
        </extensions>
      </trkpt>
      <trkpt lat="42.603748999536037445068359375" lon="19.88409091718494892120361328125">
        <ele>2142.800048828125</ele>
        <time>2026-06-16T10:07:59.000Z</time>
        <extensions>
          <ns3:TrackPointExtension>
            <ns3:atemp>17.0</ns3:atemp>
          </ns3:TrackPointExtension>
        </extensions>
      </trkpt>
      <trkpt lat="42.603748999536037445068359375" lon="19.88409091718494892120361328125">
        <ele>2142.800048828125</ele>
        <time>2026-06-16T10:08:00.000Z</time>
        <extensions>
          <ns3:TrackPointExtension>
            <ns3:atemp>17.0</ns3:atemp>
          </ns3:TrackPointExtension>
        </extensions>
      </trkpt>
      <trkpt lat="42.603748999536037445068359375" lon="19.88409091718494892120361328125">
        <ele>2142.800048828125</ele>
        <time>2026-06-16T10:08:01.000Z</time>
        <extensions>
          <ns3:TrackPointExtension>
            <ns3:atemp>17.0</ns3:atemp>
          </ns3:TrackPointExtension>
        </extensions>
      </trkpt>
      <trkpt lat="42.603748999536037445068359375" lon="19.88409091718494892120361328125">
        <ele>2142.800048828125</ele>
        <time>2026-06-16T10:08:02.000Z</time>
        <extensions>
          <ns3:TrackPointExtension>
            <ns3:atemp>17.0</ns3:atemp>
          </ns3:TrackPointExtension>
        </extensions>
      </trkpt>
      <trkpt lat="42.603748999536037445068359375" lon="19.88409091718494892120361328125">
        <ele>2142.800048828125</ele>
        <time>2026-06-16T10:08:03.000Z</time>
        <extensions>
          <ns3:TrackPointExtension>
            <ns3:atemp>17.0</ns3:atemp>
          </ns3:TrackPointExtension>
        </extensions>
      </trkpt>
      <trkpt lat="42.603748999536037445068359375" lon="19.88409091718494892120361328125">
        <ele>2142.800048828125</ele>
        <time>2026-06-16T10:08:04.000Z</time>
        <extensions>
          <ns3:TrackPointExtension>
            <ns3:atemp>17.0</ns3:atemp>
          </ns3:TrackPointExtension>
        </extensions>
      </trkpt>
      <trkpt lat="42.603748999536037445068359375" lon="19.88409091718494892120361328125">
        <ele>2142.800048828125</ele>
        <time>2026-06-16T10:08:05.000Z</time>
        <extensions>
          <ns3:TrackPointExtension>
            <ns3:atemp>17.0</ns3:atemp>
          </ns3:TrackPointExtension>
        </extensions>
      </trkpt>
      <trkpt lat="42.603748999536037445068359375" lon="19.88409091718494892120361328125">
        <ele>2142.800048828125</ele>
        <time>2026-06-16T10:08:06.000Z</time>
        <extensions>
          <ns3:TrackPointExtension>
            <ns3:atemp>17.0</ns3:atemp>
          </ns3:TrackPointExtension>
        </extensions>
      </trkpt>
      <trkpt lat="42.603748999536037445068359375" lon="19.88409091718494892120361328125">
        <ele>2142.800048828125</ele>
        <time>2026-06-16T10:08:07.000Z</time>
        <extensions>
          <ns3:TrackPointExtension>
            <ns3:atemp>17.0</ns3:atemp>
          </ns3:TrackPointExtension>
        </extensions>
      </trkpt>
      <trkpt lat="42.603748999536037445068359375" lon="19.88409091718494892120361328125">
        <ele>2142.800048828125</ele>
        <time>2026-06-16T10:08:08.000Z</time>
        <extensions>
          <ns3:TrackPointExtension>
            <ns3:atemp>17.0</ns3:atemp>
          </ns3:TrackPointExtension>
        </extensions>
      </trkpt>
      <trkpt lat="42.603748999536037445068359375" lon="19.88409091718494892120361328125">
        <ele>2142.800048828125</ele>
        <time>2026-06-16T10:08:09.000Z</time>
        <extensions>
          <ns3:TrackPointExtension>
            <ns3:atemp>17.0</ns3:atemp>
          </ns3:TrackPointExtension>
        </extensions>
      </trkpt>
      <trkpt lat="42.603748999536037445068359375" lon="19.88409091718494892120361328125">
        <ele>2142.800048828125</ele>
        <time>2026-06-16T10:08:10.000Z</time>
        <extensions>
          <ns3:TrackPointExtension>
            <ns3:atemp>17.0</ns3:atemp>
          </ns3:TrackPointExtension>
        </extensions>
      </trkpt>
      <trkpt lat="42.603748999536037445068359375" lon="19.88409091718494892120361328125">
        <ele>2142.800048828125</ele>
        <time>2026-06-16T10:08:11.000Z</time>
        <extensions>
          <ns3:TrackPointExtension>
            <ns3:atemp>17.0</ns3:atemp>
          </ns3:TrackPointExtension>
        </extensions>
      </trkpt>
      <trkpt lat="42.603748999536037445068359375" lon="19.88409091718494892120361328125">
        <ele>2142.800048828125</ele>
        <time>2026-06-16T10:08:12.000Z</time>
        <extensions>
          <ns3:TrackPointExtension>
            <ns3:atemp>17.0</ns3:atemp>
          </ns3:TrackPointExtension>
        </extensions>
      </trkpt>
      <trkpt lat="42.603748999536037445068359375" lon="19.88409091718494892120361328125">
        <ele>2142.800048828125</ele>
        <time>2026-06-16T10:08:13.000Z</time>
        <extensions>
          <ns3:TrackPointExtension>
            <ns3:atemp>17.0</ns3:atemp>
          </ns3:TrackPointExtension>
        </extensions>
      </trkpt>
      <trkpt lat="42.603748999536037445068359375" lon="19.88409091718494892120361328125">
        <ele>2142.800048828125</ele>
        <time>2026-06-16T10:08:14.000Z</time>
        <extensions>
          <ns3:TrackPointExtension>
            <ns3:atemp>17.0</ns3:atemp>
          </ns3:TrackPointExtension>
        </extensions>
      </trkpt>
      <trkpt lat="42.603748999536037445068359375" lon="19.88409091718494892120361328125">
        <ele>2142.800048828125</ele>
        <time>2026-06-16T10:08:15.000Z</time>
        <extensions>
          <ns3:TrackPointExtension>
            <ns3:atemp>17.0</ns3:atemp>
          </ns3:TrackPointExtension>
        </extensions>
      </trkpt>
      <trkpt lat="42.603748999536037445068359375" lon="19.88409091718494892120361328125">
        <ele>2142.800048828125</ele>
        <time>2026-06-16T10:08:16.000Z</time>
        <extensions>
          <ns3:TrackPointExtension>
            <ns3:atemp>17.0</ns3:atemp>
          </ns3:TrackPointExtension>
        </extensions>
      </trkpt>
      <trkpt lat="42.603748999536037445068359375" lon="19.88409091718494892120361328125">
        <ele>2142.800048828125</ele>
        <time>2026-06-16T10:08:17.000Z</time>
        <extensions>
          <ns3:TrackPointExtension>
            <ns3:atemp>17.0</ns3:atemp>
          </ns3:TrackPointExtension>
        </extensions>
      </trkpt>
      <trkpt lat="42.603748999536037445068359375" lon="19.88409091718494892120361328125">
        <ele>2142.800048828125</ele>
        <time>2026-06-16T10:08:18.000Z</time>
        <extensions>
          <ns3:TrackPointExtension>
            <ns3:atemp>17.0</ns3:atemp>
          </ns3:TrackPointExtension>
        </extensions>
      </trkpt>
      <trkpt lat="42.603748999536037445068359375" lon="19.88409091718494892120361328125">
        <ele>2142.800048828125</ele>
        <time>2026-06-16T10:08:19.000Z</time>
        <extensions>
          <ns3:TrackPointExtension>
            <ns3:atemp>17.0</ns3:atemp>
          </ns3:TrackPointExtension>
        </extensions>
      </trkpt>
      <trkpt lat="42.603748999536037445068359375" lon="19.88409091718494892120361328125">
        <ele>2142.800048828125</ele>
        <time>2026-06-16T10:08:20.000Z</time>
        <extensions>
          <ns3:TrackPointExtension>
            <ns3:atemp>17.0</ns3:atemp>
          </ns3:TrackPointExtension>
        </extensions>
      </trkpt>
      <trkpt lat="42.603748999536037445068359375" lon="19.88409091718494892120361328125">
        <ele>2142.800048828125</ele>
        <time>2026-06-16T10:08:21.000Z</time>
        <extensions>
          <ns3:TrackPointExtension>
            <ns3:atemp>17.0</ns3:atemp>
          </ns3:TrackPointExtension>
        </extensions>
      </trkpt>
      <trkpt lat="42.603748999536037445068359375" lon="19.88409091718494892120361328125">
        <ele>2142.800048828125</ele>
        <time>2026-06-16T10:08:22.000Z</time>
        <extensions>
          <ns3:TrackPointExtension>
            <ns3:atemp>17.0</ns3:atemp>
          </ns3:TrackPointExtension>
        </extensions>
      </trkpt>
      <trkpt lat="42.603748999536037445068359375" lon="19.88409091718494892120361328125">
        <ele>2142.800048828125</ele>
        <time>2026-06-16T10:08:23.000Z</time>
        <extensions>
          <ns3:TrackPointExtension>
            <ns3:atemp>17.0</ns3:atemp>
          </ns3:TrackPointExtension>
        </extensions>
      </trkpt>
      <trkpt lat="42.603748999536037445068359375" lon="19.88409091718494892120361328125">
        <ele>2142.800048828125</ele>
        <time>2026-06-16T10:08:24.000Z</time>
        <extensions>
          <ns3:TrackPointExtension>
            <ns3:atemp>17.0</ns3:atemp>
          </ns3:TrackPointExtension>
        </extensions>
      </trkpt>
      <trkpt lat="42.603748999536037445068359375" lon="19.88409091718494892120361328125">
        <ele>2142.800048828125</ele>
        <time>2026-06-16T10:08:25.000Z</time>
        <extensions>
          <ns3:TrackPointExtension>
            <ns3:atemp>17.0</ns3:atemp>
          </ns3:TrackPointExtension>
        </extensions>
      </trkpt>
      <trkpt lat="42.603748999536037445068359375" lon="19.88409091718494892120361328125">
        <ele>2142.800048828125</ele>
        <time>2026-06-16T10:08:26.000Z</time>
        <extensions>
          <ns3:TrackPointExtension>
            <ns3:atemp>17.0</ns3:atemp>
          </ns3:TrackPointExtension>
        </extensions>
      </trkpt>
      <trkpt lat="42.603748999536037445068359375" lon="19.88409091718494892120361328125">
        <ele>2142.800048828125</ele>
        <time>2026-06-16T10:08:27.000Z</time>
        <extensions>
          <ns3:TrackPointExtension>
            <ns3:atemp>17.0</ns3:atemp>
          </ns3:TrackPointExtension>
        </extensions>
      </trkpt>
      <trkpt lat="42.603748999536037445068359375" lon="19.88409091718494892120361328125">
        <ele>2142.800048828125</ele>
        <time>2026-06-16T10:08:28.000Z</time>
        <extensions>
          <ns3:TrackPointExtension>
            <ns3:atemp>17.0</ns3:atemp>
          </ns3:TrackPointExtension>
        </extensions>
      </trkpt>
      <trkpt lat="42.603748999536037445068359375" lon="19.88409091718494892120361328125">
        <ele>2142.800048828125</ele>
        <time>2026-06-16T10:08:29.000Z</time>
        <extensions>
          <ns3:TrackPointExtension>
            <ns3:atemp>17.0</ns3:atemp>
          </ns3:TrackPointExtension>
        </extensions>
      </trkpt>
      <trkpt lat="42.603748999536037445068359375" lon="19.88409091718494892120361328125">
        <ele>2142.800048828125</ele>
        <time>2026-06-16T10:08:30.000Z</time>
        <extensions>
          <ns3:TrackPointExtension>
            <ns3:atemp>17.0</ns3:atemp>
          </ns3:TrackPointExtension>
        </extensions>
      </trkpt>
      <trkpt lat="42.603748999536037445068359375" lon="19.88409091718494892120361328125">
        <ele>2142.800048828125</ele>
        <time>2026-06-16T10:08:31.000Z</time>
        <extensions>
          <ns3:TrackPointExtension>
            <ns3:atemp>17.0</ns3:atemp>
          </ns3:TrackPointExtension>
        </extensions>
      </trkpt>
      <trkpt lat="42.603748999536037445068359375" lon="19.88409091718494892120361328125">
        <ele>2142.800048828125</ele>
        <time>2026-06-16T10:08:32.000Z</time>
        <extensions>
          <ns3:TrackPointExtension>
            <ns3:atemp>17.0</ns3:atemp>
          </ns3:TrackPointExtension>
        </extensions>
      </trkpt>
      <trkpt lat="42.603748999536037445068359375" lon="19.88409091718494892120361328125">
        <ele>2142.800048828125</ele>
        <time>2026-06-16T10:08:33.000Z</time>
        <extensions>
          <ns3:TrackPointExtension>
            <ns3:atemp>17.0</ns3:atemp>
          </ns3:TrackPointExtension>
        </extensions>
      </trkpt>
      <trkpt lat="42.603748999536037445068359375" lon="19.88409091718494892120361328125">
        <ele>2142.800048828125</ele>
        <time>2026-06-16T10:08:34.000Z</time>
        <extensions>
          <ns3:TrackPointExtension>
            <ns3:atemp>17.0</ns3:atemp>
          </ns3:TrackPointExtension>
        </extensions>
      </trkpt>
      <trkpt lat="42.603748999536037445068359375" lon="19.88409091718494892120361328125">
        <ele>2142.800048828125</ele>
        <time>2026-06-16T10:08:35.000Z</time>
        <extensions>
          <ns3:TrackPointExtension>
            <ns3:atemp>17.0</ns3:atemp>
          </ns3:TrackPointExtension>
        </extensions>
      </trkpt>
      <trkpt lat="42.603748999536037445068359375" lon="19.88409091718494892120361328125">
        <ele>2142.800048828125</ele>
        <time>2026-06-16T10:08:36.000Z</time>
        <extensions>
          <ns3:TrackPointExtension>
            <ns3:atemp>17.0</ns3:atemp>
          </ns3:TrackPointExtension>
        </extensions>
      </trkpt>
      <trkpt lat="42.603748999536037445068359375" lon="19.88409091718494892120361328125">
        <ele>2142.800048828125</ele>
        <time>2026-06-16T10:08:37.000Z</time>
        <extensions>
          <ns3:TrackPointExtension>
            <ns3:atemp>17.0</ns3:atemp>
          </ns3:TrackPointExtension>
        </extensions>
      </trkpt>
      <trkpt lat="42.603748999536037445068359375" lon="19.88409091718494892120361328125">
        <ele>2142.800048828125</ele>
        <time>2026-06-16T10:08:38.000Z</time>
        <extensions>
          <ns3:TrackPointExtension>
            <ns3:atemp>17.0</ns3:atemp>
          </ns3:TrackPointExtension>
        </extensions>
      </trkpt>
      <trkpt lat="42.603748999536037445068359375" lon="19.88409091718494892120361328125">
        <ele>2142.800048828125</ele>
        <time>2026-06-16T10:08:39.000Z</time>
        <extensions>
          <ns3:TrackPointExtension>
            <ns3:atemp>17.0</ns3:atemp>
          </ns3:TrackPointExtension>
        </extensions>
      </trkpt>
      <trkpt lat="42.603748999536037445068359375" lon="19.88409091718494892120361328125">
        <ele>2142.800048828125</ele>
        <time>2026-06-16T10:08:40.000Z</time>
        <extensions>
          <ns3:TrackPointExtension>
            <ns3:atemp>17.0</ns3:atemp>
          </ns3:TrackPointExtension>
        </extensions>
      </trkpt>
      <trkpt lat="42.603748999536037445068359375" lon="19.88409091718494892120361328125">
        <ele>2142.800048828125</ele>
        <time>2026-06-16T10:08:41.000Z</time>
        <extensions>
          <ns3:TrackPointExtension>
            <ns3:atemp>17.0</ns3:atemp>
          </ns3:TrackPointExtension>
        </extensions>
      </trkpt>
      <trkpt lat="42.603748999536037445068359375" lon="19.88409091718494892120361328125">
        <ele>2142.800048828125</ele>
        <time>2026-06-16T10:08:42.000Z</time>
        <extensions>
          <ns3:TrackPointExtension>
            <ns3:atemp>17.0</ns3:atemp>
          </ns3:TrackPointExtension>
        </extensions>
      </trkpt>
      <trkpt lat="42.603748999536037445068359375" lon="19.88409091718494892120361328125">
        <ele>2142.800048828125</ele>
        <time>2026-06-16T10:08:43.000Z</time>
        <extensions>
          <ns3:TrackPointExtension>
            <ns3:atemp>17.0</ns3:atemp>
          </ns3:TrackPointExtension>
        </extensions>
      </trkpt>
      <trkpt lat="42.603748999536037445068359375" lon="19.88409091718494892120361328125">
        <ele>2142.800048828125</ele>
        <time>2026-06-16T10:08:44.000Z</time>
        <extensions>
          <ns3:TrackPointExtension>
            <ns3:atemp>17.0</ns3:atemp>
          </ns3:TrackPointExtension>
        </extensions>
      </trkpt>
      <trkpt lat="42.603748999536037445068359375" lon="19.88409091718494892120361328125">
        <ele>2142.800048828125</ele>
        <time>2026-06-16T10:08:45.000Z</time>
        <extensions>
          <ns3:TrackPointExtension>
            <ns3:atemp>17.0</ns3:atemp>
          </ns3:TrackPointExtension>
        </extensions>
      </trkpt>
      <trkpt lat="42.603748999536037445068359375" lon="19.88409091718494892120361328125">
        <ele>2142.800048828125</ele>
        <time>2026-06-16T10:08:46.000Z</time>
        <extensions>
          <ns3:TrackPointExtension>
            <ns3:atemp>17.0</ns3:atemp>
          </ns3:TrackPointExtension>
        </extensions>
      </trkpt>
      <trkpt lat="42.603748999536037445068359375" lon="19.88409091718494892120361328125">
        <ele>2142.800048828125</ele>
        <time>2026-06-16T10:08:47.000Z</time>
        <extensions>
          <ns3:TrackPointExtension>
            <ns3:atemp>17.0</ns3:atemp>
          </ns3:TrackPointExtension>
        </extensions>
      </trkpt>
      <trkpt lat="42.603748999536037445068359375" lon="19.88409091718494892120361328125">
        <ele>2142.800048828125</ele>
        <time>2026-06-16T10:08:48.000Z</time>
        <extensions>
          <ns3:TrackPointExtension>
            <ns3:atemp>17.0</ns3:atemp>
          </ns3:TrackPointExtension>
        </extensions>
      </trkpt>
      <trkpt lat="42.603748999536037445068359375" lon="19.88409091718494892120361328125">
        <ele>2142.800048828125</ele>
        <time>2026-06-16T10:08:49.000Z</time>
        <extensions>
          <ns3:TrackPointExtension>
            <ns3:atemp>17.0</ns3:atemp>
          </ns3:TrackPointExtension>
        </extensions>
      </trkpt>
      <trkpt lat="42.603748999536037445068359375" lon="19.88409091718494892120361328125">
        <ele>2142.800048828125</ele>
        <time>2026-06-16T10:08:50.000Z</time>
        <extensions>
          <ns3:TrackPointExtension>
            <ns3:atemp>17.0</ns3:atemp>
          </ns3:TrackPointExtension>
        </extensions>
      </trkpt>
      <trkpt lat="42.603748999536037445068359375" lon="19.88409091718494892120361328125">
        <ele>2142.800048828125</ele>
        <time>2026-06-16T10:08:51.000Z</time>
        <extensions>
          <ns3:TrackPointExtension>
            <ns3:atemp>17.0</ns3:atemp>
          </ns3:TrackPointExtension>
        </extensions>
      </trkpt>
      <trkpt lat="42.603748999536037445068359375" lon="19.88409091718494892120361328125">
        <ele>2142.800048828125</ele>
        <time>2026-06-16T10:08:52.000Z</time>
        <extensions>
          <ns3:TrackPointExtension>
            <ns3:atemp>17.0</ns3:atemp>
          </ns3:TrackPointExtension>
        </extensions>
      </trkpt>
      <trkpt lat="42.603748999536037445068359375" lon="19.88409091718494892120361328125">
        <ele>2142.800048828125</ele>
        <time>2026-06-16T10:08:53.000Z</time>
        <extensions>
          <ns3:TrackPointExtension>
            <ns3:atemp>17.0</ns3:atemp>
          </ns3:TrackPointExtension>
        </extensions>
      </trkpt>
      <trkpt lat="42.603748999536037445068359375" lon="19.88409091718494892120361328125">
        <ele>2142.800048828125</ele>
        <time>2026-06-16T10:08:54.000Z</time>
        <extensions>
          <ns3:TrackPointExtension>
            <ns3:atemp>17.0</ns3:atemp>
          </ns3:TrackPointExtension>
        </extensions>
      </trkpt>
      <trkpt lat="42.603748999536037445068359375" lon="19.88409091718494892120361328125">
        <ele>2142.800048828125</ele>
        <time>2026-06-16T10:08:55.000Z</time>
        <extensions>
          <ns3:TrackPointExtension>
            <ns3:atemp>17.0</ns3:atemp>
          </ns3:TrackPointExtension>
        </extensions>
      </trkpt>
      <trkpt lat="42.603748999536037445068359375" lon="19.88409091718494892120361328125">
        <ele>2142.800048828125</ele>
        <time>2026-06-16T10:08:56.000Z</time>
        <extensions>
          <ns3:TrackPointExtension>
            <ns3:atemp>17.0</ns3:atemp>
          </ns3:TrackPointExtension>
        </extensions>
      </trkpt>
      <trkpt lat="42.603748999536037445068359375" lon="19.88409091718494892120361328125">
        <ele>2142.800048828125</ele>
        <time>2026-06-16T10:08:57.000Z</time>
        <extensions>
          <ns3:TrackPointExtension>
            <ns3:atemp>17.0</ns3:atemp>
          </ns3:TrackPointExtension>
        </extensions>
      </trkpt>
      <trkpt lat="42.603748999536037445068359375" lon="19.88409091718494892120361328125">
        <ele>2142.800048828125</ele>
        <time>2026-06-16T10:08:58.000Z</time>
        <extensions>
          <ns3:TrackPointExtension>
            <ns3:atemp>17.0</ns3:atemp>
          </ns3:TrackPointExtension>
        </extensions>
      </trkpt>
      <trkpt lat="42.603748999536037445068359375" lon="19.88409091718494892120361328125">
        <ele>2142.800048828125</ele>
        <time>2026-06-16T10:08:59.000Z</time>
        <extensions>
          <ns3:TrackPointExtension>
            <ns3:atemp>17.0</ns3:atemp>
          </ns3:TrackPointExtension>
        </extensions>
      </trkpt>
      <trkpt lat="42.603748999536037445068359375" lon="19.88409091718494892120361328125">
        <ele>2142.800048828125</ele>
        <time>2026-06-16T10:09:00.000Z</time>
        <extensions>
          <ns3:TrackPointExtension>
            <ns3:atemp>17.0</ns3:atemp>
          </ns3:TrackPointExtension>
        </extensions>
      </trkpt>
      <trkpt lat="42.603748999536037445068359375" lon="19.88409091718494892120361328125">
        <ele>2142.800048828125</ele>
        <time>2026-06-16T10:09:01.000Z</time>
        <extensions>
          <ns3:TrackPointExtension>
            <ns3:atemp>17.0</ns3:atemp>
          </ns3:TrackPointExtension>
        </extensions>
      </trkpt>
      <trkpt lat="42.603748999536037445068359375" lon="19.88409091718494892120361328125">
        <ele>2142.800048828125</ele>
        <time>2026-06-16T10:09:02.000Z</time>
        <extensions>
          <ns3:TrackPointExtension>
            <ns3:atemp>17.0</ns3:atemp>
          </ns3:TrackPointExtension>
        </extensions>
      </trkpt>
      <trkpt lat="42.603748999536037445068359375" lon="19.88409091718494892120361328125">
        <ele>2142.800048828125</ele>
        <time>2026-06-16T10:09:03.000Z</time>
        <extensions>
          <ns3:TrackPointExtension>
            <ns3:atemp>17.0</ns3:atemp>
          </ns3:TrackPointExtension>
        </extensions>
      </trkpt>
      <trkpt lat="42.603748999536037445068359375" lon="19.88409091718494892120361328125">
        <ele>2142.800048828125</ele>
        <time>2026-06-16T10:09:04.000Z</time>
        <extensions>
          <ns3:TrackPointExtension>
            <ns3:atemp>17.0</ns3:atemp>
          </ns3:TrackPointExtension>
        </extensions>
      </trkpt>
      <trkpt lat="42.603748999536037445068359375" lon="19.88409091718494892120361328125">
        <ele>2142.800048828125</ele>
        <time>2026-06-16T10:09:05.000Z</time>
        <extensions>
          <ns3:TrackPointExtension>
            <ns3:atemp>17.0</ns3:atemp>
          </ns3:TrackPointExtension>
        </extensions>
      </trkpt>
      <trkpt lat="42.603748999536037445068359375" lon="19.88409091718494892120361328125">
        <ele>2142.800048828125</ele>
        <time>2026-06-16T10:09:06.000Z</time>
        <extensions>
          <ns3:TrackPointExtension>
            <ns3:atemp>17.0</ns3:atemp>
          </ns3:TrackPointExtension>
        </extensions>
      </trkpt>
      <trkpt lat="42.603748999536037445068359375" lon="19.88409091718494892120361328125">
        <ele>2142.800048828125</ele>
        <time>2026-06-16T10:09:07.000Z</time>
        <extensions>
          <ns3:TrackPointExtension>
            <ns3:atemp>17.0</ns3:atemp>
          </ns3:TrackPointExtension>
        </extensions>
      </trkpt>
      <trkpt lat="42.603748999536037445068359375" lon="19.88409091718494892120361328125">
        <ele>2142.800048828125</ele>
        <time>2026-06-16T10:09:08.000Z</time>
        <extensions>
          <ns3:TrackPointExtension>
            <ns3:atemp>17.0</ns3:atemp>
          </ns3:TrackPointExtension>
        </extensions>
      </trkpt>
      <trkpt lat="42.603748999536037445068359375" lon="19.88409091718494892120361328125">
        <ele>2142.800048828125</ele>
        <time>2026-06-16T10:09:09.000Z</time>
        <extensions>
          <ns3:TrackPointExtension>
            <ns3:atemp>17.0</ns3:atemp>
          </ns3:TrackPointExtension>
        </extensions>
      </trkpt>
      <trkpt lat="42.603748999536037445068359375" lon="19.88409091718494892120361328125">
        <ele>2142.800048828125</ele>
        <time>2026-06-16T10:09:10.000Z</time>
        <extensions>
          <ns3:TrackPointExtension>
            <ns3:atemp>17.0</ns3:atemp>
          </ns3:TrackPointExtension>
        </extensions>
      </trkpt>
      <trkpt lat="42.603748999536037445068359375" lon="19.88409091718494892120361328125">
        <ele>2142.800048828125</ele>
        <time>2026-06-16T10:09:11.000Z</time>
        <extensions>
          <ns3:TrackPointExtension>
            <ns3:atemp>17.0</ns3:atemp>
          </ns3:TrackPointExtension>
        </extensions>
      </trkpt>
      <trkpt lat="42.603748999536037445068359375" lon="19.88409091718494892120361328125">
        <ele>2142.800048828125</ele>
        <time>2026-06-16T10:09:12.000Z</time>
        <extensions>
          <ns3:TrackPointExtension>
            <ns3:atemp>17.0</ns3:atemp>
          </ns3:TrackPointExtension>
        </extensions>
      </trkpt>
      <trkpt lat="42.603748999536037445068359375" lon="19.88409091718494892120361328125">
        <ele>2142.800048828125</ele>
        <time>2026-06-16T10:09:13.000Z</time>
        <extensions>
          <ns3:TrackPointExtension>
            <ns3:atemp>17.0</ns3:atemp>
          </ns3:TrackPointExtension>
        </extensions>
      </trkpt>
      <trkpt lat="42.603748999536037445068359375" lon="19.88409091718494892120361328125">
        <ele>2142.800048828125</ele>
        <time>2026-06-16T10:09:14.000Z</time>
        <extensions>
          <ns3:TrackPointExtension>
            <ns3:atemp>17.0</ns3:atemp>
          </ns3:TrackPointExtension>
        </extensions>
      </trkpt>
      <trkpt lat="42.603748999536037445068359375" lon="19.88409091718494892120361328125">
        <ele>2142.800048828125</ele>
        <time>2026-06-16T10:09:15.000Z</time>
        <extensions>
          <ns3:TrackPointExtension>
            <ns3:atemp>17.0</ns3:atemp>
          </ns3:TrackPointExtension>
        </extensions>
      </trkpt>
      <trkpt lat="42.603748999536037445068359375" lon="19.88409091718494892120361328125">
        <ele>2142.800048828125</ele>
        <time>2026-06-16T10:09:16.000Z</time>
        <extensions>
          <ns3:TrackPointExtension>
            <ns3:atemp>17.0</ns3:atemp>
          </ns3:TrackPointExtension>
        </extensions>
      </trkpt>
      <trkpt lat="42.603748999536037445068359375" lon="19.88409091718494892120361328125">
        <ele>2142.800048828125</ele>
        <time>2026-06-16T10:09:17.000Z</time>
        <extensions>
          <ns3:TrackPointExtension>
            <ns3:atemp>17.0</ns3:atemp>
          </ns3:TrackPointExtension>
        </extensions>
      </trkpt>
      <trkpt lat="42.603748999536037445068359375" lon="19.88409091718494892120361328125">
        <ele>2142.800048828125</ele>
        <time>2026-06-16T10:09:18.000Z</time>
        <extensions>
          <ns3:TrackPointExtension>
            <ns3:atemp>17.0</ns3:atemp>
          </ns3:TrackPointExtension>
        </extensions>
      </trkpt>
      <trkpt lat="42.603748999536037445068359375" lon="19.88409091718494892120361328125">
        <ele>2142.800048828125</ele>
        <time>2026-06-16T10:09:19.000Z</time>
        <extensions>
          <ns3:TrackPointExtension>
            <ns3:atemp>17.0</ns3:atemp>
          </ns3:TrackPointExtension>
        </extensions>
      </trkpt>
      <trkpt lat="42.603748999536037445068359375" lon="19.88409091718494892120361328125">
        <ele>2142.800048828125</ele>
        <time>2026-06-16T10:09:20.000Z</time>
        <extensions>
          <ns3:TrackPointExtension>
            <ns3:atemp>17.0</ns3:atemp>
          </ns3:TrackPointExtension>
        </extensions>
      </trkpt>
      <trkpt lat="42.603748999536037445068359375" lon="19.88409091718494892120361328125">
        <ele>2142.800048828125</ele>
        <time>2026-06-16T10:09:21.000Z</time>
        <extensions>
          <ns3:TrackPointExtension>
            <ns3:atemp>17.0</ns3:atemp>
          </ns3:TrackPointExtension>
        </extensions>
      </trkpt>
      <trkpt lat="42.603748999536037445068359375" lon="19.88409091718494892120361328125">
        <ele>2142.800048828125</ele>
        <time>2026-06-16T10:09:22.000Z</time>
        <extensions>
          <ns3:TrackPointExtension>
            <ns3:atemp>17.0</ns3:atemp>
          </ns3:TrackPointExtension>
        </extensions>
      </trkpt>
      <trkpt lat="42.603748999536037445068359375" lon="19.88409091718494892120361328125">
        <ele>2142.800048828125</ele>
        <time>2026-06-16T10:09:23.000Z</time>
        <extensions>
          <ns3:TrackPointExtension>
            <ns3:atemp>17.0</ns3:atemp>
          </ns3:TrackPointExtension>
        </extensions>
      </trkpt>
      <trkpt lat="42.603748999536037445068359375" lon="19.88409091718494892120361328125">
        <ele>2142.800048828125</ele>
        <time>2026-06-16T10:09:24.000Z</time>
        <extensions>
          <ns3:TrackPointExtension>
            <ns3:atemp>17.0</ns3:atemp>
          </ns3:TrackPointExtension>
        </extensions>
      </trkpt>
      <trkpt lat="42.603748999536037445068359375" lon="19.88409091718494892120361328125">
        <ele>2142.800048828125</ele>
        <time>2026-06-16T10:09:25.000Z</time>
        <extensions>
          <ns3:TrackPointExtension>
            <ns3:atemp>17.0</ns3:atemp>
          </ns3:TrackPointExtension>
        </extensions>
      </trkpt>
      <trkpt lat="42.603748999536037445068359375" lon="19.88409091718494892120361328125">
        <ele>2142.800048828125</ele>
        <time>2026-06-16T10:09:26.000Z</time>
        <extensions>
          <ns3:TrackPointExtension>
            <ns3:atemp>17.0</ns3:atemp>
          </ns3:TrackPointExtension>
        </extensions>
      </trkpt>
      <trkpt lat="42.603748999536037445068359375" lon="19.88409091718494892120361328125">
        <ele>2142.800048828125</ele>
        <time>2026-06-16T10:09:27.000Z</time>
        <extensions>
          <ns3:TrackPointExtension>
            <ns3:atemp>17.0</ns3:atemp>
          </ns3:TrackPointExtension>
        </extensions>
      </trkpt>
      <trkpt lat="42.603748999536037445068359375" lon="19.88409091718494892120361328125">
        <ele>2142.800048828125</ele>
        <time>2026-06-16T10:09:28.000Z</time>
        <extensions>
          <ns3:TrackPointExtension>
            <ns3:atemp>17.0</ns3:atemp>
          </ns3:TrackPointExtension>
        </extensions>
      </trkpt>
      <trkpt lat="42.603748999536037445068359375" lon="19.88409091718494892120361328125">
        <ele>2142.800048828125</ele>
        <time>2026-06-16T10:09:29.000Z</time>
        <extensions>
          <ns3:TrackPointExtension>
            <ns3:atemp>17.0</ns3:atemp>
          </ns3:TrackPointExtension>
        </extensions>
      </trkpt>
      <trkpt lat="42.603748999536037445068359375" lon="19.88409091718494892120361328125">
        <ele>2142.800048828125</ele>
        <time>2026-06-16T10:09:30.000Z</time>
        <extensions>
          <ns3:TrackPointExtension>
            <ns3:atemp>17.0</ns3:atemp>
          </ns3:TrackPointExtension>
        </extensions>
      </trkpt>
      <trkpt lat="42.603748999536037445068359375" lon="19.88409091718494892120361328125">
        <ele>2142.800048828125</ele>
        <time>2026-06-16T10:09:31.000Z</time>
        <extensions>
          <ns3:TrackPointExtension>
            <ns3:atemp>17.0</ns3:atemp>
          </ns3:TrackPointExtension>
        </extensions>
      </trkpt>
      <trkpt lat="42.603748999536037445068359375" lon="19.88409091718494892120361328125">
        <ele>2142.800048828125</ele>
        <time>2026-06-16T10:09:32.000Z</time>
        <extensions>
          <ns3:TrackPointExtension>
            <ns3:atemp>17.0</ns3:atemp>
          </ns3:TrackPointExtension>
        </extensions>
      </trkpt>
      <trkpt lat="42.603748999536037445068359375" lon="19.88409091718494892120361328125">
        <ele>2142.800048828125</ele>
        <time>2026-06-16T10:09:33.000Z</time>
        <extensions>
          <ns3:TrackPointExtension>
            <ns3:atemp>17.0</ns3:atemp>
          </ns3:TrackPointExtension>
        </extensions>
      </trkpt>
      <trkpt lat="42.603748999536037445068359375" lon="19.88409091718494892120361328125">
        <ele>2142.800048828125</ele>
        <time>2026-06-16T10:09:34.000Z</time>
        <extensions>
          <ns3:TrackPointExtension>
            <ns3:atemp>17.0</ns3:atemp>
          </ns3:TrackPointExtension>
        </extensions>
      </trkpt>
      <trkpt lat="42.603748999536037445068359375" lon="19.88409091718494892120361328125">
        <ele>2142.800048828125</ele>
        <time>2026-06-16T10:09:35.000Z</time>
        <extensions>
          <ns3:TrackPointExtension>
            <ns3:atemp>17.0</ns3:atemp>
          </ns3:TrackPointExtension>
        </extensions>
      </trkpt>
      <trkpt lat="42.603748999536037445068359375" lon="19.88409091718494892120361328125">
        <ele>2142.800048828125</ele>
        <time>2026-06-16T10:09:36.000Z</time>
        <extensions>
          <ns3:TrackPointExtension>
            <ns3:atemp>17.0</ns3:atemp>
          </ns3:TrackPointExtension>
        </extensions>
      </trkpt>
      <trkpt lat="42.603748999536037445068359375" lon="19.88409091718494892120361328125">
        <ele>2142.800048828125</ele>
        <time>2026-06-16T10:09:37.000Z</time>
        <extensions>
          <ns3:TrackPointExtension>
            <ns3:atemp>17.0</ns3:atemp>
          </ns3:TrackPointExtension>
        </extensions>
      </trkpt>
      <trkpt lat="42.603748999536037445068359375" lon="19.88409091718494892120361328125">
        <ele>2142.800048828125</ele>
        <time>2026-06-16T10:09:38.000Z</time>
        <extensions>
          <ns3:TrackPointExtension>
            <ns3:atemp>17.0</ns3:atemp>
          </ns3:TrackPointExtension>
        </extensions>
      </trkpt>
      <trkpt lat="42.603748999536037445068359375" lon="19.88409091718494892120361328125">
        <ele>2142.800048828125</ele>
        <time>2026-06-16T10:09:39.000Z</time>
        <extensions>
          <ns3:TrackPointExtension>
            <ns3:atemp>17.0</ns3:atemp>
          </ns3:TrackPointExtension>
        </extensions>
      </trkpt>
      <trkpt lat="42.603748999536037445068359375" lon="19.88409091718494892120361328125">
        <ele>2142.800048828125</ele>
        <time>2026-06-16T10:09:40.000Z</time>
        <extensions>
          <ns3:TrackPointExtension>
            <ns3:atemp>17.0</ns3:atemp>
          </ns3:TrackPointExtension>
        </extensions>
      </trkpt>
      <trkpt lat="42.603748999536037445068359375" lon="19.88409091718494892120361328125">
        <ele>2142.800048828125</ele>
        <time>2026-06-16T10:09:41.000Z</time>
        <extensions>
          <ns3:TrackPointExtension>
            <ns3:atemp>17.0</ns3:atemp>
          </ns3:TrackPointExtension>
        </extensions>
      </trkpt>
      <trkpt lat="42.603748999536037445068359375" lon="19.88409091718494892120361328125">
        <ele>2142.800048828125</ele>
        <time>2026-06-16T10:09:42.000Z</time>
        <extensions>
          <ns3:TrackPointExtension>
            <ns3:atemp>17.0</ns3:atemp>
          </ns3:TrackPointExtension>
        </extensions>
      </trkpt>
      <trkpt lat="42.603748999536037445068359375" lon="19.88409091718494892120361328125">
        <ele>2142.800048828125</ele>
        <time>2026-06-16T10:09:43.000Z</time>
        <extensions>
          <ns3:TrackPointExtension>
            <ns3:atemp>17.0</ns3:atemp>
          </ns3:TrackPointExtension>
        </extensions>
      </trkpt>
      <trkpt lat="42.603748999536037445068359375" lon="19.88409091718494892120361328125">
        <ele>2142.800048828125</ele>
        <time>2026-06-16T10:09:44.000Z</time>
        <extensions>
          <ns3:TrackPointExtension>
            <ns3:atemp>17.0</ns3:atemp>
          </ns3:TrackPointExtension>
        </extensions>
      </trkpt>
      <trkpt lat="42.603748999536037445068359375" lon="19.88409091718494892120361328125">
        <ele>2142.800048828125</ele>
        <time>2026-06-16T10:09:45.000Z</time>
        <extensions>
          <ns3:TrackPointExtension>
            <ns3:atemp>17.0</ns3:atemp>
          </ns3:TrackPointExtension>
        </extensions>
      </trkpt>
      <trkpt lat="42.603748999536037445068359375" lon="19.88409091718494892120361328125">
        <ele>2142.800048828125</ele>
        <time>2026-06-16T10:09:46.000Z</time>
        <extensions>
          <ns3:TrackPointExtension>
            <ns3:atemp>17.0</ns3:atemp>
          </ns3:TrackPointExtension>
        </extensions>
      </trkpt>
      <trkpt lat="42.603748999536037445068359375" lon="19.88409091718494892120361328125">
        <ele>2142.800048828125</ele>
        <time>2026-06-16T10:09:47.000Z</time>
        <extensions>
          <ns3:TrackPointExtension>
            <ns3:atemp>17.0</ns3:atemp>
          </ns3:TrackPointExtension>
        </extensions>
      </trkpt>
      <trkpt lat="42.603748999536037445068359375" lon="19.88409091718494892120361328125">
        <ele>2142.800048828125</ele>
        <time>2026-06-16T10:09:48.000Z</time>
        <extensions>
          <ns3:TrackPointExtension>
            <ns3:atemp>17.0</ns3:atemp>
          </ns3:TrackPointExtension>
        </extensions>
      </trkpt>
      <trkpt lat="42.603748999536037445068359375" lon="19.88409091718494892120361328125">
        <ele>2142.800048828125</ele>
        <time>2026-06-16T10:09:49.000Z</time>
        <extensions>
          <ns3:TrackPointExtension>
            <ns3:atemp>17.0</ns3:atemp>
          </ns3:TrackPointExtension>
        </extensions>
      </trkpt>
      <trkpt lat="42.603748999536037445068359375" lon="19.88409091718494892120361328125">
        <ele>2142.800048828125</ele>
        <time>2026-06-16T10:09:50.000Z</time>
        <extensions>
          <ns3:TrackPointExtension>
            <ns3:atemp>17.0</ns3:atemp>
          </ns3:TrackPointExtension>
        </extensions>
      </trkpt>
      <trkpt lat="42.603748999536037445068359375" lon="19.88409091718494892120361328125">
        <ele>2142.800048828125</ele>
        <time>2026-06-16T10:09:51.000Z</time>
        <extensions>
          <ns3:TrackPointExtension>
            <ns3:atemp>17.0</ns3:atemp>
          </ns3:TrackPointExtension>
        </extensions>
      </trkpt>
      <trkpt lat="42.603748999536037445068359375" lon="19.88409091718494892120361328125">
        <ele>2142.800048828125</ele>
        <time>2026-06-16T10:09:52.000Z</time>
        <extensions>
          <ns3:TrackPointExtension>
            <ns3:atemp>17.0</ns3:atemp>
          </ns3:TrackPointExtension>
        </extensions>
      </trkpt>
      <trkpt lat="42.603748999536037445068359375" lon="19.88409091718494892120361328125">
        <ele>2142.800048828125</ele>
        <time>2026-06-16T10:09:53.000Z</time>
        <extensions>
          <ns3:TrackPointExtension>
            <ns3:atemp>17.0</ns3:atemp>
          </ns3:TrackPointExtension>
        </extensions>
      </trkpt>
      <trkpt lat="42.603748999536037445068359375" lon="19.88409091718494892120361328125">
        <ele>2142.800048828125</ele>
        <time>2026-06-16T10:09:54.000Z</time>
        <extensions>
          <ns3:TrackPointExtension>
            <ns3:atemp>17.0</ns3:atemp>
          </ns3:TrackPointExtension>
        </extensions>
      </trkpt>
      <trkpt lat="42.603748999536037445068359375" lon="19.88409091718494892120361328125">
        <ele>2142.800048828125</ele>
        <time>2026-06-16T10:09:55.000Z</time>
        <extensions>
          <ns3:TrackPointExtension>
            <ns3:atemp>17.0</ns3:atemp>
          </ns3:TrackPointExtension>
        </extensions>
      </trkpt>
      <trkpt lat="42.603748999536037445068359375" lon="19.88409091718494892120361328125">
        <ele>2142.800048828125</ele>
        <time>2026-06-16T10:09:56.000Z</time>
        <extensions>
          <ns3:TrackPointExtension>
            <ns3:atemp>17.0</ns3:atemp>
          </ns3:TrackPointExtension>
        </extensions>
      </trkpt>
      <trkpt lat="42.603748999536037445068359375" lon="19.88409091718494892120361328125">
        <ele>2142.800048828125</ele>
        <time>2026-06-16T10:09:57.000Z</time>
        <extensions>
          <ns3:TrackPointExtension>
            <ns3:atemp>17.0</ns3:atemp>
          </ns3:TrackPointExtension>
        </extensions>
      </trkpt>
      <trkpt lat="42.603748999536037445068359375" lon="19.88409091718494892120361328125">
        <ele>2142.800048828125</ele>
        <time>2026-06-16T10:09:58.000Z</time>
        <extensions>
          <ns3:TrackPointExtension>
            <ns3:atemp>17.0</ns3:atemp>
          </ns3:TrackPointExtension>
        </extensions>
      </trkpt>
      <trkpt lat="42.603748999536037445068359375" lon="19.88409091718494892120361328125">
        <ele>2142.800048828125</ele>
        <time>2026-06-16T10:09:59.000Z</time>
        <extensions>
          <ns3:TrackPointExtension>
            <ns3:atemp>17.0</ns3:atemp>
          </ns3:TrackPointExtension>
        </extensions>
      </trkpt>
      <trkpt lat="42.603748999536037445068359375" lon="19.88409091718494892120361328125">
        <ele>2142.800048828125</ele>
        <time>2026-06-16T10:10:00.000Z</time>
        <extensions>
          <ns3:TrackPointExtension>
            <ns3:atemp>17.0</ns3:atemp>
          </ns3:TrackPointExtension>
        </extensions>
      </trkpt>
      <trkpt lat="42.603748999536037445068359375" lon="19.88409091718494892120361328125">
        <ele>2142.800048828125</ele>
        <time>2026-06-16T10:10:01.000Z</time>
        <extensions>
          <ns3:TrackPointExtension>
            <ns3:atemp>17.0</ns3:atemp>
          </ns3:TrackPointExtension>
        </extensions>
      </trkpt>
      <trkpt lat="42.603748999536037445068359375" lon="19.88409091718494892120361328125">
        <ele>2142.800048828125</ele>
        <time>2026-06-16T10:10:02.000Z</time>
        <extensions>
          <ns3:TrackPointExtension>
            <ns3:atemp>17.0</ns3:atemp>
          </ns3:TrackPointExtension>
        </extensions>
      </trkpt>
      <trkpt lat="42.603748999536037445068359375" lon="19.88409091718494892120361328125">
        <ele>2142.800048828125</ele>
        <time>2026-06-16T10:10:03.000Z</time>
        <extensions>
          <ns3:TrackPointExtension>
            <ns3:atemp>17.0</ns3:atemp>
          </ns3:TrackPointExtension>
        </extensions>
      </trkpt>
      <trkpt lat="42.603748999536037445068359375" lon="19.88409091718494892120361328125">
        <ele>2142.800048828125</ele>
        <time>2026-06-16T10:10:04.000Z</time>
        <extensions>
          <ns3:TrackPointExtension>
            <ns3:atemp>17.0</ns3:atemp>
          </ns3:TrackPointExtension>
        </extensions>
      </trkpt>
      <trkpt lat="42.603748999536037445068359375" lon="19.88409091718494892120361328125">
        <ele>2142.800048828125</ele>
        <time>2026-06-16T10:10:05.000Z</time>
        <extensions>
          <ns3:TrackPointExtension>
            <ns3:atemp>17.0</ns3:atemp>
          </ns3:TrackPointExtension>
        </extensions>
      </trkpt>
      <trkpt lat="42.603748999536037445068359375" lon="19.88409091718494892120361328125">
        <ele>2142.800048828125</ele>
        <time>2026-06-16T10:10:06.000Z</time>
        <extensions>
          <ns3:TrackPointExtension>
            <ns3:atemp>17.0</ns3:atemp>
          </ns3:TrackPointExtension>
        </extensions>
      </trkpt>
      <trkpt lat="42.603748999536037445068359375" lon="19.88409091718494892120361328125">
        <ele>2142.800048828125</ele>
        <time>2026-06-16T10:10:07.000Z</time>
        <extensions>
          <ns3:TrackPointExtension>
            <ns3:atemp>17.0</ns3:atemp>
          </ns3:TrackPointExtension>
        </extensions>
      </trkpt>
      <trkpt lat="42.603748999536037445068359375" lon="19.88409091718494892120361328125">
        <ele>2142.800048828125</ele>
        <time>2026-06-16T10:10:08.000Z</time>
        <extensions>
          <ns3:TrackPointExtension>
            <ns3:atemp>17.0</ns3:atemp>
          </ns3:TrackPointExtension>
        </extensions>
      </trkpt>
      <trkpt lat="42.603748999536037445068359375" lon="19.88409091718494892120361328125">
        <ele>2142.800048828125</ele>
        <time>2026-06-16T10:10:09.000Z</time>
        <extensions>
          <ns3:TrackPointExtension>
            <ns3:atemp>17.0</ns3:atemp>
          </ns3:TrackPointExtension>
        </extensions>
      </trkpt>
      <trkpt lat="42.603748999536037445068359375" lon="19.88409091718494892120361328125">
        <ele>2142.800048828125</ele>
        <time>2026-06-16T10:10:10.000Z</time>
        <extensions>
          <ns3:TrackPointExtension>
            <ns3:atemp>17.0</ns3:atemp>
          </ns3:TrackPointExtension>
        </extensions>
      </trkpt>
      <trkpt lat="42.603748999536037445068359375" lon="19.88409091718494892120361328125">
        <ele>2142.800048828125</ele>
        <time>2026-06-16T10:10:11.000Z</time>
        <extensions>
          <ns3:TrackPointExtension>
            <ns3:atemp>17.0</ns3:atemp>
          </ns3:TrackPointExtension>
        </extensions>
      </trkpt>
      <trkpt lat="42.603748999536037445068359375" lon="19.88409091718494892120361328125">
        <ele>2142.800048828125</ele>
        <time>2026-06-16T10:10:12.000Z</time>
        <extensions>
          <ns3:TrackPointExtension>
            <ns3:atemp>17.0</ns3:atemp>
          </ns3:TrackPointExtension>
        </extensions>
      </trkpt>
      <trkpt lat="42.603748999536037445068359375" lon="19.88409091718494892120361328125">
        <ele>2142.800048828125</ele>
        <time>2026-06-16T10:10:13.000Z</time>
        <extensions>
          <ns3:TrackPointExtension>
            <ns3:atemp>17.0</ns3:atemp>
          </ns3:TrackPointExtension>
        </extensions>
      </trkpt>
      <trkpt lat="42.603748999536037445068359375" lon="19.88409091718494892120361328125">
        <ele>2142.800048828125</ele>
        <time>2026-06-16T10:10:14.000Z</time>
        <extensions>
          <ns3:TrackPointExtension>
            <ns3:atemp>17.0</ns3:atemp>
          </ns3:TrackPointExtension>
        </extensions>
      </trkpt>
      <trkpt lat="42.603748999536037445068359375" lon="19.88409091718494892120361328125">
        <ele>2142.800048828125</ele>
        <time>2026-06-16T10:10:15.000Z</time>
        <extensions>
          <ns3:TrackPointExtension>
            <ns3:atemp>17.0</ns3:atemp>
          </ns3:TrackPointExtension>
        </extensions>
      </trkpt>
      <trkpt lat="42.603748999536037445068359375" lon="19.88409091718494892120361328125">
        <ele>2142.800048828125</ele>
        <time>2026-06-16T10:10:16.000Z</time>
        <extensions>
          <ns3:TrackPointExtension>
            <ns3:atemp>17.0</ns3:atemp>
          </ns3:TrackPointExtension>
        </extensions>
      </trkpt>
      <trkpt lat="42.603748999536037445068359375" lon="19.88409091718494892120361328125">
        <ele>2142.800048828125</ele>
        <time>2026-06-16T10:10:17.000Z</time>
        <extensions>
          <ns3:TrackPointExtension>
            <ns3:atemp>17.0</ns3:atemp>
          </ns3:TrackPointExtension>
        </extensions>
      </trkpt>
      <trkpt lat="42.603748999536037445068359375" lon="19.88409091718494892120361328125">
        <ele>2142.800048828125</ele>
        <time>2026-06-16T10:10:18.000Z</time>
        <extensions>
          <ns3:TrackPointExtension>
            <ns3:atemp>17.0</ns3:atemp>
          </ns3:TrackPointExtension>
        </extensions>
      </trkpt>
      <trkpt lat="42.603748999536037445068359375" lon="19.88409091718494892120361328125">
        <ele>2142.800048828125</ele>
        <time>2026-06-16T10:10:19.000Z</time>
        <extensions>
          <ns3:TrackPointExtension>
            <ns3:atemp>17.0</ns3:atemp>
          </ns3:TrackPointExtension>
        </extensions>
      </trkpt>
      <trkpt lat="42.603748999536037445068359375" lon="19.88409091718494892120361328125">
        <ele>2142.800048828125</ele>
        <time>2026-06-16T10:10:20.000Z</time>
        <extensions>
          <ns3:TrackPointExtension>
            <ns3:atemp>17.0</ns3:atemp>
          </ns3:TrackPointExtension>
        </extensions>
      </trkpt>
      <trkpt lat="42.603748999536037445068359375" lon="19.88409091718494892120361328125">
        <ele>2142.800048828125</ele>
        <time>2026-06-16T10:10:21.000Z</time>
        <extensions>
          <ns3:TrackPointExtension>
            <ns3:atemp>17.0</ns3:atemp>
          </ns3:TrackPointExtension>
        </extensions>
      </trkpt>
      <trkpt lat="42.603748999536037445068359375" lon="19.88409091718494892120361328125">
        <ele>2142.800048828125</ele>
        <time>2026-06-16T10:10:22.000Z</time>
        <extensions>
          <ns3:TrackPointExtension>
            <ns3:atemp>17.0</ns3:atemp>
          </ns3:TrackPointExtension>
        </extensions>
      </trkpt>
      <trkpt lat="42.603748999536037445068359375" lon="19.88409091718494892120361328125">
        <ele>2142.800048828125</ele>
        <time>2026-06-16T10:10:23.000Z</time>
        <extensions>
          <ns3:TrackPointExtension>
            <ns3:atemp>17.0</ns3:atemp>
          </ns3:TrackPointExtension>
        </extensions>
      </trkpt>
      <trkpt lat="42.603748999536037445068359375" lon="19.88409091718494892120361328125">
        <ele>2142.800048828125</ele>
        <time>2026-06-16T10:10:24.000Z</time>
        <extensions>
          <ns3:TrackPointExtension>
            <ns3:atemp>17.0</ns3:atemp>
          </ns3:TrackPointExtension>
        </extensions>
      </trkpt>
      <trkpt lat="42.603748999536037445068359375" lon="19.88409091718494892120361328125">
        <ele>2142.800048828125</ele>
        <time>2026-06-16T10:10:25.000Z</time>
        <extensions>
          <ns3:TrackPointExtension>
            <ns3:atemp>17.0</ns3:atemp>
          </ns3:TrackPointExtension>
        </extensions>
      </trkpt>
      <trkpt lat="42.603748999536037445068359375" lon="19.88409091718494892120361328125">
        <ele>2142.800048828125</ele>
        <time>2026-06-16T10:10:26.000Z</time>
        <extensions>
          <ns3:TrackPointExtension>
            <ns3:atemp>17.0</ns3:atemp>
          </ns3:TrackPointExtension>
        </extensions>
      </trkpt>
      <trkpt lat="42.603748999536037445068359375" lon="19.88409091718494892120361328125">
        <ele>2142.800048828125</ele>
        <time>2026-06-16T10:10:27.000Z</time>
        <extensions>
          <ns3:TrackPointExtension>
            <ns3:atemp>17.0</ns3:atemp>
          </ns3:TrackPointExtension>
        </extensions>
      </trkpt>
      <trkpt lat="42.603748999536037445068359375" lon="19.88409091718494892120361328125">
        <ele>2142.800048828125</ele>
        <time>2026-06-16T10:10:28.000Z</time>
        <extensions>
          <ns3:TrackPointExtension>
            <ns3:atemp>17.0</ns3:atemp>
          </ns3:TrackPointExtension>
        </extensions>
      </trkpt>
      <trkpt lat="42.603748999536037445068359375" lon="19.88409091718494892120361328125">
        <ele>2142.800048828125</ele>
        <time>2026-06-16T10:10:29.000Z</time>
        <extensions>
          <ns3:TrackPointExtension>
            <ns3:atemp>17.0</ns3:atemp>
          </ns3:TrackPointExtension>
        </extensions>
      </trkpt>
      <trkpt lat="42.603748999536037445068359375" lon="19.88409091718494892120361328125">
        <ele>2142.800048828125</ele>
        <time>2026-06-16T10:10:30.000Z</time>
        <extensions>
          <ns3:TrackPointExtension>
            <ns3:atemp>17.0</ns3:atemp>
          </ns3:TrackPointExtension>
        </extensions>
      </trkpt>
      <trkpt lat="42.603748999536037445068359375" lon="19.88409091718494892120361328125">
        <ele>2142.800048828125</ele>
        <time>2026-06-16T10:10:31.000Z</time>
        <extensions>
          <ns3:TrackPointExtension>
            <ns3:atemp>17.0</ns3:atemp>
          </ns3:TrackPointExtension>
        </extensions>
      </trkpt>
      <trkpt lat="42.603748999536037445068359375" lon="19.88409091718494892120361328125">
        <ele>2142.800048828125</ele>
        <time>2026-06-16T10:10:32.000Z</time>
        <extensions>
          <ns3:TrackPointExtension>
            <ns3:atemp>17.0</ns3:atemp>
          </ns3:TrackPointExtension>
        </extensions>
      </trkpt>
      <trkpt lat="42.603748999536037445068359375" lon="19.88409091718494892120361328125">
        <ele>2142.800048828125</ele>
        <time>2026-06-16T10:10:33.000Z</time>
        <extensions>
          <ns3:TrackPointExtension>
            <ns3:atemp>17.0</ns3:atemp>
          </ns3:TrackPointExtension>
        </extensions>
      </trkpt>
      <trkpt lat="42.603748999536037445068359375" lon="19.88409091718494892120361328125">
        <ele>2142.800048828125</ele>
        <time>2026-06-16T10:10:34.000Z</time>
        <extensions>
          <ns3:TrackPointExtension>
            <ns3:atemp>17.0</ns3:atemp>
          </ns3:TrackPointExtension>
        </extensions>
      </trkpt>
      <trkpt lat="42.603748999536037445068359375" lon="19.88409091718494892120361328125">
        <ele>2142.800048828125</ele>
        <time>2026-06-16T10:10:35.000Z</time>
        <extensions>
          <ns3:TrackPointExtension>
            <ns3:atemp>17.0</ns3:atemp>
          </ns3:TrackPointExtension>
        </extensions>
      </trkpt>
      <trkpt lat="42.603748999536037445068359375" lon="19.88409091718494892120361328125">
        <ele>2142.800048828125</ele>
        <time>2026-06-16T10:10:36.000Z</time>
        <extensions>
          <ns3:TrackPointExtension>
            <ns3:atemp>17.0</ns3:atemp>
          </ns3:TrackPointExtension>
        </extensions>
      </trkpt>
      <trkpt lat="42.603748999536037445068359375" lon="19.88409091718494892120361328125">
        <ele>2142.800048828125</ele>
        <time>2026-06-16T10:10:37.000Z</time>
        <extensions>
          <ns3:TrackPointExtension>
            <ns3:atemp>17.0</ns3:atemp>
          </ns3:TrackPointExtension>
        </extensions>
      </trkpt>
      <trkpt lat="42.603748999536037445068359375" lon="19.88409091718494892120361328125">
        <ele>2142.800048828125</ele>
        <time>2026-06-16T10:10:38.000Z</time>
        <extensions>
          <ns3:TrackPointExtension>
            <ns3:atemp>17.0</ns3:atemp>
          </ns3:TrackPointExtension>
        </extensions>
      </trkpt>
      <trkpt lat="42.603748999536037445068359375" lon="19.88409091718494892120361328125">
        <ele>2142.800048828125</ele>
        <time>2026-06-16T10:10:39.000Z</time>
        <extensions>
          <ns3:TrackPointExtension>
            <ns3:atemp>17.0</ns3:atemp>
          </ns3:TrackPointExtension>
        </extensions>
      </trkpt>
      <trkpt lat="42.603748999536037445068359375" lon="19.88409091718494892120361328125">
        <ele>2142.800048828125</ele>
        <time>2026-06-16T10:10:40.000Z</time>
        <extensions>
          <ns3:TrackPointExtension>
            <ns3:atemp>17.0</ns3:atemp>
          </ns3:TrackPointExtension>
        </extensions>
      </trkpt>
      <trkpt lat="42.603748999536037445068359375" lon="19.88409091718494892120361328125">
        <ele>2142.800048828125</ele>
        <time>2026-06-16T10:10:41.000Z</time>
        <extensions>
          <ns3:TrackPointExtension>
            <ns3:atemp>17.0</ns3:atemp>
          </ns3:TrackPointExtension>
        </extensions>
      </trkpt>
      <trkpt lat="42.603748999536037445068359375" lon="19.88409091718494892120361328125">
        <ele>2142.800048828125</ele>
        <time>2026-06-16T10:10:42.000Z</time>
        <extensions>
          <ns3:TrackPointExtension>
            <ns3:atemp>17.0</ns3:atemp>
          </ns3:TrackPointExtension>
        </extensions>
      </trkpt>
      <trkpt lat="42.603748999536037445068359375" lon="19.88409091718494892120361328125">
        <ele>2142.800048828125</ele>
        <time>2026-06-16T10:10:43.000Z</time>
        <extensions>
          <ns3:TrackPointExtension>
            <ns3:atemp>17.0</ns3:atemp>
          </ns3:TrackPointExtension>
        </extensions>
      </trkpt>
      <trkpt lat="42.603748999536037445068359375" lon="19.88409091718494892120361328125">
        <ele>2142.800048828125</ele>
        <time>2026-06-16T10:10:44.000Z</time>
        <extensions>
          <ns3:TrackPointExtension>
            <ns3:atemp>17.0</ns3:atemp>
          </ns3:TrackPointExtension>
        </extensions>
      </trkpt>
      <trkpt lat="42.603748999536037445068359375" lon="19.88409091718494892120361328125">
        <ele>2142.800048828125</ele>
        <time>2026-06-16T10:10:45.000Z</time>
        <extensions>
          <ns3:TrackPointExtension>
            <ns3:atemp>17.0</ns3:atemp>
          </ns3:TrackPointExtension>
        </extensions>
      </trkpt>
      <trkpt lat="42.603748999536037445068359375" lon="19.88409091718494892120361328125">
        <ele>2142.800048828125</ele>
        <time>2026-06-16T10:10:46.000Z</time>
        <extensions>
          <ns3:TrackPointExtension>
            <ns3:atemp>17.0</ns3:atemp>
          </ns3:TrackPointExtension>
        </extensions>
      </trkpt>
      <trkpt lat="42.603748999536037445068359375" lon="19.88409091718494892120361328125">
        <ele>2142.800048828125</ele>
        <time>2026-06-16T10:10:47.000Z</time>
        <extensions>
          <ns3:TrackPointExtension>
            <ns3:atemp>17.0</ns3:atemp>
          </ns3:TrackPointExtension>
        </extensions>
      </trkpt>
      <trkpt lat="42.603748999536037445068359375" lon="19.88409091718494892120361328125">
        <ele>2142.800048828125</ele>
        <time>2026-06-16T10:10:48.000Z</time>
        <extensions>
          <ns3:TrackPointExtension>
            <ns3:atemp>17.0</ns3:atemp>
          </ns3:TrackPointExtension>
        </extensions>
      </trkpt>
      <trkpt lat="42.603748999536037445068359375" lon="19.88409091718494892120361328125">
        <ele>2142.800048828125</ele>
        <time>2026-06-16T10:10:49.000Z</time>
        <extensions>
          <ns3:TrackPointExtension>
            <ns3:atemp>17.0</ns3:atemp>
          </ns3:TrackPointExtension>
        </extensions>
      </trkpt>
      <trkpt lat="42.603748999536037445068359375" lon="19.88409091718494892120361328125">
        <ele>2142.800048828125</ele>
        <time>2026-06-16T10:10:50.000Z</time>
        <extensions>
          <ns3:TrackPointExtension>
            <ns3:atemp>17.0</ns3:atemp>
          </ns3:TrackPointExtension>
        </extensions>
      </trkpt>
      <trkpt lat="42.603748999536037445068359375" lon="19.88409091718494892120361328125">
        <ele>2142.800048828125</ele>
        <time>2026-06-16T10:10:51.000Z</time>
        <extensions>
          <ns3:TrackPointExtension>
            <ns3:atemp>17.0</ns3:atemp>
          </ns3:TrackPointExtension>
        </extensions>
      </trkpt>
      <trkpt lat="42.603748999536037445068359375" lon="19.88409091718494892120361328125">
        <ele>2142.800048828125</ele>
        <time>2026-06-16T10:10:52.000Z</time>
        <extensions>
          <ns3:TrackPointExtension>
            <ns3:atemp>17.0</ns3:atemp>
          </ns3:TrackPointExtension>
        </extensions>
      </trkpt>
      <trkpt lat="42.603748999536037445068359375" lon="19.88409091718494892120361328125">
        <ele>2142.800048828125</ele>
        <time>2026-06-16T10:10:53.000Z</time>
        <extensions>
          <ns3:TrackPointExtension>
            <ns3:atemp>17.0</ns3:atemp>
          </ns3:TrackPointExtension>
        </extensions>
      </trkpt>
      <trkpt lat="42.603748999536037445068359375" lon="19.88409091718494892120361328125">
        <ele>2142.800048828125</ele>
        <time>2026-06-16T10:10:54.000Z</time>
        <extensions>
          <ns3:TrackPointExtension>
            <ns3:atemp>17.0</ns3:atemp>
          </ns3:TrackPointExtension>
        </extensions>
      </trkpt>
      <trkpt lat="42.603748999536037445068359375" lon="19.88409091718494892120361328125">
        <ele>2142.800048828125</ele>
        <time>2026-06-16T10:10:55.000Z</time>
        <extensions>
          <ns3:TrackPointExtension>
            <ns3:atemp>17.0</ns3:atemp>
          </ns3:TrackPointExtension>
        </extensions>
      </trkpt>
      <trkpt lat="42.603748999536037445068359375" lon="19.88409091718494892120361328125">
        <ele>2142.800048828125</ele>
        <time>2026-06-16T10:10:56.000Z</time>
        <extensions>
          <ns3:TrackPointExtension>
            <ns3:atemp>17.0</ns3:atemp>
          </ns3:TrackPointExtension>
        </extensions>
      </trkpt>
      <trkpt lat="42.603748999536037445068359375" lon="19.88409091718494892120361328125">
        <ele>2142.800048828125</ele>
        <time>2026-06-16T10:10:57.000Z</time>
        <extensions>
          <ns3:TrackPointExtension>
            <ns3:atemp>17.0</ns3:atemp>
          </ns3:TrackPointExtension>
        </extensions>
      </trkpt>
      <trkpt lat="42.603748999536037445068359375" lon="19.88409091718494892120361328125">
        <ele>2142.800048828125</ele>
        <time>2026-06-16T10:10:58.000Z</time>
        <extensions>
          <ns3:TrackPointExtension>
            <ns3:atemp>17.0</ns3:atemp>
          </ns3:TrackPointExtension>
        </extensions>
      </trkpt>
      <trkpt lat="42.603748999536037445068359375" lon="19.88409091718494892120361328125">
        <ele>2142.800048828125</ele>
        <time>2026-06-16T10:10:59.000Z</time>
        <extensions>
          <ns3:TrackPointExtension>
            <ns3:atemp>17.0</ns3:atemp>
          </ns3:TrackPointExtension>
        </extensions>
      </trkpt>
      <trkpt lat="42.603748999536037445068359375" lon="19.88409091718494892120361328125">
        <ele>2142.800048828125</ele>
        <time>2026-06-16T10:11:00.000Z</time>
        <extensions>
          <ns3:TrackPointExtension>
            <ns3:atemp>17.0</ns3:atemp>
          </ns3:TrackPointExtension>
        </extensions>
      </trkpt>
      <trkpt lat="42.603748999536037445068359375" lon="19.88409091718494892120361328125">
        <ele>2142.800048828125</ele>
        <time>2026-06-16T10:11:01.000Z</time>
        <extensions>
          <ns3:TrackPointExtension>
            <ns3:atemp>17.0</ns3:atemp>
          </ns3:TrackPointExtension>
        </extensions>
      </trkpt>
      <trkpt lat="42.603748999536037445068359375" lon="19.88409091718494892120361328125">
        <ele>2142.800048828125</ele>
        <time>2026-06-16T10:11:02.000Z</time>
        <extensions>
          <ns3:TrackPointExtension>
            <ns3:atemp>17.0</ns3:atemp>
          </ns3:TrackPointExtension>
        </extensions>
      </trkpt>
      <trkpt lat="42.603748999536037445068359375" lon="19.88409091718494892120361328125">
        <ele>2142.800048828125</ele>
        <time>2026-06-16T10:11:03.000Z</time>
        <extensions>
          <ns3:TrackPointExtension>
            <ns3:atemp>17.0</ns3:atemp>
          </ns3:TrackPointExtension>
        </extensions>
      </trkpt>
      <trkpt lat="42.603748999536037445068359375" lon="19.88409091718494892120361328125">
        <ele>2142.800048828125</ele>
        <time>2026-06-16T10:11:04.000Z</time>
        <extensions>
          <ns3:TrackPointExtension>
            <ns3:atemp>17.0</ns3:atemp>
          </ns3:TrackPointExtension>
        </extensions>
      </trkpt>
      <trkpt lat="42.603748999536037445068359375" lon="19.88409091718494892120361328125">
        <ele>2142.800048828125</ele>
        <time>2026-06-16T10:11:05.000Z</time>
        <extensions>
          <ns3:TrackPointExtension>
            <ns3:atemp>17.0</ns3:atemp>
          </ns3:TrackPointExtension>
        </extensions>
      </trkpt>
      <trkpt lat="42.603748999536037445068359375" lon="19.88409091718494892120361328125">
        <ele>2142.800048828125</ele>
        <time>2026-06-16T10:11:06.000Z</time>
        <extensions>
          <ns3:TrackPointExtension>
            <ns3:atemp>17.0</ns3:atemp>
          </ns3:TrackPointExtension>
        </extensions>
      </trkpt>
      <trkpt lat="42.603748999536037445068359375" lon="19.88409091718494892120361328125">
        <ele>2142.800048828125</ele>
        <time>2026-06-16T10:11:07.000Z</time>
        <extensions>
          <ns3:TrackPointExtension>
            <ns3:atemp>17.0</ns3:atemp>
          </ns3:TrackPointExtension>
        </extensions>
      </trkpt>
      <trkpt lat="42.603748999536037445068359375" lon="19.88409091718494892120361328125">
        <ele>2142.800048828125</ele>
        <time>2026-06-16T10:11:08.000Z</time>
        <extensions>
          <ns3:TrackPointExtension>
            <ns3:atemp>17.0</ns3:atemp>
          </ns3:TrackPointExtension>
        </extensions>
      </trkpt>
      <trkpt lat="42.603748999536037445068359375" lon="19.88409091718494892120361328125">
        <ele>2142.800048828125</ele>
        <time>2026-06-16T10:11:09.000Z</time>
        <extensions>
          <ns3:TrackPointExtension>
            <ns3:atemp>17.0</ns3:atemp>
          </ns3:TrackPointExtension>
        </extensions>
      </trkpt>
      <trkpt lat="42.603748999536037445068359375" lon="19.88409091718494892120361328125">
        <ele>2142.800048828125</ele>
        <time>2026-06-16T10:11:10.000Z</time>
        <extensions>
          <ns3:TrackPointExtension>
            <ns3:atemp>17.0</ns3:atemp>
          </ns3:TrackPointExtension>
        </extensions>
      </trkpt>
      <trkpt lat="42.603748999536037445068359375" lon="19.88409091718494892120361328125">
        <ele>2142.800048828125</ele>
        <time>2026-06-16T10:11:11.000Z</time>
        <extensions>
          <ns3:TrackPointExtension>
            <ns3:atemp>17.0</ns3:atemp>
          </ns3:TrackPointExtension>
        </extensions>
      </trkpt>
      <trkpt lat="42.603748999536037445068359375" lon="19.88409091718494892120361328125">
        <ele>2142.800048828125</ele>
        <time>2026-06-16T10:11:12.000Z</time>
        <extensions>
          <ns3:TrackPointExtension>
            <ns3:atemp>17.0</ns3:atemp>
          </ns3:TrackPointExtension>
        </extensions>
      </trkpt>
      <trkpt lat="42.603748999536037445068359375" lon="19.88409091718494892120361328125">
        <ele>2142.800048828125</ele>
        <time>2026-06-16T10:11:13.000Z</time>
        <extensions>
          <ns3:TrackPointExtension>
            <ns3:atemp>17.0</ns3:atemp>
          </ns3:TrackPointExtension>
        </extensions>
      </trkpt>
      <trkpt lat="42.603748999536037445068359375" lon="19.88409091718494892120361328125">
        <ele>2142.800048828125</ele>
        <time>2026-06-16T10:11:14.000Z</time>
        <extensions>
          <ns3:TrackPointExtension>
            <ns3:atemp>17.0</ns3:atemp>
          </ns3:TrackPointExtension>
        </extensions>
      </trkpt>
      <trkpt lat="42.603748999536037445068359375" lon="19.88409091718494892120361328125">
        <ele>2142.800048828125</ele>
        <time>2026-06-16T10:11:15.000Z</time>
        <extensions>
          <ns3:TrackPointExtension>
            <ns3:atemp>17.0</ns3:atemp>
          </ns3:TrackPointExtension>
        </extensions>
      </trkpt>
      <trkpt lat="42.603748999536037445068359375" lon="19.88409091718494892120361328125">
        <ele>2142.800048828125</ele>
        <time>2026-06-16T10:11:16.000Z</time>
        <extensions>
          <ns3:TrackPointExtension>
            <ns3:atemp>17.0</ns3:atemp>
          </ns3:TrackPointExtension>
        </extensions>
      </trkpt>
      <trkpt lat="42.603748999536037445068359375" lon="19.88409091718494892120361328125">
        <ele>2142.800048828125</ele>
        <time>2026-06-16T10:11:17.000Z</time>
        <extensions>
          <ns3:TrackPointExtension>
            <ns3:atemp>17.0</ns3:atemp>
          </ns3:TrackPointExtension>
        </extensions>
      </trkpt>
      <trkpt lat="42.603748999536037445068359375" lon="19.88409091718494892120361328125">
        <ele>2142.800048828125</ele>
        <time>2026-06-16T10:11:18.000Z</time>
        <extensions>
          <ns3:TrackPointExtension>
            <ns3:atemp>17.0</ns3:atemp>
          </ns3:TrackPointExtension>
        </extensions>
      </trkpt>
      <trkpt lat="42.603748999536037445068359375" lon="19.88409091718494892120361328125">
        <ele>2142.800048828125</ele>
        <time>2026-06-16T10:11:19.000Z</time>
        <extensions>
          <ns3:TrackPointExtension>
            <ns3:atemp>17.0</ns3:atemp>
          </ns3:TrackPointExtension>
        </extensions>
      </trkpt>
      <trkpt lat="42.603748999536037445068359375" lon="19.88409091718494892120361328125">
        <ele>2142.800048828125</ele>
        <time>2026-06-16T10:11:20.000Z</time>
        <extensions>
          <ns3:TrackPointExtension>
            <ns3:atemp>17.0</ns3:atemp>
          </ns3:TrackPointExtension>
        </extensions>
      </trkpt>
      <trkpt lat="42.603748999536037445068359375" lon="19.88409091718494892120361328125">
        <ele>2142.800048828125</ele>
        <time>2026-06-16T10:11:21.000Z</time>
        <extensions>
          <ns3:TrackPointExtension>
            <ns3:atemp>17.0</ns3:atemp>
          </ns3:TrackPointExtension>
        </extensions>
      </trkpt>
      <trkpt lat="42.603748999536037445068359375" lon="19.88409091718494892120361328125">
        <ele>2142.800048828125</ele>
        <time>2026-06-16T10:11:22.000Z</time>
        <extensions>
          <ns3:TrackPointExtension>
            <ns3:atemp>17.0</ns3:atemp>
          </ns3:TrackPointExtension>
        </extensions>
      </trkpt>
      <trkpt lat="42.603748999536037445068359375" lon="19.88409091718494892120361328125">
        <ele>2142.800048828125</ele>
        <time>2026-06-16T10:11:23.000Z</time>
        <extensions>
          <ns3:TrackPointExtension>
            <ns3:atemp>17.0</ns3:atemp>
          </ns3:TrackPointExtension>
        </extensions>
      </trkpt>
      <trkpt lat="42.60375226847827434539794921875" lon="19.8840903304517269134521484375">
        <ele>2142.800048828125</ele>
        <time>2026-06-16T10:11:24.000Z</time>
        <extensions>
          <ns3:TrackPointExtension>
            <ns3:atemp>17.0</ns3:atemp>
          </ns3:TrackPointExtension>
        </extensions>
      </trkpt>
      <trkpt lat="42.603748999536037445068359375" lon="19.88409091718494892120361328125">
        <ele>2142.800048828125</ele>
        <time>2026-06-16T10:11:25.000Z</time>
        <extensions>
          <ns3:TrackPointExtension>
            <ns3:atemp>17.0</ns3:atemp>
          </ns3:TrackPointExtension>
        </extensions>
      </trkpt>
      <trkpt lat="42.603748999536037445068359375" lon="19.88409091718494892120361328125">
        <ele>2142.800048828125</ele>
        <time>2026-06-16T10:11:26.000Z</time>
        <extensions>
          <ns3:TrackPointExtension>
            <ns3:atemp>17.0</ns3:atemp>
          </ns3:TrackPointExtension>
        </extensions>
      </trkpt>
      <trkpt lat="42.603748999536037445068359375" lon="19.88409091718494892120361328125">
        <ele>2142.800048828125</ele>
        <time>2026-06-16T10:11:27.000Z</time>
        <extensions>
          <ns3:TrackPointExtension>
            <ns3:atemp>17.0</ns3:atemp>
          </ns3:TrackPointExtension>
        </extensions>
      </trkpt>
      <trkpt lat="42.603748999536037445068359375" lon="19.88409091718494892120361328125">
        <ele>2142.800048828125</ele>
        <time>2026-06-16T10:11:28.000Z</time>
        <extensions>
          <ns3:TrackPointExtension>
            <ns3:atemp>17.0</ns3:atemp>
          </ns3:TrackPointExtension>
        </extensions>
      </trkpt>
      <trkpt lat="42.603748999536037445068359375" lon="19.88409091718494892120361328125">
        <ele>2142.800048828125</ele>
        <time>2026-06-16T10:11:29.000Z</time>
        <extensions>
          <ns3:TrackPointExtension>
            <ns3:atemp>17.0</ns3:atemp>
          </ns3:TrackPointExtension>
        </extensions>
      </trkpt>
      <trkpt lat="42.603748999536037445068359375" lon="19.88409091718494892120361328125">
        <ele>2142.800048828125</ele>
        <time>2026-06-16T10:11:30.000Z</time>
        <extensions>
          <ns3:TrackPointExtension>
            <ns3:atemp>17.0</ns3:atemp>
          </ns3:TrackPointExtension>
        </extensions>
      </trkpt>
      <trkpt lat="42.60375578887760639190673828125" lon="19.88409007899463176727294921875">
        <ele>2142.800048828125</ele>
        <time>2026-06-16T10:11:31.000Z</time>
        <extensions>
          <ns3:TrackPointExtension>
            <ns3:atemp>17.0</ns3:atemp>
          </ns3:TrackPointExtension>
        </extensions>
      </trkpt>
      <trkpt lat="42.60374464094638824462890625" lon="19.88409074954688549041748046875">
        <ele>2142.800048828125</ele>
        <time>2026-06-16T10:11:32.000Z</time>
        <extensions>
          <ns3:TrackPointExtension>
            <ns3:atemp>17.0</ns3:atemp>
          </ns3:TrackPointExtension>
        </extensions>
      </trkpt>
      <trkpt lat="42.6037364266812801361083984375" lon="19.8840977065265178680419921875">
        <ele>2142.800048828125</ele>
        <time>2026-06-16T10:11:33.000Z</time>
        <extensions>
          <ns3:TrackPointExtension>
            <ns3:atemp>17.0</ns3:atemp>
          </ns3:TrackPointExtension>
        </extensions>
      </trkpt>
      <trkpt lat="42.60373449884355068206787109375" lon="19.88411103375256061553955078125">
        <ele>2142.800048828125</ele>
        <time>2026-06-16T10:11:34.000Z</time>
        <extensions>
          <ns3:TrackPointExtension>
            <ns3:atemp>17.0</ns3:atemp>
          </ns3:TrackPointExtension>
        </extensions>
      </trkpt>
      <trkpt lat="42.60373215191066265106201171875" lon="19.88412008620798587799072265625">
        <ele>2142.800048828125</ele>
        <time>2026-06-16T10:11:35.000Z</time>
        <extensions>
          <ns3:TrackPointExtension>
            <ns3:atemp>17.0</ns3:atemp>
          </ns3:TrackPointExtension>
        </extensions>
      </trkpt>
      <trkpt lat="42.60373801924288272857666015625" lon="19.884119331836700439453125">
        <ele>2142.800048828125</ele>
        <time>2026-06-16T10:11:36.000Z</time>
        <extensions>
          <ns3:TrackPointExtension>
            <ns3:atemp>17.0</ns3:atemp>
          </ns3:TrackPointExtension>
        </extensions>
      </trkpt>
      <trkpt lat="42.6037364266812801361083984375" lon="19.8841191641986370086669921875">
        <ele>2142.800048828125</ele>
        <time>2026-06-16T10:11:37.000Z</time>
        <extensions>
          <ns3:TrackPointExtension>
            <ns3:atemp>17.0</ns3:atemp>
          </ns3:TrackPointExtension>
        </extensions>
      </trkpt>
      <trkpt lat="42.6037364266812801361083984375" lon="19.8841191641986370086669921875">
        <ele>2142.800048828125</ele>
        <time>2026-06-16T10:11:38.000Z</time>
        <extensions>
          <ns3:TrackPointExtension>
            <ns3:atemp>17.0</ns3:atemp>
          </ns3:TrackPointExtension>
        </extensions>
      </trkpt>
      <trkpt lat="42.6037364266812801361083984375" lon="19.8841191641986370086669921875">
        <ele>2142.800048828125</ele>
        <time>2026-06-16T10:11:39.000Z</time>
        <extensions>
          <ns3:TrackPointExtension>
            <ns3:atemp>17.0</ns3:atemp>
          </ns3:TrackPointExtension>
        </extensions>
      </trkpt>
      <trkpt lat="42.6037364266812801361083984375" lon="19.8841191641986370086669921875">
        <ele>2142.800048828125</ele>
        <time>2026-06-16T10:11:40.000Z</time>
        <extensions>
          <ns3:TrackPointExtension>
            <ns3:atemp>17.0</ns3:atemp>
          </ns3:TrackPointExtension>
        </extensions>
      </trkpt>
      <trkpt lat="42.60373634286224842071533203125" lon="19.884119331836700439453125">
        <ele>2142.800048828125</ele>
        <time>2026-06-16T10:11:41.000Z</time>
        <extensions>
          <ns3:TrackPointExtension>
            <ns3:atemp>17.0</ns3:atemp>
          </ns3:TrackPointExtension>
        </extensions>
      </trkpt>
      <trkpt lat="42.6037364266812801361083984375" lon="19.8841191641986370086669921875">
        <ele>2142.800048828125</ele>
        <time>2026-06-16T10:11:42.000Z</time>
        <extensions>
          <ns3:TrackPointExtension>
            <ns3:atemp>17.0</ns3:atemp>
          </ns3:TrackPointExtension>
        </extensions>
      </trkpt>
      <trkpt lat="42.60373366065323352813720703125" lon="19.884120337665081024169921875">
        <ele>2142.800048828125</ele>
        <time>2026-06-16T10:11:43.000Z</time>
        <extensions>
          <ns3:TrackPointExtension>
            <ns3:atemp>17.0</ns3:atemp>
          </ns3:TrackPointExtension>
        </extensions>
      </trkpt>
      <trkpt lat="42.60373030789196491241455078125" lon="19.88413207232952117919921875">
        <ele>2142.800048828125</ele>
        <time>2026-06-16T10:11:44.000Z</time>
        <extensions>
          <ns3:TrackPointExtension>
            <ns3:atemp>17.0</ns3:atemp>
          </ns3:TrackPointExtension>
        </extensions>
      </trkpt>
      <trkpt lat="42.60371840558946132659912109375" lon="19.88414372317492961883544921875">
        <ele>2142.800048828125</ele>
        <time>2026-06-16T10:11:45.000Z</time>
        <extensions>
          <ns3:TrackPointExtension>
            <ns3:atemp>17.0</ns3:atemp>
          </ns3:TrackPointExtension>
        </extensions>
      </trkpt>
      <trkpt lat="42.603714130818843841552734375" lon="19.88417004235088825225830078125">
        <ele>2142.60009765625</ele>
        <time>2026-06-16T10:11:46.000Z</time>
        <extensions>
          <ns3:TrackPointExtension>
            <ns3:atemp>17.0</ns3:atemp>
          </ns3:TrackPointExtension>
        </extensions>
      </trkpt>
      <trkpt lat="42.6037206687033176422119140625" lon="19.88418982364237308502197265625">
        <ele>2142.60009765625</ele>
        <time>2026-06-16T10:11:47.000Z</time>
        <extensions>
          <ns3:TrackPointExtension>
            <ns3:atemp>17.0</ns3:atemp>
          </ns3:TrackPointExtension>
        </extensions>
      </trkpt>
      <trkpt lat="42.60373416356742382049560546875" lon="19.8842066712677478790283203125">
        <ele>2142.60009765625</ele>
        <time>2026-06-16T10:11:48.000Z</time>
        <extensions>
          <ns3:TrackPointExtension>
            <ns3:atemp>17.0</ns3:atemp>
          </ns3:TrackPointExtension>
        </extensions>
      </trkpt>
      <trkpt lat="42.6037488318979740142822265625" lon="19.88422301597893238067626953125">
        <ele>2142.60009765625</ele>
        <time>2026-06-16T10:11:49.000Z</time>
        <extensions>
          <ns3:TrackPointExtension>
            <ns3:atemp>17.0</ns3:atemp>
          </ns3:TrackPointExtension>
        </extensions>
      </trkpt>
      <trkpt lat="42.6037619076669216156005859375" lon="19.88424464128911495208740234375">
        <ele>2142.60009765625</ele>
        <time>2026-06-16T10:11:50.000Z</time>
        <extensions>
          <ns3:TrackPointExtension>
            <ns3:atemp>17.0</ns3:atemp>
          </ns3:TrackPointExtension>
        </extensions>
      </trkpt>
      <trkpt lat="42.60377070866525173187255859375" lon="19.88425838761031627655029296875">
        <ele>2142.800048828125</ele>
        <time>2026-06-16T10:11:51.000Z</time>
        <extensions>
          <ns3:TrackPointExtension>
            <ns3:atemp>17.0</ns3:atemp>
          </ns3:TrackPointExtension>
        </extensions>
      </trkpt>
      <trkpt lat="42.60377950966358184814453125" lon="19.88427582196891307830810546875">
        <ele>2143</ele>
        <time>2026-06-16T10:11:52.000Z</time>
        <extensions>
          <ns3:TrackPointExtension>
            <ns3:atemp>17.0</ns3:atemp>
          </ns3:TrackPointExtension>
        </extensions>
      </trkpt>
      <trkpt lat="42.603787891566753387451171875" lon="19.88429342396557331085205078125">
        <ele>2143.199951171875</ele>
        <time>2026-06-16T10:11:53.000Z</time>
        <extensions>
          <ns3:TrackPointExtension>
            <ns3:atemp>17.0</ns3:atemp>
          </ns3:TrackPointExtension>
        </extensions>
      </trkpt>
      <trkpt lat="42.60379292070865631103515625" lon="19.88431286998093128204345703125">
        <ele>2143.60009765625</ele>
        <time>2026-06-16T10:11:54.000Z</time>
        <extensions>
          <ns3:TrackPointExtension>
            <ns3:atemp>16.0</ns3:atemp>
          </ns3:TrackPointExtension>
        </extensions>
      </trkpt>
      <trkpt lat="42.6038004644215106964111328125" lon="19.88433432765305042266845703125">
        <ele>2144</ele>
        <time>2026-06-16T10:11:55.000Z</time>
        <extensions>
          <ns3:TrackPointExtension>
            <ns3:atemp>16.0</ns3:atemp>
          </ns3:TrackPointExtension>
        </extensions>
      </trkpt>
      <trkpt lat="42.60380708612501621246337890625" lon="19.88435511477291584014892578125">
        <ele>2144.39990234375</ele>
        <time>2026-06-16T10:11:56.000Z</time>
        <extensions>
          <ns3:TrackPointExtension>
            <ns3:atemp>17.0</ns3:atemp>
          </ns3:TrackPointExtension>
        </extensions>
      </trkpt>
      <trkpt lat="42.6038138754665851593017578125" lon="19.88437724299728870391845703125">
        <ele>2144.60009765625</ele>
        <time>2026-06-16T10:11:57.000Z</time>
        <extensions>
          <ns3:TrackPointExtension>
            <ns3:atemp>16.0</ns3:atemp>
          </ns3:TrackPointExtension>
        </extensions>
      </trkpt>
      <trkpt lat="42.60381949134171009063720703125" lon="19.88439870066940784454345703125">
        <ele>2145</ele>
        <time>2026-06-16T10:11:58.000Z</time>
        <extensions>
          <ns3:TrackPointExtension>
            <ns3:atemp>16.0</ns3:atemp>
          </ns3:TrackPointExtension>
        </extensions>
      </trkpt>
      <trkpt lat="42.60382167063653469085693359375" lon="19.88442049361765384674072265625">
        <ele>2145.199951171875</ele>
        <time>2026-06-16T10:11:59.000Z</time>
        <extensions>
          <ns3:TrackPointExtension>
            <ns3:atemp>16.0</ns3:atemp>
          </ns3:TrackPointExtension>
        </extensions>
      </trkpt>
      <trkpt lat="42.60381974279880523681640625" lon="19.884438179433345794677734375">
        <ele>2145.60009765625</ele>
        <time>2026-06-16T10:12:00.000Z</time>
        <extensions>
          <ns3:TrackPointExtension>
            <ns3:atemp>16.0</ns3:atemp>
          </ns3:TrackPointExtension>
        </extensions>
      </trkpt>
      <trkpt lat="42.60381412692368030548095703125" lon="19.88445268012583255767822265625">
        <ele>2146</ele>
        <time>2026-06-16T10:12:01.000Z</time>
        <extensions>
          <ns3:TrackPointExtension>
            <ns3:atemp>16.0</ns3:atemp>
          </ns3:TrackPointExtension>
        </extensions>
      </trkpt>
      <trkpt lat="42.603805325925350189208984375" lon="19.884459972381591796875">
        <ele>2146.199951171875</ele>
        <time>2026-06-16T10:12:02.000Z</time>
        <extensions>
          <ns3:TrackPointExtension>
            <ns3:atemp>16.0</ns3:atemp>
          </ns3:TrackPointExtension>
        </extensions>
      </trkpt>
      <trkpt lat="42.60379493236541748046875" lon="19.88446122966706752777099609375">
        <ele>2146.800048828125</ele>
        <time>2026-06-16T10:12:03.000Z</time>
        <extensions>
          <ns3:TrackPointExtension>
            <ns3:atemp>16.0</ns3:atemp>
          </ns3:TrackPointExtension>
        </extensions>
      </trkpt>
      <trkpt lat="42.6037810184061527252197265625" lon="19.88445972092449665069580078125">
        <ele>2147.199951171875</ele>
        <time>2026-06-16T10:12:04.000Z</time>
        <extensions>
          <ns3:TrackPointExtension>
            <ns3:atemp>16.0</ns3:atemp>
          </ns3:TrackPointExtension>
        </extensions>
      </trkpt>
      <trkpt lat="42.6037625782191753387451171875" lon="19.88446273840963840484619140625">
        <ele>2147.39990234375</ele>
        <time>2026-06-16T10:12:05.000Z</time>
        <extensions>
          <ns3:TrackPointExtension>
            <ns3:atemp>16.0</ns3:atemp>
          </ns3:TrackPointExtension>
        </extensions>
      </trkpt>
      <trkpt lat="42.60374866425991058349609375" lon="19.88446592353284358978271484375">
        <ele>2147.800048828125</ele>
        <time>2026-06-16T10:12:06.000Z</time>
        <extensions>
          <ns3:TrackPointExtension>
            <ns3:atemp>16.0</ns3:atemp>
          </ns3:TrackPointExtension>
        </extensions>
      </trkpt>
      <trkpt lat="42.60373919270932674407958984375" lon="19.884473718702793121337890625">
        <ele>2148</ele>
        <time>2026-06-16T10:12:07.000Z</time>
        <extensions>
          <ns3:TrackPointExtension>
            <ns3:atemp>16.0</ns3:atemp>
          </ns3:TrackPointExtension>
        </extensions>
      </trkpt>
      <trkpt lat="42.60372854769229888916015625" lon="19.88448402844369411468505859375">
        <ele>2148.199951171875</ele>
        <time>2026-06-16T10:12:08.000Z</time>
        <extensions>
          <ns3:TrackPointExtension>
            <ns3:atemp>16.0</ns3:atemp>
          </ns3:TrackPointExtension>
        </extensions>
      </trkpt>
      <trkpt lat="42.60371756739914417266845703125" lon="19.8844953440129756927490234375">
        <ele>2148.39990234375</ele>
        <time>2026-06-16T10:12:09.000Z</time>
        <extensions>
          <ns3:TrackPointExtension>
            <ns3:atemp>16.0</ns3:atemp>
          </ns3:TrackPointExtension>
        </extensions>
      </trkpt>
      <trkpt lat="42.60370549745857715606689453125" lon="19.8845060728490352630615234375">
        <ele>2148.60009765625</ele>
        <time>2026-06-16T10:12:10.000Z</time>
        <extensions>
          <ns3:TrackPointExtension>
            <ns3:atemp>16.0</ns3:atemp>
          </ns3:TrackPointExtension>
        </extensions>
      </trkpt>
      <trkpt lat="42.60368906892836093902587890625" lon="19.88451520912349224090576171875">
        <ele>2148.800048828125</ele>
        <time>2026-06-16T10:12:11.000Z</time>
        <extensions>
          <ns3:TrackPointExtension>
            <ns3:atemp>16.0</ns3:atemp>
          </ns3:TrackPointExtension>
        </extensions>
      </trkpt>
      <trkpt lat="42.60367297567427158355712890625" lon="19.8845265246927738189697265625">
        <ele>2149</ele>
        <time>2026-06-16T10:12:12.000Z</time>
        <extensions>
          <ns3:TrackPointExtension>
            <ns3:atemp>16.0</ns3:atemp>
          </ns3:TrackPointExtension>
        </extensions>
      </trkpt>
      <trkpt lat="42.603661157190799713134765625" lon="19.884535409510135650634765625">
        <ele>2149.199951171875</ele>
        <time>2026-06-16T10:12:13.000Z</time>
        <extensions>
          <ns3:TrackPointExtension>
            <ns3:atemp>16.0</ns3:atemp>
          </ns3:TrackPointExtension>
        </extensions>
      </trkpt>
      <trkpt lat="42.6036519370973110198974609375" lon="19.88454756326973438262939453125">
        <ele>2149.39990234375</ele>
        <time>2026-06-16T10:12:14.000Z</time>
        <extensions>
          <ns3:TrackPointExtension>
            <ns3:atemp>16.0</ns3:atemp>
          </ns3:TrackPointExtension>
        </extensions>
      </trkpt>
      <trkpt lat="42.60364531539380550384521484375" lon="19.884560890495777130126953125">
        <ele>2149.800048828125</ele>
        <time>2026-06-16T10:12:15.000Z</time>
        <extensions>
          <ns3:TrackPointExtension>
            <ns3:atemp>16.0</ns3:atemp>
          </ns3:TrackPointExtension>
        </extensions>
      </trkpt>
      <trkpt lat="42.6036388613283634185791015625" lon="19.8845731280744075775146484375">
        <ele>2150</ele>
        <time>2026-06-16T10:12:16.000Z</time>
        <extensions>
          <ns3:TrackPointExtension>
            <ns3:atemp>16.0</ns3:atemp>
          </ns3:TrackPointExtension>
        </extensions>
      </trkpt>
      <trkpt lat="42.603632993996143341064453125" lon="19.8845885507762432098388671875">
        <ele>2150.39990234375</ele>
        <time>2026-06-16T10:12:17.000Z</time>
        <extensions>
          <ns3:TrackPointExtension>
            <ns3:atemp>16.0</ns3:atemp>
          </ns3:TrackPointExtension>
        </extensions>
      </trkpt>
      <trkpt lat="42.6036257855594158172607421875" lon="19.88459601067006587982177734375">
        <ele>2150.800048828125</ele>
        <time>2026-06-16T10:12:18.000Z</time>
        <extensions>
          <ns3:TrackPointExtension>
            <ns3:atemp>16.0</ns3:atemp>
          </ns3:TrackPointExtension>
        </extensions>
      </trkpt>
      <trkpt lat="42.60361396707594394683837890625" lon="19.88460623659193515777587890625">
        <ele>2151</ele>
        <time>2026-06-16T10:12:19.000Z</time>
        <extensions>
          <ns3:TrackPointExtension>
            <ns3:atemp>16.0</ns3:atemp>
          </ns3:TrackPointExtension>
        </extensions>
      </trkpt>
      <trkpt lat="42.603600807487964630126953125" lon="19.8846200667321681976318359375">
        <ele>2151.199951171875</ele>
        <time>2026-06-16T10:12:20.000Z</time>
        <extensions>
          <ns3:TrackPointExtension>
            <ns3:atemp>16.0</ns3:atemp>
          </ns3:TrackPointExtension>
        </extensions>
      </trkpt>
      <trkpt lat="42.60359175503253936767578125" lon="19.8846364952623844146728515625">
        <ele>2151.39990234375</ele>
        <time>2026-06-16T10:12:21.000Z</time>
        <extensions>
          <ns3:TrackPointExtension>
            <ns3:atemp>16.0</ns3:atemp>
          </ns3:TrackPointExtension>
        </extensions>
      </trkpt>
      <trkpt lat="42.60358731262385845184326171875" lon="19.88464311696588993072509765625">
        <ele>2151.800048828125</ele>
        <time>2026-06-16T10:12:22.000Z</time>
        <extensions>
          <ns3:TrackPointExtension>
            <ns3:atemp>16.0</ns3:atemp>
          </ns3:TrackPointExtension>
        </extensions>
      </trkpt>
      <trkpt lat="42.6035808585584163665771484375" lon="19.884652756154537200927734375">
        <ele>2152</ele>
        <time>2026-06-16T10:12:23.000Z</time>
        <extensions>
          <ns3:TrackPointExtension>
            <ns3:atemp>16.0</ns3:atemp>
          </ns3:TrackPointExtension>
        </extensions>
      </trkpt>
      <trkpt lat="42.60356753133237361907958984375" lon="19.88466708920896053314208984375">
        <ele>2152.199951171875</ele>
        <time>2026-06-16T10:12:24.000Z</time>
        <extensions>
          <ns3:TrackPointExtension>
            <ns3:atemp>16.0</ns3:atemp>
          </ns3:TrackPointExtension>
        </extensions>
      </trkpt>
      <trkpt lat="42.603550516068935394287109375" lon="19.88468837924301624298095703125">
        <ele>2152.39990234375</ele>
        <time>2026-06-16T10:12:25.000Z</time>
        <extensions>
          <ns3:TrackPointExtension>
            <ns3:atemp>16.0</ns3:atemp>
          </ns3:TrackPointExtension>
        </extensions>
      </trkpt>
      <trkpt lat="42.603537775576114654541015625" lon="19.884707070887088775634765625">
        <ele>2152.60009765625</ele>
        <time>2026-06-16T10:12:26.000Z</time>
        <extensions>
          <ns3:TrackPointExtension>
            <ns3:atemp>16.0</ns3:atemp>
          </ns3:TrackPointExtension>
        </extensions>
      </trkpt>
      <trkpt lat="42.60352662764489650726318359375" lon="19.88472257740795612335205078125">
        <ele>2152.800048828125</ele>
        <time>2026-06-16T10:12:27.000Z</time>
        <extensions>
          <ns3:TrackPointExtension>
            <ns3:atemp>16.0</ns3:atemp>
          </ns3:TrackPointExtension>
        </extensions>
      </trkpt>
      <trkpt lat="42.60351522825658321380615234375" lon="19.88474001176655292510986328125">
        <ele>2152.800048828125</ele>
        <time>2026-06-16T10:12:28.000Z</time>
        <extensions>
          <ns3:TrackPointExtension>
            <ns3:atemp>16.0</ns3:atemp>
          </ns3:TrackPointExtension>
        </extensions>
      </trkpt>
      <trkpt lat="42.6035040803253650665283203125" lon="19.8847582004964351654052734375">
        <ele>2153.199951171875</ele>
        <time>2026-06-16T10:12:29.000Z</time>
        <extensions>
          <ns3:TrackPointExtension>
            <ns3:atemp>16.0</ns3:atemp>
          </ns3:TrackPointExtension>
        </extensions>
      </trkpt>
      <trkpt lat="42.60349377058446407318115234375" lon="19.88477085717022418975830078125">
        <ele>2153.39990234375</ele>
        <time>2026-06-16T10:12:30.000Z</time>
        <extensions>
          <ns3:TrackPointExtension>
            <ns3:atemp>16.0</ns3:atemp>
          </ns3:TrackPointExtension>
        </extensions>
      </trkpt>
      <trkpt lat="42.6034866459667682647705078125" lon="19.884784519672393798828125">
        <ele>2153.800048828125</ele>
        <time>2026-06-16T10:12:31.000Z</time>
        <extensions>
          <ns3:TrackPointExtension>
            <ns3:atemp>16.0</ns3:atemp>
          </ns3:TrackPointExtension>
        </extensions>
      </trkpt>
      <trkpt lat="42.60347700677812099456787109375" lon="19.88480254076421260833740234375">
        <ele>2154.199951171875</ele>
        <time>2026-06-16T10:12:32.000Z</time>
        <extensions>
          <ns3:TrackPointExtension>
            <ns3:atemp>16.0</ns3:atemp>
          </ns3:TrackPointExtension>
        </extensions>
      </trkpt>
      <trkpt lat="42.603468708693981170654296875" lon="19.8848182149231433868408203125">
        <ele>2154.60009765625</ele>
        <time>2026-06-16T10:12:33.000Z</time>
        <extensions>
          <ns3:TrackPointExtension>
            <ns3:atemp>16.0</ns3:atemp>
          </ns3:TrackPointExtension>
        </extensions>
      </trkpt>
      <trkpt lat="42.60345789603888988494873046875" lon="19.88483011722564697265625">
        <ele>2154.800048828125</ele>
        <time>2026-06-16T10:12:34.000Z</time>
        <extensions>
          <ns3:TrackPointExtension>
            <ns3:atemp>16.0</ns3:atemp>
          </ns3:TrackPointExtension>
        </extensions>
      </trkpt>
      <trkpt lat="42.60344616137444972991943359375" lon="19.88484277389943599700927734375">
        <ele>2155.199951171875</ele>
        <time>2026-06-16T10:12:35.000Z</time>
        <extensions>
          <ns3:TrackPointExtension>
            <ns3:atemp>16.0</ns3:atemp>
          </ns3:TrackPointExtension>
        </extensions>
      </trkpt>
      <trkpt lat="42.603433169424533843994140625" lon="19.88485937006771564483642578125">
        <ele>2155.60009765625</ele>
        <time>2026-06-16T10:12:36.000Z</time>
        <extensions>
          <ns3:TrackPointExtension>
            <ns3:atemp>16.0</ns3:atemp>
          </ns3:TrackPointExtension>
        </extensions>
      </trkpt>
      <trkpt lat="42.60342487134039402008056640625" lon="19.8848745413124561309814453125">
        <ele>2155.800048828125</ele>
        <time>2026-06-16T10:12:37.000Z</time>
        <extensions>
          <ns3:TrackPointExtension>
            <ns3:atemp>16.0</ns3:atemp>
          </ns3:TrackPointExtension>
        </extensions>
      </trkpt>
      <trkpt lat="42.60341682471334934234619140625" lon="19.884891808032989501953125">
        <ele>2156.199951171875</ele>
        <time>2026-06-16T10:12:38.000Z</time>
        <extensions>
          <ns3:TrackPointExtension>
            <ns3:atemp>16.0</ns3:atemp>
          </ns3:TrackPointExtension>
        </extensions>
      </trkpt>
      <trkpt lat="42.60341296903789043426513671875" lon="19.884909577667713165283203125">
        <ele>2156.39990234375</ele>
        <time>2026-06-16T10:12:39.000Z</time>
        <extensions>
          <ns3:TrackPointExtension>
            <ns3:atemp>16.0</ns3:atemp>
          </ns3:TrackPointExtension>
        </extensions>
      </trkpt>
      <trkpt lat="42.60341162793338298797607421875" lon="19.884925000369548797607421875">
        <ele>2156.800048828125</ele>
        <time>2026-06-16T10:12:40.000Z</time>
        <extensions>
          <ns3:TrackPointExtension>
            <ns3:atemp>16.0</ns3:atemp>
          </ns3:TrackPointExtension>
        </extensions>
      </trkpt>
      <trkpt lat="42.60341070592403411865234375" lon="19.8849333822727203369140625">
        <ele>2157</ele>
        <time>2026-06-16T10:12:41.000Z</time>
        <extensions>
          <ns3:TrackPointExtension>
            <ns3:atemp>16.0</ns3:atemp>
          </ns3:TrackPointExtension>
        </extensions>
      </trkpt>
      <trkpt lat="42.60340676642954349517822265625" lon="19.88493983633816242218017578125">
        <ele>2157.60009765625</ele>
        <time>2026-06-16T10:12:42.000Z</time>
        <extensions>
          <ns3:TrackPointExtension>
            <ns3:atemp>16.0</ns3:atemp>
          </ns3:TrackPointExtension>
        </extensions>
      </trkpt>
      <trkpt lat="42.6034045033156871795654296875" lon="19.88495341502130031585693359375">
        <ele>2157.800048828125</ele>
        <time>2026-06-16T10:12:43.000Z</time>
        <extensions>
          <ns3:TrackPointExtension>
            <ns3:atemp>16.0</ns3:atemp>
          </ns3:TrackPointExtension>
        </extensions>
      </trkpt>
      <trkpt lat="42.60340207256376743316650390625" lon="19.8849724419414997100830078125">
        <ele>2158.199951171875</ele>
        <time>2026-06-16T10:12:44.000Z</time>
        <extensions>
          <ns3:TrackPointExtension>
            <ns3:atemp>16.0</ns3:atemp>
          </ns3:TrackPointExtension>
        </extensions>
      </trkpt>
      <trkpt lat="42.60340123437345027923583984375" lon="19.88499230705201625823974609375">
        <ele>2158.60009765625</ele>
        <time>2026-06-16T10:12:45.000Z</time>
        <extensions>
          <ns3:TrackPointExtension>
            <ns3:atemp>16.0</ns3:atemp>
          </ns3:TrackPointExtension>
        </extensions>
      </trkpt>
      <trkpt lat="42.6033993065357208251953125" lon="19.8850089870393276214599609375">
        <ele>2158.800048828125</ele>
        <time>2026-06-16T10:12:46.000Z</time>
        <extensions>
          <ns3:TrackPointExtension>
            <ns3:atemp>16.0</ns3:atemp>
          </ns3:TrackPointExtension>
        </extensions>
      </trkpt>
      <trkpt lat="42.60338866151869297027587890625" lon="19.88502616994082927703857421875">
        <ele>2159.199951171875</ele>
        <time>2026-06-16T10:12:47.000Z</time>
        <extensions>
          <ns3:TrackPointExtension>
            <ns3:atemp>16.0</ns3:atemp>
          </ns3:TrackPointExtension>
        </extensions>
      </trkpt>
      <trkpt lat="42.603379189968109130859375" lon="19.88504804670810699462890625">
        <ele>2159.39990234375</ele>
        <time>2026-06-16T10:12:48.000Z</time>
        <extensions>
          <ns3:TrackPointExtension>
            <ns3:atemp>16.0</ns3:atemp>
          </ns3:TrackPointExtension>
        </extensions>
      </trkpt>
      <trkpt lat="42.60337692685425281524658203125" lon="19.88506522960960865020751953125">
        <ele>2159.800048828125</ele>
        <time>2026-06-16T10:12:49.000Z</time>
        <extensions>
          <ns3:TrackPointExtension>
            <ns3:atemp>16.0</ns3:atemp>
          </ns3:TrackPointExtension>
        </extensions>
      </trkpt>
      <trkpt lat="42.6033751666545867919921875" lon="19.88508568145334720611572265625">
        <ele>2160</ele>
        <time>2026-06-16T10:12:50.000Z</time>
        <extensions>
          <ns3:TrackPointExtension>
            <ns3:atemp>16.0</ns3:atemp>
          </ns3:TrackPointExtension>
        </extensions>
      </trkpt>
      <trkpt lat="42.60337005369365215301513671875" lon="19.8851038701832294464111328125">
        <ele>2160.199951171875</ele>
        <time>2026-06-16T10:12:51.000Z</time>
        <extensions>
          <ns3:TrackPointExtension>
            <ns3:atemp>16.0</ns3:atemp>
          </ns3:TrackPointExtension>
        </extensions>
      </trkpt>
      <trkpt lat="42.60336301289498805999755859375" lon="19.8851142637431621551513671875">
        <ele>2160.39990234375</ele>
        <time>2026-06-16T10:12:52.000Z</time>
        <extensions>
          <ns3:TrackPointExtension>
            <ns3:atemp>16.0</ns3:atemp>
          </ns3:TrackPointExtension>
        </extensions>
      </trkpt>
      <trkpt lat="42.60336510837078094482421875" lon="19.88511384464800357818603515625">
        <ele>2160.60009765625</ele>
        <time>2026-06-16T10:12:53.000Z</time>
        <extensions>
          <ns3:TrackPointExtension>
            <ns3:atemp>16.0</ns3:atemp>
          </ns3:TrackPointExtension>
        </extensions>
      </trkpt>
      <trkpt lat="42.60336510837078094482421875" lon="19.8851139284670352935791015625">
        <ele>2160.800048828125</ele>
        <time>2026-06-16T10:12:54.000Z</time>
        <extensions>
          <ns3:TrackPointExtension>
            <ns3:atemp>16.0</ns3:atemp>
          </ns3:TrackPointExtension>
        </extensions>
      </trkpt>
      <trkpt lat="42.60336510837078094482421875" lon="19.8851139284670352935791015625">
        <ele>2161.199951171875</ele>
        <time>2026-06-16T10:12:55.000Z</time>
        <extensions>
          <ns3:TrackPointExtension>
            <ns3:atemp>16.0</ns3:atemp>
          </ns3:TrackPointExtension>
        </extensions>
      </trkpt>
      <trkpt lat="42.60336510837078094482421875" lon="19.8851139284670352935791015625">
        <ele>2161.199951171875</ele>
        <time>2026-06-16T10:12:56.000Z</time>
        <extensions>
          <ns3:TrackPointExtension>
            <ns3:atemp>16.0</ns3:atemp>
          </ns3:TrackPointExtension>
        </extensions>
      </trkpt>
      <trkpt lat="42.60336510837078094482421875" lon="19.8851139284670352935791015625">
        <ele>2161.199951171875</ele>
        <time>2026-06-16T10:12:57.000Z</time>
        <extensions>
          <ns3:TrackPointExtension>
            <ns3:atemp>16.0</ns3:atemp>
          </ns3:TrackPointExtension>
        </extensions>
      </trkpt>
      <trkpt lat="42.60336510837078094482421875" lon="19.8851139284670352935791015625">
        <ele>2161.199951171875</ele>
        <time>2026-06-16T10:12:58.000Z</time>
        <extensions>
          <ns3:TrackPointExtension>
            <ns3:atemp>16.0</ns3:atemp>
          </ns3:TrackPointExtension>
        </extensions>
      </trkpt>
      <trkpt lat="42.60336510837078094482421875" lon="19.8851139284670352935791015625">
        <ele>2161.199951171875</ele>
        <time>2026-06-16T10:12:59.000Z</time>
        <extensions>
          <ns3:TrackPointExtension>
            <ns3:atemp>16.0</ns3:atemp>
          </ns3:TrackPointExtension>
        </extensions>
      </trkpt>
      <trkpt lat="42.60336510837078094482421875" lon="19.8851139284670352935791015625">
        <ele>2161.199951171875</ele>
        <time>2026-06-16T10:13:00.000Z</time>
        <extensions>
          <ns3:TrackPointExtension>
            <ns3:atemp>16.0</ns3:atemp>
          </ns3:TrackPointExtension>
        </extensions>
      </trkpt>
      <trkpt lat="42.6033649407327175140380859375" lon="19.88511510193347930908203125">
        <ele>2161.39990234375</ele>
        <time>2026-06-16T10:13:01.000Z</time>
        <extensions>
          <ns3:TrackPointExtension>
            <ns3:atemp>16.0</ns3:atemp>
          </ns3:TrackPointExtension>
        </extensions>
      </trkpt>
      <trkpt lat="42.60335505008697509765625" lon="19.8851166106760501861572265625">
        <ele>2161.39990234375</ele>
        <time>2026-06-16T10:13:02.000Z</time>
        <extensions>
          <ns3:TrackPointExtension>
            <ns3:atemp>16.0</ns3:atemp>
          </ns3:TrackPointExtension>
        </extensions>
      </trkpt>
      <trkpt lat="42.603345997631549835205078125" lon="19.88511233590543270111083984375">
        <ele>2161.199951171875</ele>
        <time>2026-06-16T10:13:03.000Z</time>
        <extensions>
          <ns3:TrackPointExtension>
            <ns3:atemp>16.0</ns3:atemp>
          </ns3:TrackPointExtension>
        </extensions>
      </trkpt>
      <trkpt lat="42.60334021411836147308349609375" lon="19.88510034978389739990234375">
        <ele>2161.199951171875</ele>
        <time>2026-06-16T10:13:04.000Z</time>
        <extensions>
          <ns3:TrackPointExtension>
            <ns3:atemp>16.0</ns3:atemp>
          </ns3:TrackPointExtension>
        </extensions>
      </trkpt>
      <trkpt lat="42.6033374480903148651123046875" lon="19.8850857652723789215087890625">
        <ele>2161</ele>
        <time>2026-06-16T10:13:05.000Z</time>
        <extensions>
          <ns3:TrackPointExtension>
            <ns3:atemp>16.0</ns3:atemp>
          </ns3:TrackPointExtension>
        </extensions>
      </trkpt>
      <trkpt lat="42.6033397950232028961181640625" lon="19.8850726895034313201904296875">
        <ele>2160.800048828125</ele>
        <time>2026-06-16T10:13:06.000Z</time>
        <extensions>
          <ns3:TrackPointExtension>
            <ns3:atemp>16.0</ns3:atemp>
          </ns3:TrackPointExtension>
        </extensions>
      </trkpt>
      <trkpt lat="42.603347003459930419921875" lon="19.8850579373538494110107421875">
        <ele>2160.60009765625</ele>
        <time>2026-06-16T10:13:07.000Z</time>
        <extensions>
          <ns3:TrackPointExtension>
            <ns3:atemp>16.0</ns3:atemp>
          </ns3:TrackPointExtension>
        </extensions>
      </trkpt>
      <trkpt lat="42.603356055915355682373046875" lon="19.885048381984233856201171875">
        <ele>2160.39990234375</ele>
        <time>2026-06-16T10:13:08.000Z</time>
        <extensions>
          <ns3:TrackPointExtension>
            <ns3:atemp>16.0</ns3:atemp>
          </ns3:TrackPointExtension>
        </extensions>
      </trkpt>
      <trkpt lat="42.603371143341064453125" lon="19.88503907807171344757080078125">
        <ele>2160</ele>
        <time>2026-06-16T10:13:09.000Z</time>
        <extensions>
          <ns3:TrackPointExtension>
            <ns3:atemp>16.0</ns3:atemp>
          </ns3:TrackPointExtension>
        </extensions>
      </trkpt>
      <trkpt lat="42.603386901319026947021484375" lon="19.885018207132816314697265625">
        <ele>2159.800048828125</ele>
        <time>2026-06-16T10:13:10.000Z</time>
        <extensions>
          <ns3:TrackPointExtension>
            <ns3:atemp>16.0</ns3:atemp>
          </ns3:TrackPointExtension>
        </extensions>
      </trkpt>
      <trkpt lat="42.60340173728764057159423828125" lon="19.88499666564166545867919921875">
        <ele>2159.60009765625</ele>
        <time>2026-06-16T10:13:11.000Z</time>
        <extensions>
          <ns3:TrackPointExtension>
            <ns3:atemp>16.0</ns3:atemp>
          </ns3:TrackPointExtension>
        </extensions>
      </trkpt>
      <trkpt lat="42.6034112088382244110107421875" lon="19.88497789017856121063232421875">
        <ele>2159.60009765625</ele>
        <time>2026-06-16T10:13:12.000Z</time>
        <extensions>
          <ns3:TrackPointExtension>
            <ns3:atemp>16.0</ns3:atemp>
          </ns3:TrackPointExtension>
        </extensions>
      </trkpt>
      <trkpt lat="42.60342872701585292816162109375" lon="19.88495576195418834686279296875">
        <ele>2159.39990234375</ele>
        <time>2026-06-16T10:13:13.000Z</time>
        <extensions>
          <ns3:TrackPointExtension>
            <ns3:atemp>16.0</ns3:atemp>
          </ns3:TrackPointExtension>
        </extensions>
      </trkpt>
      <trkpt lat="42.60344632901251316070556640625" lon="19.88493598066270351409912109375">
        <ele>2159.39990234375</ele>
        <time>2026-06-16T10:13:14.000Z</time>
        <extensions>
          <ns3:TrackPointExtension>
            <ns3:atemp>16.0</ns3:atemp>
          </ns3:TrackPointExtension>
        </extensions>
      </trkpt>
      <trkpt lat="42.60346493683755397796630859375" lon="19.8849221505224704742431640625">
        <ele>2159.199951171875</ele>
        <time>2026-06-16T10:13:15.000Z</time>
        <extensions>
          <ns3:TrackPointExtension>
            <ns3:atemp>16.0</ns3:atemp>
          </ns3:TrackPointExtension>
        </extensions>
      </trkpt>
      <trkpt lat="42.60348379611968994140625" lon="19.88490714691579341888427734375">
        <ele>2159.199951171875</ele>
        <time>2026-06-16T10:13:16.000Z</time>
        <extensions>
          <ns3:TrackPointExtension>
            <ns3:atemp>16.0</ns3:atemp>
          </ns3:TrackPointExtension>
        </extensions>
      </trkpt>
      <trkpt lat="42.60349410586059093475341796875" lon="19.88488954491913318634033203125">
        <ele>2159</ele>
        <time>2026-06-16T10:13:17.000Z</time>
        <extensions>
          <ns3:TrackPointExtension>
            <ns3:atemp>16.0</ns3:atemp>
          </ns3:TrackPointExtension>
        </extensions>
      </trkpt>
      <trkpt lat="42.60349326767027378082275390625" lon="19.88487479276955127716064453125">
        <ele>2159</ele>
        <time>2026-06-16T10:13:18.000Z</time>
        <extensions>
          <ns3:TrackPointExtension>
            <ns3:atemp>16.0</ns3:atemp>
          </ns3:TrackPointExtension>
        </extensions>
      </trkpt>
      <trkpt lat="42.60348807089030742645263671875" lon="19.88486054353415966033935546875">
        <ele>2158.800048828125</ele>
        <time>2026-06-16T10:13:19.000Z</time>
        <extensions>
          <ns3:TrackPointExtension>
            <ns3:atemp>16.0</ns3:atemp>
          </ns3:TrackPointExtension>
        </extensions>
      </trkpt>
      <trkpt lat="42.60347633622586727142333984375" lon="19.884856604039669036865234375">
        <ele>2158.60009765625</ele>
        <time>2026-06-16T10:13:20.000Z</time>
        <extensions>
          <ns3:TrackPointExtension>
            <ns3:atemp>16.0</ns3:atemp>
          </ns3:TrackPointExtension>
        </extensions>
      </trkpt>
      <trkpt lat="42.60346124880015850067138671875" lon="19.88485886715352535247802734375">
        <ele>2158.39990234375</ele>
        <time>2026-06-16T10:13:21.000Z</time>
        <extensions>
          <ns3:TrackPointExtension>
            <ns3:atemp>16.0</ns3:atemp>
          </ns3:TrackPointExtension>
        </extensions>
      </trkpt>
      <trkpt lat="42.60344649665057659149169921875" lon="19.88485752604901790618896484375">
        <ele>2158</ele>
        <time>2026-06-16T10:13:22.000Z</time>
        <extensions>
          <ns3:TrackPointExtension>
            <ns3:atemp>16.0</ns3:atemp>
          </ns3:TrackPointExtension>
        </extensions>
      </trkpt>
      <trkpt lat="42.60343157686293125152587890625" lon="19.884857274591922760009765625">
        <ele>2157.800048828125</ele>
        <time>2026-06-16T10:13:23.000Z</time>
        <extensions>
          <ns3:TrackPointExtension>
            <ns3:atemp>16.0</ns3:atemp>
          </ns3:TrackPointExtension>
        </extensions>
      </trkpt>
      <trkpt lat="42.603421099483966827392578125" lon="19.884861968457698822021484375">
        <ele>2157.60009765625</ele>
        <time>2026-06-16T10:13:24.000Z</time>
        <extensions>
          <ns3:TrackPointExtension>
            <ns3:atemp>16.0</ns3:atemp>
          </ns3:TrackPointExtension>
        </extensions>
      </trkpt>
      <trkpt lat="42.6034091971814632415771484375" lon="19.8848698474466800689697265625">
        <ele>2157.39990234375</ele>
        <time>2026-06-16T10:13:25.000Z</time>
        <extensions>
          <ns3:TrackPointExtension>
            <ns3:atemp>16.0</ns3:atemp>
          </ns3:TrackPointExtension>
        </extensions>
      </trkpt>
      <trkpt lat="42.6033991388976573944091796875" lon="19.88487948663532733917236328125">
        <ele>2157.199951171875</ele>
        <time>2026-06-16T10:13:26.000Z</time>
        <extensions>
          <ns3:TrackPointExtension>
            <ns3:atemp>16.0</ns3:atemp>
          </ns3:TrackPointExtension>
        </extensions>
      </trkpt>
      <trkpt lat="42.60339352302253246307373046875" lon="19.88489507697522640228271484375">
        <ele>2157</ele>
        <time>2026-06-16T10:13:27.000Z</time>
        <extensions>
          <ns3:TrackPointExtension>
            <ns3:atemp>16.0</ns3:atemp>
          </ns3:TrackPointExtension>
        </extensions>
      </trkpt>
      <trkpt lat="42.603386901319026947021484375" lon="19.88491117022931575775146484375">
        <ele>2156.800048828125</ele>
        <time>2026-06-16T10:13:28.000Z</time>
        <extensions>
          <ns3:TrackPointExtension>
            <ns3:atemp>16.0</ns3:atemp>
          </ns3:TrackPointExtension>
        </extensions>
      </trkpt>
      <trkpt lat="42.60337726213037967681884765625" lon="19.8849332146346569061279296875">
        <ele>2156.800048828125</ele>
        <time>2026-06-16T10:13:29.000Z</time>
        <extensions>
          <ns3:TrackPointExtension>
            <ns3:atemp>16.0</ns3:atemp>
          </ns3:TrackPointExtension>
        </extensions>
      </trkpt>
      <trkpt lat="42.60337173007428646087646484375" lon="19.8849550075829029083251953125">
        <ele>2156.800048828125</ele>
        <time>2026-06-16T10:13:30.000Z</time>
        <extensions>
          <ns3:TrackPointExtension>
            <ns3:atemp>16.0</ns3:atemp>
          </ns3:TrackPointExtension>
        </extensions>
      </trkpt>
      <trkpt lat="42.60336267761886119842529296875" lon="19.884972274303436279296875">
        <ele>2156.800048828125</ele>
        <time>2026-06-16T10:13:31.000Z</time>
        <extensions>
          <ns3:TrackPointExtension>
            <ns3:atemp>16.0</ns3:atemp>
          </ns3:TrackPointExtension>
        </extensions>
      </trkpt>
      <trkpt lat="42.6033525355160236358642578125" lon="19.88498811610043048858642578125">
        <ele>2157</ele>
        <time>2026-06-16T10:13:32.000Z</time>
        <extensions>
          <ns3:TrackPointExtension>
            <ns3:atemp>16.0</ns3:atemp>
          </ns3:TrackPointExtension>
        </extensions>
      </trkpt>
      <trkpt lat="42.60333560407161712646484375" lon="19.8850022815167903900146484375">
        <ele>2157.199951171875</ele>
        <time>2026-06-16T10:13:33.000Z</time>
        <extensions>
          <ns3:TrackPointExtension>
            <ns3:atemp>16.0</ns3:atemp>
          </ns3:TrackPointExtension>
        </extensions>
      </trkpt>
      <trkpt lat="42.6033206842839717864990234375" lon="19.88502332009375095367431640625">
        <ele>2157.199951171875</ele>
        <time>2026-06-16T10:13:34.000Z</time>
        <extensions>
          <ns3:TrackPointExtension>
            <ns3:atemp>16.0</ns3:atemp>
          </ns3:TrackPointExtension>
        </extensions>
      </trkpt>
      <trkpt lat="42.60331548750400543212890625" lon="19.885047711431980133056640625">
        <ele>2157.199951171875</ele>
        <time>2026-06-16T10:13:35.000Z</time>
        <extensions>
          <ns3:TrackPointExtension>
            <ns3:atemp>16.0</ns3:atemp>
          </ns3:TrackPointExtension>
        </extensions>
      </trkpt>
      <trkpt lat="42.60331456549465656280517578125" lon="19.885063469409942626953125">
        <ele>2157.199951171875</ele>
        <time>2026-06-16T10:13:36.000Z</time>
        <extensions>
          <ns3:TrackPointExtension>
            <ns3:atemp>16.0</ns3:atemp>
          </ns3:TrackPointExtension>
        </extensions>
      </trkpt>
      <trkpt lat="42.60331423021852970123291015625" lon="19.88507562316954135894775390625">
        <ele>2157.199951171875</ele>
        <time>2026-06-16T10:13:37.000Z</time>
        <extensions>
          <ns3:TrackPointExtension>
            <ns3:atemp>16.0</ns3:atemp>
          </ns3:TrackPointExtension>
        </extensions>
      </trkpt>
      <trkpt lat="42.60331456549465656280517578125" lon="19.8850901238620281219482421875">
        <ele>2157.199951171875</ele>
        <time>2026-06-16T10:13:38.000Z</time>
        <extensions>
          <ns3:TrackPointExtension>
            <ns3:atemp>16.0</ns3:atemp>
          </ns3:TrackPointExtension>
        </extensions>
      </trkpt>
      <trkpt lat="42.60330953635275363922119140625" lon="19.885108731687068939208984375">
        <ele>2157.39990234375</ele>
        <time>2026-06-16T10:13:39.000Z</time>
        <extensions>
          <ns3:TrackPointExtension>
            <ns3:atemp>16.0</ns3:atemp>
          </ns3:TrackPointExtension>
        </extensions>
      </trkpt>
      <trkpt lat="42.60330744087696075439453125" lon="19.8851291835308074951171875">
        <ele>2157.800048828125</ele>
        <time>2026-06-16T10:13:40.000Z</time>
        <extensions>
          <ns3:TrackPointExtension>
            <ns3:atemp>16.0</ns3:atemp>
          </ns3:TrackPointExtension>
        </extensions>
      </trkpt>
      <trkpt lat="42.60330668650567531585693359375" lon="19.8851451091468334197998046875">
        <ele>2158</ele>
        <time>2026-06-16T10:13:41.000Z</time>
        <extensions>
          <ns3:TrackPointExtension>
            <ns3:atemp>16.0</ns3:atemp>
          </ns3:TrackPointExtension>
        </extensions>
      </trkpt>
      <trkpt lat="42.60330475866794586181640625" lon="19.8851632140576839447021484375">
        <ele>2158.199951171875</ele>
        <time>2026-06-16T10:13:42.000Z</time>
        <extensions>
          <ns3:TrackPointExtension>
            <ns3:atemp>16.0</ns3:atemp>
          </ns3:TrackPointExtension>
        </extensions>
      </trkpt>
      <trkpt lat="42.60330316610634326934814453125" lon="19.88518106751143932342529296875">
        <ele>2158.39990234375</ele>
        <time>2026-06-16T10:13:43.000Z</time>
        <extensions>
          <ns3:TrackPointExtension>
            <ns3:atemp>16.0</ns3:atemp>
          </ns3:TrackPointExtension>
        </extensions>
      </trkpt>
      <trkpt lat="42.60329964570701122283935546875" lon="19.8852016031742095947265625">
        <ele>2158.60009765625</ele>
        <time>2026-06-16T10:13:44.000Z</time>
        <extensions>
          <ns3:TrackPointExtension>
            <ns3:atemp>16.0</ns3:atemp>
          </ns3:TrackPointExtension>
        </extensions>
      </trkpt>
      <trkpt lat="42.6032965444028377532958984375" lon="19.88522063009440898895263671875">
        <ele>2158.800048828125</ele>
        <time>2026-06-16T10:13:45.000Z</time>
        <extensions>
          <ns3:TrackPointExtension>
            <ns3:atemp>16.0</ns3:atemp>
          </ns3:TrackPointExtension>
        </extensions>
      </trkpt>
      <trkpt lat="42.60329294018447399139404296875" lon="19.8852369748055934906005859375">
        <ele>2159.199951171875</ele>
        <time>2026-06-16T10:13:46.000Z</time>
        <extensions>
          <ns3:TrackPointExtension>
            <ns3:atemp>16.0</ns3:atemp>
          </ns3:TrackPointExtension>
        </extensions>
      </trkpt>
      <trkpt lat="42.60328858159482479095458984375" lon="19.8852594383060932159423828125">
        <ele>2159.39990234375</ele>
        <time>2026-06-16T10:13:47.000Z</time>
        <extensions>
          <ns3:TrackPointExtension>
            <ns3:atemp>16.0</ns3:atemp>
          </ns3:TrackPointExtension>
        </extensions>
      </trkpt>
      <trkpt lat="42.6032854802906513214111328125" lon="19.88528139889240264892578125">
        <ele>2159.60009765625</ele>
        <time>2026-06-16T10:13:48.000Z</time>
        <extensions>
          <ns3:TrackPointExtension>
            <ns3:atemp>16.0</ns3:atemp>
          </ns3:TrackPointExtension>
        </extensions>
      </trkpt>
      <trkpt lat="42.60328472591936588287353515625" lon="19.88530344329774379730224609375">
        <ele>2159.800048828125</ele>
        <time>2026-06-16T10:13:49.000Z</time>
        <extensions>
          <ns3:TrackPointExtension>
            <ns3:atemp>16.0</ns3:atemp>
          </ns3:TrackPointExtension>
        </extensions>
      </trkpt>
      <trkpt lat="42.603284306824207305908203125" lon="19.885326661169528961181640625">
        <ele>2160</ele>
        <time>2026-06-16T10:13:50.000Z</time>
        <extensions>
          <ns3:TrackPointExtension>
            <ns3:atemp>16.0</ns3:atemp>
          </ns3:TrackPointExtension>
        </extensions>
      </trkpt>
      <trkpt lat="42.603284977376461029052734375" lon="19.885350801050662994384765625">
        <ele>2160.199951171875</ele>
        <time>2026-06-16T10:13:51.000Z</time>
        <extensions>
          <ns3:TrackPointExtension>
            <ns3:atemp>16.0</ns3:atemp>
          </ns3:TrackPointExtension>
        </extensions>
      </trkpt>
      <trkpt lat="42.6032861508429050445556640625" lon="19.88537301309406757354736328125">
        <ele>2160.199951171875</ele>
        <time>2026-06-16T10:13:52.000Z</time>
        <extensions>
          <ns3:TrackPointExtension>
            <ns3:atemp>16.0</ns3:atemp>
          </ns3:TrackPointExtension>
        </extensions>
      </trkpt>
      <trkpt lat="42.60329126380383968353271484375" lon="19.88539002835750579833984375">
        <ele>2160.39990234375</ele>
        <time>2026-06-16T10:13:53.000Z</time>
        <extensions>
          <ns3:TrackPointExtension>
            <ns3:atemp>16.0</ns3:atemp>
          </ns3:TrackPointExtension>
        </extensions>
      </trkpt>
      <trkpt lat="42.60329998098313808441162109375" lon="19.8854012601077556610107421875">
        <ele>2160.60009765625</ele>
        <time>2026-06-16T10:13:54.000Z</time>
        <extensions>
          <ns3:TrackPointExtension>
            <ns3:atemp>16.0</ns3:atemp>
          </ns3:TrackPointExtension>
        </extensions>
      </trkpt>
      <trkpt lat="42.6033099554479122161865234375" lon="19.88541626371443271636962890625">
        <ele>2160.800048828125</ele>
        <time>2026-06-16T10:13:55.000Z</time>
        <extensions>
          <ns3:TrackPointExtension>
            <ns3:atemp>16.0</ns3:atemp>
          </ns3:TrackPointExtension>
        </extensions>
      </trkpt>
      <trkpt lat="42.60331355966627597808837890625" lon="19.8854364641010761260986328125">
        <ele>2161.199951171875</ele>
        <time>2026-06-16T10:13:56.000Z</time>
        <extensions>
          <ns3:TrackPointExtension>
            <ns3:atemp>16.0</ns3:atemp>
          </ns3:TrackPointExtension>
        </extensions>
      </trkpt>
      <trkpt lat="42.6033174991607666015625" lon="19.88545750267803668975830078125">
        <ele>2161.60009765625</ele>
        <time>2026-06-16T10:13:57.000Z</time>
        <extensions>
          <ns3:TrackPointExtension>
            <ns3:atemp>16.0</ns3:atemp>
          </ns3:TrackPointExtension>
        </extensions>
      </trkpt>
      <trkpt lat="42.60332227684557437896728515625" lon="19.8854770325124263763427734375">
        <ele>2162</ele>
        <time>2026-06-16T10:13:58.000Z</time>
        <extensions>
          <ns3:TrackPointExtension>
            <ns3:atemp>16.0</ns3:atemp>
          </ns3:TrackPointExtension>
        </extensions>
      </trkpt>
      <trkpt lat="42.60332487523555755615234375" lon="19.8854966461658477783203125">
        <ele>2162.39990234375</ele>
        <time>2026-06-16T10:13:59.000Z</time>
        <extensions>
          <ns3:TrackPointExtension>
            <ns3:atemp>16.0</ns3:atemp>
          </ns3:TrackPointExtension>
        </extensions>
      </trkpt>
      <trkpt lat="42.60332361795008182525634765625" lon="19.8855149187147617340087890625">
        <ele>2162.800048828125</ele>
        <time>2026-06-16T10:14:00.000Z</time>
        <extensions>
          <ns3:TrackPointExtension>
            <ns3:atemp>16.0</ns3:atemp>
          </ns3:TrackPointExtension>
        </extensions>
      </trkpt>
      <trkpt lat="42.6033233664929866790771484375" lon="19.88553428091108798980712890625">
        <ele>2163.39990234375</ele>
        <time>2026-06-16T10:14:01.000Z</time>
        <extensions>
          <ns3:TrackPointExtension>
            <ns3:atemp>16.0</ns3:atemp>
          </ns3:TrackPointExtension>
        </extensions>
      </trkpt>
      <trkpt lat="42.6033237017691135406494140625" lon="19.8855507932603359222412109375">
        <ele>2163.800048828125</ele>
        <time>2026-06-16T10:14:02.000Z</time>
        <extensions>
          <ns3:TrackPointExtension>
            <ns3:atemp>16.0</ns3:atemp>
          </ns3:TrackPointExtension>
        </extensions>
      </trkpt>
      <trkpt lat="42.603326551616191864013671875" lon="19.8855658806860446929931640625">
        <ele>2164.199951171875</ele>
        <time>2026-06-16T10:14:03.000Z</time>
        <extensions>
          <ns3:TrackPointExtension>
            <ns3:atemp>16.0</ns3:atemp>
          </ns3:TrackPointExtension>
        </extensions>
      </trkpt>
      <trkpt lat="42.603334598243236541748046875" lon="19.8855719156563282012939453125">
        <ele>2164.60009765625</ele>
        <time>2026-06-16T10:14:04.000Z</time>
        <extensions>
          <ns3:TrackPointExtension>
            <ns3:atemp>16.0</ns3:atemp>
          </ns3:TrackPointExtension>
        </extensions>
      </trkpt>
      <trkpt lat="42.60334574617445468902587890625" lon="19.88556965254247188568115234375">
        <ele>2165</ele>
        <time>2026-06-16T10:14:05.000Z</time>
        <extensions>
          <ns3:TrackPointExtension>
            <ns3:atemp>16.0</ns3:atemp>
          </ns3:TrackPointExtension>
        </extensions>
      </trkpt>
      <trkpt lat="42.603362090885639190673828125" lon="19.88556303083896636962890625">
        <ele>2165.39990234375</ele>
        <time>2026-06-16T10:14:06.000Z</time>
        <extensions>
          <ns3:TrackPointExtension>
            <ns3:atemp>16.0</ns3:atemp>
          </ns3:TrackPointExtension>
        </extensions>
      </trkpt>
      <trkpt lat="42.6033773459494113922119140625" lon="19.88556764088571071624755859375">
        <ele>2165.800048828125</ele>
        <time>2026-06-16T10:14:07.000Z</time>
        <extensions>
          <ns3:TrackPointExtension>
            <ns3:atemp>16.0</ns3:atemp>
          </ns3:TrackPointExtension>
        </extensions>
      </trkpt>
      <trkpt lat="42.603379189968109130859375" lon="19.885583817958831787109375">
        <ele>2166.39990234375</ele>
        <time>2026-06-16T10:14:08.000Z</time>
        <extensions>
          <ns3:TrackPointExtension>
            <ns3:atemp>16.0</ns3:atemp>
          </ns3:TrackPointExtension>
        </extensions>
      </trkpt>
      <trkpt lat="42.6033766753971576690673828125" lon="19.885601587593555450439453125">
        <ele>2166.800048828125</ele>
        <time>2026-06-16T10:14:09.000Z</time>
        <extensions>
          <ns3:TrackPointExtension>
            <ns3:atemp>16.0</ns3:atemp>
          </ns3:TrackPointExtension>
        </extensions>
      </trkpt>
      <trkpt lat="42.603370808064937591552734375" lon="19.88562312908470630645751953125">
        <ele>2167.199951171875</ele>
        <time>2026-06-16T10:14:10.000Z</time>
        <extensions>
          <ns3:TrackPointExtension>
            <ns3:atemp>16.0</ns3:atemp>
          </ns3:TrackPointExtension>
        </extensions>
      </trkpt>
      <trkpt lat="42.603363431990146636962890625" lon="19.8856453411281108856201171875">
        <ele>2167.60009765625</ele>
        <time>2026-06-16T10:14:11.000Z</time>
        <extensions>
          <ns3:TrackPointExtension>
            <ns3:atemp>16.0</ns3:atemp>
          </ns3:TrackPointExtension>
        </extensions>
      </trkpt>
      <trkpt lat="42.60336368344724178314208984375" lon="19.8856641165912151336669921875">
        <ele>2167.800048828125</ele>
        <time>2026-06-16T10:14:12.000Z</time>
        <extensions>
          <ns3:TrackPointExtension>
            <ns3:atemp>16.0</ns3:atemp>
          </ns3:TrackPointExtension>
        </extensions>
      </trkpt>
      <trkpt lat="42.6033617556095123291015625" lon="19.88567308522760868072509765625">
        <ele>2168.199951171875</ele>
        <time>2026-06-16T10:14:13.000Z</time>
        <extensions>
          <ns3:TrackPointExtension>
            <ns3:atemp>16.0</ns3:atemp>
          </ns3:TrackPointExtension>
        </extensions>
      </trkpt>
      <trkpt lat="42.603363096714019775390625" lon="19.88568968139588832855224609375">
        <ele>2168.39990234375</ele>
        <time>2026-06-16T10:14:14.000Z</time>
        <extensions>
          <ns3:TrackPointExtension>
            <ns3:atemp>16.0</ns3:atemp>
          </ns3:TrackPointExtension>
        </extensions>
      </trkpt>
      <trkpt lat="42.60336301289498805999755859375" lon="19.8857110552489757537841796875">
        <ele>2168.800048828125</ele>
        <time>2026-06-16T10:14:15.000Z</time>
        <extensions>
          <ns3:TrackPointExtension>
            <ns3:atemp>16.0</ns3:atemp>
          </ns3:TrackPointExtension>
        </extensions>
      </trkpt>
      <trkpt lat="42.60336301289498805999755859375" lon="19.88573729060590267181396484375">
        <ele>2169</ele>
        <time>2026-06-16T10:14:16.000Z</time>
        <extensions>
          <ns3:TrackPointExtension>
            <ns3:atemp>16.0</ns3:atemp>
          </ns3:TrackPointExtension>
        </extensions>
      </trkpt>
      <trkpt lat="42.60336334817111492156982421875" lon="19.88576092757284641265869140625">
        <ele>2169.199951171875</ele>
        <time>2026-06-16T10:14:17.000Z</time>
        <extensions>
          <ns3:TrackPointExtension>
            <ns3:atemp>16.0</ns3:atemp>
          </ns3:TrackPointExtension>
        </extensions>
      </trkpt>
      <trkpt lat="42.60336334817111492156982421875" lon="19.8857841454446315765380859375">
        <ele>2169.39990234375</ele>
        <time>2026-06-16T10:14:18.000Z</time>
        <extensions>
          <ns3:TrackPointExtension>
            <ns3:atemp>16.0</ns3:atemp>
          </ns3:TrackPointExtension>
        </extensions>
      </trkpt>
      <trkpt lat="42.60336267761886119842529296875" lon="19.88580803386867046356201171875">
        <ele>2169.60009765625</ele>
        <time>2026-06-16T10:14:19.000Z</time>
        <extensions>
          <ns3:TrackPointExtension>
            <ns3:atemp>16.0</ns3:atemp>
          </ns3:TrackPointExtension>
        </extensions>
      </trkpt>
      <trkpt lat="42.6033652760088443756103515625" lon="19.8858337663114070892333984375">
        <ele>2169.800048828125</ele>
        <time>2026-06-16T10:14:20.000Z</time>
        <extensions>
          <ns3:TrackPointExtension>
            <ns3:atemp>16.0</ns3:atemp>
          </ns3:TrackPointExtension>
        </extensions>
      </trkpt>
      <trkpt lat="42.60337525047361850738525390625" lon="19.885852038860321044921875">
        <ele>2170</ele>
        <time>2026-06-16T10:14:21.000Z</time>
        <extensions>
          <ns3:TrackPointExtension>
            <ns3:atemp>16.0</ns3:atemp>
          </ns3:TrackPointExtension>
        </extensions>
      </trkpt>
      <trkpt lat="42.60338430292904376983642578125" lon="19.8858515359461307525634765625">
        <ele>2170.39990234375</ele>
        <time>2026-06-16T10:14:22.000Z</time>
        <extensions>
          <ns3:TrackPointExtension>
            <ns3:atemp>16.0</ns3:atemp>
          </ns3:TrackPointExtension>
        </extensions>
      </trkpt>
      <trkpt lat="42.60339327156543731689453125" lon="19.88584457896649837493896484375">
        <ele>2170.800048828125</ele>
        <time>2026-06-16T10:14:23.000Z</time>
        <extensions>
          <ns3:TrackPointExtension>
            <ns3:atemp>16.0</ns3:atemp>
          </ns3:TrackPointExtension>
        </extensions>
      </trkpt>
      <trkpt lat="42.6034028269350528717041015625" lon="19.885833598673343658447265625">
        <ele>2171.39990234375</ele>
        <time>2026-06-16T10:14:24.000Z</time>
        <extensions>
          <ns3:TrackPointExtension>
            <ns3:atemp>16.0</ns3:atemp>
          </ns3:TrackPointExtension>
        </extensions>
      </trkpt>
      <trkpt lat="42.60341581888496875762939453125" lon="19.88582530058920383453369140625">
        <ele>2172</ele>
        <time>2026-06-16T10:14:25.000Z</time>
        <extensions>
          <ns3:TrackPointExtension>
            <ns3:atemp>16.0</ns3:atemp>
          </ns3:TrackPointExtension>
        </extensions>
      </trkpt>
      <trkpt lat="42.60343006812036037445068359375" lon="19.885822869837284088134765625">
        <ele>2172.60009765625</ele>
        <time>2026-06-16T10:14:26.000Z</time>
        <extensions>
          <ns3:TrackPointExtension>
            <ns3:atemp>16.0</ns3:atemp>
          </ns3:TrackPointExtension>
        </extensions>
      </trkpt>
      <trkpt lat="42.60344691574573516845703125" lon="19.8858223669230937957763671875">
        <ele>2173</ele>
        <time>2026-06-16T10:14:27.000Z</time>
        <extensions>
          <ns3:TrackPointExtension>
            <ns3:atemp>16.0</ns3:atemp>
          </ns3:TrackPointExtension>
        </extensions>
      </trkpt>
      <trkpt lat="42.60346309281885623931884765625" lon="19.88581909798085689544677734375">
        <ele>2173.39990234375</ele>
        <time>2026-06-16T10:14:28.000Z</time>
        <extensions>
          <ns3:TrackPointExtension>
            <ns3:atemp>16.0</ns3:atemp>
          </ns3:TrackPointExtension>
        </extensions>
      </trkpt>
      <trkpt lat="42.6034802757203578948974609375" lon="19.8858163319528102874755859375">
        <ele>2173.60009765625</ele>
        <time>2026-06-16T10:14:29.000Z</time>
        <extensions>
          <ns3:TrackPointExtension>
            <ns3:atemp>16.0</ns3:atemp>
          </ns3:TrackPointExtension>
        </extensions>
      </trkpt>
      <trkpt lat="42.60349544696509838104248046875" lon="19.885822199285030364990234375">
        <ele>2173.800048828125</ele>
        <time>2026-06-16T10:14:30.000Z</time>
        <extensions>
          <ns3:TrackPointExtension>
            <ns3:atemp>16.0</ns3:atemp>
          </ns3:TrackPointExtension>
        </extensions>
      </trkpt>
      <trkpt lat="42.6034977100789546966552734375" lon="19.88583393394947052001953125">
        <ele>2174.199951171875</ele>
        <time>2026-06-16T10:14:31.000Z</time>
        <extensions>
          <ns3:TrackPointExtension>
            <ns3:atemp>16.0</ns3:atemp>
          </ns3:TrackPointExtension>
        </extensions>
      </trkpt>
      <trkpt lat="42.60349259711802005767822265625" lon="19.88585161976516246795654296875">
        <ele>2174.60009765625</ele>
        <time>2026-06-16T10:14:32.000Z</time>
        <extensions>
          <ns3:TrackPointExtension>
            <ns3:atemp>16.0</ns3:atemp>
          </ns3:TrackPointExtension>
        </extensions>
      </trkpt>
      <trkpt lat="42.603476755321025848388671875" lon="19.88587223924696445465087890625">
        <ele>2175.199951171875</ele>
        <time>2026-06-16T10:14:33.000Z</time>
        <extensions>
          <ns3:TrackPointExtension>
            <ns3:atemp>16.0</ns3:atemp>
          </ns3:TrackPointExtension>
        </extensions>
      </trkpt>
      <trkpt lat="42.60346971452236175537109375" lon="19.885893948376178741455078125">
        <ele>2175.60009765625</ele>
        <time>2026-06-16T10:14:34.000Z</time>
        <extensions>
          <ns3:TrackPointExtension>
            <ns3:atemp>16.0</ns3:atemp>
          </ns3:TrackPointExtension>
        </extensions>
      </trkpt>
      <trkpt lat="42.60346828959882259368896484375" lon="19.88591046072542667388916015625">
        <ele>2175.800048828125</ele>
        <time>2026-06-16T10:14:35.000Z</time>
        <extensions>
          <ns3:TrackPointExtension>
            <ns3:atemp>16.0</ns3:atemp>
          </ns3:TrackPointExtension>
        </extensions>
      </trkpt>
      <trkpt lat="42.6034685410559177398681640625" lon="19.88592739216983318328857421875">
        <ele>2176</ele>
        <time>2026-06-16T10:14:36.000Z</time>
        <extensions>
          <ns3:TrackPointExtension>
            <ns3:atemp>16.0</ns3:atemp>
          </ns3:TrackPointExtension>
        </extensions>
      </trkpt>
      <trkpt lat="42.60347398929297924041748046875" lon="19.88594549708068370819091796875">
        <ele>2176.199951171875</ele>
        <time>2026-06-16T10:14:37.000Z</time>
        <extensions>
          <ns3:TrackPointExtension>
            <ns3:atemp>16.0</ns3:atemp>
          </ns3:TrackPointExtension>
        </extensions>
      </trkpt>
      <trkpt lat="42.60348253883421421051025390625" lon="19.88595907576382160186767578125">
        <ele>2176.39990234375</ele>
        <time>2026-06-16T10:14:38.000Z</time>
        <extensions>
          <ns3:TrackPointExtension>
            <ns3:atemp>16.0</ns3:atemp>
          </ns3:TrackPointExtension>
        </extensions>
      </trkpt>
      <trkpt lat="42.60348773561418056488037109375" lon="19.88597382791340351104736328125">
        <ele>2176.800048828125</ele>
        <time>2026-06-16T10:14:39.000Z</time>
        <extensions>
          <ns3:TrackPointExtension>
            <ns3:atemp>16.0</ns3:atemp>
          </ns3:TrackPointExtension>
        </extensions>
      </trkpt>
      <trkpt lat="42.6034886576235294342041015625" lon="19.885991849005222320556640625">
        <ele>2177.199951171875</ele>
        <time>2026-06-16T10:14:40.000Z</time>
        <extensions>
          <ns3:TrackPointExtension>
            <ns3:atemp>16.0</ns3:atemp>
          </ns3:TrackPointExtension>
        </extensions>
      </trkpt>
      <trkpt lat="42.6034905016422271728515625" lon="19.8860138095915317535400390625">
        <ele>2177.60009765625</ele>
        <time>2026-06-16T10:14:41.000Z</time>
        <extensions>
          <ns3:TrackPointExtension>
            <ns3:atemp>16.0</ns3:atemp>
          </ns3:TrackPointExtension>
        </extensions>
      </trkpt>
      <trkpt lat="42.60349678806960582733154296875" lon="19.88603903912007808685302734375">
        <ele>2178</ele>
        <time>2026-06-16T10:14:42.000Z</time>
        <extensions>
          <ns3:TrackPointExtension>
            <ns3:atemp>16.0</ns3:atemp>
          </ns3:TrackPointExtension>
        </extensions>
      </trkpt>
      <trkpt lat="42.60350734926760196685791015625" lon="19.88605882041156291961669921875">
        <ele>2178.199951171875</ele>
        <time>2026-06-16T10:14:43.000Z</time>
        <extensions>
          <ns3:TrackPointExtension>
            <ns3:atemp>16.0</ns3:atemp>
          </ns3:TrackPointExtension>
        </extensions>
      </trkpt>
      <trkpt lat="42.6035168208181858062744140625" lon="19.88607642240822315216064453125">
        <ele>2178.60009765625</ele>
        <time>2026-06-16T10:14:44.000Z</time>
        <extensions>
          <ns3:TrackPointExtension>
            <ns3:atemp>16.0</ns3:atemp>
          </ns3:TrackPointExtension>
        </extensions>
      </trkpt>
      <trkpt lat="42.60352201759815216064453125" lon="19.8860905878245830535888671875">
        <ele>2179.199951171875</ele>
        <time>2026-06-16T10:14:45.000Z</time>
        <extensions>
          <ns3:TrackPointExtension>
            <ns3:atemp>16.0</ns3:atemp>
          </ns3:TrackPointExtension>
        </extensions>
      </trkpt>
      <trkpt lat="42.60352746583521366119384765625" lon="19.88610391505062580108642578125">
        <ele>2179.60009765625</ele>
        <time>2026-06-16T10:14:46.000Z</time>
        <extensions>
          <ns3:TrackPointExtension>
            <ns3:atemp>16.0</ns3:atemp>
          </ns3:TrackPointExtension>
        </extensions>
      </trkpt>
      <trkpt lat="42.60353299789130687713623046875" lon="19.88612453453242778778076171875">
        <ele>2180</ele>
        <time>2026-06-16T10:14:47.000Z</time>
        <extensions>
          <ns3:TrackPointExtension>
            <ns3:atemp>16.0</ns3:atemp>
          </ns3:TrackPointExtension>
        </extensions>
      </trkpt>
      <trkpt lat="42.603531740605831146240234375" lon="19.886140711605548858642578125">
        <ele>2180.60009765625</ele>
        <time>2026-06-16T10:14:48.000Z</time>
        <extensions>
          <ns3:TrackPointExtension>
            <ns3:atemp>16.0</ns3:atemp>
          </ns3:TrackPointExtension>
        </extensions>
      </trkpt>
      <trkpt lat="42.6035211794078350067138671875" lon="19.88615554757416248321533203125">
        <ele>2181</ele>
        <time>2026-06-16T10:14:49.000Z</time>
        <extensions>
          <ns3:TrackPointExtension>
            <ns3:atemp>16.0</ns3:atemp>
          </ns3:TrackPointExtension>
        </extensions>
      </trkpt>
      <trkpt lat="42.603509612381458282470703125" lon="19.886182956397533416748046875">
        <ele>2181.39990234375</ele>
        <time>2026-06-16T10:14:50.000Z</time>
        <extensions>
          <ns3:TrackPointExtension>
            <ns3:atemp>16.0</ns3:atemp>
          </ns3:TrackPointExtension>
        </extensions>
      </trkpt>
      <trkpt lat="42.60350382886826992034912109375" lon="19.886207766830921173095703125">
        <ele>2181.60009765625</ele>
        <time>2026-06-16T10:14:51.000Z</time>
        <extensions>
          <ns3:TrackPointExtension>
            <ns3:atemp>16.0</ns3:atemp>
          </ns3:TrackPointExtension>
        </extensions>
      </trkpt>
      <trkpt lat="42.6034946925938129425048828125" lon="19.8862262070178985595703125">
        <ele>2182</ele>
        <time>2026-06-16T10:14:52.000Z</time>
        <extensions>
          <ns3:TrackPointExtension>
            <ns3:atemp>16.0</ns3:atemp>
          </ns3:TrackPointExtension>
        </extensions>
      </trkpt>
      <trkpt lat="42.60348672978579998016357421875" lon="19.886245988309383392333984375">
        <ele>2182.199951171875</ele>
        <time>2026-06-16T10:14:53.000Z</time>
        <extensions>
          <ns3:TrackPointExtension>
            <ns3:atemp>16.0</ns3:atemp>
          </ns3:TrackPointExtension>
        </extensions>
      </trkpt>
      <trkpt lat="42.60347767733037471771240234375" lon="19.8862659372389316558837890625">
        <ele>2182.39990234375</ele>
        <time>2026-06-16T10:14:54.000Z</time>
        <extensions>
          <ns3:TrackPointExtension>
            <ns3:atemp>16.0</ns3:atemp>
          </ns3:TrackPointExtension>
        </extensions>
      </trkpt>
      <trkpt lat="42.6034682057797908782958984375" lon="19.88628228195011615753173828125">
        <ele>2182.60009765625</ele>
        <time>2026-06-16T10:14:55.000Z</time>
        <extensions>
          <ns3:TrackPointExtension>
            <ns3:atemp>17.0</ns3:atemp>
          </ns3:TrackPointExtension>
        </extensions>
      </trkpt>
      <trkpt lat="42.60346309281885623931884765625" lon="19.8862957768142223358154296875">
        <ele>2182.800048828125</ele>
        <time>2026-06-16T10:14:56.000Z</time>
        <extensions>
          <ns3:TrackPointExtension>
            <ns3:atemp>17.0</ns3:atemp>
          </ns3:TrackPointExtension>
        </extensions>
      </trkpt>
      <trkpt lat="42.603460662066936492919921875" lon="19.88631329499185085296630859375">
        <ele>2182.800048828125</ele>
        <time>2026-06-16T10:14:57.000Z</time>
        <extensions>
          <ns3:TrackPointExtension>
            <ns3:atemp>17.0</ns3:atemp>
          </ns3:TrackPointExtension>
        </extensions>
      </trkpt>
      <trkpt lat="42.60345806367695331573486328125" lon="19.88633408211171627044677734375">
        <ele>2182.800048828125</ele>
        <time>2026-06-16T10:14:58.000Z</time>
        <extensions>
          <ns3:TrackPointExtension>
            <ns3:atemp>17.0</ns3:atemp>
          </ns3:TrackPointExtension>
        </extensions>
      </trkpt>
      <trkpt lat="42.60345906950533390045166015625" lon="19.88635830581188201904296875">
        <ele>2183</ele>
        <time>2026-06-16T10:14:59.000Z</time>
        <extensions>
          <ns3:TrackPointExtension>
            <ns3:atemp>17.0</ns3:atemp>
          </ns3:TrackPointExtension>
        </extensions>
      </trkpt>
      <trkpt lat="42.603465020656585693359375" lon="19.88637850619852542877197265625">
        <ele>2183</ele>
        <time>2026-06-16T10:15:00.000Z</time>
        <extensions>
          <ns3:TrackPointExtension>
            <ns3:atemp>17.0</ns3:atemp>
          </ns3:TrackPointExtension>
        </extensions>
      </trkpt>
      <trkpt lat="42.60347264818847179412841796875" lon="19.886394850909709930419921875">
        <ele>2183</ele>
        <time>2026-06-16T10:15:01.000Z</time>
        <extensions>
          <ns3:TrackPointExtension>
            <ns3:atemp>17.0</ns3:atemp>
          </ns3:TrackPointExtension>
        </extensions>
      </trkpt>
      <trkpt lat="42.60347583331167697906494140625" lon="19.886408261954784393310546875">
        <ele>2183.199951171875</ele>
        <time>2026-06-16T10:15:02.000Z</time>
        <extensions>
          <ns3:TrackPointExtension>
            <ns3:atemp>17.0</ns3:atemp>
          </ns3:TrackPointExtension>
        </extensions>
      </trkpt>
      <trkpt lat="42.6034779287874698638916015625" lon="19.886427037417888641357421875">
        <ele>2183.39990234375</ele>
        <time>2026-06-16T10:15:03.000Z</time>
        <extensions>
          <ns3:TrackPointExtension>
            <ns3:atemp>17.0</ns3:atemp>
          </ns3:TrackPointExtension>
        </extensions>
      </trkpt>
      <trkpt lat="42.6034739054739475250244140625" lon="19.88645159639418125152587890625">
        <ele>2183.60009765625</ele>
        <time>2026-06-16T10:15:04.000Z</time>
        <extensions>
          <ns3:TrackPointExtension>
            <ns3:atemp>17.0</ns3:atemp>
          </ns3:TrackPointExtension>
        </extensions>
      </trkpt>
      <trkpt lat="42.6034715585410594940185546875" lon="19.88647632300853729248046875">
        <ele>2183.800048828125</ele>
        <time>2026-06-16T10:15:05.000Z</time>
        <extensions>
          <ns3:TrackPointExtension>
            <ns3:atemp>16.0</ns3:atemp>
          </ns3:TrackPointExtension>
        </extensions>
      </trkpt>
      <trkpt lat="42.6034705527126789093017578125" lon="19.88649853505194187164306640625">
        <ele>2184</ele>
        <time>2026-06-16T10:15:06.000Z</time>
        <extensions>
          <ns3:TrackPointExtension>
            <ns3:atemp>17.0</ns3:atemp>
          </ns3:TrackPointExtension>
        </extensions>
      </trkpt>
      <trkpt lat="42.60346778668463230133056640625" lon="19.8865190707147121429443359375">
        <ele>2184</ele>
        <time>2026-06-16T10:15:07.000Z</time>
        <extensions>
          <ns3:TrackPointExtension>
            <ns3:atemp>17.0</ns3:atemp>
          </ns3:TrackPointExtension>
        </extensions>
      </trkpt>
      <trkpt lat="42.60346745140850543975830078125" lon="19.88654228858649730682373046875">
        <ele>2184.199951171875</ele>
        <time>2026-06-16T10:15:08.000Z</time>
        <extensions>
          <ns3:TrackPointExtension>
            <ns3:atemp>17.0</ns3:atemp>
          </ns3:TrackPointExtension>
        </extensions>
      </trkpt>
      <trkpt lat="42.60347030125558376312255859375" lon="19.8865643329918384552001953125">
        <ele>2184.199951171875</ele>
        <time>2026-06-16T10:15:09.000Z</time>
        <extensions>
          <ns3:TrackPointExtension>
            <ns3:atemp>17.0</ns3:atemp>
          </ns3:TrackPointExtension>
        </extensions>
      </trkpt>
      <trkpt lat="42.60347315110266208648681640625" lon="19.8865834437310695648193359375">
        <ele>2184.39990234375</ele>
        <time>2026-06-16T10:15:10.000Z</time>
        <extensions>
          <ns3:TrackPointExtension>
            <ns3:atemp>16.0</ns3:atemp>
          </ns3:TrackPointExtension>
        </extensions>
      </trkpt>
      <trkpt lat="42.60347885079681873321533203125" lon="19.8865975253283977508544921875">
        <ele>2184.60009765625</ele>
        <time>2026-06-16T10:15:11.000Z</time>
        <extensions>
          <ns3:TrackPointExtension>
            <ns3:atemp>16.0</ns3:atemp>
          </ns3:TrackPointExtension>
        </extensions>
      </trkpt>
      <trkpt lat="42.6034824550151824951171875" lon="19.886612780392169952392578125">
        <ele>2184.800048828125</ele>
        <time>2026-06-16T10:15:12.000Z</time>
        <extensions>
          <ns3:TrackPointExtension>
            <ns3:atemp>17.0</ns3:atemp>
          </ns3:TrackPointExtension>
        </extensions>
      </trkpt>
      <trkpt lat="42.60348848998546600341796875" lon="19.88662518560886383056640625">
        <ele>2184.800048828125</ele>
        <time>2026-06-16T10:15:13.000Z</time>
        <extensions>
          <ns3:TrackPointExtension>
            <ns3:atemp>17.0</ns3:atemp>
          </ns3:TrackPointExtension>
        </extensions>
      </trkpt>
      <trkpt lat="42.603497542440891265869140625" lon="19.8866421170532703399658203125">
        <ele>2185.199951171875</ele>
        <time>2026-06-16T10:15:14.000Z</time>
        <extensions>
          <ns3:TrackPointExtension>
            <ns3:atemp>17.0</ns3:atemp>
          </ns3:TrackPointExtension>
        </extensions>
      </trkpt>
      <trkpt lat="42.60350315831601619720458984375" lon="19.8866580426692962646484375">
        <ele>2185.39990234375</ele>
        <time>2026-06-16T10:15:15.000Z</time>
        <extensions>
          <ns3:TrackPointExtension>
            <ns3:atemp>17.0</ns3:atemp>
          </ns3:TrackPointExtension>
        </extensions>
      </trkpt>
      <trkpt lat="42.60350768454372882843017578125" lon="19.8866800032556056976318359375">
        <ele>2185.60009765625</ele>
        <time>2026-06-16T10:15:16.000Z</time>
        <extensions>
          <ns3:TrackPointExtension>
            <ns3:atemp>17.0</ns3:atemp>
          </ns3:TrackPointExtension>
        </extensions>
      </trkpt>
      <trkpt lat="42.60350818745791912078857421875" lon="19.88670188002288341522216796875">
        <ele>2185.800048828125</ele>
        <time>2026-06-16T10:15:17.000Z</time>
        <extensions>
          <ns3:TrackPointExtension>
            <ns3:atemp>17.0</ns3:atemp>
          </ns3:TrackPointExtension>
        </extensions>
      </trkpt>
      <trkpt lat="42.6035106182098388671875" lon="19.88671814091503620147705078125">
        <ele>2186</ele>
        <time>2026-06-16T10:15:18.000Z</time>
        <extensions>
          <ns3:TrackPointExtension>
            <ns3:atemp>17.0</ns3:atemp>
          </ns3:TrackPointExtension>
        </extensions>
      </trkpt>
      <trkpt lat="42.6035119593143463134765625" lon="19.8867309652268886566162109375">
        <ele>2186.199951171875</ele>
        <time>2026-06-16T10:15:19.000Z</time>
        <extensions>
          <ns3:TrackPointExtension>
            <ns3:atemp>17.0</ns3:atemp>
          </ns3:TrackPointExtension>
        </extensions>
      </trkpt>
      <trkpt lat="42.6035117916762828826904296875" lon="19.88674588501453399658203125">
        <ele>2186.39990234375</ele>
        <time>2026-06-16T10:15:20.000Z</time>
        <extensions>
          <ns3:TrackPointExtension>
            <ns3:atemp>17.0</ns3:atemp>
          </ns3:TrackPointExtension>
        </extensions>
      </trkpt>
      <trkpt lat="42.6035151444375514984130859375" lon="19.88676331937313079833984375">
        <ele>2186.60009765625</ele>
        <time>2026-06-16T10:15:21.000Z</time>
        <extensions>
          <ns3:TrackPointExtension>
            <ns3:atemp>17.0</ns3:atemp>
          </ns3:TrackPointExtension>
        </extensions>
      </trkpt>
      <trkpt lat="42.6035213470458984375" lon="19.88677530549466609954833984375">
        <ele>2186.60009765625</ele>
        <time>2026-06-16T10:15:22.000Z</time>
        <extensions>
          <ns3:TrackPointExtension>
            <ns3:atemp>17.0</ns3:atemp>
          </ns3:TrackPointExtension>
        </extensions>
      </trkpt>
      <trkpt lat="42.60352662764489650726318359375" lon="19.8867795802652835845947265625">
        <ele>2186.60009765625</ele>
        <time>2026-06-16T10:15:23.000Z</time>
        <extensions>
          <ns3:TrackPointExtension>
            <ns3:atemp>17.0</ns3:atemp>
          </ns3:TrackPointExtension>
        </extensions>
      </trkpt>
      <trkpt lat="42.603529728949069976806640625" lon="19.88678134046494960784912109375">
        <ele>2186.60009765625</ele>
        <time>2026-06-16T10:15:24.000Z</time>
        <extensions>
          <ns3:TrackPointExtension>
            <ns3:atemp>17.0</ns3:atemp>
          </ns3:TrackPointExtension>
        </extensions>
      </trkpt>
      <trkpt lat="42.603529728949069976806640625" lon="19.88678150810301303863525390625">
        <ele>2186.60009765625</ele>
        <time>2026-06-16T10:15:25.000Z</time>
        <extensions>
          <ns3:TrackPointExtension>
            <ns3:atemp>17.0</ns3:atemp>
          </ns3:TrackPointExtension>
        </extensions>
      </trkpt>
      <trkpt lat="42.603529728949069976806640625" lon="19.88678150810301303863525390625">
        <ele>2186.60009765625</ele>
        <time>2026-06-16T10:15:26.000Z</time>
        <extensions>
          <ns3:TrackPointExtension>
            <ns3:atemp>17.0</ns3:atemp>
          </ns3:TrackPointExtension>
        </extensions>
      </trkpt>
      <trkpt lat="42.60352981276810169219970703125" lon="19.88678184337913990020751953125">
        <ele>2186.60009765625</ele>
        <time>2026-06-16T10:15:27.000Z</time>
        <extensions>
          <ns3:TrackPointExtension>
            <ns3:atemp>17.0</ns3:atemp>
          </ns3:TrackPointExtension>
        </extensions>
      </trkpt>
      <trkpt lat="42.603527717292308807373046875" lon="19.88680363632738590240478515625">
        <ele>2186.60009765625</ele>
        <time>2026-06-16T10:15:28.000Z</time>
        <extensions>
          <ns3:TrackPointExtension>
            <ns3:atemp>17.0</ns3:atemp>
          </ns3:TrackPointExtension>
        </extensions>
      </trkpt>
      <trkpt lat="42.60352277196943759918212890625" lon="19.88682609982788562774658203125">
        <ele>2186.60009765625</ele>
        <time>2026-06-16T10:15:29.000Z</time>
        <extensions>
          <ns3:TrackPointExtension>
            <ns3:atemp>17.0</ns3:atemp>
          </ns3:TrackPointExtension>
        </extensions>
      </trkpt>
      <trkpt lat="42.603514306247234344482421875" lon="19.88685451447963714599609375">
        <ele>2186.60009765625</ele>
        <time>2026-06-16T10:15:30.000Z</time>
        <extensions>
          <ns3:TrackPointExtension>
            <ns3:atemp>17.0</ns3:atemp>
          </ns3:TrackPointExtension>
        </extensions>
      </trkpt>
      <trkpt lat="42.60350567288696765899658203125" lon="19.88689449615776538848876953125">
        <ele>2186.39990234375</ele>
        <time>2026-06-16T10:15:31.000Z</time>
        <extensions>
          <ns3:TrackPointExtension>
            <ns3:atemp>17.0</ns3:atemp>
          </ns3:TrackPointExtension>
        </extensions>
      </trkpt>
      <trkpt lat="42.60349460877478122711181640625" lon="19.88693791441619396209716796875">
        <ele>2186.199951171875</ele>
        <time>2026-06-16T10:15:32.000Z</time>
        <extensions>
          <ns3:TrackPointExtension>
            <ns3:atemp>17.0</ns3:atemp>
          </ns3:TrackPointExtension>
        </extensions>
      </trkpt>
      <trkpt lat="42.6034698821604251861572265625" lon="19.8869820870459079742431640625">
        <ele>2186</ele>
        <time>2026-06-16T10:15:33.000Z</time>
        <extensions>
          <ns3:TrackPointExtension>
            <ns3:atemp>17.0</ns3:atemp>
          </ns3:TrackPointExtension>
        </extensions>
      </trkpt>
      <trkpt lat="42.60343350470066070556640625" lon="19.88703983835875988006591796875">
        <ele>2185.39990234375</ele>
        <time>2026-06-16T10:15:34.000Z</time>
        <extensions>
          <ns3:TrackPointExtension>
            <ns3:atemp>17.0</ns3:atemp>
          </ns3:TrackPointExtension>
        </extensions>
      </trkpt>
      <trkpt lat="42.6033820398151874542236328125" lon="19.88710303790867328643798828125">
        <ele>2184.60009765625</ele>
        <time>2026-06-16T10:15:35.000Z</time>
        <extensions>
          <ns3:TrackPointExtension>
            <ns3:atemp>17.0</ns3:atemp>
          </ns3:TrackPointExtension>
        </extensions>
      </trkpt>
      <trkpt lat="42.6033206842839717864990234375" lon="19.8871571011841297149658203125">
        <ele>2183.800048828125</ele>
        <time>2026-06-16T10:15:36.000Z</time>
        <extensions>
          <ns3:TrackPointExtension>
            <ns3:atemp>17.0</ns3:atemp>
          </ns3:TrackPointExtension>
        </extensions>
      </trkpt>
      <trkpt lat="42.60326544754207134246826171875" lon="19.88720462657511234283447265625">
        <ele>2183.199951171875</ele>
        <time>2026-06-16T10:15:37.000Z</time>
        <extensions>
          <ns3:TrackPointExtension>
            <ns3:atemp>17.0</ns3:atemp>
          </ns3:TrackPointExtension>
        </extensions>
      </trkpt>
      <trkpt lat="42.603219263255596160888671875" lon="19.88725089468061923980712890625">
        <ele>2182.39990234375</ele>
        <time>2026-06-16T10:15:38.000Z</time>
        <extensions>
          <ns3:TrackPointExtension>
            <ns3:atemp>17.0</ns3:atemp>
          </ns3:TrackPointExtension>
        </extensions>
      </trkpt>
      <trkpt lat="42.6031916029751300811767578125" lon="19.8872814886271953582763671875">
        <ele>2182</ele>
        <time>2026-06-16T10:15:39.000Z</time>
        <extensions>
          <ns3:TrackPointExtension>
            <ns3:atemp>17.0</ns3:atemp>
          </ns3:TrackPointExtension>
        </extensions>
      </trkpt>
      <trkpt lat="42.60318003594875335693359375" lon="19.8873009346425533294677734375">
        <ele>2182</ele>
        <time>2026-06-16T10:15:40.000Z</time>
        <extensions>
          <ns3:TrackPointExtension>
            <ns3:atemp>17.0</ns3:atemp>
          </ns3:TrackPointExtension>
        </extensions>
      </trkpt>
      <trkpt lat="42.603168301284313201904296875" lon="19.8873059637844562530517578125">
        <ele>2182.199951171875</ele>
        <time>2026-06-16T10:15:41.000Z</time>
        <extensions>
          <ns3:TrackPointExtension>
            <ns3:atemp>17.0</ns3:atemp>
          </ns3:TrackPointExtension>
        </extensions>
      </trkpt>
      <trkpt lat="42.6031498610973358154296875" lon="19.8873156867921352386474609375">
        <ele>2182.60009765625</ele>
        <time>2026-06-16T10:15:42.000Z</time>
        <extensions>
          <ns3:TrackPointExtension>
            <ns3:atemp>17.0</ns3:atemp>
          </ns3:TrackPointExtension>
        </extensions>
      </trkpt>
      <trkpt lat="42.6031329296529293060302734375" lon="19.88732884638011455535888671875">
        <ele>2183</ele>
        <time>2026-06-16T10:15:43.000Z</time>
        <extensions>
          <ns3:TrackPointExtension>
            <ns3:atemp>17.0</ns3:atemp>
          </ns3:TrackPointExtension>
        </extensions>
      </trkpt>
      <trkpt lat="42.60311700403690338134765625" lon="19.887344352900981903076171875">
        <ele>2183.199951171875</ele>
        <time>2026-06-16T10:15:44.000Z</time>
        <extensions>
          <ns3:TrackPointExtension>
            <ns3:atemp>17.0</ns3:atemp>
          </ns3:TrackPointExtension>
        </extensions>
      </trkpt>
      <trkpt lat="42.60310350917279720306396484375" lon="19.8873612843453884124755859375">
        <ele>2183.39990234375</ele>
        <time>2026-06-16T10:15:45.000Z</time>
        <extensions>
          <ns3:TrackPointExtension>
            <ns3:atemp>17.0</ns3:atemp>
          </ns3:TrackPointExtension>
        </extensions>
      </trkpt>
      <trkpt lat="42.60309286415576934814453125" lon="19.88738165237009525299072265625">
        <ele>2183.60009765625</ele>
        <time>2026-06-16T10:15:46.000Z</time>
        <extensions>
          <ns3:TrackPointExtension>
            <ns3:atemp>17.0</ns3:atemp>
          </ns3:TrackPointExtension>
        </extensions>
      </trkpt>
      <trkpt lat="42.6030799560248851776123046875" lon="19.88740176893770694732666015625">
        <ele>2183.800048828125</ele>
        <time>2026-06-16T10:15:47.000Z</time>
        <extensions>
          <ns3:TrackPointExtension>
            <ns3:atemp>17.0</ns3:atemp>
          </ns3:TrackPointExtension>
        </extensions>
      </trkpt>
      <trkpt lat="42.60307149030268192291259765625" lon="19.88742440007627010345458984375">
        <ele>2184</ele>
        <time>2026-06-16T10:15:48.000Z</time>
        <extensions>
          <ns3:TrackPointExtension>
            <ns3:atemp>17.0</ns3:atemp>
          </ns3:TrackPointExtension>
        </extensions>
      </trkpt>
      <trkpt lat="42.6030600070953369140625" lon="19.8874447681009769439697265625">
        <ele>2184.199951171875</ele>
        <time>2026-06-16T10:15:49.000Z</time>
        <extensions>
          <ns3:TrackPointExtension>
            <ns3:atemp>17.0</ns3:atemp>
          </ns3:TrackPointExtension>
        </extensions>
      </trkpt>
      <trkpt lat="42.6030501164495944976806640625" lon="19.88746832124888896942138671875">
        <ele>2184.60009765625</ele>
        <time>2026-06-16T10:15:50.000Z</time>
        <extensions>
          <ns3:TrackPointExtension>
            <ns3:atemp>17.0</ns3:atemp>
          </ns3:TrackPointExtension>
        </extensions>
      </trkpt>
      <trkpt lat="42.60303678922355175018310546875" lon="19.88749422132968902587890625">
        <ele>2184.800048828125</ele>
        <time>2026-06-16T10:15:51.000Z</time>
        <extensions>
          <ns3:TrackPointExtension>
            <ns3:atemp>17.0</ns3:atemp>
          </ns3:TrackPointExtension>
        </extensions>
      </trkpt>
      <trkpt lat="42.6030283235013484954833984375" lon="19.8875176906585693359375">
        <ele>2185</ele>
        <time>2026-06-16T10:15:52.000Z</time>
        <extensions>
          <ns3:TrackPointExtension>
            <ns3:atemp>17.0</ns3:atemp>
          </ns3:TrackPointExtension>
        </extensions>
      </trkpt>
      <trkpt lat="42.60302321054041385650634765625" lon="19.88753839395940303802490234375">
        <ele>2185.39990234375</ele>
        <time>2026-06-16T10:15:53.000Z</time>
        <extensions>
          <ns3:TrackPointExtension>
            <ns3:atemp>17.0</ns3:atemp>
          </ns3:TrackPointExtension>
        </extensions>
      </trkpt>
      <trkpt lat="42.60302253998816013336181640625" lon="19.88756169565021991729736328125">
        <ele>2185.60009765625</ele>
        <time>2026-06-16T10:15:54.000Z</time>
        <extensions>
          <ns3:TrackPointExtension>
            <ns3:atemp>17.0</ns3:atemp>
          </ns3:TrackPointExtension>
        </extensions>
      </trkpt>
      <trkpt lat="42.60301298461854457855224609375" lon="19.88757468760013580322265625">
        <ele>2185.800048828125</ele>
        <time>2026-06-16T10:15:55.000Z</time>
        <extensions>
          <ns3:TrackPointExtension>
            <ns3:atemp>17.0</ns3:atemp>
          </ns3:TrackPointExtension>
        </extensions>
      </trkpt>
      <trkpt lat="42.60299957357347011566162109375" lon="19.88759472034871578216552734375">
        <ele>2186.199951171875</ele>
        <time>2026-06-16T10:15:56.000Z</time>
        <extensions>
          <ns3:TrackPointExtension>
            <ns3:atemp>17.0</ns3:atemp>
          </ns3:TrackPointExtension>
        </extensions>
      </trkpt>
      <trkpt lat="42.60299186222255229949951171875" lon="19.88761785440146923065185546875">
        <ele>2186.39990234375</ele>
        <time>2026-06-16T10:15:57.000Z</time>
        <extensions>
          <ns3:TrackPointExtension>
            <ns3:atemp>17.0</ns3:atemp>
          </ns3:TrackPointExtension>
        </extensions>
      </trkpt>
      <trkpt lat="42.602987252175807952880859375" lon="19.88764132373034954071044921875">
        <ele>2186.60009765625</ele>
        <time>2026-06-16T10:15:58.000Z</time>
        <extensions>
          <ns3:TrackPointExtension>
            <ns3:atemp>17.0</ns3:atemp>
          </ns3:TrackPointExtension>
        </extensions>
      </trkpt>
      <trkpt lat="42.602985240519046783447265625" lon="19.88766361959278583526611328125">
        <ele>2186.800048828125</ele>
        <time>2026-06-16T10:15:59.000Z</time>
        <extensions>
          <ns3:TrackPointExtension>
            <ns3:atemp>17.0</ns3:atemp>
          </ns3:TrackPointExtension>
        </extensions>
      </trkpt>
      <trkpt lat="42.60298431850969791412353515625" lon="19.88768289797008037567138671875">
        <ele>2187</ele>
        <time>2026-06-16T10:16:00.000Z</time>
        <extensions>
          <ns3:TrackPointExtension>
            <ns3:atemp>17.0</ns3:atemp>
          </ns3:TrackPointExtension>
        </extensions>
      </trkpt>
      <trkpt lat="42.6029833965003490447998046875" lon="19.887706451117992401123046875">
        <ele>2187.39990234375</ele>
        <time>2026-06-16T10:16:01.000Z</time>
        <extensions>
          <ns3:TrackPointExtension>
            <ns3:atemp>17.0</ns3:atemp>
          </ns3:TrackPointExtension>
        </extensions>
      </trkpt>
      <trkpt lat="42.60298230685293674468994140625" lon="19.88772665150463581085205078125">
        <ele>2187.60009765625</ele>
        <time>2026-06-16T10:16:02.000Z</time>
        <extensions>
          <ns3:TrackPointExtension>
            <ns3:atemp>17.0</ns3:atemp>
          </ns3:TrackPointExtension>
        </extensions>
      </trkpt>
      <trkpt lat="42.6029874198138713836669921875" lon="19.8877438344061374664306640625">
        <ele>2188</ele>
        <time>2026-06-16T10:16:03.000Z</time>
        <extensions>
          <ns3:TrackPointExtension>
            <ns3:atemp>17.0</ns3:atemp>
          </ns3:TrackPointExtension>
        </extensions>
      </trkpt>
      <trkpt lat="42.6029964722692966461181640625" lon="19.8877542279660701751708984375">
        <ele>2188.199951171875</ele>
        <time>2026-06-16T10:16:04.000Z</time>
        <extensions>
          <ns3:TrackPointExtension>
            <ns3:atemp>17.0</ns3:atemp>
          </ns3:TrackPointExtension>
        </extensions>
      </trkpt>
      <trkpt lat="42.60300711728632450103759765625" lon="19.887762106955051422119140625">
        <ele>2188.60009765625</ele>
        <time>2026-06-16T10:16:05.000Z</time>
        <extensions>
          <ns3:TrackPointExtension>
            <ns3:atemp>17.0</ns3:atemp>
          </ns3:TrackPointExtension>
        </extensions>
      </trkpt>
      <trkpt lat="42.6030172593891620635986328125" lon="19.88777409307658672332763671875">
        <ele>2188.800048828125</ele>
        <time>2026-06-16T10:16:06.000Z</time>
        <extensions>
          <ns3:TrackPointExtension>
            <ns3:atemp>17.0</ns3:atemp>
          </ns3:TrackPointExtension>
        </extensions>
      </trkpt>
      <trkpt lat="42.60302706621587276458740234375" lon="19.887785576283931732177734375">
        <ele>2189.199951171875</ele>
        <time>2026-06-16T10:16:07.000Z</time>
        <extensions>
          <ns3:TrackPointExtension>
            <ns3:atemp>17.0</ns3:atemp>
          </ns3:TrackPointExtension>
        </extensions>
      </trkpt>
      <trkpt lat="42.60303913615643978118896484375" lon="19.88779236562550067901611328125">
        <ele>2189.39990234375</ele>
        <time>2026-06-16T10:16:08.000Z</time>
        <extensions>
          <ns3:TrackPointExtension>
            <ns3:atemp>17.0</ns3:atemp>
          </ns3:TrackPointExtension>
        </extensions>
      </trkpt>
      <trkpt lat="42.60305506177246570587158203125" lon="19.88779990933835506439208984375">
        <ele>2189.800048828125</ele>
        <time>2026-06-16T10:16:09.000Z</time>
        <extensions>
          <ns3:TrackPointExtension>
            <ns3:atemp>17.0</ns3:atemp>
          </ns3:TrackPointExtension>
        </extensions>
      </trkpt>
      <trkpt lat="42.603070735931396484375" lon="19.88780879415571689605712890625">
        <ele>2190</ele>
        <time>2026-06-16T10:16:10.000Z</time>
        <extensions>
          <ns3:TrackPointExtension>
            <ns3:atemp>17.0</ns3:atemp>
          </ns3:TrackPointExtension>
        </extensions>
      </trkpt>
      <trkpt lat="42.60309026576578617095947265625" lon="19.88782170228660106658935546875">
        <ele>2190.199951171875</ele>
        <time>2026-06-16T10:16:11.000Z</time>
        <extensions>
          <ns3:TrackPointExtension>
            <ns3:atemp>17.0</ns3:atemp>
          </ns3:TrackPointExtension>
        </extensions>
      </trkpt>
      <trkpt lat="42.6030950434505939483642578125" lon="19.88781466148793697357177734375">
        <ele>2190.39990234375</ele>
        <time>2026-06-16T10:16:12.000Z</time>
        <extensions>
          <ns3:TrackPointExtension>
            <ns3:atemp>17.0</ns3:atemp>
          </ns3:TrackPointExtension>
        </extensions>
      </trkpt>
      <trkpt lat="42.6030950434505939483642578125" lon="19.88781063817441463470458984375">
        <ele>2190.800048828125</ele>
        <time>2026-06-16T10:16:13.000Z</time>
        <extensions>
          <ns3:TrackPointExtension>
            <ns3:atemp>17.0</ns3:atemp>
          </ns3:TrackPointExtension>
        </extensions>
      </trkpt>
      <trkpt lat="42.6030950434505939483642578125" lon="19.88781072199344635009765625">
        <ele>2191.199951171875</ele>
        <time>2026-06-16T10:16:14.000Z</time>
        <extensions>
          <ns3:TrackPointExtension>
            <ns3:atemp>17.0</ns3:atemp>
          </ns3:TrackPointExtension>
        </extensions>
      </trkpt>
      <trkpt lat="42.6030950434505939483642578125" lon="19.88781072199344635009765625">
        <ele>2191.800048828125</ele>
        <time>2026-06-16T10:16:15.000Z</time>
        <extensions>
          <ns3:TrackPointExtension>
            <ns3:atemp>17.0</ns3:atemp>
          </ns3:TrackPointExtension>
        </extensions>
      </trkpt>
      <trkpt lat="42.6030950434505939483642578125" lon="19.88781072199344635009765625">
        <ele>2192.199951171875</ele>
        <time>2026-06-16T10:16:16.000Z</time>
        <extensions>
          <ns3:TrackPointExtension>
            <ns3:atemp>17.0</ns3:atemp>
          </ns3:TrackPointExtension>
        </extensions>
      </trkpt>
      <trkpt lat="42.6030950434505939483642578125" lon="19.88781072199344635009765625">
        <ele>2192.39990234375</ele>
        <time>2026-06-16T10:16:17.000Z</time>
        <extensions>
          <ns3:TrackPointExtension>
            <ns3:atemp>17.0</ns3:atemp>
          </ns3:TrackPointExtension>
        </extensions>
      </trkpt>
      <trkpt lat="42.6030950434505939483642578125" lon="19.88781072199344635009765625">
        <ele>2192.60009765625</ele>
        <time>2026-06-16T10:16:18.000Z</time>
        <extensions>
          <ns3:TrackPointExtension>
            <ns3:atemp>17.0</ns3:atemp>
          </ns3:TrackPointExtension>
        </extensions>
      </trkpt>
      <trkpt lat="42.6030950434505939483642578125" lon="19.88781072199344635009765625">
        <ele>2192.39990234375</ele>
        <time>2026-06-16T10:16:19.000Z</time>
        <extensions>
          <ns3:TrackPointExtension>
            <ns3:atemp>17.0</ns3:atemp>
          </ns3:TrackPointExtension>
        </extensions>
      </trkpt>
      <trkpt lat="42.6030950434505939483642578125" lon="19.88781072199344635009765625">
        <ele>2192.39990234375</ele>
        <time>2026-06-16T10:16:20.000Z</time>
        <extensions>
          <ns3:TrackPointExtension>
            <ns3:atemp>17.0</ns3:atemp>
          </ns3:TrackPointExtension>
        </extensions>
      </trkpt>
      <trkpt lat="42.6030950434505939483642578125" lon="19.88781072199344635009765625">
        <ele>2192.199951171875</ele>
        <time>2026-06-16T10:16:21.000Z</time>
        <extensions>
          <ns3:TrackPointExtension>
            <ns3:atemp>17.0</ns3:atemp>
          </ns3:TrackPointExtension>
        </extensions>
      </trkpt>
      <trkpt lat="42.6030950434505939483642578125" lon="19.88781072199344635009765625">
        <ele>2192.199951171875</ele>
        <time>2026-06-16T10:16:22.000Z</time>
        <extensions>
          <ns3:TrackPointExtension>
            <ns3:atemp>17.0</ns3:atemp>
          </ns3:TrackPointExtension>
        </extensions>
      </trkpt>
      <trkpt lat="42.6030950434505939483642578125" lon="19.88781072199344635009765625">
        <ele>2192.199951171875</ele>
        <time>2026-06-16T10:16:23.000Z</time>
        <extensions>
          <ns3:TrackPointExtension>
            <ns3:atemp>17.0</ns3:atemp>
          </ns3:TrackPointExtension>
        </extensions>
      </trkpt>
      <trkpt lat="42.6030950434505939483642578125" lon="19.88781072199344635009765625">
        <ele>2192.199951171875</ele>
        <time>2026-06-16T10:16:24.000Z</time>
        <extensions>
          <ns3:TrackPointExtension>
            <ns3:atemp>17.0</ns3:atemp>
          </ns3:TrackPointExtension>
        </extensions>
      </trkpt>
      <trkpt lat="42.6030950434505939483642578125" lon="19.88781072199344635009765625">
        <ele>2192.199951171875</ele>
        <time>2026-06-16T10:16:25.000Z</time>
        <extensions>
          <ns3:TrackPointExtension>
            <ns3:atemp>17.0</ns3:atemp>
          </ns3:TrackPointExtension>
        </extensions>
      </trkpt>
      <trkpt lat="42.6030950434505939483642578125" lon="19.88781072199344635009765625">
        <ele>2192.199951171875</ele>
        <time>2026-06-16T10:16:26.000Z</time>
        <extensions>
          <ns3:TrackPointExtension>
            <ns3:atemp>17.0</ns3:atemp>
          </ns3:TrackPointExtension>
        </extensions>
      </trkpt>
      <trkpt lat="42.6030950434505939483642578125" lon="19.88781072199344635009765625">
        <ele>2192.199951171875</ele>
        <time>2026-06-16T10:16:27.000Z</time>
        <extensions>
          <ns3:TrackPointExtension>
            <ns3:atemp>17.0</ns3:atemp>
          </ns3:TrackPointExtension>
        </extensions>
      </trkpt>
      <trkpt lat="42.6030950434505939483642578125" lon="19.88781072199344635009765625">
        <ele>2192.199951171875</ele>
        <time>2026-06-16T10:16:28.000Z</time>
        <extensions>
          <ns3:TrackPointExtension>
            <ns3:atemp>17.0</ns3:atemp>
          </ns3:TrackPointExtension>
        </extensions>
      </trkpt>
      <trkpt lat="42.6030950434505939483642578125" lon="19.88781072199344635009765625">
        <ele>2192.199951171875</ele>
        <time>2026-06-16T10:16:29.000Z</time>
        <extensions>
          <ns3:TrackPointExtension>
            <ns3:atemp>17.0</ns3:atemp>
          </ns3:TrackPointExtension>
        </extensions>
      </trkpt>
      <trkpt lat="42.6030950434505939483642578125" lon="19.88781072199344635009765625">
        <ele>2192.39990234375</ele>
        <time>2026-06-16T10:16:30.000Z</time>
        <extensions>
          <ns3:TrackPointExtension>
            <ns3:atemp>17.0</ns3:atemp>
          </ns3:TrackPointExtension>
        </extensions>
      </trkpt>
      <trkpt lat="42.6030950434505939483642578125" lon="19.88781072199344635009765625">
        <ele>2192.39990234375</ele>
        <time>2026-06-16T10:16:31.000Z</time>
        <extensions>
          <ns3:TrackPointExtension>
            <ns3:atemp>17.0</ns3:atemp>
          </ns3:TrackPointExtension>
        </extensions>
      </trkpt>
      <trkpt lat="42.6030950434505939483642578125" lon="19.88781072199344635009765625">
        <ele>2192.39990234375</ele>
        <time>2026-06-16T10:16:32.000Z</time>
        <extensions>
          <ns3:TrackPointExtension>
            <ns3:atemp>17.0</ns3:atemp>
          </ns3:TrackPointExtension>
        </extensions>
      </trkpt>
      <trkpt lat="42.6030950434505939483642578125" lon="19.88781072199344635009765625">
        <ele>2192.60009765625</ele>
        <time>2026-06-16T10:16:33.000Z</time>
        <extensions>
          <ns3:TrackPointExtension>
            <ns3:atemp>17.0</ns3:atemp>
          </ns3:TrackPointExtension>
        </extensions>
      </trkpt>
      <trkpt lat="42.6030950434505939483642578125" lon="19.88781072199344635009765625">
        <ele>2192.60009765625</ele>
        <time>2026-06-16T10:16:34.000Z</time>
        <extensions>
          <ns3:TrackPointExtension>
            <ns3:atemp>17.0</ns3:atemp>
          </ns3:TrackPointExtension>
        </extensions>
      </trkpt>
      <trkpt lat="42.6030950434505939483642578125" lon="19.88781072199344635009765625">
        <ele>2192.60009765625</ele>
        <time>2026-06-16T10:16:35.000Z</time>
        <extensions>
          <ns3:TrackPointExtension>
            <ns3:atemp>17.0</ns3:atemp>
          </ns3:TrackPointExtension>
        </extensions>
      </trkpt>
      <trkpt lat="42.6030950434505939483642578125" lon="19.88781072199344635009765625">
        <ele>2192.39990234375</ele>
        <time>2026-06-16T10:16:36.000Z</time>
        <extensions>
          <ns3:TrackPointExtension>
            <ns3:atemp>17.0</ns3:atemp>
          </ns3:TrackPointExtension>
        </extensions>
      </trkpt>
      <trkpt lat="42.6030950434505939483642578125" lon="19.88781072199344635009765625">
        <ele>2192.39990234375</ele>
        <time>2026-06-16T10:16:37.000Z</time>
        <extensions>
          <ns3:TrackPointExtension>
            <ns3:atemp>17.0</ns3:atemp>
          </ns3:TrackPointExtension>
        </extensions>
      </trkpt>
      <trkpt lat="42.6030950434505939483642578125" lon="19.88781072199344635009765625">
        <ele>2192.39990234375</ele>
        <time>2026-06-16T10:16:38.000Z</time>
        <extensions>
          <ns3:TrackPointExtension>
            <ns3:atemp>17.0</ns3:atemp>
          </ns3:TrackPointExtension>
        </extensions>
      </trkpt>
      <trkpt lat="42.6030950434505939483642578125" lon="19.88781072199344635009765625">
        <ele>2192.39990234375</ele>
        <time>2026-06-16T10:16:39.000Z</time>
        <extensions>
          <ns3:TrackPointExtension>
            <ns3:atemp>17.0</ns3:atemp>
          </ns3:TrackPointExtension>
        </extensions>
      </trkpt>
      <trkpt lat="42.6030950434505939483642578125" lon="19.88781072199344635009765625">
        <ele>2192.39990234375</ele>
        <time>2026-06-16T10:16:40.000Z</time>
        <extensions>
          <ns3:TrackPointExtension>
            <ns3:atemp>17.0</ns3:atemp>
          </ns3:TrackPointExtension>
        </extensions>
      </trkpt>
      <trkpt lat="42.6030950434505939483642578125" lon="19.88781072199344635009765625">
        <ele>2192.39990234375</ele>
        <time>2026-06-16T10:16:41.000Z</time>
        <extensions>
          <ns3:TrackPointExtension>
            <ns3:atemp>17.0</ns3:atemp>
          </ns3:TrackPointExtension>
        </extensions>
      </trkpt>
      <trkpt lat="42.6030950434505939483642578125" lon="19.88781072199344635009765625">
        <ele>2192.39990234375</ele>
        <time>2026-06-16T10:16:42.000Z</time>
        <extensions>
          <ns3:TrackPointExtension>
            <ns3:atemp>17.0</ns3:atemp>
          </ns3:TrackPointExtension>
        </extensions>
      </trkpt>
      <trkpt lat="42.6030950434505939483642578125" lon="19.88781072199344635009765625">
        <ele>2192.39990234375</ele>
        <time>2026-06-16T10:16:43.000Z</time>
        <extensions>
          <ns3:TrackPointExtension>
            <ns3:atemp>17.0</ns3:atemp>
          </ns3:TrackPointExtension>
        </extensions>
      </trkpt>
      <trkpt lat="42.6030950434505939483642578125" lon="19.88781072199344635009765625">
        <ele>2192.60009765625</ele>
        <time>2026-06-16T10:16:44.000Z</time>
        <extensions>
          <ns3:TrackPointExtension>
            <ns3:atemp>17.0</ns3:atemp>
          </ns3:TrackPointExtension>
        </extensions>
      </trkpt>
      <trkpt lat="42.6030950434505939483642578125" lon="19.88781072199344635009765625">
        <ele>2192.60009765625</ele>
        <time>2026-06-16T10:16:45.000Z</time>
        <extensions>
          <ns3:TrackPointExtension>
            <ns3:atemp>17.0</ns3:atemp>
          </ns3:TrackPointExtension>
        </extensions>
      </trkpt>
      <trkpt lat="42.6030950434505939483642578125" lon="19.88781072199344635009765625">
        <ele>2192.60009765625</ele>
        <time>2026-06-16T10:16:46.000Z</time>
        <extensions>
          <ns3:TrackPointExtension>
            <ns3:atemp>17.0</ns3:atemp>
          </ns3:TrackPointExtension>
        </extensions>
      </trkpt>
      <trkpt lat="42.6030950434505939483642578125" lon="19.88781072199344635009765625">
        <ele>2192.60009765625</ele>
        <time>2026-06-16T10:16:47.000Z</time>
        <extensions>
          <ns3:TrackPointExtension>
            <ns3:atemp>17.0</ns3:atemp>
          </ns3:TrackPointExtension>
        </extensions>
      </trkpt>
      <trkpt lat="42.6030950434505939483642578125" lon="19.88781072199344635009765625">
        <ele>2192.60009765625</ele>
        <time>2026-06-16T10:16:48.000Z</time>
        <extensions>
          <ns3:TrackPointExtension>
            <ns3:atemp>17.0</ns3:atemp>
          </ns3:TrackPointExtension>
        </extensions>
      </trkpt>
      <trkpt lat="42.6030950434505939483642578125" lon="19.88781072199344635009765625">
        <ele>2192.39990234375</ele>
        <time>2026-06-16T10:16:49.000Z</time>
        <extensions>
          <ns3:TrackPointExtension>
            <ns3:atemp>17.0</ns3:atemp>
          </ns3:TrackPointExtension>
        </extensions>
      </trkpt>
      <trkpt lat="42.6030950434505939483642578125" lon="19.88781072199344635009765625">
        <ele>2192.39990234375</ele>
        <time>2026-06-16T10:16:50.000Z</time>
        <extensions>
          <ns3:TrackPointExtension>
            <ns3:atemp>17.0</ns3:atemp>
          </ns3:TrackPointExtension>
        </extensions>
      </trkpt>
      <trkpt lat="42.6030950434505939483642578125" lon="19.88781072199344635009765625">
        <ele>2192.39990234375</ele>
        <time>2026-06-16T10:16:51.000Z</time>
        <extensions>
          <ns3:TrackPointExtension>
            <ns3:atemp>17.0</ns3:atemp>
          </ns3:TrackPointExtension>
        </extensions>
      </trkpt>
      <trkpt lat="42.6030950434505939483642578125" lon="19.88781072199344635009765625">
        <ele>2192.39990234375</ele>
        <time>2026-06-16T10:16:52.000Z</time>
        <extensions>
          <ns3:TrackPointExtension>
            <ns3:atemp>17.0</ns3:atemp>
          </ns3:TrackPointExtension>
        </extensions>
      </trkpt>
      <trkpt lat="42.6030950434505939483642578125" lon="19.88781072199344635009765625">
        <ele>2192.39990234375</ele>
        <time>2026-06-16T10:16:53.000Z</time>
        <extensions>
          <ns3:TrackPointExtension>
            <ns3:atemp>17.0</ns3:atemp>
          </ns3:TrackPointExtension>
        </extensions>
      </trkpt>
      <trkpt lat="42.6030950434505939483642578125" lon="19.88781072199344635009765625">
        <ele>2192.39990234375</ele>
        <time>2026-06-16T10:16:54.000Z</time>
        <extensions>
          <ns3:TrackPointExtension>
            <ns3:atemp>17.0</ns3:atemp>
          </ns3:TrackPointExtension>
        </extensions>
      </trkpt>
      <trkpt lat="42.6030950434505939483642578125" lon="19.88781072199344635009765625">
        <ele>2192.39990234375</ele>
        <time>2026-06-16T10:16:55.000Z</time>
        <extensions>
          <ns3:TrackPointExtension>
            <ns3:atemp>17.0</ns3:atemp>
          </ns3:TrackPointExtension>
        </extensions>
      </trkpt>
      <trkpt lat="42.6030950434505939483642578125" lon="19.88781072199344635009765625">
        <ele>2192.39990234375</ele>
        <time>2026-06-16T10:16:56.000Z</time>
        <extensions>
          <ns3:TrackPointExtension>
            <ns3:atemp>17.0</ns3:atemp>
          </ns3:TrackPointExtension>
        </extensions>
      </trkpt>
      <trkpt lat="42.6030950434505939483642578125" lon="19.88781072199344635009765625">
        <ele>2192.39990234375</ele>
        <time>2026-06-16T10:16:57.000Z</time>
        <extensions>
          <ns3:TrackPointExtension>
            <ns3:atemp>17.0</ns3:atemp>
          </ns3:TrackPointExtension>
        </extensions>
      </trkpt>
      <trkpt lat="42.6030950434505939483642578125" lon="19.88781072199344635009765625">
        <ele>2192.39990234375</ele>
        <time>2026-06-16T10:16:58.000Z</time>
        <extensions>
          <ns3:TrackPointExtension>
            <ns3:atemp>17.0</ns3:atemp>
          </ns3:TrackPointExtension>
        </extensions>
      </trkpt>
      <trkpt lat="42.6030950434505939483642578125" lon="19.88781072199344635009765625">
        <ele>2192.39990234375</ele>
        <time>2026-06-16T10:16:59.000Z</time>
        <extensions>
          <ns3:TrackPointExtension>
            <ns3:atemp>17.0</ns3:atemp>
          </ns3:TrackPointExtension>
        </extensions>
      </trkpt>
      <trkpt lat="42.6030950434505939483642578125" lon="19.88781072199344635009765625">
        <ele>2192.39990234375</ele>
        <time>2026-06-16T10:17:00.000Z</time>
        <extensions>
          <ns3:TrackPointExtension>
            <ns3:atemp>17.0</ns3:atemp>
          </ns3:TrackPointExtension>
        </extensions>
      </trkpt>
      <trkpt lat="42.6030950434505939483642578125" lon="19.88781072199344635009765625">
        <ele>2192.199951171875</ele>
        <time>2026-06-16T10:17:01.000Z</time>
        <extensions>
          <ns3:TrackPointExtension>
            <ns3:atemp>17.0</ns3:atemp>
          </ns3:TrackPointExtension>
        </extensions>
      </trkpt>
      <trkpt lat="42.6030950434505939483642578125" lon="19.88781072199344635009765625">
        <ele>2192.199951171875</ele>
        <time>2026-06-16T10:17:02.000Z</time>
        <extensions>
          <ns3:TrackPointExtension>
            <ns3:atemp>17.0</ns3:atemp>
          </ns3:TrackPointExtension>
        </extensions>
      </trkpt>
      <trkpt lat="42.6030950434505939483642578125" lon="19.88781072199344635009765625">
        <ele>2192.199951171875</ele>
        <time>2026-06-16T10:17:03.000Z</time>
        <extensions>
          <ns3:TrackPointExtension>
            <ns3:atemp>17.0</ns3:atemp>
          </ns3:TrackPointExtension>
        </extensions>
      </trkpt>
      <trkpt lat="42.6030950434505939483642578125" lon="19.88781072199344635009765625">
        <ele>2192.199951171875</ele>
        <time>2026-06-16T10:17:04.000Z</time>
        <extensions>
          <ns3:TrackPointExtension>
            <ns3:atemp>17.0</ns3:atemp>
          </ns3:TrackPointExtension>
        </extensions>
      </trkpt>
      <trkpt lat="42.6030950434505939483642578125" lon="19.88781072199344635009765625">
        <ele>2192.39990234375</ele>
        <time>2026-06-16T10:17:05.000Z</time>
        <extensions>
          <ns3:TrackPointExtension>
            <ns3:atemp>17.0</ns3:atemp>
          </ns3:TrackPointExtension>
        </extensions>
      </trkpt>
      <trkpt lat="42.6030950434505939483642578125" lon="19.88781072199344635009765625">
        <ele>2192.39990234375</ele>
        <time>2026-06-16T10:17:06.000Z</time>
        <extensions>
          <ns3:TrackPointExtension>
            <ns3:atemp>17.0</ns3:atemp>
          </ns3:TrackPointExtension>
        </extensions>
      </trkpt>
      <trkpt lat="42.6030950434505939483642578125" lon="19.88781072199344635009765625">
        <ele>2192.39990234375</ele>
        <time>2026-06-16T10:17:07.000Z</time>
        <extensions>
          <ns3:TrackPointExtension>
            <ns3:atemp>18.0</ns3:atemp>
          </ns3:TrackPointExtension>
        </extensions>
      </trkpt>
      <trkpt lat="42.6030950434505939483642578125" lon="19.88781072199344635009765625">
        <ele>2192.39990234375</ele>
        <time>2026-06-16T10:17:08.000Z</time>
        <extensions>
          <ns3:TrackPointExtension>
            <ns3:atemp>18.0</ns3:atemp>
          </ns3:TrackPointExtension>
        </extensions>
      </trkpt>
      <trkpt lat="42.6030950434505939483642578125" lon="19.88781072199344635009765625">
        <ele>2192.39990234375</ele>
        <time>2026-06-16T10:17:09.000Z</time>
        <extensions>
          <ns3:TrackPointExtension>
            <ns3:atemp>18.0</ns3:atemp>
          </ns3:TrackPointExtension>
        </extensions>
      </trkpt>
      <trkpt lat="42.6030950434505939483642578125" lon="19.88781072199344635009765625">
        <ele>2192.39990234375</ele>
        <time>2026-06-16T10:17:10.000Z</time>
        <extensions>
          <ns3:TrackPointExtension>
            <ns3:atemp>18.0</ns3:atemp>
          </ns3:TrackPointExtension>
        </extensions>
      </trkpt>
      <trkpt lat="42.6030950434505939483642578125" lon="19.88781072199344635009765625">
        <ele>2192.39990234375</ele>
        <time>2026-06-16T10:17:11.000Z</time>
        <extensions>
          <ns3:TrackPointExtension>
            <ns3:atemp>18.0</ns3:atemp>
          </ns3:TrackPointExtension>
        </extensions>
      </trkpt>
      <trkpt lat="42.6030950434505939483642578125" lon="19.88781072199344635009765625">
        <ele>2192.39990234375</ele>
        <time>2026-06-16T10:17:12.000Z</time>
        <extensions>
          <ns3:TrackPointExtension>
            <ns3:atemp>18.0</ns3:atemp>
          </ns3:TrackPointExtension>
        </extensions>
      </trkpt>
      <trkpt lat="42.6030950434505939483642578125" lon="19.88781072199344635009765625">
        <ele>2192.39990234375</ele>
        <time>2026-06-16T10:17:13.000Z</time>
        <extensions>
          <ns3:TrackPointExtension>
            <ns3:atemp>18.0</ns3:atemp>
          </ns3:TrackPointExtension>
        </extensions>
      </trkpt>
      <trkpt lat="42.6030950434505939483642578125" lon="19.88781072199344635009765625">
        <ele>2192.39990234375</ele>
        <time>2026-06-16T10:17:14.000Z</time>
        <extensions>
          <ns3:TrackPointExtension>
            <ns3:atemp>18.0</ns3:atemp>
          </ns3:TrackPointExtension>
        </extensions>
      </trkpt>
      <trkpt lat="42.6030950434505939483642578125" lon="19.88781072199344635009765625">
        <ele>2192.39990234375</ele>
        <time>2026-06-16T10:17:15.000Z</time>
        <extensions>
          <ns3:TrackPointExtension>
            <ns3:atemp>18.0</ns3:atemp>
          </ns3:TrackPointExtension>
        </extensions>
      </trkpt>
      <trkpt lat="42.6030950434505939483642578125" lon="19.88781072199344635009765625">
        <ele>2192.39990234375</ele>
        <time>2026-06-16T10:17:16.000Z</time>
        <extensions>
          <ns3:TrackPointExtension>
            <ns3:atemp>18.0</ns3:atemp>
          </ns3:TrackPointExtension>
        </extensions>
      </trkpt>
      <trkpt lat="42.6030950434505939483642578125" lon="19.88781072199344635009765625">
        <ele>2192.39990234375</ele>
        <time>2026-06-16T10:17:17.000Z</time>
        <extensions>
          <ns3:TrackPointExtension>
            <ns3:atemp>18.0</ns3:atemp>
          </ns3:TrackPointExtension>
        </extensions>
      </trkpt>
      <trkpt lat="42.6030950434505939483642578125" lon="19.88781072199344635009765625">
        <ele>2192.39990234375</ele>
        <time>2026-06-16T10:17:18.000Z</time>
        <extensions>
          <ns3:TrackPointExtension>
            <ns3:atemp>18.0</ns3:atemp>
          </ns3:TrackPointExtension>
        </extensions>
      </trkpt>
      <trkpt lat="42.6030950434505939483642578125" lon="19.88781072199344635009765625">
        <ele>2192.39990234375</ele>
        <time>2026-06-16T10:17:19.000Z</time>
        <extensions>
          <ns3:TrackPointExtension>
            <ns3:atemp>18.0</ns3:atemp>
          </ns3:TrackPointExtension>
        </extensions>
      </trkpt>
      <trkpt lat="42.6030950434505939483642578125" lon="19.88781072199344635009765625">
        <ele>2192.39990234375</ele>
        <time>2026-06-16T10:17:20.000Z</time>
        <extensions>
          <ns3:TrackPointExtension>
            <ns3:atemp>18.0</ns3:atemp>
          </ns3:TrackPointExtension>
        </extensions>
      </trkpt>
      <trkpt lat="42.6030950434505939483642578125" lon="19.88781072199344635009765625">
        <ele>2192.39990234375</ele>
        <time>2026-06-16T10:17:21.000Z</time>
        <extensions>
          <ns3:TrackPointExtension>
            <ns3:atemp>18.0</ns3:atemp>
          </ns3:TrackPointExtension>
        </extensions>
      </trkpt>
      <trkpt lat="42.6030950434505939483642578125" lon="19.88781072199344635009765625">
        <ele>2192.39990234375</ele>
        <time>2026-06-16T10:17:22.000Z</time>
        <extensions>
          <ns3:TrackPointExtension>
            <ns3:atemp>18.0</ns3:atemp>
          </ns3:TrackPointExtension>
        </extensions>
      </trkpt>
      <trkpt lat="42.6030950434505939483642578125" lon="19.88781072199344635009765625">
        <ele>2192.39990234375</ele>
        <time>2026-06-16T10:17:23.000Z</time>
        <extensions>
          <ns3:TrackPointExtension>
            <ns3:atemp>18.0</ns3:atemp>
          </ns3:TrackPointExtension>
        </extensions>
      </trkpt>
      <trkpt lat="42.6030950434505939483642578125" lon="19.88781072199344635009765625">
        <ele>2192.39990234375</ele>
        <time>2026-06-16T10:17:24.000Z</time>
        <extensions>
          <ns3:TrackPointExtension>
            <ns3:atemp>18.0</ns3:atemp>
          </ns3:TrackPointExtension>
        </extensions>
      </trkpt>
      <trkpt lat="42.6030950434505939483642578125" lon="19.88781072199344635009765625">
        <ele>2192.39990234375</ele>
        <time>2026-06-16T10:17:25.000Z</time>
        <extensions>
          <ns3:TrackPointExtension>
            <ns3:atemp>18.0</ns3:atemp>
          </ns3:TrackPointExtension>
        </extensions>
      </trkpt>
      <trkpt lat="42.6030950434505939483642578125" lon="19.88781072199344635009765625">
        <ele>2192.39990234375</ele>
        <time>2026-06-16T10:17:26.000Z</time>
        <extensions>
          <ns3:TrackPointExtension>
            <ns3:atemp>18.0</ns3:atemp>
          </ns3:TrackPointExtension>
        </extensions>
      </trkpt>
      <trkpt lat="42.6030950434505939483642578125" lon="19.88781072199344635009765625">
        <ele>2192.39990234375</ele>
        <time>2026-06-16T10:17:27.000Z</time>
        <extensions>
          <ns3:TrackPointExtension>
            <ns3:atemp>18.0</ns3:atemp>
          </ns3:TrackPointExtension>
        </extensions>
      </trkpt>
      <trkpt lat="42.6030950434505939483642578125" lon="19.88781072199344635009765625">
        <ele>2192.39990234375</ele>
        <time>2026-06-16T10:17:28.000Z</time>
        <extensions>
          <ns3:TrackPointExtension>
            <ns3:atemp>18.0</ns3:atemp>
          </ns3:TrackPointExtension>
        </extensions>
      </trkpt>
      <trkpt lat="42.6030950434505939483642578125" lon="19.88781072199344635009765625">
        <ele>2192.39990234375</ele>
        <time>2026-06-16T10:17:29.000Z</time>
        <extensions>
          <ns3:TrackPointExtension>
            <ns3:atemp>18.0</ns3:atemp>
          </ns3:TrackPointExtension>
        </extensions>
      </trkpt>
      <trkpt lat="42.6030950434505939483642578125" lon="19.88781072199344635009765625">
        <ele>2192.39990234375</ele>
        <time>2026-06-16T10:17:30.000Z</time>
        <extensions>
          <ns3:TrackPointExtension>
            <ns3:atemp>18.0</ns3:atemp>
          </ns3:TrackPointExtension>
        </extensions>
      </trkpt>
      <trkpt lat="42.6030950434505939483642578125" lon="19.88781072199344635009765625">
        <ele>2192.39990234375</ele>
        <time>2026-06-16T10:17:31.000Z</time>
        <extensions>
          <ns3:TrackPointExtension>
            <ns3:atemp>18.0</ns3:atemp>
          </ns3:TrackPointExtension>
        </extensions>
      </trkpt>
      <trkpt lat="42.6030950434505939483642578125" lon="19.88781072199344635009765625">
        <ele>2192.39990234375</ele>
        <time>2026-06-16T10:17:32.000Z</time>
        <extensions>
          <ns3:TrackPointExtension>
            <ns3:atemp>18.0</ns3:atemp>
          </ns3:TrackPointExtension>
        </extensions>
      </trkpt>
      <trkpt lat="42.6030950434505939483642578125" lon="19.88781072199344635009765625">
        <ele>2192.39990234375</ele>
        <time>2026-06-16T10:17:33.000Z</time>
        <extensions>
          <ns3:TrackPointExtension>
            <ns3:atemp>18.0</ns3:atemp>
          </ns3:TrackPointExtension>
        </extensions>
      </trkpt>
      <trkpt lat="42.6030950434505939483642578125" lon="19.88781072199344635009765625">
        <ele>2192.39990234375</ele>
        <time>2026-06-16T10:17:34.000Z</time>
        <extensions>
          <ns3:TrackPointExtension>
            <ns3:atemp>18.0</ns3:atemp>
          </ns3:TrackPointExtension>
        </extensions>
      </trkpt>
      <trkpt lat="42.6030950434505939483642578125" lon="19.88781072199344635009765625">
        <ele>2192.39990234375</ele>
        <time>2026-06-16T10:17:35.000Z</time>
        <extensions>
          <ns3:TrackPointExtension>
            <ns3:atemp>18.0</ns3:atemp>
          </ns3:TrackPointExtension>
        </extensions>
      </trkpt>
      <trkpt lat="42.6030950434505939483642578125" lon="19.88781072199344635009765625">
        <ele>2192.39990234375</ele>
        <time>2026-06-16T10:17:36.000Z</time>
        <extensions>
          <ns3:TrackPointExtension>
            <ns3:atemp>18.0</ns3:atemp>
          </ns3:TrackPointExtension>
        </extensions>
      </trkpt>
      <trkpt lat="42.6030950434505939483642578125" lon="19.88781072199344635009765625">
        <ele>2192.39990234375</ele>
        <time>2026-06-16T10:17:37.000Z</time>
        <extensions>
          <ns3:TrackPointExtension>
            <ns3:atemp>18.0</ns3:atemp>
          </ns3:TrackPointExtension>
        </extensions>
      </trkpt>
      <trkpt lat="42.6030950434505939483642578125" lon="19.88781072199344635009765625">
        <ele>2192.39990234375</ele>
        <time>2026-06-16T10:17:38.000Z</time>
        <extensions>
          <ns3:TrackPointExtension>
            <ns3:atemp>18.0</ns3:atemp>
          </ns3:TrackPointExtension>
        </extensions>
      </trkpt>
      <trkpt lat="42.6030950434505939483642578125" lon="19.88781072199344635009765625">
        <ele>2192.39990234375</ele>
        <time>2026-06-16T10:17:39.000Z</time>
        <extensions>
          <ns3:TrackPointExtension>
            <ns3:atemp>18.0</ns3:atemp>
          </ns3:TrackPointExtension>
        </extensions>
      </trkpt>
      <trkpt lat="42.6030950434505939483642578125" lon="19.88781072199344635009765625">
        <ele>2192.39990234375</ele>
        <time>2026-06-16T10:17:40.000Z</time>
        <extensions>
          <ns3:TrackPointExtension>
            <ns3:atemp>18.0</ns3:atemp>
          </ns3:TrackPointExtension>
        </extensions>
      </trkpt>
      <trkpt lat="42.6030950434505939483642578125" lon="19.88781072199344635009765625">
        <ele>2192.39990234375</ele>
        <time>2026-06-16T10:17:41.000Z</time>
        <extensions>
          <ns3:TrackPointExtension>
            <ns3:atemp>18.0</ns3:atemp>
          </ns3:TrackPointExtension>
        </extensions>
      </trkpt>
      <trkpt lat="42.6030950434505939483642578125" lon="19.88781072199344635009765625">
        <ele>2192.39990234375</ele>
        <time>2026-06-16T10:17:42.000Z</time>
        <extensions>
          <ns3:TrackPointExtension>
            <ns3:atemp>18.0</ns3:atemp>
          </ns3:TrackPointExtension>
        </extensions>
      </trkpt>
      <trkpt lat="42.6030950434505939483642578125" lon="19.88781072199344635009765625">
        <ele>2192.39990234375</ele>
        <time>2026-06-16T10:17:43.000Z</time>
        <extensions>
          <ns3:TrackPointExtension>
            <ns3:atemp>18.0</ns3:atemp>
          </ns3:TrackPointExtension>
        </extensions>
      </trkpt>
      <trkpt lat="42.6030950434505939483642578125" lon="19.88781072199344635009765625">
        <ele>2192.39990234375</ele>
        <time>2026-06-16T10:17:44.000Z</time>
        <extensions>
          <ns3:TrackPointExtension>
            <ns3:atemp>18.0</ns3:atemp>
          </ns3:TrackPointExtension>
        </extensions>
      </trkpt>
      <trkpt lat="42.6030950434505939483642578125" lon="19.88781072199344635009765625">
        <ele>2192.39990234375</ele>
        <time>2026-06-16T10:17:45.000Z</time>
        <extensions>
          <ns3:TrackPointExtension>
            <ns3:atemp>18.0</ns3:atemp>
          </ns3:TrackPointExtension>
        </extensions>
      </trkpt>
      <trkpt lat="42.6030950434505939483642578125" lon="19.88781072199344635009765625">
        <ele>2192.39990234375</ele>
        <time>2026-06-16T10:17:46.000Z</time>
        <extensions>
          <ns3:TrackPointExtension>
            <ns3:atemp>18.0</ns3:atemp>
          </ns3:TrackPointExtension>
        </extensions>
      </trkpt>
      <trkpt lat="42.6030950434505939483642578125" lon="19.88781072199344635009765625">
        <ele>2192.39990234375</ele>
        <time>2026-06-16T10:17:47.000Z</time>
        <extensions>
          <ns3:TrackPointExtension>
            <ns3:atemp>18.0</ns3:atemp>
          </ns3:TrackPointExtension>
        </extensions>
      </trkpt>
      <trkpt lat="42.6030950434505939483642578125" lon="19.88781072199344635009765625">
        <ele>2192.39990234375</ele>
        <time>2026-06-16T10:17:48.000Z</time>
        <extensions>
          <ns3:TrackPointExtension>
            <ns3:atemp>18.0</ns3:atemp>
          </ns3:TrackPointExtension>
        </extensions>
      </trkpt>
      <trkpt lat="42.6030950434505939483642578125" lon="19.88781072199344635009765625">
        <ele>2192.39990234375</ele>
        <time>2026-06-16T10:17:49.000Z</time>
        <extensions>
          <ns3:TrackPointExtension>
            <ns3:atemp>18.0</ns3:atemp>
          </ns3:TrackPointExtension>
        </extensions>
      </trkpt>
      <trkpt lat="42.6030950434505939483642578125" lon="19.88781072199344635009765625">
        <ele>2192.39990234375</ele>
        <time>2026-06-16T10:17:50.000Z</time>
        <extensions>
          <ns3:TrackPointExtension>
            <ns3:atemp>18.0</ns3:atemp>
          </ns3:TrackPointExtension>
        </extensions>
      </trkpt>
      <trkpt lat="42.6030950434505939483642578125" lon="19.88781072199344635009765625">
        <ele>2192.39990234375</ele>
        <time>2026-06-16T10:17:51.000Z</time>
        <extensions>
          <ns3:TrackPointExtension>
            <ns3:atemp>18.0</ns3:atemp>
          </ns3:TrackPointExtension>
        </extensions>
      </trkpt>
      <trkpt lat="42.6030950434505939483642578125" lon="19.88781072199344635009765625">
        <ele>2192.39990234375</ele>
        <time>2026-06-16T10:17:52.000Z</time>
        <extensions>
          <ns3:TrackPointExtension>
            <ns3:atemp>18.0</ns3:atemp>
          </ns3:TrackPointExtension>
        </extensions>
      </trkpt>
      <trkpt lat="42.6030950434505939483642578125" lon="19.88781072199344635009765625">
        <ele>2192.39990234375</ele>
        <time>2026-06-16T10:17:53.000Z</time>
        <extensions>
          <ns3:TrackPointExtension>
            <ns3:atemp>18.0</ns3:atemp>
          </ns3:TrackPointExtension>
        </extensions>
      </trkpt>
      <trkpt lat="42.6030950434505939483642578125" lon="19.88781072199344635009765625">
        <ele>2192.39990234375</ele>
        <time>2026-06-16T10:17:54.000Z</time>
        <extensions>
          <ns3:TrackPointExtension>
            <ns3:atemp>18.0</ns3:atemp>
          </ns3:TrackPointExtension>
        </extensions>
      </trkpt>
      <trkpt lat="42.6030950434505939483642578125" lon="19.88781072199344635009765625">
        <ele>2192.39990234375</ele>
        <time>2026-06-16T10:17:55.000Z</time>
        <extensions>
          <ns3:TrackPointExtension>
            <ns3:atemp>18.0</ns3:atemp>
          </ns3:TrackPointExtension>
        </extensions>
      </trkpt>
      <trkpt lat="42.6030950434505939483642578125" lon="19.88781072199344635009765625">
        <ele>2192.39990234375</ele>
        <time>2026-06-16T10:17:56.000Z</time>
        <extensions>
          <ns3:TrackPointExtension>
            <ns3:atemp>18.0</ns3:atemp>
          </ns3:TrackPointExtension>
        </extensions>
      </trkpt>
      <trkpt lat="42.6030950434505939483642578125" lon="19.88781072199344635009765625">
        <ele>2192.39990234375</ele>
        <time>2026-06-16T10:17:57.000Z</time>
        <extensions>
          <ns3:TrackPointExtension>
            <ns3:atemp>18.0</ns3:atemp>
          </ns3:TrackPointExtension>
        </extensions>
      </trkpt>
      <trkpt lat="42.6030950434505939483642578125" lon="19.88781072199344635009765625">
        <ele>2192.39990234375</ele>
        <time>2026-06-16T10:17:58.000Z</time>
        <extensions>
          <ns3:TrackPointExtension>
            <ns3:atemp>18.0</ns3:atemp>
          </ns3:TrackPointExtension>
        </extensions>
      </trkpt>
      <trkpt lat="42.6030950434505939483642578125" lon="19.88781072199344635009765625">
        <ele>2192.39990234375</ele>
        <time>2026-06-16T10:17:59.000Z</time>
        <extensions>
          <ns3:TrackPointExtension>
            <ns3:atemp>18.0</ns3:atemp>
          </ns3:TrackPointExtension>
        </extensions>
      </trkpt>
      <trkpt lat="42.6030950434505939483642578125" lon="19.88781072199344635009765625">
        <ele>2192.39990234375</ele>
        <time>2026-06-16T10:18:00.000Z</time>
        <extensions>
          <ns3:TrackPointExtension>
            <ns3:atemp>18.0</ns3:atemp>
          </ns3:TrackPointExtension>
        </extensions>
      </trkpt>
      <trkpt lat="42.6030950434505939483642578125" lon="19.88781072199344635009765625">
        <ele>2192.39990234375</ele>
        <time>2026-06-16T10:18:01.000Z</time>
        <extensions>
          <ns3:TrackPointExtension>
            <ns3:atemp>18.0</ns3:atemp>
          </ns3:TrackPointExtension>
        </extensions>
      </trkpt>
      <trkpt lat="42.6030950434505939483642578125" lon="19.88781072199344635009765625">
        <ele>2192.39990234375</ele>
        <time>2026-06-16T10:18:02.000Z</time>
        <extensions>
          <ns3:TrackPointExtension>
            <ns3:atemp>18.0</ns3:atemp>
          </ns3:TrackPointExtension>
        </extensions>
      </trkpt>
      <trkpt lat="42.6030950434505939483642578125" lon="19.88781072199344635009765625">
        <ele>2192.39990234375</ele>
        <time>2026-06-16T10:18:03.000Z</time>
        <extensions>
          <ns3:TrackPointExtension>
            <ns3:atemp>18.0</ns3:atemp>
          </ns3:TrackPointExtension>
        </extensions>
      </trkpt>
      <trkpt lat="42.6030950434505939483642578125" lon="19.88781072199344635009765625">
        <ele>2192.39990234375</ele>
        <time>2026-06-16T10:18:04.000Z</time>
        <extensions>
          <ns3:TrackPointExtension>
            <ns3:atemp>18.0</ns3:atemp>
          </ns3:TrackPointExtension>
        </extensions>
      </trkpt>
      <trkpt lat="42.6030950434505939483642578125" lon="19.88781072199344635009765625">
        <ele>2192.39990234375</ele>
        <time>2026-06-16T10:18:05.000Z</time>
        <extensions>
          <ns3:TrackPointExtension>
            <ns3:atemp>18.0</ns3:atemp>
          </ns3:TrackPointExtension>
        </extensions>
      </trkpt>
      <trkpt lat="42.6030950434505939483642578125" lon="19.88781072199344635009765625">
        <ele>2192.39990234375</ele>
        <time>2026-06-16T10:18:06.000Z</time>
        <extensions>
          <ns3:TrackPointExtension>
            <ns3:atemp>18.0</ns3:atemp>
          </ns3:TrackPointExtension>
        </extensions>
      </trkpt>
      <trkpt lat="42.6030950434505939483642578125" lon="19.88781072199344635009765625">
        <ele>2192.39990234375</ele>
        <time>2026-06-16T10:18:07.000Z</time>
        <extensions>
          <ns3:TrackPointExtension>
            <ns3:atemp>18.0</ns3:atemp>
          </ns3:TrackPointExtension>
        </extensions>
      </trkpt>
      <trkpt lat="42.6030950434505939483642578125" lon="19.88781072199344635009765625">
        <ele>2192.39990234375</ele>
        <time>2026-06-16T10:18:08.000Z</time>
        <extensions>
          <ns3:TrackPointExtension>
            <ns3:atemp>18.0</ns3:atemp>
          </ns3:TrackPointExtension>
        </extensions>
      </trkpt>
      <trkpt lat="42.6030950434505939483642578125" lon="19.88781072199344635009765625">
        <ele>2192.39990234375</ele>
        <time>2026-06-16T10:18:09.000Z</time>
        <extensions>
          <ns3:TrackPointExtension>
            <ns3:atemp>18.0</ns3:atemp>
          </ns3:TrackPointExtension>
        </extensions>
      </trkpt>
      <trkpt lat="42.6030950434505939483642578125" lon="19.88781072199344635009765625">
        <ele>2192.39990234375</ele>
        <time>2026-06-16T10:18:10.000Z</time>
        <extensions>
          <ns3:TrackPointExtension>
            <ns3:atemp>18.0</ns3:atemp>
          </ns3:TrackPointExtension>
        </extensions>
      </trkpt>
      <trkpt lat="42.6030950434505939483642578125" lon="19.88781072199344635009765625">
        <ele>2192.39990234375</ele>
        <time>2026-06-16T10:18:11.000Z</time>
        <extensions>
          <ns3:TrackPointExtension>
            <ns3:atemp>18.0</ns3:atemp>
          </ns3:TrackPointExtension>
        </extensions>
      </trkpt>
      <trkpt lat="42.6030950434505939483642578125" lon="19.88781072199344635009765625">
        <ele>2192.39990234375</ele>
        <time>2026-06-16T10:18:12.000Z</time>
        <extensions>
          <ns3:TrackPointExtension>
            <ns3:atemp>18.0</ns3:atemp>
          </ns3:TrackPointExtension>
        </extensions>
      </trkpt>
      <trkpt lat="42.6030950434505939483642578125" lon="19.88781072199344635009765625">
        <ele>2192.39990234375</ele>
        <time>2026-06-16T10:18:13.000Z</time>
        <extensions>
          <ns3:TrackPointExtension>
            <ns3:atemp>18.0</ns3:atemp>
          </ns3:TrackPointExtension>
        </extensions>
      </trkpt>
      <trkpt lat="42.6030950434505939483642578125" lon="19.88781072199344635009765625">
        <ele>2192.39990234375</ele>
        <time>2026-06-16T10:18:14.000Z</time>
        <extensions>
          <ns3:TrackPointExtension>
            <ns3:atemp>18.0</ns3:atemp>
          </ns3:TrackPointExtension>
        </extensions>
      </trkpt>
      <trkpt lat="42.6030950434505939483642578125" lon="19.88781072199344635009765625">
        <ele>2192.39990234375</ele>
        <time>2026-06-16T10:18:15.000Z</time>
        <extensions>
          <ns3:TrackPointExtension>
            <ns3:atemp>18.0</ns3:atemp>
          </ns3:TrackPointExtension>
        </extensions>
      </trkpt>
      <trkpt lat="42.6030950434505939483642578125" lon="19.88781072199344635009765625">
        <ele>2192.39990234375</ele>
        <time>2026-06-16T10:18:16.000Z</time>
        <extensions>
          <ns3:TrackPointExtension>
            <ns3:atemp>18.0</ns3:atemp>
          </ns3:TrackPointExtension>
        </extensions>
      </trkpt>
      <trkpt lat="42.6030950434505939483642578125" lon="19.88781072199344635009765625">
        <ele>2192.39990234375</ele>
        <time>2026-06-16T10:18:17.000Z</time>
        <extensions>
          <ns3:TrackPointExtension>
            <ns3:atemp>18.0</ns3:atemp>
          </ns3:TrackPointExtension>
        </extensions>
      </trkpt>
      <trkpt lat="42.6030950434505939483642578125" lon="19.88781072199344635009765625">
        <ele>2192.39990234375</ele>
        <time>2026-06-16T10:18:18.000Z</time>
        <extensions>
          <ns3:TrackPointExtension>
            <ns3:atemp>18.0</ns3:atemp>
          </ns3:TrackPointExtension>
        </extensions>
      </trkpt>
      <trkpt lat="42.6030950434505939483642578125" lon="19.88781072199344635009765625">
        <ele>2192.39990234375</ele>
        <time>2026-06-16T10:18:19.000Z</time>
        <extensions>
          <ns3:TrackPointExtension>
            <ns3:atemp>18.0</ns3:atemp>
          </ns3:TrackPointExtension>
        </extensions>
      </trkpt>
      <trkpt lat="42.6030950434505939483642578125" lon="19.88781072199344635009765625">
        <ele>2192.39990234375</ele>
        <time>2026-06-16T10:18:20.000Z</time>
        <extensions>
          <ns3:TrackPointExtension>
            <ns3:atemp>18.0</ns3:atemp>
          </ns3:TrackPointExtension>
        </extensions>
      </trkpt>
      <trkpt lat="42.6030950434505939483642578125" lon="19.88781072199344635009765625">
        <ele>2192.39990234375</ele>
        <time>2026-06-16T10:18:21.000Z</time>
        <extensions>
          <ns3:TrackPointExtension>
            <ns3:atemp>18.0</ns3:atemp>
          </ns3:TrackPointExtension>
        </extensions>
      </trkpt>
      <trkpt lat="42.6030950434505939483642578125" lon="19.88781072199344635009765625">
        <ele>2192.39990234375</ele>
        <time>2026-06-16T10:18:22.000Z</time>
        <extensions>
          <ns3:TrackPointExtension>
            <ns3:atemp>18.0</ns3:atemp>
          </ns3:TrackPointExtension>
        </extensions>
      </trkpt>
      <trkpt lat="42.6030950434505939483642578125" lon="19.88781072199344635009765625">
        <ele>2192.39990234375</ele>
        <time>2026-06-16T10:18:23.000Z</time>
        <extensions>
          <ns3:TrackPointExtension>
            <ns3:atemp>18.0</ns3:atemp>
          </ns3:TrackPointExtension>
        </extensions>
      </trkpt>
      <trkpt lat="42.6030950434505939483642578125" lon="19.88781072199344635009765625">
        <ele>2192.39990234375</ele>
        <time>2026-06-16T10:18:24.000Z</time>
        <extensions>
          <ns3:TrackPointExtension>
            <ns3:atemp>18.0</ns3:atemp>
          </ns3:TrackPointExtension>
        </extensions>
      </trkpt>
      <trkpt lat="42.6030950434505939483642578125" lon="19.88781072199344635009765625">
        <ele>2192.39990234375</ele>
        <time>2026-06-16T10:18:25.000Z</time>
        <extensions>
          <ns3:TrackPointExtension>
            <ns3:atemp>18.0</ns3:atemp>
          </ns3:TrackPointExtension>
        </extensions>
      </trkpt>
      <trkpt lat="42.6030950434505939483642578125" lon="19.88781072199344635009765625">
        <ele>2192.39990234375</ele>
        <time>2026-06-16T10:18:26.000Z</time>
        <extensions>
          <ns3:TrackPointExtension>
            <ns3:atemp>18.0</ns3:atemp>
          </ns3:TrackPointExtension>
        </extensions>
      </trkpt>
      <trkpt lat="42.6030950434505939483642578125" lon="19.88781072199344635009765625">
        <ele>2192.39990234375</ele>
        <time>2026-06-16T10:18:27.000Z</time>
        <extensions>
          <ns3:TrackPointExtension>
            <ns3:atemp>18.0</ns3:atemp>
          </ns3:TrackPointExtension>
        </extensions>
      </trkpt>
      <trkpt lat="42.6030950434505939483642578125" lon="19.88781072199344635009765625">
        <ele>2192.39990234375</ele>
        <time>2026-06-16T10:18:28.000Z</time>
        <extensions>
          <ns3:TrackPointExtension>
            <ns3:atemp>18.0</ns3:atemp>
          </ns3:TrackPointExtension>
        </extensions>
      </trkpt>
      <trkpt lat="42.6030950434505939483642578125" lon="19.88781072199344635009765625">
        <ele>2192.39990234375</ele>
        <time>2026-06-16T10:18:29.000Z</time>
        <extensions>
          <ns3:TrackPointExtension>
            <ns3:atemp>18.0</ns3:atemp>
          </ns3:TrackPointExtension>
        </extensions>
      </trkpt>
      <trkpt lat="42.6030950434505939483642578125" lon="19.88781072199344635009765625">
        <ele>2192.39990234375</ele>
        <time>2026-06-16T10:18:30.000Z</time>
        <extensions>
          <ns3:TrackPointExtension>
            <ns3:atemp>18.0</ns3:atemp>
          </ns3:TrackPointExtension>
        </extensions>
      </trkpt>
      <trkpt lat="42.6030950434505939483642578125" lon="19.88781072199344635009765625">
        <ele>2192.39990234375</ele>
        <time>2026-06-16T10:18:31.000Z</time>
        <extensions>
          <ns3:TrackPointExtension>
            <ns3:atemp>18.0</ns3:atemp>
          </ns3:TrackPointExtension>
        </extensions>
      </trkpt>
      <trkpt lat="42.6030950434505939483642578125" lon="19.88781072199344635009765625">
        <ele>2192.39990234375</ele>
        <time>2026-06-16T10:18:32.000Z</time>
        <extensions>
          <ns3:TrackPointExtension>
            <ns3:atemp>18.0</ns3:atemp>
          </ns3:TrackPointExtension>
        </extensions>
      </trkpt>
      <trkpt lat="42.6030950434505939483642578125" lon="19.88781072199344635009765625">
        <ele>2192.39990234375</ele>
        <time>2026-06-16T10:18:33.000Z</time>
        <extensions>
          <ns3:TrackPointExtension>
            <ns3:atemp>18.0</ns3:atemp>
          </ns3:TrackPointExtension>
        </extensions>
      </trkpt>
      <trkpt lat="42.6030950434505939483642578125" lon="19.88781072199344635009765625">
        <ele>2192.39990234375</ele>
        <time>2026-06-16T10:18:34.000Z</time>
        <extensions>
          <ns3:TrackPointExtension>
            <ns3:atemp>18.0</ns3:atemp>
          </ns3:TrackPointExtension>
        </extensions>
      </trkpt>
      <trkpt lat="42.6030950434505939483642578125" lon="19.88781072199344635009765625">
        <ele>2192.39990234375</ele>
        <time>2026-06-16T10:18:35.000Z</time>
        <extensions>
          <ns3:TrackPointExtension>
            <ns3:atemp>18.0</ns3:atemp>
          </ns3:TrackPointExtension>
        </extensions>
      </trkpt>
      <trkpt lat="42.6030950434505939483642578125" lon="19.88781072199344635009765625">
        <ele>2192.39990234375</ele>
        <time>2026-06-16T10:18:36.000Z</time>
        <extensions>
          <ns3:TrackPointExtension>
            <ns3:atemp>18.0</ns3:atemp>
          </ns3:TrackPointExtension>
        </extensions>
      </trkpt>
      <trkpt lat="42.6030950434505939483642578125" lon="19.88781072199344635009765625">
        <ele>2192.39990234375</ele>
        <time>2026-06-16T10:18:37.000Z</time>
        <extensions>
          <ns3:TrackPointExtension>
            <ns3:atemp>18.0</ns3:atemp>
          </ns3:TrackPointExtension>
        </extensions>
      </trkpt>
      <trkpt lat="42.6030950434505939483642578125" lon="19.88781072199344635009765625">
        <ele>2192.39990234375</ele>
        <time>2026-06-16T10:18:38.000Z</time>
        <extensions>
          <ns3:TrackPointExtension>
            <ns3:atemp>18.0</ns3:atemp>
          </ns3:TrackPointExtension>
        </extensions>
      </trkpt>
      <trkpt lat="42.6030950434505939483642578125" lon="19.88781072199344635009765625">
        <ele>2192.39990234375</ele>
        <time>2026-06-16T10:18:39.000Z</time>
        <extensions>
          <ns3:TrackPointExtension>
            <ns3:atemp>18.0</ns3:atemp>
          </ns3:TrackPointExtension>
        </extensions>
      </trkpt>
      <trkpt lat="42.6030950434505939483642578125" lon="19.88781072199344635009765625">
        <ele>2192.39990234375</ele>
        <time>2026-06-16T10:18:40.000Z</time>
        <extensions>
          <ns3:TrackPointExtension>
            <ns3:atemp>18.0</ns3:atemp>
          </ns3:TrackPointExtension>
        </extensions>
      </trkpt>
      <trkpt lat="42.6030950434505939483642578125" lon="19.88781072199344635009765625">
        <ele>2192.39990234375</ele>
        <time>2026-06-16T10:18:41.000Z</time>
        <extensions>
          <ns3:TrackPointExtension>
            <ns3:atemp>18.0</ns3:atemp>
          </ns3:TrackPointExtension>
        </extensions>
      </trkpt>
      <trkpt lat="42.6030950434505939483642578125" lon="19.88781072199344635009765625">
        <ele>2192.39990234375</ele>
        <time>2026-06-16T10:18:42.000Z</time>
        <extensions>
          <ns3:TrackPointExtension>
            <ns3:atemp>18.0</ns3:atemp>
          </ns3:TrackPointExtension>
        </extensions>
      </trkpt>
      <trkpt lat="42.6030950434505939483642578125" lon="19.88781072199344635009765625">
        <ele>2192.39990234375</ele>
        <time>2026-06-16T10:18:43.000Z</time>
        <extensions>
          <ns3:TrackPointExtension>
            <ns3:atemp>18.0</ns3:atemp>
          </ns3:TrackPointExtension>
        </extensions>
      </trkpt>
      <trkpt lat="42.6030950434505939483642578125" lon="19.88781072199344635009765625">
        <ele>2192.39990234375</ele>
        <time>2026-06-16T10:18:44.000Z</time>
        <extensions>
          <ns3:TrackPointExtension>
            <ns3:atemp>18.0</ns3:atemp>
          </ns3:TrackPointExtension>
        </extensions>
      </trkpt>
      <trkpt lat="42.6030950434505939483642578125" lon="19.88781072199344635009765625">
        <ele>2192.39990234375</ele>
        <time>2026-06-16T10:18:45.000Z</time>
        <extensions>
          <ns3:TrackPointExtension>
            <ns3:atemp>18.0</ns3:atemp>
          </ns3:TrackPointExtension>
        </extensions>
      </trkpt>
      <trkpt lat="42.6030950434505939483642578125" lon="19.88781072199344635009765625">
        <ele>2192.39990234375</ele>
        <time>2026-06-16T10:18:46.000Z</time>
        <extensions>
          <ns3:TrackPointExtension>
            <ns3:atemp>18.0</ns3:atemp>
          </ns3:TrackPointExtension>
        </extensions>
      </trkpt>
      <trkpt lat="42.6030950434505939483642578125" lon="19.88781072199344635009765625">
        <ele>2192.39990234375</ele>
        <time>2026-06-16T10:18:47.000Z</time>
        <extensions>
          <ns3:TrackPointExtension>
            <ns3:atemp>18.0</ns3:atemp>
          </ns3:TrackPointExtension>
        </extensions>
      </trkpt>
      <trkpt lat="42.6030950434505939483642578125" lon="19.88781072199344635009765625">
        <ele>2192.39990234375</ele>
        <time>2026-06-16T10:18:48.000Z</time>
        <extensions>
          <ns3:TrackPointExtension>
            <ns3:atemp>18.0</ns3:atemp>
          </ns3:TrackPointExtension>
        </extensions>
      </trkpt>
      <trkpt lat="42.6030950434505939483642578125" lon="19.88781072199344635009765625">
        <ele>2192.39990234375</ele>
        <time>2026-06-16T10:18:49.000Z</time>
        <extensions>
          <ns3:TrackPointExtension>
            <ns3:atemp>18.0</ns3:atemp>
          </ns3:TrackPointExtension>
        </extensions>
      </trkpt>
      <trkpt lat="42.6030950434505939483642578125" lon="19.88781072199344635009765625">
        <ele>2192.39990234375</ele>
        <time>2026-06-16T10:18:50.000Z</time>
        <extensions>
          <ns3:TrackPointExtension>
            <ns3:atemp>18.0</ns3:atemp>
          </ns3:TrackPointExtension>
        </extensions>
      </trkpt>
      <trkpt lat="42.6030950434505939483642578125" lon="19.88781072199344635009765625">
        <ele>2192.39990234375</ele>
        <time>2026-06-16T10:18:51.000Z</time>
        <extensions>
          <ns3:TrackPointExtension>
            <ns3:atemp>18.0</ns3:atemp>
          </ns3:TrackPointExtension>
        </extensions>
      </trkpt>
      <trkpt lat="42.6030950434505939483642578125" lon="19.88781072199344635009765625">
        <ele>2192.39990234375</ele>
        <time>2026-06-16T10:18:52.000Z</time>
        <extensions>
          <ns3:TrackPointExtension>
            <ns3:atemp>18.0</ns3:atemp>
          </ns3:TrackPointExtension>
        </extensions>
      </trkpt>
      <trkpt lat="42.6030950434505939483642578125" lon="19.88781072199344635009765625">
        <ele>2192.39990234375</ele>
        <time>2026-06-16T10:18:53.000Z</time>
        <extensions>
          <ns3:TrackPointExtension>
            <ns3:atemp>19.0</ns3:atemp>
          </ns3:TrackPointExtension>
        </extensions>
      </trkpt>
      <trkpt lat="42.6030950434505939483642578125" lon="19.88781072199344635009765625">
        <ele>2192.39990234375</ele>
        <time>2026-06-16T10:18:54.000Z</time>
        <extensions>
          <ns3:TrackPointExtension>
            <ns3:atemp>19.0</ns3:atemp>
          </ns3:TrackPointExtension>
        </extensions>
      </trkpt>
      <trkpt lat="42.6030950434505939483642578125" lon="19.88781072199344635009765625">
        <ele>2192.39990234375</ele>
        <time>2026-06-16T10:18:55.000Z</time>
        <extensions>
          <ns3:TrackPointExtension>
            <ns3:atemp>19.0</ns3:atemp>
          </ns3:TrackPointExtension>
        </extensions>
      </trkpt>
      <trkpt lat="42.6030950434505939483642578125" lon="19.88781072199344635009765625">
        <ele>2192.39990234375</ele>
        <time>2026-06-16T10:18:56.000Z</time>
        <extensions>
          <ns3:TrackPointExtension>
            <ns3:atemp>19.0</ns3:atemp>
          </ns3:TrackPointExtension>
        </extensions>
      </trkpt>
      <trkpt lat="42.6030950434505939483642578125" lon="19.88781072199344635009765625">
        <ele>2192.39990234375</ele>
        <time>2026-06-16T10:18:57.000Z</time>
        <extensions>
          <ns3:TrackPointExtension>
            <ns3:atemp>19.0</ns3:atemp>
          </ns3:TrackPointExtension>
        </extensions>
      </trkpt>
      <trkpt lat="42.6030950434505939483642578125" lon="19.88781072199344635009765625">
        <ele>2192.39990234375</ele>
        <time>2026-06-16T10:18:58.000Z</time>
        <extensions>
          <ns3:TrackPointExtension>
            <ns3:atemp>19.0</ns3:atemp>
          </ns3:TrackPointExtension>
        </extensions>
      </trkpt>
      <trkpt lat="42.6030950434505939483642578125" lon="19.88781072199344635009765625">
        <ele>2192.39990234375</ele>
        <time>2026-06-16T10:18:59.000Z</time>
        <extensions>
          <ns3:TrackPointExtension>
            <ns3:atemp>19.0</ns3:atemp>
          </ns3:TrackPointExtension>
        </extensions>
      </trkpt>
      <trkpt lat="42.6030950434505939483642578125" lon="19.88781072199344635009765625">
        <ele>2192.39990234375</ele>
        <time>2026-06-16T10:19:00.000Z</time>
        <extensions>
          <ns3:TrackPointExtension>
            <ns3:atemp>19.0</ns3:atemp>
          </ns3:TrackPointExtension>
        </extensions>
      </trkpt>
      <trkpt lat="42.6030950434505939483642578125" lon="19.88781072199344635009765625">
        <ele>2192.39990234375</ele>
        <time>2026-06-16T10:19:01.000Z</time>
        <extensions>
          <ns3:TrackPointExtension>
            <ns3:atemp>19.0</ns3:atemp>
          </ns3:TrackPointExtension>
        </extensions>
      </trkpt>
      <trkpt lat="42.6030950434505939483642578125" lon="19.88781072199344635009765625">
        <ele>2192.39990234375</ele>
        <time>2026-06-16T10:19:02.000Z</time>
        <extensions>
          <ns3:TrackPointExtension>
            <ns3:atemp>19.0</ns3:atemp>
          </ns3:TrackPointExtension>
        </extensions>
      </trkpt>
      <trkpt lat="42.6030950434505939483642578125" lon="19.88781072199344635009765625">
        <ele>2192.39990234375</ele>
        <time>2026-06-16T10:19:03.000Z</time>
        <extensions>
          <ns3:TrackPointExtension>
            <ns3:atemp>19.0</ns3:atemp>
          </ns3:TrackPointExtension>
        </extensions>
      </trkpt>
      <trkpt lat="42.6030950434505939483642578125" lon="19.88781072199344635009765625">
        <ele>2192.39990234375</ele>
        <time>2026-06-16T10:19:04.000Z</time>
        <extensions>
          <ns3:TrackPointExtension>
            <ns3:atemp>19.0</ns3:atemp>
          </ns3:TrackPointExtension>
        </extensions>
      </trkpt>
      <trkpt lat="42.6030950434505939483642578125" lon="19.88781072199344635009765625">
        <ele>2192.39990234375</ele>
        <time>2026-06-16T10:19:05.000Z</time>
        <extensions>
          <ns3:TrackPointExtension>
            <ns3:atemp>19.0</ns3:atemp>
          </ns3:TrackPointExtension>
        </extensions>
      </trkpt>
      <trkpt lat="42.6030950434505939483642578125" lon="19.88781072199344635009765625">
        <ele>2192.39990234375</ele>
        <time>2026-06-16T10:19:06.000Z</time>
        <extensions>
          <ns3:TrackPointExtension>
            <ns3:atemp>19.0</ns3:atemp>
          </ns3:TrackPointExtension>
        </extensions>
      </trkpt>
      <trkpt lat="42.6030950434505939483642578125" lon="19.88781072199344635009765625">
        <ele>2192.39990234375</ele>
        <time>2026-06-16T10:19:07.000Z</time>
        <extensions>
          <ns3:TrackPointExtension>
            <ns3:atemp>19.0</ns3:atemp>
          </ns3:TrackPointExtension>
        </extensions>
      </trkpt>
      <trkpt lat="42.6030950434505939483642578125" lon="19.88781072199344635009765625">
        <ele>2192.39990234375</ele>
        <time>2026-06-16T10:19:08.000Z</time>
        <extensions>
          <ns3:TrackPointExtension>
            <ns3:atemp>19.0</ns3:atemp>
          </ns3:TrackPointExtension>
        </extensions>
      </trkpt>
      <trkpt lat="42.6030950434505939483642578125" lon="19.88781072199344635009765625">
        <ele>2192.39990234375</ele>
        <time>2026-06-16T10:19:09.000Z</time>
        <extensions>
          <ns3:TrackPointExtension>
            <ns3:atemp>19.0</ns3:atemp>
          </ns3:TrackPointExtension>
        </extensions>
      </trkpt>
      <trkpt lat="42.6030950434505939483642578125" lon="19.88781072199344635009765625">
        <ele>2192.39990234375</ele>
        <time>2026-06-16T10:19:10.000Z</time>
        <extensions>
          <ns3:TrackPointExtension>
            <ns3:atemp>19.0</ns3:atemp>
          </ns3:TrackPointExtension>
        </extensions>
      </trkpt>
      <trkpt lat="42.6030950434505939483642578125" lon="19.88781072199344635009765625">
        <ele>2192.39990234375</ele>
        <time>2026-06-16T10:19:11.000Z</time>
        <extensions>
          <ns3:TrackPointExtension>
            <ns3:atemp>19.0</ns3:atemp>
          </ns3:TrackPointExtension>
        </extensions>
      </trkpt>
      <trkpt lat="42.6030950434505939483642578125" lon="19.88781072199344635009765625">
        <ele>2192.39990234375</ele>
        <time>2026-06-16T10:19:12.000Z</time>
        <extensions>
          <ns3:TrackPointExtension>
            <ns3:atemp>19.0</ns3:atemp>
          </ns3:TrackPointExtension>
        </extensions>
      </trkpt>
      <trkpt lat="42.6030950434505939483642578125" lon="19.88781072199344635009765625">
        <ele>2192.39990234375</ele>
        <time>2026-06-16T10:19:13.000Z</time>
        <extensions>
          <ns3:TrackPointExtension>
            <ns3:atemp>19.0</ns3:atemp>
          </ns3:TrackPointExtension>
        </extensions>
      </trkpt>
      <trkpt lat="42.6030950434505939483642578125" lon="19.88781072199344635009765625">
        <ele>2192.39990234375</ele>
        <time>2026-06-16T10:19:14.000Z</time>
        <extensions>
          <ns3:TrackPointExtension>
            <ns3:atemp>19.0</ns3:atemp>
          </ns3:TrackPointExtension>
        </extensions>
      </trkpt>
      <trkpt lat="42.6030950434505939483642578125" lon="19.88781072199344635009765625">
        <ele>2192.39990234375</ele>
        <time>2026-06-16T10:19:15.000Z</time>
        <extensions>
          <ns3:TrackPointExtension>
            <ns3:atemp>19.0</ns3:atemp>
          </ns3:TrackPointExtension>
        </extensions>
      </trkpt>
      <trkpt lat="42.6030950434505939483642578125" lon="19.88781072199344635009765625">
        <ele>2192.39990234375</ele>
        <time>2026-06-16T10:19:16.000Z</time>
        <extensions>
          <ns3:TrackPointExtension>
            <ns3:atemp>19.0</ns3:atemp>
          </ns3:TrackPointExtension>
        </extensions>
      </trkpt>
      <trkpt lat="42.6030950434505939483642578125" lon="19.88781072199344635009765625">
        <ele>2192.39990234375</ele>
        <time>2026-06-16T10:19:17.000Z</time>
        <extensions>
          <ns3:TrackPointExtension>
            <ns3:atemp>19.0</ns3:atemp>
          </ns3:TrackPointExtension>
        </extensions>
      </trkpt>
      <trkpt lat="42.6030950434505939483642578125" lon="19.88781072199344635009765625">
        <ele>2192.39990234375</ele>
        <time>2026-06-16T10:19:18.000Z</time>
        <extensions>
          <ns3:TrackPointExtension>
            <ns3:atemp>19.0</ns3:atemp>
          </ns3:TrackPointExtension>
        </extensions>
      </trkpt>
      <trkpt lat="42.6030950434505939483642578125" lon="19.88781072199344635009765625">
        <ele>2192.39990234375</ele>
        <time>2026-06-16T10:19:19.000Z</time>
        <extensions>
          <ns3:TrackPointExtension>
            <ns3:atemp>19.0</ns3:atemp>
          </ns3:TrackPointExtension>
        </extensions>
      </trkpt>
      <trkpt lat="42.6030950434505939483642578125" lon="19.88781072199344635009765625">
        <ele>2192.39990234375</ele>
        <time>2026-06-16T10:19:20.000Z</time>
        <extensions>
          <ns3:TrackPointExtension>
            <ns3:atemp>19.0</ns3:atemp>
          </ns3:TrackPointExtension>
        </extensions>
      </trkpt>
      <trkpt lat="42.6030950434505939483642578125" lon="19.88781072199344635009765625">
        <ele>2192.39990234375</ele>
        <time>2026-06-16T10:19:21.000Z</time>
        <extensions>
          <ns3:TrackPointExtension>
            <ns3:atemp>19.0</ns3:atemp>
          </ns3:TrackPointExtension>
        </extensions>
      </trkpt>
      <trkpt lat="42.6030950434505939483642578125" lon="19.88781072199344635009765625">
        <ele>2192.39990234375</ele>
        <time>2026-06-16T10:19:22.000Z</time>
        <extensions>
          <ns3:TrackPointExtension>
            <ns3:atemp>19.0</ns3:atemp>
          </ns3:TrackPointExtension>
        </extensions>
      </trkpt>
      <trkpt lat="42.6030950434505939483642578125" lon="19.88781072199344635009765625">
        <ele>2192.39990234375</ele>
        <time>2026-06-16T10:19:23.000Z</time>
        <extensions>
          <ns3:TrackPointExtension>
            <ns3:atemp>19.0</ns3:atemp>
          </ns3:TrackPointExtension>
        </extensions>
      </trkpt>
      <trkpt lat="42.6030950434505939483642578125" lon="19.88781072199344635009765625">
        <ele>2192.39990234375</ele>
        <time>2026-06-16T10:19:24.000Z</time>
        <extensions>
          <ns3:TrackPointExtension>
            <ns3:atemp>19.0</ns3:atemp>
          </ns3:TrackPointExtension>
        </extensions>
      </trkpt>
      <trkpt lat="42.6030950434505939483642578125" lon="19.88781072199344635009765625">
        <ele>2192.39990234375</ele>
        <time>2026-06-16T10:19:25.000Z</time>
        <extensions>
          <ns3:TrackPointExtension>
            <ns3:atemp>19.0</ns3:atemp>
          </ns3:TrackPointExtension>
        </extensions>
      </trkpt>
      <trkpt lat="42.6030950434505939483642578125" lon="19.88781072199344635009765625">
        <ele>2192.39990234375</ele>
        <time>2026-06-16T10:19:26.000Z</time>
        <extensions>
          <ns3:TrackPointExtension>
            <ns3:atemp>19.0</ns3:atemp>
          </ns3:TrackPointExtension>
        </extensions>
      </trkpt>
      <trkpt lat="42.6030950434505939483642578125" lon="19.88781072199344635009765625">
        <ele>2192.39990234375</ele>
        <time>2026-06-16T10:19:27.000Z</time>
        <extensions>
          <ns3:TrackPointExtension>
            <ns3:atemp>19.0</ns3:atemp>
          </ns3:TrackPointExtension>
        </extensions>
      </trkpt>
      <trkpt lat="42.6030950434505939483642578125" lon="19.88781072199344635009765625">
        <ele>2192.39990234375</ele>
        <time>2026-06-16T10:19:28.000Z</time>
        <extensions>
          <ns3:TrackPointExtension>
            <ns3:atemp>19.0</ns3:atemp>
          </ns3:TrackPointExtension>
        </extensions>
      </trkpt>
      <trkpt lat="42.6030950434505939483642578125" lon="19.88781072199344635009765625">
        <ele>2192.39990234375</ele>
        <time>2026-06-16T10:19:29.000Z</time>
        <extensions>
          <ns3:TrackPointExtension>
            <ns3:atemp>19.0</ns3:atemp>
          </ns3:TrackPointExtension>
        </extensions>
      </trkpt>
      <trkpt lat="42.6030950434505939483642578125" lon="19.88781072199344635009765625">
        <ele>2192.39990234375</ele>
        <time>2026-06-16T10:19:30.000Z</time>
        <extensions>
          <ns3:TrackPointExtension>
            <ns3:atemp>19.0</ns3:atemp>
          </ns3:TrackPointExtension>
        </extensions>
      </trkpt>
      <trkpt lat="42.6030950434505939483642578125" lon="19.88781072199344635009765625">
        <ele>2192.39990234375</ele>
        <time>2026-06-16T10:19:31.000Z</time>
        <extensions>
          <ns3:TrackPointExtension>
            <ns3:atemp>19.0</ns3:atemp>
          </ns3:TrackPointExtension>
        </extensions>
      </trkpt>
      <trkpt lat="42.6030950434505939483642578125" lon="19.88781072199344635009765625">
        <ele>2192.39990234375</ele>
        <time>2026-06-16T10:19:32.000Z</time>
        <extensions>
          <ns3:TrackPointExtension>
            <ns3:atemp>19.0</ns3:atemp>
          </ns3:TrackPointExtension>
        </extensions>
      </trkpt>
      <trkpt lat="42.6030950434505939483642578125" lon="19.88781072199344635009765625">
        <ele>2192.39990234375</ele>
        <time>2026-06-16T10:19:33.000Z</time>
        <extensions>
          <ns3:TrackPointExtension>
            <ns3:atemp>19.0</ns3:atemp>
          </ns3:TrackPointExtension>
        </extensions>
      </trkpt>
      <trkpt lat="42.6030950434505939483642578125" lon="19.88781072199344635009765625">
        <ele>2192.39990234375</ele>
        <time>2026-06-16T10:19:34.000Z</time>
        <extensions>
          <ns3:TrackPointExtension>
            <ns3:atemp>19.0</ns3:atemp>
          </ns3:TrackPointExtension>
        </extensions>
      </trkpt>
      <trkpt lat="42.6030950434505939483642578125" lon="19.88781072199344635009765625">
        <ele>2192.39990234375</ele>
        <time>2026-06-16T10:19:35.000Z</time>
        <extensions>
          <ns3:TrackPointExtension>
            <ns3:atemp>19.0</ns3:atemp>
          </ns3:TrackPointExtension>
        </extensions>
      </trkpt>
      <trkpt lat="42.6030950434505939483642578125" lon="19.88781072199344635009765625">
        <ele>2192.39990234375</ele>
        <time>2026-06-16T10:19:36.000Z</time>
        <extensions>
          <ns3:TrackPointExtension>
            <ns3:atemp>19.0</ns3:atemp>
          </ns3:TrackPointExtension>
        </extensions>
      </trkpt>
      <trkpt lat="42.6030950434505939483642578125" lon="19.88781072199344635009765625">
        <ele>2192.39990234375</ele>
        <time>2026-06-16T10:19:37.000Z</time>
        <extensions>
          <ns3:TrackPointExtension>
            <ns3:atemp>19.0</ns3:atemp>
          </ns3:TrackPointExtension>
        </extensions>
      </trkpt>
      <trkpt lat="42.6030950434505939483642578125" lon="19.88781072199344635009765625">
        <ele>2192.39990234375</ele>
        <time>2026-06-16T10:19:38.000Z</time>
        <extensions>
          <ns3:TrackPointExtension>
            <ns3:atemp>19.0</ns3:atemp>
          </ns3:TrackPointExtension>
        </extensions>
      </trkpt>
      <trkpt lat="42.6030950434505939483642578125" lon="19.88781072199344635009765625">
        <ele>2192.39990234375</ele>
        <time>2026-06-16T10:19:39.000Z</time>
        <extensions>
          <ns3:TrackPointExtension>
            <ns3:atemp>19.0</ns3:atemp>
          </ns3:TrackPointExtension>
        </extensions>
      </trkpt>
      <trkpt lat="42.6030950434505939483642578125" lon="19.88781072199344635009765625">
        <ele>2192.39990234375</ele>
        <time>2026-06-16T10:19:40.000Z</time>
        <extensions>
          <ns3:TrackPointExtension>
            <ns3:atemp>19.0</ns3:atemp>
          </ns3:TrackPointExtension>
        </extensions>
      </trkpt>
      <trkpt lat="42.6030950434505939483642578125" lon="19.88781072199344635009765625">
        <ele>2192.39990234375</ele>
        <time>2026-06-16T10:19:41.000Z</time>
        <extensions>
          <ns3:TrackPointExtension>
            <ns3:atemp>19.0</ns3:atemp>
          </ns3:TrackPointExtension>
        </extensions>
      </trkpt>
      <trkpt lat="42.6030950434505939483642578125" lon="19.88781072199344635009765625">
        <ele>2192.39990234375</ele>
        <time>2026-06-16T10:19:42.000Z</time>
        <extensions>
          <ns3:TrackPointExtension>
            <ns3:atemp>19.0</ns3:atemp>
          </ns3:TrackPointExtension>
        </extensions>
      </trkpt>
      <trkpt lat="42.6030950434505939483642578125" lon="19.88781072199344635009765625">
        <ele>2192.39990234375</ele>
        <time>2026-06-16T10:19:43.000Z</time>
        <extensions>
          <ns3:TrackPointExtension>
            <ns3:atemp>19.0</ns3:atemp>
          </ns3:TrackPointExtension>
        </extensions>
      </trkpt>
      <trkpt lat="42.6030950434505939483642578125" lon="19.88781072199344635009765625">
        <ele>2192.39990234375</ele>
        <time>2026-06-16T10:19:44.000Z</time>
        <extensions>
          <ns3:TrackPointExtension>
            <ns3:atemp>19.0</ns3:atemp>
          </ns3:TrackPointExtension>
        </extensions>
      </trkpt>
      <trkpt lat="42.6030950434505939483642578125" lon="19.88781072199344635009765625">
        <ele>2192.39990234375</ele>
        <time>2026-06-16T10:19:45.000Z</time>
        <extensions>
          <ns3:TrackPointExtension>
            <ns3:atemp>19.0</ns3:atemp>
          </ns3:TrackPointExtension>
        </extensions>
      </trkpt>
      <trkpt lat="42.6030950434505939483642578125" lon="19.88781072199344635009765625">
        <ele>2192.39990234375</ele>
        <time>2026-06-16T10:19:46.000Z</time>
        <extensions>
          <ns3:TrackPointExtension>
            <ns3:atemp>19.0</ns3:atemp>
          </ns3:TrackPointExtension>
        </extensions>
      </trkpt>
      <trkpt lat="42.6030950434505939483642578125" lon="19.88781072199344635009765625">
        <ele>2192.39990234375</ele>
        <time>2026-06-16T10:19:47.000Z</time>
        <extensions>
          <ns3:TrackPointExtension>
            <ns3:atemp>19.0</ns3:atemp>
          </ns3:TrackPointExtension>
        </extensions>
      </trkpt>
      <trkpt lat="42.6030950434505939483642578125" lon="19.88781072199344635009765625">
        <ele>2192.39990234375</ele>
        <time>2026-06-16T10:19:48.000Z</time>
        <extensions>
          <ns3:TrackPointExtension>
            <ns3:atemp>19.0</ns3:atemp>
          </ns3:TrackPointExtension>
        </extensions>
      </trkpt>
      <trkpt lat="42.6030950434505939483642578125" lon="19.88781072199344635009765625">
        <ele>2192.39990234375</ele>
        <time>2026-06-16T10:19:49.000Z</time>
        <extensions>
          <ns3:TrackPointExtension>
            <ns3:atemp>19.0</ns3:atemp>
          </ns3:TrackPointExtension>
        </extensions>
      </trkpt>
      <trkpt lat="42.6030950434505939483642578125" lon="19.88781072199344635009765625">
        <ele>2192.39990234375</ele>
        <time>2026-06-16T10:19:50.000Z</time>
        <extensions>
          <ns3:TrackPointExtension>
            <ns3:atemp>19.0</ns3:atemp>
          </ns3:TrackPointExtension>
        </extensions>
      </trkpt>
      <trkpt lat="42.6030950434505939483642578125" lon="19.88781072199344635009765625">
        <ele>2192.39990234375</ele>
        <time>2026-06-16T10:19:51.000Z</time>
        <extensions>
          <ns3:TrackPointExtension>
            <ns3:atemp>19.0</ns3:atemp>
          </ns3:TrackPointExtension>
        </extensions>
      </trkpt>
      <trkpt lat="42.6030950434505939483642578125" lon="19.88781072199344635009765625">
        <ele>2192.39990234375</ele>
        <time>2026-06-16T10:19:52.000Z</time>
        <extensions>
          <ns3:TrackPointExtension>
            <ns3:atemp>19.0</ns3:atemp>
          </ns3:TrackPointExtension>
        </extensions>
      </trkpt>
      <trkpt lat="42.6030950434505939483642578125" lon="19.88781072199344635009765625">
        <ele>2192.39990234375</ele>
        <time>2026-06-16T10:19:53.000Z</time>
        <extensions>
          <ns3:TrackPointExtension>
            <ns3:atemp>19.0</ns3:atemp>
          </ns3:TrackPointExtension>
        </extensions>
      </trkpt>
      <trkpt lat="42.6030950434505939483642578125" lon="19.88781072199344635009765625">
        <ele>2192.39990234375</ele>
        <time>2026-06-16T10:19:54.000Z</time>
        <extensions>
          <ns3:TrackPointExtension>
            <ns3:atemp>19.0</ns3:atemp>
          </ns3:TrackPointExtension>
        </extensions>
      </trkpt>
      <trkpt lat="42.6030950434505939483642578125" lon="19.88781072199344635009765625">
        <ele>2192.39990234375</ele>
        <time>2026-06-16T10:19:55.000Z</time>
        <extensions>
          <ns3:TrackPointExtension>
            <ns3:atemp>19.0</ns3:atemp>
          </ns3:TrackPointExtension>
        </extensions>
      </trkpt>
      <trkpt lat="42.6030950434505939483642578125" lon="19.88781072199344635009765625">
        <ele>2192.39990234375</ele>
        <time>2026-06-16T10:19:56.000Z</time>
        <extensions>
          <ns3:TrackPointExtension>
            <ns3:atemp>19.0</ns3:atemp>
          </ns3:TrackPointExtension>
        </extensions>
      </trkpt>
      <trkpt lat="42.6030950434505939483642578125" lon="19.88781072199344635009765625">
        <ele>2192.39990234375</ele>
        <time>2026-06-16T10:19:57.000Z</time>
        <extensions>
          <ns3:TrackPointExtension>
            <ns3:atemp>19.0</ns3:atemp>
          </ns3:TrackPointExtension>
        </extensions>
      </trkpt>
      <trkpt lat="42.6030950434505939483642578125" lon="19.88781072199344635009765625">
        <ele>2192.39990234375</ele>
        <time>2026-06-16T10:19:58.000Z</time>
        <extensions>
          <ns3:TrackPointExtension>
            <ns3:atemp>19.0</ns3:atemp>
          </ns3:TrackPointExtension>
        </extensions>
      </trkpt>
      <trkpt lat="42.6030950434505939483642578125" lon="19.88781072199344635009765625">
        <ele>2192.39990234375</ele>
        <time>2026-06-16T10:19:59.000Z</time>
        <extensions>
          <ns3:TrackPointExtension>
            <ns3:atemp>19.0</ns3:atemp>
          </ns3:TrackPointExtension>
        </extensions>
      </trkpt>
      <trkpt lat="42.6030950434505939483642578125" lon="19.88781072199344635009765625">
        <ele>2192.39990234375</ele>
        <time>2026-06-16T10:20:00.000Z</time>
        <extensions>
          <ns3:TrackPointExtension>
            <ns3:atemp>19.0</ns3:atemp>
          </ns3:TrackPointExtension>
        </extensions>
      </trkpt>
      <trkpt lat="42.6030950434505939483642578125" lon="19.88781072199344635009765625">
        <ele>2192.39990234375</ele>
        <time>2026-06-16T10:20:01.000Z</time>
        <extensions>
          <ns3:TrackPointExtension>
            <ns3:atemp>19.0</ns3:atemp>
          </ns3:TrackPointExtension>
        </extensions>
      </trkpt>
      <trkpt lat="42.6030950434505939483642578125" lon="19.88781072199344635009765625">
        <ele>2192.39990234375</ele>
        <time>2026-06-16T10:20:02.000Z</time>
        <extensions>
          <ns3:TrackPointExtension>
            <ns3:atemp>19.0</ns3:atemp>
          </ns3:TrackPointExtension>
        </extensions>
      </trkpt>
      <trkpt lat="42.6030950434505939483642578125" lon="19.88781072199344635009765625">
        <ele>2192.39990234375</ele>
        <time>2026-06-16T10:20:03.000Z</time>
        <extensions>
          <ns3:TrackPointExtension>
            <ns3:atemp>19.0</ns3:atemp>
          </ns3:TrackPointExtension>
        </extensions>
      </trkpt>
      <trkpt lat="42.6030950434505939483642578125" lon="19.88781072199344635009765625">
        <ele>2192.39990234375</ele>
        <time>2026-06-16T10:20:04.000Z</time>
        <extensions>
          <ns3:TrackPointExtension>
            <ns3:atemp>19.0</ns3:atemp>
          </ns3:TrackPointExtension>
        </extensions>
      </trkpt>
      <trkpt lat="42.6030950434505939483642578125" lon="19.88781072199344635009765625">
        <ele>2192.39990234375</ele>
        <time>2026-06-16T10:20:05.000Z</time>
        <extensions>
          <ns3:TrackPointExtension>
            <ns3:atemp>19.0</ns3:atemp>
          </ns3:TrackPointExtension>
        </extensions>
      </trkpt>
      <trkpt lat="42.6030950434505939483642578125" lon="19.88781072199344635009765625">
        <ele>2192.39990234375</ele>
        <time>2026-06-16T10:20:06.000Z</time>
        <extensions>
          <ns3:TrackPointExtension>
            <ns3:atemp>19.0</ns3:atemp>
          </ns3:TrackPointExtension>
        </extensions>
      </trkpt>
      <trkpt lat="42.6030950434505939483642578125" lon="19.88781072199344635009765625">
        <ele>2192.39990234375</ele>
        <time>2026-06-16T10:20:07.000Z</time>
        <extensions>
          <ns3:TrackPointExtension>
            <ns3:atemp>19.0</ns3:atemp>
          </ns3:TrackPointExtension>
        </extensions>
      </trkpt>
      <trkpt lat="42.6030950434505939483642578125" lon="19.88781072199344635009765625">
        <ele>2192.39990234375</ele>
        <time>2026-06-16T10:20:08.000Z</time>
        <extensions>
          <ns3:TrackPointExtension>
            <ns3:atemp>19.0</ns3:atemp>
          </ns3:TrackPointExtension>
        </extensions>
      </trkpt>
      <trkpt lat="42.6030950434505939483642578125" lon="19.88781072199344635009765625">
        <ele>2192.39990234375</ele>
        <time>2026-06-16T10:20:09.000Z</time>
        <extensions>
          <ns3:TrackPointExtension>
            <ns3:atemp>19.0</ns3:atemp>
          </ns3:TrackPointExtension>
        </extensions>
      </trkpt>
      <trkpt lat="42.6030950434505939483642578125" lon="19.88781072199344635009765625">
        <ele>2192.39990234375</ele>
        <time>2026-06-16T10:20:10.000Z</time>
        <extensions>
          <ns3:TrackPointExtension>
            <ns3:atemp>19.0</ns3:atemp>
          </ns3:TrackPointExtension>
        </extensions>
      </trkpt>
      <trkpt lat="42.6030950434505939483642578125" lon="19.88781072199344635009765625">
        <ele>2192.39990234375</ele>
        <time>2026-06-16T10:20:11.000Z</time>
        <extensions>
          <ns3:TrackPointExtension>
            <ns3:atemp>19.0</ns3:atemp>
          </ns3:TrackPointExtension>
        </extensions>
      </trkpt>
      <trkpt lat="42.6030950434505939483642578125" lon="19.88781072199344635009765625">
        <ele>2192.39990234375</ele>
        <time>2026-06-16T10:20:12.000Z</time>
        <extensions>
          <ns3:TrackPointExtension>
            <ns3:atemp>19.0</ns3:atemp>
          </ns3:TrackPointExtension>
        </extensions>
      </trkpt>
      <trkpt lat="42.6030950434505939483642578125" lon="19.88781072199344635009765625">
        <ele>2192.39990234375</ele>
        <time>2026-06-16T10:20:13.000Z</time>
        <extensions>
          <ns3:TrackPointExtension>
            <ns3:atemp>19.0</ns3:atemp>
          </ns3:TrackPointExtension>
        </extensions>
      </trkpt>
      <trkpt lat="42.6030950434505939483642578125" lon="19.88781072199344635009765625">
        <ele>2192.39990234375</ele>
        <time>2026-06-16T10:20:14.000Z</time>
        <extensions>
          <ns3:TrackPointExtension>
            <ns3:atemp>19.0</ns3:atemp>
          </ns3:TrackPointExtension>
        </extensions>
      </trkpt>
      <trkpt lat="42.6030950434505939483642578125" lon="19.88781072199344635009765625">
        <ele>2192.39990234375</ele>
        <time>2026-06-16T10:20:15.000Z</time>
        <extensions>
          <ns3:TrackPointExtension>
            <ns3:atemp>19.0</ns3:atemp>
          </ns3:TrackPointExtension>
        </extensions>
      </trkpt>
      <trkpt lat="42.6030950434505939483642578125" lon="19.88781072199344635009765625">
        <ele>2192.39990234375</ele>
        <time>2026-06-16T10:20:16.000Z</time>
        <extensions>
          <ns3:TrackPointExtension>
            <ns3:atemp>19.0</ns3:atemp>
          </ns3:TrackPointExtension>
        </extensions>
      </trkpt>
      <trkpt lat="42.6030950434505939483642578125" lon="19.88781072199344635009765625">
        <ele>2192.39990234375</ele>
        <time>2026-06-16T10:20:17.000Z</time>
        <extensions>
          <ns3:TrackPointExtension>
            <ns3:atemp>19.0</ns3:atemp>
          </ns3:TrackPointExtension>
        </extensions>
      </trkpt>
      <trkpt lat="42.6030950434505939483642578125" lon="19.88781072199344635009765625">
        <ele>2192.39990234375</ele>
        <time>2026-06-16T10:20:18.000Z</time>
        <extensions>
          <ns3:TrackPointExtension>
            <ns3:atemp>19.0</ns3:atemp>
          </ns3:TrackPointExtension>
        </extensions>
      </trkpt>
      <trkpt lat="42.6030950434505939483642578125" lon="19.88781072199344635009765625">
        <ele>2192.39990234375</ele>
        <time>2026-06-16T10:20:19.000Z</time>
        <extensions>
          <ns3:TrackPointExtension>
            <ns3:atemp>19.0</ns3:atemp>
          </ns3:TrackPointExtension>
        </extensions>
      </trkpt>
      <trkpt lat="42.6030950434505939483642578125" lon="19.88781072199344635009765625">
        <ele>2192.39990234375</ele>
        <time>2026-06-16T10:20:20.000Z</time>
        <extensions>
          <ns3:TrackPointExtension>
            <ns3:atemp>19.0</ns3:atemp>
          </ns3:TrackPointExtension>
        </extensions>
      </trkpt>
      <trkpt lat="42.6030950434505939483642578125" lon="19.88781072199344635009765625">
        <ele>2192.39990234375</ele>
        <time>2026-06-16T10:20:21.000Z</time>
        <extensions>
          <ns3:TrackPointExtension>
            <ns3:atemp>19.0</ns3:atemp>
          </ns3:TrackPointExtension>
        </extensions>
      </trkpt>
      <trkpt lat="42.6030950434505939483642578125" lon="19.88781072199344635009765625">
        <ele>2192.39990234375</ele>
        <time>2026-06-16T10:20:22.000Z</time>
        <extensions>
          <ns3:TrackPointExtension>
            <ns3:atemp>19.0</ns3:atemp>
          </ns3:TrackPointExtension>
        </extensions>
      </trkpt>
      <trkpt lat="42.6030950434505939483642578125" lon="19.88781072199344635009765625">
        <ele>2192.39990234375</ele>
        <time>2026-06-16T10:20:23.000Z</time>
        <extensions>
          <ns3:TrackPointExtension>
            <ns3:atemp>19.0</ns3:atemp>
          </ns3:TrackPointExtension>
        </extensions>
      </trkpt>
      <trkpt lat="42.6030950434505939483642578125" lon="19.88781072199344635009765625">
        <ele>2192.39990234375</ele>
        <time>2026-06-16T10:20:24.000Z</time>
        <extensions>
          <ns3:TrackPointExtension>
            <ns3:atemp>19.0</ns3:atemp>
          </ns3:TrackPointExtension>
        </extensions>
      </trkpt>
      <trkpt lat="42.6030950434505939483642578125" lon="19.88781072199344635009765625">
        <ele>2192.39990234375</ele>
        <time>2026-06-16T10:20:25.000Z</time>
        <extensions>
          <ns3:TrackPointExtension>
            <ns3:atemp>19.0</ns3:atemp>
          </ns3:TrackPointExtension>
        </extensions>
      </trkpt>
      <trkpt lat="42.6030950434505939483642578125" lon="19.88781072199344635009765625">
        <ele>2192.39990234375</ele>
        <time>2026-06-16T10:20:26.000Z</time>
        <extensions>
          <ns3:TrackPointExtension>
            <ns3:atemp>19.0</ns3:atemp>
          </ns3:TrackPointExtension>
        </extensions>
      </trkpt>
      <trkpt lat="42.6030950434505939483642578125" lon="19.88781072199344635009765625">
        <ele>2192.39990234375</ele>
        <time>2026-06-16T10:20:27.000Z</time>
        <extensions>
          <ns3:TrackPointExtension>
            <ns3:atemp>19.0</ns3:atemp>
          </ns3:TrackPointExtension>
        </extensions>
      </trkpt>
      <trkpt lat="42.6030950434505939483642578125" lon="19.88781072199344635009765625">
        <ele>2192.39990234375</ele>
        <time>2026-06-16T10:20:28.000Z</time>
        <extensions>
          <ns3:TrackPointExtension>
            <ns3:atemp>19.0</ns3:atemp>
          </ns3:TrackPointExtension>
        </extensions>
      </trkpt>
      <trkpt lat="42.6030950434505939483642578125" lon="19.88781072199344635009765625">
        <ele>2192.39990234375</ele>
        <time>2026-06-16T10:20:29.000Z</time>
        <extensions>
          <ns3:TrackPointExtension>
            <ns3:atemp>19.0</ns3:atemp>
          </ns3:TrackPointExtension>
        </extensions>
      </trkpt>
      <trkpt lat="42.6030950434505939483642578125" lon="19.88781072199344635009765625">
        <ele>2192.39990234375</ele>
        <time>2026-06-16T10:20:30.000Z</time>
        <extensions>
          <ns3:TrackPointExtension>
            <ns3:atemp>19.0</ns3:atemp>
          </ns3:TrackPointExtension>
        </extensions>
      </trkpt>
      <trkpt lat="42.6030950434505939483642578125" lon="19.88781072199344635009765625">
        <ele>2192.39990234375</ele>
        <time>2026-06-16T10:20:31.000Z</time>
        <extensions>
          <ns3:TrackPointExtension>
            <ns3:atemp>19.0</ns3:atemp>
          </ns3:TrackPointExtension>
        </extensions>
      </trkpt>
      <trkpt lat="42.6030950434505939483642578125" lon="19.88781072199344635009765625">
        <ele>2192.39990234375</ele>
        <time>2026-06-16T10:20:32.000Z</time>
        <extensions>
          <ns3:TrackPointExtension>
            <ns3:atemp>19.0</ns3:atemp>
          </ns3:TrackPointExtension>
        </extensions>
      </trkpt>
      <trkpt lat="42.6030950434505939483642578125" lon="19.88781072199344635009765625">
        <ele>2192.39990234375</ele>
        <time>2026-06-16T10:20:33.000Z</time>
        <extensions>
          <ns3:TrackPointExtension>
            <ns3:atemp>19.0</ns3:atemp>
          </ns3:TrackPointExtension>
        </extensions>
      </trkpt>
      <trkpt lat="42.6030950434505939483642578125" lon="19.88781072199344635009765625">
        <ele>2192.39990234375</ele>
        <time>2026-06-16T10:20:34.000Z</time>
        <extensions>
          <ns3:TrackPointExtension>
            <ns3:atemp>19.0</ns3:atemp>
          </ns3:TrackPointExtension>
        </extensions>
      </trkpt>
      <trkpt lat="42.6030950434505939483642578125" lon="19.88781072199344635009765625">
        <ele>2192.39990234375</ele>
        <time>2026-06-16T10:20:35.000Z</time>
        <extensions>
          <ns3:TrackPointExtension>
            <ns3:atemp>19.0</ns3:atemp>
          </ns3:TrackPointExtension>
        </extensions>
      </trkpt>
      <trkpt lat="42.6030950434505939483642578125" lon="19.88781072199344635009765625">
        <ele>2192.39990234375</ele>
        <time>2026-06-16T10:20:36.000Z</time>
        <extensions>
          <ns3:TrackPointExtension>
            <ns3:atemp>19.0</ns3:atemp>
          </ns3:TrackPointExtension>
        </extensions>
      </trkpt>
      <trkpt lat="42.6030950434505939483642578125" lon="19.88781072199344635009765625">
        <ele>2192.39990234375</ele>
        <time>2026-06-16T10:20:37.000Z</time>
        <extensions>
          <ns3:TrackPointExtension>
            <ns3:atemp>19.0</ns3:atemp>
          </ns3:TrackPointExtension>
        </extensions>
      </trkpt>
      <trkpt lat="42.6030950434505939483642578125" lon="19.88781072199344635009765625">
        <ele>2192.39990234375</ele>
        <time>2026-06-16T10:20:38.000Z</time>
        <extensions>
          <ns3:TrackPointExtension>
            <ns3:atemp>19.0</ns3:atemp>
          </ns3:TrackPointExtension>
        </extensions>
      </trkpt>
      <trkpt lat="42.6030950434505939483642578125" lon="19.88781072199344635009765625">
        <ele>2192.39990234375</ele>
        <time>2026-06-16T10:20:39.000Z</time>
        <extensions>
          <ns3:TrackPointExtension>
            <ns3:atemp>19.0</ns3:atemp>
          </ns3:TrackPointExtension>
        </extensions>
      </trkpt>
      <trkpt lat="42.6030950434505939483642578125" lon="19.88781072199344635009765625">
        <ele>2192.39990234375</ele>
        <time>2026-06-16T10:20:40.000Z</time>
        <extensions>
          <ns3:TrackPointExtension>
            <ns3:atemp>19.0</ns3:atemp>
          </ns3:TrackPointExtension>
        </extensions>
      </trkpt>
      <trkpt lat="42.6030950434505939483642578125" lon="19.88781072199344635009765625">
        <ele>2192.39990234375</ele>
        <time>2026-06-16T10:20:41.000Z</time>
        <extensions>
          <ns3:TrackPointExtension>
            <ns3:atemp>19.0</ns3:atemp>
          </ns3:TrackPointExtension>
        </extensions>
      </trkpt>
      <trkpt lat="42.6030950434505939483642578125" lon="19.88781072199344635009765625">
        <ele>2192.39990234375</ele>
        <time>2026-06-16T10:20:42.000Z</time>
        <extensions>
          <ns3:TrackPointExtension>
            <ns3:atemp>19.0</ns3:atemp>
          </ns3:TrackPointExtension>
        </extensions>
      </trkpt>
      <trkpt lat="42.6030950434505939483642578125" lon="19.88781072199344635009765625">
        <ele>2192.39990234375</ele>
        <time>2026-06-16T10:20:43.000Z</time>
        <extensions>
          <ns3:TrackPointExtension>
            <ns3:atemp>19.0</ns3:atemp>
          </ns3:TrackPointExtension>
        </extensions>
      </trkpt>
      <trkpt lat="42.6030950434505939483642578125" lon="19.88781072199344635009765625">
        <ele>2192.39990234375</ele>
        <time>2026-06-16T10:20:44.000Z</time>
        <extensions>
          <ns3:TrackPointExtension>
            <ns3:atemp>19.0</ns3:atemp>
          </ns3:TrackPointExtension>
        </extensions>
      </trkpt>
      <trkpt lat="42.6030950434505939483642578125" lon="19.88781072199344635009765625">
        <ele>2192.39990234375</ele>
        <time>2026-06-16T10:20:45.000Z</time>
        <extensions>
          <ns3:TrackPointExtension>
            <ns3:atemp>19.0</ns3:atemp>
          </ns3:TrackPointExtension>
        </extensions>
      </trkpt>
      <trkpt lat="42.6030950434505939483642578125" lon="19.88781072199344635009765625">
        <ele>2192.39990234375</ele>
        <time>2026-06-16T10:20:46.000Z</time>
        <extensions>
          <ns3:TrackPointExtension>
            <ns3:atemp>19.0</ns3:atemp>
          </ns3:TrackPointExtension>
        </extensions>
      </trkpt>
      <trkpt lat="42.6030950434505939483642578125" lon="19.88781072199344635009765625">
        <ele>2192.39990234375</ele>
        <time>2026-06-16T10:20:47.000Z</time>
        <extensions>
          <ns3:TrackPointExtension>
            <ns3:atemp>19.0</ns3:atemp>
          </ns3:TrackPointExtension>
        </extensions>
      </trkpt>
      <trkpt lat="42.6030950434505939483642578125" lon="19.88781072199344635009765625">
        <ele>2192.39990234375</ele>
        <time>2026-06-16T10:20:48.000Z</time>
        <extensions>
          <ns3:TrackPointExtension>
            <ns3:atemp>19.0</ns3:atemp>
          </ns3:TrackPointExtension>
        </extensions>
      </trkpt>
      <trkpt lat="42.6030950434505939483642578125" lon="19.88781072199344635009765625">
        <ele>2192.39990234375</ele>
        <time>2026-06-16T10:20:49.000Z</time>
        <extensions>
          <ns3:TrackPointExtension>
            <ns3:atemp>19.0</ns3:atemp>
          </ns3:TrackPointExtension>
        </extensions>
      </trkpt>
      <trkpt lat="42.6030950434505939483642578125" lon="19.88781072199344635009765625">
        <ele>2192.39990234375</ele>
        <time>2026-06-16T10:20:50.000Z</time>
        <extensions>
          <ns3:TrackPointExtension>
            <ns3:atemp>19.0</ns3:atemp>
          </ns3:TrackPointExtension>
        </extensions>
      </trkpt>
      <trkpt lat="42.6030950434505939483642578125" lon="19.88781072199344635009765625">
        <ele>2192.39990234375</ele>
        <time>2026-06-16T10:20:51.000Z</time>
        <extensions>
          <ns3:TrackPointExtension>
            <ns3:atemp>19.0</ns3:atemp>
          </ns3:TrackPointExtension>
        </extensions>
      </trkpt>
      <trkpt lat="42.6030950434505939483642578125" lon="19.88781072199344635009765625">
        <ele>2192.39990234375</ele>
        <time>2026-06-16T10:20:52.000Z</time>
        <extensions>
          <ns3:TrackPointExtension>
            <ns3:atemp>19.0</ns3:atemp>
          </ns3:TrackPointExtension>
        </extensions>
      </trkpt>
      <trkpt lat="42.6030950434505939483642578125" lon="19.88781072199344635009765625">
        <ele>2192.39990234375</ele>
        <time>2026-06-16T10:20:53.000Z</time>
        <extensions>
          <ns3:TrackPointExtension>
            <ns3:atemp>19.0</ns3:atemp>
          </ns3:TrackPointExtension>
        </extensions>
      </trkpt>
      <trkpt lat="42.6030950434505939483642578125" lon="19.88781072199344635009765625">
        <ele>2192.39990234375</ele>
        <time>2026-06-16T10:20:54.000Z</time>
        <extensions>
          <ns3:TrackPointExtension>
            <ns3:atemp>19.0</ns3:atemp>
          </ns3:TrackPointExtension>
        </extensions>
      </trkpt>
      <trkpt lat="42.6030950434505939483642578125" lon="19.88781072199344635009765625">
        <ele>2192.39990234375</ele>
        <time>2026-06-16T10:20:55.000Z</time>
        <extensions>
          <ns3:TrackPointExtension>
            <ns3:atemp>19.0</ns3:atemp>
          </ns3:TrackPointExtension>
        </extensions>
      </trkpt>
      <trkpt lat="42.6030950434505939483642578125" lon="19.88781072199344635009765625">
        <ele>2192.39990234375</ele>
        <time>2026-06-16T10:20:56.000Z</time>
        <extensions>
          <ns3:TrackPointExtension>
            <ns3:atemp>19.0</ns3:atemp>
          </ns3:TrackPointExtension>
        </extensions>
      </trkpt>
      <trkpt lat="42.6030950434505939483642578125" lon="19.88781072199344635009765625">
        <ele>2192.39990234375</ele>
        <time>2026-06-16T10:20:57.000Z</time>
        <extensions>
          <ns3:TrackPointExtension>
            <ns3:atemp>19.0</ns3:atemp>
          </ns3:TrackPointExtension>
        </extensions>
      </trkpt>
      <trkpt lat="42.6030950434505939483642578125" lon="19.88781072199344635009765625">
        <ele>2192.39990234375</ele>
        <time>2026-06-16T10:20:58.000Z</time>
        <extensions>
          <ns3:TrackPointExtension>
            <ns3:atemp>19.0</ns3:atemp>
          </ns3:TrackPointExtension>
        </extensions>
      </trkpt>
      <trkpt lat="42.6030950434505939483642578125" lon="19.88781072199344635009765625">
        <ele>2192.39990234375</ele>
        <time>2026-06-16T10:20:59.000Z</time>
        <extensions>
          <ns3:TrackPointExtension>
            <ns3:atemp>19.0</ns3:atemp>
          </ns3:TrackPointExtension>
        </extensions>
      </trkpt>
      <trkpt lat="42.6030950434505939483642578125" lon="19.88781072199344635009765625">
        <ele>2192.39990234375</ele>
        <time>2026-06-16T10:21:00.000Z</time>
        <extensions>
          <ns3:TrackPointExtension>
            <ns3:atemp>19.0</ns3:atemp>
          </ns3:TrackPointExtension>
        </extensions>
      </trkpt>
      <trkpt lat="42.6030950434505939483642578125" lon="19.88781072199344635009765625">
        <ele>2192.39990234375</ele>
        <time>2026-06-16T10:21:01.000Z</time>
        <extensions>
          <ns3:TrackPointExtension>
            <ns3:atemp>19.0</ns3:atemp>
          </ns3:TrackPointExtension>
        </extensions>
      </trkpt>
      <trkpt lat="42.6030950434505939483642578125" lon="19.88781072199344635009765625">
        <ele>2192.39990234375</ele>
        <time>2026-06-16T10:21:02.000Z</time>
        <extensions>
          <ns3:TrackPointExtension>
            <ns3:atemp>20.0</ns3:atemp>
          </ns3:TrackPointExtension>
        </extensions>
      </trkpt>
      <trkpt lat="42.6030950434505939483642578125" lon="19.88781072199344635009765625">
        <ele>2192.39990234375</ele>
        <time>2026-06-16T10:21:03.000Z</time>
        <extensions>
          <ns3:TrackPointExtension>
            <ns3:atemp>19.0</ns3:atemp>
          </ns3:TrackPointExtension>
        </extensions>
      </trkpt>
      <trkpt lat="42.6030950434505939483642578125" lon="19.88781072199344635009765625">
        <ele>2192.39990234375</ele>
        <time>2026-06-16T10:21:04.000Z</time>
        <extensions>
          <ns3:TrackPointExtension>
            <ns3:atemp>19.0</ns3:atemp>
          </ns3:TrackPointExtension>
        </extensions>
      </trkpt>
      <trkpt lat="42.6030950434505939483642578125" lon="19.88781072199344635009765625">
        <ele>2192.39990234375</ele>
        <time>2026-06-16T10:21:05.000Z</time>
        <extensions>
          <ns3:TrackPointExtension>
            <ns3:atemp>19.0</ns3:atemp>
          </ns3:TrackPointExtension>
        </extensions>
      </trkpt>
      <trkpt lat="42.6030950434505939483642578125" lon="19.88781072199344635009765625">
        <ele>2192.39990234375</ele>
        <time>2026-06-16T10:21:06.000Z</time>
        <extensions>
          <ns3:TrackPointExtension>
            <ns3:atemp>19.0</ns3:atemp>
          </ns3:TrackPointExtension>
        </extensions>
      </trkpt>
      <trkpt lat="42.6030950434505939483642578125" lon="19.88781072199344635009765625">
        <ele>2192.39990234375</ele>
        <time>2026-06-16T10:21:07.000Z</time>
        <extensions>
          <ns3:TrackPointExtension>
            <ns3:atemp>19.0</ns3:atemp>
          </ns3:TrackPointExtension>
        </extensions>
      </trkpt>
      <trkpt lat="42.6030950434505939483642578125" lon="19.88781072199344635009765625">
        <ele>2189.199951171875</ele>
        <time>2026-06-16T10:21:08.000Z</time>
        <extensions>
          <ns3:TrackPointExtension>
            <ns3:atemp>20.0</ns3:atemp>
          </ns3:TrackPointExtension>
        </extensions>
      </trkpt>
      <trkpt lat="42.6030950434505939483642578125" lon="19.88781072199344635009765625">
        <ele>2189.199951171875</ele>
        <time>2026-06-16T10:21:09.000Z</time>
        <extensions>
          <ns3:TrackPointExtension>
            <ns3:atemp>20.0</ns3:atemp>
          </ns3:TrackPointExtension>
        </extensions>
      </trkpt>
      <trkpt lat="42.6030950434505939483642578125" lon="19.88781072199344635009765625">
        <ele>2189.199951171875</ele>
        <time>2026-06-16T10:21:10.000Z</time>
        <extensions>
          <ns3:TrackPointExtension>
            <ns3:atemp>20.0</ns3:atemp>
          </ns3:TrackPointExtension>
        </extensions>
      </trkpt>
      <trkpt lat="42.6030950434505939483642578125" lon="19.88781072199344635009765625">
        <ele>2189.199951171875</ele>
        <time>2026-06-16T10:21:11.000Z</time>
        <extensions>
          <ns3:TrackPointExtension>
            <ns3:atemp>20.0</ns3:atemp>
          </ns3:TrackPointExtension>
        </extensions>
      </trkpt>
      <trkpt lat="42.6030950434505939483642578125" lon="19.88781072199344635009765625">
        <ele>2189.199951171875</ele>
        <time>2026-06-16T10:21:12.000Z</time>
        <extensions>
          <ns3:TrackPointExtension>
            <ns3:atemp>20.0</ns3:atemp>
          </ns3:TrackPointExtension>
        </extensions>
      </trkpt>
      <trkpt lat="42.6030950434505939483642578125" lon="19.88781072199344635009765625">
        <ele>2189.199951171875</ele>
        <time>2026-06-16T10:21:13.000Z</time>
        <extensions>
          <ns3:TrackPointExtension>
            <ns3:atemp>20.0</ns3:atemp>
          </ns3:TrackPointExtension>
        </extensions>
      </trkpt>
      <trkpt lat="42.6030950434505939483642578125" lon="19.88781072199344635009765625">
        <ele>2189.199951171875</ele>
        <time>2026-06-16T10:21:14.000Z</time>
        <extensions>
          <ns3:TrackPointExtension>
            <ns3:atemp>20.0</ns3:atemp>
          </ns3:TrackPointExtension>
        </extensions>
      </trkpt>
      <trkpt lat="42.6030950434505939483642578125" lon="19.88781072199344635009765625">
        <ele>2189</ele>
        <time>2026-06-16T10:21:15.000Z</time>
        <extensions>
          <ns3:TrackPointExtension>
            <ns3:atemp>20.0</ns3:atemp>
          </ns3:TrackPointExtension>
        </extensions>
      </trkpt>
      <trkpt lat="42.6030950434505939483642578125" lon="19.88781072199344635009765625">
        <ele>2189</ele>
        <time>2026-06-16T10:21:16.000Z</time>
        <extensions>
          <ns3:TrackPointExtension>
            <ns3:atemp>20.0</ns3:atemp>
          </ns3:TrackPointExtension>
        </extensions>
      </trkpt>
      <trkpt lat="42.6030950434505939483642578125" lon="19.88781072199344635009765625">
        <ele>2189</ele>
        <time>2026-06-16T10:21:17.000Z</time>
        <extensions>
          <ns3:TrackPointExtension>
            <ns3:atemp>20.0</ns3:atemp>
          </ns3:TrackPointExtension>
        </extensions>
      </trkpt>
      <trkpt lat="42.6030950434505939483642578125" lon="19.88781072199344635009765625">
        <ele>2189</ele>
        <time>2026-06-16T10:21:18.000Z</time>
        <extensions>
          <ns3:TrackPointExtension>
            <ns3:atemp>20.0</ns3:atemp>
          </ns3:TrackPointExtension>
        </extensions>
      </trkpt>
      <trkpt lat="42.6030950434505939483642578125" lon="19.88781072199344635009765625">
        <ele>2189</ele>
        <time>2026-06-16T10:21:19.000Z</time>
        <extensions>
          <ns3:TrackPointExtension>
            <ns3:atemp>20.0</ns3:atemp>
          </ns3:TrackPointExtension>
        </extensions>
      </trkpt>
      <trkpt lat="42.6030950434505939483642578125" lon="19.88781072199344635009765625">
        <ele>2189</ele>
        <time>2026-06-16T10:21:20.000Z</time>
        <extensions>
          <ns3:TrackPointExtension>
            <ns3:atemp>20.0</ns3:atemp>
          </ns3:TrackPointExtension>
        </extensions>
      </trkpt>
      <trkpt lat="42.6030950434505939483642578125" lon="19.88781072199344635009765625">
        <ele>2189</ele>
        <time>2026-06-16T10:21:21.000Z</time>
        <extensions>
          <ns3:TrackPointExtension>
            <ns3:atemp>20.0</ns3:atemp>
          </ns3:TrackPointExtension>
        </extensions>
      </trkpt>
      <trkpt lat="42.6030950434505939483642578125" lon="19.88781072199344635009765625">
        <ele>2189</ele>
        <time>2026-06-16T10:21:22.000Z</time>
        <extensions>
          <ns3:TrackPointExtension>
            <ns3:atemp>20.0</ns3:atemp>
          </ns3:TrackPointExtension>
        </extensions>
      </trkpt>
      <trkpt lat="42.6030950434505939483642578125" lon="19.88781072199344635009765625">
        <ele>2189</ele>
        <time>2026-06-16T10:21:23.000Z</time>
        <extensions>
          <ns3:TrackPointExtension>
            <ns3:atemp>20.0</ns3:atemp>
          </ns3:TrackPointExtension>
        </extensions>
      </trkpt>
      <trkpt lat="42.6030950434505939483642578125" lon="19.88781072199344635009765625">
        <ele>2189</ele>
        <time>2026-06-16T10:21:24.000Z</time>
        <extensions>
          <ns3:TrackPointExtension>
            <ns3:atemp>20.0</ns3:atemp>
          </ns3:TrackPointExtension>
        </extensions>
      </trkpt>
      <trkpt lat="42.6030950434505939483642578125" lon="19.88781072199344635009765625">
        <ele>2189</ele>
        <time>2026-06-16T10:21:25.000Z</time>
        <extensions>
          <ns3:TrackPointExtension>
            <ns3:atemp>20.0</ns3:atemp>
          </ns3:TrackPointExtension>
        </extensions>
      </trkpt>
      <trkpt lat="42.6030950434505939483642578125" lon="19.88781072199344635009765625">
        <ele>2189</ele>
        <time>2026-06-16T10:21:26.000Z</time>
        <extensions>
          <ns3:TrackPointExtension>
            <ns3:atemp>20.0</ns3:atemp>
          </ns3:TrackPointExtension>
        </extensions>
      </trkpt>
      <trkpt lat="42.6030950434505939483642578125" lon="19.88781072199344635009765625">
        <ele>2189</ele>
        <time>2026-06-16T10:21:27.000Z</time>
        <extensions>
          <ns3:TrackPointExtension>
            <ns3:atemp>20.0</ns3:atemp>
          </ns3:TrackPointExtension>
        </extensions>
      </trkpt>
      <trkpt lat="42.6030950434505939483642578125" lon="19.88781072199344635009765625">
        <ele>2189</ele>
        <time>2026-06-16T10:21:28.000Z</time>
        <extensions>
          <ns3:TrackPointExtension>
            <ns3:atemp>20.0</ns3:atemp>
          </ns3:TrackPointExtension>
        </extensions>
      </trkpt>
      <trkpt lat="42.6030950434505939483642578125" lon="19.88781072199344635009765625">
        <ele>2188.800048828125</ele>
        <time>2026-06-16T10:21:29.000Z</time>
        <extensions>
          <ns3:TrackPointExtension>
            <ns3:atemp>20.0</ns3:atemp>
          </ns3:TrackPointExtension>
        </extensions>
      </trkpt>
      <trkpt lat="42.6030950434505939483642578125" lon="19.88781072199344635009765625">
        <ele>2188.800048828125</ele>
        <time>2026-06-16T10:21:30.000Z</time>
        <extensions>
          <ns3:TrackPointExtension>
            <ns3:atemp>20.0</ns3:atemp>
          </ns3:TrackPointExtension>
        </extensions>
      </trkpt>
      <trkpt lat="42.6030950434505939483642578125" lon="19.88781072199344635009765625">
        <ele>2188.800048828125</ele>
        <time>2026-06-16T10:21:31.000Z</time>
        <extensions>
          <ns3:TrackPointExtension>
            <ns3:atemp>20.0</ns3:atemp>
          </ns3:TrackPointExtension>
        </extensions>
      </trkpt>
      <trkpt lat="42.6030950434505939483642578125" lon="19.88781072199344635009765625">
        <ele>2188.800048828125</ele>
        <time>2026-06-16T10:21:32.000Z</time>
        <extensions>
          <ns3:TrackPointExtension>
            <ns3:atemp>20.0</ns3:atemp>
          </ns3:TrackPointExtension>
        </extensions>
      </trkpt>
      <trkpt lat="42.6030950434505939483642578125" lon="19.88781072199344635009765625">
        <ele>2188.800048828125</ele>
        <time>2026-06-16T10:21:33.000Z</time>
        <extensions>
          <ns3:TrackPointExtension>
            <ns3:atemp>20.0</ns3:atemp>
          </ns3:TrackPointExtension>
        </extensions>
      </trkpt>
      <trkpt lat="42.6030950434505939483642578125" lon="19.88781072199344635009765625">
        <ele>2188.800048828125</ele>
        <time>2026-06-16T10:21:34.000Z</time>
        <extensions>
          <ns3:TrackPointExtension>
            <ns3:atemp>20.0</ns3:atemp>
          </ns3:TrackPointExtension>
        </extensions>
      </trkpt>
      <trkpt lat="42.6030950434505939483642578125" lon="19.88781072199344635009765625">
        <ele>2188.800048828125</ele>
        <time>2026-06-16T10:21:35.000Z</time>
        <extensions>
          <ns3:TrackPointExtension>
            <ns3:atemp>20.0</ns3:atemp>
          </ns3:TrackPointExtension>
        </extensions>
      </trkpt>
      <trkpt lat="42.6030950434505939483642578125" lon="19.88781072199344635009765625">
        <ele>2188.800048828125</ele>
        <time>2026-06-16T10:21:36.000Z</time>
        <extensions>
          <ns3:TrackPointExtension>
            <ns3:atemp>20.0</ns3:atemp>
          </ns3:TrackPointExtension>
        </extensions>
      </trkpt>
      <trkpt lat="42.6030950434505939483642578125" lon="19.88781072199344635009765625">
        <ele>2188.800048828125</ele>
        <time>2026-06-16T10:21:37.000Z</time>
        <extensions>
          <ns3:TrackPointExtension>
            <ns3:atemp>20.0</ns3:atemp>
          </ns3:TrackPointExtension>
        </extensions>
      </trkpt>
      <trkpt lat="42.6030950434505939483642578125" lon="19.88781072199344635009765625">
        <ele>2188.800048828125</ele>
        <time>2026-06-16T10:21:38.000Z</time>
        <extensions>
          <ns3:TrackPointExtension>
            <ns3:atemp>20.0</ns3:atemp>
          </ns3:TrackPointExtension>
        </extensions>
      </trkpt>
      <trkpt lat="42.6030950434505939483642578125" lon="19.88781072199344635009765625">
        <ele>2188.800048828125</ele>
        <time>2026-06-16T10:21:39.000Z</time>
        <extensions>
          <ns3:TrackPointExtension>
            <ns3:atemp>20.0</ns3:atemp>
          </ns3:TrackPointExtension>
        </extensions>
      </trkpt>
      <trkpt lat="42.6030950434505939483642578125" lon="19.88781072199344635009765625">
        <ele>2188.800048828125</ele>
        <time>2026-06-16T10:21:40.000Z</time>
        <extensions>
          <ns3:TrackPointExtension>
            <ns3:atemp>20.0</ns3:atemp>
          </ns3:TrackPointExtension>
        </extensions>
      </trkpt>
      <trkpt lat="42.6030950434505939483642578125" lon="19.88781072199344635009765625">
        <ele>2188.800048828125</ele>
        <time>2026-06-16T10:21:41.000Z</time>
        <extensions>
          <ns3:TrackPointExtension>
            <ns3:atemp>20.0</ns3:atemp>
          </ns3:TrackPointExtension>
        </extensions>
      </trkpt>
      <trkpt lat="42.6030950434505939483642578125" lon="19.88781072199344635009765625">
        <ele>2188.800048828125</ele>
        <time>2026-06-16T10:21:42.000Z</time>
        <extensions>
          <ns3:TrackPointExtension>
            <ns3:atemp>20.0</ns3:atemp>
          </ns3:TrackPointExtension>
        </extensions>
      </trkpt>
      <trkpt lat="42.6030950434505939483642578125" lon="19.88781072199344635009765625">
        <ele>2188.800048828125</ele>
        <time>2026-06-16T10:21:43.000Z</time>
        <extensions>
          <ns3:TrackPointExtension>
            <ns3:atemp>20.0</ns3:atemp>
          </ns3:TrackPointExtension>
        </extensions>
      </trkpt>
      <trkpt lat="42.6030950434505939483642578125" lon="19.88781072199344635009765625">
        <ele>2188.800048828125</ele>
        <time>2026-06-16T10:21:44.000Z</time>
        <extensions>
          <ns3:TrackPointExtension>
            <ns3:atemp>20.0</ns3:atemp>
          </ns3:TrackPointExtension>
        </extensions>
      </trkpt>
      <trkpt lat="42.6030950434505939483642578125" lon="19.88781072199344635009765625">
        <ele>2188.800048828125</ele>
        <time>2026-06-16T10:21:45.000Z</time>
        <extensions>
          <ns3:TrackPointExtension>
            <ns3:atemp>20.0</ns3:atemp>
          </ns3:TrackPointExtension>
        </extensions>
      </trkpt>
      <trkpt lat="42.6030950434505939483642578125" lon="19.88781072199344635009765625">
        <ele>2188.800048828125</ele>
        <time>2026-06-16T10:21:46.000Z</time>
        <extensions>
          <ns3:TrackPointExtension>
            <ns3:atemp>20.0</ns3:atemp>
          </ns3:TrackPointExtension>
        </extensions>
      </trkpt>
      <trkpt lat="42.6030950434505939483642578125" lon="19.88781072199344635009765625">
        <ele>2188.800048828125</ele>
        <time>2026-06-16T10:21:47.000Z</time>
        <extensions>
          <ns3:TrackPointExtension>
            <ns3:atemp>20.0</ns3:atemp>
          </ns3:TrackPointExtension>
        </extensions>
      </trkpt>
      <trkpt lat="42.6030950434505939483642578125" lon="19.88781072199344635009765625">
        <ele>2188.800048828125</ele>
        <time>2026-06-16T10:21:48.000Z</time>
        <extensions>
          <ns3:TrackPointExtension>
            <ns3:atemp>20.0</ns3:atemp>
          </ns3:TrackPointExtension>
        </extensions>
      </trkpt>
      <trkpt lat="42.6030950434505939483642578125" lon="19.88781072199344635009765625">
        <ele>2188.800048828125</ele>
        <time>2026-06-16T10:21:49.000Z</time>
        <extensions>
          <ns3:TrackPointExtension>
            <ns3:atemp>20.0</ns3:atemp>
          </ns3:TrackPointExtension>
        </extensions>
      </trkpt>
      <trkpt lat="42.6030950434505939483642578125" lon="19.88781072199344635009765625">
        <ele>2188.800048828125</ele>
        <time>2026-06-16T10:21:50.000Z</time>
        <extensions>
          <ns3:TrackPointExtension>
            <ns3:atemp>20.0</ns3:atemp>
          </ns3:TrackPointExtension>
        </extensions>
      </trkpt>
      <trkpt lat="42.6030950434505939483642578125" lon="19.88781072199344635009765625">
        <ele>2188.800048828125</ele>
        <time>2026-06-16T10:21:51.000Z</time>
        <extensions>
          <ns3:TrackPointExtension>
            <ns3:atemp>20.0</ns3:atemp>
          </ns3:TrackPointExtension>
        </extensions>
      </trkpt>
      <trkpt lat="42.6030950434505939483642578125" lon="19.88781072199344635009765625">
        <ele>2188.60009765625</ele>
        <time>2026-06-16T10:21:52.000Z</time>
        <extensions>
          <ns3:TrackPointExtension>
            <ns3:atemp>20.0</ns3:atemp>
          </ns3:TrackPointExtension>
        </extensions>
      </trkpt>
      <trkpt lat="42.6030950434505939483642578125" lon="19.88781072199344635009765625">
        <ele>2188.60009765625</ele>
        <time>2026-06-16T10:21:53.000Z</time>
        <extensions>
          <ns3:TrackPointExtension>
            <ns3:atemp>20.0</ns3:atemp>
          </ns3:TrackPointExtension>
        </extensions>
      </trkpt>
      <trkpt lat="42.6030950434505939483642578125" lon="19.88781072199344635009765625">
        <ele>2188.60009765625</ele>
        <time>2026-06-16T10:21:54.000Z</time>
        <extensions>
          <ns3:TrackPointExtension>
            <ns3:atemp>20.0</ns3:atemp>
          </ns3:TrackPointExtension>
        </extensions>
      </trkpt>
      <trkpt lat="42.6030950434505939483642578125" lon="19.88781072199344635009765625">
        <ele>2188.60009765625</ele>
        <time>2026-06-16T10:21:55.000Z</time>
        <extensions>
          <ns3:TrackPointExtension>
            <ns3:atemp>20.0</ns3:atemp>
          </ns3:TrackPointExtension>
        </extensions>
      </trkpt>
      <trkpt lat="42.6030950434505939483642578125" lon="19.88781072199344635009765625">
        <ele>2188.60009765625</ele>
        <time>2026-06-16T10:21:56.000Z</time>
        <extensions>
          <ns3:TrackPointExtension>
            <ns3:atemp>20.0</ns3:atemp>
          </ns3:TrackPointExtension>
        </extensions>
      </trkpt>
      <trkpt lat="42.6030950434505939483642578125" lon="19.88781072199344635009765625">
        <ele>2188.60009765625</ele>
        <time>2026-06-16T10:21:57.000Z</time>
        <extensions>
          <ns3:TrackPointExtension>
            <ns3:atemp>20.0</ns3:atemp>
          </ns3:TrackPointExtension>
        </extensions>
      </trkpt>
      <trkpt lat="42.6030950434505939483642578125" lon="19.88781072199344635009765625">
        <ele>2188.60009765625</ele>
        <time>2026-06-16T10:21:58.000Z</time>
        <extensions>
          <ns3:TrackPointExtension>
            <ns3:atemp>20.0</ns3:atemp>
          </ns3:TrackPointExtension>
        </extensions>
      </trkpt>
      <trkpt lat="42.6030950434505939483642578125" lon="19.88781072199344635009765625">
        <ele>2188.60009765625</ele>
        <time>2026-06-16T10:21:59.000Z</time>
        <extensions>
          <ns3:TrackPointExtension>
            <ns3:atemp>20.0</ns3:atemp>
          </ns3:TrackPointExtension>
        </extensions>
      </trkpt>
      <trkpt lat="42.6030950434505939483642578125" lon="19.88781072199344635009765625">
        <ele>2188.60009765625</ele>
        <time>2026-06-16T10:22:00.000Z</time>
        <extensions>
          <ns3:TrackPointExtension>
            <ns3:atemp>20.0</ns3:atemp>
          </ns3:TrackPointExtension>
        </extensions>
      </trkpt>
      <trkpt lat="42.6030950434505939483642578125" lon="19.88781072199344635009765625">
        <ele>2188.60009765625</ele>
        <time>2026-06-16T10:22:01.000Z</time>
        <extensions>
          <ns3:TrackPointExtension>
            <ns3:atemp>20.0</ns3:atemp>
          </ns3:TrackPointExtension>
        </extensions>
      </trkpt>
      <trkpt lat="42.6030950434505939483642578125" lon="19.88781072199344635009765625">
        <ele>2188.60009765625</ele>
        <time>2026-06-16T10:22:02.000Z</time>
        <extensions>
          <ns3:TrackPointExtension>
            <ns3:atemp>20.0</ns3:atemp>
          </ns3:TrackPointExtension>
        </extensions>
      </trkpt>
      <trkpt lat="42.6030950434505939483642578125" lon="19.88781072199344635009765625">
        <ele>2188.60009765625</ele>
        <time>2026-06-16T10:22:03.000Z</time>
        <extensions>
          <ns3:TrackPointExtension>
            <ns3:atemp>20.0</ns3:atemp>
          </ns3:TrackPointExtension>
        </extensions>
      </trkpt>
      <trkpt lat="42.6030950434505939483642578125" lon="19.88781072199344635009765625">
        <ele>2188.39990234375</ele>
        <time>2026-06-16T10:22:04.000Z</time>
        <extensions>
          <ns3:TrackPointExtension>
            <ns3:atemp>20.0</ns3:atemp>
          </ns3:TrackPointExtension>
        </extensions>
      </trkpt>
      <trkpt lat="42.6030950434505939483642578125" lon="19.88781072199344635009765625">
        <ele>2188.39990234375</ele>
        <time>2026-06-16T10:22:05.000Z</time>
        <extensions>
          <ns3:TrackPointExtension>
            <ns3:atemp>20.0</ns3:atemp>
          </ns3:TrackPointExtension>
        </extensions>
      </trkpt>
      <trkpt lat="42.6030950434505939483642578125" lon="19.88781072199344635009765625">
        <ele>2188.199951171875</ele>
        <time>2026-06-16T10:22:06.000Z</time>
        <extensions>
          <ns3:TrackPointExtension>
            <ns3:atemp>20.0</ns3:atemp>
          </ns3:TrackPointExtension>
        </extensions>
      </trkpt>
      <trkpt lat="42.6030950434505939483642578125" lon="19.88781072199344635009765625">
        <ele>2188.199951171875</ele>
        <time>2026-06-16T10:22:07.000Z</time>
        <extensions>
          <ns3:TrackPointExtension>
            <ns3:atemp>20.0</ns3:atemp>
          </ns3:TrackPointExtension>
        </extensions>
      </trkpt>
      <trkpt lat="42.6030950434505939483642578125" lon="19.88781072199344635009765625">
        <ele>2188.199951171875</ele>
        <time>2026-06-16T10:22:08.000Z</time>
        <extensions>
          <ns3:TrackPointExtension>
            <ns3:atemp>20.0</ns3:atemp>
          </ns3:TrackPointExtension>
        </extensions>
      </trkpt>
      <trkpt lat="42.6030950434505939483642578125" lon="19.88781072199344635009765625">
        <ele>2188.199951171875</ele>
        <time>2026-06-16T10:22:09.000Z</time>
        <extensions>
          <ns3:TrackPointExtension>
            <ns3:atemp>20.0</ns3:atemp>
          </ns3:TrackPointExtension>
        </extensions>
      </trkpt>
      <trkpt lat="42.6030950434505939483642578125" lon="19.88781072199344635009765625">
        <ele>2188.199951171875</ele>
        <time>2026-06-16T10:22:10.000Z</time>
        <extensions>
          <ns3:TrackPointExtension>
            <ns3:atemp>20.0</ns3:atemp>
          </ns3:TrackPointExtension>
        </extensions>
      </trkpt>
      <trkpt lat="42.6030950434505939483642578125" lon="19.88781072199344635009765625">
        <ele>2188.199951171875</ele>
        <time>2026-06-16T10:22:11.000Z</time>
        <extensions>
          <ns3:TrackPointExtension>
            <ns3:atemp>20.0</ns3:atemp>
          </ns3:TrackPointExtension>
        </extensions>
      </trkpt>
      <trkpt lat="42.6030950434505939483642578125" lon="19.88781072199344635009765625">
        <ele>2188.199951171875</ele>
        <time>2026-06-16T10:22:12.000Z</time>
        <extensions>
          <ns3:TrackPointExtension>
            <ns3:atemp>20.0</ns3:atemp>
          </ns3:TrackPointExtension>
        </extensions>
      </trkpt>
      <trkpt lat="42.6030950434505939483642578125" lon="19.88781072199344635009765625">
        <ele>2188.199951171875</ele>
        <time>2026-06-16T10:22:13.000Z</time>
        <extensions>
          <ns3:TrackPointExtension>
            <ns3:atemp>20.0</ns3:atemp>
          </ns3:TrackPointExtension>
        </extensions>
      </trkpt>
      <trkpt lat="42.6030950434505939483642578125" lon="19.88781072199344635009765625">
        <ele>2188.199951171875</ele>
        <time>2026-06-16T10:22:14.000Z</time>
        <extensions>
          <ns3:TrackPointExtension>
            <ns3:atemp>20.0</ns3:atemp>
          </ns3:TrackPointExtension>
        </extensions>
      </trkpt>
      <trkpt lat="42.6030950434505939483642578125" lon="19.88781072199344635009765625">
        <ele>2188.199951171875</ele>
        <time>2026-06-16T10:22:15.000Z</time>
        <extensions>
          <ns3:TrackPointExtension>
            <ns3:atemp>20.0</ns3:atemp>
          </ns3:TrackPointExtension>
        </extensions>
      </trkpt>
      <trkpt lat="42.6030950434505939483642578125" lon="19.88781072199344635009765625">
        <ele>2188.199951171875</ele>
        <time>2026-06-16T10:22:16.000Z</time>
        <extensions>
          <ns3:TrackPointExtension>
            <ns3:atemp>20.0</ns3:atemp>
          </ns3:TrackPointExtension>
        </extensions>
      </trkpt>
      <trkpt lat="42.6030950434505939483642578125" lon="19.88781072199344635009765625">
        <ele>2188.199951171875</ele>
        <time>2026-06-16T10:22:17.000Z</time>
        <extensions>
          <ns3:TrackPointExtension>
            <ns3:atemp>20.0</ns3:atemp>
          </ns3:TrackPointExtension>
        </extensions>
      </trkpt>
      <trkpt lat="42.6030950434505939483642578125" lon="19.88781072199344635009765625">
        <ele>2188.199951171875</ele>
        <time>2026-06-16T10:22:18.000Z</time>
        <extensions>
          <ns3:TrackPointExtension>
            <ns3:atemp>20.0</ns3:atemp>
          </ns3:TrackPointExtension>
        </extensions>
      </trkpt>
      <trkpt lat="42.6030950434505939483642578125" lon="19.88781072199344635009765625">
        <ele>2188.199951171875</ele>
        <time>2026-06-16T10:22:19.000Z</time>
        <extensions>
          <ns3:TrackPointExtension>
            <ns3:atemp>20.0</ns3:atemp>
          </ns3:TrackPointExtension>
        </extensions>
      </trkpt>
      <trkpt lat="42.6030950434505939483642578125" lon="19.88781072199344635009765625">
        <ele>2188.199951171875</ele>
        <time>2026-06-16T10:22:20.000Z</time>
        <extensions>
          <ns3:TrackPointExtension>
            <ns3:atemp>20.0</ns3:atemp>
          </ns3:TrackPointExtension>
        </extensions>
      </trkpt>
      <trkpt lat="42.6030950434505939483642578125" lon="19.88781072199344635009765625">
        <ele>2188.199951171875</ele>
        <time>2026-06-16T10:22:21.000Z</time>
        <extensions>
          <ns3:TrackPointExtension>
            <ns3:atemp>20.0</ns3:atemp>
          </ns3:TrackPointExtension>
        </extensions>
      </trkpt>
      <trkpt lat="42.6030950434505939483642578125" lon="19.88781072199344635009765625">
        <ele>2188.199951171875</ele>
        <time>2026-06-16T10:22:22.000Z</time>
        <extensions>
          <ns3:TrackPointExtension>
            <ns3:atemp>20.0</ns3:atemp>
          </ns3:TrackPointExtension>
        </extensions>
      </trkpt>
      <trkpt lat="42.6030950434505939483642578125" lon="19.88781072199344635009765625">
        <ele>2188.199951171875</ele>
        <time>2026-06-16T10:22:23.000Z</time>
        <extensions>
          <ns3:TrackPointExtension>
            <ns3:atemp>20.0</ns3:atemp>
          </ns3:TrackPointExtension>
        </extensions>
      </trkpt>
      <trkpt lat="42.6030950434505939483642578125" lon="19.88781072199344635009765625">
        <ele>2188.199951171875</ele>
        <time>2026-06-16T10:22:24.000Z</time>
        <extensions>
          <ns3:TrackPointExtension>
            <ns3:atemp>20.0</ns3:atemp>
          </ns3:TrackPointExtension>
        </extensions>
      </trkpt>
      <trkpt lat="42.6030950434505939483642578125" lon="19.88781072199344635009765625">
        <ele>2188.199951171875</ele>
        <time>2026-06-16T10:22:25.000Z</time>
        <extensions>
          <ns3:TrackPointExtension>
            <ns3:atemp>20.0</ns3:atemp>
          </ns3:TrackPointExtension>
        </extensions>
      </trkpt>
      <trkpt lat="42.6030950434505939483642578125" lon="19.88781072199344635009765625">
        <ele>2188</ele>
        <time>2026-06-16T10:22:26.000Z</time>
        <extensions>
          <ns3:TrackPointExtension>
            <ns3:atemp>20.0</ns3:atemp>
          </ns3:TrackPointExtension>
        </extensions>
      </trkpt>
      <trkpt lat="42.6030950434505939483642578125" lon="19.88781072199344635009765625">
        <ele>2188</ele>
        <time>2026-06-16T10:22:27.000Z</time>
        <extensions>
          <ns3:TrackPointExtension>
            <ns3:atemp>20.0</ns3:atemp>
          </ns3:TrackPointExtension>
        </extensions>
      </trkpt>
      <trkpt lat="42.6030950434505939483642578125" lon="19.88781072199344635009765625">
        <ele>2188</ele>
        <time>2026-06-16T10:22:28.000Z</time>
        <extensions>
          <ns3:TrackPointExtension>
            <ns3:atemp>20.0</ns3:atemp>
          </ns3:TrackPointExtension>
        </extensions>
      </trkpt>
      <trkpt lat="42.6030950434505939483642578125" lon="19.88781072199344635009765625">
        <ele>2188</ele>
        <time>2026-06-16T10:22:29.000Z</time>
        <extensions>
          <ns3:TrackPointExtension>
            <ns3:atemp>20.0</ns3:atemp>
          </ns3:TrackPointExtension>
        </extensions>
      </trkpt>
      <trkpt lat="42.6030950434505939483642578125" lon="19.88781072199344635009765625">
        <ele>2188</ele>
        <time>2026-06-16T10:22:30.000Z</time>
        <extensions>
          <ns3:TrackPointExtension>
            <ns3:atemp>20.0</ns3:atemp>
          </ns3:TrackPointExtension>
        </extensions>
      </trkpt>
      <trkpt lat="42.6030950434505939483642578125" lon="19.88781072199344635009765625">
        <ele>2188</ele>
        <time>2026-06-16T10:22:31.000Z</time>
        <extensions>
          <ns3:TrackPointExtension>
            <ns3:atemp>20.0</ns3:atemp>
          </ns3:TrackPointExtension>
        </extensions>
      </trkpt>
      <trkpt lat="42.6030950434505939483642578125" lon="19.88781072199344635009765625">
        <ele>2188</ele>
        <time>2026-06-16T10:22:32.000Z</time>
        <extensions>
          <ns3:TrackPointExtension>
            <ns3:atemp>20.0</ns3:atemp>
          </ns3:TrackPointExtension>
        </extensions>
      </trkpt>
      <trkpt lat="42.6030950434505939483642578125" lon="19.88781072199344635009765625">
        <ele>2188</ele>
        <time>2026-06-16T10:22:33.000Z</time>
        <extensions>
          <ns3:TrackPointExtension>
            <ns3:atemp>20.0</ns3:atemp>
          </ns3:TrackPointExtension>
        </extensions>
      </trkpt>
      <trkpt lat="42.6030950434505939483642578125" lon="19.88781072199344635009765625">
        <ele>2187.800048828125</ele>
        <time>2026-06-16T10:22:34.000Z</time>
        <extensions>
          <ns3:TrackPointExtension>
            <ns3:atemp>20.0</ns3:atemp>
          </ns3:TrackPointExtension>
        </extensions>
      </trkpt>
      <trkpt lat="42.6030950434505939483642578125" lon="19.88781072199344635009765625">
        <ele>2187.800048828125</ele>
        <time>2026-06-16T10:22:35.000Z</time>
        <extensions>
          <ns3:TrackPointExtension>
            <ns3:atemp>20.0</ns3:atemp>
          </ns3:TrackPointExtension>
        </extensions>
      </trkpt>
      <trkpt lat="42.6030950434505939483642578125" lon="19.88781072199344635009765625">
        <ele>2187.800048828125</ele>
        <time>2026-06-16T10:22:36.000Z</time>
        <extensions>
          <ns3:TrackPointExtension>
            <ns3:atemp>20.0</ns3:atemp>
          </ns3:TrackPointExtension>
        </extensions>
      </trkpt>
      <trkpt lat="42.6030950434505939483642578125" lon="19.88781072199344635009765625">
        <ele>2187.800048828125</ele>
        <time>2026-06-16T10:22:37.000Z</time>
        <extensions>
          <ns3:TrackPointExtension>
            <ns3:atemp>20.0</ns3:atemp>
          </ns3:TrackPointExtension>
        </extensions>
      </trkpt>
      <trkpt lat="42.6030950434505939483642578125" lon="19.88781072199344635009765625">
        <ele>2187.800048828125</ele>
        <time>2026-06-16T10:22:38.000Z</time>
        <extensions>
          <ns3:TrackPointExtension>
            <ns3:atemp>20.0</ns3:atemp>
          </ns3:TrackPointExtension>
        </extensions>
      </trkpt>
      <trkpt lat="42.6030950434505939483642578125" lon="19.88781072199344635009765625">
        <ele>2187.800048828125</ele>
        <time>2026-06-16T10:22:39.000Z</time>
        <extensions>
          <ns3:TrackPointExtension>
            <ns3:atemp>20.0</ns3:atemp>
          </ns3:TrackPointExtension>
        </extensions>
      </trkpt>
      <trkpt lat="42.6030950434505939483642578125" lon="19.88781072199344635009765625">
        <ele>2187.800048828125</ele>
        <time>2026-06-16T10:22:40.000Z</time>
        <extensions>
          <ns3:TrackPointExtension>
            <ns3:atemp>20.0</ns3:atemp>
          </ns3:TrackPointExtension>
        </extensions>
      </trkpt>
      <trkpt lat="42.6030950434505939483642578125" lon="19.88781072199344635009765625">
        <ele>2187.800048828125</ele>
        <time>2026-06-16T10:22:41.000Z</time>
        <extensions>
          <ns3:TrackPointExtension>
            <ns3:atemp>20.0</ns3:atemp>
          </ns3:TrackPointExtension>
        </extensions>
      </trkpt>
      <trkpt lat="42.6030950434505939483642578125" lon="19.88781072199344635009765625">
        <ele>2187.800048828125</ele>
        <time>2026-06-16T10:22:42.000Z</time>
        <extensions>
          <ns3:TrackPointExtension>
            <ns3:atemp>20.0</ns3:atemp>
          </ns3:TrackPointExtension>
        </extensions>
      </trkpt>
      <trkpt lat="42.6030950434505939483642578125" lon="19.88781072199344635009765625">
        <ele>2187.800048828125</ele>
        <time>2026-06-16T10:22:43.000Z</time>
        <extensions>
          <ns3:TrackPointExtension>
            <ns3:atemp>20.0</ns3:atemp>
          </ns3:TrackPointExtension>
        </extensions>
      </trkpt>
      <trkpt lat="42.6030950434505939483642578125" lon="19.88781072199344635009765625">
        <ele>2187.800048828125</ele>
        <time>2026-06-16T10:22:44.000Z</time>
        <extensions>
          <ns3:TrackPointExtension>
            <ns3:atemp>20.0</ns3:atemp>
          </ns3:TrackPointExtension>
        </extensions>
      </trkpt>
      <trkpt lat="42.6030950434505939483642578125" lon="19.88781072199344635009765625">
        <ele>2187.800048828125</ele>
        <time>2026-06-16T10:22:45.000Z</time>
        <extensions>
          <ns3:TrackPointExtension>
            <ns3:atemp>20.0</ns3:atemp>
          </ns3:TrackPointExtension>
        </extensions>
      </trkpt>
      <trkpt lat="42.6030950434505939483642578125" lon="19.88781072199344635009765625">
        <ele>2187.60009765625</ele>
        <time>2026-06-16T10:22:46.000Z</time>
        <extensions>
          <ns3:TrackPointExtension>
            <ns3:atemp>20.0</ns3:atemp>
          </ns3:TrackPointExtension>
        </extensions>
      </trkpt>
      <trkpt lat="42.6030950434505939483642578125" lon="19.88781072199344635009765625">
        <ele>2187.60009765625</ele>
        <time>2026-06-16T10:22:47.000Z</time>
        <extensions>
          <ns3:TrackPointExtension>
            <ns3:atemp>20.0</ns3:atemp>
          </ns3:TrackPointExtension>
        </extensions>
      </trkpt>
      <trkpt lat="42.6030950434505939483642578125" lon="19.88781072199344635009765625">
        <ele>2187.60009765625</ele>
        <time>2026-06-16T10:22:48.000Z</time>
        <extensions>
          <ns3:TrackPointExtension>
            <ns3:atemp>20.0</ns3:atemp>
          </ns3:TrackPointExtension>
        </extensions>
      </trkpt>
      <trkpt lat="42.6030950434505939483642578125" lon="19.88781072199344635009765625">
        <ele>2187.60009765625</ele>
        <time>2026-06-16T10:22:49.000Z</time>
        <extensions>
          <ns3:TrackPointExtension>
            <ns3:atemp>20.0</ns3:atemp>
          </ns3:TrackPointExtension>
        </extensions>
      </trkpt>
      <trkpt lat="42.6030950434505939483642578125" lon="19.88781072199344635009765625">
        <ele>2187.60009765625</ele>
        <time>2026-06-16T10:22:50.000Z</time>
        <extensions>
          <ns3:TrackPointExtension>
            <ns3:atemp>20.0</ns3:atemp>
          </ns3:TrackPointExtension>
        </extensions>
      </trkpt>
      <trkpt lat="42.6030950434505939483642578125" lon="19.88781072199344635009765625">
        <ele>2187.60009765625</ele>
        <time>2026-06-16T10:22:51.000Z</time>
        <extensions>
          <ns3:TrackPointExtension>
            <ns3:atemp>20.0</ns3:atemp>
          </ns3:TrackPointExtension>
        </extensions>
      </trkpt>
      <trkpt lat="42.6030950434505939483642578125" lon="19.88781072199344635009765625">
        <ele>2187.60009765625</ele>
        <time>2026-06-16T10:22:52.000Z</time>
        <extensions>
          <ns3:TrackPointExtension>
            <ns3:atemp>20.0</ns3:atemp>
          </ns3:TrackPointExtension>
        </extensions>
      </trkpt>
      <trkpt lat="42.6030950434505939483642578125" lon="19.88781072199344635009765625">
        <ele>2187.60009765625</ele>
        <time>2026-06-16T10:22:53.000Z</time>
        <extensions>
          <ns3:TrackPointExtension>
            <ns3:atemp>20.0</ns3:atemp>
          </ns3:TrackPointExtension>
        </extensions>
      </trkpt>
      <trkpt lat="42.6030950434505939483642578125" lon="19.88781072199344635009765625">
        <ele>2187.60009765625</ele>
        <time>2026-06-16T10:22:54.000Z</time>
        <extensions>
          <ns3:TrackPointExtension>
            <ns3:atemp>20.0</ns3:atemp>
          </ns3:TrackPointExtension>
        </extensions>
      </trkpt>
      <trkpt lat="42.6030950434505939483642578125" lon="19.88781072199344635009765625">
        <ele>2187.60009765625</ele>
        <time>2026-06-16T10:22:55.000Z</time>
        <extensions>
          <ns3:TrackPointExtension>
            <ns3:atemp>20.0</ns3:atemp>
          </ns3:TrackPointExtension>
        </extensions>
      </trkpt>
      <trkpt lat="42.6030950434505939483642578125" lon="19.88781072199344635009765625">
        <ele>2187.60009765625</ele>
        <time>2026-06-16T10:22:56.000Z</time>
        <extensions>
          <ns3:TrackPointExtension>
            <ns3:atemp>20.0</ns3:atemp>
          </ns3:TrackPointExtension>
        </extensions>
      </trkpt>
      <trkpt lat="42.6030950434505939483642578125" lon="19.88781072199344635009765625">
        <ele>2187.60009765625</ele>
        <time>2026-06-16T10:22:57.000Z</time>
        <extensions>
          <ns3:TrackPointExtension>
            <ns3:atemp>20.0</ns3:atemp>
          </ns3:TrackPointExtension>
        </extensions>
      </trkpt>
      <trkpt lat="42.6030950434505939483642578125" lon="19.88781072199344635009765625">
        <ele>2187.60009765625</ele>
        <time>2026-06-16T10:22:58.000Z</time>
        <extensions>
          <ns3:TrackPointExtension>
            <ns3:atemp>20.0</ns3:atemp>
          </ns3:TrackPointExtension>
        </extensions>
      </trkpt>
      <trkpt lat="42.6030950434505939483642578125" lon="19.88781072199344635009765625">
        <ele>2187.60009765625</ele>
        <time>2026-06-16T10:22:59.000Z</time>
        <extensions>
          <ns3:TrackPointExtension>
            <ns3:atemp>20.0</ns3:atemp>
          </ns3:TrackPointExtension>
        </extensions>
      </trkpt>
      <trkpt lat="42.6030950434505939483642578125" lon="19.88781072199344635009765625">
        <ele>2187.60009765625</ele>
        <time>2026-06-16T10:23:00.000Z</time>
        <extensions>
          <ns3:TrackPointExtension>
            <ns3:atemp>20.0</ns3:atemp>
          </ns3:TrackPointExtension>
        </extensions>
      </trkpt>
      <trkpt lat="42.6030950434505939483642578125" lon="19.88781072199344635009765625">
        <ele>2187.60009765625</ele>
        <time>2026-06-16T10:23:01.000Z</time>
        <extensions>
          <ns3:TrackPointExtension>
            <ns3:atemp>20.0</ns3:atemp>
          </ns3:TrackPointExtension>
        </extensions>
      </trkpt>
      <trkpt lat="42.6030950434505939483642578125" lon="19.88781072199344635009765625">
        <ele>2187.39990234375</ele>
        <time>2026-06-16T10:23:02.000Z</time>
        <extensions>
          <ns3:TrackPointExtension>
            <ns3:atemp>20.0</ns3:atemp>
          </ns3:TrackPointExtension>
        </extensions>
      </trkpt>
      <trkpt lat="42.6030950434505939483642578125" lon="19.88781072199344635009765625">
        <ele>2187.39990234375</ele>
        <time>2026-06-16T10:23:03.000Z</time>
        <extensions>
          <ns3:TrackPointExtension>
            <ns3:atemp>20.0</ns3:atemp>
          </ns3:TrackPointExtension>
        </extensions>
      </trkpt>
      <trkpt lat="42.6030950434505939483642578125" lon="19.88781072199344635009765625">
        <ele>2187.39990234375</ele>
        <time>2026-06-16T10:23:04.000Z</time>
        <extensions>
          <ns3:TrackPointExtension>
            <ns3:atemp>20.0</ns3:atemp>
          </ns3:TrackPointExtension>
        </extensions>
      </trkpt>
      <trkpt lat="42.6030950434505939483642578125" lon="19.88781072199344635009765625">
        <ele>2187.39990234375</ele>
        <time>2026-06-16T10:23:05.000Z</time>
        <extensions>
          <ns3:TrackPointExtension>
            <ns3:atemp>20.0</ns3:atemp>
          </ns3:TrackPointExtension>
        </extensions>
      </trkpt>
      <trkpt lat="42.6030950434505939483642578125" lon="19.88781072199344635009765625">
        <ele>2187.39990234375</ele>
        <time>2026-06-16T10:23:06.000Z</time>
        <extensions>
          <ns3:TrackPointExtension>
            <ns3:atemp>20.0</ns3:atemp>
          </ns3:TrackPointExtension>
        </extensions>
      </trkpt>
      <trkpt lat="42.6030950434505939483642578125" lon="19.88781072199344635009765625">
        <ele>2187.39990234375</ele>
        <time>2026-06-16T10:23:07.000Z</time>
        <extensions>
          <ns3:TrackPointExtension>
            <ns3:atemp>20.0</ns3:atemp>
          </ns3:TrackPointExtension>
        </extensions>
      </trkpt>
      <trkpt lat="42.6030950434505939483642578125" lon="19.88781072199344635009765625">
        <ele>2187.39990234375</ele>
        <time>2026-06-16T10:23:08.000Z</time>
        <extensions>
          <ns3:TrackPointExtension>
            <ns3:atemp>20.0</ns3:atemp>
          </ns3:TrackPointExtension>
        </extensions>
      </trkpt>
      <trkpt lat="42.6030950434505939483642578125" lon="19.88781072199344635009765625">
        <ele>2187.39990234375</ele>
        <time>2026-06-16T10:23:09.000Z</time>
        <extensions>
          <ns3:TrackPointExtension>
            <ns3:atemp>20.0</ns3:atemp>
          </ns3:TrackPointExtension>
        </extensions>
      </trkpt>
      <trkpt lat="42.6030950434505939483642578125" lon="19.88781072199344635009765625">
        <ele>2187.39990234375</ele>
        <time>2026-06-16T10:23:10.000Z</time>
        <extensions>
          <ns3:TrackPointExtension>
            <ns3:atemp>20.0</ns3:atemp>
          </ns3:TrackPointExtension>
        </extensions>
      </trkpt>
      <trkpt lat="42.6030950434505939483642578125" lon="19.88781072199344635009765625">
        <ele>2187.39990234375</ele>
        <time>2026-06-16T10:23:11.000Z</time>
        <extensions>
          <ns3:TrackPointExtension>
            <ns3:atemp>20.0</ns3:atemp>
          </ns3:TrackPointExtension>
        </extensions>
      </trkpt>
      <trkpt lat="42.6030950434505939483642578125" lon="19.88781072199344635009765625">
        <ele>2187.39990234375</ele>
        <time>2026-06-16T10:23:12.000Z</time>
        <extensions>
          <ns3:TrackPointExtension>
            <ns3:atemp>20.0</ns3:atemp>
          </ns3:TrackPointExtension>
        </extensions>
      </trkpt>
      <trkpt lat="42.6030950434505939483642578125" lon="19.88781072199344635009765625">
        <ele>2187.199951171875</ele>
        <time>2026-06-16T10:23:13.000Z</time>
        <extensions>
          <ns3:TrackPointExtension>
            <ns3:atemp>20.0</ns3:atemp>
          </ns3:TrackPointExtension>
        </extensions>
      </trkpt>
      <trkpt lat="42.6030950434505939483642578125" lon="19.88781072199344635009765625">
        <ele>2187.199951171875</ele>
        <time>2026-06-16T10:23:14.000Z</time>
        <extensions>
          <ns3:TrackPointExtension>
            <ns3:atemp>20.0</ns3:atemp>
          </ns3:TrackPointExtension>
        </extensions>
      </trkpt>
      <trkpt lat="42.6030950434505939483642578125" lon="19.88781072199344635009765625">
        <ele>2187.199951171875</ele>
        <time>2026-06-16T10:23:15.000Z</time>
        <extensions>
          <ns3:TrackPointExtension>
            <ns3:atemp>20.0</ns3:atemp>
          </ns3:TrackPointExtension>
        </extensions>
      </trkpt>
      <trkpt lat="42.6030950434505939483642578125" lon="19.88781072199344635009765625">
        <ele>2187.199951171875</ele>
        <time>2026-06-16T10:23:16.000Z</time>
        <extensions>
          <ns3:TrackPointExtension>
            <ns3:atemp>20.0</ns3:atemp>
          </ns3:TrackPointExtension>
        </extensions>
      </trkpt>
      <trkpt lat="42.6030950434505939483642578125" lon="19.88781072199344635009765625">
        <ele>2187.199951171875</ele>
        <time>2026-06-16T10:23:17.000Z</time>
        <extensions>
          <ns3:TrackPointExtension>
            <ns3:atemp>20.0</ns3:atemp>
          </ns3:TrackPointExtension>
        </extensions>
      </trkpt>
      <trkpt lat="42.6030950434505939483642578125" lon="19.88781072199344635009765625">
        <ele>2187.199951171875</ele>
        <time>2026-06-16T10:23:18.000Z</time>
        <extensions>
          <ns3:TrackPointExtension>
            <ns3:atemp>20.0</ns3:atemp>
          </ns3:TrackPointExtension>
        </extensions>
      </trkpt>
      <trkpt lat="42.6030950434505939483642578125" lon="19.88781072199344635009765625">
        <ele>2187.199951171875</ele>
        <time>2026-06-16T10:23:19.000Z</time>
        <extensions>
          <ns3:TrackPointExtension>
            <ns3:atemp>20.0</ns3:atemp>
          </ns3:TrackPointExtension>
        </extensions>
      </trkpt>
      <trkpt lat="42.6030950434505939483642578125" lon="19.88781072199344635009765625">
        <ele>2187.199951171875</ele>
        <time>2026-06-16T10:23:20.000Z</time>
        <extensions>
          <ns3:TrackPointExtension>
            <ns3:atemp>20.0</ns3:atemp>
          </ns3:TrackPointExtension>
        </extensions>
      </trkpt>
      <trkpt lat="42.6030950434505939483642578125" lon="19.88781072199344635009765625">
        <ele>2187.199951171875</ele>
        <time>2026-06-16T10:23:21.000Z</time>
        <extensions>
          <ns3:TrackPointExtension>
            <ns3:atemp>20.0</ns3:atemp>
          </ns3:TrackPointExtension>
        </extensions>
      </trkpt>
      <trkpt lat="42.6030950434505939483642578125" lon="19.88781072199344635009765625">
        <ele>2187.199951171875</ele>
        <time>2026-06-16T10:23:22.000Z</time>
        <extensions>
          <ns3:TrackPointExtension>
            <ns3:atemp>20.0</ns3:atemp>
          </ns3:TrackPointExtension>
        </extensions>
      </trkpt>
      <trkpt lat="42.6030950434505939483642578125" lon="19.88781072199344635009765625">
        <ele>2187.199951171875</ele>
        <time>2026-06-16T10:23:23.000Z</time>
        <extensions>
          <ns3:TrackPointExtension>
            <ns3:atemp>20.0</ns3:atemp>
          </ns3:TrackPointExtension>
        </extensions>
      </trkpt>
      <trkpt lat="42.6030950434505939483642578125" lon="19.88781072199344635009765625">
        <ele>2187.199951171875</ele>
        <time>2026-06-16T10:23:24.000Z</time>
        <extensions>
          <ns3:TrackPointExtension>
            <ns3:atemp>20.0</ns3:atemp>
          </ns3:TrackPointExtension>
        </extensions>
      </trkpt>
      <trkpt lat="42.6030950434505939483642578125" lon="19.88781072199344635009765625">
        <ele>2187.199951171875</ele>
        <time>2026-06-16T10:23:25.000Z</time>
        <extensions>
          <ns3:TrackPointExtension>
            <ns3:atemp>20.0</ns3:atemp>
          </ns3:TrackPointExtension>
        </extensions>
      </trkpt>
      <trkpt lat="42.6030950434505939483642578125" lon="19.88781072199344635009765625">
        <ele>2187.199951171875</ele>
        <time>2026-06-16T10:23:26.000Z</time>
        <extensions>
          <ns3:TrackPointExtension>
            <ns3:atemp>20.0</ns3:atemp>
          </ns3:TrackPointExtension>
        </extensions>
      </trkpt>
      <trkpt lat="42.6030950434505939483642578125" lon="19.88781072199344635009765625">
        <ele>2187.199951171875</ele>
        <time>2026-06-16T10:23:27.000Z</time>
        <extensions>
          <ns3:TrackPointExtension>
            <ns3:atemp>20.0</ns3:atemp>
          </ns3:TrackPointExtension>
        </extensions>
      </trkpt>
      <trkpt lat="42.6030950434505939483642578125" lon="19.88781072199344635009765625">
        <ele>2187.199951171875</ele>
        <time>2026-06-16T10:23:28.000Z</time>
        <extensions>
          <ns3:TrackPointExtension>
            <ns3:atemp>20.0</ns3:atemp>
          </ns3:TrackPointExtension>
        </extensions>
      </trkpt>
      <trkpt lat="42.6030950434505939483642578125" lon="19.88781072199344635009765625">
        <ele>2187</ele>
        <time>2026-06-16T10:23:29.000Z</time>
        <extensions>
          <ns3:TrackPointExtension>
            <ns3:atemp>20.0</ns3:atemp>
          </ns3:TrackPointExtension>
        </extensions>
      </trkpt>
      <trkpt lat="42.6030950434505939483642578125" lon="19.88781072199344635009765625">
        <ele>2187</ele>
        <time>2026-06-16T10:23:30.000Z</time>
        <extensions>
          <ns3:TrackPointExtension>
            <ns3:atemp>20.0</ns3:atemp>
          </ns3:TrackPointExtension>
        </extensions>
      </trkpt>
      <trkpt lat="42.6030950434505939483642578125" lon="19.88781072199344635009765625">
        <ele>2187</ele>
        <time>2026-06-16T10:23:31.000Z</time>
        <extensions>
          <ns3:TrackPointExtension>
            <ns3:atemp>20.0</ns3:atemp>
          </ns3:TrackPointExtension>
        </extensions>
      </trkpt>
      <trkpt lat="42.6030950434505939483642578125" lon="19.88781072199344635009765625">
        <ele>2187</ele>
        <time>2026-06-16T10:23:32.000Z</time>
        <extensions>
          <ns3:TrackPointExtension>
            <ns3:atemp>20.0</ns3:atemp>
          </ns3:TrackPointExtension>
        </extensions>
      </trkpt>
      <trkpt lat="42.6030950434505939483642578125" lon="19.88781072199344635009765625">
        <ele>2187</ele>
        <time>2026-06-16T10:23:33.000Z</time>
        <extensions>
          <ns3:TrackPointExtension>
            <ns3:atemp>20.0</ns3:atemp>
          </ns3:TrackPointExtension>
        </extensions>
      </trkpt>
      <trkpt lat="42.6030950434505939483642578125" lon="19.88781072199344635009765625">
        <ele>2187</ele>
        <time>2026-06-16T10:23:34.000Z</time>
        <extensions>
          <ns3:TrackPointExtension>
            <ns3:atemp>20.0</ns3:atemp>
          </ns3:TrackPointExtension>
        </extensions>
      </trkpt>
      <trkpt lat="42.6030950434505939483642578125" lon="19.88781072199344635009765625">
        <ele>2187</ele>
        <time>2026-06-16T10:23:35.000Z</time>
        <extensions>
          <ns3:TrackPointExtension>
            <ns3:atemp>20.0</ns3:atemp>
          </ns3:TrackPointExtension>
        </extensions>
      </trkpt>
      <trkpt lat="42.6030950434505939483642578125" lon="19.88781072199344635009765625">
        <ele>2187</ele>
        <time>2026-06-16T10:23:36.000Z</time>
        <extensions>
          <ns3:TrackPointExtension>
            <ns3:atemp>20.0</ns3:atemp>
          </ns3:TrackPointExtension>
        </extensions>
      </trkpt>
      <trkpt lat="42.6030950434505939483642578125" lon="19.88781072199344635009765625">
        <ele>2187</ele>
        <time>2026-06-16T10:23:37.000Z</time>
        <extensions>
          <ns3:TrackPointExtension>
            <ns3:atemp>20.0</ns3:atemp>
          </ns3:TrackPointExtension>
        </extensions>
      </trkpt>
      <trkpt lat="42.6030950434505939483642578125" lon="19.88781072199344635009765625">
        <ele>2187</ele>
        <time>2026-06-16T10:23:38.000Z</time>
        <extensions>
          <ns3:TrackPointExtension>
            <ns3:atemp>20.0</ns3:atemp>
          </ns3:TrackPointExtension>
        </extensions>
      </trkpt>
      <trkpt lat="42.6030950434505939483642578125" lon="19.88781072199344635009765625">
        <ele>2187</ele>
        <time>2026-06-16T10:23:39.000Z</time>
        <extensions>
          <ns3:TrackPointExtension>
            <ns3:atemp>20.0</ns3:atemp>
          </ns3:TrackPointExtension>
        </extensions>
      </trkpt>
      <trkpt lat="42.6030950434505939483642578125" lon="19.88781072199344635009765625">
        <ele>2187</ele>
        <time>2026-06-16T10:23:40.000Z</time>
        <extensions>
          <ns3:TrackPointExtension>
            <ns3:atemp>20.0</ns3:atemp>
          </ns3:TrackPointExtension>
        </extensions>
      </trkpt>
      <trkpt lat="42.6030950434505939483642578125" lon="19.88781072199344635009765625">
        <ele>2187</ele>
        <time>2026-06-16T10:23:41.000Z</time>
        <extensions>
          <ns3:TrackPointExtension>
            <ns3:atemp>20.0</ns3:atemp>
          </ns3:TrackPointExtension>
        </extensions>
      </trkpt>
      <trkpt lat="42.6030950434505939483642578125" lon="19.88781072199344635009765625">
        <ele>2187</ele>
        <time>2026-06-16T10:23:42.000Z</time>
        <extensions>
          <ns3:TrackPointExtension>
            <ns3:atemp>20.0</ns3:atemp>
          </ns3:TrackPointExtension>
        </extensions>
      </trkpt>
      <trkpt lat="42.6030950434505939483642578125" lon="19.88781072199344635009765625">
        <ele>2187</ele>
        <time>2026-06-16T10:23:43.000Z</time>
        <extensions>
          <ns3:TrackPointExtension>
            <ns3:atemp>20.0</ns3:atemp>
          </ns3:TrackPointExtension>
        </extensions>
      </trkpt>
      <trkpt lat="42.6030950434505939483642578125" lon="19.88781072199344635009765625">
        <ele>2187</ele>
        <time>2026-06-16T10:23:44.000Z</time>
        <extensions>
          <ns3:TrackPointExtension>
            <ns3:atemp>20.0</ns3:atemp>
          </ns3:TrackPointExtension>
        </extensions>
      </trkpt>
      <trkpt lat="42.6030950434505939483642578125" lon="19.88781072199344635009765625">
        <ele>2186.800048828125</ele>
        <time>2026-06-16T10:23:45.000Z</time>
        <extensions>
          <ns3:TrackPointExtension>
            <ns3:atemp>20.0</ns3:atemp>
          </ns3:TrackPointExtension>
        </extensions>
      </trkpt>
      <trkpt lat="42.6030950434505939483642578125" lon="19.88781072199344635009765625">
        <ele>2186.800048828125</ele>
        <time>2026-06-16T10:23:46.000Z</time>
        <extensions>
          <ns3:TrackPointExtension>
            <ns3:atemp>20.0</ns3:atemp>
          </ns3:TrackPointExtension>
        </extensions>
      </trkpt>
      <trkpt lat="42.6030950434505939483642578125" lon="19.88781072199344635009765625">
        <ele>2186.800048828125</ele>
        <time>2026-06-16T10:23:47.000Z</time>
        <extensions>
          <ns3:TrackPointExtension>
            <ns3:atemp>20.0</ns3:atemp>
          </ns3:TrackPointExtension>
        </extensions>
      </trkpt>
      <trkpt lat="42.6030950434505939483642578125" lon="19.88781072199344635009765625">
        <ele>2186.800048828125</ele>
        <time>2026-06-16T10:23:48.000Z</time>
        <extensions>
          <ns3:TrackPointExtension>
            <ns3:atemp>20.0</ns3:atemp>
          </ns3:TrackPointExtension>
        </extensions>
      </trkpt>
      <trkpt lat="42.6030950434505939483642578125" lon="19.88781072199344635009765625">
        <ele>2186.800048828125</ele>
        <time>2026-06-16T10:23:49.000Z</time>
        <extensions>
          <ns3:TrackPointExtension>
            <ns3:atemp>20.0</ns3:atemp>
          </ns3:TrackPointExtension>
        </extensions>
      </trkpt>
      <trkpt lat="42.6030950434505939483642578125" lon="19.88781072199344635009765625">
        <ele>2186.800048828125</ele>
        <time>2026-06-16T10:23:50.000Z</time>
        <extensions>
          <ns3:TrackPointExtension>
            <ns3:atemp>20.0</ns3:atemp>
          </ns3:TrackPointExtension>
        </extensions>
      </trkpt>
      <trkpt lat="42.6030950434505939483642578125" lon="19.88781072199344635009765625">
        <ele>2186.800048828125</ele>
        <time>2026-06-16T10:23:51.000Z</time>
        <extensions>
          <ns3:TrackPointExtension>
            <ns3:atemp>20.0</ns3:atemp>
          </ns3:TrackPointExtension>
        </extensions>
      </trkpt>
      <trkpt lat="42.6030950434505939483642578125" lon="19.88781072199344635009765625">
        <ele>2186.800048828125</ele>
        <time>2026-06-16T10:23:52.000Z</time>
        <extensions>
          <ns3:TrackPointExtension>
            <ns3:atemp>20.0</ns3:atemp>
          </ns3:TrackPointExtension>
        </extensions>
      </trkpt>
      <trkpt lat="42.6030950434505939483642578125" lon="19.88781072199344635009765625">
        <ele>2186.800048828125</ele>
        <time>2026-06-16T10:23:53.000Z</time>
        <extensions>
          <ns3:TrackPointExtension>
            <ns3:atemp>20.0</ns3:atemp>
          </ns3:TrackPointExtension>
        </extensions>
      </trkpt>
      <trkpt lat="42.6030950434505939483642578125" lon="19.88781072199344635009765625">
        <ele>2186.800048828125</ele>
        <time>2026-06-16T10:23:54.000Z</time>
        <extensions>
          <ns3:TrackPointExtension>
            <ns3:atemp>20.0</ns3:atemp>
          </ns3:TrackPointExtension>
        </extensions>
      </trkpt>
      <trkpt lat="42.6030950434505939483642578125" lon="19.88781072199344635009765625">
        <ele>2186.800048828125</ele>
        <time>2026-06-16T10:23:55.000Z</time>
        <extensions>
          <ns3:TrackPointExtension>
            <ns3:atemp>20.0</ns3:atemp>
          </ns3:TrackPointExtension>
        </extensions>
      </trkpt>
      <trkpt lat="42.6030950434505939483642578125" lon="19.88781072199344635009765625">
        <ele>2186.800048828125</ele>
        <time>2026-06-16T10:23:56.000Z</time>
        <extensions>
          <ns3:TrackPointExtension>
            <ns3:atemp>20.0</ns3:atemp>
          </ns3:TrackPointExtension>
        </extensions>
      </trkpt>
      <trkpt lat="42.6030950434505939483642578125" lon="19.88781072199344635009765625">
        <ele>2186.800048828125</ele>
        <time>2026-06-16T10:23:57.000Z</time>
        <extensions>
          <ns3:TrackPointExtension>
            <ns3:atemp>20.0</ns3:atemp>
          </ns3:TrackPointExtension>
        </extensions>
      </trkpt>
      <trkpt lat="42.6030950434505939483642578125" lon="19.88781072199344635009765625">
        <ele>2186.800048828125</ele>
        <time>2026-06-16T10:23:58.000Z</time>
        <extensions>
          <ns3:TrackPointExtension>
            <ns3:atemp>20.0</ns3:atemp>
          </ns3:TrackPointExtension>
        </extensions>
      </trkpt>
      <trkpt lat="42.6030950434505939483642578125" lon="19.88781072199344635009765625">
        <ele>2186.60009765625</ele>
        <time>2026-06-16T10:23:59.000Z</time>
        <extensions>
          <ns3:TrackPointExtension>
            <ns3:atemp>20.0</ns3:atemp>
          </ns3:TrackPointExtension>
        </extensions>
      </trkpt>
      <trkpt lat="42.6030950434505939483642578125" lon="19.88781072199344635009765625">
        <ele>2186.60009765625</ele>
        <time>2026-06-16T10:24:00.000Z</time>
        <extensions>
          <ns3:TrackPointExtension>
            <ns3:atemp>20.0</ns3:atemp>
          </ns3:TrackPointExtension>
        </extensions>
      </trkpt>
      <trkpt lat="42.6030950434505939483642578125" lon="19.88781072199344635009765625">
        <ele>2186.60009765625</ele>
        <time>2026-06-16T10:24:01.000Z</time>
        <extensions>
          <ns3:TrackPointExtension>
            <ns3:atemp>20.0</ns3:atemp>
          </ns3:TrackPointExtension>
        </extensions>
      </trkpt>
      <trkpt lat="42.6030950434505939483642578125" lon="19.88781072199344635009765625">
        <ele>2186.60009765625</ele>
        <time>2026-06-16T10:24:02.000Z</time>
        <extensions>
          <ns3:TrackPointExtension>
            <ns3:atemp>20.0</ns3:atemp>
          </ns3:TrackPointExtension>
        </extensions>
      </trkpt>
      <trkpt lat="42.6030950434505939483642578125" lon="19.88781072199344635009765625">
        <ele>2186.60009765625</ele>
        <time>2026-06-16T10:24:03.000Z</time>
        <extensions>
          <ns3:TrackPointExtension>
            <ns3:atemp>20.0</ns3:atemp>
          </ns3:TrackPointExtension>
        </extensions>
      </trkpt>
      <trkpt lat="42.6030950434505939483642578125" lon="19.88781072199344635009765625">
        <ele>2186.60009765625</ele>
        <time>2026-06-16T10:24:04.000Z</time>
        <extensions>
          <ns3:TrackPointExtension>
            <ns3:atemp>20.0</ns3:atemp>
          </ns3:TrackPointExtension>
        </extensions>
      </trkpt>
      <trkpt lat="42.6030950434505939483642578125" lon="19.88781072199344635009765625">
        <ele>2186.60009765625</ele>
        <time>2026-06-16T10:24:05.000Z</time>
        <extensions>
          <ns3:TrackPointExtension>
            <ns3:atemp>20.0</ns3:atemp>
          </ns3:TrackPointExtension>
        </extensions>
      </trkpt>
      <trkpt lat="42.6030950434505939483642578125" lon="19.88781072199344635009765625">
        <ele>2186.60009765625</ele>
        <time>2026-06-16T10:24:06.000Z</time>
        <extensions>
          <ns3:TrackPointExtension>
            <ns3:atemp>20.0</ns3:atemp>
          </ns3:TrackPointExtension>
        </extensions>
      </trkpt>
      <trkpt lat="42.6030950434505939483642578125" lon="19.88781072199344635009765625">
        <ele>2186.60009765625</ele>
        <time>2026-06-16T10:24:07.000Z</time>
        <extensions>
          <ns3:TrackPointExtension>
            <ns3:atemp>20.0</ns3:atemp>
          </ns3:TrackPointExtension>
        </extensions>
      </trkpt>
      <trkpt lat="42.6030950434505939483642578125" lon="19.88781072199344635009765625">
        <ele>2186.60009765625</ele>
        <time>2026-06-16T10:24:08.000Z</time>
        <extensions>
          <ns3:TrackPointExtension>
            <ns3:atemp>20.0</ns3:atemp>
          </ns3:TrackPointExtension>
        </extensions>
      </trkpt>
      <trkpt lat="42.6030950434505939483642578125" lon="19.88781072199344635009765625">
        <ele>2186.60009765625</ele>
        <time>2026-06-16T10:24:09.000Z</time>
        <extensions>
          <ns3:TrackPointExtension>
            <ns3:atemp>20.0</ns3:atemp>
          </ns3:TrackPointExtension>
        </extensions>
      </trkpt>
      <trkpt lat="42.6030950434505939483642578125" lon="19.88781072199344635009765625">
        <ele>2186.800048828125</ele>
        <time>2026-06-16T10:24:10.000Z</time>
        <extensions>
          <ns3:TrackPointExtension>
            <ns3:atemp>20.0</ns3:atemp>
          </ns3:TrackPointExtension>
        </extensions>
      </trkpt>
      <trkpt lat="42.6030950434505939483642578125" lon="19.88781072199344635009765625">
        <ele>2186.60009765625</ele>
        <time>2026-06-16T10:24:11.000Z</time>
        <extensions>
          <ns3:TrackPointExtension>
            <ns3:atemp>20.0</ns3:atemp>
          </ns3:TrackPointExtension>
        </extensions>
      </trkpt>
      <trkpt lat="42.6030950434505939483642578125" lon="19.88781072199344635009765625">
        <ele>2186.60009765625</ele>
        <time>2026-06-16T10:24:12.000Z</time>
        <extensions>
          <ns3:TrackPointExtension>
            <ns3:atemp>20.0</ns3:atemp>
          </ns3:TrackPointExtension>
        </extensions>
      </trkpt>
      <trkpt lat="42.6030950434505939483642578125" lon="19.88781072199344635009765625">
        <ele>2186.60009765625</ele>
        <time>2026-06-16T10:24:13.000Z</time>
        <extensions>
          <ns3:TrackPointExtension>
            <ns3:atemp>20.0</ns3:atemp>
          </ns3:TrackPointExtension>
        </extensions>
      </trkpt>
      <trkpt lat="42.6030950434505939483642578125" lon="19.88781072199344635009765625">
        <ele>2186.60009765625</ele>
        <time>2026-06-16T10:24:14.000Z</time>
        <extensions>
          <ns3:TrackPointExtension>
            <ns3:atemp>20.0</ns3:atemp>
          </ns3:TrackPointExtension>
        </extensions>
      </trkpt>
      <trkpt lat="42.6030950434505939483642578125" lon="19.88781072199344635009765625">
        <ele>2186.60009765625</ele>
        <time>2026-06-16T10:24:15.000Z</time>
        <extensions>
          <ns3:TrackPointExtension>
            <ns3:atemp>20.0</ns3:atemp>
          </ns3:TrackPointExtension>
        </extensions>
      </trkpt>
      <trkpt lat="42.6030950434505939483642578125" lon="19.88781072199344635009765625">
        <ele>2186.60009765625</ele>
        <time>2026-06-16T10:24:16.000Z</time>
        <extensions>
          <ns3:TrackPointExtension>
            <ns3:atemp>20.0</ns3:atemp>
          </ns3:TrackPointExtension>
        </extensions>
      </trkpt>
      <trkpt lat="42.6030950434505939483642578125" lon="19.88781072199344635009765625">
        <ele>2186.60009765625</ele>
        <time>2026-06-16T10:24:17.000Z</time>
        <extensions>
          <ns3:TrackPointExtension>
            <ns3:atemp>20.0</ns3:atemp>
          </ns3:TrackPointExtension>
        </extensions>
      </trkpt>
      <trkpt lat="42.6030950434505939483642578125" lon="19.88781072199344635009765625">
        <ele>2186.39990234375</ele>
        <time>2026-06-16T10:24:18.000Z</time>
        <extensions>
          <ns3:TrackPointExtension>
            <ns3:atemp>20.0</ns3:atemp>
          </ns3:TrackPointExtension>
        </extensions>
      </trkpt>
      <trkpt lat="42.6030950434505939483642578125" lon="19.88781072199344635009765625">
        <ele>2186.39990234375</ele>
        <time>2026-06-16T10:24:19.000Z</time>
        <extensions>
          <ns3:TrackPointExtension>
            <ns3:atemp>20.0</ns3:atemp>
          </ns3:TrackPointExtension>
        </extensions>
      </trkpt>
      <trkpt lat="42.6030950434505939483642578125" lon="19.88781072199344635009765625">
        <ele>2186.39990234375</ele>
        <time>2026-06-16T10:24:20.000Z</time>
        <extensions>
          <ns3:TrackPointExtension>
            <ns3:atemp>20.0</ns3:atemp>
          </ns3:TrackPointExtension>
        </extensions>
      </trkpt>
      <trkpt lat="42.6030950434505939483642578125" lon="19.88781072199344635009765625">
        <ele>2186.39990234375</ele>
        <time>2026-06-16T10:24:21.000Z</time>
        <extensions>
          <ns3:TrackPointExtension>
            <ns3:atemp>20.0</ns3:atemp>
          </ns3:TrackPointExtension>
        </extensions>
      </trkpt>
      <trkpt lat="42.6030950434505939483642578125" lon="19.88781072199344635009765625">
        <ele>2186.39990234375</ele>
        <time>2026-06-16T10:24:22.000Z</time>
        <extensions>
          <ns3:TrackPointExtension>
            <ns3:atemp>20.0</ns3:atemp>
          </ns3:TrackPointExtension>
        </extensions>
      </trkpt>
      <trkpt lat="42.6030950434505939483642578125" lon="19.88781072199344635009765625">
        <ele>2186.39990234375</ele>
        <time>2026-06-16T10:24:23.000Z</time>
        <extensions>
          <ns3:TrackPointExtension>
            <ns3:atemp>20.0</ns3:atemp>
          </ns3:TrackPointExtension>
        </extensions>
      </trkpt>
      <trkpt lat="42.6030950434505939483642578125" lon="19.88781072199344635009765625">
        <ele>2186.39990234375</ele>
        <time>2026-06-16T10:24:24.000Z</time>
        <extensions>
          <ns3:TrackPointExtension>
            <ns3:atemp>20.0</ns3:atemp>
          </ns3:TrackPointExtension>
        </extensions>
      </trkpt>
      <trkpt lat="42.6030950434505939483642578125" lon="19.88781072199344635009765625">
        <ele>2186.39990234375</ele>
        <time>2026-06-16T10:24:25.000Z</time>
        <extensions>
          <ns3:TrackPointExtension>
            <ns3:atemp>20.0</ns3:atemp>
          </ns3:TrackPointExtension>
        </extensions>
      </trkpt>
      <trkpt lat="42.6030950434505939483642578125" lon="19.88781072199344635009765625">
        <ele>2186.39990234375</ele>
        <time>2026-06-16T10:24:26.000Z</time>
        <extensions>
          <ns3:TrackPointExtension>
            <ns3:atemp>20.0</ns3:atemp>
          </ns3:TrackPointExtension>
        </extensions>
      </trkpt>
      <trkpt lat="42.6030950434505939483642578125" lon="19.88781072199344635009765625">
        <ele>2186.39990234375</ele>
        <time>2026-06-16T10:24:27.000Z</time>
        <extensions>
          <ns3:TrackPointExtension>
            <ns3:atemp>20.0</ns3:atemp>
          </ns3:TrackPointExtension>
        </extensions>
      </trkpt>
      <trkpt lat="42.6030950434505939483642578125" lon="19.88781072199344635009765625">
        <ele>2186.199951171875</ele>
        <time>2026-06-16T10:24:28.000Z</time>
        <extensions>
          <ns3:TrackPointExtension>
            <ns3:atemp>20.0</ns3:atemp>
          </ns3:TrackPointExtension>
        </extensions>
      </trkpt>
      <trkpt lat="42.6030950434505939483642578125" lon="19.88781072199344635009765625">
        <ele>2186.199951171875</ele>
        <time>2026-06-16T10:24:29.000Z</time>
        <extensions>
          <ns3:TrackPointExtension>
            <ns3:atemp>20.0</ns3:atemp>
          </ns3:TrackPointExtension>
        </extensions>
      </trkpt>
      <trkpt lat="42.6030950434505939483642578125" lon="19.88781072199344635009765625">
        <ele>2186.199951171875</ele>
        <time>2026-06-16T10:24:30.000Z</time>
        <extensions>
          <ns3:TrackPointExtension>
            <ns3:atemp>20.0</ns3:atemp>
          </ns3:TrackPointExtension>
        </extensions>
      </trkpt>
      <trkpt lat="42.6030950434505939483642578125" lon="19.88781072199344635009765625">
        <ele>2186.199951171875</ele>
        <time>2026-06-16T10:24:31.000Z</time>
        <extensions>
          <ns3:TrackPointExtension>
            <ns3:atemp>20.0</ns3:atemp>
          </ns3:TrackPointExtension>
        </extensions>
      </trkpt>
      <trkpt lat="42.6030950434505939483642578125" lon="19.88781072199344635009765625">
        <ele>2186.199951171875</ele>
        <time>2026-06-16T10:24:32.000Z</time>
        <extensions>
          <ns3:TrackPointExtension>
            <ns3:atemp>20.0</ns3:atemp>
          </ns3:TrackPointExtension>
        </extensions>
      </trkpt>
      <trkpt lat="42.6030950434505939483642578125" lon="19.88781072199344635009765625">
        <ele>2186.199951171875</ele>
        <time>2026-06-16T10:24:33.000Z</time>
        <extensions>
          <ns3:TrackPointExtension>
            <ns3:atemp>20.0</ns3:atemp>
          </ns3:TrackPointExtension>
        </extensions>
      </trkpt>
      <trkpt lat="42.6030950434505939483642578125" lon="19.88781072199344635009765625">
        <ele>2186.199951171875</ele>
        <time>2026-06-16T10:24:34.000Z</time>
        <extensions>
          <ns3:TrackPointExtension>
            <ns3:atemp>20.0</ns3:atemp>
          </ns3:TrackPointExtension>
        </extensions>
      </trkpt>
      <trkpt lat="42.6030950434505939483642578125" lon="19.88781072199344635009765625">
        <ele>2186.199951171875</ele>
        <time>2026-06-16T10:24:35.000Z</time>
        <extensions>
          <ns3:TrackPointExtension>
            <ns3:atemp>20.0</ns3:atemp>
          </ns3:TrackPointExtension>
        </extensions>
      </trkpt>
      <trkpt lat="42.6030950434505939483642578125" lon="19.88781072199344635009765625">
        <ele>2186.199951171875</ele>
        <time>2026-06-16T10:24:36.000Z</time>
        <extensions>
          <ns3:TrackPointExtension>
            <ns3:atemp>20.0</ns3:atemp>
          </ns3:TrackPointExtension>
        </extensions>
      </trkpt>
      <trkpt lat="42.6030950434505939483642578125" lon="19.88781072199344635009765625">
        <ele>2186.199951171875</ele>
        <time>2026-06-16T10:24:37.000Z</time>
        <extensions>
          <ns3:TrackPointExtension>
            <ns3:atemp>20.0</ns3:atemp>
          </ns3:TrackPointExtension>
        </extensions>
      </trkpt>
      <trkpt lat="42.6030950434505939483642578125" lon="19.88781072199344635009765625">
        <ele>2186.199951171875</ele>
        <time>2026-06-16T10:24:38.000Z</time>
        <extensions>
          <ns3:TrackPointExtension>
            <ns3:atemp>20.0</ns3:atemp>
          </ns3:TrackPointExtension>
        </extensions>
      </trkpt>
      <trkpt lat="42.6030950434505939483642578125" lon="19.88781072199344635009765625">
        <ele>2186.199951171875</ele>
        <time>2026-06-16T10:24:39.000Z</time>
        <extensions>
          <ns3:TrackPointExtension>
            <ns3:atemp>20.0</ns3:atemp>
          </ns3:TrackPointExtension>
        </extensions>
      </trkpt>
      <trkpt lat="42.6030950434505939483642578125" lon="19.88781072199344635009765625">
        <ele>2186.199951171875</ele>
        <time>2026-06-16T10:24:40.000Z</time>
        <extensions>
          <ns3:TrackPointExtension>
            <ns3:atemp>20.0</ns3:atemp>
          </ns3:TrackPointExtension>
        </extensions>
      </trkpt>
      <trkpt lat="42.6030950434505939483642578125" lon="19.88781072199344635009765625">
        <ele>2186.199951171875</ele>
        <time>2026-06-16T10:24:41.000Z</time>
        <extensions>
          <ns3:TrackPointExtension>
            <ns3:atemp>20.0</ns3:atemp>
          </ns3:TrackPointExtension>
        </extensions>
      </trkpt>
      <trkpt lat="42.6030950434505939483642578125" lon="19.88781072199344635009765625">
        <ele>2186.199951171875</ele>
        <time>2026-06-16T10:24:42.000Z</time>
        <extensions>
          <ns3:TrackPointExtension>
            <ns3:atemp>20.0</ns3:atemp>
          </ns3:TrackPointExtension>
        </extensions>
      </trkpt>
      <trkpt lat="42.6030950434505939483642578125" lon="19.88781072199344635009765625">
        <ele>2186.199951171875</ele>
        <time>2026-06-16T10:24:43.000Z</time>
        <extensions>
          <ns3:TrackPointExtension>
            <ns3:atemp>20.0</ns3:atemp>
          </ns3:TrackPointExtension>
        </extensions>
      </trkpt>
      <trkpt lat="42.6030950434505939483642578125" lon="19.88781072199344635009765625">
        <ele>2186.199951171875</ele>
        <time>2026-06-16T10:24:44.000Z</time>
        <extensions>
          <ns3:TrackPointExtension>
            <ns3:atemp>20.0</ns3:atemp>
          </ns3:TrackPointExtension>
        </extensions>
      </trkpt>
      <trkpt lat="42.6030950434505939483642578125" lon="19.88781072199344635009765625">
        <ele>2186.199951171875</ele>
        <time>2026-06-16T10:24:45.000Z</time>
        <extensions>
          <ns3:TrackPointExtension>
            <ns3:atemp>20.0</ns3:atemp>
          </ns3:TrackPointExtension>
        </extensions>
      </trkpt>
      <trkpt lat="42.6030950434505939483642578125" lon="19.88781072199344635009765625">
        <ele>2186.199951171875</ele>
        <time>2026-06-16T10:24:46.000Z</time>
        <extensions>
          <ns3:TrackPointExtension>
            <ns3:atemp>20.0</ns3:atemp>
          </ns3:TrackPointExtension>
        </extensions>
      </trkpt>
      <trkpt lat="42.6030950434505939483642578125" lon="19.88781072199344635009765625">
        <ele>2186.199951171875</ele>
        <time>2026-06-16T10:24:47.000Z</time>
        <extensions>
          <ns3:TrackPointExtension>
            <ns3:atemp>20.0</ns3:atemp>
          </ns3:TrackPointExtension>
        </extensions>
      </trkpt>
      <trkpt lat="42.6030950434505939483642578125" lon="19.88781072199344635009765625">
        <ele>2186.199951171875</ele>
        <time>2026-06-16T10:24:48.000Z</time>
        <extensions>
          <ns3:TrackPointExtension>
            <ns3:atemp>20.0</ns3:atemp>
          </ns3:TrackPointExtension>
        </extensions>
      </trkpt>
      <trkpt lat="42.6030950434505939483642578125" lon="19.88781072199344635009765625">
        <ele>2186.199951171875</ele>
        <time>2026-06-16T10:24:49.000Z</time>
        <extensions>
          <ns3:TrackPointExtension>
            <ns3:atemp>20.0</ns3:atemp>
          </ns3:TrackPointExtension>
        </extensions>
      </trkpt>
      <trkpt lat="42.6030950434505939483642578125" lon="19.88781072199344635009765625">
        <ele>2186.199951171875</ele>
        <time>2026-06-16T10:24:50.000Z</time>
        <extensions>
          <ns3:TrackPointExtension>
            <ns3:atemp>20.0</ns3:atemp>
          </ns3:TrackPointExtension>
        </extensions>
      </trkpt>
      <trkpt lat="42.6030950434505939483642578125" lon="19.88781072199344635009765625">
        <ele>2186.199951171875</ele>
        <time>2026-06-16T10:24:51.000Z</time>
        <extensions>
          <ns3:TrackPointExtension>
            <ns3:atemp>20.0</ns3:atemp>
          </ns3:TrackPointExtension>
        </extensions>
      </trkpt>
      <trkpt lat="42.6030950434505939483642578125" lon="19.88781072199344635009765625">
        <ele>2186.199951171875</ele>
        <time>2026-06-16T10:24:52.000Z</time>
        <extensions>
          <ns3:TrackPointExtension>
            <ns3:atemp>20.0</ns3:atemp>
          </ns3:TrackPointExtension>
        </extensions>
      </trkpt>
      <trkpt lat="42.6030950434505939483642578125" lon="19.88781072199344635009765625">
        <ele>2186</ele>
        <time>2026-06-16T10:24:53.000Z</time>
        <extensions>
          <ns3:TrackPointExtension>
            <ns3:atemp>20.0</ns3:atemp>
          </ns3:TrackPointExtension>
        </extensions>
      </trkpt>
      <trkpt lat="42.6030950434505939483642578125" lon="19.88781072199344635009765625">
        <ele>2186</ele>
        <time>2026-06-16T10:24:54.000Z</time>
        <extensions>
          <ns3:TrackPointExtension>
            <ns3:atemp>20.0</ns3:atemp>
          </ns3:TrackPointExtension>
        </extensions>
      </trkpt>
      <trkpt lat="42.6030950434505939483642578125" lon="19.88781072199344635009765625">
        <ele>2186</ele>
        <time>2026-06-16T10:24:55.000Z</time>
        <extensions>
          <ns3:TrackPointExtension>
            <ns3:atemp>20.0</ns3:atemp>
          </ns3:TrackPointExtension>
        </extensions>
      </trkpt>
      <trkpt lat="42.6030950434505939483642578125" lon="19.88781072199344635009765625">
        <ele>2186</ele>
        <time>2026-06-16T10:24:56.000Z</time>
        <extensions>
          <ns3:TrackPointExtension>
            <ns3:atemp>20.0</ns3:atemp>
          </ns3:TrackPointExtension>
        </extensions>
      </trkpt>
      <trkpt lat="42.6030950434505939483642578125" lon="19.88781072199344635009765625">
        <ele>2186</ele>
        <time>2026-06-16T10:24:57.000Z</time>
        <extensions>
          <ns3:TrackPointExtension>
            <ns3:atemp>20.0</ns3:atemp>
          </ns3:TrackPointExtension>
        </extensions>
      </trkpt>
      <trkpt lat="42.6030950434505939483642578125" lon="19.88781072199344635009765625">
        <ele>2186.199951171875</ele>
        <time>2026-06-16T10:24:58.000Z</time>
        <extensions>
          <ns3:TrackPointExtension>
            <ns3:atemp>20.0</ns3:atemp>
          </ns3:TrackPointExtension>
        </extensions>
      </trkpt>
      <trkpt lat="42.6030950434505939483642578125" lon="19.88781072199344635009765625">
        <ele>2186.199951171875</ele>
        <time>2026-06-16T10:24:59.000Z</time>
        <extensions>
          <ns3:TrackPointExtension>
            <ns3:atemp>20.0</ns3:atemp>
          </ns3:TrackPointExtension>
        </extensions>
      </trkpt>
      <trkpt lat="42.6030950434505939483642578125" lon="19.88781072199344635009765625">
        <ele>2186.199951171875</ele>
        <time>2026-06-16T10:25:00.000Z</time>
        <extensions>
          <ns3:TrackPointExtension>
            <ns3:atemp>20.0</ns3:atemp>
          </ns3:TrackPointExtension>
        </extensions>
      </trkpt>
      <trkpt lat="42.6030950434505939483642578125" lon="19.88781072199344635009765625">
        <ele>2186.199951171875</ele>
        <time>2026-06-16T10:25:01.000Z</time>
        <extensions>
          <ns3:TrackPointExtension>
            <ns3:atemp>20.0</ns3:atemp>
          </ns3:TrackPointExtension>
        </extensions>
      </trkpt>
      <trkpt lat="42.6030950434505939483642578125" lon="19.88781072199344635009765625">
        <ele>2186.199951171875</ele>
        <time>2026-06-16T10:25:02.000Z</time>
        <extensions>
          <ns3:TrackPointExtension>
            <ns3:atemp>20.0</ns3:atemp>
          </ns3:TrackPointExtension>
        </extensions>
      </trkpt>
      <trkpt lat="42.6030950434505939483642578125" lon="19.88781072199344635009765625">
        <ele>2186</ele>
        <time>2026-06-16T10:25:03.000Z</time>
        <extensions>
          <ns3:TrackPointExtension>
            <ns3:atemp>20.0</ns3:atemp>
          </ns3:TrackPointExtension>
        </extensions>
      </trkpt>
      <trkpt lat="42.6030950434505939483642578125" lon="19.88781072199344635009765625">
        <ele>2186</ele>
        <time>2026-06-16T10:25:04.000Z</time>
        <extensions>
          <ns3:TrackPointExtension>
            <ns3:atemp>20.0</ns3:atemp>
          </ns3:TrackPointExtension>
        </extensions>
      </trkpt>
      <trkpt lat="42.6030950434505939483642578125" lon="19.88781072199344635009765625">
        <ele>2186</ele>
        <time>2026-06-16T10:25:05.000Z</time>
        <extensions>
          <ns3:TrackPointExtension>
            <ns3:atemp>20.0</ns3:atemp>
          </ns3:TrackPointExtension>
        </extensions>
      </trkpt>
      <trkpt lat="42.6030950434505939483642578125" lon="19.88781072199344635009765625">
        <ele>2186</ele>
        <time>2026-06-16T10:25:06.000Z</time>
        <extensions>
          <ns3:TrackPointExtension>
            <ns3:atemp>20.0</ns3:atemp>
          </ns3:TrackPointExtension>
        </extensions>
      </trkpt>
      <trkpt lat="42.6030950434505939483642578125" lon="19.88781072199344635009765625">
        <ele>2186</ele>
        <time>2026-06-16T10:25:07.000Z</time>
        <extensions>
          <ns3:TrackPointExtension>
            <ns3:atemp>20.0</ns3:atemp>
          </ns3:TrackPointExtension>
        </extensions>
      </trkpt>
      <trkpt lat="42.6030950434505939483642578125" lon="19.88781072199344635009765625">
        <ele>2186</ele>
        <time>2026-06-16T10:25:08.000Z</time>
        <extensions>
          <ns3:TrackPointExtension>
            <ns3:atemp>20.0</ns3:atemp>
          </ns3:TrackPointExtension>
        </extensions>
      </trkpt>
      <trkpt lat="42.6030950434505939483642578125" lon="19.88781072199344635009765625">
        <ele>2186</ele>
        <time>2026-06-16T10:25:09.000Z</time>
        <extensions>
          <ns3:TrackPointExtension>
            <ns3:atemp>20.0</ns3:atemp>
          </ns3:TrackPointExtension>
        </extensions>
      </trkpt>
      <trkpt lat="42.6030950434505939483642578125" lon="19.88781072199344635009765625">
        <ele>2186</ele>
        <time>2026-06-16T10:25:10.000Z</time>
        <extensions>
          <ns3:TrackPointExtension>
            <ns3:atemp>20.0</ns3:atemp>
          </ns3:TrackPointExtension>
        </extensions>
      </trkpt>
      <trkpt lat="42.6030950434505939483642578125" lon="19.88781072199344635009765625">
        <ele>2186</ele>
        <time>2026-06-16T10:25:11.000Z</time>
        <extensions>
          <ns3:TrackPointExtension>
            <ns3:atemp>20.0</ns3:atemp>
          </ns3:TrackPointExtension>
        </extensions>
      </trkpt>
      <trkpt lat="42.6030950434505939483642578125" lon="19.88781072199344635009765625">
        <ele>2186</ele>
        <time>2026-06-16T10:25:12.000Z</time>
        <extensions>
          <ns3:TrackPointExtension>
            <ns3:atemp>20.0</ns3:atemp>
          </ns3:TrackPointExtension>
        </extensions>
      </trkpt>
      <trkpt lat="42.6030950434505939483642578125" lon="19.88781072199344635009765625">
        <ele>2186</ele>
        <time>2026-06-16T10:25:13.000Z</time>
        <extensions>
          <ns3:TrackPointExtension>
            <ns3:atemp>20.0</ns3:atemp>
          </ns3:TrackPointExtension>
        </extensions>
      </trkpt>
      <trkpt lat="42.6030950434505939483642578125" lon="19.88781072199344635009765625">
        <ele>2186</ele>
        <time>2026-06-16T10:25:14.000Z</time>
        <extensions>
          <ns3:TrackPointExtension>
            <ns3:atemp>20.0</ns3:atemp>
          </ns3:TrackPointExtension>
        </extensions>
      </trkpt>
      <trkpt lat="42.6030950434505939483642578125" lon="19.88781072199344635009765625">
        <ele>2186</ele>
        <time>2026-06-16T10:25:15.000Z</time>
        <extensions>
          <ns3:TrackPointExtension>
            <ns3:atemp>20.0</ns3:atemp>
          </ns3:TrackPointExtension>
        </extensions>
      </trkpt>
      <trkpt lat="42.6030950434505939483642578125" lon="19.88781072199344635009765625">
        <ele>2186</ele>
        <time>2026-06-16T10:25:16.000Z</time>
        <extensions>
          <ns3:TrackPointExtension>
            <ns3:atemp>20.0</ns3:atemp>
          </ns3:TrackPointExtension>
        </extensions>
      </trkpt>
      <trkpt lat="42.6030950434505939483642578125" lon="19.88781072199344635009765625">
        <ele>2186</ele>
        <time>2026-06-16T10:25:17.000Z</time>
        <extensions>
          <ns3:TrackPointExtension>
            <ns3:atemp>20.0</ns3:atemp>
          </ns3:TrackPointExtension>
        </extensions>
      </trkpt>
      <trkpt lat="42.6030950434505939483642578125" lon="19.88781072199344635009765625">
        <ele>2186</ele>
        <time>2026-06-16T10:25:18.000Z</time>
        <extensions>
          <ns3:TrackPointExtension>
            <ns3:atemp>20.0</ns3:atemp>
          </ns3:TrackPointExtension>
        </extensions>
      </trkpt>
      <trkpt lat="42.6030950434505939483642578125" lon="19.88781072199344635009765625">
        <ele>2185.800048828125</ele>
        <time>2026-06-16T10:25:19.000Z</time>
        <extensions>
          <ns3:TrackPointExtension>
            <ns3:atemp>20.0</ns3:atemp>
          </ns3:TrackPointExtension>
        </extensions>
      </trkpt>
      <trkpt lat="42.6030950434505939483642578125" lon="19.88781072199344635009765625">
        <ele>2185.800048828125</ele>
        <time>2026-06-16T10:25:20.000Z</time>
        <extensions>
          <ns3:TrackPointExtension>
            <ns3:atemp>20.0</ns3:atemp>
          </ns3:TrackPointExtension>
        </extensions>
      </trkpt>
      <trkpt lat="42.6030950434505939483642578125" lon="19.88781072199344635009765625">
        <ele>2185.800048828125</ele>
        <time>2026-06-16T10:25:21.000Z</time>
        <extensions>
          <ns3:TrackPointExtension>
            <ns3:atemp>20.0</ns3:atemp>
          </ns3:TrackPointExtension>
        </extensions>
      </trkpt>
      <trkpt lat="42.6030950434505939483642578125" lon="19.88781072199344635009765625">
        <ele>2185.800048828125</ele>
        <time>2026-06-16T10:25:22.000Z</time>
        <extensions>
          <ns3:TrackPointExtension>
            <ns3:atemp>20.0</ns3:atemp>
          </ns3:TrackPointExtension>
        </extensions>
      </trkpt>
      <trkpt lat="42.6030950434505939483642578125" lon="19.88781072199344635009765625">
        <ele>2185.800048828125</ele>
        <time>2026-06-16T10:25:23.000Z</time>
        <extensions>
          <ns3:TrackPointExtension>
            <ns3:atemp>20.0</ns3:atemp>
          </ns3:TrackPointExtension>
        </extensions>
      </trkpt>
      <trkpt lat="42.6030950434505939483642578125" lon="19.88781072199344635009765625">
        <ele>2185.800048828125</ele>
        <time>2026-06-16T10:25:24.000Z</time>
        <extensions>
          <ns3:TrackPointExtension>
            <ns3:atemp>20.0</ns3:atemp>
          </ns3:TrackPointExtension>
        </extensions>
      </trkpt>
      <trkpt lat="42.6030950434505939483642578125" lon="19.88781072199344635009765625">
        <ele>2185.800048828125</ele>
        <time>2026-06-16T10:25:25.000Z</time>
        <extensions>
          <ns3:TrackPointExtension>
            <ns3:atemp>20.0</ns3:atemp>
          </ns3:TrackPointExtension>
        </extensions>
      </trkpt>
      <trkpt lat="42.6030950434505939483642578125" lon="19.88781072199344635009765625">
        <ele>2185.800048828125</ele>
        <time>2026-06-16T10:25:26.000Z</time>
        <extensions>
          <ns3:TrackPointExtension>
            <ns3:atemp>20.0</ns3:atemp>
          </ns3:TrackPointExtension>
        </extensions>
      </trkpt>
      <trkpt lat="42.6030950434505939483642578125" lon="19.88781072199344635009765625">
        <ele>2185.800048828125</ele>
        <time>2026-06-16T10:25:27.000Z</time>
        <extensions>
          <ns3:TrackPointExtension>
            <ns3:atemp>20.0</ns3:atemp>
          </ns3:TrackPointExtension>
        </extensions>
      </trkpt>
      <trkpt lat="42.6030950434505939483642578125" lon="19.88781072199344635009765625">
        <ele>2185.800048828125</ele>
        <time>2026-06-16T10:25:28.000Z</time>
        <extensions>
          <ns3:TrackPointExtension>
            <ns3:atemp>20.0</ns3:atemp>
          </ns3:TrackPointExtension>
        </extensions>
      </trkpt>
      <trkpt lat="42.6030950434505939483642578125" lon="19.88781072199344635009765625">
        <ele>2185.800048828125</ele>
        <time>2026-06-16T10:25:29.000Z</time>
        <extensions>
          <ns3:TrackPointExtension>
            <ns3:atemp>20.0</ns3:atemp>
          </ns3:TrackPointExtension>
        </extensions>
      </trkpt>
      <trkpt lat="42.6030950434505939483642578125" lon="19.88781072199344635009765625">
        <ele>2185.800048828125</ele>
        <time>2026-06-16T10:25:30.000Z</time>
        <extensions>
          <ns3:TrackPointExtension>
            <ns3:atemp>20.0</ns3:atemp>
          </ns3:TrackPointExtension>
        </extensions>
      </trkpt>
      <trkpt lat="42.6030950434505939483642578125" lon="19.88781072199344635009765625">
        <ele>2185.800048828125</ele>
        <time>2026-06-16T10:25:31.000Z</time>
        <extensions>
          <ns3:TrackPointExtension>
            <ns3:atemp>20.0</ns3:atemp>
          </ns3:TrackPointExtension>
        </extensions>
      </trkpt>
      <trkpt lat="42.6030950434505939483642578125" lon="19.88781072199344635009765625">
        <ele>2185.800048828125</ele>
        <time>2026-06-16T10:25:32.000Z</time>
        <extensions>
          <ns3:TrackPointExtension>
            <ns3:atemp>20.0</ns3:atemp>
          </ns3:TrackPointExtension>
        </extensions>
      </trkpt>
      <trkpt lat="42.6030950434505939483642578125" lon="19.88781072199344635009765625">
        <ele>2185.800048828125</ele>
        <time>2026-06-16T10:25:33.000Z</time>
        <extensions>
          <ns3:TrackPointExtension>
            <ns3:atemp>20.0</ns3:atemp>
          </ns3:TrackPointExtension>
        </extensions>
      </trkpt>
      <trkpt lat="42.6030950434505939483642578125" lon="19.88781072199344635009765625">
        <ele>2186</ele>
        <time>2026-06-16T10:25:34.000Z</time>
        <extensions>
          <ns3:TrackPointExtension>
            <ns3:atemp>20.0</ns3:atemp>
          </ns3:TrackPointExtension>
        </extensions>
      </trkpt>
      <trkpt lat="42.6030950434505939483642578125" lon="19.88781072199344635009765625">
        <ele>2185.800048828125</ele>
        <time>2026-06-16T10:25:35.000Z</time>
        <extensions>
          <ns3:TrackPointExtension>
            <ns3:atemp>20.0</ns3:atemp>
          </ns3:TrackPointExtension>
        </extensions>
      </trkpt>
      <trkpt lat="42.6030950434505939483642578125" lon="19.88781072199344635009765625">
        <ele>2186</ele>
        <time>2026-06-16T10:25:36.000Z</time>
        <extensions>
          <ns3:TrackPointExtension>
            <ns3:atemp>20.0</ns3:atemp>
          </ns3:TrackPointExtension>
        </extensions>
      </trkpt>
      <trkpt lat="42.6030950434505939483642578125" lon="19.88781072199344635009765625">
        <ele>2186</ele>
        <time>2026-06-16T10:25:37.000Z</time>
        <extensions>
          <ns3:TrackPointExtension>
            <ns3:atemp>20.0</ns3:atemp>
          </ns3:TrackPointExtension>
        </extensions>
      </trkpt>
      <trkpt lat="42.6030950434505939483642578125" lon="19.88781072199344635009765625">
        <ele>2185.800048828125</ele>
        <time>2026-06-16T10:25:38.000Z</time>
        <extensions>
          <ns3:TrackPointExtension>
            <ns3:atemp>20.0</ns3:atemp>
          </ns3:TrackPointExtension>
        </extensions>
      </trkpt>
      <trkpt lat="42.6030950434505939483642578125" lon="19.88781072199344635009765625">
        <ele>2185.800048828125</ele>
        <time>2026-06-16T10:25:39.000Z</time>
        <extensions>
          <ns3:TrackPointExtension>
            <ns3:atemp>20.0</ns3:atemp>
          </ns3:TrackPointExtension>
        </extensions>
      </trkpt>
      <trkpt lat="42.6030950434505939483642578125" lon="19.88781072199344635009765625">
        <ele>2185.800048828125</ele>
        <time>2026-06-16T10:25:40.000Z</time>
        <extensions>
          <ns3:TrackPointExtension>
            <ns3:atemp>20.0</ns3:atemp>
          </ns3:TrackPointExtension>
        </extensions>
      </trkpt>
      <trkpt lat="42.6030950434505939483642578125" lon="19.88781072199344635009765625">
        <ele>2185.800048828125</ele>
        <time>2026-06-16T10:25:41.000Z</time>
        <extensions>
          <ns3:TrackPointExtension>
            <ns3:atemp>20.0</ns3:atemp>
          </ns3:TrackPointExtension>
        </extensions>
      </trkpt>
      <trkpt lat="42.6030950434505939483642578125" lon="19.88781072199344635009765625">
        <ele>2185.800048828125</ele>
        <time>2026-06-16T10:25:42.000Z</time>
        <extensions>
          <ns3:TrackPointExtension>
            <ns3:atemp>20.0</ns3:atemp>
          </ns3:TrackPointExtension>
        </extensions>
      </trkpt>
      <trkpt lat="42.6030950434505939483642578125" lon="19.88781072199344635009765625">
        <ele>2185.800048828125</ele>
        <time>2026-06-16T10:25:43.000Z</time>
        <extensions>
          <ns3:TrackPointExtension>
            <ns3:atemp>20.0</ns3:atemp>
          </ns3:TrackPointExtension>
        </extensions>
      </trkpt>
      <trkpt lat="42.6030950434505939483642578125" lon="19.88781072199344635009765625">
        <ele>2185.800048828125</ele>
        <time>2026-06-16T10:25:44.000Z</time>
        <extensions>
          <ns3:TrackPointExtension>
            <ns3:atemp>20.0</ns3:atemp>
          </ns3:TrackPointExtension>
        </extensions>
      </trkpt>
      <trkpt lat="42.6030950434505939483642578125" lon="19.88781072199344635009765625">
        <ele>2185.800048828125</ele>
        <time>2026-06-16T10:25:45.000Z</time>
        <extensions>
          <ns3:TrackPointExtension>
            <ns3:atemp>20.0</ns3:atemp>
          </ns3:TrackPointExtension>
        </extensions>
      </trkpt>
      <trkpt lat="42.6030950434505939483642578125" lon="19.88781072199344635009765625">
        <ele>2185.800048828125</ele>
        <time>2026-06-16T10:25:46.000Z</time>
        <extensions>
          <ns3:TrackPointExtension>
            <ns3:atemp>20.0</ns3:atemp>
          </ns3:TrackPointExtension>
        </extensions>
      </trkpt>
      <trkpt lat="42.6030950434505939483642578125" lon="19.88781072199344635009765625">
        <ele>2185.800048828125</ele>
        <time>2026-06-16T10:25:47.000Z</time>
        <extensions>
          <ns3:TrackPointExtension>
            <ns3:atemp>20.0</ns3:atemp>
          </ns3:TrackPointExtension>
        </extensions>
      </trkpt>
      <trkpt lat="42.6030950434505939483642578125" lon="19.88781072199344635009765625">
        <ele>2185.800048828125</ele>
        <time>2026-06-16T10:25:48.000Z</time>
        <extensions>
          <ns3:TrackPointExtension>
            <ns3:atemp>20.0</ns3:atemp>
          </ns3:TrackPointExtension>
        </extensions>
      </trkpt>
      <trkpt lat="42.6030950434505939483642578125" lon="19.88781072199344635009765625">
        <ele>2185.800048828125</ele>
        <time>2026-06-16T10:25:49.000Z</time>
        <extensions>
          <ns3:TrackPointExtension>
            <ns3:atemp>20.0</ns3:atemp>
          </ns3:TrackPointExtension>
        </extensions>
      </trkpt>
      <trkpt lat="42.6030950434505939483642578125" lon="19.88781072199344635009765625">
        <ele>2185.800048828125</ele>
        <time>2026-06-16T10:25:50.000Z</time>
        <extensions>
          <ns3:TrackPointExtension>
            <ns3:atemp>20.0</ns3:atemp>
          </ns3:TrackPointExtension>
        </extensions>
      </trkpt>
      <trkpt lat="42.6030950434505939483642578125" lon="19.88781072199344635009765625">
        <ele>2186</ele>
        <time>2026-06-16T10:25:51.000Z</time>
        <extensions>
          <ns3:TrackPointExtension>
            <ns3:atemp>20.0</ns3:atemp>
          </ns3:TrackPointExtension>
        </extensions>
      </trkpt>
      <trkpt lat="42.6030950434505939483642578125" lon="19.88781072199344635009765625">
        <ele>2186</ele>
        <time>2026-06-16T10:25:52.000Z</time>
        <extensions>
          <ns3:TrackPointExtension>
            <ns3:atemp>20.0</ns3:atemp>
          </ns3:TrackPointExtension>
        </extensions>
      </trkpt>
      <trkpt lat="42.6030950434505939483642578125" lon="19.88781072199344635009765625">
        <ele>2185.800048828125</ele>
        <time>2026-06-16T10:25:53.000Z</time>
        <extensions>
          <ns3:TrackPointExtension>
            <ns3:atemp>20.0</ns3:atemp>
          </ns3:TrackPointExtension>
        </extensions>
      </trkpt>
      <trkpt lat="42.6030950434505939483642578125" lon="19.88781072199344635009765625">
        <ele>2185.800048828125</ele>
        <time>2026-06-16T10:25:54.000Z</time>
        <extensions>
          <ns3:TrackPointExtension>
            <ns3:atemp>20.0</ns3:atemp>
          </ns3:TrackPointExtension>
        </extensions>
      </trkpt>
      <trkpt lat="42.6030950434505939483642578125" lon="19.88781072199344635009765625">
        <ele>2185.800048828125</ele>
        <time>2026-06-16T10:25:55.000Z</time>
        <extensions>
          <ns3:TrackPointExtension>
            <ns3:atemp>20.0</ns3:atemp>
          </ns3:TrackPointExtension>
        </extensions>
      </trkpt>
      <trkpt lat="42.6030950434505939483642578125" lon="19.88781072199344635009765625">
        <ele>2185.800048828125</ele>
        <time>2026-06-16T10:25:56.000Z</time>
        <extensions>
          <ns3:TrackPointExtension>
            <ns3:atemp>20.0</ns3:atemp>
          </ns3:TrackPointExtension>
        </extensions>
      </trkpt>
      <trkpt lat="42.6030950434505939483642578125" lon="19.88781072199344635009765625">
        <ele>2185.800048828125</ele>
        <time>2026-06-16T10:25:57.000Z</time>
        <extensions>
          <ns3:TrackPointExtension>
            <ns3:atemp>20.0</ns3:atemp>
          </ns3:TrackPointExtension>
        </extensions>
      </trkpt>
      <trkpt lat="42.6030950434505939483642578125" lon="19.88781072199344635009765625">
        <ele>2185.800048828125</ele>
        <time>2026-06-16T10:25:58.000Z</time>
        <extensions>
          <ns3:TrackPointExtension>
            <ns3:atemp>21.0</ns3:atemp>
          </ns3:TrackPointExtension>
        </extensions>
      </trkpt>
      <trkpt lat="42.6030950434505939483642578125" lon="19.88781072199344635009765625">
        <ele>2185.800048828125</ele>
        <time>2026-06-16T10:25:59.000Z</time>
        <extensions>
          <ns3:TrackPointExtension>
            <ns3:atemp>20.0</ns3:atemp>
          </ns3:TrackPointExtension>
        </extensions>
      </trkpt>
      <trkpt lat="42.6030950434505939483642578125" lon="19.88781072199344635009765625">
        <ele>2185.800048828125</ele>
        <time>2026-06-16T10:26:00.000Z</time>
        <extensions>
          <ns3:TrackPointExtension>
            <ns3:atemp>20.0</ns3:atemp>
          </ns3:TrackPointExtension>
        </extensions>
      </trkpt>
      <trkpt lat="42.6030950434505939483642578125" lon="19.88781072199344635009765625">
        <ele>2185.800048828125</ele>
        <time>2026-06-16T10:26:01.000Z</time>
        <extensions>
          <ns3:TrackPointExtension>
            <ns3:atemp>20.0</ns3:atemp>
          </ns3:TrackPointExtension>
        </extensions>
      </trkpt>
      <trkpt lat="42.6030950434505939483642578125" lon="19.88781072199344635009765625">
        <ele>2185.800048828125</ele>
        <time>2026-06-16T10:26:02.000Z</time>
        <extensions>
          <ns3:TrackPointExtension>
            <ns3:atemp>20.0</ns3:atemp>
          </ns3:TrackPointExtension>
        </extensions>
      </trkpt>
      <trkpt lat="42.6030950434505939483642578125" lon="19.88781072199344635009765625">
        <ele>2186</ele>
        <time>2026-06-16T10:26:03.000Z</time>
        <extensions>
          <ns3:TrackPointExtension>
            <ns3:atemp>20.0</ns3:atemp>
          </ns3:TrackPointExtension>
        </extensions>
      </trkpt>
      <trkpt lat="42.6030950434505939483642578125" lon="19.88781072199344635009765625">
        <ele>2186</ele>
        <time>2026-06-16T10:26:04.000Z</time>
        <extensions>
          <ns3:TrackPointExtension>
            <ns3:atemp>20.0</ns3:atemp>
          </ns3:TrackPointExtension>
        </extensions>
      </trkpt>
      <trkpt lat="42.6030950434505939483642578125" lon="19.88781072199344635009765625">
        <ele>2186</ele>
        <time>2026-06-16T10:26:05.000Z</time>
        <extensions>
          <ns3:TrackPointExtension>
            <ns3:atemp>20.0</ns3:atemp>
          </ns3:TrackPointExtension>
        </extensions>
      </trkpt>
      <trkpt lat="42.6030950434505939483642578125" lon="19.88781072199344635009765625">
        <ele>2185.800048828125</ele>
        <time>2026-06-16T10:26:06.000Z</time>
        <extensions>
          <ns3:TrackPointExtension>
            <ns3:atemp>20.0</ns3:atemp>
          </ns3:TrackPointExtension>
        </extensions>
      </trkpt>
      <trkpt lat="42.6030950434505939483642578125" lon="19.88781072199344635009765625">
        <ele>2185.800048828125</ele>
        <time>2026-06-16T10:26:07.000Z</time>
        <extensions>
          <ns3:TrackPointExtension>
            <ns3:atemp>20.0</ns3:atemp>
          </ns3:TrackPointExtension>
        </extensions>
      </trkpt>
      <trkpt lat="42.6030950434505939483642578125" lon="19.88781072199344635009765625">
        <ele>2185.800048828125</ele>
        <time>2026-06-16T10:26:08.000Z</time>
        <extensions>
          <ns3:TrackPointExtension>
            <ns3:atemp>20.0</ns3:atemp>
          </ns3:TrackPointExtension>
        </extensions>
      </trkpt>
      <trkpt lat="42.6030950434505939483642578125" lon="19.88781072199344635009765625">
        <ele>2185.800048828125</ele>
        <time>2026-06-16T10:26:09.000Z</time>
        <extensions>
          <ns3:TrackPointExtension>
            <ns3:atemp>20.0</ns3:atemp>
          </ns3:TrackPointExtension>
        </extensions>
      </trkpt>
      <trkpt lat="42.6030950434505939483642578125" lon="19.88781072199344635009765625">
        <ele>2185.800048828125</ele>
        <time>2026-06-16T10:26:10.000Z</time>
        <extensions>
          <ns3:TrackPointExtension>
            <ns3:atemp>20.0</ns3:atemp>
          </ns3:TrackPointExtension>
        </extensions>
      </trkpt>
      <trkpt lat="42.6030950434505939483642578125" lon="19.88781072199344635009765625">
        <ele>2185.800048828125</ele>
        <time>2026-06-16T10:26:11.000Z</time>
        <extensions>
          <ns3:TrackPointExtension>
            <ns3:atemp>20.0</ns3:atemp>
          </ns3:TrackPointExtension>
        </extensions>
      </trkpt>
      <trkpt lat="42.6030950434505939483642578125" lon="19.88781072199344635009765625">
        <ele>2185.800048828125</ele>
        <time>2026-06-16T10:26:12.000Z</time>
        <extensions>
          <ns3:TrackPointExtension>
            <ns3:atemp>20.0</ns3:atemp>
          </ns3:TrackPointExtension>
        </extensions>
      </trkpt>
      <trkpt lat="42.6030950434505939483642578125" lon="19.88781072199344635009765625">
        <ele>2185.800048828125</ele>
        <time>2026-06-16T10:26:13.000Z</time>
        <extensions>
          <ns3:TrackPointExtension>
            <ns3:atemp>20.0</ns3:atemp>
          </ns3:TrackPointExtension>
        </extensions>
      </trkpt>
      <trkpt lat="42.6030950434505939483642578125" lon="19.88781072199344635009765625">
        <ele>2185.800048828125</ele>
        <time>2026-06-16T10:26:14.000Z</time>
        <extensions>
          <ns3:TrackPointExtension>
            <ns3:atemp>20.0</ns3:atemp>
          </ns3:TrackPointExtension>
        </extensions>
      </trkpt>
      <trkpt lat="42.6030950434505939483642578125" lon="19.88781072199344635009765625">
        <ele>2185.800048828125</ele>
        <time>2026-06-16T10:26:15.000Z</time>
        <extensions>
          <ns3:TrackPointExtension>
            <ns3:atemp>20.0</ns3:atemp>
          </ns3:TrackPointExtension>
        </extensions>
      </trkpt>
      <trkpt lat="42.6030950434505939483642578125" lon="19.88781072199344635009765625">
        <ele>2185.800048828125</ele>
        <time>2026-06-16T10:26:16.000Z</time>
        <extensions>
          <ns3:TrackPointExtension>
            <ns3:atemp>20.0</ns3:atemp>
          </ns3:TrackPointExtension>
        </extensions>
      </trkpt>
      <trkpt lat="42.6030950434505939483642578125" lon="19.88781072199344635009765625">
        <ele>2185.800048828125</ele>
        <time>2026-06-16T10:26:17.000Z</time>
        <extensions>
          <ns3:TrackPointExtension>
            <ns3:atemp>20.0</ns3:atemp>
          </ns3:TrackPointExtension>
        </extensions>
      </trkpt>
      <trkpt lat="42.6030950434505939483642578125" lon="19.88781072199344635009765625">
        <ele>2185.800048828125</ele>
        <time>2026-06-16T10:26:18.000Z</time>
        <extensions>
          <ns3:TrackPointExtension>
            <ns3:atemp>20.0</ns3:atemp>
          </ns3:TrackPointExtension>
        </extensions>
      </trkpt>
      <trkpt lat="42.6030950434505939483642578125" lon="19.88781072199344635009765625">
        <ele>2185.800048828125</ele>
        <time>2026-06-16T10:26:19.000Z</time>
        <extensions>
          <ns3:TrackPointExtension>
            <ns3:atemp>20.0</ns3:atemp>
          </ns3:TrackPointExtension>
        </extensions>
      </trkpt>
      <trkpt lat="42.6030950434505939483642578125" lon="19.88781072199344635009765625">
        <ele>2185.800048828125</ele>
        <time>2026-06-16T10:26:20.000Z</time>
        <extensions>
          <ns3:TrackPointExtension>
            <ns3:atemp>20.0</ns3:atemp>
          </ns3:TrackPointExtension>
        </extensions>
      </trkpt>
      <trkpt lat="42.6030950434505939483642578125" lon="19.88781072199344635009765625">
        <ele>2185.800048828125</ele>
        <time>2026-06-16T10:26:21.000Z</time>
        <extensions>
          <ns3:TrackPointExtension>
            <ns3:atemp>20.0</ns3:atemp>
          </ns3:TrackPointExtension>
        </extensions>
      </trkpt>
      <trkpt lat="42.6030950434505939483642578125" lon="19.88781072199344635009765625">
        <ele>2185.800048828125</ele>
        <time>2026-06-16T10:26:22.000Z</time>
        <extensions>
          <ns3:TrackPointExtension>
            <ns3:atemp>20.0</ns3:atemp>
          </ns3:TrackPointExtension>
        </extensions>
      </trkpt>
      <trkpt lat="42.6030950434505939483642578125" lon="19.88781072199344635009765625">
        <ele>2185.800048828125</ele>
        <time>2026-06-16T10:26:23.000Z</time>
        <extensions>
          <ns3:TrackPointExtension>
            <ns3:atemp>20.0</ns3:atemp>
          </ns3:TrackPointExtension>
        </extensions>
      </trkpt>
      <trkpt lat="42.6030950434505939483642578125" lon="19.88781072199344635009765625">
        <ele>2185.800048828125</ele>
        <time>2026-06-16T10:26:24.000Z</time>
        <extensions>
          <ns3:TrackPointExtension>
            <ns3:atemp>20.0</ns3:atemp>
          </ns3:TrackPointExtension>
        </extensions>
      </trkpt>
      <trkpt lat="42.6030950434505939483642578125" lon="19.88781072199344635009765625">
        <ele>2185.800048828125</ele>
        <time>2026-06-16T10:26:25.000Z</time>
        <extensions>
          <ns3:TrackPointExtension>
            <ns3:atemp>20.0</ns3:atemp>
          </ns3:TrackPointExtension>
        </extensions>
      </trkpt>
      <trkpt lat="42.6030950434505939483642578125" lon="19.88781072199344635009765625">
        <ele>2185.800048828125</ele>
        <time>2026-06-16T10:26:26.000Z</time>
        <extensions>
          <ns3:TrackPointExtension>
            <ns3:atemp>20.0</ns3:atemp>
          </ns3:TrackPointExtension>
        </extensions>
      </trkpt>
      <trkpt lat="42.6030950434505939483642578125" lon="19.88781072199344635009765625">
        <ele>2185.800048828125</ele>
        <time>2026-06-16T10:26:27.000Z</time>
        <extensions>
          <ns3:TrackPointExtension>
            <ns3:atemp>20.0</ns3:atemp>
          </ns3:TrackPointExtension>
        </extensions>
      </trkpt>
      <trkpt lat="42.6030950434505939483642578125" lon="19.88781072199344635009765625">
        <ele>2185.800048828125</ele>
        <time>2026-06-16T10:26:28.000Z</time>
        <extensions>
          <ns3:TrackPointExtension>
            <ns3:atemp>20.0</ns3:atemp>
          </ns3:TrackPointExtension>
        </extensions>
      </trkpt>
      <trkpt lat="42.6030950434505939483642578125" lon="19.88781072199344635009765625">
        <ele>2185.800048828125</ele>
        <time>2026-06-16T10:26:29.000Z</time>
        <extensions>
          <ns3:TrackPointExtension>
            <ns3:atemp>20.0</ns3:atemp>
          </ns3:TrackPointExtension>
        </extensions>
      </trkpt>
      <trkpt lat="42.6030950434505939483642578125" lon="19.88781072199344635009765625">
        <ele>2185.800048828125</ele>
        <time>2026-06-16T10:26:30.000Z</time>
        <extensions>
          <ns3:TrackPointExtension>
            <ns3:atemp>20.0</ns3:atemp>
          </ns3:TrackPointExtension>
        </extensions>
      </trkpt>
      <trkpt lat="42.6030950434505939483642578125" lon="19.88781072199344635009765625">
        <ele>2185.800048828125</ele>
        <time>2026-06-16T10:26:31.000Z</time>
        <extensions>
          <ns3:TrackPointExtension>
            <ns3:atemp>20.0</ns3:atemp>
          </ns3:TrackPointExtension>
        </extensions>
      </trkpt>
      <trkpt lat="42.6030950434505939483642578125" lon="19.88781072199344635009765625">
        <ele>2185.800048828125</ele>
        <time>2026-06-16T10:26:32.000Z</time>
        <extensions>
          <ns3:TrackPointExtension>
            <ns3:atemp>20.0</ns3:atemp>
          </ns3:TrackPointExtension>
        </extensions>
      </trkpt>
      <trkpt lat="42.6030950434505939483642578125" lon="19.88781072199344635009765625">
        <ele>2185.800048828125</ele>
        <time>2026-06-16T10:26:33.000Z</time>
        <extensions>
          <ns3:TrackPointExtension>
            <ns3:atemp>20.0</ns3:atemp>
          </ns3:TrackPointExtension>
        </extensions>
      </trkpt>
      <trkpt lat="42.6030950434505939483642578125" lon="19.88781072199344635009765625">
        <ele>2185.800048828125</ele>
        <time>2026-06-16T10:26:34.000Z</time>
        <extensions>
          <ns3:TrackPointExtension>
            <ns3:atemp>20.0</ns3:atemp>
          </ns3:TrackPointExtension>
        </extensions>
      </trkpt>
      <trkpt lat="42.6030950434505939483642578125" lon="19.88781072199344635009765625">
        <ele>2185.800048828125</ele>
        <time>2026-06-16T10:26:35.000Z</time>
        <extensions>
          <ns3:TrackPointExtension>
            <ns3:atemp>20.0</ns3:atemp>
          </ns3:TrackPointExtension>
        </extensions>
      </trkpt>
      <trkpt lat="42.6030950434505939483642578125" lon="19.88781072199344635009765625">
        <ele>2185.800048828125</ele>
        <time>2026-06-16T10:26:36.000Z</time>
        <extensions>
          <ns3:TrackPointExtension>
            <ns3:atemp>20.0</ns3:atemp>
          </ns3:TrackPointExtension>
        </extensions>
      </trkpt>
      <trkpt lat="42.6030950434505939483642578125" lon="19.88781072199344635009765625">
        <ele>2185.800048828125</ele>
        <time>2026-06-16T10:26:37.000Z</time>
        <extensions>
          <ns3:TrackPointExtension>
            <ns3:atemp>20.0</ns3:atemp>
          </ns3:TrackPointExtension>
        </extensions>
      </trkpt>
      <trkpt lat="42.6030950434505939483642578125" lon="19.88781072199344635009765625">
        <ele>2185.800048828125</ele>
        <time>2026-06-16T10:26:38.000Z</time>
        <extensions>
          <ns3:TrackPointExtension>
            <ns3:atemp>20.0</ns3:atemp>
          </ns3:TrackPointExtension>
        </extensions>
      </trkpt>
      <trkpt lat="42.6030950434505939483642578125" lon="19.88781072199344635009765625">
        <ele>2185.800048828125</ele>
        <time>2026-06-16T10:26:39.000Z</time>
        <extensions>
          <ns3:TrackPointExtension>
            <ns3:atemp>20.0</ns3:atemp>
          </ns3:TrackPointExtension>
        </extensions>
      </trkpt>
      <trkpt lat="42.6030950434505939483642578125" lon="19.88781072199344635009765625">
        <ele>2185.800048828125</ele>
        <time>2026-06-16T10:26:40.000Z</time>
        <extensions>
          <ns3:TrackPointExtension>
            <ns3:atemp>20.0</ns3:atemp>
          </ns3:TrackPointExtension>
        </extensions>
      </trkpt>
      <trkpt lat="42.6030950434505939483642578125" lon="19.88781072199344635009765625">
        <ele>2185.800048828125</ele>
        <time>2026-06-16T10:26:41.000Z</time>
        <extensions>
          <ns3:TrackPointExtension>
            <ns3:atemp>20.0</ns3:atemp>
          </ns3:TrackPointExtension>
        </extensions>
      </trkpt>
      <trkpt lat="42.6030950434505939483642578125" lon="19.88781072199344635009765625">
        <ele>2185.800048828125</ele>
        <time>2026-06-16T10:26:42.000Z</time>
        <extensions>
          <ns3:TrackPointExtension>
            <ns3:atemp>21.0</ns3:atemp>
          </ns3:TrackPointExtension>
        </extensions>
      </trkpt>
      <trkpt lat="42.6030950434505939483642578125" lon="19.88781072199344635009765625">
        <ele>2185.800048828125</ele>
        <time>2026-06-16T10:26:43.000Z</time>
        <extensions>
          <ns3:TrackPointExtension>
            <ns3:atemp>21.0</ns3:atemp>
          </ns3:TrackPointExtension>
        </extensions>
      </trkpt>
      <trkpt lat="42.6030950434505939483642578125" lon="19.88781072199344635009765625">
        <ele>2185.800048828125</ele>
        <time>2026-06-16T10:26:44.000Z</time>
        <extensions>
          <ns3:TrackPointExtension>
            <ns3:atemp>21.0</ns3:atemp>
          </ns3:TrackPointExtension>
        </extensions>
      </trkpt>
      <trkpt lat="42.6030950434505939483642578125" lon="19.88781072199344635009765625">
        <ele>2185.800048828125</ele>
        <time>2026-06-16T10:26:45.000Z</time>
        <extensions>
          <ns3:TrackPointExtension>
            <ns3:atemp>21.0</ns3:atemp>
          </ns3:TrackPointExtension>
        </extensions>
      </trkpt>
      <trkpt lat="42.6030950434505939483642578125" lon="19.88781072199344635009765625">
        <ele>2185.800048828125</ele>
        <time>2026-06-16T10:26:46.000Z</time>
        <extensions>
          <ns3:TrackPointExtension>
            <ns3:atemp>21.0</ns3:atemp>
          </ns3:TrackPointExtension>
        </extensions>
      </trkpt>
      <trkpt lat="42.6030950434505939483642578125" lon="19.88781072199344635009765625">
        <ele>2185.800048828125</ele>
        <time>2026-06-16T10:26:47.000Z</time>
        <extensions>
          <ns3:TrackPointExtension>
            <ns3:atemp>21.0</ns3:atemp>
          </ns3:TrackPointExtension>
        </extensions>
      </trkpt>
      <trkpt lat="42.6030950434505939483642578125" lon="19.88781072199344635009765625">
        <ele>2185.800048828125</ele>
        <time>2026-06-16T10:26:48.000Z</time>
        <extensions>
          <ns3:TrackPointExtension>
            <ns3:atemp>21.0</ns3:atemp>
          </ns3:TrackPointExtension>
        </extensions>
      </trkpt>
      <trkpt lat="42.6030950434505939483642578125" lon="19.88781072199344635009765625">
        <ele>2185.800048828125</ele>
        <time>2026-06-16T10:26:49.000Z</time>
        <extensions>
          <ns3:TrackPointExtension>
            <ns3:atemp>20.0</ns3:atemp>
          </ns3:TrackPointExtension>
        </extensions>
      </trkpt>
      <trkpt lat="42.6030950434505939483642578125" lon="19.88781072199344635009765625">
        <ele>2185.800048828125</ele>
        <time>2026-06-16T10:26:50.000Z</time>
        <extensions>
          <ns3:TrackPointExtension>
            <ns3:atemp>21.0</ns3:atemp>
          </ns3:TrackPointExtension>
        </extensions>
      </trkpt>
      <trkpt lat="42.6030950434505939483642578125" lon="19.88781072199344635009765625">
        <ele>2185.800048828125</ele>
        <time>2026-06-16T10:26:51.000Z</time>
        <extensions>
          <ns3:TrackPointExtension>
            <ns3:atemp>21.0</ns3:atemp>
          </ns3:TrackPointExtension>
        </extensions>
      </trkpt>
      <trkpt lat="42.6030950434505939483642578125" lon="19.88781072199344635009765625">
        <ele>2185.800048828125</ele>
        <time>2026-06-16T10:26:52.000Z</time>
        <extensions>
          <ns3:TrackPointExtension>
            <ns3:atemp>21.0</ns3:atemp>
          </ns3:TrackPointExtension>
        </extensions>
      </trkpt>
      <trkpt lat="42.6030950434505939483642578125" lon="19.88781072199344635009765625">
        <ele>2185.800048828125</ele>
        <time>2026-06-16T10:26:53.000Z</time>
        <extensions>
          <ns3:TrackPointExtension>
            <ns3:atemp>21.0</ns3:atemp>
          </ns3:TrackPointExtension>
        </extensions>
      </trkpt>
      <trkpt lat="42.6030950434505939483642578125" lon="19.88781072199344635009765625">
        <ele>2185.800048828125</ele>
        <time>2026-06-16T10:26:54.000Z</time>
        <extensions>
          <ns3:TrackPointExtension>
            <ns3:atemp>21.0</ns3:atemp>
          </ns3:TrackPointExtension>
        </extensions>
      </trkpt>
      <trkpt lat="42.6030950434505939483642578125" lon="19.88781072199344635009765625">
        <ele>2185.800048828125</ele>
        <time>2026-06-16T10:26:55.000Z</time>
        <extensions>
          <ns3:TrackPointExtension>
            <ns3:atemp>21.0</ns3:atemp>
          </ns3:TrackPointExtension>
        </extensions>
      </trkpt>
      <trkpt lat="42.6030950434505939483642578125" lon="19.88781072199344635009765625">
        <ele>2185.800048828125</ele>
        <time>2026-06-16T10:26:56.000Z</time>
        <extensions>
          <ns3:TrackPointExtension>
            <ns3:atemp>21.0</ns3:atemp>
          </ns3:TrackPointExtension>
        </extensions>
      </trkpt>
      <trkpt lat="42.6030950434505939483642578125" lon="19.88781072199344635009765625">
        <ele>2185.800048828125</ele>
        <time>2026-06-16T10:26:57.000Z</time>
        <extensions>
          <ns3:TrackPointExtension>
            <ns3:atemp>21.0</ns3:atemp>
          </ns3:TrackPointExtension>
        </extensions>
      </trkpt>
      <trkpt lat="42.6030950434505939483642578125" lon="19.88781072199344635009765625">
        <ele>2185.800048828125</ele>
        <time>2026-06-16T10:26:58.000Z</time>
        <extensions>
          <ns3:TrackPointExtension>
            <ns3:atemp>21.0</ns3:atemp>
          </ns3:TrackPointExtension>
        </extensions>
      </trkpt>
      <trkpt lat="42.6030950434505939483642578125" lon="19.88781072199344635009765625">
        <ele>2185.800048828125</ele>
        <time>2026-06-16T10:26:59.000Z</time>
        <extensions>
          <ns3:TrackPointExtension>
            <ns3:atemp>21.0</ns3:atemp>
          </ns3:TrackPointExtension>
        </extensions>
      </trkpt>
      <trkpt lat="42.6030950434505939483642578125" lon="19.88781072199344635009765625">
        <ele>2185.800048828125</ele>
        <time>2026-06-16T10:27:00.000Z</time>
        <extensions>
          <ns3:TrackPointExtension>
            <ns3:atemp>21.0</ns3:atemp>
          </ns3:TrackPointExtension>
        </extensions>
      </trkpt>
      <trkpt lat="42.6030950434505939483642578125" lon="19.88781072199344635009765625">
        <ele>2185.800048828125</ele>
        <time>2026-06-16T10:27:01.000Z</time>
        <extensions>
          <ns3:TrackPointExtension>
            <ns3:atemp>21.0</ns3:atemp>
          </ns3:TrackPointExtension>
        </extensions>
      </trkpt>
      <trkpt lat="42.6030950434505939483642578125" lon="19.88781072199344635009765625">
        <ele>2185.800048828125</ele>
        <time>2026-06-16T10:27:02.000Z</time>
        <extensions>
          <ns3:TrackPointExtension>
            <ns3:atemp>21.0</ns3:atemp>
          </ns3:TrackPointExtension>
        </extensions>
      </trkpt>
      <trkpt lat="42.6030950434505939483642578125" lon="19.88781072199344635009765625">
        <ele>2185.800048828125</ele>
        <time>2026-06-16T10:27:03.000Z</time>
        <extensions>
          <ns3:TrackPointExtension>
            <ns3:atemp>21.0</ns3:atemp>
          </ns3:TrackPointExtension>
        </extensions>
      </trkpt>
      <trkpt lat="42.6030950434505939483642578125" lon="19.88781072199344635009765625">
        <ele>2185.800048828125</ele>
        <time>2026-06-16T10:27:04.000Z</time>
        <extensions>
          <ns3:TrackPointExtension>
            <ns3:atemp>21.0</ns3:atemp>
          </ns3:TrackPointExtension>
        </extensions>
      </trkpt>
      <trkpt lat="42.6030950434505939483642578125" lon="19.88781072199344635009765625">
        <ele>2185.800048828125</ele>
        <time>2026-06-16T10:27:05.000Z</time>
        <extensions>
          <ns3:TrackPointExtension>
            <ns3:atemp>21.0</ns3:atemp>
          </ns3:TrackPointExtension>
        </extensions>
      </trkpt>
      <trkpt lat="42.6030950434505939483642578125" lon="19.88781072199344635009765625">
        <ele>2185.800048828125</ele>
        <time>2026-06-16T10:27:06.000Z</time>
        <extensions>
          <ns3:TrackPointExtension>
            <ns3:atemp>21.0</ns3:atemp>
          </ns3:TrackPointExtension>
        </extensions>
      </trkpt>
      <trkpt lat="42.6030950434505939483642578125" lon="19.88781072199344635009765625">
        <ele>2185.800048828125</ele>
        <time>2026-06-16T10:27:07.000Z</time>
        <extensions>
          <ns3:TrackPointExtension>
            <ns3:atemp>21.0</ns3:atemp>
          </ns3:TrackPointExtension>
        </extensions>
      </trkpt>
      <trkpt lat="42.6030950434505939483642578125" lon="19.88781072199344635009765625">
        <ele>2185.800048828125</ele>
        <time>2026-06-16T10:27:08.000Z</time>
        <extensions>
          <ns3:TrackPointExtension>
            <ns3:atemp>21.0</ns3:atemp>
          </ns3:TrackPointExtension>
        </extensions>
      </trkpt>
      <trkpt lat="42.6030950434505939483642578125" lon="19.88781072199344635009765625">
        <ele>2185.800048828125</ele>
        <time>2026-06-16T10:27:09.000Z</time>
        <extensions>
          <ns3:TrackPointExtension>
            <ns3:atemp>21.0</ns3:atemp>
          </ns3:TrackPointExtension>
        </extensions>
      </trkpt>
      <trkpt lat="42.6030950434505939483642578125" lon="19.88781072199344635009765625">
        <ele>2185.800048828125</ele>
        <time>2026-06-16T10:27:10.000Z</time>
        <extensions>
          <ns3:TrackPointExtension>
            <ns3:atemp>21.0</ns3:atemp>
          </ns3:TrackPointExtension>
        </extensions>
      </trkpt>
      <trkpt lat="42.6030950434505939483642578125" lon="19.88781072199344635009765625">
        <ele>2185.800048828125</ele>
        <time>2026-06-16T10:27:11.000Z</time>
        <extensions>
          <ns3:TrackPointExtension>
            <ns3:atemp>21.0</ns3:atemp>
          </ns3:TrackPointExtension>
        </extensions>
      </trkpt>
      <trkpt lat="42.6030950434505939483642578125" lon="19.88781072199344635009765625">
        <ele>2185.800048828125</ele>
        <time>2026-06-16T10:27:12.000Z</time>
        <extensions>
          <ns3:TrackPointExtension>
            <ns3:atemp>21.0</ns3:atemp>
          </ns3:TrackPointExtension>
        </extensions>
      </trkpt>
      <trkpt lat="42.6030950434505939483642578125" lon="19.88781072199344635009765625">
        <ele>2185.800048828125</ele>
        <time>2026-06-16T10:27:13.000Z</time>
        <extensions>
          <ns3:TrackPointExtension>
            <ns3:atemp>21.0</ns3:atemp>
          </ns3:TrackPointExtension>
        </extensions>
      </trkpt>
      <trkpt lat="42.6030950434505939483642578125" lon="19.88781072199344635009765625">
        <ele>2185.800048828125</ele>
        <time>2026-06-16T10:27:14.000Z</time>
        <extensions>
          <ns3:TrackPointExtension>
            <ns3:atemp>21.0</ns3:atemp>
          </ns3:TrackPointExtension>
        </extensions>
      </trkpt>
      <trkpt lat="42.6030950434505939483642578125" lon="19.88781072199344635009765625">
        <ele>2185.800048828125</ele>
        <time>2026-06-16T10:27:15.000Z</time>
        <extensions>
          <ns3:TrackPointExtension>
            <ns3:atemp>21.0</ns3:atemp>
          </ns3:TrackPointExtension>
        </extensions>
      </trkpt>
      <trkpt lat="42.6030950434505939483642578125" lon="19.88781072199344635009765625">
        <ele>2185.800048828125</ele>
        <time>2026-06-16T10:27:16.000Z</time>
        <extensions>
          <ns3:TrackPointExtension>
            <ns3:atemp>21.0</ns3:atemp>
          </ns3:TrackPointExtension>
        </extensions>
      </trkpt>
      <trkpt lat="42.6030950434505939483642578125" lon="19.88781072199344635009765625">
        <ele>2185.800048828125</ele>
        <time>2026-06-16T10:27:17.000Z</time>
        <extensions>
          <ns3:TrackPointExtension>
            <ns3:atemp>21.0</ns3:atemp>
          </ns3:TrackPointExtension>
        </extensions>
      </trkpt>
      <trkpt lat="42.6030950434505939483642578125" lon="19.88781072199344635009765625">
        <ele>2185.800048828125</ele>
        <time>2026-06-16T10:27:18.000Z</time>
        <extensions>
          <ns3:TrackPointExtension>
            <ns3:atemp>21.0</ns3:atemp>
          </ns3:TrackPointExtension>
        </extensions>
      </trkpt>
      <trkpt lat="42.6030950434505939483642578125" lon="19.88781072199344635009765625">
        <ele>2185.800048828125</ele>
        <time>2026-06-16T10:27:19.000Z</time>
        <extensions>
          <ns3:TrackPointExtension>
            <ns3:atemp>21.0</ns3:atemp>
          </ns3:TrackPointExtension>
        </extensions>
      </trkpt>
      <trkpt lat="42.6030950434505939483642578125" lon="19.88781072199344635009765625">
        <ele>2185.800048828125</ele>
        <time>2026-06-16T10:27:20.000Z</time>
        <extensions>
          <ns3:TrackPointExtension>
            <ns3:atemp>21.0</ns3:atemp>
          </ns3:TrackPointExtension>
        </extensions>
      </trkpt>
      <trkpt lat="42.6030950434505939483642578125" lon="19.88781072199344635009765625">
        <ele>2185.800048828125</ele>
        <time>2026-06-16T10:27:21.000Z</time>
        <extensions>
          <ns3:TrackPointExtension>
            <ns3:atemp>21.0</ns3:atemp>
          </ns3:TrackPointExtension>
        </extensions>
      </trkpt>
      <trkpt lat="42.6030950434505939483642578125" lon="19.88781072199344635009765625">
        <ele>2185.800048828125</ele>
        <time>2026-06-16T10:27:22.000Z</time>
        <extensions>
          <ns3:TrackPointExtension>
            <ns3:atemp>21.0</ns3:atemp>
          </ns3:TrackPointExtension>
        </extensions>
      </trkpt>
      <trkpt lat="42.6030950434505939483642578125" lon="19.88781072199344635009765625">
        <ele>2185.800048828125</ele>
        <time>2026-06-16T10:27:23.000Z</time>
        <extensions>
          <ns3:TrackPointExtension>
            <ns3:atemp>21.0</ns3:atemp>
          </ns3:TrackPointExtension>
        </extensions>
      </trkpt>
      <trkpt lat="42.6030950434505939483642578125" lon="19.88781072199344635009765625">
        <ele>2185.800048828125</ele>
        <time>2026-06-16T10:27:24.000Z</time>
        <extensions>
          <ns3:TrackPointExtension>
            <ns3:atemp>21.0</ns3:atemp>
          </ns3:TrackPointExtension>
        </extensions>
      </trkpt>
      <trkpt lat="42.6030950434505939483642578125" lon="19.88781072199344635009765625">
        <ele>2185.800048828125</ele>
        <time>2026-06-16T10:27:25.000Z</time>
        <extensions>
          <ns3:TrackPointExtension>
            <ns3:atemp>21.0</ns3:atemp>
          </ns3:TrackPointExtension>
        </extensions>
      </trkpt>
      <trkpt lat="42.6030950434505939483642578125" lon="19.88781072199344635009765625">
        <ele>2185.800048828125</ele>
        <time>2026-06-16T10:27:26.000Z</time>
        <extensions>
          <ns3:TrackPointExtension>
            <ns3:atemp>21.0</ns3:atemp>
          </ns3:TrackPointExtension>
        </extensions>
      </trkpt>
      <trkpt lat="42.6030950434505939483642578125" lon="19.88781072199344635009765625">
        <ele>2185.800048828125</ele>
        <time>2026-06-16T10:27:27.000Z</time>
        <extensions>
          <ns3:TrackPointExtension>
            <ns3:atemp>21.0</ns3:atemp>
          </ns3:TrackPointExtension>
        </extensions>
      </trkpt>
      <trkpt lat="42.6030950434505939483642578125" lon="19.88781072199344635009765625">
        <ele>2185.800048828125</ele>
        <time>2026-06-16T10:27:28.000Z</time>
        <extensions>
          <ns3:TrackPointExtension>
            <ns3:atemp>21.0</ns3:atemp>
          </ns3:TrackPointExtension>
        </extensions>
      </trkpt>
      <trkpt lat="42.6030950434505939483642578125" lon="19.88781072199344635009765625">
        <ele>2185.800048828125</ele>
        <time>2026-06-16T10:27:29.000Z</time>
        <extensions>
          <ns3:TrackPointExtension>
            <ns3:atemp>21.0</ns3:atemp>
          </ns3:TrackPointExtension>
        </extensions>
      </trkpt>
      <trkpt lat="42.6030950434505939483642578125" lon="19.88781072199344635009765625">
        <ele>2185.800048828125</ele>
        <time>2026-06-16T10:27:30.000Z</time>
        <extensions>
          <ns3:TrackPointExtension>
            <ns3:atemp>21.0</ns3:atemp>
          </ns3:TrackPointExtension>
        </extensions>
      </trkpt>
      <trkpt lat="42.6030950434505939483642578125" lon="19.88781072199344635009765625">
        <ele>2185.800048828125</ele>
        <time>2026-06-16T10:27:31.000Z</time>
        <extensions>
          <ns3:TrackPointExtension>
            <ns3:atemp>21.0</ns3:atemp>
          </ns3:TrackPointExtension>
        </extensions>
      </trkpt>
      <trkpt lat="42.6030950434505939483642578125" lon="19.88781072199344635009765625">
        <ele>2185.800048828125</ele>
        <time>2026-06-16T10:27:32.000Z</time>
        <extensions>
          <ns3:TrackPointExtension>
            <ns3:atemp>21.0</ns3:atemp>
          </ns3:TrackPointExtension>
        </extensions>
      </trkpt>
      <trkpt lat="42.6030950434505939483642578125" lon="19.88781072199344635009765625">
        <ele>2185.800048828125</ele>
        <time>2026-06-16T10:27:33.000Z</time>
        <extensions>
          <ns3:TrackPointExtension>
            <ns3:atemp>21.0</ns3:atemp>
          </ns3:TrackPointExtension>
        </extensions>
      </trkpt>
      <trkpt lat="42.6030950434505939483642578125" lon="19.88781072199344635009765625">
        <ele>2185.800048828125</ele>
        <time>2026-06-16T10:27:34.000Z</time>
        <extensions>
          <ns3:TrackPointExtension>
            <ns3:atemp>21.0</ns3:atemp>
          </ns3:TrackPointExtension>
        </extensions>
      </trkpt>
      <trkpt lat="42.6030950434505939483642578125" lon="19.88781072199344635009765625">
        <ele>2185.800048828125</ele>
        <time>2026-06-16T10:27:35.000Z</time>
        <extensions>
          <ns3:TrackPointExtension>
            <ns3:atemp>21.0</ns3:atemp>
          </ns3:TrackPointExtension>
        </extensions>
      </trkpt>
      <trkpt lat="42.6030950434505939483642578125" lon="19.88781072199344635009765625">
        <ele>2185.800048828125</ele>
        <time>2026-06-16T10:27:36.000Z</time>
        <extensions>
          <ns3:TrackPointExtension>
            <ns3:atemp>21.0</ns3:atemp>
          </ns3:TrackPointExtension>
        </extensions>
      </trkpt>
      <trkpt lat="42.6030950434505939483642578125" lon="19.88781072199344635009765625">
        <ele>2185.800048828125</ele>
        <time>2026-06-16T10:27:37.000Z</time>
        <extensions>
          <ns3:TrackPointExtension>
            <ns3:atemp>21.0</ns3:atemp>
          </ns3:TrackPointExtension>
        </extensions>
      </trkpt>
      <trkpt lat="42.6030950434505939483642578125" lon="19.88781072199344635009765625">
        <ele>2185.800048828125</ele>
        <time>2026-06-16T10:27:38.000Z</time>
        <extensions>
          <ns3:TrackPointExtension>
            <ns3:atemp>21.0</ns3:atemp>
          </ns3:TrackPointExtension>
        </extensions>
      </trkpt>
      <trkpt lat="42.6030950434505939483642578125" lon="19.88781072199344635009765625">
        <ele>2185.800048828125</ele>
        <time>2026-06-16T10:27:39.000Z</time>
        <extensions>
          <ns3:TrackPointExtension>
            <ns3:atemp>21.0</ns3:atemp>
          </ns3:TrackPointExtension>
        </extensions>
      </trkpt>
      <trkpt lat="42.6030950434505939483642578125" lon="19.88781072199344635009765625">
        <ele>2185.800048828125</ele>
        <time>2026-06-16T10:27:40.000Z</time>
        <extensions>
          <ns3:TrackPointExtension>
            <ns3:atemp>21.0</ns3:atemp>
          </ns3:TrackPointExtension>
        </extensions>
      </trkpt>
      <trkpt lat="42.6030950434505939483642578125" lon="19.88781072199344635009765625">
        <ele>2185.800048828125</ele>
        <time>2026-06-16T10:27:41.000Z</time>
        <extensions>
          <ns3:TrackPointExtension>
            <ns3:atemp>21.0</ns3:atemp>
          </ns3:TrackPointExtension>
        </extensions>
      </trkpt>
      <trkpt lat="42.6030950434505939483642578125" lon="19.88781072199344635009765625">
        <ele>2185.800048828125</ele>
        <time>2026-06-16T10:27:42.000Z</time>
        <extensions>
          <ns3:TrackPointExtension>
            <ns3:atemp>21.0</ns3:atemp>
          </ns3:TrackPointExtension>
        </extensions>
      </trkpt>
      <trkpt lat="42.6030950434505939483642578125" lon="19.88781072199344635009765625">
        <ele>2185.800048828125</ele>
        <time>2026-06-16T10:27:43.000Z</time>
        <extensions>
          <ns3:TrackPointExtension>
            <ns3:atemp>21.0</ns3:atemp>
          </ns3:TrackPointExtension>
        </extensions>
      </trkpt>
      <trkpt lat="42.6030950434505939483642578125" lon="19.88781072199344635009765625">
        <ele>2185.800048828125</ele>
        <time>2026-06-16T10:27:44.000Z</time>
        <extensions>
          <ns3:TrackPointExtension>
            <ns3:atemp>21.0</ns3:atemp>
          </ns3:TrackPointExtension>
        </extensions>
      </trkpt>
      <trkpt lat="42.6030950434505939483642578125" lon="19.88781072199344635009765625">
        <ele>2185.800048828125</ele>
        <time>2026-06-16T10:27:45.000Z</time>
        <extensions>
          <ns3:TrackPointExtension>
            <ns3:atemp>21.0</ns3:atemp>
          </ns3:TrackPointExtension>
        </extensions>
      </trkpt>
      <trkpt lat="42.6030950434505939483642578125" lon="19.88781072199344635009765625">
        <ele>2185.800048828125</ele>
        <time>2026-06-16T10:27:46.000Z</time>
        <extensions>
          <ns3:TrackPointExtension>
            <ns3:atemp>21.0</ns3:atemp>
          </ns3:TrackPointExtension>
        </extensions>
      </trkpt>
      <trkpt lat="42.6030950434505939483642578125" lon="19.88781072199344635009765625">
        <ele>2185.800048828125</ele>
        <time>2026-06-16T10:27:47.000Z</time>
        <extensions>
          <ns3:TrackPointExtension>
            <ns3:atemp>21.0</ns3:atemp>
          </ns3:TrackPointExtension>
        </extensions>
      </trkpt>
      <trkpt lat="42.6030950434505939483642578125" lon="19.88781072199344635009765625">
        <ele>2185.800048828125</ele>
        <time>2026-06-16T10:27:48.000Z</time>
        <extensions>
          <ns3:TrackPointExtension>
            <ns3:atemp>21.0</ns3:atemp>
          </ns3:TrackPointExtension>
        </extensions>
      </trkpt>
      <trkpt lat="42.6030950434505939483642578125" lon="19.88781072199344635009765625">
        <ele>2185.800048828125</ele>
        <time>2026-06-16T10:27:49.000Z</time>
        <extensions>
          <ns3:TrackPointExtension>
            <ns3:atemp>21.0</ns3:atemp>
          </ns3:TrackPointExtension>
        </extensions>
      </trkpt>
      <trkpt lat="42.6030950434505939483642578125" lon="19.88781072199344635009765625">
        <ele>2185.800048828125</ele>
        <time>2026-06-16T10:27:50.000Z</time>
        <extensions>
          <ns3:TrackPointExtension>
            <ns3:atemp>21.0</ns3:atemp>
          </ns3:TrackPointExtension>
        </extensions>
      </trkpt>
      <trkpt lat="42.6030950434505939483642578125" lon="19.88781072199344635009765625">
        <ele>2185.800048828125</ele>
        <time>2026-06-16T10:27:51.000Z</time>
        <extensions>
          <ns3:TrackPointExtension>
            <ns3:atemp>21.0</ns3:atemp>
          </ns3:TrackPointExtension>
        </extensions>
      </trkpt>
      <trkpt lat="42.6030950434505939483642578125" lon="19.88781072199344635009765625">
        <ele>2185.800048828125</ele>
        <time>2026-06-16T10:27:52.000Z</time>
        <extensions>
          <ns3:TrackPointExtension>
            <ns3:atemp>21.0</ns3:atemp>
          </ns3:TrackPointExtension>
        </extensions>
      </trkpt>
      <trkpt lat="42.6030950434505939483642578125" lon="19.88781072199344635009765625">
        <ele>2185.800048828125</ele>
        <time>2026-06-16T10:27:53.000Z</time>
        <extensions>
          <ns3:TrackPointExtension>
            <ns3:atemp>21.0</ns3:atemp>
          </ns3:TrackPointExtension>
        </extensions>
      </trkpt>
      <trkpt lat="42.6030950434505939483642578125" lon="19.88781072199344635009765625">
        <ele>2185.800048828125</ele>
        <time>2026-06-16T10:27:54.000Z</time>
        <extensions>
          <ns3:TrackPointExtension>
            <ns3:atemp>21.0</ns3:atemp>
          </ns3:TrackPointExtension>
        </extensions>
      </trkpt>
      <trkpt lat="42.6030950434505939483642578125" lon="19.88781072199344635009765625">
        <ele>2185.800048828125</ele>
        <time>2026-06-16T10:27:55.000Z</time>
        <extensions>
          <ns3:TrackPointExtension>
            <ns3:atemp>21.0</ns3:atemp>
          </ns3:TrackPointExtension>
        </extensions>
      </trkpt>
      <trkpt lat="42.6030950434505939483642578125" lon="19.88781072199344635009765625">
        <ele>2185.800048828125</ele>
        <time>2026-06-16T10:27:56.000Z</time>
        <extensions>
          <ns3:TrackPointExtension>
            <ns3:atemp>21.0</ns3:atemp>
          </ns3:TrackPointExtension>
        </extensions>
      </trkpt>
      <trkpt lat="42.6030950434505939483642578125" lon="19.88781072199344635009765625">
        <ele>2185.800048828125</ele>
        <time>2026-06-16T10:27:57.000Z</time>
        <extensions>
          <ns3:TrackPointExtension>
            <ns3:atemp>21.0</ns3:atemp>
          </ns3:TrackPointExtension>
        </extensions>
      </trkpt>
      <trkpt lat="42.6030950434505939483642578125" lon="19.88781072199344635009765625">
        <ele>2185.800048828125</ele>
        <time>2026-06-16T10:27:58.000Z</time>
        <extensions>
          <ns3:TrackPointExtension>
            <ns3:atemp>21.0</ns3:atemp>
          </ns3:TrackPointExtension>
        </extensions>
      </trkpt>
      <trkpt lat="42.6030950434505939483642578125" lon="19.88781072199344635009765625">
        <ele>2185.800048828125</ele>
        <time>2026-06-16T10:27:59.000Z</time>
        <extensions>
          <ns3:TrackPointExtension>
            <ns3:atemp>21.0</ns3:atemp>
          </ns3:TrackPointExtension>
        </extensions>
      </trkpt>
      <trkpt lat="42.6030950434505939483642578125" lon="19.88781072199344635009765625">
        <ele>2185.800048828125</ele>
        <time>2026-06-16T10:28:00.000Z</time>
        <extensions>
          <ns3:TrackPointExtension>
            <ns3:atemp>21.0</ns3:atemp>
          </ns3:TrackPointExtension>
        </extensions>
      </trkpt>
      <trkpt lat="42.6030950434505939483642578125" lon="19.88781072199344635009765625">
        <ele>2185.800048828125</ele>
        <time>2026-06-16T10:28:01.000Z</time>
        <extensions>
          <ns3:TrackPointExtension>
            <ns3:atemp>21.0</ns3:atemp>
          </ns3:TrackPointExtension>
        </extensions>
      </trkpt>
      <trkpt lat="42.6030950434505939483642578125" lon="19.88781072199344635009765625">
        <ele>2185.800048828125</ele>
        <time>2026-06-16T10:28:02.000Z</time>
        <extensions>
          <ns3:TrackPointExtension>
            <ns3:atemp>21.0</ns3:atemp>
          </ns3:TrackPointExtension>
        </extensions>
      </trkpt>
      <trkpt lat="42.6030950434505939483642578125" lon="19.88781072199344635009765625">
        <ele>2185.800048828125</ele>
        <time>2026-06-16T10:28:03.000Z</time>
        <extensions>
          <ns3:TrackPointExtension>
            <ns3:atemp>21.0</ns3:atemp>
          </ns3:TrackPointExtension>
        </extensions>
      </trkpt>
      <trkpt lat="42.6030950434505939483642578125" lon="19.88781072199344635009765625">
        <ele>2185.800048828125</ele>
        <time>2026-06-16T10:28:04.000Z</time>
        <extensions>
          <ns3:TrackPointExtension>
            <ns3:atemp>21.0</ns3:atemp>
          </ns3:TrackPointExtension>
        </extensions>
      </trkpt>
      <trkpt lat="42.6030950434505939483642578125" lon="19.88781072199344635009765625">
        <ele>2185.800048828125</ele>
        <time>2026-06-16T10:28:05.000Z</time>
        <extensions>
          <ns3:TrackPointExtension>
            <ns3:atemp>21.0</ns3:atemp>
          </ns3:TrackPointExtension>
        </extensions>
      </trkpt>
      <trkpt lat="42.6030950434505939483642578125" lon="19.88781072199344635009765625">
        <ele>2185.800048828125</ele>
        <time>2026-06-16T10:28:06.000Z</time>
        <extensions>
          <ns3:TrackPointExtension>
            <ns3:atemp>21.0</ns3:atemp>
          </ns3:TrackPointExtension>
        </extensions>
      </trkpt>
      <trkpt lat="42.6030950434505939483642578125" lon="19.88781072199344635009765625">
        <ele>2185.800048828125</ele>
        <time>2026-06-16T10:28:07.000Z</time>
        <extensions>
          <ns3:TrackPointExtension>
            <ns3:atemp>21.0</ns3:atemp>
          </ns3:TrackPointExtension>
        </extensions>
      </trkpt>
      <trkpt lat="42.6030950434505939483642578125" lon="19.88781072199344635009765625">
        <ele>2185.800048828125</ele>
        <time>2026-06-16T10:28:08.000Z</time>
        <extensions>
          <ns3:TrackPointExtension>
            <ns3:atemp>21.0</ns3:atemp>
          </ns3:TrackPointExtension>
        </extensions>
      </trkpt>
      <trkpt lat="42.6030950434505939483642578125" lon="19.88781072199344635009765625">
        <ele>2185.800048828125</ele>
        <time>2026-06-16T10:28:09.000Z</time>
        <extensions>
          <ns3:TrackPointExtension>
            <ns3:atemp>21.0</ns3:atemp>
          </ns3:TrackPointExtension>
        </extensions>
      </trkpt>
      <trkpt lat="42.6030950434505939483642578125" lon="19.88781072199344635009765625">
        <ele>2185.800048828125</ele>
        <time>2026-06-16T10:28:10.000Z</time>
        <extensions>
          <ns3:TrackPointExtension>
            <ns3:atemp>21.0</ns3:atemp>
          </ns3:TrackPointExtension>
        </extensions>
      </trkpt>
      <trkpt lat="42.6030950434505939483642578125" lon="19.88781072199344635009765625">
        <ele>2185.800048828125</ele>
        <time>2026-06-16T10:28:11.000Z</time>
        <extensions>
          <ns3:TrackPointExtension>
            <ns3:atemp>21.0</ns3:atemp>
          </ns3:TrackPointExtension>
        </extensions>
      </trkpt>
      <trkpt lat="42.6030950434505939483642578125" lon="19.88781072199344635009765625">
        <ele>2185.800048828125</ele>
        <time>2026-06-16T10:28:12.000Z</time>
        <extensions>
          <ns3:TrackPointExtension>
            <ns3:atemp>21.0</ns3:atemp>
          </ns3:TrackPointExtension>
        </extensions>
      </trkpt>
      <trkpt lat="42.6030950434505939483642578125" lon="19.88781072199344635009765625">
        <ele>2185.800048828125</ele>
        <time>2026-06-16T10:28:13.000Z</time>
        <extensions>
          <ns3:TrackPointExtension>
            <ns3:atemp>21.0</ns3:atemp>
          </ns3:TrackPointExtension>
        </extensions>
      </trkpt>
      <trkpt lat="42.6030950434505939483642578125" lon="19.88781072199344635009765625">
        <ele>2185.800048828125</ele>
        <time>2026-06-16T10:28:14.000Z</time>
        <extensions>
          <ns3:TrackPointExtension>
            <ns3:atemp>21.0</ns3:atemp>
          </ns3:TrackPointExtension>
        </extensions>
      </trkpt>
      <trkpt lat="42.6030950434505939483642578125" lon="19.88781072199344635009765625">
        <ele>2185.800048828125</ele>
        <time>2026-06-16T10:28:15.000Z</time>
        <extensions>
          <ns3:TrackPointExtension>
            <ns3:atemp>21.0</ns3:atemp>
          </ns3:TrackPointExtension>
        </extensions>
      </trkpt>
      <trkpt lat="42.6030950434505939483642578125" lon="19.88781072199344635009765625">
        <ele>2185.800048828125</ele>
        <time>2026-06-16T10:28:16.000Z</time>
        <extensions>
          <ns3:TrackPointExtension>
            <ns3:atemp>21.0</ns3:atemp>
          </ns3:TrackPointExtension>
        </extensions>
      </trkpt>
      <trkpt lat="42.6030950434505939483642578125" lon="19.88781072199344635009765625">
        <ele>2185.800048828125</ele>
        <time>2026-06-16T10:28:17.000Z</time>
        <extensions>
          <ns3:TrackPointExtension>
            <ns3:atemp>21.0</ns3:atemp>
          </ns3:TrackPointExtension>
        </extensions>
      </trkpt>
      <trkpt lat="42.6030950434505939483642578125" lon="19.88781072199344635009765625">
        <ele>2185.800048828125</ele>
        <time>2026-06-16T10:28:18.000Z</time>
        <extensions>
          <ns3:TrackPointExtension>
            <ns3:atemp>21.0</ns3:atemp>
          </ns3:TrackPointExtension>
        </extensions>
      </trkpt>
      <trkpt lat="42.6030950434505939483642578125" lon="19.88781072199344635009765625">
        <ele>2185.800048828125</ele>
        <time>2026-06-16T10:28:19.000Z</time>
        <extensions>
          <ns3:TrackPointExtension>
            <ns3:atemp>21.0</ns3:atemp>
          </ns3:TrackPointExtension>
        </extensions>
      </trkpt>
      <trkpt lat="42.6030950434505939483642578125" lon="19.88781072199344635009765625">
        <ele>2185.800048828125</ele>
        <time>2026-06-16T10:28:20.000Z</time>
        <extensions>
          <ns3:TrackPointExtension>
            <ns3:atemp>21.0</ns3:atemp>
          </ns3:TrackPointExtension>
        </extensions>
      </trkpt>
      <trkpt lat="42.6030950434505939483642578125" lon="19.88781072199344635009765625">
        <ele>2185.800048828125</ele>
        <time>2026-06-16T10:28:21.000Z</time>
        <extensions>
          <ns3:TrackPointExtension>
            <ns3:atemp>21.0</ns3:atemp>
          </ns3:TrackPointExtension>
        </extensions>
      </trkpt>
      <trkpt lat="42.6030950434505939483642578125" lon="19.88781072199344635009765625">
        <ele>2185.800048828125</ele>
        <time>2026-06-16T10:28:22.000Z</time>
        <extensions>
          <ns3:TrackPointExtension>
            <ns3:atemp>21.0</ns3:atemp>
          </ns3:TrackPointExtension>
        </extensions>
      </trkpt>
      <trkpt lat="42.6030950434505939483642578125" lon="19.88781072199344635009765625">
        <ele>2185.800048828125</ele>
        <time>2026-06-16T10:28:23.000Z</time>
        <extensions>
          <ns3:TrackPointExtension>
            <ns3:atemp>21.0</ns3:atemp>
          </ns3:TrackPointExtension>
        </extensions>
      </trkpt>
      <trkpt lat="42.6030950434505939483642578125" lon="19.88781072199344635009765625">
        <ele>2185.800048828125</ele>
        <time>2026-06-16T10:28:24.000Z</time>
        <extensions>
          <ns3:TrackPointExtension>
            <ns3:atemp>21.0</ns3:atemp>
          </ns3:TrackPointExtension>
        </extensions>
      </trkpt>
      <trkpt lat="42.6030950434505939483642578125" lon="19.88781072199344635009765625">
        <ele>2185.800048828125</ele>
        <time>2026-06-16T10:28:25.000Z</time>
        <extensions>
          <ns3:TrackPointExtension>
            <ns3:atemp>21.0</ns3:atemp>
          </ns3:TrackPointExtension>
        </extensions>
      </trkpt>
      <trkpt lat="42.6030950434505939483642578125" lon="19.88781072199344635009765625">
        <ele>2185.800048828125</ele>
        <time>2026-06-16T10:28:26.000Z</time>
        <extensions>
          <ns3:TrackPointExtension>
            <ns3:atemp>21.0</ns3:atemp>
          </ns3:TrackPointExtension>
        </extensions>
      </trkpt>
      <trkpt lat="42.6030950434505939483642578125" lon="19.88781072199344635009765625">
        <ele>2185.800048828125</ele>
        <time>2026-06-16T10:28:27.000Z</time>
        <extensions>
          <ns3:TrackPointExtension>
            <ns3:atemp>21.0</ns3:atemp>
          </ns3:TrackPointExtension>
        </extensions>
      </trkpt>
      <trkpt lat="42.6030950434505939483642578125" lon="19.88781072199344635009765625">
        <ele>2185.800048828125</ele>
        <time>2026-06-16T10:28:28.000Z</time>
        <extensions>
          <ns3:TrackPointExtension>
            <ns3:atemp>21.0</ns3:atemp>
          </ns3:TrackPointExtension>
        </extensions>
      </trkpt>
      <trkpt lat="42.6030950434505939483642578125" lon="19.88781072199344635009765625">
        <ele>2185.800048828125</ele>
        <time>2026-06-16T10:28:29.000Z</time>
        <extensions>
          <ns3:TrackPointExtension>
            <ns3:atemp>21.0</ns3:atemp>
          </ns3:TrackPointExtension>
        </extensions>
      </trkpt>
      <trkpt lat="42.6030950434505939483642578125" lon="19.88781072199344635009765625">
        <ele>2185.800048828125</ele>
        <time>2026-06-16T10:28:30.000Z</time>
        <extensions>
          <ns3:TrackPointExtension>
            <ns3:atemp>21.0</ns3:atemp>
          </ns3:TrackPointExtension>
        </extensions>
      </trkpt>
      <trkpt lat="42.6030950434505939483642578125" lon="19.88781072199344635009765625">
        <ele>2185.800048828125</ele>
        <time>2026-06-16T10:28:31.000Z</time>
        <extensions>
          <ns3:TrackPointExtension>
            <ns3:atemp>21.0</ns3:atemp>
          </ns3:TrackPointExtension>
        </extensions>
      </trkpt>
      <trkpt lat="42.6030950434505939483642578125" lon="19.88781072199344635009765625">
        <ele>2185.800048828125</ele>
        <time>2026-06-16T10:28:32.000Z</time>
        <extensions>
          <ns3:TrackPointExtension>
            <ns3:atemp>21.0</ns3:atemp>
          </ns3:TrackPointExtension>
        </extensions>
      </trkpt>
      <trkpt lat="42.6030950434505939483642578125" lon="19.88781072199344635009765625">
        <ele>2185.800048828125</ele>
        <time>2026-06-16T10:28:33.000Z</time>
        <extensions>
          <ns3:TrackPointExtension>
            <ns3:atemp>21.0</ns3:atemp>
          </ns3:TrackPointExtension>
        </extensions>
      </trkpt>
      <trkpt lat="42.6030950434505939483642578125" lon="19.88781072199344635009765625">
        <ele>2185.800048828125</ele>
        <time>2026-06-16T10:28:34.000Z</time>
        <extensions>
          <ns3:TrackPointExtension>
            <ns3:atemp>21.0</ns3:atemp>
          </ns3:TrackPointExtension>
        </extensions>
      </trkpt>
      <trkpt lat="42.6030950434505939483642578125" lon="19.88781072199344635009765625">
        <ele>2185.800048828125</ele>
        <time>2026-06-16T10:28:35.000Z</time>
        <extensions>
          <ns3:TrackPointExtension>
            <ns3:atemp>21.0</ns3:atemp>
          </ns3:TrackPointExtension>
        </extensions>
      </trkpt>
      <trkpt lat="42.6030950434505939483642578125" lon="19.88781072199344635009765625">
        <ele>2185.800048828125</ele>
        <time>2026-06-16T10:28:36.000Z</time>
        <extensions>
          <ns3:TrackPointExtension>
            <ns3:atemp>21.0</ns3:atemp>
          </ns3:TrackPointExtension>
        </extensions>
      </trkpt>
      <trkpt lat="42.6030950434505939483642578125" lon="19.88781072199344635009765625">
        <ele>2185.800048828125</ele>
        <time>2026-06-16T10:28:37.000Z</time>
        <extensions>
          <ns3:TrackPointExtension>
            <ns3:atemp>21.0</ns3:atemp>
          </ns3:TrackPointExtension>
        </extensions>
      </trkpt>
      <trkpt lat="42.6030950434505939483642578125" lon="19.88781072199344635009765625">
        <ele>2185.800048828125</ele>
        <time>2026-06-16T10:28:38.000Z</time>
        <extensions>
          <ns3:TrackPointExtension>
            <ns3:atemp>21.0</ns3:atemp>
          </ns3:TrackPointExtension>
        </extensions>
      </trkpt>
      <trkpt lat="42.6030950434505939483642578125" lon="19.88781072199344635009765625">
        <ele>2185.800048828125</ele>
        <time>2026-06-16T10:28:39.000Z</time>
        <extensions>
          <ns3:TrackPointExtension>
            <ns3:atemp>21.0</ns3:atemp>
          </ns3:TrackPointExtension>
        </extensions>
      </trkpt>
      <trkpt lat="42.6030950434505939483642578125" lon="19.88781072199344635009765625">
        <ele>2185.800048828125</ele>
        <time>2026-06-16T10:28:40.000Z</time>
        <extensions>
          <ns3:TrackPointExtension>
            <ns3:atemp>21.0</ns3:atemp>
          </ns3:TrackPointExtension>
        </extensions>
      </trkpt>
      <trkpt lat="42.6030950434505939483642578125" lon="19.88781072199344635009765625">
        <ele>2185.800048828125</ele>
        <time>2026-06-16T10:28:41.000Z</time>
        <extensions>
          <ns3:TrackPointExtension>
            <ns3:atemp>21.0</ns3:atemp>
          </ns3:TrackPointExtension>
        </extensions>
      </trkpt>
      <trkpt lat="42.6030950434505939483642578125" lon="19.88781072199344635009765625">
        <ele>2185.800048828125</ele>
        <time>2026-06-16T10:28:42.000Z</time>
        <extensions>
          <ns3:TrackPointExtension>
            <ns3:atemp>21.0</ns3:atemp>
          </ns3:TrackPointExtension>
        </extensions>
      </trkpt>
      <trkpt lat="42.6030950434505939483642578125" lon="19.88781072199344635009765625">
        <ele>2185.800048828125</ele>
        <time>2026-06-16T10:28:43.000Z</time>
        <extensions>
          <ns3:TrackPointExtension>
            <ns3:atemp>21.0</ns3:atemp>
          </ns3:TrackPointExtension>
        </extensions>
      </trkpt>
      <trkpt lat="42.6030950434505939483642578125" lon="19.88781072199344635009765625">
        <ele>2185.800048828125</ele>
        <time>2026-06-16T10:28:44.000Z</time>
        <extensions>
          <ns3:TrackPointExtension>
            <ns3:atemp>21.0</ns3:atemp>
          </ns3:TrackPointExtension>
        </extensions>
      </trkpt>
      <trkpt lat="42.6030950434505939483642578125" lon="19.88781072199344635009765625">
        <ele>2185.800048828125</ele>
        <time>2026-06-16T10:28:45.000Z</time>
        <extensions>
          <ns3:TrackPointExtension>
            <ns3:atemp>21.0</ns3:atemp>
          </ns3:TrackPointExtension>
        </extensions>
      </trkpt>
      <trkpt lat="42.6030950434505939483642578125" lon="19.88781072199344635009765625">
        <ele>2185.800048828125</ele>
        <time>2026-06-16T10:28:46.000Z</time>
        <extensions>
          <ns3:TrackPointExtension>
            <ns3:atemp>21.0</ns3:atemp>
          </ns3:TrackPointExtension>
        </extensions>
      </trkpt>
      <trkpt lat="42.6030950434505939483642578125" lon="19.88781072199344635009765625">
        <ele>2185.800048828125</ele>
        <time>2026-06-16T10:28:47.000Z</time>
        <extensions>
          <ns3:TrackPointExtension>
            <ns3:atemp>21.0</ns3:atemp>
          </ns3:TrackPointExtension>
        </extensions>
      </trkpt>
      <trkpt lat="42.6030950434505939483642578125" lon="19.88781072199344635009765625">
        <ele>2185.800048828125</ele>
        <time>2026-06-16T10:28:48.000Z</time>
        <extensions>
          <ns3:TrackPointExtension>
            <ns3:atemp>21.0</ns3:atemp>
          </ns3:TrackPointExtension>
        </extensions>
      </trkpt>
      <trkpt lat="42.6030950434505939483642578125" lon="19.88781072199344635009765625">
        <ele>2185.800048828125</ele>
        <time>2026-06-16T10:28:49.000Z</time>
        <extensions>
          <ns3:TrackPointExtension>
            <ns3:atemp>21.0</ns3:atemp>
          </ns3:TrackPointExtension>
        </extensions>
      </trkpt>
      <trkpt lat="42.6030950434505939483642578125" lon="19.88781072199344635009765625">
        <ele>2185.800048828125</ele>
        <time>2026-06-16T10:28:50.000Z</time>
        <extensions>
          <ns3:TrackPointExtension>
            <ns3:atemp>21.0</ns3:atemp>
          </ns3:TrackPointExtension>
        </extensions>
      </trkpt>
      <trkpt lat="42.6030950434505939483642578125" lon="19.88781072199344635009765625">
        <ele>2185.800048828125</ele>
        <time>2026-06-16T10:28:51.000Z</time>
        <extensions>
          <ns3:TrackPointExtension>
            <ns3:atemp>21.0</ns3:atemp>
          </ns3:TrackPointExtension>
        </extensions>
      </trkpt>
      <trkpt lat="42.6030950434505939483642578125" lon="19.88781072199344635009765625">
        <ele>2185.800048828125</ele>
        <time>2026-06-16T10:28:52.000Z</time>
        <extensions>
          <ns3:TrackPointExtension>
            <ns3:atemp>21.0</ns3:atemp>
          </ns3:TrackPointExtension>
        </extensions>
      </trkpt>
      <trkpt lat="42.6030950434505939483642578125" lon="19.88781072199344635009765625">
        <ele>2185.800048828125</ele>
        <time>2026-06-16T10:28:53.000Z</time>
        <extensions>
          <ns3:TrackPointExtension>
            <ns3:atemp>21.0</ns3:atemp>
          </ns3:TrackPointExtension>
        </extensions>
      </trkpt>
      <trkpt lat="42.6030950434505939483642578125" lon="19.88781072199344635009765625">
        <ele>2185.800048828125</ele>
        <time>2026-06-16T10:28:54.000Z</time>
        <extensions>
          <ns3:TrackPointExtension>
            <ns3:atemp>21.0</ns3:atemp>
          </ns3:TrackPointExtension>
        </extensions>
      </trkpt>
      <trkpt lat="42.6030950434505939483642578125" lon="19.88781072199344635009765625">
        <ele>2185.800048828125</ele>
        <time>2026-06-16T10:28:55.000Z</time>
        <extensions>
          <ns3:TrackPointExtension>
            <ns3:atemp>21.0</ns3:atemp>
          </ns3:TrackPointExtension>
        </extensions>
      </trkpt>
      <trkpt lat="42.6030950434505939483642578125" lon="19.88781072199344635009765625">
        <ele>2185.800048828125</ele>
        <time>2026-06-16T10:28:56.000Z</time>
        <extensions>
          <ns3:TrackPointExtension>
            <ns3:atemp>21.0</ns3:atemp>
          </ns3:TrackPointExtension>
        </extensions>
      </trkpt>
      <trkpt lat="42.6030950434505939483642578125" lon="19.88781072199344635009765625">
        <ele>2185.800048828125</ele>
        <time>2026-06-16T10:28:57.000Z</time>
        <extensions>
          <ns3:TrackPointExtension>
            <ns3:atemp>21.0</ns3:atemp>
          </ns3:TrackPointExtension>
        </extensions>
      </trkpt>
      <trkpt lat="42.6030950434505939483642578125" lon="19.88781072199344635009765625">
        <ele>2185.800048828125</ele>
        <time>2026-06-16T10:28:58.000Z</time>
        <extensions>
          <ns3:TrackPointExtension>
            <ns3:atemp>21.0</ns3:atemp>
          </ns3:TrackPointExtension>
        </extensions>
      </trkpt>
      <trkpt lat="42.6030950434505939483642578125" lon="19.88781072199344635009765625">
        <ele>2185.800048828125</ele>
        <time>2026-06-16T10:28:59.000Z</time>
        <extensions>
          <ns3:TrackPointExtension>
            <ns3:atemp>21.0</ns3:atemp>
          </ns3:TrackPointExtension>
        </extensions>
      </trkpt>
      <trkpt lat="42.6030950434505939483642578125" lon="19.88781072199344635009765625">
        <ele>2185.800048828125</ele>
        <time>2026-06-16T10:29:00.000Z</time>
        <extensions>
          <ns3:TrackPointExtension>
            <ns3:atemp>21.0</ns3:atemp>
          </ns3:TrackPointExtension>
        </extensions>
      </trkpt>
      <trkpt lat="42.6030950434505939483642578125" lon="19.88781072199344635009765625">
        <ele>2185.800048828125</ele>
        <time>2026-06-16T10:29:01.000Z</time>
        <extensions>
          <ns3:TrackPointExtension>
            <ns3:atemp>21.0</ns3:atemp>
          </ns3:TrackPointExtension>
        </extensions>
      </trkpt>
      <trkpt lat="42.6030950434505939483642578125" lon="19.88781072199344635009765625">
        <ele>2185.800048828125</ele>
        <time>2026-06-16T10:29:02.000Z</time>
        <extensions>
          <ns3:TrackPointExtension>
            <ns3:atemp>21.0</ns3:atemp>
          </ns3:TrackPointExtension>
        </extensions>
      </trkpt>
      <trkpt lat="42.6030950434505939483642578125" lon="19.88781072199344635009765625">
        <ele>2185.800048828125</ele>
        <time>2026-06-16T10:29:03.000Z</time>
        <extensions>
          <ns3:TrackPointExtension>
            <ns3:atemp>21.0</ns3:atemp>
          </ns3:TrackPointExtension>
        </extensions>
      </trkpt>
      <trkpt lat="42.6030950434505939483642578125" lon="19.88781072199344635009765625">
        <ele>2185.800048828125</ele>
        <time>2026-06-16T10:29:04.000Z</time>
        <extensions>
          <ns3:TrackPointExtension>
            <ns3:atemp>21.0</ns3:atemp>
          </ns3:TrackPointExtension>
        </extensions>
      </trkpt>
      <trkpt lat="42.6030950434505939483642578125" lon="19.88781072199344635009765625">
        <ele>2185.800048828125</ele>
        <time>2026-06-16T10:29:05.000Z</time>
        <extensions>
          <ns3:TrackPointExtension>
            <ns3:atemp>21.0</ns3:atemp>
          </ns3:TrackPointExtension>
        </extensions>
      </trkpt>
      <trkpt lat="42.6030950434505939483642578125" lon="19.88781072199344635009765625">
        <ele>2185.800048828125</ele>
        <time>2026-06-16T10:29:06.000Z</time>
        <extensions>
          <ns3:TrackPointExtension>
            <ns3:atemp>21.0</ns3:atemp>
          </ns3:TrackPointExtension>
        </extensions>
      </trkpt>
      <trkpt lat="42.6030950434505939483642578125" lon="19.88781072199344635009765625">
        <ele>2185.800048828125</ele>
        <time>2026-06-16T10:29:07.000Z</time>
        <extensions>
          <ns3:TrackPointExtension>
            <ns3:atemp>21.0</ns3:atemp>
          </ns3:TrackPointExtension>
        </extensions>
      </trkpt>
      <trkpt lat="42.6030950434505939483642578125" lon="19.88781072199344635009765625">
        <ele>2185.800048828125</ele>
        <time>2026-06-16T10:29:08.000Z</time>
        <extensions>
          <ns3:TrackPointExtension>
            <ns3:atemp>21.0</ns3:atemp>
          </ns3:TrackPointExtension>
        </extensions>
      </trkpt>
      <trkpt lat="42.6030950434505939483642578125" lon="19.88781072199344635009765625">
        <ele>2185.800048828125</ele>
        <time>2026-06-16T10:29:09.000Z</time>
        <extensions>
          <ns3:TrackPointExtension>
            <ns3:atemp>21.0</ns3:atemp>
          </ns3:TrackPointExtension>
        </extensions>
      </trkpt>
      <trkpt lat="42.6030950434505939483642578125" lon="19.88781072199344635009765625">
        <ele>2185.800048828125</ele>
        <time>2026-06-16T10:29:10.000Z</time>
        <extensions>
          <ns3:TrackPointExtension>
            <ns3:atemp>21.0</ns3:atemp>
          </ns3:TrackPointExtension>
        </extensions>
      </trkpt>
      <trkpt lat="42.6030950434505939483642578125" lon="19.88781072199344635009765625">
        <ele>2185.800048828125</ele>
        <time>2026-06-16T10:29:11.000Z</time>
        <extensions>
          <ns3:TrackPointExtension>
            <ns3:atemp>21.0</ns3:atemp>
          </ns3:TrackPointExtension>
        </extensions>
      </trkpt>
      <trkpt lat="42.6030950434505939483642578125" lon="19.88781072199344635009765625">
        <ele>2185.800048828125</ele>
        <time>2026-06-16T10:29:12.000Z</time>
        <extensions>
          <ns3:TrackPointExtension>
            <ns3:atemp>21.0</ns3:atemp>
          </ns3:TrackPointExtension>
        </extensions>
      </trkpt>
      <trkpt lat="42.6030950434505939483642578125" lon="19.88781072199344635009765625">
        <ele>2185.800048828125</ele>
        <time>2026-06-16T10:29:13.000Z</time>
        <extensions>
          <ns3:TrackPointExtension>
            <ns3:atemp>21.0</ns3:atemp>
          </ns3:TrackPointExtension>
        </extensions>
      </trkpt>
      <trkpt lat="42.6030950434505939483642578125" lon="19.88781072199344635009765625">
        <ele>2185.800048828125</ele>
        <time>2026-06-16T10:29:14.000Z</time>
        <extensions>
          <ns3:TrackPointExtension>
            <ns3:atemp>21.0</ns3:atemp>
          </ns3:TrackPointExtension>
        </extensions>
      </trkpt>
      <trkpt lat="42.6030950434505939483642578125" lon="19.88781072199344635009765625">
        <ele>2185.800048828125</ele>
        <time>2026-06-16T10:29:15.000Z</time>
        <extensions>
          <ns3:TrackPointExtension>
            <ns3:atemp>21.0</ns3:atemp>
          </ns3:TrackPointExtension>
        </extensions>
      </trkpt>
      <trkpt lat="42.6030950434505939483642578125" lon="19.88781072199344635009765625">
        <ele>2185.800048828125</ele>
        <time>2026-06-16T10:29:16.000Z</time>
        <extensions>
          <ns3:TrackPointExtension>
            <ns3:atemp>21.0</ns3:atemp>
          </ns3:TrackPointExtension>
        </extensions>
      </trkpt>
      <trkpt lat="42.6030950434505939483642578125" lon="19.88781072199344635009765625">
        <ele>2185.800048828125</ele>
        <time>2026-06-16T10:29:17.000Z</time>
        <extensions>
          <ns3:TrackPointExtension>
            <ns3:atemp>21.0</ns3:atemp>
          </ns3:TrackPointExtension>
        </extensions>
      </trkpt>
      <trkpt lat="42.6030950434505939483642578125" lon="19.88781072199344635009765625">
        <ele>2185.800048828125</ele>
        <time>2026-06-16T10:29:18.000Z</time>
        <extensions>
          <ns3:TrackPointExtension>
            <ns3:atemp>21.0</ns3:atemp>
          </ns3:TrackPointExtension>
        </extensions>
      </trkpt>
      <trkpt lat="42.6030950434505939483642578125" lon="19.88781072199344635009765625">
        <ele>2185.800048828125</ele>
        <time>2026-06-16T10:29:19.000Z</time>
        <extensions>
          <ns3:TrackPointExtension>
            <ns3:atemp>21.0</ns3:atemp>
          </ns3:TrackPointExtension>
        </extensions>
      </trkpt>
      <trkpt lat="42.6030950434505939483642578125" lon="19.88781072199344635009765625">
        <ele>2185.800048828125</ele>
        <time>2026-06-16T10:29:20.000Z</time>
        <extensions>
          <ns3:TrackPointExtension>
            <ns3:atemp>21.0</ns3:atemp>
          </ns3:TrackPointExtension>
        </extensions>
      </trkpt>
      <trkpt lat="42.6030950434505939483642578125" lon="19.88781072199344635009765625">
        <ele>2185.800048828125</ele>
        <time>2026-06-16T10:29:21.000Z</time>
        <extensions>
          <ns3:TrackPointExtension>
            <ns3:atemp>21.0</ns3:atemp>
          </ns3:TrackPointExtension>
        </extensions>
      </trkpt>
      <trkpt lat="42.6030950434505939483642578125" lon="19.88781072199344635009765625">
        <ele>2185.800048828125</ele>
        <time>2026-06-16T10:29:22.000Z</time>
        <extensions>
          <ns3:TrackPointExtension>
            <ns3:atemp>21.0</ns3:atemp>
          </ns3:TrackPointExtension>
        </extensions>
      </trkpt>
      <trkpt lat="42.6030950434505939483642578125" lon="19.88781072199344635009765625">
        <ele>2185.800048828125</ele>
        <time>2026-06-16T10:29:23.000Z</time>
        <extensions>
          <ns3:TrackPointExtension>
            <ns3:atemp>21.0</ns3:atemp>
          </ns3:TrackPointExtension>
        </extensions>
      </trkpt>
      <trkpt lat="42.6030950434505939483642578125" lon="19.88781072199344635009765625">
        <ele>2185.800048828125</ele>
        <time>2026-06-16T10:29:24.000Z</time>
        <extensions>
          <ns3:TrackPointExtension>
            <ns3:atemp>21.0</ns3:atemp>
          </ns3:TrackPointExtension>
        </extensions>
      </trkpt>
      <trkpt lat="42.6030950434505939483642578125" lon="19.88781072199344635009765625">
        <ele>2185.800048828125</ele>
        <time>2026-06-16T10:29:25.000Z</time>
        <extensions>
          <ns3:TrackPointExtension>
            <ns3:atemp>21.0</ns3:atemp>
          </ns3:TrackPointExtension>
        </extensions>
      </trkpt>
      <trkpt lat="42.6030950434505939483642578125" lon="19.88781072199344635009765625">
        <ele>2185.800048828125</ele>
        <time>2026-06-16T10:29:26.000Z</time>
        <extensions>
          <ns3:TrackPointExtension>
            <ns3:atemp>21.0</ns3:atemp>
          </ns3:TrackPointExtension>
        </extensions>
      </trkpt>
      <trkpt lat="42.6030950434505939483642578125" lon="19.88781072199344635009765625">
        <ele>2185.800048828125</ele>
        <time>2026-06-16T10:29:27.000Z</time>
        <extensions>
          <ns3:TrackPointExtension>
            <ns3:atemp>21.0</ns3:atemp>
          </ns3:TrackPointExtension>
        </extensions>
      </trkpt>
      <trkpt lat="42.6030950434505939483642578125" lon="19.88781072199344635009765625">
        <ele>2185.800048828125</ele>
        <time>2026-06-16T10:29:28.000Z</time>
        <extensions>
          <ns3:TrackPointExtension>
            <ns3:atemp>21.0</ns3:atemp>
          </ns3:TrackPointExtension>
        </extensions>
      </trkpt>
      <trkpt lat="42.6030950434505939483642578125" lon="19.88781072199344635009765625">
        <ele>2185.800048828125</ele>
        <time>2026-06-16T10:29:29.000Z</time>
        <extensions>
          <ns3:TrackPointExtension>
            <ns3:atemp>21.0</ns3:atemp>
          </ns3:TrackPointExtension>
        </extensions>
      </trkpt>
      <trkpt lat="42.6030950434505939483642578125" lon="19.88781072199344635009765625">
        <ele>2185.800048828125</ele>
        <time>2026-06-16T10:29:30.000Z</time>
        <extensions>
          <ns3:TrackPointExtension>
            <ns3:atemp>21.0</ns3:atemp>
          </ns3:TrackPointExtension>
        </extensions>
      </trkpt>
      <trkpt lat="42.6030950434505939483642578125" lon="19.88781072199344635009765625">
        <ele>2185.800048828125</ele>
        <time>2026-06-16T10:29:31.000Z</time>
        <extensions>
          <ns3:TrackPointExtension>
            <ns3:atemp>21.0</ns3:atemp>
          </ns3:TrackPointExtension>
        </extensions>
      </trkpt>
      <trkpt lat="42.6030950434505939483642578125" lon="19.88781072199344635009765625">
        <ele>2185.800048828125</ele>
        <time>2026-06-16T10:29:32.000Z</time>
        <extensions>
          <ns3:TrackPointExtension>
            <ns3:atemp>21.0</ns3:atemp>
          </ns3:TrackPointExtension>
        </extensions>
      </trkpt>
      <trkpt lat="42.6030950434505939483642578125" lon="19.88781072199344635009765625">
        <ele>2185.800048828125</ele>
        <time>2026-06-16T10:29:33.000Z</time>
        <extensions>
          <ns3:TrackPointExtension>
            <ns3:atemp>21.0</ns3:atemp>
          </ns3:TrackPointExtension>
        </extensions>
      </trkpt>
      <trkpt lat="42.6030950434505939483642578125" lon="19.88781072199344635009765625">
        <ele>2185.800048828125</ele>
        <time>2026-06-16T10:29:34.000Z</time>
        <extensions>
          <ns3:TrackPointExtension>
            <ns3:atemp>21.0</ns3:atemp>
          </ns3:TrackPointExtension>
        </extensions>
      </trkpt>
      <trkpt lat="42.6030950434505939483642578125" lon="19.88781072199344635009765625">
        <ele>2185.800048828125</ele>
        <time>2026-06-16T10:29:35.000Z</time>
        <extensions>
          <ns3:TrackPointExtension>
            <ns3:atemp>21.0</ns3:atemp>
          </ns3:TrackPointExtension>
        </extensions>
      </trkpt>
      <trkpt lat="42.6030950434505939483642578125" lon="19.88781072199344635009765625">
        <ele>2185.800048828125</ele>
        <time>2026-06-16T10:29:36.000Z</time>
        <extensions>
          <ns3:TrackPointExtension>
            <ns3:atemp>21.0</ns3:atemp>
          </ns3:TrackPointExtension>
        </extensions>
      </trkpt>
      <trkpt lat="42.6030950434505939483642578125" lon="19.88781072199344635009765625">
        <ele>2185.800048828125</ele>
        <time>2026-06-16T10:29:37.000Z</time>
        <extensions>
          <ns3:TrackPointExtension>
            <ns3:atemp>21.0</ns3:atemp>
          </ns3:TrackPointExtension>
        </extensions>
      </trkpt>
      <trkpt lat="42.6030950434505939483642578125" lon="19.88781072199344635009765625">
        <ele>2185.800048828125</ele>
        <time>2026-06-16T10:29:38.000Z</time>
        <extensions>
          <ns3:TrackPointExtension>
            <ns3:atemp>21.0</ns3:atemp>
          </ns3:TrackPointExtension>
        </extensions>
      </trkpt>
      <trkpt lat="42.6030950434505939483642578125" lon="19.88781072199344635009765625">
        <ele>2185.800048828125</ele>
        <time>2026-06-16T10:29:39.000Z</time>
        <extensions>
          <ns3:TrackPointExtension>
            <ns3:atemp>21.0</ns3:atemp>
          </ns3:TrackPointExtension>
        </extensions>
      </trkpt>
      <trkpt lat="42.6030950434505939483642578125" lon="19.88781072199344635009765625">
        <ele>2185.800048828125</ele>
        <time>2026-06-16T10:29:40.000Z</time>
        <extensions>
          <ns3:TrackPointExtension>
            <ns3:atemp>21.0</ns3:atemp>
          </ns3:TrackPointExtension>
        </extensions>
      </trkpt>
      <trkpt lat="42.6030950434505939483642578125" lon="19.88781072199344635009765625">
        <ele>2185.800048828125</ele>
        <time>2026-06-16T10:29:41.000Z</time>
        <extensions>
          <ns3:TrackPointExtension>
            <ns3:atemp>21.0</ns3:atemp>
          </ns3:TrackPointExtension>
        </extensions>
      </trkpt>
      <trkpt lat="42.6030950434505939483642578125" lon="19.88781072199344635009765625">
        <ele>2185.800048828125</ele>
        <time>2026-06-16T10:29:42.000Z</time>
        <extensions>
          <ns3:TrackPointExtension>
            <ns3:atemp>21.0</ns3:atemp>
          </ns3:TrackPointExtension>
        </extensions>
      </trkpt>
      <trkpt lat="42.6030950434505939483642578125" lon="19.88781072199344635009765625">
        <ele>2185.800048828125</ele>
        <time>2026-06-16T10:29:43.000Z</time>
        <extensions>
          <ns3:TrackPointExtension>
            <ns3:atemp>21.0</ns3:atemp>
          </ns3:TrackPointExtension>
        </extensions>
      </trkpt>
      <trkpt lat="42.6030950434505939483642578125" lon="19.88781072199344635009765625">
        <ele>2185.800048828125</ele>
        <time>2026-06-16T10:29:44.000Z</time>
        <extensions>
          <ns3:TrackPointExtension>
            <ns3:atemp>21.0</ns3:atemp>
          </ns3:TrackPointExtension>
        </extensions>
      </trkpt>
      <trkpt lat="42.6030950434505939483642578125" lon="19.88781072199344635009765625">
        <ele>2185.800048828125</ele>
        <time>2026-06-16T10:29:45.000Z</time>
        <extensions>
          <ns3:TrackPointExtension>
            <ns3:atemp>21.0</ns3:atemp>
          </ns3:TrackPointExtension>
        </extensions>
      </trkpt>
      <trkpt lat="42.6030950434505939483642578125" lon="19.88781072199344635009765625">
        <ele>2185.800048828125</ele>
        <time>2026-06-16T10:29:46.000Z</time>
        <extensions>
          <ns3:TrackPointExtension>
            <ns3:atemp>21.0</ns3:atemp>
          </ns3:TrackPointExtension>
        </extensions>
      </trkpt>
      <trkpt lat="42.6030950434505939483642578125" lon="19.88781072199344635009765625">
        <ele>2185.800048828125</ele>
        <time>2026-06-16T10:29:47.000Z</time>
        <extensions>
          <ns3:TrackPointExtension>
            <ns3:atemp>21.0</ns3:atemp>
          </ns3:TrackPointExtension>
        </extensions>
      </trkpt>
      <trkpt lat="42.6030950434505939483642578125" lon="19.88781072199344635009765625">
        <ele>2185.800048828125</ele>
        <time>2026-06-16T10:29:48.000Z</time>
        <extensions>
          <ns3:TrackPointExtension>
            <ns3:atemp>21.0</ns3:atemp>
          </ns3:TrackPointExtension>
        </extensions>
      </trkpt>
      <trkpt lat="42.6030950434505939483642578125" lon="19.88781072199344635009765625">
        <ele>2185.800048828125</ele>
        <time>2026-06-16T10:29:49.000Z</time>
        <extensions>
          <ns3:TrackPointExtension>
            <ns3:atemp>21.0</ns3:atemp>
          </ns3:TrackPointExtension>
        </extensions>
      </trkpt>
      <trkpt lat="42.6030950434505939483642578125" lon="19.88781072199344635009765625">
        <ele>2185.800048828125</ele>
        <time>2026-06-16T10:29:50.000Z</time>
        <extensions>
          <ns3:TrackPointExtension>
            <ns3:atemp>21.0</ns3:atemp>
          </ns3:TrackPointExtension>
        </extensions>
      </trkpt>
      <trkpt lat="42.6030950434505939483642578125" lon="19.88781072199344635009765625">
        <ele>2185.800048828125</ele>
        <time>2026-06-16T10:29:51.000Z</time>
        <extensions>
          <ns3:TrackPointExtension>
            <ns3:atemp>21.0</ns3:atemp>
          </ns3:TrackPointExtension>
        </extensions>
      </trkpt>
      <trkpt lat="42.6030950434505939483642578125" lon="19.88781072199344635009765625">
        <ele>2185.800048828125</ele>
        <time>2026-06-16T10:29:52.000Z</time>
        <extensions>
          <ns3:TrackPointExtension>
            <ns3:atemp>21.0</ns3:atemp>
          </ns3:TrackPointExtension>
        </extensions>
      </trkpt>
      <trkpt lat="42.6030950434505939483642578125" lon="19.88781072199344635009765625">
        <ele>2185.800048828125</ele>
        <time>2026-06-16T10:29:53.000Z</time>
        <extensions>
          <ns3:TrackPointExtension>
            <ns3:atemp>21.0</ns3:atemp>
          </ns3:TrackPointExtension>
        </extensions>
      </trkpt>
      <trkpt lat="42.6030950434505939483642578125" lon="19.88781072199344635009765625">
        <ele>2185.800048828125</ele>
        <time>2026-06-16T10:29:54.000Z</time>
        <extensions>
          <ns3:TrackPointExtension>
            <ns3:atemp>21.0</ns3:atemp>
          </ns3:TrackPointExtension>
        </extensions>
      </trkpt>
      <trkpt lat="42.6030950434505939483642578125" lon="19.88781072199344635009765625">
        <ele>2185.800048828125</ele>
        <time>2026-06-16T10:29:55.000Z</time>
        <extensions>
          <ns3:TrackPointExtension>
            <ns3:atemp>21.0</ns3:atemp>
          </ns3:TrackPointExtension>
        </extensions>
      </trkpt>
      <trkpt lat="42.6030950434505939483642578125" lon="19.88781072199344635009765625">
        <ele>2185.800048828125</ele>
        <time>2026-06-16T10:29:56.000Z</time>
        <extensions>
          <ns3:TrackPointExtension>
            <ns3:atemp>21.0</ns3:atemp>
          </ns3:TrackPointExtension>
        </extensions>
      </trkpt>
      <trkpt lat="42.6030950434505939483642578125" lon="19.88781072199344635009765625">
        <ele>2185.800048828125</ele>
        <time>2026-06-16T10:29:57.000Z</time>
        <extensions>
          <ns3:TrackPointExtension>
            <ns3:atemp>21.0</ns3:atemp>
          </ns3:TrackPointExtension>
        </extensions>
      </trkpt>
      <trkpt lat="42.6030950434505939483642578125" lon="19.88781072199344635009765625">
        <ele>2185.800048828125</ele>
        <time>2026-06-16T10:29:58.000Z</time>
        <extensions>
          <ns3:TrackPointExtension>
            <ns3:atemp>21.0</ns3:atemp>
          </ns3:TrackPointExtension>
        </extensions>
      </trkpt>
      <trkpt lat="42.6030950434505939483642578125" lon="19.88781072199344635009765625">
        <ele>2185.800048828125</ele>
        <time>2026-06-16T10:29:59.000Z</time>
        <extensions>
          <ns3:TrackPointExtension>
            <ns3:atemp>21.0</ns3:atemp>
          </ns3:TrackPointExtension>
        </extensions>
      </trkpt>
      <trkpt lat="42.6030950434505939483642578125" lon="19.88781072199344635009765625">
        <ele>2185.800048828125</ele>
        <time>2026-06-16T10:30:00.000Z</time>
        <extensions>
          <ns3:TrackPointExtension>
            <ns3:atemp>21.0</ns3:atemp>
          </ns3:TrackPointExtension>
        </extensions>
      </trkpt>
      <trkpt lat="42.6030950434505939483642578125" lon="19.88781072199344635009765625">
        <ele>2185.800048828125</ele>
        <time>2026-06-16T10:30:01.000Z</time>
        <extensions>
          <ns3:TrackPointExtension>
            <ns3:atemp>21.0</ns3:atemp>
          </ns3:TrackPointExtension>
        </extensions>
      </trkpt>
      <trkpt lat="42.6030950434505939483642578125" lon="19.88781072199344635009765625">
        <ele>2185.800048828125</ele>
        <time>2026-06-16T10:30:02.000Z</time>
        <extensions>
          <ns3:TrackPointExtension>
            <ns3:atemp>21.0</ns3:atemp>
          </ns3:TrackPointExtension>
        </extensions>
      </trkpt>
      <trkpt lat="42.6030950434505939483642578125" lon="19.88781072199344635009765625">
        <ele>2185.800048828125</ele>
        <time>2026-06-16T10:30:03.000Z</time>
        <extensions>
          <ns3:TrackPointExtension>
            <ns3:atemp>21.0</ns3:atemp>
          </ns3:TrackPointExtension>
        </extensions>
      </trkpt>
      <trkpt lat="42.6030950434505939483642578125" lon="19.88781072199344635009765625">
        <ele>2185.800048828125</ele>
        <time>2026-06-16T10:30:04.000Z</time>
        <extensions>
          <ns3:TrackPointExtension>
            <ns3:atemp>21.0</ns3:atemp>
          </ns3:TrackPointExtension>
        </extensions>
      </trkpt>
      <trkpt lat="42.6030950434505939483642578125" lon="19.88781072199344635009765625">
        <ele>2185.800048828125</ele>
        <time>2026-06-16T10:30:05.000Z</time>
        <extensions>
          <ns3:TrackPointExtension>
            <ns3:atemp>21.0</ns3:atemp>
          </ns3:TrackPointExtension>
        </extensions>
      </trkpt>
      <trkpt lat="42.6030950434505939483642578125" lon="19.88781072199344635009765625">
        <ele>2185.800048828125</ele>
        <time>2026-06-16T10:30:06.000Z</time>
        <extensions>
          <ns3:TrackPointExtension>
            <ns3:atemp>21.0</ns3:atemp>
          </ns3:TrackPointExtension>
        </extensions>
      </trkpt>
      <trkpt lat="42.6030950434505939483642578125" lon="19.88781072199344635009765625">
        <ele>2185.800048828125</ele>
        <time>2026-06-16T10:30:07.000Z</time>
        <extensions>
          <ns3:TrackPointExtension>
            <ns3:atemp>21.0</ns3:atemp>
          </ns3:TrackPointExtension>
        </extensions>
      </trkpt>
      <trkpt lat="42.6030950434505939483642578125" lon="19.88781072199344635009765625">
        <ele>2185.800048828125</ele>
        <time>2026-06-16T10:30:08.000Z</time>
        <extensions>
          <ns3:TrackPointExtension>
            <ns3:atemp>21.0</ns3:atemp>
          </ns3:TrackPointExtension>
        </extensions>
      </trkpt>
      <trkpt lat="42.6030950434505939483642578125" lon="19.88781072199344635009765625">
        <ele>2185.800048828125</ele>
        <time>2026-06-16T10:30:09.000Z</time>
        <extensions>
          <ns3:TrackPointExtension>
            <ns3:atemp>21.0</ns3:atemp>
          </ns3:TrackPointExtension>
        </extensions>
      </trkpt>
      <trkpt lat="42.6030950434505939483642578125" lon="19.88781072199344635009765625">
        <ele>2185.800048828125</ele>
        <time>2026-06-16T10:30:10.000Z</time>
        <extensions>
          <ns3:TrackPointExtension>
            <ns3:atemp>21.0</ns3:atemp>
          </ns3:TrackPointExtension>
        </extensions>
      </trkpt>
      <trkpt lat="42.6030950434505939483642578125" lon="19.88781072199344635009765625">
        <ele>2185.800048828125</ele>
        <time>2026-06-16T10:30:11.000Z</time>
        <extensions>
          <ns3:TrackPointExtension>
            <ns3:atemp>21.0</ns3:atemp>
          </ns3:TrackPointExtension>
        </extensions>
      </trkpt>
      <trkpt lat="42.6030950434505939483642578125" lon="19.88781072199344635009765625">
        <ele>2185.800048828125</ele>
        <time>2026-06-16T10:30:12.000Z</time>
        <extensions>
          <ns3:TrackPointExtension>
            <ns3:atemp>21.0</ns3:atemp>
          </ns3:TrackPointExtension>
        </extensions>
      </trkpt>
      <trkpt lat="42.6030950434505939483642578125" lon="19.88781072199344635009765625">
        <ele>2185.800048828125</ele>
        <time>2026-06-16T10:30:13.000Z</time>
        <extensions>
          <ns3:TrackPointExtension>
            <ns3:atemp>21.0</ns3:atemp>
          </ns3:TrackPointExtension>
        </extensions>
      </trkpt>
      <trkpt lat="42.6030950434505939483642578125" lon="19.88781072199344635009765625">
        <ele>2185.800048828125</ele>
        <time>2026-06-16T10:30:14.000Z</time>
        <extensions>
          <ns3:TrackPointExtension>
            <ns3:atemp>21.0</ns3:atemp>
          </ns3:TrackPointExtension>
        </extensions>
      </trkpt>
      <trkpt lat="42.6030950434505939483642578125" lon="19.88781072199344635009765625">
        <ele>2185.800048828125</ele>
        <time>2026-06-16T10:30:15.000Z</time>
        <extensions>
          <ns3:TrackPointExtension>
            <ns3:atemp>21.0</ns3:atemp>
          </ns3:TrackPointExtension>
        </extensions>
      </trkpt>
      <trkpt lat="42.6030950434505939483642578125" lon="19.88781072199344635009765625">
        <ele>2185.800048828125</ele>
        <time>2026-06-16T10:30:16.000Z</time>
        <extensions>
          <ns3:TrackPointExtension>
            <ns3:atemp>21.0</ns3:atemp>
          </ns3:TrackPointExtension>
        </extensions>
      </trkpt>
      <trkpt lat="42.6030950434505939483642578125" lon="19.88781072199344635009765625">
        <ele>2185.800048828125</ele>
        <time>2026-06-16T10:30:17.000Z</time>
        <extensions>
          <ns3:TrackPointExtension>
            <ns3:atemp>21.0</ns3:atemp>
          </ns3:TrackPointExtension>
        </extensions>
      </trkpt>
      <trkpt lat="42.6030950434505939483642578125" lon="19.88781072199344635009765625">
        <ele>2185.800048828125</ele>
        <time>2026-06-16T10:30:18.000Z</time>
        <extensions>
          <ns3:TrackPointExtension>
            <ns3:atemp>21.0</ns3:atemp>
          </ns3:TrackPointExtension>
        </extensions>
      </trkpt>
      <trkpt lat="42.6030950434505939483642578125" lon="19.88781072199344635009765625">
        <ele>2185.800048828125</ele>
        <time>2026-06-16T10:30:19.000Z</time>
        <extensions>
          <ns3:TrackPointExtension>
            <ns3:atemp>21.0</ns3:atemp>
          </ns3:TrackPointExtension>
        </extensions>
      </trkpt>
      <trkpt lat="42.6030950434505939483642578125" lon="19.88781072199344635009765625">
        <ele>2185.800048828125</ele>
        <time>2026-06-16T10:30:20.000Z</time>
        <extensions>
          <ns3:TrackPointExtension>
            <ns3:atemp>21.0</ns3:atemp>
          </ns3:TrackPointExtension>
        </extensions>
      </trkpt>
      <trkpt lat="42.6030950434505939483642578125" lon="19.88781072199344635009765625">
        <ele>2185.800048828125</ele>
        <time>2026-06-16T10:30:21.000Z</time>
        <extensions>
          <ns3:TrackPointExtension>
            <ns3:atemp>21.0</ns3:atemp>
          </ns3:TrackPointExtension>
        </extensions>
      </trkpt>
      <trkpt lat="42.6030950434505939483642578125" lon="19.88781072199344635009765625">
        <ele>2185.800048828125</ele>
        <time>2026-06-16T10:30:22.000Z</time>
        <extensions>
          <ns3:TrackPointExtension>
            <ns3:atemp>21.0</ns3:atemp>
          </ns3:TrackPointExtension>
        </extensions>
      </trkpt>
      <trkpt lat="42.6030950434505939483642578125" lon="19.88781072199344635009765625">
        <ele>2185.800048828125</ele>
        <time>2026-06-16T10:30:23.000Z</time>
        <extensions>
          <ns3:TrackPointExtension>
            <ns3:atemp>21.0</ns3:atemp>
          </ns3:TrackPointExtension>
        </extensions>
      </trkpt>
      <trkpt lat="42.6030950434505939483642578125" lon="19.88781072199344635009765625">
        <ele>2185.800048828125</ele>
        <time>2026-06-16T10:30:24.000Z</time>
        <extensions>
          <ns3:TrackPointExtension>
            <ns3:atemp>21.0</ns3:atemp>
          </ns3:TrackPointExtension>
        </extensions>
      </trkpt>
      <trkpt lat="42.6030950434505939483642578125" lon="19.88781072199344635009765625">
        <ele>2185.800048828125</ele>
        <time>2026-06-16T10:30:25.000Z</time>
        <extensions>
          <ns3:TrackPointExtension>
            <ns3:atemp>21.0</ns3:atemp>
          </ns3:TrackPointExtension>
        </extensions>
      </trkpt>
      <trkpt lat="42.6030950434505939483642578125" lon="19.88781072199344635009765625">
        <ele>2185.800048828125</ele>
        <time>2026-06-16T10:30:26.000Z</time>
        <extensions>
          <ns3:TrackPointExtension>
            <ns3:atemp>21.0</ns3:atemp>
          </ns3:TrackPointExtension>
        </extensions>
      </trkpt>
      <trkpt lat="42.6030950434505939483642578125" lon="19.88781072199344635009765625">
        <ele>2185.800048828125</ele>
        <time>2026-06-16T10:30:27.000Z</time>
        <extensions>
          <ns3:TrackPointExtension>
            <ns3:atemp>21.0</ns3:atemp>
          </ns3:TrackPointExtension>
        </extensions>
      </trkpt>
      <trkpt lat="42.6030950434505939483642578125" lon="19.88781072199344635009765625">
        <ele>2185.800048828125</ele>
        <time>2026-06-16T10:30:28.000Z</time>
        <extensions>
          <ns3:TrackPointExtension>
            <ns3:atemp>21.0</ns3:atemp>
          </ns3:TrackPointExtension>
        </extensions>
      </trkpt>
      <trkpt lat="42.6030950434505939483642578125" lon="19.88781072199344635009765625">
        <ele>2185.800048828125</ele>
        <time>2026-06-16T10:30:29.000Z</time>
        <extensions>
          <ns3:TrackPointExtension>
            <ns3:atemp>21.0</ns3:atemp>
          </ns3:TrackPointExtension>
        </extensions>
      </trkpt>
      <trkpt lat="42.6030950434505939483642578125" lon="19.88781072199344635009765625">
        <ele>2185.800048828125</ele>
        <time>2026-06-16T10:30:30.000Z</time>
        <extensions>
          <ns3:TrackPointExtension>
            <ns3:atemp>21.0</ns3:atemp>
          </ns3:TrackPointExtension>
        </extensions>
      </trkpt>
      <trkpt lat="42.6030950434505939483642578125" lon="19.88781072199344635009765625">
        <ele>2185.800048828125</ele>
        <time>2026-06-16T10:30:31.000Z</time>
        <extensions>
          <ns3:TrackPointExtension>
            <ns3:atemp>21.0</ns3:atemp>
          </ns3:TrackPointExtension>
        </extensions>
      </trkpt>
      <trkpt lat="42.6030950434505939483642578125" lon="19.88781072199344635009765625">
        <ele>2185.800048828125</ele>
        <time>2026-06-16T10:30:32.000Z</time>
        <extensions>
          <ns3:TrackPointExtension>
            <ns3:atemp>21.0</ns3:atemp>
          </ns3:TrackPointExtension>
        </extensions>
      </trkpt>
      <trkpt lat="42.6030950434505939483642578125" lon="19.88781072199344635009765625">
        <ele>2185.800048828125</ele>
        <time>2026-06-16T10:30:33.000Z</time>
        <extensions>
          <ns3:TrackPointExtension>
            <ns3:atemp>21.0</ns3:atemp>
          </ns3:TrackPointExtension>
        </extensions>
      </trkpt>
      <trkpt lat="42.6030950434505939483642578125" lon="19.88781072199344635009765625">
        <ele>2185.800048828125</ele>
        <time>2026-06-16T10:30:34.000Z</time>
        <extensions>
          <ns3:TrackPointExtension>
            <ns3:atemp>21.0</ns3:atemp>
          </ns3:TrackPointExtension>
        </extensions>
      </trkpt>
      <trkpt lat="42.6030950434505939483642578125" lon="19.88781072199344635009765625">
        <ele>2185.800048828125</ele>
        <time>2026-06-16T10:30:35.000Z</time>
        <extensions>
          <ns3:TrackPointExtension>
            <ns3:atemp>21.0</ns3:atemp>
          </ns3:TrackPointExtension>
        </extensions>
      </trkpt>
      <trkpt lat="42.6030950434505939483642578125" lon="19.88781072199344635009765625">
        <ele>2185.800048828125</ele>
        <time>2026-06-16T10:30:36.000Z</time>
        <extensions>
          <ns3:TrackPointExtension>
            <ns3:atemp>21.0</ns3:atemp>
          </ns3:TrackPointExtension>
        </extensions>
      </trkpt>
      <trkpt lat="42.6030950434505939483642578125" lon="19.88781072199344635009765625">
        <ele>2185.800048828125</ele>
        <time>2026-06-16T10:30:37.000Z</time>
        <extensions>
          <ns3:TrackPointExtension>
            <ns3:atemp>21.0</ns3:atemp>
          </ns3:TrackPointExtension>
        </extensions>
      </trkpt>
      <trkpt lat="42.6030950434505939483642578125" lon="19.88781072199344635009765625">
        <ele>2185.800048828125</ele>
        <time>2026-06-16T10:30:38.000Z</time>
        <extensions>
          <ns3:TrackPointExtension>
            <ns3:atemp>21.0</ns3:atemp>
          </ns3:TrackPointExtension>
        </extensions>
      </trkpt>
      <trkpt lat="42.6030950434505939483642578125" lon="19.88781072199344635009765625">
        <ele>2185.800048828125</ele>
        <time>2026-06-16T10:30:39.000Z</time>
        <extensions>
          <ns3:TrackPointExtension>
            <ns3:atemp>21.0</ns3:atemp>
          </ns3:TrackPointExtension>
        </extensions>
      </trkpt>
      <trkpt lat="42.6030950434505939483642578125" lon="19.88781072199344635009765625">
        <ele>2185.800048828125</ele>
        <time>2026-06-16T10:30:40.000Z</time>
        <extensions>
          <ns3:TrackPointExtension>
            <ns3:atemp>21.0</ns3:atemp>
          </ns3:TrackPointExtension>
        </extensions>
      </trkpt>
      <trkpt lat="42.6030950434505939483642578125" lon="19.88781072199344635009765625">
        <ele>2185.800048828125</ele>
        <time>2026-06-16T10:30:41.000Z</time>
        <extensions>
          <ns3:TrackPointExtension>
            <ns3:atemp>21.0</ns3:atemp>
          </ns3:TrackPointExtension>
        </extensions>
      </trkpt>
      <trkpt lat="42.6030950434505939483642578125" lon="19.88781072199344635009765625">
        <ele>2185.800048828125</ele>
        <time>2026-06-16T10:30:42.000Z</time>
        <extensions>
          <ns3:TrackPointExtension>
            <ns3:atemp>21.0</ns3:atemp>
          </ns3:TrackPointExtension>
        </extensions>
      </trkpt>
      <trkpt lat="42.6030950434505939483642578125" lon="19.88781072199344635009765625">
        <ele>2185.800048828125</ele>
        <time>2026-06-16T10:30:43.000Z</time>
        <extensions>
          <ns3:TrackPointExtension>
            <ns3:atemp>21.0</ns3:atemp>
          </ns3:TrackPointExtension>
        </extensions>
      </trkpt>
      <trkpt lat="42.6030950434505939483642578125" lon="19.88781072199344635009765625">
        <ele>2185.800048828125</ele>
        <time>2026-06-16T10:30:44.000Z</time>
        <extensions>
          <ns3:TrackPointExtension>
            <ns3:atemp>21.0</ns3:atemp>
          </ns3:TrackPointExtension>
        </extensions>
      </trkpt>
      <trkpt lat="42.6030950434505939483642578125" lon="19.88781072199344635009765625">
        <ele>2185.800048828125</ele>
        <time>2026-06-16T10:30:45.000Z</time>
        <extensions>
          <ns3:TrackPointExtension>
            <ns3:atemp>21.0</ns3:atemp>
          </ns3:TrackPointExtension>
        </extensions>
      </trkpt>
      <trkpt lat="42.6030950434505939483642578125" lon="19.88781072199344635009765625">
        <ele>2185.800048828125</ele>
        <time>2026-06-16T10:30:46.000Z</time>
        <extensions>
          <ns3:TrackPointExtension>
            <ns3:atemp>21.0</ns3:atemp>
          </ns3:TrackPointExtension>
        </extensions>
      </trkpt>
      <trkpt lat="42.6030950434505939483642578125" lon="19.88781072199344635009765625">
        <ele>2185.800048828125</ele>
        <time>2026-06-16T10:30:47.000Z</time>
        <extensions>
          <ns3:TrackPointExtension>
            <ns3:atemp>21.0</ns3:atemp>
          </ns3:TrackPointExtension>
        </extensions>
      </trkpt>
      <trkpt lat="42.6030950434505939483642578125" lon="19.88781072199344635009765625">
        <ele>2185.800048828125</ele>
        <time>2026-06-16T10:30:48.000Z</time>
        <extensions>
          <ns3:TrackPointExtension>
            <ns3:atemp>21.0</ns3:atemp>
          </ns3:TrackPointExtension>
        </extensions>
      </trkpt>
      <trkpt lat="42.6030950434505939483642578125" lon="19.88781072199344635009765625">
        <ele>2185.800048828125</ele>
        <time>2026-06-16T10:30:49.000Z</time>
        <extensions>
          <ns3:TrackPointExtension>
            <ns3:atemp>21.0</ns3:atemp>
          </ns3:TrackPointExtension>
        </extensions>
      </trkpt>
      <trkpt lat="42.6030950434505939483642578125" lon="19.88781072199344635009765625">
        <ele>2185.800048828125</ele>
        <time>2026-06-16T10:30:50.000Z</time>
        <extensions>
          <ns3:TrackPointExtension>
            <ns3:atemp>21.0</ns3:atemp>
          </ns3:TrackPointExtension>
        </extensions>
      </trkpt>
      <trkpt lat="42.6030950434505939483642578125" lon="19.88781072199344635009765625">
        <ele>2185.800048828125</ele>
        <time>2026-06-16T10:30:51.000Z</time>
        <extensions>
          <ns3:TrackPointExtension>
            <ns3:atemp>21.0</ns3:atemp>
          </ns3:TrackPointExtension>
        </extensions>
      </trkpt>
      <trkpt lat="42.6030950434505939483642578125" lon="19.88781072199344635009765625">
        <ele>2185.800048828125</ele>
        <time>2026-06-16T10:30:52.000Z</time>
        <extensions>
          <ns3:TrackPointExtension>
            <ns3:atemp>21.0</ns3:atemp>
          </ns3:TrackPointExtension>
        </extensions>
      </trkpt>
      <trkpt lat="42.6030950434505939483642578125" lon="19.88781072199344635009765625">
        <ele>2185.800048828125</ele>
        <time>2026-06-16T10:30:53.000Z</time>
        <extensions>
          <ns3:TrackPointExtension>
            <ns3:atemp>21.0</ns3:atemp>
          </ns3:TrackPointExtension>
        </extensions>
      </trkpt>
      <trkpt lat="42.6030950434505939483642578125" lon="19.88781072199344635009765625">
        <ele>2185.800048828125</ele>
        <time>2026-06-16T10:30:54.000Z</time>
        <extensions>
          <ns3:TrackPointExtension>
            <ns3:atemp>21.0</ns3:atemp>
          </ns3:TrackPointExtension>
        </extensions>
      </trkpt>
      <trkpt lat="42.6030950434505939483642578125" lon="19.88781072199344635009765625">
        <ele>2185.800048828125</ele>
        <time>2026-06-16T10:30:55.000Z</time>
        <extensions>
          <ns3:TrackPointExtension>
            <ns3:atemp>21.0</ns3:atemp>
          </ns3:TrackPointExtension>
        </extensions>
      </trkpt>
      <trkpt lat="42.6030950434505939483642578125" lon="19.88781072199344635009765625">
        <ele>2185.800048828125</ele>
        <time>2026-06-16T10:30:56.000Z</time>
        <extensions>
          <ns3:TrackPointExtension>
            <ns3:atemp>21.0</ns3:atemp>
          </ns3:TrackPointExtension>
        </extensions>
      </trkpt>
      <trkpt lat="42.6030950434505939483642578125" lon="19.88781072199344635009765625">
        <ele>2185.800048828125</ele>
        <time>2026-06-16T10:30:57.000Z</time>
        <extensions>
          <ns3:TrackPointExtension>
            <ns3:atemp>21.0</ns3:atemp>
          </ns3:TrackPointExtension>
        </extensions>
      </trkpt>
      <trkpt lat="42.6030950434505939483642578125" lon="19.88781072199344635009765625">
        <ele>2185.800048828125</ele>
        <time>2026-06-16T10:30:58.000Z</time>
        <extensions>
          <ns3:TrackPointExtension>
            <ns3:atemp>21.0</ns3:atemp>
          </ns3:TrackPointExtension>
        </extensions>
      </trkpt>
      <trkpt lat="42.6030950434505939483642578125" lon="19.88781072199344635009765625">
        <ele>2185.800048828125</ele>
        <time>2026-06-16T10:30:59.000Z</time>
        <extensions>
          <ns3:TrackPointExtension>
            <ns3:atemp>21.0</ns3:atemp>
          </ns3:TrackPointExtension>
        </extensions>
      </trkpt>
      <trkpt lat="42.6030950434505939483642578125" lon="19.88781072199344635009765625">
        <ele>2185.800048828125</ele>
        <time>2026-06-16T10:31:00.000Z</time>
        <extensions>
          <ns3:TrackPointExtension>
            <ns3:atemp>21.0</ns3:atemp>
          </ns3:TrackPointExtension>
        </extensions>
      </trkpt>
      <trkpt lat="42.6030950434505939483642578125" lon="19.88781072199344635009765625">
        <ele>2185.800048828125</ele>
        <time>2026-06-16T10:31:01.000Z</time>
        <extensions>
          <ns3:TrackPointExtension>
            <ns3:atemp>21.0</ns3:atemp>
          </ns3:TrackPointExtension>
        </extensions>
      </trkpt>
      <trkpt lat="42.6030950434505939483642578125" lon="19.88781072199344635009765625">
        <ele>2185.800048828125</ele>
        <time>2026-06-16T10:31:02.000Z</time>
        <extensions>
          <ns3:TrackPointExtension>
            <ns3:atemp>21.0</ns3:atemp>
          </ns3:TrackPointExtension>
        </extensions>
      </trkpt>
      <trkpt lat="42.6030950434505939483642578125" lon="19.88781072199344635009765625">
        <ele>2185.800048828125</ele>
        <time>2026-06-16T10:31:03.000Z</time>
        <extensions>
          <ns3:TrackPointExtension>
            <ns3:atemp>21.0</ns3:atemp>
          </ns3:TrackPointExtension>
        </extensions>
      </trkpt>
      <trkpt lat="42.6030950434505939483642578125" lon="19.88781072199344635009765625">
        <ele>2185.800048828125</ele>
        <time>2026-06-16T10:31:04.000Z</time>
        <extensions>
          <ns3:TrackPointExtension>
            <ns3:atemp>21.0</ns3:atemp>
          </ns3:TrackPointExtension>
        </extensions>
      </trkpt>
      <trkpt lat="42.6030950434505939483642578125" lon="19.88781072199344635009765625">
        <ele>2185.800048828125</ele>
        <time>2026-06-16T10:31:05.000Z</time>
        <extensions>
          <ns3:TrackPointExtension>
            <ns3:atemp>21.0</ns3:atemp>
          </ns3:TrackPointExtension>
        </extensions>
      </trkpt>
      <trkpt lat="42.6030950434505939483642578125" lon="19.88781072199344635009765625">
        <ele>2185.800048828125</ele>
        <time>2026-06-16T10:31:06.000Z</time>
        <extensions>
          <ns3:TrackPointExtension>
            <ns3:atemp>21.0</ns3:atemp>
          </ns3:TrackPointExtension>
        </extensions>
      </trkpt>
      <trkpt lat="42.6030950434505939483642578125" lon="19.88781072199344635009765625">
        <ele>2185.800048828125</ele>
        <time>2026-06-16T10:31:07.000Z</time>
        <extensions>
          <ns3:TrackPointExtension>
            <ns3:atemp>22.0</ns3:atemp>
          </ns3:TrackPointExtension>
        </extensions>
      </trkpt>
      <trkpt lat="42.6030950434505939483642578125" lon="19.88781072199344635009765625">
        <ele>2185.800048828125</ele>
        <time>2026-06-16T10:31:08.000Z</time>
        <extensions>
          <ns3:TrackPointExtension>
            <ns3:atemp>22.0</ns3:atemp>
          </ns3:TrackPointExtension>
        </extensions>
      </trkpt>
      <trkpt lat="42.6030950434505939483642578125" lon="19.88781072199344635009765625">
        <ele>2185.800048828125</ele>
        <time>2026-06-16T10:31:09.000Z</time>
        <extensions>
          <ns3:TrackPointExtension>
            <ns3:atemp>22.0</ns3:atemp>
          </ns3:TrackPointExtension>
        </extensions>
      </trkpt>
      <trkpt lat="42.6030950434505939483642578125" lon="19.88781072199344635009765625">
        <ele>2185.800048828125</ele>
        <time>2026-06-16T10:31:10.000Z</time>
        <extensions>
          <ns3:TrackPointExtension>
            <ns3:atemp>22.0</ns3:atemp>
          </ns3:TrackPointExtension>
        </extensions>
      </trkpt>
      <trkpt lat="42.6030950434505939483642578125" lon="19.88781072199344635009765625">
        <ele>2185.800048828125</ele>
        <time>2026-06-16T10:31:11.000Z</time>
        <extensions>
          <ns3:TrackPointExtension>
            <ns3:atemp>22.0</ns3:atemp>
          </ns3:TrackPointExtension>
        </extensions>
      </trkpt>
      <trkpt lat="42.6030950434505939483642578125" lon="19.88781072199344635009765625">
        <ele>2185.800048828125</ele>
        <time>2026-06-16T10:31:12.000Z</time>
        <extensions>
          <ns3:TrackPointExtension>
            <ns3:atemp>22.0</ns3:atemp>
          </ns3:TrackPointExtension>
        </extensions>
      </trkpt>
      <trkpt lat="42.6030950434505939483642578125" lon="19.88781072199344635009765625">
        <ele>2185.800048828125</ele>
        <time>2026-06-16T10:31:13.000Z</time>
        <extensions>
          <ns3:TrackPointExtension>
            <ns3:atemp>22.0</ns3:atemp>
          </ns3:TrackPointExtension>
        </extensions>
      </trkpt>
      <trkpt lat="42.6030950434505939483642578125" lon="19.88781072199344635009765625">
        <ele>2185.800048828125</ele>
        <time>2026-06-16T10:31:14.000Z</time>
        <extensions>
          <ns3:TrackPointExtension>
            <ns3:atemp>22.0</ns3:atemp>
          </ns3:TrackPointExtension>
        </extensions>
      </trkpt>
      <trkpt lat="42.6030950434505939483642578125" lon="19.88781072199344635009765625">
        <ele>2185.800048828125</ele>
        <time>2026-06-16T10:31:15.000Z</time>
        <extensions>
          <ns3:TrackPointExtension>
            <ns3:atemp>22.0</ns3:atemp>
          </ns3:TrackPointExtension>
        </extensions>
      </trkpt>
      <trkpt lat="42.6030950434505939483642578125" lon="19.88781072199344635009765625">
        <ele>2185.800048828125</ele>
        <time>2026-06-16T10:31:16.000Z</time>
        <extensions>
          <ns3:TrackPointExtension>
            <ns3:atemp>22.0</ns3:atemp>
          </ns3:TrackPointExtension>
        </extensions>
      </trkpt>
      <trkpt lat="42.6030950434505939483642578125" lon="19.88781072199344635009765625">
        <ele>2185.800048828125</ele>
        <time>2026-06-16T10:31:17.000Z</time>
        <extensions>
          <ns3:TrackPointExtension>
            <ns3:atemp>22.0</ns3:atemp>
          </ns3:TrackPointExtension>
        </extensions>
      </trkpt>
      <trkpt lat="42.6030950434505939483642578125" lon="19.88781072199344635009765625">
        <ele>2185.800048828125</ele>
        <time>2026-06-16T10:31:18.000Z</time>
        <extensions>
          <ns3:TrackPointExtension>
            <ns3:atemp>22.0</ns3:atemp>
          </ns3:TrackPointExtension>
        </extensions>
      </trkpt>
      <trkpt lat="42.6030950434505939483642578125" lon="19.88781072199344635009765625">
        <ele>2185.800048828125</ele>
        <time>2026-06-16T10:31:19.000Z</time>
        <extensions>
          <ns3:TrackPointExtension>
            <ns3:atemp>22.0</ns3:atemp>
          </ns3:TrackPointExtension>
        </extensions>
      </trkpt>
      <trkpt lat="42.6030950434505939483642578125" lon="19.88781072199344635009765625">
        <ele>2185.800048828125</ele>
        <time>2026-06-16T10:31:20.000Z</time>
        <extensions>
          <ns3:TrackPointExtension>
            <ns3:atemp>22.0</ns3:atemp>
          </ns3:TrackPointExtension>
        </extensions>
      </trkpt>
      <trkpt lat="42.6030950434505939483642578125" lon="19.88781072199344635009765625">
        <ele>2185.800048828125</ele>
        <time>2026-06-16T10:31:21.000Z</time>
        <extensions>
          <ns3:TrackPointExtension>
            <ns3:atemp>22.0</ns3:atemp>
          </ns3:TrackPointExtension>
        </extensions>
      </trkpt>
      <trkpt lat="42.6030950434505939483642578125" lon="19.88781072199344635009765625">
        <ele>2185.800048828125</ele>
        <time>2026-06-16T10:31:22.000Z</time>
        <extensions>
          <ns3:TrackPointExtension>
            <ns3:atemp>22.0</ns3:atemp>
          </ns3:TrackPointExtension>
        </extensions>
      </trkpt>
      <trkpt lat="42.6030950434505939483642578125" lon="19.88781072199344635009765625">
        <ele>2185.800048828125</ele>
        <time>2026-06-16T10:31:23.000Z</time>
        <extensions>
          <ns3:TrackPointExtension>
            <ns3:atemp>22.0</ns3:atemp>
          </ns3:TrackPointExtension>
        </extensions>
      </trkpt>
      <trkpt lat="42.6030950434505939483642578125" lon="19.88781072199344635009765625">
        <ele>2185.800048828125</ele>
        <time>2026-06-16T10:31:24.000Z</time>
        <extensions>
          <ns3:TrackPointExtension>
            <ns3:atemp>22.0</ns3:atemp>
          </ns3:TrackPointExtension>
        </extensions>
      </trkpt>
      <trkpt lat="42.6030950434505939483642578125" lon="19.88781072199344635009765625">
        <ele>2185.800048828125</ele>
        <time>2026-06-16T10:31:25.000Z</time>
        <extensions>
          <ns3:TrackPointExtension>
            <ns3:atemp>22.0</ns3:atemp>
          </ns3:TrackPointExtension>
        </extensions>
      </trkpt>
      <trkpt lat="42.6030950434505939483642578125" lon="19.88781072199344635009765625">
        <ele>2185.800048828125</ele>
        <time>2026-06-16T10:31:26.000Z</time>
        <extensions>
          <ns3:TrackPointExtension>
            <ns3:atemp>22.0</ns3:atemp>
          </ns3:TrackPointExtension>
        </extensions>
      </trkpt>
      <trkpt lat="42.6030950434505939483642578125" lon="19.88781072199344635009765625">
        <ele>2185.800048828125</ele>
        <time>2026-06-16T10:31:27.000Z</time>
        <extensions>
          <ns3:TrackPointExtension>
            <ns3:atemp>22.0</ns3:atemp>
          </ns3:TrackPointExtension>
        </extensions>
      </trkpt>
      <trkpt lat="42.6030950434505939483642578125" lon="19.88781072199344635009765625">
        <ele>2185.800048828125</ele>
        <time>2026-06-16T10:31:28.000Z</time>
        <extensions>
          <ns3:TrackPointExtension>
            <ns3:atemp>22.0</ns3:atemp>
          </ns3:TrackPointExtension>
        </extensions>
      </trkpt>
      <trkpt lat="42.6030950434505939483642578125" lon="19.88781072199344635009765625">
        <ele>2185.800048828125</ele>
        <time>2026-06-16T10:31:29.000Z</time>
        <extensions>
          <ns3:TrackPointExtension>
            <ns3:atemp>22.0</ns3:atemp>
          </ns3:TrackPointExtension>
        </extensions>
      </trkpt>
      <trkpt lat="42.6030950434505939483642578125" lon="19.88781072199344635009765625">
        <ele>2185.800048828125</ele>
        <time>2026-06-16T10:31:30.000Z</time>
        <extensions>
          <ns3:TrackPointExtension>
            <ns3:atemp>22.0</ns3:atemp>
          </ns3:TrackPointExtension>
        </extensions>
      </trkpt>
      <trkpt lat="42.6030950434505939483642578125" lon="19.88781072199344635009765625">
        <ele>2185.800048828125</ele>
        <time>2026-06-16T10:31:31.000Z</time>
        <extensions>
          <ns3:TrackPointExtension>
            <ns3:atemp>22.0</ns3:atemp>
          </ns3:TrackPointExtension>
        </extensions>
      </trkpt>
      <trkpt lat="42.6030950434505939483642578125" lon="19.88781072199344635009765625">
        <ele>2185.800048828125</ele>
        <time>2026-06-16T10:31:32.000Z</time>
        <extensions>
          <ns3:TrackPointExtension>
            <ns3:atemp>22.0</ns3:atemp>
          </ns3:TrackPointExtension>
        </extensions>
      </trkpt>
      <trkpt lat="42.6030950434505939483642578125" lon="19.88781072199344635009765625">
        <ele>2185.800048828125</ele>
        <time>2026-06-16T10:31:33.000Z</time>
        <extensions>
          <ns3:TrackPointExtension>
            <ns3:atemp>22.0</ns3:atemp>
          </ns3:TrackPointExtension>
        </extensions>
      </trkpt>
      <trkpt lat="42.6030950434505939483642578125" lon="19.88781072199344635009765625">
        <ele>2185.800048828125</ele>
        <time>2026-06-16T10:31:34.000Z</time>
        <extensions>
          <ns3:TrackPointExtension>
            <ns3:atemp>22.0</ns3:atemp>
          </ns3:TrackPointExtension>
        </extensions>
      </trkpt>
      <trkpt lat="42.6030950434505939483642578125" lon="19.88781072199344635009765625">
        <ele>2185.800048828125</ele>
        <time>2026-06-16T10:31:35.000Z</time>
        <extensions>
          <ns3:TrackPointExtension>
            <ns3:atemp>22.0</ns3:atemp>
          </ns3:TrackPointExtension>
        </extensions>
      </trkpt>
      <trkpt lat="42.6030950434505939483642578125" lon="19.88781072199344635009765625">
        <ele>2185.800048828125</ele>
        <time>2026-06-16T10:31:36.000Z</time>
        <extensions>
          <ns3:TrackPointExtension>
            <ns3:atemp>22.0</ns3:atemp>
          </ns3:TrackPointExtension>
        </extensions>
      </trkpt>
      <trkpt lat="42.6030950434505939483642578125" lon="19.88781072199344635009765625">
        <ele>2185.800048828125</ele>
        <time>2026-06-16T10:31:37.000Z</time>
        <extensions>
          <ns3:TrackPointExtension>
            <ns3:atemp>22.0</ns3:atemp>
          </ns3:TrackPointExtension>
        </extensions>
      </trkpt>
      <trkpt lat="42.6030950434505939483642578125" lon="19.88781072199344635009765625">
        <ele>2185.800048828125</ele>
        <time>2026-06-16T10:31:38.000Z</time>
        <extensions>
          <ns3:TrackPointExtension>
            <ns3:atemp>22.0</ns3:atemp>
          </ns3:TrackPointExtension>
        </extensions>
      </trkpt>
      <trkpt lat="42.6030950434505939483642578125" lon="19.88781072199344635009765625">
        <ele>2185.800048828125</ele>
        <time>2026-06-16T10:31:39.000Z</time>
        <extensions>
          <ns3:TrackPointExtension>
            <ns3:atemp>22.0</ns3:atemp>
          </ns3:TrackPointExtension>
        </extensions>
      </trkpt>
      <trkpt lat="42.6030950434505939483642578125" lon="19.88781072199344635009765625">
        <ele>2185.800048828125</ele>
        <time>2026-06-16T10:31:40.000Z</time>
        <extensions>
          <ns3:TrackPointExtension>
            <ns3:atemp>22.0</ns3:atemp>
          </ns3:TrackPointExtension>
        </extensions>
      </trkpt>
      <trkpt lat="42.6030950434505939483642578125" lon="19.88781072199344635009765625">
        <ele>2185.800048828125</ele>
        <time>2026-06-16T10:31:41.000Z</time>
        <extensions>
          <ns3:TrackPointExtension>
            <ns3:atemp>22.0</ns3:atemp>
          </ns3:TrackPointExtension>
        </extensions>
      </trkpt>
      <trkpt lat="42.6030950434505939483642578125" lon="19.88781072199344635009765625">
        <ele>2185.800048828125</ele>
        <time>2026-06-16T10:31:42.000Z</time>
        <extensions>
          <ns3:TrackPointExtension>
            <ns3:atemp>22.0</ns3:atemp>
          </ns3:TrackPointExtension>
        </extensions>
      </trkpt>
      <trkpt lat="42.6030950434505939483642578125" lon="19.88781072199344635009765625">
        <ele>2185.800048828125</ele>
        <time>2026-06-16T10:31:43.000Z</time>
        <extensions>
          <ns3:TrackPointExtension>
            <ns3:atemp>22.0</ns3:atemp>
          </ns3:TrackPointExtension>
        </extensions>
      </trkpt>
      <trkpt lat="42.6030950434505939483642578125" lon="19.88781072199344635009765625">
        <ele>2185.800048828125</ele>
        <time>2026-06-16T10:31:44.000Z</time>
        <extensions>
          <ns3:TrackPointExtension>
            <ns3:atemp>22.0</ns3:atemp>
          </ns3:TrackPointExtension>
        </extensions>
      </trkpt>
      <trkpt lat="42.6030950434505939483642578125" lon="19.88781072199344635009765625">
        <ele>2185.800048828125</ele>
        <time>2026-06-16T10:31:45.000Z</time>
        <extensions>
          <ns3:TrackPointExtension>
            <ns3:atemp>22.0</ns3:atemp>
          </ns3:TrackPointExtension>
        </extensions>
      </trkpt>
      <trkpt lat="42.6030950434505939483642578125" lon="19.88781072199344635009765625">
        <ele>2185.800048828125</ele>
        <time>2026-06-16T10:31:46.000Z</time>
        <extensions>
          <ns3:TrackPointExtension>
            <ns3:atemp>22.0</ns3:atemp>
          </ns3:TrackPointExtension>
        </extensions>
      </trkpt>
      <trkpt lat="42.6030950434505939483642578125" lon="19.88781072199344635009765625">
        <ele>2185.800048828125</ele>
        <time>2026-06-16T10:31:47.000Z</time>
        <extensions>
          <ns3:TrackPointExtension>
            <ns3:atemp>22.0</ns3:atemp>
          </ns3:TrackPointExtension>
        </extensions>
      </trkpt>
      <trkpt lat="42.6030950434505939483642578125" lon="19.88781072199344635009765625">
        <ele>2185.800048828125</ele>
        <time>2026-06-16T10:31:48.000Z</time>
        <extensions>
          <ns3:TrackPointExtension>
            <ns3:atemp>22.0</ns3:atemp>
          </ns3:TrackPointExtension>
        </extensions>
      </trkpt>
      <trkpt lat="42.6030950434505939483642578125" lon="19.88781072199344635009765625">
        <ele>2185.800048828125</ele>
        <time>2026-06-16T10:31:49.000Z</time>
        <extensions>
          <ns3:TrackPointExtension>
            <ns3:atemp>22.0</ns3:atemp>
          </ns3:TrackPointExtension>
        </extensions>
      </trkpt>
      <trkpt lat="42.6030950434505939483642578125" lon="19.88781072199344635009765625">
        <ele>2185.800048828125</ele>
        <time>2026-06-16T10:31:50.000Z</time>
        <extensions>
          <ns3:TrackPointExtension>
            <ns3:atemp>22.0</ns3:atemp>
          </ns3:TrackPointExtension>
        </extensions>
      </trkpt>
      <trkpt lat="42.6030950434505939483642578125" lon="19.88781072199344635009765625">
        <ele>2185.800048828125</ele>
        <time>2026-06-16T10:31:51.000Z</time>
        <extensions>
          <ns3:TrackPointExtension>
            <ns3:atemp>22.0</ns3:atemp>
          </ns3:TrackPointExtension>
        </extensions>
      </trkpt>
      <trkpt lat="42.6030950434505939483642578125" lon="19.88781072199344635009765625">
        <ele>2185.800048828125</ele>
        <time>2026-06-16T10:31:52.000Z</time>
        <extensions>
          <ns3:TrackPointExtension>
            <ns3:atemp>22.0</ns3:atemp>
          </ns3:TrackPointExtension>
        </extensions>
      </trkpt>
      <trkpt lat="42.6030950434505939483642578125" lon="19.88781072199344635009765625">
        <ele>2185.800048828125</ele>
        <time>2026-06-16T10:31:53.000Z</time>
        <extensions>
          <ns3:TrackPointExtension>
            <ns3:atemp>22.0</ns3:atemp>
          </ns3:TrackPointExtension>
        </extensions>
      </trkpt>
      <trkpt lat="42.6030950434505939483642578125" lon="19.88781072199344635009765625">
        <ele>2185.800048828125</ele>
        <time>2026-06-16T10:31:54.000Z</time>
        <extensions>
          <ns3:TrackPointExtension>
            <ns3:atemp>22.0</ns3:atemp>
          </ns3:TrackPointExtension>
        </extensions>
      </trkpt>
      <trkpt lat="42.6030950434505939483642578125" lon="19.88781072199344635009765625">
        <ele>2185.800048828125</ele>
        <time>2026-06-16T10:31:55.000Z</time>
        <extensions>
          <ns3:TrackPointExtension>
            <ns3:atemp>22.0</ns3:atemp>
          </ns3:TrackPointExtension>
        </extensions>
      </trkpt>
      <trkpt lat="42.6030950434505939483642578125" lon="19.88781072199344635009765625">
        <ele>2185.800048828125</ele>
        <time>2026-06-16T10:31:56.000Z</time>
        <extensions>
          <ns3:TrackPointExtension>
            <ns3:atemp>22.0</ns3:atemp>
          </ns3:TrackPointExtension>
        </extensions>
      </trkpt>
      <trkpt lat="42.6030950434505939483642578125" lon="19.88781072199344635009765625">
        <ele>2185.800048828125</ele>
        <time>2026-06-16T10:31:57.000Z</time>
        <extensions>
          <ns3:TrackPointExtension>
            <ns3:atemp>22.0</ns3:atemp>
          </ns3:TrackPointExtension>
        </extensions>
      </trkpt>
      <trkpt lat="42.6030950434505939483642578125" lon="19.88781072199344635009765625">
        <ele>2185.800048828125</ele>
        <time>2026-06-16T10:31:58.000Z</time>
        <extensions>
          <ns3:TrackPointExtension>
            <ns3:atemp>22.0</ns3:atemp>
          </ns3:TrackPointExtension>
        </extensions>
      </trkpt>
      <trkpt lat="42.6030950434505939483642578125" lon="19.88781072199344635009765625">
        <ele>2185.800048828125</ele>
        <time>2026-06-16T10:31:59.000Z</time>
        <extensions>
          <ns3:TrackPointExtension>
            <ns3:atemp>22.0</ns3:atemp>
          </ns3:TrackPointExtension>
        </extensions>
      </trkpt>
      <trkpt lat="42.6030950434505939483642578125" lon="19.88781072199344635009765625">
        <ele>2185.800048828125</ele>
        <time>2026-06-16T10:32:00.000Z</time>
        <extensions>
          <ns3:TrackPointExtension>
            <ns3:atemp>22.0</ns3:atemp>
          </ns3:TrackPointExtension>
        </extensions>
      </trkpt>
      <trkpt lat="42.6030950434505939483642578125" lon="19.88781072199344635009765625">
        <ele>2185.800048828125</ele>
        <time>2026-06-16T10:32:01.000Z</time>
        <extensions>
          <ns3:TrackPointExtension>
            <ns3:atemp>22.0</ns3:atemp>
          </ns3:TrackPointExtension>
        </extensions>
      </trkpt>
      <trkpt lat="42.6030950434505939483642578125" lon="19.88781072199344635009765625">
        <ele>2185.800048828125</ele>
        <time>2026-06-16T10:32:02.000Z</time>
        <extensions>
          <ns3:TrackPointExtension>
            <ns3:atemp>22.0</ns3:atemp>
          </ns3:TrackPointExtension>
        </extensions>
      </trkpt>
      <trkpt lat="42.6030950434505939483642578125" lon="19.88781072199344635009765625">
        <ele>2185.800048828125</ele>
        <time>2026-06-16T10:32:03.000Z</time>
        <extensions>
          <ns3:TrackPointExtension>
            <ns3:atemp>22.0</ns3:atemp>
          </ns3:TrackPointExtension>
        </extensions>
      </trkpt>
      <trkpt lat="42.6030950434505939483642578125" lon="19.88781072199344635009765625">
        <ele>2185.800048828125</ele>
        <time>2026-06-16T10:32:04.000Z</time>
        <extensions>
          <ns3:TrackPointExtension>
            <ns3:atemp>22.0</ns3:atemp>
          </ns3:TrackPointExtension>
        </extensions>
      </trkpt>
      <trkpt lat="42.6030950434505939483642578125" lon="19.88781072199344635009765625">
        <ele>2185.800048828125</ele>
        <time>2026-06-16T10:32:05.000Z</time>
        <extensions>
          <ns3:TrackPointExtension>
            <ns3:atemp>22.0</ns3:atemp>
          </ns3:TrackPointExtension>
        </extensions>
      </trkpt>
      <trkpt lat="42.6030950434505939483642578125" lon="19.88781072199344635009765625">
        <ele>2185.800048828125</ele>
        <time>2026-06-16T10:32:06.000Z</time>
        <extensions>
          <ns3:TrackPointExtension>
            <ns3:atemp>22.0</ns3:atemp>
          </ns3:TrackPointExtension>
        </extensions>
      </trkpt>
      <trkpt lat="42.6030950434505939483642578125" lon="19.88781072199344635009765625">
        <ele>2185.800048828125</ele>
        <time>2026-06-16T10:32:07.000Z</time>
        <extensions>
          <ns3:TrackPointExtension>
            <ns3:atemp>22.0</ns3:atemp>
          </ns3:TrackPointExtension>
        </extensions>
      </trkpt>
      <trkpt lat="42.6030950434505939483642578125" lon="19.88781072199344635009765625">
        <ele>2185.800048828125</ele>
        <time>2026-06-16T10:32:08.000Z</time>
        <extensions>
          <ns3:TrackPointExtension>
            <ns3:atemp>22.0</ns3:atemp>
          </ns3:TrackPointExtension>
        </extensions>
      </trkpt>
      <trkpt lat="42.6030950434505939483642578125" lon="19.88781072199344635009765625">
        <ele>2185.800048828125</ele>
        <time>2026-06-16T10:32:09.000Z</time>
        <extensions>
          <ns3:TrackPointExtension>
            <ns3:atemp>22.0</ns3:atemp>
          </ns3:TrackPointExtension>
        </extensions>
      </trkpt>
      <trkpt lat="42.6030950434505939483642578125" lon="19.88781072199344635009765625">
        <ele>2185.800048828125</ele>
        <time>2026-06-16T10:32:10.000Z</time>
        <extensions>
          <ns3:TrackPointExtension>
            <ns3:atemp>22.0</ns3:atemp>
          </ns3:TrackPointExtension>
        </extensions>
      </trkpt>
      <trkpt lat="42.6030950434505939483642578125" lon="19.88781072199344635009765625">
        <ele>2185.800048828125</ele>
        <time>2026-06-16T10:32:11.000Z</time>
        <extensions>
          <ns3:TrackPointExtension>
            <ns3:atemp>22.0</ns3:atemp>
          </ns3:TrackPointExtension>
        </extensions>
      </trkpt>
      <trkpt lat="42.6030950434505939483642578125" lon="19.88781072199344635009765625">
        <ele>2185.800048828125</ele>
        <time>2026-06-16T10:32:12.000Z</time>
        <extensions>
          <ns3:TrackPointExtension>
            <ns3:atemp>22.0</ns3:atemp>
          </ns3:TrackPointExtension>
        </extensions>
      </trkpt>
      <trkpt lat="42.6030950434505939483642578125" lon="19.88781072199344635009765625">
        <ele>2185.800048828125</ele>
        <time>2026-06-16T10:32:13.000Z</time>
        <extensions>
          <ns3:TrackPointExtension>
            <ns3:atemp>22.0</ns3:atemp>
          </ns3:TrackPointExtension>
        </extensions>
      </trkpt>
      <trkpt lat="42.6030950434505939483642578125" lon="19.88781072199344635009765625">
        <ele>2185.800048828125</ele>
        <time>2026-06-16T10:32:14.000Z</time>
        <extensions>
          <ns3:TrackPointExtension>
            <ns3:atemp>22.0</ns3:atemp>
          </ns3:TrackPointExtension>
        </extensions>
      </trkpt>
      <trkpt lat="42.6030950434505939483642578125" lon="19.88781072199344635009765625">
        <ele>2185.800048828125</ele>
        <time>2026-06-16T10:32:15.000Z</time>
        <extensions>
          <ns3:TrackPointExtension>
            <ns3:atemp>22.0</ns3:atemp>
          </ns3:TrackPointExtension>
        </extensions>
      </trkpt>
      <trkpt lat="42.6030950434505939483642578125" lon="19.88781072199344635009765625">
        <ele>2185.800048828125</ele>
        <time>2026-06-16T10:32:16.000Z</time>
        <extensions>
          <ns3:TrackPointExtension>
            <ns3:atemp>22.0</ns3:atemp>
          </ns3:TrackPointExtension>
        </extensions>
      </trkpt>
      <trkpt lat="42.6030950434505939483642578125" lon="19.88781072199344635009765625">
        <ele>2185.800048828125</ele>
        <time>2026-06-16T10:32:17.000Z</time>
        <extensions>
          <ns3:TrackPointExtension>
            <ns3:atemp>22.0</ns3:atemp>
          </ns3:TrackPointExtension>
        </extensions>
      </trkpt>
      <trkpt lat="42.6030950434505939483642578125" lon="19.88781072199344635009765625">
        <ele>2185.800048828125</ele>
        <time>2026-06-16T10:32:18.000Z</time>
        <extensions>
          <ns3:TrackPointExtension>
            <ns3:atemp>22.0</ns3:atemp>
          </ns3:TrackPointExtension>
        </extensions>
      </trkpt>
      <trkpt lat="42.6030950434505939483642578125" lon="19.88781072199344635009765625">
        <ele>2185.800048828125</ele>
        <time>2026-06-16T10:32:19.000Z</time>
        <extensions>
          <ns3:TrackPointExtension>
            <ns3:atemp>22.0</ns3:atemp>
          </ns3:TrackPointExtension>
        </extensions>
      </trkpt>
      <trkpt lat="42.6030950434505939483642578125" lon="19.88781072199344635009765625">
        <ele>2185.800048828125</ele>
        <time>2026-06-16T10:32:20.000Z</time>
        <extensions>
          <ns3:TrackPointExtension>
            <ns3:atemp>22.0</ns3:atemp>
          </ns3:TrackPointExtension>
        </extensions>
      </trkpt>
      <trkpt lat="42.6030950434505939483642578125" lon="19.88781072199344635009765625">
        <ele>2185.800048828125</ele>
        <time>2026-06-16T10:32:21.000Z</time>
        <extensions>
          <ns3:TrackPointExtension>
            <ns3:atemp>22.0</ns3:atemp>
          </ns3:TrackPointExtension>
        </extensions>
      </trkpt>
      <trkpt lat="42.6030950434505939483642578125" lon="19.88781072199344635009765625">
        <ele>2185.800048828125</ele>
        <time>2026-06-16T10:32:22.000Z</time>
        <extensions>
          <ns3:TrackPointExtension>
            <ns3:atemp>22.0</ns3:atemp>
          </ns3:TrackPointExtension>
        </extensions>
      </trkpt>
      <trkpt lat="42.6030950434505939483642578125" lon="19.88781072199344635009765625">
        <ele>2185.800048828125</ele>
        <time>2026-06-16T10:32:23.000Z</time>
        <extensions>
          <ns3:TrackPointExtension>
            <ns3:atemp>22.0</ns3:atemp>
          </ns3:TrackPointExtension>
        </extensions>
      </trkpt>
      <trkpt lat="42.6030950434505939483642578125" lon="19.88781072199344635009765625">
        <ele>2185.800048828125</ele>
        <time>2026-06-16T10:32:24.000Z</time>
        <extensions>
          <ns3:TrackPointExtension>
            <ns3:atemp>22.0</ns3:atemp>
          </ns3:TrackPointExtension>
        </extensions>
      </trkpt>
      <trkpt lat="42.6030950434505939483642578125" lon="19.88781072199344635009765625">
        <ele>2185.800048828125</ele>
        <time>2026-06-16T10:32:25.000Z</time>
        <extensions>
          <ns3:TrackPointExtension>
            <ns3:atemp>22.0</ns3:atemp>
          </ns3:TrackPointExtension>
        </extensions>
      </trkpt>
      <trkpt lat="42.6030950434505939483642578125" lon="19.88781072199344635009765625">
        <ele>2185.800048828125</ele>
        <time>2026-06-16T10:32:26.000Z</time>
        <extensions>
          <ns3:TrackPointExtension>
            <ns3:atemp>22.0</ns3:atemp>
          </ns3:TrackPointExtension>
        </extensions>
      </trkpt>
      <trkpt lat="42.6030950434505939483642578125" lon="19.88781072199344635009765625">
        <ele>2185.800048828125</ele>
        <time>2026-06-16T10:32:27.000Z</time>
        <extensions>
          <ns3:TrackPointExtension>
            <ns3:atemp>22.0</ns3:atemp>
          </ns3:TrackPointExtension>
        </extensions>
      </trkpt>
      <trkpt lat="42.6030950434505939483642578125" lon="19.88781072199344635009765625">
        <ele>2185.800048828125</ele>
        <time>2026-06-16T10:32:28.000Z</time>
        <extensions>
          <ns3:TrackPointExtension>
            <ns3:atemp>22.0</ns3:atemp>
          </ns3:TrackPointExtension>
        </extensions>
      </trkpt>
      <trkpt lat="42.6030950434505939483642578125" lon="19.88781072199344635009765625">
        <ele>2185.800048828125</ele>
        <time>2026-06-16T10:32:29.000Z</time>
        <extensions>
          <ns3:TrackPointExtension>
            <ns3:atemp>22.0</ns3:atemp>
          </ns3:TrackPointExtension>
        </extensions>
      </trkpt>
      <trkpt lat="42.6030950434505939483642578125" lon="19.88781072199344635009765625">
        <ele>2185.800048828125</ele>
        <time>2026-06-16T10:32:30.000Z</time>
        <extensions>
          <ns3:TrackPointExtension>
            <ns3:atemp>22.0</ns3:atemp>
          </ns3:TrackPointExtension>
        </extensions>
      </trkpt>
      <trkpt lat="42.6030950434505939483642578125" lon="19.88781072199344635009765625">
        <ele>2185.800048828125</ele>
        <time>2026-06-16T10:32:31.000Z</time>
        <extensions>
          <ns3:TrackPointExtension>
            <ns3:atemp>22.0</ns3:atemp>
          </ns3:TrackPointExtension>
        </extensions>
      </trkpt>
      <trkpt lat="42.6030950434505939483642578125" lon="19.88781072199344635009765625">
        <ele>2185.800048828125</ele>
        <time>2026-06-16T10:32:32.000Z</time>
        <extensions>
          <ns3:TrackPointExtension>
            <ns3:atemp>22.0</ns3:atemp>
          </ns3:TrackPointExtension>
        </extensions>
      </trkpt>
      <trkpt lat="42.6030950434505939483642578125" lon="19.88781072199344635009765625">
        <ele>2185.800048828125</ele>
        <time>2026-06-16T10:32:33.000Z</time>
        <extensions>
          <ns3:TrackPointExtension>
            <ns3:atemp>22.0</ns3:atemp>
          </ns3:TrackPointExtension>
        </extensions>
      </trkpt>
      <trkpt lat="42.6030950434505939483642578125" lon="19.88781072199344635009765625">
        <ele>2185.800048828125</ele>
        <time>2026-06-16T10:32:34.000Z</time>
        <extensions>
          <ns3:TrackPointExtension>
            <ns3:atemp>22.0</ns3:atemp>
          </ns3:TrackPointExtension>
        </extensions>
      </trkpt>
      <trkpt lat="42.6030950434505939483642578125" lon="19.88781072199344635009765625">
        <ele>2185.800048828125</ele>
        <time>2026-06-16T10:32:35.000Z</time>
        <extensions>
          <ns3:TrackPointExtension>
            <ns3:atemp>22.0</ns3:atemp>
          </ns3:TrackPointExtension>
        </extensions>
      </trkpt>
      <trkpt lat="42.6030950434505939483642578125" lon="19.88781072199344635009765625">
        <ele>2185.800048828125</ele>
        <time>2026-06-16T10:32:36.000Z</time>
        <extensions>
          <ns3:TrackPointExtension>
            <ns3:atemp>22.0</ns3:atemp>
          </ns3:TrackPointExtension>
        </extensions>
      </trkpt>
      <trkpt lat="42.6030950434505939483642578125" lon="19.88781072199344635009765625">
        <ele>2185.800048828125</ele>
        <time>2026-06-16T10:32:37.000Z</time>
        <extensions>
          <ns3:TrackPointExtension>
            <ns3:atemp>22.0</ns3:atemp>
          </ns3:TrackPointExtension>
        </extensions>
      </trkpt>
      <trkpt lat="42.6030950434505939483642578125" lon="19.88781072199344635009765625">
        <ele>2185.800048828125</ele>
        <time>2026-06-16T10:32:38.000Z</time>
        <extensions>
          <ns3:TrackPointExtension>
            <ns3:atemp>22.0</ns3:atemp>
          </ns3:TrackPointExtension>
        </extensions>
      </trkpt>
      <trkpt lat="42.6030950434505939483642578125" lon="19.88781072199344635009765625">
        <ele>2185.800048828125</ele>
        <time>2026-06-16T10:32:39.000Z</time>
        <extensions>
          <ns3:TrackPointExtension>
            <ns3:atemp>22.0</ns3:atemp>
          </ns3:TrackPointExtension>
        </extensions>
      </trkpt>
      <trkpt lat="42.6030950434505939483642578125" lon="19.88781072199344635009765625">
        <ele>2185.800048828125</ele>
        <time>2026-06-16T10:32:40.000Z</time>
        <extensions>
          <ns3:TrackPointExtension>
            <ns3:atemp>22.0</ns3:atemp>
          </ns3:TrackPointExtension>
        </extensions>
      </trkpt>
      <trkpt lat="42.6030950434505939483642578125" lon="19.88781072199344635009765625">
        <ele>2185.800048828125</ele>
        <time>2026-06-16T10:32:41.000Z</time>
        <extensions>
          <ns3:TrackPointExtension>
            <ns3:atemp>22.0</ns3:atemp>
          </ns3:TrackPointExtension>
        </extensions>
      </trkpt>
      <trkpt lat="42.6030950434505939483642578125" lon="19.88781072199344635009765625">
        <ele>2185.800048828125</ele>
        <time>2026-06-16T10:32:42.000Z</time>
        <extensions>
          <ns3:TrackPointExtension>
            <ns3:atemp>22.0</ns3:atemp>
          </ns3:TrackPointExtension>
        </extensions>
      </trkpt>
      <trkpt lat="42.6030950434505939483642578125" lon="19.88781072199344635009765625">
        <ele>2185.800048828125</ele>
        <time>2026-06-16T10:32:43.000Z</time>
        <extensions>
          <ns3:TrackPointExtension>
            <ns3:atemp>22.0</ns3:atemp>
          </ns3:TrackPointExtension>
        </extensions>
      </trkpt>
      <trkpt lat="42.6030950434505939483642578125" lon="19.88781072199344635009765625">
        <ele>2185.800048828125</ele>
        <time>2026-06-16T10:32:44.000Z</time>
        <extensions>
          <ns3:TrackPointExtension>
            <ns3:atemp>22.0</ns3:atemp>
          </ns3:TrackPointExtension>
        </extensions>
      </trkpt>
      <trkpt lat="42.6030950434505939483642578125" lon="19.88781072199344635009765625">
        <ele>2185.800048828125</ele>
        <time>2026-06-16T10:32:45.000Z</time>
        <extensions>
          <ns3:TrackPointExtension>
            <ns3:atemp>22.0</ns3:atemp>
          </ns3:TrackPointExtension>
        </extensions>
      </trkpt>
      <trkpt lat="42.6030950434505939483642578125" lon="19.88781072199344635009765625">
        <ele>2185.800048828125</ele>
        <time>2026-06-16T10:32:46.000Z</time>
        <extensions>
          <ns3:TrackPointExtension>
            <ns3:atemp>22.0</ns3:atemp>
          </ns3:TrackPointExtension>
        </extensions>
      </trkpt>
      <trkpt lat="42.6030950434505939483642578125" lon="19.88781072199344635009765625">
        <ele>2185.800048828125</ele>
        <time>2026-06-16T10:32:47.000Z</time>
        <extensions>
          <ns3:TrackPointExtension>
            <ns3:atemp>22.0</ns3:atemp>
          </ns3:TrackPointExtension>
        </extensions>
      </trkpt>
      <trkpt lat="42.6030950434505939483642578125" lon="19.88781072199344635009765625">
        <ele>2185.800048828125</ele>
        <time>2026-06-16T10:32:48.000Z</time>
        <extensions>
          <ns3:TrackPointExtension>
            <ns3:atemp>22.0</ns3:atemp>
          </ns3:TrackPointExtension>
        </extensions>
      </trkpt>
      <trkpt lat="42.6030950434505939483642578125" lon="19.88781072199344635009765625">
        <ele>2185.800048828125</ele>
        <time>2026-06-16T10:32:49.000Z</time>
        <extensions>
          <ns3:TrackPointExtension>
            <ns3:atemp>22.0</ns3:atemp>
          </ns3:TrackPointExtension>
        </extensions>
      </trkpt>
      <trkpt lat="42.6030950434505939483642578125" lon="19.88781072199344635009765625">
        <ele>2185.800048828125</ele>
        <time>2026-06-16T10:32:50.000Z</time>
        <extensions>
          <ns3:TrackPointExtension>
            <ns3:atemp>22.0</ns3:atemp>
          </ns3:TrackPointExtension>
        </extensions>
      </trkpt>
      <trkpt lat="42.6030950434505939483642578125" lon="19.88781072199344635009765625">
        <ele>2185.800048828125</ele>
        <time>2026-06-16T10:32:51.000Z</time>
        <extensions>
          <ns3:TrackPointExtension>
            <ns3:atemp>22.0</ns3:atemp>
          </ns3:TrackPointExtension>
        </extensions>
      </trkpt>
      <trkpt lat="42.6030950434505939483642578125" lon="19.88781072199344635009765625">
        <ele>2185.800048828125</ele>
        <time>2026-06-16T10:32:52.000Z</time>
        <extensions>
          <ns3:TrackPointExtension>
            <ns3:atemp>22.0</ns3:atemp>
          </ns3:TrackPointExtension>
        </extensions>
      </trkpt>
      <trkpt lat="42.6030950434505939483642578125" lon="19.88781072199344635009765625">
        <ele>2185.800048828125</ele>
        <time>2026-06-16T10:32:53.000Z</time>
        <extensions>
          <ns3:TrackPointExtension>
            <ns3:atemp>22.0</ns3:atemp>
          </ns3:TrackPointExtension>
        </extensions>
      </trkpt>
      <trkpt lat="42.6030950434505939483642578125" lon="19.88781072199344635009765625">
        <ele>2185.800048828125</ele>
        <time>2026-06-16T10:32:54.000Z</time>
        <extensions>
          <ns3:TrackPointExtension>
            <ns3:atemp>22.0</ns3:atemp>
          </ns3:TrackPointExtension>
        </extensions>
      </trkpt>
      <trkpt lat="42.6030950434505939483642578125" lon="19.88781072199344635009765625">
        <ele>2185.800048828125</ele>
        <time>2026-06-16T10:32:55.000Z</time>
        <extensions>
          <ns3:TrackPointExtension>
            <ns3:atemp>22.0</ns3:atemp>
          </ns3:TrackPointExtension>
        </extensions>
      </trkpt>
      <trkpt lat="42.6030950434505939483642578125" lon="19.88781072199344635009765625">
        <ele>2185.800048828125</ele>
        <time>2026-06-16T10:32:56.000Z</time>
        <extensions>
          <ns3:TrackPointExtension>
            <ns3:atemp>22.0</ns3:atemp>
          </ns3:TrackPointExtension>
        </extensions>
      </trkpt>
      <trkpt lat="42.6030950434505939483642578125" lon="19.88781072199344635009765625">
        <ele>2185.800048828125</ele>
        <time>2026-06-16T10:32:57.000Z</time>
        <extensions>
          <ns3:TrackPointExtension>
            <ns3:atemp>22.0</ns3:atemp>
          </ns3:TrackPointExtension>
        </extensions>
      </trkpt>
      <trkpt lat="42.6030950434505939483642578125" lon="19.88781072199344635009765625">
        <ele>2185.800048828125</ele>
        <time>2026-06-16T10:32:58.000Z</time>
        <extensions>
          <ns3:TrackPointExtension>
            <ns3:atemp>22.0</ns3:atemp>
          </ns3:TrackPointExtension>
        </extensions>
      </trkpt>
      <trkpt lat="42.6030950434505939483642578125" lon="19.88781072199344635009765625">
        <ele>2185.800048828125</ele>
        <time>2026-06-16T10:32:59.000Z</time>
        <extensions>
          <ns3:TrackPointExtension>
            <ns3:atemp>22.0</ns3:atemp>
          </ns3:TrackPointExtension>
        </extensions>
      </trkpt>
      <trkpt lat="42.6030950434505939483642578125" lon="19.88781072199344635009765625">
        <ele>2185.800048828125</ele>
        <time>2026-06-16T10:33:00.000Z</time>
        <extensions>
          <ns3:TrackPointExtension>
            <ns3:atemp>22.0</ns3:atemp>
          </ns3:TrackPointExtension>
        </extensions>
      </trkpt>
      <trkpt lat="42.6030950434505939483642578125" lon="19.88781072199344635009765625">
        <ele>2185.800048828125</ele>
        <time>2026-06-16T10:33:01.000Z</time>
        <extensions>
          <ns3:TrackPointExtension>
            <ns3:atemp>22.0</ns3:atemp>
          </ns3:TrackPointExtension>
        </extensions>
      </trkpt>
      <trkpt lat="42.6030950434505939483642578125" lon="19.88781072199344635009765625">
        <ele>2185.800048828125</ele>
        <time>2026-06-16T10:33:02.000Z</time>
        <extensions>
          <ns3:TrackPointExtension>
            <ns3:atemp>22.0</ns3:atemp>
          </ns3:TrackPointExtension>
        </extensions>
      </trkpt>
      <trkpt lat="42.6030950434505939483642578125" lon="19.88781072199344635009765625">
        <ele>2185.800048828125</ele>
        <time>2026-06-16T10:33:03.000Z</time>
        <extensions>
          <ns3:TrackPointExtension>
            <ns3:atemp>22.0</ns3:atemp>
          </ns3:TrackPointExtension>
        </extensions>
      </trkpt>
      <trkpt lat="42.6030950434505939483642578125" lon="19.88781072199344635009765625">
        <ele>2185.800048828125</ele>
        <time>2026-06-16T10:33:04.000Z</time>
        <extensions>
          <ns3:TrackPointExtension>
            <ns3:atemp>22.0</ns3:atemp>
          </ns3:TrackPointExtension>
        </extensions>
      </trkpt>
      <trkpt lat="42.6030950434505939483642578125" lon="19.88781072199344635009765625">
        <ele>2185.800048828125</ele>
        <time>2026-06-16T10:33:05.000Z</time>
        <extensions>
          <ns3:TrackPointExtension>
            <ns3:atemp>22.0</ns3:atemp>
          </ns3:TrackPointExtension>
        </extensions>
      </trkpt>
      <trkpt lat="42.6030950434505939483642578125" lon="19.88781072199344635009765625">
        <ele>2185.800048828125</ele>
        <time>2026-06-16T10:33:06.000Z</time>
        <extensions>
          <ns3:TrackPointExtension>
            <ns3:atemp>22.0</ns3:atemp>
          </ns3:TrackPointExtension>
        </extensions>
      </trkpt>
      <trkpt lat="42.6030950434505939483642578125" lon="19.88781072199344635009765625">
        <ele>2185.800048828125</ele>
        <time>2026-06-16T10:33:07.000Z</time>
        <extensions>
          <ns3:TrackPointExtension>
            <ns3:atemp>22.0</ns3:atemp>
          </ns3:TrackPointExtension>
        </extensions>
      </trkpt>
      <trkpt lat="42.6030950434505939483642578125" lon="19.88781072199344635009765625">
        <ele>2185.800048828125</ele>
        <time>2026-06-16T10:33:08.000Z</time>
        <extensions>
          <ns3:TrackPointExtension>
            <ns3:atemp>22.0</ns3:atemp>
          </ns3:TrackPointExtension>
        </extensions>
      </trkpt>
      <trkpt lat="42.6030950434505939483642578125" lon="19.88781072199344635009765625">
        <ele>2185.800048828125</ele>
        <time>2026-06-16T10:33:09.000Z</time>
        <extensions>
          <ns3:TrackPointExtension>
            <ns3:atemp>22.0</ns3:atemp>
          </ns3:TrackPointExtension>
        </extensions>
      </trkpt>
      <trkpt lat="42.60309395380318164825439453125" lon="19.887811727821826934814453125">
        <ele>2185.800048828125</ele>
        <time>2026-06-16T10:33:10.000Z</time>
        <extensions>
          <ns3:TrackPointExtension>
            <ns3:atemp>22.0</ns3:atemp>
          </ns3:TrackPointExtension>
        </extensions>
      </trkpt>
      <trkpt lat="42.6030950434505939483642578125" lon="19.88781072199344635009765625">
        <ele>2185.800048828125</ele>
        <time>2026-06-16T10:33:11.000Z</time>
        <extensions>
          <ns3:TrackPointExtension>
            <ns3:atemp>22.0</ns3:atemp>
          </ns3:TrackPointExtension>
        </extensions>
      </trkpt>
      <trkpt lat="42.6030950434505939483642578125" lon="19.88781072199344635009765625">
        <ele>2185.800048828125</ele>
        <time>2026-06-16T10:33:12.000Z</time>
        <extensions>
          <ns3:TrackPointExtension>
            <ns3:atemp>22.0</ns3:atemp>
          </ns3:TrackPointExtension>
        </extensions>
      </trkpt>
      <trkpt lat="42.6030950434505939483642578125" lon="19.88781072199344635009765625">
        <ele>2185.800048828125</ele>
        <time>2026-06-16T10:33:13.000Z</time>
        <extensions>
          <ns3:TrackPointExtension>
            <ns3:atemp>22.0</ns3:atemp>
          </ns3:TrackPointExtension>
        </extensions>
      </trkpt>
      <trkpt lat="42.6030950434505939483642578125" lon="19.88781072199344635009765625">
        <ele>2185.800048828125</ele>
        <time>2026-06-16T10:33:14.000Z</time>
        <extensions>
          <ns3:TrackPointExtension>
            <ns3:atemp>22.0</ns3:atemp>
          </ns3:TrackPointExtension>
        </extensions>
      </trkpt>
      <trkpt lat="42.6030950434505939483642578125" lon="19.88781072199344635009765625">
        <ele>2185.800048828125</ele>
        <time>2026-06-16T10:33:15.000Z</time>
        <extensions>
          <ns3:TrackPointExtension>
            <ns3:atemp>22.0</ns3:atemp>
          </ns3:TrackPointExtension>
        </extensions>
      </trkpt>
      <trkpt lat="42.6030950434505939483642578125" lon="19.88781072199344635009765625">
        <ele>2185.800048828125</ele>
        <time>2026-06-16T10:33:16.000Z</time>
        <extensions>
          <ns3:TrackPointExtension>
            <ns3:atemp>22.0</ns3:atemp>
          </ns3:TrackPointExtension>
        </extensions>
      </trkpt>
      <trkpt lat="42.6030950434505939483642578125" lon="19.88781072199344635009765625">
        <ele>2185.800048828125</ele>
        <time>2026-06-16T10:33:17.000Z</time>
        <extensions>
          <ns3:TrackPointExtension>
            <ns3:atemp>22.0</ns3:atemp>
          </ns3:TrackPointExtension>
        </extensions>
      </trkpt>
      <trkpt lat="42.6030950434505939483642578125" lon="19.88781072199344635009765625">
        <ele>2185.800048828125</ele>
        <time>2026-06-16T10:33:18.000Z</time>
        <extensions>
          <ns3:TrackPointExtension>
            <ns3:atemp>22.0</ns3:atemp>
          </ns3:TrackPointExtension>
        </extensions>
      </trkpt>
      <trkpt lat="42.6030950434505939483642578125" lon="19.88781072199344635009765625">
        <ele>2185.800048828125</ele>
        <time>2026-06-16T10:33:19.000Z</time>
        <extensions>
          <ns3:TrackPointExtension>
            <ns3:atemp>22.0</ns3:atemp>
          </ns3:TrackPointExtension>
        </extensions>
      </trkpt>
      <trkpt lat="42.603088505566120147705078125" lon="19.8878253065049648284912109375">
        <ele>2185.800048828125</ele>
        <time>2026-06-16T10:33:20.000Z</time>
        <extensions>
          <ns3:TrackPointExtension>
            <ns3:atemp>22.0</ns3:atemp>
          </ns3:TrackPointExtension>
        </extensions>
      </trkpt>
      <trkpt lat="42.60308925993740558624267578125" lon="19.88782086409628391265869140625">
        <ele>2185.800048828125</ele>
        <time>2026-06-16T10:33:21.000Z</time>
        <extensions>
          <ns3:TrackPointExtension>
            <ns3:atemp>22.0</ns3:atemp>
          </ns3:TrackPointExtension>
        </extensions>
      </trkpt>
      <trkpt lat="42.60309177450835704803466796875" lon="19.8878199420869350433349609375">
        <ele>2185.800048828125</ele>
        <time>2026-06-16T10:33:22.000Z</time>
        <extensions>
          <ns3:TrackPointExtension>
            <ns3:atemp>22.0</ns3:atemp>
          </ns3:TrackPointExtension>
        </extensions>
      </trkpt>
      <trkpt lat="42.6030950434505939483642578125" lon="19.88781072199344635009765625">
        <ele>2185.800048828125</ele>
        <time>2026-06-16T10:33:23.000Z</time>
        <extensions>
          <ns3:TrackPointExtension>
            <ns3:atemp>23.0</ns3:atemp>
          </ns3:TrackPointExtension>
        </extensions>
      </trkpt>
      <trkpt lat="42.6030950434505939483642578125" lon="19.88781072199344635009765625">
        <ele>2185.800048828125</ele>
        <time>2026-06-16T10:33:24.000Z</time>
        <extensions>
          <ns3:TrackPointExtension>
            <ns3:atemp>23.0</ns3:atemp>
          </ns3:TrackPointExtension>
        </extensions>
      </trkpt>
      <trkpt lat="42.60309713892638683319091796875" lon="19.88781868480145931243896484375">
        <ele>2185.800048828125</ele>
        <time>2026-06-16T10:33:25.000Z</time>
        <extensions>
          <ns3:TrackPointExtension>
            <ns3:atemp>23.0</ns3:atemp>
          </ns3:TrackPointExtension>
        </extensions>
      </trkpt>
      <trkpt lat="42.60310786776244640350341796875" lon="19.88781784661114215850830078125">
        <ele>2185.800048828125</ele>
        <time>2026-06-16T10:33:26.000Z</time>
        <extensions>
          <ns3:TrackPointExtension>
            <ns3:atemp>23.0</ns3:atemp>
          </ns3:TrackPointExtension>
        </extensions>
      </trkpt>
      <trkpt lat="42.60310803540050983428955078125" lon="19.887817762792110443115234375">
        <ele>2185.800048828125</ele>
        <time>2026-06-16T10:33:27.000Z</time>
        <extensions>
          <ns3:TrackPointExtension>
            <ns3:atemp>23.0</ns3:atemp>
          </ns3:TrackPointExtension>
        </extensions>
      </trkpt>
      <trkpt lat="42.60310803540050983428955078125" lon="19.887817762792110443115234375">
        <ele>2185.800048828125</ele>
        <time>2026-06-16T10:33:28.000Z</time>
        <extensions>
          <ns3:TrackPointExtension>
            <ns3:atemp>23.0</ns3:atemp>
          </ns3:TrackPointExtension>
        </extensions>
      </trkpt>
      <trkpt lat="42.60310803540050983428955078125" lon="19.887817762792110443115234375">
        <ele>2185.800048828125</ele>
        <time>2026-06-16T10:33:29.000Z</time>
        <extensions>
          <ns3:TrackPointExtension>
            <ns3:atemp>23.0</ns3:atemp>
          </ns3:TrackPointExtension>
        </extensions>
      </trkpt>
      <trkpt lat="42.60310803540050983428955078125" lon="19.887817762792110443115234375">
        <ele>2185.800048828125</ele>
        <time>2026-06-16T10:33:30.000Z</time>
        <extensions>
          <ns3:TrackPointExtension>
            <ns3:atemp>23.0</ns3:atemp>
          </ns3:TrackPointExtension>
        </extensions>
      </trkpt>
      <trkpt lat="42.60310803540050983428955078125" lon="19.887817762792110443115234375">
        <ele>2185.800048828125</ele>
        <time>2026-06-16T10:33:31.000Z</time>
        <extensions>
          <ns3:TrackPointExtension>
            <ns3:atemp>23.0</ns3:atemp>
          </ns3:TrackPointExtension>
        </extensions>
      </trkpt>
      <trkpt lat="42.60310895740985870361328125" lon="19.8878172598779201507568359375">
        <ele>2185.800048828125</ele>
        <time>2026-06-16T10:33:32.000Z</time>
        <extensions>
          <ns3:TrackPointExtension>
            <ns3:atemp>23.0</ns3:atemp>
          </ns3:TrackPointExtension>
        </extensions>
      </trkpt>
      <trkpt lat="42.60310803540050983428955078125" lon="19.887817762792110443115234375">
        <ele>2188</ele>
        <time>2026-06-16T10:33:33.000Z</time>
        <extensions>
          <ns3:TrackPointExtension>
            <ns3:atemp>23.0</ns3:atemp>
          </ns3:TrackPointExtension>
        </extensions>
      </trkpt>
      <trkpt lat="42.60310803540050983428955078125" lon="19.887817762792110443115234375">
        <ele>2188.199951171875</ele>
        <time>2026-06-16T10:33:34.000Z</time>
        <extensions>
          <ns3:TrackPointExtension>
            <ns3:atemp>23.0</ns3:atemp>
          </ns3:TrackPointExtension>
        </extensions>
      </trkpt>
      <trkpt lat="42.60310803540050983428955078125" lon="19.887817762792110443115234375">
        <ele>2188.199951171875</ele>
        <time>2026-06-16T10:33:35.000Z</time>
        <extensions>
          <ns3:TrackPointExtension>
            <ns3:atemp>23.0</ns3:atemp>
          </ns3:TrackPointExtension>
        </extensions>
      </trkpt>
      <trkpt lat="42.60310803540050983428955078125" lon="19.887817762792110443115234375">
        <ele>2188.199951171875</ele>
        <time>2026-06-16T10:33:36.000Z</time>
        <extensions>
          <ns3:TrackPointExtension>
            <ns3:atemp>23.0</ns3:atemp>
          </ns3:TrackPointExtension>
        </extensions>
      </trkpt>
      <trkpt lat="42.60310803540050983428955078125" lon="19.887817762792110443115234375">
        <ele>2188.199951171875</ele>
        <time>2026-06-16T10:33:37.000Z</time>
        <extensions>
          <ns3:TrackPointExtension>
            <ns3:atemp>23.0</ns3:atemp>
          </ns3:TrackPointExtension>
        </extensions>
      </trkpt>
      <trkpt lat="42.60310803540050983428955078125" lon="19.887817762792110443115234375">
        <ele>2188.199951171875</ele>
        <time>2026-06-16T10:33:38.000Z</time>
        <extensions>
          <ns3:TrackPointExtension>
            <ns3:atemp>23.0</ns3:atemp>
          </ns3:TrackPointExtension>
        </extensions>
      </trkpt>
      <trkpt lat="42.60310803540050983428955078125" lon="19.887817762792110443115234375">
        <ele>2188.199951171875</ele>
        <time>2026-06-16T10:33:39.000Z</time>
        <extensions>
          <ns3:TrackPointExtension>
            <ns3:atemp>23.0</ns3:atemp>
          </ns3:TrackPointExtension>
        </extensions>
      </trkpt>
      <trkpt lat="42.60310803540050983428955078125" lon="19.887817762792110443115234375">
        <ele>2188.199951171875</ele>
        <time>2026-06-16T10:33:40.000Z</time>
        <extensions>
          <ns3:TrackPointExtension>
            <ns3:atemp>23.0</ns3:atemp>
          </ns3:TrackPointExtension>
        </extensions>
      </trkpt>
      <trkpt lat="42.60310803540050983428955078125" lon="19.887817762792110443115234375">
        <ele>2188.199951171875</ele>
        <time>2026-06-16T10:33:41.000Z</time>
        <extensions>
          <ns3:TrackPointExtension>
            <ns3:atemp>23.0</ns3:atemp>
          </ns3:TrackPointExtension>
        </extensions>
      </trkpt>
      <trkpt lat="42.60310803540050983428955078125" lon="19.887817762792110443115234375">
        <ele>2188.199951171875</ele>
        <time>2026-06-16T10:33:42.000Z</time>
        <extensions>
          <ns3:TrackPointExtension>
            <ns3:atemp>23.0</ns3:atemp>
          </ns3:TrackPointExtension>
        </extensions>
      </trkpt>
      <trkpt lat="42.60311692021787166595458984375" lon="19.8878145776689052581787109375">
        <ele>2188.199951171875</ele>
        <time>2026-06-16T10:33:43.000Z</time>
        <extensions>
          <ns3:TrackPointExtension>
            <ns3:atemp>23.0</ns3:atemp>
          </ns3:TrackPointExtension>
        </extensions>
      </trkpt>
      <trkpt lat="42.6031242124736309051513671875" lon="19.887816421687602996826171875">
        <ele>2188.199951171875</ele>
        <time>2026-06-16T10:33:44.000Z</time>
        <extensions>
          <ns3:TrackPointExtension>
            <ns3:atemp>23.0</ns3:atemp>
          </ns3:TrackPointExtension>
        </extensions>
      </trkpt>
      <trkpt lat="42.6031248830258846282958984375" lon="19.88782237283885478973388671875">
        <ele>2188.199951171875</ele>
        <time>2026-06-16T10:33:45.000Z</time>
        <extensions>
          <ns3:TrackPointExtension>
            <ns3:atemp>23.0</ns3:atemp>
          </ns3:TrackPointExtension>
        </extensions>
      </trkpt>
      <trkpt lat="42.6031248830258846282958984375" lon="19.88782237283885478973388671875">
        <ele>2188.199951171875</ele>
        <time>2026-06-16T10:33:46.000Z</time>
        <extensions>
          <ns3:TrackPointExtension>
            <ns3:atemp>23.0</ns3:atemp>
          </ns3:TrackPointExtension>
        </extensions>
      </trkpt>
      <trkpt lat="42.6031248830258846282958984375" lon="19.88782237283885478973388671875">
        <ele>2188.199951171875</ele>
        <time>2026-06-16T10:33:47.000Z</time>
        <extensions>
          <ns3:TrackPointExtension>
            <ns3:atemp>23.0</ns3:atemp>
          </ns3:TrackPointExtension>
        </extensions>
      </trkpt>
      <trkpt lat="42.6031248830258846282958984375" lon="19.88782237283885478973388671875">
        <ele>2188.199951171875</ele>
        <time>2026-06-16T10:33:48.000Z</time>
        <extensions>
          <ns3:TrackPointExtension>
            <ns3:atemp>23.0</ns3:atemp>
          </ns3:TrackPointExtension>
        </extensions>
      </trkpt>
      <trkpt lat="42.6031248830258846282958984375" lon="19.88782237283885478973388671875">
        <ele>2188.39990234375</ele>
        <time>2026-06-16T10:33:49.000Z</time>
        <extensions>
          <ns3:TrackPointExtension>
            <ns3:atemp>23.0</ns3:atemp>
          </ns3:TrackPointExtension>
        </extensions>
      </trkpt>
      <trkpt lat="42.6031248830258846282958984375" lon="19.88782237283885478973388671875">
        <ele>2188.39990234375</ele>
        <time>2026-06-16T10:33:50.000Z</time>
        <extensions>
          <ns3:TrackPointExtension>
            <ns3:atemp>23.0</ns3:atemp>
          </ns3:TrackPointExtension>
        </extensions>
      </trkpt>
      <trkpt lat="42.6031248830258846282958984375" lon="19.88782237283885478973388671875">
        <ele>2188.39990234375</ele>
        <time>2026-06-16T10:33:51.000Z</time>
        <extensions>
          <ns3:TrackPointExtension>
            <ns3:atemp>23.0</ns3:atemp>
          </ns3:TrackPointExtension>
        </extensions>
      </trkpt>
      <trkpt lat="42.6031248830258846282958984375" lon="19.88782237283885478973388671875">
        <ele>2188.39990234375</ele>
        <time>2026-06-16T10:33:52.000Z</time>
        <extensions>
          <ns3:TrackPointExtension>
            <ns3:atemp>23.0</ns3:atemp>
          </ns3:TrackPointExtension>
        </extensions>
      </trkpt>
      <trkpt lat="42.6031248830258846282958984375" lon="19.88782237283885478973388671875">
        <ele>2188.60009765625</ele>
        <time>2026-06-16T10:33:53.000Z</time>
        <extensions>
          <ns3:TrackPointExtension>
            <ns3:atemp>23.0</ns3:atemp>
          </ns3:TrackPointExtension>
        </extensions>
      </trkpt>
      <trkpt lat="42.6031248830258846282958984375" lon="19.88782237283885478973388671875">
        <ele>2188.60009765625</ele>
        <time>2026-06-16T10:33:54.000Z</time>
        <extensions>
          <ns3:TrackPointExtension>
            <ns3:atemp>23.0</ns3:atemp>
          </ns3:TrackPointExtension>
        </extensions>
      </trkpt>
      <trkpt lat="42.6031248830258846282958984375" lon="19.88782237283885478973388671875">
        <ele>2188.60009765625</ele>
        <time>2026-06-16T10:33:55.000Z</time>
        <extensions>
          <ns3:TrackPointExtension>
            <ns3:atemp>23.0</ns3:atemp>
          </ns3:TrackPointExtension>
        </extensions>
      </trkpt>
      <trkpt lat="42.6031248830258846282958984375" lon="19.88782237283885478973388671875">
        <ele>2188.800048828125</ele>
        <time>2026-06-16T10:33:56.000Z</time>
        <extensions>
          <ns3:TrackPointExtension>
            <ns3:atemp>23.0</ns3:atemp>
          </ns3:TrackPointExtension>
        </extensions>
      </trkpt>
      <trkpt lat="42.6031248830258846282958984375" lon="19.88782237283885478973388671875">
        <ele>2188.800048828125</ele>
        <time>2026-06-16T10:33:57.000Z</time>
        <extensions>
          <ns3:TrackPointExtension>
            <ns3:atemp>23.0</ns3:atemp>
          </ns3:TrackPointExtension>
        </extensions>
      </trkpt>
      <trkpt lat="42.6031248830258846282958984375" lon="19.88782237283885478973388671875">
        <ele>2188.800048828125</ele>
        <time>2026-06-16T10:33:58.000Z</time>
        <extensions>
          <ns3:TrackPointExtension>
            <ns3:atemp>23.0</ns3:atemp>
          </ns3:TrackPointExtension>
        </extensions>
      </trkpt>
      <trkpt lat="42.6031248830258846282958984375" lon="19.88782237283885478973388671875">
        <ele>2188.800048828125</ele>
        <time>2026-06-16T10:33:59.000Z</time>
        <extensions>
          <ns3:TrackPointExtension>
            <ns3:atemp>23.0</ns3:atemp>
          </ns3:TrackPointExtension>
        </extensions>
      </trkpt>
      <trkpt lat="42.6031248830258846282958984375" lon="19.88782237283885478973388671875">
        <ele>2188.800048828125</ele>
        <time>2026-06-16T10:34:00.000Z</time>
        <extensions>
          <ns3:TrackPointExtension>
            <ns3:atemp>23.0</ns3:atemp>
          </ns3:TrackPointExtension>
        </extensions>
      </trkpt>
      <trkpt lat="42.6031248830258846282958984375" lon="19.88782237283885478973388671875">
        <ele>2188.60009765625</ele>
        <time>2026-06-16T10:34:01.000Z</time>
        <extensions>
          <ns3:TrackPointExtension>
            <ns3:atemp>23.0</ns3:atemp>
          </ns3:TrackPointExtension>
        </extensions>
      </trkpt>
      <trkpt lat="42.6031248830258846282958984375" lon="19.88782237283885478973388671875">
        <ele>2188.60009765625</ele>
        <time>2026-06-16T10:34:02.000Z</time>
        <extensions>
          <ns3:TrackPointExtension>
            <ns3:atemp>23.0</ns3:atemp>
          </ns3:TrackPointExtension>
        </extensions>
      </trkpt>
      <trkpt lat="42.6031248830258846282958984375" lon="19.88782237283885478973388671875">
        <ele>2188.39990234375</ele>
        <time>2026-06-16T10:34:03.000Z</time>
        <extensions>
          <ns3:TrackPointExtension>
            <ns3:atemp>23.0</ns3:atemp>
          </ns3:TrackPointExtension>
        </extensions>
      </trkpt>
      <trkpt lat="42.6031248830258846282958984375" lon="19.88782237283885478973388671875">
        <ele>2188.39990234375</ele>
        <time>2026-06-16T10:34:04.000Z</time>
        <extensions>
          <ns3:TrackPointExtension>
            <ns3:atemp>23.0</ns3:atemp>
          </ns3:TrackPointExtension>
        </extensions>
      </trkpt>
      <trkpt lat="42.6031248830258846282958984375" lon="19.88782237283885478973388671875">
        <ele>2188.39990234375</ele>
        <time>2026-06-16T10:34:05.000Z</time>
        <extensions>
          <ns3:TrackPointExtension>
            <ns3:atemp>23.0</ns3:atemp>
          </ns3:TrackPointExtension>
        </extensions>
      </trkpt>
      <trkpt lat="42.6031248830258846282958984375" lon="19.88782237283885478973388671875">
        <ele>2188.199951171875</ele>
        <time>2026-06-16T10:34:06.000Z</time>
        <extensions>
          <ns3:TrackPointExtension>
            <ns3:atemp>23.0</ns3:atemp>
          </ns3:TrackPointExtension>
        </extensions>
      </trkpt>
      <trkpt lat="42.6031248830258846282958984375" lon="19.88782237283885478973388671875">
        <ele>2188.199951171875</ele>
        <time>2026-06-16T10:34:07.000Z</time>
        <extensions>
          <ns3:TrackPointExtension>
            <ns3:atemp>23.0</ns3:atemp>
          </ns3:TrackPointExtension>
        </extensions>
      </trkpt>
      <trkpt lat="42.6031248830258846282958984375" lon="19.88782237283885478973388671875">
        <ele>2188.199951171875</ele>
        <time>2026-06-16T10:34:08.000Z</time>
        <extensions>
          <ns3:TrackPointExtension>
            <ns3:atemp>23.0</ns3:atemp>
          </ns3:TrackPointExtension>
        </extensions>
      </trkpt>
      <trkpt lat="42.6031248830258846282958984375" lon="19.88782237283885478973388671875">
        <ele>2188.199951171875</ele>
        <time>2026-06-16T10:34:09.000Z</time>
        <extensions>
          <ns3:TrackPointExtension>
            <ns3:atemp>23.0</ns3:atemp>
          </ns3:TrackPointExtension>
        </extensions>
      </trkpt>
      <trkpt lat="42.6031248830258846282958984375" lon="19.88782237283885478973388671875">
        <ele>2188.199951171875</ele>
        <time>2026-06-16T10:34:10.000Z</time>
        <extensions>
          <ns3:TrackPointExtension>
            <ns3:atemp>23.0</ns3:atemp>
          </ns3:TrackPointExtension>
        </extensions>
      </trkpt>
      <trkpt lat="42.6031248830258846282958984375" lon="19.88782237283885478973388671875">
        <ele>2188</ele>
        <time>2026-06-16T10:34:11.000Z</time>
        <extensions>
          <ns3:TrackPointExtension>
            <ns3:atemp>23.0</ns3:atemp>
          </ns3:TrackPointExtension>
        </extensions>
      </trkpt>
      <trkpt lat="42.6031248830258846282958984375" lon="19.88782237283885478973388671875">
        <ele>2188</ele>
        <time>2026-06-16T10:34:12.000Z</time>
        <extensions>
          <ns3:TrackPointExtension>
            <ns3:atemp>23.0</ns3:atemp>
          </ns3:TrackPointExtension>
        </extensions>
      </trkpt>
      <trkpt lat="42.6031248830258846282958984375" lon="19.88782237283885478973388671875">
        <ele>2188</ele>
        <time>2026-06-16T10:34:13.000Z</time>
        <extensions>
          <ns3:TrackPointExtension>
            <ns3:atemp>23.0</ns3:atemp>
          </ns3:TrackPointExtension>
        </extensions>
      </trkpt>
      <trkpt lat="42.6031248830258846282958984375" lon="19.88782237283885478973388671875">
        <ele>2188</ele>
        <time>2026-06-16T10:34:14.000Z</time>
        <extensions>
          <ns3:TrackPointExtension>
            <ns3:atemp>23.0</ns3:atemp>
          </ns3:TrackPointExtension>
        </extensions>
      </trkpt>
      <trkpt lat="42.6031248830258846282958984375" lon="19.88782237283885478973388671875">
        <ele>2188</ele>
        <time>2026-06-16T10:34:15.000Z</time>
        <extensions>
          <ns3:TrackPointExtension>
            <ns3:atemp>23.0</ns3:atemp>
          </ns3:TrackPointExtension>
        </extensions>
      </trkpt>
      <trkpt lat="42.6031248830258846282958984375" lon="19.88782237283885478973388671875">
        <ele>2188</ele>
        <time>2026-06-16T10:34:16.000Z</time>
        <extensions>
          <ns3:TrackPointExtension>
            <ns3:atemp>23.0</ns3:atemp>
          </ns3:TrackPointExtension>
        </extensions>
      </trkpt>
      <trkpt lat="42.6031248830258846282958984375" lon="19.88782237283885478973388671875">
        <ele>2188</ele>
        <time>2026-06-16T10:34:17.000Z</time>
        <extensions>
          <ns3:TrackPointExtension>
            <ns3:atemp>23.0</ns3:atemp>
          </ns3:TrackPointExtension>
        </extensions>
      </trkpt>
      <trkpt lat="42.6031248830258846282958984375" lon="19.88782237283885478973388671875">
        <ele>2188</ele>
        <time>2026-06-16T10:34:18.000Z</time>
        <extensions>
          <ns3:TrackPointExtension>
            <ns3:atemp>23.0</ns3:atemp>
          </ns3:TrackPointExtension>
        </extensions>
      </trkpt>
      <trkpt lat="42.6031248830258846282958984375" lon="19.88782237283885478973388671875">
        <ele>2188</ele>
        <time>2026-06-16T10:34:19.000Z</time>
        <extensions>
          <ns3:TrackPointExtension>
            <ns3:atemp>23.0</ns3:atemp>
          </ns3:TrackPointExtension>
        </extensions>
      </trkpt>
      <trkpt lat="42.6031248830258846282958984375" lon="19.88782237283885478973388671875">
        <ele>2188</ele>
        <time>2026-06-16T10:34:20.000Z</time>
        <extensions>
          <ns3:TrackPointExtension>
            <ns3:atemp>23.0</ns3:atemp>
          </ns3:TrackPointExtension>
        </extensions>
      </trkpt>
      <trkpt lat="42.6031248830258846282958984375" lon="19.88782237283885478973388671875">
        <ele>2188</ele>
        <time>2026-06-16T10:34:21.000Z</time>
        <extensions>
          <ns3:TrackPointExtension>
            <ns3:atemp>23.0</ns3:atemp>
          </ns3:TrackPointExtension>
        </extensions>
      </trkpt>
      <trkpt lat="42.6031248830258846282958984375" lon="19.88782237283885478973388671875">
        <ele>2188</ele>
        <time>2026-06-16T10:34:22.000Z</time>
        <extensions>
          <ns3:TrackPointExtension>
            <ns3:atemp>23.0</ns3:atemp>
          </ns3:TrackPointExtension>
        </extensions>
      </trkpt>
      <trkpt lat="42.6031248830258846282958984375" lon="19.88782237283885478973388671875">
        <ele>2188</ele>
        <time>2026-06-16T10:34:23.000Z</time>
        <extensions>
          <ns3:TrackPointExtension>
            <ns3:atemp>23.0</ns3:atemp>
          </ns3:TrackPointExtension>
        </extensions>
      </trkpt>
      <trkpt lat="42.6031248830258846282958984375" lon="19.88782237283885478973388671875">
        <ele>2188</ele>
        <time>2026-06-16T10:34:24.000Z</time>
        <extensions>
          <ns3:TrackPointExtension>
            <ns3:atemp>23.0</ns3:atemp>
          </ns3:TrackPointExtension>
        </extensions>
      </trkpt>
      <trkpt lat="42.6031248830258846282958984375" lon="19.88782237283885478973388671875">
        <ele>2188</ele>
        <time>2026-06-16T10:34:25.000Z</time>
        <extensions>
          <ns3:TrackPointExtension>
            <ns3:atemp>23.0</ns3:atemp>
          </ns3:TrackPointExtension>
        </extensions>
      </trkpt>
      <trkpt lat="42.6031248830258846282958984375" lon="19.88782237283885478973388671875">
        <ele>2188</ele>
        <time>2026-06-16T10:34:26.000Z</time>
        <extensions>
          <ns3:TrackPointExtension>
            <ns3:atemp>23.0</ns3:atemp>
          </ns3:TrackPointExtension>
        </extensions>
      </trkpt>
      <trkpt lat="42.6031248830258846282958984375" lon="19.88782237283885478973388671875">
        <ele>2188</ele>
        <time>2026-06-16T10:34:27.000Z</time>
        <extensions>
          <ns3:TrackPointExtension>
            <ns3:atemp>23.0</ns3:atemp>
          </ns3:TrackPointExtension>
        </extensions>
      </trkpt>
      <trkpt lat="42.6031248830258846282958984375" lon="19.88782237283885478973388671875">
        <ele>2188</ele>
        <time>2026-06-16T10:34:28.000Z</time>
        <extensions>
          <ns3:TrackPointExtension>
            <ns3:atemp>23.0</ns3:atemp>
          </ns3:TrackPointExtension>
        </extensions>
      </trkpt>
      <trkpt lat="42.6031248830258846282958984375" lon="19.88782237283885478973388671875">
        <ele>2188</ele>
        <time>2026-06-16T10:34:29.000Z</time>
        <extensions>
          <ns3:TrackPointExtension>
            <ns3:atemp>23.0</ns3:atemp>
          </ns3:TrackPointExtension>
        </extensions>
      </trkpt>
      <trkpt lat="42.6031248830258846282958984375" lon="19.88782237283885478973388671875">
        <ele>2188</ele>
        <time>2026-06-16T10:34:30.000Z</time>
        <extensions>
          <ns3:TrackPointExtension>
            <ns3:atemp>23.0</ns3:atemp>
          </ns3:TrackPointExtension>
        </extensions>
      </trkpt>
      <trkpt lat="42.6031248830258846282958984375" lon="19.88782237283885478973388671875">
        <ele>2188</ele>
        <time>2026-06-16T10:34:31.000Z</time>
        <extensions>
          <ns3:TrackPointExtension>
            <ns3:atemp>23.0</ns3:atemp>
          </ns3:TrackPointExtension>
        </extensions>
      </trkpt>
      <trkpt lat="42.6031248830258846282958984375" lon="19.88782237283885478973388671875">
        <ele>2188</ele>
        <time>2026-06-16T10:34:32.000Z</time>
        <extensions>
          <ns3:TrackPointExtension>
            <ns3:atemp>23.0</ns3:atemp>
          </ns3:TrackPointExtension>
        </extensions>
      </trkpt>
      <trkpt lat="42.6031248830258846282958984375" lon="19.88782237283885478973388671875">
        <ele>2188</ele>
        <time>2026-06-16T10:34:33.000Z</time>
        <extensions>
          <ns3:TrackPointExtension>
            <ns3:atemp>23.0</ns3:atemp>
          </ns3:TrackPointExtension>
        </extensions>
      </trkpt>
      <trkpt lat="42.6031248830258846282958984375" lon="19.88782237283885478973388671875">
        <ele>2188</ele>
        <time>2026-06-16T10:34:34.000Z</time>
        <extensions>
          <ns3:TrackPointExtension>
            <ns3:atemp>23.0</ns3:atemp>
          </ns3:TrackPointExtension>
        </extensions>
      </trkpt>
      <trkpt lat="42.6031248830258846282958984375" lon="19.88782237283885478973388671875">
        <ele>2188</ele>
        <time>2026-06-16T10:34:35.000Z</time>
        <extensions>
          <ns3:TrackPointExtension>
            <ns3:atemp>23.0</ns3:atemp>
          </ns3:TrackPointExtension>
        </extensions>
      </trkpt>
      <trkpt lat="42.6031248830258846282958984375" lon="19.88782237283885478973388671875">
        <ele>2188</ele>
        <time>2026-06-16T10:34:36.000Z</time>
        <extensions>
          <ns3:TrackPointExtension>
            <ns3:atemp>23.0</ns3:atemp>
          </ns3:TrackPointExtension>
        </extensions>
      </trkpt>
      <trkpt lat="42.6031248830258846282958984375" lon="19.88782237283885478973388671875">
        <ele>2188</ele>
        <time>2026-06-16T10:34:37.000Z</time>
        <extensions>
          <ns3:TrackPointExtension>
            <ns3:atemp>23.0</ns3:atemp>
          </ns3:TrackPointExtension>
        </extensions>
      </trkpt>
      <trkpt lat="42.6031248830258846282958984375" lon="19.88782237283885478973388671875">
        <ele>2188</ele>
        <time>2026-06-16T10:34:38.000Z</time>
        <extensions>
          <ns3:TrackPointExtension>
            <ns3:atemp>23.0</ns3:atemp>
          </ns3:TrackPointExtension>
        </extensions>
      </trkpt>
      <trkpt lat="42.6031248830258846282958984375" lon="19.88782237283885478973388671875">
        <ele>2188</ele>
        <time>2026-06-16T10:34:39.000Z</time>
        <extensions>
          <ns3:TrackPointExtension>
            <ns3:atemp>23.0</ns3:atemp>
          </ns3:TrackPointExtension>
        </extensions>
      </trkpt>
      <trkpt lat="42.6031248830258846282958984375" lon="19.88782237283885478973388671875">
        <ele>2188</ele>
        <time>2026-06-16T10:34:40.000Z</time>
        <extensions>
          <ns3:TrackPointExtension>
            <ns3:atemp>23.0</ns3:atemp>
          </ns3:TrackPointExtension>
        </extensions>
      </trkpt>
      <trkpt lat="42.6031248830258846282958984375" lon="19.88782237283885478973388671875">
        <ele>2188</ele>
        <time>2026-06-16T10:34:41.000Z</time>
        <extensions>
          <ns3:TrackPointExtension>
            <ns3:atemp>23.0</ns3:atemp>
          </ns3:TrackPointExtension>
        </extensions>
      </trkpt>
      <trkpt lat="42.6031248830258846282958984375" lon="19.88782237283885478973388671875">
        <ele>2188</ele>
        <time>2026-06-16T10:34:42.000Z</time>
        <extensions>
          <ns3:TrackPointExtension>
            <ns3:atemp>23.0</ns3:atemp>
          </ns3:TrackPointExtension>
        </extensions>
      </trkpt>
      <trkpt lat="42.6031248830258846282958984375" lon="19.88782237283885478973388671875">
        <ele>2188</ele>
        <time>2026-06-16T10:34:43.000Z</time>
        <extensions>
          <ns3:TrackPointExtension>
            <ns3:atemp>23.0</ns3:atemp>
          </ns3:TrackPointExtension>
        </extensions>
      </trkpt>
      <trkpt lat="42.6031248830258846282958984375" lon="19.88782237283885478973388671875">
        <ele>2188</ele>
        <time>2026-06-16T10:34:44.000Z</time>
        <extensions>
          <ns3:TrackPointExtension>
            <ns3:atemp>23.0</ns3:atemp>
          </ns3:TrackPointExtension>
        </extensions>
      </trkpt>
      <trkpt lat="42.6031248830258846282958984375" lon="19.88782237283885478973388671875">
        <ele>2188</ele>
        <time>2026-06-16T10:34:45.000Z</time>
        <extensions>
          <ns3:TrackPointExtension>
            <ns3:atemp>23.0</ns3:atemp>
          </ns3:TrackPointExtension>
        </extensions>
      </trkpt>
      <trkpt lat="42.6031248830258846282958984375" lon="19.88782237283885478973388671875">
        <ele>2188</ele>
        <time>2026-06-16T10:34:46.000Z</time>
        <extensions>
          <ns3:TrackPointExtension>
            <ns3:atemp>23.0</ns3:atemp>
          </ns3:TrackPointExtension>
        </extensions>
      </trkpt>
      <trkpt lat="42.6031248830258846282958984375" lon="19.88782237283885478973388671875">
        <ele>2188</ele>
        <time>2026-06-16T10:34:47.000Z</time>
        <extensions>
          <ns3:TrackPointExtension>
            <ns3:atemp>23.0</ns3:atemp>
          </ns3:TrackPointExtension>
        </extensions>
      </trkpt>
      <trkpt lat="42.6031248830258846282958984375" lon="19.88782237283885478973388671875">
        <ele>2188</ele>
        <time>2026-06-16T10:34:48.000Z</time>
        <extensions>
          <ns3:TrackPointExtension>
            <ns3:atemp>23.0</ns3:atemp>
          </ns3:TrackPointExtension>
        </extensions>
      </trkpt>
      <trkpt lat="42.6031248830258846282958984375" lon="19.88782237283885478973388671875">
        <ele>2188</ele>
        <time>2026-06-16T10:34:49.000Z</time>
        <extensions>
          <ns3:TrackPointExtension>
            <ns3:atemp>23.0</ns3:atemp>
          </ns3:TrackPointExtension>
        </extensions>
      </trkpt>
      <trkpt lat="42.6031248830258846282958984375" lon="19.88782237283885478973388671875">
        <ele>2188</ele>
        <time>2026-06-16T10:34:50.000Z</time>
        <extensions>
          <ns3:TrackPointExtension>
            <ns3:atemp>23.0</ns3:atemp>
          </ns3:TrackPointExtension>
        </extensions>
      </trkpt>
      <trkpt lat="42.6031248830258846282958984375" lon="19.88782237283885478973388671875">
        <ele>2188</ele>
        <time>2026-06-16T10:34:51.000Z</time>
        <extensions>
          <ns3:TrackPointExtension>
            <ns3:atemp>23.0</ns3:atemp>
          </ns3:TrackPointExtension>
        </extensions>
      </trkpt>
      <trkpt lat="42.6031248830258846282958984375" lon="19.88782237283885478973388671875">
        <ele>2188</ele>
        <time>2026-06-16T10:34:52.000Z</time>
        <extensions>
          <ns3:TrackPointExtension>
            <ns3:atemp>23.0</ns3:atemp>
          </ns3:TrackPointExtension>
        </extensions>
      </trkpt>
      <trkpt lat="42.6031248830258846282958984375" lon="19.88782237283885478973388671875">
        <ele>2188</ele>
        <time>2026-06-16T10:34:53.000Z</time>
        <extensions>
          <ns3:TrackPointExtension>
            <ns3:atemp>23.0</ns3:atemp>
          </ns3:TrackPointExtension>
        </extensions>
      </trkpt>
      <trkpt lat="42.6031248830258846282958984375" lon="19.88782237283885478973388671875">
        <ele>2188</ele>
        <time>2026-06-16T10:34:54.000Z</time>
        <extensions>
          <ns3:TrackPointExtension>
            <ns3:atemp>23.0</ns3:atemp>
          </ns3:TrackPointExtension>
        </extensions>
      </trkpt>
      <trkpt lat="42.6031248830258846282958984375" lon="19.88782237283885478973388671875">
        <ele>2188</ele>
        <time>2026-06-16T10:34:55.000Z</time>
        <extensions>
          <ns3:TrackPointExtension>
            <ns3:atemp>23.0</ns3:atemp>
          </ns3:TrackPointExtension>
        </extensions>
      </trkpt>
      <trkpt lat="42.6031248830258846282958984375" lon="19.88782237283885478973388671875">
        <ele>2188</ele>
        <time>2026-06-16T10:34:56.000Z</time>
        <extensions>
          <ns3:TrackPointExtension>
            <ns3:atemp>23.0</ns3:atemp>
          </ns3:TrackPointExtension>
        </extensions>
      </trkpt>
      <trkpt lat="42.6031248830258846282958984375" lon="19.88782237283885478973388671875">
        <ele>2188</ele>
        <time>2026-06-16T10:34:57.000Z</time>
        <extensions>
          <ns3:TrackPointExtension>
            <ns3:atemp>23.0</ns3:atemp>
          </ns3:TrackPointExtension>
        </extensions>
      </trkpt>
      <trkpt lat="42.6031248830258846282958984375" lon="19.88782237283885478973388671875">
        <ele>2188</ele>
        <time>2026-06-16T10:34:58.000Z</time>
        <extensions>
          <ns3:TrackPointExtension>
            <ns3:atemp>23.0</ns3:atemp>
          </ns3:TrackPointExtension>
        </extensions>
      </trkpt>
      <trkpt lat="42.6031248830258846282958984375" lon="19.88782237283885478973388671875">
        <ele>2188</ele>
        <time>2026-06-16T10:34:59.000Z</time>
        <extensions>
          <ns3:TrackPointExtension>
            <ns3:atemp>23.0</ns3:atemp>
          </ns3:TrackPointExtension>
        </extensions>
      </trkpt>
      <trkpt lat="42.6031248830258846282958984375" lon="19.88782237283885478973388671875">
        <ele>2188</ele>
        <time>2026-06-16T10:35:00.000Z</time>
        <extensions>
          <ns3:TrackPointExtension>
            <ns3:atemp>23.0</ns3:atemp>
          </ns3:TrackPointExtension>
        </extensions>
      </trkpt>
      <trkpt lat="42.6031248830258846282958984375" lon="19.88782237283885478973388671875">
        <ele>2188</ele>
        <time>2026-06-16T10:35:01.000Z</time>
        <extensions>
          <ns3:TrackPointExtension>
            <ns3:atemp>23.0</ns3:atemp>
          </ns3:TrackPointExtension>
        </extensions>
      </trkpt>
      <trkpt lat="42.6031248830258846282958984375" lon="19.88782237283885478973388671875">
        <ele>2188</ele>
        <time>2026-06-16T10:35:02.000Z</time>
        <extensions>
          <ns3:TrackPointExtension>
            <ns3:atemp>23.0</ns3:atemp>
          </ns3:TrackPointExtension>
        </extensions>
      </trkpt>
      <trkpt lat="42.6031248830258846282958984375" lon="19.88782237283885478973388671875">
        <ele>2188</ele>
        <time>2026-06-16T10:35:03.000Z</time>
        <extensions>
          <ns3:TrackPointExtension>
            <ns3:atemp>23.0</ns3:atemp>
          </ns3:TrackPointExtension>
        </extensions>
      </trkpt>
      <trkpt lat="42.6031248830258846282958984375" lon="19.88782237283885478973388671875">
        <ele>2188</ele>
        <time>2026-06-16T10:35:04.000Z</time>
        <extensions>
          <ns3:TrackPointExtension>
            <ns3:atemp>23.0</ns3:atemp>
          </ns3:TrackPointExtension>
        </extensions>
      </trkpt>
      <trkpt lat="42.6031248830258846282958984375" lon="19.88782237283885478973388671875">
        <ele>2188</ele>
        <time>2026-06-16T10:35:05.000Z</time>
        <extensions>
          <ns3:TrackPointExtension>
            <ns3:atemp>23.0</ns3:atemp>
          </ns3:TrackPointExtension>
        </extensions>
      </trkpt>
      <trkpt lat="42.6031248830258846282958984375" lon="19.88782237283885478973388671875">
        <ele>2188</ele>
        <time>2026-06-16T10:35:06.000Z</time>
        <extensions>
          <ns3:TrackPointExtension>
            <ns3:atemp>23.0</ns3:atemp>
          </ns3:TrackPointExtension>
        </extensions>
      </trkpt>
      <trkpt lat="42.6031248830258846282958984375" lon="19.88782237283885478973388671875">
        <ele>2188</ele>
        <time>2026-06-16T10:35:07.000Z</time>
        <extensions>
          <ns3:TrackPointExtension>
            <ns3:atemp>23.0</ns3:atemp>
          </ns3:TrackPointExtension>
        </extensions>
      </trkpt>
      <trkpt lat="42.60312865488231182098388671875" lon="19.88781935535371303558349609375">
        <ele>2188</ele>
        <time>2026-06-16T10:35:08.000Z</time>
        <extensions>
          <ns3:TrackPointExtension>
            <ns3:atemp>23.0</ns3:atemp>
          </ns3:TrackPointExtension>
        </extensions>
      </trkpt>
      <trkpt lat="42.60313871316611766815185546875" lon="19.887804687023162841796875">
        <ele>2188</ele>
        <time>2026-06-16T10:35:09.000Z</time>
        <extensions>
          <ns3:TrackPointExtension>
            <ns3:atemp>23.0</ns3:atemp>
          </ns3:TrackPointExtension>
        </extensions>
      </trkpt>
      <trkpt lat="42.60313955135643482208251953125" lon="19.88780393265187740325927734375">
        <ele>2188</ele>
        <time>2026-06-16T10:35:10.000Z</time>
        <extensions>
          <ns3:TrackPointExtension>
            <ns3:atemp>23.0</ns3:atemp>
          </ns3:TrackPointExtension>
        </extensions>
      </trkpt>
      <trkpt lat="42.603143490850925445556640625" lon="19.8877911083400249481201171875">
        <ele>2188</ele>
        <time>2026-06-16T10:35:11.000Z</time>
        <extensions>
          <ns3:TrackPointExtension>
            <ns3:atemp>23.0</ns3:atemp>
          </ns3:TrackPointExtension>
        </extensions>
      </trkpt>
      <trkpt lat="42.6031446643173694610595703125" lon="19.887779541313648223876953125">
        <ele>2188</ele>
        <time>2026-06-16T10:35:12.000Z</time>
        <extensions>
          <ns3:TrackPointExtension>
            <ns3:atemp>23.0</ns3:atemp>
          </ns3:TrackPointExtension>
        </extensions>
      </trkpt>
      <trkpt lat="42.60314173065125942230224609375" lon="19.88776269368827342987060546875">
        <ele>2188</ele>
        <time>2026-06-16T10:35:13.000Z</time>
        <extensions>
          <ns3:TrackPointExtension>
            <ns3:atemp>23.0</ns3:atemp>
          </ns3:TrackPointExtension>
        </extensions>
      </trkpt>
      <trkpt lat="42.60313217528164386749267578125" lon="19.88775297068059444427490234375">
        <ele>2188.60009765625</ele>
        <time>2026-06-16T10:35:14.000Z</time>
        <extensions>
          <ns3:TrackPointExtension>
            <ns3:atemp>23.0</ns3:atemp>
          </ns3:TrackPointExtension>
        </extensions>
      </trkpt>
      <trkpt lat="42.60311624966561794281005859375" lon="19.88774098455905914306640625">
        <ele>2188.199951171875</ele>
        <time>2026-06-16T10:35:15.000Z</time>
        <extensions>
          <ns3:TrackPointExtension>
            <ns3:atemp>23.0</ns3:atemp>
          </ns3:TrackPointExtension>
        </extensions>
      </trkpt>
      <trkpt lat="42.6030953787267208099365234375" lon="19.88772279582917690277099609375">
        <ele>2187.800048828125</ele>
        <time>2026-06-16T10:35:16.000Z</time>
        <extensions>
          <ns3:TrackPointExtension>
            <ns3:atemp>23.0</ns3:atemp>
          </ns3:TrackPointExtension>
        </extensions>
      </trkpt>
      <trkpt lat="42.60307408869266510009765625" lon="19.88770150579512119293212890625">
        <ele>2187.39990234375</ele>
        <time>2026-06-16T10:35:17.000Z</time>
        <extensions>
          <ns3:TrackPointExtension>
            <ns3:atemp>23.0</ns3:atemp>
          </ns3:TrackPointExtension>
        </extensions>
      </trkpt>
      <trkpt lat="42.60305271483957767486572265625" lon="19.88768440671265125274658203125">
        <ele>2187</ele>
        <time>2026-06-16T10:35:18.000Z</time>
        <extensions>
          <ns3:TrackPointExtension>
            <ns3:atemp>23.0</ns3:atemp>
          </ns3:TrackPointExtension>
        </extensions>
      </trkpt>
      <trkpt lat="42.60303041897714138031005859375" lon="19.887666888535022735595703125">
        <ele>2186.60009765625</ele>
        <time>2026-06-16T10:35:19.000Z</time>
        <extensions>
          <ns3:TrackPointExtension>
            <ns3:atemp>23.0</ns3:atemp>
          </ns3:TrackPointExtension>
        </extensions>
      </trkpt>
      <trkpt lat="42.60300644673407077789306640625" lon="19.88764434121549129486083984375">
        <ele>2186.199951171875</ele>
        <time>2026-06-16T10:35:20.000Z</time>
        <extensions>
          <ns3:TrackPointExtension>
            <ns3:atemp>23.0</ns3:atemp>
          </ns3:TrackPointExtension>
        </extensions>
      </trkpt>
      <trkpt lat="42.60298197157680988311767578125" lon="19.8876207880675792694091796875">
        <ele>2185.60009765625</ele>
        <time>2026-06-16T10:35:21.000Z</time>
        <extensions>
          <ns3:TrackPointExtension>
            <ns3:atemp>23.0</ns3:atemp>
          </ns3:TrackPointExtension>
        </extensions>
      </trkpt>
      <trkpt lat="42.60295749641954898834228515625" lon="19.887603186070919036865234375">
        <ele>2185</ele>
        <time>2026-06-16T10:35:22.000Z</time>
        <extensions>
          <ns3:TrackPointExtension>
            <ns3:atemp>23.0</ns3:atemp>
          </ns3:TrackPointExtension>
        </extensions>
      </trkpt>
      <trkpt lat="42.60293000377714633941650390625" lon="19.88758550025522708892822265625">
        <ele>2184.39990234375</ele>
        <time>2026-06-16T10:35:23.000Z</time>
        <extensions>
          <ns3:TrackPointExtension>
            <ns3:atemp>23.0</ns3:atemp>
          </ns3:TrackPointExtension>
        </extensions>
      </trkpt>
      <trkpt lat="42.6029036007821559906005859375" lon="19.887574017047882080078125">
        <ele>2183.800048828125</ele>
        <time>2026-06-16T10:35:24.000Z</time>
        <extensions>
          <ns3:TrackPointExtension>
            <ns3:atemp>23.0</ns3:atemp>
          </ns3:TrackPointExtension>
        </extensions>
      </trkpt>
      <trkpt lat="42.602880299091339111328125" lon="19.88756471313536167144775390625">
        <ele>2183.199951171875</ele>
        <time>2026-06-16T10:35:25.000Z</time>
        <extensions>
          <ns3:TrackPointExtension>
            <ns3:atemp>23.0</ns3:atemp>
          </ns3:TrackPointExtension>
        </extensions>
      </trkpt>
      <trkpt lat="42.6028583385050296783447265625" lon="19.88757309503853321075439453125">
        <ele>2182.39990234375</ele>
        <time>2026-06-16T10:35:26.000Z</time>
        <extensions>
          <ns3:TrackPointExtension>
            <ns3:atemp>23.0</ns3:atemp>
          </ns3:TrackPointExtension>
        </extensions>
      </trkpt>
      <trkpt lat="42.60284467600286006927490234375" lon="19.88758265040814876556396484375">
        <ele>2181.800048828125</ele>
        <time>2026-06-16T10:35:27.000Z</time>
        <extensions>
          <ns3:TrackPointExtension>
            <ns3:atemp>23.0</ns3:atemp>
          </ns3:TrackPointExtension>
        </extensions>
      </trkpt>
      <trkpt lat="42.6028352044522762298583984375" lon="19.88759555853903293609619140625">
        <ele>2181.199951171875</ele>
        <time>2026-06-16T10:35:28.000Z</time>
        <extensions>
          <ns3:TrackPointExtension>
            <ns3:atemp>23.0</ns3:atemp>
          </ns3:TrackPointExtension>
        </extensions>
      </trkpt>
      <trkpt lat="42.60282908566296100616455078125" lon="19.88761089742183685302734375">
        <ele>2180.800048828125</ele>
        <time>2026-06-16T10:35:29.000Z</time>
        <extensions>
          <ns3:TrackPointExtension>
            <ns3:atemp>23.0</ns3:atemp>
          </ns3:TrackPointExtension>
        </extensions>
      </trkpt>
      <trkpt lat="42.60282690636813640594482421875" lon="19.88762388937175273895263671875">
        <ele>2180.60009765625</ele>
        <time>2026-06-16T10:35:30.000Z</time>
        <extensions>
          <ns3:TrackPointExtension>
            <ns3:atemp>23.0</ns3:atemp>
          </ns3:TrackPointExtension>
        </extensions>
      </trkpt>
      <trkpt lat="42.60282807983458042144775390625" lon="19.88764015026390552520751953125">
        <ele>2180.39990234375</ele>
        <time>2026-06-16T10:35:31.000Z</time>
        <extensions>
          <ns3:TrackPointExtension>
            <ns3:atemp>23.0</ns3:atemp>
          </ns3:TrackPointExtension>
        </extensions>
      </trkpt>
      <trkpt lat="42.60283000767230987548828125" lon="19.88765842281281948089599609375">
        <ele>2180.39990234375</ele>
        <time>2026-06-16T10:35:32.000Z</time>
        <extensions>
          <ns3:TrackPointExtension>
            <ns3:atemp>23.0</ns3:atemp>
          </ns3:TrackPointExtension>
        </extensions>
      </trkpt>
      <trkpt lat="42.602836377918720245361328125" lon="19.8876717500388622283935546875">
        <ele>2180.39990234375</ele>
        <time>2026-06-16T10:35:33.000Z</time>
        <extensions>
          <ns3:TrackPointExtension>
            <ns3:atemp>23.0</ns3:atemp>
          </ns3:TrackPointExtension>
        </extensions>
      </trkpt>
      <trkpt lat="42.60285071097314357757568359375" lon="19.8876828141510486602783203125">
        <ele>2180.60009765625</ele>
        <time>2026-06-16T10:35:34.000Z</time>
        <extensions>
          <ns3:TrackPointExtension>
            <ns3:atemp>23.0</ns3:atemp>
          </ns3:TrackPointExtension>
        </extensions>
      </trkpt>
      <trkpt lat="42.6028600148856639862060546875" lon="19.8876740969717502593994140625">
        <ele>2180.800048828125</ele>
        <time>2026-06-16T10:35:35.000Z</time>
        <extensions>
          <ns3:TrackPointExtension>
            <ns3:atemp>23.0</ns3:atemp>
          </ns3:TrackPointExtension>
        </extensions>
      </trkpt>
      <trkpt lat="42.60286697186529636383056640625" lon="19.88765624351799488067626953125">
        <ele>2181</ele>
        <time>2026-06-16T10:35:36.000Z</time>
        <extensions>
          <ns3:TrackPointExtension>
            <ns3:atemp>23.0</ns3:atemp>
          </ns3:TrackPointExtension>
        </extensions>
      </trkpt>
      <trkpt lat="42.6028801314532756805419921875" lon="19.887637384235858917236328125">
        <ele>2181</ele>
        <time>2026-06-16T10:35:37.000Z</time>
        <extensions>
          <ns3:TrackPointExtension>
            <ns3:atemp>23.0</ns3:atemp>
          </ns3:TrackPointExtension>
        </extensions>
      </trkpt>
      <trkpt lat="42.602896057069301605224609375" lon="19.8876281641423702239990234375">
        <ele>2181.199951171875</ele>
        <time>2026-06-16T10:35:38.000Z</time>
        <extensions>
          <ns3:TrackPointExtension>
            <ns3:atemp>23.0</ns3:atemp>
          </ns3:TrackPointExtension>
        </extensions>
      </trkpt>
      <trkpt lat="42.60291223414242267608642578125" lon="19.88762590102851390838623046875">
        <ele>2181.39990234375</ele>
        <time>2026-06-16T10:35:39.000Z</time>
        <extensions>
          <ns3:TrackPointExtension>
            <ns3:atemp>23.0</ns3:atemp>
          </ns3:TrackPointExtension>
        </extensions>
      </trkpt>
      <trkpt lat="42.6029277406632900238037109375" lon="19.88763034343719482421875">
        <ele>2181.60009765625</ele>
        <time>2026-06-16T10:35:40.000Z</time>
        <extensions>
          <ns3:TrackPointExtension>
            <ns3:atemp>23.0</ns3:atemp>
          </ns3:TrackPointExtension>
        </extensions>
      </trkpt>
      <trkpt lat="42.60294157080352306365966796875" lon="19.88763914443552494049072265625">
        <ele>2181.800048828125</ele>
        <time>2026-06-16T10:35:41.000Z</time>
        <extensions>
          <ns3:TrackPointExtension>
            <ns3:atemp>23.0</ns3:atemp>
          </ns3:TrackPointExtension>
        </extensions>
      </trkpt>
      <trkpt lat="42.602946348488330841064453125" lon="19.88765439949929714202880859375">
        <ele>2182.199951171875</ele>
        <time>2026-06-16T10:35:42.000Z</time>
        <extensions>
          <ns3:TrackPointExtension>
            <ns3:atemp>23.0</ns3:atemp>
          </ns3:TrackPointExtension>
        </extensions>
      </trkpt>
      <trkpt lat="42.6029518805444240570068359375" lon="19.88767418079078197479248046875">
        <ele>2182.39990234375</ele>
        <time>2026-06-16T10:35:43.000Z</time>
        <extensions>
          <ns3:TrackPointExtension>
            <ns3:atemp>23.0</ns3:atemp>
          </ns3:TrackPointExtension>
        </extensions>
      </trkpt>
      <trkpt lat="42.6029538922011852264404296875" lon="19.88769538700580596923828125">
        <ele>2182.800048828125</ele>
        <time>2026-06-16T10:35:44.000Z</time>
        <extensions>
          <ns3:TrackPointExtension>
            <ns3:atemp>23.0</ns3:atemp>
          </ns3:TrackPointExtension>
        </extensions>
      </trkpt>
      <trkpt lat="42.60295531712472438812255859375" lon="19.8877183534204959869384765625">
        <ele>2183.199951171875</ele>
        <time>2026-06-16T10:35:45.000Z</time>
        <extensions>
          <ns3:TrackPointExtension>
            <ns3:atemp>23.0</ns3:atemp>
          </ns3:TrackPointExtension>
        </extensions>
      </trkpt>
      <trkpt lat="42.60295967571437358856201171875" lon="19.88773939199745655059814453125">
        <ele>2183.39990234375</ele>
        <time>2026-06-16T10:35:46.000Z</time>
        <extensions>
          <ns3:TrackPointExtension>
            <ns3:atemp>23.0</ns3:atemp>
          </ns3:TrackPointExtension>
        </extensions>
      </trkpt>
      <trkpt lat="42.6029647886753082275390625" lon="19.88775783218443393707275390625">
        <ele>2183.800048828125</ele>
        <time>2026-06-16T10:35:47.000Z</time>
        <extensions>
          <ns3:TrackPointExtension>
            <ns3:atemp>23.0</ns3:atemp>
          </ns3:TrackPointExtension>
        </extensions>
      </trkpt>
      <trkpt lat="42.60297484695911407470703125" lon="19.88777476362884044647216796875">
        <ele>2184.199951171875</ele>
        <time>2026-06-16T10:35:48.000Z</time>
        <extensions>
          <ns3:TrackPointExtension>
            <ns3:atemp>22.0</ns3:atemp>
          </ns3:TrackPointExtension>
        </extensions>
      </trkpt>
      <trkpt lat="42.6029864139854907989501953125" lon="19.8877857439219951629638671875">
        <ele>2184.60009765625</ele>
        <time>2026-06-16T10:35:49.000Z</time>
        <extensions>
          <ns3:TrackPointExtension>
            <ns3:atemp>22.0</ns3:atemp>
          </ns3:TrackPointExtension>
        </extensions>
      </trkpt>
      <trkpt lat="42.6029996573925018310546875" lon="19.88779303617775440216064453125">
        <ele>2185</ele>
        <time>2026-06-16T10:35:50.000Z</time>
        <extensions>
          <ns3:TrackPointExtension>
            <ns3:atemp>22.0</ns3:atemp>
          </ns3:TrackPointExtension>
        </extensions>
      </trkpt>
      <trkpt lat="42.6030125655233860015869140625" lon="19.88780133426189422607421875">
        <ele>2185.39990234375</ele>
        <time>2026-06-16T10:35:51.000Z</time>
        <extensions>
          <ns3:TrackPointExtension>
            <ns3:atemp>22.0</ns3:atemp>
          </ns3:TrackPointExtension>
        </extensions>
      </trkpt>
      <trkpt lat="42.6030236296355724334716796875" lon="19.88780678249895572662353515625">
        <ele>2185.800048828125</ele>
        <time>2026-06-16T10:35:52.000Z</time>
        <extensions>
          <ns3:TrackPointExtension>
            <ns3:atemp>22.0</ns3:atemp>
          </ns3:TrackPointExtension>
        </extensions>
      </trkpt>
      <trkpt lat="42.60303762741386890411376953125" lon="19.88781600259244441986083984375">
        <ele>2186.199951171875</ele>
        <time>2026-06-16T10:35:53.000Z</time>
        <extensions>
          <ns3:TrackPointExtension>
            <ns3:atemp>22.0</ns3:atemp>
          </ns3:TrackPointExtension>
        </extensions>
      </trkpt>
      <trkpt lat="42.603051960468292236328125" lon="19.8878236301243305206298828125">
        <ele>2186.39990234375</ele>
        <time>2026-06-16T10:35:54.000Z</time>
        <extensions>
          <ns3:TrackPointExtension>
            <ns3:atemp>23.0</ns3:atemp>
          </ns3:TrackPointExtension>
        </extensions>
      </trkpt>
      <trkpt lat="42.6030672155320644378662109375" lon="19.88782949745655059814453125">
        <ele>2186.800048828125</ele>
        <time>2026-06-16T10:35:55.000Z</time>
        <extensions>
          <ns3:TrackPointExtension>
            <ns3:atemp>23.0</ns3:atemp>
          </ns3:TrackPointExtension>
        </extensions>
      </trkpt>
      <trkpt lat="42.6030814647674560546875" lon="19.88783259876072406768798828125">
        <ele>2187</ele>
        <time>2026-06-16T10:35:56.000Z</time>
        <extensions>
          <ns3:TrackPointExtension>
            <ns3:atemp>23.0</ns3:atemp>
          </ns3:TrackPointExtension>
        </extensions>
      </trkpt>
      <trkpt lat="42.6030962169170379638671875" lon="19.88783444277942180633544921875">
        <ele>2187.199951171875</ele>
        <time>2026-06-16T10:35:57.000Z</time>
        <extensions>
          <ns3:TrackPointExtension>
            <ns3:atemp>23.0</ns3:atemp>
          </ns3:TrackPointExtension>
        </extensions>
      </trkpt>
      <trkpt lat="42.603109963238239288330078125" lon="19.88783461041748523712158203125">
        <ele>2187.39990234375</ele>
        <time>2026-06-16T10:35:58.000Z</time>
        <extensions>
          <ns3:TrackPointExtension>
            <ns3:atemp>22.0</ns3:atemp>
          </ns3:TrackPointExtension>
        </extensions>
      </trkpt>
      <trkpt lat="42.6031258888542652130126953125" lon="19.88783578388392925262451171875">
        <ele>2187.60009765625</ele>
        <time>2026-06-16T10:35:59.000Z</time>
        <extensions>
          <ns3:TrackPointExtension>
            <ns3:atemp>22.0</ns3:atemp>
          </ns3:TrackPointExtension>
        </extensions>
      </trkpt>
      <trkpt lat="42.60314273647964000701904296875" lon="19.8878346942365169525146484375">
        <ele>2187.60009765625</ele>
        <time>2026-06-16T10:36:00.000Z</time>
        <extensions>
          <ns3:TrackPointExtension>
            <ns3:atemp>22.0</ns3:atemp>
          </ns3:TrackPointExtension>
        </extensions>
      </trkpt>
      <trkpt lat="42.603159584105014801025390625" lon="19.88783142529428005218505859375">
        <ele>2187.60009765625</ele>
        <time>2026-06-16T10:36:01.000Z</time>
        <extensions>
          <ns3:TrackPointExtension>
            <ns3:atemp>22.0</ns3:atemp>
          </ns3:TrackPointExtension>
        </extensions>
      </trkpt>
      <trkpt lat="42.60317198932170867919921875" lon="19.88782371394336223602294921875">
        <ele>2187.800048828125</ele>
        <time>2026-06-16T10:36:02.000Z</time>
        <extensions>
          <ns3:TrackPointExtension>
            <ns3:atemp>22.0</ns3:atemp>
          </ns3:TrackPointExtension>
        </extensions>
      </trkpt>
      <trkpt lat="42.6031828857958316802978515625" lon="19.88781231455504894256591796875">
        <ele>2187.800048828125</ele>
        <time>2026-06-16T10:36:03.000Z</time>
        <extensions>
          <ns3:TrackPointExtension>
            <ns3:atemp>22.0</ns3:atemp>
          </ns3:TrackPointExtension>
        </extensions>
      </trkpt>
      <trkpt lat="42.60318447835743427276611328125" lon="19.8877981491386890411376953125">
        <ele>2187.800048828125</ele>
        <time>2026-06-16T10:36:04.000Z</time>
        <extensions>
          <ns3:TrackPointExtension>
            <ns3:atemp>22.0</ns3:atemp>
          </ns3:TrackPointExtension>
        </extensions>
      </trkpt>
      <trkpt lat="42.60318447835743427276611328125" lon="19.8877793736755847930908203125">
        <ele>2188</ele>
        <time>2026-06-16T10:36:05.000Z</time>
        <extensions>
          <ns3:TrackPointExtension>
            <ns3:atemp>22.0</ns3:atemp>
          </ns3:TrackPointExtension>
        </extensions>
      </trkpt>
      <trkpt lat="42.6031748391687870025634765625" lon="19.8877619393169879913330078125">
        <ele>2188</ele>
        <time>2026-06-16T10:36:06.000Z</time>
        <extensions>
          <ns3:TrackPointExtension>
            <ns3:atemp>22.0</ns3:atemp>
          </ns3:TrackPointExtension>
        </extensions>
      </trkpt>
      <trkpt lat="42.60316151194274425506591796875" lon="19.887753389775753021240234375">
        <ele>2188.199951171875</ele>
        <time>2026-06-16T10:36:07.000Z</time>
        <extensions>
          <ns3:TrackPointExtension>
            <ns3:atemp>22.0</ns3:atemp>
          </ns3:TrackPointExtension>
        </extensions>
      </trkpt>
      <trkpt lat="42.60314525105059146881103515625" lon="19.887760095298290252685546875">
        <ele>2188.199951171875</ele>
        <time>2026-06-16T10:36:08.000Z</time>
        <extensions>
          <ns3:TrackPointExtension>
            <ns3:atemp>22.0</ns3:atemp>
          </ns3:TrackPointExtension>
        </extensions>
      </trkpt>
      <trkpt lat="42.6031349413096904754638671875" lon="19.88777585327625274658203125">
        <ele>2188.199951171875</ele>
        <time>2026-06-16T10:36:09.000Z</time>
        <extensions>
          <ns3:TrackPointExtension>
            <ns3:atemp>22.0</ns3:atemp>
          </ns3:TrackPointExtension>
        </extensions>
      </trkpt>
      <trkpt lat="42.60312731377780437469482421875" lon="19.88779596984386444091796875">
        <ele>2188</ele>
        <time>2026-06-16T10:36:10.000Z</time>
        <extensions>
          <ns3:TrackPointExtension>
            <ns3:atemp>22.0</ns3:atemp>
          </ns3:TrackPointExtension>
        </extensions>
      </trkpt>
      <trkpt lat="42.60312882252037525177001953125" lon="19.8878015018999576568603515625">
        <ele>2188</ele>
        <time>2026-06-16T10:36:11.000Z</time>
        <extensions>
          <ns3:TrackPointExtension>
            <ns3:atemp>22.0</ns3:atemp>
          </ns3:TrackPointExtension>
        </extensions>
      </trkpt>
      <trkpt lat="42.60312882252037525177001953125" lon="19.8878015018999576568603515625">
        <ele>2188.199951171875</ele>
        <time>2026-06-16T10:36:12.000Z</time>
        <extensions>
          <ns3:TrackPointExtension>
            <ns3:atemp>22.0</ns3:atemp>
          </ns3:TrackPointExtension>
        </extensions>
      </trkpt>
      <trkpt lat="42.60312882252037525177001953125" lon="19.8878015018999576568603515625">
        <ele>2188.199951171875</ele>
        <time>2026-06-16T10:36:13.000Z</time>
        <extensions>
          <ns3:TrackPointExtension>
            <ns3:atemp>22.0</ns3:atemp>
          </ns3:TrackPointExtension>
        </extensions>
      </trkpt>
      <trkpt lat="42.60312882252037525177001953125" lon="19.8878015018999576568603515625">
        <ele>2188.199951171875</ele>
        <time>2026-06-16T10:36:14.000Z</time>
        <extensions>
          <ns3:TrackPointExtension>
            <ns3:atemp>22.0</ns3:atemp>
          </ns3:TrackPointExtension>
        </extensions>
      </trkpt>
      <trkpt lat="42.60312882252037525177001953125" lon="19.8878015018999576568603515625">
        <ele>2188.199951171875</ele>
        <time>2026-06-16T10:36:15.000Z</time>
        <extensions>
          <ns3:TrackPointExtension>
            <ns3:atemp>22.0</ns3:atemp>
          </ns3:TrackPointExtension>
        </extensions>
      </trkpt>
      <trkpt lat="42.60312882252037525177001953125" lon="19.8878015018999576568603515625">
        <ele>2188.199951171875</ele>
        <time>2026-06-16T10:36:16.000Z</time>
        <extensions>
          <ns3:TrackPointExtension>
            <ns3:atemp>22.0</ns3:atemp>
          </ns3:TrackPointExtension>
        </extensions>
      </trkpt>
      <trkpt lat="42.60312882252037525177001953125" lon="19.8878015018999576568603515625">
        <ele>2188.199951171875</ele>
        <time>2026-06-16T10:36:17.000Z</time>
        <extensions>
          <ns3:TrackPointExtension>
            <ns3:atemp>22.0</ns3:atemp>
          </ns3:TrackPointExtension>
        </extensions>
      </trkpt>
      <trkpt lat="42.60312882252037525177001953125" lon="19.8878015018999576568603515625">
        <ele>2188.199951171875</ele>
        <time>2026-06-16T10:36:18.000Z</time>
        <extensions>
          <ns3:TrackPointExtension>
            <ns3:atemp>22.0</ns3:atemp>
          </ns3:TrackPointExtension>
        </extensions>
      </trkpt>
      <trkpt lat="42.60312882252037525177001953125" lon="19.8878015018999576568603515625">
        <ele>2188.199951171875</ele>
        <time>2026-06-16T10:36:19.000Z</time>
        <extensions>
          <ns3:TrackPointExtension>
            <ns3:atemp>22.0</ns3:atemp>
          </ns3:TrackPointExtension>
        </extensions>
      </trkpt>
      <trkpt lat="42.60312882252037525177001953125" lon="19.8878015018999576568603515625">
        <ele>2188</ele>
        <time>2026-06-16T10:36:20.000Z</time>
        <extensions>
          <ns3:TrackPointExtension>
            <ns3:atemp>22.0</ns3:atemp>
          </ns3:TrackPointExtension>
        </extensions>
      </trkpt>
      <trkpt lat="42.60312882252037525177001953125" lon="19.8878015018999576568603515625">
        <ele>2188</ele>
        <time>2026-06-16T10:36:21.000Z</time>
        <extensions>
          <ns3:TrackPointExtension>
            <ns3:atemp>22.0</ns3:atemp>
          </ns3:TrackPointExtension>
        </extensions>
      </trkpt>
      <trkpt lat="42.60312882252037525177001953125" lon="19.8878015018999576568603515625">
        <ele>2188</ele>
        <time>2026-06-16T10:36:22.000Z</time>
        <extensions>
          <ns3:TrackPointExtension>
            <ns3:atemp>22.0</ns3:atemp>
          </ns3:TrackPointExtension>
        </extensions>
      </trkpt>
      <trkpt lat="42.60312882252037525177001953125" lon="19.8878015018999576568603515625">
        <ele>2187.800048828125</ele>
        <time>2026-06-16T10:36:23.000Z</time>
        <extensions>
          <ns3:TrackPointExtension>
            <ns3:atemp>22.0</ns3:atemp>
          </ns3:TrackPointExtension>
        </extensions>
      </trkpt>
      <trkpt lat="42.60312882252037525177001953125" lon="19.8878015018999576568603515625">
        <ele>2187.800048828125</ele>
        <time>2026-06-16T10:36:24.000Z</time>
        <extensions>
          <ns3:TrackPointExtension>
            <ns3:atemp>22.0</ns3:atemp>
          </ns3:TrackPointExtension>
        </extensions>
      </trkpt>
      <trkpt lat="42.60312882252037525177001953125" lon="19.8878015018999576568603515625">
        <ele>2187.800048828125</ele>
        <time>2026-06-16T10:36:25.000Z</time>
        <extensions>
          <ns3:TrackPointExtension>
            <ns3:atemp>22.0</ns3:atemp>
          </ns3:TrackPointExtension>
        </extensions>
      </trkpt>
      <trkpt lat="42.60312882252037525177001953125" lon="19.8878015018999576568603515625">
        <ele>2187.800048828125</ele>
        <time>2026-06-16T10:36:26.000Z</time>
        <extensions>
          <ns3:TrackPointExtension>
            <ns3:atemp>22.0</ns3:atemp>
          </ns3:TrackPointExtension>
        </extensions>
      </trkpt>
      <trkpt lat="42.60312882252037525177001953125" lon="19.8878015018999576568603515625">
        <ele>2187.800048828125</ele>
        <time>2026-06-16T10:36:27.000Z</time>
        <extensions>
          <ns3:TrackPointExtension>
            <ns3:atemp>22.0</ns3:atemp>
          </ns3:TrackPointExtension>
        </extensions>
      </trkpt>
      <trkpt lat="42.60312882252037525177001953125" lon="19.8878015018999576568603515625">
        <ele>2188</ele>
        <time>2026-06-16T10:36:28.000Z</time>
        <extensions>
          <ns3:TrackPointExtension>
            <ns3:atemp>22.0</ns3:atemp>
          </ns3:TrackPointExtension>
        </extensions>
      </trkpt>
      <trkpt lat="42.60312882252037525177001953125" lon="19.8878015018999576568603515625">
        <ele>2188</ele>
        <time>2026-06-16T10:36:29.000Z</time>
        <extensions>
          <ns3:TrackPointExtension>
            <ns3:atemp>22.0</ns3:atemp>
          </ns3:TrackPointExtension>
        </extensions>
      </trkpt>
      <trkpt lat="42.60312882252037525177001953125" lon="19.8878015018999576568603515625">
        <ele>2188</ele>
        <time>2026-06-16T10:36:30.000Z</time>
        <extensions>
          <ns3:TrackPointExtension>
            <ns3:atemp>22.0</ns3:atemp>
          </ns3:TrackPointExtension>
        </extensions>
      </trkpt>
      <trkpt lat="42.60312882252037525177001953125" lon="19.8878015018999576568603515625">
        <ele>2188</ele>
        <time>2026-06-16T10:36:31.000Z</time>
        <extensions>
          <ns3:TrackPointExtension>
            <ns3:atemp>22.0</ns3:atemp>
          </ns3:TrackPointExtension>
        </extensions>
      </trkpt>
      <trkpt lat="42.60312882252037525177001953125" lon="19.8878015018999576568603515625">
        <ele>2188</ele>
        <time>2026-06-16T10:36:32.000Z</time>
        <extensions>
          <ns3:TrackPointExtension>
            <ns3:atemp>22.0</ns3:atemp>
          </ns3:TrackPointExtension>
        </extensions>
      </trkpt>
      <trkpt lat="42.60312882252037525177001953125" lon="19.8878015018999576568603515625">
        <ele>2188</ele>
        <time>2026-06-16T10:36:33.000Z</time>
        <extensions>
          <ns3:TrackPointExtension>
            <ns3:atemp>22.0</ns3:atemp>
          </ns3:TrackPointExtension>
        </extensions>
      </trkpt>
      <trkpt lat="42.60312882252037525177001953125" lon="19.8878015018999576568603515625">
        <ele>2188</ele>
        <time>2026-06-16T10:36:34.000Z</time>
        <extensions>
          <ns3:TrackPointExtension>
            <ns3:atemp>22.0</ns3:atemp>
          </ns3:TrackPointExtension>
        </extensions>
      </trkpt>
      <trkpt lat="42.60312882252037525177001953125" lon="19.8878015018999576568603515625">
        <ele>2188</ele>
        <time>2026-06-16T10:36:35.000Z</time>
        <extensions>
          <ns3:TrackPointExtension>
            <ns3:atemp>22.0</ns3:atemp>
          </ns3:TrackPointExtension>
        </extensions>
      </trkpt>
      <trkpt lat="42.60312882252037525177001953125" lon="19.8878015018999576568603515625">
        <ele>2187.800048828125</ele>
        <time>2026-06-16T10:36:36.000Z</time>
        <extensions>
          <ns3:TrackPointExtension>
            <ns3:atemp>22.0</ns3:atemp>
          </ns3:TrackPointExtension>
        </extensions>
      </trkpt>
      <trkpt lat="42.60312882252037525177001953125" lon="19.8878015018999576568603515625">
        <ele>2187.800048828125</ele>
        <time>2026-06-16T10:36:37.000Z</time>
        <extensions>
          <ns3:TrackPointExtension>
            <ns3:atemp>22.0</ns3:atemp>
          </ns3:TrackPointExtension>
        </extensions>
      </trkpt>
      <trkpt lat="42.60312882252037525177001953125" lon="19.8878015018999576568603515625">
        <ele>2187.800048828125</ele>
        <time>2026-06-16T10:36:38.000Z</time>
        <extensions>
          <ns3:TrackPointExtension>
            <ns3:atemp>22.0</ns3:atemp>
          </ns3:TrackPointExtension>
        </extensions>
      </trkpt>
      <trkpt lat="42.60312882252037525177001953125" lon="19.8878015018999576568603515625">
        <ele>2187.60009765625</ele>
        <time>2026-06-16T10:36:39.000Z</time>
        <extensions>
          <ns3:TrackPointExtension>
            <ns3:atemp>22.0</ns3:atemp>
          </ns3:TrackPointExtension>
        </extensions>
      </trkpt>
      <trkpt lat="42.60312882252037525177001953125" lon="19.8878015018999576568603515625">
        <ele>2187.60009765625</ele>
        <time>2026-06-16T10:36:40.000Z</time>
        <extensions>
          <ns3:TrackPointExtension>
            <ns3:atemp>22.0</ns3:atemp>
          </ns3:TrackPointExtension>
        </extensions>
      </trkpt>
      <trkpt lat="42.60312882252037525177001953125" lon="19.8878015018999576568603515625">
        <ele>2187.60009765625</ele>
        <time>2026-06-16T10:36:41.000Z</time>
        <extensions>
          <ns3:TrackPointExtension>
            <ns3:atemp>22.0</ns3:atemp>
          </ns3:TrackPointExtension>
        </extensions>
      </trkpt>
      <trkpt lat="42.60312882252037525177001953125" lon="19.8878015018999576568603515625">
        <ele>2187.60009765625</ele>
        <time>2026-06-16T10:36:42.000Z</time>
        <extensions>
          <ns3:TrackPointExtension>
            <ns3:atemp>22.0</ns3:atemp>
          </ns3:TrackPointExtension>
        </extensions>
      </trkpt>
      <trkpt lat="42.60312882252037525177001953125" lon="19.8878015018999576568603515625">
        <ele>2187.60009765625</ele>
        <time>2026-06-16T10:36:43.000Z</time>
        <extensions>
          <ns3:TrackPointExtension>
            <ns3:atemp>22.0</ns3:atemp>
          </ns3:TrackPointExtension>
        </extensions>
      </trkpt>
      <trkpt lat="42.60312748141586780548095703125" lon="19.88780309446156024932861328125">
        <ele>2187.39990234375</ele>
        <time>2026-06-16T10:36:44.000Z</time>
        <extensions>
          <ns3:TrackPointExtension>
            <ns3:atemp>22.0</ns3:atemp>
          </ns3:TrackPointExtension>
        </extensions>
      </trkpt>
      <trkpt lat="42.6031188480556011199951171875" lon="19.88781315274536609649658203125">
        <ele>2187.39990234375</ele>
        <time>2026-06-16T10:36:45.000Z</time>
        <extensions>
          <ns3:TrackPointExtension>
            <ns3:atemp>22.0</ns3:atemp>
          </ns3:TrackPointExtension>
        </extensions>
      </trkpt>
      <trkpt lat="42.60310895740985870361328125" lon="19.887820780277252197265625">
        <ele>2187.39990234375</ele>
        <time>2026-06-16T10:36:46.000Z</time>
        <extensions>
          <ns3:TrackPointExtension>
            <ns3:atemp>22.0</ns3:atemp>
          </ns3:TrackPointExtension>
        </extensions>
      </trkpt>
      <trkpt lat="42.6030967198312282562255859375" lon="19.887818433344364166259765625">
        <ele>2187.39990234375</ele>
        <time>2026-06-16T10:36:47.000Z</time>
        <extensions>
          <ns3:TrackPointExtension>
            <ns3:atemp>22.0</ns3:atemp>
          </ns3:TrackPointExtension>
        </extensions>
      </trkpt>
      <trkpt lat="42.603087835013866424560546875" lon="19.887816421687602996826171875">
        <ele>2187.199951171875</ele>
        <time>2026-06-16T10:36:48.000Z</time>
        <extensions>
          <ns3:TrackPointExtension>
            <ns3:atemp>22.0</ns3:atemp>
          </ns3:TrackPointExtension>
        </extensions>
      </trkpt>
      <trkpt lat="42.603076435625553131103515625" lon="19.88781650550663471221923828125">
        <ele>2187.199951171875</ele>
        <time>2026-06-16T10:36:49.000Z</time>
        <extensions>
          <ns3:TrackPointExtension>
            <ns3:atemp>22.0</ns3:atemp>
          </ns3:TrackPointExtension>
        </extensions>
      </trkpt>
      <trkpt lat="42.60306545533239841461181640625" lon="19.88781315274536609649658203125">
        <ele>2187</ele>
        <time>2026-06-16T10:36:50.000Z</time>
        <extensions>
          <ns3:TrackPointExtension>
            <ns3:atemp>22.0</ns3:atemp>
          </ns3:TrackPointExtension>
        </extensions>
      </trkpt>
      <trkpt lat="42.6030548103153705596923828125" lon="19.8878095485270023345947265625">
        <ele>2186.800048828125</ele>
        <time>2026-06-16T10:36:51.000Z</time>
        <extensions>
          <ns3:TrackPointExtension>
            <ns3:atemp>22.0</ns3:atemp>
          </ns3:TrackPointExtension>
        </extensions>
      </trkpt>
      <trkpt lat="42.60303997434675693511962890625" lon="19.887804351747035980224609375">
        <ele>2186.800048828125</ele>
        <time>2026-06-16T10:36:52.000Z</time>
        <extensions>
          <ns3:TrackPointExtension>
            <ns3:atemp>22.0</ns3:atemp>
          </ns3:TrackPointExtension>
        </extensions>
      </trkpt>
      <trkpt lat="42.60302170179784297943115234375" lon="19.88780125044286251068115234375">
        <ele>2186.60009765625</ele>
        <time>2026-06-16T10:36:53.000Z</time>
        <extensions>
          <ns3:TrackPointExtension>
            <ns3:atemp>22.0</ns3:atemp>
          </ns3:TrackPointExtension>
        </extensions>
      </trkpt>
      <trkpt lat="42.60300376452505588531494140625" lon="19.88779689185321331024169921875">
        <ele>2186.39990234375</ele>
        <time>2026-06-16T10:36:54.000Z</time>
        <extensions>
          <ns3:TrackPointExtension>
            <ns3:atemp>22.0</ns3:atemp>
          </ns3:TrackPointExtension>
        </extensions>
      </trkpt>
      <trkpt lat="42.6029847376048564910888671875" lon="19.88779001869261264801025390625">
        <ele>2186</ele>
        <time>2026-06-16T10:36:55.000Z</time>
        <extensions>
          <ns3:TrackPointExtension>
            <ns3:atemp>22.0</ns3:atemp>
          </ns3:TrackPointExtension>
        </extensions>
      </trkpt>
      <trkpt lat="42.60296705178916454315185546875" lon="19.8877776972949504852294921875">
        <ele>2185.60009765625</ele>
        <time>2026-06-16T10:36:56.000Z</time>
        <extensions>
          <ns3:TrackPointExtension>
            <ns3:atemp>22.0</ns3:atemp>
          </ns3:TrackPointExtension>
        </extensions>
      </trkpt>
      <trkpt lat="42.6029502041637897491455078125" lon="19.8877662979066371917724609375">
        <ele>2185</ele>
        <time>2026-06-16T10:36:57.000Z</time>
        <extensions>
          <ns3:TrackPointExtension>
            <ns3:atemp>22.0</ns3:atemp>
          </ns3:TrackPointExtension>
        </extensions>
      </trkpt>
      <trkpt lat="42.60293218307197093963623046875" lon="19.887751042842864990234375">
        <ele>2184.60009765625</ele>
        <time>2026-06-16T10:36:58.000Z</time>
        <extensions>
          <ns3:TrackPointExtension>
            <ns3:atemp>22.0</ns3:atemp>
          </ns3:TrackPointExtension>
        </extensions>
      </trkpt>
      <trkpt lat="42.602912820875644683837890625" lon="19.88773587159812450408935546875">
        <ele>2184.199951171875</ele>
        <time>2026-06-16T10:36:59.000Z</time>
        <extensions>
          <ns3:TrackPointExtension>
            <ns3:atemp>22.0</ns3:atemp>
          </ns3:TrackPointExtension>
        </extensions>
      </trkpt>
      <trkpt lat="42.6028918661177158355712890625" lon="19.88771894015371799468994140625">
        <ele>2183.60009765625</ele>
        <time>2026-06-16T10:37:00.000Z</time>
        <extensions>
          <ns3:TrackPointExtension>
            <ns3:atemp>22.0</ns3:atemp>
          </ns3:TrackPointExtension>
        </extensions>
      </trkpt>
      <trkpt lat="42.60287250392138957977294921875" lon="19.8876985721290111541748046875">
        <ele>2183</ele>
        <time>2026-06-16T10:37:01.000Z</time>
        <extensions>
          <ns3:TrackPointExtension>
            <ns3:atemp>22.0</ns3:atemp>
          </ns3:TrackPointExtension>
        </extensions>
      </trkpt>
      <trkpt lat="42.60285305790603160858154296875" lon="19.8876818083226680755615234375">
        <ele>2182.39990234375</ele>
        <time>2026-06-16T10:37:02.000Z</time>
        <extensions>
          <ns3:TrackPointExtension>
            <ns3:atemp>22.0</ns3:atemp>
          </ns3:TrackPointExtension>
        </extensions>
      </trkpt>
      <trkpt lat="42.602828331291675567626953125" lon="19.8876670561730861663818359375">
        <ele>2181.60009765625</ele>
        <time>2026-06-16T10:37:03.000Z</time>
        <extensions>
          <ns3:TrackPointExtension>
            <ns3:atemp>22.0</ns3:atemp>
          </ns3:TrackPointExtension>
        </extensions>
      </trkpt>
      <trkpt lat="42.6027986593544483184814453125" lon="19.88766252994537353515625">
        <ele>2181</ele>
        <time>2026-06-16T10:37:04.000Z</time>
        <extensions>
          <ns3:TrackPointExtension>
            <ns3:atemp>22.0</ns3:atemp>
          </ns3:TrackPointExtension>
        </extensions>
      </trkpt>
      <trkpt lat="42.6027701608836650848388671875" lon="19.88765775226056575775146484375">
        <ele>2180.199951171875</ele>
        <time>2026-06-16T10:37:05.000Z</time>
        <extensions>
          <ns3:TrackPointExtension>
            <ns3:atemp>22.0</ns3:atemp>
          </ns3:TrackPointExtension>
        </extensions>
      </trkpt>
      <trkpt lat="42.60274627245962619781494140625" lon="19.88764199428260326385498046875">
        <ele>2179.39990234375</ele>
        <time>2026-06-16T10:37:06.000Z</time>
        <extensions>
          <ns3:TrackPointExtension>
            <ns3:atemp>22.0</ns3:atemp>
          </ns3:TrackPointExtension>
        </extensions>
      </trkpt>
      <trkpt lat="42.60273101739585399627685546875" lon="19.88761735148727893829345703125">
        <ele>2178.60009765625</ele>
        <time>2026-06-16T10:37:07.000Z</time>
        <extensions>
          <ns3:TrackPointExtension>
            <ns3:atemp>22.0</ns3:atemp>
          </ns3:TrackPointExtension>
        </extensions>
      </trkpt>
      <trkpt lat="42.60272883810102939605712890625" lon="19.8875922895967960357666015625">
        <ele>2177.800048828125</ele>
        <time>2026-06-16T10:37:08.000Z</time>
        <extensions>
          <ns3:TrackPointExtension>
            <ns3:atemp>22.0</ns3:atemp>
          </ns3:TrackPointExtension>
        </extensions>
      </trkpt>
      <trkpt lat="42.6027282513678073883056640625" lon="19.88756840117275714874267578125">
        <ele>2177.199951171875</ele>
        <time>2026-06-16T10:37:09.000Z</time>
        <extensions>
          <ns3:TrackPointExtension>
            <ns3:atemp>22.0</ns3:atemp>
          </ns3:TrackPointExtension>
        </extensions>
      </trkpt>
      <trkpt lat="42.60272799991071224212646484375" lon="19.88754945807158946990966796875">
        <ele>2176.800048828125</ele>
        <time>2026-06-16T10:37:10.000Z</time>
        <extensions>
          <ns3:TrackPointExtension>
            <ns3:atemp>22.0</ns3:atemp>
          </ns3:TrackPointExtension>
        </extensions>
      </trkpt>
      <trkpt lat="42.6027352921664714813232421875" lon="19.88753269426524639129638671875">
        <ele>2176.39990234375</ele>
        <time>2026-06-16T10:37:11.000Z</time>
        <extensions>
          <ns3:TrackPointExtension>
            <ns3:atemp>22.0</ns3:atemp>
          </ns3:TrackPointExtension>
        </extensions>
      </trkpt>
      <trkpt lat="42.60274208150804042816162109375" lon="19.8875161819159984588623046875">
        <ele>2176</ele>
        <time>2026-06-16T10:37:12.000Z</time>
        <extensions>
          <ns3:TrackPointExtension>
            <ns3:atemp>22.0</ns3:atemp>
          </ns3:TrackPointExtension>
        </extensions>
      </trkpt>
      <trkpt lat="42.60275356471538543701171875" lon="19.88750092685222625732421875">
        <ele>2175.60009765625</ele>
        <time>2026-06-16T10:37:13.000Z</time>
        <extensions>
          <ns3:TrackPointExtension>
            <ns3:atemp>22.0</ns3:atemp>
          </ns3:TrackPointExtension>
        </extensions>
      </trkpt>
      <trkpt lat="42.6027658022940158843994140625" lon="19.88748558796942234039306640625">
        <ele>2175.39990234375</ele>
        <time>2026-06-16T10:37:14.000Z</time>
        <extensions>
          <ns3:TrackPointExtension>
            <ns3:atemp>22.0</ns3:atemp>
          </ns3:TrackPointExtension>
        </extensions>
      </trkpt>
      <trkpt lat="42.6027782075107097625732421875" lon="19.88747234456241130828857421875">
        <ele>2175.39990234375</ele>
        <time>2026-06-16T10:37:15.000Z</time>
        <extensions>
          <ns3:TrackPointExtension>
            <ns3:atemp>22.0</ns3:atemp>
          </ns3:TrackPointExtension>
        </extensions>
      </trkpt>
      <trkpt lat="42.60279673151671886444091796875" lon="19.887461364269256591796875">
        <ele>2175.39990234375</ele>
        <time>2026-06-16T10:37:16.000Z</time>
        <extensions>
          <ns3:TrackPointExtension>
            <ns3:atemp>22.0</ns3:atemp>
          </ns3:TrackPointExtension>
        </extensions>
      </trkpt>
      <trkpt lat="42.60281584225594997406005859375" lon="19.8874554969370365142822265625">
        <ele>2175.60009765625</ele>
        <time>2026-06-16T10:37:17.000Z</time>
        <extensions>
          <ns3:TrackPointExtension>
            <ns3:atemp>22.0</ns3:atemp>
          </ns3:TrackPointExtension>
        </extensions>
      </trkpt>
      <trkpt lat="42.602839730679988861083984375" lon="19.8874546587467193603515625">
        <ele>2175.60009765625</ele>
        <time>2026-06-16T10:37:18.000Z</time>
        <extensions>
          <ns3:TrackPointExtension>
            <ns3:atemp>22.0</ns3:atemp>
          </ns3:TrackPointExtension>
        </extensions>
      </trkpt>
      <trkpt lat="42.60285858996212482452392578125" lon="19.88746161572635173797607421875">
        <ele>2175.800048828125</ele>
        <time>2026-06-16T10:37:19.000Z</time>
        <extensions>
          <ns3:TrackPointExtension>
            <ns3:atemp>22.0</ns3:atemp>
          </ns3:TrackPointExtension>
        </extensions>
      </trkpt>
      <trkpt lat="42.60287619195878505706787109375" lon="19.8874712549149990081787109375">
        <ele>2176</ele>
        <time>2026-06-16T10:37:20.000Z</time>
        <extensions>
          <ns3:TrackPointExtension>
            <ns3:atemp>22.0</ns3:atemp>
          </ns3:TrackPointExtension>
        </extensions>
      </trkpt>
      <trkpt lat="42.60289303958415985107421875" lon="19.88747812807559967041015625">
        <ele>2176.199951171875</ele>
        <time>2026-06-16T10:37:21.000Z</time>
        <extensions>
          <ns3:TrackPointExtension>
            <ns3:atemp>22.0</ns3:atemp>
          </ns3:TrackPointExtension>
        </extensions>
      </trkpt>
      <trkpt lat="42.6029123179614543914794921875" lon="19.88748081028461456298828125">
        <ele>2176.39990234375</ele>
        <time>2026-06-16T10:37:22.000Z</time>
        <extensions>
          <ns3:TrackPointExtension>
            <ns3:atemp>22.0</ns3:atemp>
          </ns3:TrackPointExtension>
        </extensions>
      </trkpt>
      <trkpt lat="42.6029324345290660858154296875" lon="19.88748156465590000152587890625">
        <ele>2176.800048828125</ele>
        <time>2026-06-16T10:37:23.000Z</time>
        <extensions>
          <ns3:TrackPointExtension>
            <ns3:atemp>22.0</ns3:atemp>
          </ns3:TrackPointExtension>
        </extensions>
      </trkpt>
      <trkpt lat="42.6029515452682971954345703125" lon="19.88748013973236083984375">
        <ele>2177.199951171875</ele>
        <time>2026-06-16T10:37:24.000Z</time>
        <extensions>
          <ns3:TrackPointExtension>
            <ns3:atemp>22.0</ns3:atemp>
          </ns3:TrackPointExtension>
        </extensions>
      </trkpt>
      <trkpt lat="42.60297157801687717437744140625" lon="19.8874787986278533935546875">
        <ele>2177.60009765625</ele>
        <time>2026-06-16T10:37:25.000Z</time>
        <extensions>
          <ns3:TrackPointExtension>
            <ns3:atemp>22.0</ns3:atemp>
          </ns3:TrackPointExtension>
        </extensions>
      </trkpt>
      <trkpt lat="42.60298901237547397613525390625" lon="19.88747066818177700042724609375">
        <ele>2178</ele>
        <time>2026-06-16T10:37:26.000Z</time>
        <extensions>
          <ns3:TrackPointExtension>
            <ns3:atemp>22.0</ns3:atemp>
          </ns3:TrackPointExtension>
        </extensions>
      </trkpt>
      <trkpt lat="42.6030088774859905242919921875" lon="19.8874645493924617767333984375">
        <ele>2178.199951171875</ele>
        <time>2026-06-16T10:37:27.000Z</time>
        <extensions>
          <ns3:TrackPointExtension>
            <ns3:atemp>22.0</ns3:atemp>
          </ns3:TrackPointExtension>
        </extensions>
      </trkpt>
      <trkpt lat="42.603029496967792510986328125" lon="19.88746044225990772247314453125">
        <ele>2178.60009765625</ele>
        <time>2026-06-16T10:37:28.000Z</time>
        <extensions>
          <ns3:TrackPointExtension>
            <ns3:atemp>22.0</ns3:atemp>
          </ns3:TrackPointExtension>
        </extensions>
      </trkpt>
      <trkpt lat="42.60304751805961132049560546875" lon="19.88745457492768764495849609375">
        <ele>2179</ele>
        <time>2026-06-16T10:37:29.000Z</time>
        <extensions>
          <ns3:TrackPointExtension>
            <ns3:atemp>22.0</ns3:atemp>
          </ns3:TrackPointExtension>
        </extensions>
      </trkpt>
      <trkpt lat="42.6030662097036838531494140625" lon="19.8874477855861186981201171875">
        <ele>2179.199951171875</ele>
        <time>2026-06-16T10:37:30.000Z</time>
        <extensions>
          <ns3:TrackPointExtension>
            <ns3:atemp>22.0</ns3:atemp>
          </ns3:TrackPointExtension>
        </extensions>
      </trkpt>
      <trkpt lat="42.60308372788131237030029296875" lon="19.887438900768756866455078125">
        <ele>2179.60009765625</ele>
        <time>2026-06-16T10:37:31.000Z</time>
        <extensions>
          <ns3:TrackPointExtension>
            <ns3:atemp>22.0</ns3:atemp>
          </ns3:TrackPointExtension>
        </extensions>
      </trkpt>
      <trkpt lat="42.60310535319149494171142578125" lon="19.88742825575172901153564453125">
        <ele>2179.800048828125</ele>
        <time>2026-06-16T10:37:32.000Z</time>
        <extensions>
          <ns3:TrackPointExtension>
            <ns3:atemp>22.0</ns3:atemp>
          </ns3:TrackPointExtension>
        </extensions>
      </trkpt>
      <trkpt lat="42.60312647558748722076416015625" lon="19.88742507062852382659912109375">
        <ele>2179.800048828125</ele>
        <time>2026-06-16T10:37:33.000Z</time>
        <extensions>
          <ns3:TrackPointExtension>
            <ns3:atemp>22.0</ns3:atemp>
          </ns3:TrackPointExtension>
        </extensions>
      </trkpt>
      <trkpt lat="42.60314675979316234588623046875" lon="19.88742087967693805694580078125">
        <ele>2180</ele>
        <time>2026-06-16T10:37:34.000Z</time>
        <extensions>
          <ns3:TrackPointExtension>
            <ns3:atemp>22.0</ns3:atemp>
          </ns3:TrackPointExtension>
        </extensions>
      </trkpt>
      <trkpt lat="42.60316838510334491729736328125" lon="19.88741920329630374908447265625">
        <ele>2180.199951171875</ele>
        <time>2026-06-16T10:37:35.000Z</time>
        <extensions>
          <ns3:TrackPointExtension>
            <ns3:atemp>22.0</ns3:atemp>
          </ns3:TrackPointExtension>
        </extensions>
      </trkpt>
      <trkpt lat="42.60319386608898639678955078125" lon="19.88741283304989337921142578125">
        <ele>2180.199951171875</ele>
        <time>2026-06-16T10:37:36.000Z</time>
        <extensions>
          <ns3:TrackPointExtension>
            <ns3:atemp>22.0</ns3:atemp>
          </ns3:TrackPointExtension>
        </extensions>
      </trkpt>
      <trkpt lat="42.60322068817913532257080078125" lon="19.88741375505924224853515625">
        <ele>2180.199951171875</ele>
        <time>2026-06-16T10:37:37.000Z</time>
        <extensions>
          <ns3:TrackPointExtension>
            <ns3:atemp>22.0</ns3:atemp>
          </ns3:TrackPointExtension>
        </extensions>
      </trkpt>
      <trkpt lat="42.60324382223188877105712890625" lon="19.88741300068795680999755859375">
        <ele>2180.199951171875</ele>
        <time>2026-06-16T10:37:38.000Z</time>
        <extensions>
          <ns3:TrackPointExtension>
            <ns3:atemp>22.0</ns3:atemp>
          </ns3:TrackPointExtension>
        </extensions>
      </trkpt>
      <trkpt lat="42.603262178599834442138671875" lon="19.887414090335369110107421875">
        <ele>2180.199951171875</ele>
        <time>2026-06-16T10:37:39.000Z</time>
        <extensions>
          <ns3:TrackPointExtension>
            <ns3:atemp>22.0</ns3:atemp>
          </ns3:TrackPointExtension>
        </extensions>
      </trkpt>
      <trkpt lat="42.60327885858714580535888671875" lon="19.8874152638018131256103515625">
        <ele>2180.199951171875</ele>
        <time>2026-06-16T10:37:40.000Z</time>
        <extensions>
          <ns3:TrackPointExtension>
            <ns3:atemp>22.0</ns3:atemp>
          </ns3:TrackPointExtension>
        </extensions>
      </trkpt>
      <trkpt lat="42.6032973825931549072265625" lon="19.8874102346599102020263671875">
        <ele>2180.199951171875</ele>
        <time>2026-06-16T10:37:41.000Z</time>
        <extensions>
          <ns3:TrackPointExtension>
            <ns3:atemp>22.0</ns3:atemp>
          </ns3:TrackPointExtension>
        </extensions>
      </trkpt>
      <trkpt lat="42.60332210920751094818115234375" lon="19.88739456050097942352294921875">
        <ele>2180</ele>
        <time>2026-06-16T10:37:42.000Z</time>
        <extensions>
          <ns3:TrackPointExtension>
            <ns3:atemp>22.0</ns3:atemp>
          </ns3:TrackPointExtension>
        </extensions>
      </trkpt>
      <trkpt lat="42.60334633290767669677734375" lon="19.88736907951533794403076171875">
        <ele>2179.800048828125</ele>
        <time>2026-06-16T10:37:43.000Z</time>
        <extensions>
          <ns3:TrackPointExtension>
            <ns3:atemp>22.0</ns3:atemp>
          </ns3:TrackPointExtension>
        </extensions>
      </trkpt>
      <trkpt lat="42.60337122716009616851806640625" lon="19.887338317930698394775390625">
        <ele>2179.60009765625</ele>
        <time>2026-06-16T10:37:44.000Z</time>
        <extensions>
          <ns3:TrackPointExtension>
            <ns3:atemp>22.0</ns3:atemp>
          </ns3:TrackPointExtension>
        </extensions>
      </trkpt>
      <trkpt lat="42.60339670814573764801025390625" lon="19.88731007091701030731201171875">
        <ele>2179.39990234375</ele>
        <time>2026-06-16T10:37:45.000Z</time>
        <extensions>
          <ns3:TrackPointExtension>
            <ns3:atemp>22.0</ns3:atemp>
          </ns3:TrackPointExtension>
        </extensions>
      </trkpt>
      <trkpt lat="42.60342009365558624267578125" lon="19.88727989606559276580810546875">
        <ele>2179.199951171875</ele>
        <time>2026-06-16T10:37:46.000Z</time>
        <extensions>
          <ns3:TrackPointExtension>
            <ns3:atemp>22.0</ns3:atemp>
          </ns3:TrackPointExtension>
        </extensions>
      </trkpt>
      <trkpt lat="42.60343895293772220611572265625" lon="19.8872561752796173095703125">
        <ele>2179.199951171875</ele>
        <time>2026-06-16T10:37:47.000Z</time>
        <extensions>
          <ns3:TrackPointExtension>
            <ns3:atemp>22.0</ns3:atemp>
          </ns3:TrackPointExtension>
        </extensions>
      </trkpt>
      <trkpt lat="42.6034558005630970001220703125" lon="19.8872328735888004302978515625">
        <ele>2179</ele>
        <time>2026-06-16T10:37:48.000Z</time>
        <extensions>
          <ns3:TrackPointExtension>
            <ns3:atemp>22.0</ns3:atemp>
          </ns3:TrackPointExtension>
        </extensions>
      </trkpt>
      <trkpt lat="42.6034708879888057708740234375" lon="19.88720864988863468170166015625">
        <ele>2179</ele>
        <time>2026-06-16T10:37:49.000Z</time>
        <extensions>
          <ns3:TrackPointExtension>
            <ns3:atemp>22.0</ns3:atemp>
          </ns3:TrackPointExtension>
        </extensions>
      </trkpt>
      <trkpt lat="42.60348756797611713409423828125" lon="19.88718065433204174041748046875">
        <ele>2179</ele>
        <time>2026-06-16T10:37:50.000Z</time>
        <extensions>
          <ns3:TrackPointExtension>
            <ns3:atemp>22.0</ns3:atemp>
          </ns3:TrackPointExtension>
        </extensions>
      </trkpt>
      <trkpt lat="42.6035044156014919281005859375" lon="19.88715249113738536834716796875">
        <ele>2179.199951171875</ele>
        <time>2026-06-16T10:37:51.000Z</time>
        <extensions>
          <ns3:TrackPointExtension>
            <ns3:atemp>22.0</ns3:atemp>
          </ns3:TrackPointExtension>
        </extensions>
      </trkpt>
      <trkpt lat="42.60352293960750102996826171875" lon="19.8871282674372196197509765625">
        <ele>2179.199951171875</ele>
        <time>2026-06-16T10:37:52.000Z</time>
        <extensions>
          <ns3:TrackPointExtension>
            <ns3:atemp>22.0</ns3:atemp>
          </ns3:TrackPointExtension>
        </extensions>
      </trkpt>
      <trkpt lat="42.603545151650905609130859375" lon="19.8871118389070034027099609375">
        <ele>2179.39990234375</ele>
        <time>2026-06-16T10:37:53.000Z</time>
        <extensions>
          <ns3:TrackPointExtension>
            <ns3:atemp>22.0</ns3:atemp>
          </ns3:TrackPointExtension>
        </extensions>
      </trkpt>
      <trkpt lat="42.603565268218517303466796875" lon="19.8870925605297088623046875">
        <ele>2179.39990234375</ele>
        <time>2026-06-16T10:37:54.000Z</time>
        <extensions>
          <ns3:TrackPointExtension>
            <ns3:atemp>22.0</ns3:atemp>
          </ns3:TrackPointExtension>
        </extensions>
      </trkpt>
      <trkpt lat="42.60358639061450958251953125" lon="19.887069426476955413818359375">
        <ele>2179.60009765625</ele>
        <time>2026-06-16T10:37:55.000Z</time>
        <extensions>
          <ns3:TrackPointExtension>
            <ns3:atemp>22.0</ns3:atemp>
          </ns3:TrackPointExtension>
        </extensions>
      </trkpt>
      <trkpt lat="42.60360340587794780731201171875" lon="19.88704386167228221893310546875">
        <ele>2179.800048828125</ele>
        <time>2026-06-16T10:37:56.000Z</time>
        <extensions>
          <ns3:TrackPointExtension>
            <ns3:atemp>22.0</ns3:atemp>
          </ns3:TrackPointExtension>
        </extensions>
      </trkpt>
      <trkpt lat="42.60362100787460803985595703125" lon="19.88702290691435337066650390625">
        <ele>2180</ele>
        <time>2026-06-16T10:37:57.000Z</time>
        <extensions>
          <ns3:TrackPointExtension>
            <ns3:atemp>22.0</ns3:atemp>
          </ns3:TrackPointExtension>
        </extensions>
      </trkpt>
      <trkpt lat="42.6036368496716022491455078125" lon="19.887003041803836822509765625">
        <ele>2180.199951171875</ele>
        <time>2026-06-16T10:37:58.000Z</time>
        <extensions>
          <ns3:TrackPointExtension>
            <ns3:atemp>22.0</ns3:atemp>
          </ns3:TrackPointExtension>
        </extensions>
      </trkpt>
      <trkpt lat="42.603649087250232696533203125" lon="19.886978901922702789306640625">
        <ele>2180.39990234375</ele>
        <time>2026-06-16T10:37:59.000Z</time>
        <extensions>
          <ns3:TrackPointExtension>
            <ns3:atemp>22.0</ns3:atemp>
          </ns3:TrackPointExtension>
        </extensions>
      </trkpt>
      <trkpt lat="42.60365487076342105865478515625" lon="19.88695467822253704071044921875">
        <ele>2180.800048828125</ele>
        <time>2026-06-16T10:38:00.000Z</time>
        <extensions>
          <ns3:TrackPointExtension>
            <ns3:atemp>22.0</ns3:atemp>
          </ns3:TrackPointExtension>
        </extensions>
      </trkpt>
      <trkpt lat="42.603655122220516204833984375" lon="19.88693229854106903076171875">
        <ele>2181.199951171875</ele>
        <time>2026-06-16T10:38:01.000Z</time>
        <extensions>
          <ns3:TrackPointExtension>
            <ns3:atemp>22.0</ns3:atemp>
          </ns3:TrackPointExtension>
        </extensions>
      </trkpt>
      <trkpt lat="42.60365436784923076629638671875" lon="19.88690556026995182037353515625">
        <ele>2181.39990234375</ele>
        <time>2026-06-16T10:38:02.000Z</time>
        <extensions>
          <ns3:TrackPointExtension>
            <ns3:atemp>22.0</ns3:atemp>
          </ns3:TrackPointExtension>
        </extensions>
      </trkpt>
      <trkpt lat="42.6036567986011505126953125" lon="19.8868788219988346099853515625">
        <ele>2181.60009765625</ele>
        <time>2026-06-16T10:38:03.000Z</time>
        <extensions>
          <ns3:TrackPointExtension>
            <ns3:atemp>22.0</ns3:atemp>
          </ns3:TrackPointExtension>
        </extensions>
      </trkpt>
      <trkpt lat="42.60365839116275310516357421875" lon="19.88684940151870250701904296875">
        <ele>2182</ele>
        <time>2026-06-16T10:38:04.000Z</time>
        <extensions>
          <ns3:TrackPointExtension>
            <ns3:atemp>22.0</ns3:atemp>
          </ns3:TrackPointExtension>
        </extensions>
      </trkpt>
      <trkpt lat="42.60365637950599193572998046875" lon="19.8868224956095218658447265625">
        <ele>2182.199951171875</ele>
        <time>2026-06-16T10:38:05.000Z</time>
        <extensions>
          <ns3:TrackPointExtension>
            <ns3:atemp>22.0</ns3:atemp>
          </ns3:TrackPointExtension>
        </extensions>
      </trkpt>
      <trkpt lat="42.6036502607166767120361328125" lon="19.886796511709690093994140625">
        <ele>2182.199951171875</ele>
        <time>2026-06-16T10:38:06.000Z</time>
        <extensions>
          <ns3:TrackPointExtension>
            <ns3:atemp>22.0</ns3:atemp>
          </ns3:TrackPointExtension>
        </extensions>
      </trkpt>
      <trkpt lat="42.6036432199180126190185546875" lon="19.88677128218114376068115234375">
        <ele>2182.39990234375</ele>
        <time>2026-06-16T10:38:07.000Z</time>
        <extensions>
          <ns3:TrackPointExtension>
            <ns3:atemp>22.0</ns3:atemp>
          </ns3:TrackPointExtension>
        </extensions>
      </trkpt>
      <trkpt lat="42.60364162735641002655029296875" lon="19.8867473937571048736572265625">
        <ele>2182.60009765625</ele>
        <time>2026-06-16T10:38:08.000Z</time>
        <extensions>
          <ns3:TrackPointExtension>
            <ns3:atemp>22.0</ns3:atemp>
          </ns3:TrackPointExtension>
        </extensions>
      </trkpt>
      <trkpt lat="42.6036459021270275115966796875" lon="19.88672048784792423248291015625">
        <ele>2182.800048828125</ele>
        <time>2026-06-16T10:38:09.000Z</time>
        <extensions>
          <ns3:TrackPointExtension>
            <ns3:atemp>22.0</ns3:atemp>
          </ns3:TrackPointExtension>
        </extensions>
      </trkpt>
      <trkpt lat="42.6036489196121692657470703125" lon="19.8866950906813144683837890625">
        <ele>2183</ele>
        <time>2026-06-16T10:38:10.000Z</time>
        <extensions>
          <ns3:TrackPointExtension>
            <ns3:atemp>22.0</ns3:atemp>
          </ns3:TrackPointExtension>
        </extensions>
      </trkpt>
      <trkpt lat="42.60365420021116733551025390625" lon="19.886668436229228973388671875">
        <ele>2183.39990234375</ele>
        <time>2026-06-16T10:38:11.000Z</time>
        <extensions>
          <ns3:TrackPointExtension>
            <ns3:atemp>21.0</ns3:atemp>
          </ns3:TrackPointExtension>
        </extensions>
      </trkpt>
      <trkpt lat="42.6036619953811168670654296875" lon="19.88664521835744380950927734375">
        <ele>2183.800048828125</ele>
        <time>2026-06-16T10:38:12.000Z</time>
        <extensions>
          <ns3:TrackPointExtension>
            <ns3:atemp>21.0</ns3:atemp>
          </ns3:TrackPointExtension>
        </extensions>
      </trkpt>
      <trkpt lat="42.60367213748395442962646484375" lon="19.886621497571468353271484375">
        <ele>2184</ele>
        <time>2026-06-16T10:38:13.000Z</time>
        <extensions>
          <ns3:TrackPointExtension>
            <ns3:atemp>21.0</ns3:atemp>
          </ns3:TrackPointExtension>
        </extensions>
      </trkpt>
      <trkpt lat="42.603680603206157684326171875" lon="19.88659509457647800445556640625">
        <ele>2184.39990234375</ele>
        <time>2026-06-16T10:38:14.000Z</time>
        <extensions>
          <ns3:TrackPointExtension>
            <ns3:atemp>21.0</ns3:atemp>
          </ns3:TrackPointExtension>
        </extensions>
      </trkpt>
      <trkpt lat="42.60368890129029750823974609375" lon="19.88656818866729736328125">
        <ele>2184.800048828125</ele>
        <time>2026-06-16T10:38:15.000Z</time>
        <extensions>
          <ns3:TrackPointExtension>
            <ns3:atemp>21.0</ns3:atemp>
          </ns3:TrackPointExtension>
        </extensions>
      </trkpt>
      <trkpt lat="42.60369845665991306304931640625" lon="19.8865468986332416534423828125">
        <ele>2185</ele>
        <time>2026-06-16T10:38:16.000Z</time>
        <extensions>
          <ns3:TrackPointExtension>
            <ns3:atemp>21.0</ns3:atemp>
          </ns3:TrackPointExtension>
        </extensions>
      </trkpt>
      <trkpt lat="42.60370784439146518707275390625" lon="19.8865247704088687896728515625">
        <ele>2185.60009765625</ele>
        <time>2026-06-16T10:38:17.000Z</time>
        <extensions>
          <ns3:TrackPointExtension>
            <ns3:atemp>21.0</ns3:atemp>
          </ns3:TrackPointExtension>
        </extensions>
      </trkpt>
      <trkpt lat="42.60371589101850986480712890625" lon="19.8865091800689697265625">
        <ele>2185.800048828125</ele>
        <time>2026-06-16T10:38:18.000Z</time>
        <extensions>
          <ns3:TrackPointExtension>
            <ns3:atemp>21.0</ns3:atemp>
          </ns3:TrackPointExtension>
        </extensions>
      </trkpt>
      <trkpt lat="42.60372997261583805084228515625" lon="19.8864962719380855560302734375">
        <ele>2186.199951171875</ele>
        <time>2026-06-16T10:38:19.000Z</time>
        <extensions>
          <ns3:TrackPointExtension>
            <ns3:atemp>21.0</ns3:atemp>
          </ns3:TrackPointExtension>
        </extensions>
      </trkpt>
      <trkpt lat="42.603744305670261383056640625" lon="19.8864915780723094940185546875">
        <ele>2186.60009765625</ele>
        <time>2026-06-16T10:38:20.000Z</time>
        <extensions>
          <ns3:TrackPointExtension>
            <ns3:atemp>21.0</ns3:atemp>
          </ns3:TrackPointExtension>
        </extensions>
      </trkpt>
      <trkpt lat="42.6037552021443843841552734375" lon="19.88648529164493083953857421875">
        <ele>2186.800048828125</ele>
        <time>2026-06-16T10:38:21.000Z</time>
        <extensions>
          <ns3:TrackPointExtension>
            <ns3:atemp>21.0</ns3:atemp>
          </ns3:TrackPointExtension>
        </extensions>
      </trkpt>
      <trkpt lat="42.6037748157978057861328125" lon="19.886476658284664154052734375">
        <ele>2187.199951171875</ele>
        <time>2026-06-16T10:38:22.000Z</time>
        <extensions>
          <ns3:TrackPointExtension>
            <ns3:atemp>21.0</ns3:atemp>
          </ns3:TrackPointExtension>
        </extensions>
      </trkpt>
      <trkpt lat="42.6037974469363689422607421875" lon="19.886475987732410430908203125">
        <ele>2187.39990234375</ele>
        <time>2026-06-16T10:38:23.000Z</time>
        <extensions>
          <ns3:TrackPointExtension>
            <ns3:atemp>21.0</ns3:atemp>
          </ns3:TrackPointExtension>
        </extensions>
      </trkpt>
      <trkpt lat="42.60381530039012432098388671875" lon="19.88648612983524799346923828125">
        <ele>2187.60009765625</ele>
        <time>2026-06-16T10:38:24.000Z</time>
        <extensions>
          <ns3:TrackPointExtension>
            <ns3:atemp>21.0</ns3:atemp>
          </ns3:TrackPointExtension>
        </extensions>
      </trkpt>
      <trkpt lat="42.603828795254230499267578125" lon="19.88649836741387844085693359375">
        <ele>2187.800048828125</ele>
        <time>2026-06-16T10:38:25.000Z</time>
        <extensions>
          <ns3:TrackPointExtension>
            <ns3:atemp>21.0</ns3:atemp>
          </ns3:TrackPointExtension>
        </extensions>
      </trkpt>
      <trkpt lat="42.603840194642543792724609375" lon="19.8865187354385852813720703125">
        <ele>2188</ele>
        <time>2026-06-16T10:38:26.000Z</time>
        <extensions>
          <ns3:TrackPointExtension>
            <ns3:atemp>21.0</ns3:atemp>
          </ns3:TrackPointExtension>
        </extensions>
      </trkpt>
      <trkpt lat="42.6038539409637451171875" lon="19.88653943873941898345947265625">
        <ele>2188.199951171875</ele>
        <time>2026-06-16T10:38:27.000Z</time>
        <extensions>
          <ns3:TrackPointExtension>
            <ns3:atemp>21.0</ns3:atemp>
          </ns3:TrackPointExtension>
        </extensions>
      </trkpt>
      <trkpt lat="42.60386802256107330322265625" lon="19.88656206987798213958740234375">
        <ele>2188.39990234375</ele>
        <time>2026-06-16T10:38:28.000Z</time>
        <extensions>
          <ns3:TrackPointExtension>
            <ns3:atemp>21.0</ns3:atemp>
          </ns3:TrackPointExtension>
        </extensions>
      </trkpt>
      <trkpt lat="42.60387447662651538848876953125" lon="19.8865888081490993499755859375">
        <ele>2188.800048828125</ele>
        <time>2026-06-16T10:38:29.000Z</time>
        <extensions>
          <ns3:TrackPointExtension>
            <ns3:atemp>21.0</ns3:atemp>
          </ns3:TrackPointExtension>
        </extensions>
      </trkpt>
      <trkpt lat="42.6038832776248455047607421875" lon="19.88661311566829681396484375">
        <ele>2189</ele>
        <time>2026-06-16T10:38:30.000Z</time>
        <extensions>
          <ns3:TrackPointExtension>
            <ns3:atemp>21.0</ns3:atemp>
          </ns3:TrackPointExtension>
        </extensions>
      </trkpt>
      <trkpt lat="42.6038943417370319366455078125" lon="19.88663381896913051605224609375">
        <ele>2189.199951171875</ele>
        <time>2026-06-16T10:38:31.000Z</time>
        <extensions>
          <ns3:TrackPointExtension>
            <ns3:atemp>21.0</ns3:atemp>
          </ns3:TrackPointExtension>
        </extensions>
      </trkpt>
      <trkpt lat="42.6039067469537258148193359375" lon="19.88665561191737651824951171875">
        <ele>2189.60009765625</ele>
        <time>2026-06-16T10:38:32.000Z</time>
        <extensions>
          <ns3:TrackPointExtension>
            <ns3:atemp>21.0</ns3:atemp>
          </ns3:TrackPointExtension>
        </extensions>
      </trkpt>
      <trkpt lat="42.60392057709395885467529296875" lon="19.8866722919046878814697265625">
        <ele>2189.800048828125</ele>
        <time>2026-06-16T10:38:33.000Z</time>
        <extensions>
          <ns3:TrackPointExtension>
            <ns3:atemp>21.0</ns3:atemp>
          </ns3:TrackPointExtension>
        </extensions>
      </trkpt>
      <trkpt lat="42.60393784381449222564697265625" lon="19.88668377511203289031982421875">
        <ele>2190</ele>
        <time>2026-06-16T10:38:34.000Z</time>
        <extensions>
          <ns3:TrackPointExtension>
            <ns3:atemp>21.0</ns3:atemp>
          </ns3:TrackPointExtension>
        </extensions>
      </trkpt>
      <trkpt lat="42.6039570383727550506591796875" lon="19.8866971023380756378173828125">
        <ele>2190.39990234375</ele>
        <time>2026-06-16T10:38:35.000Z</time>
        <extensions>
          <ns3:TrackPointExtension>
            <ns3:atemp>21.0</ns3:atemp>
          </ns3:TrackPointExtension>
        </extensions>
      </trkpt>
      <trkpt lat="42.6039758138358592987060546875" lon="19.88671143539249897003173828125">
        <ele>2190.800048828125</ele>
        <time>2026-06-16T10:38:36.000Z</time>
        <extensions>
          <ns3:TrackPointExtension>
            <ns3:atemp>21.0</ns3:atemp>
          </ns3:TrackPointExtension>
        </extensions>
      </trkpt>
      <trkpt lat="42.60398981161415576934814453125" lon="19.88672845065593719482421875">
        <ele>2191</ele>
        <time>2026-06-16T10:38:37.000Z</time>
        <extensions>
          <ns3:TrackPointExtension>
            <ns3:atemp>21.0</ns3:atemp>
          </ns3:TrackPointExtension>
        </extensions>
      </trkpt>
      <trkpt lat="42.60400070808827877044677734375" lon="19.88674345426261425018310546875">
        <ele>2191.39990234375</ele>
        <time>2026-06-16T10:38:38.000Z</time>
        <extensions>
          <ns3:TrackPointExtension>
            <ns3:atemp>21.0</ns3:atemp>
          </ns3:TrackPointExtension>
        </extensions>
      </trkpt>
      <trkpt lat="42.6040147058665752410888671875" lon="19.8867571167647838592529296875">
        <ele>2191.60009765625</ele>
        <time>2026-06-16T10:38:39.000Z</time>
        <extensions>
          <ns3:TrackPointExtension>
            <ns3:atemp>21.0</ns3:atemp>
          </ns3:TrackPointExtension>
        </extensions>
      </trkpt>
      <trkpt lat="42.60403306223452091217041015625" lon="19.886771701276302337646484375">
        <ele>2192</ele>
        <time>2026-06-16T10:38:40.000Z</time>
        <extensions>
          <ns3:TrackPointExtension>
            <ns3:atemp>21.0</ns3:atemp>
          </ns3:TrackPointExtension>
        </extensions>
      </trkpt>
      <trkpt lat="42.6040492393076419830322265625" lon="19.886782430112361907958984375">
        <ele>2192.39990234375</ele>
        <time>2026-06-16T10:38:41.000Z</time>
        <extensions>
          <ns3:TrackPointExtension>
            <ns3:atemp>21.0</ns3:atemp>
          </ns3:TrackPointExtension>
        </extensions>
      </trkpt>
      <trkpt lat="42.604063488543033599853515625" lon="19.886789135634899139404296875">
        <ele>2192.800048828125</ele>
        <time>2026-06-16T10:38:42.000Z</time>
        <extensions>
          <ns3:TrackPointExtension>
            <ns3:atemp>21.0</ns3:atemp>
          </ns3:TrackPointExtension>
        </extensions>
      </trkpt>
      <trkpt lat="42.60408285073935985565185546875" lon="19.886797182261943817138671875">
        <ele>2193</ele>
        <time>2026-06-16T10:38:43.000Z</time>
        <extensions>
          <ns3:TrackPointExtension>
            <ns3:atemp>21.0</ns3:atemp>
          </ns3:TrackPointExtension>
        </extensions>
      </trkpt>
      <trkpt lat="42.604100368916988372802734375" lon="19.88680061884224414825439453125">
        <ele>2193.39990234375</ele>
        <time>2026-06-16T10:38:44.000Z</time>
        <extensions>
          <ns3:TrackPointExtension>
            <ns3:atemp>21.0</ns3:atemp>
          </ns3:TrackPointExtension>
        </extensions>
      </trkpt>
      <trkpt lat="42.60411788709461688995361328125" lon="19.8868037201464176177978515625">
        <ele>2193.800048828125</ele>
        <time>2026-06-16T10:38:45.000Z</time>
        <extensions>
          <ns3:TrackPointExtension>
            <ns3:atemp>21.0</ns3:atemp>
          </ns3:TrackPointExtension>
        </extensions>
      </trkpt>
      <trkpt lat="42.60412274859845638275146484375" lon="19.88680313341319561004638671875">
        <ele>2194.199951171875</ele>
        <time>2026-06-16T10:38:46.000Z</time>
        <extensions>
          <ns3:TrackPointExtension>
            <ns3:atemp>21.0</ns3:atemp>
          </ns3:TrackPointExtension>
        </extensions>
      </trkpt>
      <trkpt lat="42.6041213236749172210693359375" lon="19.88679944537580013275146484375">
        <ele>2194.39990234375</ele>
        <time>2026-06-16T10:38:47.000Z</time>
        <extensions>
          <ns3:TrackPointExtension>
            <ns3:atemp>21.0</ns3:atemp>
          </ns3:TrackPointExtension>
        </extensions>
      </trkpt>
      <trkpt lat="42.6041213236749172210693359375" lon="19.8867993615567684173583984375">
        <ele>2194.60009765625</ele>
        <time>2026-06-16T10:38:48.000Z</time>
        <extensions>
          <ns3:TrackPointExtension>
            <ns3:atemp>21.0</ns3:atemp>
          </ns3:TrackPointExtension>
        </extensions>
      </trkpt>
      <trkpt lat="42.6041213236749172210693359375" lon="19.8867993615567684173583984375">
        <ele>2194.800048828125</ele>
        <time>2026-06-16T10:38:49.000Z</time>
        <extensions>
          <ns3:TrackPointExtension>
            <ns3:atemp>21.0</ns3:atemp>
          </ns3:TrackPointExtension>
        </extensions>
      </trkpt>
      <trkpt lat="42.6041213236749172210693359375" lon="19.8867993615567684173583984375">
        <ele>2195</ele>
        <time>2026-06-16T10:38:50.000Z</time>
        <extensions>
          <ns3:TrackPointExtension>
            <ns3:atemp>21.0</ns3:atemp>
          </ns3:TrackPointExtension>
        </extensions>
      </trkpt>
      <trkpt lat="42.6041213236749172210693359375" lon="19.8867993615567684173583984375">
        <ele>2195.199951171875</ele>
        <time>2026-06-16T10:38:51.000Z</time>
        <extensions>
          <ns3:TrackPointExtension>
            <ns3:atemp>21.0</ns3:atemp>
          </ns3:TrackPointExtension>
        </extensions>
      </trkpt>
      <trkpt lat="42.6041213236749172210693359375" lon="19.8867993615567684173583984375">
        <ele>2195.199951171875</ele>
        <time>2026-06-16T10:38:52.000Z</time>
        <extensions>
          <ns3:TrackPointExtension>
            <ns3:atemp>21.0</ns3:atemp>
          </ns3:TrackPointExtension>
        </extensions>
      </trkpt>
      <trkpt lat="42.6041213236749172210693359375" lon="19.8867993615567684173583984375">
        <ele>2195.199951171875</ele>
        <time>2026-06-16T10:38:53.000Z</time>
        <extensions>
          <ns3:TrackPointExtension>
            <ns3:atemp>21.0</ns3:atemp>
          </ns3:TrackPointExtension>
        </extensions>
      </trkpt>
      <trkpt lat="42.6041213236749172210693359375" lon="19.8867993615567684173583984375">
        <ele>2195.199951171875</ele>
        <time>2026-06-16T10:38:54.000Z</time>
        <extensions>
          <ns3:TrackPointExtension>
            <ns3:atemp>21.0</ns3:atemp>
          </ns3:TrackPointExtension>
        </extensions>
      </trkpt>
      <trkpt lat="42.60412123985588550567626953125" lon="19.886798523366451263427734375">
        <ele>2195.199951171875</ele>
        <time>2026-06-16T10:38:55.000Z</time>
        <extensions>
          <ns3:TrackPointExtension>
            <ns3:atemp>21.0</ns3:atemp>
          </ns3:TrackPointExtension>
        </extensions>
      </trkpt>
      <trkpt lat="42.6041213236749172210693359375" lon="19.8867993615567684173583984375">
        <ele>2195.199951171875</ele>
        <time>2026-06-16T10:38:56.000Z</time>
        <extensions>
          <ns3:TrackPointExtension>
            <ns3:atemp>21.0</ns3:atemp>
          </ns3:TrackPointExtension>
        </extensions>
      </trkpt>
      <trkpt lat="42.6041213236749172210693359375" lon="19.8867993615567684173583984375">
        <ele>2195.199951171875</ele>
        <time>2026-06-16T10:38:57.000Z</time>
        <extensions>
          <ns3:TrackPointExtension>
            <ns3:atemp>21.0</ns3:atemp>
          </ns3:TrackPointExtension>
        </extensions>
      </trkpt>
      <trkpt lat="42.6041213236749172210693359375" lon="19.8867993615567684173583984375">
        <ele>2195.199951171875</ele>
        <time>2026-06-16T10:38:58.000Z</time>
        <extensions>
          <ns3:TrackPointExtension>
            <ns3:atemp>21.0</ns3:atemp>
          </ns3:TrackPointExtension>
        </extensions>
      </trkpt>
      <trkpt lat="42.6041213236749172210693359375" lon="19.8867993615567684173583984375">
        <ele>2195.199951171875</ele>
        <time>2026-06-16T10:38:59.000Z</time>
        <extensions>
          <ns3:TrackPointExtension>
            <ns3:atemp>21.0</ns3:atemp>
          </ns3:TrackPointExtension>
        </extensions>
      </trkpt>
      <trkpt lat="42.6041213236749172210693359375" lon="19.8867993615567684173583984375">
        <ele>2195.199951171875</ele>
        <time>2026-06-16T10:39:00.000Z</time>
        <extensions>
          <ns3:TrackPointExtension>
            <ns3:atemp>21.0</ns3:atemp>
          </ns3:TrackPointExtension>
        </extensions>
      </trkpt>
      <trkpt lat="42.6041213236749172210693359375" lon="19.8867993615567684173583984375">
        <ele>2195.39990234375</ele>
        <time>2026-06-16T10:39:01.000Z</time>
        <extensions>
          <ns3:TrackPointExtension>
            <ns3:atemp>21.0</ns3:atemp>
          </ns3:TrackPointExtension>
        </extensions>
      </trkpt>
      <trkpt lat="42.6041213236749172210693359375" lon="19.8867993615567684173583984375">
        <ele>2195.39990234375</ele>
        <time>2026-06-16T10:39:02.000Z</time>
        <extensions>
          <ns3:TrackPointExtension>
            <ns3:atemp>21.0</ns3:atemp>
          </ns3:TrackPointExtension>
        </extensions>
      </trkpt>
      <trkpt lat="42.6041213236749172210693359375" lon="19.8867993615567684173583984375">
        <ele>2195.39990234375</ele>
        <time>2026-06-16T10:39:03.000Z</time>
        <extensions>
          <ns3:TrackPointExtension>
            <ns3:atemp>21.0</ns3:atemp>
          </ns3:TrackPointExtension>
        </extensions>
      </trkpt>
      <trkpt lat="42.6041213236749172210693359375" lon="19.8867993615567684173583984375">
        <ele>2195.39990234375</ele>
        <time>2026-06-16T10:39:04.000Z</time>
        <extensions>
          <ns3:TrackPointExtension>
            <ns3:atemp>21.0</ns3:atemp>
          </ns3:TrackPointExtension>
        </extensions>
      </trkpt>
      <trkpt lat="42.6041240058839321136474609375" lon="19.88679416477680206298828125">
        <ele>2195.39990234375</ele>
        <time>2026-06-16T10:39:05.000Z</time>
        <extensions>
          <ns3:TrackPointExtension>
            <ns3:atemp>21.0</ns3:atemp>
          </ns3:TrackPointExtension>
        </extensions>
      </trkpt>
      <trkpt lat="42.604123838245868682861328125" lon="19.88677279092371463775634765625">
        <ele>2195.39990234375</ele>
        <time>2026-06-16T10:39:06.000Z</time>
        <extensions>
          <ns3:TrackPointExtension>
            <ns3:atemp>21.0</ns3:atemp>
          </ns3:TrackPointExtension>
        </extensions>
      </trkpt>
      <trkpt lat="42.60412928648293018341064453125" lon="19.886753261089324951171875">
        <ele>2195.60009765625</ele>
        <time>2026-06-16T10:39:07.000Z</time>
        <extensions>
          <ns3:TrackPointExtension>
            <ns3:atemp>21.0</ns3:atemp>
          </ns3:TrackPointExtension>
        </extensions>
      </trkpt>
      <trkpt lat="42.6041369140148162841796875" lon="19.88673490472137928009033203125">
        <ele>2195.60009765625</ele>
        <time>2026-06-16T10:39:08.000Z</time>
        <extensions>
          <ns3:TrackPointExtension>
            <ns3:atemp>21.0</ns3:atemp>
          </ns3:TrackPointExtension>
        </extensions>
      </trkpt>
      <trkpt lat="42.60415099561214447021484375" lon="19.8867162130773067474365234375">
        <ele>2195.39990234375</ele>
        <time>2026-06-16T10:39:09.000Z</time>
        <extensions>
          <ns3:TrackPointExtension>
            <ns3:atemp>21.0</ns3:atemp>
          </ns3:TrackPointExtension>
        </extensions>
      </trkpt>
      <trkpt lat="42.6041672565042972564697265625" lon="19.88671177066862583160400390625">
        <ele>2195.39990234375</ele>
        <time>2026-06-16T10:39:10.000Z</time>
        <extensions>
          <ns3:TrackPointExtension>
            <ns3:atemp>21.0</ns3:atemp>
          </ns3:TrackPointExtension>
        </extensions>
      </trkpt>
      <trkpt lat="42.60416633449494838714599609375" lon="19.88670204766094684600830078125">
        <ele>2195.39990234375</ele>
        <time>2026-06-16T10:39:11.000Z</time>
        <extensions>
          <ns3:TrackPointExtension>
            <ns3:atemp>21.0</ns3:atemp>
          </ns3:TrackPointExtension>
        </extensions>
      </trkpt>
      <trkpt lat="42.60416700504720211029052734375" lon="19.88669651560485363006591796875">
        <ele>2195.60009765625</ele>
        <time>2026-06-16T10:39:12.000Z</time>
        <extensions>
          <ns3:TrackPointExtension>
            <ns3:atemp>21.0</ns3:atemp>
          </ns3:TrackPointExtension>
        </extensions>
      </trkpt>
      <trkpt lat="42.60416918434202671051025390625" lon="19.88669450394809246063232421875">
        <ele>2195.800048828125</ele>
        <time>2026-06-16T10:39:13.000Z</time>
        <extensions>
          <ns3:TrackPointExtension>
            <ns3:atemp>21.0</ns3:atemp>
          </ns3:TrackPointExtension>
        </extensions>
      </trkpt>
      <trkpt lat="42.60416918434202671051025390625" lon="19.88669450394809246063232421875">
        <ele>2195.800048828125</ele>
        <time>2026-06-16T10:39:14.000Z</time>
        <extensions>
          <ns3:TrackPointExtension>
            <ns3:atemp>21.0</ns3:atemp>
          </ns3:TrackPointExtension>
        </extensions>
      </trkpt>
      <trkpt lat="42.60416918434202671051025390625" lon="19.88669450394809246063232421875">
        <ele>2195.800048828125</ele>
        <time>2026-06-16T10:39:15.000Z</time>
        <extensions>
          <ns3:TrackPointExtension>
            <ns3:atemp>21.0</ns3:atemp>
          </ns3:TrackPointExtension>
        </extensions>
      </trkpt>
      <trkpt lat="42.60416918434202671051025390625" lon="19.88669450394809246063232421875">
        <ele>2195.800048828125</ele>
        <time>2026-06-16T10:39:16.000Z</time>
        <extensions>
          <ns3:TrackPointExtension>
            <ns3:atemp>21.0</ns3:atemp>
          </ns3:TrackPointExtension>
        </extensions>
      </trkpt>
      <trkpt lat="42.60416918434202671051025390625" lon="19.88669450394809246063232421875">
        <ele>2195.60009765625</ele>
        <time>2026-06-16T10:39:17.000Z</time>
        <extensions>
          <ns3:TrackPointExtension>
            <ns3:atemp>21.0</ns3:atemp>
          </ns3:TrackPointExtension>
        </extensions>
      </trkpt>
      <trkpt lat="42.60416918434202671051025390625" lon="19.88669450394809246063232421875">
        <ele>2195.60009765625</ele>
        <time>2026-06-16T10:39:18.000Z</time>
        <extensions>
          <ns3:TrackPointExtension>
            <ns3:atemp>21.0</ns3:atemp>
          </ns3:TrackPointExtension>
        </extensions>
      </trkpt>
      <trkpt lat="42.60416918434202671051025390625" lon="19.88669450394809246063232421875">
        <ele>2195.39990234375</ele>
        <time>2026-06-16T10:39:19.000Z</time>
        <extensions>
          <ns3:TrackPointExtension>
            <ns3:atemp>21.0</ns3:atemp>
          </ns3:TrackPointExtension>
        </extensions>
      </trkpt>
      <trkpt lat="42.60416918434202671051025390625" lon="19.88669450394809246063232421875">
        <ele>2195.39990234375</ele>
        <time>2026-06-16T10:39:20.000Z</time>
        <extensions>
          <ns3:TrackPointExtension>
            <ns3:atemp>21.0</ns3:atemp>
          </ns3:TrackPointExtension>
        </extensions>
      </trkpt>
      <trkpt lat="42.60416918434202671051025390625" lon="19.88669450394809246063232421875">
        <ele>2195.39990234375</ele>
        <time>2026-06-16T10:39:21.000Z</time>
        <extensions>
          <ns3:TrackPointExtension>
            <ns3:atemp>21.0</ns3:atemp>
          </ns3:TrackPointExtension>
        </extensions>
      </trkpt>
      <trkpt lat="42.60416918434202671051025390625" lon="19.88669450394809246063232421875">
        <ele>2195.39990234375</ele>
        <time>2026-06-16T10:39:22.000Z</time>
        <extensions>
          <ns3:TrackPointExtension>
            <ns3:atemp>21.0</ns3:atemp>
          </ns3:TrackPointExtension>
        </extensions>
      </trkpt>
      <trkpt lat="42.60416918434202671051025390625" lon="19.88669450394809246063232421875">
        <ele>2195.39990234375</ele>
        <time>2026-06-16T10:39:23.000Z</time>
        <extensions>
          <ns3:TrackPointExtension>
            <ns3:atemp>21.0</ns3:atemp>
          </ns3:TrackPointExtension>
        </extensions>
      </trkpt>
      <trkpt lat="42.60416918434202671051025390625" lon="19.88669450394809246063232421875">
        <ele>2195.39990234375</ele>
        <time>2026-06-16T10:39:24.000Z</time>
        <extensions>
          <ns3:TrackPointExtension>
            <ns3:atemp>21.0</ns3:atemp>
          </ns3:TrackPointExtension>
        </extensions>
      </trkpt>
      <trkpt lat="42.60416918434202671051025390625" lon="19.88669450394809246063232421875">
        <ele>2195.39990234375</ele>
        <time>2026-06-16T10:39:25.000Z</time>
        <extensions>
          <ns3:TrackPointExtension>
            <ns3:atemp>21.0</ns3:atemp>
          </ns3:TrackPointExtension>
        </extensions>
      </trkpt>
      <trkpt lat="42.60416918434202671051025390625" lon="19.88669450394809246063232421875">
        <ele>2195.39990234375</ele>
        <time>2026-06-16T10:39:26.000Z</time>
        <extensions>
          <ns3:TrackPointExtension>
            <ns3:atemp>21.0</ns3:atemp>
          </ns3:TrackPointExtension>
        </extensions>
      </trkpt>
      <trkpt lat="42.60416918434202671051025390625" lon="19.88669450394809246063232421875">
        <ele>2195.39990234375</ele>
        <time>2026-06-16T10:39:27.000Z</time>
        <extensions>
          <ns3:TrackPointExtension>
            <ns3:atemp>21.0</ns3:atemp>
          </ns3:TrackPointExtension>
        </extensions>
      </trkpt>
      <trkpt lat="42.60416918434202671051025390625" lon="19.88669450394809246063232421875">
        <ele>2195.39990234375</ele>
        <time>2026-06-16T10:39:28.000Z</time>
        <extensions>
          <ns3:TrackPointExtension>
            <ns3:atemp>21.0</ns3:atemp>
          </ns3:TrackPointExtension>
        </extensions>
      </trkpt>
      <trkpt lat="42.60416918434202671051025390625" lon="19.88669450394809246063232421875">
        <ele>2195.199951171875</ele>
        <time>2026-06-16T10:39:29.000Z</time>
        <extensions>
          <ns3:TrackPointExtension>
            <ns3:atemp>21.0</ns3:atemp>
          </ns3:TrackPointExtension>
        </extensions>
      </trkpt>
      <trkpt lat="42.60416918434202671051025390625" lon="19.88669450394809246063232421875">
        <ele>2195.39990234375</ele>
        <time>2026-06-16T10:39:30.000Z</time>
        <extensions>
          <ns3:TrackPointExtension>
            <ns3:atemp>21.0</ns3:atemp>
          </ns3:TrackPointExtension>
        </extensions>
      </trkpt>
      <trkpt lat="42.60416918434202671051025390625" lon="19.88669450394809246063232421875">
        <ele>2195.39990234375</ele>
        <time>2026-06-16T10:39:31.000Z</time>
        <extensions>
          <ns3:TrackPointExtension>
            <ns3:atemp>21.0</ns3:atemp>
          </ns3:TrackPointExtension>
        </extensions>
      </trkpt>
      <trkpt lat="42.60416918434202671051025390625" lon="19.88669450394809246063232421875">
        <ele>2195.39990234375</ele>
        <time>2026-06-16T10:39:32.000Z</time>
        <extensions>
          <ns3:TrackPointExtension>
            <ns3:atemp>21.0</ns3:atemp>
          </ns3:TrackPointExtension>
        </extensions>
      </trkpt>
      <trkpt lat="42.60416918434202671051025390625" lon="19.88669450394809246063232421875">
        <ele>2195.39990234375</ele>
        <time>2026-06-16T10:39:33.000Z</time>
        <extensions>
          <ns3:TrackPointExtension>
            <ns3:atemp>21.0</ns3:atemp>
          </ns3:TrackPointExtension>
        </extensions>
      </trkpt>
      <trkpt lat="42.60416918434202671051025390625" lon="19.88669450394809246063232421875">
        <ele>2195.199951171875</ele>
        <time>2026-06-16T10:39:34.000Z</time>
        <extensions>
          <ns3:TrackPointExtension>
            <ns3:atemp>21.0</ns3:atemp>
          </ns3:TrackPointExtension>
        </extensions>
      </trkpt>
      <trkpt lat="42.60416918434202671051025390625" lon="19.88669450394809246063232421875">
        <ele>2195.199951171875</ele>
        <time>2026-06-16T10:39:35.000Z</time>
        <extensions>
          <ns3:TrackPointExtension>
            <ns3:atemp>21.0</ns3:atemp>
          </ns3:TrackPointExtension>
        </extensions>
      </trkpt>
      <trkpt lat="42.60416918434202671051025390625" lon="19.88669450394809246063232421875">
        <ele>2195.199951171875</ele>
        <time>2026-06-16T10:39:36.000Z</time>
        <extensions>
          <ns3:TrackPointExtension>
            <ns3:atemp>21.0</ns3:atemp>
          </ns3:TrackPointExtension>
        </extensions>
      </trkpt>
      <trkpt lat="42.60416918434202671051025390625" lon="19.88669450394809246063232421875">
        <ele>2195.199951171875</ele>
        <time>2026-06-16T10:39:37.000Z</time>
        <extensions>
          <ns3:TrackPointExtension>
            <ns3:atemp>21.0</ns3:atemp>
          </ns3:TrackPointExtension>
        </extensions>
      </trkpt>
      <trkpt lat="42.60416918434202671051025390625" lon="19.88669450394809246063232421875">
        <ele>2195.199951171875</ele>
        <time>2026-06-16T10:39:38.000Z</time>
        <extensions>
          <ns3:TrackPointExtension>
            <ns3:atemp>21.0</ns3:atemp>
          </ns3:TrackPointExtension>
        </extensions>
      </trkpt>
      <trkpt lat="42.60416918434202671051025390625" lon="19.88669450394809246063232421875">
        <ele>2195.199951171875</ele>
        <time>2026-06-16T10:39:39.000Z</time>
        <extensions>
          <ns3:TrackPointExtension>
            <ns3:atemp>21.0</ns3:atemp>
          </ns3:TrackPointExtension>
        </extensions>
      </trkpt>
      <trkpt lat="42.60416918434202671051025390625" lon="19.88669450394809246063232421875">
        <ele>2195.199951171875</ele>
        <time>2026-06-16T10:39:40.000Z</time>
        <extensions>
          <ns3:TrackPointExtension>
            <ns3:atemp>21.0</ns3:atemp>
          </ns3:TrackPointExtension>
        </extensions>
      </trkpt>
      <trkpt lat="42.60416918434202671051025390625" lon="19.88669450394809246063232421875">
        <ele>2195.199951171875</ele>
        <time>2026-06-16T10:39:41.000Z</time>
        <extensions>
          <ns3:TrackPointExtension>
            <ns3:atemp>21.0</ns3:atemp>
          </ns3:TrackPointExtension>
        </extensions>
      </trkpt>
      <trkpt lat="42.60416918434202671051025390625" lon="19.88669450394809246063232421875">
        <ele>2195.199951171875</ele>
        <time>2026-06-16T10:39:42.000Z</time>
        <extensions>
          <ns3:TrackPointExtension>
            <ns3:atemp>21.0</ns3:atemp>
          </ns3:TrackPointExtension>
        </extensions>
      </trkpt>
      <trkpt lat="42.60416918434202671051025390625" lon="19.88669450394809246063232421875">
        <ele>2195.39990234375</ele>
        <time>2026-06-16T10:39:43.000Z</time>
        <extensions>
          <ns3:TrackPointExtension>
            <ns3:atemp>21.0</ns3:atemp>
          </ns3:TrackPointExtension>
        </extensions>
      </trkpt>
      <trkpt lat="42.60416918434202671051025390625" lon="19.88669450394809246063232421875">
        <ele>2195.39990234375</ele>
        <time>2026-06-16T10:39:44.000Z</time>
        <extensions>
          <ns3:TrackPointExtension>
            <ns3:atemp>21.0</ns3:atemp>
          </ns3:TrackPointExtension>
        </extensions>
      </trkpt>
      <trkpt lat="42.60416918434202671051025390625" lon="19.88669450394809246063232421875">
        <ele>2195.39990234375</ele>
        <time>2026-06-16T10:39:45.000Z</time>
        <extensions>
          <ns3:TrackPointExtension>
            <ns3:atemp>21.0</ns3:atemp>
          </ns3:TrackPointExtension>
        </extensions>
      </trkpt>
      <trkpt lat="42.60416918434202671051025390625" lon="19.88669450394809246063232421875">
        <ele>2195.39990234375</ele>
        <time>2026-06-16T10:39:46.000Z</time>
        <extensions>
          <ns3:TrackPointExtension>
            <ns3:atemp>21.0</ns3:atemp>
          </ns3:TrackPointExtension>
        </extensions>
      </trkpt>
      <trkpt lat="42.60416918434202671051025390625" lon="19.88669450394809246063232421875">
        <ele>2195.39990234375</ele>
        <time>2026-06-16T10:39:47.000Z</time>
        <extensions>
          <ns3:TrackPointExtension>
            <ns3:atemp>21.0</ns3:atemp>
          </ns3:TrackPointExtension>
        </extensions>
      </trkpt>
      <trkpt lat="42.60416918434202671051025390625" lon="19.88669450394809246063232421875">
        <ele>2195.39990234375</ele>
        <time>2026-06-16T10:39:48.000Z</time>
        <extensions>
          <ns3:TrackPointExtension>
            <ns3:atemp>21.0</ns3:atemp>
          </ns3:TrackPointExtension>
        </extensions>
      </trkpt>
      <trkpt lat="42.60416918434202671051025390625" lon="19.88669450394809246063232421875">
        <ele>2195.39990234375</ele>
        <time>2026-06-16T10:39:49.000Z</time>
        <extensions>
          <ns3:TrackPointExtension>
            <ns3:atemp>21.0</ns3:atemp>
          </ns3:TrackPointExtension>
        </extensions>
      </trkpt>
      <trkpt lat="42.60416918434202671051025390625" lon="19.88669450394809246063232421875">
        <ele>2195.39990234375</ele>
        <time>2026-06-16T10:39:50.000Z</time>
        <extensions>
          <ns3:TrackPointExtension>
            <ns3:atemp>21.0</ns3:atemp>
          </ns3:TrackPointExtension>
        </extensions>
      </trkpt>
      <trkpt lat="42.60416918434202671051025390625" lon="19.88669450394809246063232421875">
        <ele>2195.39990234375</ele>
        <time>2026-06-16T10:39:51.000Z</time>
        <extensions>
          <ns3:TrackPointExtension>
            <ns3:atemp>21.0</ns3:atemp>
          </ns3:TrackPointExtension>
        </extensions>
      </trkpt>
      <trkpt lat="42.60416918434202671051025390625" lon="19.88669450394809246063232421875">
        <ele>2195.39990234375</ele>
        <time>2026-06-16T10:39:52.000Z</time>
        <extensions>
          <ns3:TrackPointExtension>
            <ns3:atemp>21.0</ns3:atemp>
          </ns3:TrackPointExtension>
        </extensions>
      </trkpt>
      <trkpt lat="42.60416918434202671051025390625" lon="19.88669450394809246063232421875">
        <ele>2195.39990234375</ele>
        <time>2026-06-16T10:39:53.000Z</time>
        <extensions>
          <ns3:TrackPointExtension>
            <ns3:atemp>21.0</ns3:atemp>
          </ns3:TrackPointExtension>
        </extensions>
      </trkpt>
      <trkpt lat="42.60416918434202671051025390625" lon="19.88669450394809246063232421875">
        <ele>2195.39990234375</ele>
        <time>2026-06-16T10:39:54.000Z</time>
        <extensions>
          <ns3:TrackPointExtension>
            <ns3:atemp>21.0</ns3:atemp>
          </ns3:TrackPointExtension>
        </extensions>
      </trkpt>
      <trkpt lat="42.60416918434202671051025390625" lon="19.88669450394809246063232421875">
        <ele>2195.39990234375</ele>
        <time>2026-06-16T10:39:55.000Z</time>
        <extensions>
          <ns3:TrackPointExtension>
            <ns3:atemp>21.0</ns3:atemp>
          </ns3:TrackPointExtension>
        </extensions>
      </trkpt>
      <trkpt lat="42.60416918434202671051025390625" lon="19.88669450394809246063232421875">
        <ele>2195.39990234375</ele>
        <time>2026-06-16T10:39:56.000Z</time>
        <extensions>
          <ns3:TrackPointExtension>
            <ns3:atemp>21.0</ns3:atemp>
          </ns3:TrackPointExtension>
        </extensions>
      </trkpt>
      <trkpt lat="42.60416918434202671051025390625" lon="19.88669450394809246063232421875">
        <ele>2195.39990234375</ele>
        <time>2026-06-16T10:39:57.000Z</time>
        <extensions>
          <ns3:TrackPointExtension>
            <ns3:atemp>21.0</ns3:atemp>
          </ns3:TrackPointExtension>
        </extensions>
      </trkpt>
      <trkpt lat="42.60416918434202671051025390625" lon="19.88669450394809246063232421875">
        <ele>2195.39990234375</ele>
        <time>2026-06-16T10:39:58.000Z</time>
        <extensions>
          <ns3:TrackPointExtension>
            <ns3:atemp>20.0</ns3:atemp>
          </ns3:TrackPointExtension>
        </extensions>
      </trkpt>
      <trkpt lat="42.60416918434202671051025390625" lon="19.88669450394809246063232421875">
        <ele>2195.39990234375</ele>
        <time>2026-06-16T10:39:59.000Z</time>
        <extensions>
          <ns3:TrackPointExtension>
            <ns3:atemp>21.0</ns3:atemp>
          </ns3:TrackPointExtension>
        </extensions>
      </trkpt>
      <trkpt lat="42.60416918434202671051025390625" lon="19.88669450394809246063232421875">
        <ele>2195.39990234375</ele>
        <time>2026-06-16T10:40:00.000Z</time>
        <extensions>
          <ns3:TrackPointExtension>
            <ns3:atemp>20.0</ns3:atemp>
          </ns3:TrackPointExtension>
        </extensions>
      </trkpt>
      <trkpt lat="42.60416918434202671051025390625" lon="19.88669450394809246063232421875">
        <ele>2195.39990234375</ele>
        <time>2026-06-16T10:40:01.000Z</time>
        <extensions>
          <ns3:TrackPointExtension>
            <ns3:atemp>20.0</ns3:atemp>
          </ns3:TrackPointExtension>
        </extensions>
      </trkpt>
      <trkpt lat="42.60416918434202671051025390625" lon="19.88669450394809246063232421875">
        <ele>2195.39990234375</ele>
        <time>2026-06-16T10:40:02.000Z</time>
        <extensions>
          <ns3:TrackPointExtension>
            <ns3:atemp>20.0</ns3:atemp>
          </ns3:TrackPointExtension>
        </extensions>
      </trkpt>
      <trkpt lat="42.6041692681610584259033203125" lon="19.88669601269066333770751953125">
        <ele>2195.39990234375</ele>
        <time>2026-06-16T10:40:03.000Z</time>
        <extensions>
          <ns3:TrackPointExtension>
            <ns3:atemp>20.0</ns3:atemp>
          </ns3:TrackPointExtension>
        </extensions>
      </trkpt>
      <trkpt lat="42.60416834615170955657958984375" lon="19.88670305348932743072509765625">
        <ele>2195.39990234375</ele>
        <time>2026-06-16T10:40:04.000Z</time>
        <extensions>
          <ns3:TrackPointExtension>
            <ns3:atemp>20.0</ns3:atemp>
          </ns3:TrackPointExtension>
        </extensions>
      </trkpt>
      <trkpt lat="42.60416918434202671051025390625" lon="19.88669450394809246063232421875">
        <ele>2195.39990234375</ele>
        <time>2026-06-16T10:40:05.000Z</time>
        <extensions>
          <ns3:TrackPointExtension>
            <ns3:atemp>20.0</ns3:atemp>
          </ns3:TrackPointExtension>
        </extensions>
      </trkpt>
      <trkpt lat="42.60416918434202671051025390625" lon="19.88669450394809246063232421875">
        <ele>2195.39990234375</ele>
        <time>2026-06-16T10:40:06.000Z</time>
        <extensions>
          <ns3:TrackPointExtension>
            <ns3:atemp>20.0</ns3:atemp>
          </ns3:TrackPointExtension>
        </extensions>
      </trkpt>
      <trkpt lat="42.60416918434202671051025390625" lon="19.88669450394809246063232421875">
        <ele>2195.39990234375</ele>
        <time>2026-06-16T10:40:07.000Z</time>
        <extensions>
          <ns3:TrackPointExtension>
            <ns3:atemp>20.0</ns3:atemp>
          </ns3:TrackPointExtension>
        </extensions>
      </trkpt>
      <trkpt lat="42.60416918434202671051025390625" lon="19.88669450394809246063232421875">
        <ele>2195.39990234375</ele>
        <time>2026-06-16T10:40:08.000Z</time>
        <extensions>
          <ns3:TrackPointExtension>
            <ns3:atemp>20.0</ns3:atemp>
          </ns3:TrackPointExtension>
        </extensions>
      </trkpt>
      <trkpt lat="42.60416918434202671051025390625" lon="19.88669450394809246063232421875">
        <ele>2195.39990234375</ele>
        <time>2026-06-16T10:40:09.000Z</time>
        <extensions>
          <ns3:TrackPointExtension>
            <ns3:atemp>20.0</ns3:atemp>
          </ns3:TrackPointExtension>
        </extensions>
      </trkpt>
      <trkpt lat="42.60416918434202671051025390625" lon="19.88669450394809246063232421875">
        <ele>2195.39990234375</ele>
        <time>2026-06-16T10:40:10.000Z</time>
        <extensions>
          <ns3:TrackPointExtension>
            <ns3:atemp>20.0</ns3:atemp>
          </ns3:TrackPointExtension>
        </extensions>
      </trkpt>
      <trkpt lat="42.60416918434202671051025390625" lon="19.88669450394809246063232421875">
        <ele>2195.39990234375</ele>
        <time>2026-06-16T10:40:11.000Z</time>
        <extensions>
          <ns3:TrackPointExtension>
            <ns3:atemp>20.0</ns3:atemp>
          </ns3:TrackPointExtension>
        </extensions>
      </trkpt>
      <trkpt lat="42.60416918434202671051025390625" lon="19.88669450394809246063232421875">
        <ele>2195.39990234375</ele>
        <time>2026-06-16T10:40:12.000Z</time>
        <extensions>
          <ns3:TrackPointExtension>
            <ns3:atemp>20.0</ns3:atemp>
          </ns3:TrackPointExtension>
        </extensions>
      </trkpt>
      <trkpt lat="42.60416918434202671051025390625" lon="19.88669450394809246063232421875">
        <ele>2195.39990234375</ele>
        <time>2026-06-16T10:40:13.000Z</time>
        <extensions>
          <ns3:TrackPointExtension>
            <ns3:atemp>20.0</ns3:atemp>
          </ns3:TrackPointExtension>
        </extensions>
      </trkpt>
      <trkpt lat="42.60416817851364612579345703125" lon="19.886704646050930023193359375">
        <ele>2195.39990234375</ele>
        <time>2026-06-16T10:40:14.000Z</time>
        <extensions>
          <ns3:TrackPointExtension>
            <ns3:atemp>20.0</ns3:atemp>
          </ns3:TrackPointExtension>
        </extensions>
      </trkpt>
      <trkpt lat="42.60416063480079174041748046875" lon="19.88670741207897663116455078125">
        <ele>2195.39990234375</ele>
        <time>2026-06-16T10:40:15.000Z</time>
        <extensions>
          <ns3:TrackPointExtension>
            <ns3:atemp>20.0</ns3:atemp>
          </ns3:TrackPointExtension>
        </extensions>
      </trkpt>
      <trkpt lat="42.604158036410808563232421875" lon="19.8867125250399112701416015625">
        <ele>2195.39990234375</ele>
        <time>2026-06-16T10:40:16.000Z</time>
        <extensions>
          <ns3:TrackPointExtension>
            <ns3:atemp>20.0</ns3:atemp>
          </ns3:TrackPointExtension>
        </extensions>
      </trkpt>
      <trkpt lat="42.6041575334966182708740234375" lon="19.88672099076211452484130859375">
        <ele>2195.39990234375</ele>
        <time>2026-06-16T10:40:17.000Z</time>
        <extensions>
          <ns3:TrackPointExtension>
            <ns3:atemp>20.0</ns3:atemp>
          </ns3:TrackPointExtension>
        </extensions>
      </trkpt>
      <trkpt lat="42.60416113771498203277587890625" lon="19.886726103723049163818359375">
        <ele>2195.39990234375</ele>
        <time>2026-06-16T10:40:18.000Z</time>
        <extensions>
          <ns3:TrackPointExtension>
            <ns3:atemp>20.0</ns3:atemp>
          </ns3:TrackPointExtension>
        </extensions>
      </trkpt>
      <trkpt lat="42.60416147299110889434814453125" lon="19.88672417588531970977783203125">
        <ele>2195.39990234375</ele>
        <time>2026-06-16T10:40:19.000Z</time>
        <extensions>
          <ns3:TrackPointExtension>
            <ns3:atemp>20.0</ns3:atemp>
          </ns3:TrackPointExtension>
        </extensions>
      </trkpt>
      <trkpt lat="42.60416147299110889434814453125" lon="19.8867242597043514251708984375">
        <ele>2195.39990234375</ele>
        <time>2026-06-16T10:40:20.000Z</time>
        <extensions>
          <ns3:TrackPointExtension>
            <ns3:atemp>20.0</ns3:atemp>
          </ns3:TrackPointExtension>
        </extensions>
      </trkpt>
      <trkpt lat="42.60416147299110889434814453125" lon="19.8867242597043514251708984375">
        <ele>2195.39990234375</ele>
        <time>2026-06-16T10:40:21.000Z</time>
        <extensions>
          <ns3:TrackPointExtension>
            <ns3:atemp>20.0</ns3:atemp>
          </ns3:TrackPointExtension>
        </extensions>
      </trkpt>
      <trkpt lat="42.60416147299110889434814453125" lon="19.8867242597043514251708984375">
        <ele>2195.39990234375</ele>
        <time>2026-06-16T10:40:22.000Z</time>
        <extensions>
          <ns3:TrackPointExtension>
            <ns3:atemp>20.0</ns3:atemp>
          </ns3:TrackPointExtension>
        </extensions>
      </trkpt>
      <trkpt lat="42.60416147299110889434814453125" lon="19.8867242597043514251708984375">
        <ele>2195.39990234375</ele>
        <time>2026-06-16T10:40:23.000Z</time>
        <extensions>
          <ns3:TrackPointExtension>
            <ns3:atemp>20.0</ns3:atemp>
          </ns3:TrackPointExtension>
        </extensions>
      </trkpt>
      <trkpt lat="42.60416113771498203277587890625" lon="19.8867245949804782867431640625">
        <ele>2195.39990234375</ele>
        <time>2026-06-16T10:40:24.000Z</time>
        <extensions>
          <ns3:TrackPointExtension>
            <ns3:atemp>20.0</ns3:atemp>
          </ns3:TrackPointExtension>
        </extensions>
      </trkpt>
      <trkpt lat="42.60415912605822086334228515625" lon="19.8867356590926647186279296875">
        <ele>2195.39990234375</ele>
        <time>2026-06-16T10:40:25.000Z</time>
        <extensions>
          <ns3:TrackPointExtension>
            <ns3:atemp>20.0</ns3:atemp>
          </ns3:TrackPointExtension>
        </extensions>
      </trkpt>
      <trkpt lat="42.60416147299110889434814453125" lon="19.8867242597043514251708984375">
        <ele>2195.39990234375</ele>
        <time>2026-06-16T10:40:26.000Z</time>
        <extensions>
          <ns3:TrackPointExtension>
            <ns3:atemp>20.0</ns3:atemp>
          </ns3:TrackPointExtension>
        </extensions>
      </trkpt>
      <trkpt lat="42.60416147299110889434814453125" lon="19.8867242597043514251708984375">
        <ele>2195.39990234375</ele>
        <time>2026-06-16T10:40:27.000Z</time>
        <extensions>
          <ns3:TrackPointExtension>
            <ns3:atemp>20.0</ns3:atemp>
          </ns3:TrackPointExtension>
        </extensions>
      </trkpt>
      <trkpt lat="42.60416147299110889434814453125" lon="19.8867242597043514251708984375">
        <ele>2195.39990234375</ele>
        <time>2026-06-16T10:40:28.000Z</time>
        <extensions>
          <ns3:TrackPointExtension>
            <ns3:atemp>20.0</ns3:atemp>
          </ns3:TrackPointExtension>
        </extensions>
      </trkpt>
      <trkpt lat="42.60416147299110889434814453125" lon="19.8867242597043514251708984375">
        <ele>2195.39990234375</ele>
        <time>2026-06-16T10:40:29.000Z</time>
        <extensions>
          <ns3:TrackPointExtension>
            <ns3:atemp>20.0</ns3:atemp>
          </ns3:TrackPointExtension>
        </extensions>
      </trkpt>
      <trkpt lat="42.60416147299110889434814453125" lon="19.8867242597043514251708984375">
        <ele>2195.39990234375</ele>
        <time>2026-06-16T10:40:30.000Z</time>
        <extensions>
          <ns3:TrackPointExtension>
            <ns3:atemp>20.0</ns3:atemp>
          </ns3:TrackPointExtension>
        </extensions>
      </trkpt>
      <trkpt lat="42.60416147299110889434814453125" lon="19.8867242597043514251708984375">
        <ele>2195.39990234375</ele>
        <time>2026-06-16T10:40:31.000Z</time>
        <extensions>
          <ns3:TrackPointExtension>
            <ns3:atemp>20.0</ns3:atemp>
          </ns3:TrackPointExtension>
        </extensions>
      </trkpt>
      <trkpt lat="42.60416147299110889434814453125" lon="19.8867242597043514251708984375">
        <ele>2195.39990234375</ele>
        <time>2026-06-16T10:40:32.000Z</time>
        <extensions>
          <ns3:TrackPointExtension>
            <ns3:atemp>20.0</ns3:atemp>
          </ns3:TrackPointExtension>
        </extensions>
      </trkpt>
      <trkpt lat="42.60416147299110889434814453125" lon="19.8867242597043514251708984375">
        <ele>2195.39990234375</ele>
        <time>2026-06-16T10:40:33.000Z</time>
        <extensions>
          <ns3:TrackPointExtension>
            <ns3:atemp>20.0</ns3:atemp>
          </ns3:TrackPointExtension>
        </extensions>
      </trkpt>
      <trkpt lat="42.60416147299110889434814453125" lon="19.8867242597043514251708984375">
        <ele>2195.39990234375</ele>
        <time>2026-06-16T10:40:34.000Z</time>
        <extensions>
          <ns3:TrackPointExtension>
            <ns3:atemp>20.0</ns3:atemp>
          </ns3:TrackPointExtension>
        </extensions>
      </trkpt>
      <trkpt lat="42.60416147299110889434814453125" lon="19.8867242597043514251708984375">
        <ele>2195.39990234375</ele>
        <time>2026-06-16T10:40:35.000Z</time>
        <extensions>
          <ns3:TrackPointExtension>
            <ns3:atemp>20.0</ns3:atemp>
          </ns3:TrackPointExtension>
        </extensions>
      </trkpt>
      <trkpt lat="42.60416147299110889434814453125" lon="19.8867242597043514251708984375">
        <ele>2195.39990234375</ele>
        <time>2026-06-16T10:40:36.000Z</time>
        <extensions>
          <ns3:TrackPointExtension>
            <ns3:atemp>20.0</ns3:atemp>
          </ns3:TrackPointExtension>
        </extensions>
      </trkpt>
      <trkpt lat="42.60416147299110889434814453125" lon="19.8867242597043514251708984375">
        <ele>2195.39990234375</ele>
        <time>2026-06-16T10:40:37.000Z</time>
        <extensions>
          <ns3:TrackPointExtension>
            <ns3:atemp>20.0</ns3:atemp>
          </ns3:TrackPointExtension>
        </extensions>
      </trkpt>
      <trkpt lat="42.60416147299110889434814453125" lon="19.8867242597043514251708984375">
        <ele>2195.39990234375</ele>
        <time>2026-06-16T10:40:38.000Z</time>
        <extensions>
          <ns3:TrackPointExtension>
            <ns3:atemp>20.0</ns3:atemp>
          </ns3:TrackPointExtension>
        </extensions>
      </trkpt>
      <trkpt lat="42.60416147299110889434814453125" lon="19.8867242597043514251708984375">
        <ele>2195.39990234375</ele>
        <time>2026-06-16T10:40:39.000Z</time>
        <extensions>
          <ns3:TrackPointExtension>
            <ns3:atemp>20.0</ns3:atemp>
          </ns3:TrackPointExtension>
        </extensions>
      </trkpt>
      <trkpt lat="42.60416147299110889434814453125" lon="19.8867242597043514251708984375">
        <ele>2195.39990234375</ele>
        <time>2026-06-16T10:40:40.000Z</time>
        <extensions>
          <ns3:TrackPointExtension>
            <ns3:atemp>20.0</ns3:atemp>
          </ns3:TrackPointExtension>
        </extensions>
      </trkpt>
      <trkpt lat="42.60416147299110889434814453125" lon="19.8867242597043514251708984375">
        <ele>2195.39990234375</ele>
        <time>2026-06-16T10:40:41.000Z</time>
        <extensions>
          <ns3:TrackPointExtension>
            <ns3:atemp>20.0</ns3:atemp>
          </ns3:TrackPointExtension>
        </extensions>
      </trkpt>
      <trkpt lat="42.60416147299110889434814453125" lon="19.8867242597043514251708984375">
        <ele>2195.39990234375</ele>
        <time>2026-06-16T10:40:42.000Z</time>
        <extensions>
          <ns3:TrackPointExtension>
            <ns3:atemp>20.0</ns3:atemp>
          </ns3:TrackPointExtension>
        </extensions>
      </trkpt>
      <trkpt lat="42.60416147299110889434814453125" lon="19.8867242597043514251708984375">
        <ele>2195.39990234375</ele>
        <time>2026-06-16T10:40:43.000Z</time>
        <extensions>
          <ns3:TrackPointExtension>
            <ns3:atemp>20.0</ns3:atemp>
          </ns3:TrackPointExtension>
        </extensions>
      </trkpt>
      <trkpt lat="42.60416147299110889434814453125" lon="19.8867242597043514251708984375">
        <ele>2195.39990234375</ele>
        <time>2026-06-16T10:40:44.000Z</time>
        <extensions>
          <ns3:TrackPointExtension>
            <ns3:atemp>20.0</ns3:atemp>
          </ns3:TrackPointExtension>
        </extensions>
      </trkpt>
      <trkpt lat="42.60416147299110889434814453125" lon="19.8867242597043514251708984375">
        <ele>2195.39990234375</ele>
        <time>2026-06-16T10:40:45.000Z</time>
        <extensions>
          <ns3:TrackPointExtension>
            <ns3:atemp>20.0</ns3:atemp>
          </ns3:TrackPointExtension>
        </extensions>
      </trkpt>
      <trkpt lat="42.60416147299110889434814453125" lon="19.8867242597043514251708984375">
        <ele>2195.39990234375</ele>
        <time>2026-06-16T10:40:46.000Z</time>
        <extensions>
          <ns3:TrackPointExtension>
            <ns3:atemp>20.0</ns3:atemp>
          </ns3:TrackPointExtension>
        </extensions>
      </trkpt>
      <trkpt lat="42.60416147299110889434814453125" lon="19.8867242597043514251708984375">
        <ele>2195.39990234375</ele>
        <time>2026-06-16T10:40:47.000Z</time>
        <extensions>
          <ns3:TrackPointExtension>
            <ns3:atemp>20.0</ns3:atemp>
          </ns3:TrackPointExtension>
        </extensions>
      </trkpt>
      <trkpt lat="42.60416147299110889434814453125" lon="19.8867242597043514251708984375">
        <ele>2195.39990234375</ele>
        <time>2026-06-16T10:40:48.000Z</time>
        <extensions>
          <ns3:TrackPointExtension>
            <ns3:atemp>20.0</ns3:atemp>
          </ns3:TrackPointExtension>
        </extensions>
      </trkpt>
      <trkpt lat="42.60416147299110889434814453125" lon="19.8867242597043514251708984375">
        <ele>2195.39990234375</ele>
        <time>2026-06-16T10:40:49.000Z</time>
        <extensions>
          <ns3:TrackPointExtension>
            <ns3:atemp>20.0</ns3:atemp>
          </ns3:TrackPointExtension>
        </extensions>
      </trkpt>
      <trkpt lat="42.60416147299110889434814453125" lon="19.8867242597043514251708984375">
        <ele>2195.39990234375</ele>
        <time>2026-06-16T10:40:50.000Z</time>
        <extensions>
          <ns3:TrackPointExtension>
            <ns3:atemp>20.0</ns3:atemp>
          </ns3:TrackPointExtension>
        </extensions>
      </trkpt>
      <trkpt lat="42.60416147299110889434814453125" lon="19.8867242597043514251708984375">
        <ele>2195.39990234375</ele>
        <time>2026-06-16T10:40:51.000Z</time>
        <extensions>
          <ns3:TrackPointExtension>
            <ns3:atemp>20.0</ns3:atemp>
          </ns3:TrackPointExtension>
        </extensions>
      </trkpt>
      <trkpt lat="42.60416147299110889434814453125" lon="19.8867242597043514251708984375">
        <ele>2195.39990234375</ele>
        <time>2026-06-16T10:40:52.000Z</time>
        <extensions>
          <ns3:TrackPointExtension>
            <ns3:atemp>20.0</ns3:atemp>
          </ns3:TrackPointExtension>
        </extensions>
      </trkpt>
      <trkpt lat="42.60416147299110889434814453125" lon="19.8867242597043514251708984375">
        <ele>2195.39990234375</ele>
        <time>2026-06-16T10:40:53.000Z</time>
        <extensions>
          <ns3:TrackPointExtension>
            <ns3:atemp>20.0</ns3:atemp>
          </ns3:TrackPointExtension>
        </extensions>
      </trkpt>
      <trkpt lat="42.60416147299110889434814453125" lon="19.8867242597043514251708984375">
        <ele>2195.39990234375</ele>
        <time>2026-06-16T10:40:54.000Z</time>
        <extensions>
          <ns3:TrackPointExtension>
            <ns3:atemp>20.0</ns3:atemp>
          </ns3:TrackPointExtension>
        </extensions>
      </trkpt>
      <trkpt lat="42.60416147299110889434814453125" lon="19.8867242597043514251708984375">
        <ele>2195.39990234375</ele>
        <time>2026-06-16T10:40:55.000Z</time>
        <extensions>
          <ns3:TrackPointExtension>
            <ns3:atemp>20.0</ns3:atemp>
          </ns3:TrackPointExtension>
        </extensions>
      </trkpt>
      <trkpt lat="42.60416147299110889434814453125" lon="19.8867242597043514251708984375">
        <ele>2195.39990234375</ele>
        <time>2026-06-16T10:40:56.000Z</time>
        <extensions>
          <ns3:TrackPointExtension>
            <ns3:atemp>20.0</ns3:atemp>
          </ns3:TrackPointExtension>
        </extensions>
      </trkpt>
      <trkpt lat="42.60416147299110889434814453125" lon="19.8867242597043514251708984375">
        <ele>2195.39990234375</ele>
        <time>2026-06-16T10:40:57.000Z</time>
        <extensions>
          <ns3:TrackPointExtension>
            <ns3:atemp>20.0</ns3:atemp>
          </ns3:TrackPointExtension>
        </extensions>
      </trkpt>
      <trkpt lat="42.60416147299110889434814453125" lon="19.8867242597043514251708984375">
        <ele>2195.39990234375</ele>
        <time>2026-06-16T10:40:58.000Z</time>
        <extensions>
          <ns3:TrackPointExtension>
            <ns3:atemp>20.0</ns3:atemp>
          </ns3:TrackPointExtension>
        </extensions>
      </trkpt>
      <trkpt lat="42.60416147299110889434814453125" lon="19.8867242597043514251708984375">
        <ele>2195.39990234375</ele>
        <time>2026-06-16T10:40:59.000Z</time>
        <extensions>
          <ns3:TrackPointExtension>
            <ns3:atemp>20.0</ns3:atemp>
          </ns3:TrackPointExtension>
        </extensions>
      </trkpt>
      <trkpt lat="42.60416147299110889434814453125" lon="19.8867242597043514251708984375">
        <ele>2195.39990234375</ele>
        <time>2026-06-16T10:41:00.000Z</time>
        <extensions>
          <ns3:TrackPointExtension>
            <ns3:atemp>20.0</ns3:atemp>
          </ns3:TrackPointExtension>
        </extensions>
      </trkpt>
      <trkpt lat="42.60416147299110889434814453125" lon="19.8867242597043514251708984375">
        <ele>2195.39990234375</ele>
        <time>2026-06-16T10:41:01.000Z</time>
        <extensions>
          <ns3:TrackPointExtension>
            <ns3:atemp>20.0</ns3:atemp>
          </ns3:TrackPointExtension>
        </extensions>
      </trkpt>
      <trkpt lat="42.60416147299110889434814453125" lon="19.8867242597043514251708984375">
        <ele>2195.39990234375</ele>
        <time>2026-06-16T10:41:02.000Z</time>
        <extensions>
          <ns3:TrackPointExtension>
            <ns3:atemp>20.0</ns3:atemp>
          </ns3:TrackPointExtension>
        </extensions>
      </trkpt>
      <trkpt lat="42.60416147299110889434814453125" lon="19.8867242597043514251708984375">
        <ele>2195.39990234375</ele>
        <time>2026-06-16T10:41:03.000Z</time>
        <extensions>
          <ns3:TrackPointExtension>
            <ns3:atemp>20.0</ns3:atemp>
          </ns3:TrackPointExtension>
        </extensions>
      </trkpt>
      <trkpt lat="42.60416147299110889434814453125" lon="19.8867242597043514251708984375">
        <ele>2195.39990234375</ele>
        <time>2026-06-16T10:41:04.000Z</time>
        <extensions>
          <ns3:TrackPointExtension>
            <ns3:atemp>20.0</ns3:atemp>
          </ns3:TrackPointExtension>
        </extensions>
      </trkpt>
      <trkpt lat="42.60416147299110889434814453125" lon="19.8867242597043514251708984375">
        <ele>2195.39990234375</ele>
        <time>2026-06-16T10:41:05.000Z</time>
        <extensions>
          <ns3:TrackPointExtension>
            <ns3:atemp>20.0</ns3:atemp>
          </ns3:TrackPointExtension>
        </extensions>
      </trkpt>
      <trkpt lat="42.60416147299110889434814453125" lon="19.8867242597043514251708984375">
        <ele>2195.39990234375</ele>
        <time>2026-06-16T10:41:06.000Z</time>
        <extensions>
          <ns3:TrackPointExtension>
            <ns3:atemp>20.0</ns3:atemp>
          </ns3:TrackPointExtension>
        </extensions>
      </trkpt>
      <trkpt lat="42.60416147299110889434814453125" lon="19.8867242597043514251708984375">
        <ele>2195.39990234375</ele>
        <time>2026-06-16T10:41:07.000Z</time>
        <extensions>
          <ns3:TrackPointExtension>
            <ns3:atemp>20.0</ns3:atemp>
          </ns3:TrackPointExtension>
        </extensions>
      </trkpt>
      <trkpt lat="42.60416147299110889434814453125" lon="19.8867242597043514251708984375">
        <ele>2195.39990234375</ele>
        <time>2026-06-16T10:41:08.000Z</time>
        <extensions>
          <ns3:TrackPointExtension>
            <ns3:atemp>20.0</ns3:atemp>
          </ns3:TrackPointExtension>
        </extensions>
      </trkpt>
      <trkpt lat="42.60416147299110889434814453125" lon="19.8867242597043514251708984375">
        <ele>2195.39990234375</ele>
        <time>2026-06-16T10:41:09.000Z</time>
        <extensions>
          <ns3:TrackPointExtension>
            <ns3:atemp>20.0</ns3:atemp>
          </ns3:TrackPointExtension>
        </extensions>
      </trkpt>
      <trkpt lat="42.60416147299110889434814453125" lon="19.8867242597043514251708984375">
        <ele>2195.39990234375</ele>
        <time>2026-06-16T10:41:10.000Z</time>
        <extensions>
          <ns3:TrackPointExtension>
            <ns3:atemp>20.0</ns3:atemp>
          </ns3:TrackPointExtension>
        </extensions>
      </trkpt>
      <trkpt lat="42.60416147299110889434814453125" lon="19.8867242597043514251708984375">
        <ele>2195.39990234375</ele>
        <time>2026-06-16T10:41:11.000Z</time>
        <extensions>
          <ns3:TrackPointExtension>
            <ns3:atemp>20.0</ns3:atemp>
          </ns3:TrackPointExtension>
        </extensions>
      </trkpt>
      <trkpt lat="42.60416147299110889434814453125" lon="19.8867242597043514251708984375">
        <ele>2195.39990234375</ele>
        <time>2026-06-16T10:41:12.000Z</time>
        <extensions>
          <ns3:TrackPointExtension>
            <ns3:atemp>20.0</ns3:atemp>
          </ns3:TrackPointExtension>
        </extensions>
      </trkpt>
      <trkpt lat="42.60416147299110889434814453125" lon="19.8867242597043514251708984375">
        <ele>2195.39990234375</ele>
        <time>2026-06-16T10:41:13.000Z</time>
        <extensions>
          <ns3:TrackPointExtension>
            <ns3:atemp>20.0</ns3:atemp>
          </ns3:TrackPointExtension>
        </extensions>
      </trkpt>
      <trkpt lat="42.60416147299110889434814453125" lon="19.8867242597043514251708984375">
        <ele>2195.39990234375</ele>
        <time>2026-06-16T10:41:14.000Z</time>
        <extensions>
          <ns3:TrackPointExtension>
            <ns3:atemp>20.0</ns3:atemp>
          </ns3:TrackPointExtension>
        </extensions>
      </trkpt>
      <trkpt lat="42.60416147299110889434814453125" lon="19.8867242597043514251708984375">
        <ele>2195.39990234375</ele>
        <time>2026-06-16T10:41:15.000Z</time>
        <extensions>
          <ns3:TrackPointExtension>
            <ns3:atemp>20.0</ns3:atemp>
          </ns3:TrackPointExtension>
        </extensions>
      </trkpt>
      <trkpt lat="42.60416147299110889434814453125" lon="19.8867242597043514251708984375">
        <ele>2195.39990234375</ele>
        <time>2026-06-16T10:41:16.000Z</time>
        <extensions>
          <ns3:TrackPointExtension>
            <ns3:atemp>20.0</ns3:atemp>
          </ns3:TrackPointExtension>
        </extensions>
      </trkpt>
      <trkpt lat="42.60416147299110889434814453125" lon="19.8867242597043514251708984375">
        <ele>2195.39990234375</ele>
        <time>2026-06-16T10:41:17.000Z</time>
        <extensions>
          <ns3:TrackPointExtension>
            <ns3:atemp>20.0</ns3:atemp>
          </ns3:TrackPointExtension>
        </extensions>
      </trkpt>
      <trkpt lat="42.60416147299110889434814453125" lon="19.8867242597043514251708984375">
        <ele>2195.39990234375</ele>
        <time>2026-06-16T10:41:18.000Z</time>
        <extensions>
          <ns3:TrackPointExtension>
            <ns3:atemp>20.0</ns3:atemp>
          </ns3:TrackPointExtension>
        </extensions>
      </trkpt>
      <trkpt lat="42.60416147299110889434814453125" lon="19.8867242597043514251708984375">
        <ele>2195.39990234375</ele>
        <time>2026-06-16T10:41:19.000Z</time>
        <extensions>
          <ns3:TrackPointExtension>
            <ns3:atemp>20.0</ns3:atemp>
          </ns3:TrackPointExtension>
        </extensions>
      </trkpt>
      <trkpt lat="42.60416147299110889434814453125" lon="19.8867242597043514251708984375">
        <ele>2195.39990234375</ele>
        <time>2026-06-16T10:41:20.000Z</time>
        <extensions>
          <ns3:TrackPointExtension>
            <ns3:atemp>20.0</ns3:atemp>
          </ns3:TrackPointExtension>
        </extensions>
      </trkpt>
      <trkpt lat="42.60416147299110889434814453125" lon="19.8867242597043514251708984375">
        <ele>2195.39990234375</ele>
        <time>2026-06-16T10:41:21.000Z</time>
        <extensions>
          <ns3:TrackPointExtension>
            <ns3:atemp>20.0</ns3:atemp>
          </ns3:TrackPointExtension>
        </extensions>
      </trkpt>
      <trkpt lat="42.60416147299110889434814453125" lon="19.8867242597043514251708984375">
        <ele>2195.39990234375</ele>
        <time>2026-06-16T10:41:22.000Z</time>
        <extensions>
          <ns3:TrackPointExtension>
            <ns3:atemp>20.0</ns3:atemp>
          </ns3:TrackPointExtension>
        </extensions>
      </trkpt>
      <trkpt lat="42.60416147299110889434814453125" lon="19.8867242597043514251708984375">
        <ele>2195.39990234375</ele>
        <time>2026-06-16T10:41:23.000Z</time>
        <extensions>
          <ns3:TrackPointExtension>
            <ns3:atemp>20.0</ns3:atemp>
          </ns3:TrackPointExtension>
        </extensions>
      </trkpt>
      <trkpt lat="42.60416147299110889434814453125" lon="19.8867242597043514251708984375">
        <ele>2195.39990234375</ele>
        <time>2026-06-16T10:41:24.000Z</time>
        <extensions>
          <ns3:TrackPointExtension>
            <ns3:atemp>20.0</ns3:atemp>
          </ns3:TrackPointExtension>
        </extensions>
      </trkpt>
      <trkpt lat="42.60416147299110889434814453125" lon="19.8867242597043514251708984375">
        <ele>2195.39990234375</ele>
        <time>2026-06-16T10:41:25.000Z</time>
        <extensions>
          <ns3:TrackPointExtension>
            <ns3:atemp>20.0</ns3:atemp>
          </ns3:TrackPointExtension>
        </extensions>
      </trkpt>
      <trkpt lat="42.60416147299110889434814453125" lon="19.8867242597043514251708984375">
        <ele>2195.39990234375</ele>
        <time>2026-06-16T10:41:26.000Z</time>
        <extensions>
          <ns3:TrackPointExtension>
            <ns3:atemp>20.0</ns3:atemp>
          </ns3:TrackPointExtension>
        </extensions>
      </trkpt>
      <trkpt lat="42.60416147299110889434814453125" lon="19.8867242597043514251708984375">
        <ele>2195.39990234375</ele>
        <time>2026-06-16T10:41:27.000Z</time>
        <extensions>
          <ns3:TrackPointExtension>
            <ns3:atemp>20.0</ns3:atemp>
          </ns3:TrackPointExtension>
        </extensions>
      </trkpt>
      <trkpt lat="42.60416147299110889434814453125" lon="19.8867242597043514251708984375">
        <ele>2195.39990234375</ele>
        <time>2026-06-16T10:41:28.000Z</time>
        <extensions>
          <ns3:TrackPointExtension>
            <ns3:atemp>20.0</ns3:atemp>
          </ns3:TrackPointExtension>
        </extensions>
      </trkpt>
      <trkpt lat="42.60416147299110889434814453125" lon="19.8867242597043514251708984375">
        <ele>2195.39990234375</ele>
        <time>2026-06-16T10:41:29.000Z</time>
        <extensions>
          <ns3:TrackPointExtension>
            <ns3:atemp>20.0</ns3:atemp>
          </ns3:TrackPointExtension>
        </extensions>
      </trkpt>
      <trkpt lat="42.60416147299110889434814453125" lon="19.8867242597043514251708984375">
        <ele>2195.39990234375</ele>
        <time>2026-06-16T10:41:30.000Z</time>
        <extensions>
          <ns3:TrackPointExtension>
            <ns3:atemp>20.0</ns3:atemp>
          </ns3:TrackPointExtension>
        </extensions>
      </trkpt>
      <trkpt lat="42.60416147299110889434814453125" lon="19.8867242597043514251708984375">
        <ele>2195.39990234375</ele>
        <time>2026-06-16T10:41:31.000Z</time>
        <extensions>
          <ns3:TrackPointExtension>
            <ns3:atemp>20.0</ns3:atemp>
          </ns3:TrackPointExtension>
        </extensions>
      </trkpt>
      <trkpt lat="42.60416147299110889434814453125" lon="19.8867242597043514251708984375">
        <ele>2195.39990234375</ele>
        <time>2026-06-16T10:41:32.000Z</time>
        <extensions>
          <ns3:TrackPointExtension>
            <ns3:atemp>20.0</ns3:atemp>
          </ns3:TrackPointExtension>
        </extensions>
      </trkpt>
      <trkpt lat="42.60416147299110889434814453125" lon="19.8867242597043514251708984375">
        <ele>2195.39990234375</ele>
        <time>2026-06-16T10:41:33.000Z</time>
        <extensions>
          <ns3:TrackPointExtension>
            <ns3:atemp>20.0</ns3:atemp>
          </ns3:TrackPointExtension>
        </extensions>
      </trkpt>
      <trkpt lat="42.60416147299110889434814453125" lon="19.8867242597043514251708984375">
        <ele>2195.39990234375</ele>
        <time>2026-06-16T10:41:34.000Z</time>
        <extensions>
          <ns3:TrackPointExtension>
            <ns3:atemp>20.0</ns3:atemp>
          </ns3:TrackPointExtension>
        </extensions>
      </trkpt>
      <trkpt lat="42.60416147299110889434814453125" lon="19.8867242597043514251708984375">
        <ele>2195.39990234375</ele>
        <time>2026-06-16T10:41:35.000Z</time>
        <extensions>
          <ns3:TrackPointExtension>
            <ns3:atemp>20.0</ns3:atemp>
          </ns3:TrackPointExtension>
        </extensions>
      </trkpt>
      <trkpt lat="42.60416147299110889434814453125" lon="19.8867242597043514251708984375">
        <ele>2195.39990234375</ele>
        <time>2026-06-16T10:41:36.000Z</time>
        <extensions>
          <ns3:TrackPointExtension>
            <ns3:atemp>20.0</ns3:atemp>
          </ns3:TrackPointExtension>
        </extensions>
      </trkpt>
      <trkpt lat="42.60416147299110889434814453125" lon="19.8867242597043514251708984375">
        <ele>2195.39990234375</ele>
        <time>2026-06-16T10:41:37.000Z</time>
        <extensions>
          <ns3:TrackPointExtension>
            <ns3:atemp>20.0</ns3:atemp>
          </ns3:TrackPointExtension>
        </extensions>
      </trkpt>
      <trkpt lat="42.60416147299110889434814453125" lon="19.8867242597043514251708984375">
        <ele>2195.39990234375</ele>
        <time>2026-06-16T10:41:38.000Z</time>
        <extensions>
          <ns3:TrackPointExtension>
            <ns3:atemp>20.0</ns3:atemp>
          </ns3:TrackPointExtension>
        </extensions>
      </trkpt>
      <trkpt lat="42.60416147299110889434814453125" lon="19.8867242597043514251708984375">
        <ele>2195.39990234375</ele>
        <time>2026-06-16T10:41:39.000Z</time>
        <extensions>
          <ns3:TrackPointExtension>
            <ns3:atemp>20.0</ns3:atemp>
          </ns3:TrackPointExtension>
        </extensions>
      </trkpt>
      <trkpt lat="42.60416147299110889434814453125" lon="19.8867242597043514251708984375">
        <ele>2195.39990234375</ele>
        <time>2026-06-16T10:41:40.000Z</time>
        <extensions>
          <ns3:TrackPointExtension>
            <ns3:atemp>20.0</ns3:atemp>
          </ns3:TrackPointExtension>
        </extensions>
      </trkpt>
      <trkpt lat="42.60416147299110889434814453125" lon="19.8867242597043514251708984375">
        <ele>2195.39990234375</ele>
        <time>2026-06-16T10:41:41.000Z</time>
        <extensions>
          <ns3:TrackPointExtension>
            <ns3:atemp>20.0</ns3:atemp>
          </ns3:TrackPointExtension>
        </extensions>
      </trkpt>
      <trkpt lat="42.60416147299110889434814453125" lon="19.8867242597043514251708984375">
        <ele>2195.39990234375</ele>
        <time>2026-06-16T10:41:42.000Z</time>
        <extensions>
          <ns3:TrackPointExtension>
            <ns3:atemp>20.0</ns3:atemp>
          </ns3:TrackPointExtension>
        </extensions>
      </trkpt>
      <trkpt lat="42.60416147299110889434814453125" lon="19.8867242597043514251708984375">
        <ele>2195.39990234375</ele>
        <time>2026-06-16T10:41:43.000Z</time>
        <extensions>
          <ns3:TrackPointExtension>
            <ns3:atemp>20.0</ns3:atemp>
          </ns3:TrackPointExtension>
        </extensions>
      </trkpt>
      <trkpt lat="42.60416147299110889434814453125" lon="19.8867242597043514251708984375">
        <ele>2195.39990234375</ele>
        <time>2026-06-16T10:41:44.000Z</time>
        <extensions>
          <ns3:TrackPointExtension>
            <ns3:atemp>20.0</ns3:atemp>
          </ns3:TrackPointExtension>
        </extensions>
      </trkpt>
      <trkpt lat="42.60416147299110889434814453125" lon="19.8867242597043514251708984375">
        <ele>2195.39990234375</ele>
        <time>2026-06-16T10:41:45.000Z</time>
        <extensions>
          <ns3:TrackPointExtension>
            <ns3:atemp>20.0</ns3:atemp>
          </ns3:TrackPointExtension>
        </extensions>
      </trkpt>
      <trkpt lat="42.60416147299110889434814453125" lon="19.8867242597043514251708984375">
        <ele>2195.39990234375</ele>
        <time>2026-06-16T10:41:46.000Z</time>
        <extensions>
          <ns3:TrackPointExtension>
            <ns3:atemp>20.0</ns3:atemp>
          </ns3:TrackPointExtension>
        </extensions>
      </trkpt>
      <trkpt lat="42.60416147299110889434814453125" lon="19.8867242597043514251708984375">
        <ele>2195.39990234375</ele>
        <time>2026-06-16T10:41:47.000Z</time>
        <extensions>
          <ns3:TrackPointExtension>
            <ns3:atemp>20.0</ns3:atemp>
          </ns3:TrackPointExtension>
        </extensions>
      </trkpt>
      <trkpt lat="42.60416147299110889434814453125" lon="19.8867242597043514251708984375">
        <ele>2195.39990234375</ele>
        <time>2026-06-16T10:41:48.000Z</time>
        <extensions>
          <ns3:TrackPointExtension>
            <ns3:atemp>20.0</ns3:atemp>
          </ns3:TrackPointExtension>
        </extensions>
      </trkpt>
      <trkpt lat="42.60416147299110889434814453125" lon="19.8867242597043514251708984375">
        <ele>2195.39990234375</ele>
        <time>2026-06-16T10:41:49.000Z</time>
        <extensions>
          <ns3:TrackPointExtension>
            <ns3:atemp>20.0</ns3:atemp>
          </ns3:TrackPointExtension>
        </extensions>
      </trkpt>
      <trkpt lat="42.60416147299110889434814453125" lon="19.8867242597043514251708984375">
        <ele>2195.39990234375</ele>
        <time>2026-06-16T10:41:50.000Z</time>
        <extensions>
          <ns3:TrackPointExtension>
            <ns3:atemp>20.0</ns3:atemp>
          </ns3:TrackPointExtension>
        </extensions>
      </trkpt>
      <trkpt lat="42.60416147299110889434814453125" lon="19.8867242597043514251708984375">
        <ele>2195.39990234375</ele>
        <time>2026-06-16T10:41:51.000Z</time>
        <extensions>
          <ns3:TrackPointExtension>
            <ns3:atemp>20.0</ns3:atemp>
          </ns3:TrackPointExtension>
        </extensions>
      </trkpt>
      <trkpt lat="42.60416147299110889434814453125" lon="19.8867242597043514251708984375">
        <ele>2195.39990234375</ele>
        <time>2026-06-16T10:41:52.000Z</time>
        <extensions>
          <ns3:TrackPointExtension>
            <ns3:atemp>20.0</ns3:atemp>
          </ns3:TrackPointExtension>
        </extensions>
      </trkpt>
      <trkpt lat="42.60416147299110889434814453125" lon="19.8867242597043514251708984375">
        <ele>2195.39990234375</ele>
        <time>2026-06-16T10:41:53.000Z</time>
        <extensions>
          <ns3:TrackPointExtension>
            <ns3:atemp>20.0</ns3:atemp>
          </ns3:TrackPointExtension>
        </extensions>
      </trkpt>
      <trkpt lat="42.60416147299110889434814453125" lon="19.8867242597043514251708984375">
        <ele>2195.39990234375</ele>
        <time>2026-06-16T10:41:54.000Z</time>
        <extensions>
          <ns3:TrackPointExtension>
            <ns3:atemp>20.0</ns3:atemp>
          </ns3:TrackPointExtension>
        </extensions>
      </trkpt>
      <trkpt lat="42.60416147299110889434814453125" lon="19.8867242597043514251708984375">
        <ele>2195.39990234375</ele>
        <time>2026-06-16T10:41:55.000Z</time>
        <extensions>
          <ns3:TrackPointExtension>
            <ns3:atemp>20.0</ns3:atemp>
          </ns3:TrackPointExtension>
        </extensions>
      </trkpt>
      <trkpt lat="42.60416147299110889434814453125" lon="19.8867242597043514251708984375">
        <ele>2195.39990234375</ele>
        <time>2026-06-16T10:41:56.000Z</time>
        <extensions>
          <ns3:TrackPointExtension>
            <ns3:atemp>20.0</ns3:atemp>
          </ns3:TrackPointExtension>
        </extensions>
      </trkpt>
      <trkpt lat="42.60416147299110889434814453125" lon="19.8867242597043514251708984375">
        <ele>2195.39990234375</ele>
        <time>2026-06-16T10:41:57.000Z</time>
        <extensions>
          <ns3:TrackPointExtension>
            <ns3:atemp>20.0</ns3:atemp>
          </ns3:TrackPointExtension>
        </extensions>
      </trkpt>
      <trkpt lat="42.60416147299110889434814453125" lon="19.8867242597043514251708984375">
        <ele>2195.39990234375</ele>
        <time>2026-06-16T10:41:58.000Z</time>
        <extensions>
          <ns3:TrackPointExtension>
            <ns3:atemp>20.0</ns3:atemp>
          </ns3:TrackPointExtension>
        </extensions>
      </trkpt>
      <trkpt lat="42.60416147299110889434814453125" lon="19.8867242597043514251708984375">
        <ele>2195.39990234375</ele>
        <time>2026-06-16T10:41:59.000Z</time>
        <extensions>
          <ns3:TrackPointExtension>
            <ns3:atemp>20.0</ns3:atemp>
          </ns3:TrackPointExtension>
        </extensions>
      </trkpt>
      <trkpt lat="42.60416147299110889434814453125" lon="19.8867242597043514251708984375">
        <ele>2195.39990234375</ele>
        <time>2026-06-16T10:42:00.000Z</time>
        <extensions>
          <ns3:TrackPointExtension>
            <ns3:atemp>20.0</ns3:atemp>
          </ns3:TrackPointExtension>
        </extensions>
      </trkpt>
      <trkpt lat="42.60416147299110889434814453125" lon="19.8867242597043514251708984375">
        <ele>2195.39990234375</ele>
        <time>2026-06-16T10:42:01.000Z</time>
        <extensions>
          <ns3:TrackPointExtension>
            <ns3:atemp>20.0</ns3:atemp>
          </ns3:TrackPointExtension>
        </extensions>
      </trkpt>
      <trkpt lat="42.60415828786790370941162109375" lon="19.88673892803490161895751953125">
        <ele>2195.39990234375</ele>
        <time>2026-06-16T10:42:02.000Z</time>
        <extensions>
          <ns3:TrackPointExtension>
            <ns3:atemp>20.0</ns3:atemp>
          </ns3:TrackPointExtension>
        </extensions>
      </trkpt>
      <trkpt lat="42.6041511632502079010009765625" lon="19.88674647174775600433349609375">
        <ele>2195.39990234375</ele>
        <time>2026-06-16T10:42:03.000Z</time>
        <extensions>
          <ns3:TrackPointExtension>
            <ns3:atemp>20.0</ns3:atemp>
          </ns3:TrackPointExtension>
        </extensions>
      </trkpt>
      <trkpt lat="42.60415124706923961639404296875" lon="19.8867490701377391815185546875">
        <ele>2195.39990234375</ele>
        <time>2026-06-16T10:42:04.000Z</time>
        <extensions>
          <ns3:TrackPointExtension>
            <ns3:atemp>20.0</ns3:atemp>
          </ns3:TrackPointExtension>
        </extensions>
      </trkpt>
      <trkpt lat="42.60414831340312957763671875" lon="19.8867507465183734893798828125">
        <ele>2195.39990234375</ele>
        <time>2026-06-16T10:42:05.000Z</time>
        <extensions>
          <ns3:TrackPointExtension>
            <ns3:atemp>20.0</ns3:atemp>
          </ns3:TrackPointExtension>
        </extensions>
      </trkpt>
      <trkpt lat="42.6041474752128124237060546875" lon="19.88675401546061038970947265625">
        <ele>2195.39990234375</ele>
        <time>2026-06-16T10:42:06.000Z</time>
        <extensions>
          <ns3:TrackPointExtension>
            <ns3:atemp>20.0</ns3:atemp>
          </ns3:TrackPointExtension>
        </extensions>
      </trkpt>
      <trkpt lat="42.6041474752128124237060546875" lon="19.88675401546061038970947265625">
        <ele>2195.39990234375</ele>
        <time>2026-06-16T10:42:07.000Z</time>
        <extensions>
          <ns3:TrackPointExtension>
            <ns3:atemp>20.0</ns3:atemp>
          </ns3:TrackPointExtension>
        </extensions>
      </trkpt>
      <trkpt lat="42.6041474752128124237060546875" lon="19.88675401546061038970947265625">
        <ele>2195.39990234375</ele>
        <time>2026-06-16T10:42:08.000Z</time>
        <extensions>
          <ns3:TrackPointExtension>
            <ns3:atemp>20.0</ns3:atemp>
          </ns3:TrackPointExtension>
        </extensions>
      </trkpt>
      <trkpt lat="42.6041474752128124237060546875" lon="19.88675401546061038970947265625">
        <ele>2195.39990234375</ele>
        <time>2026-06-16T10:42:09.000Z</time>
        <extensions>
          <ns3:TrackPointExtension>
            <ns3:atemp>20.0</ns3:atemp>
          </ns3:TrackPointExtension>
        </extensions>
      </trkpt>
      <trkpt lat="42.6041474752128124237060546875" lon="19.88675401546061038970947265625">
        <ele>2195.39990234375</ele>
        <time>2026-06-16T10:42:10.000Z</time>
        <extensions>
          <ns3:TrackPointExtension>
            <ns3:atemp>20.0</ns3:atemp>
          </ns3:TrackPointExtension>
        </extensions>
      </trkpt>
      <trkpt lat="42.6041474752128124237060546875" lon="19.88675401546061038970947265625">
        <ele>2195.39990234375</ele>
        <time>2026-06-16T10:42:11.000Z</time>
        <extensions>
          <ns3:TrackPointExtension>
            <ns3:atemp>20.0</ns3:atemp>
          </ns3:TrackPointExtension>
        </extensions>
      </trkpt>
      <trkpt lat="42.6041474752128124237060546875" lon="19.88675401546061038970947265625">
        <ele>2195.39990234375</ele>
        <time>2026-06-16T10:42:12.000Z</time>
        <extensions>
          <ns3:TrackPointExtension>
            <ns3:atemp>20.0</ns3:atemp>
          </ns3:TrackPointExtension>
        </extensions>
      </trkpt>
      <trkpt lat="42.6041474752128124237060546875" lon="19.88675401546061038970947265625">
        <ele>2195.39990234375</ele>
        <time>2026-06-16T10:42:13.000Z</time>
        <extensions>
          <ns3:TrackPointExtension>
            <ns3:atemp>20.0</ns3:atemp>
          </ns3:TrackPointExtension>
        </extensions>
      </trkpt>
      <trkpt lat="42.6041474752128124237060546875" lon="19.88675401546061038970947265625">
        <ele>2195.39990234375</ele>
        <time>2026-06-16T10:42:14.000Z</time>
        <extensions>
          <ns3:TrackPointExtension>
            <ns3:atemp>20.0</ns3:atemp>
          </ns3:TrackPointExtension>
        </extensions>
      </trkpt>
      <trkpt lat="42.6041474752128124237060546875" lon="19.88675401546061038970947265625">
        <ele>2195.39990234375</ele>
        <time>2026-06-16T10:42:15.000Z</time>
        <extensions>
          <ns3:TrackPointExtension>
            <ns3:atemp>20.0</ns3:atemp>
          </ns3:TrackPointExtension>
        </extensions>
      </trkpt>
      <trkpt lat="42.6041474752128124237060546875" lon="19.88675401546061038970947265625">
        <ele>2195.39990234375</ele>
        <time>2026-06-16T10:42:16.000Z</time>
        <extensions>
          <ns3:TrackPointExtension>
            <ns3:atemp>20.0</ns3:atemp>
          </ns3:TrackPointExtension>
        </extensions>
      </trkpt>
      <trkpt lat="42.6041474752128124237060546875" lon="19.88675401546061038970947265625">
        <ele>2195.39990234375</ele>
        <time>2026-06-16T10:42:17.000Z</time>
        <extensions>
          <ns3:TrackPointExtension>
            <ns3:atemp>20.0</ns3:atemp>
          </ns3:TrackPointExtension>
        </extensions>
      </trkpt>
      <trkpt lat="42.6041474752128124237060546875" lon="19.88675401546061038970947265625">
        <ele>2195.39990234375</ele>
        <time>2026-06-16T10:42:18.000Z</time>
        <extensions>
          <ns3:TrackPointExtension>
            <ns3:atemp>20.0</ns3:atemp>
          </ns3:TrackPointExtension>
        </extensions>
      </trkpt>
      <trkpt lat="42.6041474752128124237060546875" lon="19.88675401546061038970947265625">
        <ele>2195.39990234375</ele>
        <time>2026-06-16T10:42:19.000Z</time>
        <extensions>
          <ns3:TrackPointExtension>
            <ns3:atemp>20.0</ns3:atemp>
          </ns3:TrackPointExtension>
        </extensions>
      </trkpt>
      <trkpt lat="42.6041474752128124237060546875" lon="19.88675401546061038970947265625">
        <ele>2195.39990234375</ele>
        <time>2026-06-16T10:42:20.000Z</time>
        <extensions>
          <ns3:TrackPointExtension>
            <ns3:atemp>20.0</ns3:atemp>
          </ns3:TrackPointExtension>
        </extensions>
      </trkpt>
      <trkpt lat="42.6041474752128124237060546875" lon="19.88675401546061038970947265625">
        <ele>2195.39990234375</ele>
        <time>2026-06-16T10:42:21.000Z</time>
        <extensions>
          <ns3:TrackPointExtension>
            <ns3:atemp>20.0</ns3:atemp>
          </ns3:TrackPointExtension>
        </extensions>
      </trkpt>
      <trkpt lat="42.6041474752128124237060546875" lon="19.88675401546061038970947265625">
        <ele>2195.39990234375</ele>
        <time>2026-06-16T10:42:22.000Z</time>
        <extensions>
          <ns3:TrackPointExtension>
            <ns3:atemp>19.0</ns3:atemp>
          </ns3:TrackPointExtension>
        </extensions>
      </trkpt>
      <trkpt lat="42.6041474752128124237060546875" lon="19.88675401546061038970947265625">
        <ele>2195.39990234375</ele>
        <time>2026-06-16T10:42:23.000Z</time>
        <extensions>
          <ns3:TrackPointExtension>
            <ns3:atemp>19.0</ns3:atemp>
          </ns3:TrackPointExtension>
        </extensions>
      </trkpt>
      <trkpt lat="42.6041474752128124237060546875" lon="19.88675401546061038970947265625">
        <ele>2195.39990234375</ele>
        <time>2026-06-16T10:42:24.000Z</time>
        <extensions>
          <ns3:TrackPointExtension>
            <ns3:atemp>19.0</ns3:atemp>
          </ns3:TrackPointExtension>
        </extensions>
      </trkpt>
      <trkpt lat="42.6041474752128124237060546875" lon="19.88675401546061038970947265625">
        <ele>2195.39990234375</ele>
        <time>2026-06-16T10:42:25.000Z</time>
        <extensions>
          <ns3:TrackPointExtension>
            <ns3:atemp>19.0</ns3:atemp>
          </ns3:TrackPointExtension>
        </extensions>
      </trkpt>
      <trkpt lat="42.6041474752128124237060546875" lon="19.88675401546061038970947265625">
        <ele>2195.39990234375</ele>
        <time>2026-06-16T10:42:26.000Z</time>
        <extensions>
          <ns3:TrackPointExtension>
            <ns3:atemp>19.0</ns3:atemp>
          </ns3:TrackPointExtension>
        </extensions>
      </trkpt>
      <trkpt lat="42.6041474752128124237060546875" lon="19.88675401546061038970947265625">
        <ele>2195.39990234375</ele>
        <time>2026-06-16T10:42:27.000Z</time>
        <extensions>
          <ns3:TrackPointExtension>
            <ns3:atemp>19.0</ns3:atemp>
          </ns3:TrackPointExtension>
        </extensions>
      </trkpt>
      <trkpt lat="42.6041474752128124237060546875" lon="19.88675401546061038970947265625">
        <ele>2195.39990234375</ele>
        <time>2026-06-16T10:42:28.000Z</time>
        <extensions>
          <ns3:TrackPointExtension>
            <ns3:atemp>19.0</ns3:atemp>
          </ns3:TrackPointExtension>
        </extensions>
      </trkpt>
      <trkpt lat="42.6041474752128124237060546875" lon="19.88675401546061038970947265625">
        <ele>2195.39990234375</ele>
        <time>2026-06-16T10:42:29.000Z</time>
        <extensions>
          <ns3:TrackPointExtension>
            <ns3:atemp>19.0</ns3:atemp>
          </ns3:TrackPointExtension>
        </extensions>
      </trkpt>
      <trkpt lat="42.6041474752128124237060546875" lon="19.88675401546061038970947265625">
        <ele>2195.39990234375</ele>
        <time>2026-06-16T10:42:30.000Z</time>
        <extensions>
          <ns3:TrackPointExtension>
            <ns3:atemp>19.0</ns3:atemp>
          </ns3:TrackPointExtension>
        </extensions>
      </trkpt>
      <trkpt lat="42.6041474752128124237060546875" lon="19.88675401546061038970947265625">
        <ele>2195.39990234375</ele>
        <time>2026-06-16T10:42:31.000Z</time>
        <extensions>
          <ns3:TrackPointExtension>
            <ns3:atemp>19.0</ns3:atemp>
          </ns3:TrackPointExtension>
        </extensions>
      </trkpt>
      <trkpt lat="42.6041474752128124237060546875" lon="19.88675401546061038970947265625">
        <ele>2195.39990234375</ele>
        <time>2026-06-16T10:42:32.000Z</time>
        <extensions>
          <ns3:TrackPointExtension>
            <ns3:atemp>19.0</ns3:atemp>
          </ns3:TrackPointExtension>
        </extensions>
      </trkpt>
      <trkpt lat="42.6041474752128124237060546875" lon="19.88675401546061038970947265625">
        <ele>2195.39990234375</ele>
        <time>2026-06-16T10:42:33.000Z</time>
        <extensions>
          <ns3:TrackPointExtension>
            <ns3:atemp>19.0</ns3:atemp>
          </ns3:TrackPointExtension>
        </extensions>
      </trkpt>
      <trkpt lat="42.6041474752128124237060546875" lon="19.88675401546061038970947265625">
        <ele>2195.39990234375</ele>
        <time>2026-06-16T10:42:34.000Z</time>
        <extensions>
          <ns3:TrackPointExtension>
            <ns3:atemp>19.0</ns3:atemp>
          </ns3:TrackPointExtension>
        </extensions>
      </trkpt>
      <trkpt lat="42.6041474752128124237060546875" lon="19.88675401546061038970947265625">
        <ele>2195.39990234375</ele>
        <time>2026-06-16T10:42:35.000Z</time>
        <extensions>
          <ns3:TrackPointExtension>
            <ns3:atemp>19.0</ns3:atemp>
          </ns3:TrackPointExtension>
        </extensions>
      </trkpt>
      <trkpt lat="42.6041474752128124237060546875" lon="19.88675401546061038970947265625">
        <ele>2195.39990234375</ele>
        <time>2026-06-16T10:42:36.000Z</time>
        <extensions>
          <ns3:TrackPointExtension>
            <ns3:atemp>19.0</ns3:atemp>
          </ns3:TrackPointExtension>
        </extensions>
      </trkpt>
      <trkpt lat="42.6041474752128124237060546875" lon="19.88675401546061038970947265625">
        <ele>2195.39990234375</ele>
        <time>2026-06-16T10:42:37.000Z</time>
        <extensions>
          <ns3:TrackPointExtension>
            <ns3:atemp>19.0</ns3:atemp>
          </ns3:TrackPointExtension>
        </extensions>
      </trkpt>
      <trkpt lat="42.6041474752128124237060546875" lon="19.88675401546061038970947265625">
        <ele>2195.39990234375</ele>
        <time>2026-06-16T10:42:38.000Z</time>
        <extensions>
          <ns3:TrackPointExtension>
            <ns3:atemp>19.0</ns3:atemp>
          </ns3:TrackPointExtension>
        </extensions>
      </trkpt>
      <trkpt lat="42.6041474752128124237060546875" lon="19.88675401546061038970947265625">
        <ele>2195.39990234375</ele>
        <time>2026-06-16T10:42:39.000Z</time>
        <extensions>
          <ns3:TrackPointExtension>
            <ns3:atemp>19.0</ns3:atemp>
          </ns3:TrackPointExtension>
        </extensions>
      </trkpt>
      <trkpt lat="42.6041474752128124237060546875" lon="19.88675401546061038970947265625">
        <ele>2195.39990234375</ele>
        <time>2026-06-16T10:42:40.000Z</time>
        <extensions>
          <ns3:TrackPointExtension>
            <ns3:atemp>19.0</ns3:atemp>
          </ns3:TrackPointExtension>
        </extensions>
      </trkpt>
      <trkpt lat="42.6041474752128124237060546875" lon="19.88675401546061038970947265625">
        <ele>2195.39990234375</ele>
        <time>2026-06-16T10:42:41.000Z</time>
        <extensions>
          <ns3:TrackPointExtension>
            <ns3:atemp>19.0</ns3:atemp>
          </ns3:TrackPointExtension>
        </extensions>
      </trkpt>
      <trkpt lat="42.6041474752128124237060546875" lon="19.88675401546061038970947265625">
        <ele>2195.39990234375</ele>
        <time>2026-06-16T10:42:42.000Z</time>
        <extensions>
          <ns3:TrackPointExtension>
            <ns3:atemp>19.0</ns3:atemp>
          </ns3:TrackPointExtension>
        </extensions>
      </trkpt>
      <trkpt lat="42.6041474752128124237060546875" lon="19.88675401546061038970947265625">
        <ele>2195.39990234375</ele>
        <time>2026-06-16T10:42:43.000Z</time>
        <extensions>
          <ns3:TrackPointExtension>
            <ns3:atemp>19.0</ns3:atemp>
          </ns3:TrackPointExtension>
        </extensions>
      </trkpt>
      <trkpt lat="42.6041474752128124237060546875" lon="19.88675401546061038970947265625">
        <ele>2195.39990234375</ele>
        <time>2026-06-16T10:42:44.000Z</time>
        <extensions>
          <ns3:TrackPointExtension>
            <ns3:atemp>19.0</ns3:atemp>
          </ns3:TrackPointExtension>
        </extensions>
      </trkpt>
      <trkpt lat="42.6041474752128124237060546875" lon="19.88675401546061038970947265625">
        <ele>2195.39990234375</ele>
        <time>2026-06-16T10:42:45.000Z</time>
        <extensions>
          <ns3:TrackPointExtension>
            <ns3:atemp>19.0</ns3:atemp>
          </ns3:TrackPointExtension>
        </extensions>
      </trkpt>
      <trkpt lat="42.6041474752128124237060546875" lon="19.88675401546061038970947265625">
        <ele>2195.39990234375</ele>
        <time>2026-06-16T10:42:46.000Z</time>
        <extensions>
          <ns3:TrackPointExtension>
            <ns3:atemp>19.0</ns3:atemp>
          </ns3:TrackPointExtension>
        </extensions>
      </trkpt>
      <trkpt lat="42.6041474752128124237060546875" lon="19.88675401546061038970947265625">
        <ele>2195.39990234375</ele>
        <time>2026-06-16T10:42:47.000Z</time>
        <extensions>
          <ns3:TrackPointExtension>
            <ns3:atemp>19.0</ns3:atemp>
          </ns3:TrackPointExtension>
        </extensions>
      </trkpt>
      <trkpt lat="42.6041474752128124237060546875" lon="19.88675401546061038970947265625">
        <ele>2195.39990234375</ele>
        <time>2026-06-16T10:42:48.000Z</time>
        <extensions>
          <ns3:TrackPointExtension>
            <ns3:atemp>19.0</ns3:atemp>
          </ns3:TrackPointExtension>
        </extensions>
      </trkpt>
      <trkpt lat="42.6041474752128124237060546875" lon="19.88675401546061038970947265625">
        <ele>2195.39990234375</ele>
        <time>2026-06-16T10:42:49.000Z</time>
        <extensions>
          <ns3:TrackPointExtension>
            <ns3:atemp>19.0</ns3:atemp>
          </ns3:TrackPointExtension>
        </extensions>
      </trkpt>
      <trkpt lat="42.6041474752128124237060546875" lon="19.88675401546061038970947265625">
        <ele>2195.39990234375</ele>
        <time>2026-06-16T10:42:50.000Z</time>
        <extensions>
          <ns3:TrackPointExtension>
            <ns3:atemp>19.0</ns3:atemp>
          </ns3:TrackPointExtension>
        </extensions>
      </trkpt>
      <trkpt lat="42.6041474752128124237060546875" lon="19.88675401546061038970947265625">
        <ele>2195.39990234375</ele>
        <time>2026-06-16T10:42:51.000Z</time>
        <extensions>
          <ns3:TrackPointExtension>
            <ns3:atemp>19.0</ns3:atemp>
          </ns3:TrackPointExtension>
        </extensions>
      </trkpt>
      <trkpt lat="42.6041474752128124237060546875" lon="19.88675401546061038970947265625">
        <ele>2195.39990234375</ele>
        <time>2026-06-16T10:42:52.000Z</time>
        <extensions>
          <ns3:TrackPointExtension>
            <ns3:atemp>19.0</ns3:atemp>
          </ns3:TrackPointExtension>
        </extensions>
      </trkpt>
      <trkpt lat="42.6041474752128124237060546875" lon="19.88675401546061038970947265625">
        <ele>2195.39990234375</ele>
        <time>2026-06-16T10:42:53.000Z</time>
        <extensions>
          <ns3:TrackPointExtension>
            <ns3:atemp>19.0</ns3:atemp>
          </ns3:TrackPointExtension>
        </extensions>
      </trkpt>
      <trkpt lat="42.6041474752128124237060546875" lon="19.88675401546061038970947265625">
        <ele>2195.39990234375</ele>
        <time>2026-06-16T10:42:54.000Z</time>
        <extensions>
          <ns3:TrackPointExtension>
            <ns3:atemp>19.0</ns3:atemp>
          </ns3:TrackPointExtension>
        </extensions>
      </trkpt>
      <trkpt lat="42.6041474752128124237060546875" lon="19.88675401546061038970947265625">
        <ele>2195.39990234375</ele>
        <time>2026-06-16T10:42:55.000Z</time>
        <extensions>
          <ns3:TrackPointExtension>
            <ns3:atemp>19.0</ns3:atemp>
          </ns3:TrackPointExtension>
        </extensions>
      </trkpt>
      <trkpt lat="42.6041474752128124237060546875" lon="19.88675401546061038970947265625">
        <ele>2195.39990234375</ele>
        <time>2026-06-16T10:42:56.000Z</time>
        <extensions>
          <ns3:TrackPointExtension>
            <ns3:atemp>19.0</ns3:atemp>
          </ns3:TrackPointExtension>
        </extensions>
      </trkpt>
      <trkpt lat="42.6041474752128124237060546875" lon="19.88675401546061038970947265625">
        <ele>2195.39990234375</ele>
        <time>2026-06-16T10:42:57.000Z</time>
        <extensions>
          <ns3:TrackPointExtension>
            <ns3:atemp>19.0</ns3:atemp>
          </ns3:TrackPointExtension>
        </extensions>
      </trkpt>
      <trkpt lat="42.604146301746368408203125" lon="19.88675736822187900543212890625">
        <ele>2195.39990234375</ele>
        <time>2026-06-16T10:42:58.000Z</time>
        <extensions>
          <ns3:TrackPointExtension>
            <ns3:atemp>19.0</ns3:atemp>
          </ns3:TrackPointExtension>
        </extensions>
      </trkpt>
      <trkpt lat="42.6041270233690738677978515625" lon="19.8867648281157016754150390625">
        <ele>2195.39990234375</ele>
        <time>2026-06-16T10:42:59.000Z</time>
        <extensions>
          <ns3:TrackPointExtension>
            <ns3:atemp>19.0</ns3:atemp>
          </ns3:TrackPointExtension>
        </extensions>
      </trkpt>
      <trkpt lat="42.60410849936306476593017578125" lon="19.88676206208765506744384765625">
        <ele>2195.39990234375</ele>
        <time>2026-06-16T10:43:00.000Z</time>
        <extensions>
          <ns3:TrackPointExtension>
            <ns3:atemp>19.0</ns3:atemp>
          </ns3:TrackPointExtension>
        </extensions>
      </trkpt>
      <trkpt lat="42.6040955074131488800048828125" lon="19.8867520876228809356689453125">
        <ele>2195.199951171875</ele>
        <time>2026-06-16T10:43:01.000Z</time>
        <extensions>
          <ns3:TrackPointExtension>
            <ns3:atemp>19.0</ns3:atemp>
          </ns3:TrackPointExtension>
        </extensions>
      </trkpt>
      <trkpt lat="42.60408394038677215576171875" lon="19.88673876039683818817138671875">
        <ele>2195</ele>
        <time>2026-06-16T10:43:02.000Z</time>
        <extensions>
          <ns3:TrackPointExtension>
            <ns3:atemp>19.0</ns3:atemp>
          </ns3:TrackPointExtension>
        </extensions>
      </trkpt>
      <trkpt lat="42.60407161898910999298095703125" lon="19.88672300241887569427490234375">
        <ele>2194.800048828125</ele>
        <time>2026-06-16T10:43:03.000Z</time>
        <extensions>
          <ns3:TrackPointExtension>
            <ns3:atemp>19.0</ns3:atemp>
          </ns3:TrackPointExtension>
        </extensions>
      </trkpt>
      <trkpt lat="42.604055106639862060546875" lon="19.88670858554542064666748046875">
        <ele>2194.60009765625</ele>
        <time>2026-06-16T10:43:04.000Z</time>
        <extensions>
          <ns3:TrackPointExtension>
            <ns3:atemp>19.0</ns3:atemp>
          </ns3:TrackPointExtension>
        </extensions>
      </trkpt>
      <trkpt lat="42.60403440333902835845947265625" lon="19.8866920731961727142333984375">
        <ele>2194.199951171875</ele>
        <time>2026-06-16T10:43:05.000Z</time>
        <extensions>
          <ns3:TrackPointExtension>
            <ns3:atemp>19.0</ns3:atemp>
          </ns3:TrackPointExtension>
        </extensions>
      </trkpt>
      <trkpt lat="42.60401017963886260986328125" lon="19.8866848647594451904296875">
        <ele>2194</ele>
        <time>2026-06-16T10:43:06.000Z</time>
        <extensions>
          <ns3:TrackPointExtension>
            <ns3:atemp>19.0</ns3:atemp>
          </ns3:TrackPointExtension>
        </extensions>
      </trkpt>
      <trkpt lat="42.60398335754871368408203125" lon="19.88668411038815975189208984375">
        <ele>2193.60009765625</ele>
        <time>2026-06-16T10:43:07.000Z</time>
        <extensions>
          <ns3:TrackPointExtension>
            <ns3:atemp>19.0</ns3:atemp>
          </ns3:TrackPointExtension>
        </extensions>
      </trkpt>
      <trkpt lat="42.603955529630184173583984375" lon="19.88668109290301799774169921875">
        <ele>2193.199951171875</ele>
        <time>2026-06-16T10:43:08.000Z</time>
        <extensions>
          <ns3:TrackPointExtension>
            <ns3:atemp>19.0</ns3:atemp>
          </ns3:TrackPointExtension>
        </extensions>
      </trkpt>
      <trkpt lat="42.60392778553068637847900390625" lon="19.88668553531169891357421875">
        <ele>2192.60009765625</ele>
        <time>2026-06-16T10:43:09.000Z</time>
        <extensions>
          <ns3:TrackPointExtension>
            <ns3:atemp>19.0</ns3:atemp>
          </ns3:TrackPointExtension>
        </extensions>
      </trkpt>
      <trkpt lat="42.6039054058492183685302734375" lon="19.8867004550993442535400390625">
        <ele>2192.199951171875</ele>
        <time>2026-06-16T10:43:10.000Z</time>
        <extensions>
          <ns3:TrackPointExtension>
            <ns3:atemp>19.0</ns3:atemp>
          </ns3:TrackPointExtension>
        </extensions>
      </trkpt>
      <trkpt lat="42.60389073751866817474365234375" lon="19.88672040402889251708984375">
        <ele>2191.800048828125</ele>
        <time>2026-06-16T10:43:11.000Z</time>
        <extensions>
          <ns3:TrackPointExtension>
            <ns3:atemp>19.0</ns3:atemp>
          </ns3:TrackPointExtension>
        </extensions>
      </trkpt>
      <trkpt lat="42.6038836129009723663330078125" lon="19.88673808984458446502685546875">
        <ele>2191.60009765625</ele>
        <time>2026-06-16T10:43:12.000Z</time>
        <extensions>
          <ns3:TrackPointExtension>
            <ns3:atemp>19.0</ns3:atemp>
          </ns3:TrackPointExtension>
        </extensions>
      </trkpt>
      <trkpt lat="42.60388369672000408172607421875" lon="19.8867534287273883819580078125">
        <ele>2191.39990234375</ele>
        <time>2026-06-16T10:43:13.000Z</time>
        <extensions>
          <ns3:TrackPointExtension>
            <ns3:atemp>19.0</ns3:atemp>
          </ns3:TrackPointExtension>
        </extensions>
      </trkpt>
      <trkpt lat="42.6038839481770992279052734375" lon="19.88677136600017547607421875">
        <ele>2191</ele>
        <time>2026-06-16T10:43:14.000Z</time>
        <extensions>
          <ns3:TrackPointExtension>
            <ns3:atemp>19.0</ns3:atemp>
          </ns3:TrackPointExtension>
        </extensions>
      </trkpt>
      <trkpt lat="42.603885121643543243408203125" lon="19.88679550588130950927734375">
        <ele>2190.800048828125</ele>
        <time>2026-06-16T10:43:15.000Z</time>
        <extensions>
          <ns3:TrackPointExtension>
            <ns3:atemp>19.0</ns3:atemp>
          </ns3:TrackPointExtension>
        </extensions>
      </trkpt>
      <trkpt lat="42.60388813912868499755859375" lon="19.88681738264858722686767578125">
        <ele>2190.800048828125</ele>
        <time>2026-06-16T10:43:16.000Z</time>
        <extensions>
          <ns3:TrackPointExtension>
            <ns3:atemp>19.0</ns3:atemp>
          </ns3:TrackPointExtension>
        </extensions>
      </trkpt>
      <trkpt lat="42.60389543138444423675537109375" lon="19.88683666102588176727294921875">
        <ele>2190.60009765625</ele>
        <time>2026-06-16T10:43:17.000Z</time>
        <extensions>
          <ns3:TrackPointExtension>
            <ns3:atemp>19.0</ns3:atemp>
          </ns3:TrackPointExtension>
        </extensions>
      </trkpt>
      <trkpt lat="42.60390414856374263763427734375" lon="19.8868513293564319610595703125">
        <ele>2190.60009765625</ele>
        <time>2026-06-16T10:43:18.000Z</time>
        <extensions>
          <ns3:TrackPointExtension>
            <ns3:atemp>19.0</ns3:atemp>
          </ns3:TrackPointExtension>
        </extensions>
      </trkpt>
      <trkpt lat="42.60391739197075366973876953125" lon="19.88686532713472843170166015625">
        <ele>2190.60009765625</ele>
        <time>2026-06-16T10:43:19.000Z</time>
        <extensions>
          <ns3:TrackPointExtension>
            <ns3:atemp>19.0</ns3:atemp>
          </ns3:TrackPointExtension>
        </extensions>
      </trkpt>
      <trkpt lat="42.6039318926632404327392578125" lon="19.8868794925510883331298828125">
        <ele>2190.60009765625</ele>
        <time>2026-06-16T10:43:20.000Z</time>
        <extensions>
          <ns3:TrackPointExtension>
            <ns3:atemp>19.0</ns3:atemp>
          </ns3:TrackPointExtension>
        </extensions>
      </trkpt>
      <trkpt lat="42.60395091958343982696533203125" lon="19.886889718472957611083984375">
        <ele>2190.60009765625</ele>
        <time>2026-06-16T10:43:21.000Z</time>
        <extensions>
          <ns3:TrackPointExtension>
            <ns3:atemp>19.0</ns3:atemp>
          </ns3:TrackPointExtension>
        </extensions>
      </trkpt>
      <trkpt lat="42.60397128760814666748046875" lon="19.88689198158681392669677734375">
        <ele>2190.60009765625</ele>
        <time>2026-06-16T10:43:22.000Z</time>
        <extensions>
          <ns3:TrackPointExtension>
            <ns3:atemp>19.0</ns3:atemp>
          </ns3:TrackPointExtension>
        </extensions>
      </trkpt>
      <trkpt lat="42.6039888896048069000244140625" lon="19.8868952505290508270263671875">
        <ele>2190.800048828125</ele>
        <time>2026-06-16T10:43:23.000Z</time>
        <extensions>
          <ns3:TrackPointExtension>
            <ns3:atemp>19.0</ns3:atemp>
          </ns3:TrackPointExtension>
        </extensions>
      </trkpt>
      <trkpt lat="42.6040039770305156707763671875" lon="19.88689349032938480377197265625">
        <ele>2191</ele>
        <time>2026-06-16T10:43:24.000Z</time>
        <extensions>
          <ns3:TrackPointExtension>
            <ns3:atemp>19.0</ns3:atemp>
          </ns3:TrackPointExtension>
        </extensions>
      </trkpt>
      <trkpt lat="42.60401956737041473388671875" lon="19.88688695244491100311279296875">
        <ele>2191.199951171875</ele>
        <time>2026-06-16T10:43:25.000Z</time>
        <extensions>
          <ns3:TrackPointExtension>
            <ns3:atemp>19.0</ns3:atemp>
          </ns3:TrackPointExtension>
        </extensions>
      </trkpt>
      <trkpt lat="42.6040364988148212432861328125" lon="19.8868761397898197174072265625">
        <ele>2191.39990234375</ele>
        <time>2026-06-16T10:43:26.000Z</time>
        <extensions>
          <ns3:TrackPointExtension>
            <ns3:atemp>19.0</ns3:atemp>
          </ns3:TrackPointExtension>
        </extensions>
      </trkpt>
      <trkpt lat="42.60405535809695720672607421875" lon="19.88686122000217437744140625">
        <ele>2191.800048828125</ele>
        <time>2026-06-16T10:43:27.000Z</time>
        <extensions>
          <ns3:TrackPointExtension>
            <ns3:atemp>19.0</ns3:atemp>
          </ns3:TrackPointExtension>
        </extensions>
      </trkpt>
      <trkpt lat="42.60407212190330028533935546875" lon="19.88684504292905330657958984375">
        <ele>2192.199951171875</ele>
        <time>2026-06-16T10:43:28.000Z</time>
        <extensions>
          <ns3:TrackPointExtension>
            <ns3:atemp>19.0</ns3:atemp>
          </ns3:TrackPointExtension>
        </extensions>
      </trkpt>
      <trkpt lat="42.60408720932900905609130859375" lon="19.8868332244455814361572265625">
        <ele>2192.60009765625</ele>
        <time>2026-06-16T10:43:29.000Z</time>
        <extensions>
          <ns3:TrackPointExtension>
            <ns3:atemp>19.0</ns3:atemp>
          </ns3:TrackPointExtension>
        </extensions>
      </trkpt>
      <trkpt lat="42.6041002012789249420166015625" lon="19.88682073540985584259033203125">
        <ele>2193</ele>
        <time>2026-06-16T10:43:30.000Z</time>
        <extensions>
          <ns3:TrackPointExtension>
            <ns3:atemp>19.0</ns3:atemp>
          </ns3:TrackPointExtension>
        </extensions>
      </trkpt>
      <trkpt lat="42.60411285795271396636962890625" lon="19.88680078648030757904052734375">
        <ele>2193.39990234375</ele>
        <time>2026-06-16T10:43:31.000Z</time>
        <extensions>
          <ns3:TrackPointExtension>
            <ns3:atemp>19.0</ns3:atemp>
          </ns3:TrackPointExtension>
        </extensions>
      </trkpt>
      <trkpt lat="42.60411839000880718231201171875" lon="19.88677849061787128448486328125">
        <ele>2193.60009765625</ele>
        <time>2026-06-16T10:43:32.000Z</time>
        <extensions>
          <ns3:TrackPointExtension>
            <ns3:atemp>19.0</ns3:atemp>
          </ns3:TrackPointExtension>
        </extensions>
      </trkpt>
      <trkpt lat="42.60413129813969135284423828125" lon="19.8867581225931644439697265625">
        <ele>2194</ele>
        <time>2026-06-16T10:43:33.000Z</time>
        <extensions>
          <ns3:TrackPointExtension>
            <ns3:atemp>19.0</ns3:atemp>
          </ns3:TrackPointExtension>
        </extensions>
      </trkpt>
      <trkpt lat="42.60414051823318004608154296875" lon="19.8867403529584407806396484375">
        <ele>2194.39990234375</ele>
        <time>2026-06-16T10:43:34.000Z</time>
        <extensions>
          <ns3:TrackPointExtension>
            <ns3:atemp>19.0</ns3:atemp>
          </ns3:TrackPointExtension>
        </extensions>
      </trkpt>
      <trkpt lat="42.60415174998342990875244140625" lon="19.8867299593985080718994140625">
        <ele>2194.800048828125</ele>
        <time>2026-06-16T10:43:35.000Z</time>
        <extensions>
          <ns3:TrackPointExtension>
            <ns3:atemp>19.0</ns3:atemp>
          </ns3:TrackPointExtension>
        </extensions>
      </trkpt>
      <trkpt lat="42.60416264645755290985107421875" lon="19.88671814091503620147705078125">
        <ele>2195</ele>
        <time>2026-06-16T10:43:36.000Z</time>
        <extensions>
          <ns3:TrackPointExtension>
            <ns3:atemp>19.0</ns3:atemp>
          </ns3:TrackPointExtension>
        </extensions>
      </trkpt>
      <trkpt lat="42.60415728203952312469482421875" lon="19.88672149367630481719970703125">
        <ele>2195.199951171875</ele>
        <time>2026-06-16T10:43:37.000Z</time>
        <extensions>
          <ns3:TrackPointExtension>
            <ns3:atemp>19.0</ns3:atemp>
          </ns3:TrackPointExtension>
        </extensions>
      </trkpt>
      <trkpt lat="42.60415812022984027862548828125" lon="19.88671638071537017822265625">
        <ele>2195.199951171875</ele>
        <time>2026-06-16T10:43:38.000Z</time>
        <extensions>
          <ns3:TrackPointExtension>
            <ns3:atemp>19.0</ns3:atemp>
          </ns3:TrackPointExtension>
        </extensions>
      </trkpt>
      <trkpt lat="42.60415627621114253997802734375" lon="19.88671478815376758575439453125">
        <ele>2195.39990234375</ele>
        <time>2026-06-16T10:43:39.000Z</time>
        <extensions>
          <ns3:TrackPointExtension>
            <ns3:atemp>19.0</ns3:atemp>
          </ns3:TrackPointExtension>
        </extensions>
      </trkpt>
      <trkpt lat="42.6041598804295063018798828125" lon="19.8867145366966724395751953125">
        <ele>2195.60009765625</ele>
        <time>2026-06-16T10:43:40.000Z</time>
        <extensions>
          <ns3:TrackPointExtension>
            <ns3:atemp>19.0</ns3:atemp>
          </ns3:TrackPointExtension>
        </extensions>
      </trkpt>
      <trkpt lat="42.6041659153997898101806640625" lon="19.88670975901186466217041015625">
        <ele>2195.60009765625</ele>
        <time>2026-06-16T10:43:41.000Z</time>
        <extensions>
          <ns3:TrackPointExtension>
            <ns3:atemp>19.0</ns3:atemp>
          </ns3:TrackPointExtension>
        </extensions>
      </trkpt>
      <trkpt lat="42.60416951961815357208251953125" lon="19.8867051489651203155517578125">
        <ele>2195.60009765625</ele>
        <time>2026-06-16T10:43:42.000Z</time>
        <extensions>
          <ns3:TrackPointExtension>
            <ns3:atemp>19.0</ns3:atemp>
          </ns3:TrackPointExtension>
        </extensions>
      </trkpt>
      <trkpt lat="42.604172788560390472412109375" lon="19.88670540042221546173095703125">
        <ele>2195.60009765625</ele>
        <time>2026-06-16T10:43:43.000Z</time>
        <extensions>
          <ns3:TrackPointExtension>
            <ns3:atemp>19.0</ns3:atemp>
          </ns3:TrackPointExtension>
        </extensions>
      </trkpt>
      <trkpt lat="42.60417438112199306488037109375" lon="19.88669869489967823028564453125">
        <ele>2195.60009765625</ele>
        <time>2026-06-16T10:43:44.000Z</time>
        <extensions>
          <ns3:TrackPointExtension>
            <ns3:atemp>19.0</ns3:atemp>
          </ns3:TrackPointExtension>
        </extensions>
      </trkpt>
      <trkpt lat="42.6041766442358493804931640625" lon="19.88669651560485363006591796875">
        <ele>2195.60009765625</ele>
        <time>2026-06-16T10:43:45.000Z</time>
        <extensions>
          <ns3:TrackPointExtension>
            <ns3:atemp>19.0</ns3:atemp>
          </ns3:TrackPointExtension>
        </extensions>
      </trkpt>
      <trkpt lat="42.6041766442358493804931640625" lon="19.88669651560485363006591796875">
        <ele>2195.800048828125</ele>
        <time>2026-06-16T10:43:46.000Z</time>
        <extensions>
          <ns3:TrackPointExtension>
            <ns3:atemp>19.0</ns3:atemp>
          </ns3:TrackPointExtension>
        </extensions>
      </trkpt>
      <trkpt lat="42.6041766442358493804931640625" lon="19.88669651560485363006591796875">
        <ele>2195.800048828125</ele>
        <time>2026-06-16T10:43:47.000Z</time>
        <extensions>
          <ns3:TrackPointExtension>
            <ns3:atemp>19.0</ns3:atemp>
          </ns3:TrackPointExtension>
        </extensions>
      </trkpt>
      <trkpt lat="42.6041766442358493804931640625" lon="19.88669651560485363006591796875">
        <ele>2196</ele>
        <time>2026-06-16T10:43:48.000Z</time>
        <extensions>
          <ns3:TrackPointExtension>
            <ns3:atemp>19.0</ns3:atemp>
          </ns3:TrackPointExtension>
        </extensions>
      </trkpt>
      <trkpt lat="42.6041766442358493804931640625" lon="19.88669651560485363006591796875">
        <ele>2196</ele>
        <time>2026-06-16T10:43:49.000Z</time>
        <extensions>
          <ns3:TrackPointExtension>
            <ns3:atemp>19.0</ns3:atemp>
          </ns3:TrackPointExtension>
        </extensions>
      </trkpt>
      <trkpt lat="42.6041766442358493804931640625" lon="19.88669651560485363006591796875">
        <ele>2196</ele>
        <time>2026-06-16T10:43:50.000Z</time>
        <extensions>
          <ns3:TrackPointExtension>
            <ns3:atemp>19.0</ns3:atemp>
          </ns3:TrackPointExtension>
        </extensions>
      </trkpt>
      <trkpt lat="42.6041766442358493804931640625" lon="19.88669651560485363006591796875">
        <ele>2196</ele>
        <time>2026-06-16T10:43:51.000Z</time>
        <extensions>
          <ns3:TrackPointExtension>
            <ns3:atemp>19.0</ns3:atemp>
          </ns3:TrackPointExtension>
        </extensions>
      </trkpt>
      <trkpt lat="42.6041766442358493804931640625" lon="19.88669651560485363006591796875">
        <ele>2196</ele>
        <time>2026-06-16T10:43:52.000Z</time>
        <extensions>
          <ns3:TrackPointExtension>
            <ns3:atemp>19.0</ns3:atemp>
          </ns3:TrackPointExtension>
        </extensions>
      </trkpt>
      <trkpt lat="42.6041766442358493804931640625" lon="19.88669651560485363006591796875">
        <ele>2196</ele>
        <time>2026-06-16T10:43:53.000Z</time>
        <extensions>
          <ns3:TrackPointExtension>
            <ns3:atemp>19.0</ns3:atemp>
          </ns3:TrackPointExtension>
        </extensions>
      </trkpt>
      <trkpt lat="42.6041766442358493804931640625" lon="19.88669651560485363006591796875">
        <ele>2196</ele>
        <time>2026-06-16T10:43:54.000Z</time>
        <extensions>
          <ns3:TrackPointExtension>
            <ns3:atemp>19.0</ns3:atemp>
          </ns3:TrackPointExtension>
        </extensions>
      </trkpt>
      <trkpt lat="42.6041766442358493804931640625" lon="19.88669651560485363006591796875">
        <ele>2196</ele>
        <time>2026-06-16T10:43:55.000Z</time>
        <extensions>
          <ns3:TrackPointExtension>
            <ns3:atemp>19.0</ns3:atemp>
          </ns3:TrackPointExtension>
        </extensions>
      </trkpt>
      <trkpt lat="42.6041766442358493804931640625" lon="19.88669651560485363006591796875">
        <ele>2196</ele>
        <time>2026-06-16T10:43:56.000Z</time>
        <extensions>
          <ns3:TrackPointExtension>
            <ns3:atemp>19.0</ns3:atemp>
          </ns3:TrackPointExtension>
        </extensions>
      </trkpt>
      <trkpt lat="42.6041766442358493804931640625" lon="19.88669651560485363006591796875">
        <ele>2196</ele>
        <time>2026-06-16T10:43:57.000Z</time>
        <extensions>
          <ns3:TrackPointExtension>
            <ns3:atemp>19.0</ns3:atemp>
          </ns3:TrackPointExtension>
        </extensions>
      </trkpt>
      <trkpt lat="42.6041766442358493804931640625" lon="19.88669651560485363006591796875">
        <ele>2196</ele>
        <time>2026-06-16T10:43:58.000Z</time>
        <extensions>
          <ns3:TrackPointExtension>
            <ns3:atemp>19.0</ns3:atemp>
          </ns3:TrackPointExtension>
        </extensions>
      </trkpt>
      <trkpt lat="42.6041766442358493804931640625" lon="19.88669651560485363006591796875">
        <ele>2196.199951171875</ele>
        <time>2026-06-16T10:43:59.000Z</time>
        <extensions>
          <ns3:TrackPointExtension>
            <ns3:atemp>19.0</ns3:atemp>
          </ns3:TrackPointExtension>
        </extensions>
      </trkpt>
      <trkpt lat="42.6041766442358493804931640625" lon="19.88669651560485363006591796875">
        <ele>2196.199951171875</ele>
        <time>2026-06-16T10:44:00.000Z</time>
        <extensions>
          <ns3:TrackPointExtension>
            <ns3:atemp>19.0</ns3:atemp>
          </ns3:TrackPointExtension>
        </extensions>
      </trkpt>
      <trkpt lat="42.6041766442358493804931640625" lon="19.88669651560485363006591796875">
        <ele>2196.199951171875</ele>
        <time>2026-06-16T10:44:01.000Z</time>
        <extensions>
          <ns3:TrackPointExtension>
            <ns3:atemp>19.0</ns3:atemp>
          </ns3:TrackPointExtension>
        </extensions>
      </trkpt>
      <trkpt lat="42.6041766442358493804931640625" lon="19.88669651560485363006591796875">
        <ele>2196.199951171875</ele>
        <time>2026-06-16T10:44:02.000Z</time>
        <extensions>
          <ns3:TrackPointExtension>
            <ns3:atemp>19.0</ns3:atemp>
          </ns3:TrackPointExtension>
        </extensions>
      </trkpt>
      <trkpt lat="42.6041766442358493804931640625" lon="19.88669651560485363006591796875">
        <ele>2196.199951171875</ele>
        <time>2026-06-16T10:44:03.000Z</time>
        <extensions>
          <ns3:TrackPointExtension>
            <ns3:atemp>19.0</ns3:atemp>
          </ns3:TrackPointExtension>
        </extensions>
      </trkpt>
      <trkpt lat="42.6041766442358493804931640625" lon="19.88669651560485363006591796875">
        <ele>2196.199951171875</ele>
        <time>2026-06-16T10:44:04.000Z</time>
        <extensions>
          <ns3:TrackPointExtension>
            <ns3:atemp>19.0</ns3:atemp>
          </ns3:TrackPointExtension>
        </extensions>
      </trkpt>
      <trkpt lat="42.6041766442358493804931640625" lon="19.88669651560485363006591796875">
        <ele>2196.199951171875</ele>
        <time>2026-06-16T10:44:05.000Z</time>
        <extensions>
          <ns3:TrackPointExtension>
            <ns3:atemp>19.0</ns3:atemp>
          </ns3:TrackPointExtension>
        </extensions>
      </trkpt>
      <trkpt lat="42.6041766442358493804931640625" lon="19.88669651560485363006591796875">
        <ele>2196.199951171875</ele>
        <time>2026-06-16T10:44:06.000Z</time>
        <extensions>
          <ns3:TrackPointExtension>
            <ns3:atemp>19.0</ns3:atemp>
          </ns3:TrackPointExtension>
        </extensions>
      </trkpt>
      <trkpt lat="42.6041766442358493804931640625" lon="19.88669651560485363006591796875">
        <ele>2196.199951171875</ele>
        <time>2026-06-16T10:44:07.000Z</time>
        <extensions>
          <ns3:TrackPointExtension>
            <ns3:atemp>19.0</ns3:atemp>
          </ns3:TrackPointExtension>
        </extensions>
      </trkpt>
      <trkpt lat="42.6041766442358493804931640625" lon="19.88669651560485363006591796875">
        <ele>2196.199951171875</ele>
        <time>2026-06-16T10:44:08.000Z</time>
        <extensions>
          <ns3:TrackPointExtension>
            <ns3:atemp>19.0</ns3:atemp>
          </ns3:TrackPointExtension>
        </extensions>
      </trkpt>
      <trkpt lat="42.6041766442358493804931640625" lon="19.88669651560485363006591796875">
        <ele>2196.199951171875</ele>
        <time>2026-06-16T10:44:09.000Z</time>
        <extensions>
          <ns3:TrackPointExtension>
            <ns3:atemp>19.0</ns3:atemp>
          </ns3:TrackPointExtension>
        </extensions>
      </trkpt>
      <trkpt lat="42.6041766442358493804931640625" lon="19.88669651560485363006591796875">
        <ele>2196.199951171875</ele>
        <time>2026-06-16T10:44:10.000Z</time>
        <extensions>
          <ns3:TrackPointExtension>
            <ns3:atemp>19.0</ns3:atemp>
          </ns3:TrackPointExtension>
        </extensions>
      </trkpt>
      <trkpt lat="42.6041766442358493804931640625" lon="19.88669651560485363006591796875">
        <ele>2196.199951171875</ele>
        <time>2026-06-16T10:44:11.000Z</time>
        <extensions>
          <ns3:TrackPointExtension>
            <ns3:atemp>19.0</ns3:atemp>
          </ns3:TrackPointExtension>
        </extensions>
      </trkpt>
      <trkpt lat="42.6041766442358493804931640625" lon="19.88669651560485363006591796875">
        <ele>2196.199951171875</ele>
        <time>2026-06-16T10:44:12.000Z</time>
        <extensions>
          <ns3:TrackPointExtension>
            <ns3:atemp>19.0</ns3:atemp>
          </ns3:TrackPointExtension>
        </extensions>
      </trkpt>
      <trkpt lat="42.6041766442358493804931640625" lon="19.88669651560485363006591796875">
        <ele>2196.199951171875</ele>
        <time>2026-06-16T10:44:13.000Z</time>
        <extensions>
          <ns3:TrackPointExtension>
            <ns3:atemp>19.0</ns3:atemp>
          </ns3:TrackPointExtension>
        </extensions>
      </trkpt>
      <trkpt lat="42.6041766442358493804931640625" lon="19.88669651560485363006591796875">
        <ele>2196.199951171875</ele>
        <time>2026-06-16T10:44:14.000Z</time>
        <extensions>
          <ns3:TrackPointExtension>
            <ns3:atemp>19.0</ns3:atemp>
          </ns3:TrackPointExtension>
        </extensions>
      </trkpt>
      <trkpt lat="42.6041766442358493804931640625" lon="19.88669651560485363006591796875">
        <ele>2196</ele>
        <time>2026-06-16T10:44:15.000Z</time>
        <extensions>
          <ns3:TrackPointExtension>
            <ns3:atemp>19.0</ns3:atemp>
          </ns3:TrackPointExtension>
        </extensions>
      </trkpt>
      <trkpt lat="42.6041766442358493804931640625" lon="19.88669651560485363006591796875">
        <ele>2196</ele>
        <time>2026-06-16T10:44:16.000Z</time>
        <extensions>
          <ns3:TrackPointExtension>
            <ns3:atemp>19.0</ns3:atemp>
          </ns3:TrackPointExtension>
        </extensions>
      </trkpt>
      <trkpt lat="42.6041766442358493804931640625" lon="19.88669651560485363006591796875">
        <ele>2196</ele>
        <time>2026-06-16T10:44:17.000Z</time>
        <extensions>
          <ns3:TrackPointExtension>
            <ns3:atemp>19.0</ns3:atemp>
          </ns3:TrackPointExtension>
        </extensions>
      </trkpt>
      <trkpt lat="42.6041766442358493804931640625" lon="19.88669651560485363006591796875">
        <ele>2196</ele>
        <time>2026-06-16T10:44:18.000Z</time>
        <extensions>
          <ns3:TrackPointExtension>
            <ns3:atemp>19.0</ns3:atemp>
          </ns3:TrackPointExtension>
        </extensions>
      </trkpt>
      <trkpt lat="42.6041766442358493804931640625" lon="19.88669651560485363006591796875">
        <ele>2196</ele>
        <time>2026-06-16T10:44:19.000Z</time>
        <extensions>
          <ns3:TrackPointExtension>
            <ns3:atemp>19.0</ns3:atemp>
          </ns3:TrackPointExtension>
        </extensions>
      </trkpt>
      <trkpt lat="42.6041766442358493804931640625" lon="19.88669651560485363006591796875">
        <ele>2196</ele>
        <time>2026-06-16T10:44:20.000Z</time>
        <extensions>
          <ns3:TrackPointExtension>
            <ns3:atemp>19.0</ns3:atemp>
          </ns3:TrackPointExtension>
        </extensions>
      </trkpt>
      <trkpt lat="42.6041766442358493804931640625" lon="19.88669651560485363006591796875">
        <ele>2196</ele>
        <time>2026-06-16T10:44:21.000Z</time>
        <extensions>
          <ns3:TrackPointExtension>
            <ns3:atemp>19.0</ns3:atemp>
          </ns3:TrackPointExtension>
        </extensions>
      </trkpt>
      <trkpt lat="42.6041766442358493804931640625" lon="19.88669651560485363006591796875">
        <ele>2196</ele>
        <time>2026-06-16T10:44:22.000Z</time>
        <extensions>
          <ns3:TrackPointExtension>
            <ns3:atemp>19.0</ns3:atemp>
          </ns3:TrackPointExtension>
        </extensions>
      </trkpt>
      <trkpt lat="42.6041766442358493804931640625" lon="19.88669651560485363006591796875">
        <ele>2196</ele>
        <time>2026-06-16T10:44:23.000Z</time>
        <extensions>
          <ns3:TrackPointExtension>
            <ns3:atemp>19.0</ns3:atemp>
          </ns3:TrackPointExtension>
        </extensions>
      </trkpt>
      <trkpt lat="42.6041732914745807647705078125" lon="19.88669366575777530670166015625">
        <ele>2196</ele>
        <time>2026-06-16T10:44:24.000Z</time>
        <extensions>
          <ns3:TrackPointExtension>
            <ns3:atemp>19.0</ns3:atemp>
          </ns3:TrackPointExtension>
        </extensions>
      </trkpt>
      <trkpt lat="42.6041766442358493804931640625" lon="19.88669651560485363006591796875">
        <ele>2196</ele>
        <time>2026-06-16T10:44:25.000Z</time>
        <extensions>
          <ns3:TrackPointExtension>
            <ns3:atemp>19.0</ns3:atemp>
          </ns3:TrackPointExtension>
        </extensions>
      </trkpt>
      <trkpt lat="42.6041766442358493804931640625" lon="19.88669651560485363006591796875">
        <ele>2196</ele>
        <time>2026-06-16T10:44:26.000Z</time>
        <extensions>
          <ns3:TrackPointExtension>
            <ns3:atemp>19.0</ns3:atemp>
          </ns3:TrackPointExtension>
        </extensions>
      </trkpt>
      <trkpt lat="42.6041766442358493804931640625" lon="19.88669651560485363006591796875">
        <ele>2196</ele>
        <time>2026-06-16T10:44:27.000Z</time>
        <extensions>
          <ns3:TrackPointExtension>
            <ns3:atemp>19.0</ns3:atemp>
          </ns3:TrackPointExtension>
        </extensions>
      </trkpt>
      <trkpt lat="42.6041766442358493804931640625" lon="19.88669651560485363006591796875">
        <ele>2196</ele>
        <time>2026-06-16T10:44:28.000Z</time>
        <extensions>
          <ns3:TrackPointExtension>
            <ns3:atemp>19.0</ns3:atemp>
          </ns3:TrackPointExtension>
        </extensions>
      </trkpt>
      <trkpt lat="42.6041766442358493804931640625" lon="19.88669651560485363006591796875">
        <ele>2195.800048828125</ele>
        <time>2026-06-16T10:44:29.000Z</time>
        <extensions>
          <ns3:TrackPointExtension>
            <ns3:atemp>19.0</ns3:atemp>
          </ns3:TrackPointExtension>
        </extensions>
      </trkpt>
      <trkpt lat="42.6041766442358493804931640625" lon="19.88669651560485363006591796875">
        <ele>2195.800048828125</ele>
        <time>2026-06-16T10:44:30.000Z</time>
        <extensions>
          <ns3:TrackPointExtension>
            <ns3:atemp>19.0</ns3:atemp>
          </ns3:TrackPointExtension>
        </extensions>
      </trkpt>
      <trkpt lat="42.6041685976088047027587890625" lon="19.88668419420719146728515625">
        <ele>2195.800048828125</ele>
        <time>2026-06-16T10:44:31.000Z</time>
        <extensions>
          <ns3:TrackPointExtension>
            <ns3:atemp>19.0</ns3:atemp>
          </ns3:TrackPointExtension>
        </extensions>
      </trkpt>
      <trkpt lat="42.60416214354336261749267578125" lon="19.88667757250368595123291015625">
        <ele>2195.800048828125</ele>
        <time>2026-06-16T10:44:32.000Z</time>
        <extensions>
          <ns3:TrackPointExtension>
            <ns3:atemp>19.0</ns3:atemp>
          </ns3:TrackPointExtension>
        </extensions>
      </trkpt>
      <trkpt lat="42.60416247881948947906494140625" lon="19.88667338155210018157958984375">
        <ele>2195.800048828125</ele>
        <time>2026-06-16T10:44:33.000Z</time>
        <extensions>
          <ns3:TrackPointExtension>
            <ns3:atemp>19.0</ns3:atemp>
          </ns3:TrackPointExtension>
        </extensions>
      </trkpt>
      <trkpt lat="42.60416247881948947906494140625" lon="19.88667338155210018157958984375">
        <ele>2195.800048828125</ele>
        <time>2026-06-16T10:44:34.000Z</time>
        <extensions>
          <ns3:TrackPointExtension>
            <ns3:atemp>19.0</ns3:atemp>
          </ns3:TrackPointExtension>
        </extensions>
      </trkpt>
      <trkpt lat="42.60416247881948947906494140625" lon="19.88667338155210018157958984375">
        <ele>2195.60009765625</ele>
        <time>2026-06-16T10:44:35.000Z</time>
        <extensions>
          <ns3:TrackPointExtension>
            <ns3:atemp>19.0</ns3:atemp>
          </ns3:TrackPointExtension>
        </extensions>
      </trkpt>
      <trkpt lat="42.60416247881948947906494140625" lon="19.88667338155210018157958984375">
        <ele>2195.60009765625</ele>
        <time>2026-06-16T10:44:36.000Z</time>
        <extensions>
          <ns3:TrackPointExtension>
            <ns3:atemp>19.0</ns3:atemp>
          </ns3:TrackPointExtension>
        </extensions>
      </trkpt>
      <trkpt lat="42.60416247881948947906494140625" lon="19.88667338155210018157958984375">
        <ele>2195.60009765625</ele>
        <time>2026-06-16T10:44:37.000Z</time>
        <extensions>
          <ns3:TrackPointExtension>
            <ns3:atemp>19.0</ns3:atemp>
          </ns3:TrackPointExtension>
        </extensions>
      </trkpt>
      <trkpt lat="42.60416214354336261749267578125" lon="19.88667304627597332000732421875">
        <ele>2195.60009765625</ele>
        <time>2026-06-16T10:44:38.000Z</time>
        <extensions>
          <ns3:TrackPointExtension>
            <ns3:atemp>19.0</ns3:atemp>
          </ns3:TrackPointExtension>
        </extensions>
      </trkpt>
      <trkpt lat="42.604148648679256439208984375" lon="19.8866585455834865570068359375">
        <ele>2195.60009765625</ele>
        <time>2026-06-16T10:44:39.000Z</time>
        <extensions>
          <ns3:TrackPointExtension>
            <ns3:atemp>19.0</ns3:atemp>
          </ns3:TrackPointExtension>
        </extensions>
      </trkpt>
      <trkpt lat="42.60413414798676967620849609375" lon="19.88664002157747745513916015625">
        <ele>2195.800048828125</ele>
        <time>2026-06-16T10:44:40.000Z</time>
        <extensions>
          <ns3:TrackPointExtension>
            <ns3:atemp>19.0</ns3:atemp>
          </ns3:TrackPointExtension>
        </extensions>
      </trkpt>
      <trkpt lat="42.60412241332232952117919921875" lon="19.88662392832338809967041015625">
        <ele>2195.800048828125</ele>
        <time>2026-06-16T10:44:41.000Z</time>
        <extensions>
          <ns3:TrackPointExtension>
            <ns3:atemp>19.0</ns3:atemp>
          </ns3:TrackPointExtension>
        </extensions>
      </trkpt>
      <trkpt lat="42.604113109409809112548828125" lon="19.8866082541644573211669921875">
        <ele>2195.60009765625</ele>
        <time>2026-06-16T10:44:42.000Z</time>
        <extensions>
          <ns3:TrackPointExtension>
            <ns3:atemp>19.0</ns3:atemp>
          </ns3:TrackPointExtension>
        </extensions>
      </trkpt>
      <trkpt lat="42.60410397313535213470458984375" lon="19.88659610040485858917236328125">
        <ele>2195.60009765625</ele>
        <time>2026-06-16T10:44:43.000Z</time>
        <extensions>
          <ns3:TrackPointExtension>
            <ns3:atemp>19.0</ns3:atemp>
          </ns3:TrackPointExtension>
        </extensions>
      </trkpt>
      <trkpt lat="42.604089640080928802490234375" lon="19.8865767382085323333740234375">
        <ele>2195.60009765625</ele>
        <time>2026-06-16T10:44:44.000Z</time>
        <extensions>
          <ns3:TrackPointExtension>
            <ns3:atemp>19.0</ns3:atemp>
          </ns3:TrackPointExtension>
        </extensions>
      </trkpt>
      <trkpt lat="42.604072876274585723876953125" lon="19.8865520954132080078125">
        <ele>2195.39990234375</ele>
        <time>2026-06-16T10:44:45.000Z</time>
        <extensions>
          <ns3:TrackPointExtension>
            <ns3:atemp>19.0</ns3:atemp>
          </ns3:TrackPointExtension>
        </extensions>
      </trkpt>
      <trkpt lat="42.60405904613435268402099609375" lon="19.8865214176476001739501953125">
        <ele>2195.199951171875</ele>
        <time>2026-06-16T10:44:46.000Z</time>
        <extensions>
          <ns3:TrackPointExtension>
            <ns3:atemp>19.0</ns3:atemp>
          </ns3:TrackPointExtension>
        </extensions>
      </trkpt>
      <trkpt lat="42.6040478982031345367431640625" lon="19.8864912427961826324462890625">
        <ele>2195</ele>
        <time>2026-06-16T10:44:47.000Z</time>
        <extensions>
          <ns3:TrackPointExtension>
            <ns3:atemp>19.0</ns3:atemp>
          </ns3:TrackPointExtension>
        </extensions>
      </trkpt>
      <trkpt lat="42.6040378399193286895751953125" lon="19.88645545206964015960693359375">
        <ele>2194.60009765625</ele>
        <time>2026-06-16T10:44:48.000Z</time>
        <extensions>
          <ns3:TrackPointExtension>
            <ns3:atemp>18.0</ns3:atemp>
          </ns3:TrackPointExtension>
        </extensions>
      </trkpt>
      <trkpt lat="42.604027278721332550048828125" lon="19.886417649686336517333984375">
        <ele>2194.199951171875</ele>
        <time>2026-06-16T10:44:49.000Z</time>
        <extensions>
          <ns3:TrackPointExtension>
            <ns3:atemp>18.0</ns3:atemp>
          </ns3:TrackPointExtension>
        </extensions>
      </trkpt>
      <trkpt lat="42.60401898063719272613525390625" lon="19.886382780969142913818359375">
        <ele>2193.39990234375</ele>
        <time>2026-06-16T10:44:50.000Z</time>
        <extensions>
          <ns3:TrackPointExtension>
            <ns3:atemp>18.0</ns3:atemp>
          </ns3:TrackPointExtension>
        </extensions>
      </trkpt>
      <trkpt lat="42.6040002889931201934814453125" lon="19.886353276669979095458984375">
        <ele>2192.800048828125</ele>
        <time>2026-06-16T10:44:51.000Z</time>
        <extensions>
          <ns3:TrackPointExtension>
            <ns3:atemp>18.0</ns3:atemp>
          </ns3:TrackPointExtension>
        </extensions>
      </trkpt>
      <trkpt lat="42.60398109443485736846923828125" lon="19.88632804714143276214599609375">
        <ele>2192.199951171875</ele>
        <time>2026-06-16T10:44:52.000Z</time>
        <extensions>
          <ns3:TrackPointExtension>
            <ns3:atemp>18.0</ns3:atemp>
          </ns3:TrackPointExtension>
        </extensions>
      </trkpt>
      <trkpt lat="42.60395678691565990447998046875" lon="19.8862998001277446746826171875">
        <ele>2192</ele>
        <time>2026-06-16T10:44:53.000Z</time>
        <extensions>
          <ns3:TrackPointExtension>
            <ns3:atemp>18.0</ns3:atemp>
          </ns3:TrackPointExtension>
        </extensions>
      </trkpt>
      <trkpt lat="42.6039345748722553253173828125" lon="19.886269457638263702392578125">
        <ele>2191.199951171875</ele>
        <time>2026-06-16T10:44:54.000Z</time>
        <extensions>
          <ns3:TrackPointExtension>
            <ns3:atemp>18.0</ns3:atemp>
          </ns3:TrackPointExtension>
        </extensions>
      </trkpt>
      <trkpt lat="42.6039161346852779388427734375" lon="19.88623970188200473785400390625">
        <ele>2190.60009765625</ele>
        <time>2026-06-16T10:44:55.000Z</time>
        <extensions>
          <ns3:TrackPointExtension>
            <ns3:atemp>18.0</ns3:atemp>
          </ns3:TrackPointExtension>
        </extensions>
      </trkpt>
      <trkpt lat="42.603897862136363983154296875" lon="19.88620684482157230377197265625">
        <ele>2190</ele>
        <time>2026-06-16T10:44:56.000Z</time>
        <extensions>
          <ns3:TrackPointExtension>
            <ns3:atemp>18.0</ns3:atemp>
          </ns3:TrackPointExtension>
        </extensions>
      </trkpt>
      <trkpt lat="42.60387782938778400421142578125" lon="19.8861744068562984466552734375">
        <ele>2189.199951171875</ele>
        <time>2026-06-16T10:44:57.000Z</time>
        <extensions>
          <ns3:TrackPointExtension>
            <ns3:atemp>18.0</ns3:atemp>
          </ns3:TrackPointExtension>
        </extensions>
      </trkpt>
      <trkpt lat="42.603855617344379425048828125" lon="19.88613895140588283538818359375">
        <ele>2188.39990234375</ele>
        <time>2026-06-16T10:44:58.000Z</time>
        <extensions>
          <ns3:TrackPointExtension>
            <ns3:atemp>18.0</ns3:atemp>
          </ns3:TrackPointExtension>
        </extensions>
      </trkpt>
      <trkpt lat="42.60383315384387969970703125" lon="19.88608279265463352203369140625">
        <ele>2187.60009765625</ele>
        <time>2026-06-16T10:44:59.000Z</time>
        <extensions>
          <ns3:TrackPointExtension>
            <ns3:atemp>18.0</ns3:atemp>
          </ns3:TrackPointExtension>
        </extensions>
      </trkpt>
      <trkpt lat="42.60382133536040782928466796875" lon="19.886016659438610076904296875">
        <ele>2186.60009765625</ele>
        <time>2026-06-16T10:45:00.000Z</time>
        <extensions>
          <ns3:TrackPointExtension>
            <ns3:atemp>18.0</ns3:atemp>
          </ns3:TrackPointExtension>
        </extensions>
      </trkpt>
      <trkpt lat="42.603813372552394866943359375" lon="19.88594524562358856201171875">
        <ele>2185.39990234375</ele>
        <time>2026-06-16T10:45:01.000Z</time>
        <extensions>
          <ns3:TrackPointExtension>
            <ns3:atemp>18.0</ns3:atemp>
          </ns3:TrackPointExtension>
        </extensions>
      </trkpt>
      <trkpt lat="42.60380574502050876617431640625" lon="19.88588380627334117889404296875">
        <ele>2184.39990234375</ele>
        <time>2026-06-16T10:45:02.000Z</time>
        <extensions>
          <ns3:TrackPointExtension>
            <ns3:atemp>18.0</ns3:atemp>
          </ns3:TrackPointExtension>
        </extensions>
      </trkpt>
      <trkpt lat="42.6037977822124958038330078125" lon="19.885841310024261474609375">
        <ele>2183.39990234375</ele>
        <time>2026-06-16T10:45:03.000Z</time>
        <extensions>
          <ns3:TrackPointExtension>
            <ns3:atemp>18.0</ns3:atemp>
          </ns3:TrackPointExtension>
        </extensions>
      </trkpt>
      <trkpt lat="42.6037962734699249267578125" lon="19.8858076147735118865966796875">
        <ele>2182.60009765625</ele>
        <time>2026-06-16T10:45:04.000Z</time>
        <extensions>
          <ns3:TrackPointExtension>
            <ns3:atemp>18.0</ns3:atemp>
          </ns3:TrackPointExtension>
        </extensions>
      </trkpt>
      <trkpt lat="42.60379350744187831878662109375" lon="19.88578607328236103057861328125">
        <ele>2182.199951171875</ele>
        <time>2026-06-16T10:45:05.000Z</time>
        <extensions>
          <ns3:TrackPointExtension>
            <ns3:atemp>18.0</ns3:atemp>
          </ns3:TrackPointExtension>
        </extensions>
      </trkpt>
      <trkpt lat="42.6037934236228466033935546875" lon="19.88576352596282958984375">
        <ele>2182</ele>
        <time>2026-06-16T10:45:06.000Z</time>
        <extensions>
          <ns3:TrackPointExtension>
            <ns3:atemp>18.0</ns3:atemp>
          </ns3:TrackPointExtension>
        </extensions>
      </trkpt>
      <trkpt lat="42.6037914119660854339599609375" lon="19.8857392184436321258544921875">
        <ele>2181.60009765625</ele>
        <time>2026-06-16T10:45:07.000Z</time>
        <extensions>
          <ns3:TrackPointExtension>
            <ns3:atemp>18.0</ns3:atemp>
          </ns3:TrackPointExtension>
        </extensions>
      </trkpt>
      <trkpt lat="42.60378713719546794891357421875" lon="19.8857160843908786773681640625">
        <ele>2181.39990234375</ele>
        <time>2026-06-16T10:45:08.000Z</time>
        <extensions>
          <ns3:TrackPointExtension>
            <ns3:atemp>18.0</ns3:atemp>
          </ns3:TrackPointExtension>
        </extensions>
      </trkpt>
      <trkpt lat="42.6037830300629138946533203125" lon="19.88568984903395175933837890625">
        <ele>2181</ele>
        <time>2026-06-16T10:45:09.000Z</time>
        <extensions>
          <ns3:TrackPointExtension>
            <ns3:atemp>18.0</ns3:atemp>
          </ns3:TrackPointExtension>
        </extensions>
      </trkpt>
      <trkpt lat="42.60377842001616954803466796875" lon="19.885663278400897979736328125">
        <ele>2180.60009765625</ele>
        <time>2026-06-16T10:45:10.000Z</time>
        <extensions>
          <ns3:TrackPointExtension>
            <ns3:atemp>18.0</ns3:atemp>
          </ns3:TrackPointExtension>
        </extensions>
      </trkpt>
      <trkpt lat="42.60377372615039348602294921875" lon="19.885633774101734161376953125">
        <ele>2180</ele>
        <time>2026-06-16T10:45:11.000Z</time>
        <extensions>
          <ns3:TrackPointExtension>
            <ns3:atemp>18.0</ns3:atemp>
          </ns3:TrackPointExtension>
        </extensions>
      </trkpt>
      <trkpt lat="42.603772468864917755126953125" lon="19.8856014199554920196533203125">
        <ele>2179.60009765625</ele>
        <time>2026-06-16T10:45:12.000Z</time>
        <extensions>
          <ns3:TrackPointExtension>
            <ns3:atemp>18.0</ns3:atemp>
          </ns3:TrackPointExtension>
        </extensions>
      </trkpt>
      <trkpt lat="42.603766433894634246826171875" lon="19.88557250238955020904541015625">
        <ele>2178.800048828125</ele>
        <time>2026-06-16T10:45:13.000Z</time>
        <extensions>
          <ns3:TrackPointExtension>
            <ns3:atemp>18.0</ns3:atemp>
          </ns3:TrackPointExtension>
        </extensions>
      </trkpt>
      <trkpt lat="42.603755705058574676513671875" lon="19.88554065115749835968017578125">
        <ele>2178.199951171875</ele>
        <time>2026-06-16T10:45:14.000Z</time>
        <extensions>
          <ns3:TrackPointExtension>
            <ns3:atemp>18.0</ns3:atemp>
          </ns3:TrackPointExtension>
        </extensions>
      </trkpt>
      <trkpt lat="42.60374858044087886810302734375" lon="19.8855065368115901947021484375">
        <ele>2177</ele>
        <time>2026-06-16T10:45:15.000Z</time>
        <extensions>
          <ns3:TrackPointExtension>
            <ns3:atemp>18.0</ns3:atemp>
          </ns3:TrackPointExtension>
        </extensions>
      </trkpt>
      <trkpt lat="42.6037481613457202911376953125" lon="19.8854725062847137451171875">
        <ele>2176.199951171875</ele>
        <time>2026-06-16T10:45:16.000Z</time>
        <extensions>
          <ns3:TrackPointExtension>
            <ns3:atemp>18.0</ns3:atemp>
          </ns3:TrackPointExtension>
        </extensions>
      </trkpt>
      <trkpt lat="42.6037545315921306610107421875" lon="19.88543554209172725677490234375">
        <ele>2175.39990234375</ele>
        <time>2026-06-16T10:45:17.000Z</time>
        <extensions>
          <ns3:TrackPointExtension>
            <ns3:atemp>18.0</ns3:atemp>
          </ns3:TrackPointExtension>
        </extensions>
      </trkpt>
      <trkpt lat="42.603763751685619354248046875" lon="19.88539933227002620697021484375">
        <ele>2174.60009765625</ele>
        <time>2026-06-16T10:45:18.000Z</time>
        <extensions>
          <ns3:TrackPointExtension>
            <ns3:atemp>18.0</ns3:atemp>
          </ns3:TrackPointExtension>
        </extensions>
      </trkpt>
      <trkpt lat="42.60377221740782260894775390625" lon="19.88536513410508632659912109375">
        <ele>2173.800048828125</ele>
        <time>2026-06-16T10:45:19.000Z</time>
        <extensions>
          <ns3:TrackPointExtension>
            <ns3:atemp>18.0</ns3:atemp>
          </ns3:TrackPointExtension>
        </extensions>
      </trkpt>
      <trkpt lat="42.6037736423313617706298828125" lon="19.88532221876084804534912109375">
        <ele>2173</ele>
        <time>2026-06-16T10:45:20.000Z</time>
        <extensions>
          <ns3:TrackPointExtension>
            <ns3:atemp>18.0</ns3:atemp>
          </ns3:TrackPointExtension>
        </extensions>
      </trkpt>
      <trkpt lat="42.60377104394137859344482421875" lon="19.8852859251201152801513671875">
        <ele>2172</ele>
        <time>2026-06-16T10:45:21.000Z</time>
        <extensions>
          <ns3:TrackPointExtension>
            <ns3:atemp>18.0</ns3:atemp>
          </ns3:TrackPointExtension>
        </extensions>
      </trkpt>
      <trkpt lat="42.60376584716141223907470703125" lon="19.885256253182888031005859375">
        <ele>2170.800048828125</ele>
        <time>2026-06-16T10:45:22.000Z</time>
        <extensions>
          <ns3:TrackPointExtension>
            <ns3:atemp>18.0</ns3:atemp>
          </ns3:TrackPointExtension>
        </extensions>
      </trkpt>
      <trkpt lat="42.6037605665624141693115234375" lon="19.88522532396018505096435546875">
        <ele>2170</ele>
        <time>2026-06-16T10:45:23.000Z</time>
        <extensions>
          <ns3:TrackPointExtension>
            <ns3:atemp>18.0</ns3:atemp>
          </ns3:TrackPointExtension>
        </extensions>
      </trkpt>
      <trkpt lat="42.60375092737376689910888671875" lon="19.8852014355361461639404296875">
        <ele>2169</ele>
        <time>2026-06-16T10:45:24.000Z</time>
        <extensions>
          <ns3:TrackPointExtension>
            <ns3:atemp>18.0</ns3:atemp>
          </ns3:TrackPointExtension>
        </extensions>
      </trkpt>
      <trkpt lat="42.60374455712735652923583984375" lon="19.8851694166660308837890625">
        <ele>2168.199951171875</ele>
        <time>2026-06-16T10:45:25.000Z</time>
        <extensions>
          <ns3:TrackPointExtension>
            <ns3:atemp>18.0</ns3:atemp>
          </ns3:TrackPointExtension>
        </extensions>
      </trkpt>
      <trkpt lat="42.60374086908996105194091796875" lon="19.8851236514747142791748046875">
        <ele>2167.39990234375</ele>
        <time>2026-06-16T10:45:26.000Z</time>
        <extensions>
          <ns3:TrackPointExtension>
            <ns3:atemp>18.0</ns3:atemp>
          </ns3:TrackPointExtension>
        </extensions>
      </trkpt>
      <trkpt lat="42.6037431322038173675537109375" lon="19.88507620990276336669921875">
        <ele>2166.39990234375</ele>
        <time>2026-06-16T10:45:27.000Z</time>
        <extensions>
          <ns3:TrackPointExtension>
            <ns3:atemp>18.0</ns3:atemp>
          </ns3:TrackPointExtension>
        </extensions>
      </trkpt>
      <trkpt lat="42.603744976222515106201171875" lon="19.885022230446338653564453125">
        <ele>2165.39990234375</ele>
        <time>2026-06-16T10:45:28.000Z</time>
        <extensions>
          <ns3:TrackPointExtension>
            <ns3:atemp>18.0</ns3:atemp>
          </ns3:TrackPointExtension>
        </extensions>
      </trkpt>
      <trkpt lat="42.6037438027560710906982421875" lon="19.8849704302847385406494140625">
        <ele>2164.199951171875</ele>
        <time>2026-06-16T10:45:29.000Z</time>
        <extensions>
          <ns3:TrackPointExtension>
            <ns3:atemp>18.0</ns3:atemp>
          </ns3:TrackPointExtension>
        </extensions>
      </trkpt>
      <trkpt lat="42.60373919270932674407958984375" lon="19.88491519354283809661865234375">
        <ele>2163</ele>
        <time>2026-06-16T10:45:30.000Z</time>
        <extensions>
          <ns3:TrackPointExtension>
            <ns3:atemp>18.0</ns3:atemp>
          </ns3:TrackPointExtension>
        </extensions>
      </trkpt>
      <trkpt lat="42.60372720658779144287109375" lon="19.88487915135920047760009765625">
        <ele>2162</ele>
        <time>2026-06-16T10:45:31.000Z</time>
        <extensions>
          <ns3:TrackPointExtension>
            <ns3:atemp>18.0</ns3:atemp>
          </ns3:TrackPointExtension>
        </extensions>
      </trkpt>
      <trkpt lat="42.6037199981510639190673828125" lon="19.88484897650778293609619140625">
        <ele>2160.800048828125</ele>
        <time>2026-06-16T10:45:32.000Z</time>
        <extensions>
          <ns3:TrackPointExtension>
            <ns3:atemp>18.0</ns3:atemp>
          </ns3:TrackPointExtension>
        </extensions>
      </trkpt>
      <trkpt lat="42.60370600037276744842529296875" lon="19.88482550717890262603759765625">
        <ele>2159.800048828125</ele>
        <time>2026-06-16T10:45:33.000Z</time>
        <extensions>
          <ns3:TrackPointExtension>
            <ns3:atemp>18.0</ns3:atemp>
          </ns3:TrackPointExtension>
        </extensions>
      </trkpt>
      <trkpt lat="42.6036821119487285614013671875" lon="19.88481343723833560943603515625">
        <ele>2158.800048828125</ele>
        <time>2026-06-16T10:45:34.000Z</time>
        <extensions>
          <ns3:TrackPointExtension>
            <ns3:atemp>18.0</ns3:atemp>
          </ns3:TrackPointExtension>
        </extensions>
      </trkpt>
      <trkpt lat="42.603659145534038543701171875" lon="19.88480136729776859283447265625">
        <ele>2157.60009765625</ele>
        <time>2026-06-16T10:45:35.000Z</time>
        <extensions>
          <ns3:TrackPointExtension>
            <ns3:atemp>18.0</ns3:atemp>
          </ns3:TrackPointExtension>
        </extensions>
      </trkpt>
      <trkpt lat="42.60364414192736148834228515625" lon="19.8847823403775691986083984375">
        <ele>2156.800048828125</ele>
        <time>2026-06-16T10:45:36.000Z</time>
        <extensions>
          <ns3:TrackPointExtension>
            <ns3:atemp>18.0</ns3:atemp>
          </ns3:TrackPointExtension>
        </extensions>
      </trkpt>
      <trkpt lat="42.6036371849477291107177734375" lon="19.88476197235286235809326171875">
        <ele>2155.800048828125</ele>
        <time>2026-06-16T10:45:37.000Z</time>
        <extensions>
          <ns3:TrackPointExtension>
            <ns3:atemp>18.0</ns3:atemp>
          </ns3:TrackPointExtension>
        </extensions>
      </trkpt>
      <trkpt lat="42.60363089852035045623779296875" lon="19.88473330624401569366455078125">
        <ele>2155</ele>
        <time>2026-06-16T10:45:38.000Z</time>
        <extensions>
          <ns3:TrackPointExtension>
            <ns3:atemp>18.0</ns3:atemp>
          </ns3:TrackPointExtension>
        </extensions>
      </trkpt>
      <trkpt lat="42.6036284677684307098388671875" lon="19.88469961099326610565185546875">
        <ele>2154.199951171875</ele>
        <time>2026-06-16T10:45:39.000Z</time>
        <extensions>
          <ns3:TrackPointExtension>
            <ns3:atemp>18.0</ns3:atemp>
          </ns3:TrackPointExtension>
        </extensions>
      </trkpt>
      <trkpt lat="42.60362821631133556365966796875" lon="19.88465870730578899383544921875">
        <ele>2153.39990234375</ele>
        <time>2026-06-16T10:45:40.000Z</time>
        <extensions>
          <ns3:TrackPointExtension>
            <ns3:atemp>18.0</ns3:atemp>
          </ns3:TrackPointExtension>
        </extensions>
      </trkpt>
      <trkpt lat="42.60363240726292133331298828125" lon="19.88461059518158435821533203125">
        <ele>2152.199951171875</ele>
        <time>2026-06-16T10:45:41.000Z</time>
        <extensions>
          <ns3:TrackPointExtension>
            <ns3:atemp>18.0</ns3:atemp>
          </ns3:TrackPointExtension>
        </extensions>
      </trkpt>
      <trkpt lat="42.603645063936710357666015625" lon="19.8845613934099674224853515625">
        <ele>2151</ele>
        <time>2026-06-16T10:45:42.000Z</time>
        <extensions>
          <ns3:TrackPointExtension>
            <ns3:atemp>18.0</ns3:atemp>
          </ns3:TrackPointExtension>
        </extensions>
      </trkpt>
      <trkpt lat="42.60366090573370456695556640625" lon="19.88452040590345859527587890625">
        <ele>2149.800048828125</ele>
        <time>2026-06-16T10:45:43.000Z</time>
        <extensions>
          <ns3:TrackPointExtension>
            <ns3:atemp>18.0</ns3:atemp>
          </ns3:TrackPointExtension>
        </extensions>
      </trkpt>
      <trkpt lat="42.6036757417023181915283203125" lon="19.88447749055922031402587890625">
        <ele>2148.60009765625</ele>
        <time>2026-06-16T10:45:44.000Z</time>
        <extensions>
          <ns3:TrackPointExtension>
            <ns3:atemp>18.0</ns3:atemp>
          </ns3:TrackPointExtension>
        </extensions>
      </trkpt>
      <trkpt lat="42.60368957184255123138427734375" lon="19.8844339884817600250244140625">
        <ele>2147.39990234375</ele>
        <time>2026-06-16T10:45:45.000Z</time>
        <extensions>
          <ns3:TrackPointExtension>
            <ns3:atemp>18.0</ns3:atemp>
          </ns3:TrackPointExtension>
        </extensions>
      </trkpt>
      <trkpt lat="42.603700049221515655517578125" lon="19.8843969404697418212890625">
        <ele>2146.39990234375</ele>
        <time>2026-06-16T10:45:46.000Z</time>
        <extensions>
          <ns3:TrackPointExtension>
            <ns3:atemp>18.0</ns3:atemp>
          </ns3:TrackPointExtension>
        </extensions>
      </trkpt>
      <trkpt lat="42.60370817966759204864501953125" lon="19.8843572102487087249755859375">
        <ele>2145</ele>
        <time>2026-06-16T10:45:47.000Z</time>
        <extensions>
          <ns3:TrackPointExtension>
            <ns3:atemp>18.0</ns3:atemp>
          </ns3:TrackPointExtension>
        </extensions>
      </trkpt>
      <trkpt lat="42.60371438227593898773193359375" lon="19.88431580364704132080078125">
        <ele>2144</ele>
        <time>2026-06-16T10:45:48.000Z</time>
        <extensions>
          <ns3:TrackPointExtension>
            <ns3:atemp>18.0</ns3:atemp>
          </ns3:TrackPointExtension>
        </extensions>
      </trkpt>
      <trkpt lat="42.603729553520679473876953125" lon="19.88425922580063343048095703125">
        <ele>2143</ele>
        <time>2026-06-16T10:45:49.000Z</time>
        <extensions>
          <ns3:TrackPointExtension>
            <ns3:atemp>18.0</ns3:atemp>
          </ns3:TrackPointExtension>
        </extensions>
      </trkpt>
      <trkpt lat="42.60373835451900959014892578125" lon="19.88420180976390838623046875">
        <ele>2142</ele>
        <time>2026-06-16T10:45:50.000Z</time>
        <extensions>
          <ns3:TrackPointExtension>
            <ns3:atemp>18.0</ns3:atemp>
          </ns3:TrackPointExtension>
        </extensions>
      </trkpt>
      <trkpt lat="42.60374506004154682159423828125" lon="19.88415713422000408172607421875">
        <ele>2141.199951171875</ele>
        <time>2026-06-16T10:45:51.000Z</time>
        <extensions>
          <ns3:TrackPointExtension>
            <ns3:atemp>18.0</ns3:atemp>
          </ns3:TrackPointExtension>
        </extensions>
      </trkpt>
      <trkpt lat="42.6037592254579067230224609375" lon="19.88412804901599884033203125">
        <ele>2140.39990234375</ele>
        <time>2026-06-16T10:45:52.000Z</time>
        <extensions>
          <ns3:TrackPointExtension>
            <ns3:atemp>18.0</ns3:atemp>
          </ns3:TrackPointExtension>
        </extensions>
      </trkpt>
      <trkpt lat="42.60377548635005950927734375" lon="19.88411329686641693115234375">
        <ele>2139.60009765625</ele>
        <time>2026-06-16T10:45:53.000Z</time>
        <extensions>
          <ns3:TrackPointExtension>
            <ns3:atemp>18.0</ns3:atemp>
          </ns3:TrackPointExtension>
        </extensions>
      </trkpt>
      <trkpt lat="42.60378864593803882598876953125" lon="19.8841154761612415313720703125">
        <ele>2139</ele>
        <time>2026-06-16T10:45:54.000Z</time>
        <extensions>
          <ns3:TrackPointExtension>
            <ns3:atemp>18.0</ns3:atemp>
          </ns3:TrackPointExtension>
        </extensions>
      </trkpt>
      <trkpt lat="42.6037954352796077728271484375" lon="19.88411153666675090789794921875">
        <ele>2138.60009765625</ele>
        <time>2026-06-16T10:45:55.000Z</time>
        <extensions>
          <ns3:TrackPointExtension>
            <ns3:atemp>18.0</ns3:atemp>
          </ns3:TrackPointExtension>
        </extensions>
      </trkpt>
      <trkpt lat="42.60380071587860584259033203125" lon="19.8841124586760997772216796875">
        <ele>2138.39990234375</ele>
        <time>2026-06-16T10:45:56.000Z</time>
        <extensions>
          <ns3:TrackPointExtension>
            <ns3:atemp>18.0</ns3:atemp>
          </ns3:TrackPointExtension>
        </extensions>
      </trkpt>
      <trkpt lat="42.60380071587860584259033203125" lon="19.8841124586760997772216796875">
        <ele>2138</ele>
        <time>2026-06-16T10:45:57.000Z</time>
        <extensions>
          <ns3:TrackPointExtension>
            <ns3:atemp>18.0</ns3:atemp>
          </ns3:TrackPointExtension>
        </extensions>
      </trkpt>
      <trkpt lat="42.60380071587860584259033203125" lon="19.8841124586760997772216796875">
        <ele>2137.800048828125</ele>
        <time>2026-06-16T10:45:58.000Z</time>
        <extensions>
          <ns3:TrackPointExtension>
            <ns3:atemp>18.0</ns3:atemp>
          </ns3:TrackPointExtension>
        </extensions>
      </trkpt>
      <trkpt lat="42.60380071587860584259033203125" lon="19.8841124586760997772216796875">
        <ele>2137.800048828125</ele>
        <time>2026-06-16T10:45:59.000Z</time>
        <extensions>
          <ns3:TrackPointExtension>
            <ns3:atemp>18.0</ns3:atemp>
          </ns3:TrackPointExtension>
        </extensions>
      </trkpt>
      <trkpt lat="42.60380071587860584259033203125" lon="19.8841124586760997772216796875">
        <ele>2137.60009765625</ele>
        <time>2026-06-16T10:46:00.000Z</time>
        <extensions>
          <ns3:TrackPointExtension>
            <ns3:atemp>18.0</ns3:atemp>
          </ns3:TrackPointExtension>
        </extensions>
      </trkpt>
      <trkpt lat="42.60380071587860584259033203125" lon="19.8841124586760997772216796875">
        <ele>2137.60009765625</ele>
        <time>2026-06-16T10:46:01.000Z</time>
        <extensions>
          <ns3:TrackPointExtension>
            <ns3:atemp>18.0</ns3:atemp>
          </ns3:TrackPointExtension>
        </extensions>
      </trkpt>
      <trkpt lat="42.60380071587860584259033203125" lon="19.8841124586760997772216796875">
        <ele>2137.60009765625</ele>
        <time>2026-06-16T10:46:02.000Z</time>
        <extensions>
          <ns3:TrackPointExtension>
            <ns3:atemp>18.0</ns3:atemp>
          </ns3:TrackPointExtension>
        </extensions>
      </trkpt>
      <trkpt lat="42.60380071587860584259033203125" lon="19.8841124586760997772216796875">
        <ele>2137.60009765625</ele>
        <time>2026-06-16T10:46:03.000Z</time>
        <extensions>
          <ns3:TrackPointExtension>
            <ns3:atemp>18.0</ns3:atemp>
          </ns3:TrackPointExtension>
        </extensions>
      </trkpt>
      <trkpt lat="42.60380071587860584259033203125" lon="19.8841124586760997772216796875">
        <ele>2137.39990234375</ele>
        <time>2026-06-16T10:46:04.000Z</time>
        <extensions>
          <ns3:TrackPointExtension>
            <ns3:atemp>18.0</ns3:atemp>
          </ns3:TrackPointExtension>
        </extensions>
      </trkpt>
      <trkpt lat="42.60380071587860584259033203125" lon="19.8841124586760997772216796875">
        <ele>2137.39990234375</ele>
        <time>2026-06-16T10:46:05.000Z</time>
        <extensions>
          <ns3:TrackPointExtension>
            <ns3:atemp>18.0</ns3:atemp>
          </ns3:TrackPointExtension>
        </extensions>
      </trkpt>
      <trkpt lat="42.60380071587860584259033203125" lon="19.8841124586760997772216796875">
        <ele>2137.39990234375</ele>
        <time>2026-06-16T10:46:06.000Z</time>
        <extensions>
          <ns3:TrackPointExtension>
            <ns3:atemp>18.0</ns3:atemp>
          </ns3:TrackPointExtension>
        </extensions>
      </trkpt>
      <trkpt lat="42.60380071587860584259033203125" lon="19.8841124586760997772216796875">
        <ele>2137.39990234375</ele>
        <time>2026-06-16T10:46:07.000Z</time>
        <extensions>
          <ns3:TrackPointExtension>
            <ns3:atemp>18.0</ns3:atemp>
          </ns3:TrackPointExtension>
        </extensions>
      </trkpt>
      <trkpt lat="42.60380071587860584259033203125" lon="19.8841124586760997772216796875">
        <ele>2137.39990234375</ele>
        <time>2026-06-16T10:46:08.000Z</time>
        <extensions>
          <ns3:TrackPointExtension>
            <ns3:atemp>18.0</ns3:atemp>
          </ns3:TrackPointExtension>
        </extensions>
      </trkpt>
      <trkpt lat="42.60380071587860584259033203125" lon="19.8841124586760997772216796875">
        <ele>2137.39990234375</ele>
        <time>2026-06-16T10:46:09.000Z</time>
        <extensions>
          <ns3:TrackPointExtension>
            <ns3:atemp>18.0</ns3:atemp>
          </ns3:TrackPointExtension>
        </extensions>
      </trkpt>
      <trkpt lat="42.60380071587860584259033203125" lon="19.8841124586760997772216796875">
        <ele>2137.39990234375</ele>
        <time>2026-06-16T10:46:10.000Z</time>
        <extensions>
          <ns3:TrackPointExtension>
            <ns3:atemp>18.0</ns3:atemp>
          </ns3:TrackPointExtension>
        </extensions>
      </trkpt>
      <trkpt lat="42.60380071587860584259033203125" lon="19.8841124586760997772216796875">
        <ele>2137.39990234375</ele>
        <time>2026-06-16T10:46:11.000Z</time>
        <extensions>
          <ns3:TrackPointExtension>
            <ns3:atemp>18.0</ns3:atemp>
          </ns3:TrackPointExtension>
        </extensions>
      </trkpt>
      <trkpt lat="42.60380071587860584259033203125" lon="19.8841124586760997772216796875">
        <ele>2137.39990234375</ele>
        <time>2026-06-16T10:46:12.000Z</time>
        <extensions>
          <ns3:TrackPointExtension>
            <ns3:atemp>18.0</ns3:atemp>
          </ns3:TrackPointExtension>
        </extensions>
      </trkpt>
      <trkpt lat="42.60380071587860584259033203125" lon="19.8841124586760997772216796875">
        <ele>2137.39990234375</ele>
        <time>2026-06-16T10:46:13.000Z</time>
        <extensions>
          <ns3:TrackPointExtension>
            <ns3:atemp>18.0</ns3:atemp>
          </ns3:TrackPointExtension>
        </extensions>
      </trkpt>
      <trkpt lat="42.60380071587860584259033203125" lon="19.8841124586760997772216796875">
        <ele>2137.39990234375</ele>
        <time>2026-06-16T10:46:14.000Z</time>
        <extensions>
          <ns3:TrackPointExtension>
            <ns3:atemp>18.0</ns3:atemp>
          </ns3:TrackPointExtension>
        </extensions>
      </trkpt>
      <trkpt lat="42.60380071587860584259033203125" lon="19.8841124586760997772216796875">
        <ele>2137.39990234375</ele>
        <time>2026-06-16T10:46:15.000Z</time>
        <extensions>
          <ns3:TrackPointExtension>
            <ns3:atemp>18.0</ns3:atemp>
          </ns3:TrackPointExtension>
        </extensions>
      </trkpt>
      <trkpt lat="42.60380071587860584259033203125" lon="19.8841124586760997772216796875">
        <ele>2137.60009765625</ele>
        <time>2026-06-16T10:46:16.000Z</time>
        <extensions>
          <ns3:TrackPointExtension>
            <ns3:atemp>18.0</ns3:atemp>
          </ns3:TrackPointExtension>
        </extensions>
      </trkpt>
      <trkpt lat="42.60380071587860584259033203125" lon="19.8841124586760997772216796875">
        <ele>2137.60009765625</ele>
        <time>2026-06-16T10:46:17.000Z</time>
        <extensions>
          <ns3:TrackPointExtension>
            <ns3:atemp>18.0</ns3:atemp>
          </ns3:TrackPointExtension>
        </extensions>
      </trkpt>
      <trkpt lat="42.60380071587860584259033203125" lon="19.8841124586760997772216796875">
        <ele>2137.60009765625</ele>
        <time>2026-06-16T10:46:18.000Z</time>
        <extensions>
          <ns3:TrackPointExtension>
            <ns3:atemp>18.0</ns3:atemp>
          </ns3:TrackPointExtension>
        </extensions>
      </trkpt>
      <trkpt lat="42.60380071587860584259033203125" lon="19.8841124586760997772216796875">
        <ele>2137.60009765625</ele>
        <time>2026-06-16T10:46:19.000Z</time>
        <extensions>
          <ns3:TrackPointExtension>
            <ns3:atemp>18.0</ns3:atemp>
          </ns3:TrackPointExtension>
        </extensions>
      </trkpt>
      <trkpt lat="42.6038031466305255889892578125" lon="19.884112961590290069580078125">
        <ele>2137.39990234375</ele>
        <time>2026-06-16T10:46:20.000Z</time>
        <extensions>
          <ns3:TrackPointExtension>
            <ns3:atemp>18.0</ns3:atemp>
          </ns3:TrackPointExtension>
        </extensions>
      </trkpt>
      <trkpt lat="42.60382569395005702972412109375" lon="19.88412327133119106292724609375">
        <ele>2137.39990234375</ele>
        <time>2026-06-16T10:46:21.000Z</time>
        <extensions>
          <ns3:TrackPointExtension>
            <ns3:atemp>18.0</ns3:atemp>
          </ns3:TrackPointExtension>
        </extensions>
      </trkpt>
      <trkpt lat="42.603839524090290069580078125" lon="19.884135089814662933349609375">
        <ele>2137.199951171875</ele>
        <time>2026-06-16T10:46:22.000Z</time>
        <extensions>
          <ns3:TrackPointExtension>
            <ns3:atemp>18.0</ns3:atemp>
          </ns3:TrackPointExtension>
        </extensions>
      </trkpt>
      <trkpt lat="42.6038577966392040252685546875" lon="19.88415755331516265869140625">
        <ele>2137</ele>
        <time>2026-06-16T10:46:23.000Z</time>
        <extensions>
          <ns3:TrackPointExtension>
            <ns3:atemp>18.0</ns3:atemp>
          </ns3:TrackPointExtension>
        </extensions>
      </trkpt>
      <trkpt lat="42.60387699119746685028076171875" lon="19.884184710681438446044921875">
        <ele>2136.800048828125</ele>
        <time>2026-06-16T10:46:24.000Z</time>
        <extensions>
          <ns3:TrackPointExtension>
            <ns3:atemp>18.0</ns3:atemp>
          </ns3:TrackPointExtension>
        </extensions>
      </trkpt>
      <trkpt lat="42.60389610193669795989990234375" lon="19.88421111367642879486083984375">
        <ele>2136.39990234375</ele>
        <time>2026-06-16T10:46:25.000Z</time>
        <extensions>
          <ns3:TrackPointExtension>
            <ns3:atemp>18.0</ns3:atemp>
          </ns3:TrackPointExtension>
        </extensions>
      </trkpt>
      <trkpt lat="42.6039183139801025390625" lon="19.88424229435622692108154296875">
        <ele>2135.60009765625</ele>
        <time>2026-06-16T10:46:26.000Z</time>
        <extensions>
          <ns3:TrackPointExtension>
            <ns3:atemp>18.0</ns3:atemp>
          </ns3:TrackPointExtension>
        </extensions>
      </trkpt>
      <trkpt lat="42.60393918491899967193603515625" lon="19.88427330739796161651611328125">
        <ele>2135</ele>
        <time>2026-06-16T10:46:27.000Z</time>
        <extensions>
          <ns3:TrackPointExtension>
            <ns3:atemp>18.0</ns3:atemp>
          </ns3:TrackPointExtension>
        </extensions>
      </trkpt>
      <trkpt lat="42.603962905704975128173828125" lon="19.8842921666800975799560546875">
        <ele>2134.39990234375</ele>
        <time>2026-06-16T10:46:28.000Z</time>
        <extensions>
          <ns3:TrackPointExtension>
            <ns3:atemp>18.0</ns3:atemp>
          </ns3:TrackPointExtension>
        </extensions>
      </trkpt>
      <trkpt lat="42.6039867103099822998046875" lon="19.88431555218994617462158203125">
        <ele>2133.800048828125</ele>
        <time>2026-06-16T10:46:29.000Z</time>
        <extensions>
          <ns3:TrackPointExtension>
            <ns3:atemp>18.0</ns3:atemp>
          </ns3:TrackPointExtension>
        </extensions>
      </trkpt>
      <trkpt lat="42.60401009581983089447021484375" lon="19.88433885388076305389404296875">
        <ele>2133</ele>
        <time>2026-06-16T10:46:30.000Z</time>
        <extensions>
          <ns3:TrackPointExtension>
            <ns3:atemp>18.0</ns3:atemp>
          </ns3:TrackPointExtension>
        </extensions>
      </trkpt>
      <trkpt lat="42.60403390042483806610107421875" lon="19.88433994352817535400390625">
        <ele>2132.39990234375</ele>
        <time>2026-06-16T10:46:31.000Z</time>
        <extensions>
          <ns3:TrackPointExtension>
            <ns3:atemp>18.0</ns3:atemp>
          </ns3:TrackPointExtension>
        </extensions>
      </trkpt>
      <trkpt lat="42.60406256653368473052978515625" lon="19.88433583639562129974365234375">
        <ele>2131.60009765625</ele>
        <time>2026-06-16T10:46:32.000Z</time>
        <extensions>
          <ns3:TrackPointExtension>
            <ns3:atemp>18.0</ns3:atemp>
          </ns3:TrackPointExtension>
        </extensions>
      </trkpt>
      <trkpt lat="42.60409332811832427978515625" lon="19.88432493992149829864501953125">
        <ele>2130.39990234375</ele>
        <time>2026-06-16T10:46:33.000Z</time>
        <extensions>
          <ns3:TrackPointExtension>
            <ns3:atemp>18.0</ns3:atemp>
          </ns3:TrackPointExtension>
        </extensions>
      </trkpt>
      <trkpt lat="42.6041233353316783905029296875" lon="19.88431236706674098968505859375">
        <ele>2129.39990234375</ele>
        <time>2026-06-16T10:46:34.000Z</time>
        <extensions>
          <ns3:TrackPointExtension>
            <ns3:atemp>18.0</ns3:atemp>
          </ns3:TrackPointExtension>
        </extensions>
      </trkpt>
      <trkpt lat="42.60415828786790370941162109375" lon="19.88429929129779338836669921875">
        <ele>2128.39990234375</ele>
        <time>2026-06-16T10:46:35.000Z</time>
        <extensions>
          <ns3:TrackPointExtension>
            <ns3:atemp>18.0</ns3:atemp>
          </ns3:TrackPointExtension>
        </extensions>
      </trkpt>
      <trkpt lat="42.60419701226055622100830078125" lon="19.88427431322634220123291015625">
        <ele>2127</ele>
        <time>2026-06-16T10:46:36.000Z</time>
        <extensions>
          <ns3:TrackPointExtension>
            <ns3:atemp>18.0</ns3:atemp>
          </ns3:TrackPointExtension>
        </extensions>
      </trkpt>
      <trkpt lat="42.60423950850963592529296875" lon="19.88424765877425670623779296875">
        <ele>2125.60009765625</ele>
        <time>2026-06-16T10:46:37.000Z</time>
        <extensions>
          <ns3:TrackPointExtension>
            <ns3:atemp>18.0</ns3:atemp>
          </ns3:TrackPointExtension>
        </extensions>
      </trkpt>
      <trkpt lat="42.60428602807223796844482421875" lon="19.88423055969178676605224609375">
        <ele>2124</ele>
        <time>2026-06-16T10:46:38.000Z</time>
        <extensions>
          <ns3:TrackPointExtension>
            <ns3:atemp>18.0</ns3:atemp>
          </ns3:TrackPointExtension>
        </extensions>
      </trkpt>
      <trkpt lat="42.60433078743517398834228515625" lon="19.8842314817011356353759765625">
        <ele>2122.39990234375</ele>
        <time>2026-06-16T10:46:39.000Z</time>
        <extensions>
          <ns3:TrackPointExtension>
            <ns3:atemp>18.0</ns3:atemp>
          </ns3:TrackPointExtension>
        </extensions>
      </trkpt>
      <trkpt lat="42.60437219403684139251708984375" lon="19.88423827104270458221435546875">
        <ele>2120.39990234375</ele>
        <time>2026-06-16T10:46:40.000Z</time>
        <extensions>
          <ns3:TrackPointExtension>
            <ns3:atemp>18.0</ns3:atemp>
          </ns3:TrackPointExtension>
        </extensions>
      </trkpt>
      <trkpt lat="42.6044120080769062042236328125" lon="19.8842401988804340362548828125">
        <ele>2118.60009765625</ele>
        <time>2026-06-16T10:46:41.000Z</time>
        <extensions>
          <ns3:TrackPointExtension>
            <ns3:atemp>18.0</ns3:atemp>
          </ns3:TrackPointExtension>
        </extensions>
      </trkpt>
      <trkpt lat="42.6044545881450176239013671875" lon="19.8842331580817699432373046875">
        <ele>2117</ele>
        <time>2026-06-16T10:46:42.000Z</time>
        <extensions>
          <ns3:TrackPointExtension>
            <ns3:atemp>18.0</ns3:atemp>
          </ns3:TrackPointExtension>
        </extensions>
      </trkpt>
      <trkpt lat="42.60450060479342937469482421875" lon="19.88421949557960033416748046875">
        <ele>2115.39990234375</ele>
        <time>2026-06-16T10:46:43.000Z</time>
        <extensions>
          <ns3:TrackPointExtension>
            <ns3:atemp>18.0</ns3:atemp>
          </ns3:TrackPointExtension>
        </extensions>
      </trkpt>
      <trkpt lat="42.60453815571963787078857421875" lon="19.88419267348945140838623046875">
        <ele>2113.800048828125</ele>
        <time>2026-06-16T10:46:44.000Z</time>
        <extensions>
          <ns3:TrackPointExtension>
            <ns3:atemp>18.0</ns3:atemp>
          </ns3:TrackPointExtension>
        </extensions>
      </trkpt>
      <trkpt lat="42.60457369498908519744873046875" lon="19.8841630853712558746337890625">
        <ele>2112.199951171875</ele>
        <time>2026-06-16T10:46:45.000Z</time>
        <extensions>
          <ns3:TrackPointExtension>
            <ns3:atemp>18.0</ns3:atemp>
          </ns3:TrackPointExtension>
        </extensions>
      </trkpt>
      <trkpt lat="42.60460571385920047760009765625" lon="19.88414120860397815704345703125">
        <ele>2110.39990234375</ele>
        <time>2026-06-16T10:46:46.000Z</time>
        <extensions>
          <ns3:TrackPointExtension>
            <ns3:atemp>18.0</ns3:atemp>
          </ns3:TrackPointExtension>
        </extensions>
      </trkpt>
      <trkpt lat="42.60463513433933258056640625" lon="19.884143136441707611083984375">
        <ele>2108.800048828125</ele>
        <time>2026-06-16T10:46:47.000Z</time>
        <extensions>
          <ns3:TrackPointExtension>
            <ns3:atemp>18.0</ns3:atemp>
          </ns3:TrackPointExtension>
        </extensions>
      </trkpt>
      <trkpt lat="42.6046688295900821685791015625" lon="19.8841555416584014892578125">
        <ele>2107.39990234375</ele>
        <time>2026-06-16T10:46:48.000Z</time>
        <extensions>
          <ns3:TrackPointExtension>
            <ns3:atemp>18.0</ns3:atemp>
          </ns3:TrackPointExtension>
        </extensions>
      </trkpt>
      <trkpt lat="42.60469875298440456390380859375" lon="19.88417004235088825225830078125">
        <ele>2106</ele>
        <time>2026-06-16T10:46:49.000Z</time>
        <extensions>
          <ns3:TrackPointExtension>
            <ns3:atemp>18.0</ns3:atemp>
          </ns3:TrackPointExtension>
        </extensions>
      </trkpt>
      <trkpt lat="42.604736723005771636962890625" lon="19.88418714143335819244384765625">
        <ele>2104.800048828125</ele>
        <time>2026-06-16T10:46:50.000Z</time>
        <extensions>
          <ns3:TrackPointExtension>
            <ns3:atemp>18.0</ns3:atemp>
          </ns3:TrackPointExtension>
        </extensions>
      </trkpt>
      <trkpt lat="42.60477586649358272552490234375" lon="19.8841996304690837860107421875">
        <ele>2103.199951171875</ele>
        <time>2026-06-16T10:46:51.000Z</time>
        <extensions>
          <ns3:TrackPointExtension>
            <ns3:atemp>18.0</ns3:atemp>
          </ns3:TrackPointExtension>
        </extensions>
      </trkpt>
      <trkpt lat="42.6048223860561847686767578125" lon="19.88419418223202228546142578125">
        <ele>2101.800048828125</ele>
        <time>2026-06-16T10:46:52.000Z</time>
        <extensions>
          <ns3:TrackPointExtension>
            <ns3:atemp>18.0</ns3:atemp>
          </ns3:TrackPointExtension>
        </extensions>
      </trkpt>
      <trkpt lat="42.60487116873264312744140625" lon="19.88419803790748119354248046875">
        <ele>2099.60009765625</ele>
        <time>2026-06-16T10:46:53.000Z</time>
        <extensions>
          <ns3:TrackPointExtension>
            <ns3:atemp>18.0</ns3:atemp>
          </ns3:TrackPointExtension>
        </extensions>
      </trkpt>
      <trkpt lat="42.60491701774299144744873046875" lon="19.8842083476483821868896484375">
        <ele>2098</ele>
        <time>2026-06-16T10:46:54.000Z</time>
        <extensions>
          <ns3:TrackPointExtension>
            <ns3:atemp>18.0</ns3:atemp>
          </ns3:TrackPointExtension>
        </extensions>
      </trkpt>
      <trkpt lat="42.604967057704925537109375" lon="19.884205162525177001953125">
        <ele>2096.199951171875</ele>
        <time>2026-06-16T10:46:55.000Z</time>
        <extensions>
          <ns3:TrackPointExtension>
            <ns3:atemp>18.0</ns3:atemp>
          </ns3:TrackPointExtension>
        </extensions>
      </trkpt>
      <trkpt lat="42.60500888340175151824951171875" lon="19.88418714143335819244384765625">
        <ele>2094.39990234375</ele>
        <time>2026-06-16T10:46:56.000Z</time>
        <extensions>
          <ns3:TrackPointExtension>
            <ns3:atemp>18.0</ns3:atemp>
          </ns3:TrackPointExtension>
        </extensions>
      </trkpt>
      <trkpt lat="42.60504425503313541412353515625" lon="19.8841677792370319366455078125">
        <ele>2092.800048828125</ele>
        <time>2026-06-16T10:46:57.000Z</time>
        <extensions>
          <ns3:TrackPointExtension>
            <ns3:atemp>17.0</ns3:atemp>
          </ns3:TrackPointExtension>
        </extensions>
      </trkpt>
      <trkpt lat="42.6050730049610137939453125" lon="19.8841352574527263641357421875">
        <ele>2091.199951171875</ele>
        <time>2026-06-16T10:46:58.000Z</time>
        <extensions>
          <ns3:TrackPointExtension>
            <ns3:atemp>17.0</ns3:atemp>
          </ns3:TrackPointExtension>
        </extensions>
      </trkpt>
      <trkpt lat="42.605086080729961395263671875" lon="19.88409309647977352142333984375">
        <ele>2089.39990234375</ele>
        <time>2026-06-16T10:46:59.000Z</time>
        <extensions>
          <ns3:TrackPointExtension>
            <ns3:atemp>17.0</ns3:atemp>
          </ns3:TrackPointExtension>
        </extensions>
      </trkpt>
      <trkpt lat="42.60509471409022808074951171875" lon="19.884055294096469879150390625">
        <ele>2088.199951171875</ele>
        <time>2026-06-16T10:47:00.000Z</time>
        <extensions>
          <ns3:TrackPointExtension>
            <ns3:atemp>17.0</ns3:atemp>
          </ns3:TrackPointExtension>
        </extensions>
      </trkpt>
      <trkpt lat="42.60509504936635494232177734375" lon="19.8840329982340335845947265625">
        <ele>2087.199951171875</ele>
        <time>2026-06-16T10:47:01.000Z</time>
        <extensions>
          <ns3:TrackPointExtension>
            <ns3:atemp>17.0</ns3:atemp>
          </ns3:TrackPointExtension>
        </extensions>
      </trkpt>
      <trkpt lat="42.60509312152862548828125" lon="19.88401413895189762115478515625">
        <ele>2086.60009765625</ele>
        <time>2026-06-16T10:47:02.000Z</time>
        <extensions>
          <ns3:TrackPointExtension>
            <ns3:atemp>17.0</ns3:atemp>
          </ns3:TrackPointExtension>
        </extensions>
      </trkpt>
      <trkpt lat="42.60509169660508632659912109375" lon="19.88398496992886066436767578125">
        <ele>2086.199951171875</ele>
        <time>2026-06-16T10:47:03.000Z</time>
        <extensions>
          <ns3:TrackPointExtension>
            <ns3:atemp>17.0</ns3:atemp>
          </ns3:TrackPointExtension>
        </extensions>
      </trkpt>
      <trkpt lat="42.60510007850825786590576171875" lon="19.88395370543003082275390625">
        <ele>2086</ele>
        <time>2026-06-16T10:47:04.000Z</time>
        <extensions>
          <ns3:TrackPointExtension>
            <ns3:atemp>17.0</ns3:atemp>
          </ns3:TrackPointExtension>
        </extensions>
      </trkpt>
      <trkpt lat="42.60510795749723911285400390625" lon="19.8839310742914676666259765625">
        <ele>2086</ele>
        <time>2026-06-16T10:47:05.000Z</time>
        <extensions>
          <ns3:TrackPointExtension>
            <ns3:atemp>17.0</ns3:atemp>
          </ns3:TrackPointExtension>
        </extensions>
      </trkpt>
      <trkpt lat="42.6051160879433155059814453125" lon="19.88390634767711162567138671875">
        <ele>2086</ele>
        <time>2026-06-16T10:47:06.000Z</time>
        <extensions>
          <ns3:TrackPointExtension>
            <ns3:atemp>17.0</ns3:atemp>
          </ns3:TrackPointExtension>
        </extensions>
      </trkpt>
      <trkpt lat="42.6051274873316287994384765625" lon="19.8838851414620876312255859375">
        <ele>2086.199951171875</ele>
        <time>2026-06-16T10:47:07.000Z</time>
        <extensions>
          <ns3:TrackPointExtension>
            <ns3:atemp>17.0</ns3:atemp>
          </ns3:TrackPointExtension>
        </extensions>
      </trkpt>
      <trkpt lat="42.60513000190258026123046875" lon="19.8838620074093341827392578125">
        <ele>2086.199951171875</ele>
        <time>2026-06-16T10:47:08.000Z</time>
        <extensions>
          <ns3:TrackPointExtension>
            <ns3:atemp>17.0</ns3:atemp>
          </ns3:TrackPointExtension>
        </extensions>
      </trkpt>
      <trkpt lat="42.60512354783713817596435546875" lon="19.88385857082903385162353515625">
        <ele>2086.39990234375</ele>
        <time>2026-06-16T10:47:09.000Z</time>
        <extensions>
          <ns3:TrackPointExtension>
            <ns3:atemp>17.0</ns3:atemp>
          </ns3:TrackPointExtension>
        </extensions>
      </trkpt>
      <trkpt lat="42.60512220673263072967529296875" lon="19.8838529549539089202880859375">
        <ele>2086.60009765625</ele>
        <time>2026-06-16T10:47:10.000Z</time>
        <extensions>
          <ns3:TrackPointExtension>
            <ns3:atemp>17.0</ns3:atemp>
          </ns3:TrackPointExtension>
        </extensions>
      </trkpt>
      <trkpt lat="42.605122290551662445068359375" lon="19.8838526196777820587158203125">
        <ele>2086.60009765625</ele>
        <time>2026-06-16T10:47:11.000Z</time>
        <extensions>
          <ns3:TrackPointExtension>
            <ns3:atemp>17.0</ns3:atemp>
          </ns3:TrackPointExtension>
        </extensions>
      </trkpt>
      <trkpt lat="42.605122290551662445068359375" lon="19.8838526196777820587158203125">
        <ele>2086.800048828125</ele>
        <time>2026-06-16T10:47:12.000Z</time>
        <extensions>
          <ns3:TrackPointExtension>
            <ns3:atemp>17.0</ns3:atemp>
          </ns3:TrackPointExtension>
        </extensions>
      </trkpt>
      <trkpt lat="42.6051224581897258758544921875" lon="19.8838519491255283355712890625">
        <ele>2087</ele>
        <time>2026-06-16T10:47:13.000Z</time>
        <extensions>
          <ns3:TrackPointExtension>
            <ns3:atemp>17.0</ns3:atemp>
          </ns3:TrackPointExtension>
        </extensions>
      </trkpt>
      <trkpt lat="42.605122290551662445068359375" lon="19.8838526196777820587158203125">
        <ele>2087</ele>
        <time>2026-06-16T10:47:14.000Z</time>
        <extensions>
          <ns3:TrackPointExtension>
            <ns3:atemp>17.0</ns3:atemp>
          </ns3:TrackPointExtension>
        </extensions>
      </trkpt>
      <trkpt lat="42.605122290551662445068359375" lon="19.8838526196777820587158203125">
        <ele>2087</ele>
        <time>2026-06-16T10:47:15.000Z</time>
        <extensions>
          <ns3:TrackPointExtension>
            <ns3:atemp>17.0</ns3:atemp>
          </ns3:TrackPointExtension>
        </extensions>
      </trkpt>
      <trkpt lat="42.605122290551662445068359375" lon="19.8838526196777820587158203125">
        <ele>2087</ele>
        <time>2026-06-16T10:47:16.000Z</time>
        <extensions>
          <ns3:TrackPointExtension>
            <ns3:atemp>17.0</ns3:atemp>
          </ns3:TrackPointExtension>
        </extensions>
      </trkpt>
      <trkpt lat="42.605122290551662445068359375" lon="19.8838526196777820587158203125">
        <ele>2087</ele>
        <time>2026-06-16T10:47:17.000Z</time>
        <extensions>
          <ns3:TrackPointExtension>
            <ns3:atemp>17.0</ns3:atemp>
          </ns3:TrackPointExtension>
        </extensions>
      </trkpt>
      <trkpt lat="42.605122290551662445068359375" lon="19.8838526196777820587158203125">
        <ele>2087.199951171875</ele>
        <time>2026-06-16T10:47:18.000Z</time>
        <extensions>
          <ns3:TrackPointExtension>
            <ns3:atemp>17.0</ns3:atemp>
          </ns3:TrackPointExtension>
        </extensions>
      </trkpt>
      <trkpt lat="42.605126313865184783935546875" lon="19.88383895717561244964599609375">
        <ele>2087.199951171875</ele>
        <time>2026-06-16T10:47:19.000Z</time>
        <extensions>
          <ns3:TrackPointExtension>
            <ns3:atemp>17.0</ns3:atemp>
          </ns3:TrackPointExtension>
        </extensions>
      </trkpt>
      <trkpt lat="42.60513343848288059234619140625" lon="19.8838164098560810089111328125">
        <ele>2087.199951171875</ele>
        <time>2026-06-16T10:47:20.000Z</time>
        <extensions>
          <ns3:TrackPointExtension>
            <ns3:atemp>17.0</ns3:atemp>
          </ns3:TrackPointExtension>
        </extensions>
      </trkpt>
      <trkpt lat="42.60513880290091037750244140625" lon="19.883803166449069976806640625">
        <ele>2087.199951171875</ele>
        <time>2026-06-16T10:47:21.000Z</time>
        <extensions>
          <ns3:TrackPointExtension>
            <ns3:atemp>17.0</ns3:atemp>
          </ns3:TrackPointExtension>
        </extensions>
      </trkpt>
      <trkpt lat="42.6051435805857181549072265625" lon="19.88378531299531459808349609375">
        <ele>2087.199951171875</ele>
        <time>2026-06-16T10:47:22.000Z</time>
        <extensions>
          <ns3:TrackPointExtension>
            <ns3:atemp>17.0</ns3:atemp>
          </ns3:TrackPointExtension>
        </extensions>
      </trkpt>
      <trkpt lat="42.6051472686231136322021484375" lon="19.88376787863671779632568359375">
        <ele>2087.199951171875</ele>
        <time>2026-06-16T10:47:23.000Z</time>
        <extensions>
          <ns3:TrackPointExtension>
            <ns3:atemp>17.0</ns3:atemp>
          </ns3:TrackPointExtension>
        </extensions>
      </trkpt>
      <trkpt lat="42.6051539741456508636474609375" lon="19.88374725915491580963134765625">
        <ele>2087.199951171875</ele>
        <time>2026-06-16T10:47:24.000Z</time>
        <extensions>
          <ns3:TrackPointExtension>
            <ns3:atemp>17.0</ns3:atemp>
          </ns3:TrackPointExtension>
        </extensions>
      </trkpt>
      <trkpt lat="42.6051667146384716033935546875" lon="19.88372571766376495361328125">
        <ele>2087</ele>
        <time>2026-06-16T10:47:25.000Z</time>
        <extensions>
          <ns3:TrackPointExtension>
            <ns3:atemp>17.0</ns3:atemp>
          </ns3:TrackPointExtension>
        </extensions>
      </trkpt>
      <trkpt lat="42.60518523864448070526123046875" lon="19.8837071098387241363525390625">
        <ele>2086.800048828125</ele>
        <time>2026-06-16T10:47:26.000Z</time>
        <extensions>
          <ns3:TrackPointExtension>
            <ns3:atemp>17.0</ns3:atemp>
          </ns3:TrackPointExtension>
        </extensions>
      </trkpt>
      <trkpt lat="42.605204097926616668701171875" lon="19.883691854774951934814453125">
        <ele>2086.60009765625</ele>
        <time>2026-06-16T10:47:27.000Z</time>
        <extensions>
          <ns3:TrackPointExtension>
            <ns3:atemp>17.0</ns3:atemp>
          </ns3:TrackPointExtension>
        </extensions>
      </trkpt>
      <trkpt lat="42.605229578912258148193359375" lon="19.88367651589214801788330078125">
        <ele>2086.199951171875</ele>
        <time>2026-06-16T10:47:28.000Z</time>
        <extensions>
          <ns3:TrackPointExtension>
            <ns3:atemp>17.0</ns3:atemp>
          </ns3:TrackPointExtension>
        </extensions>
      </trkpt>
      <trkpt lat="42.6052500307559967041015625" lon="19.88366176374256610870361328125">
        <ele>2085.60009765625</ele>
        <time>2026-06-16T10:47:29.000Z</time>
        <extensions>
          <ns3:TrackPointExtension>
            <ns3:atemp>17.0</ns3:atemp>
          </ns3:TrackPointExtension>
        </extensions>
      </trkpt>
      <trkpt lat="42.60525899939239025115966796875" lon="19.8836491070687770843505859375">
        <ele>2085</ele>
        <time>2026-06-16T10:47:30.000Z</time>
        <extensions>
          <ns3:TrackPointExtension>
            <ns3:atemp>17.0</ns3:atemp>
          </ns3:TrackPointExtension>
        </extensions>
      </trkpt>
      <trkpt lat="42.60526151396334171295166015625" lon="19.8836517892777919769287109375">
        <ele>2084.60009765625</ele>
        <time>2026-06-16T10:47:31.000Z</time>
        <extensions>
          <ns3:TrackPointExtension>
            <ns3:atemp>17.0</ns3:atemp>
          </ns3:TrackPointExtension>
        </extensions>
      </trkpt>
      <trkpt lat="42.60526000522077083587646484375" lon="19.88365472294390201568603515625">
        <ele>2084.199951171875</ele>
        <time>2026-06-16T10:47:32.000Z</time>
        <extensions>
          <ns3:TrackPointExtension>
            <ns3:atemp>17.0</ns3:atemp>
          </ns3:TrackPointExtension>
        </extensions>
      </trkpt>
      <trkpt lat="42.60525983758270740509033203125" lon="19.88365463912487030029296875">
        <ele>2083.800048828125</ele>
        <time>2026-06-16T10:47:33.000Z</time>
        <extensions>
          <ns3:TrackPointExtension>
            <ns3:atemp>17.0</ns3:atemp>
          </ns3:TrackPointExtension>
        </extensions>
      </trkpt>
      <trkpt lat="42.60525983758270740509033203125" lon="19.88365463912487030029296875">
        <ele>2083.60009765625</ele>
        <time>2026-06-16T10:47:34.000Z</time>
        <extensions>
          <ns3:TrackPointExtension>
            <ns3:atemp>17.0</ns3:atemp>
          </ns3:TrackPointExtension>
        </extensions>
      </trkpt>
      <trkpt lat="42.60525983758270740509033203125" lon="19.88365463912487030029296875">
        <ele>2083.39990234375</ele>
        <time>2026-06-16T10:47:35.000Z</time>
        <extensions>
          <ns3:TrackPointExtension>
            <ns3:atemp>17.0</ns3:atemp>
          </ns3:TrackPointExtension>
        </extensions>
      </trkpt>
      <trkpt lat="42.60525983758270740509033203125" lon="19.88365463912487030029296875">
        <ele>2083.39990234375</ele>
        <time>2026-06-16T10:47:36.000Z</time>
        <extensions>
          <ns3:TrackPointExtension>
            <ns3:atemp>17.0</ns3:atemp>
          </ns3:TrackPointExtension>
        </extensions>
      </trkpt>
      <trkpt lat="42.60525983758270740509033203125" lon="19.88365463912487030029296875">
        <ele>2083.199951171875</ele>
        <time>2026-06-16T10:47:37.000Z</time>
        <extensions>
          <ns3:TrackPointExtension>
            <ns3:atemp>17.0</ns3:atemp>
          </ns3:TrackPointExtension>
        </extensions>
      </trkpt>
      <trkpt lat="42.60525983758270740509033203125" lon="19.88365463912487030029296875">
        <ele>2083</ele>
        <time>2026-06-16T10:47:38.000Z</time>
        <extensions>
          <ns3:TrackPointExtension>
            <ns3:atemp>17.0</ns3:atemp>
          </ns3:TrackPointExtension>
        </extensions>
      </trkpt>
      <trkpt lat="42.60525983758270740509033203125" lon="19.88365463912487030029296875">
        <ele>2083</ele>
        <time>2026-06-16T10:47:39.000Z</time>
        <extensions>
          <ns3:TrackPointExtension>
            <ns3:atemp>17.0</ns3:atemp>
          </ns3:TrackPointExtension>
        </extensions>
      </trkpt>
      <trkpt lat="42.60525983758270740509033203125" lon="19.88365463912487030029296875">
        <ele>2082.800048828125</ele>
        <time>2026-06-16T10:47:40.000Z</time>
        <extensions>
          <ns3:TrackPointExtension>
            <ns3:atemp>17.0</ns3:atemp>
          </ns3:TrackPointExtension>
        </extensions>
      </trkpt>
      <trkpt lat="42.60525983758270740509033203125" lon="19.88365463912487030029296875">
        <ele>2082.800048828125</ele>
        <time>2026-06-16T10:47:41.000Z</time>
        <extensions>
          <ns3:TrackPointExtension>
            <ns3:atemp>17.0</ns3:atemp>
          </ns3:TrackPointExtension>
        </extensions>
      </trkpt>
      <trkpt lat="42.60525983758270740509033203125" lon="19.88365463912487030029296875">
        <ele>2082.800048828125</ele>
        <time>2026-06-16T10:47:42.000Z</time>
        <extensions>
          <ns3:TrackPointExtension>
            <ns3:atemp>17.0</ns3:atemp>
          </ns3:TrackPointExtension>
        </extensions>
      </trkpt>
      <trkpt lat="42.60525983758270740509033203125" lon="19.88365463912487030029296875">
        <ele>2082.800048828125</ele>
        <time>2026-06-16T10:47:43.000Z</time>
        <extensions>
          <ns3:TrackPointExtension>
            <ns3:atemp>17.0</ns3:atemp>
          </ns3:TrackPointExtension>
        </extensions>
      </trkpt>
      <trkpt lat="42.60525983758270740509033203125" lon="19.88365463912487030029296875">
        <ele>2082.800048828125</ele>
        <time>2026-06-16T10:47:44.000Z</time>
        <extensions>
          <ns3:TrackPointExtension>
            <ns3:atemp>17.0</ns3:atemp>
          </ns3:TrackPointExtension>
        </extensions>
      </trkpt>
      <trkpt lat="42.60525983758270740509033203125" lon="19.88365463912487030029296875">
        <ele>2082.800048828125</ele>
        <time>2026-06-16T10:47:45.000Z</time>
        <extensions>
          <ns3:TrackPointExtension>
            <ns3:atemp>17.0</ns3:atemp>
          </ns3:TrackPointExtension>
        </extensions>
      </trkpt>
      <trkpt lat="42.605259418487548828125" lon="19.8836551420390605926513671875">
        <ele>2082.800048828125</ele>
        <time>2026-06-16T10:47:46.000Z</time>
        <extensions>
          <ns3:TrackPointExtension>
            <ns3:atemp>17.0</ns3:atemp>
          </ns3:TrackPointExtension>
        </extensions>
      </trkpt>
      <trkpt lat="42.60526235215365886688232421875" lon="19.88363988697528839111328125">
        <ele>2082.60009765625</ele>
        <time>2026-06-16T10:47:47.000Z</time>
        <extensions>
          <ns3:TrackPointExtension>
            <ns3:atemp>17.0</ns3:atemp>
          </ns3:TrackPointExtension>
        </extensions>
      </trkpt>
      <trkpt lat="42.60527542792260646820068359375" lon="19.88361147232353687286376953125">
        <ele>2082.39990234375</ele>
        <time>2026-06-16T10:47:48.000Z</time>
        <extensions>
          <ns3:TrackPointExtension>
            <ns3:atemp>17.0</ns3:atemp>
          </ns3:TrackPointExtension>
        </extensions>
      </trkpt>
      <trkpt lat="42.60529101826250553131103515625" lon="19.883572496473789215087890625">
        <ele>2082.199951171875</ele>
        <time>2026-06-16T10:47:49.000Z</time>
        <extensions>
          <ns3:TrackPointExtension>
            <ns3:atemp>17.0</ns3:atemp>
          </ns3:TrackPointExtension>
        </extensions>
      </trkpt>
      <trkpt lat="42.6053112186491489410400390625" lon="19.88352279178798198699951171875">
        <ele>2082</ele>
        <time>2026-06-16T10:47:50.000Z</time>
        <extensions>
          <ns3:TrackPointExtension>
            <ns3:atemp>17.0</ns3:atemp>
          </ns3:TrackPointExtension>
        </extensions>
      </trkpt>
      <trkpt lat="42.60532354004681110382080078125" lon="19.88347652368247509002685546875">
        <ele>2081.39990234375</ele>
        <time>2026-06-16T10:47:51.000Z</time>
        <extensions>
          <ns3:TrackPointExtension>
            <ns3:atemp>17.0</ns3:atemp>
          </ns3:TrackPointExtension>
        </extensions>
      </trkpt>
      <trkpt lat="42.60533560998737812042236328125" lon="19.88343042321503162384033203125">
        <ele>2080.800048828125</ele>
        <time>2026-06-16T10:47:52.000Z</time>
        <extensions>
          <ns3:TrackPointExtension>
            <ns3:atemp>17.0</ns3:atemp>
          </ns3:TrackPointExtension>
        </extensions>
      </trkpt>
      <trkpt lat="42.605353295803070068359375" lon="19.88338985480368137359619140625">
        <ele>2080.199951171875</ele>
        <time>2026-06-16T10:47:53.000Z</time>
        <extensions>
          <ns3:TrackPointExtension>
            <ns3:atemp>17.0</ns3:atemp>
          </ns3:TrackPointExtension>
        </extensions>
      </trkpt>
      <trkpt lat="42.60538673959672451019287109375" lon="19.88335330970585346221923828125">
        <ele>2079.60009765625</ele>
        <time>2026-06-16T10:47:54.000Z</time>
        <extensions>
          <ns3:TrackPointExtension>
            <ns3:atemp>17.0</ns3:atemp>
          </ns3:TrackPointExtension>
        </extensions>
      </trkpt>
      <trkpt lat="42.60542378760874271392822265625" lon="19.88333067856729030609130859375">
        <ele>2078.800048828125</ele>
        <time>2026-06-16T10:47:55.000Z</time>
        <extensions>
          <ns3:TrackPointExtension>
            <ns3:atemp>17.0</ns3:atemp>
          </ns3:TrackPointExtension>
        </extensions>
      </trkpt>
      <trkpt lat="42.60545228607952594757080078125" lon="19.8833091370761394500732421875">
        <ele>2078</ele>
        <time>2026-06-16T10:47:56.000Z</time>
        <extensions>
          <ns3:TrackPointExtension>
            <ns3:atemp>17.0</ns3:atemp>
          </ns3:TrackPointExtension>
        </extensions>
      </trkpt>
      <trkpt lat="42.60547868907451629638671875" lon="19.883286841213703155517578125">
        <ele>2077</ele>
        <time>2026-06-16T10:47:57.000Z</time>
        <extensions>
          <ns3:TrackPointExtension>
            <ns3:atemp>17.0</ns3:atemp>
          </ns3:TrackPointExtension>
        </extensions>
      </trkpt>
      <trkpt lat="42.60550643317401409149169921875" lon="19.883255325257778167724609375">
        <ele>2075.800048828125</ele>
        <time>2026-06-16T10:47:58.000Z</time>
        <extensions>
          <ns3:TrackPointExtension>
            <ns3:atemp>17.0</ns3:atemp>
          </ns3:TrackPointExtension>
        </extensions>
      </trkpt>
      <trkpt lat="42.605536021292209625244140625" lon="19.88321601413190364837646484375">
        <ele>2074.800048828125</ele>
        <time>2026-06-16T10:47:59.000Z</time>
        <extensions>
          <ns3:TrackPointExtension>
            <ns3:atemp>17.0</ns3:atemp>
          </ns3:TrackPointExtension>
        </extensions>
      </trkpt>
      <trkpt lat="42.60557265020906925201416015625" lon="19.883185587823390960693359375">
        <ele>2073.800048828125</ele>
        <time>2026-06-16T10:48:00.000Z</time>
        <extensions>
          <ns3:TrackPointExtension>
            <ns3:atemp>17.0</ns3:atemp>
          </ns3:TrackPointExtension>
        </extensions>
      </trkpt>
      <trkpt lat="42.605613805353641510009765625" lon="19.88316924311220645904541015625">
        <ele>2072.60009765625</ele>
        <time>2026-06-16T10:48:01.000Z</time>
        <extensions>
          <ns3:TrackPointExtension>
            <ns3:atemp>17.0</ns3:atemp>
          </ns3:TrackPointExtension>
        </extensions>
      </trkpt>
      <trkpt lat="42.6056505180895328521728515625" lon="19.88315650261938571929931640625">
        <ele>2071.199951171875</ele>
        <time>2026-06-16T10:48:02.000Z</time>
        <extensions>
          <ns3:TrackPointExtension>
            <ns3:atemp>17.0</ns3:atemp>
          </ns3:TrackPointExtension>
        </extensions>
      </trkpt>
      <trkpt lat="42.60568949393928050994873046875" lon="19.8831388168036937713623046875">
        <ele>2069.800048828125</ele>
        <time>2026-06-16T10:48:03.000Z</time>
        <extensions>
          <ns3:TrackPointExtension>
            <ns3:atemp>17.0</ns3:atemp>
          </ns3:TrackPointExtension>
        </extensions>
      </trkpt>
      <trkpt lat="42.60572687722742557525634765625" lon="19.8831270821392536163330078125">
        <ele>2068.39990234375</ele>
        <time>2026-06-16T10:48:04.000Z</time>
        <extensions>
          <ns3:TrackPointExtension>
            <ns3:atemp>17.0</ns3:atemp>
          </ns3:TrackPointExtension>
        </extensions>
      </trkpt>
      <trkpt lat="42.605761997401714324951171875" lon="19.88312263973057270050048828125">
        <ele>2066.800048828125</ele>
        <time>2026-06-16T10:48:05.000Z</time>
        <extensions>
          <ns3:TrackPointExtension>
            <ns3:atemp>17.0</ns3:atemp>
          </ns3:TrackPointExtension>
        </extensions>
      </trkpt>
      <trkpt lat="42.6057886518537998199462890625" lon="19.88311911933124065399169921875">
        <ele>2065.39990234375</ele>
        <time>2026-06-16T10:48:06.000Z</time>
        <extensions>
          <ns3:TrackPointExtension>
            <ns3:atemp>17.0</ns3:atemp>
          </ns3:TrackPointExtension>
        </extensions>
      </trkpt>
      <trkpt lat="42.6058111153542995452880859375" lon="19.88311459310352802276611328125">
        <ele>2064</ele>
        <time>2026-06-16T10:48:07.000Z</time>
        <extensions>
          <ns3:TrackPointExtension>
            <ns3:atemp>17.0</ns3:atemp>
          </ns3:TrackPointExtension>
        </extensions>
      </trkpt>
      <trkpt lat="42.60582469403743743896484375" lon="19.8831046186387538909912109375">
        <ele>2063</ele>
        <time>2026-06-16T10:48:08.000Z</time>
        <extensions>
          <ns3:TrackPointExtension>
            <ns3:atemp>17.0</ns3:atemp>
          </ns3:TrackPointExtension>
        </extensions>
      </trkpt>
      <trkpt lat="42.6058376021683216094970703125" lon="19.883082322776317596435546875">
        <ele>2061.800048828125</ele>
        <time>2026-06-16T10:48:09.000Z</time>
        <extensions>
          <ns3:TrackPointExtension>
            <ns3:atemp>17.0</ns3:atemp>
          </ns3:TrackPointExtension>
        </extensions>
      </trkpt>
      <trkpt lat="42.60585193522274494171142578125" lon="19.88305374048650264739990234375">
        <ele>2060.800048828125</ele>
        <time>2026-06-16T10:48:10.000Z</time>
        <extensions>
          <ns3:TrackPointExtension>
            <ns3:atemp>17.0</ns3:atemp>
          </ns3:TrackPointExtension>
        </extensions>
      </trkpt>
      <trkpt lat="42.60586517862975597381591796875" lon="19.88302205689251422882080078125">
        <ele>2060</ele>
        <time>2026-06-16T10:48:11.000Z</time>
        <extensions>
          <ns3:TrackPointExtension>
            <ns3:atemp>17.0</ns3:atemp>
          </ns3:TrackPointExtension>
        </extensions>
      </trkpt>
      <trkpt lat="42.6058781705796718597412109375" lon="19.88300160504877567291259765625">
        <ele>2059.39990234375</ele>
        <time>2026-06-16T10:48:12.000Z</time>
        <extensions>
          <ns3:TrackPointExtension>
            <ns3:atemp>17.0</ns3:atemp>
          </ns3:TrackPointExtension>
        </extensions>
      </trkpt>
      <trkpt lat="42.60588864795863628387451171875" lon="19.88299540244042873382568359375">
        <ele>2058.800048828125</ele>
        <time>2026-06-16T10:48:13.000Z</time>
        <extensions>
          <ns3:TrackPointExtension>
            <ns3:atemp>17.0</ns3:atemp>
          </ns3:TrackPointExtension>
        </extensions>
      </trkpt>
      <trkpt lat="42.60590122081339359283447265625" lon="19.8829815723001956939697265625">
        <ele>2058.39990234375</ele>
        <time>2026-06-16T10:48:14.000Z</time>
        <extensions>
          <ns3:TrackPointExtension>
            <ns3:atemp>17.0</ns3:atemp>
          </ns3:TrackPointExtension>
        </extensions>
      </trkpt>
      <trkpt lat="42.6059153862297534942626953125" lon="19.8829624615609645843505859375">
        <ele>2058</ele>
        <time>2026-06-16T10:48:15.000Z</time>
        <extensions>
          <ns3:TrackPointExtension>
            <ns3:atemp>17.0</ns3:atemp>
          </ns3:TrackPointExtension>
        </extensions>
      </trkpt>
      <trkpt lat="42.60592502541840076446533203125" lon="19.88293723203241825103759765625">
        <ele>2057.800048828125</ele>
        <time>2026-06-16T10:48:16.000Z</time>
        <extensions>
          <ns3:TrackPointExtension>
            <ns3:atemp>17.0</ns3:atemp>
          </ns3:TrackPointExtension>
        </extensions>
      </trkpt>
      <trkpt lat="42.60592854581773281097412109375" lon="19.88291678018867969512939453125">
        <ele>2057.39990234375</ele>
        <time>2026-06-16T10:48:17.000Z</time>
        <extensions>
          <ns3:TrackPointExtension>
            <ns3:atemp>17.0</ns3:atemp>
          </ns3:TrackPointExtension>
        </extensions>
      </trkpt>
      <trkpt lat="42.60594044812023639678955078125" lon="19.88289381377398967742919921875">
        <ele>2057</ele>
        <time>2026-06-16T10:48:18.000Z</time>
        <extensions>
          <ns3:TrackPointExtension>
            <ns3:atemp>17.0</ns3:atemp>
          </ns3:TrackPointExtension>
        </extensions>
      </trkpt>
      <trkpt lat="42.60596073232591152191162109375" lon="19.88287051208317279815673828125">
        <ele>2056.800048828125</ele>
        <time>2026-06-16T10:48:19.000Z</time>
        <extensions>
          <ns3:TrackPointExtension>
            <ns3:atemp>17.0</ns3:atemp>
          </ns3:TrackPointExtension>
        </extensions>
      </trkpt>
      <trkpt lat="42.60598235763609409332275390625" lon="19.88287067972123622894287109375">
        <ele>2056.39990234375</ele>
        <time>2026-06-16T10:48:20.000Z</time>
        <extensions>
          <ns3:TrackPointExtension>
            <ns3:atemp>17.0</ns3:atemp>
          </ns3:TrackPointExtension>
        </extensions>
      </trkpt>
      <trkpt lat="42.6059948466718196868896484375" lon="19.88287822343409061431884765625">
        <ele>2056.199951171875</ele>
        <time>2026-06-16T10:48:21.000Z</time>
        <extensions>
          <ns3:TrackPointExtension>
            <ns3:atemp>17.0</ns3:atemp>
          </ns3:TrackPointExtension>
        </extensions>
      </trkpt>
      <trkpt lat="42.60600800625979900360107421875" lon="19.88288006745278835296630859375">
        <ele>2056</ele>
        <time>2026-06-16T10:48:22.000Z</time>
        <extensions>
          <ns3:TrackPointExtension>
            <ns3:atemp>17.0</ns3:atemp>
          </ns3:TrackPointExtension>
        </extensions>
      </trkpt>
      <trkpt lat="42.60602912865579128265380859375" lon="19.88288425840437412261962890625">
        <ele>2055.800048828125</ele>
        <time>2026-06-16T10:48:23.000Z</time>
        <extensions>
          <ns3:TrackPointExtension>
            <ns3:atemp>17.0</ns3:atemp>
          </ns3:TrackPointExtension>
        </extensions>
      </trkpt>
      <trkpt lat="42.60606282390654087066650390625" lon="19.88288241438567638397216796875">
        <ele>2055.60009765625</ele>
        <time>2026-06-16T10:48:24.000Z</time>
        <extensions>
          <ns3:TrackPointExtension>
            <ns3:atemp>17.0</ns3:atemp>
          </ns3:TrackPointExtension>
        </extensions>
      </trkpt>
      <trkpt lat="42.6060897298157215118408203125" lon="19.88288358785212039947509765625">
        <ele>2055.199951171875</ele>
        <time>2026-06-16T10:48:25.000Z</time>
        <extensions>
          <ns3:TrackPointExtension>
            <ns3:atemp>17.0</ns3:atemp>
          </ns3:TrackPointExtension>
        </extensions>
      </trkpt>
      <trkpt lat="42.60611093603074550628662109375" lon="19.88288291729986667633056640625">
        <ele>2055</ele>
        <time>2026-06-16T10:48:26.000Z</time>
        <extensions>
          <ns3:TrackPointExtension>
            <ns3:atemp>17.0</ns3:atemp>
          </ns3:TrackPointExtension>
        </extensions>
      </trkpt>
      <trkpt lat="42.606136500835418701171875" lon="19.88287537358701229095458984375">
        <ele>2054.60009765625</ele>
        <time>2026-06-16T10:48:27.000Z</time>
        <extensions>
          <ns3:TrackPointExtension>
            <ns3:atemp>17.0</ns3:atemp>
          </ns3:TrackPointExtension>
        </extensions>
      </trkpt>
      <trkpt lat="42.6061564497649669647216796875" lon="19.8828883655369281768798828125">
        <ele>2054.39990234375</ele>
        <time>2026-06-16T10:48:28.000Z</time>
        <extensions>
          <ns3:TrackPointExtension>
            <ns3:atemp>17.0</ns3:atemp>
          </ns3:TrackPointExtension>
        </extensions>
      </trkpt>
      <trkpt lat="42.60618008673191070556640625" lon="19.88289297558367252349853515625">
        <ele>2054</ele>
        <time>2026-06-16T10:48:29.000Z</time>
        <extensions>
          <ns3:TrackPointExtension>
            <ns3:atemp>17.0</ns3:atemp>
          </ns3:TrackPointExtension>
        </extensions>
      </trkpt>
      <trkpt lat="42.606209926307201385498046875" lon="19.88289683125913143157958984375">
        <ele>2053.60009765625</ele>
        <time>2026-06-16T10:48:30.000Z</time>
        <extensions>
          <ns3:TrackPointExtension>
            <ns3:atemp>17.0</ns3:atemp>
          </ns3:TrackPointExtension>
        </extensions>
      </trkpt>
      <trkpt lat="42.606232054531574249267578125" lon="19.88289414905011653900146484375">
        <ele>2053</ele>
        <time>2026-06-16T10:48:31.000Z</time>
        <extensions>
          <ns3:TrackPointExtension>
            <ns3:atemp>17.0</ns3:atemp>
          </ns3:TrackPointExtension>
        </extensions>
      </trkpt>
      <trkpt lat="42.6062530092895030975341796875" lon="19.8828957416117191314697265625">
        <ele>2052.60009765625</ele>
        <time>2026-06-16T10:48:32.000Z</time>
        <extensions>
          <ns3:TrackPointExtension>
            <ns3:atemp>17.0</ns3:atemp>
          </ns3:TrackPointExtension>
        </extensions>
      </trkpt>
      <trkpt lat="42.60626851581037044525146484375" lon="19.88290219567716121673583984375">
        <ele>2052.39990234375</ele>
        <time>2026-06-16T10:48:33.000Z</time>
        <extensions>
          <ns3:TrackPointExtension>
            <ns3:atemp>17.0</ns3:atemp>
          </ns3:TrackPointExtension>
        </extensions>
      </trkpt>
      <trkpt lat="42.60628477670252323150634765625" lon="19.8829171992838382720947265625">
        <ele>2052.199951171875</ele>
        <time>2026-06-16T10:48:34.000Z</time>
        <extensions>
          <ns3:TrackPointExtension>
            <ns3:atemp>17.0</ns3:atemp>
          </ns3:TrackPointExtension>
        </extensions>
      </trkpt>
      <trkpt lat="42.60630346834659576416015625" lon="19.88293756730854511260986328125">
        <ele>2052</ele>
        <time>2026-06-16T10:48:35.000Z</time>
        <extensions>
          <ns3:TrackPointExtension>
            <ns3:atemp>17.0</ns3:atemp>
          </ns3:TrackPointExtension>
        </extensions>
      </trkpt>
      <trkpt lat="42.6063234172761440277099609375" lon="19.88295751623809337615966796875">
        <ele>2051.800048828125</ele>
        <time>2026-06-16T10:48:36.000Z</time>
        <extensions>
          <ns3:TrackPointExtension>
            <ns3:atemp>17.0</ns3:atemp>
          </ns3:TrackPointExtension>
        </extensions>
      </trkpt>
      <trkpt lat="42.60633707977831363677978515625" lon="19.88297243602573871612548828125">
        <ele>2051.39990234375</ele>
        <time>2026-06-16T10:48:37.000Z</time>
        <extensions>
          <ns3:TrackPointExtension>
            <ns3:atemp>17.0</ns3:atemp>
          </ns3:TrackPointExtension>
        </extensions>
      </trkpt>
      <trkpt lat="42.60634831152856349945068359375" lon="19.8829748667776584625244140625">
        <ele>2051.199951171875</ele>
        <time>2026-06-16T10:48:38.000Z</time>
        <extensions>
          <ns3:TrackPointExtension>
            <ns3:atemp>17.0</ns3:atemp>
          </ns3:TrackPointExtension>
        </extensions>
      </trkpt>
      <trkpt lat="42.60636088438332080841064453125" lon="19.882979057729244232177734375">
        <ele>2051</ele>
        <time>2026-06-16T10:48:39.000Z</time>
        <extensions>
          <ns3:TrackPointExtension>
            <ns3:atemp>17.0</ns3:atemp>
          </ns3:TrackPointExtension>
        </extensions>
      </trkpt>
      <trkpt lat="42.606376893818378448486328125" lon="19.88298785872757434844970703125">
        <ele>2050.60009765625</ele>
        <time>2026-06-16T10:48:40.000Z</time>
        <extensions>
          <ns3:TrackPointExtension>
            <ns3:atemp>17.0</ns3:atemp>
          </ns3:TrackPointExtension>
        </extensions>
      </trkpt>
      <trkpt lat="42.60639223270118236541748046875" lon="19.88299389369785785675048828125">
        <ele>2050.39990234375</ele>
        <time>2026-06-16T10:48:41.000Z</time>
        <extensions>
          <ns3:TrackPointExtension>
            <ns3:atemp>17.0</ns3:atemp>
          </ns3:TrackPointExtension>
        </extensions>
      </trkpt>
      <trkpt lat="42.60641209781169891357421875" lon="19.88298500888049602508544921875">
        <ele>2050</ele>
        <time>2026-06-16T10:48:42.000Z</time>
        <extensions>
          <ns3:TrackPointExtension>
            <ns3:atemp>17.0</ns3:atemp>
          </ns3:TrackPointExtension>
        </extensions>
      </trkpt>
      <trkpt lat="42.6064310409128665924072265625" lon="19.88297025673091411590576171875">
        <ele>2049.39990234375</ele>
        <time>2026-06-16T10:48:43.000Z</time>
        <extensions>
          <ns3:TrackPointExtension>
            <ns3:atemp>17.0</ns3:atemp>
          </ns3:TrackPointExtension>
        </extensions>
      </trkpt>
      <trkpt lat="42.60645308531820774078369140625" lon="19.8829570971429347991943359375">
        <ele>2048.60009765625</ele>
        <time>2026-06-16T10:48:44.000Z</time>
        <extensions>
          <ns3:TrackPointExtension>
            <ns3:atemp>17.0</ns3:atemp>
          </ns3:TrackPointExtension>
        </extensions>
      </trkpt>
      <trkpt lat="42.60647638700902462005615234375" lon="19.88294226117432117462158203125">
        <ele>2047.800048828125</ele>
        <time>2026-06-16T10:48:45.000Z</time>
        <extensions>
          <ns3:TrackPointExtension>
            <ns3:atemp>17.0</ns3:atemp>
          </ns3:TrackPointExtension>
        </extensions>
      </trkpt>
      <trkpt lat="42.60649901814758777618408203125" lon="19.88292432390153408050537109375">
        <ele>2046.800048828125</ele>
        <time>2026-06-16T10:48:46.000Z</time>
        <extensions>
          <ns3:TrackPointExtension>
            <ns3:atemp>17.0</ns3:atemp>
          </ns3:TrackPointExtension>
        </extensions>
      </trkpt>
      <trkpt lat="42.606524415314197540283203125" lon="19.88291828893125057220458984375">
        <ele>2046</ele>
        <time>2026-06-16T10:48:47.000Z</time>
        <extensions>
          <ns3:TrackPointExtension>
            <ns3:atemp>17.0</ns3:atemp>
          </ns3:TrackPointExtension>
        </extensions>
      </trkpt>
      <trkpt lat="42.606541179120540618896484375" lon="19.8829215578734874725341796875">
        <ele>2045.199951171875</ele>
        <time>2026-06-16T10:48:48.000Z</time>
        <extensions>
          <ns3:TrackPointExtension>
            <ns3:atemp>17.0</ns3:atemp>
          </ns3:TrackPointExtension>
        </extensions>
      </trkpt>
      <trkpt lat="42.606559954583644866943359375" lon="19.882928095757961273193359375">
        <ele>2044.4000244140625</ele>
        <time>2026-06-16T10:48:49.000Z</time>
        <extensions>
          <ns3:TrackPointExtension>
            <ns3:atemp>17.0</ns3:atemp>
          </ns3:TrackPointExtension>
        </extensions>
      </trkpt>
      <trkpt lat="42.606589458882808685302734375" lon="19.8829456977546215057373046875">
        <ele>2043.800048828125</ele>
        <time>2026-06-16T10:48:50.000Z</time>
        <extensions>
          <ns3:TrackPointExtension>
            <ns3:atemp>17.0</ns3:atemp>
          </ns3:TrackPointExtension>
        </extensions>
      </trkpt>
      <trkpt lat="42.60661552660167217254638671875" lon="19.8829839192330837249755859375">
        <ele>2043</ele>
        <time>2026-06-16T10:48:51.000Z</time>
        <extensions>
          <ns3:TrackPointExtension>
            <ns3:atemp>17.0</ns3:atemp>
          </ns3:TrackPointExtension>
        </extensions>
      </trkpt>
      <trkpt lat="42.606636397540569305419921875" lon="19.8830345459282398223876953125">
        <ele>2042.4000244140625</ele>
        <time>2026-06-16T10:48:52.000Z</time>
        <extensions>
          <ns3:TrackPointExtension>
            <ns3:atemp>17.0</ns3:atemp>
          </ns3:TrackPointExtension>
        </extensions>
      </trkpt>
      <trkpt lat="42.60666078887879848480224609375" lon="19.88309196196496486663818359375">
        <ele>2041.5999755859375</ele>
        <time>2026-06-16T10:48:53.000Z</time>
        <extensions>
          <ns3:TrackPointExtension>
            <ns3:atemp>17.0</ns3:atemp>
          </ns3:TrackPointExtension>
        </extensions>
      </trkpt>
      <trkpt lat="42.6066848449409008026123046875" lon="19.8831445164978504180908203125">
        <ele>2041</ele>
        <time>2026-06-16T10:48:54.000Z</time>
        <extensions>
          <ns3:TrackPointExtension>
            <ns3:atemp>17.0</ns3:atemp>
          </ns3:TrackPointExtension>
        </extensions>
      </trkpt>
      <trkpt lat="42.60670655407011508941650390625" lon="19.883183576166629791259765625">
        <ele>2040.5999755859375</ele>
        <time>2026-06-16T10:48:55.000Z</time>
        <extensions>
          <ns3:TrackPointExtension>
            <ns3:atemp>17.0</ns3:atemp>
          </ns3:TrackPointExtension>
        </extensions>
      </trkpt>
      <trkpt lat="42.60672616772353649139404296875" lon="19.88321031443774700164794921875">
        <ele>2040.199951171875</ele>
        <time>2026-06-16T10:48:56.000Z</time>
        <extensions>
          <ns3:TrackPointExtension>
            <ns3:atemp>17.0</ns3:atemp>
          </ns3:TrackPointExtension>
        </extensions>
      </trkpt>
      <trkpt lat="42.60674796067178249359130859375" lon="19.88322858698666095733642578125">
        <ele>2039.800048828125</ele>
        <time>2026-06-16T10:48:57.000Z</time>
        <extensions>
          <ns3:TrackPointExtension>
            <ns3:atemp>17.0</ns3:atemp>
          </ns3:TrackPointExtension>
        </extensions>
      </trkpt>
      <trkpt lat="42.606770507991313934326171875" lon="19.88326370716094970703125">
        <ele>2039.4000244140625</ele>
        <time>2026-06-16T10:48:58.000Z</time>
        <extensions>
          <ns3:TrackPointExtension>
            <ns3:atemp>17.0</ns3:atemp>
          </ns3:TrackPointExtension>
        </extensions>
      </trkpt>
      <trkpt lat="42.6067773811519145965576171875" lon="19.88328407518565654754638671875">
        <ele>2039.199951171875</ele>
        <time>2026-06-16T10:48:59.000Z</time>
        <extensions>
          <ns3:TrackPointExtension>
            <ns3:atemp>17.0</ns3:atemp>
          </ns3:TrackPointExtension>
        </extensions>
      </trkpt>
      <trkpt lat="42.60678626596927642822265625" lon="19.883304275572299957275390625">
        <ele>2039.199951171875</ele>
        <time>2026-06-16T10:49:00.000Z</time>
        <extensions>
          <ns3:TrackPointExtension>
            <ns3:atemp>17.0</ns3:atemp>
          </ns3:TrackPointExtension>
        </extensions>
      </trkpt>
      <trkpt lat="42.6068035326898097991943359375" lon="19.883320368826389312744140625">
        <ele>2039</ele>
        <time>2026-06-16T10:49:01.000Z</time>
        <extensions>
          <ns3:TrackPointExtension>
            <ns3:atemp>17.0</ns3:atemp>
          </ns3:TrackPointExtension>
        </extensions>
      </trkpt>
      <trkpt lat="42.606817781925201416015625" lon="19.88331374712288379669189453125">
        <ele>2039</ele>
        <time>2026-06-16T10:49:02.000Z</time>
        <extensions>
          <ns3:TrackPointExtension>
            <ns3:atemp>17.0</ns3:atemp>
          </ns3:TrackPointExtension>
        </extensions>
      </trkpt>
      <trkpt lat="42.6068353839218616485595703125" lon="19.88329664804041385650634765625">
        <ele>2039.199951171875</ele>
        <time>2026-06-16T10:49:03.000Z</time>
        <extensions>
          <ns3:TrackPointExtension>
            <ns3:atemp>17.0</ns3:atemp>
          </ns3:TrackPointExtension>
        </extensions>
      </trkpt>
      <trkpt lat="42.606850303709506988525390625" lon="19.88328189589083194732666015625">
        <ele>2039.4000244140625</ele>
        <time>2026-06-16T10:49:04.000Z</time>
        <extensions>
          <ns3:TrackPointExtension>
            <ns3:atemp>17.0</ns3:atemp>
          </ns3:TrackPointExtension>
        </extensions>
      </trkpt>
      <trkpt lat="42.6068702526390552520751953125" lon="19.8832632042467594146728515625">
        <ele>2039.5999755859375</ele>
        <time>2026-06-16T10:49:05.000Z</time>
        <extensions>
          <ns3:TrackPointExtension>
            <ns3:atemp>17.0</ns3:atemp>
          </ns3:TrackPointExtension>
        </extensions>
      </trkpt>
      <trkpt lat="42.6068943925201892852783203125" lon="19.8832650482654571533203125">
        <ele>2040</ele>
        <time>2026-06-16T10:49:06.000Z</time>
        <extensions>
          <ns3:TrackPointExtension>
            <ns3:atemp>17.0</ns3:atemp>
          </ns3:TrackPointExtension>
        </extensions>
      </trkpt>
      <trkpt lat="42.6069104857742786407470703125" lon="19.88327669911086559295654296875">
        <ele>2040.199951171875</ele>
        <time>2026-06-16T10:49:07.000Z</time>
        <extensions>
          <ns3:TrackPointExtension>
            <ns3:atemp>17.0</ns3:atemp>
          </ns3:TrackPointExtension>
        </extensions>
      </trkpt>
      <trkpt lat="42.60692632757127285003662109375" lon="19.88329061307013034820556640625">
        <ele>2040.4000244140625</ele>
        <time>2026-06-16T10:49:08.000Z</time>
        <extensions>
          <ns3:TrackPointExtension>
            <ns3:atemp>17.0</ns3:atemp>
          </ns3:TrackPointExtension>
        </extensions>
      </trkpt>
      <trkpt lat="42.606936134397983551025390625" lon="19.88330000080168247222900390625">
        <ele>2040.5999755859375</ele>
        <time>2026-06-16T10:49:09.000Z</time>
        <extensions>
          <ns3:TrackPointExtension>
            <ns3:atemp>17.0</ns3:atemp>
          </ns3:TrackPointExtension>
        </extensions>
      </trkpt>
      <trkpt lat="42.60695080272853374481201171875" lon="19.8833088018000125885009765625">
        <ele>2040.800048828125</ele>
        <time>2026-06-16T10:49:10.000Z</time>
        <extensions>
          <ns3:TrackPointExtension>
            <ns3:atemp>17.0</ns3:atemp>
          </ns3:TrackPointExtension>
        </extensions>
      </trkpt>
      <trkpt lat="42.60696253739297389984130859375" lon="19.883307628333568572998046875">
        <ele>2041</ele>
        <time>2026-06-16T10:49:11.000Z</time>
        <extensions>
          <ns3:TrackPointExtension>
            <ns3:atemp>17.0</ns3:atemp>
          </ns3:TrackPointExtension>
        </extensions>
      </trkpt>
      <trkpt lat="42.60697259567677974700927734375" lon="19.88329480402171611785888671875">
        <ele>2041.199951171875</ele>
        <time>2026-06-16T10:49:12.000Z</time>
        <extensions>
          <ns3:TrackPointExtension>
            <ns3:atemp>17.0</ns3:atemp>
          </ns3:TrackPointExtension>
        </extensions>
      </trkpt>
      <trkpt lat="42.60698785074055194854736328125" lon="19.88327200524508953094482421875">
        <ele>2041.4000244140625</ele>
        <time>2026-06-16T10:49:13.000Z</time>
        <extensions>
          <ns3:TrackPointExtension>
            <ns3:atemp>17.0</ns3:atemp>
          </ns3:TrackPointExtension>
        </extensions>
      </trkpt>
      <trkpt lat="42.60699774138629436492919921875" lon="19.88325490616261959075927734375">
        <ele>2041.5999755859375</ele>
        <time>2026-06-16T10:49:14.000Z</time>
        <extensions>
          <ns3:TrackPointExtension>
            <ns3:atemp>17.0</ns3:atemp>
          </ns3:TrackPointExtension>
        </extensions>
      </trkpt>
      <trkpt lat="42.60700578801333904266357421875" lon="19.8832383938133716583251953125">
        <ele>2041.5999755859375</ele>
        <time>2026-06-16T10:49:15.000Z</time>
        <extensions>
          <ns3:TrackPointExtension>
            <ns3:atemp>17.0</ns3:atemp>
          </ns3:TrackPointExtension>
        </extensions>
      </trkpt>
      <trkpt lat="42.60701299645006656646728515625" lon="19.88322624005377292633056640625">
        <ele>2042</ele>
        <time>2026-06-16T10:49:16.000Z</time>
        <extensions>
          <ns3:TrackPointExtension>
            <ns3:atemp>17.0</ns3:atemp>
          </ns3:TrackPointExtension>
        </extensions>
      </trkpt>
      <trkpt lat="42.60702087543904781341552734375" lon="19.88321299664676189422607421875">
        <ele>2042.199951171875</ele>
        <time>2026-06-16T10:49:17.000Z</time>
        <extensions>
          <ns3:TrackPointExtension>
            <ns3:atemp>17.0</ns3:atemp>
          </ns3:TrackPointExtension>
        </extensions>
      </trkpt>
      <trkpt lat="42.607027329504489898681640625" lon="19.88319992087781429290771484375">
        <ele>2042.4000244140625</ele>
        <time>2026-06-16T10:49:18.000Z</time>
        <extensions>
          <ns3:TrackPointExtension>
            <ns3:atemp>17.0</ns3:atemp>
          </ns3:TrackPointExtension>
        </extensions>
      </trkpt>
      <trkpt lat="42.607029341161251068115234375" lon="19.88319187425076961517333984375">
        <ele>2042.5999755859375</ele>
        <time>2026-06-16T10:49:19.000Z</time>
        <extensions>
          <ns3:TrackPointExtension>
            <ns3:atemp>17.0</ns3:atemp>
          </ns3:TrackPointExtension>
        </extensions>
      </trkpt>
      <trkpt lat="42.6070305146276950836181640625" lon="19.88317787647247314453125">
        <ele>2042.800048828125</ele>
        <time>2026-06-16T10:49:20.000Z</time>
        <extensions>
          <ns3:TrackPointExtension>
            <ns3:atemp>17.0</ns3:atemp>
          </ns3:TrackPointExtension>
        </extensions>
      </trkpt>
      <trkpt lat="42.607033364474773406982421875" lon="19.88315935246646404266357421875">
        <ele>2042.800048828125</ele>
        <time>2026-06-16T10:49:21.000Z</time>
        <extensions>
          <ns3:TrackPointExtension>
            <ns3:atemp>17.0</ns3:atemp>
          </ns3:TrackPointExtension>
        </extensions>
      </trkpt>
      <trkpt lat="42.6070342026650905609130859375" lon="19.8831455223262310028076171875">
        <ele>2043</ele>
        <time>2026-06-16T10:49:22.000Z</time>
        <extensions>
          <ns3:TrackPointExtension>
            <ns3:atemp>17.0</ns3:atemp>
          </ns3:TrackPointExtension>
        </extensions>
      </trkpt>
      <trkpt lat="42.607034705579280853271484375" lon="19.88313085399568080902099609375">
        <ele>2043</ele>
        <time>2026-06-16T10:49:23.000Z</time>
        <extensions>
          <ns3:TrackPointExtension>
            <ns3:atemp>17.0</ns3:atemp>
          </ns3:TrackPointExtension>
        </extensions>
      </trkpt>
      <trkpt lat="42.60703026317059993743896484375" lon="19.8831136710941791534423828125">
        <ele>2043</ele>
        <time>2026-06-16T10:49:24.000Z</time>
        <extensions>
          <ns3:TrackPointExtension>
            <ns3:atemp>17.0</ns3:atemp>
          </ns3:TrackPointExtension>
        </extensions>
      </trkpt>
      <trkpt lat="42.6070278324186801910400390625" lon="19.8831106536090373992919921875">
        <ele>2043</ele>
        <time>2026-06-16T10:49:25.000Z</time>
        <extensions>
          <ns3:TrackPointExtension>
            <ns3:atemp>17.0</ns3:atemp>
          </ns3:TrackPointExtension>
        </extensions>
      </trkpt>
      <trkpt lat="42.60702774859964847564697265625" lon="19.8831106536090373992919921875">
        <ele>2043</ele>
        <time>2026-06-16T10:49:26.000Z</time>
        <extensions>
          <ns3:TrackPointExtension>
            <ns3:atemp>17.0</ns3:atemp>
          </ns3:TrackPointExtension>
        </extensions>
      </trkpt>
      <trkpt lat="42.60702774859964847564697265625" lon="19.8831106536090373992919921875">
        <ele>2043</ele>
        <time>2026-06-16T10:49:27.000Z</time>
        <extensions>
          <ns3:TrackPointExtension>
            <ns3:atemp>17.0</ns3:atemp>
          </ns3:TrackPointExtension>
        </extensions>
      </trkpt>
      <trkpt lat="42.60702774859964847564697265625" lon="19.8831106536090373992919921875">
        <ele>2043</ele>
        <time>2026-06-16T10:49:28.000Z</time>
        <extensions>
          <ns3:TrackPointExtension>
            <ns3:atemp>17.0</ns3:atemp>
          </ns3:TrackPointExtension>
        </extensions>
      </trkpt>
      <trkpt lat="42.60702774859964847564697265625" lon="19.8831106536090373992919921875">
        <ele>2043</ele>
        <time>2026-06-16T10:49:29.000Z</time>
        <extensions>
          <ns3:TrackPointExtension>
            <ns3:atemp>17.0</ns3:atemp>
          </ns3:TrackPointExtension>
        </extensions>
      </trkpt>
      <trkpt lat="42.60702774859964847564697265625" lon="19.8831106536090373992919921875">
        <ele>2043</ele>
        <time>2026-06-16T10:49:30.000Z</time>
        <extensions>
          <ns3:TrackPointExtension>
            <ns3:atemp>17.0</ns3:atemp>
          </ns3:TrackPointExtension>
        </extensions>
      </trkpt>
      <trkpt lat="42.60702774859964847564697265625" lon="19.8831106536090373992919921875">
        <ele>2042.800048828125</ele>
        <time>2026-06-16T10:49:31.000Z</time>
        <extensions>
          <ns3:TrackPointExtension>
            <ns3:atemp>17.0</ns3:atemp>
          </ns3:TrackPointExtension>
        </extensions>
      </trkpt>
      <trkpt lat="42.60702774859964847564697265625" lon="19.8831106536090373992919921875">
        <ele>2042.800048828125</ele>
        <time>2026-06-16T10:49:32.000Z</time>
        <extensions>
          <ns3:TrackPointExtension>
            <ns3:atemp>17.0</ns3:atemp>
          </ns3:TrackPointExtension>
        </extensions>
      </trkpt>
      <trkpt lat="42.60702774859964847564697265625" lon="19.8831106536090373992919921875">
        <ele>2043</ele>
        <time>2026-06-16T10:49:33.000Z</time>
        <extensions>
          <ns3:TrackPointExtension>
            <ns3:atemp>17.0</ns3:atemp>
          </ns3:TrackPointExtension>
        </extensions>
      </trkpt>
      <trkpt lat="42.6070274971425533294677734375" lon="19.8831096477806568145751953125">
        <ele>2043</ele>
        <time>2026-06-16T10:49:34.000Z</time>
        <extensions>
          <ns3:TrackPointExtension>
            <ns3:atemp>17.0</ns3:atemp>
          </ns3:TrackPointExtension>
        </extensions>
      </trkpt>
      <trkpt lat="42.60701970197260379791259765625" lon="19.883099757134914398193359375">
        <ele>2043</ele>
        <time>2026-06-16T10:49:35.000Z</time>
        <extensions>
          <ns3:TrackPointExtension>
            <ns3:atemp>17.0</ns3:atemp>
          </ns3:TrackPointExtension>
        </extensions>
      </trkpt>
      <trkpt lat="42.60701199062168598175048828125" lon="19.8830972425639629364013671875">
        <ele>2043</ele>
        <time>2026-06-16T10:49:36.000Z</time>
        <extensions>
          <ns3:TrackPointExtension>
            <ns3:atemp>17.0</ns3:atemp>
          </ns3:TrackPointExtension>
        </extensions>
      </trkpt>
      <trkpt lat="42.6070016808807849884033203125" lon="19.88309347070753574371337890625">
        <ele>2043</ele>
        <time>2026-06-16T10:49:37.000Z</time>
        <extensions>
          <ns3:TrackPointExtension>
            <ns3:atemp>17.0</ns3:atemp>
          </ns3:TrackPointExtension>
        </extensions>
      </trkpt>
      <trkpt lat="42.60698768310248851776123046875" lon="19.88308039493858814239501953125">
        <ele>2042.800048828125</ele>
        <time>2026-06-16T10:49:38.000Z</time>
        <extensions>
          <ns3:TrackPointExtension>
            <ns3:atemp>17.0</ns3:atemp>
          </ns3:TrackPointExtension>
        </extensions>
      </trkpt>
      <trkpt lat="42.6069768704473972320556640625" lon="19.88306648097932338714599609375">
        <ele>2042.800048828125</ele>
        <time>2026-06-16T10:49:39.000Z</time>
        <extensions>
          <ns3:TrackPointExtension>
            <ns3:atemp>17.0</ns3:atemp>
          </ns3:TrackPointExtension>
        </extensions>
      </trkpt>
      <trkpt lat="42.6069678179919719696044921875" lon="19.8830446042120456695556640625">
        <ele>2042.800048828125</ele>
        <time>2026-06-16T10:49:40.000Z</time>
        <extensions>
          <ns3:TrackPointExtension>
            <ns3:atemp>17.0</ns3:atemp>
          </ns3:TrackPointExtension>
        </extensions>
      </trkpt>
      <trkpt lat="42.60696622543036937713623046875" lon="19.88300948403775691986083984375">
        <ele>2042.800048828125</ele>
        <time>2026-06-16T10:49:41.000Z</time>
        <extensions>
          <ns3:TrackPointExtension>
            <ns3:atemp>17.0</ns3:atemp>
          </ns3:TrackPointExtension>
        </extensions>
      </trkpt>
      <trkpt lat="42.606965638697147369384765625" lon="19.8829785548150539398193359375">
        <ele>2042.800048828125</ele>
        <time>2026-06-16T10:49:42.000Z</time>
        <extensions>
          <ns3:TrackPointExtension>
            <ns3:atemp>17.0</ns3:atemp>
          </ns3:TrackPointExtension>
        </extensions>
      </trkpt>
      <trkpt lat="42.60696102865040302276611328125" lon="19.88295567221939563751220703125">
        <ele>2042.800048828125</ele>
        <time>2026-06-16T10:49:43.000Z</time>
        <extensions>
          <ns3:TrackPointExtension>
            <ns3:atemp>17.0</ns3:atemp>
          </ns3:TrackPointExtension>
        </extensions>
      </trkpt>
      <trkpt lat="42.606955580413341522216796875" lon="19.88293287344276905059814453125">
        <ele>2043</ele>
        <time>2026-06-16T10:49:44.000Z</time>
        <extensions>
          <ns3:TrackPointExtension>
            <ns3:atemp>17.0</ns3:atemp>
          </ns3:TrackPointExtension>
        </extensions>
      </trkpt>
      <trkpt lat="42.606946192681789398193359375" lon="19.88291543908417224884033203125">
        <ele>2043.199951171875</ele>
        <time>2026-06-16T10:49:45.000Z</time>
        <extensions>
          <ns3:TrackPointExtension>
            <ns3:atemp>17.0</ns3:atemp>
          </ns3:TrackPointExtension>
        </extensions>
      </trkpt>
      <trkpt lat="42.6069440133869647979736328125" lon="19.882903955876827239990234375">
        <ele>2043.4000244140625</ele>
        <time>2026-06-16T10:49:46.000Z</time>
        <extensions>
          <ns3:TrackPointExtension>
            <ns3:atemp>17.0</ns3:atemp>
          </ns3:TrackPointExtension>
        </extensions>
      </trkpt>
      <trkpt lat="42.6069438457489013671875" lon="19.88290186040103435516357421875">
        <ele>2043.5999755859375</ele>
        <time>2026-06-16T10:49:47.000Z</time>
        <extensions>
          <ns3:TrackPointExtension>
            <ns3:atemp>17.0</ns3:atemp>
          </ns3:TrackPointExtension>
        </extensions>
      </trkpt>
      <trkpt lat="42.60695097036659717559814453125" lon="19.88289146684110164642333984375">
        <ele>2043.800048828125</ele>
        <time>2026-06-16T10:49:48.000Z</time>
        <extensions>
          <ns3:TrackPointExtension>
            <ns3:atemp>17.0</ns3:atemp>
          </ns3:TrackPointExtension>
        </extensions>
      </trkpt>
      <trkpt lat="42.60695683769881725311279296875" lon="19.88287185318768024444580078125">
        <ele>2044</ele>
        <time>2026-06-16T10:49:49.000Z</time>
        <extensions>
          <ns3:TrackPointExtension>
            <ns3:atemp>17.0</ns3:atemp>
          </ns3:TrackPointExtension>
        </extensions>
      </trkpt>
      <trkpt lat="42.6069684885442256927490234375" lon="19.88283949904143810272216796875">
        <ele>2044</ele>
        <time>2026-06-16T10:49:50.000Z</time>
        <extensions>
          <ns3:TrackPointExtension>
            <ns3:atemp>17.0</ns3:atemp>
          </ns3:TrackPointExtension>
        </extensions>
      </trkpt>
      <trkpt lat="42.60698248632252216339111328125" lon="19.88280479796230792999267578125">
        <ele>2043.800048828125</ele>
        <time>2026-06-16T10:49:51.000Z</time>
        <extensions>
          <ns3:TrackPointExtension>
            <ns3:atemp>17.0</ns3:atemp>
          </ns3:TrackPointExtension>
        </extensions>
      </trkpt>
      <trkpt lat="42.60699371807277202606201171875" lon="19.88275819458067417144775390625">
        <ele>2043.5999755859375</ele>
        <time>2026-06-16T10:49:52.000Z</time>
        <extensions>
          <ns3:TrackPointExtension>
            <ns3:atemp>17.0</ns3:atemp>
          </ns3:TrackPointExtension>
        </extensions>
      </trkpt>
      <trkpt lat="42.60701199062168598175048828125" lon="19.88270522095263004302978515625">
        <ele>2043.199951171875</ele>
        <time>2026-06-16T10:49:53.000Z</time>
        <extensions>
          <ns3:TrackPointExtension>
            <ns3:atemp>17.0</ns3:atemp>
          </ns3:TrackPointExtension>
        </extensions>
      </trkpt>
      <trkpt lat="42.6070325262844562530517578125" lon="19.88265224732458591461181640625">
        <ele>2042.800048828125</ele>
        <time>2026-06-16T10:49:54.000Z</time>
        <extensions>
          <ns3:TrackPointExtension>
            <ns3:atemp>17.0</ns3:atemp>
          </ns3:TrackPointExtension>
        </extensions>
      </trkpt>
      <trkpt lat="42.6070516370236873626708984375" lon="19.88261184655129909515380859375">
        <ele>2042.4000244140625</ele>
        <time>2026-06-16T10:49:55.000Z</time>
        <extensions>
          <ns3:TrackPointExtension>
            <ns3:atemp>17.0</ns3:atemp>
          </ns3:TrackPointExtension>
        </extensions>
      </trkpt>
      <trkpt lat="42.60707217268645763397216796875" lon="19.88258234225213527679443359375">
        <ele>2042</ele>
        <time>2026-06-16T10:49:56.000Z</time>
        <extensions>
          <ns3:TrackPointExtension>
            <ns3:atemp>17.0</ns3:atemp>
          </ns3:TrackPointExtension>
        </extensions>
      </trkpt>
      <trkpt lat="42.60708860121667385101318359375" lon="19.8825618065893650054931640625">
        <ele>2041.800048828125</ele>
        <time>2026-06-16T10:49:57.000Z</time>
        <extensions>
          <ns3:TrackPointExtension>
            <ns3:atemp>17.0</ns3:atemp>
          </ns3:TrackPointExtension>
        </extensions>
      </trkpt>
      <trkpt lat="42.60710838250815868377685546875" lon="19.8825551010668277740478515625">
        <ele>2041.4000244140625</ele>
        <time>2026-06-16T10:49:58.000Z</time>
        <extensions>
          <ns3:TrackPointExtension>
            <ns3:atemp>17.0</ns3:atemp>
          </ns3:TrackPointExtension>
        </extensions>
      </trkpt>
      <trkpt lat="42.6071260683238506317138671875" lon="19.88255384378135204315185546875">
        <ele>2041.199951171875</ele>
        <time>2026-06-16T10:49:59.000Z</time>
        <extensions>
          <ns3:TrackPointExtension>
            <ns3:atemp>17.0</ns3:atemp>
          </ns3:TrackPointExtension>
        </extensions>
      </trkpt>
      <trkpt lat="42.60713151656091213226318359375" lon="19.8825483955442905426025390625">
        <ele>2041</ele>
        <time>2026-06-16T10:50:00.000Z</time>
        <extensions>
          <ns3:TrackPointExtension>
            <ns3:atemp>17.0</ns3:atemp>
          </ns3:TrackPointExtension>
        </extensions>
      </trkpt>
      <trkpt lat="42.60714375413954257965087890625" lon="19.88253884017467498779296875">
        <ele>2040.800048828125</ele>
        <time>2026-06-16T10:50:01.000Z</time>
        <extensions>
          <ns3:TrackPointExtension>
            <ns3:atemp>17.0</ns3:atemp>
          </ns3:TrackPointExtension>
        </extensions>
      </trkpt>
      <trkpt lat="42.6071612723171710968017578125" lon="19.88252065144479274749755859375">
        <ele>2040.4000244140625</ele>
        <time>2026-06-16T10:50:02.000Z</time>
        <extensions>
          <ns3:TrackPointExtension>
            <ns3:atemp>17.0</ns3:atemp>
          </ns3:TrackPointExtension>
        </extensions>
      </trkpt>
      <trkpt lat="42.60716672055423259735107421875" lon="19.8825141973793506622314453125">
        <ele>2040.199951171875</ele>
        <time>2026-06-16T10:50:03.000Z</time>
        <extensions>
          <ns3:TrackPointExtension>
            <ns3:atemp>17.0</ns3:atemp>
          </ns3:TrackPointExtension>
        </extensions>
      </trkpt>
      <trkpt lat="42.6071689836680889129638671875" lon="19.8825185559689998626708984375">
        <ele>2040</ele>
        <time>2026-06-16T10:50:04.000Z</time>
        <extensions>
          <ns3:TrackPointExtension>
            <ns3:atemp>17.0</ns3:atemp>
          </ns3:TrackPointExtension>
        </extensions>
      </trkpt>
      <trkpt lat="42.60716906748712062835693359375" lon="19.8825185559689998626708984375">
        <ele>2039.5999755859375</ele>
        <time>2026-06-16T10:50:05.000Z</time>
        <extensions>
          <ns3:TrackPointExtension>
            <ns3:atemp>16.0</ns3:atemp>
          </ns3:TrackPointExtension>
        </extensions>
      </trkpt>
      <trkpt lat="42.60716906748712062835693359375" lon="19.8825185559689998626708984375">
        <ele>2039.5999755859375</ele>
        <time>2026-06-16T10:50:06.000Z</time>
        <extensions>
          <ns3:TrackPointExtension>
            <ns3:atemp>16.0</ns3:atemp>
          </ns3:TrackPointExtension>
        </extensions>
      </trkpt>
      <trkpt lat="42.60716906748712062835693359375" lon="19.8825185559689998626708984375">
        <ele>2039.4000244140625</ele>
        <time>2026-06-16T10:50:07.000Z</time>
        <extensions>
          <ns3:TrackPointExtension>
            <ns3:atemp>16.0</ns3:atemp>
          </ns3:TrackPointExtension>
        </extensions>
      </trkpt>
      <trkpt lat="42.60716906748712062835693359375" lon="19.8825185559689998626708984375">
        <ele>2039.4000244140625</ele>
        <time>2026-06-16T10:50:08.000Z</time>
        <extensions>
          <ns3:TrackPointExtension>
            <ns3:atemp>16.0</ns3:atemp>
          </ns3:TrackPointExtension>
        </extensions>
      </trkpt>
      <trkpt lat="42.60716906748712062835693359375" lon="19.8825185559689998626708984375">
        <ele>2039.4000244140625</ele>
        <time>2026-06-16T10:50:09.000Z</time>
        <extensions>
          <ns3:TrackPointExtension>
            <ns3:atemp>17.0</ns3:atemp>
          </ns3:TrackPointExtension>
        </extensions>
      </trkpt>
      <trkpt lat="42.60716906748712062835693359375" lon="19.8825185559689998626708984375">
        <ele>2039.4000244140625</ele>
        <time>2026-06-16T10:50:10.000Z</time>
        <extensions>
          <ns3:TrackPointExtension>
            <ns3:atemp>17.0</ns3:atemp>
          </ns3:TrackPointExtension>
        </extensions>
      </trkpt>
      <trkpt lat="42.60716906748712062835693359375" lon="19.8825185559689998626708984375">
        <ele>2039.4000244140625</ele>
        <time>2026-06-16T10:50:11.000Z</time>
        <extensions>
          <ns3:TrackPointExtension>
            <ns3:atemp>17.0</ns3:atemp>
          </ns3:TrackPointExtension>
        </extensions>
      </trkpt>
      <trkpt lat="42.60716906748712062835693359375" lon="19.8825185559689998626708984375">
        <ele>2039.199951171875</ele>
        <time>2026-06-16T10:50:12.000Z</time>
        <extensions>
          <ns3:TrackPointExtension>
            <ns3:atemp>17.0</ns3:atemp>
          </ns3:TrackPointExtension>
        </extensions>
      </trkpt>
      <trkpt lat="42.60716906748712062835693359375" lon="19.8825185559689998626708984375">
        <ele>2039.199951171875</ele>
        <time>2026-06-16T10:50:13.000Z</time>
        <extensions>
          <ns3:TrackPointExtension>
            <ns3:atemp>17.0</ns3:atemp>
          </ns3:TrackPointExtension>
        </extensions>
      </trkpt>
      <trkpt lat="42.60716906748712062835693359375" lon="19.8825185559689998626708984375">
        <ele>2039.199951171875</ele>
        <time>2026-06-16T10:50:14.000Z</time>
        <extensions>
          <ns3:TrackPointExtension>
            <ns3:atemp>17.0</ns3:atemp>
          </ns3:TrackPointExtension>
        </extensions>
      </trkpt>
      <trkpt lat="42.60716906748712062835693359375" lon="19.8825185559689998626708984375">
        <ele>2039.199951171875</ele>
        <time>2026-06-16T10:50:15.000Z</time>
        <extensions>
          <ns3:TrackPointExtension>
            <ns3:atemp>17.0</ns3:atemp>
          </ns3:TrackPointExtension>
        </extensions>
      </trkpt>
      <trkpt lat="42.60716906748712062835693359375" lon="19.8825185559689998626708984375">
        <ele>2039</ele>
        <time>2026-06-16T10:50:16.000Z</time>
        <extensions>
          <ns3:TrackPointExtension>
            <ns3:atemp>17.0</ns3:atemp>
          </ns3:TrackPointExtension>
        </extensions>
      </trkpt>
      <trkpt lat="42.60716906748712062835693359375" lon="19.8825185559689998626708984375">
        <ele>2039</ele>
        <time>2026-06-16T10:50:17.000Z</time>
        <extensions>
          <ns3:TrackPointExtension>
            <ns3:atemp>17.0</ns3:atemp>
          </ns3:TrackPointExtension>
        </extensions>
      </trkpt>
      <trkpt lat="42.60716906748712062835693359375" lon="19.8825185559689998626708984375">
        <ele>2039</ele>
        <time>2026-06-16T10:50:18.000Z</time>
        <extensions>
          <ns3:TrackPointExtension>
            <ns3:atemp>17.0</ns3:atemp>
          </ns3:TrackPointExtension>
        </extensions>
      </trkpt>
      <trkpt lat="42.60716906748712062835693359375" lon="19.8825185559689998626708984375">
        <ele>2039</ele>
        <time>2026-06-16T10:50:19.000Z</time>
        <extensions>
          <ns3:TrackPointExtension>
            <ns3:atemp>17.0</ns3:atemp>
          </ns3:TrackPointExtension>
        </extensions>
      </trkpt>
      <trkpt lat="42.60716906748712062835693359375" lon="19.8825185559689998626708984375">
        <ele>2039</ele>
        <time>2026-06-16T10:50:20.000Z</time>
        <extensions>
          <ns3:TrackPointExtension>
            <ns3:atemp>17.0</ns3:atemp>
          </ns3:TrackPointExtension>
        </extensions>
      </trkpt>
      <trkpt lat="42.60716906748712062835693359375" lon="19.8825185559689998626708984375">
        <ele>2039</ele>
        <time>2026-06-16T10:50:21.000Z</time>
        <extensions>
          <ns3:TrackPointExtension>
            <ns3:atemp>17.0</ns3:atemp>
          </ns3:TrackPointExtension>
        </extensions>
      </trkpt>
      <trkpt lat="42.60716906748712062835693359375" lon="19.8825185559689998626708984375">
        <ele>2039</ele>
        <time>2026-06-16T10:50:22.000Z</time>
        <extensions>
          <ns3:TrackPointExtension>
            <ns3:atemp>17.0</ns3:atemp>
          </ns3:TrackPointExtension>
        </extensions>
      </trkpt>
      <trkpt lat="42.60716906748712062835693359375" lon="19.8825185559689998626708984375">
        <ele>2039</ele>
        <time>2026-06-16T10:50:23.000Z</time>
        <extensions>
          <ns3:TrackPointExtension>
            <ns3:atemp>17.0</ns3:atemp>
          </ns3:TrackPointExtension>
        </extensions>
      </trkpt>
      <trkpt lat="42.60716906748712062835693359375" lon="19.8825185559689998626708984375">
        <ele>2039</ele>
        <time>2026-06-16T10:50:24.000Z</time>
        <extensions>
          <ns3:TrackPointExtension>
            <ns3:atemp>17.0</ns3:atemp>
          </ns3:TrackPointExtension>
        </extensions>
      </trkpt>
      <trkpt lat="42.60716990567743778228759765625" lon="19.882519058883190155029296875">
        <ele>2039</ele>
        <time>2026-06-16T10:50:25.000Z</time>
        <extensions>
          <ns3:TrackPointExtension>
            <ns3:atemp>17.0</ns3:atemp>
          </ns3:TrackPointExtension>
        </extensions>
      </trkpt>
      <trkpt lat="42.60717250406742095947265625" lon="19.88250774331390857696533203125">
        <ele>2039</ele>
        <time>2026-06-16T10:50:26.000Z</time>
        <extensions>
          <ns3:TrackPointExtension>
            <ns3:atemp>17.0</ns3:atemp>
          </ns3:TrackPointExtension>
        </extensions>
      </trkpt>
      <trkpt lat="42.60717577300965785980224609375" lon="19.88249097950756549835205078125">
        <ele>2038.800048828125</ele>
        <time>2026-06-16T10:50:27.000Z</time>
        <extensions>
          <ns3:TrackPointExtension>
            <ns3:atemp>16.0</ns3:atemp>
          </ns3:TrackPointExtension>
        </extensions>
      </trkpt>
      <trkpt lat="42.60717862285673618316650390625" lon="19.8824759759008884429931640625">
        <ele>2038.5999755859375</ele>
        <time>2026-06-16T10:50:28.000Z</time>
        <extensions>
          <ns3:TrackPointExtension>
            <ns3:atemp>16.0</ns3:atemp>
          </ns3:TrackPointExtension>
        </extensions>
      </trkpt>
      <trkpt lat="42.60717979632318019866943359375" lon="19.882445968687534332275390625">
        <ele>2038.4000244140625</ele>
        <time>2026-06-16T10:50:29.000Z</time>
        <extensions>
          <ns3:TrackPointExtension>
            <ns3:atemp>17.0</ns3:atemp>
          </ns3:TrackPointExtension>
        </extensions>
      </trkpt>
      <trkpt lat="42.60718381963670253753662109375" lon="19.88241269253194332122802734375">
        <ele>2038.199951171875</ele>
        <time>2026-06-16T10:50:30.000Z</time>
        <extensions>
          <ns3:TrackPointExtension>
            <ns3:atemp>16.0</ns3:atemp>
          </ns3:TrackPointExtension>
        </extensions>
      </trkpt>
      <trkpt lat="42.6071921177208423614501953125" lon="19.88238058984279632568359375">
        <ele>2037.800048828125</ele>
        <time>2026-06-16T10:50:31.000Z</time>
        <extensions>
          <ns3:TrackPointExtension>
            <ns3:atemp>16.0</ns3:atemp>
          </ns3:TrackPointExtension>
        </extensions>
      </trkpt>
      <trkpt lat="42.60721013881266117095947265625" lon="19.882339350879192352294921875">
        <ele>2037.4000244140625</ele>
        <time>2026-06-16T10:50:32.000Z</time>
        <extensions>
          <ns3:TrackPointExtension>
            <ns3:atemp>16.0</ns3:atemp>
          </ns3:TrackPointExtension>
        </extensions>
      </trkpt>
      <trkpt lat="42.60723679326474666595458984375" lon="19.882327280938625335693359375">
        <ele>2036.800048828125</ele>
        <time>2026-06-16T10:50:33.000Z</time>
        <extensions>
          <ns3:TrackPointExtension>
            <ns3:atemp>16.0</ns3:atemp>
          </ns3:TrackPointExtension>
        </extensions>
      </trkpt>
      <trkpt lat="42.60726009495556354522705078125" lon="19.88232770003378391265869140625">
        <ele>2036.4000244140625</ele>
        <time>2026-06-16T10:50:34.000Z</time>
        <extensions>
          <ns3:TrackPointExtension>
            <ns3:atemp>16.0</ns3:atemp>
          </ns3:TrackPointExtension>
        </extensions>
      </trkpt>
      <trkpt lat="42.60728943161666393280029296875" lon="19.88231956958770751953125">
        <ele>2036</ele>
        <time>2026-06-16T10:50:35.000Z</time>
        <extensions>
          <ns3:TrackPointExtension>
            <ns3:atemp>16.0</ns3:atemp>
          </ns3:TrackPointExtension>
        </extensions>
      </trkpt>
      <trkpt lat="42.60732161812484264373779296875" lon="19.88232166506350040435791015625">
        <ele>2035.4000244140625</ele>
        <time>2026-06-16T10:50:36.000Z</time>
        <extensions>
          <ns3:TrackPointExtension>
            <ns3:atemp>16.0</ns3:atemp>
          </ns3:TrackPointExtension>
        </extensions>
      </trkpt>
      <trkpt lat="42.607358582317829132080078125" lon="19.8823173902928829193115234375">
        <ele>2034.800048828125</ele>
        <time>2026-06-16T10:50:37.000Z</time>
        <extensions>
          <ns3:TrackPointExtension>
            <ns3:atemp>16.0</ns3:atemp>
          </ns3:TrackPointExtension>
        </extensions>
      </trkpt>
      <trkpt lat="42.6073989830911159515380859375" lon="19.88231076858937740325927734375">
        <ele>2033.5999755859375</ele>
        <time>2026-06-16T10:50:38.000Z</time>
        <extensions>
          <ns3:TrackPointExtension>
            <ns3:atemp>16.0</ns3:atemp>
          </ns3:TrackPointExtension>
        </extensions>
      </trkpt>
      <trkpt lat="42.60744583792984485626220703125" lon="19.8822860419750213623046875">
        <ele>2032.4000244140625</ele>
        <time>2026-06-16T10:50:39.000Z</time>
        <extensions>
          <ns3:TrackPointExtension>
            <ns3:atemp>16.0</ns3:atemp>
          </ns3:TrackPointExtension>
        </extensions>
      </trkpt>
      <trkpt lat="42.607509456574916839599609375" lon="19.88225494511425495147705078125">
        <ele>2031</ele>
        <time>2026-06-16T10:50:40.000Z</time>
        <extensions>
          <ns3:TrackPointExtension>
            <ns3:atemp>16.0</ns3:atemp>
          </ns3:TrackPointExtension>
        </extensions>
      </trkpt>
      <trkpt lat="42.6075736619532108306884765625" lon="19.88222577609121799468994140625">
        <ele>2029.5999755859375</ele>
        <time>2026-06-16T10:50:41.000Z</time>
        <extensions>
          <ns3:TrackPointExtension>
            <ns3:atemp>16.0</ns3:atemp>
          </ns3:TrackPointExtension>
        </extensions>
      </trkpt>
      <trkpt lat="42.6076259650290012359619140625" lon="19.88220146857202053070068359375">
        <ele>2028.4000244140625</ele>
        <time>2026-06-16T10:50:42.000Z</time>
        <extensions>
          <ns3:TrackPointExtension>
            <ns3:atemp>16.0</ns3:atemp>
          </ns3:TrackPointExtension>
        </extensions>
      </trkpt>
      <trkpt lat="42.60765454731881618499755859375" lon="19.8821960203349590301513671875">
        <ele>2027.4000244140625</ele>
        <time>2026-06-16T10:50:43.000Z</time>
        <extensions>
          <ns3:TrackPointExtension>
            <ns3:atemp>16.0</ns3:atemp>
          </ns3:TrackPointExtension>
        </extensions>
      </trkpt>
      <trkpt lat="42.60766804218292236328125" lon="19.88220180384814739227294921875">
        <ele>2026.5999755859375</ele>
        <time>2026-06-16T10:50:44.000Z</time>
        <extensions>
          <ns3:TrackPointExtension>
            <ns3:atemp>16.0</ns3:atemp>
          </ns3:TrackPointExtension>
        </extensions>
      </trkpt>
      <trkpt lat="42.60767030529677867889404296875" lon="19.8822064138948917388916015625">
        <ele>2026.199951171875</ele>
        <time>2026-06-16T10:50:45.000Z</time>
        <extensions>
          <ns3:TrackPointExtension>
            <ns3:atemp>16.0</ns3:atemp>
          </ns3:TrackPointExtension>
        </extensions>
      </trkpt>
      <trkpt lat="42.60767877101898193359375" lon="19.882209263741970062255859375">
        <ele>2026</ele>
        <time>2026-06-16T10:50:46.000Z</time>
        <extensions>
          <ns3:TrackPointExtension>
            <ns3:atemp>16.0</ns3:atemp>
          </ns3:TrackPointExtension>
        </extensions>
      </trkpt>
      <trkpt lat="42.60768740437924861907958984375" lon="19.88221068866550922393798828125">
        <ele>2026</ele>
        <time>2026-06-16T10:50:47.000Z</time>
        <extensions>
          <ns3:TrackPointExtension>
            <ns3:atemp>16.0</ns3:atemp>
          </ns3:TrackPointExtension>
        </extensions>
      </trkpt>
      <trkpt lat="42.6076916791498661041259765625" lon="19.88221772946417331695556640625">
        <ele>2025.800048828125</ele>
        <time>2026-06-16T10:50:48.000Z</time>
        <extensions>
          <ns3:TrackPointExtension>
            <ns3:atemp>16.0</ns3:atemp>
          </ns3:TrackPointExtension>
        </extensions>
      </trkpt>
      <trkpt lat="42.6076987199485301971435546875" lon="19.8822136223316192626953125">
        <ele>2025.5999755859375</ele>
        <time>2026-06-16T10:50:49.000Z</time>
        <extensions>
          <ns3:TrackPointExtension>
            <ns3:atemp>16.0</ns3:atemp>
          </ns3:TrackPointExtension>
        </extensions>
      </trkpt>
      <trkpt lat="42.60771020315587520599365234375" lon="19.88220884464681148529052734375">
        <ele>2025.4000244140625</ele>
        <time>2026-06-16T10:50:50.000Z</time>
        <extensions>
          <ns3:TrackPointExtension>
            <ns3:atemp>16.0</ns3:atemp>
          </ns3:TrackPointExtension>
        </extensions>
      </trkpt>
      <trkpt lat="42.60772931389510631561279296875" lon="19.88221228122711181640625">
        <ele>2025.199951171875</ele>
        <time>2026-06-16T10:50:51.000Z</time>
        <extensions>
          <ns3:TrackPointExtension>
            <ns3:atemp>16.0</ns3:atemp>
          </ns3:TrackPointExtension>
        </extensions>
      </trkpt>
      <trkpt lat="42.60774523951113224029541015625" lon="19.88221638835966587066650390625">
        <ele>2024.800048828125</ele>
        <time>2026-06-16T10:50:52.000Z</time>
        <extensions>
          <ns3:TrackPointExtension>
            <ns3:atemp>16.0</ns3:atemp>
          </ns3:TrackPointExtension>
        </extensions>
      </trkpt>
      <trkpt lat="42.6077605783939361572265625" lon="19.88222359679639339447021484375">
        <ele>2024.5999755859375</ele>
        <time>2026-06-16T10:50:53.000Z</time>
        <extensions>
          <ns3:TrackPointExtension>
            <ns3:atemp>16.0</ns3:atemp>
          </ns3:TrackPointExtension>
        </extensions>
      </trkpt>
      <trkpt lat="42.607773654162883758544921875" lon="19.88222795538604259490966796875">
        <ele>2024.199951171875</ele>
        <time>2026-06-16T10:50:54.000Z</time>
        <extensions>
          <ns3:TrackPointExtension>
            <ns3:atemp>16.0</ns3:atemp>
          </ns3:TrackPointExtension>
        </extensions>
      </trkpt>
      <trkpt lat="42.6077889092266559600830078125" lon="19.88223281688988208770751953125">
        <ele>2023.800048828125</ele>
        <time>2026-06-16T10:50:55.000Z</time>
        <extensions>
          <ns3:TrackPointExtension>
            <ns3:atemp>16.0</ns3:atemp>
          </ns3:TrackPointExtension>
        </extensions>
      </trkpt>
      <trkpt lat="42.6078100316226482391357421875" lon="19.882247149944305419921875">
        <ele>2023.199951171875</ele>
        <time>2026-06-16T10:50:56.000Z</time>
        <extensions>
          <ns3:TrackPointExtension>
            <ns3:atemp>16.0</ns3:atemp>
          </ns3:TrackPointExtension>
        </extensions>
      </trkpt>
      <trkpt lat="42.60782017372548580169677734375" lon="19.88226701505482196807861328125">
        <ele>2022.4000244140625</ele>
        <time>2026-06-16T10:50:57.000Z</time>
        <extensions>
          <ns3:TrackPointExtension>
            <ns3:atemp>16.0</ns3:atemp>
          </ns3:TrackPointExtension>
        </extensions>
      </trkpt>
      <trkpt lat="42.60782822035253047943115234375" lon="19.88229333423078060150146484375">
        <ele>2021.5999755859375</ele>
        <time>2026-06-16T10:50:58.000Z</time>
        <extensions>
          <ns3:TrackPointExtension>
            <ns3:atemp>16.0</ns3:atemp>
          </ns3:TrackPointExtension>
        </extensions>
      </trkpt>
      <trkpt lat="42.607842721045017242431640625" lon="19.882323257625102996826171875">
        <ele>2020.5999755859375</ele>
        <time>2026-06-16T10:50:59.000Z</time>
        <extensions>
          <ns3:TrackPointExtension>
            <ns3:atemp>16.0</ns3:atemp>
          </ns3:TrackPointExtension>
        </extensions>
      </trkpt>
      <trkpt lat="42.60785856284201145172119140625" lon="19.88233901560306549072265625">
        <ele>2019.800048828125</ele>
        <time>2026-06-16T10:51:00.000Z</time>
        <extensions>
          <ns3:TrackPointExtension>
            <ns3:atemp>16.0</ns3:atemp>
          </ns3:TrackPointExtension>
        </extensions>
      </trkpt>
      <trkpt lat="42.60788219980895519256591796875" lon="19.88235116936266422271728515625">
        <ele>2018.800048828125</ele>
        <time>2026-06-16T10:51:01.000Z</time>
        <extensions>
          <ns3:TrackPointExtension>
            <ns3:atemp>16.0</ns3:atemp>
          </ns3:TrackPointExtension>
        </extensions>
      </trkpt>
      <trkpt lat="42.6079161465167999267578125" lon="19.8823666758835315704345703125">
        <ele>2017.800048828125</ele>
        <time>2026-06-16T10:51:02.000Z</time>
        <extensions>
          <ns3:TrackPointExtension>
            <ns3:atemp>16.0</ns3:atemp>
          </ns3:TrackPointExtension>
        </extensions>
      </trkpt>
      <trkpt lat="42.607955038547515869140625" lon="19.88237916491925716400146484375">
        <ele>2016.5999755859375</ele>
        <time>2026-06-16T10:51:03.000Z</time>
        <extensions>
          <ns3:TrackPointExtension>
            <ns3:atemp>16.0</ns3:atemp>
          </ns3:TrackPointExtension>
        </extensions>
      </trkpt>
      <trkpt lat="42.60799770243465900421142578125" lon="19.88236491568386554718017578125">
        <ele>2015</ele>
        <time>2026-06-16T10:51:04.000Z</time>
        <extensions>
          <ns3:TrackPointExtension>
            <ns3:atemp>16.0</ns3:atemp>
          </ns3:TrackPointExtension>
        </extensions>
      </trkpt>
      <trkpt lat="42.60804732330143451690673828125" lon="19.8823495768010616302490234375">
        <ele>2013.5999755859375</ele>
        <time>2026-06-16T10:51:05.000Z</time>
        <extensions>
          <ns3:TrackPointExtension>
            <ns3:atemp>16.0</ns3:atemp>
          </ns3:TrackPointExtension>
        </extensions>
      </trkpt>
      <trkpt lat="42.608091495931148529052734375" lon="19.88231210969388484954833984375">
        <ele>2012.4000244140625</ele>
        <time>2026-06-16T10:51:06.000Z</time>
        <extensions>
          <ns3:TrackPointExtension>
            <ns3:atemp>16.0</ns3:atemp>
          </ns3:TrackPointExtension>
        </extensions>
      </trkpt>
      <trkpt lat="42.6081362552940845489501953125" lon="19.88229081965982913970947265625">
        <ele>2011.199951171875</ele>
        <time>2026-06-16T10:51:07.000Z</time>
        <extensions>
          <ns3:TrackPointExtension>
            <ns3:atemp>16.0</ns3:atemp>
          </ns3:TrackPointExtension>
        </extensions>
      </trkpt>
      <trkpt lat="42.60816953144967555999755859375" lon="19.88227254711091518402099609375">
        <ele>2010.4000244140625</ele>
        <time>2026-06-16T10:51:08.000Z</time>
        <extensions>
          <ns3:TrackPointExtension>
            <ns3:atemp>16.0</ns3:atemp>
          </ns3:TrackPointExtension>
        </extensions>
      </trkpt>
      <trkpt lat="42.60818813927471637725830078125" lon="19.882255531847476959228515625">
        <ele>2009.4000244140625</ele>
        <time>2026-06-16T10:51:09.000Z</time>
        <extensions>
          <ns3:TrackPointExtension>
            <ns3:atemp>16.0</ns3:atemp>
          </ns3:TrackPointExtension>
        </extensions>
      </trkpt>
      <trkpt lat="42.6082046516239643096923828125" lon="19.8822402767837047576904296875">
        <ele>2008.800048828125</ele>
        <time>2026-06-16T10:51:10.000Z</time>
        <extensions>
          <ns3:TrackPointExtension>
            <ns3:atemp>16.0</ns3:atemp>
          </ns3:TrackPointExtension>
        </extensions>
      </trkpt>
      <trkpt lat="42.60821227915585041046142578125" lon="19.88222694955766201019287109375">
        <ele>2008.199951171875</ele>
        <time>2026-06-16T10:51:11.000Z</time>
        <extensions>
          <ns3:TrackPointExtension>
            <ns3:atemp>16.0</ns3:atemp>
          </ns3:TrackPointExtension>
        </extensions>
      </trkpt>
      <trkpt lat="42.60822166688740253448486328125" lon="19.88222099840641021728515625">
        <ele>2007.5999755859375</ele>
        <time>2026-06-16T10:51:12.000Z</time>
        <extensions>
          <ns3:TrackPointExtension>
            <ns3:atemp>16.0</ns3:atemp>
          </ns3:TrackPointExtension>
        </extensions>
      </trkpt>
      <trkpt lat="42.60823071934282779693603515625" lon="19.8822060786187648773193359375">
        <ele>2007</ele>
        <time>2026-06-16T10:51:13.000Z</time>
        <extensions>
          <ns3:TrackPointExtension>
            <ns3:atemp>16.0</ns3:atemp>
          </ns3:TrackPointExtension>
        </extensions>
      </trkpt>
      <trkpt lat="42.6082435436546802520751953125" lon="19.88218319602310657501220703125">
        <ele>2006.4000244140625</ele>
        <time>2026-06-16T10:51:14.000Z</time>
        <extensions>
          <ns3:TrackPointExtension>
            <ns3:atemp>16.0</ns3:atemp>
          </ns3:TrackPointExtension>
        </extensions>
      </trkpt>
      <trkpt lat="42.60825611650943756103515625" lon="19.88216760568320751190185546875">
        <ele>2005.5999755859375</ele>
        <time>2026-06-16T10:51:15.000Z</time>
        <extensions>
          <ns3:TrackPointExtension>
            <ns3:atemp>16.0</ns3:atemp>
          </ns3:TrackPointExtension>
        </extensions>
      </trkpt>
      <trkpt lat="42.608272545039653778076171875" lon="19.882160313427448272705078125">
        <ele>2005</ele>
        <time>2026-06-16T10:51:16.000Z</time>
        <extensions>
          <ns3:TrackPointExtension>
            <ns3:atemp>16.0</ns3:atemp>
          </ns3:TrackPointExtension>
        </extensions>
      </trkpt>
      <trkpt lat="42.6082916557788848876953125" lon="19.8821510933339595794677734375">
        <ele>2004</ele>
        <time>2026-06-16T10:51:17.000Z</time>
        <extensions>
          <ns3:TrackPointExtension>
            <ns3:atemp>16.0</ns3:atemp>
          </ns3:TrackPointExtension>
        </extensions>
      </trkpt>
      <trkpt lat="42.60830976068973541259765625" lon="19.88214111886918544769287109375">
        <ele>2003.199951171875</ele>
        <time>2026-06-16T10:51:18.000Z</time>
        <extensions>
          <ns3:TrackPointExtension>
            <ns3:atemp>16.0</ns3:atemp>
          </ns3:TrackPointExtension>
        </extensions>
      </trkpt>
      <trkpt lat="42.60832694359123706817626953125" lon="19.882121421396732330322265625">
        <ele>2002.4000244140625</ele>
        <time>2026-06-16T10:51:19.000Z</time>
        <extensions>
          <ns3:TrackPointExtension>
            <ns3:atemp>16.0</ns3:atemp>
          </ns3:TrackPointExtension>
        </extensions>
      </trkpt>
      <trkpt lat="42.6083454675972461700439453125" lon="19.88209493458271026611328125">
        <ele>2001.4000244140625</ele>
        <time>2026-06-16T10:51:20.000Z</time>
        <extensions>
          <ns3:TrackPointExtension>
            <ns3:atemp>16.0</ns3:atemp>
          </ns3:TrackPointExtension>
        </extensions>
      </trkpt>
      <trkpt lat="42.608361057937145233154296875" lon="19.88206417299807071685791015625">
        <ele>2000.4000244140625</ele>
        <time>2026-06-16T10:51:21.000Z</time>
        <extensions>
          <ns3:TrackPointExtension>
            <ns3:atemp>16.0</ns3:atemp>
          </ns3:TrackPointExtension>
        </extensions>
      </trkpt>
      <trkpt lat="42.60838762857019901275634765625" lon="19.8820327408611774444580078125">
        <ele>1999.4000244140625</ele>
        <time>2026-06-16T10:51:22.000Z</time>
        <extensions>
          <ns3:TrackPointExtension>
            <ns3:atemp>16.0</ns3:atemp>
          </ns3:TrackPointExtension>
        </extensions>
      </trkpt>
      <trkpt lat="42.6084152050316333770751953125" lon="19.88201924599707126617431640625">
        <ele>1998.199951171875</ele>
        <time>2026-06-16T10:51:23.000Z</time>
        <extensions>
          <ns3:TrackPointExtension>
            <ns3:atemp>16.0</ns3:atemp>
          </ns3:TrackPointExtension>
        </extensions>
      </trkpt>
      <trkpt lat="42.6084463857114315032958984375" lon="19.88200264982879161834716796875">
        <ele>1996.5999755859375</ele>
        <time>2026-06-16T10:51:24.000Z</time>
        <extensions>
          <ns3:TrackPointExtension>
            <ns3:atemp>16.0</ns3:atemp>
          </ns3:TrackPointExtension>
        </extensions>
      </trkpt>
      <trkpt lat="42.60847664438188076019287109375" lon="19.88197448663413524627685546875">
        <ele>1995.4000244140625</ele>
        <time>2026-06-16T10:51:25.000Z</time>
        <extensions>
          <ns3:TrackPointExtension>
            <ns3:atemp>16.0</ns3:atemp>
          </ns3:TrackPointExtension>
        </extensions>
      </trkpt>
      <trkpt lat="42.6084993593394756317138671875" lon="19.88194598816335201263427734375">
        <ele>1994.4000244140625</ele>
        <time>2026-06-16T10:51:26.000Z</time>
        <extensions>
          <ns3:TrackPointExtension>
            <ns3:atemp>16.0</ns3:atemp>
          </ns3:TrackPointExtension>
        </extensions>
      </trkpt>
      <trkpt lat="42.608538754284381866455078125" lon="19.88191983662545680999755859375">
        <ele>1993.199951171875</ele>
        <time>2026-06-16T10:51:27.000Z</time>
        <extensions>
          <ns3:TrackPointExtension>
            <ns3:atemp>16.0</ns3:atemp>
          </ns3:TrackPointExtension>
        </extensions>
      </trkpt>
      <trkpt lat="42.60859952308237552642822265625" lon="19.88187088631093502044677734375">
        <ele>1992</ele>
        <time>2026-06-16T10:51:28.000Z</time>
        <extensions>
          <ns3:TrackPointExtension>
            <ns3:atemp>16.0</ns3:atemp>
          </ns3:TrackPointExtension>
        </extensions>
      </trkpt>
      <trkpt lat="42.60864813812077045440673828125" lon="19.88179762847721576690673828125">
        <ele>1990.800048828125</ele>
        <time>2026-06-16T10:51:29.000Z</time>
        <extensions>
          <ns3:TrackPointExtension>
            <ns3:atemp>16.0</ns3:atemp>
          </ns3:TrackPointExtension>
        </extensions>
      </trkpt>
      <trkpt lat="42.60870781727135181427001953125" lon="19.88173007033765316009521484375">
        <ele>1989.199951171875</ele>
        <time>2026-06-16T10:51:30.000Z</time>
        <extensions>
          <ns3:TrackPointExtension>
            <ns3:atemp>16.0</ns3:atemp>
          </ns3:TrackPointExtension>
        </extensions>
      </trkpt>
      <trkpt lat="42.608764059841632843017578125" lon="19.8816713131964206695556640625">
        <ele>1987.199951171875</ele>
        <time>2026-06-16T10:51:31.000Z</time>
        <extensions>
          <ns3:TrackPointExtension>
            <ns3:atemp>16.0</ns3:atemp>
          </ns3:TrackPointExtension>
        </extensions>
      </trkpt>
      <trkpt lat="42.60881812311708927154541015625" lon="19.8816262185573577880859375">
        <ele>1986</ele>
        <time>2026-06-16T10:51:32.000Z</time>
        <extensions>
          <ns3:TrackPointExtension>
            <ns3:atemp>16.0</ns3:atemp>
          </ns3:TrackPointExtension>
        </extensions>
      </trkpt>
      <trkpt lat="42.60886841453611850738525390625" lon="19.88159336149692535400390625">
        <ele>1985.5999755859375</ele>
        <time>2026-06-16T10:51:33.000Z</time>
        <extensions>
          <ns3:TrackPointExtension>
            <ns3:atemp>16.0</ns3:atemp>
          </ns3:TrackPointExtension>
        </extensions>
      </trkpt>
      <trkpt lat="42.60891987942159175872802734375" lon="19.8815613426268100738525390625">
        <ele>1985.199951171875</ele>
        <time>2026-06-16T10:51:34.000Z</time>
        <extensions>
          <ns3:TrackPointExtension>
            <ns3:atemp>16.0</ns3:atemp>
          </ns3:TrackPointExtension>
        </extensions>
      </trkpt>
      <trkpt lat="42.60895793326199054718017578125" lon="19.88152974285185337066650390625">
        <ele>1984.5999755859375</ele>
        <time>2026-06-16T10:51:35.000Z</time>
        <extensions>
          <ns3:TrackPointExtension>
            <ns3:atemp>16.0</ns3:atemp>
          </ns3:TrackPointExtension>
        </extensions>
      </trkpt>
      <trkpt lat="42.6089932210743427276611328125" lon="19.8815066926181316375732421875">
        <ele>1984.4000244140625</ele>
        <time>2026-06-16T10:51:36.000Z</time>
        <extensions>
          <ns3:TrackPointExtension>
            <ns3:atemp>16.0</ns3:atemp>
          </ns3:TrackPointExtension>
        </extensions>
      </trkpt>
      <trkpt lat="42.60902565903961658477783203125" lon="19.8814875818789005279541015625">
        <ele>1984.199951171875</ele>
        <time>2026-06-16T10:51:37.000Z</time>
        <extensions>
          <ns3:TrackPointExtension>
            <ns3:atemp>16.0</ns3:atemp>
          </ns3:TrackPointExtension>
        </extensions>
      </trkpt>
      <trkpt lat="42.60904862545430660247802734375" lon="19.8814926110208034515380859375">
        <ele>1984</ele>
        <time>2026-06-16T10:51:38.000Z</time>
        <extensions>
          <ns3:TrackPointExtension>
            <ns3:atemp>16.0</ns3:atemp>
          </ns3:TrackPointExtension>
        </extensions>
      </trkpt>
      <trkpt lat="42.60906605981290340423583984375" lon="19.881486408412456512451171875">
        <ele>1984</ele>
        <time>2026-06-16T10:51:39.000Z</time>
        <extensions>
          <ns3:TrackPointExtension>
            <ns3:atemp>16.0</ns3:atemp>
          </ns3:TrackPointExtension>
        </extensions>
      </trkpt>
      <trkpt lat="42.609083913266658782958984375" lon="19.8814738355576992034912109375">
        <ele>1984.199951171875</ele>
        <time>2026-06-16T10:51:40.000Z</time>
        <extensions>
          <ns3:TrackPointExtension>
            <ns3:atemp>16.0</ns3:atemp>
          </ns3:TrackPointExtension>
        </extensions>
      </trkpt>
      <trkpt lat="42.6091052033007144927978515625" lon="19.88146553747355937957763671875">
        <ele>1984.199951171875</ele>
        <time>2026-06-16T10:51:41.000Z</time>
        <extensions>
          <ns3:TrackPointExtension>
            <ns3:atemp>16.0</ns3:atemp>
          </ns3:TrackPointExtension>
        </extensions>
      </trkpt>
      <trkpt lat="42.60912573896348476409912109375" lon="19.8814530484378337860107421875">
        <ele>1984.199951171875</ele>
        <time>2026-06-16T10:51:42.000Z</time>
        <extensions>
          <ns3:TrackPointExtension>
            <ns3:atemp>16.0</ns3:atemp>
          </ns3:TrackPointExtension>
        </extensions>
      </trkpt>
      <trkpt lat="42.60914853774011135101318359375" lon="19.8814416490495204925537109375">
        <ele>1984.199951171875</ele>
        <time>2026-06-16T10:51:43.000Z</time>
        <extensions>
          <ns3:TrackPointExtension>
            <ns3:atemp>16.0</ns3:atemp>
          </ns3:TrackPointExtension>
        </extensions>
      </trkpt>
      <trkpt lat="42.609177120029926300048828125" lon="19.8814295791089534759521484375">
        <ele>1984</ele>
        <time>2026-06-16T10:51:44.000Z</time>
        <extensions>
          <ns3:TrackPointExtension>
            <ns3:atemp>16.0</ns3:atemp>
          </ns3:TrackPointExtension>
        </extensions>
      </trkpt>
      <trkpt lat="42.60921207256615161895751953125" lon="19.8814215324819087982177734375">
        <ele>1984</ele>
        <time>2026-06-16T10:51:45.000Z</time>
        <extensions>
          <ns3:TrackPointExtension>
            <ns3:atemp>16.0</ns3:atemp>
          </ns3:TrackPointExtension>
        </extensions>
      </trkpt>
      <trkpt lat="42.6092490367591381072998046875" lon="19.8814116418361663818359375">
        <ele>1983.800048828125</ele>
        <time>2026-06-16T10:51:46.000Z</time>
        <extensions>
          <ns3:TrackPointExtension>
            <ns3:atemp>16.0</ns3:atemp>
          </ns3:TrackPointExtension>
        </extensions>
      </trkpt>
      <trkpt lat="42.60928432457149028778076171875" lon="19.88140024244785308837890625">
        <ele>1983.800048828125</ele>
        <time>2026-06-16T10:51:47.000Z</time>
        <extensions>
          <ns3:TrackPointExtension>
            <ns3:atemp>16.0</ns3:atemp>
          </ns3:TrackPointExtension>
        </extensions>
      </trkpt>
      <trkpt lat="42.60931902565062046051025390625" lon="19.881391860544681549072265625">
        <ele>1983.5999755859375</ele>
        <time>2026-06-16T10:51:48.000Z</time>
        <extensions>
          <ns3:TrackPointExtension>
            <ns3:atemp>16.0</ns3:atemp>
          </ns3:TrackPointExtension>
        </extensions>
      </trkpt>
      <trkpt lat="42.60935003869235515594482421875" lon="19.8813953809440135955810546875">
        <ele>1983.4000244140625</ele>
        <time>2026-06-16T10:51:49.000Z</time>
        <extensions>
          <ns3:TrackPointExtension>
            <ns3:atemp>16.0</ns3:atemp>
          </ns3:TrackPointExtension>
        </extensions>
      </trkpt>
      <trkpt lat="42.6093804650008678436279296875" lon="19.881393872201442718505859375">
        <ele>1983.4000244140625</ele>
        <time>2026-06-16T10:51:50.000Z</time>
        <extensions>
          <ns3:TrackPointExtension>
            <ns3:atemp>16.0</ns3:atemp>
          </ns3:TrackPointExtension>
        </extensions>
      </trkpt>
      <trkpt lat="42.6094076223671436309814453125" lon="19.88139697350561618804931640625">
        <ele>1983.199951171875</ele>
        <time>2026-06-16T10:51:51.000Z</time>
        <extensions>
          <ns3:TrackPointExtension>
            <ns3:atemp>16.0</ns3:atemp>
          </ns3:TrackPointExtension>
        </extensions>
      </trkpt>
      <trkpt lat="42.60942832566797733306884765625" lon="19.88141206093132495880126953125">
        <ele>1983</ele>
        <time>2026-06-16T10:51:52.000Z</time>
        <extensions>
          <ns3:TrackPointExtension>
            <ns3:atemp>16.0</ns3:atemp>
          </ns3:TrackPointExtension>
        </extensions>
      </trkpt>
      <trkpt lat="42.60944995097815990447998046875" lon="19.88142061047255992889404296875">
        <ele>1983</ele>
        <time>2026-06-16T10:51:53.000Z</time>
        <extensions>
          <ns3:TrackPointExtension>
            <ns3:atemp>16.0</ns3:atemp>
          </ns3:TrackPointExtension>
        </extensions>
      </trkpt>
      <trkpt lat="42.60946922935545444488525390625" lon="19.8814319260418415069580078125">
        <ele>1983</ele>
        <time>2026-06-16T10:51:54.000Z</time>
        <extensions>
          <ns3:TrackPointExtension>
            <ns3:atemp>16.0</ns3:atemp>
          </ns3:TrackPointExtension>
        </extensions>
      </trkpt>
      <trkpt lat="42.60948917828500270843505859375" lon="19.8814406432211399078369140625">
        <ele>1982.800048828125</ele>
        <time>2026-06-16T10:51:55.000Z</time>
        <extensions>
          <ns3:TrackPointExtension>
            <ns3:atemp>16.0</ns3:atemp>
          </ns3:TrackPointExtension>
        </extensions>
      </trkpt>
      <trkpt lat="42.60951147414743900299072265625" lon="19.88144223578274250030517578125">
        <ele>1982.800048828125</ele>
        <time>2026-06-16T10:51:56.000Z</time>
        <extensions>
          <ns3:TrackPointExtension>
            <ns3:atemp>16.0</ns3:atemp>
          </ns3:TrackPointExtension>
        </extensions>
      </trkpt>
      <trkpt lat="42.6095420680940151214599609375" lon="19.88145028240978717803955078125">
        <ele>1982.5999755859375</ele>
        <time>2026-06-16T10:51:57.000Z</time>
        <extensions>
          <ns3:TrackPointExtension>
            <ns3:atemp>16.0</ns3:atemp>
          </ns3:TrackPointExtension>
        </extensions>
      </trkpt>
      <trkpt lat="42.60957115329802036285400390625" lon="19.88145631738007068634033203125">
        <ele>1982.4000244140625</ele>
        <time>2026-06-16T10:51:58.000Z</time>
        <extensions>
          <ns3:TrackPointExtension>
            <ns3:atemp>16.0</ns3:atemp>
          </ns3:TrackPointExtension>
        </extensions>
      </trkpt>
      <trkpt lat="42.60959864594042301177978515625" lon="19.88146000541746616363525390625">
        <ele>1982.199951171875</ele>
        <time>2026-06-16T10:51:59.000Z</time>
        <extensions>
          <ns3:TrackPointExtension>
            <ns3:atemp>16.0</ns3:atemp>
          </ns3:TrackPointExtension>
        </extensions>
      </trkpt>
      <trkpt lat="42.60963250882923603057861328125" lon="19.8814728297293186187744140625">
        <ele>1982</ele>
        <time>2026-06-16T10:52:00.000Z</time>
        <extensions>
          <ns3:TrackPointExtension>
            <ns3:atemp>16.0</ns3:atemp>
          </ns3:TrackPointExtension>
        </extensions>
      </trkpt>
      <trkpt lat="42.60966352187097072601318359375" lon="19.88148632459342479705810546875">
        <ele>1981.800048828125</ele>
        <time>2026-06-16T10:52:01.000Z</time>
        <extensions>
          <ns3:TrackPointExtension>
            <ns3:atemp>16.0</ns3:atemp>
          </ns3:TrackPointExtension>
        </extensions>
      </trkpt>
      <trkpt lat="42.60969788767397403717041015625" lon="19.881495125591754913330078125">
        <ele>1981.4000244140625</ele>
        <time>2026-06-16T10:52:02.000Z</time>
        <extensions>
          <ns3:TrackPointExtension>
            <ns3:atemp>16.0</ns3:atemp>
          </ns3:TrackPointExtension>
        </extensions>
      </trkpt>
      <trkpt lat="42.609726972877979278564453125" lon="19.88150082528591156005859375">
        <ele>1981.199951171875</ele>
        <time>2026-06-16T10:52:03.000Z</time>
        <extensions>
          <ns3:TrackPointExtension>
            <ns3:atemp>16.0</ns3:atemp>
          </ns3:TrackPointExtension>
        </extensions>
      </trkpt>
      <trkpt lat="42.6097509451210498809814453125" lon="19.88149638287723064422607421875">
        <ele>1981</ele>
        <time>2026-06-16T10:52:04.000Z</time>
        <extensions>
          <ns3:TrackPointExtension>
            <ns3:atemp>16.0</ns3:atemp>
          </ns3:TrackPointExtension>
        </extensions>
      </trkpt>
      <trkpt lat="42.6097854785621166229248046875" lon="19.8814869113266468048095703125">
        <ele>1980.5999755859375</ele>
        <time>2026-06-16T10:52:05.000Z</time>
        <extensions>
          <ns3:TrackPointExtension>
            <ns3:atemp>16.0</ns3:atemp>
          </ns3:TrackPointExtension>
        </extensions>
      </trkpt>
      <trkpt lat="42.60982160456478595733642578125" lon="19.8814869113266468048095703125">
        <ele>1980.199951171875</ele>
        <time>2026-06-16T10:52:06.000Z</time>
        <extensions>
          <ns3:TrackPointExtension>
            <ns3:atemp>16.0</ns3:atemp>
          </ns3:TrackPointExtension>
        </extensions>
      </trkpt>
      <trkpt lat="42.60985965840518474578857421875" lon="19.88149202428758144378662109375">
        <ele>1979.5999755859375</ele>
        <time>2026-06-16T10:52:07.000Z</time>
        <extensions>
          <ns3:TrackPointExtension>
            <ns3:atemp>16.0</ns3:atemp>
          </ns3:TrackPointExtension>
        </extensions>
      </trkpt>
      <trkpt lat="42.6098907552659511566162109375" lon="19.88149906508624553680419921875">
        <ele>1979.199951171875</ele>
        <time>2026-06-16T10:52:08.000Z</time>
        <extensions>
          <ns3:TrackPointExtension>
            <ns3:atemp>16.0</ns3:atemp>
          </ns3:TrackPointExtension>
        </extensions>
      </trkpt>
      <trkpt lat="42.60991296730935573577880859375" lon="19.8814989812672138214111328125">
        <ele>1978.5999755859375</ele>
        <time>2026-06-16T10:52:09.000Z</time>
        <extensions>
          <ns3:TrackPointExtension>
            <ns3:atemp>16.0</ns3:atemp>
          </ns3:TrackPointExtension>
        </extensions>
      </trkpt>
      <trkpt lat="42.60993107222020626068115234375" lon="19.8815006576478481292724609375">
        <ele>1978.199951171875</ele>
        <time>2026-06-16T10:52:10.000Z</time>
        <extensions>
          <ns3:TrackPointExtension>
            <ns3:atemp>16.0</ns3:atemp>
          </ns3:TrackPointExtension>
        </extensions>
      </trkpt>
      <trkpt lat="42.60994683019816875457763671875" lon="19.881501831114292144775390625">
        <ele>1977.5999755859375</ele>
        <time>2026-06-16T10:52:11.000Z</time>
        <extensions>
          <ns3:TrackPointExtension>
            <ns3:atemp>16.0</ns3:atemp>
          </ns3:TrackPointExtension>
        </extensions>
      </trkpt>
      <trkpt lat="42.60995806194841861724853515625" lon="19.88149470649659633636474609375">
        <ele>1977.4000244140625</ele>
        <time>2026-06-16T10:52:12.000Z</time>
        <extensions>
          <ns3:TrackPointExtension>
            <ns3:atemp>16.0</ns3:atemp>
          </ns3:TrackPointExtension>
        </extensions>
      </trkpt>
      <trkpt lat="42.60997298173606395721435546875" lon="19.88148917444050312042236328125">
        <ele>1977</ele>
        <time>2026-06-16T10:52:13.000Z</time>
        <extensions>
          <ns3:TrackPointExtension>
            <ns3:atemp>16.0</ns3:atemp>
          </ns3:TrackPointExtension>
        </extensions>
      </trkpt>
      <trkpt lat="42.60998488403856754302978515625" lon="19.8814718239009380340576171875">
        <ele>1976.4000244140625</ele>
        <time>2026-06-16T10:52:14.000Z</time>
        <extensions>
          <ns3:TrackPointExtension>
            <ns3:atemp>16.0</ns3:atemp>
          </ns3:TrackPointExtension>
        </extensions>
      </trkpt>
      <trkpt lat="42.6100003905594348907470703125" lon="19.8814537189900875091552734375">
        <ele>1976</ele>
        <time>2026-06-16T10:52:15.000Z</time>
        <extensions>
          <ns3:TrackPointExtension>
            <ns3:atemp>16.0</ns3:atemp>
          </ns3:TrackPointExtension>
        </extensions>
      </trkpt>
      <trkpt lat="42.61001841165125370025634765625" lon="19.881436787545680999755859375">
        <ele>1975.4000244140625</ele>
        <time>2026-06-16T10:52:16.000Z</time>
        <extensions>
          <ns3:TrackPointExtension>
            <ns3:atemp>16.0</ns3:atemp>
          </ns3:TrackPointExtension>
        </extensions>
      </trkpt>
      <trkpt lat="42.61003467254340648651123046875" lon="19.88141088746488094329833984375">
        <ele>1974.5999755859375</ele>
        <time>2026-06-16T10:52:17.000Z</time>
        <extensions>
          <ns3:TrackPointExtension>
            <ns3:atemp>16.0</ns3:atemp>
          </ns3:TrackPointExtension>
        </extensions>
      </trkpt>
      <trkpt lat="42.61004037223756313323974609375" lon="19.8813953809440135955810546875">
        <ele>1974.199951171875</ele>
        <time>2026-06-16T10:52:18.000Z</time>
        <extensions>
          <ns3:TrackPointExtension>
            <ns3:atemp>16.0</ns3:atemp>
          </ns3:TrackPointExtension>
        </extensions>
      </trkpt>
      <trkpt lat="42.61004288680851459503173828125" lon="19.881393201649188995361328125">
        <ele>1973.5999755859375</ele>
        <time>2026-06-16T10:52:19.000Z</time>
        <extensions>
          <ns3:TrackPointExtension>
            <ns3:atemp>16.0</ns3:atemp>
          </ns3:TrackPointExtension>
        </extensions>
      </trkpt>
      <trkpt lat="42.6100431382656097412109375" lon="19.8813933692872524261474609375">
        <ele>1973.199951171875</ele>
        <time>2026-06-16T10:52:20.000Z</time>
        <extensions>
          <ns3:TrackPointExtension>
            <ns3:atemp>16.0</ns3:atemp>
          </ns3:TrackPointExtension>
        </extensions>
      </trkpt>
      <trkpt lat="42.6100431382656097412109375" lon="19.8813933692872524261474609375">
        <ele>1973</ele>
        <time>2026-06-16T10:52:21.000Z</time>
        <extensions>
          <ns3:TrackPointExtension>
            <ns3:atemp>16.0</ns3:atemp>
          </ns3:TrackPointExtension>
        </extensions>
      </trkpt>
      <trkpt lat="42.6100431382656097412109375" lon="19.8813933692872524261474609375">
        <ele>1972.800048828125</ele>
        <time>2026-06-16T10:52:22.000Z</time>
        <extensions>
          <ns3:TrackPointExtension>
            <ns3:atemp>16.0</ns3:atemp>
          </ns3:TrackPointExtension>
        </extensions>
      </trkpt>
      <trkpt lat="42.6100431382656097412109375" lon="19.8813933692872524261474609375">
        <ele>1972.5999755859375</ele>
        <time>2026-06-16T10:52:23.000Z</time>
        <extensions>
          <ns3:TrackPointExtension>
            <ns3:atemp>16.0</ns3:atemp>
          </ns3:TrackPointExtension>
        </extensions>
      </trkpt>
      <trkpt lat="42.6100431382656097412109375" lon="19.8813933692872524261474609375">
        <ele>1972.4000244140625</ele>
        <time>2026-06-16T10:52:24.000Z</time>
        <extensions>
          <ns3:TrackPointExtension>
            <ns3:atemp>16.0</ns3:atemp>
          </ns3:TrackPointExtension>
        </extensions>
      </trkpt>
      <trkpt lat="42.6100431382656097412109375" lon="19.8813933692872524261474609375">
        <ele>1972.4000244140625</ele>
        <time>2026-06-16T10:52:25.000Z</time>
        <extensions>
          <ns3:TrackPointExtension>
            <ns3:atemp>16.0</ns3:atemp>
          </ns3:TrackPointExtension>
        </extensions>
      </trkpt>
      <trkpt lat="42.6100431382656097412109375" lon="19.8813933692872524261474609375">
        <ele>1972.199951171875</ele>
        <time>2026-06-16T10:52:26.000Z</time>
        <extensions>
          <ns3:TrackPointExtension>
            <ns3:atemp>16.0</ns3:atemp>
          </ns3:TrackPointExtension>
        </extensions>
      </trkpt>
      <trkpt lat="42.6100431382656097412109375" lon="19.8813933692872524261474609375">
        <ele>1972.199951171875</ele>
        <time>2026-06-16T10:52:27.000Z</time>
        <extensions>
          <ns3:TrackPointExtension>
            <ns3:atemp>16.0</ns3:atemp>
          </ns3:TrackPointExtension>
        </extensions>
      </trkpt>
      <trkpt lat="42.6100431382656097412109375" lon="19.8813933692872524261474609375">
        <ele>1972.199951171875</ele>
        <time>2026-06-16T10:52:28.000Z</time>
        <extensions>
          <ns3:TrackPointExtension>
            <ns3:atemp>16.0</ns3:atemp>
          </ns3:TrackPointExtension>
        </extensions>
      </trkpt>
      <trkpt lat="42.6100431382656097412109375" lon="19.8813933692872524261474609375">
        <ele>1972.199951171875</ele>
        <time>2026-06-16T10:52:29.000Z</time>
        <extensions>
          <ns3:TrackPointExtension>
            <ns3:atemp>16.0</ns3:atemp>
          </ns3:TrackPointExtension>
        </extensions>
      </trkpt>
      <trkpt lat="42.6100431382656097412109375" lon="19.8813933692872524261474609375">
        <ele>1972.199951171875</ele>
        <time>2026-06-16T10:52:30.000Z</time>
        <extensions>
          <ns3:TrackPointExtension>
            <ns3:atemp>16.0</ns3:atemp>
          </ns3:TrackPointExtension>
        </extensions>
      </trkpt>
      <trkpt lat="42.6100431382656097412109375" lon="19.8813933692872524261474609375">
        <ele>1972.199951171875</ele>
        <time>2026-06-16T10:52:31.000Z</time>
        <extensions>
          <ns3:TrackPointExtension>
            <ns3:atemp>16.0</ns3:atemp>
          </ns3:TrackPointExtension>
        </extensions>
      </trkpt>
      <trkpt lat="42.6100431382656097412109375" lon="19.8813933692872524261474609375">
        <ele>1972.199951171875</ele>
        <time>2026-06-16T10:52:32.000Z</time>
        <extensions>
          <ns3:TrackPointExtension>
            <ns3:atemp>16.0</ns3:atemp>
          </ns3:TrackPointExtension>
        </extensions>
      </trkpt>
      <trkpt lat="42.6100429706275463104248046875" lon="19.88139353692531585693359375">
        <ele>1972.199951171875</ele>
        <time>2026-06-16T10:52:33.000Z</time>
        <extensions>
          <ns3:TrackPointExtension>
            <ns3:atemp>16.0</ns3:atemp>
          </ns3:TrackPointExtension>
        </extensions>
      </trkpt>
      <trkpt lat="42.61004908941686153411865234375" lon="19.881383143365383148193359375">
        <ele>1972.199951171875</ele>
        <time>2026-06-16T10:52:34.000Z</time>
        <extensions>
          <ns3:TrackPointExtension>
            <ns3:atemp>16.0</ns3:atemp>
          </ns3:TrackPointExtension>
        </extensions>
      </trkpt>
      <trkpt lat="42.610054202377796173095703125" lon="19.8813675530254840850830078125">
        <ele>1972.199951171875</ele>
        <time>2026-06-16T10:52:35.000Z</time>
        <extensions>
          <ns3:TrackPointExtension>
            <ns3:atemp>16.0</ns3:atemp>
          </ns3:TrackPointExtension>
        </extensions>
      </trkpt>
      <trkpt lat="42.61006400920450687408447265625" lon="19.8813430778682231903076171875">
        <ele>1972</ele>
        <time>2026-06-16T10:52:36.000Z</time>
        <extensions>
          <ns3:TrackPointExtension>
            <ns3:atemp>16.0</ns3:atemp>
          </ns3:TrackPointExtension>
        </extensions>
      </trkpt>
      <trkpt lat="42.61007540859282016754150390625" lon="19.88132203929126262664794921875">
        <ele>1971.5999755859375</ele>
        <time>2026-06-16T10:52:37.000Z</time>
        <extensions>
          <ns3:TrackPointExtension>
            <ns3:atemp>16.0</ns3:atemp>
          </ns3:TrackPointExtension>
        </extensions>
      </trkpt>
      <trkpt lat="42.6100780069828033447265625" lon="19.88129555247724056243896484375">
        <ele>1971.199951171875</ele>
        <time>2026-06-16T10:52:38.000Z</time>
        <extensions>
          <ns3:TrackPointExtension>
            <ns3:atemp>16.0</ns3:atemp>
          </ns3:TrackPointExtension>
        </extensions>
      </trkpt>
      <trkpt lat="42.6100858859717845916748046875" lon="19.8812641203403472900390625">
        <ele>1970.800048828125</ele>
        <time>2026-06-16T10:52:39.000Z</time>
        <extensions>
          <ns3:TrackPointExtension>
            <ns3:atemp>16.0</ns3:atemp>
          </ns3:TrackPointExtension>
        </extensions>
      </trkpt>
      <trkpt lat="42.61009653098881244659423828125" lon="19.88124065101146697998046875">
        <ele>1970.199951171875</ele>
        <time>2026-06-16T10:52:40.000Z</time>
        <extensions>
          <ns3:TrackPointExtension>
            <ns3:atemp>16.0</ns3:atemp>
          </ns3:TrackPointExtension>
        </extensions>
      </trkpt>
      <trkpt lat="42.610116899013519287109375" lon="19.88122078590095043182373046875">
        <ele>1969.800048828125</ele>
        <time>2026-06-16T10:52:41.000Z</time>
        <extensions>
          <ns3:TrackPointExtension>
            <ns3:atemp>16.0</ns3:atemp>
          </ns3:TrackPointExtension>
        </extensions>
      </trkpt>
      <trkpt lat="42.61013911105692386627197265625" lon="19.8812019266188144683837890625">
        <ele>1969.199951171875</ele>
        <time>2026-06-16T10:52:42.000Z</time>
        <extensions>
          <ns3:TrackPointExtension>
            <ns3:atemp>16.0</ns3:atemp>
          </ns3:TrackPointExtension>
        </extensions>
      </trkpt>
      <trkpt lat="42.61016056872904300689697265625" lon="19.8811995796859264373779296875">
        <ele>1968.5999755859375</ele>
        <time>2026-06-16T10:52:43.000Z</time>
        <extensions>
          <ns3:TrackPointExtension>
            <ns3:atemp>16.0</ns3:atemp>
          </ns3:TrackPointExtension>
        </extensions>
      </trkpt>
      <trkpt lat="42.6101826131343841552734375" lon="19.88120234571397304534912109375">
        <ele>1968</ele>
        <time>2026-06-16T10:52:44.000Z</time>
        <extensions>
          <ns3:TrackPointExtension>
            <ns3:atemp>16.0</ns3:atemp>
          </ns3:TrackPointExtension>
        </extensions>
      </trkpt>
      <trkpt lat="42.61020532809197902679443359375" lon="19.8812123201787471771240234375">
        <ele>1967.199951171875</ele>
        <time>2026-06-16T10:52:45.000Z</time>
        <extensions>
          <ns3:TrackPointExtension>
            <ns3:atemp>16.0</ns3:atemp>
          </ns3:TrackPointExtension>
        </extensions>
      </trkpt>
      <trkpt lat="42.6102255284786224365234375" lon="19.8812341131269931793212890625">
        <ele>1966.4000244140625</ele>
        <time>2026-06-16T10:52:46.000Z</time>
        <extensions>
          <ns3:TrackPointExtension>
            <ns3:atemp>16.0</ns3:atemp>
          </ns3:TrackPointExtension>
        </extensions>
      </trkpt>
      <trkpt lat="42.61024941690266132354736328125" lon="19.88126453943550586700439453125">
        <ele>1965.800048828125</ele>
        <time>2026-06-16T10:52:47.000Z</time>
        <extensions>
          <ns3:TrackPointExtension>
            <ns3:atemp>16.0</ns3:atemp>
          </ns3:TrackPointExtension>
        </extensions>
      </trkpt>
      <trkpt lat="42.61028545908629894256591796875" lon="19.88128297962248325347900390625">
        <ele>1964.800048828125</ele>
        <time>2026-06-16T10:52:48.000Z</time>
        <extensions>
          <ns3:TrackPointExtension>
            <ns3:atemp>16.0</ns3:atemp>
          </ns3:TrackPointExtension>
        </extensions>
      </trkpt>
      <trkpt lat="42.6103373430669307708740234375" lon="19.8813045211136341094970703125">
        <ele>1963.800048828125</ele>
        <time>2026-06-16T10:52:49.000Z</time>
        <extensions>
          <ns3:TrackPointExtension>
            <ns3:atemp>16.0</ns3:atemp>
          </ns3:TrackPointExtension>
        </extensions>
      </trkpt>
      <trkpt lat="42.61039408855140209197998046875" lon="19.8813199438154697418212890625">
        <ele>1962.4000244140625</ele>
        <time>2026-06-16T10:52:50.000Z</time>
        <extensions>
          <ns3:TrackPointExtension>
            <ns3:atemp>16.0</ns3:atemp>
          </ns3:TrackPointExtension>
        </extensions>
      </trkpt>
      <trkpt lat="42.61044722981750965118408203125" lon="19.88133176229894161224365234375">
        <ele>1961.4000244140625</ele>
        <time>2026-06-16T10:52:51.000Z</time>
        <extensions>
          <ns3:TrackPointExtension>
            <ns3:atemp>16.0</ns3:atemp>
          </ns3:TrackPointExtension>
        </extensions>
      </trkpt>
      <trkpt lat="42.61050112545490264892578125" lon="19.88135087303817272186279296875">
        <ele>1960.199951171875</ele>
        <time>2026-06-16T10:52:52.000Z</time>
        <extensions>
          <ns3:TrackPointExtension>
            <ns3:atemp>16.0</ns3:atemp>
          </ns3:TrackPointExtension>
        </extensions>
      </trkpt>
      <trkpt lat="42.61054194532334804534912109375" lon="19.88137987442314624786376953125">
        <ele>1959</ele>
        <time>2026-06-16T10:52:53.000Z</time>
        <extensions>
          <ns3:TrackPointExtension>
            <ns3:atemp>16.0</ns3:atemp>
          </ns3:TrackPointExtension>
        </extensions>
      </trkpt>
      <trkpt lat="42.610575221478939056396484375" lon="19.881403259932994842529296875">
        <ele>1958.199951171875</ele>
        <time>2026-06-16T10:52:54.000Z</time>
        <extensions>
          <ns3:TrackPointExtension>
            <ns3:atemp>16.0</ns3:atemp>
          </ns3:TrackPointExtension>
        </extensions>
      </trkpt>
      <trkpt lat="42.6106132753193378448486328125" lon="19.8814175091683864593505859375">
        <ele>1957.4000244140625</ele>
        <time>2026-06-16T10:52:55.000Z</time>
        <extensions>
          <ns3:TrackPointExtension>
            <ns3:atemp>16.0</ns3:atemp>
          </ns3:TrackPointExtension>
        </extensions>
      </trkpt>
      <trkpt lat="42.6106519997119903564453125" lon="19.88144340924918651580810546875">
        <ele>1956.4000244140625</ele>
        <time>2026-06-16T10:52:56.000Z</time>
        <extensions>
          <ns3:TrackPointExtension>
            <ns3:atemp>16.0</ns3:atemp>
          </ns3:TrackPointExtension>
        </extensions>
      </trkpt>
      <trkpt lat="42.61069013737142086029052734375" lon="19.881464950740337371826171875">
        <ele>1955.4000244140625</ele>
        <time>2026-06-16T10:52:57.000Z</time>
        <extensions>
          <ns3:TrackPointExtension>
            <ns3:atemp>16.0</ns3:atemp>
          </ns3:TrackPointExtension>
        </extensions>
      </trkpt>
      <trkpt lat="42.61073221452534198760986328125" lon="19.881473667919635772705078125">
        <ele>1954.199951171875</ele>
        <time>2026-06-16T10:52:58.000Z</time>
        <extensions>
          <ns3:TrackPointExtension>
            <ns3:atemp>16.0</ns3:atemp>
          </ns3:TrackPointExtension>
        </extensions>
      </trkpt>
      <trkpt lat="42.6107829250395298004150390625" lon="19.8814855702221393585205078125">
        <ele>1953.199951171875</ele>
        <time>2026-06-16T10:52:59.000Z</time>
        <extensions>
          <ns3:TrackPointExtension>
            <ns3:atemp>16.0</ns3:atemp>
          </ns3:TrackPointExtension>
        </extensions>
      </trkpt>
      <trkpt lat="42.61084436438977718353271484375" lon="19.88150375895202159881591796875">
        <ele>1951.800048828125</ele>
        <time>2026-06-16T10:53:00.000Z</time>
        <extensions>
          <ns3:TrackPointExtension>
            <ns3:atemp>16.0</ns3:atemp>
          </ns3:TrackPointExtension>
        </extensions>
      </trkpt>
      <trkpt lat="42.610916197299957275390625" lon="19.881497807800769805908203125">
        <ele>1950.4000244140625</ele>
        <time>2026-06-16T10:53:01.000Z</time>
        <extensions>
          <ns3:TrackPointExtension>
            <ns3:atemp>16.0</ns3:atemp>
          </ns3:TrackPointExtension>
        </extensions>
      </trkpt>
      <trkpt lat="42.61099473573267459869384765625" lon="19.8814921081066131591796875">
        <ele>1949.4000244140625</ele>
        <time>2026-06-16T10:53:02.000Z</time>
        <extensions>
          <ns3:TrackPointExtension>
            <ns3:atemp>16.0</ns3:atemp>
          </ns3:TrackPointExtension>
        </extensions>
      </trkpt>
      <trkpt lat="42.61107285507023334503173828125" lon="19.8814932815730571746826171875">
        <ele>1948.199951171875</ele>
        <time>2026-06-16T10:53:03.000Z</time>
        <extensions>
          <ns3:TrackPointExtension>
            <ns3:atemp>16.0</ns3:atemp>
          </ns3:TrackPointExtension>
        </extensions>
      </trkpt>
      <trkpt lat="42.61112968437373638153076171875" lon="19.88148330710828304290771484375">
        <ele>1946.5999755859375</ele>
        <time>2026-06-16T10:53:04.000Z</time>
        <extensions>
          <ns3:TrackPointExtension>
            <ns3:atemp>16.0</ns3:atemp>
          </ns3:TrackPointExtension>
        </extensions>
      </trkpt>
      <trkpt lat="42.61116522364318370819091796875" lon="19.881442822515964508056640625">
        <ele>1945.5999755859375</ele>
        <time>2026-06-16T10:53:05.000Z</time>
        <extensions>
          <ns3:TrackPointExtension>
            <ns3:atemp>16.0</ns3:atemp>
          </ns3:TrackPointExtension>
        </extensions>
      </trkpt>
      <trkpt lat="42.6111830770969390869140625" lon="19.88140418194234371185302734375">
        <ele>1945</ele>
        <time>2026-06-16T10:53:06.000Z</time>
        <extensions>
          <ns3:TrackPointExtension>
            <ns3:atemp>16.0</ns3:atemp>
          </ns3:TrackPointExtension>
        </extensions>
      </trkpt>
      <trkpt lat="42.61120042763650417327880859375" lon="19.88137182779610157012939453125">
        <ele>1944.800048828125</ele>
        <time>2026-06-16T10:53:07.000Z</time>
        <extensions>
          <ns3:TrackPointExtension>
            <ns3:atemp>16.0</ns3:atemp>
          </ns3:TrackPointExtension>
        </extensions>
      </trkpt>
      <trkpt lat="42.61121702380478382110595703125" lon="19.88135590218007564544677734375">
        <ele>1944.5999755859375</ele>
        <time>2026-06-16T10:53:08.000Z</time>
        <extensions>
          <ns3:TrackPointExtension>
            <ns3:atemp>16.0</ns3:atemp>
          </ns3:TrackPointExtension>
        </extensions>
      </trkpt>
      <trkpt lat="42.6112315244972705841064453125" lon="19.88134031184017658233642578125">
        <ele>1944.4000244140625</ele>
        <time>2026-06-16T10:53:09.000Z</time>
        <extensions>
          <ns3:TrackPointExtension>
            <ns3:atemp>16.0</ns3:atemp>
          </ns3:TrackPointExtension>
        </extensions>
      </trkpt>
      <trkpt lat="42.61124300770461559295654296875" lon="19.88133293576538562774658203125">
        <ele>1944.5999755859375</ele>
        <time>2026-06-16T10:53:10.000Z</time>
        <extensions>
          <ns3:TrackPointExtension>
            <ns3:atemp>16.0</ns3:atemp>
          </ns3:TrackPointExtension>
        </extensions>
      </trkpt>
      <trkpt lat="42.6112516410648822784423828125" lon="19.88131977617740631103515625">
        <ele>1944.5999755859375</ele>
        <time>2026-06-16T10:53:11.000Z</time>
        <extensions>
          <ns3:TrackPointExtension>
            <ns3:atemp>16.0</ns3:atemp>
          </ns3:TrackPointExtension>
        </extensions>
      </trkpt>
      <trkpt lat="42.61126312427222728729248046875" lon="19.881310053169727325439453125">
        <ele>1944.800048828125</ele>
        <time>2026-06-16T10:53:12.000Z</time>
        <extensions>
          <ns3:TrackPointExtension>
            <ns3:atemp>16.0</ns3:atemp>
          </ns3:TrackPointExtension>
        </extensions>
      </trkpt>
      <trkpt lat="42.6112774573266506195068359375" lon="19.88130510784685611724853515625">
        <ele>1944.800048828125</ele>
        <time>2026-06-16T10:53:13.000Z</time>
        <extensions>
          <ns3:TrackPointExtension>
            <ns3:atemp>16.0</ns3:atemp>
          </ns3:TrackPointExtension>
        </extensions>
      </trkpt>
      <trkpt lat="42.6112875156104564666748046875" lon="19.88130963407456874847412109375">
        <ele>1945</ele>
        <time>2026-06-16T10:53:14.000Z</time>
        <extensions>
          <ns3:TrackPointExtension>
            <ns3:atemp>16.0</ns3:atemp>
          </ns3:TrackPointExtension>
        </extensions>
      </trkpt>
      <trkpt lat="42.611295394599437713623046875" lon="19.88131181336939334869384765625">
        <ele>1945</ele>
        <time>2026-06-16T10:53:15.000Z</time>
        <extensions>
          <ns3:TrackPointExtension>
            <ns3:atemp>16.0</ns3:atemp>
          </ns3:TrackPointExtension>
        </extensions>
      </trkpt>
      <trkpt lat="42.611298076808452606201171875" lon="19.88131214864552021026611328125">
        <ele>1945</ele>
        <time>2026-06-16T10:53:16.000Z</time>
        <extensions>
          <ns3:TrackPointExtension>
            <ns3:atemp>16.0</ns3:atemp>
          </ns3:TrackPointExtension>
        </extensions>
      </trkpt>
      <trkpt lat="42.61129799298942089080810546875" lon="19.881312064826488494873046875">
        <ele>1945</ele>
        <time>2026-06-16T10:53:17.000Z</time>
        <extensions>
          <ns3:TrackPointExtension>
            <ns3:atemp>16.0</ns3:atemp>
          </ns3:TrackPointExtension>
        </extensions>
      </trkpt>
      <trkpt lat="42.61129799298942089080810546875" lon="19.881312064826488494873046875">
        <ele>1945</ele>
        <time>2026-06-16T10:53:18.000Z</time>
        <extensions>
          <ns3:TrackPointExtension>
            <ns3:atemp>16.0</ns3:atemp>
          </ns3:TrackPointExtension>
        </extensions>
      </trkpt>
      <trkpt lat="42.61129799298942089080810546875" lon="19.881312064826488494873046875">
        <ele>1945</ele>
        <time>2026-06-16T10:53:19.000Z</time>
        <extensions>
          <ns3:TrackPointExtension>
            <ns3:atemp>16.0</ns3:atemp>
          </ns3:TrackPointExtension>
        </extensions>
      </trkpt>
      <trkpt lat="42.61129799298942089080810546875" lon="19.881312064826488494873046875">
        <ele>1945</ele>
        <time>2026-06-16T10:53:20.000Z</time>
        <extensions>
          <ns3:TrackPointExtension>
            <ns3:atemp>16.0</ns3:atemp>
          </ns3:TrackPointExtension>
        </extensions>
      </trkpt>
      <trkpt lat="42.61129799298942089080810546875" lon="19.881312064826488494873046875">
        <ele>1945</ele>
        <time>2026-06-16T10:53:21.000Z</time>
        <extensions>
          <ns3:TrackPointExtension>
            <ns3:atemp>16.0</ns3:atemp>
          </ns3:TrackPointExtension>
        </extensions>
      </trkpt>
      <trkpt lat="42.61129799298942089080810546875" lon="19.881312064826488494873046875">
        <ele>1944.800048828125</ele>
        <time>2026-06-16T10:53:22.000Z</time>
        <extensions>
          <ns3:TrackPointExtension>
            <ns3:atemp>16.0</ns3:atemp>
          </ns3:TrackPointExtension>
        </extensions>
      </trkpt>
      <trkpt lat="42.6112969033420085906982421875" lon="19.88131080754101276397705078125">
        <ele>1944.800048828125</ele>
        <time>2026-06-16T10:53:23.000Z</time>
        <extensions>
          <ns3:TrackPointExtension>
            <ns3:atemp>16.0</ns3:atemp>
          </ns3:TrackPointExtension>
        </extensions>
      </trkpt>
      <trkpt lat="42.6113173551857471466064453125" lon="19.8812971450388431549072265625">
        <ele>1944.800048828125</ele>
        <time>2026-06-16T10:53:24.000Z</time>
        <extensions>
          <ns3:TrackPointExtension>
            <ns3:atemp>16.0</ns3:atemp>
          </ns3:TrackPointExtension>
        </extensions>
      </trkpt>
      <trkpt lat="42.6113448478281497955322265625" lon="19.8812847398221492767333984375">
        <ele>1944.5999755859375</ele>
        <time>2026-06-16T10:53:25.000Z</time>
        <extensions>
          <ns3:TrackPointExtension>
            <ns3:atemp>16.0</ns3:atemp>
          </ns3:TrackPointExtension>
        </extensions>
      </trkpt>
      <trkpt lat="42.61138734407722949981689453125" lon="19.8812689818441867828369140625">
        <ele>1944.4000244140625</ele>
        <time>2026-06-16T10:53:26.000Z</time>
        <extensions>
          <ns3:TrackPointExtension>
            <ns3:atemp>16.0</ns3:atemp>
          </ns3:TrackPointExtension>
        </extensions>
      </trkpt>
      <trkpt lat="42.6114387251436710357666015625" lon="19.88126277923583984375">
        <ele>1944</ele>
        <time>2026-06-16T10:53:27.000Z</time>
        <extensions>
          <ns3:TrackPointExtension>
            <ns3:atemp>16.0</ns3:atemp>
          </ns3:TrackPointExtension>
        </extensions>
      </trkpt>
      <trkpt lat="42.61149748228490352630615234375" lon="19.881266467273235321044921875">
        <ele>1943.5999755859375</ele>
        <time>2026-06-16T10:53:28.000Z</time>
        <extensions>
          <ns3:TrackPointExtension>
            <ns3:atemp>16.0</ns3:atemp>
          </ns3:TrackPointExtension>
        </extensions>
      </trkpt>
      <trkpt lat="42.61156596243381500244140625" lon="19.8812854103744029998779296875">
        <ele>1942.800048828125</ele>
        <time>2026-06-16T10:53:29.000Z</time>
        <extensions>
          <ns3:TrackPointExtension>
            <ns3:atemp>16.0</ns3:atemp>
          </ns3:TrackPointExtension>
        </extensions>
      </trkpt>
      <trkpt lat="42.6116402260959148406982421875" lon="19.88132379949092864990234375">
        <ele>1942</ele>
        <time>2026-06-16T10:53:30.000Z</time>
        <extensions>
          <ns3:TrackPointExtension>
            <ns3:atemp>16.0</ns3:atemp>
          </ns3:TrackPointExtension>
        </extensions>
      </trkpt>
      <trkpt lat="42.6117146573960781097412109375" lon="19.8813507892191410064697265625">
        <ele>1941</ele>
        <time>2026-06-16T10:53:31.000Z</time>
        <extensions>
          <ns3:TrackPointExtension>
            <ns3:atemp>16.0</ns3:atemp>
          </ns3:TrackPointExtension>
        </extensions>
      </trkpt>
      <trkpt lat="42.61177659966051578521728515625" lon="19.881377778947353363037109375">
        <ele>1940.199951171875</ele>
        <time>2026-06-16T10:53:32.000Z</time>
        <extensions>
          <ns3:TrackPointExtension>
            <ns3:atemp>16.0</ns3:atemp>
          </ns3:TrackPointExtension>
        </extensions>
      </trkpt>
      <trkpt lat="42.6118152402341365814208984375" lon="19.88140292465686798095703125">
        <ele>1939.4000244140625</ele>
        <time>2026-06-16T10:53:33.000Z</time>
        <extensions>
          <ns3:TrackPointExtension>
            <ns3:atemp>16.0</ns3:atemp>
          </ns3:TrackPointExtension>
        </extensions>
      </trkpt>
      <trkpt lat="42.61183862574398517608642578125" lon="19.8814250528812408447265625">
        <ele>1938.800048828125</ele>
        <time>2026-06-16T10:53:34.000Z</time>
        <extensions>
          <ns3:TrackPointExtension>
            <ns3:atemp>16.0</ns3:atemp>
          </ns3:TrackPointExtension>
        </extensions>
      </trkpt>
      <trkpt lat="42.611867375671863555908203125" lon="19.88144407980144023895263671875">
        <ele>1938.199951171875</ele>
        <time>2026-06-16T10:53:35.000Z</time>
        <extensions>
          <ns3:TrackPointExtension>
            <ns3:atemp>16.0</ns3:atemp>
          </ns3:TrackPointExtension>
        </extensions>
      </trkpt>
      <trkpt lat="42.61189679615199565887451171875" lon="19.88146201707422733306884765625">
        <ele>1937.4000244140625</ele>
        <time>2026-06-16T10:53:36.000Z</time>
        <extensions>
          <ns3:TrackPointExtension>
            <ns3:atemp>16.0</ns3:atemp>
          </ns3:TrackPointExtension>
        </extensions>
      </trkpt>
      <trkpt lat="42.61192881502211093902587890625" lon="19.88148481585085391998291015625">
        <ele>1936.800048828125</ele>
        <time>2026-06-16T10:53:37.000Z</time>
        <extensions>
          <ns3:TrackPointExtension>
            <ns3:atemp>16.0</ns3:atemp>
          </ns3:TrackPointExtension>
        </extensions>
      </trkpt>
      <trkpt lat="42.6119582355022430419921875" lon="19.8815006576478481292724609375">
        <ele>1936</ele>
        <time>2026-06-16T10:53:38.000Z</time>
        <extensions>
          <ns3:TrackPointExtension>
            <ns3:atemp>16.0</ns3:atemp>
          </ns3:TrackPointExtension>
        </extensions>
      </trkpt>
      <trkpt lat="42.6119946129620075225830078125" lon="19.8815147392451763153076171875">
        <ele>1935.199951171875</ele>
        <time>2026-06-16T10:53:39.000Z</time>
        <extensions>
          <ns3:TrackPointExtension>
            <ns3:atemp>16.0</ns3:atemp>
          </ns3:TrackPointExtension>
        </extensions>
      </trkpt>
      <trkpt lat="42.61203174479305744171142578125" lon="19.8815345205366611480712890625">
        <ele>1934.5999755859375</ele>
        <time>2026-06-16T10:53:40.000Z</time>
        <extensions>
          <ns3:TrackPointExtension>
            <ns3:atemp>16.0</ns3:atemp>
          </ns3:TrackPointExtension>
        </extensions>
      </trkpt>
      <trkpt lat="42.61207499541342258453369140625" lon="19.881544075906276702880859375">
        <ele>1933.800048828125</ele>
        <time>2026-06-16T10:53:41.000Z</time>
        <extensions>
          <ns3:TrackPointExtension>
            <ns3:atemp>16.0</ns3:atemp>
          </ns3:TrackPointExtension>
        </extensions>
      </trkpt>
      <trkpt lat="42.6121360994875431060791015625" lon="19.8815519548952579498291015625">
        <ele>1933</ele>
        <time>2026-06-16T10:53:42.000Z</time>
        <extensions>
          <ns3:TrackPointExtension>
            <ns3:atemp>16.0</ns3:atemp>
          </ns3:TrackPointExtension>
        </extensions>
      </trkpt>
      <trkpt lat="42.6122098602354526519775390625" lon="19.88155555911362171173095703125">
        <ele>1931.800048828125</ele>
        <time>2026-06-16T10:53:43.000Z</time>
        <extensions>
          <ns3:TrackPointExtension>
            <ns3:atemp>16.0</ns3:atemp>
          </ns3:TrackPointExtension>
        </extensions>
      </trkpt>
      <trkpt lat="42.61229217052459716796875" lon="19.8815479315817356109619140625">
        <ele>1930.5999755859375</ele>
        <time>2026-06-16T10:53:44.000Z</time>
        <extensions>
          <ns3:TrackPointExtension>
            <ns3:atemp>16.0</ns3:atemp>
          </ns3:TrackPointExtension>
        </extensions>
      </trkpt>
      <trkpt lat="42.61237020604312419891357421875" lon="19.88154768012464046478271484375">
        <ele>1929.199951171875</ele>
        <time>2026-06-16T10:53:45.000Z</time>
        <extensions>
          <ns3:TrackPointExtension>
            <ns3:atemp>16.0</ns3:atemp>
          </ns3:TrackPointExtension>
        </extensions>
      </trkpt>
      <trkpt lat="42.61243994347751140594482421875" lon="19.88154910504817962646484375">
        <ele>1927.800048828125</ele>
        <time>2026-06-16T10:53:46.000Z</time>
        <extensions>
          <ns3:TrackPointExtension>
            <ns3:atemp>16.0</ns3:atemp>
          </ns3:TrackPointExtension>
        </extensions>
      </trkpt>
      <trkpt lat="42.61250331066548824310302734375" lon="19.8815294913947582244873046875">
        <ele>1926.800048828125</ele>
        <time>2026-06-16T10:53:47.000Z</time>
        <extensions>
          <ns3:TrackPointExtension>
            <ns3:atemp>16.0</ns3:atemp>
          </ns3:TrackPointExtension>
        </extensions>
      </trkpt>
      <trkpt lat="42.612558715045452117919921875" lon="19.8815100453794002532958984375">
        <ele>1925.800048828125</ele>
        <time>2026-06-16T10:53:48.000Z</time>
        <extensions>
          <ns3:TrackPointExtension>
            <ns3:atemp>16.0</ns3:atemp>
          </ns3:TrackPointExtension>
        </extensions>
      </trkpt>
      <trkpt lat="42.61260255239903926849365234375" lon="19.88151214085519313812255859375">
        <ele>1924.800048828125</ele>
        <time>2026-06-16T10:53:49.000Z</time>
        <extensions>
          <ns3:TrackPointExtension>
            <ns3:atemp>16.0</ns3:atemp>
          </ns3:TrackPointExtension>
        </extensions>
      </trkpt>
      <trkpt lat="42.61261998675763607025146484375" lon="19.88151700235903263092041015625">
        <ele>1924.5999755859375</ele>
        <time>2026-06-16T10:53:50.000Z</time>
        <extensions>
          <ns3:TrackPointExtension>
            <ns3:atemp>16.0</ns3:atemp>
          </ns3:TrackPointExtension>
        </extensions>
      </trkpt>
      <trkpt lat="42.61261814273893833160400390625" lon="19.88151515834033489227294921875">
        <ele>1924.199951171875</ele>
        <time>2026-06-16T10:53:51.000Z</time>
        <extensions>
          <ns3:TrackPointExtension>
            <ns3:atemp>16.0</ns3:atemp>
          </ns3:TrackPointExtension>
        </extensions>
      </trkpt>
      <trkpt lat="42.61261814273893833160400390625" lon="19.881515242159366607666015625">
        <ele>1923.800048828125</ele>
        <time>2026-06-16T10:53:52.000Z</time>
        <extensions>
          <ns3:TrackPointExtension>
            <ns3:atemp>16.0</ns3:atemp>
          </ns3:TrackPointExtension>
        </extensions>
      </trkpt>
      <trkpt lat="42.61261814273893833160400390625" lon="19.881515242159366607666015625">
        <ele>1923.800048828125</ele>
        <time>2026-06-16T10:53:53.000Z</time>
        <extensions>
          <ns3:TrackPointExtension>
            <ns3:atemp>16.0</ns3:atemp>
          </ns3:TrackPointExtension>
        </extensions>
      </trkpt>
      <trkpt lat="42.61261814273893833160400390625" lon="19.881515242159366607666015625">
        <ele>1923.800048828125</ele>
        <time>2026-06-16T10:53:54.000Z</time>
        <extensions>
          <ns3:TrackPointExtension>
            <ns3:atemp>16.0</ns3:atemp>
          </ns3:TrackPointExtension>
        </extensions>
      </trkpt>
      <trkpt lat="42.61261814273893833160400390625" lon="19.881515242159366607666015625">
        <ele>1923.5999755859375</ele>
        <time>2026-06-16T10:53:55.000Z</time>
        <extensions>
          <ns3:TrackPointExtension>
            <ns3:atemp>16.0</ns3:atemp>
          </ns3:TrackPointExtension>
        </extensions>
      </trkpt>
      <trkpt lat="42.61261814273893833160400390625" lon="19.881515242159366607666015625">
        <ele>1923.4000244140625</ele>
        <time>2026-06-16T10:53:56.000Z</time>
        <extensions>
          <ns3:TrackPointExtension>
            <ns3:atemp>16.0</ns3:atemp>
          </ns3:TrackPointExtension>
        </extensions>
      </trkpt>
      <trkpt lat="42.61261814273893833160400390625" lon="19.881515242159366607666015625">
        <ele>1923.4000244140625</ele>
        <time>2026-06-16T10:53:57.000Z</time>
        <extensions>
          <ns3:TrackPointExtension>
            <ns3:atemp>16.0</ns3:atemp>
          </ns3:TrackPointExtension>
        </extensions>
      </trkpt>
      <trkpt lat="42.61261814273893833160400390625" lon="19.881515242159366607666015625">
        <ele>1923.199951171875</ele>
        <time>2026-06-16T10:53:58.000Z</time>
        <extensions>
          <ns3:TrackPointExtension>
            <ns3:atemp>16.0</ns3:atemp>
          </ns3:TrackPointExtension>
        </extensions>
      </trkpt>
      <trkpt lat="42.61261814273893833160400390625" lon="19.881515242159366607666015625">
        <ele>1923.199951171875</ele>
        <time>2026-06-16T10:53:59.000Z</time>
        <extensions>
          <ns3:TrackPointExtension>
            <ns3:atemp>16.0</ns3:atemp>
          </ns3:TrackPointExtension>
        </extensions>
      </trkpt>
      <trkpt lat="42.61261814273893833160400390625" lon="19.881515242159366607666015625">
        <ele>1923.199951171875</ele>
        <time>2026-06-16T10:54:00.000Z</time>
        <extensions>
          <ns3:TrackPointExtension>
            <ns3:atemp>16.0</ns3:atemp>
          </ns3:TrackPointExtension>
        </extensions>
      </trkpt>
      <trkpt lat="42.61261814273893833160400390625" lon="19.881515242159366607666015625">
        <ele>1923</ele>
        <time>2026-06-16T10:54:01.000Z</time>
        <extensions>
          <ns3:TrackPointExtension>
            <ns3:atemp>16.0</ns3:atemp>
          </ns3:TrackPointExtension>
        </extensions>
      </trkpt>
      <trkpt lat="42.61261814273893833160400390625" lon="19.881515242159366607666015625">
        <ele>1923</ele>
        <time>2026-06-16T10:54:02.000Z</time>
        <extensions>
          <ns3:TrackPointExtension>
            <ns3:atemp>16.0</ns3:atemp>
          </ns3:TrackPointExtension>
        </extensions>
      </trkpt>
      <trkpt lat="42.61261814273893833160400390625" lon="19.881515242159366607666015625">
        <ele>1923</ele>
        <time>2026-06-16T10:54:03.000Z</time>
        <extensions>
          <ns3:TrackPointExtension>
            <ns3:atemp>16.0</ns3:atemp>
          </ns3:TrackPointExtension>
        </extensions>
      </trkpt>
      <trkpt lat="42.61261814273893833160400390625" lon="19.881515242159366607666015625">
        <ele>1923</ele>
        <time>2026-06-16T10:54:04.000Z</time>
        <extensions>
          <ns3:TrackPointExtension>
            <ns3:atemp>16.0</ns3:atemp>
          </ns3:TrackPointExtension>
        </extensions>
      </trkpt>
      <trkpt lat="42.61261814273893833160400390625" lon="19.881515242159366607666015625">
        <ele>1923</ele>
        <time>2026-06-16T10:54:05.000Z</time>
        <extensions>
          <ns3:TrackPointExtension>
            <ns3:atemp>16.0</ns3:atemp>
          </ns3:TrackPointExtension>
        </extensions>
      </trkpt>
      <trkpt lat="42.6126180589199066162109375" lon="19.8815167509019374847412109375">
        <ele>1923</ele>
        <time>2026-06-16T10:54:06.000Z</time>
        <extensions>
          <ns3:TrackPointExtension>
            <ns3:atemp>16.0</ns3:atemp>
          </ns3:TrackPointExtension>
        </extensions>
      </trkpt>
      <trkpt lat="42.6126341521739959716796875" lon="19.88151197321712970733642578125">
        <ele>1923</ele>
        <time>2026-06-16T10:54:07.000Z</time>
        <extensions>
          <ns3:TrackPointExtension>
            <ns3:atemp>16.0</ns3:atemp>
          </ns3:TrackPointExtension>
        </extensions>
      </trkpt>
      <trkpt lat="42.612659297883510589599609375" lon="19.88149990327656269073486328125">
        <ele>1922.800048828125</ele>
        <time>2026-06-16T10:54:08.000Z</time>
        <extensions>
          <ns3:TrackPointExtension>
            <ns3:atemp>16.0</ns3:atemp>
          </ns3:TrackPointExtension>
        </extensions>
      </trkpt>
      <trkpt lat="42.612702883780002593994140625" lon="19.881486408412456512451171875">
        <ele>1922.4000244140625</ele>
        <time>2026-06-16T10:54:09.000Z</time>
        <extensions>
          <ns3:TrackPointExtension>
            <ns3:atemp>16.0</ns3:atemp>
          </ns3:TrackPointExtension>
        </extensions>
      </trkpt>
      <trkpt lat="42.6127556897699832916259765625" lon="19.8814748413860797882080078125">
        <ele>1922</ele>
        <time>2026-06-16T10:54:10.000Z</time>
        <extensions>
          <ns3:TrackPointExtension>
            <ns3:atemp>16.0</ns3:atemp>
          </ns3:TrackPointExtension>
        </extensions>
      </trkpt>
      <trkpt lat="42.6128103397786617279052734375" lon="19.88148598931729793548583984375">
        <ele>1921.5999755859375</ele>
        <time>2026-06-16T10:54:11.000Z</time>
        <extensions>
          <ns3:TrackPointExtension>
            <ns3:atemp>16.0</ns3:atemp>
          </ns3:TrackPointExtension>
        </extensions>
      </trkpt>
      <trkpt lat="42.61286574415862560272216796875" lon="19.88150526769459247589111328125">
        <ele>1921.199951171875</ele>
        <time>2026-06-16T10:54:12.000Z</time>
        <extensions>
          <ns3:TrackPointExtension>
            <ns3:atemp>16.0</ns3:atemp>
          </ns3:TrackPointExtension>
        </extensions>
      </trkpt>
      <trkpt lat="42.612917125225067138671875" lon="19.881526641547679901123046875">
        <ele>1920.800048828125</ele>
        <time>2026-06-16T10:54:13.000Z</time>
        <extensions>
          <ns3:TrackPointExtension>
            <ns3:atemp>16.0</ns3:atemp>
          </ns3:TrackPointExtension>
        </extensions>
      </trkpt>
      <trkpt lat="42.6129667460918426513671875" lon="19.88154918886721134185791015625">
        <ele>1920.4000244140625</ele>
        <time>2026-06-16T10:54:14.000Z</time>
        <extensions>
          <ns3:TrackPointExtension>
            <ns3:atemp>16.0</ns3:atemp>
          </ns3:TrackPointExtension>
        </extensions>
      </trkpt>
      <trkpt lat="42.6130131818354129791259765625" lon="19.881561510264873504638671875">
        <ele>1920.199951171875</ele>
        <time>2026-06-16T10:54:15.000Z</time>
        <extensions>
          <ns3:TrackPointExtension>
            <ns3:atemp>16.0</ns3:atemp>
          </ns3:TrackPointExtension>
        </extensions>
      </trkpt>
      <trkpt lat="42.61305232532322406768798828125" lon="19.8815757595002651214599609375">
        <ele>1920</ele>
        <time>2026-06-16T10:54:16.000Z</time>
        <extensions>
          <ns3:TrackPointExtension>
            <ns3:atemp>16.0</ns3:atemp>
          </ns3:TrackPointExtension>
        </extensions>
      </trkpt>
      <trkpt lat="42.61308652348816394805908203125" lon="19.88158539868891239166259765625">
        <ele>1919.800048828125</ele>
        <time>2026-06-16T10:54:17.000Z</time>
        <extensions>
          <ns3:TrackPointExtension>
            <ns3:atemp>16.0</ns3:atemp>
          </ns3:TrackPointExtension>
        </extensions>
      </trkpt>
      <trkpt lat="42.61311493813991546630859375" lon="19.88159730099141597747802734375">
        <ele>1920</ele>
        <time>2026-06-16T10:54:18.000Z</time>
        <extensions>
          <ns3:TrackPointExtension>
            <ns3:atemp>16.0</ns3:atemp>
          </ns3:TrackPointExtension>
        </extensions>
      </trkpt>
      <trkpt lat="42.6131419278681278228759765625" lon="19.88160434179008007049560546875">
        <ele>1920</ele>
        <time>2026-06-16T10:54:19.000Z</time>
        <extensions>
          <ns3:TrackPointExtension>
            <ns3:atemp>16.0</ns3:atemp>
          </ns3:TrackPointExtension>
        </extensions>
      </trkpt>
      <trkpt lat="42.61316413991153240203857421875" lon="19.88161155022680759429931640625">
        <ele>1920.199951171875</ele>
        <time>2026-06-16T10:54:20.000Z</time>
        <extensions>
          <ns3:TrackPointExtension>
            <ns3:atemp>16.0</ns3:atemp>
          </ns3:TrackPointExtension>
        </extensions>
      </trkpt>
      <trkpt lat="42.6131845079362392425537109375" lon="19.8816149868071079254150390625">
        <ele>1920.4000244140625</ele>
        <time>2026-06-16T10:54:21.000Z</time>
        <extensions>
          <ns3:TrackPointExtension>
            <ns3:atemp>16.0</ns3:atemp>
          </ns3:TrackPointExtension>
        </extensions>
      </trkpt>
      <trkpt lat="42.6132099889218807220458984375" lon="19.88161884248256683349609375">
        <ele>1920.800048828125</ele>
        <time>2026-06-16T10:54:22.000Z</time>
        <extensions>
          <ns3:TrackPointExtension>
            <ns3:atemp>16.0</ns3:atemp>
          </ns3:TrackPointExtension>
        </extensions>
      </trkpt>
      <trkpt lat="42.61323421262204647064208984375" lon="19.88162579946219921112060546875">
        <ele>1921</ele>
        <time>2026-06-16T10:54:23.000Z</time>
        <extensions>
          <ns3:TrackPointExtension>
            <ns3:atemp>16.0</ns3:atemp>
          </ns3:TrackPointExtension>
        </extensions>
      </trkpt>
      <trkpt lat="42.613260447978973388671875" lon="19.88163066096603870391845703125">
        <ele>1921</ele>
        <time>2026-06-16T10:54:24.000Z</time>
        <extensions>
          <ns3:TrackPointExtension>
            <ns3:atemp>16.0</ns3:atemp>
          </ns3:TrackPointExtension>
        </extensions>
      </trkpt>
      <trkpt lat="42.6132871024310588836669921875" lon="19.881636612117290496826171875">
        <ele>1921.199951171875</ele>
        <time>2026-06-16T10:54:25.000Z</time>
        <extensions>
          <ns3:TrackPointExtension>
            <ns3:atemp>16.0</ns3:atemp>
          </ns3:TrackPointExtension>
        </extensions>
      </trkpt>
      <trkpt lat="42.61331216432154178619384765625" lon="19.8816441558301448822021484375">
        <ele>1921.4000244140625</ele>
        <time>2026-06-16T10:54:26.000Z</time>
        <extensions>
          <ns3:TrackPointExtension>
            <ns3:atemp>16.0</ns3:atemp>
          </ns3:TrackPointExtension>
        </extensions>
      </trkpt>
      <trkpt lat="42.61333311907947063446044921875" lon="19.88164926879107952117919921875">
        <ele>1921.4000244140625</ele>
        <time>2026-06-16T10:54:27.000Z</time>
        <extensions>
          <ns3:TrackPointExtension>
            <ns3:atemp>16.0</ns3:atemp>
          </ns3:TrackPointExtension>
        </extensions>
      </trkpt>
      <trkpt lat="42.6133548282086849212646484375" lon="19.88165379501879215240478515625">
        <ele>1921.5999755859375</ele>
        <time>2026-06-16T10:54:28.000Z</time>
        <extensions>
          <ns3:TrackPointExtension>
            <ns3:atemp>16.0</ns3:atemp>
          </ns3:TrackPointExtension>
        </extensions>
      </trkpt>
      <trkpt lat="42.61337779462337493896484375" lon="19.88166217692196369171142578125">
        <ele>1921.5999755859375</ele>
        <time>2026-06-16T10:54:29.000Z</time>
        <extensions>
          <ns3:TrackPointExtension>
            <ns3:atemp>16.0</ns3:atemp>
          </ns3:TrackPointExtension>
        </extensions>
      </trkpt>
      <trkpt lat="42.61339732445776462554931640625" lon="19.88168296404182910919189453125">
        <ele>1921.5999755859375</ele>
        <time>2026-06-16T10:54:30.000Z</time>
        <extensions>
          <ns3:TrackPointExtension>
            <ns3:atemp>16.0</ns3:atemp>
          </ns3:TrackPointExtension>
        </extensions>
      </trkpt>
      <trkpt lat="42.6134024374186992645263671875" lon="19.88170735538005828857421875">
        <ele>1921.5999755859375</ele>
        <time>2026-06-16T10:54:31.000Z</time>
        <extensions>
          <ns3:TrackPointExtension>
            <ns3:atemp>16.0</ns3:atemp>
          </ns3:TrackPointExtension>
        </extensions>
      </trkpt>
      <trkpt lat="42.61341132223606109619140625" lon="19.88173426128923892974853515625">
        <ele>1921.800048828125</ele>
        <time>2026-06-16T10:54:32.000Z</time>
        <extensions>
          <ns3:TrackPointExtension>
            <ns3:atemp>16.0</ns3:atemp>
          </ns3:TrackPointExtension>
        </extensions>
      </trkpt>
      <trkpt lat="42.6134188659489154815673828125" lon="19.8817591555416584014892578125">
        <ele>1921.800048828125</ele>
        <time>2026-06-16T10:54:33.000Z</time>
        <extensions>
          <ns3:TrackPointExtension>
            <ns3:atemp>16.0</ns3:atemp>
          </ns3:TrackPointExtension>
        </extensions>
      </trkpt>
      <trkpt lat="42.61342816986143589019775390625" lon="19.88178706727921962738037109375">
        <ele>1922</ele>
        <time>2026-06-16T10:54:34.000Z</time>
        <extensions>
          <ns3:TrackPointExtension>
            <ns3:atemp>16.0</ns3:atemp>
          </ns3:TrackPointExtension>
        </extensions>
      </trkpt>
      <trkpt lat="42.6134396530687808990478515625" lon="19.8818087764084339141845703125">
        <ele>1922.4000244140625</ele>
        <time>2026-06-16T10:54:35.000Z</time>
        <extensions>
          <ns3:TrackPointExtension>
            <ns3:atemp>16.0</ns3:atemp>
          </ns3:TrackPointExtension>
        </extensions>
      </trkpt>
      <trkpt lat="42.61345197446644306182861328125" lon="19.88182797096669673919677734375">
        <ele>1922.5999755859375</ele>
        <time>2026-06-16T10:54:36.000Z</time>
        <extensions>
          <ns3:TrackPointExtension>
            <ns3:atemp>16.0</ns3:atemp>
          </ns3:TrackPointExtension>
        </extensions>
      </trkpt>
      <trkpt lat="42.61346505023539066314697265625" lon="19.8818463273346424102783203125">
        <ele>1922.800048828125</ele>
        <time>2026-06-16T10:54:37.000Z</time>
        <extensions>
          <ns3:TrackPointExtension>
            <ns3:atemp>16.0</ns3:atemp>
          </ns3:TrackPointExtension>
        </extensions>
      </trkpt>
      <trkpt lat="42.6134772039949893951416015625" lon="19.88186560571193695068359375">
        <ele>1923</ele>
        <time>2026-06-16T10:54:38.000Z</time>
        <extensions>
          <ns3:TrackPointExtension>
            <ns3:atemp>16.0</ns3:atemp>
          </ns3:TrackPointExtension>
        </extensions>
      </trkpt>
      <trkpt lat="42.613490112125873565673828125" lon="19.8818892426788806915283203125">
        <ele>1923.4000244140625</ele>
        <time>2026-06-16T10:54:39.000Z</time>
        <extensions>
          <ns3:TrackPointExtension>
            <ns3:atemp>16.0</ns3:atemp>
          </ns3:TrackPointExtension>
        </extensions>
      </trkpt>
      <trkpt lat="42.613499164581298828125" lon="19.88191162236034870147705078125">
        <ele>1923.800048828125</ele>
        <time>2026-06-16T10:54:40.000Z</time>
        <extensions>
          <ns3:TrackPointExtension>
            <ns3:atemp>16.0</ns3:atemp>
          </ns3:TrackPointExtension>
        </extensions>
      </trkpt>
      <trkpt lat="42.6135098934173583984375" lon="19.88193006254732608795166015625">
        <ele>1924</ele>
        <time>2026-06-16T10:54:41.000Z</time>
        <extensions>
          <ns3:TrackPointExtension>
            <ns3:atemp>16.0</ns3:atemp>
          </ns3:TrackPointExtension>
        </extensions>
      </trkpt>
      <trkpt lat="42.61351819150149822235107421875" lon="19.88194699399173259735107421875">
        <ele>1924.5999755859375</ele>
        <time>2026-06-16T10:54:42.000Z</time>
        <extensions>
          <ns3:TrackPointExtension>
            <ns3:atemp>16.0</ns3:atemp>
          </ns3:TrackPointExtension>
        </extensions>
      </trkpt>
      <trkpt lat="42.6135301776230335235595703125" lon="19.881968200206756591796875">
        <ele>1925</ele>
        <time>2026-06-16T10:54:43.000Z</time>
        <extensions>
          <ns3:TrackPointExtension>
            <ns3:atemp>16.0</ns3:atemp>
          </ns3:TrackPointExtension>
        </extensions>
      </trkpt>
      <trkpt lat="42.61354316957294940948486328125" lon="19.881987981498241424560546875">
        <ele>1925.4000244140625</ele>
        <time>2026-06-16T10:54:44.000Z</time>
        <extensions>
          <ns3:TrackPointExtension>
            <ns3:atemp>16.0</ns3:atemp>
          </ns3:TrackPointExtension>
        </extensions>
      </trkpt>
      <trkpt lat="42.61355624534189701080322265625" lon="19.88200181163847446441650390625">
        <ele>1925.800048828125</ele>
        <time>2026-06-16T10:54:45.000Z</time>
        <extensions>
          <ns3:TrackPointExtension>
            <ns3:atemp>16.0</ns3:atemp>
          </ns3:TrackPointExtension>
        </extensions>
      </trkpt>
      <trkpt lat="42.61356948874890804290771484375" lon="19.88201555795967578887939453125">
        <ele>1926.199951171875</ele>
        <time>2026-06-16T10:54:46.000Z</time>
        <extensions>
          <ns3:TrackPointExtension>
            <ns3:atemp>16.0</ns3:atemp>
          </ns3:TrackPointExtension>
        </extensions>
      </trkpt>
      <trkpt lat="42.61358424089848995208740234375" lon="19.88202519714832305908203125">
        <ele>1926.800048828125</ele>
        <time>2026-06-16T10:54:47.000Z</time>
        <extensions>
          <ns3:TrackPointExtension>
            <ns3:atemp>16.0</ns3:atemp>
          </ns3:TrackPointExtension>
        </extensions>
      </trkpt>
      <trkpt lat="42.6136002503335475921630859375" lon="19.88203131593763828277587890625">
        <ele>1927.5999755859375</ele>
        <time>2026-06-16T10:54:48.000Z</time>
        <extensions>
          <ns3:TrackPointExtension>
            <ns3:atemp>16.0</ns3:atemp>
          </ns3:TrackPointExtension>
        </extensions>
      </trkpt>
      <trkpt lat="42.61361206881701946258544921875" lon="19.88203818909823894500732421875">
        <ele>1928.199951171875</ele>
        <time>2026-06-16T10:54:49.000Z</time>
        <extensions>
          <ns3:TrackPointExtension>
            <ns3:atemp>16.0</ns3:atemp>
          </ns3:TrackPointExtension>
        </extensions>
      </trkpt>
      <trkpt lat="42.613624222576618194580078125" lon="19.8820458166301250457763671875">
        <ele>1928.800048828125</ele>
        <time>2026-06-16T10:54:50.000Z</time>
        <extensions>
          <ns3:TrackPointExtension>
            <ns3:atemp>16.0</ns3:atemp>
          </ns3:TrackPointExtension>
        </extensions>
      </trkpt>
      <trkpt lat="42.6136367954313755035400390625" lon="19.88205126486718654632568359375">
        <ele>1929.4000244140625</ele>
        <time>2026-06-16T10:54:51.000Z</time>
        <extensions>
          <ns3:TrackPointExtension>
            <ns3:atemp>16.0</ns3:atemp>
          </ns3:TrackPointExtension>
        </extensions>
      </trkpt>
      <trkpt lat="42.6136508770287036895751953125" lon="19.88206400536000728607177734375">
        <ele>1929.800048828125</ele>
        <time>2026-06-16T10:54:52.000Z</time>
        <extensions>
          <ns3:TrackPointExtension>
            <ns3:atemp>16.0</ns3:atemp>
          </ns3:TrackPointExtension>
        </extensions>
      </trkpt>
      <trkpt lat="42.613657079637050628662109375" lon="19.88208177499473094940185546875">
        <ele>1930.199951171875</ele>
        <time>2026-06-16T10:54:53.000Z</time>
        <extensions>
          <ns3:TrackPointExtension>
            <ns3:atemp>16.0</ns3:atemp>
          </ns3:TrackPointExtension>
        </extensions>
      </trkpt>
      <trkpt lat="42.61367007158696651458740234375" lon="19.88210205920040607452392578125">
        <ele>1930.5999755859375</ele>
        <time>2026-06-16T10:54:54.000Z</time>
        <extensions>
          <ns3:TrackPointExtension>
            <ns3:atemp>16.0</ns3:atemp>
          </ns3:TrackPointExtension>
        </extensions>
      </trkpt>
      <trkpt lat="42.61368432082235813140869140625" lon="19.8821212537586688995361328125">
        <ele>1931</ele>
        <time>2026-06-16T10:54:55.000Z</time>
        <extensions>
          <ns3:TrackPointExtension>
            <ns3:atemp>16.0</ns3:atemp>
          </ns3:TrackPointExtension>
        </extensions>
      </trkpt>
      <trkpt lat="42.6136968098580837249755859375" lon="19.88213927485048770904541015625">
        <ele>1931.5999755859375</ele>
        <time>2026-06-16T10:54:56.000Z</time>
        <extensions>
          <ns3:TrackPointExtension>
            <ns3:atemp>16.0</ns3:atemp>
          </ns3:TrackPointExtension>
        </extensions>
      </trkpt>
      <trkpt lat="42.61371147818863391876220703125" lon="19.88215268589556217193603515625">
        <ele>1932</ele>
        <time>2026-06-16T10:54:57.000Z</time>
        <extensions>
          <ns3:TrackPointExtension>
            <ns3:atemp>16.0</ns3:atemp>
          </ns3:TrackPointExtension>
        </extensions>
      </trkpt>
      <trkpt lat="42.61373159475624561309814453125" lon="19.88215771503746509552001953125">
        <ele>1932.4000244140625</ele>
        <time>2026-06-16T10:54:58.000Z</time>
        <extensions>
          <ns3:TrackPointExtension>
            <ns3:atemp>16.0</ns3:atemp>
          </ns3:TrackPointExtension>
        </extensions>
      </trkpt>
      <trkpt lat="42.61374852620065212249755859375" lon="19.88214866258203983306884765625">
        <ele>1932.800048828125</ele>
        <time>2026-06-16T10:54:59.000Z</time>
        <extensions>
          <ns3:TrackPointExtension>
            <ns3:atemp>16.0</ns3:atemp>
          </ns3:TrackPointExtension>
        </extensions>
      </trkpt>
      <trkpt lat="42.61376562528312206268310546875" lon="19.88213307224214076995849609375">
        <ele>1933.4000244140625</ele>
        <time>2026-06-16T10:55:00.000Z</time>
        <extensions>
          <ns3:TrackPointExtension>
            <ns3:atemp>16.0</ns3:atemp>
          </ns3:TrackPointExtension>
        </extensions>
      </trkpt>
      <trkpt lat="42.613783143460750579833984375" lon="19.88212854601442813873291015625">
        <ele>1933.800048828125</ele>
        <time>2026-06-16T10:55:01.000Z</time>
        <extensions>
          <ns3:TrackPointExtension>
            <ns3:atemp>16.0</ns3:atemp>
          </ns3:TrackPointExtension>
        </extensions>
      </trkpt>
      <trkpt lat="42.6138017512857913970947265625" lon="19.88212041556835174560546875">
        <ele>1934.4000244140625</ele>
        <time>2026-06-16T10:55:02.000Z</time>
        <extensions>
          <ns3:TrackPointExtension>
            <ns3:atemp>16.0</ns3:atemp>
          </ns3:TrackPointExtension>
        </extensions>
      </trkpt>
      <trkpt lat="42.6138168387115001678466796875" lon="19.88210474140942096710205078125">
        <ele>1934.5999755859375</ele>
        <time>2026-06-16T10:55:03.000Z</time>
        <extensions>
          <ns3:TrackPointExtension>
            <ns3:atemp>16.0</ns3:atemp>
          </ns3:TrackPointExtension>
        </extensions>
      </trkpt>
      <trkpt lat="42.61383318342268466949462890625" lon="19.88209954462945461273193359375">
        <ele>1935</ele>
        <time>2026-06-16T10:55:04.000Z</time>
        <extensions>
          <ns3:TrackPointExtension>
            <ns3:atemp>16.0</ns3:atemp>
          </ns3:TrackPointExtension>
        </extensions>
      </trkpt>
      <trkpt lat="42.613853551447391510009765625" lon="19.88209233619272708892822265625">
        <ele>1935.4000244140625</ele>
        <time>2026-06-16T10:55:05.000Z</time>
        <extensions>
          <ns3:TrackPointExtension>
            <ns3:atemp>16.0</ns3:atemp>
          </ns3:TrackPointExtension>
        </extensions>
      </trkpt>
      <trkpt lat="42.6138711534440517425537109375" lon="19.882093928754329681396484375">
        <ele>1935.800048828125</ele>
        <time>2026-06-16T10:55:06.000Z</time>
        <extensions>
          <ns3:TrackPointExtension>
            <ns3:atemp>16.0</ns3:atemp>
          </ns3:TrackPointExtension>
        </extensions>
      </trkpt>
      <trkpt lat="42.61389085091650485992431640625" lon="19.882091917097568511962890625">
        <ele>1936</ele>
        <time>2026-06-16T10:55:07.000Z</time>
        <extensions>
          <ns3:TrackPointExtension>
            <ns3:atemp>16.0</ns3:atemp>
          </ns3:TrackPointExtension>
        </extensions>
      </trkpt>
      <trkpt lat="42.61390962637960910797119140625" lon="19.8820917494595050811767578125">
        <ele>1936.4000244140625</ele>
        <time>2026-06-16T10:55:08.000Z</time>
        <extensions>
          <ns3:TrackPointExtension>
            <ns3:atemp>16.0</ns3:atemp>
          </ns3:TrackPointExtension>
        </extensions>
      </trkpt>
      <trkpt lat="42.61392672546207904815673828125" lon="19.88209904171526432037353515625">
        <ele>1936.5999755859375</ele>
        <time>2026-06-16T10:55:09.000Z</time>
        <extensions>
          <ns3:TrackPointExtension>
            <ns3:atemp>16.0</ns3:atemp>
          </ns3:TrackPointExtension>
        </extensions>
      </trkpt>
      <trkpt lat="42.61394566856324672698974609375" lon="19.8821038194000720977783203125">
        <ele>1937</ele>
        <time>2026-06-16T10:55:10.000Z</time>
        <extensions>
          <ns3:TrackPointExtension>
            <ns3:atemp>16.0</ns3:atemp>
          </ns3:TrackPointExtension>
        </extensions>
      </trkpt>
      <trkpt lat="42.61396561749279499053955078125" lon="19.8821142129600048065185546875">
        <ele>1937.199951171875</ele>
        <time>2026-06-16T10:55:11.000Z</time>
        <extensions>
          <ns3:TrackPointExtension>
            <ns3:atemp>16.0</ns3:atemp>
          </ns3:TrackPointExtension>
        </extensions>
      </trkpt>
      <trkpt lat="42.61398087255656719207763671875" lon="19.88212049938738346099853515625">
        <ele>1937.5999755859375</ele>
        <time>2026-06-16T10:55:12.000Z</time>
        <extensions>
          <ns3:TrackPointExtension>
            <ns3:atemp>16.0</ns3:atemp>
          </ns3:TrackPointExtension>
        </extensions>
      </trkpt>
      <trkpt lat="42.61399738490581512451171875" lon="19.88213508389890193939208984375">
        <ele>1938</ele>
        <time>2026-06-16T10:55:13.000Z</time>
        <extensions>
          <ns3:TrackPointExtension>
            <ns3:atemp>16.0</ns3:atemp>
          </ns3:TrackPointExtension>
        </extensions>
      </trkpt>
      <trkpt lat="42.61401481926441192626953125" lon="19.88215452991425991058349609375">
        <ele>1938.4000244140625</ele>
        <time>2026-06-16T10:55:14.000Z</time>
        <extensions>
          <ns3:TrackPointExtension>
            <ns3:atemp>16.0</ns3:atemp>
          </ns3:TrackPointExtension>
        </extensions>
      </trkpt>
      <trkpt lat="42.6140354387462139129638671875" lon="19.8821680247783660888671875">
        <ele>1938.5999755859375</ele>
        <time>2026-06-16T10:55:15.000Z</time>
        <extensions>
          <ns3:TrackPointExtension>
            <ns3:atemp>16.0</ns3:atemp>
          </ns3:TrackPointExtension>
        </extensions>
      </trkpt>
      <trkpt lat="42.61405345983803272247314453125" lon="19.88217598758637905120849609375">
        <ele>1938.800048828125</ele>
        <time>2026-06-16T10:55:16.000Z</time>
        <extensions>
          <ns3:TrackPointExtension>
            <ns3:atemp>16.0</ns3:atemp>
          </ns3:TrackPointExtension>
        </extensions>
      </trkpt>
      <trkpt lat="42.6140743307769298553466796875" lon="19.88218470476567745208740234375">
        <ele>1939</ele>
        <time>2026-06-16T10:55:17.000Z</time>
        <extensions>
          <ns3:TrackPointExtension>
            <ns3:atemp>16.0</ns3:atemp>
          </ns3:TrackPointExtension>
        </extensions>
      </trkpt>
      <trkpt lat="42.61409796774387359619140625" lon="19.8821916617453098297119140625">
        <ele>1939.199951171875</ele>
        <time>2026-06-16T10:55:18.000Z</time>
        <extensions>
          <ns3:TrackPointExtension>
            <ns3:atemp>16.0</ns3:atemp>
          </ns3:TrackPointExtension>
        </extensions>
      </trkpt>
      <trkpt lat="42.61411917395889759063720703125" lon="19.88220582716166973114013671875">
        <ele>1939.4000244140625</ele>
        <time>2026-06-16T10:55:19.000Z</time>
        <extensions>
          <ns3:TrackPointExtension>
            <ns3:atemp>16.0</ns3:atemp>
          </ns3:TrackPointExtension>
        </extensions>
      </trkpt>
      <trkpt lat="42.6141343452036380767822265625" lon="19.8822191543877124786376953125">
        <ele>1939.800048828125</ele>
        <time>2026-06-16T10:55:20.000Z</time>
        <extensions>
          <ns3:TrackPointExtension>
            <ns3:atemp>16.0</ns3:atemp>
          </ns3:TrackPointExtension>
        </extensions>
      </trkpt>
      <trkpt lat="42.614143230020999908447265625" lon="19.88222728483378887176513671875">
        <ele>1940</ele>
        <time>2026-06-16T10:55:21.000Z</time>
        <extensions>
          <ns3:TrackPointExtension>
            <ns3:atemp>16.0</ns3:atemp>
          </ns3:TrackPointExtension>
        </extensions>
      </trkpt>
      <trkpt lat="42.6141541264951229095458984375" lon="19.88223843276500701904296875">
        <ele>1940</ele>
        <time>2026-06-16T10:55:22.000Z</time>
        <extensions>
          <ns3:TrackPointExtension>
            <ns3:atemp>16.0</ns3:atemp>
          </ns3:TrackPointExtension>
        </extensions>
      </trkpt>
      <trkpt lat="42.6141558028757572174072265625" lon="19.8822443000972270965576171875">
        <ele>1940.199951171875</ele>
        <time>2026-06-16T10:55:23.000Z</time>
        <extensions>
          <ns3:TrackPointExtension>
            <ns3:atemp>16.0</ns3:atemp>
          </ns3:TrackPointExtension>
        </extensions>
      </trkpt>
      <trkpt lat="42.6141536235809326171875" lon="19.882242791354656219482421875">
        <ele>1940.4000244140625</ele>
        <time>2026-06-16T10:55:24.000Z</time>
        <extensions>
          <ns3:TrackPointExtension>
            <ns3:atemp>17.0</ns3:atemp>
          </ns3:TrackPointExtension>
        </extensions>
      </trkpt>
      <trkpt lat="42.61415370739996433258056640625" lon="19.882242791354656219482421875">
        <ele>1940.5999755859375</ele>
        <time>2026-06-16T10:55:25.000Z</time>
        <extensions>
          <ns3:TrackPointExtension>
            <ns3:atemp>16.0</ns3:atemp>
          </ns3:TrackPointExtension>
        </extensions>
      </trkpt>
      <trkpt lat="42.61415370739996433258056640625" lon="19.882242791354656219482421875">
        <ele>1940.5999755859375</ele>
        <time>2026-06-16T10:55:26.000Z</time>
        <extensions>
          <ns3:TrackPointExtension>
            <ns3:atemp>16.0</ns3:atemp>
          </ns3:TrackPointExtension>
        </extensions>
      </trkpt>
      <trkpt lat="42.61415370739996433258056640625" lon="19.882242791354656219482421875">
        <ele>1940.5999755859375</ele>
        <time>2026-06-16T10:55:27.000Z</time>
        <extensions>
          <ns3:TrackPointExtension>
            <ns3:atemp>16.0</ns3:atemp>
          </ns3:TrackPointExtension>
        </extensions>
      </trkpt>
      <trkpt lat="42.61415370739996433258056640625" lon="19.882242791354656219482421875">
        <ele>1940.4000244140625</ele>
        <time>2026-06-16T10:55:28.000Z</time>
        <extensions>
          <ns3:TrackPointExtension>
            <ns3:atemp>17.0</ns3:atemp>
          </ns3:TrackPointExtension>
        </extensions>
      </trkpt>
      <trkpt lat="42.61415370739996433258056640625" lon="19.882242791354656219482421875">
        <ele>1940.4000244140625</ele>
        <time>2026-06-16T10:55:29.000Z</time>
        <extensions>
          <ns3:TrackPointExtension>
            <ns3:atemp>17.0</ns3:atemp>
          </ns3:TrackPointExtension>
        </extensions>
      </trkpt>
      <trkpt lat="42.61415370739996433258056640625" lon="19.882242791354656219482421875">
        <ele>1940.199951171875</ele>
        <time>2026-06-16T10:55:30.000Z</time>
        <extensions>
          <ns3:TrackPointExtension>
            <ns3:atemp>17.0</ns3:atemp>
          </ns3:TrackPointExtension>
        </extensions>
      </trkpt>
      <trkpt lat="42.61415370739996433258056640625" lon="19.882242791354656219482421875">
        <ele>1940.199951171875</ele>
        <time>2026-06-16T10:55:31.000Z</time>
        <extensions>
          <ns3:TrackPointExtension>
            <ns3:atemp>17.0</ns3:atemp>
          </ns3:TrackPointExtension>
        </extensions>
      </trkpt>
      <trkpt lat="42.61415370739996433258056640625" lon="19.882242791354656219482421875">
        <ele>1940.4000244140625</ele>
        <time>2026-06-16T10:55:32.000Z</time>
        <extensions>
          <ns3:TrackPointExtension>
            <ns3:atemp>17.0</ns3:atemp>
          </ns3:TrackPointExtension>
        </extensions>
      </trkpt>
      <trkpt lat="42.61415370739996433258056640625" lon="19.882242791354656219482421875">
        <ele>1940.5999755859375</ele>
        <time>2026-06-16T10:55:33.000Z</time>
        <extensions>
          <ns3:TrackPointExtension>
            <ns3:atemp>17.0</ns3:atemp>
          </ns3:TrackPointExtension>
        </extensions>
      </trkpt>
      <trkpt lat="42.61415370739996433258056640625" lon="19.882242791354656219482421875">
        <ele>1940.5999755859375</ele>
        <time>2026-06-16T10:55:34.000Z</time>
        <extensions>
          <ns3:TrackPointExtension>
            <ns3:atemp>17.0</ns3:atemp>
          </ns3:TrackPointExtension>
        </extensions>
      </trkpt>
      <trkpt lat="42.61415370739996433258056640625" lon="19.882242791354656219482421875">
        <ele>1940.800048828125</ele>
        <time>2026-06-16T10:55:35.000Z</time>
        <extensions>
          <ns3:TrackPointExtension>
            <ns3:atemp>17.0</ns3:atemp>
          </ns3:TrackPointExtension>
        </extensions>
      </trkpt>
      <trkpt lat="42.61415387503802776336669921875" lon="19.882242791354656219482421875">
        <ele>1940.800048828125</ele>
        <time>2026-06-16T10:55:36.000Z</time>
        <extensions>
          <ns3:TrackPointExtension>
            <ns3:atemp>17.0</ns3:atemp>
          </ns3:TrackPointExtension>
        </extensions>
      </trkpt>
      <trkpt lat="42.61416778899729251861572265625" lon="19.88225025124847888946533203125">
        <ele>1940.800048828125</ele>
        <time>2026-06-16T10:55:37.000Z</time>
        <extensions>
          <ns3:TrackPointExtension>
            <ns3:atemp>17.0</ns3:atemp>
          </ns3:TrackPointExtension>
        </extensions>
      </trkpt>
      <trkpt lat="42.6141863130033016204833984375" lon="19.882258884608745574951171875">
        <ele>1940.800048828125</ele>
        <time>2026-06-16T10:55:38.000Z</time>
        <extensions>
          <ns3:TrackPointExtension>
            <ns3:atemp>17.0</ns3:atemp>
          </ns3:TrackPointExtension>
        </extensions>
      </trkpt>
      <trkpt lat="42.614202909171581268310546875" lon="19.88227103836834430694580078125">
        <ele>1940.800048828125</ele>
        <time>2026-06-16T10:55:39.000Z</time>
        <extensions>
          <ns3:TrackPointExtension>
            <ns3:atemp>17.0</ns3:atemp>
          </ns3:TrackPointExtension>
        </extensions>
      </trkpt>
      <trkpt lat="42.61421942152082920074462890625" lon="19.8822805099189281463623046875">
        <ele>1940.800048828125</ele>
        <time>2026-06-16T10:55:40.000Z</time>
        <extensions>
          <ns3:TrackPointExtension>
            <ns3:atemp>17.0</ns3:atemp>
          </ns3:TrackPointExtension>
        </extensions>
      </trkpt>
      <trkpt lat="42.6142409630119800567626953125" lon="19.88229400478303432464599609375">
        <ele>1940.800048828125</ele>
        <time>2026-06-16T10:55:41.000Z</time>
        <extensions>
          <ns3:TrackPointExtension>
            <ns3:atemp>17.0</ns3:atemp>
          </ns3:TrackPointExtension>
        </extensions>
      </trkpt>
      <trkpt lat="42.61425361968576908111572265625" lon="19.8823100142180919647216796875">
        <ele>1940.800048828125</ele>
        <time>2026-06-16T10:55:42.000Z</time>
        <extensions>
          <ns3:TrackPointExtension>
            <ns3:atemp>17.0</ns3:atemp>
          </ns3:TrackPointExtension>
        </extensions>
      </trkpt>
      <trkpt lat="42.6142676174640655517578125" lon="19.8823251016438007354736328125">
        <ele>1940.5999755859375</ele>
        <time>2026-06-16T10:55:43.000Z</time>
        <extensions>
          <ns3:TrackPointExtension>
            <ns3:atemp>17.0</ns3:atemp>
          </ns3:TrackPointExtension>
        </extensions>
      </trkpt>
      <trkpt lat="42.61428773403167724609375" lon="19.88234496675431728363037109375">
        <ele>1940.4000244140625</ele>
        <time>2026-06-16T10:55:44.000Z</time>
        <extensions>
          <ns3:TrackPointExtension>
            <ns3:atemp>17.0</ns3:atemp>
          </ns3:TrackPointExtension>
        </extensions>
      </trkpt>
      <trkpt lat="42.614309526979923248291015625" lon="19.88235586322844028472900390625">
        <ele>1940.199951171875</ele>
        <time>2026-06-16T10:55:45.000Z</time>
        <extensions>
          <ns3:TrackPointExtension>
            <ns3:atemp>17.0</ns3:atemp>
          </ns3:TrackPointExtension>
        </extensions>
      </trkpt>
      <trkpt lat="42.61432863771915435791015625" lon="19.8823653347790241241455078125">
        <ele>1940.199951171875</ele>
        <time>2026-06-16T10:55:46.000Z</time>
        <extensions>
          <ns3:TrackPointExtension>
            <ns3:atemp>17.0</ns3:atemp>
          </ns3:TrackPointExtension>
        </extensions>
      </trkpt>
      <trkpt lat="42.6143475808203220367431640625" lon="19.88236315548419952392578125">
        <ele>1940.4000244140625</ele>
        <time>2026-06-16T10:55:47.000Z</time>
        <extensions>
          <ns3:TrackPointExtension>
            <ns3:atemp>17.0</ns3:atemp>
          </ns3:TrackPointExtension>
        </extensions>
      </trkpt>
      <trkpt lat="42.6143713854253292083740234375" lon="19.882359467446804046630859375">
        <ele>1940.4000244140625</ele>
        <time>2026-06-16T10:55:48.000Z</time>
        <extensions>
          <ns3:TrackPointExtension>
            <ns3:atemp>17.0</ns3:atemp>
          </ns3:TrackPointExtension>
        </extensions>
      </trkpt>
      <trkpt lat="42.614394016563892364501953125" lon="19.8823505826294422149658203125">
        <ele>1940.5999755859375</ele>
        <time>2026-06-16T10:55:49.000Z</time>
        <extensions>
          <ns3:TrackPointExtension>
            <ns3:atemp>17.0</ns3:atemp>
          </ns3:TrackPointExtension>
        </extensions>
      </trkpt>
      <trkpt lat="42.61441153474152088165283203125" lon="19.88233842886984348297119140625">
        <ele>1940.800048828125</ele>
        <time>2026-06-16T10:55:50.000Z</time>
        <extensions>
          <ns3:TrackPointExtension>
            <ns3:atemp>17.0</ns3:atemp>
          </ns3:TrackPointExtension>
        </extensions>
      </trkpt>
      <trkpt lat="42.61442997492849826812744140625" lon="19.88233373500406742095947265625">
        <ele>1941</ele>
        <time>2026-06-16T10:55:51.000Z</time>
        <extensions>
          <ns3:TrackPointExtension>
            <ns3:atemp>17.0</ns3:atemp>
          </ns3:TrackPointExtension>
        </extensions>
      </trkpt>
      <trkpt lat="42.614451013505458831787109375" lon="19.8823297955095767974853515625">
        <ele>1941</ele>
        <time>2026-06-16T10:55:52.000Z</time>
        <extensions>
          <ns3:TrackPointExtension>
            <ns3:atemp>17.0</ns3:atemp>
          </ns3:TrackPointExtension>
        </extensions>
      </trkpt>
      <trkpt lat="42.61447615921497344970703125" lon="19.8823247663676738739013671875">
        <ele>1941</ele>
        <time>2026-06-16T10:55:53.000Z</time>
        <extensions>
          <ns3:TrackPointExtension>
            <ns3:atemp>17.0</ns3:atemp>
          </ns3:TrackPointExtension>
        </extensions>
      </trkpt>
      <trkpt lat="42.6145024783909320831298828125" lon="19.8823133669793605804443359375">
        <ele>1941</ele>
        <time>2026-06-16T10:55:54.000Z</time>
        <extensions>
          <ns3:TrackPointExtension>
            <ns3:atemp>17.0</ns3:atemp>
          </ns3:TrackPointExtension>
        </extensions>
      </trkpt>
      <trkpt lat="42.61453106068074703216552734375" lon="19.88230548799037933349609375">
        <ele>1941</ele>
        <time>2026-06-16T10:55:55.000Z</time>
        <extensions>
          <ns3:TrackPointExtension>
            <ns3:atemp>17.0</ns3:atemp>
          </ns3:TrackPointExtension>
        </extensions>
      </trkpt>
      <trkpt lat="42.61455704458057880401611328125" lon="19.8823046498000621795654296875">
        <ele>1941</ele>
        <time>2026-06-16T10:55:56.000Z</time>
        <extensions>
          <ns3:TrackPointExtension>
            <ns3:atemp>17.0</ns3:atemp>
          </ns3:TrackPointExtension>
        </extensions>
      </trkpt>
      <trkpt lat="42.6145802624523639678955078125" lon="19.88229878246784210205078125">
        <ele>1941</ele>
        <time>2026-06-16T10:55:57.000Z</time>
        <extensions>
          <ns3:TrackPointExtension>
            <ns3:atemp>17.0</ns3:atemp>
          </ns3:TrackPointExtension>
        </extensions>
      </trkpt>
      <trkpt lat="42.6146033965051174163818359375" lon="19.8822791688144207000732421875">
        <ele>1941</ele>
        <time>2026-06-16T10:55:58.000Z</time>
        <extensions>
          <ns3:TrackPointExtension>
            <ns3:atemp>17.0</ns3:atemp>
          </ns3:TrackPointExtension>
        </extensions>
      </trkpt>
      <trkpt lat="42.614633738994598388671875" lon="19.88225041888654232025146484375">
        <ele>1940.5999755859375</ele>
        <time>2026-06-16T10:55:59.000Z</time>
        <extensions>
          <ns3:TrackPointExtension>
            <ns3:atemp>17.0</ns3:atemp>
          </ns3:TrackPointExtension>
        </extensions>
      </trkpt>
      <trkpt lat="42.61466927826404571533203125" lon="19.88222728483378887176513671875">
        <ele>1940.4000244140625</ele>
        <time>2026-06-16T10:56:00.000Z</time>
        <extensions>
          <ns3:TrackPointExtension>
            <ns3:atemp>17.0</ns3:atemp>
          </ns3:TrackPointExtension>
        </extensions>
      </trkpt>
      <trkpt lat="42.614695094525814056396484375" lon="19.88221228122711181640625">
        <ele>1940.199951171875</ele>
        <time>2026-06-16T10:56:01.000Z</time>
        <extensions>
          <ns3:TrackPointExtension>
            <ns3:atemp>17.0</ns3:atemp>
          </ns3:TrackPointExtension>
        </extensions>
      </trkpt>
      <trkpt lat="42.61471294797956943511962890625" lon="19.88220113329589366912841796875">
        <ele>1939.800048828125</ele>
        <time>2026-06-16T10:56:02.000Z</time>
        <extensions>
          <ns3:TrackPointExtension>
            <ns3:atemp>17.0</ns3:atemp>
          </ns3:TrackPointExtension>
        </extensions>
      </trkpt>
      <trkpt lat="42.61472702957689762115478515625" lon="19.88219241611659526824951171875">
        <ele>1939.5999755859375</ele>
        <time>2026-06-16T10:56:03.000Z</time>
        <extensions>
          <ns3:TrackPointExtension>
            <ns3:atemp>17.0</ns3:atemp>
          </ns3:TrackPointExtension>
        </extensions>
      </trkpt>
      <trkpt lat="42.61474429629743099212646484375" lon="19.8821765743196010589599609375">
        <ele>1939.5999755859375</ele>
        <time>2026-06-16T10:56:04.000Z</time>
        <extensions>
          <ns3:TrackPointExtension>
            <ns3:atemp>17.0</ns3:atemp>
          </ns3:TrackPointExtension>
        </extensions>
      </trkpt>
      <trkpt lat="42.614762820303440093994140625" lon="19.88215603865683078765869140625">
        <ele>1939.5999755859375</ele>
        <time>2026-06-16T10:56:05.000Z</time>
        <extensions>
          <ns3:TrackPointExtension>
            <ns3:atemp>17.0</ns3:atemp>
          </ns3:TrackPointExtension>
        </extensions>
      </trkpt>
      <trkpt lat="42.61478033848106861114501953125" lon="19.88214061595499515533447265625">
        <ele>1939.800048828125</ele>
        <time>2026-06-16T10:56:06.000Z</time>
        <extensions>
          <ns3:TrackPointExtension>
            <ns3:atemp>17.0</ns3:atemp>
          </ns3:TrackPointExtension>
        </extensions>
      </trkpt>
      <trkpt lat="42.6147906482219696044921875" lon="19.88212653435766696929931640625">
        <ele>1939.800048828125</ele>
        <time>2026-06-16T10:56:07.000Z</time>
        <extensions>
          <ns3:TrackPointExtension>
            <ns3:atemp>17.0</ns3:atemp>
          </ns3:TrackPointExtension>
        </extensions>
      </trkpt>
      <trkpt lat="42.61479659937322139739990234375" lon="19.8821179009974002838134765625">
        <ele>1939.800048828125</ele>
        <time>2026-06-16T10:56:08.000Z</time>
        <extensions>
          <ns3:TrackPointExtension>
            <ns3:atemp>17.0</ns3:atemp>
          </ns3:TrackPointExtension>
        </extensions>
      </trkpt>
      <trkpt lat="42.6147948391735553741455078125" lon="19.882113039493560791015625">
        <ele>1940</ele>
        <time>2026-06-16T10:56:09.000Z</time>
        <extensions>
          <ns3:TrackPointExtension>
            <ns3:atemp>17.0</ns3:atemp>
          </ns3:TrackPointExtension>
        </extensions>
      </trkpt>
      <trkpt lat="42.6147960126399993896484375" lon="19.88211345858871936798095703125">
        <ele>1940</ele>
        <time>2026-06-16T10:56:10.000Z</time>
        <extensions>
          <ns3:TrackPointExtension>
            <ns3:atemp>17.0</ns3:atemp>
          </ns3:TrackPointExtension>
        </extensions>
      </trkpt>
      <trkpt lat="42.6147960126399993896484375" lon="19.88211345858871936798095703125">
        <ele>1940</ele>
        <time>2026-06-16T10:56:11.000Z</time>
        <extensions>
          <ns3:TrackPointExtension>
            <ns3:atemp>17.0</ns3:atemp>
          </ns3:TrackPointExtension>
        </extensions>
      </trkpt>
      <trkpt lat="42.6147960126399993896484375" lon="19.88211345858871936798095703125">
        <ele>1940</ele>
        <time>2026-06-16T10:56:12.000Z</time>
        <extensions>
          <ns3:TrackPointExtension>
            <ns3:atemp>17.0</ns3:atemp>
          </ns3:TrackPointExtension>
        </extensions>
      </trkpt>
      <trkpt lat="42.6147960126399993896484375" lon="19.88211345858871936798095703125">
        <ele>1940</ele>
        <time>2026-06-16T10:56:13.000Z</time>
        <extensions>
          <ns3:TrackPointExtension>
            <ns3:atemp>17.0</ns3:atemp>
          </ns3:TrackPointExtension>
        </extensions>
      </trkpt>
      <trkpt lat="42.6147960126399993896484375" lon="19.88211345858871936798095703125">
        <ele>1939.800048828125</ele>
        <time>2026-06-16T10:56:14.000Z</time>
        <extensions>
          <ns3:TrackPointExtension>
            <ns3:atemp>17.0</ns3:atemp>
          </ns3:TrackPointExtension>
        </extensions>
      </trkpt>
      <trkpt lat="42.6147960126399993896484375" lon="19.88211345858871936798095703125">
        <ele>1939.800048828125</ele>
        <time>2026-06-16T10:56:15.000Z</time>
        <extensions>
          <ns3:TrackPointExtension>
            <ns3:atemp>17.0</ns3:atemp>
          </ns3:TrackPointExtension>
        </extensions>
      </trkpt>
      <trkpt lat="42.6147960126399993896484375" lon="19.88211345858871936798095703125">
        <ele>1939.800048828125</ele>
        <time>2026-06-16T10:56:16.000Z</time>
        <extensions>
          <ns3:TrackPointExtension>
            <ns3:atemp>17.0</ns3:atemp>
          </ns3:TrackPointExtension>
        </extensions>
      </trkpt>
      <trkpt lat="42.6147960126399993896484375" lon="19.88211345858871936798095703125">
        <ele>1939.5999755859375</ele>
        <time>2026-06-16T10:56:17.000Z</time>
        <extensions>
          <ns3:TrackPointExtension>
            <ns3:atemp>17.0</ns3:atemp>
          </ns3:TrackPointExtension>
        </extensions>
      </trkpt>
      <trkpt lat="42.6147960126399993896484375" lon="19.88211345858871936798095703125">
        <ele>1939.5999755859375</ele>
        <time>2026-06-16T10:56:18.000Z</time>
        <extensions>
          <ns3:TrackPointExtension>
            <ns3:atemp>17.0</ns3:atemp>
          </ns3:TrackPointExtension>
        </extensions>
      </trkpt>
      <trkpt lat="42.6147960126399993896484375" lon="19.88211345858871936798095703125">
        <ele>1939.5999755859375</ele>
        <time>2026-06-16T10:56:19.000Z</time>
        <extensions>
          <ns3:TrackPointExtension>
            <ns3:atemp>17.0</ns3:atemp>
          </ns3:TrackPointExtension>
        </extensions>
      </trkpt>
      <trkpt lat="42.6147960126399993896484375" lon="19.88211345858871936798095703125">
        <ele>1939.5999755859375</ele>
        <time>2026-06-16T10:56:20.000Z</time>
        <extensions>
          <ns3:TrackPointExtension>
            <ns3:atemp>17.0</ns3:atemp>
          </ns3:TrackPointExtension>
        </extensions>
      </trkpt>
      <trkpt lat="42.6147960126399993896484375" lon="19.88211345858871936798095703125">
        <ele>1939.5999755859375</ele>
        <time>2026-06-16T10:56:21.000Z</time>
        <extensions>
          <ns3:TrackPointExtension>
            <ns3:atemp>17.0</ns3:atemp>
          </ns3:TrackPointExtension>
        </extensions>
      </trkpt>
      <trkpt lat="42.6147960126399993896484375" lon="19.88211345858871936798095703125">
        <ele>1939.4000244140625</ele>
        <time>2026-06-16T10:56:22.000Z</time>
        <extensions>
          <ns3:TrackPointExtension>
            <ns3:atemp>17.0</ns3:atemp>
          </ns3:TrackPointExtension>
        </extensions>
      </trkpt>
      <trkpt lat="42.6147960126399993896484375" lon="19.88211345858871936798095703125">
        <ele>1939.4000244140625</ele>
        <time>2026-06-16T10:56:23.000Z</time>
        <extensions>
          <ns3:TrackPointExtension>
            <ns3:atemp>17.0</ns3:atemp>
          </ns3:TrackPointExtension>
        </extensions>
      </trkpt>
      <trkpt lat="42.6147960126399993896484375" lon="19.88211345858871936798095703125">
        <ele>1939.4000244140625</ele>
        <time>2026-06-16T10:56:24.000Z</time>
        <extensions>
          <ns3:TrackPointExtension>
            <ns3:atemp>17.0</ns3:atemp>
          </ns3:TrackPointExtension>
        </extensions>
      </trkpt>
      <trkpt lat="42.6147960126399993896484375" lon="19.88211345858871936798095703125">
        <ele>1939.199951171875</ele>
        <time>2026-06-16T10:56:25.000Z</time>
        <extensions>
          <ns3:TrackPointExtension>
            <ns3:atemp>17.0</ns3:atemp>
          </ns3:TrackPointExtension>
        </extensions>
      </trkpt>
      <trkpt lat="42.6147960126399993896484375" lon="19.88211345858871936798095703125">
        <ele>1939.199951171875</ele>
        <time>2026-06-16T10:56:26.000Z</time>
        <extensions>
          <ns3:TrackPointExtension>
            <ns3:atemp>17.0</ns3:atemp>
          </ns3:TrackPointExtension>
        </extensions>
      </trkpt>
      <trkpt lat="42.6147960126399993896484375" lon="19.88211345858871936798095703125">
        <ele>1939.199951171875</ele>
        <time>2026-06-16T10:56:27.000Z</time>
        <extensions>
          <ns3:TrackPointExtension>
            <ns3:atemp>17.0</ns3:atemp>
          </ns3:TrackPointExtension>
        </extensions>
      </trkpt>
      <trkpt lat="42.6147960126399993896484375" lon="19.88211345858871936798095703125">
        <ele>1939.199951171875</ele>
        <time>2026-06-16T10:56:28.000Z</time>
        <extensions>
          <ns3:TrackPointExtension>
            <ns3:atemp>17.0</ns3:atemp>
          </ns3:TrackPointExtension>
        </extensions>
      </trkpt>
      <trkpt lat="42.6147960126399993896484375" lon="19.88211345858871936798095703125">
        <ele>1939.199951171875</ele>
        <time>2026-06-16T10:56:29.000Z</time>
        <extensions>
          <ns3:TrackPointExtension>
            <ns3:atemp>17.0</ns3:atemp>
          </ns3:TrackPointExtension>
        </extensions>
      </trkpt>
      <trkpt lat="42.6147960126399993896484375" lon="19.88211345858871936798095703125">
        <ele>1939.199951171875</ele>
        <time>2026-06-16T10:56:30.000Z</time>
        <extensions>
          <ns3:TrackPointExtension>
            <ns3:atemp>17.0</ns3:atemp>
          </ns3:TrackPointExtension>
        </extensions>
      </trkpt>
      <trkpt lat="42.6147960126399993896484375" lon="19.88211345858871936798095703125">
        <ele>1939.199951171875</ele>
        <time>2026-06-16T10:56:31.000Z</time>
        <extensions>
          <ns3:TrackPointExtension>
            <ns3:atemp>17.0</ns3:atemp>
          </ns3:TrackPointExtension>
        </extensions>
      </trkpt>
      <trkpt lat="42.6147960126399993896484375" lon="19.88211345858871936798095703125">
        <ele>1939</ele>
        <time>2026-06-16T10:56:32.000Z</time>
        <extensions>
          <ns3:TrackPointExtension>
            <ns3:atemp>17.0</ns3:atemp>
          </ns3:TrackPointExtension>
        </extensions>
      </trkpt>
      <trkpt lat="42.6147960126399993896484375" lon="19.88211345858871936798095703125">
        <ele>1939</ele>
        <time>2026-06-16T10:56:33.000Z</time>
        <extensions>
          <ns3:TrackPointExtension>
            <ns3:atemp>17.0</ns3:atemp>
          </ns3:TrackPointExtension>
        </extensions>
      </trkpt>
      <trkpt lat="42.6147960126399993896484375" lon="19.88211345858871936798095703125">
        <ele>1939</ele>
        <time>2026-06-16T10:56:34.000Z</time>
        <extensions>
          <ns3:TrackPointExtension>
            <ns3:atemp>17.0</ns3:atemp>
          </ns3:TrackPointExtension>
        </extensions>
      </trkpt>
      <trkpt lat="42.6147960126399993896484375" lon="19.88211345858871936798095703125">
        <ele>1939</ele>
        <time>2026-06-16T10:56:35.000Z</time>
        <extensions>
          <ns3:TrackPointExtension>
            <ns3:atemp>17.0</ns3:atemp>
          </ns3:TrackPointExtension>
        </extensions>
      </trkpt>
      <trkpt lat="42.6147960126399993896484375" lon="19.88211345858871936798095703125">
        <ele>1939</ele>
        <time>2026-06-16T10:56:36.000Z</time>
        <extensions>
          <ns3:TrackPointExtension>
            <ns3:atemp>17.0</ns3:atemp>
          </ns3:TrackPointExtension>
        </extensions>
      </trkpt>
      <trkpt lat="42.6147960126399993896484375" lon="19.88211345858871936798095703125">
        <ele>1939.199951171875</ele>
        <time>2026-06-16T10:56:37.000Z</time>
        <extensions>
          <ns3:TrackPointExtension>
            <ns3:atemp>17.0</ns3:atemp>
          </ns3:TrackPointExtension>
        </extensions>
      </trkpt>
      <trkpt lat="42.6147960126399993896484375" lon="19.88211345858871936798095703125">
        <ele>1939.199951171875</ele>
        <time>2026-06-16T10:56:38.000Z</time>
        <extensions>
          <ns3:TrackPointExtension>
            <ns3:atemp>17.0</ns3:atemp>
          </ns3:TrackPointExtension>
        </extensions>
      </trkpt>
      <trkpt lat="42.6147960126399993896484375" lon="19.88211345858871936798095703125">
        <ele>1939.199951171875</ele>
        <time>2026-06-16T10:56:39.000Z</time>
        <extensions>
          <ns3:TrackPointExtension>
            <ns3:atemp>17.0</ns3:atemp>
          </ns3:TrackPointExtension>
        </extensions>
      </trkpt>
      <trkpt lat="42.6147960126399993896484375" lon="19.88211345858871936798095703125">
        <ele>1939.199951171875</ele>
        <time>2026-06-16T10:56:40.000Z</time>
        <extensions>
          <ns3:TrackPointExtension>
            <ns3:atemp>17.0</ns3:atemp>
          </ns3:TrackPointExtension>
        </extensions>
      </trkpt>
      <trkpt lat="42.6147960126399993896484375" lon="19.88211345858871936798095703125">
        <ele>1939.199951171875</ele>
        <time>2026-06-16T10:56:41.000Z</time>
        <extensions>
          <ns3:TrackPointExtension>
            <ns3:atemp>17.0</ns3:atemp>
          </ns3:TrackPointExtension>
        </extensions>
      </trkpt>
      <trkpt lat="42.6147960126399993896484375" lon="19.88211345858871936798095703125">
        <ele>1939.199951171875</ele>
        <time>2026-06-16T10:56:42.000Z</time>
        <extensions>
          <ns3:TrackPointExtension>
            <ns3:atemp>17.0</ns3:atemp>
          </ns3:TrackPointExtension>
        </extensions>
      </trkpt>
      <trkpt lat="42.6147960126399993896484375" lon="19.88211345858871936798095703125">
        <ele>1939.199951171875</ele>
        <time>2026-06-16T10:56:43.000Z</time>
        <extensions>
          <ns3:TrackPointExtension>
            <ns3:atemp>17.0</ns3:atemp>
          </ns3:TrackPointExtension>
        </extensions>
      </trkpt>
      <trkpt lat="42.6147960126399993896484375" lon="19.88211345858871936798095703125">
        <ele>1939.199951171875</ele>
        <time>2026-06-16T10:56:44.000Z</time>
        <extensions>
          <ns3:TrackPointExtension>
            <ns3:atemp>17.0</ns3:atemp>
          </ns3:TrackPointExtension>
        </extensions>
      </trkpt>
      <trkpt lat="42.6147960126399993896484375" lon="19.88211345858871936798095703125">
        <ele>1939.199951171875</ele>
        <time>2026-06-16T10:56:45.000Z</time>
        <extensions>
          <ns3:TrackPointExtension>
            <ns3:atemp>17.0</ns3:atemp>
          </ns3:TrackPointExtension>
        </extensions>
      </trkpt>
      <trkpt lat="42.61479794047772884368896484375" lon="19.8821138776838779449462890625">
        <ele>1939.199951171875</ele>
        <time>2026-06-16T10:56:46.000Z</time>
        <extensions>
          <ns3:TrackPointExtension>
            <ns3:atemp>17.0</ns3:atemp>
          </ns3:TrackPointExtension>
        </extensions>
      </trkpt>
      <trkpt lat="42.6148112677037715911865234375" lon="19.88210474140942096710205078125">
        <ele>1939.199951171875</ele>
        <time>2026-06-16T10:56:47.000Z</time>
        <extensions>
          <ns3:TrackPointExtension>
            <ns3:atemp>17.0</ns3:atemp>
          </ns3:TrackPointExtension>
        </extensions>
      </trkpt>
      <trkpt lat="42.61482493020594120025634765625" lon="19.882091246545314788818359375">
        <ele>1939</ele>
        <time>2026-06-16T10:56:48.000Z</time>
        <extensions>
          <ns3:TrackPointExtension>
            <ns3:atemp>17.0</ns3:atemp>
          </ns3:TrackPointExtension>
        </extensions>
      </trkpt>
      <trkpt lat="42.6148389279842376708984375" lon="19.8820743151009082794189453125">
        <ele>1939</ele>
        <time>2026-06-16T10:56:49.000Z</time>
        <extensions>
          <ns3:TrackPointExtension>
            <ns3:atemp>17.0</ns3:atemp>
          </ns3:TrackPointExtension>
        </extensions>
      </trkpt>
      <trkpt lat="42.61485728435218334197998046875" lon="19.88205679692327976226806640625">
        <ele>1938.800048828125</ele>
        <time>2026-06-16T10:56:50.000Z</time>
        <extensions>
          <ns3:TrackPointExtension>
            <ns3:atemp>17.0</ns3:atemp>
          </ns3:TrackPointExtension>
        </extensions>
      </trkpt>
      <trkpt lat="42.61488360352814197540283203125" lon="19.8820300586521625518798828125">
        <ele>1938.800048828125</ele>
        <time>2026-06-16T10:56:51.000Z</time>
        <extensions>
          <ns3:TrackPointExtension>
            <ns3:atemp>17.0</ns3:atemp>
          </ns3:TrackPointExtension>
        </extensions>
      </trkpt>
      <trkpt lat="42.6149061508476734161376953125" lon="19.88199426792562007904052734375">
        <ele>1938.5999755859375</ele>
        <time>2026-06-16T10:56:52.000Z</time>
        <extensions>
          <ns3:TrackPointExtension>
            <ns3:atemp>17.0</ns3:atemp>
          </ns3:TrackPointExtension>
        </extensions>
      </trkpt>
      <trkpt lat="42.61492048390209674835205078125" lon="19.8819534480571746826171875">
        <ele>1938.4000244140625</ele>
        <time>2026-06-16T10:56:53.000Z</time>
        <extensions>
          <ns3:TrackPointExtension>
            <ns3:atemp>17.0</ns3:atemp>
          </ns3:TrackPointExtension>
        </extensions>
      </trkpt>
      <trkpt lat="42.6149359904229640960693359375" lon="19.88192402757704257965087890625">
        <ele>1938.199951171875</ele>
        <time>2026-06-16T10:56:54.000Z</time>
        <extensions>
          <ns3:TrackPointExtension>
            <ns3:atemp>17.0</ns3:atemp>
          </ns3:TrackPointExtension>
        </extensions>
      </trkpt>
      <trkpt lat="42.61494898237287998199462890625" lon="19.88189117051661014556884765625">
        <ele>1938</ele>
        <time>2026-06-16T10:56:55.000Z</time>
        <extensions>
          <ns3:TrackPointExtension>
            <ns3:atemp>17.0</ns3:atemp>
          </ns3:TrackPointExtension>
        </extensions>
      </trkpt>
      <trkpt lat="42.61495786719024181365966796875" lon="19.881857894361019134521484375">
        <ele>1937.800048828125</ele>
        <time>2026-06-16T10:56:56.000Z</time>
        <extensions>
          <ns3:TrackPointExtension>
            <ns3:atemp>17.0</ns3:atemp>
          </ns3:TrackPointExtension>
        </extensions>
      </trkpt>
      <trkpt lat="42.614972032606601715087890625" lon="19.88181506283581256866455078125">
        <ele>1937.4000244140625</ele>
        <time>2026-06-16T10:56:57.000Z</time>
        <extensions>
          <ns3:TrackPointExtension>
            <ns3:atemp>17.0</ns3:atemp>
          </ns3:TrackPointExtension>
        </extensions>
      </trkpt>
      <trkpt lat="42.61499105952680110931396484375" lon="19.88177600316703319549560546875">
        <ele>1937</ele>
        <time>2026-06-16T10:56:58.000Z</time>
        <extensions>
          <ns3:TrackPointExtension>
            <ns3:atemp>17.0</ns3:atemp>
          </ns3:TrackPointExtension>
        </extensions>
      </trkpt>
      <trkpt lat="42.61501754634082317352294921875" lon="19.88173895515501499176025390625">
        <ele>1936.5999755859375</ele>
        <time>2026-06-16T10:56:59.000Z</time>
        <extensions>
          <ns3:TrackPointExtension>
            <ns3:atemp>17.0</ns3:atemp>
          </ns3:TrackPointExtension>
        </extensions>
      </trkpt>
      <trkpt lat="42.61505392380058765411376953125" lon="19.88170039840042591094970703125">
        <ele>1936.4000244140625</ele>
        <time>2026-06-16T10:57:00.000Z</time>
        <extensions>
          <ns3:TrackPointExtension>
            <ns3:atemp>17.0</ns3:atemp>
          </ns3:TrackPointExtension>
        </extensions>
      </trkpt>
      <trkpt lat="42.61509030126035213470458984375" lon="19.88166469149291515350341796875">
        <ele>1936.4000244140625</ele>
        <time>2026-06-16T10:57:01.000Z</time>
        <extensions>
          <ns3:TrackPointExtension>
            <ns3:atemp>17.0</ns3:atemp>
          </ns3:TrackPointExtension>
        </extensions>
      </trkpt>
      <trkpt lat="42.61513338424265384674072265625" lon="19.8816381208598613739013671875">
        <ele>1936</ele>
        <time>2026-06-16T10:57:02.000Z</time>
        <extensions>
          <ns3:TrackPointExtension>
            <ns3:atemp>17.0</ns3:atemp>
          </ns3:TrackPointExtension>
        </extensions>
      </trkpt>
      <trkpt lat="42.6151783950626850128173828125" lon="19.881623201072216033935546875">
        <ele>1935.800048828125</ele>
        <time>2026-06-16T10:57:03.000Z</time>
        <extensions>
          <ns3:TrackPointExtension>
            <ns3:atemp>17.0</ns3:atemp>
          </ns3:TrackPointExtension>
        </extensions>
      </trkpt>
      <trkpt lat="42.6152219809591770172119140625" lon="19.88161155022680759429931640625">
        <ele>1935.5999755859375</ele>
        <time>2026-06-16T10:57:04.000Z</time>
        <extensions>
          <ns3:TrackPointExtension>
            <ns3:atemp>17.0</ns3:atemp>
          </ns3:TrackPointExtension>
        </extensions>
      </trkpt>
      <trkpt lat="42.6152591966092586517333984375" lon="19.881598055362701416015625">
        <ele>1935.199951171875</ele>
        <time>2026-06-16T10:57:05.000Z</time>
        <extensions>
          <ns3:TrackPointExtension>
            <ns3:atemp>17.0</ns3:atemp>
          </ns3:TrackPointExtension>
        </extensions>
      </trkpt>
      <trkpt lat="42.61529163457453250885009765625" lon="19.88158757798373699188232421875">
        <ele>1935</ele>
        <time>2026-06-16T10:57:06.000Z</time>
        <extensions>
          <ns3:TrackPointExtension>
            <ns3:atemp>17.0</ns3:atemp>
          </ns3:TrackPointExtension>
        </extensions>
      </trkpt>
      <trkpt lat="42.61532373726367950439453125" lon="19.88157500512897968292236328125">
        <ele>1935</ele>
        <time>2026-06-16T10:57:07.000Z</time>
        <extensions>
          <ns3:TrackPointExtension>
            <ns3:atemp>17.0</ns3:atemp>
          </ns3:TrackPointExtension>
        </extensions>
      </trkpt>
      <trkpt lat="42.61535324156284332275390625" lon="19.88157165236771106719970703125">
        <ele>1935</ele>
        <time>2026-06-16T10:57:08.000Z</time>
        <extensions>
          <ns3:TrackPointExtension>
            <ns3:atemp>17.0</ns3:atemp>
          </ns3:TrackPointExtension>
        </extensions>
      </trkpt>
      <trkpt lat="42.6153775490820407867431640625" lon="19.88157215528190135955810546875">
        <ele>1934.800048828125</ele>
        <time>2026-06-16T10:57:09.000Z</time>
        <extensions>
          <ns3:TrackPointExtension>
            <ns3:atemp>17.0</ns3:atemp>
          </ns3:TrackPointExtension>
        </extensions>
      </trkpt>
      <trkpt lat="42.61540462262928485870361328125" lon="19.88157550804316997528076171875">
        <ele>1934.800048828125</ele>
        <time>2026-06-16T10:57:10.000Z</time>
        <extensions>
          <ns3:TrackPointExtension>
            <ns3:atemp>17.0</ns3:atemp>
          </ns3:TrackPointExtension>
        </extensions>
      </trkpt>
      <trkpt lat="42.61543236672878265380859375" lon="19.8815714009106159210205078125">
        <ele>1934.5999755859375</ele>
        <time>2026-06-16T10:57:11.000Z</time>
        <extensions>
          <ns3:TrackPointExtension>
            <ns3:atemp>17.0</ns3:atemp>
          </ns3:TrackPointExtension>
        </extensions>
      </trkpt>
      <trkpt lat="42.61546882800757884979248046875" lon="19.88155589438974857330322265625">
        <ele>1934.5999755859375</ele>
        <time>2026-06-16T10:57:12.000Z</time>
        <extensions>
          <ns3:TrackPointExtension>
            <ns3:atemp>17.0</ns3:atemp>
          </ns3:TrackPointExtension>
        </extensions>
      </trkpt>
      <trkpt lat="42.61550612747669219970703125" lon="19.881515912711620330810546875">
        <ele>1934.4000244140625</ele>
        <time>2026-06-16T10:57:13.000Z</time>
        <extensions>
          <ns3:TrackPointExtension>
            <ns3:atemp>17.0</ns3:atemp>
          </ns3:TrackPointExtension>
        </extensions>
      </trkpt>
      <trkpt lat="42.61554208584129810333251953125" lon="19.881502501666545867919921875">
        <ele>1934.4000244140625</ele>
        <time>2026-06-16T10:57:14.000Z</time>
        <extensions>
          <ns3:TrackPointExtension>
            <ns3:atemp>17.0</ns3:atemp>
          </ns3:TrackPointExtension>
        </extensions>
      </trkpt>
      <trkpt lat="42.61557293124496936798095703125" lon="19.88150811754167079925537109375">
        <ele>1934.199951171875</ele>
        <time>2026-06-16T10:57:15.000Z</time>
        <extensions>
          <ns3:TrackPointExtension>
            <ns3:atemp>17.0</ns3:atemp>
          </ns3:TrackPointExtension>
        </extensions>
      </trkpt>
      <trkpt lat="42.6156095601618289947509765625" lon="19.88151951692998409271240234375">
        <ele>1934</ele>
        <time>2026-06-16T10:57:16.000Z</time>
        <extensions>
          <ns3:TrackPointExtension>
            <ns3:atemp>17.0</ns3:atemp>
          </ns3:TrackPointExtension>
        </extensions>
      </trkpt>
      <trkpt lat="42.61564451269805431365966796875" lon="19.88152571953833103179931640625">
        <ele>1933.800048828125</ele>
        <time>2026-06-16T10:57:17.000Z</time>
        <extensions>
          <ns3:TrackPointExtension>
            <ns3:atemp>17.0</ns3:atemp>
          </ns3:TrackPointExtension>
        </extensions>
      </trkpt>
      <trkpt lat="42.61567368172109127044677734375" lon="19.8815328441560268402099609375">
        <ele>1933.800048828125</ele>
        <time>2026-06-16T10:57:18.000Z</time>
        <extensions>
          <ns3:TrackPointExtension>
            <ns3:atemp>17.0</ns3:atemp>
          </ns3:TrackPointExtension>
        </extensions>
      </trkpt>
      <trkpt lat="42.61569798924028873443603515625" lon="19.881547428667545318603515625">
        <ele>1933.800048828125</ele>
        <time>2026-06-16T10:57:19.000Z</time>
        <extensions>
          <ns3:TrackPointExtension>
            <ns3:atemp>17.0</ns3:atemp>
          </ns3:TrackPointExtension>
        </extensions>
      </trkpt>
      <trkpt lat="42.61571592651307582855224609375" lon="19.88156729377806186676025390625">
        <ele>1933.800048828125</ele>
        <time>2026-06-16T10:57:20.000Z</time>
        <extensions>
          <ns3:TrackPointExtension>
            <ns3:atemp>17.0</ns3:atemp>
          </ns3:TrackPointExtension>
        </extensions>
      </trkpt>
      <trkpt lat="42.61573587544262409210205078125" lon="19.8815913498401641845703125">
        <ele>1934</ele>
        <time>2026-06-16T10:57:21.000Z</time>
        <extensions>
          <ns3:TrackPointExtension>
            <ns3:atemp>17.0</ns3:atemp>
          </ns3:TrackPointExtension>
        </extensions>
      </trkpt>
      <trkpt lat="42.61576152406632900238037109375" lon="19.881616495549678802490234375">
        <ele>1934</ele>
        <time>2026-06-16T10:57:22.000Z</time>
        <extensions>
          <ns3:TrackPointExtension>
            <ns3:atemp>17.0</ns3:atemp>
          </ns3:TrackPointExtension>
        </extensions>
      </trkpt>
      <trkpt lat="42.61579153127968311309814453125" lon="19.88163334317505359649658203125">
        <ele>1933.800048828125</ele>
        <time>2026-06-16T10:57:23.000Z</time>
        <extensions>
          <ns3:TrackPointExtension>
            <ns3:atemp>17.0</ns3:atemp>
          </ns3:TrackPointExtension>
        </extensions>
      </trkpt>
      <trkpt lat="42.615826316177845001220703125" lon="19.88164206035435199737548828125">
        <ele>1933.800048828125</ele>
        <time>2026-06-16T10:57:24.000Z</time>
        <extensions>
          <ns3:TrackPointExtension>
            <ns3:atemp>17.0</ns3:atemp>
          </ns3:TrackPointExtension>
        </extensions>
      </trkpt>
      <trkpt lat="42.61585942469537258148193359375" lon="19.88164876587688922882080078125">
        <ele>1933.5999755859375</ele>
        <time>2026-06-16T10:57:25.000Z</time>
        <extensions>
          <ns3:TrackPointExtension>
            <ns3:atemp>17.0</ns3:atemp>
          </ns3:TrackPointExtension>
        </extensions>
      </trkpt>
      <trkpt lat="42.61588943190872669219970703125" lon="19.88166033290326595306396484375">
        <ele>1933.5999755859375</ele>
        <time>2026-06-16T10:57:26.000Z</time>
        <extensions>
          <ns3:TrackPointExtension>
            <ns3:atemp>17.0</ns3:atemp>
          </ns3:TrackPointExtension>
        </extensions>
      </trkpt>
      <trkpt lat="42.615914829075336456298828125" lon="19.88166905008256435394287109375">
        <ele>1933.4000244140625</ele>
        <time>2026-06-16T10:57:27.000Z</time>
        <extensions>
          <ns3:TrackPointExtension>
            <ns3:atemp>17.0</ns3:atemp>
          </ns3:TrackPointExtension>
        </extensions>
      </trkpt>
      <trkpt lat="42.61593972332775592803955078125" lon="19.8816840536892414093017578125">
        <ele>1933.4000244140625</ele>
        <time>2026-06-16T10:57:28.000Z</time>
        <extensions>
          <ns3:TrackPointExtension>
            <ns3:atemp>17.0</ns3:atemp>
          </ns3:TrackPointExtension>
        </extensions>
      </trkpt>
      <trkpt lat="42.61596000753343105316162109375" lon="19.881696291267871856689453125">
        <ele>1933.4000244140625</ele>
        <time>2026-06-16T10:57:29.000Z</time>
        <extensions>
          <ns3:TrackPointExtension>
            <ns3:atemp>17.0</ns3:atemp>
          </ns3:TrackPointExtension>
        </extensions>
      </trkpt>
      <trkpt lat="42.61598314158618450164794921875" lon="19.8817075230181217193603515625">
        <ele>1933.4000244140625</ele>
        <time>2026-06-16T10:57:30.000Z</time>
        <extensions>
          <ns3:TrackPointExtension>
            <ns3:atemp>17.0</ns3:atemp>
          </ns3:TrackPointExtension>
        </extensions>
      </trkpt>
      <trkpt lat="42.6160088740289211273193359375" lon="19.88172135315835475921630859375">
        <ele>1933.199951171875</ele>
        <time>2026-06-16T10:57:31.000Z</time>
        <extensions>
          <ns3:TrackPointExtension>
            <ns3:atemp>17.0</ns3:atemp>
          </ns3:TrackPointExtension>
        </extensions>
      </trkpt>
      <trkpt lat="42.6160323433578014373779296875" lon="19.88173878751695156097412109375">
        <ele>1933.199951171875</ele>
        <time>2026-06-16T10:57:32.000Z</time>
        <extensions>
          <ns3:TrackPointExtension>
            <ns3:atemp>17.0</ns3:atemp>
          </ns3:TrackPointExtension>
        </extensions>
      </trkpt>
      <trkpt lat="42.61605757288634777069091796875" lon="19.88175454549491405487060546875">
        <ele>1933</ele>
        <time>2026-06-16T10:57:33.000Z</time>
        <extensions>
          <ns3:TrackPointExtension>
            <ns3:atemp>17.0</ns3:atemp>
          </ns3:TrackPointExtension>
        </extensions>
      </trkpt>
      <trkpt lat="42.61608037166297435760498046875" lon="19.8817638494074344635009765625">
        <ele>1932.800048828125</ele>
        <time>2026-06-16T10:57:34.000Z</time>
        <extensions>
          <ns3:TrackPointExtension>
            <ns3:atemp>17.0</ns3:atemp>
          </ns3:TrackPointExtension>
        </extensions>
      </trkpt>
      <trkpt lat="42.6160993985831737518310546875" lon="19.88177147693932056427001953125">
        <ele>1932.800048828125</ele>
        <time>2026-06-16T10:57:35.000Z</time>
        <extensions>
          <ns3:TrackPointExtension>
            <ns3:atemp>18.0</ns3:atemp>
          </ns3:TrackPointExtension>
        </extensions>
      </trkpt>
      <trkpt lat="42.61611205525696277618408203125" lon="19.88177365623414516448974609375">
        <ele>1932.800048828125</ele>
        <time>2026-06-16T10:57:36.000Z</time>
        <extensions>
          <ns3:TrackPointExtension>
            <ns3:atemp>17.0</ns3:atemp>
          </ns3:TrackPointExtension>
        </extensions>
      </trkpt>
      <trkpt lat="42.616126723587512969970703125" lon="19.88177851773798465728759765625">
        <ele>1932.800048828125</ele>
        <time>2026-06-16T10:57:37.000Z</time>
        <extensions>
          <ns3:TrackPointExtension>
            <ns3:atemp>17.0</ns3:atemp>
          </ns3:TrackPointExtension>
        </extensions>
      </trkpt>
      <trkpt lat="42.61613703332841396331787109375" lon="19.8817826248705387115478515625">
        <ele>1932.5999755859375</ele>
        <time>2026-06-16T10:57:38.000Z</time>
        <extensions>
          <ns3:TrackPointExtension>
            <ns3:atemp>17.0</ns3:atemp>
          </ns3:TrackPointExtension>
        </extensions>
      </trkpt>
      <trkpt lat="42.616144828498363494873046875" lon="19.8817817866802215576171875">
        <ele>1932.800048828125</ele>
        <time>2026-06-16T10:57:39.000Z</time>
        <extensions>
          <ns3:TrackPointExtension>
            <ns3:atemp>17.0</ns3:atemp>
          </ns3:TrackPointExtension>
        </extensions>
      </trkpt>
      <trkpt lat="42.61615932919085025787353515625" lon="19.8817819543182849884033203125">
        <ele>1932.5999755859375</ele>
        <time>2026-06-16T10:57:40.000Z</time>
        <extensions>
          <ns3:TrackPointExtension>
            <ns3:atemp>17.0</ns3:atemp>
          </ns3:TrackPointExtension>
        </extensions>
      </trkpt>
      <trkpt lat="42.61617399752140045166015625" lon="19.8817866481840610504150390625">
        <ele>1932.5999755859375</ele>
        <time>2026-06-16T10:57:41.000Z</time>
        <extensions>
          <ns3:TrackPointExtension>
            <ns3:atemp>17.0</ns3:atemp>
          </ns3:TrackPointExtension>
        </extensions>
      </trkpt>
      <trkpt lat="42.616184055805206298828125" lon="19.8817926831543445587158203125">
        <ele>1932.5999755859375</ele>
        <time>2026-06-16T10:57:42.000Z</time>
        <extensions>
          <ns3:TrackPointExtension>
            <ns3:atemp>17.0</ns3:atemp>
          </ns3:TrackPointExtension>
        </extensions>
      </trkpt>
      <trkpt lat="42.6161899231374263763427734375" lon="19.88179243169724941253662109375">
        <ele>1932.5999755859375</ele>
        <time>2026-06-16T10:57:43.000Z</time>
        <extensions>
          <ns3:TrackPointExtension>
            <ns3:atemp>17.0</ns3:atemp>
          </ns3:TrackPointExtension>
        </extensions>
      </trkpt>
      <trkpt lat="42.616197802126407623291015625" lon="19.88179192878305912017822265625">
        <ele>1932.4000244140625</ele>
        <time>2026-06-16T10:57:44.000Z</time>
        <extensions>
          <ns3:TrackPointExtension>
            <ns3:atemp>17.0</ns3:atemp>
          </ns3:TrackPointExtension>
        </extensions>
      </trkpt>
      <trkpt lat="42.61620174162089824676513671875" lon="19.8817946948111057281494140625">
        <ele>1932.4000244140625</ele>
        <time>2026-06-16T10:57:45.000Z</time>
        <extensions>
          <ns3:TrackPointExtension>
            <ns3:atemp>17.0</ns3:atemp>
          </ns3:TrackPointExtension>
        </extensions>
      </trkpt>
      <trkpt lat="42.61620744131505489349365234375" lon="19.88179695792496204376220703125">
        <ele>1932.4000244140625</ele>
        <time>2026-06-16T10:57:46.000Z</time>
        <extensions>
          <ns3:TrackPointExtension>
            <ns3:atemp>17.0</ns3:atemp>
          </ns3:TrackPointExtension>
        </extensions>
      </trkpt>
      <trkpt lat="42.61622093617916107177734375" lon="19.8818000592291355133056640625">
        <ele>1932.4000244140625</ele>
        <time>2026-06-16T10:57:47.000Z</time>
        <extensions>
          <ns3:TrackPointExtension>
            <ns3:atemp>17.0</ns3:atemp>
          </ns3:TrackPointExtension>
        </extensions>
      </trkpt>
      <trkpt lat="42.61623593978583812713623046875" lon="19.8818034119904041290283203125">
        <ele>1932.4000244140625</ele>
        <time>2026-06-16T10:57:48.000Z</time>
        <extensions>
          <ns3:TrackPointExtension>
            <ns3:atemp>17.0</ns3:atemp>
          </ns3:TrackPointExtension>
        </extensions>
      </trkpt>
      <trkpt lat="42.61625488288700580596923828125" lon="19.8818099498748779296875">
        <ele>1932.4000244140625</ele>
        <time>2026-06-16T10:57:49.000Z</time>
        <extensions>
          <ns3:TrackPointExtension>
            <ns3:atemp>17.0</ns3:atemp>
          </ns3:TrackPointExtension>
        </extensions>
      </trkpt>
      <trkpt lat="42.61627600528299808502197265625" lon="19.88181464374065399169921875">
        <ele>1932.199951171875</ele>
        <time>2026-06-16T10:57:50.000Z</time>
        <extensions>
          <ns3:TrackPointExtension>
            <ns3:atemp>17.0</ns3:atemp>
          </ns3:TrackPointExtension>
        </extensions>
      </trkpt>
      <trkpt lat="42.6162975467741489410400390625" lon="19.881823696196079254150390625">
        <ele>1932</ele>
        <time>2026-06-16T10:57:51.000Z</time>
        <extensions>
          <ns3:TrackPointExtension>
            <ns3:atemp>17.0</ns3:atemp>
          </ns3:TrackPointExtension>
        </extensions>
      </trkpt>
      <trkpt lat="42.61632076464593410491943359375" lon="19.8818359337747097015380859375">
        <ele>1932</ele>
        <time>2026-06-16T10:57:52.000Z</time>
        <extensions>
          <ns3:TrackPointExtension>
            <ns3:atemp>17.0</ns3:atemp>
          </ns3:TrackPointExtension>
        </extensions>
      </trkpt>
      <trkpt lat="42.61634708382189273834228515625" lon="19.88184875808656215667724609375">
        <ele>1932</ele>
        <time>2026-06-16T10:57:53.000Z</time>
        <extensions>
          <ns3:TrackPointExtension>
            <ns3:atemp>17.0</ns3:atemp>
          </ns3:TrackPointExtension>
        </extensions>
      </trkpt>
      <trkpt lat="42.6163716427981853485107421875" lon="19.8818630911409854888916015625">
        <ele>1932</ele>
        <time>2026-06-16T10:57:54.000Z</time>
        <extensions>
          <ns3:TrackPointExtension>
            <ns3:atemp>18.0</ns3:atemp>
          </ns3:TrackPointExtension>
        </extensions>
      </trkpt>
      <trkpt lat="42.616394944489002227783203125" lon="19.8818781785666942596435546875">
        <ele>1932</ele>
        <time>2026-06-16T10:57:55.000Z</time>
        <extensions>
          <ns3:TrackPointExtension>
            <ns3:atemp>18.0</ns3:atemp>
          </ns3:TrackPointExtension>
        </extensions>
      </trkpt>
      <trkpt lat="42.6164145581424236297607421875" lon="19.88188949413597583770751953125">
        <ele>1932.199951171875</ele>
        <time>2026-06-16T10:57:56.000Z</time>
        <extensions>
          <ns3:TrackPointExtension>
            <ns3:atemp>18.0</ns3:atemp>
          </ns3:TrackPointExtension>
        </extensions>
      </trkpt>
      <trkpt lat="42.6164329983294010162353515625" lon="19.88189779222011566162109375">
        <ele>1932.4000244140625</ele>
        <time>2026-06-16T10:57:57.000Z</time>
        <extensions>
          <ns3:TrackPointExtension>
            <ns3:atemp>18.0</ns3:atemp>
          </ns3:TrackPointExtension>
        </extensions>
      </trkpt>
      <trkpt lat="42.616453282535076141357421875" lon="19.88190676085650920867919921875">
        <ele>1932.5999755859375</ele>
        <time>2026-06-16T10:57:58.000Z</time>
        <extensions>
          <ns3:TrackPointExtension>
            <ns3:atemp>18.0</ns3:atemp>
          </ns3:TrackPointExtension>
        </extensions>
      </trkpt>
      <trkpt lat="42.61647113598883152008056640625" lon="19.88192419521510601043701171875">
        <ele>1932.800048828125</ele>
        <time>2026-06-16T10:57:59.000Z</time>
        <extensions>
          <ns3:TrackPointExtension>
            <ns3:atemp>18.0</ns3:atemp>
          </ns3:TrackPointExtension>
        </extensions>
      </trkpt>
      <trkpt lat="42.6164858043193817138671875" lon="19.88194397650659084320068359375">
        <ele>1933</ele>
        <time>2026-06-16T10:58:00.000Z</time>
        <extensions>
          <ns3:TrackPointExtension>
            <ns3:atemp>18.0</ns3:atemp>
          </ns3:TrackPointExtension>
        </extensions>
      </trkpt>
      <trkpt lat="42.6165040768682956695556640625" lon="19.881964512169361114501953125">
        <ele>1933.199951171875</ele>
        <time>2026-06-16T10:58:01.000Z</time>
        <extensions>
          <ns3:TrackPointExtension>
            <ns3:atemp>18.0</ns3:atemp>
          </ns3:TrackPointExtension>
        </extensions>
      </trkpt>
      <trkpt lat="42.6165238581597805023193359375" lon="19.88198228180408477783203125">
        <ele>1933.199951171875</ele>
        <time>2026-06-16T10:58:02.000Z</time>
        <extensions>
          <ns3:TrackPointExtension>
            <ns3:atemp>18.0</ns3:atemp>
          </ns3:TrackPointExtension>
        </extensions>
      </trkpt>
      <trkpt lat="42.6165396161377429962158203125" lon="19.88199627958238124847412109375">
        <ele>1933.4000244140625</ele>
        <time>2026-06-16T10:58:03.000Z</time>
        <extensions>
          <ns3:TrackPointExtension>
            <ns3:atemp>18.0</ns3:atemp>
          </ns3:TrackPointExtension>
        </extensions>
      </trkpt>
      <trkpt lat="42.61655478738248348236083984375" lon="19.88201773725450038909912109375">
        <ele>1933.5999755859375</ele>
        <time>2026-06-16T10:58:04.000Z</time>
        <extensions>
          <ns3:TrackPointExtension>
            <ns3:atemp>18.0</ns3:atemp>
          </ns3:TrackPointExtension>
        </extensions>
      </trkpt>
      <trkpt lat="42.61656828224658966064453125" lon="19.8820384405553340911865234375">
        <ele>1933.800048828125</ele>
        <time>2026-06-16T10:58:05.000Z</time>
        <extensions>
          <ns3:TrackPointExtension>
            <ns3:atemp>18.0</ns3:atemp>
          </ns3:TrackPointExtension>
        </extensions>
      </trkpt>
      <trkpt lat="42.61658395640552043914794921875" lon="19.88205595873296260833740234375">
        <ele>1933.800048828125</ele>
        <time>2026-06-16T10:58:06.000Z</time>
        <extensions>
          <ns3:TrackPointExtension>
            <ns3:atemp>18.0</ns3:atemp>
          </ns3:TrackPointExtension>
        </extensions>
      </trkpt>
      <trkpt lat="42.61660273186862468719482421875" lon="19.88206869922578334808349609375">
        <ele>1933.800048828125</ele>
        <time>2026-06-16T10:58:07.000Z</time>
        <extensions>
          <ns3:TrackPointExtension>
            <ns3:atemp>18.0</ns3:atemp>
          </ns3:TrackPointExtension>
        </extensions>
      </trkpt>
      <trkpt lat="42.61662016622722148895263671875" lon="19.88207892514765262603759765625">
        <ele>1933.800048828125</ele>
        <time>2026-06-16T10:58:08.000Z</time>
        <extensions>
          <ns3:TrackPointExtension>
            <ns3:atemp>18.0</ns3:atemp>
          </ns3:TrackPointExtension>
        </extensions>
      </trkpt>
      <trkpt lat="42.61663810350000858306884765625" lon="19.88208948634564876556396484375">
        <ele>1934</ele>
        <time>2026-06-16T10:58:09.000Z</time>
        <extensions>
          <ns3:TrackPointExtension>
            <ns3:atemp>18.0</ns3:atemp>
          </ns3:TrackPointExtension>
        </extensions>
      </trkpt>
      <trkpt lat="42.6166521012783050537109375" lon="19.88210289739072322845458984375">
        <ele>1934</ele>
        <time>2026-06-16T10:58:10.000Z</time>
        <extensions>
          <ns3:TrackPointExtension>
            <ns3:atemp>18.0</ns3:atemp>
          </ns3:TrackPointExtension>
        </extensions>
      </trkpt>
      <trkpt lat="42.61666475795209407806396484375" lon="19.88212334923446178436279296875">
        <ele>1934.199951171875</ele>
        <time>2026-06-16T10:58:11.000Z</time>
        <extensions>
          <ns3:TrackPointExtension>
            <ns3:atemp>18.0</ns3:atemp>
          </ns3:TrackPointExtension>
        </extensions>
      </trkpt>
      <trkpt lat="42.61667666025459766387939453125" lon="19.8821460641920566558837890625">
        <ele>1934.4000244140625</ele>
        <time>2026-06-16T10:58:12.000Z</time>
        <extensions>
          <ns3:TrackPointExtension>
            <ns3:atemp>18.0</ns3:atemp>
          </ns3:TrackPointExtension>
        </extensions>
      </trkpt>
      <trkpt lat="42.6166938431560993194580078125" lon="19.8821685276925563812255859375">
        <ele>1934.5999755859375</ele>
        <time>2026-06-16T10:58:13.000Z</time>
        <extensions>
          <ns3:TrackPointExtension>
            <ns3:atemp>18.0</ns3:atemp>
          </ns3:TrackPointExtension>
        </extensions>
      </trkpt>
      <trkpt lat="42.616712115705013275146484375" lon="19.88218906335532665252685546875">
        <ele>1934.800048828125</ele>
        <time>2026-06-16T10:58:14.000Z</time>
        <extensions>
          <ns3:TrackPointExtension>
            <ns3:atemp>18.0</ns3:atemp>
          </ns3:TrackPointExtension>
        </extensions>
      </trkpt>
      <trkpt lat="42.61672477237880229949951171875" lon="19.88220850937068462371826171875">
        <ele>1934.800048828125</ele>
        <time>2026-06-16T10:58:15.000Z</time>
        <extensions>
          <ns3:TrackPointExtension>
            <ns3:atemp>18.0</ns3:atemp>
          </ns3:TrackPointExtension>
        </extensions>
      </trkpt>
      <trkpt lat="42.61673583649098873138427734375" lon="19.88223030231893062591552734375">
        <ele>1935</ele>
        <time>2026-06-16T10:58:16.000Z</time>
        <extensions>
          <ns3:TrackPointExtension>
            <ns3:atemp>18.0</ns3:atemp>
          </ns3:TrackPointExtension>
        </extensions>
      </trkpt>
      <trkpt lat="42.61674933135509490966796875" lon="19.8822499997913837432861328125">
        <ele>1935</ele>
        <time>2026-06-16T10:58:17.000Z</time>
        <extensions>
          <ns3:TrackPointExtension>
            <ns3:atemp>18.0</ns3:atemp>
          </ns3:TrackPointExtension>
        </extensions>
      </trkpt>
      <trkpt lat="42.61676752008497714996337890625" lon="19.8822721280157566070556640625">
        <ele>1935</ele>
        <time>2026-06-16T10:58:18.000Z</time>
        <extensions>
          <ns3:TrackPointExtension>
            <ns3:atemp>18.0</ns3:atemp>
          </ns3:TrackPointExtension>
        </extensions>
      </trkpt>
      <trkpt lat="42.61678881011903285980224609375" lon="19.88229149021208286285400390625">
        <ele>1935</ele>
        <time>2026-06-16T10:58:19.000Z</time>
        <extensions>
          <ns3:TrackPointExtension>
            <ns3:atemp>18.0</ns3:atemp>
          </ns3:TrackPointExtension>
        </extensions>
      </trkpt>
      <trkpt lat="42.61680901050567626953125" lon="19.88230741582810878753662109375">
        <ele>1935</ele>
        <time>2026-06-16T10:58:20.000Z</time>
        <extensions>
          <ns3:TrackPointExtension>
            <ns3:atemp>18.0</ns3:atemp>
          </ns3:TrackPointExtension>
        </extensions>
      </trkpt>
      <trkpt lat="42.61682921089231967926025390625" lon="19.882327280938625335693359375">
        <ele>1935</ele>
        <time>2026-06-16T10:58:21.000Z</time>
        <extensions>
          <ns3:TrackPointExtension>
            <ns3:atemp>18.0</ns3:atemp>
          </ns3:TrackPointExtension>
        </extensions>
      </trkpt>
      <trkpt lat="42.6168477348983287811279296875" lon="19.88234312273561954498291015625">
        <ele>1935</ele>
        <time>2026-06-16T10:58:22.000Z</time>
        <extensions>
          <ns3:TrackPointExtension>
            <ns3:atemp>18.0</ns3:atemp>
          </ns3:TrackPointExtension>
        </extensions>
      </trkpt>
      <trkpt lat="42.6168651692569255828857421875" lon="19.88236181437969207763671875">
        <ele>1934.800048828125</ele>
        <time>2026-06-16T10:58:23.000Z</time>
        <extensions>
          <ns3:TrackPointExtension>
            <ns3:atemp>18.0</ns3:atemp>
          </ns3:TrackPointExtension>
        </extensions>
      </trkpt>
      <trkpt lat="42.6168832741677761077880859375" lon="19.8823790811002254486083984375">
        <ele>1934.800048828125</ele>
        <time>2026-06-16T10:58:24.000Z</time>
        <extensions>
          <ns3:TrackPointExtension>
            <ns3:atemp>18.0</ns3:atemp>
          </ns3:TrackPointExtension>
        </extensions>
      </trkpt>
      <trkpt lat="42.61690330691635608673095703125" lon="19.88239492289721965789794921875">
        <ele>1934.800048828125</ele>
        <time>2026-06-16T10:58:25.000Z</time>
        <extensions>
          <ns3:TrackPointExtension>
            <ns3:atemp>18.0</ns3:atemp>
          </ns3:TrackPointExtension>
        </extensions>
      </trkpt>
      <trkpt lat="42.6169228367507457733154296875" lon="19.88240498118102550506591796875">
        <ele>1934.800048828125</ele>
        <time>2026-06-16T10:58:26.000Z</time>
        <extensions>
          <ns3:TrackPointExtension>
            <ns3:atemp>18.0</ns3:atemp>
          </ns3:TrackPointExtension>
        </extensions>
      </trkpt>
      <trkpt lat="42.6169431209564208984375" lon="19.88241403363645076751708984375">
        <ele>1934.800048828125</ele>
        <time>2026-06-16T10:58:27.000Z</time>
        <extensions>
          <ns3:TrackPointExtension>
            <ns3:atemp>18.0</ns3:atemp>
          </ns3:TrackPointExtension>
        </extensions>
      </trkpt>
      <trkpt lat="42.61696390807628631591796875" lon="19.88241906277835369110107421875">
        <ele>1934.800048828125</ele>
        <time>2026-06-16T10:58:28.000Z</time>
        <extensions>
          <ns3:TrackPointExtension>
            <ns3:atemp>18.0</ns3:atemp>
          </ns3:TrackPointExtension>
        </extensions>
      </trkpt>
      <trkpt lat="42.61698536574840545654296875" lon="19.88242224790155887603759765625">
        <ele>1934.800048828125</ele>
        <time>2026-06-16T10:58:29.000Z</time>
        <extensions>
          <ns3:TrackPointExtension>
            <ns3:atemp>18.0</ns3:atemp>
          </ns3:TrackPointExtension>
        </extensions>
      </trkpt>
      <trkpt lat="42.61701126582920551300048828125" lon="19.88242811523377895355224609375">
        <ele>1934.800048828125</ele>
        <time>2026-06-16T10:58:30.000Z</time>
        <extensions>
          <ns3:TrackPointExtension>
            <ns3:atemp>18.0</ns3:atemp>
          </ns3:TrackPointExtension>
        </extensions>
      </trkpt>
      <trkpt lat="42.61704361997544765472412109375" lon="19.8824434541165828704833984375">
        <ele>1934.800048828125</ele>
        <time>2026-06-16T10:58:31.000Z</time>
        <extensions>
          <ns3:TrackPointExtension>
            <ns3:atemp>18.0</ns3:atemp>
          </ns3:TrackPointExtension>
        </extensions>
      </trkpt>
      <trkpt lat="42.61707765050232410430908203125" lon="19.88246164284646511077880859375">
        <ele>1934.800048828125</ele>
        <time>2026-06-16T10:58:32.000Z</time>
        <extensions>
          <ns3:TrackPointExtension>
            <ns3:atemp>18.0</ns3:atemp>
          </ns3:TrackPointExtension>
        </extensions>
      </trkpt>
      <trkpt lat="42.6171132735908031463623046875" lon="19.88247857429087162017822265625">
        <ele>1934.5999755859375</ele>
        <time>2026-06-16T10:58:33.000Z</time>
        <extensions>
          <ns3:TrackPointExtension>
            <ns3:atemp>18.0</ns3:atemp>
          </ns3:TrackPointExtension>
        </extensions>
      </trkpt>
      <trkpt lat="42.61714906431734561920166015625" lon="19.88249399699270725250244140625">
        <ele>1934.5999755859375</ele>
        <time>2026-06-16T10:58:34.000Z</time>
        <extensions>
          <ns3:TrackPointExtension>
            <ns3:atemp>18.0</ns3:atemp>
          </ns3:TrackPointExtension>
        </extensions>
      </trkpt>
      <trkpt lat="42.61718225665390491485595703125" lon="19.88251076079905033111572265625">
        <ele>1934.4000244140625</ele>
        <time>2026-06-16T10:58:35.000Z</time>
        <extensions>
          <ns3:TrackPointExtension>
            <ns3:atemp>18.0</ns3:atemp>
          </ns3:TrackPointExtension>
        </extensions>
      </trkpt>
      <trkpt lat="42.61721109040081501007080078125" lon="19.88252274692058563232421875">
        <ele>1934.199951171875</ele>
        <time>2026-06-16T10:58:36.000Z</time>
        <extensions>
          <ns3:TrackPointExtension>
            <ns3:atemp>18.0</ns3:atemp>
          </ns3:TrackPointExtension>
        </extensions>
      </trkpt>
      <trkpt lat="42.61723238043487071990966796875" lon="19.88253456540405750274658203125">
        <ele>1934.4000244140625</ele>
        <time>2026-06-16T10:58:37.000Z</time>
        <extensions>
          <ns3:TrackPointExtension>
            <ns3:atemp>18.0</ns3:atemp>
          </ns3:TrackPointExtension>
        </extensions>
      </trkpt>
      <trkpt lat="42.61724562384188175201416015625" lon="19.88255023956298828125">
        <ele>1934.4000244140625</ele>
        <time>2026-06-16T10:58:38.000Z</time>
        <extensions>
          <ns3:TrackPointExtension>
            <ns3:atemp>18.0</ns3:atemp>
          </ns3:TrackPointExtension>
        </extensions>
      </trkpt>
      <trkpt lat="42.6172611303627490997314453125" lon="19.882568009197711944580078125">
        <ele>1934.4000244140625</ele>
        <time>2026-06-16T10:58:39.000Z</time>
        <extensions>
          <ns3:TrackPointExtension>
            <ns3:atemp>18.0</ns3:atemp>
          </ns3:TrackPointExtension>
        </extensions>
      </trkpt>
      <trkpt lat="42.61727680452167987823486328125" lon="19.88259860314428806304931640625">
        <ele>1934.4000244140625</ele>
        <time>2026-06-16T10:58:40.000Z</time>
        <extensions>
          <ns3:TrackPointExtension>
            <ns3:atemp>18.0</ns3:atemp>
          </ns3:TrackPointExtension>
        </extensions>
      </trkpt>
      <trkpt lat="42.617283761501312255859375" lon="19.8826359026134014129638671875">
        <ele>1934.5999755859375</ele>
        <time>2026-06-16T10:58:41.000Z</time>
        <extensions>
          <ns3:TrackPointExtension>
            <ns3:atemp>18.0</ns3:atemp>
          </ns3:TrackPointExtension>
        </extensions>
      </trkpt>
      <trkpt lat="42.61729742400348186492919921875" lon="19.88266213797032833099365234375">
        <ele>1934.5999755859375</ele>
        <time>2026-06-16T10:58:42.000Z</time>
        <extensions>
          <ns3:TrackPointExtension>
            <ns3:atemp>18.0</ns3:atemp>
          </ns3:TrackPointExtension>
        </extensions>
      </trkpt>
      <trkpt lat="42.6173077337443828582763671875" lon="19.88268711604177951812744140625">
        <ele>1934.5999755859375</ele>
        <time>2026-06-16T10:58:43.000Z</time>
        <extensions>
          <ns3:TrackPointExtension>
            <ns3:atemp>18.0</ns3:atemp>
          </ns3:TrackPointExtension>
        </extensions>
      </trkpt>
      <trkpt lat="42.6173067279160022735595703125" lon="19.88271309994161128997802734375">
        <ele>1934.800048828125</ele>
        <time>2026-06-16T10:58:44.000Z</time>
        <extensions>
          <ns3:TrackPointExtension>
            <ns3:atemp>18.0</ns3:atemp>
          </ns3:TrackPointExtension>
        </extensions>
      </trkpt>
      <trkpt lat="42.61730731464922428131103515625" lon="19.8827435262501239776611328125">
        <ele>1934.800048828125</ele>
        <time>2026-06-16T10:58:45.000Z</time>
        <extensions>
          <ns3:TrackPointExtension>
            <ns3:atemp>18.0</ns3:atemp>
          </ns3:TrackPointExtension>
        </extensions>
      </trkpt>
      <trkpt lat="42.61731284670531749725341796875" lon="19.88277127034962177276611328125">
        <ele>1935</ele>
        <time>2026-06-16T10:58:46.000Z</time>
        <extensions>
          <ns3:TrackPointExtension>
            <ns3:atemp>18.0</ns3:atemp>
          </ns3:TrackPointExtension>
        </extensions>
      </trkpt>
      <trkpt lat="42.6173194684088230133056640625" lon="19.8827961646020412445068359375">
        <ele>1935.199951171875</ele>
        <time>2026-06-16T10:58:47.000Z</time>
        <extensions>
          <ns3:TrackPointExtension>
            <ns3:atemp>18.0</ns3:atemp>
          </ns3:TrackPointExtension>
        </extensions>
      </trkpt>
      <trkpt lat="42.6173172891139984130859375" lon="19.882810078561305999755859375">
        <ele>1935.199951171875</ele>
        <time>2026-06-16T10:58:48.000Z</time>
        <extensions>
          <ns3:TrackPointExtension>
            <ns3:atemp>18.0</ns3:atemp>
          </ns3:TrackPointExtension>
        </extensions>
      </trkpt>
      <trkpt lat="42.6173221506178379058837890625" lon="19.88282122649252414703369140625">
        <ele>1935.4000244140625</ele>
        <time>2026-06-16T10:58:49.000Z</time>
        <extensions>
          <ns3:TrackPointExtension>
            <ns3:atemp>18.0</ns3:atemp>
          </ns3:TrackPointExtension>
        </extensions>
      </trkpt>
      <trkpt lat="42.61732927523553371429443359375" lon="19.88284117542207241058349609375">
        <ele>1935.4000244140625</ele>
        <time>2026-06-16T10:58:50.000Z</time>
        <extensions>
          <ns3:TrackPointExtension>
            <ns3:atemp>18.0</ns3:atemp>
          </ns3:TrackPointExtension>
        </extensions>
      </trkpt>
      <trkpt lat="42.61733539402484893798828125" lon="19.88285525701940059661865234375">
        <ele>1935.4000244140625</ele>
        <time>2026-06-16T10:58:51.000Z</time>
        <extensions>
          <ns3:TrackPointExtension>
            <ns3:atemp>18.0</ns3:atemp>
          </ns3:TrackPointExtension>
        </extensions>
      </trkpt>
      <trkpt lat="42.61734478175640106201171875" lon="19.8828692547976970672607421875">
        <ele>1935.5999755859375</ele>
        <time>2026-06-16T10:58:52.000Z</time>
        <extensions>
          <ns3:TrackPointExtension>
            <ns3:atemp>18.0</ns3:atemp>
          </ns3:TrackPointExtension>
        </extensions>
      </trkpt>
      <trkpt lat="42.61735458858311176300048828125" lon="19.88288752734661102294921875">
        <ele>1935.5999755859375</ele>
        <time>2026-06-16T10:58:53.000Z</time>
        <extensions>
          <ns3:TrackPointExtension>
            <ns3:atemp>18.0</ns3:atemp>
          </ns3:TrackPointExtension>
        </extensions>
      </trkpt>
      <trkpt lat="42.6173607073724269866943359375" lon="19.882901273667812347412109375">
        <ele>1935.800048828125</ele>
        <time>2026-06-16T10:58:54.000Z</time>
        <extensions>
          <ns3:TrackPointExtension>
            <ns3:atemp>18.0</ns3:atemp>
          </ns3:TrackPointExtension>
        </extensions>
      </trkpt>
      <trkpt lat="42.6173654012382030487060546875" lon="19.882903285324573516845703125">
        <ele>1935.800048828125</ele>
        <time>2026-06-16T10:58:55.000Z</time>
        <extensions>
          <ns3:TrackPointExtension>
            <ns3:atemp>18.0</ns3:atemp>
          </ns3:TrackPointExtension>
        </extensions>
      </trkpt>
      <trkpt lat="42.6173643954098224639892578125" lon="19.8829051293432712554931640625">
        <ele>1936</ele>
        <time>2026-06-16T10:58:56.000Z</time>
        <extensions>
          <ns3:TrackPointExtension>
            <ns3:atemp>18.0</ns3:atemp>
          </ns3:TrackPointExtension>
        </extensions>
      </trkpt>
      <trkpt lat="42.61735819280147552490234375" lon="19.88290789537131786346435546875">
        <ele>1936</ele>
        <time>2026-06-16T10:58:57.000Z</time>
        <extensions>
          <ns3:TrackPointExtension>
            <ns3:atemp>18.0</ns3:atemp>
          </ns3:TrackPointExtension>
        </extensions>
      </trkpt>
      <trkpt lat="42.61736179701983928680419921875" lon="19.88291912712156772613525390625">
        <ele>1936.199951171875</ele>
        <time>2026-06-16T10:58:58.000Z</time>
        <extensions>
          <ns3:TrackPointExtension>
            <ns3:atemp>18.0</ns3:atemp>
          </ns3:TrackPointExtension>
        </extensions>
      </trkpt>
      <trkpt lat="42.61736162938177585601806640625" lon="19.88293287344276905059814453125">
        <ele>1936</ele>
        <time>2026-06-16T10:58:59.000Z</time>
        <extensions>
          <ns3:TrackPointExtension>
            <ns3:atemp>18.0</ns3:atemp>
          </ns3:TrackPointExtension>
        </extensions>
      </trkpt>
      <trkpt lat="42.6173677481710910797119140625" lon="19.88295299001038074493408203125">
        <ele>1936</ele>
        <time>2026-06-16T10:59:00.000Z</time>
        <extensions>
          <ns3:TrackPointExtension>
            <ns3:atemp>18.0</ns3:atemp>
          </ns3:TrackPointExtension>
        </extensions>
      </trkpt>
      <trkpt lat="42.617373950779438018798828125" lon="19.8829674907028675079345703125">
        <ele>1936</ele>
        <time>2026-06-16T10:59:01.000Z</time>
        <extensions>
          <ns3:TrackPointExtension>
            <ns3:atemp>18.0</ns3:atemp>
          </ns3:TrackPointExtension>
        </extensions>
      </trkpt>
      <trkpt lat="42.61738224886357784271240234375" lon="19.8829834163188934326171875">
        <ele>1936</ele>
        <time>2026-06-16T10:59:02.000Z</time>
        <extensions>
          <ns3:TrackPointExtension>
            <ns3:atemp>18.0</ns3:atemp>
          </ns3:TrackPointExtension>
        </extensions>
      </trkpt>
      <trkpt lat="42.61739037930965423583984375" lon="19.882999174296855926513671875">
        <ele>1936</ele>
        <time>2026-06-16T10:59:03.000Z</time>
        <extensions>
          <ns3:TrackPointExtension>
            <ns3:atemp>18.0</ns3:atemp>
          </ns3:TrackPointExtension>
        </extensions>
      </trkpt>
      <trkpt lat="42.6174009405076503753662109375" lon="19.8830174468457698822021484375">
        <ele>1936.199951171875</ele>
        <time>2026-06-16T10:59:04.000Z</time>
        <extensions>
          <ns3:TrackPointExtension>
            <ns3:atemp>18.0</ns3:atemp>
          </ns3:TrackPointExtension>
        </extensions>
      </trkpt>
      <trkpt lat="42.6174103282392024993896484375" lon="19.8830352164804935455322265625">
        <ele>1936.4000244140625</ele>
        <time>2026-06-16T10:59:05.000Z</time>
        <extensions>
          <ns3:TrackPointExtension>
            <ns3:atemp>18.0</ns3:atemp>
          </ns3:TrackPointExtension>
        </extensions>
      </trkpt>
      <trkpt lat="42.61741879396140575408935546875" lon="19.88305977545678615570068359375">
        <ele>1936.5999755859375</ele>
        <time>2026-06-16T10:59:06.000Z</time>
        <extensions>
          <ns3:TrackPointExtension>
            <ns3:atemp>18.0</ns3:atemp>
          </ns3:TrackPointExtension>
        </extensions>
      </trkpt>
      <trkpt lat="42.61742080561816692352294921875" lon="19.8830684088170528411865234375">
        <ele>1936.800048828125</ele>
        <time>2026-06-16T10:59:07.000Z</time>
        <extensions>
          <ns3:TrackPointExtension>
            <ns3:atemp>18.0</ns3:atemp>
          </ns3:TrackPointExtension>
        </extensions>
      </trkpt>
      <trkpt lat="42.61742080561816692352294921875" lon="19.88306866027414798736572265625">
        <ele>1937</ele>
        <time>2026-06-16T10:59:08.000Z</time>
        <extensions>
          <ns3:TrackPointExtension>
            <ns3:atemp>18.0</ns3:atemp>
          </ns3:TrackPointExtension>
        </extensions>
      </trkpt>
      <trkpt lat="42.61742097325623035430908203125" lon="19.88307402469217777252197265625">
        <ele>1937.199951171875</ele>
        <time>2026-06-16T10:59:09.000Z</time>
        <extensions>
          <ns3:TrackPointExtension>
            <ns3:atemp>18.0</ns3:atemp>
          </ns3:TrackPointExtension>
        </extensions>
      </trkpt>
      <trkpt lat="42.61741996742784976959228515625" lon="19.88307938911020755767822265625">
        <ele>1937.4000244140625</ele>
        <time>2026-06-16T10:59:10.000Z</time>
        <extensions>
          <ns3:TrackPointExtension>
            <ns3:atemp>18.0</ns3:atemp>
          </ns3:TrackPointExtension>
        </extensions>
      </trkpt>
      <trkpt lat="42.61741996742784976959228515625" lon="19.88307938911020755767822265625">
        <ele>1937.4000244140625</ele>
        <time>2026-06-16T10:59:11.000Z</time>
        <extensions>
          <ns3:TrackPointExtension>
            <ns3:atemp>18.0</ns3:atemp>
          </ns3:TrackPointExtension>
        </extensions>
      </trkpt>
      <trkpt lat="42.61741988360881805419921875" lon="19.88307955674827098846435546875">
        <ele>1937.4000244140625</ele>
        <time>2026-06-16T10:59:12.000Z</time>
        <extensions>
          <ns3:TrackPointExtension>
            <ns3:atemp>18.0</ns3:atemp>
          </ns3:TrackPointExtension>
        </extensions>
      </trkpt>
      <trkpt lat="42.6174203865230083465576171875" lon="19.88309313543140888214111328125">
        <ele>1937.4000244140625</ele>
        <time>2026-06-16T10:59:13.000Z</time>
        <extensions>
          <ns3:TrackPointExtension>
            <ns3:atemp>18.0</ns3:atemp>
          </ns3:TrackPointExtension>
        </extensions>
      </trkpt>
      <trkpt lat="42.61742214672267436981201171875" lon="19.883108474314212799072265625">
        <ele>1937.199951171875</ele>
        <time>2026-06-16T10:59:14.000Z</time>
        <extensions>
          <ns3:TrackPointExtension>
            <ns3:atemp>18.0</ns3:atemp>
          </ns3:TrackPointExtension>
        </extensions>
      </trkpt>
      <trkpt lat="42.61742482893168926239013671875" lon="19.883135296404361724853515625">
        <ele>1937.199951171875</ele>
        <time>2026-06-16T10:59:15.000Z</time>
        <extensions>
          <ns3:TrackPointExtension>
            <ns3:atemp>18.0</ns3:atemp>
          </ns3:TrackPointExtension>
        </extensions>
      </trkpt>
      <trkpt lat="42.61742658913135528564453125" lon="19.88316589035093784332275390625">
        <ele>1937.199951171875</ele>
        <time>2026-06-16T10:59:16.000Z</time>
        <extensions>
          <ns3:TrackPointExtension>
            <ns3:atemp>18.0</ns3:atemp>
          </ns3:TrackPointExtension>
        </extensions>
      </trkpt>
      <trkpt lat="42.61742985807359218597412109375" lon="19.88319237716495990753173828125">
        <ele>1937.4000244140625</ele>
        <time>2026-06-16T10:59:17.000Z</time>
        <extensions>
          <ns3:TrackPointExtension>
            <ns3:atemp>18.0</ns3:atemp>
          </ns3:TrackPointExtension>
        </extensions>
      </trkpt>
      <trkpt lat="42.61743463575839996337890625" lon="19.8832041956484317779541015625">
        <ele>1937.4000244140625</ele>
        <time>2026-06-16T10:59:18.000Z</time>
        <extensions>
          <ns3:TrackPointExtension>
            <ns3:atemp>18.0</ns3:atemp>
          </ns3:TrackPointExtension>
        </extensions>
      </trkpt>
      <trkpt lat="42.61743438430130481719970703125" lon="19.88320293836295604705810546875">
        <ele>1937.800048828125</ele>
        <time>2026-06-16T10:59:19.000Z</time>
        <extensions>
          <ns3:TrackPointExtension>
            <ns3:atemp>18.0</ns3:atemp>
          </ns3:TrackPointExtension>
        </extensions>
      </trkpt>
      <trkpt lat="42.61743438430130481719970703125" lon="19.8832028545439243316650390625">
        <ele>1938</ele>
        <time>2026-06-16T10:59:20.000Z</time>
        <extensions>
          <ns3:TrackPointExtension>
            <ns3:atemp>18.0</ns3:atemp>
          </ns3:TrackPointExtension>
        </extensions>
      </trkpt>
      <trkpt lat="42.61743438430130481719970703125" lon="19.8832028545439243316650390625">
        <ele>1938.199951171875</ele>
        <time>2026-06-16T10:59:21.000Z</time>
        <extensions>
          <ns3:TrackPointExtension>
            <ns3:atemp>18.0</ns3:atemp>
          </ns3:TrackPointExtension>
        </extensions>
      </trkpt>
      <trkpt lat="42.61743438430130481719970703125" lon="19.8832028545439243316650390625">
        <ele>1938.4000244140625</ele>
        <time>2026-06-16T10:59:22.000Z</time>
        <extensions>
          <ns3:TrackPointExtension>
            <ns3:atemp>18.0</ns3:atemp>
          </ns3:TrackPointExtension>
        </extensions>
      </trkpt>
      <trkpt lat="42.61743438430130481719970703125" lon="19.8832028545439243316650390625">
        <ele>1938.5999755859375</ele>
        <time>2026-06-16T10:59:23.000Z</time>
        <extensions>
          <ns3:TrackPointExtension>
            <ns3:atemp>18.0</ns3:atemp>
          </ns3:TrackPointExtension>
        </extensions>
      </trkpt>
      <trkpt lat="42.61743438430130481719970703125" lon="19.8832028545439243316650390625">
        <ele>1938.5999755859375</ele>
        <time>2026-06-16T10:59:24.000Z</time>
        <extensions>
          <ns3:TrackPointExtension>
            <ns3:atemp>18.0</ns3:atemp>
          </ns3:TrackPointExtension>
        </extensions>
      </trkpt>
      <trkpt lat="42.61743438430130481719970703125" lon="19.8832028545439243316650390625">
        <ele>1938.5999755859375</ele>
        <time>2026-06-16T10:59:25.000Z</time>
        <extensions>
          <ns3:TrackPointExtension>
            <ns3:atemp>18.0</ns3:atemp>
          </ns3:TrackPointExtension>
        </extensions>
      </trkpt>
      <trkpt lat="42.61743438430130481719970703125" lon="19.8832028545439243316650390625">
        <ele>1938.800048828125</ele>
        <time>2026-06-16T10:59:26.000Z</time>
        <extensions>
          <ns3:TrackPointExtension>
            <ns3:atemp>18.0</ns3:atemp>
          </ns3:TrackPointExtension>
        </extensions>
      </trkpt>
      <trkpt lat="42.61743438430130481719970703125" lon="19.8832028545439243316650390625">
        <ele>1938.800048828125</ele>
        <time>2026-06-16T10:59:27.000Z</time>
        <extensions>
          <ns3:TrackPointExtension>
            <ns3:atemp>18.0</ns3:atemp>
          </ns3:TrackPointExtension>
        </extensions>
      </trkpt>
      <trkpt lat="42.61743438430130481719970703125" lon="19.8832028545439243316650390625">
        <ele>1938.5999755859375</ele>
        <time>2026-06-16T10:59:28.000Z</time>
        <extensions>
          <ns3:TrackPointExtension>
            <ns3:atemp>18.0</ns3:atemp>
          </ns3:TrackPointExtension>
        </extensions>
      </trkpt>
      <trkpt lat="42.61743455193936824798583984375" lon="19.8832021839916706085205078125">
        <ele>1938.5999755859375</ele>
        <time>2026-06-16T10:59:29.000Z</time>
        <extensions>
          <ns3:TrackPointExtension>
            <ns3:atemp>18.0</ns3:atemp>
          </ns3:TrackPointExtension>
        </extensions>
      </trkpt>
      <trkpt lat="42.61743689887225627899169921875" lon="19.88321735523641109466552734375">
        <ele>1938.5999755859375</ele>
        <time>2026-06-16T10:59:30.000Z</time>
        <extensions>
          <ns3:TrackPointExtension>
            <ns3:atemp>18.0</ns3:atemp>
          </ns3:TrackPointExtension>
        </extensions>
      </trkpt>
      <trkpt lat="42.61743891052901744842529296875" lon="19.88324166275560855865478515625">
        <ele>1938.5999755859375</ele>
        <time>2026-06-16T10:59:31.000Z</time>
        <extensions>
          <ns3:TrackPointExtension>
            <ns3:atemp>18.0</ns3:atemp>
          </ns3:TrackPointExtension>
        </extensions>
      </trkpt>
      <trkpt lat="42.61744041927158832550048828125" lon="19.883274771273136138916015625">
        <ele>1938.5999755859375</ele>
        <time>2026-06-16T10:59:32.000Z</time>
        <extensions>
          <ns3:TrackPointExtension>
            <ns3:atemp>18.0</ns3:atemp>
          </ns3:TrackPointExtension>
        </extensions>
      </trkpt>
      <trkpt lat="42.6174381561577320098876953125" lon="19.88330368883907794952392578125">
        <ele>1938.800048828125</ele>
        <time>2026-06-16T10:59:33.000Z</time>
        <extensions>
          <ns3:TrackPointExtension>
            <ns3:atemp>18.0</ns3:atemp>
          </ns3:TrackPointExtension>
        </extensions>
      </trkpt>
      <trkpt lat="42.61743371374905109405517578125" lon="19.88333369605243206024169921875">
        <ele>1938.800048828125</ele>
        <time>2026-06-16T10:59:34.000Z</time>
        <extensions>
          <ns3:TrackPointExtension>
            <ns3:atemp>18.0</ns3:atemp>
          </ns3:TrackPointExtension>
        </extensions>
      </trkpt>
      <trkpt lat="42.61743136681616306304931640625" lon="19.88336102105677127838134765625">
        <ele>1939</ele>
        <time>2026-06-16T10:59:35.000Z</time>
        <extensions>
          <ns3:TrackPointExtension>
            <ns3:atemp>18.0</ns3:atemp>
          </ns3:TrackPointExtension>
        </extensions>
      </trkpt>
      <trkpt lat="42.617438323795795440673828125" lon="19.88337644375860691070556640625">
        <ele>1939.199951171875</ele>
        <time>2026-06-16T10:59:36.000Z</time>
        <extensions>
          <ns3:TrackPointExtension>
            <ns3:atemp>18.0</ns3:atemp>
          </ns3:TrackPointExtension>
        </extensions>
      </trkpt>
      <trkpt lat="42.61743421666324138641357421875" lon="19.8833768628537654876708984375">
        <ele>1939.4000244140625</ele>
        <time>2026-06-16T10:59:37.000Z</time>
        <extensions>
          <ns3:TrackPointExtension>
            <ns3:atemp>18.0</ns3:atemp>
          </ns3:TrackPointExtension>
        </extensions>
      </trkpt>
      <trkpt lat="42.617432288825511932373046875" lon="19.8833758570253849029541015625">
        <ele>1939.5999755859375</ele>
        <time>2026-06-16T10:59:38.000Z</time>
        <extensions>
          <ns3:TrackPointExtension>
            <ns3:atemp>18.0</ns3:atemp>
          </ns3:TrackPointExtension>
        </extensions>
      </trkpt>
      <trkpt lat="42.61743237264454364776611328125" lon="19.88337594084441661834716796875">
        <ele>1939.800048828125</ele>
        <time>2026-06-16T10:59:39.000Z</time>
        <extensions>
          <ns3:TrackPointExtension>
            <ns3:atemp>18.0</ns3:atemp>
          </ns3:TrackPointExtension>
        </extensions>
      </trkpt>
      <trkpt lat="42.61743254028260707855224609375" lon="19.883376024663448333740234375">
        <ele>1940</ele>
        <time>2026-06-16T10:59:40.000Z</time>
        <extensions>
          <ns3:TrackPointExtension>
            <ns3:atemp>18.0</ns3:atemp>
          </ns3:TrackPointExtension>
        </extensions>
      </trkpt>
      <trkpt lat="42.61743974871933460235595703125" lon="19.88338868133723735809326171875">
        <ele>1940</ele>
        <time>2026-06-16T10:59:41.000Z</time>
        <extensions>
          <ns3:TrackPointExtension>
            <ns3:atemp>18.0</ns3:atemp>
          </ns3:TrackPointExtension>
        </extensions>
      </trkpt>
      <trkpt lat="42.61744611896574497222900390625" lon="19.883400164544582366943359375">
        <ele>1940.199951171875</ele>
        <time>2026-06-16T10:59:42.000Z</time>
        <extensions>
          <ns3:TrackPointExtension>
            <ns3:atemp>18.0</ns3:atemp>
          </ns3:TrackPointExtension>
        </extensions>
      </trkpt>
      <trkpt lat="42.61745274066925048828125" lon="19.88340410403907299041748046875">
        <ele>1940.199951171875</ele>
        <time>2026-06-16T10:59:43.000Z</time>
        <extensions>
          <ns3:TrackPointExtension>
            <ns3:atemp>18.0</ns3:atemp>
          </ns3:TrackPointExtension>
        </extensions>
      </trkpt>
      <trkpt lat="42.6174596138298511505126953125" lon="19.88341064192354679107666015625">
        <ele>1940.4000244140625</ele>
        <time>2026-06-16T10:59:44.000Z</time>
        <extensions>
          <ns3:TrackPointExtension>
            <ns3:atemp>18.0</ns3:atemp>
          </ns3:TrackPointExtension>
        </extensions>
      </trkpt>
      <trkpt lat="42.61746757663786411285400390625" lon="19.88341382704675197601318359375">
        <ele>1940.5999755859375</ele>
        <time>2026-06-16T10:59:45.000Z</time>
        <extensions>
          <ns3:TrackPointExtension>
            <ns3:atemp>18.0</ns3:atemp>
          </ns3:TrackPointExtension>
        </extensions>
      </trkpt>
      <trkpt lat="42.61747444979846477508544921875" lon="19.88341483287513256072998046875">
        <ele>1940.800048828125</ele>
        <time>2026-06-16T10:59:46.000Z</time>
        <extensions>
          <ns3:TrackPointExtension>
            <ns3:atemp>18.0</ns3:atemp>
          </ns3:TrackPointExtension>
        </extensions>
      </trkpt>
      <trkpt lat="42.61747562326490879058837890625" lon="19.8834160901606082916259765625">
        <ele>1941.199951171875</ele>
        <time>2026-06-16T10:59:47.000Z</time>
        <extensions>
          <ns3:TrackPointExtension>
            <ns3:atemp>18.0</ns3:atemp>
          </ns3:TrackPointExtension>
        </extensions>
      </trkpt>
      <trkpt lat="42.6174757070839405059814453125" lon="19.88341617397964000701904296875">
        <ele>1941.4000244140625</ele>
        <time>2026-06-16T10:59:48.000Z</time>
        <extensions>
          <ns3:TrackPointExtension>
            <ns3:atemp>18.0</ns3:atemp>
          </ns3:TrackPointExtension>
        </extensions>
      </trkpt>
      <trkpt lat="42.61748434044420719146728515625" lon="19.8834174312651157379150390625">
        <ele>1941.800048828125</ele>
        <time>2026-06-16T10:59:49.000Z</time>
        <extensions>
          <ns3:TrackPointExtension>
            <ns3:atemp>18.0</ns3:atemp>
          </ns3:TrackPointExtension>
        </extensions>
      </trkpt>
      <trkpt lat="42.6174877770245075225830078125" lon="19.883420281112194061279296875">
        <ele>1942</ele>
        <time>2026-06-16T10:59:50.000Z</time>
        <extensions>
          <ns3:TrackPointExtension>
            <ns3:atemp>18.0</ns3:atemp>
          </ns3:TrackPointExtension>
        </extensions>
      </trkpt>
      <trkpt lat="42.617491297423839569091796875" lon="19.8834204487502574920654296875">
        <ele>1942.199951171875</ele>
        <time>2026-06-16T10:59:51.000Z</time>
        <extensions>
          <ns3:TrackPointExtension>
            <ns3:atemp>18.0</ns3:atemp>
          </ns3:TrackPointExtension>
        </extensions>
      </trkpt>
      <trkpt lat="42.61749942786991596221923828125" lon="19.8834194429218769073486328125">
        <ele>1942.4000244140625</ele>
        <time>2026-06-16T10:59:52.000Z</time>
        <extensions>
          <ns3:TrackPointExtension>
            <ns3:atemp>18.0</ns3:atemp>
          </ns3:TrackPointExtension>
        </extensions>
      </trkpt>
      <trkpt lat="42.6175055466592311859130859375" lon="19.88341852091252803802490234375">
        <ele>1942.4000244140625</ele>
        <time>2026-06-16T10:59:53.000Z</time>
        <extensions>
          <ns3:TrackPointExtension>
            <ns3:atemp>18.0</ns3:atemp>
          </ns3:TrackPointExtension>
        </extensions>
      </trkpt>
      <trkpt lat="42.6175119169056415557861328125" lon="19.88341785036027431488037109375">
        <ele>1942.5999755859375</ele>
        <time>2026-06-16T10:59:54.000Z</time>
        <extensions>
          <ns3:TrackPointExtension>
            <ns3:atemp>18.0</ns3:atemp>
          </ns3:TrackPointExtension>
        </extensions>
      </trkpt>
      <trkpt lat="42.61750982142984867095947265625" lon="19.88341684453189373016357421875">
        <ele>1942.5999755859375</ele>
        <time>2026-06-16T10:59:55.000Z</time>
        <extensions>
          <ns3:TrackPointExtension>
            <ns3:atemp>18.0</ns3:atemp>
          </ns3:TrackPointExtension>
        </extensions>
      </trkpt>
      <trkpt lat="42.61750982142984867095947265625" lon="19.88341684453189373016357421875">
        <ele>1942.5999755859375</ele>
        <time>2026-06-16T10:59:56.000Z</time>
        <extensions>
          <ns3:TrackPointExtension>
            <ns3:atemp>18.0</ns3:atemp>
          </ns3:TrackPointExtension>
        </extensions>
      </trkpt>
      <trkpt lat="42.61750982142984867095947265625" lon="19.88341684453189373016357421875">
        <ele>1942.800048828125</ele>
        <time>2026-06-16T10:59:57.000Z</time>
        <extensions>
          <ns3:TrackPointExtension>
            <ns3:atemp>18.0</ns3:atemp>
          </ns3:TrackPointExtension>
        </extensions>
      </trkpt>
      <trkpt lat="42.6175095699727535247802734375" lon="19.88341650925576686859130859375">
        <ele>1942.800048828125</ele>
        <time>2026-06-16T10:59:58.000Z</time>
        <extensions>
          <ns3:TrackPointExtension>
            <ns3:atemp>18.0</ns3:atemp>
          </ns3:TrackPointExtension>
        </extensions>
      </trkpt>
      <trkpt lat="42.61751267127692699432373046875" lon="19.88340645097196102142333984375">
        <ele>1942.800048828125</ele>
        <time>2026-06-16T10:59:59.000Z</time>
        <extensions>
          <ns3:TrackPointExtension>
            <ns3:atemp>18.0</ns3:atemp>
          </ns3:TrackPointExtension>
        </extensions>
      </trkpt>
      <trkpt lat="42.6175223104655742645263671875" lon="19.88340326584875583648681640625">
        <ele>1943</ele>
        <time>2026-06-16T11:00:00.000Z</time>
        <extensions>
          <ns3:TrackPointExtension>
            <ns3:atemp>18.0</ns3:atemp>
          </ns3:TrackPointExtension>
        </extensions>
      </trkpt>
      <trkpt lat="42.61753253638744354248046875" lon="19.88341583870351314544677734375">
        <ele>1943</ele>
        <time>2026-06-16T11:00:01.000Z</time>
        <extensions>
          <ns3:TrackPointExtension>
            <ns3:atemp>18.0</ns3:atemp>
          </ns3:TrackPointExtension>
        </extensions>
      </trkpt>
      <trkpt lat="42.6175387389957904815673828125" lon="19.88342539407312870025634765625">
        <ele>1943.199951171875</ele>
        <time>2026-06-16T11:00:02.000Z</time>
        <extensions>
          <ns3:TrackPointExtension>
            <ns3:atemp>18.0</ns3:atemp>
          </ns3:TrackPointExtension>
        </extensions>
      </trkpt>
      <trkpt lat="42.61754368431866168975830078125" lon="19.8834251426160335540771484375">
        <ele>1943.4000244140625</ele>
        <time>2026-06-16T11:00:03.000Z</time>
        <extensions>
          <ns3:TrackPointExtension>
            <ns3:atemp>18.0</ns3:atemp>
          </ns3:TrackPointExtension>
        </extensions>
      </trkpt>
      <trkpt lat="42.6175437681376934051513671875" lon="19.8834251426160335540771484375">
        <ele>1943.4000244140625</ele>
        <time>2026-06-16T11:00:04.000Z</time>
        <extensions>
          <ns3:TrackPointExtension>
            <ns3:atemp>18.0</ns3:atemp>
          </ns3:TrackPointExtension>
        </extensions>
      </trkpt>
      <trkpt lat="42.6175437681376934051513671875" lon="19.8834251426160335540771484375">
        <ele>1943.5999755859375</ele>
        <time>2026-06-16T11:00:05.000Z</time>
        <extensions>
          <ns3:TrackPointExtension>
            <ns3:atemp>18.0</ns3:atemp>
          </ns3:TrackPointExtension>
        </extensions>
      </trkpt>
      <trkpt lat="42.6175437681376934051513671875" lon="19.8834251426160335540771484375">
        <ele>1943.800048828125</ele>
        <time>2026-06-16T11:00:06.000Z</time>
        <extensions>
          <ns3:TrackPointExtension>
            <ns3:atemp>18.0</ns3:atemp>
          </ns3:TrackPointExtension>
        </extensions>
      </trkpt>
      <trkpt lat="42.6175437681376934051513671875" lon="19.8834251426160335540771484375">
        <ele>1944</ele>
        <time>2026-06-16T11:00:07.000Z</time>
        <extensions>
          <ns3:TrackPointExtension>
            <ns3:atemp>18.0</ns3:atemp>
          </ns3:TrackPointExtension>
        </extensions>
      </trkpt>
      <trkpt lat="42.6175437681376934051513671875" lon="19.8834251426160335540771484375">
        <ele>1944</ele>
        <time>2026-06-16T11:00:08.000Z</time>
        <extensions>
          <ns3:TrackPointExtension>
            <ns3:atemp>18.0</ns3:atemp>
          </ns3:TrackPointExtension>
        </extensions>
      </trkpt>
      <trkpt lat="42.6175437681376934051513671875" lon="19.8834251426160335540771484375">
        <ele>1944</ele>
        <time>2026-06-16T11:00:09.000Z</time>
        <extensions>
          <ns3:TrackPointExtension>
            <ns3:atemp>18.0</ns3:atemp>
          </ns3:TrackPointExtension>
        </extensions>
      </trkpt>
      <trkpt lat="42.61754460632801055908203125" lon="19.8834259808063507080078125">
        <ele>1944</ele>
        <time>2026-06-16T11:00:10.000Z</time>
        <extensions>
          <ns3:TrackPointExtension>
            <ns3:atemp>18.0</ns3:atemp>
          </ns3:TrackPointExtension>
        </extensions>
      </trkpt>
      <trkpt lat="42.6175437681376934051513671875" lon="19.8834251426160335540771484375">
        <ele>1944</ele>
        <time>2026-06-16T11:00:11.000Z</time>
        <extensions>
          <ns3:TrackPointExtension>
            <ns3:atemp>18.0</ns3:atemp>
          </ns3:TrackPointExtension>
        </extensions>
      </trkpt>
      <trkpt lat="42.6175437681376934051513671875" lon="19.8834251426160335540771484375">
        <ele>1944</ele>
        <time>2026-06-16T11:00:12.000Z</time>
        <extensions>
          <ns3:TrackPointExtension>
            <ns3:atemp>18.0</ns3:atemp>
          </ns3:TrackPointExtension>
        </extensions>
      </trkpt>
      <trkpt lat="42.6175437681376934051513671875" lon="19.8834251426160335540771484375">
        <ele>1944</ele>
        <time>2026-06-16T11:00:13.000Z</time>
        <extensions>
          <ns3:TrackPointExtension>
            <ns3:atemp>18.0</ns3:atemp>
          </ns3:TrackPointExtension>
        </extensions>
      </trkpt>
      <trkpt lat="42.6175437681376934051513671875" lon="19.8834251426160335540771484375">
        <ele>1944</ele>
        <time>2026-06-16T11:00:14.000Z</time>
        <extensions>
          <ns3:TrackPointExtension>
            <ns3:atemp>18.0</ns3:atemp>
          </ns3:TrackPointExtension>
        </extensions>
      </trkpt>
      <trkpt lat="42.6175437681376934051513671875" lon="19.8834251426160335540771484375">
        <ele>1944</ele>
        <time>2026-06-16T11:00:15.000Z</time>
        <extensions>
          <ns3:TrackPointExtension>
            <ns3:atemp>18.0</ns3:atemp>
          </ns3:TrackPointExtension>
        </extensions>
      </trkpt>
      <trkpt lat="42.6175437681376934051513671875" lon="19.8834251426160335540771484375">
        <ele>1944</ele>
        <time>2026-06-16T11:00:16.000Z</time>
        <extensions>
          <ns3:TrackPointExtension>
            <ns3:atemp>18.0</ns3:atemp>
          </ns3:TrackPointExtension>
        </extensions>
      </trkpt>
      <trkpt lat="42.6175437681376934051513671875" lon="19.8834251426160335540771484375">
        <ele>1944</ele>
        <time>2026-06-16T11:00:17.000Z</time>
        <extensions>
          <ns3:TrackPointExtension>
            <ns3:atemp>18.0</ns3:atemp>
          </ns3:TrackPointExtension>
        </extensions>
      </trkpt>
      <trkpt lat="42.6175437681376934051513671875" lon="19.8834251426160335540771484375">
        <ele>1944</ele>
        <time>2026-06-16T11:00:18.000Z</time>
        <extensions>
          <ns3:TrackPointExtension>
            <ns3:atemp>18.0</ns3:atemp>
          </ns3:TrackPointExtension>
        </extensions>
      </trkpt>
      <trkpt lat="42.61754770763218402862548828125" lon="19.88343243487179279327392578125">
        <ele>1943.800048828125</ele>
        <time>2026-06-16T11:00:19.000Z</time>
        <extensions>
          <ns3:TrackPointExtension>
            <ns3:atemp>18.0</ns3:atemp>
          </ns3:TrackPointExtension>
        </extensions>
      </trkpt>
      <trkpt lat="42.61755759827792644500732421875" lon="19.883451126515865325927734375">
        <ele>1943.800048828125</ele>
        <time>2026-06-16T11:00:20.000Z</time>
        <extensions>
          <ns3:TrackPointExtension>
            <ns3:atemp>18.0</ns3:atemp>
          </ns3:TrackPointExtension>
        </extensions>
      </trkpt>
      <trkpt lat="42.61756899766623973846435546875" lon="19.88346495665609836578369140625">
        <ele>1943.800048828125</ele>
        <time>2026-06-16T11:00:21.000Z</time>
        <extensions>
          <ns3:TrackPointExtension>
            <ns3:atemp>18.0</ns3:atemp>
          </ns3:TrackPointExtension>
        </extensions>
      </trkpt>
      <trkpt lat="42.61757805012166500091552734375" lon="19.883469901978969573974609375">
        <ele>1943.800048828125</ele>
        <time>2026-06-16T11:00:22.000Z</time>
        <extensions>
          <ns3:TrackPointExtension>
            <ns3:atemp>18.0</ns3:atemp>
          </ns3:TrackPointExtension>
        </extensions>
      </trkpt>
      <trkpt lat="42.617578469216823577880859375" lon="19.8834727518260478973388671875">
        <ele>1944</ele>
        <time>2026-06-16T11:00:23.000Z</time>
        <extensions>
          <ns3:TrackPointExtension>
            <ns3:atemp>18.0</ns3:atemp>
          </ns3:TrackPointExtension>
        </extensions>
      </trkpt>
      <trkpt lat="42.617578469216823577880859375" lon="19.883472584187984466552734375">
        <ele>1944</ele>
        <time>2026-06-16T11:00:24.000Z</time>
        <extensions>
          <ns3:TrackPointExtension>
            <ns3:atemp>18.0</ns3:atemp>
          </ns3:TrackPointExtension>
        </extensions>
      </trkpt>
      <trkpt lat="42.617578469216823577880859375" lon="19.883472584187984466552734375">
        <ele>1944.199951171875</ele>
        <time>2026-06-16T11:00:25.000Z</time>
        <extensions>
          <ns3:TrackPointExtension>
            <ns3:atemp>18.0</ns3:atemp>
          </ns3:TrackPointExtension>
        </extensions>
      </trkpt>
      <trkpt lat="42.617578469216823577880859375" lon="19.88347224891185760498046875">
        <ele>1944.4000244140625</ele>
        <time>2026-06-16T11:00:26.000Z</time>
        <extensions>
          <ns3:TrackPointExtension>
            <ns3:atemp>18.0</ns3:atemp>
          </ns3:TrackPointExtension>
        </extensions>
      </trkpt>
      <trkpt lat="42.6175756193697452545166015625" lon="19.88347920589148998260498046875">
        <ele>1944.5999755859375</ele>
        <time>2026-06-16T11:00:27.000Z</time>
        <extensions>
          <ns3:TrackPointExtension>
            <ns3:atemp>18.0</ns3:atemp>
          </ns3:TrackPointExtension>
        </extensions>
      </trkpt>
      <trkpt lat="42.617570422589778900146484375" lon="19.8834918625652790069580078125">
        <ele>1944.5999755859375</ele>
        <time>2026-06-16T11:00:28.000Z</time>
        <extensions>
          <ns3:TrackPointExtension>
            <ns3:atemp>19.0</ns3:atemp>
          </ns3:TrackPointExtension>
        </extensions>
      </trkpt>
      <trkpt lat="42.61757402680814266204833984375" lon="19.88350267522037029266357421875">
        <ele>1944.5999755859375</ele>
        <time>2026-06-16T11:00:29.000Z</time>
        <extensions>
          <ns3:TrackPointExtension>
            <ns3:atemp>19.0</ns3:atemp>
          </ns3:TrackPointExtension>
        </extensions>
      </trkpt>
      <trkpt lat="42.61757805012166500091552734375" lon="19.88351239822804927825927734375">
        <ele>1944.4000244140625</ele>
        <time>2026-06-16T11:00:30.000Z</time>
        <extensions>
          <ns3:TrackPointExtension>
            <ns3:atemp>18.0</ns3:atemp>
          </ns3:TrackPointExtension>
        </extensions>
      </trkpt>
      <trkpt lat="42.61758257634937763214111328125" lon="19.883522875607013702392578125">
        <ele>1944.4000244140625</ele>
        <time>2026-06-16T11:00:31.000Z</time>
        <extensions>
          <ns3:TrackPointExtension>
            <ns3:atemp>18.0</ns3:atemp>
          </ns3:TrackPointExtension>
        </extensions>
      </trkpt>
      <trkpt lat="42.6175903715193271636962890625" lon="19.883526228368282318115234375">
        <ele>1944.199951171875</ele>
        <time>2026-06-16T11:00:32.000Z</time>
        <extensions>
          <ns3:TrackPointExtension>
            <ns3:atemp>18.0</ns3:atemp>
          </ns3:TrackPointExtension>
        </extensions>
      </trkpt>
      <trkpt lat="42.6175964064896106719970703125" lon="19.883531592786312103271484375">
        <ele>1944.4000244140625</ele>
        <time>2026-06-16T11:00:33.000Z</time>
        <extensions>
          <ns3:TrackPointExtension>
            <ns3:atemp>19.0</ns3:atemp>
          </ns3:TrackPointExtension>
        </extensions>
      </trkpt>
      <trkpt lat="42.6176031120121479034423828125" lon="19.88353553228080272674560546875">
        <ele>1944.4000244140625</ele>
        <time>2026-06-16T11:00:34.000Z</time>
        <extensions>
          <ns3:TrackPointExtension>
            <ns3:atemp>18.0</ns3:atemp>
          </ns3:TrackPointExtension>
        </extensions>
      </trkpt>
      <trkpt lat="42.617614008486270904541015625" lon="19.8835431598126888275146484375">
        <ele>1944.5999755859375</ele>
        <time>2026-06-16T11:00:35.000Z</time>
        <extensions>
          <ns3:TrackPointExtension>
            <ns3:atemp>18.0</ns3:atemp>
          </ns3:TrackPointExtension>
        </extensions>
      </trkpt>
      <trkpt lat="42.61761702597141265869140625" lon="19.88354860804975032806396484375">
        <ele>1944.800048828125</ele>
        <time>2026-06-16T11:00:36.000Z</time>
        <extensions>
          <ns3:TrackPointExtension>
            <ns3:atemp>18.0</ns3:atemp>
          </ns3:TrackPointExtension>
        </extensions>
      </trkpt>
      <trkpt lat="42.61761710979044437408447265625" lon="19.88354869186878204345703125">
        <ele>1944.800048828125</ele>
        <time>2026-06-16T11:00:37.000Z</time>
        <extensions>
          <ns3:TrackPointExtension>
            <ns3:atemp>18.0</ns3:atemp>
          </ns3:TrackPointExtension>
        </extensions>
      </trkpt>
      <trkpt lat="42.61761710979044437408447265625" lon="19.88354869186878204345703125">
        <ele>1945</ele>
        <time>2026-06-16T11:00:38.000Z</time>
        <extensions>
          <ns3:TrackPointExtension>
            <ns3:atemp>19.0</ns3:atemp>
          </ns3:TrackPointExtension>
        </extensions>
      </trkpt>
      <trkpt lat="42.61761710979044437408447265625" lon="19.88354869186878204345703125">
        <ele>1945</ele>
        <time>2026-06-16T11:00:39.000Z</time>
        <extensions>
          <ns3:TrackPointExtension>
            <ns3:atemp>18.0</ns3:atemp>
          </ns3:TrackPointExtension>
        </extensions>
      </trkpt>
      <trkpt lat="42.617617361247539520263671875" lon="19.88354927860200405120849609375">
        <ele>1945.199951171875</ele>
        <time>2026-06-16T11:00:40.000Z</time>
        <extensions>
          <ns3:TrackPointExtension>
            <ns3:atemp>18.0</ns3:atemp>
          </ns3:TrackPointExtension>
        </extensions>
      </trkpt>
      <trkpt lat="42.61763982474803924560546875" lon="19.88357408903539180755615234375">
        <ele>1945</ele>
        <time>2026-06-16T11:00:41.000Z</time>
        <extensions>
          <ns3:TrackPointExtension>
            <ns3:atemp>19.0</ns3:atemp>
          </ns3:TrackPointExtension>
        </extensions>
      </trkpt>
      <trkpt lat="42.61765717528760433197021484375" lon="19.88358917646110057830810546875">
        <ele>1945</ele>
        <time>2026-06-16T11:00:42.000Z</time>
        <extensions>
          <ns3:TrackPointExtension>
            <ns3:atemp>19.0</ns3:atemp>
          </ns3:TrackPointExtension>
        </extensions>
      </trkpt>
      <trkpt lat="42.61766790412366390228271484375" lon="19.88360241986811161041259765625">
        <ele>1945</ele>
        <time>2026-06-16T11:00:43.000Z</time>
        <extensions>
          <ns3:TrackPointExtension>
            <ns3:atemp>19.0</ns3:atemp>
          </ns3:TrackPointExtension>
        </extensions>
      </trkpt>
      <trkpt lat="42.6176795549690723419189453125" lon="19.883614070713520050048828125">
        <ele>1945.199951171875</ele>
        <time>2026-06-16T11:00:44.000Z</time>
        <extensions>
          <ns3:TrackPointExtension>
            <ns3:atemp>18.0</ns3:atemp>
          </ns3:TrackPointExtension>
        </extensions>
      </trkpt>
      <trkpt lat="42.6176927983760833740234375" lon="19.88362404517829418182373046875">
        <ele>1945.199951171875</ele>
        <time>2026-06-16T11:00:45.000Z</time>
        <extensions>
          <ns3:TrackPointExtension>
            <ns3:atemp>18.0</ns3:atemp>
          </ns3:TrackPointExtension>
        </extensions>
      </trkpt>
      <trkpt lat="42.617709897458553314208984375" lon="19.88363846205174922943115234375">
        <ele>1945.4000244140625</ele>
        <time>2026-06-16T11:00:46.000Z</time>
        <extensions>
          <ns3:TrackPointExtension>
            <ns3:atemp>18.0</ns3:atemp>
          </ns3:TrackPointExtension>
        </extensions>
      </trkpt>
      <trkpt lat="42.61772188358008861541748046875" lon="19.88365053199231624603271484375">
        <ele>1945.5999755859375</ele>
        <time>2026-06-16T11:00:47.000Z</time>
        <extensions>
          <ns3:TrackPointExtension>
            <ns3:atemp>18.0</ns3:atemp>
          </ns3:TrackPointExtension>
        </extensions>
      </trkpt>
      <trkpt lat="42.61773864738643169403076171875" lon="19.88366126082837581634521484375">
        <ele>1945.5999755859375</ele>
        <time>2026-06-16T11:00:48.000Z</time>
        <extensions>
          <ns3:TrackPointExtension>
            <ns3:atemp>18.0</ns3:atemp>
          </ns3:TrackPointExtension>
        </extensions>
      </trkpt>
      <trkpt lat="42.6177506335079669952392578125" lon="19.88366000354290008544921875">
        <ele>1945.5999755859375</ele>
        <time>2026-06-16T11:00:49.000Z</time>
        <extensions>
          <ns3:TrackPointExtension>
            <ns3:atemp>18.0</ns3:atemp>
          </ns3:TrackPointExtension>
        </extensions>
      </trkpt>
      <trkpt lat="42.6177506335079669952392578125" lon="19.88365287892520427703857421875">
        <ele>1945.800048828125</ele>
        <time>2026-06-16T11:00:50.000Z</time>
        <extensions>
          <ns3:TrackPointExtension>
            <ns3:atemp>18.0</ns3:atemp>
          </ns3:TrackPointExtension>
        </extensions>
      </trkpt>
      <trkpt lat="42.6177506335079669952392578125" lon="19.8836527951061725616455078125">
        <ele>1946</ele>
        <time>2026-06-16T11:00:51.000Z</time>
        <extensions>
          <ns3:TrackPointExtension>
            <ns3:atemp>18.0</ns3:atemp>
          </ns3:TrackPointExtension>
        </extensions>
      </trkpt>
      <trkpt lat="42.6177506335079669952392578125" lon="19.8836527951061725616455078125">
        <ele>1946</ele>
        <time>2026-06-16T11:00:52.000Z</time>
        <extensions>
          <ns3:TrackPointExtension>
            <ns3:atemp>19.0</ns3:atemp>
          </ns3:TrackPointExtension>
        </extensions>
      </trkpt>
      <trkpt lat="42.6177506335079669952392578125" lon="19.8836527951061725616455078125">
        <ele>1946</ele>
        <time>2026-06-16T11:00:53.000Z</time>
        <extensions>
          <ns3:TrackPointExtension>
            <ns3:atemp>19.0</ns3:atemp>
          </ns3:TrackPointExtension>
        </extensions>
      </trkpt>
      <trkpt lat="42.6177506335079669952392578125" lon="19.8836527951061725616455078125">
        <ele>1946.199951171875</ele>
        <time>2026-06-16T11:00:54.000Z</time>
        <extensions>
          <ns3:TrackPointExtension>
            <ns3:atemp>19.0</ns3:atemp>
          </ns3:TrackPointExtension>
        </extensions>
      </trkpt>
      <trkpt lat="42.6177506335079669952392578125" lon="19.8836527951061725616455078125">
        <ele>1946</ele>
        <time>2026-06-16T11:00:55.000Z</time>
        <extensions>
          <ns3:TrackPointExtension>
            <ns3:atemp>19.0</ns3:atemp>
          </ns3:TrackPointExtension>
        </extensions>
      </trkpt>
      <trkpt lat="42.6177506335079669952392578125" lon="19.8836527951061725616455078125">
        <ele>1946</ele>
        <time>2026-06-16T11:00:56.000Z</time>
        <extensions>
          <ns3:TrackPointExtension>
            <ns3:atemp>19.0</ns3:atemp>
          </ns3:TrackPointExtension>
        </extensions>
      </trkpt>
      <trkpt lat="42.6177506335079669952392578125" lon="19.8836527951061725616455078125">
        <ele>1945.800048828125</ele>
        <time>2026-06-16T11:00:57.000Z</time>
        <extensions>
          <ns3:TrackPointExtension>
            <ns3:atemp>19.0</ns3:atemp>
          </ns3:TrackPointExtension>
        </extensions>
      </trkpt>
      <trkpt lat="42.6177506335079669952392578125" lon="19.8836527951061725616455078125">
        <ele>1945.800048828125</ele>
        <time>2026-06-16T11:00:58.000Z</time>
        <extensions>
          <ns3:TrackPointExtension>
            <ns3:atemp>19.0</ns3:atemp>
          </ns3:TrackPointExtension>
        </extensions>
      </trkpt>
      <trkpt lat="42.6177506335079669952392578125" lon="19.8836527951061725616455078125">
        <ele>1945.800048828125</ele>
        <time>2026-06-16T11:00:59.000Z</time>
        <extensions>
          <ns3:TrackPointExtension>
            <ns3:atemp>19.0</ns3:atemp>
          </ns3:TrackPointExtension>
        </extensions>
      </trkpt>
      <trkpt lat="42.6177506335079669952392578125" lon="19.8836527951061725616455078125">
        <ele>1945.5999755859375</ele>
        <time>2026-06-16T11:01:00.000Z</time>
        <extensions>
          <ns3:TrackPointExtension>
            <ns3:atemp>19.0</ns3:atemp>
          </ns3:TrackPointExtension>
        </extensions>
      </trkpt>
      <trkpt lat="42.6177506335079669952392578125" lon="19.8836527951061725616455078125">
        <ele>1945.5999755859375</ele>
        <time>2026-06-16T11:01:01.000Z</time>
        <extensions>
          <ns3:TrackPointExtension>
            <ns3:atemp>19.0</ns3:atemp>
          </ns3:TrackPointExtension>
        </extensions>
      </trkpt>
      <trkpt lat="42.6177506335079669952392578125" lon="19.8836527951061725616455078125">
        <ele>1945.5999755859375</ele>
        <time>2026-06-16T11:01:02.000Z</time>
        <extensions>
          <ns3:TrackPointExtension>
            <ns3:atemp>19.0</ns3:atemp>
          </ns3:TrackPointExtension>
        </extensions>
      </trkpt>
      <trkpt lat="42.6177506335079669952392578125" lon="19.8836527951061725616455078125">
        <ele>1945.4000244140625</ele>
        <time>2026-06-16T11:01:03.000Z</time>
        <extensions>
          <ns3:TrackPointExtension>
            <ns3:atemp>19.0</ns3:atemp>
          </ns3:TrackPointExtension>
        </extensions>
      </trkpt>
      <trkpt lat="42.6177506335079669952392578125" lon="19.8836527951061725616455078125">
        <ele>1945.4000244140625</ele>
        <time>2026-06-16T11:01:04.000Z</time>
        <extensions>
          <ns3:TrackPointExtension>
            <ns3:atemp>19.0</ns3:atemp>
          </ns3:TrackPointExtension>
        </extensions>
      </trkpt>
      <trkpt lat="42.6177506335079669952392578125" lon="19.8836527951061725616455078125">
        <ele>1945.4000244140625</ele>
        <time>2026-06-16T11:01:05.000Z</time>
        <extensions>
          <ns3:TrackPointExtension>
            <ns3:atemp>19.0</ns3:atemp>
          </ns3:TrackPointExtension>
        </extensions>
      </trkpt>
      <trkpt lat="42.6177506335079669952392578125" lon="19.8836527951061725616455078125">
        <ele>1945.4000244140625</ele>
        <time>2026-06-16T11:01:06.000Z</time>
        <extensions>
          <ns3:TrackPointExtension>
            <ns3:atemp>19.0</ns3:atemp>
          </ns3:TrackPointExtension>
        </extensions>
      </trkpt>
      <trkpt lat="42.6177506335079669952392578125" lon="19.8836527951061725616455078125">
        <ele>1945.4000244140625</ele>
        <time>2026-06-16T11:01:07.000Z</time>
        <extensions>
          <ns3:TrackPointExtension>
            <ns3:atemp>19.0</ns3:atemp>
          </ns3:TrackPointExtension>
        </extensions>
      </trkpt>
      <trkpt lat="42.6177506335079669952392578125" lon="19.8836527951061725616455078125">
        <ele>1945.4000244140625</ele>
        <time>2026-06-16T11:01:08.000Z</time>
        <extensions>
          <ns3:TrackPointExtension>
            <ns3:atemp>19.0</ns3:atemp>
          </ns3:TrackPointExtension>
        </extensions>
      </trkpt>
      <trkpt lat="42.6177506335079669952392578125" lon="19.8836527951061725616455078125">
        <ele>1945.4000244140625</ele>
        <time>2026-06-16T11:01:09.000Z</time>
        <extensions>
          <ns3:TrackPointExtension>
            <ns3:atemp>19.0</ns3:atemp>
          </ns3:TrackPointExtension>
        </extensions>
      </trkpt>
      <trkpt lat="42.6177506335079669952392578125" lon="19.8836527951061725616455078125">
        <ele>1945.4000244140625</ele>
        <time>2026-06-16T11:01:10.000Z</time>
        <extensions>
          <ns3:TrackPointExtension>
            <ns3:atemp>19.0</ns3:atemp>
          </ns3:TrackPointExtension>
        </extensions>
      </trkpt>
      <trkpt lat="42.6177506335079669952392578125" lon="19.8836527951061725616455078125">
        <ele>1945.4000244140625</ele>
        <time>2026-06-16T11:01:11.000Z</time>
        <extensions>
          <ns3:TrackPointExtension>
            <ns3:atemp>19.0</ns3:atemp>
          </ns3:TrackPointExtension>
        </extensions>
      </trkpt>
      <trkpt lat="42.6177506335079669952392578125" lon="19.8836527951061725616455078125">
        <ele>1945.4000244140625</ele>
        <time>2026-06-16T11:01:12.000Z</time>
        <extensions>
          <ns3:TrackPointExtension>
            <ns3:atemp>19.0</ns3:atemp>
          </ns3:TrackPointExtension>
        </extensions>
      </trkpt>
      <trkpt lat="42.6177506335079669952392578125" lon="19.8836527951061725616455078125">
        <ele>1945.4000244140625</ele>
        <time>2026-06-16T11:01:13.000Z</time>
        <extensions>
          <ns3:TrackPointExtension>
            <ns3:atemp>19.0</ns3:atemp>
          </ns3:TrackPointExtension>
        </extensions>
      </trkpt>
      <trkpt lat="42.6177506335079669952392578125" lon="19.8836527951061725616455078125">
        <ele>1945.4000244140625</ele>
        <time>2026-06-16T11:01:14.000Z</time>
        <extensions>
          <ns3:TrackPointExtension>
            <ns3:atemp>19.0</ns3:atemp>
          </ns3:TrackPointExtension>
        </extensions>
      </trkpt>
      <trkpt lat="42.6177506335079669952392578125" lon="19.8836527951061725616455078125">
        <ele>1945.4000244140625</ele>
        <time>2026-06-16T11:01:15.000Z</time>
        <extensions>
          <ns3:TrackPointExtension>
            <ns3:atemp>19.0</ns3:atemp>
          </ns3:TrackPointExtension>
        </extensions>
      </trkpt>
      <trkpt lat="42.6177506335079669952392578125" lon="19.8836527951061725616455078125">
        <ele>1945.4000244140625</ele>
        <time>2026-06-16T11:01:16.000Z</time>
        <extensions>
          <ns3:TrackPointExtension>
            <ns3:atemp>19.0</ns3:atemp>
          </ns3:TrackPointExtension>
        </extensions>
      </trkpt>
      <trkpt lat="42.6177506335079669952392578125" lon="19.8836527951061725616455078125">
        <ele>1945.199951171875</ele>
        <time>2026-06-16T11:01:17.000Z</time>
        <extensions>
          <ns3:TrackPointExtension>
            <ns3:atemp>19.0</ns3:atemp>
          </ns3:TrackPointExtension>
        </extensions>
      </trkpt>
      <trkpt lat="42.6177506335079669952392578125" lon="19.8836527951061725616455078125">
        <ele>1945.199951171875</ele>
        <time>2026-06-16T11:01:18.000Z</time>
        <extensions>
          <ns3:TrackPointExtension>
            <ns3:atemp>19.0</ns3:atemp>
          </ns3:TrackPointExtension>
        </extensions>
      </trkpt>
      <trkpt lat="42.6177506335079669952392578125" lon="19.8836527951061725616455078125">
        <ele>1945.199951171875</ele>
        <time>2026-06-16T11:01:19.000Z</time>
        <extensions>
          <ns3:TrackPointExtension>
            <ns3:atemp>19.0</ns3:atemp>
          </ns3:TrackPointExtension>
        </extensions>
      </trkpt>
      <trkpt lat="42.6177506335079669952392578125" lon="19.8836527951061725616455078125">
        <ele>1945.199951171875</ele>
        <time>2026-06-16T11:01:20.000Z</time>
        <extensions>
          <ns3:TrackPointExtension>
            <ns3:atemp>19.0</ns3:atemp>
          </ns3:TrackPointExtension>
        </extensions>
      </trkpt>
      <trkpt lat="42.6177506335079669952392578125" lon="19.8836527951061725616455078125">
        <ele>1945.199951171875</ele>
        <time>2026-06-16T11:01:21.000Z</time>
        <extensions>
          <ns3:TrackPointExtension>
            <ns3:atemp>19.0</ns3:atemp>
          </ns3:TrackPointExtension>
        </extensions>
      </trkpt>
      <trkpt lat="42.6177506335079669952392578125" lon="19.8836527951061725616455078125">
        <ele>1945.199951171875</ele>
        <time>2026-06-16T11:01:22.000Z</time>
        <extensions>
          <ns3:TrackPointExtension>
            <ns3:atemp>19.0</ns3:atemp>
          </ns3:TrackPointExtension>
        </extensions>
      </trkpt>
      <trkpt lat="42.6177506335079669952392578125" lon="19.8836527951061725616455078125">
        <ele>1945</ele>
        <time>2026-06-16T11:01:23.000Z</time>
        <extensions>
          <ns3:TrackPointExtension>
            <ns3:atemp>19.0</ns3:atemp>
          </ns3:TrackPointExtension>
        </extensions>
      </trkpt>
      <trkpt lat="42.6177506335079669952392578125" lon="19.8836527951061725616455078125">
        <ele>1945</ele>
        <time>2026-06-16T11:01:24.000Z</time>
        <extensions>
          <ns3:TrackPointExtension>
            <ns3:atemp>19.0</ns3:atemp>
          </ns3:TrackPointExtension>
        </extensions>
      </trkpt>
      <trkpt lat="42.6177506335079669952392578125" lon="19.8836527951061725616455078125">
        <ele>1945</ele>
        <time>2026-06-16T11:01:25.000Z</time>
        <extensions>
          <ns3:TrackPointExtension>
            <ns3:atemp>19.0</ns3:atemp>
          </ns3:TrackPointExtension>
        </extensions>
      </trkpt>
      <trkpt lat="42.6177506335079669952392578125" lon="19.8836527951061725616455078125">
        <ele>1945</ele>
        <time>2026-06-16T11:01:26.000Z</time>
        <extensions>
          <ns3:TrackPointExtension>
            <ns3:atemp>19.0</ns3:atemp>
          </ns3:TrackPointExtension>
        </extensions>
      </trkpt>
      <trkpt lat="42.6177506335079669952392578125" lon="19.8836527951061725616455078125">
        <ele>1945</ele>
        <time>2026-06-16T11:01:27.000Z</time>
        <extensions>
          <ns3:TrackPointExtension>
            <ns3:atemp>19.0</ns3:atemp>
          </ns3:TrackPointExtension>
        </extensions>
      </trkpt>
      <trkpt lat="42.6177506335079669952392578125" lon="19.8836527951061725616455078125">
        <ele>1944.800048828125</ele>
        <time>2026-06-16T11:01:28.000Z</time>
        <extensions>
          <ns3:TrackPointExtension>
            <ns3:atemp>19.0</ns3:atemp>
          </ns3:TrackPointExtension>
        </extensions>
      </trkpt>
      <trkpt lat="42.6177506335079669952392578125" lon="19.8836527951061725616455078125">
        <ele>1944.800048828125</ele>
        <time>2026-06-16T11:01:29.000Z</time>
        <extensions>
          <ns3:TrackPointExtension>
            <ns3:atemp>19.0</ns3:atemp>
          </ns3:TrackPointExtension>
        </extensions>
      </trkpt>
      <trkpt lat="42.6177506335079669952392578125" lon="19.8836527951061725616455078125">
        <ele>1944.800048828125</ele>
        <time>2026-06-16T11:01:30.000Z</time>
        <extensions>
          <ns3:TrackPointExtension>
            <ns3:atemp>19.0</ns3:atemp>
          </ns3:TrackPointExtension>
        </extensions>
      </trkpt>
      <trkpt lat="42.6177506335079669952392578125" lon="19.8836527951061725616455078125">
        <ele>1944.800048828125</ele>
        <time>2026-06-16T11:01:31.000Z</time>
        <extensions>
          <ns3:TrackPointExtension>
            <ns3:atemp>19.0</ns3:atemp>
          </ns3:TrackPointExtension>
        </extensions>
      </trkpt>
      <trkpt lat="42.6177506335079669952392578125" lon="19.8836527951061725616455078125">
        <ele>1944.800048828125</ele>
        <time>2026-06-16T11:01:32.000Z</time>
        <extensions>
          <ns3:TrackPointExtension>
            <ns3:atemp>19.0</ns3:atemp>
          </ns3:TrackPointExtension>
        </extensions>
      </trkpt>
      <trkpt lat="42.6177506335079669952392578125" lon="19.8836527951061725616455078125">
        <ele>1944.800048828125</ele>
        <time>2026-06-16T11:01:33.000Z</time>
        <extensions>
          <ns3:TrackPointExtension>
            <ns3:atemp>19.0</ns3:atemp>
          </ns3:TrackPointExtension>
        </extensions>
      </trkpt>
      <trkpt lat="42.6177506335079669952392578125" lon="19.8836527951061725616455078125">
        <ele>1944.800048828125</ele>
        <time>2026-06-16T11:01:34.000Z</time>
        <extensions>
          <ns3:TrackPointExtension>
            <ns3:atemp>19.0</ns3:atemp>
          </ns3:TrackPointExtension>
        </extensions>
      </trkpt>
      <trkpt lat="42.6177506335079669952392578125" lon="19.8836527951061725616455078125">
        <ele>1944.800048828125</ele>
        <time>2026-06-16T11:01:35.000Z</time>
        <extensions>
          <ns3:TrackPointExtension>
            <ns3:atemp>19.0</ns3:atemp>
          </ns3:TrackPointExtension>
        </extensions>
      </trkpt>
      <trkpt lat="42.6177506335079669952392578125" lon="19.8836527951061725616455078125">
        <ele>1944.800048828125</ele>
        <time>2026-06-16T11:01:36.000Z</time>
        <extensions>
          <ns3:TrackPointExtension>
            <ns3:atemp>19.0</ns3:atemp>
          </ns3:TrackPointExtension>
        </extensions>
      </trkpt>
      <trkpt lat="42.6177506335079669952392578125" lon="19.8836527951061725616455078125">
        <ele>1944.800048828125</ele>
        <time>2026-06-16T11:01:37.000Z</time>
        <extensions>
          <ns3:TrackPointExtension>
            <ns3:atemp>19.0</ns3:atemp>
          </ns3:TrackPointExtension>
        </extensions>
      </trkpt>
      <trkpt lat="42.6177506335079669952392578125" lon="19.8836527951061725616455078125">
        <ele>1944.5999755859375</ele>
        <time>2026-06-16T11:01:38.000Z</time>
        <extensions>
          <ns3:TrackPointExtension>
            <ns3:atemp>19.0</ns3:atemp>
          </ns3:TrackPointExtension>
        </extensions>
      </trkpt>
      <trkpt lat="42.6177506335079669952392578125" lon="19.8836527951061725616455078125">
        <ele>1944.5999755859375</ele>
        <time>2026-06-16T11:01:39.000Z</time>
        <extensions>
          <ns3:TrackPointExtension>
            <ns3:atemp>19.0</ns3:atemp>
          </ns3:TrackPointExtension>
        </extensions>
      </trkpt>
      <trkpt lat="42.6177506335079669952392578125" lon="19.8836527951061725616455078125">
        <ele>1944.5999755859375</ele>
        <time>2026-06-16T11:01:40.000Z</time>
        <extensions>
          <ns3:TrackPointExtension>
            <ns3:atemp>19.0</ns3:atemp>
          </ns3:TrackPointExtension>
        </extensions>
      </trkpt>
      <trkpt lat="42.6177506335079669952392578125" lon="19.8836527951061725616455078125">
        <ele>1944.4000244140625</ele>
        <time>2026-06-16T11:01:41.000Z</time>
        <extensions>
          <ns3:TrackPointExtension>
            <ns3:atemp>19.0</ns3:atemp>
          </ns3:TrackPointExtension>
        </extensions>
      </trkpt>
      <trkpt lat="42.6177506335079669952392578125" lon="19.8836527951061725616455078125">
        <ele>1944.4000244140625</ele>
        <time>2026-06-16T11:01:42.000Z</time>
        <extensions>
          <ns3:TrackPointExtension>
            <ns3:atemp>19.0</ns3:atemp>
          </ns3:TrackPointExtension>
        </extensions>
      </trkpt>
      <trkpt lat="42.6177506335079669952392578125" lon="19.8836527951061725616455078125">
        <ele>1944.4000244140625</ele>
        <time>2026-06-16T11:01:43.000Z</time>
        <extensions>
          <ns3:TrackPointExtension>
            <ns3:atemp>19.0</ns3:atemp>
          </ns3:TrackPointExtension>
        </extensions>
      </trkpt>
      <trkpt lat="42.6177506335079669952392578125" lon="19.8836527951061725616455078125">
        <ele>1944.4000244140625</ele>
        <time>2026-06-16T11:01:44.000Z</time>
        <extensions>
          <ns3:TrackPointExtension>
            <ns3:atemp>19.0</ns3:atemp>
          </ns3:TrackPointExtension>
        </extensions>
      </trkpt>
      <trkpt lat="42.6177506335079669952392578125" lon="19.8836527951061725616455078125">
        <ele>1944.4000244140625</ele>
        <time>2026-06-16T11:01:45.000Z</time>
        <extensions>
          <ns3:TrackPointExtension>
            <ns3:atemp>19.0</ns3:atemp>
          </ns3:TrackPointExtension>
        </extensions>
      </trkpt>
      <trkpt lat="42.6177506335079669952392578125" lon="19.8836527951061725616455078125">
        <ele>1944.4000244140625</ele>
        <time>2026-06-16T11:01:46.000Z</time>
        <extensions>
          <ns3:TrackPointExtension>
            <ns3:atemp>19.0</ns3:atemp>
          </ns3:TrackPointExtension>
        </extensions>
      </trkpt>
      <trkpt lat="42.6177506335079669952392578125" lon="19.8836527951061725616455078125">
        <ele>1944.4000244140625</ele>
        <time>2026-06-16T11:01:47.000Z</time>
        <extensions>
          <ns3:TrackPointExtension>
            <ns3:atemp>19.0</ns3:atemp>
          </ns3:TrackPointExtension>
        </extensions>
      </trkpt>
      <trkpt lat="42.6177506335079669952392578125" lon="19.8836527951061725616455078125">
        <ele>1944.4000244140625</ele>
        <time>2026-06-16T11:01:48.000Z</time>
        <extensions>
          <ns3:TrackPointExtension>
            <ns3:atemp>19.0</ns3:atemp>
          </ns3:TrackPointExtension>
        </extensions>
      </trkpt>
      <trkpt lat="42.6177506335079669952392578125" lon="19.8836527951061725616455078125">
        <ele>1944.4000244140625</ele>
        <time>2026-06-16T11:01:49.000Z</time>
        <extensions>
          <ns3:TrackPointExtension>
            <ns3:atemp>19.0</ns3:atemp>
          </ns3:TrackPointExtension>
        </extensions>
      </trkpt>
      <trkpt lat="42.6177506335079669952392578125" lon="19.8836527951061725616455078125">
        <ele>1944.4000244140625</ele>
        <time>2026-06-16T11:01:50.000Z</time>
        <extensions>
          <ns3:TrackPointExtension>
            <ns3:atemp>19.0</ns3:atemp>
          </ns3:TrackPointExtension>
        </extensions>
      </trkpt>
      <trkpt lat="42.6177506335079669952392578125" lon="19.8836527951061725616455078125">
        <ele>1944.199951171875</ele>
        <time>2026-06-16T11:01:51.000Z</time>
        <extensions>
          <ns3:TrackPointExtension>
            <ns3:atemp>19.0</ns3:atemp>
          </ns3:TrackPointExtension>
        </extensions>
      </trkpt>
      <trkpt lat="42.6177506335079669952392578125" lon="19.8836527951061725616455078125">
        <ele>1944.199951171875</ele>
        <time>2026-06-16T11:01:52.000Z</time>
        <extensions>
          <ns3:TrackPointExtension>
            <ns3:atemp>19.0</ns3:atemp>
          </ns3:TrackPointExtension>
        </extensions>
      </trkpt>
      <trkpt lat="42.6177506335079669952392578125" lon="19.8836527951061725616455078125">
        <ele>1944.199951171875</ele>
        <time>2026-06-16T11:01:53.000Z</time>
        <extensions>
          <ns3:TrackPointExtension>
            <ns3:atemp>19.0</ns3:atemp>
          </ns3:TrackPointExtension>
        </extensions>
      </trkpt>
      <trkpt lat="42.6177506335079669952392578125" lon="19.8836527951061725616455078125">
        <ele>1944.199951171875</ele>
        <time>2026-06-16T11:01:54.000Z</time>
        <extensions>
          <ns3:TrackPointExtension>
            <ns3:atemp>19.0</ns3:atemp>
          </ns3:TrackPointExtension>
        </extensions>
      </trkpt>
      <trkpt lat="42.6177506335079669952392578125" lon="19.8836527951061725616455078125">
        <ele>1944.199951171875</ele>
        <time>2026-06-16T11:01:55.000Z</time>
        <extensions>
          <ns3:TrackPointExtension>
            <ns3:atemp>19.0</ns3:atemp>
          </ns3:TrackPointExtension>
        </extensions>
      </trkpt>
      <trkpt lat="42.6177506335079669952392578125" lon="19.8836527951061725616455078125">
        <ele>1944.199951171875</ele>
        <time>2026-06-16T11:01:56.000Z</time>
        <extensions>
          <ns3:TrackPointExtension>
            <ns3:atemp>19.0</ns3:atemp>
          </ns3:TrackPointExtension>
        </extensions>
      </trkpt>
      <trkpt lat="42.6177506335079669952392578125" lon="19.8836527951061725616455078125">
        <ele>1944.199951171875</ele>
        <time>2026-06-16T11:01:57.000Z</time>
        <extensions>
          <ns3:TrackPointExtension>
            <ns3:atemp>19.0</ns3:atemp>
          </ns3:TrackPointExtension>
        </extensions>
      </trkpt>
      <trkpt lat="42.6177506335079669952392578125" lon="19.8836527951061725616455078125">
        <ele>1944</ele>
        <time>2026-06-16T11:01:58.000Z</time>
        <extensions>
          <ns3:TrackPointExtension>
            <ns3:atemp>19.0</ns3:atemp>
          </ns3:TrackPointExtension>
        </extensions>
      </trkpt>
      <trkpt lat="42.6177506335079669952392578125" lon="19.8836527951061725616455078125">
        <ele>1944</ele>
        <time>2026-06-16T11:01:59.000Z</time>
        <extensions>
          <ns3:TrackPointExtension>
            <ns3:atemp>19.0</ns3:atemp>
          </ns3:TrackPointExtension>
        </extensions>
      </trkpt>
      <trkpt lat="42.6177506335079669952392578125" lon="19.8836527951061725616455078125">
        <ele>1944</ele>
        <time>2026-06-16T11:02:00.000Z</time>
        <extensions>
          <ns3:TrackPointExtension>
            <ns3:atemp>19.0</ns3:atemp>
          </ns3:TrackPointExtension>
        </extensions>
      </trkpt>
      <trkpt lat="42.6177506335079669952392578125" lon="19.8836527951061725616455078125">
        <ele>1944</ele>
        <time>2026-06-16T11:02:01.000Z</time>
        <extensions>
          <ns3:TrackPointExtension>
            <ns3:atemp>19.0</ns3:atemp>
          </ns3:TrackPointExtension>
        </extensions>
      </trkpt>
      <trkpt lat="42.6177506335079669952392578125" lon="19.8836527951061725616455078125">
        <ele>1944</ele>
        <time>2026-06-16T11:02:02.000Z</time>
        <extensions>
          <ns3:TrackPointExtension>
            <ns3:atemp>19.0</ns3:atemp>
          </ns3:TrackPointExtension>
        </extensions>
      </trkpt>
      <trkpt lat="42.6177506335079669952392578125" lon="19.8836527951061725616455078125">
        <ele>1944</ele>
        <time>2026-06-16T11:02:03.000Z</time>
        <extensions>
          <ns3:TrackPointExtension>
            <ns3:atemp>19.0</ns3:atemp>
          </ns3:TrackPointExtension>
        </extensions>
      </trkpt>
      <trkpt lat="42.6177506335079669952392578125" lon="19.8836527951061725616455078125">
        <ele>1944</ele>
        <time>2026-06-16T11:02:04.000Z</time>
        <extensions>
          <ns3:TrackPointExtension>
            <ns3:atemp>19.0</ns3:atemp>
          </ns3:TrackPointExtension>
        </extensions>
      </trkpt>
      <trkpt lat="42.6177506335079669952392578125" lon="19.8836527951061725616455078125">
        <ele>1944</ele>
        <time>2026-06-16T11:02:05.000Z</time>
        <extensions>
          <ns3:TrackPointExtension>
            <ns3:atemp>19.0</ns3:atemp>
          </ns3:TrackPointExtension>
        </extensions>
      </trkpt>
      <trkpt lat="42.6177506335079669952392578125" lon="19.8836527951061725616455078125">
        <ele>1944</ele>
        <time>2026-06-16T11:02:06.000Z</time>
        <extensions>
          <ns3:TrackPointExtension>
            <ns3:atemp>19.0</ns3:atemp>
          </ns3:TrackPointExtension>
        </extensions>
      </trkpt>
      <trkpt lat="42.6177506335079669952392578125" lon="19.8836527951061725616455078125">
        <ele>1944</ele>
        <time>2026-06-16T11:02:07.000Z</time>
        <extensions>
          <ns3:TrackPointExtension>
            <ns3:atemp>19.0</ns3:atemp>
          </ns3:TrackPointExtension>
        </extensions>
      </trkpt>
      <trkpt lat="42.6177506335079669952392578125" lon="19.8836527951061725616455078125">
        <ele>1944</ele>
        <time>2026-06-16T11:02:08.000Z</time>
        <extensions>
          <ns3:TrackPointExtension>
            <ns3:atemp>19.0</ns3:atemp>
          </ns3:TrackPointExtension>
        </extensions>
      </trkpt>
      <trkpt lat="42.6177506335079669952392578125" lon="19.8836527951061725616455078125">
        <ele>1944</ele>
        <time>2026-06-16T11:02:09.000Z</time>
        <extensions>
          <ns3:TrackPointExtension>
            <ns3:atemp>19.0</ns3:atemp>
          </ns3:TrackPointExtension>
        </extensions>
      </trkpt>
      <trkpt lat="42.6177506335079669952392578125" lon="19.8836527951061725616455078125">
        <ele>1944</ele>
        <time>2026-06-16T11:02:10.000Z</time>
        <extensions>
          <ns3:TrackPointExtension>
            <ns3:atemp>19.0</ns3:atemp>
          </ns3:TrackPointExtension>
        </extensions>
      </trkpt>
      <trkpt lat="42.6177506335079669952392578125" lon="19.8836527951061725616455078125">
        <ele>1943.800048828125</ele>
        <time>2026-06-16T11:02:11.000Z</time>
        <extensions>
          <ns3:TrackPointExtension>
            <ns3:atemp>19.0</ns3:atemp>
          </ns3:TrackPointExtension>
        </extensions>
      </trkpt>
      <trkpt lat="42.6177506335079669952392578125" lon="19.8836527951061725616455078125">
        <ele>1943.800048828125</ele>
        <time>2026-06-16T11:02:12.000Z</time>
        <extensions>
          <ns3:TrackPointExtension>
            <ns3:atemp>19.0</ns3:atemp>
          </ns3:TrackPointExtension>
        </extensions>
      </trkpt>
      <trkpt lat="42.6177506335079669952392578125" lon="19.8836527951061725616455078125">
        <ele>1943.800048828125</ele>
        <time>2026-06-16T11:02:13.000Z</time>
        <extensions>
          <ns3:TrackPointExtension>
            <ns3:atemp>19.0</ns3:atemp>
          </ns3:TrackPointExtension>
        </extensions>
      </trkpt>
      <trkpt lat="42.6177506335079669952392578125" lon="19.8836527951061725616455078125">
        <ele>1943.800048828125</ele>
        <time>2026-06-16T11:02:14.000Z</time>
        <extensions>
          <ns3:TrackPointExtension>
            <ns3:atemp>19.0</ns3:atemp>
          </ns3:TrackPointExtension>
        </extensions>
      </trkpt>
      <trkpt lat="42.6177506335079669952392578125" lon="19.8836527951061725616455078125">
        <ele>1943.800048828125</ele>
        <time>2026-06-16T11:02:15.000Z</time>
        <extensions>
          <ns3:TrackPointExtension>
            <ns3:atemp>19.0</ns3:atemp>
          </ns3:TrackPointExtension>
        </extensions>
      </trkpt>
      <trkpt lat="42.6177506335079669952392578125" lon="19.8836527951061725616455078125">
        <ele>1943.800048828125</ele>
        <time>2026-06-16T11:02:16.000Z</time>
        <extensions>
          <ns3:TrackPointExtension>
            <ns3:atemp>19.0</ns3:atemp>
          </ns3:TrackPointExtension>
        </extensions>
      </trkpt>
      <trkpt lat="42.6177506335079669952392578125" lon="19.8836527951061725616455078125">
        <ele>1943.800048828125</ele>
        <time>2026-06-16T11:02:17.000Z</time>
        <extensions>
          <ns3:TrackPointExtension>
            <ns3:atemp>19.0</ns3:atemp>
          </ns3:TrackPointExtension>
        </extensions>
      </trkpt>
      <trkpt lat="42.6177506335079669952392578125" lon="19.8836527951061725616455078125">
        <ele>1943.800048828125</ele>
        <time>2026-06-16T11:02:18.000Z</time>
        <extensions>
          <ns3:TrackPointExtension>
            <ns3:atemp>19.0</ns3:atemp>
          </ns3:TrackPointExtension>
        </extensions>
      </trkpt>
      <trkpt lat="42.6177506335079669952392578125" lon="19.8836527951061725616455078125">
        <ele>1943.800048828125</ele>
        <time>2026-06-16T11:02:19.000Z</time>
        <extensions>
          <ns3:TrackPointExtension>
            <ns3:atemp>19.0</ns3:atemp>
          </ns3:TrackPointExtension>
        </extensions>
      </trkpt>
      <trkpt lat="42.6177506335079669952392578125" lon="19.8836527951061725616455078125">
        <ele>1943.800048828125</ele>
        <time>2026-06-16T11:02:20.000Z</time>
        <extensions>
          <ns3:TrackPointExtension>
            <ns3:atemp>19.0</ns3:atemp>
          </ns3:TrackPointExtension>
        </extensions>
      </trkpt>
      <trkpt lat="42.6177506335079669952392578125" lon="19.8836527951061725616455078125">
        <ele>1943.5999755859375</ele>
        <time>2026-06-16T11:02:21.000Z</time>
        <extensions>
          <ns3:TrackPointExtension>
            <ns3:atemp>19.0</ns3:atemp>
          </ns3:TrackPointExtension>
        </extensions>
      </trkpt>
      <trkpt lat="42.6177506335079669952392578125" lon="19.8836527951061725616455078125">
        <ele>1943.5999755859375</ele>
        <time>2026-06-16T11:02:22.000Z</time>
        <extensions>
          <ns3:TrackPointExtension>
            <ns3:atemp>19.0</ns3:atemp>
          </ns3:TrackPointExtension>
        </extensions>
      </trkpt>
      <trkpt lat="42.6177506335079669952392578125" lon="19.8836527951061725616455078125">
        <ele>1943.5999755859375</ele>
        <time>2026-06-16T11:02:23.000Z</time>
        <extensions>
          <ns3:TrackPointExtension>
            <ns3:atemp>19.0</ns3:atemp>
          </ns3:TrackPointExtension>
        </extensions>
      </trkpt>
      <trkpt lat="42.6177506335079669952392578125" lon="19.8836527951061725616455078125">
        <ele>1943.5999755859375</ele>
        <time>2026-06-16T11:02:24.000Z</time>
        <extensions>
          <ns3:TrackPointExtension>
            <ns3:atemp>19.0</ns3:atemp>
          </ns3:TrackPointExtension>
        </extensions>
      </trkpt>
      <trkpt lat="42.6177506335079669952392578125" lon="19.8836527951061725616455078125">
        <ele>1943.5999755859375</ele>
        <time>2026-06-16T11:02:25.000Z</time>
        <extensions>
          <ns3:TrackPointExtension>
            <ns3:atemp>19.0</ns3:atemp>
          </ns3:TrackPointExtension>
        </extensions>
      </trkpt>
      <trkpt lat="42.6177506335079669952392578125" lon="19.8836527951061725616455078125">
        <ele>1943.5999755859375</ele>
        <time>2026-06-16T11:02:26.000Z</time>
        <extensions>
          <ns3:TrackPointExtension>
            <ns3:atemp>19.0</ns3:atemp>
          </ns3:TrackPointExtension>
        </extensions>
      </trkpt>
      <trkpt lat="42.6177506335079669952392578125" lon="19.8836527951061725616455078125">
        <ele>1943.5999755859375</ele>
        <time>2026-06-16T11:02:27.000Z</time>
        <extensions>
          <ns3:TrackPointExtension>
            <ns3:atemp>19.0</ns3:atemp>
          </ns3:TrackPointExtension>
        </extensions>
      </trkpt>
      <trkpt lat="42.6177506335079669952392578125" lon="19.8836527951061725616455078125">
        <ele>1943.5999755859375</ele>
        <time>2026-06-16T11:02:28.000Z</time>
        <extensions>
          <ns3:TrackPointExtension>
            <ns3:atemp>19.0</ns3:atemp>
          </ns3:TrackPointExtension>
        </extensions>
      </trkpt>
      <trkpt lat="42.6177506335079669952392578125" lon="19.8836527951061725616455078125">
        <ele>1943.5999755859375</ele>
        <time>2026-06-16T11:02:29.000Z</time>
        <extensions>
          <ns3:TrackPointExtension>
            <ns3:atemp>19.0</ns3:atemp>
          </ns3:TrackPointExtension>
        </extensions>
      </trkpt>
      <trkpt lat="42.6177506335079669952392578125" lon="19.8836527951061725616455078125">
        <ele>1943.5999755859375</ele>
        <time>2026-06-16T11:02:30.000Z</time>
        <extensions>
          <ns3:TrackPointExtension>
            <ns3:atemp>19.0</ns3:atemp>
          </ns3:TrackPointExtension>
        </extensions>
      </trkpt>
      <trkpt lat="42.6177506335079669952392578125" lon="19.8836527951061725616455078125">
        <ele>1943.5999755859375</ele>
        <time>2026-06-16T11:02:31.000Z</time>
        <extensions>
          <ns3:TrackPointExtension>
            <ns3:atemp>19.0</ns3:atemp>
          </ns3:TrackPointExtension>
        </extensions>
      </trkpt>
      <trkpt lat="42.6177506335079669952392578125" lon="19.8836527951061725616455078125">
        <ele>1943.5999755859375</ele>
        <time>2026-06-16T11:02:32.000Z</time>
        <extensions>
          <ns3:TrackPointExtension>
            <ns3:atemp>19.0</ns3:atemp>
          </ns3:TrackPointExtension>
        </extensions>
      </trkpt>
      <trkpt lat="42.6177506335079669952392578125" lon="19.8836527951061725616455078125">
        <ele>1943.5999755859375</ele>
        <time>2026-06-16T11:02:33.000Z</time>
        <extensions>
          <ns3:TrackPointExtension>
            <ns3:atemp>19.0</ns3:atemp>
          </ns3:TrackPointExtension>
        </extensions>
      </trkpt>
      <trkpt lat="42.6177506335079669952392578125" lon="19.8836527951061725616455078125">
        <ele>1943.5999755859375</ele>
        <time>2026-06-16T11:02:34.000Z</time>
        <extensions>
          <ns3:TrackPointExtension>
            <ns3:atemp>19.0</ns3:atemp>
          </ns3:TrackPointExtension>
        </extensions>
      </trkpt>
      <trkpt lat="42.6177506335079669952392578125" lon="19.8836527951061725616455078125">
        <ele>1943.4000244140625</ele>
        <time>2026-06-16T11:02:35.000Z</time>
        <extensions>
          <ns3:TrackPointExtension>
            <ns3:atemp>19.0</ns3:atemp>
          </ns3:TrackPointExtension>
        </extensions>
      </trkpt>
      <trkpt lat="42.6177506335079669952392578125" lon="19.8836527951061725616455078125">
        <ele>1943.4000244140625</ele>
        <time>2026-06-16T11:02:36.000Z</time>
        <extensions>
          <ns3:TrackPointExtension>
            <ns3:atemp>19.0</ns3:atemp>
          </ns3:TrackPointExtension>
        </extensions>
      </trkpt>
      <trkpt lat="42.6177506335079669952392578125" lon="19.8836527951061725616455078125">
        <ele>1943.4000244140625</ele>
        <time>2026-06-16T11:02:37.000Z</time>
        <extensions>
          <ns3:TrackPointExtension>
            <ns3:atemp>19.0</ns3:atemp>
          </ns3:TrackPointExtension>
        </extensions>
      </trkpt>
      <trkpt lat="42.6177506335079669952392578125" lon="19.8836527951061725616455078125">
        <ele>1943.4000244140625</ele>
        <time>2026-06-16T11:02:38.000Z</time>
        <extensions>
          <ns3:TrackPointExtension>
            <ns3:atemp>19.0</ns3:atemp>
          </ns3:TrackPointExtension>
        </extensions>
      </trkpt>
      <trkpt lat="42.6177506335079669952392578125" lon="19.8836527951061725616455078125">
        <ele>1943.4000244140625</ele>
        <time>2026-06-16T11:02:39.000Z</time>
        <extensions>
          <ns3:TrackPointExtension>
            <ns3:atemp>19.0</ns3:atemp>
          </ns3:TrackPointExtension>
        </extensions>
      </trkpt>
      <trkpt lat="42.6177506335079669952392578125" lon="19.8836527951061725616455078125">
        <ele>1943.4000244140625</ele>
        <time>2026-06-16T11:02:40.000Z</time>
        <extensions>
          <ns3:TrackPointExtension>
            <ns3:atemp>19.0</ns3:atemp>
          </ns3:TrackPointExtension>
        </extensions>
      </trkpt>
      <trkpt lat="42.6177506335079669952392578125" lon="19.8836527951061725616455078125">
        <ele>1943.4000244140625</ele>
        <time>2026-06-16T11:02:41.000Z</time>
        <extensions>
          <ns3:TrackPointExtension>
            <ns3:atemp>19.0</ns3:atemp>
          </ns3:TrackPointExtension>
        </extensions>
      </trkpt>
      <trkpt lat="42.6177506335079669952392578125" lon="19.8836527951061725616455078125">
        <ele>1943.4000244140625</ele>
        <time>2026-06-16T11:02:42.000Z</time>
        <extensions>
          <ns3:TrackPointExtension>
            <ns3:atemp>19.0</ns3:atemp>
          </ns3:TrackPointExtension>
        </extensions>
      </trkpt>
      <trkpt lat="42.6177506335079669952392578125" lon="19.8836527951061725616455078125">
        <ele>1943.4000244140625</ele>
        <time>2026-06-16T11:02:43.000Z</time>
        <extensions>
          <ns3:TrackPointExtension>
            <ns3:atemp>19.0</ns3:atemp>
          </ns3:TrackPointExtension>
        </extensions>
      </trkpt>
      <trkpt lat="42.6177506335079669952392578125" lon="19.8836527951061725616455078125">
        <ele>1943.4000244140625</ele>
        <time>2026-06-16T11:02:44.000Z</time>
        <extensions>
          <ns3:TrackPointExtension>
            <ns3:atemp>19.0</ns3:atemp>
          </ns3:TrackPointExtension>
        </extensions>
      </trkpt>
      <trkpt lat="42.6177506335079669952392578125" lon="19.8836527951061725616455078125">
        <ele>1943.4000244140625</ele>
        <time>2026-06-16T11:02:45.000Z</time>
        <extensions>
          <ns3:TrackPointExtension>
            <ns3:atemp>19.0</ns3:atemp>
          </ns3:TrackPointExtension>
        </extensions>
      </trkpt>
      <trkpt lat="42.6177506335079669952392578125" lon="19.8836527951061725616455078125">
        <ele>1943.4000244140625</ele>
        <time>2026-06-16T11:02:46.000Z</time>
        <extensions>
          <ns3:TrackPointExtension>
            <ns3:atemp>19.0</ns3:atemp>
          </ns3:TrackPointExtension>
        </extensions>
      </trkpt>
      <trkpt lat="42.617750465869903564453125" lon="19.8836541362106800079345703125">
        <ele>1943.4000244140625</ele>
        <time>2026-06-16T11:02:47.000Z</time>
        <extensions>
          <ns3:TrackPointExtension>
            <ns3:atemp>19.0</ns3:atemp>
          </ns3:TrackPointExtension>
        </extensions>
      </trkpt>
      <trkpt lat="42.61775876395404338836669921875" lon="19.88366595469415187835693359375">
        <ele>1943.4000244140625</ele>
        <time>2026-06-16T11:02:48.000Z</time>
        <extensions>
          <ns3:TrackPointExtension>
            <ns3:atemp>19.0</ns3:atemp>
          </ns3:TrackPointExtension>
        </extensions>
      </trkpt>
      <trkpt lat="42.6177754439413547515869140625" lon="19.88367970101535320281982421875">
        <ele>1943.4000244140625</ele>
        <time>2026-06-16T11:02:49.000Z</time>
        <extensions>
          <ns3:TrackPointExtension>
            <ns3:atemp>19.0</ns3:atemp>
          </ns3:TrackPointExtension>
        </extensions>
      </trkpt>
      <trkpt lat="42.617793716490268707275390625" lon="19.88368414342403411865234375">
        <ele>1943.4000244140625</ele>
        <time>2026-06-16T11:02:50.000Z</time>
        <extensions>
          <ns3:TrackPointExtension>
            <ns3:atemp>19.0</ns3:atemp>
          </ns3:TrackPointExtension>
        </extensions>
      </trkpt>
      <trkpt lat="42.61781073175370693206787109375" lon="19.88367701880633831024169921875">
        <ele>1943.199951171875</ele>
        <time>2026-06-16T11:02:51.000Z</time>
        <extensions>
          <ns3:TrackPointExtension>
            <ns3:atemp>19.0</ns3:atemp>
          </ns3:TrackPointExtension>
        </extensions>
      </trkpt>
      <trkpt lat="42.61782699264585971832275390625" lon="19.883663691580295562744140625">
        <ele>1943.199951171875</ele>
        <time>2026-06-16T11:02:52.000Z</time>
        <extensions>
          <ns3:TrackPointExtension>
            <ns3:atemp>19.0</ns3:atemp>
          </ns3:TrackPointExtension>
        </extensions>
      </trkpt>
      <trkpt lat="42.61784258298575878143310546875" lon="19.88365422002971172332763671875">
        <ele>1943.199951171875</ele>
        <time>2026-06-16T11:02:53.000Z</time>
        <extensions>
          <ns3:TrackPointExtension>
            <ns3:atemp>19.0</ns3:atemp>
          </ns3:TrackPointExtension>
        </extensions>
      </trkpt>
      <trkpt lat="42.61786303482949733734130859375" lon="19.88364365883171558380126953125">
        <ele>1943.4000244140625</ele>
        <time>2026-06-16T11:02:54.000Z</time>
        <extensions>
          <ns3:TrackPointExtension>
            <ns3:atemp>19.0</ns3:atemp>
          </ns3:TrackPointExtension>
        </extensions>
      </trkpt>
      <trkpt lat="42.61788147501647472381591796875" lon="19.88363360054790973663330078125">
        <ele>1943.5999755859375</ele>
        <time>2026-06-16T11:02:55.000Z</time>
        <extensions>
          <ns3:TrackPointExtension>
            <ns3:atemp>19.0</ns3:atemp>
          </ns3:TrackPointExtension>
        </extensions>
      </trkpt>
      <trkpt lat="42.6178994961082935333251953125" lon="19.88363661803305149078369140625">
        <ele>1943.5999755859375</ele>
        <time>2026-06-16T11:02:56.000Z</time>
        <extensions>
          <ns3:TrackPointExtension>
            <ns3:atemp>19.0</ns3:atemp>
          </ns3:TrackPointExtension>
        </extensions>
      </trkpt>
      <trkpt lat="42.617921121418476104736328125" lon="19.88363427110016345977783203125">
        <ele>1943.4000244140625</ele>
        <time>2026-06-16T11:02:57.000Z</time>
        <extensions>
          <ns3:TrackPointExtension>
            <ns3:atemp>19.0</ns3:atemp>
          </ns3:TrackPointExtension>
        </extensions>
      </trkpt>
      <trkpt lat="42.61794551275670528411865234375" lon="19.88363997079432010650634765625">
        <ele>1943.4000244140625</ele>
        <time>2026-06-16T11:02:58.000Z</time>
        <extensions>
          <ns3:TrackPointExtension>
            <ns3:atemp>19.0</ns3:atemp>
          </ns3:TrackPointExtension>
        </extensions>
      </trkpt>
      <trkpt lat="42.6179705746471881866455078125" lon="19.88364080898463726043701171875">
        <ele>1943.199951171875</ele>
        <time>2026-06-16T11:02:59.000Z</time>
        <extensions>
          <ns3:TrackPointExtension>
            <ns3:atemp>19.0</ns3:atemp>
          </ns3:TrackPointExtension>
        </extensions>
      </trkpt>
      <trkpt lat="42.61799697764217853546142578125" lon="19.88364382646977901458740234375">
        <ele>1943</ele>
        <time>2026-06-16T11:03:00.000Z</time>
        <extensions>
          <ns3:TrackPointExtension>
            <ns3:atemp>19.0</ns3:atemp>
          </ns3:TrackPointExtension>
        </extensions>
      </trkpt>
      <trkpt lat="42.6180178485810756683349609375" lon="19.88364583812654018402099609375">
        <ele>1942.800048828125</ele>
        <time>2026-06-16T11:03:01.000Z</time>
        <extensions>
          <ns3:TrackPointExtension>
            <ns3:atemp>19.0</ns3:atemp>
          </ns3:TrackPointExtension>
        </extensions>
      </trkpt>
      <trkpt lat="42.61802799068391323089599609375" lon="19.8836427368223667144775390625">
        <ele>1942.5999755859375</ele>
        <time>2026-06-16T11:03:02.000Z</time>
        <extensions>
          <ns3:TrackPointExtension>
            <ns3:atemp>19.0</ns3:atemp>
          </ns3:TrackPointExtension>
        </extensions>
      </trkpt>
      <trkpt lat="42.6180280745029449462890625" lon="19.8836427368223667144775390625">
        <ele>1942.5999755859375</ele>
        <time>2026-06-16T11:03:03.000Z</time>
        <extensions>
          <ns3:TrackPointExtension>
            <ns3:atemp>19.0</ns3:atemp>
          </ns3:TrackPointExtension>
        </extensions>
      </trkpt>
      <trkpt lat="42.61802815832197666168212890625" lon="19.8836427368223667144775390625">
        <ele>1942.199951171875</ele>
        <time>2026-06-16T11:03:04.000Z</time>
        <extensions>
          <ns3:TrackPointExtension>
            <ns3:atemp>19.0</ns3:atemp>
          </ns3:TrackPointExtension>
        </extensions>
      </trkpt>
      <trkpt lat="42.6180379651486873626708984375" lon="19.88363678567111492156982421875">
        <ele>1942</ele>
        <time>2026-06-16T11:03:05.000Z</time>
        <extensions>
          <ns3:TrackPointExtension>
            <ns3:atemp>19.0</ns3:atemp>
          </ns3:TrackPointExtension>
        </extensions>
      </trkpt>
      <trkpt lat="42.61804156936705112457275390625" lon="19.88363577984273433685302734375">
        <ele>1942</ele>
        <time>2026-06-16T11:03:06.000Z</time>
        <extensions>
          <ns3:TrackPointExtension>
            <ns3:atemp>19.0</ns3:atemp>
          </ns3:TrackPointExtension>
        </extensions>
      </trkpt>
      <trkpt lat="42.6180416531860828399658203125" lon="19.8836356960237026214599609375">
        <ele>1942</ele>
        <time>2026-06-16T11:03:07.000Z</time>
        <extensions>
          <ns3:TrackPointExtension>
            <ns3:atemp>19.0</ns3:atemp>
          </ns3:TrackPointExtension>
        </extensions>
      </trkpt>
      <trkpt lat="42.6180416531860828399658203125" lon="19.8836356960237026214599609375">
        <ele>1941.800048828125</ele>
        <time>2026-06-16T11:03:08.000Z</time>
        <extensions>
          <ns3:TrackPointExtension>
            <ns3:atemp>19.0</ns3:atemp>
          </ns3:TrackPointExtension>
        </extensions>
      </trkpt>
      <trkpt lat="42.618041820824146270751953125" lon="19.88363544456660747528076171875">
        <ele>1941.800048828125</ele>
        <time>2026-06-16T11:03:09.000Z</time>
        <extensions>
          <ns3:TrackPointExtension>
            <ns3:atemp>19.0</ns3:atemp>
          </ns3:TrackPointExtension>
        </extensions>
      </trkpt>
      <trkpt lat="42.618045173585414886474609375" lon="19.88363460637629032135009765625">
        <ele>1941.800048828125</ele>
        <time>2026-06-16T11:03:10.000Z</time>
        <extensions>
          <ns3:TrackPointExtension>
            <ns3:atemp>19.0</ns3:atemp>
          </ns3:TrackPointExtension>
        </extensions>
      </trkpt>
      <trkpt lat="42.61804274283349514007568359375" lon="19.88363812677562236785888671875">
        <ele>1941.800048828125</ele>
        <time>2026-06-16T11:03:11.000Z</time>
        <extensions>
          <ns3:TrackPointExtension>
            <ns3:atemp>19.0</ns3:atemp>
          </ns3:TrackPointExtension>
        </extensions>
      </trkpt>
      <trkpt lat="42.61804911307990550994873046875" lon="19.88363242708146572113037109375">
        <ele>1941.800048828125</ele>
        <time>2026-06-16T11:03:12.000Z</time>
        <extensions>
          <ns3:TrackPointExtension>
            <ns3:atemp>19.0</ns3:atemp>
          </ns3:TrackPointExtension>
        </extensions>
      </trkpt>
      <trkpt lat="42.61806361377239227294921875" lon="19.883634857833385467529296875">
        <ele>1941.5999755859375</ele>
        <time>2026-06-16T11:03:13.000Z</time>
        <extensions>
          <ns3:TrackPointExtension>
            <ns3:atemp>19.0</ns3:atemp>
          </ns3:TrackPointExtension>
        </extensions>
      </trkpt>
      <trkpt lat="42.61809236370027065277099609375" lon="19.88364499993622303009033203125">
        <ele>1941.4000244140625</ele>
        <time>2026-06-16T11:03:14.000Z</time>
        <extensions>
          <ns3:TrackPointExtension>
            <ns3:atemp>19.0</ns3:atemp>
          </ns3:TrackPointExtension>
        </extensions>
      </trkpt>
      <trkpt lat="42.61811683885753154754638671875" lon="19.8836400546133518218994140625">
        <ele>1941.199951171875</ele>
        <time>2026-06-16T11:03:15.000Z</time>
        <extensions>
          <ns3:TrackPointExtension>
            <ns3:atemp>19.0</ns3:atemp>
          </ns3:TrackPointExtension>
        </extensions>
      </trkpt>
      <trkpt lat="42.6181398890912532806396484375" lon="19.88364885561168193817138671875">
        <ele>1940.5999755859375</ele>
        <time>2026-06-16T11:03:16.000Z</time>
        <extensions>
          <ns3:TrackPointExtension>
            <ns3:atemp>19.0</ns3:atemp>
          </ns3:TrackPointExtension>
        </extensions>
      </trkpt>
      <trkpt lat="42.6181648671627044677734375" lon="19.8836447484791278839111328125">
        <ele>1940.199951171875</ele>
        <time>2026-06-16T11:03:17.000Z</time>
        <extensions>
          <ns3:TrackPointExtension>
            <ns3:atemp>19.0</ns3:atemp>
          </ns3:TrackPointExtension>
        </extensions>
      </trkpt>
      <trkpt lat="42.61819235980510711669921875" lon="19.88362303934991359710693359375">
        <ele>1939.5999755859375</ele>
        <time>2026-06-16T11:03:18.000Z</time>
        <extensions>
          <ns3:TrackPointExtension>
            <ns3:atemp>19.0</ns3:atemp>
          </ns3:TrackPointExtension>
        </extensions>
      </trkpt>
      <trkpt lat="42.6182297430932521820068359375" lon="19.88359387032687664031982421875">
        <ele>1939.199951171875</ele>
        <time>2026-06-16T11:03:19.000Z</time>
        <extensions>
          <ns3:TrackPointExtension>
            <ns3:atemp>19.0</ns3:atemp>
          </ns3:TrackPointExtension>
        </extensions>
      </trkpt>
      <trkpt lat="42.61827006004750728607177734375" lon="19.8835491947829723358154296875">
        <ele>1938.5999755859375</ele>
        <time>2026-06-16T11:03:20.000Z</time>
        <extensions>
          <ns3:TrackPointExtension>
            <ns3:atemp>19.0</ns3:atemp>
          </ns3:TrackPointExtension>
        </extensions>
      </trkpt>
      <trkpt lat="42.61831515468657016754150390625" lon="19.8835056088864803314208984375">
        <ele>1938.199951171875</ele>
        <time>2026-06-16T11:03:21.000Z</time>
        <extensions>
          <ns3:TrackPointExtension>
            <ns3:atemp>19.0</ns3:atemp>
          </ns3:TrackPointExtension>
        </extensions>
      </trkpt>
      <trkpt lat="42.61836242862045764923095703125" lon="19.88346881233155727386474609375">
        <ele>1937.5999755859375</ele>
        <time>2026-06-16T11:03:22.000Z</time>
        <extensions>
          <ns3:TrackPointExtension>
            <ns3:atemp>19.0</ns3:atemp>
          </ns3:TrackPointExtension>
        </extensions>
      </trkpt>
      <trkpt lat="42.618413977324962615966796875" lon="19.883431009948253631591796875">
        <ele>1937.199951171875</ele>
        <time>2026-06-16T11:03:23.000Z</time>
        <extensions>
          <ns3:TrackPointExtension>
            <ns3:atemp>19.0</ns3:atemp>
          </ns3:TrackPointExtension>
        </extensions>
      </trkpt>
      <trkpt lat="42.61846116743981838226318359375" lon="19.883386753499507904052734375">
        <ele>1936.800048828125</ele>
        <time>2026-06-16T11:03:24.000Z</time>
        <extensions>
          <ns3:TrackPointExtension>
            <ns3:atemp>19.0</ns3:atemp>
          </ns3:TrackPointExtension>
        </extensions>
      </trkpt>
      <trkpt lat="42.61849972419440746307373046875" lon="19.88335733301937580108642578125">
        <ele>1936.5999755859375</ele>
        <time>2026-06-16T11:03:25.000Z</time>
        <extensions>
          <ns3:TrackPointExtension>
            <ns3:atemp>19.0</ns3:atemp>
          </ns3:TrackPointExtension>
        </extensions>
      </trkpt>
      <trkpt lat="42.61853358708322048187255859375" lon="19.88333545625209808349609375">
        <ele>1936.4000244140625</ele>
        <time>2026-06-16T11:03:26.000Z</time>
        <extensions>
          <ns3:TrackPointExtension>
            <ns3:atemp>19.0</ns3:atemp>
          </ns3:TrackPointExtension>
        </extensions>
      </trkpt>
      <trkpt lat="42.6185660250484943389892578125" lon="19.88332095555961132049560546875">
        <ele>1936.4000244140625</ele>
        <time>2026-06-16T11:03:27.000Z</time>
        <extensions>
          <ns3:TrackPointExtension>
            <ns3:atemp>19.0</ns3:atemp>
          </ns3:TrackPointExtension>
        </extensions>
      </trkpt>
      <trkpt lat="42.61860047467052936553955078125" lon="19.88330729305744171142578125">
        <ele>1936.4000244140625</ele>
        <time>2026-06-16T11:03:28.000Z</time>
        <extensions>
          <ns3:TrackPointExtension>
            <ns3:atemp>19.0</ns3:atemp>
          </ns3:TrackPointExtension>
        </extensions>
      </trkpt>
      <trkpt lat="42.61863416992127895355224609375" lon="19.8832972347736358642578125">
        <ele>1936.4000244140625</ele>
        <time>2026-06-16T11:03:29.000Z</time>
        <extensions>
          <ns3:TrackPointExtension>
            <ns3:atemp>19.0</ns3:atemp>
          </ns3:TrackPointExtension>
        </extensions>
      </trkpt>
      <trkpt lat="42.61866685934364795684814453125" lon="19.883288852870464324951171875">
        <ele>1936.4000244140625</ele>
        <time>2026-06-16T11:03:30.000Z</time>
        <extensions>
          <ns3:TrackPointExtension>
            <ns3:atemp>19.0</ns3:atemp>
          </ns3:TrackPointExtension>
        </extensions>
      </trkpt>
      <trkpt lat="42.6187013089656829833984375" lon="19.883282147347927093505859375">
        <ele>1936.5999755859375</ele>
        <time>2026-06-16T11:03:31.000Z</time>
        <extensions>
          <ns3:TrackPointExtension>
            <ns3:atemp>19.0</ns3:atemp>
          </ns3:TrackPointExtension>
        </extensions>
      </trkpt>
      <trkpt lat="42.6187346689403057098388671875" lon="19.88328239880502223968505859375">
        <ele>1936.5999755859375</ele>
        <time>2026-06-16T11:03:32.000Z</time>
        <extensions>
          <ns3:TrackPointExtension>
            <ns3:atemp>19.0</ns3:atemp>
          </ns3:TrackPointExtension>
        </extensions>
      </trkpt>
      <trkpt lat="42.61876375414431095123291015625" lon="19.8832893557846546173095703125">
        <ele>1936.800048828125</ele>
        <time>2026-06-16T11:03:33.000Z</time>
        <extensions>
          <ns3:TrackPointExtension>
            <ns3:atemp>19.0</ns3:atemp>
          </ns3:TrackPointExtension>
        </extensions>
      </trkpt>
      <trkpt lat="42.61879560537636280059814453125" lon="19.88329790532588958740234375">
        <ele>1936.800048828125</ele>
        <time>2026-06-16T11:03:34.000Z</time>
        <extensions>
          <ns3:TrackPointExtension>
            <ns3:atemp>19.0</ns3:atemp>
          </ns3:TrackPointExtension>
        </extensions>
      </trkpt>
      <trkpt lat="42.61882527731359004974365234375" lon="19.883306287229061126708984375">
        <ele>1937</ele>
        <time>2026-06-16T11:03:35.000Z</time>
        <extensions>
          <ns3:TrackPointExtension>
            <ns3:atemp>19.0</ns3:atemp>
          </ns3:TrackPointExtension>
        </extensions>
      </trkpt>
      <trkpt lat="42.6188493333756923675537109375" lon="19.8833205364644527435302734375">
        <ele>1937.199951171875</ele>
        <time>2026-06-16T11:03:36.000Z</time>
        <extensions>
          <ns3:TrackPointExtension>
            <ns3:atemp>19.0</ns3:atemp>
          </ns3:TrackPointExtension>
        </extensions>
      </trkpt>
      <trkpt lat="42.6188640855252742767333984375" lon="19.88333872519433498382568359375">
        <ele>1937.199951171875</ele>
        <time>2026-06-16T11:03:37.000Z</time>
        <extensions>
          <ns3:TrackPointExtension>
            <ns3:atemp>19.0</ns3:atemp>
          </ns3:TrackPointExtension>
        </extensions>
      </trkpt>
      <trkpt lat="42.61888378299772739410400390625" lon="19.88335565663874149322509765625">
        <ele>1937.4000244140625</ele>
        <time>2026-06-16T11:03:38.000Z</time>
        <extensions>
          <ns3:TrackPointExtension>
            <ns3:atemp>19.0</ns3:atemp>
          </ns3:TrackPointExtension>
        </extensions>
      </trkpt>
      <trkpt lat="42.61890507303178310394287109375" lon="19.8833688162267208099365234375">
        <ele>1937.5999755859375</ele>
        <time>2026-06-16T11:03:39.000Z</time>
        <extensions>
          <ns3:TrackPointExtension>
            <ns3:atemp>19.0</ns3:atemp>
          </ns3:TrackPointExtension>
        </extensions>
      </trkpt>
      <trkpt lat="42.6189234293997287750244140625" lon="19.88338231109082698822021484375">
        <ele>1937.800048828125</ele>
        <time>2026-06-16T11:03:40.000Z</time>
        <extensions>
          <ns3:TrackPointExtension>
            <ns3:atemp>19.0</ns3:atemp>
          </ns3:TrackPointExtension>
        </extensions>
      </trkpt>
      <trkpt lat="42.618943043053150177001953125" lon="19.8833892680704593658447265625">
        <ele>1938</ele>
        <time>2026-06-16T11:03:41.000Z</time>
        <extensions>
          <ns3:TrackPointExtension>
            <ns3:atemp>19.0</ns3:atemp>
          </ns3:TrackPointExtension>
        </extensions>
      </trkpt>
      <trkpt lat="42.61896525509655475616455078125" lon="19.883396141231060028076171875">
        <ele>1938.199951171875</ele>
        <time>2026-06-16T11:03:42.000Z</time>
        <extensions>
          <ns3:TrackPointExtension>
            <ns3:atemp>19.0</ns3:atemp>
          </ns3:TrackPointExtension>
        </extensions>
      </trkpt>
      <trkpt lat="42.6189814321696758270263671875" lon="19.8833989910781383514404296875">
        <ele>1938.199951171875</ele>
        <time>2026-06-16T11:03:43.000Z</time>
        <extensions>
          <ns3:TrackPointExtension>
            <ns3:atemp>19.0</ns3:atemp>
          </ns3:TrackPointExtension>
        </extensions>
      </trkpt>
      <trkpt lat="42.61899610050022602081298828125" lon="19.88340242765843868255615234375">
        <ele>1938.4000244140625</ele>
        <time>2026-06-16T11:03:44.000Z</time>
        <extensions>
          <ns3:TrackPointExtension>
            <ns3:atemp>19.0</ns3:atemp>
          </ns3:TrackPointExtension>
        </extensions>
      </trkpt>
      <trkpt lat="42.6190055720508098602294921875" lon="19.8834040202200412750244140625">
        <ele>1938.5999755859375</ele>
        <time>2026-06-16T11:03:45.000Z</time>
        <extensions>
          <ns3:TrackPointExtension>
            <ns3:atemp>19.0</ns3:atemp>
          </ns3:TrackPointExtension>
        </extensions>
      </trkpt>
      <trkpt lat="42.619018815457820892333984375" lon="19.88340854644775390625">
        <ele>1938.800048828125</ele>
        <time>2026-06-16T11:03:46.000Z</time>
        <extensions>
          <ns3:TrackPointExtension>
            <ns3:atemp>19.0</ns3:atemp>
          </ns3:TrackPointExtension>
        </extensions>
      </trkpt>
      <trkpt lat="42.61903599835932254791259765625" lon="19.88341189920902252197265625">
        <ele>1939</ele>
        <time>2026-06-16T11:03:47.000Z</time>
        <extensions>
          <ns3:TrackPointExtension>
            <ns3:atemp>19.0</ns3:atemp>
          </ns3:TrackPointExtension>
        </extensions>
      </trkpt>
      <trkpt lat="42.61905209161341190338134765625" lon="19.8834201134741306304931640625">
        <ele>1939.199951171875</ele>
        <time>2026-06-16T11:03:48.000Z</time>
        <extensions>
          <ns3:TrackPointExtension>
            <ns3:atemp>19.0</ns3:atemp>
          </ns3:TrackPointExtension>
        </extensions>
      </trkpt>
      <trkpt lat="42.61906047351658344268798828125" lon="19.883423633873462677001953125">
        <ele>1939.4000244140625</ele>
        <time>2026-06-16T11:03:49.000Z</time>
        <extensions>
          <ns3:TrackPointExtension>
            <ns3:atemp>19.0</ns3:atemp>
          </ns3:TrackPointExtension>
        </extensions>
      </trkpt>
      <trkpt lat="42.61906768195331096649169921875" lon="19.88342807628214359283447265625">
        <ele>1939.4000244140625</ele>
        <time>2026-06-16T11:03:50.000Z</time>
        <extensions>
          <ns3:TrackPointExtension>
            <ns3:atemp>19.0</ns3:atemp>
          </ns3:TrackPointExtension>
        </extensions>
      </trkpt>
      <trkpt lat="42.619079165160655975341796875" lon="19.88342933356761932373046875">
        <ele>1939.5999755859375</ele>
        <time>2026-06-16T11:03:51.000Z</time>
        <extensions>
          <ns3:TrackPointExtension>
            <ns3:atemp>19.0</ns3:atemp>
          </ns3:TrackPointExtension>
        </extensions>
      </trkpt>
      <trkpt lat="42.61909735389053821563720703125" lon="19.88343469798564910888671875">
        <ele>1939.5999755859375</ele>
        <time>2026-06-16T11:03:52.000Z</time>
        <extensions>
          <ns3:TrackPointExtension>
            <ns3:atemp>19.0</ns3:atemp>
          </ns3:TrackPointExtension>
        </extensions>
      </trkpt>
      <trkpt lat="42.61911093257367610931396484375" lon="19.8834375478327274322509765625">
        <ele>1939.5999755859375</ele>
        <time>2026-06-16T11:03:53.000Z</time>
        <extensions>
          <ns3:TrackPointExtension>
            <ns3:atemp>19.0</ns3:atemp>
          </ns3:TrackPointExtension>
        </extensions>
      </trkpt>
      <trkpt lat="42.61912618763744831085205078125" lon="19.88344282843172550201416015625">
        <ele>1939.800048828125</ele>
        <time>2026-06-16T11:03:54.000Z</time>
        <extensions>
          <ns3:TrackPointExtension>
            <ns3:atemp>19.0</ns3:atemp>
          </ns3:TrackPointExtension>
        </extensions>
      </trkpt>
      <trkpt lat="42.61914093978703022003173828125" lon="19.88344500772655010223388671875">
        <ele>1939.800048828125</ele>
        <time>2026-06-16T11:03:55.000Z</time>
        <extensions>
          <ns3:TrackPointExtension>
            <ns3:atemp>19.0</ns3:atemp>
          </ns3:TrackPointExtension>
        </extensions>
      </trkpt>
      <trkpt lat="42.61915753595530986785888671875" lon="19.8834452591836452484130859375">
        <ele>1939.800048828125</ele>
        <time>2026-06-16T11:03:56.000Z</time>
        <extensions>
          <ns3:TrackPointExtension>
            <ns3:atemp>19.0</ns3:atemp>
          </ns3:TrackPointExtension>
        </extensions>
      </trkpt>
      <trkpt lat="42.61917782016098499298095703125" lon="19.88344668410718441009521484375">
        <ele>1939.800048828125</ele>
        <time>2026-06-16T11:03:57.000Z</time>
        <extensions>
          <ns3:TrackPointExtension>
            <ns3:atemp>19.0</ns3:atemp>
          </ns3:TrackPointExtension>
        </extensions>
      </trkpt>
      <trkpt lat="42.61920011602342128753662109375" lon="19.88345322199165821075439453125">
        <ele>1940</ele>
        <time>2026-06-16T11:03:58.000Z</time>
        <extensions>
          <ns3:TrackPointExtension>
            <ns3:atemp>19.0</ns3:atemp>
          </ns3:TrackPointExtension>
        </extensions>
      </trkpt>
      <trkpt lat="42.6192164607346057891845703125" lon="19.88345473073422908782958984375">
        <ele>1940</ele>
        <time>2026-06-16T11:03:59.000Z</time>
        <extensions>
          <ns3:TrackPointExtension>
            <ns3:atemp>19.0</ns3:atemp>
          </ns3:TrackPointExtension>
        </extensions>
      </trkpt>
      <trkpt lat="42.6192362420260906219482421875" lon="19.88345347344875335693359375">
        <ele>1940.199951171875</ele>
        <time>2026-06-16T11:04:00.000Z</time>
        <extensions>
          <ns3:TrackPointExtension>
            <ns3:atemp>19.0</ns3:atemp>
          </ns3:TrackPointExtension>
        </extensions>
      </trkpt>
      <trkpt lat="42.61925929225981235504150390625" lon="19.8834499530494213104248046875">
        <ele>1940.4000244140625</ele>
        <time>2026-06-16T11:04:01.000Z</time>
        <extensions>
          <ns3:TrackPointExtension>
            <ns3:atemp>19.0</ns3:atemp>
          </ns3:TrackPointExtension>
        </extensions>
      </trkpt>
      <trkpt lat="42.61927857063710689544677734375" lon="19.88344945013523101806640625">
        <ele>1940.4000244140625</ele>
        <time>2026-06-16T11:04:02.000Z</time>
        <extensions>
          <ns3:TrackPointExtension>
            <ns3:atemp>19.0</ns3:atemp>
          </ns3:TrackPointExtension>
        </extensions>
      </trkpt>
      <trkpt lat="42.61929248459637165069580078125" lon="19.8834489472210407257080078125">
        <ele>1940.5999755859375</ele>
        <time>2026-06-16T11:04:03.000Z</time>
        <extensions>
          <ns3:TrackPointExtension>
            <ns3:atemp>19.0</ns3:atemp>
          </ns3:TrackPointExtension>
        </extensions>
      </trkpt>
      <trkpt lat="42.6193073205649852752685546875" lon="19.88344584591686725616455078125">
        <ele>1940.800048828125</ele>
        <time>2026-06-16T11:04:04.000Z</time>
        <extensions>
          <ns3:TrackPointExtension>
            <ns3:atemp>19.0</ns3:atemp>
          </ns3:TrackPointExtension>
        </extensions>
      </trkpt>
      <trkpt lat="42.61931913904845714569091796875" lon="19.88344852812588214874267578125">
        <ele>1941</ele>
        <time>2026-06-16T11:04:05.000Z</time>
        <extensions>
          <ns3:TrackPointExtension>
            <ns3:atemp>19.0</ns3:atemp>
          </ns3:TrackPointExtension>
        </extensions>
      </trkpt>
      <trkpt lat="42.619331292808055877685546875" lon="19.883447773754596710205078125">
        <ele>1941.199951171875</ele>
        <time>2026-06-16T11:04:06.000Z</time>
        <extensions>
          <ns3:TrackPointExtension>
            <ns3:atemp>19.0</ns3:atemp>
          </ns3:TrackPointExtension>
        </extensions>
      </trkpt>
      <trkpt lat="42.61935031972825527191162109375" lon="19.88345238380134105682373046875">
        <ele>1941.4000244140625</ele>
        <time>2026-06-16T11:04:07.000Z</time>
        <extensions>
          <ns3:TrackPointExtension>
            <ns3:atemp>19.0</ns3:atemp>
          </ns3:TrackPointExtension>
        </extensions>
      </trkpt>
      <trkpt lat="42.61936314404010772705078125" lon="19.8834559880197048187255859375">
        <ele>1941.5999755859375</ele>
        <time>2026-06-16T11:04:08.000Z</time>
        <extensions>
          <ns3:TrackPointExtension>
            <ns3:atemp>19.0</ns3:atemp>
          </ns3:TrackPointExtension>
        </extensions>
      </trkpt>
      <trkpt lat="42.61937345378100872039794921875" lon="19.8834539763629436492919921875">
        <ele>1941.800048828125</ele>
        <time>2026-06-16T11:04:09.000Z</time>
        <extensions>
          <ns3:TrackPointExtension>
            <ns3:atemp>19.0</ns3:atemp>
          </ns3:TrackPointExtension>
        </extensions>
      </trkpt>
      <trkpt lat="42.619390971958637237548828125" lon="19.88345506601035594940185546875">
        <ele>1941.800048828125</ele>
        <time>2026-06-16T11:04:10.000Z</time>
        <extensions>
          <ns3:TrackPointExtension>
            <ns3:atemp>19.0</ns3:atemp>
          </ns3:TrackPointExtension>
        </extensions>
      </trkpt>
      <trkpt lat="42.61940111406147480010986328125" lon="19.88345037214457988739013671875">
        <ele>1942</ele>
        <time>2026-06-16T11:04:11.000Z</time>
        <extensions>
          <ns3:TrackPointExtension>
            <ns3:atemp>19.0</ns3:atemp>
          </ns3:TrackPointExtension>
        </extensions>
      </trkpt>
      <trkpt lat="42.61940312571823596954345703125" lon="19.8834486119449138641357421875">
        <ele>1942</ele>
        <time>2026-06-16T11:04:12.000Z</time>
        <extensions>
          <ns3:TrackPointExtension>
            <ns3:atemp>19.0</ns3:atemp>
          </ns3:TrackPointExtension>
        </extensions>
      </trkpt>
      <trkpt lat="42.61940312571823596954345703125" lon="19.8834486119449138641357421875">
        <ele>1942.5999755859375</ele>
        <time>2026-06-16T11:04:13.000Z</time>
        <extensions>
          <ns3:TrackPointExtension>
            <ns3:atemp>19.0</ns3:atemp>
          </ns3:TrackPointExtension>
        </extensions>
      </trkpt>
      <trkpt lat="42.61940312571823596954345703125" lon="19.8834486119449138641357421875">
        <ele>1942.5999755859375</ele>
        <time>2026-06-16T11:04:14.000Z</time>
        <extensions>
          <ns3:TrackPointExtension>
            <ns3:atemp>19.0</ns3:atemp>
          </ns3:TrackPointExtension>
        </extensions>
      </trkpt>
      <trkpt lat="42.61940312571823596954345703125" lon="19.8834486119449138641357421875">
        <ele>1942.5999755859375</ele>
        <time>2026-06-16T11:04:15.000Z</time>
        <extensions>
          <ns3:TrackPointExtension>
            <ns3:atemp>19.0</ns3:atemp>
          </ns3:TrackPointExtension>
        </extensions>
      </trkpt>
      <trkpt lat="42.61940312571823596954345703125" lon="19.8834486119449138641357421875">
        <ele>1942.5999755859375</ele>
        <time>2026-06-16T11:04:16.000Z</time>
        <extensions>
          <ns3:TrackPointExtension>
            <ns3:atemp>19.0</ns3:atemp>
          </ns3:TrackPointExtension>
        </extensions>
      </trkpt>
      <trkpt lat="42.61940312571823596954345703125" lon="19.8834486119449138641357421875">
        <ele>1942.5999755859375</ele>
        <time>2026-06-16T11:04:17.000Z</time>
        <extensions>
          <ns3:TrackPointExtension>
            <ns3:atemp>19.0</ns3:atemp>
          </ns3:TrackPointExtension>
        </extensions>
      </trkpt>
      <trkpt lat="42.61940312571823596954345703125" lon="19.8834486119449138641357421875">
        <ele>1942.5999755859375</ele>
        <time>2026-06-16T11:04:18.000Z</time>
        <extensions>
          <ns3:TrackPointExtension>
            <ns3:atemp>19.0</ns3:atemp>
          </ns3:TrackPointExtension>
        </extensions>
      </trkpt>
      <trkpt lat="42.61940312571823596954345703125" lon="19.8834486119449138641357421875">
        <ele>1942.5999755859375</ele>
        <time>2026-06-16T11:04:19.000Z</time>
        <extensions>
          <ns3:TrackPointExtension>
            <ns3:atemp>19.0</ns3:atemp>
          </ns3:TrackPointExtension>
        </extensions>
      </trkpt>
      <trkpt lat="42.61940312571823596954345703125" lon="19.8834486119449138641357421875">
        <ele>1942.5999755859375</ele>
        <time>2026-06-16T11:04:20.000Z</time>
        <extensions>
          <ns3:TrackPointExtension>
            <ns3:atemp>19.0</ns3:atemp>
          </ns3:TrackPointExtension>
        </extensions>
      </trkpt>
      <trkpt lat="42.61940312571823596954345703125" lon="19.8834486119449138641357421875">
        <ele>1942.5999755859375</ele>
        <time>2026-06-16T11:04:21.000Z</time>
        <extensions>
          <ns3:TrackPointExtension>
            <ns3:atemp>19.0</ns3:atemp>
          </ns3:TrackPointExtension>
        </extensions>
      </trkpt>
      <trkpt lat="42.61940312571823596954345703125" lon="19.8834486119449138641357421875">
        <ele>1942.5999755859375</ele>
        <time>2026-06-16T11:04:22.000Z</time>
        <extensions>
          <ns3:TrackPointExtension>
            <ns3:atemp>19.0</ns3:atemp>
          </ns3:TrackPointExtension>
        </extensions>
      </trkpt>
      <trkpt lat="42.61940312571823596954345703125" lon="19.8834486119449138641357421875">
        <ele>1942.5999755859375</ele>
        <time>2026-06-16T11:04:23.000Z</time>
        <extensions>
          <ns3:TrackPointExtension>
            <ns3:atemp>19.0</ns3:atemp>
          </ns3:TrackPointExtension>
        </extensions>
      </trkpt>
      <trkpt lat="42.61940312571823596954345703125" lon="19.8834486119449138641357421875">
        <ele>1942.5999755859375</ele>
        <time>2026-06-16T11:04:24.000Z</time>
        <extensions>
          <ns3:TrackPointExtension>
            <ns3:atemp>19.0</ns3:atemp>
          </ns3:TrackPointExtension>
        </extensions>
      </trkpt>
      <trkpt lat="42.61940312571823596954345703125" lon="19.8834486119449138641357421875">
        <ele>1942.5999755859375</ele>
        <time>2026-06-16T11:04:25.000Z</time>
        <extensions>
          <ns3:TrackPointExtension>
            <ns3:atemp>19.0</ns3:atemp>
          </ns3:TrackPointExtension>
        </extensions>
      </trkpt>
      <trkpt lat="42.61940312571823596954345703125" lon="19.8834486119449138641357421875">
        <ele>1942.5999755859375</ele>
        <time>2026-06-16T11:04:26.000Z</time>
        <extensions>
          <ns3:TrackPointExtension>
            <ns3:atemp>19.0</ns3:atemp>
          </ns3:TrackPointExtension>
        </extensions>
      </trkpt>
      <trkpt lat="42.61940312571823596954345703125" lon="19.8834486119449138641357421875">
        <ele>1942.5999755859375</ele>
        <time>2026-06-16T11:04:27.000Z</time>
        <extensions>
          <ns3:TrackPointExtension>
            <ns3:atemp>19.0</ns3:atemp>
          </ns3:TrackPointExtension>
        </extensions>
      </trkpt>
      <trkpt lat="42.61940312571823596954345703125" lon="19.8834486119449138641357421875">
        <ele>1942.5999755859375</ele>
        <time>2026-06-16T11:04:28.000Z</time>
        <extensions>
          <ns3:TrackPointExtension>
            <ns3:atemp>19.0</ns3:atemp>
          </ns3:TrackPointExtension>
        </extensions>
      </trkpt>
      <trkpt lat="42.61940312571823596954345703125" lon="19.8834486119449138641357421875">
        <ele>1942.5999755859375</ele>
        <time>2026-06-16T11:04:29.000Z</time>
        <extensions>
          <ns3:TrackPointExtension>
            <ns3:atemp>19.0</ns3:atemp>
          </ns3:TrackPointExtension>
        </extensions>
      </trkpt>
      <trkpt lat="42.61940312571823596954345703125" lon="19.8834486119449138641357421875">
        <ele>1942.5999755859375</ele>
        <time>2026-06-16T11:04:30.000Z</time>
        <extensions>
          <ns3:TrackPointExtension>
            <ns3:atemp>19.0</ns3:atemp>
          </ns3:TrackPointExtension>
        </extensions>
      </trkpt>
      <trkpt lat="42.61940312571823596954345703125" lon="19.8834486119449138641357421875">
        <ele>1942.5999755859375</ele>
        <time>2026-06-16T11:04:31.000Z</time>
        <extensions>
          <ns3:TrackPointExtension>
            <ns3:atemp>19.0</ns3:atemp>
          </ns3:TrackPointExtension>
        </extensions>
      </trkpt>
      <trkpt lat="42.61940312571823596954345703125" lon="19.8834486119449138641357421875">
        <ele>1942.5999755859375</ele>
        <time>2026-06-16T11:04:32.000Z</time>
        <extensions>
          <ns3:TrackPointExtension>
            <ns3:atemp>19.0</ns3:atemp>
          </ns3:TrackPointExtension>
        </extensions>
      </trkpt>
      <trkpt lat="42.61940312571823596954345703125" lon="19.8834486119449138641357421875">
        <ele>1942.5999755859375</ele>
        <time>2026-06-16T11:04:33.000Z</time>
        <extensions>
          <ns3:TrackPointExtension>
            <ns3:atemp>19.0</ns3:atemp>
          </ns3:TrackPointExtension>
        </extensions>
      </trkpt>
      <trkpt lat="42.61940312571823596954345703125" lon="19.8834486119449138641357421875">
        <ele>1942.5999755859375</ele>
        <time>2026-06-16T11:04:34.000Z</time>
        <extensions>
          <ns3:TrackPointExtension>
            <ns3:atemp>19.0</ns3:atemp>
          </ns3:TrackPointExtension>
        </extensions>
      </trkpt>
      <trkpt lat="42.61940312571823596954345703125" lon="19.8834486119449138641357421875">
        <ele>1942.5999755859375</ele>
        <time>2026-06-16T11:04:35.000Z</time>
        <extensions>
          <ns3:TrackPointExtension>
            <ns3:atemp>19.0</ns3:atemp>
          </ns3:TrackPointExtension>
        </extensions>
      </trkpt>
      <trkpt lat="42.61940312571823596954345703125" lon="19.8834486119449138641357421875">
        <ele>1942.5999755859375</ele>
        <time>2026-06-16T11:04:36.000Z</time>
        <extensions>
          <ns3:TrackPointExtension>
            <ns3:atemp>19.0</ns3:atemp>
          </ns3:TrackPointExtension>
        </extensions>
      </trkpt>
      <trkpt lat="42.61940312571823596954345703125" lon="19.8834486119449138641357421875">
        <ele>1942.5999755859375</ele>
        <time>2026-06-16T11:04:37.000Z</time>
        <extensions>
          <ns3:TrackPointExtension>
            <ns3:atemp>19.0</ns3:atemp>
          </ns3:TrackPointExtension>
        </extensions>
      </trkpt>
      <trkpt lat="42.61940312571823596954345703125" lon="19.8834486119449138641357421875">
        <ele>1942.5999755859375</ele>
        <time>2026-06-16T11:04:38.000Z</time>
        <extensions>
          <ns3:TrackPointExtension>
            <ns3:atemp>19.0</ns3:atemp>
          </ns3:TrackPointExtension>
        </extensions>
      </trkpt>
      <trkpt lat="42.61940312571823596954345703125" lon="19.8834486119449138641357421875">
        <ele>1942.5999755859375</ele>
        <time>2026-06-16T11:04:39.000Z</time>
        <extensions>
          <ns3:TrackPointExtension>
            <ns3:atemp>19.0</ns3:atemp>
          </ns3:TrackPointExtension>
        </extensions>
      </trkpt>
      <trkpt lat="42.6194052211940288543701171875" lon="19.88344567827880382537841796875">
        <ele>1942.5999755859375</ele>
        <time>2026-06-16T11:04:40.000Z</time>
        <extensions>
          <ns3:TrackPointExtension>
            <ns3:atemp>19.0</ns3:atemp>
          </ns3:TrackPointExtension>
        </extensions>
      </trkpt>
      <trkpt lat="42.619413100183010101318359375" lon="19.88344609737396240234375">
        <ele>1942.5999755859375</ele>
        <time>2026-06-16T11:04:41.000Z</time>
        <extensions>
          <ns3:TrackPointExtension>
            <ns3:atemp>19.0</ns3:atemp>
          </ns3:TrackPointExtension>
        </extensions>
      </trkpt>
      <trkpt lat="42.61940949596464633941650390625" lon="19.88344802521169185638427734375">
        <ele>1942.5999755859375</ele>
        <time>2026-06-16T11:04:42.000Z</time>
        <extensions>
          <ns3:TrackPointExtension>
            <ns3:atemp>19.0</ns3:atemp>
          </ns3:TrackPointExtension>
        </extensions>
      </trkpt>
      <trkpt lat="42.61940664611756801605224609375" lon="19.88344299606978893280029296875">
        <ele>1942.5999755859375</ele>
        <time>2026-06-16T11:04:43.000Z</time>
        <extensions>
          <ns3:TrackPointExtension>
            <ns3:atemp>19.0</ns3:atemp>
          </ns3:TrackPointExtension>
        </extensions>
      </trkpt>
      <trkpt lat="42.61940312571823596954345703125" lon="19.8834486119449138641357421875">
        <ele>1942.5999755859375</ele>
        <time>2026-06-16T11:04:44.000Z</time>
        <extensions>
          <ns3:TrackPointExtension>
            <ns3:atemp>19.0</ns3:atemp>
          </ns3:TrackPointExtension>
        </extensions>
      </trkpt>
      <trkpt lat="42.61940312571823596954345703125" lon="19.8834486119449138641357421875">
        <ele>1942.5999755859375</ele>
        <time>2026-06-16T11:04:45.000Z</time>
        <extensions>
          <ns3:TrackPointExtension>
            <ns3:atemp>19.0</ns3:atemp>
          </ns3:TrackPointExtension>
        </extensions>
      </trkpt>
      <trkpt lat="42.61940312571823596954345703125" lon="19.8834486119449138641357421875">
        <ele>1942.5999755859375</ele>
        <time>2026-06-16T11:04:46.000Z</time>
        <extensions>
          <ns3:TrackPointExtension>
            <ns3:atemp>19.0</ns3:atemp>
          </ns3:TrackPointExtension>
        </extensions>
      </trkpt>
      <trkpt lat="42.61940312571823596954345703125" lon="19.8834486119449138641357421875">
        <ele>1942.5999755859375</ele>
        <time>2026-06-16T11:04:47.000Z</time>
        <extensions>
          <ns3:TrackPointExtension>
            <ns3:atemp>19.0</ns3:atemp>
          </ns3:TrackPointExtension>
        </extensions>
      </trkpt>
      <trkpt lat="42.61940312571823596954345703125" lon="19.8834486119449138641357421875">
        <ele>1942.5999755859375</ele>
        <time>2026-06-16T11:04:48.000Z</time>
        <extensions>
          <ns3:TrackPointExtension>
            <ns3:atemp>19.0</ns3:atemp>
          </ns3:TrackPointExtension>
        </extensions>
      </trkpt>
      <trkpt lat="42.61940312571823596954345703125" lon="19.8834486119449138641357421875">
        <ele>1942.5999755859375</ele>
        <time>2026-06-16T11:04:49.000Z</time>
        <extensions>
          <ns3:TrackPointExtension>
            <ns3:atemp>19.0</ns3:atemp>
          </ns3:TrackPointExtension>
        </extensions>
      </trkpt>
      <trkpt lat="42.61940312571823596954345703125" lon="19.8834486119449138641357421875">
        <ele>1942.5999755859375</ele>
        <time>2026-06-16T11:04:50.000Z</time>
        <extensions>
          <ns3:TrackPointExtension>
            <ns3:atemp>19.0</ns3:atemp>
          </ns3:TrackPointExtension>
        </extensions>
      </trkpt>
      <trkpt lat="42.61940312571823596954345703125" lon="19.8834486119449138641357421875">
        <ele>1942.5999755859375</ele>
        <time>2026-06-16T11:04:51.000Z</time>
        <extensions>
          <ns3:TrackPointExtension>
            <ns3:atemp>19.0</ns3:atemp>
          </ns3:TrackPointExtension>
        </extensions>
      </trkpt>
      <trkpt lat="42.61940312571823596954345703125" lon="19.8834486119449138641357421875">
        <ele>1942.5999755859375</ele>
        <time>2026-06-16T11:04:52.000Z</time>
        <extensions>
          <ns3:TrackPointExtension>
            <ns3:atemp>19.0</ns3:atemp>
          </ns3:TrackPointExtension>
        </extensions>
      </trkpt>
      <trkpt lat="42.61940312571823596954345703125" lon="19.8834486119449138641357421875">
        <ele>1942.5999755859375</ele>
        <time>2026-06-16T11:04:53.000Z</time>
        <extensions>
          <ns3:TrackPointExtension>
            <ns3:atemp>19.0</ns3:atemp>
          </ns3:TrackPointExtension>
        </extensions>
      </trkpt>
      <trkpt lat="42.61940312571823596954345703125" lon="19.8834486119449138641357421875">
        <ele>1942.5999755859375</ele>
        <time>2026-06-16T11:04:54.000Z</time>
        <extensions>
          <ns3:TrackPointExtension>
            <ns3:atemp>19.0</ns3:atemp>
          </ns3:TrackPointExtension>
        </extensions>
      </trkpt>
      <trkpt lat="42.61940312571823596954345703125" lon="19.8834486119449138641357421875">
        <ele>1942.5999755859375</ele>
        <time>2026-06-16T11:04:55.000Z</time>
        <extensions>
          <ns3:TrackPointExtension>
            <ns3:atemp>19.0</ns3:atemp>
          </ns3:TrackPointExtension>
        </extensions>
      </trkpt>
      <trkpt lat="42.61940312571823596954345703125" lon="19.8834486119449138641357421875">
        <ele>1942.5999755859375</ele>
        <time>2026-06-16T11:04:56.000Z</time>
        <extensions>
          <ns3:TrackPointExtension>
            <ns3:atemp>19.0</ns3:atemp>
          </ns3:TrackPointExtension>
        </extensions>
      </trkpt>
      <trkpt lat="42.61940312571823596954345703125" lon="19.8834486119449138641357421875">
        <ele>1942.5999755859375</ele>
        <time>2026-06-16T11:04:57.000Z</time>
        <extensions>
          <ns3:TrackPointExtension>
            <ns3:atemp>19.0</ns3:atemp>
          </ns3:TrackPointExtension>
        </extensions>
      </trkpt>
      <trkpt lat="42.61940312571823596954345703125" lon="19.8834486119449138641357421875">
        <ele>1942.5999755859375</ele>
        <time>2026-06-16T11:04:58.000Z</time>
        <extensions>
          <ns3:TrackPointExtension>
            <ns3:atemp>19.0</ns3:atemp>
          </ns3:TrackPointExtension>
        </extensions>
      </trkpt>
      <trkpt lat="42.61940312571823596954345703125" lon="19.8834486119449138641357421875">
        <ele>1942.5999755859375</ele>
        <time>2026-06-16T11:04:59.000Z</time>
        <extensions>
          <ns3:TrackPointExtension>
            <ns3:atemp>19.0</ns3:atemp>
          </ns3:TrackPointExtension>
        </extensions>
      </trkpt>
      <trkpt lat="42.61940312571823596954345703125" lon="19.8834486119449138641357421875">
        <ele>1942.5999755859375</ele>
        <time>2026-06-16T11:05:00.000Z</time>
        <extensions>
          <ns3:TrackPointExtension>
            <ns3:atemp>19.0</ns3:atemp>
          </ns3:TrackPointExtension>
        </extensions>
      </trkpt>
      <trkpt lat="42.61940312571823596954345703125" lon="19.8834486119449138641357421875">
        <ele>1942.5999755859375</ele>
        <time>2026-06-16T11:05:01.000Z</time>
        <extensions>
          <ns3:TrackPointExtension>
            <ns3:atemp>19.0</ns3:atemp>
          </ns3:TrackPointExtension>
        </extensions>
      </trkpt>
      <trkpt lat="42.61940312571823596954345703125" lon="19.8834486119449138641357421875">
        <ele>1942.5999755859375</ele>
        <time>2026-06-16T11:05:02.000Z</time>
        <extensions>
          <ns3:TrackPointExtension>
            <ns3:atemp>19.0</ns3:atemp>
          </ns3:TrackPointExtension>
        </extensions>
      </trkpt>
      <trkpt lat="42.61940312571823596954345703125" lon="19.8834486119449138641357421875">
        <ele>1942.5999755859375</ele>
        <time>2026-06-16T11:05:03.000Z</time>
        <extensions>
          <ns3:TrackPointExtension>
            <ns3:atemp>19.0</ns3:atemp>
          </ns3:TrackPointExtension>
        </extensions>
      </trkpt>
      <trkpt lat="42.61940312571823596954345703125" lon="19.8834486119449138641357421875">
        <ele>1942.5999755859375</ele>
        <time>2026-06-16T11:05:04.000Z</time>
        <extensions>
          <ns3:TrackPointExtension>
            <ns3:atemp>19.0</ns3:atemp>
          </ns3:TrackPointExtension>
        </extensions>
      </trkpt>
      <trkpt lat="42.61940312571823596954345703125" lon="19.8834486119449138641357421875">
        <ele>1942.5999755859375</ele>
        <time>2026-06-16T11:05:05.000Z</time>
        <extensions>
          <ns3:TrackPointExtension>
            <ns3:atemp>19.0</ns3:atemp>
          </ns3:TrackPointExtension>
        </extensions>
      </trkpt>
      <trkpt lat="42.61940312571823596954345703125" lon="19.8834486119449138641357421875">
        <ele>1942.5999755859375</ele>
        <time>2026-06-16T11:05:06.000Z</time>
        <extensions>
          <ns3:TrackPointExtension>
            <ns3:atemp>19.0</ns3:atemp>
          </ns3:TrackPointExtension>
        </extensions>
      </trkpt>
      <trkpt lat="42.61940312571823596954345703125" lon="19.8834486119449138641357421875">
        <ele>1942.5999755859375</ele>
        <time>2026-06-16T11:05:07.000Z</time>
        <extensions>
          <ns3:TrackPointExtension>
            <ns3:atemp>19.0</ns3:atemp>
          </ns3:TrackPointExtension>
        </extensions>
      </trkpt>
      <trkpt lat="42.61940312571823596954345703125" lon="19.8834486119449138641357421875">
        <ele>1942.5999755859375</ele>
        <time>2026-06-16T11:05:08.000Z</time>
        <extensions>
          <ns3:TrackPointExtension>
            <ns3:atemp>19.0</ns3:atemp>
          </ns3:TrackPointExtension>
        </extensions>
      </trkpt>
      <trkpt lat="42.61940312571823596954345703125" lon="19.8834486119449138641357421875">
        <ele>1942.5999755859375</ele>
        <time>2026-06-16T11:05:09.000Z</time>
        <extensions>
          <ns3:TrackPointExtension>
            <ns3:atemp>19.0</ns3:atemp>
          </ns3:TrackPointExtension>
        </extensions>
      </trkpt>
      <trkpt lat="42.61940312571823596954345703125" lon="19.8834486119449138641357421875">
        <ele>1942.5999755859375</ele>
        <time>2026-06-16T11:05:10.000Z</time>
        <extensions>
          <ns3:TrackPointExtension>
            <ns3:atemp>19.0</ns3:atemp>
          </ns3:TrackPointExtension>
        </extensions>
      </trkpt>
      <trkpt lat="42.61940312571823596954345703125" lon="19.8834486119449138641357421875">
        <ele>1942.5999755859375</ele>
        <time>2026-06-16T11:05:11.000Z</time>
        <extensions>
          <ns3:TrackPointExtension>
            <ns3:atemp>19.0</ns3:atemp>
          </ns3:TrackPointExtension>
        </extensions>
      </trkpt>
      <trkpt lat="42.61940312571823596954345703125" lon="19.8834486119449138641357421875">
        <ele>1942.5999755859375</ele>
        <time>2026-06-16T11:05:12.000Z</time>
        <extensions>
          <ns3:TrackPointExtension>
            <ns3:atemp>19.0</ns3:atemp>
          </ns3:TrackPointExtension>
        </extensions>
      </trkpt>
      <trkpt lat="42.61940312571823596954345703125" lon="19.8834486119449138641357421875">
        <ele>1942.5999755859375</ele>
        <time>2026-06-16T11:05:13.000Z</time>
        <extensions>
          <ns3:TrackPointExtension>
            <ns3:atemp>19.0</ns3:atemp>
          </ns3:TrackPointExtension>
        </extensions>
      </trkpt>
      <trkpt lat="42.61940312571823596954345703125" lon="19.8834486119449138641357421875">
        <ele>1942.5999755859375</ele>
        <time>2026-06-16T11:05:14.000Z</time>
        <extensions>
          <ns3:TrackPointExtension>
            <ns3:atemp>19.0</ns3:atemp>
          </ns3:TrackPointExtension>
        </extensions>
      </trkpt>
      <trkpt lat="42.61940312571823596954345703125" lon="19.8834486119449138641357421875">
        <ele>1942.5999755859375</ele>
        <time>2026-06-16T11:05:15.000Z</time>
        <extensions>
          <ns3:TrackPointExtension>
            <ns3:atemp>19.0</ns3:atemp>
          </ns3:TrackPointExtension>
        </extensions>
      </trkpt>
      <trkpt lat="42.61940312571823596954345703125" lon="19.8834486119449138641357421875">
        <ele>1942.5999755859375</ele>
        <time>2026-06-16T11:05:16.000Z</time>
        <extensions>
          <ns3:TrackPointExtension>
            <ns3:atemp>19.0</ns3:atemp>
          </ns3:TrackPointExtension>
        </extensions>
      </trkpt>
      <trkpt lat="42.61940312571823596954345703125" lon="19.8834486119449138641357421875">
        <ele>1942.5999755859375</ele>
        <time>2026-06-16T11:05:17.000Z</time>
        <extensions>
          <ns3:TrackPointExtension>
            <ns3:atemp>19.0</ns3:atemp>
          </ns3:TrackPointExtension>
        </extensions>
      </trkpt>
      <trkpt lat="42.61940312571823596954345703125" lon="19.8834486119449138641357421875">
        <ele>1942.5999755859375</ele>
        <time>2026-06-16T11:05:18.000Z</time>
        <extensions>
          <ns3:TrackPointExtension>
            <ns3:atemp>19.0</ns3:atemp>
          </ns3:TrackPointExtension>
        </extensions>
      </trkpt>
      <trkpt lat="42.61940312571823596954345703125" lon="19.8834486119449138641357421875">
        <ele>1942.5999755859375</ele>
        <time>2026-06-16T11:05:19.000Z</time>
        <extensions>
          <ns3:TrackPointExtension>
            <ns3:atemp>19.0</ns3:atemp>
          </ns3:TrackPointExtension>
        </extensions>
      </trkpt>
      <trkpt lat="42.61940312571823596954345703125" lon="19.8834486119449138641357421875">
        <ele>1942.5999755859375</ele>
        <time>2026-06-16T11:05:20.000Z</time>
        <extensions>
          <ns3:TrackPointExtension>
            <ns3:atemp>19.0</ns3:atemp>
          </ns3:TrackPointExtension>
        </extensions>
      </trkpt>
      <trkpt lat="42.61940312571823596954345703125" lon="19.8834486119449138641357421875">
        <ele>1942.5999755859375</ele>
        <time>2026-06-16T11:05:21.000Z</time>
        <extensions>
          <ns3:TrackPointExtension>
            <ns3:atemp>19.0</ns3:atemp>
          </ns3:TrackPointExtension>
        </extensions>
      </trkpt>
      <trkpt lat="42.61940312571823596954345703125" lon="19.8834486119449138641357421875">
        <ele>1942.5999755859375</ele>
        <time>2026-06-16T11:05:22.000Z</time>
        <extensions>
          <ns3:TrackPointExtension>
            <ns3:atemp>19.0</ns3:atemp>
          </ns3:TrackPointExtension>
        </extensions>
      </trkpt>
      <trkpt lat="42.61940312571823596954345703125" lon="19.8834486119449138641357421875">
        <ele>1942.5999755859375</ele>
        <time>2026-06-16T11:05:23.000Z</time>
        <extensions>
          <ns3:TrackPointExtension>
            <ns3:atemp>19.0</ns3:atemp>
          </ns3:TrackPointExtension>
        </extensions>
      </trkpt>
      <trkpt lat="42.61940312571823596954345703125" lon="19.8834486119449138641357421875">
        <ele>1942.5999755859375</ele>
        <time>2026-06-16T11:05:24.000Z</time>
        <extensions>
          <ns3:TrackPointExtension>
            <ns3:atemp>19.0</ns3:atemp>
          </ns3:TrackPointExtension>
        </extensions>
      </trkpt>
      <trkpt lat="42.61940312571823596954345703125" lon="19.8834486119449138641357421875">
        <ele>1942.5999755859375</ele>
        <time>2026-06-16T11:05:25.000Z</time>
        <extensions>
          <ns3:TrackPointExtension>
            <ns3:atemp>19.0</ns3:atemp>
          </ns3:TrackPointExtension>
        </extensions>
      </trkpt>
      <trkpt lat="42.61940312571823596954345703125" lon="19.8834486119449138641357421875">
        <ele>1942.5999755859375</ele>
        <time>2026-06-16T11:05:26.000Z</time>
        <extensions>
          <ns3:TrackPointExtension>
            <ns3:atemp>19.0</ns3:atemp>
          </ns3:TrackPointExtension>
        </extensions>
      </trkpt>
      <trkpt lat="42.61940312571823596954345703125" lon="19.8834486119449138641357421875">
        <ele>1942.5999755859375</ele>
        <time>2026-06-16T11:05:27.000Z</time>
        <extensions>
          <ns3:TrackPointExtension>
            <ns3:atemp>19.0</ns3:atemp>
          </ns3:TrackPointExtension>
        </extensions>
      </trkpt>
      <trkpt lat="42.61940312571823596954345703125" lon="19.8834486119449138641357421875">
        <ele>1942.5999755859375</ele>
        <time>2026-06-16T11:05:28.000Z</time>
        <extensions>
          <ns3:TrackPointExtension>
            <ns3:atemp>19.0</ns3:atemp>
          </ns3:TrackPointExtension>
        </extensions>
      </trkpt>
      <trkpt lat="42.61940312571823596954345703125" lon="19.8834486119449138641357421875">
        <ele>1942.5999755859375</ele>
        <time>2026-06-16T11:05:29.000Z</time>
        <extensions>
          <ns3:TrackPointExtension>
            <ns3:atemp>19.0</ns3:atemp>
          </ns3:TrackPointExtension>
        </extensions>
      </trkpt>
      <trkpt lat="42.61940312571823596954345703125" lon="19.8834486119449138641357421875">
        <ele>1942.5999755859375</ele>
        <time>2026-06-16T11:05:30.000Z</time>
        <extensions>
          <ns3:TrackPointExtension>
            <ns3:atemp>19.0</ns3:atemp>
          </ns3:TrackPointExtension>
        </extensions>
      </trkpt>
      <trkpt lat="42.61940312571823596954345703125" lon="19.8834486119449138641357421875">
        <ele>1942.5999755859375</ele>
        <time>2026-06-16T11:05:31.000Z</time>
        <extensions>
          <ns3:TrackPointExtension>
            <ns3:atemp>19.0</ns3:atemp>
          </ns3:TrackPointExtension>
        </extensions>
      </trkpt>
      <trkpt lat="42.61940312571823596954345703125" lon="19.8834486119449138641357421875">
        <ele>1942.5999755859375</ele>
        <time>2026-06-16T11:05:32.000Z</time>
        <extensions>
          <ns3:TrackPointExtension>
            <ns3:atemp>19.0</ns3:atemp>
          </ns3:TrackPointExtension>
        </extensions>
      </trkpt>
      <trkpt lat="42.61940312571823596954345703125" lon="19.8834486119449138641357421875">
        <ele>1942.5999755859375</ele>
        <time>2026-06-16T11:05:33.000Z</time>
        <extensions>
          <ns3:TrackPointExtension>
            <ns3:atemp>19.0</ns3:atemp>
          </ns3:TrackPointExtension>
        </extensions>
      </trkpt>
      <trkpt lat="42.61940312571823596954345703125" lon="19.8834486119449138641357421875">
        <ele>1942.5999755859375</ele>
        <time>2026-06-16T11:05:34.000Z</time>
        <extensions>
          <ns3:TrackPointExtension>
            <ns3:atemp>19.0</ns3:atemp>
          </ns3:TrackPointExtension>
        </extensions>
      </trkpt>
      <trkpt lat="42.61940312571823596954345703125" lon="19.8834486119449138641357421875">
        <ele>1942.5999755859375</ele>
        <time>2026-06-16T11:05:35.000Z</time>
        <extensions>
          <ns3:TrackPointExtension>
            <ns3:atemp>19.0</ns3:atemp>
          </ns3:TrackPointExtension>
        </extensions>
      </trkpt>
      <trkpt lat="42.61940312571823596954345703125" lon="19.8834486119449138641357421875">
        <ele>1942.5999755859375</ele>
        <time>2026-06-16T11:05:36.000Z</time>
        <extensions>
          <ns3:TrackPointExtension>
            <ns3:atemp>19.0</ns3:atemp>
          </ns3:TrackPointExtension>
        </extensions>
      </trkpt>
      <trkpt lat="42.61940312571823596954345703125" lon="19.8834486119449138641357421875">
        <ele>1942.5999755859375</ele>
        <time>2026-06-16T11:05:37.000Z</time>
        <extensions>
          <ns3:TrackPointExtension>
            <ns3:atemp>19.0</ns3:atemp>
          </ns3:TrackPointExtension>
        </extensions>
      </trkpt>
      <trkpt lat="42.61940312571823596954345703125" lon="19.8834486119449138641357421875">
        <ele>1942.5999755859375</ele>
        <time>2026-06-16T11:05:38.000Z</time>
        <extensions>
          <ns3:TrackPointExtension>
            <ns3:atemp>19.0</ns3:atemp>
          </ns3:TrackPointExtension>
        </extensions>
      </trkpt>
      <trkpt lat="42.61940312571823596954345703125" lon="19.8834486119449138641357421875">
        <ele>1942.5999755859375</ele>
        <time>2026-06-16T11:05:39.000Z</time>
        <extensions>
          <ns3:TrackPointExtension>
            <ns3:atemp>19.0</ns3:atemp>
          </ns3:TrackPointExtension>
        </extensions>
      </trkpt>
      <trkpt lat="42.61940312571823596954345703125" lon="19.8834486119449138641357421875">
        <ele>1942.5999755859375</ele>
        <time>2026-06-16T11:05:40.000Z</time>
        <extensions>
          <ns3:TrackPointExtension>
            <ns3:atemp>19.0</ns3:atemp>
          </ns3:TrackPointExtension>
        </extensions>
      </trkpt>
      <trkpt lat="42.61940312571823596954345703125" lon="19.8834486119449138641357421875">
        <ele>1942.5999755859375</ele>
        <time>2026-06-16T11:05:41.000Z</time>
        <extensions>
          <ns3:TrackPointExtension>
            <ns3:atemp>19.0</ns3:atemp>
          </ns3:TrackPointExtension>
        </extensions>
      </trkpt>
      <trkpt lat="42.61940312571823596954345703125" lon="19.8834486119449138641357421875">
        <ele>1942.5999755859375</ele>
        <time>2026-06-16T11:05:42.000Z</time>
        <extensions>
          <ns3:TrackPointExtension>
            <ns3:atemp>19.0</ns3:atemp>
          </ns3:TrackPointExtension>
        </extensions>
      </trkpt>
      <trkpt lat="42.61940312571823596954345703125" lon="19.8834486119449138641357421875">
        <ele>1942.5999755859375</ele>
        <time>2026-06-16T11:05:43.000Z</time>
        <extensions>
          <ns3:TrackPointExtension>
            <ns3:atemp>19.0</ns3:atemp>
          </ns3:TrackPointExtension>
        </extensions>
      </trkpt>
      <trkpt lat="42.61940312571823596954345703125" lon="19.8834486119449138641357421875">
        <ele>1942.5999755859375</ele>
        <time>2026-06-16T11:05:44.000Z</time>
        <extensions>
          <ns3:TrackPointExtension>
            <ns3:atemp>19.0</ns3:atemp>
          </ns3:TrackPointExtension>
        </extensions>
      </trkpt>
      <trkpt lat="42.61940312571823596954345703125" lon="19.8834486119449138641357421875">
        <ele>1942.5999755859375</ele>
        <time>2026-06-16T11:05:45.000Z</time>
        <extensions>
          <ns3:TrackPointExtension>
            <ns3:atemp>19.0</ns3:atemp>
          </ns3:TrackPointExtension>
        </extensions>
      </trkpt>
      <trkpt lat="42.61940312571823596954345703125" lon="19.8834486119449138641357421875">
        <ele>1942.5999755859375</ele>
        <time>2026-06-16T11:05:46.000Z</time>
        <extensions>
          <ns3:TrackPointExtension>
            <ns3:atemp>19.0</ns3:atemp>
          </ns3:TrackPointExtension>
        </extensions>
      </trkpt>
      <trkpt lat="42.61940312571823596954345703125" lon="19.8834486119449138641357421875">
        <ele>1942.5999755859375</ele>
        <time>2026-06-16T11:05:47.000Z</time>
        <extensions>
          <ns3:TrackPointExtension>
            <ns3:atemp>19.0</ns3:atemp>
          </ns3:TrackPointExtension>
        </extensions>
      </trkpt>
      <trkpt lat="42.61940161697566509246826171875" lon="19.88344232551753520965576171875">
        <ele>1942.5999755859375</ele>
        <time>2026-06-16T11:05:48.000Z</time>
        <extensions>
          <ns3:TrackPointExtension>
            <ns3:atemp>19.0</ns3:atemp>
          </ns3:TrackPointExtension>
        </extensions>
      </trkpt>
      <trkpt lat="42.61940262280404567718505859375" lon="19.8834278248250484466552734375">
        <ele>1942.5999755859375</ele>
        <time>2026-06-16T11:05:49.000Z</time>
        <extensions>
          <ns3:TrackPointExtension>
            <ns3:atemp>19.0</ns3:atemp>
          </ns3:TrackPointExtension>
        </extensions>
      </trkpt>
      <trkpt lat="42.61941938661038875579833984375" lon="19.8834020085632801055908203125">
        <ele>1943</ele>
        <time>2026-06-16T11:05:50.000Z</time>
        <extensions>
          <ns3:TrackPointExtension>
            <ns3:atemp>19.0</ns3:atemp>
          </ns3:TrackPointExtension>
        </extensions>
      </trkpt>
      <trkpt lat="42.6194488070905208587646484375" lon="19.8833802156150341033935546875">
        <ele>1942.800048828125</ele>
        <time>2026-06-16T11:05:51.000Z</time>
        <extensions>
          <ns3:TrackPointExtension>
            <ns3:atemp>19.0</ns3:atemp>
          </ns3:TrackPointExtension>
        </extensions>
      </trkpt>
      <trkpt lat="42.6194840110838413238525390625" lon="19.88336940295994281768798828125">
        <ele>1942.5999755859375</ele>
        <time>2026-06-16T11:05:52.000Z</time>
        <extensions>
          <ns3:TrackPointExtension>
            <ns3:atemp>19.0</ns3:atemp>
          </ns3:TrackPointExtension>
        </extensions>
      </trkpt>
      <trkpt lat="42.61952701024711132049560546875" lon="19.8833647929131984710693359375">
        <ele>1942</ele>
        <time>2026-06-16T11:05:53.000Z</time>
        <extensions>
          <ns3:TrackPointExtension>
            <ns3:atemp>19.0</ns3:atemp>
          </ns3:TrackPointExtension>
        </extensions>
      </trkpt>
      <trkpt lat="42.61958166025578975677490234375" lon="19.88336286507546901702880859375">
        <ele>1941.199951171875</ele>
        <time>2026-06-16T11:05:54.000Z</time>
        <extensions>
          <ns3:TrackPointExtension>
            <ns3:atemp>19.0</ns3:atemp>
          </ns3:TrackPointExtension>
        </extensions>
      </trkpt>
      <trkpt lat="42.6196508109569549560546875" lon="19.883351214230060577392578125">
        <ele>1940.4000244140625</ele>
        <time>2026-06-16T11:05:55.000Z</time>
        <extensions>
          <ns3:TrackPointExtension>
            <ns3:atemp>19.0</ns3:atemp>
          </ns3:TrackPointExtension>
        </extensions>
      </trkpt>
      <trkpt lat="42.6197223924100399017333984375" lon="19.8833248950541019439697265625">
        <ele>1939.4000244140625</ele>
        <time>2026-06-16T11:05:56.000Z</time>
        <extensions>
          <ns3:TrackPointExtension>
            <ns3:atemp>19.0</ns3:atemp>
          </ns3:TrackPointExtension>
        </extensions>
      </trkpt>
      <trkpt lat="42.61978626251220703125" lon="19.88331399857997894287109375">
        <ele>1938.4000244140625</ele>
        <time>2026-06-16T11:05:57.000Z</time>
        <extensions>
          <ns3:TrackPointExtension>
            <ns3:atemp>19.0</ns3:atemp>
          </ns3:TrackPointExtension>
        </extensions>
      </trkpt>
      <trkpt lat="42.6198467798531055450439453125" lon="19.88332246430218219757080078125">
        <ele>1937.199951171875</ele>
        <time>2026-06-16T11:05:58.000Z</time>
        <extensions>
          <ns3:TrackPointExtension>
            <ns3:atemp>19.0</ns3:atemp>
          </ns3:TrackPointExtension>
        </extensions>
      </trkpt>
      <trkpt lat="42.61990964412689208984375" lon="19.88333755172789096832275390625">
        <ele>1936.199951171875</ele>
        <time>2026-06-16T11:05:59.000Z</time>
        <extensions>
          <ns3:TrackPointExtension>
            <ns3:atemp>19.0</ns3:atemp>
          </ns3:TrackPointExtension>
        </extensions>
      </trkpt>
      <trkpt lat="42.61996672488749027252197265625" lon="19.883368648588657379150390625">
        <ele>1934.5999755859375</ele>
        <time>2026-06-16T11:06:00.000Z</time>
        <extensions>
          <ns3:TrackPointExtension>
            <ns3:atemp>19.0</ns3:atemp>
          </ns3:TrackPointExtension>
        </extensions>
      </trkpt>
      <trkpt lat="42.6200248114764690399169921875" lon="19.88339907489717006683349609375">
        <ele>1933</ele>
        <time>2026-06-16T11:06:01.000Z</time>
        <extensions>
          <ns3:TrackPointExtension>
            <ns3:atemp>19.0</ns3:atemp>
          </ns3:TrackPointExtension>
        </extensions>
      </trkpt>
      <trkpt lat="42.62008474208414554595947265625" lon="19.883414916694164276123046875">
        <ele>1931.199951171875</ele>
        <time>2026-06-16T11:06:02.000Z</time>
        <extensions>
          <ns3:TrackPointExtension>
            <ns3:atemp>19.0</ns3:atemp>
          </ns3:TrackPointExtension>
        </extensions>
      </trkpt>
      <trkpt lat="42.62014190666377544403076171875" lon="19.8834191076457500457763671875">
        <ele>1929.5999755859375</ele>
        <time>2026-06-16T11:06:03.000Z</time>
        <extensions>
          <ns3:TrackPointExtension>
            <ns3:atemp>19.0</ns3:atemp>
          </ns3:TrackPointExtension>
        </extensions>
      </trkpt>
      <trkpt lat="42.620200328528881072998046875" lon="19.883416257798671722412109375">
        <ele>1928</ele>
        <time>2026-06-16T11:06:04.000Z</time>
        <extensions>
          <ns3:TrackPointExtension>
            <ns3:atemp>19.0</ns3:atemp>
          </ns3:TrackPointExtension>
        </extensions>
      </trkpt>
      <trkpt lat="42.62026109732687473297119140625" lon="19.88340494222939014434814453125">
        <ele>1926.4000244140625</ele>
        <time>2026-06-16T11:06:05.000Z</time>
        <extensions>
          <ns3:TrackPointExtension>
            <ns3:atemp>19.0</ns3:atemp>
          </ns3:TrackPointExtension>
        </extensions>
      </trkpt>
      <trkpt lat="42.62031625024974346160888671875" lon="19.8833777010440826416015625">
        <ele>1924.800048828125</ele>
        <time>2026-06-16T11:06:06.000Z</time>
        <extensions>
          <ns3:TrackPointExtension>
            <ns3:atemp>19.0</ns3:atemp>
          </ns3:TrackPointExtension>
        </extensions>
      </trkpt>
      <trkpt lat="42.6203750073909759521484375" lon="19.88338231109082698822021484375">
        <ele>1923.199951171875</ele>
        <time>2026-06-16T11:06:07.000Z</time>
        <extensions>
          <ns3:TrackPointExtension>
            <ns3:atemp>19.0</ns3:atemp>
          </ns3:TrackPointExtension>
        </extensions>
      </trkpt>
      <trkpt lat="42.62043066322803497314453125" lon="19.883404858410358428955078125">
        <ele>1921.4000244140625</ele>
        <time>2026-06-16T11:06:08.000Z</time>
        <extensions>
          <ns3:TrackPointExtension>
            <ns3:atemp>19.0</ns3:atemp>
          </ns3:TrackPointExtension>
        </extensions>
      </trkpt>
      <trkpt lat="42.62048489414155483245849609375" lon="19.883432686328887939453125">
        <ele>1919.5999755859375</ele>
        <time>2026-06-16T11:06:09.000Z</time>
        <extensions>
          <ns3:TrackPointExtension>
            <ns3:atemp>19.0</ns3:atemp>
          </ns3:TrackPointExtension>
        </extensions>
      </trkpt>
      <trkpt lat="42.62054063379764556884765625" lon="19.88344886340200901031494140625">
        <ele>1918</ele>
        <time>2026-06-16T11:06:10.000Z</time>
        <extensions>
          <ns3:TrackPointExtension>
            <ns3:atemp>19.0</ns3:atemp>
          </ns3:TrackPointExtension>
        </extensions>
      </trkpt>
      <trkpt lat="42.62060634791851043701171875" lon="19.88345615565776824951171875">
        <ele>1916.4000244140625</ele>
        <time>2026-06-16T11:06:11.000Z</time>
        <extensions>
          <ns3:TrackPointExtension>
            <ns3:atemp>19.0</ns3:atemp>
          </ns3:TrackPointExtension>
        </extensions>
      </trkpt>
      <trkpt lat="42.62066829018294811248779296875" lon="19.88347836770117282867431640625">
        <ele>1914.5999755859375</ele>
        <time>2026-06-16T11:06:12.000Z</time>
        <extensions>
          <ns3:TrackPointExtension>
            <ns3:atemp>19.0</ns3:atemp>
          </ns3:TrackPointExtension>
        </extensions>
      </trkpt>
      <trkpt lat="42.6207208447158336639404296875" lon="19.8835103027522563934326171875">
        <ele>1913.199951171875</ele>
        <time>2026-06-16T11:06:13.000Z</time>
        <extensions>
          <ns3:TrackPointExtension>
            <ns3:atemp>19.0</ns3:atemp>
          </ns3:TrackPointExtension>
        </extensions>
      </trkpt>
      <trkpt lat="42.62077993713319301605224609375" lon="19.883535616099834442138671875">
        <ele>1911.199951171875</ele>
        <time>2026-06-16T11:06:14.000Z</time>
        <extensions>
          <ns3:TrackPointExtension>
            <ns3:atemp>19.0</ns3:atemp>
          </ns3:TrackPointExtension>
        </extensions>
      </trkpt>
      <trkpt lat="42.620839364826679229736328125" lon="19.8835545592010021209716796875">
        <ele>1910.199951171875</ele>
        <time>2026-06-16T11:06:15.000Z</time>
        <extensions>
          <ns3:TrackPointExtension>
            <ns3:atemp>19.0</ns3:atemp>
          </ns3:TrackPointExtension>
        </extensions>
      </trkpt>
      <trkpt lat="42.6209119521081447601318359375" lon="19.88356453366577625274658203125">
        <ele>1908</ele>
        <time>2026-06-16T11:06:16.000Z</time>
        <extensions>
          <ns3:TrackPointExtension>
            <ns3:atemp>19.0</ns3:atemp>
          </ns3:TrackPointExtension>
        </extensions>
      </trkpt>
      <trkpt lat="42.6209927536547183990478515625" lon="19.88356671296060085296630859375">
        <ele>1905.800048828125</ele>
        <time>2026-06-16T11:06:17.000Z</time>
        <extensions>
          <ns3:TrackPointExtension>
            <ns3:atemp>19.0</ns3:atemp>
          </ns3:TrackPointExtension>
        </extensions>
      </trkpt>
      <trkpt lat="42.621086798608303070068359375" lon="19.8835694789886474609375">
        <ele>1903.5999755859375</ele>
        <time>2026-06-16T11:06:18.000Z</time>
        <extensions>
          <ns3:TrackPointExtension>
            <ns3:atemp>19.0</ns3:atemp>
          </ns3:TrackPointExtension>
        </extensions>
      </trkpt>
      <trkpt lat="42.62117656879127025604248046875" lon="19.8835686407983303070068359375">
        <ele>1901.4000244140625</ele>
        <time>2026-06-16T11:06:19.000Z</time>
        <extensions>
          <ns3:TrackPointExtension>
            <ns3:atemp>19.0</ns3:atemp>
          </ns3:TrackPointExtension>
        </extensions>
      </trkpt>
      <trkpt lat="42.621245048940181732177734375" lon="19.88356168381869792938232421875">
        <ele>1899.5999755859375</ele>
        <time>2026-06-16T11:06:20.000Z</time>
        <extensions>
          <ns3:TrackPointExtension>
            <ns3:atemp>19.0</ns3:atemp>
          </ns3:TrackPointExtension>
        </extensions>
      </trkpt>
      <trkpt lat="42.6212894730269908905029296875" lon="19.88355313427746295928955078125">
        <ele>1898</ele>
        <time>2026-06-16T11:06:21.000Z</time>
        <extensions>
          <ns3:TrackPointExtension>
            <ns3:atemp>19.0</ns3:atemp>
          </ns3:TrackPointExtension>
        </extensions>
      </trkpt>
      <trkpt lat="42.621324844658374786376953125" lon="19.88354676403105258941650390625">
        <ele>1896.800048828125</ele>
        <time>2026-06-16T11:06:22.000Z</time>
        <extensions>
          <ns3:TrackPointExtension>
            <ns3:atemp>19.0</ns3:atemp>
          </ns3:TrackPointExtension>
        </extensions>
      </trkpt>
      <trkpt lat="42.62135493569076061248779296875" lon="19.883539639413356781005859375">
        <ele>1895.800048828125</ele>
        <time>2026-06-16T11:06:23.000Z</time>
        <extensions>
          <ns3:TrackPointExtension>
            <ns3:atemp>19.0</ns3:atemp>
          </ns3:TrackPointExtension>
        </extensions>
      </trkpt>
      <trkpt lat="42.6213716156780719757080078125" lon="19.88352782092988491058349609375">
        <ele>1895</ele>
        <time>2026-06-16T11:06:24.000Z</time>
        <extensions>
          <ns3:TrackPointExtension>
            <ns3:atemp>19.0</ns3:atemp>
          </ns3:TrackPointExtension>
        </extensions>
      </trkpt>
      <trkpt lat="42.62138343416154384613037109375" lon="19.88350183703005313873291015625">
        <ele>1894.199951171875</ele>
        <time>2026-06-16T11:06:25.000Z</time>
        <extensions>
          <ns3:TrackPointExtension>
            <ns3:atemp>19.0</ns3:atemp>
          </ns3:TrackPointExtension>
        </extensions>
      </trkpt>
      <trkpt lat="42.62139919213950634002685546875" lon="19.8834724165499210357666015625">
        <ele>1893.4000244140625</ele>
        <time>2026-06-16T11:06:26.000Z</time>
        <extensions>
          <ns3:TrackPointExtension>
            <ns3:atemp>19.0</ns3:atemp>
          </ns3:TrackPointExtension>
        </extensions>
      </trkpt>
      <trkpt lat="42.62141545303165912628173828125" lon="19.8834325186908245086669921875">
        <ele>1892.800048828125</ele>
        <time>2026-06-16T11:06:27.000Z</time>
        <extensions>
          <ns3:TrackPointExtension>
            <ns3:atemp>19.0</ns3:atemp>
          </ns3:TrackPointExtension>
        </extensions>
      </trkpt>
      <trkpt lat="42.6214373297989368438720703125" lon="19.8833964765071868896484375">
        <ele>1892.199951171875</ele>
        <time>2026-06-16T11:06:28.000Z</time>
        <extensions>
          <ns3:TrackPointExtension>
            <ns3:atemp>19.0</ns3:atemp>
          </ns3:TrackPointExtension>
        </extensions>
      </trkpt>
      <trkpt lat="42.62146322987973690032958984375" lon="19.8833782039582729339599609375">
        <ele>1891.800048828125</ele>
        <time>2026-06-16T11:06:29.000Z</time>
        <extensions>
          <ns3:TrackPointExtension>
            <ns3:atemp>19.0</ns3:atemp>
          </ns3:TrackPointExtension>
        </extensions>
      </trkpt>
      <trkpt lat="42.6214882917702198028564453125" lon="19.8833611048758029937744140625">
        <ele>1891.4000244140625</ele>
        <time>2026-06-16T11:06:30.000Z</time>
        <extensions>
          <ns3:TrackPointExtension>
            <ns3:atemp>19.0</ns3:atemp>
          </ns3:TrackPointExtension>
        </extensions>
      </trkpt>
      <trkpt lat="42.62151955626904964447021484375" lon="19.8833510465919971466064453125">
        <ele>1891</ele>
        <time>2026-06-16T11:06:31.000Z</time>
        <extensions>
          <ns3:TrackPointExtension>
            <ns3:atemp>19.0</ns3:atemp>
          </ns3:TrackPointExtension>
        </extensions>
      </trkpt>
      <trkpt lat="42.62155316770076751708984375" lon="19.88333688117563724517822265625">
        <ele>1890.800048828125</ele>
        <time>2026-06-16T11:06:32.000Z</time>
        <extensions>
          <ns3:TrackPointExtension>
            <ns3:atemp>19.0</ns3:atemp>
          </ns3:TrackPointExtension>
        </extensions>
      </trkpt>
      <trkpt lat="42.62158862315118312835693359375" lon="19.88332875072956085205078125">
        <ele>1890.5999755859375</ele>
        <time>2026-06-16T11:06:33.000Z</time>
        <extensions>
          <ns3:TrackPointExtension>
            <ns3:atemp>19.0</ns3:atemp>
          </ns3:TrackPointExtension>
        </extensions>
      </trkpt>
      <trkpt lat="42.6216324605047702789306640625" lon="19.88332380540668964385986328125">
        <ele>1890.199951171875</ele>
        <time>2026-06-16T11:06:34.000Z</time>
        <extensions>
          <ns3:TrackPointExtension>
            <ns3:atemp>19.0</ns3:atemp>
          </ns3:TrackPointExtension>
        </extensions>
      </trkpt>
      <trkpt lat="42.62168903835117816925048828125" lon="19.8833285830914974212646484375">
        <ele>1889.800048828125</ele>
        <time>2026-06-16T11:06:35.000Z</time>
        <extensions>
          <ns3:TrackPointExtension>
            <ns3:atemp>19.0</ns3:atemp>
          </ns3:TrackPointExtension>
        </extensions>
      </trkpt>
      <trkpt lat="42.62175776995718479156494140625" lon="19.8833359591662883758544921875">
        <ele>1889.199951171875</ele>
        <time>2026-06-16T11:06:36.000Z</time>
        <extensions>
          <ns3:TrackPointExtension>
            <ns3:atemp>19.0</ns3:atemp>
          </ns3:TrackPointExtension>
        </extensions>
      </trkpt>
      <trkpt lat="42.62183387763798236846923828125" lon="19.883357919752597808837890625">
        <ele>1888.5999755859375</ele>
        <time>2026-06-16T11:06:37.000Z</time>
        <extensions>
          <ns3:TrackPointExtension>
            <ns3:atemp>19.0</ns3:atemp>
          </ns3:TrackPointExtension>
        </extensions>
      </trkpt>
      <trkpt lat="42.6219130866229534149169921875" lon="19.88338599912822246551513671875">
        <ele>1887.5999755859375</ele>
        <time>2026-06-16T11:06:38.000Z</time>
        <extensions>
          <ns3:TrackPointExtension>
            <ns3:atemp>19.0</ns3:atemp>
          </ns3:TrackPointExtension>
        </extensions>
      </trkpt>
      <trkpt lat="42.62199900113046169281005859375" lon="19.8834060318768024444580078125">
        <ele>1886.4000244140625</ele>
        <time>2026-06-16T11:06:39.000Z</time>
        <extensions>
          <ns3:TrackPointExtension>
            <ns3:atemp>19.0</ns3:atemp>
          </ns3:TrackPointExtension>
        </extensions>
      </trkpt>
      <trkpt lat="42.62207980267703533172607421875" lon="19.8834110610187053680419921875">
        <ele>1885.5999755859375</ele>
        <time>2026-06-16T11:06:40.000Z</time>
        <extensions>
          <ns3:TrackPointExtension>
            <ns3:atemp>19.0</ns3:atemp>
          </ns3:TrackPointExtension>
        </extensions>
      </trkpt>
      <trkpt lat="42.62216144241392612457275390625" lon="19.88342304714024066925048828125">
        <ele>1884.5999755859375</ele>
        <time>2026-06-16T11:06:41.000Z</time>
        <extensions>
          <ns3:TrackPointExtension>
            <ns3:atemp>19.0</ns3:atemp>
          </ns3:TrackPointExtension>
        </extensions>
      </trkpt>
      <trkpt lat="42.62224459089338779449462890625" lon="19.88344869576394557952880859375">
        <ele>1883.5999755859375</ele>
        <time>2026-06-16T11:06:42.000Z</time>
        <extensions>
          <ns3:TrackPointExtension>
            <ns3:atemp>19.0</ns3:atemp>
          </ns3:TrackPointExtension>
        </extensions>
      </trkpt>
      <trkpt lat="42.6223251409828662872314453125" lon="19.8834673874080181121826171875">
        <ele>1882.4000244140625</ele>
        <time>2026-06-16T11:06:43.000Z</time>
        <extensions>
          <ns3:TrackPointExtension>
            <ns3:atemp>19.0</ns3:atemp>
          </ns3:TrackPointExtension>
        </extensions>
      </trkpt>
      <trkpt lat="42.62240434996783733367919921875" lon="19.88347669132053852081298828125">
        <ele>1881.800048828125</ele>
        <time>2026-06-16T11:06:44.000Z</time>
        <extensions>
          <ns3:TrackPointExtension>
            <ns3:atemp>19.0</ns3:atemp>
          </ns3:TrackPointExtension>
        </extensions>
      </trkpt>
      <trkpt lat="42.622471489012241363525390625" lon="19.883488677442073822021484375">
        <ele>1880.800048828125</ele>
        <time>2026-06-16T11:06:45.000Z</time>
        <extensions>
          <ns3:TrackPointExtension>
            <ns3:atemp>19.0</ns3:atemp>
          </ns3:TrackPointExtension>
        </extensions>
      </trkpt>
      <trkpt lat="42.62252957560122013092041015625" lon="19.88347669132053852081298828125">
        <ele>1879.800048828125</ele>
        <time>2026-06-16T11:06:46.000Z</time>
        <extensions>
          <ns3:TrackPointExtension>
            <ns3:atemp>19.0</ns3:atemp>
          </ns3:TrackPointExtension>
        </extensions>
      </trkpt>
      <trkpt lat="42.62258389033377170562744140625" lon="19.88344366662204265594482421875">
        <ele>1879</ele>
        <time>2026-06-16T11:06:47.000Z</time>
        <extensions>
          <ns3:TrackPointExtension>
            <ns3:atemp>19.0</ns3:atemp>
          </ns3:TrackPointExtension>
        </extensions>
      </trkpt>
      <trkpt lat="42.62264222837984561920166015625" lon="19.8834398947656154632568359375">
        <ele>1878.199951171875</ele>
        <time>2026-06-16T11:06:48.000Z</time>
        <extensions>
          <ns3:TrackPointExtension>
            <ns3:atemp>19.0</ns3:atemp>
          </ns3:TrackPointExtension>
        </extensions>
      </trkpt>
      <trkpt lat="42.62271414510905742645263671875" lon="19.88345825113356113433837890625">
        <ele>1877.199951171875</ele>
        <time>2026-06-16T11:06:49.000Z</time>
        <extensions>
          <ns3:TrackPointExtension>
            <ns3:atemp>19.0</ns3:atemp>
          </ns3:TrackPointExtension>
        </extensions>
      </trkpt>
      <trkpt lat="42.62278472073376178741455078125" lon="19.88347048871219158172607421875">
        <ele>1875.4000244140625</ele>
        <time>2026-06-16T11:06:50.000Z</time>
        <extensions>
          <ns3:TrackPointExtension>
            <ns3:atemp>19.0</ns3:atemp>
          </ns3:TrackPointExtension>
        </extensions>
      </trkpt>
      <trkpt lat="42.62284926138818264007568359375" lon="19.88346026279032230377197265625">
        <ele>1874</ele>
        <time>2026-06-16T11:06:51.000Z</time>
        <extensions>
          <ns3:TrackPointExtension>
            <ns3:atemp>19.0</ns3:atemp>
          </ns3:TrackPointExtension>
        </extensions>
      </trkpt>
      <trkpt lat="42.62290072627365589141845703125" lon="19.8834492824971675872802734375">
        <ele>1872.4000244140625</ele>
        <time>2026-06-16T11:06:52.000Z</time>
        <extensions>
          <ns3:TrackPointExtension>
            <ns3:atemp>19.0</ns3:atemp>
          </ns3:TrackPointExtension>
        </extensions>
      </trkpt>
      <trkpt lat="42.6229484193027019500732421875" lon="19.88346017897129058837890625">
        <ele>1871.199951171875</ele>
        <time>2026-06-16T11:06:53.000Z</time>
        <extensions>
          <ns3:TrackPointExtension>
            <ns3:atemp>19.0</ns3:atemp>
          </ns3:TrackPointExtension>
        </extensions>
      </trkpt>
      <trkpt lat="42.6229712180793285369873046875" lon="19.88349462859332561492919921875">
        <ele>1869.800048828125</ele>
        <time>2026-06-16T11:06:54.000Z</time>
        <extensions>
          <ns3:TrackPointExtension>
            <ns3:atemp>19.0</ns3:atemp>
          </ns3:TrackPointExtension>
        </extensions>
      </trkpt>
      <trkpt lat="42.6229742355644702911376953125" lon="19.88354743458330631256103515625">
        <ele>1868.4000244140625</ele>
        <time>2026-06-16T11:06:55.000Z</time>
        <extensions>
          <ns3:TrackPointExtension>
            <ns3:atemp>19.0</ns3:atemp>
          </ns3:TrackPointExtension>
        </extensions>
      </trkpt>
      <trkpt lat="42.62297205626964569091796875" lon="19.88360141403973102569580078125">
        <ele>1867.199951171875</ele>
        <time>2026-06-16T11:06:56.000Z</time>
        <extensions>
          <ns3:TrackPointExtension>
            <ns3:atemp>19.0</ns3:atemp>
          </ns3:TrackPointExtension>
        </extensions>
      </trkpt>
      <trkpt lat="42.62296576984226703643798828125" lon="19.88365598022937774658203125">
        <ele>1866.4000244140625</ele>
        <time>2026-06-16T11:06:57.000Z</time>
        <extensions>
          <ns3:TrackPointExtension>
            <ns3:atemp>19.0</ns3:atemp>
          </ns3:TrackPointExtension>
        </extensions>
      </trkpt>
      <trkpt lat="42.62297063134610652923583984375" lon="19.88370836712419986724853515625">
        <ele>1865.800048828125</ele>
        <time>2026-06-16T11:06:58.000Z</time>
        <extensions>
          <ns3:TrackPointExtension>
            <ns3:atemp>19.0</ns3:atemp>
          </ns3:TrackPointExtension>
        </extensions>
      </trkpt>
      <trkpt lat="42.622987143695354461669921875" lon="19.88377265632152557373046875">
        <ele>1865</ele>
        <time>2026-06-16T11:06:59.000Z</time>
        <extensions>
          <ns3:TrackPointExtension>
            <ns3:atemp>19.0</ns3:atemp>
          </ns3:TrackPointExtension>
        </extensions>
      </trkpt>
      <trkpt lat="42.62301304377615451812744140625" lon="19.88383158110082149505615234375">
        <ele>1864.4000244140625</ele>
        <time>2026-06-16T11:07:00.000Z</time>
        <extensions>
          <ns3:TrackPointExtension>
            <ns3:atemp>19.0</ns3:atemp>
          </ns3:TrackPointExtension>
        </extensions>
      </trkpt>
      <trkpt lat="42.623029388487339019775390625" lon="19.8839042522013187408447265625">
        <ele>1863.800048828125</ele>
        <time>2026-06-16T11:07:01.000Z</time>
        <extensions>
          <ns3:TrackPointExtension>
            <ns3:atemp>19.0</ns3:atemp>
          </ns3:TrackPointExtension>
        </extensions>
      </trkpt>
      <trkpt lat="42.62302561663091182708740234375" lon="19.8839910887181758880615234375">
        <ele>1863.199951171875</ele>
        <time>2026-06-16T11:07:02.000Z</time>
        <extensions>
          <ns3:TrackPointExtension>
            <ns3:atemp>19.0</ns3:atemp>
          </ns3:TrackPointExtension>
        </extensions>
      </trkpt>
      <trkpt lat="42.62301656417548656463623046875" lon="19.884079433977603912353515625">
        <ele>1862.4000244140625</ele>
        <time>2026-06-16T11:07:03.000Z</time>
        <extensions>
          <ns3:TrackPointExtension>
            <ns3:atemp>19.0</ns3:atemp>
          </ns3:TrackPointExtension>
        </extensions>
      </trkpt>
      <trkpt lat="42.62299108318984508514404296875" lon="19.88417406566441059112548828125">
        <ele>1861.5999755859375</ele>
        <time>2026-06-16T11:07:04.000Z</time>
        <extensions>
          <ns3:TrackPointExtension>
            <ns3:atemp>19.0</ns3:atemp>
          </ns3:TrackPointExtension>
        </extensions>
      </trkpt>
      <trkpt lat="42.622951604425907135009765625" lon="19.8842574656009674072265625">
        <ele>1860.800048828125</ele>
        <time>2026-06-16T11:07:05.000Z</time>
        <extensions>
          <ns3:TrackPointExtension>
            <ns3:atemp>19.0</ns3:atemp>
          </ns3:TrackPointExtension>
        </extensions>
      </trkpt>
      <trkpt lat="42.6229001395404338836669921875" lon="19.88432879559695720672607421875">
        <ele>1859.5999755859375</ele>
        <time>2026-06-16T11:07:06.000Z</time>
        <extensions>
          <ns3:TrackPointExtension>
            <ns3:atemp>19.0</ns3:atemp>
          </ns3:TrackPointExtension>
        </extensions>
      </trkpt>
      <trkpt lat="42.6228404603898525238037109375" lon="19.88437506370246410369873046875">
        <ele>1858.800048828125</ele>
        <time>2026-06-16T11:07:07.000Z</time>
        <extensions>
          <ns3:TrackPointExtension>
            <ns3:atemp>19.0</ns3:atemp>
          </ns3:TrackPointExtension>
        </extensions>
      </trkpt>
      <trkpt lat="42.6227951981127262115478515625" lon="19.884422086179256439208984375">
        <ele>1857.800048828125</ele>
        <time>2026-06-16T11:07:08.000Z</time>
        <extensions>
          <ns3:TrackPointExtension>
            <ns3:atemp>19.0</ns3:atemp>
          </ns3:TrackPointExtension>
        </extensions>
      </trkpt>
      <trkpt lat="42.62277935631573200225830078125" lon="19.88448738120496273040771484375">
        <ele>1857</ele>
        <time>2026-06-16T11:07:09.000Z</time>
        <extensions>
          <ns3:TrackPointExtension>
            <ns3:atemp>19.0</ns3:atemp>
          </ns3:TrackPointExtension>
        </extensions>
      </trkpt>
      <trkpt lat="42.6227921806275844573974609375" lon="19.8845426179468631744384765625">
        <ele>1856.199951171875</ele>
        <time>2026-06-16T11:07:10.000Z</time>
        <extensions>
          <ns3:TrackPointExtension>
            <ns3:atemp>19.0</ns3:atemp>
          </ns3:TrackPointExtension>
        </extensions>
      </trkpt>
      <trkpt lat="42.6228270493447780609130859375" lon="19.88457421772181987762451171875">
        <ele>1855.4000244140625</ele>
        <time>2026-06-16T11:07:11.000Z</time>
        <extensions>
          <ns3:TrackPointExtension>
            <ns3:atemp>19.0</ns3:atemp>
          </ns3:TrackPointExtension>
        </extensions>
      </trkpt>
      <trkpt lat="42.622879855334758758544921875" lon="19.8845779895782470703125">
        <ele>1854.5999755859375</ele>
        <time>2026-06-16T11:07:12.000Z</time>
        <extensions>
          <ns3:TrackPointExtension>
            <ns3:atemp>19.0</ns3:atemp>
          </ns3:TrackPointExtension>
        </extensions>
      </trkpt>
      <trkpt lat="42.6229477487504482269287109375" lon="19.88458712585270404815673828125">
        <ele>1853.5999755859375</ele>
        <time>2026-06-16T11:07:13.000Z</time>
        <extensions>
          <ns3:TrackPointExtension>
            <ns3:atemp>19.0</ns3:atemp>
          </ns3:TrackPointExtension>
        </extensions>
      </trkpt>
      <trkpt lat="42.62302343733608722686767578125" lon="19.8845912329852581024169921875">
        <ele>1852.5999755859375</ele>
        <time>2026-06-16T11:07:14.000Z</time>
        <extensions>
          <ns3:TrackPointExtension>
            <ns3:atemp>19.0</ns3:atemp>
          </ns3:TrackPointExtension>
        </extensions>
      </trkpt>
      <trkpt lat="42.62310356833040714263916015625" lon="19.8846046440303325653076171875">
        <ele>1851.5999755859375</ele>
        <time>2026-06-16T11:07:15.000Z</time>
        <extensions>
          <ns3:TrackPointExtension>
            <ns3:atemp>19.0</ns3:atemp>
          </ns3:TrackPointExtension>
        </extensions>
      </trkpt>
      <trkpt lat="42.62318872846662998199462890625" lon="19.8845996148884296417236328125">
        <ele>1850.5999755859375</ele>
        <time>2026-06-16T11:07:16.000Z</time>
        <extensions>
          <ns3:TrackPointExtension>
            <ns3:atemp>19.0</ns3:atemp>
          </ns3:TrackPointExtension>
        </extensions>
      </trkpt>
      <trkpt lat="42.62327321805059909820556640625" lon="19.88458226434886455535888671875">
        <ele>1849.5999755859375</ele>
        <time>2026-06-16T11:07:17.000Z</time>
        <extensions>
          <ns3:TrackPointExtension>
            <ns3:atemp>19.0</ns3:atemp>
          </ns3:TrackPointExtension>
        </extensions>
      </trkpt>
      <trkpt lat="42.623357288539409637451171875" lon="19.884577654302120208740234375">
        <ele>1848.4000244140625</ele>
        <time>2026-06-16T11:07:18.000Z</time>
        <extensions>
          <ns3:TrackPointExtension>
            <ns3:atemp>19.0</ns3:atemp>
          </ns3:TrackPointExtension>
        </extensions>
      </trkpt>
      <trkpt lat="42.62342677451670169830322265625" lon="19.88457270897924900054931640625">
        <ele>1847.199951171875</ele>
        <time>2026-06-16T11:07:19.000Z</time>
        <extensions>
          <ns3:TrackPointExtension>
            <ns3:atemp>19.0</ns3:atemp>
          </ns3:TrackPointExtension>
        </extensions>
      </trkpt>
      <trkpt lat="42.62349399738013744354248046875" lon="19.8846034705638885498046875">
        <ele>1845.800048828125</ele>
        <time>2026-06-16T11:07:20.000Z</time>
        <extensions>
          <ns3:TrackPointExtension>
            <ns3:atemp>19.0</ns3:atemp>
          </ns3:TrackPointExtension>
        </extensions>
      </trkpt>
      <trkpt lat="42.62355652637779712677001953125" lon="19.8846329748630523681640625">
        <ele>1845</ele>
        <time>2026-06-16T11:07:21.000Z</time>
        <extensions>
          <ns3:TrackPointExtension>
            <ns3:atemp>19.0</ns3:atemp>
          </ns3:TrackPointExtension>
        </extensions>
      </trkpt>
      <trkpt lat="42.6236151158809661865234375" lon="19.88465367816388607025146484375">
        <ele>1844.199951171875</ele>
        <time>2026-06-16T11:07:22.000Z</time>
        <extensions>
          <ns3:TrackPointExtension>
            <ns3:atemp>19.0</ns3:atemp>
          </ns3:TrackPointExtension>
        </extensions>
      </trkpt>
      <trkpt lat="42.6236649043858051300048828125" lon="19.8846512474119663238525390625">
        <ele>1843.199951171875</ele>
        <time>2026-06-16T11:07:23.000Z</time>
        <extensions>
          <ns3:TrackPointExtension>
            <ns3:atemp>19.0</ns3:atemp>
          </ns3:TrackPointExtension>
        </extensions>
      </trkpt>
      <trkpt lat="42.62371360324323177337646484375" lon="19.88462450914084911346435546875">
        <ele>1842.199951171875</ele>
        <time>2026-06-16T11:07:24.000Z</time>
        <extensions>
          <ns3:TrackPointExtension>
            <ns3:atemp>19.0</ns3:atemp>
          </ns3:TrackPointExtension>
        </extensions>
      </trkpt>
      <trkpt lat="42.62376205064356327056884765625" lon="19.884581677615642547607421875">
        <ele>1841.199951171875</ele>
        <time>2026-06-16T11:07:25.000Z</time>
        <extensions>
          <ns3:TrackPointExtension>
            <ns3:atemp>19.0</ns3:atemp>
          </ns3:TrackPointExtension>
        </extensions>
      </trkpt>
      <trkpt lat="42.6238151080906391143798828125" lon="19.8845499940216541290283203125">
        <ele>1839.800048828125</ele>
        <time>2026-06-16T11:07:26.000Z</time>
        <extensions>
          <ns3:TrackPointExtension>
            <ns3:atemp>19.0</ns3:atemp>
          </ns3:TrackPointExtension>
        </extensions>
      </trkpt>
      <trkpt lat="42.62387554161250591278076171875" lon="19.884538762271404266357421875">
        <ele>1838.800048828125</ele>
        <time>2026-06-16T11:07:27.000Z</time>
        <extensions>
          <ns3:TrackPointExtension>
            <ns3:atemp>19.0</ns3:atemp>
          </ns3:TrackPointExtension>
        </extensions>
      </trkpt>
      <trkpt lat="42.6239398308098316192626953125" lon="19.88454689271748065948486328125">
        <ele>1837.4000244140625</ele>
        <time>2026-06-16T11:07:28.000Z</time>
        <extensions>
          <ns3:TrackPointExtension>
            <ns3:atemp>19.0</ns3:atemp>
          </ns3:TrackPointExtension>
        </extensions>
      </trkpt>
      <trkpt lat="42.6240109093487262725830078125" lon="19.88456189632415771484375">
        <ele>1836</ele>
        <time>2026-06-16T11:07:29.000Z</time>
        <extensions>
          <ns3:TrackPointExtension>
            <ns3:atemp>19.0</ns3:atemp>
          </ns3:TrackPointExtension>
        </extensions>
      </trkpt>
      <trkpt lat="42.624086178839206695556640625" lon="19.88457388244569301605224609375">
        <ele>1834.800048828125</ele>
        <time>2026-06-16T11:07:30.000Z</time>
        <extensions>
          <ns3:TrackPointExtension>
            <ns3:atemp>19.0</ns3:atemp>
          </ns3:TrackPointExtension>
        </extensions>
      </trkpt>
      <trkpt lat="42.62416488490998744964599609375" lon="19.884581677615642547607421875">
        <ele>1833.4000244140625</ele>
        <time>2026-06-16T11:07:31.000Z</time>
        <extensions>
          <ns3:TrackPointExtension>
            <ns3:atemp>19.0</ns3:atemp>
          </ns3:TrackPointExtension>
        </extensions>
      </trkpt>
      <trkpt lat="42.62425121851265430450439453125" lon="19.8845778219401836395263671875">
        <ele>1831.199951171875</ele>
        <time>2026-06-16T11:07:32.000Z</time>
        <extensions>
          <ns3:TrackPointExtension>
            <ns3:atemp>19.0</ns3:atemp>
          </ns3:TrackPointExtension>
        </extensions>
      </trkpt>
      <trkpt lat="42.62433202005922794342041015625" lon="19.8845660872757434844970703125">
        <ele>1829.800048828125</ele>
        <time>2026-06-16T11:07:33.000Z</time>
        <extensions>
          <ns3:TrackPointExtension>
            <ns3:atemp>19.0</ns3:atemp>
          </ns3:TrackPointExtension>
        </extensions>
      </trkpt>
      <trkpt lat="42.62441734783351421356201171875" lon="19.8845659196376800537109375">
        <ele>1828.199951171875</ele>
        <time>2026-06-16T11:07:34.000Z</time>
        <extensions>
          <ns3:TrackPointExtension>
            <ns3:atemp>19.0</ns3:atemp>
          </ns3:TrackPointExtension>
        </extensions>
      </trkpt>
      <trkpt lat="42.624502591788768768310546875" lon="19.88459450192749500274658203125">
        <ele>1826.5999755859375</ele>
        <time>2026-06-16T11:07:35.000Z</time>
        <extensions>
          <ns3:TrackPointExtension>
            <ns3:atemp>19.0</ns3:atemp>
          </ns3:TrackPointExtension>
        </extensions>
      </trkpt>
      <trkpt lat="42.6245731674134731292724609375" lon="19.8846257664263248443603515625">
        <ele>1825.5999755859375</ele>
        <time>2026-06-16T11:07:36.000Z</time>
        <extensions>
          <ns3:TrackPointExtension>
            <ns3:atemp>19.0</ns3:atemp>
          </ns3:TrackPointExtension>
        </extensions>
      </trkpt>
      <trkpt lat="42.62462832033634185791015625" lon="19.88465384580194950103759765625">
        <ele>1824.4000244140625</ele>
        <time>2026-06-16T11:07:37.000Z</time>
        <extensions>
          <ns3:TrackPointExtension>
            <ns3:atemp>19.0</ns3:atemp>
          </ns3:TrackPointExtension>
        </extensions>
      </trkpt>
      <trkpt lat="42.6246623508632183074951171875" lon="19.88467530347406864166259765625">
        <ele>1823</ele>
        <time>2026-06-16T11:07:38.000Z</time>
        <extensions>
          <ns3:TrackPointExtension>
            <ns3:atemp>19.0</ns3:atemp>
          </ns3:TrackPointExtension>
        </extensions>
      </trkpt>
      <trkpt lat="42.62467064894735813140869140625" lon="19.8846924863755702972412109375">
        <ele>1822.4000244140625</ele>
        <time>2026-06-16T11:07:39.000Z</time>
        <extensions>
          <ns3:TrackPointExtension>
            <ns3:atemp>19.0</ns3:atemp>
          </ns3:TrackPointExtension>
        </extensions>
      </trkpt>
      <trkpt lat="42.62466763146221637725830078125" lon="19.88469944335520267486572265625">
        <ele>1821.800048828125</ele>
        <time>2026-06-16T11:07:40.000Z</time>
        <extensions>
          <ns3:TrackPointExtension>
            <ns3:atemp>19.0</ns3:atemp>
          </ns3:TrackPointExtension>
        </extensions>
      </trkpt>
      <trkpt lat="42.6246660389006137847900390625" lon="19.88469994626939296722412109375">
        <ele>1821.5999755859375</ele>
        <time>2026-06-16T11:07:41.000Z</time>
        <extensions>
          <ns3:TrackPointExtension>
            <ns3:atemp>19.0</ns3:atemp>
          </ns3:TrackPointExtension>
        </extensions>
      </trkpt>
      <trkpt lat="42.6246660389006137847900390625" lon="19.8847000300884246826171875">
        <ele>1821.199951171875</ele>
        <time>2026-06-16T11:07:42.000Z</time>
        <extensions>
          <ns3:TrackPointExtension>
            <ns3:atemp>19.0</ns3:atemp>
          </ns3:TrackPointExtension>
        </extensions>
      </trkpt>
      <trkpt lat="42.6246660389006137847900390625" lon="19.8847000300884246826171875">
        <ele>1821</ele>
        <time>2026-06-16T11:07:43.000Z</time>
        <extensions>
          <ns3:TrackPointExtension>
            <ns3:atemp>19.0</ns3:atemp>
          </ns3:TrackPointExtension>
        </extensions>
      </trkpt>
      <trkpt lat="42.6246660389006137847900390625" lon="19.8847000300884246826171875">
        <ele>1820.800048828125</ele>
        <time>2026-06-16T11:07:44.000Z</time>
        <extensions>
          <ns3:TrackPointExtension>
            <ns3:atemp>18.0</ns3:atemp>
          </ns3:TrackPointExtension>
        </extensions>
      </trkpt>
      <trkpt lat="42.6246660389006137847900390625" lon="19.8847000300884246826171875">
        <ele>1820.5999755859375</ele>
        <time>2026-06-16T11:07:45.000Z</time>
        <extensions>
          <ns3:TrackPointExtension>
            <ns3:atemp>18.0</ns3:atemp>
          </ns3:TrackPointExtension>
        </extensions>
      </trkpt>
      <trkpt lat="42.6246660389006137847900390625" lon="19.8847000300884246826171875">
        <ele>1820.4000244140625</ele>
        <time>2026-06-16T11:07:46.000Z</time>
        <extensions>
          <ns3:TrackPointExtension>
            <ns3:atemp>18.0</ns3:atemp>
          </ns3:TrackPointExtension>
        </extensions>
      </trkpt>
      <trkpt lat="42.6246660389006137847900390625" lon="19.8847000300884246826171875">
        <ele>1820.199951171875</ele>
        <time>2026-06-16T11:07:47.000Z</time>
        <extensions>
          <ns3:TrackPointExtension>
            <ns3:atemp>18.0</ns3:atemp>
          </ns3:TrackPointExtension>
        </extensions>
      </trkpt>
      <trkpt lat="42.6246660389006137847900390625" lon="19.8847000300884246826171875">
        <ele>1820</ele>
        <time>2026-06-16T11:07:48.000Z</time>
        <extensions>
          <ns3:TrackPointExtension>
            <ns3:atemp>18.0</ns3:atemp>
          </ns3:TrackPointExtension>
        </extensions>
      </trkpt>
      <trkpt lat="42.6246660389006137847900390625" lon="19.8847000300884246826171875">
        <ele>1820</ele>
        <time>2026-06-16T11:07:49.000Z</time>
        <extensions>
          <ns3:TrackPointExtension>
            <ns3:atemp>18.0</ns3:atemp>
          </ns3:TrackPointExtension>
        </extensions>
      </trkpt>
      <trkpt lat="42.6246660389006137847900390625" lon="19.8847000300884246826171875">
        <ele>1819.800048828125</ele>
        <time>2026-06-16T11:07:50.000Z</time>
        <extensions>
          <ns3:TrackPointExtension>
            <ns3:atemp>19.0</ns3:atemp>
          </ns3:TrackPointExtension>
        </extensions>
      </trkpt>
      <trkpt lat="42.6246660389006137847900390625" lon="19.8847000300884246826171875">
        <ele>1819.5999755859375</ele>
        <time>2026-06-16T11:07:51.000Z</time>
        <extensions>
          <ns3:TrackPointExtension>
            <ns3:atemp>19.0</ns3:atemp>
          </ns3:TrackPointExtension>
        </extensions>
      </trkpt>
      <trkpt lat="42.6246660389006137847900390625" lon="19.8847000300884246826171875">
        <ele>1819.5999755859375</ele>
        <time>2026-06-16T11:07:52.000Z</time>
        <extensions>
          <ns3:TrackPointExtension>
            <ns3:atemp>19.0</ns3:atemp>
          </ns3:TrackPointExtension>
        </extensions>
      </trkpt>
      <trkpt lat="42.6246660389006137847900390625" lon="19.8847000300884246826171875">
        <ele>1819.5999755859375</ele>
        <time>2026-06-16T11:07:53.000Z</time>
        <extensions>
          <ns3:TrackPointExtension>
            <ns3:atemp>18.0</ns3:atemp>
          </ns3:TrackPointExtension>
        </extensions>
      </trkpt>
      <trkpt lat="42.6246660389006137847900390625" lon="19.8847000300884246826171875">
        <ele>1819.4000244140625</ele>
        <time>2026-06-16T11:07:54.000Z</time>
        <extensions>
          <ns3:TrackPointExtension>
            <ns3:atemp>18.0</ns3:atemp>
          </ns3:TrackPointExtension>
        </extensions>
      </trkpt>
      <trkpt lat="42.6246660389006137847900390625" lon="19.8847000300884246826171875">
        <ele>1819.4000244140625</ele>
        <time>2026-06-16T11:07:55.000Z</time>
        <extensions>
          <ns3:TrackPointExtension>
            <ns3:atemp>18.0</ns3:atemp>
          </ns3:TrackPointExtension>
        </extensions>
      </trkpt>
      <trkpt lat="42.6246660389006137847900390625" lon="19.8847000300884246826171875">
        <ele>1819.4000244140625</ele>
        <time>2026-06-16T11:07:56.000Z</time>
        <extensions>
          <ns3:TrackPointExtension>
            <ns3:atemp>19.0</ns3:atemp>
          </ns3:TrackPointExtension>
        </extensions>
      </trkpt>
      <trkpt lat="42.6246660389006137847900390625" lon="19.8847000300884246826171875">
        <ele>1819.199951171875</ele>
        <time>2026-06-16T11:07:57.000Z</time>
        <extensions>
          <ns3:TrackPointExtension>
            <ns3:atemp>19.0</ns3:atemp>
          </ns3:TrackPointExtension>
        </extensions>
      </trkpt>
      <trkpt lat="42.6246660389006137847900390625" lon="19.8847000300884246826171875">
        <ele>1819.199951171875</ele>
        <time>2026-06-16T11:07:58.000Z</time>
        <extensions>
          <ns3:TrackPointExtension>
            <ns3:atemp>19.0</ns3:atemp>
          </ns3:TrackPointExtension>
        </extensions>
      </trkpt>
      <trkpt lat="42.6246660389006137847900390625" lon="19.8847000300884246826171875">
        <ele>1819.199951171875</ele>
        <time>2026-06-16T11:07:59.000Z</time>
        <extensions>
          <ns3:TrackPointExtension>
            <ns3:atemp>19.0</ns3:atemp>
          </ns3:TrackPointExtension>
        </extensions>
      </trkpt>
      <trkpt lat="42.6246660389006137847900390625" lon="19.8847000300884246826171875">
        <ele>1819</ele>
        <time>2026-06-16T11:08:00.000Z</time>
        <extensions>
          <ns3:TrackPointExtension>
            <ns3:atemp>19.0</ns3:atemp>
          </ns3:TrackPointExtension>
        </extensions>
      </trkpt>
      <trkpt lat="42.6246660389006137847900390625" lon="19.8847000300884246826171875">
        <ele>1819</ele>
        <time>2026-06-16T11:08:01.000Z</time>
        <extensions>
          <ns3:TrackPointExtension>
            <ns3:atemp>18.0</ns3:atemp>
          </ns3:TrackPointExtension>
        </extensions>
      </trkpt>
      <trkpt lat="42.6246660389006137847900390625" lon="19.8847000300884246826171875">
        <ele>1819</ele>
        <time>2026-06-16T11:08:02.000Z</time>
        <extensions>
          <ns3:TrackPointExtension>
            <ns3:atemp>18.0</ns3:atemp>
          </ns3:TrackPointExtension>
        </extensions>
      </trkpt>
      <trkpt lat="42.6246660389006137847900390625" lon="19.8847000300884246826171875">
        <ele>1818.800048828125</ele>
        <time>2026-06-16T11:08:03.000Z</time>
        <extensions>
          <ns3:TrackPointExtension>
            <ns3:atemp>18.0</ns3:atemp>
          </ns3:TrackPointExtension>
        </extensions>
      </trkpt>
      <trkpt lat="42.6246660389006137847900390625" lon="19.8847000300884246826171875">
        <ele>1818.800048828125</ele>
        <time>2026-06-16T11:08:04.000Z</time>
        <extensions>
          <ns3:TrackPointExtension>
            <ns3:atemp>18.0</ns3:atemp>
          </ns3:TrackPointExtension>
        </extensions>
      </trkpt>
      <trkpt lat="42.6246660389006137847900390625" lon="19.8847000300884246826171875">
        <ele>1818.800048828125</ele>
        <time>2026-06-16T11:08:05.000Z</time>
        <extensions>
          <ns3:TrackPointExtension>
            <ns3:atemp>19.0</ns3:atemp>
          </ns3:TrackPointExtension>
        </extensions>
      </trkpt>
      <trkpt lat="42.6246660389006137847900390625" lon="19.8847000300884246826171875">
        <ele>1818.800048828125</ele>
        <time>2026-06-16T11:08:06.000Z</time>
        <extensions>
          <ns3:TrackPointExtension>
            <ns3:atemp>18.0</ns3:atemp>
          </ns3:TrackPointExtension>
        </extensions>
      </trkpt>
      <trkpt lat="42.6246660389006137847900390625" lon="19.8847000300884246826171875">
        <ele>1818.5999755859375</ele>
        <time>2026-06-16T11:08:07.000Z</time>
        <extensions>
          <ns3:TrackPointExtension>
            <ns3:atemp>18.0</ns3:atemp>
          </ns3:TrackPointExtension>
        </extensions>
      </trkpt>
      <trkpt lat="42.6246660389006137847900390625" lon="19.8847000300884246826171875">
        <ele>1818.5999755859375</ele>
        <time>2026-06-16T11:08:08.000Z</time>
        <extensions>
          <ns3:TrackPointExtension>
            <ns3:atemp>19.0</ns3:atemp>
          </ns3:TrackPointExtension>
        </extensions>
      </trkpt>
      <trkpt lat="42.6246660389006137847900390625" lon="19.8847000300884246826171875">
        <ele>1818.5999755859375</ele>
        <time>2026-06-16T11:08:09.000Z</time>
        <extensions>
          <ns3:TrackPointExtension>
            <ns3:atemp>19.0</ns3:atemp>
          </ns3:TrackPointExtension>
        </extensions>
      </trkpt>
      <trkpt lat="42.6246660389006137847900390625" lon="19.8847000300884246826171875">
        <ele>1818.5999755859375</ele>
        <time>2026-06-16T11:08:10.000Z</time>
        <extensions>
          <ns3:TrackPointExtension>
            <ns3:atemp>18.0</ns3:atemp>
          </ns3:TrackPointExtension>
        </extensions>
      </trkpt>
      <trkpt lat="42.6246660389006137847900390625" lon="19.8847000300884246826171875">
        <ele>1818.4000244140625</ele>
        <time>2026-06-16T11:08:11.000Z</time>
        <extensions>
          <ns3:TrackPointExtension>
            <ns3:atemp>19.0</ns3:atemp>
          </ns3:TrackPointExtension>
        </extensions>
      </trkpt>
      <trkpt lat="42.6246660389006137847900390625" lon="19.8847000300884246826171875">
        <ele>1818.4000244140625</ele>
        <time>2026-06-16T11:08:12.000Z</time>
        <extensions>
          <ns3:TrackPointExtension>
            <ns3:atemp>18.0</ns3:atemp>
          </ns3:TrackPointExtension>
        </extensions>
      </trkpt>
      <trkpt lat="42.6246660389006137847900390625" lon="19.8847000300884246826171875">
        <ele>1818.4000244140625</ele>
        <time>2026-06-16T11:08:13.000Z</time>
        <extensions>
          <ns3:TrackPointExtension>
            <ns3:atemp>18.0</ns3:atemp>
          </ns3:TrackPointExtension>
        </extensions>
      </trkpt>
      <trkpt lat="42.6246660389006137847900390625" lon="19.8847000300884246826171875">
        <ele>1818.4000244140625</ele>
        <time>2026-06-16T11:08:14.000Z</time>
        <extensions>
          <ns3:TrackPointExtension>
            <ns3:atemp>18.0</ns3:atemp>
          </ns3:TrackPointExtension>
        </extensions>
      </trkpt>
      <trkpt lat="42.6246660389006137847900390625" lon="19.8847000300884246826171875">
        <ele>1818.4000244140625</ele>
        <time>2026-06-16T11:08:15.000Z</time>
        <extensions>
          <ns3:TrackPointExtension>
            <ns3:atemp>18.0</ns3:atemp>
          </ns3:TrackPointExtension>
        </extensions>
      </trkpt>
      <trkpt lat="42.6246660389006137847900390625" lon="19.8847000300884246826171875">
        <ele>1818.199951171875</ele>
        <time>2026-06-16T11:08:16.000Z</time>
        <extensions>
          <ns3:TrackPointExtension>
            <ns3:atemp>18.0</ns3:atemp>
          </ns3:TrackPointExtension>
        </extensions>
      </trkpt>
      <trkpt lat="42.6246660389006137847900390625" lon="19.8847000300884246826171875">
        <ele>1818.199951171875</ele>
        <time>2026-06-16T11:08:17.000Z</time>
        <extensions>
          <ns3:TrackPointExtension>
            <ns3:atemp>18.0</ns3:atemp>
          </ns3:TrackPointExtension>
        </extensions>
      </trkpt>
      <trkpt lat="42.6246660389006137847900390625" lon="19.8847000300884246826171875">
        <ele>1818.199951171875</ele>
        <time>2026-06-16T11:08:18.000Z</time>
        <extensions>
          <ns3:TrackPointExtension>
            <ns3:atemp>18.0</ns3:atemp>
          </ns3:TrackPointExtension>
        </extensions>
      </trkpt>
      <trkpt lat="42.6246660389006137847900390625" lon="19.8847000300884246826171875">
        <ele>1818.199951171875</ele>
        <time>2026-06-16T11:08:19.000Z</time>
        <extensions>
          <ns3:TrackPointExtension>
            <ns3:atemp>18.0</ns3:atemp>
          </ns3:TrackPointExtension>
        </extensions>
      </trkpt>
      <trkpt lat="42.6246660389006137847900390625" lon="19.8847000300884246826171875">
        <ele>1818.199951171875</ele>
        <time>2026-06-16T11:08:20.000Z</time>
        <extensions>
          <ns3:TrackPointExtension>
            <ns3:atemp>18.0</ns3:atemp>
          </ns3:TrackPointExtension>
        </extensions>
      </trkpt>
      <trkpt lat="42.6246660389006137847900390625" lon="19.8847000300884246826171875">
        <ele>1818</ele>
        <time>2026-06-16T11:08:21.000Z</time>
        <extensions>
          <ns3:TrackPointExtension>
            <ns3:atemp>18.0</ns3:atemp>
          </ns3:TrackPointExtension>
        </extensions>
      </trkpt>
      <trkpt lat="42.6246660389006137847900390625" lon="19.8847000300884246826171875">
        <ele>1818</ele>
        <time>2026-06-16T11:08:22.000Z</time>
        <extensions>
          <ns3:TrackPointExtension>
            <ns3:atemp>18.0</ns3:atemp>
          </ns3:TrackPointExtension>
        </extensions>
      </trkpt>
      <trkpt lat="42.6246660389006137847900390625" lon="19.8847000300884246826171875">
        <ele>1818</ele>
        <time>2026-06-16T11:08:23.000Z</time>
        <extensions>
          <ns3:TrackPointExtension>
            <ns3:atemp>18.0</ns3:atemp>
          </ns3:TrackPointExtension>
        </extensions>
      </trkpt>
      <trkpt lat="42.6246660389006137847900390625" lon="19.8847000300884246826171875">
        <ele>1818</ele>
        <time>2026-06-16T11:08:24.000Z</time>
        <extensions>
          <ns3:TrackPointExtension>
            <ns3:atemp>18.0</ns3:atemp>
          </ns3:TrackPointExtension>
        </extensions>
      </trkpt>
      <trkpt lat="42.6246660389006137847900390625" lon="19.8847000300884246826171875">
        <ele>1817.800048828125</ele>
        <time>2026-06-16T11:08:25.000Z</time>
        <extensions>
          <ns3:TrackPointExtension>
            <ns3:atemp>18.0</ns3:atemp>
          </ns3:TrackPointExtension>
        </extensions>
      </trkpt>
      <trkpt lat="42.6246660389006137847900390625" lon="19.8847000300884246826171875">
        <ele>1817.800048828125</ele>
        <time>2026-06-16T11:08:26.000Z</time>
        <extensions>
          <ns3:TrackPointExtension>
            <ns3:atemp>18.0</ns3:atemp>
          </ns3:TrackPointExtension>
        </extensions>
      </trkpt>
      <trkpt lat="42.6246660389006137847900390625" lon="19.8847000300884246826171875">
        <ele>1817.800048828125</ele>
        <time>2026-06-16T11:08:27.000Z</time>
        <extensions>
          <ns3:TrackPointExtension>
            <ns3:atemp>18.0</ns3:atemp>
          </ns3:TrackPointExtension>
        </extensions>
      </trkpt>
      <trkpt lat="42.6246660389006137847900390625" lon="19.8847000300884246826171875">
        <ele>1817.5999755859375</ele>
        <time>2026-06-16T11:08:28.000Z</time>
        <extensions>
          <ns3:TrackPointExtension>
            <ns3:atemp>18.0</ns3:atemp>
          </ns3:TrackPointExtension>
        </extensions>
      </trkpt>
      <trkpt lat="42.6246660389006137847900390625" lon="19.8847000300884246826171875">
        <ele>1817.5999755859375</ele>
        <time>2026-06-16T11:08:29.000Z</time>
        <extensions>
          <ns3:TrackPointExtension>
            <ns3:atemp>18.0</ns3:atemp>
          </ns3:TrackPointExtension>
        </extensions>
      </trkpt>
      <trkpt lat="42.6246660389006137847900390625" lon="19.8847000300884246826171875">
        <ele>1817.5999755859375</ele>
        <time>2026-06-16T11:08:30.000Z</time>
        <extensions>
          <ns3:TrackPointExtension>
            <ns3:atemp>18.0</ns3:atemp>
          </ns3:TrackPointExtension>
        </extensions>
      </trkpt>
      <trkpt lat="42.6246660389006137847900390625" lon="19.8847000300884246826171875">
        <ele>1817.5999755859375</ele>
        <time>2026-06-16T11:08:31.000Z</time>
        <extensions>
          <ns3:TrackPointExtension>
            <ns3:atemp>18.0</ns3:atemp>
          </ns3:TrackPointExtension>
        </extensions>
      </trkpt>
      <trkpt lat="42.6246660389006137847900390625" lon="19.8847000300884246826171875">
        <ele>1817.5999755859375</ele>
        <time>2026-06-16T11:08:32.000Z</time>
        <extensions>
          <ns3:TrackPointExtension>
            <ns3:atemp>18.0</ns3:atemp>
          </ns3:TrackPointExtension>
        </extensions>
      </trkpt>
      <trkpt lat="42.6246660389006137847900390625" lon="19.8847000300884246826171875">
        <ele>1817.5999755859375</ele>
        <time>2026-06-16T11:08:33.000Z</time>
        <extensions>
          <ns3:TrackPointExtension>
            <ns3:atemp>19.0</ns3:atemp>
          </ns3:TrackPointExtension>
        </extensions>
      </trkpt>
      <trkpt lat="42.6246660389006137847900390625" lon="19.8847000300884246826171875">
        <ele>1817.4000244140625</ele>
        <time>2026-06-16T11:08:34.000Z</time>
        <extensions>
          <ns3:TrackPointExtension>
            <ns3:atemp>18.0</ns3:atemp>
          </ns3:TrackPointExtension>
        </extensions>
      </trkpt>
      <trkpt lat="42.6246660389006137847900390625" lon="19.8847000300884246826171875">
        <ele>1817.4000244140625</ele>
        <time>2026-06-16T11:08:35.000Z</time>
        <extensions>
          <ns3:TrackPointExtension>
            <ns3:atemp>18.0</ns3:atemp>
          </ns3:TrackPointExtension>
        </extensions>
      </trkpt>
      <trkpt lat="42.6246660389006137847900390625" lon="19.8847000300884246826171875">
        <ele>1817.4000244140625</ele>
        <time>2026-06-16T11:08:36.000Z</time>
        <extensions>
          <ns3:TrackPointExtension>
            <ns3:atemp>18.0</ns3:atemp>
          </ns3:TrackPointExtension>
        </extensions>
      </trkpt>
      <trkpt lat="42.6246660389006137847900390625" lon="19.8847000300884246826171875">
        <ele>1817.4000244140625</ele>
        <time>2026-06-16T11:08:37.000Z</time>
        <extensions>
          <ns3:TrackPointExtension>
            <ns3:atemp>18.0</ns3:atemp>
          </ns3:TrackPointExtension>
        </extensions>
      </trkpt>
      <trkpt lat="42.6246660389006137847900390625" lon="19.8847000300884246826171875">
        <ele>1817.4000244140625</ele>
        <time>2026-06-16T11:08:38.000Z</time>
        <extensions>
          <ns3:TrackPointExtension>
            <ns3:atemp>18.0</ns3:atemp>
          </ns3:TrackPointExtension>
        </extensions>
      </trkpt>
      <trkpt lat="42.6246660389006137847900390625" lon="19.8847000300884246826171875">
        <ele>1817.4000244140625</ele>
        <time>2026-06-16T11:08:39.000Z</time>
        <extensions>
          <ns3:TrackPointExtension>
            <ns3:atemp>18.0</ns3:atemp>
          </ns3:TrackPointExtension>
        </extensions>
      </trkpt>
      <trkpt lat="42.6246660389006137847900390625" lon="19.8847000300884246826171875">
        <ele>1817.4000244140625</ele>
        <time>2026-06-16T11:08:40.000Z</time>
        <extensions>
          <ns3:TrackPointExtension>
            <ns3:atemp>18.0</ns3:atemp>
          </ns3:TrackPointExtension>
        </extensions>
      </trkpt>
      <trkpt lat="42.6246660389006137847900390625" lon="19.8847000300884246826171875">
        <ele>1817.199951171875</ele>
        <time>2026-06-16T11:08:41.000Z</time>
        <extensions>
          <ns3:TrackPointExtension>
            <ns3:atemp>18.0</ns3:atemp>
          </ns3:TrackPointExtension>
        </extensions>
      </trkpt>
      <trkpt lat="42.6246660389006137847900390625" lon="19.8847000300884246826171875">
        <ele>1817.199951171875</ele>
        <time>2026-06-16T11:08:42.000Z</time>
        <extensions>
          <ns3:TrackPointExtension>
            <ns3:atemp>18.0</ns3:atemp>
          </ns3:TrackPointExtension>
        </extensions>
      </trkpt>
      <trkpt lat="42.6246660389006137847900390625" lon="19.8847000300884246826171875">
        <ele>1817.199951171875</ele>
        <time>2026-06-16T11:08:43.000Z</time>
        <extensions>
          <ns3:TrackPointExtension>
            <ns3:atemp>18.0</ns3:atemp>
          </ns3:TrackPointExtension>
        </extensions>
      </trkpt>
      <trkpt lat="42.6246660389006137847900390625" lon="19.8847000300884246826171875">
        <ele>1817.199951171875</ele>
        <time>2026-06-16T11:08:44.000Z</time>
        <extensions>
          <ns3:TrackPointExtension>
            <ns3:atemp>18.0</ns3:atemp>
          </ns3:TrackPointExtension>
        </extensions>
      </trkpt>
      <trkpt lat="42.6246660389006137847900390625" lon="19.8847000300884246826171875">
        <ele>1817.199951171875</ele>
        <time>2026-06-16T11:08:45.000Z</time>
        <extensions>
          <ns3:TrackPointExtension>
            <ns3:atemp>18.0</ns3:atemp>
          </ns3:TrackPointExtension>
        </extensions>
      </trkpt>
      <trkpt lat="42.6246660389006137847900390625" lon="19.8847000300884246826171875">
        <ele>1817.199951171875</ele>
        <time>2026-06-16T11:08:46.000Z</time>
        <extensions>
          <ns3:TrackPointExtension>
            <ns3:atemp>18.0</ns3:atemp>
          </ns3:TrackPointExtension>
        </extensions>
      </trkpt>
      <trkpt lat="42.6246660389006137847900390625" lon="19.8847000300884246826171875">
        <ele>1817</ele>
        <time>2026-06-16T11:08:47.000Z</time>
        <extensions>
          <ns3:TrackPointExtension>
            <ns3:atemp>18.0</ns3:atemp>
          </ns3:TrackPointExtension>
        </extensions>
      </trkpt>
      <trkpt lat="42.6246660389006137847900390625" lon="19.8847000300884246826171875">
        <ele>1817</ele>
        <time>2026-06-16T11:08:48.000Z</time>
        <extensions>
          <ns3:TrackPointExtension>
            <ns3:atemp>18.0</ns3:atemp>
          </ns3:TrackPointExtension>
        </extensions>
      </trkpt>
      <trkpt lat="42.6246660389006137847900390625" lon="19.8847000300884246826171875">
        <ele>1817</ele>
        <time>2026-06-16T11:08:49.000Z</time>
        <extensions>
          <ns3:TrackPointExtension>
            <ns3:atemp>18.0</ns3:atemp>
          </ns3:TrackPointExtension>
        </extensions>
      </trkpt>
      <trkpt lat="42.6246660389006137847900390625" lon="19.8847000300884246826171875">
        <ele>1817</ele>
        <time>2026-06-16T11:08:50.000Z</time>
        <extensions>
          <ns3:TrackPointExtension>
            <ns3:atemp>18.0</ns3:atemp>
          </ns3:TrackPointExtension>
        </extensions>
      </trkpt>
      <trkpt lat="42.6246660389006137847900390625" lon="19.8847000300884246826171875">
        <ele>1817</ele>
        <time>2026-06-16T11:08:51.000Z</time>
        <extensions>
          <ns3:TrackPointExtension>
            <ns3:atemp>18.0</ns3:atemp>
          </ns3:TrackPointExtension>
        </extensions>
      </trkpt>
      <trkpt lat="42.6246660389006137847900390625" lon="19.8847000300884246826171875">
        <ele>1817</ele>
        <time>2026-06-16T11:08:52.000Z</time>
        <extensions>
          <ns3:TrackPointExtension>
            <ns3:atemp>18.0</ns3:atemp>
          </ns3:TrackPointExtension>
        </extensions>
      </trkpt>
      <trkpt lat="42.6246660389006137847900390625" lon="19.8847000300884246826171875">
        <ele>1817</ele>
        <time>2026-06-16T11:08:53.000Z</time>
        <extensions>
          <ns3:TrackPointExtension>
            <ns3:atemp>18.0</ns3:atemp>
          </ns3:TrackPointExtension>
        </extensions>
      </trkpt>
      <trkpt lat="42.6246660389006137847900390625" lon="19.8847000300884246826171875">
        <ele>1817</ele>
        <time>2026-06-16T11:08:54.000Z</time>
        <extensions>
          <ns3:TrackPointExtension>
            <ns3:atemp>18.0</ns3:atemp>
          </ns3:TrackPointExtension>
        </extensions>
      </trkpt>
      <trkpt lat="42.6246660389006137847900390625" lon="19.8847000300884246826171875">
        <ele>1817</ele>
        <time>2026-06-16T11:08:55.000Z</time>
        <extensions>
          <ns3:TrackPointExtension>
            <ns3:atemp>18.0</ns3:atemp>
          </ns3:TrackPointExtension>
        </extensions>
      </trkpt>
      <trkpt lat="42.6246660389006137847900390625" lon="19.8847000300884246826171875">
        <ele>1817</ele>
        <time>2026-06-16T11:08:56.000Z</time>
        <extensions>
          <ns3:TrackPointExtension>
            <ns3:atemp>18.0</ns3:atemp>
          </ns3:TrackPointExtension>
        </extensions>
      </trkpt>
      <trkpt lat="42.6246660389006137847900390625" lon="19.8847000300884246826171875">
        <ele>1816.800048828125</ele>
        <time>2026-06-16T11:08:57.000Z</time>
        <extensions>
          <ns3:TrackPointExtension>
            <ns3:atemp>18.0</ns3:atemp>
          </ns3:TrackPointExtension>
        </extensions>
      </trkpt>
      <trkpt lat="42.6246660389006137847900390625" lon="19.8847000300884246826171875">
        <ele>1816.800048828125</ele>
        <time>2026-06-16T11:08:58.000Z</time>
        <extensions>
          <ns3:TrackPointExtension>
            <ns3:atemp>18.0</ns3:atemp>
          </ns3:TrackPointExtension>
        </extensions>
      </trkpt>
      <trkpt lat="42.6246660389006137847900390625" lon="19.8847000300884246826171875">
        <ele>1816.800048828125</ele>
        <time>2026-06-16T11:08:59.000Z</time>
        <extensions>
          <ns3:TrackPointExtension>
            <ns3:atemp>18.0</ns3:atemp>
          </ns3:TrackPointExtension>
        </extensions>
      </trkpt>
      <trkpt lat="42.6246660389006137847900390625" lon="19.8847000300884246826171875">
        <ele>1816.800048828125</ele>
        <time>2026-06-16T11:09:00.000Z</time>
        <extensions>
          <ns3:TrackPointExtension>
            <ns3:atemp>18.0</ns3:atemp>
          </ns3:TrackPointExtension>
        </extensions>
      </trkpt>
      <trkpt lat="42.6246660389006137847900390625" lon="19.8847000300884246826171875">
        <ele>1816.800048828125</ele>
        <time>2026-06-16T11:09:01.000Z</time>
        <extensions>
          <ns3:TrackPointExtension>
            <ns3:atemp>18.0</ns3:atemp>
          </ns3:TrackPointExtension>
        </extensions>
      </trkpt>
      <trkpt lat="42.6246660389006137847900390625" lon="19.8847000300884246826171875">
        <ele>1816.5999755859375</ele>
        <time>2026-06-16T11:09:02.000Z</time>
        <extensions>
          <ns3:TrackPointExtension>
            <ns3:atemp>18.0</ns3:atemp>
          </ns3:TrackPointExtension>
        </extensions>
      </trkpt>
      <trkpt lat="42.6246660389006137847900390625" lon="19.8847000300884246826171875">
        <ele>1816.5999755859375</ele>
        <time>2026-06-16T11:09:03.000Z</time>
        <extensions>
          <ns3:TrackPointExtension>
            <ns3:atemp>18.0</ns3:atemp>
          </ns3:TrackPointExtension>
        </extensions>
      </trkpt>
      <trkpt lat="42.6246660389006137847900390625" lon="19.8847000300884246826171875">
        <ele>1816.5999755859375</ele>
        <time>2026-06-16T11:09:04.000Z</time>
        <extensions>
          <ns3:TrackPointExtension>
            <ns3:atemp>18.0</ns3:atemp>
          </ns3:TrackPointExtension>
        </extensions>
      </trkpt>
      <trkpt lat="42.6246660389006137847900390625" lon="19.8847000300884246826171875">
        <ele>1816.5999755859375</ele>
        <time>2026-06-16T11:09:05.000Z</time>
        <extensions>
          <ns3:TrackPointExtension>
            <ns3:atemp>18.0</ns3:atemp>
          </ns3:TrackPointExtension>
        </extensions>
      </trkpt>
      <trkpt lat="42.6246660389006137847900390625" lon="19.8847000300884246826171875">
        <ele>1816.5999755859375</ele>
        <time>2026-06-16T11:09:06.000Z</time>
        <extensions>
          <ns3:TrackPointExtension>
            <ns3:atemp>18.0</ns3:atemp>
          </ns3:TrackPointExtension>
        </extensions>
      </trkpt>
      <trkpt lat="42.6246660389006137847900390625" lon="19.8847000300884246826171875">
        <ele>1816.5999755859375</ele>
        <time>2026-06-16T11:09:07.000Z</time>
        <extensions>
          <ns3:TrackPointExtension>
            <ns3:atemp>18.0</ns3:atemp>
          </ns3:TrackPointExtension>
        </extensions>
      </trkpt>
      <trkpt lat="42.6246660389006137847900390625" lon="19.8847000300884246826171875">
        <ele>1816.5999755859375</ele>
        <time>2026-06-16T11:09:08.000Z</time>
        <extensions>
          <ns3:TrackPointExtension>
            <ns3:atemp>18.0</ns3:atemp>
          </ns3:TrackPointExtension>
        </extensions>
      </trkpt>
      <trkpt lat="42.6246660389006137847900390625" lon="19.8847000300884246826171875">
        <ele>1816.4000244140625</ele>
        <time>2026-06-16T11:09:09.000Z</time>
        <extensions>
          <ns3:TrackPointExtension>
            <ns3:atemp>18.0</ns3:atemp>
          </ns3:TrackPointExtension>
        </extensions>
      </trkpt>
      <trkpt lat="42.6246660389006137847900390625" lon="19.8847000300884246826171875">
        <ele>1816.4000244140625</ele>
        <time>2026-06-16T11:09:10.000Z</time>
        <extensions>
          <ns3:TrackPointExtension>
            <ns3:atemp>19.0</ns3:atemp>
          </ns3:TrackPointExtension>
        </extensions>
      </trkpt>
      <trkpt lat="42.6246660389006137847900390625" lon="19.8847000300884246826171875">
        <ele>1816.4000244140625</ele>
        <time>2026-06-16T11:09:11.000Z</time>
        <extensions>
          <ns3:TrackPointExtension>
            <ns3:atemp>19.0</ns3:atemp>
          </ns3:TrackPointExtension>
        </extensions>
      </trkpt>
      <trkpt lat="42.6246660389006137847900390625" lon="19.8847000300884246826171875">
        <ele>1816.4000244140625</ele>
        <time>2026-06-16T11:09:12.000Z</time>
        <extensions>
          <ns3:TrackPointExtension>
            <ns3:atemp>19.0</ns3:atemp>
          </ns3:TrackPointExtension>
        </extensions>
      </trkpt>
      <trkpt lat="42.6246660389006137847900390625" lon="19.8847000300884246826171875">
        <ele>1816.4000244140625</ele>
        <time>2026-06-16T11:09:13.000Z</time>
        <extensions>
          <ns3:TrackPointExtension>
            <ns3:atemp>18.0</ns3:atemp>
          </ns3:TrackPointExtension>
        </extensions>
      </trkpt>
      <trkpt lat="42.6246660389006137847900390625" lon="19.8847000300884246826171875">
        <ele>1816.4000244140625</ele>
        <time>2026-06-16T11:09:14.000Z</time>
        <extensions>
          <ns3:TrackPointExtension>
            <ns3:atemp>18.0</ns3:atemp>
          </ns3:TrackPointExtension>
        </extensions>
      </trkpt>
      <trkpt lat="42.6246660389006137847900390625" lon="19.8847000300884246826171875">
        <ele>1816.199951171875</ele>
        <time>2026-06-16T11:09:15.000Z</time>
        <extensions>
          <ns3:TrackPointExtension>
            <ns3:atemp>19.0</ns3:atemp>
          </ns3:TrackPointExtension>
        </extensions>
      </trkpt>
      <trkpt lat="42.6246660389006137847900390625" lon="19.8847000300884246826171875">
        <ele>1816.199951171875</ele>
        <time>2026-06-16T11:09:16.000Z</time>
        <extensions>
          <ns3:TrackPointExtension>
            <ns3:atemp>19.0</ns3:atemp>
          </ns3:TrackPointExtension>
        </extensions>
      </trkpt>
      <trkpt lat="42.6246660389006137847900390625" lon="19.8847000300884246826171875">
        <ele>1816.199951171875</ele>
        <time>2026-06-16T11:09:17.000Z</time>
        <extensions>
          <ns3:TrackPointExtension>
            <ns3:atemp>18.0</ns3:atemp>
          </ns3:TrackPointExtension>
        </extensions>
      </trkpt>
      <trkpt lat="42.6246660389006137847900390625" lon="19.8847000300884246826171875">
        <ele>1816</ele>
        <time>2026-06-16T11:09:18.000Z</time>
        <extensions>
          <ns3:TrackPointExtension>
            <ns3:atemp>18.0</ns3:atemp>
          </ns3:TrackPointExtension>
        </extensions>
      </trkpt>
      <trkpt lat="42.6246660389006137847900390625" lon="19.8847000300884246826171875">
        <ele>1816</ele>
        <time>2026-06-16T11:09:19.000Z</time>
        <extensions>
          <ns3:TrackPointExtension>
            <ns3:atemp>19.0</ns3:atemp>
          </ns3:TrackPointExtension>
        </extensions>
      </trkpt>
      <trkpt lat="42.6246660389006137847900390625" lon="19.8847000300884246826171875">
        <ele>1816</ele>
        <time>2026-06-16T11:09:20.000Z</time>
        <extensions>
          <ns3:TrackPointExtension>
            <ns3:atemp>19.0</ns3:atemp>
          </ns3:TrackPointExtension>
        </extensions>
      </trkpt>
      <trkpt lat="42.6246660389006137847900390625" lon="19.8847000300884246826171875">
        <ele>1815.800048828125</ele>
        <time>2026-06-16T11:09:21.000Z</time>
        <extensions>
          <ns3:TrackPointExtension>
            <ns3:atemp>19.0</ns3:atemp>
          </ns3:TrackPointExtension>
        </extensions>
      </trkpt>
      <trkpt lat="42.6246660389006137847900390625" lon="19.8847000300884246826171875">
        <ele>1815.800048828125</ele>
        <time>2026-06-16T11:09:22.000Z</time>
        <extensions>
          <ns3:TrackPointExtension>
            <ns3:atemp>19.0</ns3:atemp>
          </ns3:TrackPointExtension>
        </extensions>
      </trkpt>
      <trkpt lat="42.6246660389006137847900390625" lon="19.8847000300884246826171875">
        <ele>1815.5999755859375</ele>
        <time>2026-06-16T11:09:23.000Z</time>
        <extensions>
          <ns3:TrackPointExtension>
            <ns3:atemp>18.0</ns3:atemp>
          </ns3:TrackPointExtension>
        </extensions>
      </trkpt>
      <trkpt lat="42.6246660389006137847900390625" lon="19.8847000300884246826171875">
        <ele>1815.5999755859375</ele>
        <time>2026-06-16T11:09:24.000Z</time>
        <extensions>
          <ns3:TrackPointExtension>
            <ns3:atemp>19.0</ns3:atemp>
          </ns3:TrackPointExtension>
        </extensions>
      </trkpt>
      <trkpt lat="42.6246660389006137847900390625" lon="19.8847000300884246826171875">
        <ele>1815.4000244140625</ele>
        <time>2026-06-16T11:09:25.000Z</time>
        <extensions>
          <ns3:TrackPointExtension>
            <ns3:atemp>18.0</ns3:atemp>
          </ns3:TrackPointExtension>
        </extensions>
      </trkpt>
      <trkpt lat="42.6246660389006137847900390625" lon="19.8847000300884246826171875">
        <ele>1815.4000244140625</ele>
        <time>2026-06-16T11:09:26.000Z</time>
        <extensions>
          <ns3:TrackPointExtension>
            <ns3:atemp>18.0</ns3:atemp>
          </ns3:TrackPointExtension>
        </extensions>
      </trkpt>
      <trkpt lat="42.6246660389006137847900390625" lon="19.8847000300884246826171875">
        <ele>1815.199951171875</ele>
        <time>2026-06-16T11:09:27.000Z</time>
        <extensions>
          <ns3:TrackPointExtension>
            <ns3:atemp>18.0</ns3:atemp>
          </ns3:TrackPointExtension>
        </extensions>
      </trkpt>
      <trkpt lat="42.6246660389006137847900390625" lon="19.8847000300884246826171875">
        <ele>1815</ele>
        <time>2026-06-16T11:09:28.000Z</time>
        <extensions>
          <ns3:TrackPointExtension>
            <ns3:atemp>18.0</ns3:atemp>
          </ns3:TrackPointExtension>
        </extensions>
      </trkpt>
      <trkpt lat="42.6246660389006137847900390625" lon="19.8847000300884246826171875">
        <ele>1815</ele>
        <time>2026-06-16T11:09:29.000Z</time>
        <extensions>
          <ns3:TrackPointExtension>
            <ns3:atemp>18.0</ns3:atemp>
          </ns3:TrackPointExtension>
        </extensions>
      </trkpt>
      <trkpt lat="42.6246660389006137847900390625" lon="19.8847000300884246826171875">
        <ele>1814.800048828125</ele>
        <time>2026-06-16T11:09:30.000Z</time>
        <extensions>
          <ns3:TrackPointExtension>
            <ns3:atemp>18.0</ns3:atemp>
          </ns3:TrackPointExtension>
        </extensions>
      </trkpt>
      <trkpt lat="42.6246660389006137847900390625" lon="19.8847000300884246826171875">
        <ele>1814.800048828125</ele>
        <time>2026-06-16T11:09:31.000Z</time>
        <extensions>
          <ns3:TrackPointExtension>
            <ns3:atemp>18.0</ns3:atemp>
          </ns3:TrackPointExtension>
        </extensions>
      </trkpt>
      <trkpt lat="42.6246660389006137847900390625" lon="19.8847000300884246826171875">
        <ele>1814.5999755859375</ele>
        <time>2026-06-16T11:09:32.000Z</time>
        <extensions>
          <ns3:TrackPointExtension>
            <ns3:atemp>19.0</ns3:atemp>
          </ns3:TrackPointExtension>
        </extensions>
      </trkpt>
      <trkpt lat="42.6246660389006137847900390625" lon="19.8847000300884246826171875">
        <ele>1814.5999755859375</ele>
        <time>2026-06-16T11:09:33.000Z</time>
        <extensions>
          <ns3:TrackPointExtension>
            <ns3:atemp>19.0</ns3:atemp>
          </ns3:TrackPointExtension>
        </extensions>
      </trkpt>
      <trkpt lat="42.6246660389006137847900390625" lon="19.8847000300884246826171875">
        <ele>1814.5999755859375</ele>
        <time>2026-06-16T11:09:34.000Z</time>
        <extensions>
          <ns3:TrackPointExtension>
            <ns3:atemp>19.0</ns3:atemp>
          </ns3:TrackPointExtension>
        </extensions>
      </trkpt>
      <trkpt lat="42.6246660389006137847900390625" lon="19.8847000300884246826171875">
        <ele>1814.4000244140625</ele>
        <time>2026-06-16T11:09:35.000Z</time>
        <extensions>
          <ns3:TrackPointExtension>
            <ns3:atemp>19.0</ns3:atemp>
          </ns3:TrackPointExtension>
        </extensions>
      </trkpt>
      <trkpt lat="42.6246660389006137847900390625" lon="19.8847000300884246826171875">
        <ele>1814.4000244140625</ele>
        <time>2026-06-16T11:09:36.000Z</time>
        <extensions>
          <ns3:TrackPointExtension>
            <ns3:atemp>19.0</ns3:atemp>
          </ns3:TrackPointExtension>
        </extensions>
      </trkpt>
      <trkpt lat="42.6246660389006137847900390625" lon="19.8847000300884246826171875">
        <ele>1814.199951171875</ele>
        <time>2026-06-16T11:09:37.000Z</time>
        <extensions>
          <ns3:TrackPointExtension>
            <ns3:atemp>18.0</ns3:atemp>
          </ns3:TrackPointExtension>
        </extensions>
      </trkpt>
      <trkpt lat="42.6246660389006137847900390625" lon="19.8847000300884246826171875">
        <ele>1814.199951171875</ele>
        <time>2026-06-16T11:09:38.000Z</time>
        <extensions>
          <ns3:TrackPointExtension>
            <ns3:atemp>19.0</ns3:atemp>
          </ns3:TrackPointExtension>
        </extensions>
      </trkpt>
      <trkpt lat="42.6246660389006137847900390625" lon="19.8847000300884246826171875">
        <ele>1814</ele>
        <time>2026-06-16T11:09:39.000Z</time>
        <extensions>
          <ns3:TrackPointExtension>
            <ns3:atemp>19.0</ns3:atemp>
          </ns3:TrackPointExtension>
        </extensions>
      </trkpt>
      <trkpt lat="42.6246660389006137847900390625" lon="19.8847000300884246826171875">
        <ele>1813.800048828125</ele>
        <time>2026-06-16T11:09:40.000Z</time>
        <extensions>
          <ns3:TrackPointExtension>
            <ns3:atemp>19.0</ns3:atemp>
          </ns3:TrackPointExtension>
        </extensions>
      </trkpt>
      <trkpt lat="42.6246660389006137847900390625" lon="19.8847000300884246826171875">
        <ele>1813.800048828125</ele>
        <time>2026-06-16T11:09:41.000Z</time>
        <extensions>
          <ns3:TrackPointExtension>
            <ns3:atemp>19.0</ns3:atemp>
          </ns3:TrackPointExtension>
        </extensions>
      </trkpt>
      <trkpt lat="42.6246660389006137847900390625" lon="19.8847000300884246826171875">
        <ele>1813.800048828125</ele>
        <time>2026-06-16T11:09:42.000Z</time>
        <extensions>
          <ns3:TrackPointExtension>
            <ns3:atemp>19.0</ns3:atemp>
          </ns3:TrackPointExtension>
        </extensions>
      </trkpt>
      <trkpt lat="42.6246660389006137847900390625" lon="19.8847000300884246826171875">
        <ele>1813.800048828125</ele>
        <time>2026-06-16T11:09:43.000Z</time>
        <extensions>
          <ns3:TrackPointExtension>
            <ns3:atemp>19.0</ns3:atemp>
          </ns3:TrackPointExtension>
        </extensions>
      </trkpt>
      <trkpt lat="42.6246660389006137847900390625" lon="19.8847000300884246826171875">
        <ele>1813.800048828125</ele>
        <time>2026-06-16T11:09:44.000Z</time>
        <extensions>
          <ns3:TrackPointExtension>
            <ns3:atemp>19.0</ns3:atemp>
          </ns3:TrackPointExtension>
        </extensions>
      </trkpt>
      <trkpt lat="42.6246660389006137847900390625" lon="19.8847000300884246826171875">
        <ele>1813.800048828125</ele>
        <time>2026-06-16T11:09:45.000Z</time>
        <extensions>
          <ns3:TrackPointExtension>
            <ns3:atemp>19.0</ns3:atemp>
          </ns3:TrackPointExtension>
        </extensions>
      </trkpt>
      <trkpt lat="42.6246660389006137847900390625" lon="19.8847000300884246826171875">
        <ele>1813.800048828125</ele>
        <time>2026-06-16T11:09:46.000Z</time>
        <extensions>
          <ns3:TrackPointExtension>
            <ns3:atemp>19.0</ns3:atemp>
          </ns3:TrackPointExtension>
        </extensions>
      </trkpt>
      <trkpt lat="42.6246660389006137847900390625" lon="19.8847000300884246826171875">
        <ele>1813.800048828125</ele>
        <time>2026-06-16T11:09:47.000Z</time>
        <extensions>
          <ns3:TrackPointExtension>
            <ns3:atemp>19.0</ns3:atemp>
          </ns3:TrackPointExtension>
        </extensions>
      </trkpt>
      <trkpt lat="42.6246660389006137847900390625" lon="19.8847000300884246826171875">
        <ele>1813.800048828125</ele>
        <time>2026-06-16T11:09:48.000Z</time>
        <extensions>
          <ns3:TrackPointExtension>
            <ns3:atemp>19.0</ns3:atemp>
          </ns3:TrackPointExtension>
        </extensions>
      </trkpt>
      <trkpt lat="42.6246660389006137847900390625" lon="19.8847000300884246826171875">
        <ele>1813.800048828125</ele>
        <time>2026-06-16T11:09:49.000Z</time>
        <extensions>
          <ns3:TrackPointExtension>
            <ns3:atemp>19.0</ns3:atemp>
          </ns3:TrackPointExtension>
        </extensions>
      </trkpt>
      <trkpt lat="42.6246660389006137847900390625" lon="19.8847000300884246826171875">
        <ele>1813.800048828125</ele>
        <time>2026-06-16T11:09:50.000Z</time>
        <extensions>
          <ns3:TrackPointExtension>
            <ns3:atemp>19.0</ns3:atemp>
          </ns3:TrackPointExtension>
        </extensions>
      </trkpt>
      <trkpt lat="42.6246660389006137847900390625" lon="19.8847000300884246826171875">
        <ele>1813.800048828125</ele>
        <time>2026-06-16T11:09:51.000Z</time>
        <extensions>
          <ns3:TrackPointExtension>
            <ns3:atemp>19.0</ns3:atemp>
          </ns3:TrackPointExtension>
        </extensions>
      </trkpt>
      <trkpt lat="42.6246660389006137847900390625" lon="19.8847000300884246826171875">
        <ele>1814</ele>
        <time>2026-06-16T11:09:52.000Z</time>
        <extensions>
          <ns3:TrackPointExtension>
            <ns3:atemp>19.0</ns3:atemp>
          </ns3:TrackPointExtension>
        </extensions>
      </trkpt>
      <trkpt lat="42.6246660389006137847900390625" lon="19.8847000300884246826171875">
        <ele>1814</ele>
        <time>2026-06-16T11:09:53.000Z</time>
        <extensions>
          <ns3:TrackPointExtension>
            <ns3:atemp>19.0</ns3:atemp>
          </ns3:TrackPointExtension>
        </extensions>
      </trkpt>
      <trkpt lat="42.6246660389006137847900390625" lon="19.8847000300884246826171875">
        <ele>1814</ele>
        <time>2026-06-16T11:09:54.000Z</time>
        <extensions>
          <ns3:TrackPointExtension>
            <ns3:atemp>19.0</ns3:atemp>
          </ns3:TrackPointExtension>
        </extensions>
      </trkpt>
      <trkpt lat="42.6246660389006137847900390625" lon="19.8847000300884246826171875">
        <ele>1814</ele>
        <time>2026-06-16T11:09:55.000Z</time>
        <extensions>
          <ns3:TrackPointExtension>
            <ns3:atemp>19.0</ns3:atemp>
          </ns3:TrackPointExtension>
        </extensions>
      </trkpt>
      <trkpt lat="42.6246660389006137847900390625" lon="19.8847000300884246826171875">
        <ele>1814</ele>
        <time>2026-06-16T11:09:56.000Z</time>
        <extensions>
          <ns3:TrackPointExtension>
            <ns3:atemp>19.0</ns3:atemp>
          </ns3:TrackPointExtension>
        </extensions>
      </trkpt>
      <trkpt lat="42.6246660389006137847900390625" lon="19.8847000300884246826171875">
        <ele>1814</ele>
        <time>2026-06-16T11:09:57.000Z</time>
        <extensions>
          <ns3:TrackPointExtension>
            <ns3:atemp>19.0</ns3:atemp>
          </ns3:TrackPointExtension>
        </extensions>
      </trkpt>
      <trkpt lat="42.6246660389006137847900390625" lon="19.8847000300884246826171875">
        <ele>1814</ele>
        <time>2026-06-16T11:09:58.000Z</time>
        <extensions>
          <ns3:TrackPointExtension>
            <ns3:atemp>19.0</ns3:atemp>
          </ns3:TrackPointExtension>
        </extensions>
      </trkpt>
      <trkpt lat="42.6246660389006137847900390625" lon="19.8847000300884246826171875">
        <ele>1814</ele>
        <time>2026-06-16T11:09:59.000Z</time>
        <extensions>
          <ns3:TrackPointExtension>
            <ns3:atemp>19.0</ns3:atemp>
          </ns3:TrackPointExtension>
        </extensions>
      </trkpt>
      <trkpt lat="42.6246660389006137847900390625" lon="19.8847000300884246826171875">
        <ele>1814</ele>
        <time>2026-06-16T11:10:00.000Z</time>
        <extensions>
          <ns3:TrackPointExtension>
            <ns3:atemp>19.0</ns3:atemp>
          </ns3:TrackPointExtension>
        </extensions>
      </trkpt>
      <trkpt lat="42.6246660389006137847900390625" lon="19.8847000300884246826171875">
        <ele>1814</ele>
        <time>2026-06-16T11:10:01.000Z</time>
        <extensions>
          <ns3:TrackPointExtension>
            <ns3:atemp>19.0</ns3:atemp>
          </ns3:TrackPointExtension>
        </extensions>
      </trkpt>
      <trkpt lat="42.6246660389006137847900390625" lon="19.8847000300884246826171875">
        <ele>1814</ele>
        <time>2026-06-16T11:10:02.000Z</time>
        <extensions>
          <ns3:TrackPointExtension>
            <ns3:atemp>19.0</ns3:atemp>
          </ns3:TrackPointExtension>
        </extensions>
      </trkpt>
      <trkpt lat="42.6246660389006137847900390625" lon="19.8847000300884246826171875">
        <ele>1813.800048828125</ele>
        <time>2026-06-16T11:10:03.000Z</time>
        <extensions>
          <ns3:TrackPointExtension>
            <ns3:atemp>19.0</ns3:atemp>
          </ns3:TrackPointExtension>
        </extensions>
      </trkpt>
      <trkpt lat="42.6246660389006137847900390625" lon="19.8847000300884246826171875">
        <ele>1813.800048828125</ele>
        <time>2026-06-16T11:10:04.000Z</time>
        <extensions>
          <ns3:TrackPointExtension>
            <ns3:atemp>19.0</ns3:atemp>
          </ns3:TrackPointExtension>
        </extensions>
      </trkpt>
      <trkpt lat="42.6246660389006137847900390625" lon="19.8847000300884246826171875">
        <ele>1813.800048828125</ele>
        <time>2026-06-16T11:10:05.000Z</time>
        <extensions>
          <ns3:TrackPointExtension>
            <ns3:atemp>19.0</ns3:atemp>
          </ns3:TrackPointExtension>
        </extensions>
      </trkpt>
      <trkpt lat="42.6246660389006137847900390625" lon="19.8847000300884246826171875">
        <ele>1813.800048828125</ele>
        <time>2026-06-16T11:10:06.000Z</time>
        <extensions>
          <ns3:TrackPointExtension>
            <ns3:atemp>19.0</ns3:atemp>
          </ns3:TrackPointExtension>
        </extensions>
      </trkpt>
      <trkpt lat="42.6246660389006137847900390625" lon="19.8847000300884246826171875">
        <ele>1813.800048828125</ele>
        <time>2026-06-16T11:10:07.000Z</time>
        <extensions>
          <ns3:TrackPointExtension>
            <ns3:atemp>19.0</ns3:atemp>
          </ns3:TrackPointExtension>
        </extensions>
      </trkpt>
      <trkpt lat="42.6246660389006137847900390625" lon="19.8847000300884246826171875">
        <ele>1813.800048828125</ele>
        <time>2026-06-16T11:10:08.000Z</time>
        <extensions>
          <ns3:TrackPointExtension>
            <ns3:atemp>19.0</ns3:atemp>
          </ns3:TrackPointExtension>
        </extensions>
      </trkpt>
      <trkpt lat="42.6246660389006137847900390625" lon="19.8847000300884246826171875">
        <ele>1813.5999755859375</ele>
        <time>2026-06-16T11:10:09.000Z</time>
        <extensions>
          <ns3:TrackPointExtension>
            <ns3:atemp>19.0</ns3:atemp>
          </ns3:TrackPointExtension>
        </extensions>
      </trkpt>
      <trkpt lat="42.6246660389006137847900390625" lon="19.8847000300884246826171875">
        <ele>1813.5999755859375</ele>
        <time>2026-06-16T11:10:10.000Z</time>
        <extensions>
          <ns3:TrackPointExtension>
            <ns3:atemp>19.0</ns3:atemp>
          </ns3:TrackPointExtension>
        </extensions>
      </trkpt>
      <trkpt lat="42.6246660389006137847900390625" lon="19.8847000300884246826171875">
        <ele>1813.5999755859375</ele>
        <time>2026-06-16T11:10:11.000Z</time>
        <extensions>
          <ns3:TrackPointExtension>
            <ns3:atemp>19.0</ns3:atemp>
          </ns3:TrackPointExtension>
        </extensions>
      </trkpt>
      <trkpt lat="42.6246660389006137847900390625" lon="19.8847000300884246826171875">
        <ele>1813.4000244140625</ele>
        <time>2026-06-16T11:10:12.000Z</time>
        <extensions>
          <ns3:TrackPointExtension>
            <ns3:atemp>19.0</ns3:atemp>
          </ns3:TrackPointExtension>
        </extensions>
      </trkpt>
      <trkpt lat="42.6246660389006137847900390625" lon="19.8847000300884246826171875">
        <ele>1813.4000244140625</ele>
        <time>2026-06-16T11:10:13.000Z</time>
        <extensions>
          <ns3:TrackPointExtension>
            <ns3:atemp>19.0</ns3:atemp>
          </ns3:TrackPointExtension>
        </extensions>
      </trkpt>
      <trkpt lat="42.6246660389006137847900390625" lon="19.8847000300884246826171875">
        <ele>1813.4000244140625</ele>
        <time>2026-06-16T11:10:14.000Z</time>
        <extensions>
          <ns3:TrackPointExtension>
            <ns3:atemp>19.0</ns3:atemp>
          </ns3:TrackPointExtension>
        </extensions>
      </trkpt>
      <trkpt lat="42.6246660389006137847900390625" lon="19.8847000300884246826171875">
        <ele>1813.199951171875</ele>
        <time>2026-06-16T11:10:15.000Z</time>
        <extensions>
          <ns3:TrackPointExtension>
            <ns3:atemp>19.0</ns3:atemp>
          </ns3:TrackPointExtension>
        </extensions>
      </trkpt>
      <trkpt lat="42.6246660389006137847900390625" lon="19.8847000300884246826171875">
        <ele>1813.199951171875</ele>
        <time>2026-06-16T11:10:16.000Z</time>
        <extensions>
          <ns3:TrackPointExtension>
            <ns3:atemp>19.0</ns3:atemp>
          </ns3:TrackPointExtension>
        </extensions>
      </trkpt>
      <trkpt lat="42.6246660389006137847900390625" lon="19.8847000300884246826171875">
        <ele>1813</ele>
        <time>2026-06-16T11:10:17.000Z</time>
        <extensions>
          <ns3:TrackPointExtension>
            <ns3:atemp>19.0</ns3:atemp>
          </ns3:TrackPointExtension>
        </extensions>
      </trkpt>
      <trkpt lat="42.6246660389006137847900390625" lon="19.8847000300884246826171875">
        <ele>1813</ele>
        <time>2026-06-16T11:10:18.000Z</time>
        <extensions>
          <ns3:TrackPointExtension>
            <ns3:atemp>19.0</ns3:atemp>
          </ns3:TrackPointExtension>
        </extensions>
      </trkpt>
      <trkpt lat="42.6246660389006137847900390625" lon="19.8847000300884246826171875">
        <ele>1813</ele>
        <time>2026-06-16T11:10:19.000Z</time>
        <extensions>
          <ns3:TrackPointExtension>
            <ns3:atemp>19.0</ns3:atemp>
          </ns3:TrackPointExtension>
        </extensions>
      </trkpt>
      <trkpt lat="42.6246660389006137847900390625" lon="19.8847000300884246826171875">
        <ele>1813</ele>
        <time>2026-06-16T11:10:20.000Z</time>
        <extensions>
          <ns3:TrackPointExtension>
            <ns3:atemp>19.0</ns3:atemp>
          </ns3:TrackPointExtension>
        </extensions>
      </trkpt>
      <trkpt lat="42.6246660389006137847900390625" lon="19.8847000300884246826171875">
        <ele>1813.199951171875</ele>
        <time>2026-06-16T11:10:21.000Z</time>
        <extensions>
          <ns3:TrackPointExtension>
            <ns3:atemp>19.0</ns3:atemp>
          </ns3:TrackPointExtension>
        </extensions>
      </trkpt>
      <trkpt lat="42.6246660389006137847900390625" lon="19.8847000300884246826171875">
        <ele>1813.199951171875</ele>
        <time>2026-06-16T11:10:22.000Z</time>
        <extensions>
          <ns3:TrackPointExtension>
            <ns3:atemp>19.0</ns3:atemp>
          </ns3:TrackPointExtension>
        </extensions>
      </trkpt>
      <trkpt lat="42.6246660389006137847900390625" lon="19.8847000300884246826171875">
        <ele>1813.199951171875</ele>
        <time>2026-06-16T11:10:23.000Z</time>
        <extensions>
          <ns3:TrackPointExtension>
            <ns3:atemp>19.0</ns3:atemp>
          </ns3:TrackPointExtension>
        </extensions>
      </trkpt>
      <trkpt lat="42.6246660389006137847900390625" lon="19.8847000300884246826171875">
        <ele>1813.199951171875</ele>
        <time>2026-06-16T11:10:24.000Z</time>
        <extensions>
          <ns3:TrackPointExtension>
            <ns3:atemp>19.0</ns3:atemp>
          </ns3:TrackPointExtension>
        </extensions>
      </trkpt>
      <trkpt lat="42.6246660389006137847900390625" lon="19.8847000300884246826171875">
        <ele>1813.199951171875</ele>
        <time>2026-06-16T11:10:25.000Z</time>
        <extensions>
          <ns3:TrackPointExtension>
            <ns3:atemp>19.0</ns3:atemp>
          </ns3:TrackPointExtension>
        </extensions>
      </trkpt>
      <trkpt lat="42.6246660389006137847900390625" lon="19.8847000300884246826171875">
        <ele>1813</ele>
        <time>2026-06-16T11:10:26.000Z</time>
        <extensions>
          <ns3:TrackPointExtension>
            <ns3:atemp>19.0</ns3:atemp>
          </ns3:TrackPointExtension>
        </extensions>
      </trkpt>
      <trkpt lat="42.6246660389006137847900390625" lon="19.8847000300884246826171875">
        <ele>1813</ele>
        <time>2026-06-16T11:10:27.000Z</time>
        <extensions>
          <ns3:TrackPointExtension>
            <ns3:atemp>19.0</ns3:atemp>
          </ns3:TrackPointExtension>
        </extensions>
      </trkpt>
      <trkpt lat="42.6246660389006137847900390625" lon="19.8847000300884246826171875">
        <ele>1813</ele>
        <time>2026-06-16T11:10:28.000Z</time>
        <extensions>
          <ns3:TrackPointExtension>
            <ns3:atemp>19.0</ns3:atemp>
          </ns3:TrackPointExtension>
        </extensions>
      </trkpt>
      <trkpt lat="42.6246660389006137847900390625" lon="19.8847000300884246826171875">
        <ele>1813</ele>
        <time>2026-06-16T11:10:29.000Z</time>
        <extensions>
          <ns3:TrackPointExtension>
            <ns3:atemp>19.0</ns3:atemp>
          </ns3:TrackPointExtension>
        </extensions>
      </trkpt>
      <trkpt lat="42.6246660389006137847900390625" lon="19.8847000300884246826171875">
        <ele>1813</ele>
        <time>2026-06-16T11:10:30.000Z</time>
        <extensions>
          <ns3:TrackPointExtension>
            <ns3:atemp>19.0</ns3:atemp>
          </ns3:TrackPointExtension>
        </extensions>
      </trkpt>
      <trkpt lat="42.6246660389006137847900390625" lon="19.8847000300884246826171875">
        <ele>1813.199951171875</ele>
        <time>2026-06-16T11:10:31.000Z</time>
        <extensions>
          <ns3:TrackPointExtension>
            <ns3:atemp>19.0</ns3:atemp>
          </ns3:TrackPointExtension>
        </extensions>
      </trkpt>
      <trkpt lat="42.6246660389006137847900390625" lon="19.8847000300884246826171875">
        <ele>1813.199951171875</ele>
        <time>2026-06-16T11:10:32.000Z</time>
        <extensions>
          <ns3:TrackPointExtension>
            <ns3:atemp>19.0</ns3:atemp>
          </ns3:TrackPointExtension>
        </extensions>
      </trkpt>
      <trkpt lat="42.6246660389006137847900390625" lon="19.8847000300884246826171875">
        <ele>1813.4000244140625</ele>
        <time>2026-06-16T11:10:33.000Z</time>
        <extensions>
          <ns3:TrackPointExtension>
            <ns3:atemp>19.0</ns3:atemp>
          </ns3:TrackPointExtension>
        </extensions>
      </trkpt>
      <trkpt lat="42.6246660389006137847900390625" lon="19.8847000300884246826171875">
        <ele>1813.4000244140625</ele>
        <time>2026-06-16T11:10:34.000Z</time>
        <extensions>
          <ns3:TrackPointExtension>
            <ns3:atemp>19.0</ns3:atemp>
          </ns3:TrackPointExtension>
        </extensions>
      </trkpt>
      <trkpt lat="42.6246660389006137847900390625" lon="19.8847000300884246826171875">
        <ele>1813.4000244140625</ele>
        <time>2026-06-16T11:10:35.000Z</time>
        <extensions>
          <ns3:TrackPointExtension>
            <ns3:atemp>19.0</ns3:atemp>
          </ns3:TrackPointExtension>
        </extensions>
      </trkpt>
      <trkpt lat="42.6246660389006137847900390625" lon="19.8847000300884246826171875">
        <ele>1813.5999755859375</ele>
        <time>2026-06-16T11:10:36.000Z</time>
        <extensions>
          <ns3:TrackPointExtension>
            <ns3:atemp>19.0</ns3:atemp>
          </ns3:TrackPointExtension>
        </extensions>
      </trkpt>
      <trkpt lat="42.6246660389006137847900390625" lon="19.8847000300884246826171875">
        <ele>1813.5999755859375</ele>
        <time>2026-06-16T11:10:37.000Z</time>
        <extensions>
          <ns3:TrackPointExtension>
            <ns3:atemp>19.0</ns3:atemp>
          </ns3:TrackPointExtension>
        </extensions>
      </trkpt>
      <trkpt lat="42.6246660389006137847900390625" lon="19.8847000300884246826171875">
        <ele>1813.5999755859375</ele>
        <time>2026-06-16T11:10:38.000Z</time>
        <extensions>
          <ns3:TrackPointExtension>
            <ns3:atemp>19.0</ns3:atemp>
          </ns3:TrackPointExtension>
        </extensions>
      </trkpt>
      <trkpt lat="42.6246660389006137847900390625" lon="19.8847000300884246826171875">
        <ele>1813.5999755859375</ele>
        <time>2026-06-16T11:10:39.000Z</time>
        <extensions>
          <ns3:TrackPointExtension>
            <ns3:atemp>19.0</ns3:atemp>
          </ns3:TrackPointExtension>
        </extensions>
      </trkpt>
      <trkpt lat="42.6246660389006137847900390625" lon="19.8847000300884246826171875">
        <ele>1813.5999755859375</ele>
        <time>2026-06-16T11:10:40.000Z</time>
        <extensions>
          <ns3:TrackPointExtension>
            <ns3:atemp>19.0</ns3:atemp>
          </ns3:TrackPointExtension>
        </extensions>
      </trkpt>
      <trkpt lat="42.6246660389006137847900390625" lon="19.8847000300884246826171875">
        <ele>1813.800048828125</ele>
        <time>2026-06-16T11:10:41.000Z</time>
        <extensions>
          <ns3:TrackPointExtension>
            <ns3:atemp>19.0</ns3:atemp>
          </ns3:TrackPointExtension>
        </extensions>
      </trkpt>
      <trkpt lat="42.6246660389006137847900390625" lon="19.8847000300884246826171875">
        <ele>1814</ele>
        <time>2026-06-16T11:10:42.000Z</time>
        <extensions>
          <ns3:TrackPointExtension>
            <ns3:atemp>19.0</ns3:atemp>
          </ns3:TrackPointExtension>
        </extensions>
      </trkpt>
      <trkpt lat="42.6246660389006137847900390625" lon="19.8847000300884246826171875">
        <ele>1814</ele>
        <time>2026-06-16T11:10:43.000Z</time>
        <extensions>
          <ns3:TrackPointExtension>
            <ns3:atemp>19.0</ns3:atemp>
          </ns3:TrackPointExtension>
        </extensions>
      </trkpt>
      <trkpt lat="42.6246660389006137847900390625" lon="19.8847000300884246826171875">
        <ele>1814</ele>
        <time>2026-06-16T11:10:44.000Z</time>
        <extensions>
          <ns3:TrackPointExtension>
            <ns3:atemp>19.0</ns3:atemp>
          </ns3:TrackPointExtension>
        </extensions>
      </trkpt>
      <trkpt lat="42.6246660389006137847900390625" lon="19.8847000300884246826171875">
        <ele>1814</ele>
        <time>2026-06-16T11:10:45.000Z</time>
        <extensions>
          <ns3:TrackPointExtension>
            <ns3:atemp>19.0</ns3:atemp>
          </ns3:TrackPointExtension>
        </extensions>
      </trkpt>
      <trkpt lat="42.6246660389006137847900390625" lon="19.8847000300884246826171875">
        <ele>1814</ele>
        <time>2026-06-16T11:10:46.000Z</time>
        <extensions>
          <ns3:TrackPointExtension>
            <ns3:atemp>19.0</ns3:atemp>
          </ns3:TrackPointExtension>
        </extensions>
      </trkpt>
      <trkpt lat="42.6246660389006137847900390625" lon="19.8847000300884246826171875">
        <ele>1814</ele>
        <time>2026-06-16T11:10:47.000Z</time>
        <extensions>
          <ns3:TrackPointExtension>
            <ns3:atemp>19.0</ns3:atemp>
          </ns3:TrackPointExtension>
        </extensions>
      </trkpt>
      <trkpt lat="42.6246660389006137847900390625" lon="19.8847000300884246826171875">
        <ele>1814</ele>
        <time>2026-06-16T11:10:48.000Z</time>
        <extensions>
          <ns3:TrackPointExtension>
            <ns3:atemp>19.0</ns3:atemp>
          </ns3:TrackPointExtension>
        </extensions>
      </trkpt>
      <trkpt lat="42.6246660389006137847900390625" lon="19.8847000300884246826171875">
        <ele>1814</ele>
        <time>2026-06-16T11:10:49.000Z</time>
        <extensions>
          <ns3:TrackPointExtension>
            <ns3:atemp>19.0</ns3:atemp>
          </ns3:TrackPointExtension>
        </extensions>
      </trkpt>
      <trkpt lat="42.6246660389006137847900390625" lon="19.8847000300884246826171875">
        <ele>1814</ele>
        <time>2026-06-16T11:10:50.000Z</time>
        <extensions>
          <ns3:TrackPointExtension>
            <ns3:atemp>19.0</ns3:atemp>
          </ns3:TrackPointExtension>
        </extensions>
      </trkpt>
      <trkpt lat="42.6246660389006137847900390625" lon="19.8847000300884246826171875">
        <ele>1814</ele>
        <time>2026-06-16T11:10:51.000Z</time>
        <extensions>
          <ns3:TrackPointExtension>
            <ns3:atemp>19.0</ns3:atemp>
          </ns3:TrackPointExtension>
        </extensions>
      </trkpt>
      <trkpt lat="42.6246660389006137847900390625" lon="19.8847000300884246826171875">
        <ele>1814</ele>
        <time>2026-06-16T11:10:52.000Z</time>
        <extensions>
          <ns3:TrackPointExtension>
            <ns3:atemp>19.0</ns3:atemp>
          </ns3:TrackPointExtension>
        </extensions>
      </trkpt>
      <trkpt lat="42.6246660389006137847900390625" lon="19.8847000300884246826171875">
        <ele>1814</ele>
        <time>2026-06-16T11:10:53.000Z</time>
        <extensions>
          <ns3:TrackPointExtension>
            <ns3:atemp>19.0</ns3:atemp>
          </ns3:TrackPointExtension>
        </extensions>
      </trkpt>
      <trkpt lat="42.6246660389006137847900390625" lon="19.8847000300884246826171875">
        <ele>1814</ele>
        <time>2026-06-16T11:10:54.000Z</time>
        <extensions>
          <ns3:TrackPointExtension>
            <ns3:atemp>19.0</ns3:atemp>
          </ns3:TrackPointExtension>
        </extensions>
      </trkpt>
      <trkpt lat="42.6246660389006137847900390625" lon="19.8847000300884246826171875">
        <ele>1814</ele>
        <time>2026-06-16T11:10:55.000Z</time>
        <extensions>
          <ns3:TrackPointExtension>
            <ns3:atemp>19.0</ns3:atemp>
          </ns3:TrackPointExtension>
        </extensions>
      </trkpt>
      <trkpt lat="42.6246660389006137847900390625" lon="19.8847000300884246826171875">
        <ele>1814</ele>
        <time>2026-06-16T11:10:56.000Z</time>
        <extensions>
          <ns3:TrackPointExtension>
            <ns3:atemp>19.0</ns3:atemp>
          </ns3:TrackPointExtension>
        </extensions>
      </trkpt>
      <trkpt lat="42.6246660389006137847900390625" lon="19.8847000300884246826171875">
        <ele>1814</ele>
        <time>2026-06-16T11:10:57.000Z</time>
        <extensions>
          <ns3:TrackPointExtension>
            <ns3:atemp>19.0</ns3:atemp>
          </ns3:TrackPointExtension>
        </extensions>
      </trkpt>
      <trkpt lat="42.6246660389006137847900390625" lon="19.8847000300884246826171875">
        <ele>1814</ele>
        <time>2026-06-16T11:10:58.000Z</time>
        <extensions>
          <ns3:TrackPointExtension>
            <ns3:atemp>19.0</ns3:atemp>
          </ns3:TrackPointExtension>
        </extensions>
      </trkpt>
      <trkpt lat="42.6246660389006137847900390625" lon="19.8847000300884246826171875">
        <ele>1814</ele>
        <time>2026-06-16T11:10:59.000Z</time>
        <extensions>
          <ns3:TrackPointExtension>
            <ns3:atemp>19.0</ns3:atemp>
          </ns3:TrackPointExtension>
        </extensions>
      </trkpt>
      <trkpt lat="42.6246660389006137847900390625" lon="19.8847000300884246826171875">
        <ele>1814</ele>
        <time>2026-06-16T11:11:00.000Z</time>
        <extensions>
          <ns3:TrackPointExtension>
            <ns3:atemp>19.0</ns3:atemp>
          </ns3:TrackPointExtension>
        </extensions>
      </trkpt>
      <trkpt lat="42.6246660389006137847900390625" lon="19.8847000300884246826171875">
        <ele>1814</ele>
        <time>2026-06-16T11:11:01.000Z</time>
        <extensions>
          <ns3:TrackPointExtension>
            <ns3:atemp>19.0</ns3:atemp>
          </ns3:TrackPointExtension>
        </extensions>
      </trkpt>
      <trkpt lat="42.6246660389006137847900390625" lon="19.8847000300884246826171875">
        <ele>1814</ele>
        <time>2026-06-16T11:11:02.000Z</time>
        <extensions>
          <ns3:TrackPointExtension>
            <ns3:atemp>19.0</ns3:atemp>
          </ns3:TrackPointExtension>
        </extensions>
      </trkpt>
      <trkpt lat="42.6246660389006137847900390625" lon="19.8847000300884246826171875">
        <ele>1814</ele>
        <time>2026-06-16T11:11:03.000Z</time>
        <extensions>
          <ns3:TrackPointExtension>
            <ns3:atemp>19.0</ns3:atemp>
          </ns3:TrackPointExtension>
        </extensions>
      </trkpt>
      <trkpt lat="42.6246660389006137847900390625" lon="19.8847000300884246826171875">
        <ele>1814</ele>
        <time>2026-06-16T11:11:04.000Z</time>
        <extensions>
          <ns3:TrackPointExtension>
            <ns3:atemp>19.0</ns3:atemp>
          </ns3:TrackPointExtension>
        </extensions>
      </trkpt>
      <trkpt lat="42.6246660389006137847900390625" lon="19.8847000300884246826171875">
        <ele>1814</ele>
        <time>2026-06-16T11:11:05.000Z</time>
        <extensions>
          <ns3:TrackPointExtension>
            <ns3:atemp>19.0</ns3:atemp>
          </ns3:TrackPointExtension>
        </extensions>
      </trkpt>
      <trkpt lat="42.6246660389006137847900390625" lon="19.8847000300884246826171875">
        <ele>1814</ele>
        <time>2026-06-16T11:11:06.000Z</time>
        <extensions>
          <ns3:TrackPointExtension>
            <ns3:atemp>19.0</ns3:atemp>
          </ns3:TrackPointExtension>
        </extensions>
      </trkpt>
      <trkpt lat="42.6246660389006137847900390625" lon="19.8847000300884246826171875">
        <ele>1814</ele>
        <time>2026-06-16T11:11:07.000Z</time>
        <extensions>
          <ns3:TrackPointExtension>
            <ns3:atemp>19.0</ns3:atemp>
          </ns3:TrackPointExtension>
        </extensions>
      </trkpt>
      <trkpt lat="42.6246660389006137847900390625" lon="19.8847000300884246826171875">
        <ele>1814</ele>
        <time>2026-06-16T11:11:08.000Z</time>
        <extensions>
          <ns3:TrackPointExtension>
            <ns3:atemp>19.0</ns3:atemp>
          </ns3:TrackPointExtension>
        </extensions>
      </trkpt>
      <trkpt lat="42.6246660389006137847900390625" lon="19.8847000300884246826171875">
        <ele>1814</ele>
        <time>2026-06-16T11:11:09.000Z</time>
        <extensions>
          <ns3:TrackPointExtension>
            <ns3:atemp>19.0</ns3:atemp>
          </ns3:TrackPointExtension>
        </extensions>
      </trkpt>
      <trkpt lat="42.6246660389006137847900390625" lon="19.8847000300884246826171875">
        <ele>1814</ele>
        <time>2026-06-16T11:11:10.000Z</time>
        <extensions>
          <ns3:TrackPointExtension>
            <ns3:atemp>19.0</ns3:atemp>
          </ns3:TrackPointExtension>
        </extensions>
      </trkpt>
      <trkpt lat="42.6246660389006137847900390625" lon="19.8847000300884246826171875">
        <ele>1814</ele>
        <time>2026-06-16T11:11:11.000Z</time>
        <extensions>
          <ns3:TrackPointExtension>
            <ns3:atemp>19.0</ns3:atemp>
          </ns3:TrackPointExtension>
        </extensions>
      </trkpt>
      <trkpt lat="42.6246660389006137847900390625" lon="19.8847000300884246826171875">
        <ele>1814</ele>
        <time>2026-06-16T11:11:12.000Z</time>
        <extensions>
          <ns3:TrackPointExtension>
            <ns3:atemp>19.0</ns3:atemp>
          </ns3:TrackPointExtension>
        </extensions>
      </trkpt>
      <trkpt lat="42.6246660389006137847900390625" lon="19.8847000300884246826171875">
        <ele>1814</ele>
        <time>2026-06-16T11:11:13.000Z</time>
        <extensions>
          <ns3:TrackPointExtension>
            <ns3:atemp>19.0</ns3:atemp>
          </ns3:TrackPointExtension>
        </extensions>
      </trkpt>
      <trkpt lat="42.6246660389006137847900390625" lon="19.8847000300884246826171875">
        <ele>1814</ele>
        <time>2026-06-16T11:11:14.000Z</time>
        <extensions>
          <ns3:TrackPointExtension>
            <ns3:atemp>19.0</ns3:atemp>
          </ns3:TrackPointExtension>
        </extensions>
      </trkpt>
      <trkpt lat="42.6246660389006137847900390625" lon="19.8847000300884246826171875">
        <ele>1814</ele>
        <time>2026-06-16T11:11:15.000Z</time>
        <extensions>
          <ns3:TrackPointExtension>
            <ns3:atemp>19.0</ns3:atemp>
          </ns3:TrackPointExtension>
        </extensions>
      </trkpt>
      <trkpt lat="42.6246660389006137847900390625" lon="19.8847000300884246826171875">
        <ele>1814</ele>
        <time>2026-06-16T11:11:16.000Z</time>
        <extensions>
          <ns3:TrackPointExtension>
            <ns3:atemp>19.0</ns3:atemp>
          </ns3:TrackPointExtension>
        </extensions>
      </trkpt>
      <trkpt lat="42.6246660389006137847900390625" lon="19.8847000300884246826171875">
        <ele>1814</ele>
        <time>2026-06-16T11:11:17.000Z</time>
        <extensions>
          <ns3:TrackPointExtension>
            <ns3:atemp>19.0</ns3:atemp>
          </ns3:TrackPointExtension>
        </extensions>
      </trkpt>
      <trkpt lat="42.6246660389006137847900390625" lon="19.8847000300884246826171875">
        <ele>1814</ele>
        <time>2026-06-16T11:11:18.000Z</time>
        <extensions>
          <ns3:TrackPointExtension>
            <ns3:atemp>19.0</ns3:atemp>
          </ns3:TrackPointExtension>
        </extensions>
      </trkpt>
      <trkpt lat="42.6246660389006137847900390625" lon="19.8847000300884246826171875">
        <ele>1814</ele>
        <time>2026-06-16T11:11:19.000Z</time>
        <extensions>
          <ns3:TrackPointExtension>
            <ns3:atemp>19.0</ns3:atemp>
          </ns3:TrackPointExtension>
        </extensions>
      </trkpt>
      <trkpt lat="42.6246660389006137847900390625" lon="19.8847000300884246826171875">
        <ele>1814</ele>
        <time>2026-06-16T11:11:20.000Z</time>
        <extensions>
          <ns3:TrackPointExtension>
            <ns3:atemp>19.0</ns3:atemp>
          </ns3:TrackPointExtension>
        </extensions>
      </trkpt>
      <trkpt lat="42.6246660389006137847900390625" lon="19.8847000300884246826171875">
        <ele>1814</ele>
        <time>2026-06-16T11:11:21.000Z</time>
        <extensions>
          <ns3:TrackPointExtension>
            <ns3:atemp>19.0</ns3:atemp>
          </ns3:TrackPointExtension>
        </extensions>
      </trkpt>
      <trkpt lat="42.6246660389006137847900390625" lon="19.8847000300884246826171875">
        <ele>1814</ele>
        <time>2026-06-16T11:11:22.000Z</time>
        <extensions>
          <ns3:TrackPointExtension>
            <ns3:atemp>19.0</ns3:atemp>
          </ns3:TrackPointExtension>
        </extensions>
      </trkpt>
      <trkpt lat="42.6246660389006137847900390625" lon="19.8847000300884246826171875">
        <ele>1814</ele>
        <time>2026-06-16T11:11:23.000Z</time>
        <extensions>
          <ns3:TrackPointExtension>
            <ns3:atemp>19.0</ns3:atemp>
          </ns3:TrackPointExtension>
        </extensions>
      </trkpt>
      <trkpt lat="42.6246660389006137847900390625" lon="19.8847000300884246826171875">
        <ele>1814</ele>
        <time>2026-06-16T11:11:24.000Z</time>
        <extensions>
          <ns3:TrackPointExtension>
            <ns3:atemp>19.0</ns3:atemp>
          </ns3:TrackPointExtension>
        </extensions>
      </trkpt>
      <trkpt lat="42.6246660389006137847900390625" lon="19.8847000300884246826171875">
        <ele>1814</ele>
        <time>2026-06-16T11:11:25.000Z</time>
        <extensions>
          <ns3:TrackPointExtension>
            <ns3:atemp>19.0</ns3:atemp>
          </ns3:TrackPointExtension>
        </extensions>
      </trkpt>
      <trkpt lat="42.6246660389006137847900390625" lon="19.8847000300884246826171875">
        <ele>1814</ele>
        <time>2026-06-16T11:11:26.000Z</time>
        <extensions>
          <ns3:TrackPointExtension>
            <ns3:atemp>19.0</ns3:atemp>
          </ns3:TrackPointExtension>
        </extensions>
      </trkpt>
      <trkpt lat="42.6246660389006137847900390625" lon="19.8847000300884246826171875">
        <ele>1814</ele>
        <time>2026-06-16T11:11:27.000Z</time>
        <extensions>
          <ns3:TrackPointExtension>
            <ns3:atemp>19.0</ns3:atemp>
          </ns3:TrackPointExtension>
        </extensions>
      </trkpt>
      <trkpt lat="42.6246660389006137847900390625" lon="19.8847000300884246826171875">
        <ele>1814</ele>
        <time>2026-06-16T11:11:28.000Z</time>
        <extensions>
          <ns3:TrackPointExtension>
            <ns3:atemp>19.0</ns3:atemp>
          </ns3:TrackPointExtension>
        </extensions>
      </trkpt>
      <trkpt lat="42.6246660389006137847900390625" lon="19.8847000300884246826171875">
        <ele>1814</ele>
        <time>2026-06-16T11:11:29.000Z</time>
        <extensions>
          <ns3:TrackPointExtension>
            <ns3:atemp>19.0</ns3:atemp>
          </ns3:TrackPointExtension>
        </extensions>
      </trkpt>
      <trkpt lat="42.6246660389006137847900390625" lon="19.8847000300884246826171875">
        <ele>1814</ele>
        <time>2026-06-16T11:11:30.000Z</time>
        <extensions>
          <ns3:TrackPointExtension>
            <ns3:atemp>19.0</ns3:atemp>
          </ns3:TrackPointExtension>
        </extensions>
      </trkpt>
      <trkpt lat="42.6246660389006137847900390625" lon="19.8847000300884246826171875">
        <ele>1814</ele>
        <time>2026-06-16T11:11:31.000Z</time>
        <extensions>
          <ns3:TrackPointExtension>
            <ns3:atemp>19.0</ns3:atemp>
          </ns3:TrackPointExtension>
        </extensions>
      </trkpt>
      <trkpt lat="42.6246660389006137847900390625" lon="19.8847000300884246826171875">
        <ele>1814</ele>
        <time>2026-06-16T11:11:32.000Z</time>
        <extensions>
          <ns3:TrackPointExtension>
            <ns3:atemp>19.0</ns3:atemp>
          </ns3:TrackPointExtension>
        </extensions>
      </trkpt>
      <trkpt lat="42.6246660389006137847900390625" lon="19.8847000300884246826171875">
        <ele>1814</ele>
        <time>2026-06-16T11:11:33.000Z</time>
        <extensions>
          <ns3:TrackPointExtension>
            <ns3:atemp>19.0</ns3:atemp>
          </ns3:TrackPointExtension>
        </extensions>
      </trkpt>
      <trkpt lat="42.6246660389006137847900390625" lon="19.8847000300884246826171875">
        <ele>1814</ele>
        <time>2026-06-16T11:11:34.000Z</time>
        <extensions>
          <ns3:TrackPointExtension>
            <ns3:atemp>19.0</ns3:atemp>
          </ns3:TrackPointExtension>
        </extensions>
      </trkpt>
      <trkpt lat="42.6246660389006137847900390625" lon="19.8847000300884246826171875">
        <ele>1814</ele>
        <time>2026-06-16T11:11:35.000Z</time>
        <extensions>
          <ns3:TrackPointExtension>
            <ns3:atemp>19.0</ns3:atemp>
          </ns3:TrackPointExtension>
        </extensions>
      </trkpt>
      <trkpt lat="42.6246660389006137847900390625" lon="19.8847000300884246826171875">
        <ele>1814</ele>
        <time>2026-06-16T11:11:36.000Z</time>
        <extensions>
          <ns3:TrackPointExtension>
            <ns3:atemp>19.0</ns3:atemp>
          </ns3:TrackPointExtension>
        </extensions>
      </trkpt>
      <trkpt lat="42.6246660389006137847900390625" lon="19.8847000300884246826171875">
        <ele>1814</ele>
        <time>2026-06-16T11:11:37.000Z</time>
        <extensions>
          <ns3:TrackPointExtension>
            <ns3:atemp>19.0</ns3:atemp>
          </ns3:TrackPointExtension>
        </extensions>
      </trkpt>
      <trkpt lat="42.6246660389006137847900390625" lon="19.8847000300884246826171875">
        <ele>1814</ele>
        <time>2026-06-16T11:11:38.000Z</time>
        <extensions>
          <ns3:TrackPointExtension>
            <ns3:atemp>19.0</ns3:atemp>
          </ns3:TrackPointExtension>
        </extensions>
      </trkpt>
      <trkpt lat="42.6246660389006137847900390625" lon="19.8847000300884246826171875">
        <ele>1814</ele>
        <time>2026-06-16T11:11:39.000Z</time>
        <extensions>
          <ns3:TrackPointExtension>
            <ns3:atemp>19.0</ns3:atemp>
          </ns3:TrackPointExtension>
        </extensions>
      </trkpt>
      <trkpt lat="42.6246660389006137847900390625" lon="19.8847000300884246826171875">
        <ele>1814</ele>
        <time>2026-06-16T11:11:40.000Z</time>
        <extensions>
          <ns3:TrackPointExtension>
            <ns3:atemp>19.0</ns3:atemp>
          </ns3:TrackPointExtension>
        </extensions>
      </trkpt>
      <trkpt lat="42.6246660389006137847900390625" lon="19.8847000300884246826171875">
        <ele>1814</ele>
        <time>2026-06-16T11:11:41.000Z</time>
        <extensions>
          <ns3:TrackPointExtension>
            <ns3:atemp>19.0</ns3:atemp>
          </ns3:TrackPointExtension>
        </extensions>
      </trkpt>
      <trkpt lat="42.6246660389006137847900390625" lon="19.8847000300884246826171875">
        <ele>1814</ele>
        <time>2026-06-16T11:11:42.000Z</time>
        <extensions>
          <ns3:TrackPointExtension>
            <ns3:atemp>19.0</ns3:atemp>
          </ns3:TrackPointExtension>
        </extensions>
      </trkpt>
      <trkpt lat="42.6246660389006137847900390625" lon="19.8847000300884246826171875">
        <ele>1814</ele>
        <time>2026-06-16T11:11:43.000Z</time>
        <extensions>
          <ns3:TrackPointExtension>
            <ns3:atemp>19.0</ns3:atemp>
          </ns3:TrackPointExtension>
        </extensions>
      </trkpt>
      <trkpt lat="42.6246660389006137847900390625" lon="19.8847000300884246826171875">
        <ele>1814</ele>
        <time>2026-06-16T11:11:44.000Z</time>
        <extensions>
          <ns3:TrackPointExtension>
            <ns3:atemp>19.0</ns3:atemp>
          </ns3:TrackPointExtension>
        </extensions>
      </trkpt>
      <trkpt lat="42.6246660389006137847900390625" lon="19.8847000300884246826171875">
        <ele>1814</ele>
        <time>2026-06-16T11:11:45.000Z</time>
        <extensions>
          <ns3:TrackPointExtension>
            <ns3:atemp>19.0</ns3:atemp>
          </ns3:TrackPointExtension>
        </extensions>
      </trkpt>
      <trkpt lat="42.6246660389006137847900390625" lon="19.8847000300884246826171875">
        <ele>1814</ele>
        <time>2026-06-16T11:11:46.000Z</time>
        <extensions>
          <ns3:TrackPointExtension>
            <ns3:atemp>19.0</ns3:atemp>
          </ns3:TrackPointExtension>
        </extensions>
      </trkpt>
      <trkpt lat="42.6246660389006137847900390625" lon="19.8847000300884246826171875">
        <ele>1814</ele>
        <time>2026-06-16T11:11:47.000Z</time>
        <extensions>
          <ns3:TrackPointExtension>
            <ns3:atemp>19.0</ns3:atemp>
          </ns3:TrackPointExtension>
        </extensions>
      </trkpt>
      <trkpt lat="42.6246660389006137847900390625" lon="19.8847000300884246826171875">
        <ele>1814</ele>
        <time>2026-06-16T11:11:48.000Z</time>
        <extensions>
          <ns3:TrackPointExtension>
            <ns3:atemp>19.0</ns3:atemp>
          </ns3:TrackPointExtension>
        </extensions>
      </trkpt>
      <trkpt lat="42.6246660389006137847900390625" lon="19.8847000300884246826171875">
        <ele>1814</ele>
        <time>2026-06-16T11:11:49.000Z</time>
        <extensions>
          <ns3:TrackPointExtension>
            <ns3:atemp>19.0</ns3:atemp>
          </ns3:TrackPointExtension>
        </extensions>
      </trkpt>
      <trkpt lat="42.6246660389006137847900390625" lon="19.8847000300884246826171875">
        <ele>1814</ele>
        <time>2026-06-16T11:11:50.000Z</time>
        <extensions>
          <ns3:TrackPointExtension>
            <ns3:atemp>19.0</ns3:atemp>
          </ns3:TrackPointExtension>
        </extensions>
      </trkpt>
      <trkpt lat="42.6246660389006137847900390625" lon="19.8847000300884246826171875">
        <ele>1814</ele>
        <time>2026-06-16T11:11:51.000Z</time>
        <extensions>
          <ns3:TrackPointExtension>
            <ns3:atemp>19.0</ns3:atemp>
          </ns3:TrackPointExtension>
        </extensions>
      </trkpt>
      <trkpt lat="42.6246660389006137847900390625" lon="19.8847000300884246826171875">
        <ele>1814</ele>
        <time>2026-06-16T11:11:52.000Z</time>
        <extensions>
          <ns3:TrackPointExtension>
            <ns3:atemp>19.0</ns3:atemp>
          </ns3:TrackPointExtension>
        </extensions>
      </trkpt>
      <trkpt lat="42.6246660389006137847900390625" lon="19.8847000300884246826171875">
        <ele>1814</ele>
        <time>2026-06-16T11:11:53.000Z</time>
        <extensions>
          <ns3:TrackPointExtension>
            <ns3:atemp>19.0</ns3:atemp>
          </ns3:TrackPointExtension>
        </extensions>
      </trkpt>
      <trkpt lat="42.6246660389006137847900390625" lon="19.8847000300884246826171875">
        <ele>1814</ele>
        <time>2026-06-16T11:11:54.000Z</time>
        <extensions>
          <ns3:TrackPointExtension>
            <ns3:atemp>19.0</ns3:atemp>
          </ns3:TrackPointExtension>
        </extensions>
      </trkpt>
      <trkpt lat="42.6246660389006137847900390625" lon="19.8847000300884246826171875">
        <ele>1814</ele>
        <time>2026-06-16T11:11:55.000Z</time>
        <extensions>
          <ns3:TrackPointExtension>
            <ns3:atemp>19.0</ns3:atemp>
          </ns3:TrackPointExtension>
        </extensions>
      </trkpt>
      <trkpt lat="42.6246660389006137847900390625" lon="19.8847000300884246826171875">
        <ele>1814</ele>
        <time>2026-06-16T11:11:56.000Z</time>
        <extensions>
          <ns3:TrackPointExtension>
            <ns3:atemp>19.0</ns3:atemp>
          </ns3:TrackPointExtension>
        </extensions>
      </trkpt>
      <trkpt lat="42.6246660389006137847900390625" lon="19.8847000300884246826171875">
        <ele>1814</ele>
        <time>2026-06-16T11:11:57.000Z</time>
        <extensions>
          <ns3:TrackPointExtension>
            <ns3:atemp>19.0</ns3:atemp>
          </ns3:TrackPointExtension>
        </extensions>
      </trkpt>
      <trkpt lat="42.6246660389006137847900390625" lon="19.8847000300884246826171875">
        <ele>1814</ele>
        <time>2026-06-16T11:11:58.000Z</time>
        <extensions>
          <ns3:TrackPointExtension>
            <ns3:atemp>19.0</ns3:atemp>
          </ns3:TrackPointExtension>
        </extensions>
      </trkpt>
      <trkpt lat="42.6246660389006137847900390625" lon="19.8847000300884246826171875">
        <ele>1814</ele>
        <time>2026-06-16T11:11:59.000Z</time>
        <extensions>
          <ns3:TrackPointExtension>
            <ns3:atemp>19.0</ns3:atemp>
          </ns3:TrackPointExtension>
        </extensions>
      </trkpt>
      <trkpt lat="42.6246660389006137847900390625" lon="19.8847000300884246826171875">
        <ele>1814</ele>
        <time>2026-06-16T11:12:00.000Z</time>
        <extensions>
          <ns3:TrackPointExtension>
            <ns3:atemp>19.0</ns3:atemp>
          </ns3:TrackPointExtension>
        </extensions>
      </trkpt>
      <trkpt lat="42.6246660389006137847900390625" lon="19.8847000300884246826171875">
        <ele>1814</ele>
        <time>2026-06-16T11:12:01.000Z</time>
        <extensions>
          <ns3:TrackPointExtension>
            <ns3:atemp>19.0</ns3:atemp>
          </ns3:TrackPointExtension>
        </extensions>
      </trkpt>
      <trkpt lat="42.6246660389006137847900390625" lon="19.8847000300884246826171875">
        <ele>1814</ele>
        <time>2026-06-16T11:12:02.000Z</time>
        <extensions>
          <ns3:TrackPointExtension>
            <ns3:atemp>19.0</ns3:atemp>
          </ns3:TrackPointExtension>
        </extensions>
      </trkpt>
      <trkpt lat="42.6246660389006137847900390625" lon="19.8847000300884246826171875">
        <ele>1814</ele>
        <time>2026-06-16T11:12:03.000Z</time>
        <extensions>
          <ns3:TrackPointExtension>
            <ns3:atemp>19.0</ns3:atemp>
          </ns3:TrackPointExtension>
        </extensions>
      </trkpt>
      <trkpt lat="42.6246660389006137847900390625" lon="19.8847000300884246826171875">
        <ele>1814</ele>
        <time>2026-06-16T11:12:04.000Z</time>
        <extensions>
          <ns3:TrackPointExtension>
            <ns3:atemp>19.0</ns3:atemp>
          </ns3:TrackPointExtension>
        </extensions>
      </trkpt>
      <trkpt lat="42.6246660389006137847900390625" lon="19.8847000300884246826171875">
        <ele>1814</ele>
        <time>2026-06-16T11:12:05.000Z</time>
        <extensions>
          <ns3:TrackPointExtension>
            <ns3:atemp>19.0</ns3:atemp>
          </ns3:TrackPointExtension>
        </extensions>
      </trkpt>
      <trkpt lat="42.6246660389006137847900390625" lon="19.8847000300884246826171875">
        <ele>1814</ele>
        <time>2026-06-16T11:12:06.000Z</time>
        <extensions>
          <ns3:TrackPointExtension>
            <ns3:atemp>19.0</ns3:atemp>
          </ns3:TrackPointExtension>
        </extensions>
      </trkpt>
      <trkpt lat="42.6246660389006137847900390625" lon="19.8847000300884246826171875">
        <ele>1814</ele>
        <time>2026-06-16T11:12:07.000Z</time>
        <extensions>
          <ns3:TrackPointExtension>
            <ns3:atemp>19.0</ns3:atemp>
          </ns3:TrackPointExtension>
        </extensions>
      </trkpt>
      <trkpt lat="42.6246660389006137847900390625" lon="19.8847000300884246826171875">
        <ele>1814</ele>
        <time>2026-06-16T11:12:08.000Z</time>
        <extensions>
          <ns3:TrackPointExtension>
            <ns3:atemp>19.0</ns3:atemp>
          </ns3:TrackPointExtension>
        </extensions>
      </trkpt>
      <trkpt lat="42.6246660389006137847900390625" lon="19.8847000300884246826171875">
        <ele>1814</ele>
        <time>2026-06-16T11:12:09.000Z</time>
        <extensions>
          <ns3:TrackPointExtension>
            <ns3:atemp>19.0</ns3:atemp>
          </ns3:TrackPointExtension>
        </extensions>
      </trkpt>
      <trkpt lat="42.6246660389006137847900390625" lon="19.8847000300884246826171875">
        <ele>1814</ele>
        <time>2026-06-16T11:12:10.000Z</time>
        <extensions>
          <ns3:TrackPointExtension>
            <ns3:atemp>19.0</ns3:atemp>
          </ns3:TrackPointExtension>
        </extensions>
      </trkpt>
      <trkpt lat="42.6246660389006137847900390625" lon="19.8847000300884246826171875">
        <ele>1814</ele>
        <time>2026-06-16T11:12:11.000Z</time>
        <extensions>
          <ns3:TrackPointExtension>
            <ns3:atemp>19.0</ns3:atemp>
          </ns3:TrackPointExtension>
        </extensions>
      </trkpt>
      <trkpt lat="42.6246660389006137847900390625" lon="19.8847000300884246826171875">
        <ele>1814</ele>
        <time>2026-06-16T11:12:12.000Z</time>
        <extensions>
          <ns3:TrackPointExtension>
            <ns3:atemp>19.0</ns3:atemp>
          </ns3:TrackPointExtension>
        </extensions>
      </trkpt>
      <trkpt lat="42.6246660389006137847900390625" lon="19.8847000300884246826171875">
        <ele>1814</ele>
        <time>2026-06-16T11:12:13.000Z</time>
        <extensions>
          <ns3:TrackPointExtension>
            <ns3:atemp>19.0</ns3:atemp>
          </ns3:TrackPointExtension>
        </extensions>
      </trkpt>
      <trkpt lat="42.6246660389006137847900390625" lon="19.8847000300884246826171875">
        <ele>1814</ele>
        <time>2026-06-16T11:12:14.000Z</time>
        <extensions>
          <ns3:TrackPointExtension>
            <ns3:atemp>19.0</ns3:atemp>
          </ns3:TrackPointExtension>
        </extensions>
      </trkpt>
      <trkpt lat="42.6246660389006137847900390625" lon="19.8847000300884246826171875">
        <ele>1814</ele>
        <time>2026-06-16T11:12:15.000Z</time>
        <extensions>
          <ns3:TrackPointExtension>
            <ns3:atemp>19.0</ns3:atemp>
          </ns3:TrackPointExtension>
        </extensions>
      </trkpt>
      <trkpt lat="42.6246660389006137847900390625" lon="19.8847000300884246826171875">
        <ele>1814</ele>
        <time>2026-06-16T11:12:16.000Z</time>
        <extensions>
          <ns3:TrackPointExtension>
            <ns3:atemp>19.0</ns3:atemp>
          </ns3:TrackPointExtension>
        </extensions>
      </trkpt>
      <trkpt lat="42.6246660389006137847900390625" lon="19.8847000300884246826171875">
        <ele>1814</ele>
        <time>2026-06-16T11:12:17.000Z</time>
        <extensions>
          <ns3:TrackPointExtension>
            <ns3:atemp>19.0</ns3:atemp>
          </ns3:TrackPointExtension>
        </extensions>
      </trkpt>
      <trkpt lat="42.6246660389006137847900390625" lon="19.8847000300884246826171875">
        <ele>1814</ele>
        <time>2026-06-16T11:12:18.000Z</time>
        <extensions>
          <ns3:TrackPointExtension>
            <ns3:atemp>19.0</ns3:atemp>
          </ns3:TrackPointExtension>
        </extensions>
      </trkpt>
      <trkpt lat="42.6246660389006137847900390625" lon="19.8847000300884246826171875">
        <ele>1814</ele>
        <time>2026-06-16T11:12:19.000Z</time>
        <extensions>
          <ns3:TrackPointExtension>
            <ns3:atemp>19.0</ns3:atemp>
          </ns3:TrackPointExtension>
        </extensions>
      </trkpt>
      <trkpt lat="42.6246660389006137847900390625" lon="19.8847000300884246826171875">
        <ele>1814</ele>
        <time>2026-06-16T11:12:20.000Z</time>
        <extensions>
          <ns3:TrackPointExtension>
            <ns3:atemp>19.0</ns3:atemp>
          </ns3:TrackPointExtension>
        </extensions>
      </trkpt>
      <trkpt lat="42.6246660389006137847900390625" lon="19.8847000300884246826171875">
        <ele>1814</ele>
        <time>2026-06-16T11:12:21.000Z</time>
        <extensions>
          <ns3:TrackPointExtension>
            <ns3:atemp>19.0</ns3:atemp>
          </ns3:TrackPointExtension>
        </extensions>
      </trkpt>
      <trkpt lat="42.6246660389006137847900390625" lon="19.8847000300884246826171875">
        <ele>1814</ele>
        <time>2026-06-16T11:12:22.000Z</time>
        <extensions>
          <ns3:TrackPointExtension>
            <ns3:atemp>19.0</ns3:atemp>
          </ns3:TrackPointExtension>
        </extensions>
      </trkpt>
      <trkpt lat="42.6246660389006137847900390625" lon="19.8847000300884246826171875">
        <ele>1814</ele>
        <time>2026-06-16T11:12:23.000Z</time>
        <extensions>
          <ns3:TrackPointExtension>
            <ns3:atemp>19.0</ns3:atemp>
          </ns3:TrackPointExtension>
        </extensions>
      </trkpt>
      <trkpt lat="42.6246660389006137847900390625" lon="19.8847000300884246826171875">
        <ele>1814</ele>
        <time>2026-06-16T11:12:24.000Z</time>
        <extensions>
          <ns3:TrackPointExtension>
            <ns3:atemp>19.0</ns3:atemp>
          </ns3:TrackPointExtension>
        </extensions>
      </trkpt>
      <trkpt lat="42.6246660389006137847900390625" lon="19.8847000300884246826171875">
        <ele>1814</ele>
        <time>2026-06-16T11:12:25.000Z</time>
        <extensions>
          <ns3:TrackPointExtension>
            <ns3:atemp>19.0</ns3:atemp>
          </ns3:TrackPointExtension>
        </extensions>
      </trkpt>
      <trkpt lat="42.6246660389006137847900390625" lon="19.8847000300884246826171875">
        <ele>1814</ele>
        <time>2026-06-16T11:12:26.000Z</time>
        <extensions>
          <ns3:TrackPointExtension>
            <ns3:atemp>19.0</ns3:atemp>
          </ns3:TrackPointExtension>
        </extensions>
      </trkpt>
      <trkpt lat="42.6246660389006137847900390625" lon="19.8847000300884246826171875">
        <ele>1814</ele>
        <time>2026-06-16T11:12:27.000Z</time>
        <extensions>
          <ns3:TrackPointExtension>
            <ns3:atemp>19.0</ns3:atemp>
          </ns3:TrackPointExtension>
        </extensions>
      </trkpt>
      <trkpt lat="42.6246660389006137847900390625" lon="19.8847000300884246826171875">
        <ele>1814</ele>
        <time>2026-06-16T11:12:28.000Z</time>
        <extensions>
          <ns3:TrackPointExtension>
            <ns3:atemp>19.0</ns3:atemp>
          </ns3:TrackPointExtension>
        </extensions>
      </trkpt>
      <trkpt lat="42.6246660389006137847900390625" lon="19.8847000300884246826171875">
        <ele>1814</ele>
        <time>2026-06-16T11:12:29.000Z</time>
        <extensions>
          <ns3:TrackPointExtension>
            <ns3:atemp>19.0</ns3:atemp>
          </ns3:TrackPointExtension>
        </extensions>
      </trkpt>
      <trkpt lat="42.6246660389006137847900390625" lon="19.8847000300884246826171875">
        <ele>1814</ele>
        <time>2026-06-16T11:12:30.000Z</time>
        <extensions>
          <ns3:TrackPointExtension>
            <ns3:atemp>19.0</ns3:atemp>
          </ns3:TrackPointExtension>
        </extensions>
      </trkpt>
      <trkpt lat="42.6246660389006137847900390625" lon="19.8847000300884246826171875">
        <ele>1814</ele>
        <time>2026-06-16T11:12:31.000Z</time>
        <extensions>
          <ns3:TrackPointExtension>
            <ns3:atemp>19.0</ns3:atemp>
          </ns3:TrackPointExtension>
        </extensions>
      </trkpt>
      <trkpt lat="42.6246660389006137847900390625" lon="19.8847000300884246826171875">
        <ele>1814</ele>
        <time>2026-06-16T11:12:32.000Z</time>
        <extensions>
          <ns3:TrackPointExtension>
            <ns3:atemp>19.0</ns3:atemp>
          </ns3:TrackPointExtension>
        </extensions>
      </trkpt>
      <trkpt lat="42.6246660389006137847900390625" lon="19.8847000300884246826171875">
        <ele>1814</ele>
        <time>2026-06-16T11:12:33.000Z</time>
        <extensions>
          <ns3:TrackPointExtension>
            <ns3:atemp>19.0</ns3:atemp>
          </ns3:TrackPointExtension>
        </extensions>
      </trkpt>
      <trkpt lat="42.6246660389006137847900390625" lon="19.8847000300884246826171875">
        <ele>1814</ele>
        <time>2026-06-16T11:12:34.000Z</time>
        <extensions>
          <ns3:TrackPointExtension>
            <ns3:atemp>19.0</ns3:atemp>
          </ns3:TrackPointExtension>
        </extensions>
      </trkpt>
      <trkpt lat="42.6246660389006137847900390625" lon="19.8847000300884246826171875">
        <ele>1814</ele>
        <time>2026-06-16T11:12:35.000Z</time>
        <extensions>
          <ns3:TrackPointExtension>
            <ns3:atemp>19.0</ns3:atemp>
          </ns3:TrackPointExtension>
        </extensions>
      </trkpt>
      <trkpt lat="42.6246660389006137847900390625" lon="19.8847000300884246826171875">
        <ele>1814</ele>
        <time>2026-06-16T11:12:36.000Z</time>
        <extensions>
          <ns3:TrackPointExtension>
            <ns3:atemp>19.0</ns3:atemp>
          </ns3:TrackPointExtension>
        </extensions>
      </trkpt>
      <trkpt lat="42.6246660389006137847900390625" lon="19.8847000300884246826171875">
        <ele>1814</ele>
        <time>2026-06-16T11:12:37.000Z</time>
        <extensions>
          <ns3:TrackPointExtension>
            <ns3:atemp>19.0</ns3:atemp>
          </ns3:TrackPointExtension>
        </extensions>
      </trkpt>
      <trkpt lat="42.6246660389006137847900390625" lon="19.8847000300884246826171875">
        <ele>1814</ele>
        <time>2026-06-16T11:12:38.000Z</time>
        <extensions>
          <ns3:TrackPointExtension>
            <ns3:atemp>19.0</ns3:atemp>
          </ns3:TrackPointExtension>
        </extensions>
      </trkpt>
      <trkpt lat="42.6246660389006137847900390625" lon="19.8847000300884246826171875">
        <ele>1814</ele>
        <time>2026-06-16T11:12:39.000Z</time>
        <extensions>
          <ns3:TrackPointExtension>
            <ns3:atemp>19.0</ns3:atemp>
          </ns3:TrackPointExtension>
        </extensions>
      </trkpt>
      <trkpt lat="42.6246660389006137847900390625" lon="19.8847000300884246826171875">
        <ele>1814</ele>
        <time>2026-06-16T11:12:40.000Z</time>
        <extensions>
          <ns3:TrackPointExtension>
            <ns3:atemp>19.0</ns3:atemp>
          </ns3:TrackPointExtension>
        </extensions>
      </trkpt>
      <trkpt lat="42.6246660389006137847900390625" lon="19.8847000300884246826171875">
        <ele>1814</ele>
        <time>2026-06-16T11:12:41.000Z</time>
        <extensions>
          <ns3:TrackPointExtension>
            <ns3:atemp>19.0</ns3:atemp>
          </ns3:TrackPointExtension>
        </extensions>
      </trkpt>
      <trkpt lat="42.6246660389006137847900390625" lon="19.8847000300884246826171875">
        <ele>1814</ele>
        <time>2026-06-16T11:12:42.000Z</time>
        <extensions>
          <ns3:TrackPointExtension>
            <ns3:atemp>19.0</ns3:atemp>
          </ns3:TrackPointExtension>
        </extensions>
      </trkpt>
      <trkpt lat="42.6246660389006137847900390625" lon="19.8847000300884246826171875">
        <ele>1814</ele>
        <time>2026-06-16T11:12:43.000Z</time>
        <extensions>
          <ns3:TrackPointExtension>
            <ns3:atemp>19.0</ns3:atemp>
          </ns3:TrackPointExtension>
        </extensions>
      </trkpt>
      <trkpt lat="42.6246660389006137847900390625" lon="19.8847000300884246826171875">
        <ele>1814</ele>
        <time>2026-06-16T11:12:44.000Z</time>
        <extensions>
          <ns3:TrackPointExtension>
            <ns3:atemp>20.0</ns3:atemp>
          </ns3:TrackPointExtension>
        </extensions>
      </trkpt>
      <trkpt lat="42.6246660389006137847900390625" lon="19.8847000300884246826171875">
        <ele>1814</ele>
        <time>2026-06-16T11:12:45.000Z</time>
        <extensions>
          <ns3:TrackPointExtension>
            <ns3:atemp>20.0</ns3:atemp>
          </ns3:TrackPointExtension>
        </extensions>
      </trkpt>
      <trkpt lat="42.6246660389006137847900390625" lon="19.8847000300884246826171875">
        <ele>1814</ele>
        <time>2026-06-16T11:12:46.000Z</time>
        <extensions>
          <ns3:TrackPointExtension>
            <ns3:atemp>20.0</ns3:atemp>
          </ns3:TrackPointExtension>
        </extensions>
      </trkpt>
      <trkpt lat="42.6246660389006137847900390625" lon="19.8847000300884246826171875">
        <ele>1814</ele>
        <time>2026-06-16T11:12:47.000Z</time>
        <extensions>
          <ns3:TrackPointExtension>
            <ns3:atemp>19.0</ns3:atemp>
          </ns3:TrackPointExtension>
        </extensions>
      </trkpt>
      <trkpt lat="42.6246660389006137847900390625" lon="19.8847000300884246826171875">
        <ele>1814</ele>
        <time>2026-06-16T11:12:48.000Z</time>
        <extensions>
          <ns3:TrackPointExtension>
            <ns3:atemp>19.0</ns3:atemp>
          </ns3:TrackPointExtension>
        </extensions>
      </trkpt>
      <trkpt lat="42.6246660389006137847900390625" lon="19.8847000300884246826171875">
        <ele>1814</ele>
        <time>2026-06-16T11:12:49.000Z</time>
        <extensions>
          <ns3:TrackPointExtension>
            <ns3:atemp>19.0</ns3:atemp>
          </ns3:TrackPointExtension>
        </extensions>
      </trkpt>
      <trkpt lat="42.6246660389006137847900390625" lon="19.8847000300884246826171875">
        <ele>1814</ele>
        <time>2026-06-16T11:12:50.000Z</time>
        <extensions>
          <ns3:TrackPointExtension>
            <ns3:atemp>19.0</ns3:atemp>
          </ns3:TrackPointExtension>
        </extensions>
      </trkpt>
      <trkpt lat="42.6246660389006137847900390625" lon="19.8847000300884246826171875">
        <ele>1814</ele>
        <time>2026-06-16T11:12:51.000Z</time>
        <extensions>
          <ns3:TrackPointExtension>
            <ns3:atemp>19.0</ns3:atemp>
          </ns3:TrackPointExtension>
        </extensions>
      </trkpt>
      <trkpt lat="42.6246660389006137847900390625" lon="19.8847000300884246826171875">
        <ele>1814</ele>
        <time>2026-06-16T11:12:52.000Z</time>
        <extensions>
          <ns3:TrackPointExtension>
            <ns3:atemp>19.0</ns3:atemp>
          </ns3:TrackPointExtension>
        </extensions>
      </trkpt>
      <trkpt lat="42.6246660389006137847900390625" lon="19.8847000300884246826171875">
        <ele>1814</ele>
        <time>2026-06-16T11:12:53.000Z</time>
        <extensions>
          <ns3:TrackPointExtension>
            <ns3:atemp>19.0</ns3:atemp>
          </ns3:TrackPointExtension>
        </extensions>
      </trkpt>
      <trkpt lat="42.6246660389006137847900390625" lon="19.8847000300884246826171875">
        <ele>1814</ele>
        <time>2026-06-16T11:12:54.000Z</time>
        <extensions>
          <ns3:TrackPointExtension>
            <ns3:atemp>19.0</ns3:atemp>
          </ns3:TrackPointExtension>
        </extensions>
      </trkpt>
      <trkpt lat="42.6246660389006137847900390625" lon="19.8847000300884246826171875">
        <ele>1814</ele>
        <time>2026-06-16T11:12:55.000Z</time>
        <extensions>
          <ns3:TrackPointExtension>
            <ns3:atemp>19.0</ns3:atemp>
          </ns3:TrackPointExtension>
        </extensions>
      </trkpt>
      <trkpt lat="42.6246660389006137847900390625" lon="19.8847000300884246826171875">
        <ele>1814</ele>
        <time>2026-06-16T11:12:56.000Z</time>
        <extensions>
          <ns3:TrackPointExtension>
            <ns3:atemp>20.0</ns3:atemp>
          </ns3:TrackPointExtension>
        </extensions>
      </trkpt>
      <trkpt lat="42.6246660389006137847900390625" lon="19.8847000300884246826171875">
        <ele>1814</ele>
        <time>2026-06-16T11:12:57.000Z</time>
        <extensions>
          <ns3:TrackPointExtension>
            <ns3:atemp>20.0</ns3:atemp>
          </ns3:TrackPointExtension>
        </extensions>
      </trkpt>
      <trkpt lat="42.6246660389006137847900390625" lon="19.8847000300884246826171875">
        <ele>1814</ele>
        <time>2026-06-16T11:12:58.000Z</time>
        <extensions>
          <ns3:TrackPointExtension>
            <ns3:atemp>20.0</ns3:atemp>
          </ns3:TrackPointExtension>
        </extensions>
      </trkpt>
      <trkpt lat="42.6246660389006137847900390625" lon="19.8847000300884246826171875">
        <ele>1814</ele>
        <time>2026-06-16T11:12:59.000Z</time>
        <extensions>
          <ns3:TrackPointExtension>
            <ns3:atemp>20.0</ns3:atemp>
          </ns3:TrackPointExtension>
        </extensions>
      </trkpt>
      <trkpt lat="42.6246660389006137847900390625" lon="19.8847000300884246826171875">
        <ele>1814</ele>
        <time>2026-06-16T11:13:00.000Z</time>
        <extensions>
          <ns3:TrackPointExtension>
            <ns3:atemp>20.0</ns3:atemp>
          </ns3:TrackPointExtension>
        </extensions>
      </trkpt>
      <trkpt lat="42.6246660389006137847900390625" lon="19.8847000300884246826171875">
        <ele>1814</ele>
        <time>2026-06-16T11:13:01.000Z</time>
        <extensions>
          <ns3:TrackPointExtension>
            <ns3:atemp>20.0</ns3:atemp>
          </ns3:TrackPointExtension>
        </extensions>
      </trkpt>
      <trkpt lat="42.6246660389006137847900390625" lon="19.8847000300884246826171875">
        <ele>1814</ele>
        <time>2026-06-16T11:13:02.000Z</time>
        <extensions>
          <ns3:TrackPointExtension>
            <ns3:atemp>20.0</ns3:atemp>
          </ns3:TrackPointExtension>
        </extensions>
      </trkpt>
      <trkpt lat="42.6246660389006137847900390625" lon="19.8847000300884246826171875">
        <ele>1814</ele>
        <time>2026-06-16T11:13:03.000Z</time>
        <extensions>
          <ns3:TrackPointExtension>
            <ns3:atemp>20.0</ns3:atemp>
          </ns3:TrackPointExtension>
        </extensions>
      </trkpt>
      <trkpt lat="42.6246660389006137847900390625" lon="19.8847000300884246826171875">
        <ele>1814</ele>
        <time>2026-06-16T11:13:04.000Z</time>
        <extensions>
          <ns3:TrackPointExtension>
            <ns3:atemp>20.0</ns3:atemp>
          </ns3:TrackPointExtension>
        </extensions>
      </trkpt>
      <trkpt lat="42.6246660389006137847900390625" lon="19.8847000300884246826171875">
        <ele>1814</ele>
        <time>2026-06-16T11:13:05.000Z</time>
        <extensions>
          <ns3:TrackPointExtension>
            <ns3:atemp>20.0</ns3:atemp>
          </ns3:TrackPointExtension>
        </extensions>
      </trkpt>
      <trkpt lat="42.6246660389006137847900390625" lon="19.8847000300884246826171875">
        <ele>1814</ele>
        <time>2026-06-16T11:13:06.000Z</time>
        <extensions>
          <ns3:TrackPointExtension>
            <ns3:atemp>20.0</ns3:atemp>
          </ns3:TrackPointExtension>
        </extensions>
      </trkpt>
      <trkpt lat="42.6246660389006137847900390625" lon="19.8847000300884246826171875">
        <ele>1814</ele>
        <time>2026-06-16T11:13:07.000Z</time>
        <extensions>
          <ns3:TrackPointExtension>
            <ns3:atemp>20.0</ns3:atemp>
          </ns3:TrackPointExtension>
        </extensions>
      </trkpt>
      <trkpt lat="42.6246660389006137847900390625" lon="19.8847000300884246826171875">
        <ele>1814</ele>
        <time>2026-06-16T11:13:08.000Z</time>
        <extensions>
          <ns3:TrackPointExtension>
            <ns3:atemp>20.0</ns3:atemp>
          </ns3:TrackPointExtension>
        </extensions>
      </trkpt>
      <trkpt lat="42.6246660389006137847900390625" lon="19.8847000300884246826171875">
        <ele>1814</ele>
        <time>2026-06-16T11:13:09.000Z</time>
        <extensions>
          <ns3:TrackPointExtension>
            <ns3:atemp>20.0</ns3:atemp>
          </ns3:TrackPointExtension>
        </extensions>
      </trkpt>
      <trkpt lat="42.6246660389006137847900390625" lon="19.8847000300884246826171875">
        <ele>1814</ele>
        <time>2026-06-16T11:13:10.000Z</time>
        <extensions>
          <ns3:TrackPointExtension>
            <ns3:atemp>20.0</ns3:atemp>
          </ns3:TrackPointExtension>
        </extensions>
      </trkpt>
      <trkpt lat="42.6246660389006137847900390625" lon="19.8847000300884246826171875">
        <ele>1814</ele>
        <time>2026-06-16T11:13:11.000Z</time>
        <extensions>
          <ns3:TrackPointExtension>
            <ns3:atemp>20.0</ns3:atemp>
          </ns3:TrackPointExtension>
        </extensions>
      </trkpt>
      <trkpt lat="42.6246660389006137847900390625" lon="19.8847000300884246826171875">
        <ele>1814</ele>
        <time>2026-06-16T11:13:12.000Z</time>
        <extensions>
          <ns3:TrackPointExtension>
            <ns3:atemp>20.0</ns3:atemp>
          </ns3:TrackPointExtension>
        </extensions>
      </trkpt>
      <trkpt lat="42.6246660389006137847900390625" lon="19.8847000300884246826171875">
        <ele>1814</ele>
        <time>2026-06-16T11:13:13.000Z</time>
        <extensions>
          <ns3:TrackPointExtension>
            <ns3:atemp>20.0</ns3:atemp>
          </ns3:TrackPointExtension>
        </extensions>
      </trkpt>
      <trkpt lat="42.6246660389006137847900390625" lon="19.8847000300884246826171875">
        <ele>1814</ele>
        <time>2026-06-16T11:13:14.000Z</time>
        <extensions>
          <ns3:TrackPointExtension>
            <ns3:atemp>20.0</ns3:atemp>
          </ns3:TrackPointExtension>
        </extensions>
      </trkpt>
      <trkpt lat="42.6246660389006137847900390625" lon="19.8847000300884246826171875">
        <ele>1814</ele>
        <time>2026-06-16T11:13:15.000Z</time>
        <extensions>
          <ns3:TrackPointExtension>
            <ns3:atemp>20.0</ns3:atemp>
          </ns3:TrackPointExtension>
        </extensions>
      </trkpt>
      <trkpt lat="42.6246660389006137847900390625" lon="19.8847000300884246826171875">
        <ele>1814</ele>
        <time>2026-06-16T11:13:16.000Z</time>
        <extensions>
          <ns3:TrackPointExtension>
            <ns3:atemp>20.0</ns3:atemp>
          </ns3:TrackPointExtension>
        </extensions>
      </trkpt>
      <trkpt lat="42.6246660389006137847900390625" lon="19.8847000300884246826171875">
        <ele>1814</ele>
        <time>2026-06-16T11:13:17.000Z</time>
        <extensions>
          <ns3:TrackPointExtension>
            <ns3:atemp>20.0</ns3:atemp>
          </ns3:TrackPointExtension>
        </extensions>
      </trkpt>
      <trkpt lat="42.6246660389006137847900390625" lon="19.8847000300884246826171875">
        <ele>1814</ele>
        <time>2026-06-16T11:13:18.000Z</time>
        <extensions>
          <ns3:TrackPointExtension>
            <ns3:atemp>20.0</ns3:atemp>
          </ns3:TrackPointExtension>
        </extensions>
      </trkpt>
      <trkpt lat="42.6246660389006137847900390625" lon="19.8847000300884246826171875">
        <ele>1814</ele>
        <time>2026-06-16T11:13:19.000Z</time>
        <extensions>
          <ns3:TrackPointExtension>
            <ns3:atemp>20.0</ns3:atemp>
          </ns3:TrackPointExtension>
        </extensions>
      </trkpt>
      <trkpt lat="42.6246660389006137847900390625" lon="19.8847000300884246826171875">
        <ele>1814</ele>
        <time>2026-06-16T11:13:20.000Z</time>
        <extensions>
          <ns3:TrackPointExtension>
            <ns3:atemp>20.0</ns3:atemp>
          </ns3:TrackPointExtension>
        </extensions>
      </trkpt>
      <trkpt lat="42.6246660389006137847900390625" lon="19.8847000300884246826171875">
        <ele>1814</ele>
        <time>2026-06-16T11:13:21.000Z</time>
        <extensions>
          <ns3:TrackPointExtension>
            <ns3:atemp>20.0</ns3:atemp>
          </ns3:TrackPointExtension>
        </extensions>
      </trkpt>
      <trkpt lat="42.6246660389006137847900390625" lon="19.8847000300884246826171875">
        <ele>1814</ele>
        <time>2026-06-16T11:13:22.000Z</time>
        <extensions>
          <ns3:TrackPointExtension>
            <ns3:atemp>20.0</ns3:atemp>
          </ns3:TrackPointExtension>
        </extensions>
      </trkpt>
      <trkpt lat="42.6246660389006137847900390625" lon="19.8847000300884246826171875">
        <ele>1814</ele>
        <time>2026-06-16T11:13:23.000Z</time>
        <extensions>
          <ns3:TrackPointExtension>
            <ns3:atemp>20.0</ns3:atemp>
          </ns3:TrackPointExtension>
        </extensions>
      </trkpt>
      <trkpt lat="42.6246660389006137847900390625" lon="19.8847000300884246826171875">
        <ele>1814</ele>
        <time>2026-06-16T11:13:24.000Z</time>
        <extensions>
          <ns3:TrackPointExtension>
            <ns3:atemp>20.0</ns3:atemp>
          </ns3:TrackPointExtension>
        </extensions>
      </trkpt>
      <trkpt lat="42.6246660389006137847900390625" lon="19.8847000300884246826171875">
        <ele>1814</ele>
        <time>2026-06-16T11:13:25.000Z</time>
        <extensions>
          <ns3:TrackPointExtension>
            <ns3:atemp>20.0</ns3:atemp>
          </ns3:TrackPointExtension>
        </extensions>
      </trkpt>
      <trkpt lat="42.6246660389006137847900390625" lon="19.8847000300884246826171875">
        <ele>1814</ele>
        <time>2026-06-16T11:13:26.000Z</time>
        <extensions>
          <ns3:TrackPointExtension>
            <ns3:atemp>20.0</ns3:atemp>
          </ns3:TrackPointExtension>
        </extensions>
      </trkpt>
      <trkpt lat="42.6246660389006137847900390625" lon="19.8847000300884246826171875">
        <ele>1814</ele>
        <time>2026-06-16T11:13:27.000Z</time>
        <extensions>
          <ns3:TrackPointExtension>
            <ns3:atemp>20.0</ns3:atemp>
          </ns3:TrackPointExtension>
        </extensions>
      </trkpt>
      <trkpt lat="42.6246660389006137847900390625" lon="19.8847000300884246826171875">
        <ele>1814</ele>
        <time>2026-06-16T11:13:28.000Z</time>
        <extensions>
          <ns3:TrackPointExtension>
            <ns3:atemp>20.0</ns3:atemp>
          </ns3:TrackPointExtension>
        </extensions>
      </trkpt>
      <trkpt lat="42.6246660389006137847900390625" lon="19.8847000300884246826171875">
        <ele>1814</ele>
        <time>2026-06-16T11:13:29.000Z</time>
        <extensions>
          <ns3:TrackPointExtension>
            <ns3:atemp>20.0</ns3:atemp>
          </ns3:TrackPointExtension>
        </extensions>
      </trkpt>
      <trkpt lat="42.6246660389006137847900390625" lon="19.8847000300884246826171875">
        <ele>1814</ele>
        <time>2026-06-16T11:13:30.000Z</time>
        <extensions>
          <ns3:TrackPointExtension>
            <ns3:atemp>20.0</ns3:atemp>
          </ns3:TrackPointExtension>
        </extensions>
      </trkpt>
      <trkpt lat="42.6246660389006137847900390625" lon="19.8847000300884246826171875">
        <ele>1814</ele>
        <time>2026-06-16T11:13:31.000Z</time>
        <extensions>
          <ns3:TrackPointExtension>
            <ns3:atemp>20.0</ns3:atemp>
          </ns3:TrackPointExtension>
        </extensions>
      </trkpt>
      <trkpt lat="42.6246660389006137847900390625" lon="19.8847000300884246826171875">
        <ele>1814</ele>
        <time>2026-06-16T11:13:32.000Z</time>
        <extensions>
          <ns3:TrackPointExtension>
            <ns3:atemp>20.0</ns3:atemp>
          </ns3:TrackPointExtension>
        </extensions>
      </trkpt>
      <trkpt lat="42.6246660389006137847900390625" lon="19.8847000300884246826171875">
        <ele>1814</ele>
        <time>2026-06-16T11:13:33.000Z</time>
        <extensions>
          <ns3:TrackPointExtension>
            <ns3:atemp>20.0</ns3:atemp>
          </ns3:TrackPointExtension>
        </extensions>
      </trkpt>
      <trkpt lat="42.6246660389006137847900390625" lon="19.8847000300884246826171875">
        <ele>1814</ele>
        <time>2026-06-16T11:13:34.000Z</time>
        <extensions>
          <ns3:TrackPointExtension>
            <ns3:atemp>20.0</ns3:atemp>
          </ns3:TrackPointExtension>
        </extensions>
      </trkpt>
      <trkpt lat="42.6246660389006137847900390625" lon="19.8847000300884246826171875">
        <ele>1814</ele>
        <time>2026-06-16T11:13:35.000Z</time>
        <extensions>
          <ns3:TrackPointExtension>
            <ns3:atemp>20.0</ns3:atemp>
          </ns3:TrackPointExtension>
        </extensions>
      </trkpt>
      <trkpt lat="42.6246660389006137847900390625" lon="19.8847000300884246826171875">
        <ele>1814</ele>
        <time>2026-06-16T11:13:36.000Z</time>
        <extensions>
          <ns3:TrackPointExtension>
            <ns3:atemp>20.0</ns3:atemp>
          </ns3:TrackPointExtension>
        </extensions>
      </trkpt>
      <trkpt lat="42.6246660389006137847900390625" lon="19.8847000300884246826171875">
        <ele>1814</ele>
        <time>2026-06-16T11:13:37.000Z</time>
        <extensions>
          <ns3:TrackPointExtension>
            <ns3:atemp>20.0</ns3:atemp>
          </ns3:TrackPointExtension>
        </extensions>
      </trkpt>
      <trkpt lat="42.6246660389006137847900390625" lon="19.8847000300884246826171875">
        <ele>1814</ele>
        <time>2026-06-16T11:13:38.000Z</time>
        <extensions>
          <ns3:TrackPointExtension>
            <ns3:atemp>20.0</ns3:atemp>
          </ns3:TrackPointExtension>
        </extensions>
      </trkpt>
      <trkpt lat="42.6246660389006137847900390625" lon="19.8847000300884246826171875">
        <ele>1814</ele>
        <time>2026-06-16T11:13:39.000Z</time>
        <extensions>
          <ns3:TrackPointExtension>
            <ns3:atemp>20.0</ns3:atemp>
          </ns3:TrackPointExtension>
        </extensions>
      </trkpt>
      <trkpt lat="42.6246660389006137847900390625" lon="19.8847000300884246826171875">
        <ele>1814</ele>
        <time>2026-06-16T11:13:40.000Z</time>
        <extensions>
          <ns3:TrackPointExtension>
            <ns3:atemp>20.0</ns3:atemp>
          </ns3:TrackPointExtension>
        </extensions>
      </trkpt>
      <trkpt lat="42.6246660389006137847900390625" lon="19.8847000300884246826171875">
        <ele>1814</ele>
        <time>2026-06-16T11:13:41.000Z</time>
        <extensions>
          <ns3:TrackPointExtension>
            <ns3:atemp>20.0</ns3:atemp>
          </ns3:TrackPointExtension>
        </extensions>
      </trkpt>
      <trkpt lat="42.6246660389006137847900390625" lon="19.8847000300884246826171875">
        <ele>1814</ele>
        <time>2026-06-16T11:13:42.000Z</time>
        <extensions>
          <ns3:TrackPointExtension>
            <ns3:atemp>20.0</ns3:atemp>
          </ns3:TrackPointExtension>
        </extensions>
      </trkpt>
      <trkpt lat="42.6246660389006137847900390625" lon="19.8847000300884246826171875">
        <ele>1814</ele>
        <time>2026-06-16T11:13:43.000Z</time>
        <extensions>
          <ns3:TrackPointExtension>
            <ns3:atemp>20.0</ns3:atemp>
          </ns3:TrackPointExtension>
        </extensions>
      </trkpt>
      <trkpt lat="42.6246660389006137847900390625" lon="19.8847000300884246826171875">
        <ele>1814</ele>
        <time>2026-06-16T11:13:44.000Z</time>
        <extensions>
          <ns3:TrackPointExtension>
            <ns3:atemp>20.0</ns3:atemp>
          </ns3:TrackPointExtension>
        </extensions>
      </trkpt>
      <trkpt lat="42.6246660389006137847900390625" lon="19.8847000300884246826171875">
        <ele>1814</ele>
        <time>2026-06-16T11:13:45.000Z</time>
        <extensions>
          <ns3:TrackPointExtension>
            <ns3:atemp>20.0</ns3:atemp>
          </ns3:TrackPointExtension>
        </extensions>
      </trkpt>
      <trkpt lat="42.6246660389006137847900390625" lon="19.8847000300884246826171875">
        <ele>1814</ele>
        <time>2026-06-16T11:13:46.000Z</time>
        <extensions>
          <ns3:TrackPointExtension>
            <ns3:atemp>20.0</ns3:atemp>
          </ns3:TrackPointExtension>
        </extensions>
      </trkpt>
      <trkpt lat="42.6246660389006137847900390625" lon="19.8847000300884246826171875">
        <ele>1814</ele>
        <time>2026-06-16T11:13:47.000Z</time>
        <extensions>
          <ns3:TrackPointExtension>
            <ns3:atemp>20.0</ns3:atemp>
          </ns3:TrackPointExtension>
        </extensions>
      </trkpt>
      <trkpt lat="42.6246660389006137847900390625" lon="19.8847000300884246826171875">
        <ele>1814</ele>
        <time>2026-06-16T11:13:48.000Z</time>
        <extensions>
          <ns3:TrackPointExtension>
            <ns3:atemp>20.0</ns3:atemp>
          </ns3:TrackPointExtension>
        </extensions>
      </trkpt>
      <trkpt lat="42.6246660389006137847900390625" lon="19.8847000300884246826171875">
        <ele>1814</ele>
        <time>2026-06-16T11:13:49.000Z</time>
        <extensions>
          <ns3:TrackPointExtension>
            <ns3:atemp>20.0</ns3:atemp>
          </ns3:TrackPointExtension>
        </extensions>
      </trkpt>
      <trkpt lat="42.6246660389006137847900390625" lon="19.8847000300884246826171875">
        <ele>1814</ele>
        <time>2026-06-16T11:13:50.000Z</time>
        <extensions>
          <ns3:TrackPointExtension>
            <ns3:atemp>20.0</ns3:atemp>
          </ns3:TrackPointExtension>
        </extensions>
      </trkpt>
      <trkpt lat="42.6246660389006137847900390625" lon="19.8847000300884246826171875">
        <ele>1814</ele>
        <time>2026-06-16T11:13:51.000Z</time>
        <extensions>
          <ns3:TrackPointExtension>
            <ns3:atemp>20.0</ns3:atemp>
          </ns3:TrackPointExtension>
        </extensions>
      </trkpt>
      <trkpt lat="42.6246660389006137847900390625" lon="19.8847000300884246826171875">
        <ele>1814</ele>
        <time>2026-06-16T11:13:52.000Z</time>
        <extensions>
          <ns3:TrackPointExtension>
            <ns3:atemp>20.0</ns3:atemp>
          </ns3:TrackPointExtension>
        </extensions>
      </trkpt>
      <trkpt lat="42.6246660389006137847900390625" lon="19.8847000300884246826171875">
        <ele>1814</ele>
        <time>2026-06-16T11:13:53.000Z</time>
        <extensions>
          <ns3:TrackPointExtension>
            <ns3:atemp>20.0</ns3:atemp>
          </ns3:TrackPointExtension>
        </extensions>
      </trkpt>
      <trkpt lat="42.6246660389006137847900390625" lon="19.8847000300884246826171875">
        <ele>1814</ele>
        <time>2026-06-16T11:13:54.000Z</time>
        <extensions>
          <ns3:TrackPointExtension>
            <ns3:atemp>20.0</ns3:atemp>
          </ns3:TrackPointExtension>
        </extensions>
      </trkpt>
      <trkpt lat="42.6246660389006137847900390625" lon="19.8847000300884246826171875">
        <ele>1814</ele>
        <time>2026-06-16T11:13:55.000Z</time>
        <extensions>
          <ns3:TrackPointExtension>
            <ns3:atemp>20.0</ns3:atemp>
          </ns3:TrackPointExtension>
        </extensions>
      </trkpt>
      <trkpt lat="42.6246660389006137847900390625" lon="19.8847000300884246826171875">
        <ele>1814</ele>
        <time>2026-06-16T11:13:56.000Z</time>
        <extensions>
          <ns3:TrackPointExtension>
            <ns3:atemp>20.0</ns3:atemp>
          </ns3:TrackPointExtension>
        </extensions>
      </trkpt>
      <trkpt lat="42.6246660389006137847900390625" lon="19.8847000300884246826171875">
        <ele>1814</ele>
        <time>2026-06-16T11:13:57.000Z</time>
        <extensions>
          <ns3:TrackPointExtension>
            <ns3:atemp>20.0</ns3:atemp>
          </ns3:TrackPointExtension>
        </extensions>
      </trkpt>
      <trkpt lat="42.6246660389006137847900390625" lon="19.8847000300884246826171875">
        <ele>1814</ele>
        <time>2026-06-16T11:13:58.000Z</time>
        <extensions>
          <ns3:TrackPointExtension>
            <ns3:atemp>20.0</ns3:atemp>
          </ns3:TrackPointExtension>
        </extensions>
      </trkpt>
      <trkpt lat="42.6246660389006137847900390625" lon="19.8847000300884246826171875">
        <ele>1814</ele>
        <time>2026-06-16T11:13:59.000Z</time>
        <extensions>
          <ns3:TrackPointExtension>
            <ns3:atemp>20.0</ns3:atemp>
          </ns3:TrackPointExtension>
        </extensions>
      </trkpt>
      <trkpt lat="42.6246660389006137847900390625" lon="19.8847000300884246826171875">
        <ele>1814</ele>
        <time>2026-06-16T11:14:00.000Z</time>
        <extensions>
          <ns3:TrackPointExtension>
            <ns3:atemp>20.0</ns3:atemp>
          </ns3:TrackPointExtension>
        </extensions>
      </trkpt>
      <trkpt lat="42.6246660389006137847900390625" lon="19.8847000300884246826171875">
        <ele>1814</ele>
        <time>2026-06-16T11:14:01.000Z</time>
        <extensions>
          <ns3:TrackPointExtension>
            <ns3:atemp>20.0</ns3:atemp>
          </ns3:TrackPointExtension>
        </extensions>
      </trkpt>
      <trkpt lat="42.6246660389006137847900390625" lon="19.8847000300884246826171875">
        <ele>1814</ele>
        <time>2026-06-16T11:14:02.000Z</time>
        <extensions>
          <ns3:TrackPointExtension>
            <ns3:atemp>20.0</ns3:atemp>
          </ns3:TrackPointExtension>
        </extensions>
      </trkpt>
      <trkpt lat="42.6246660389006137847900390625" lon="19.8847000300884246826171875">
        <ele>1814</ele>
        <time>2026-06-16T11:14:03.000Z</time>
        <extensions>
          <ns3:TrackPointExtension>
            <ns3:atemp>20.0</ns3:atemp>
          </ns3:TrackPointExtension>
        </extensions>
      </trkpt>
      <trkpt lat="42.6246660389006137847900390625" lon="19.8847000300884246826171875">
        <ele>1814</ele>
        <time>2026-06-16T11:14:04.000Z</time>
        <extensions>
          <ns3:TrackPointExtension>
            <ns3:atemp>20.0</ns3:atemp>
          </ns3:TrackPointExtension>
        </extensions>
      </trkpt>
      <trkpt lat="42.6246660389006137847900390625" lon="19.8847000300884246826171875">
        <ele>1814</ele>
        <time>2026-06-16T11:14:05.000Z</time>
        <extensions>
          <ns3:TrackPointExtension>
            <ns3:atemp>20.0</ns3:atemp>
          </ns3:TrackPointExtension>
        </extensions>
      </trkpt>
      <trkpt lat="42.6246660389006137847900390625" lon="19.8847000300884246826171875">
        <ele>1814</ele>
        <time>2026-06-16T11:14:06.000Z</time>
        <extensions>
          <ns3:TrackPointExtension>
            <ns3:atemp>20.0</ns3:atemp>
          </ns3:TrackPointExtension>
        </extensions>
      </trkpt>
      <trkpt lat="42.6246660389006137847900390625" lon="19.8847000300884246826171875">
        <ele>1814</ele>
        <time>2026-06-16T11:14:07.000Z</time>
        <extensions>
          <ns3:TrackPointExtension>
            <ns3:atemp>20.0</ns3:atemp>
          </ns3:TrackPointExtension>
        </extensions>
      </trkpt>
      <trkpt lat="42.6246660389006137847900390625" lon="19.8847000300884246826171875">
        <ele>1814</ele>
        <time>2026-06-16T11:14:08.000Z</time>
        <extensions>
          <ns3:TrackPointExtension>
            <ns3:atemp>20.0</ns3:atemp>
          </ns3:TrackPointExtension>
        </extensions>
      </trkpt>
      <trkpt lat="42.6246660389006137847900390625" lon="19.8847000300884246826171875">
        <ele>1814</ele>
        <time>2026-06-16T11:14:09.000Z</time>
        <extensions>
          <ns3:TrackPointExtension>
            <ns3:atemp>20.0</ns3:atemp>
          </ns3:TrackPointExtension>
        </extensions>
      </trkpt>
      <trkpt lat="42.6246660389006137847900390625" lon="19.8847000300884246826171875">
        <ele>1814</ele>
        <time>2026-06-16T11:14:10.000Z</time>
        <extensions>
          <ns3:TrackPointExtension>
            <ns3:atemp>20.0</ns3:atemp>
          </ns3:TrackPointExtension>
        </extensions>
      </trkpt>
      <trkpt lat="42.6246660389006137847900390625" lon="19.8847000300884246826171875">
        <ele>1814</ele>
        <time>2026-06-16T11:14:11.000Z</time>
        <extensions>
          <ns3:TrackPointExtension>
            <ns3:atemp>20.0</ns3:atemp>
          </ns3:TrackPointExtension>
        </extensions>
      </trkpt>
      <trkpt lat="42.6246660389006137847900390625" lon="19.8847000300884246826171875">
        <ele>1814</ele>
        <time>2026-06-16T11:14:12.000Z</time>
        <extensions>
          <ns3:TrackPointExtension>
            <ns3:atemp>20.0</ns3:atemp>
          </ns3:TrackPointExtension>
        </extensions>
      </trkpt>
      <trkpt lat="42.6246660389006137847900390625" lon="19.8847000300884246826171875">
        <ele>1814</ele>
        <time>2026-06-16T11:14:13.000Z</time>
        <extensions>
          <ns3:TrackPointExtension>
            <ns3:atemp>20.0</ns3:atemp>
          </ns3:TrackPointExtension>
        </extensions>
      </trkpt>
      <trkpt lat="42.6246660389006137847900390625" lon="19.8847000300884246826171875">
        <ele>1814</ele>
        <time>2026-06-16T11:14:14.000Z</time>
        <extensions>
          <ns3:TrackPointExtension>
            <ns3:atemp>20.0</ns3:atemp>
          </ns3:TrackPointExtension>
        </extensions>
      </trkpt>
      <trkpt lat="42.6246660389006137847900390625" lon="19.8847000300884246826171875">
        <ele>1814</ele>
        <time>2026-06-16T11:14:15.000Z</time>
        <extensions>
          <ns3:TrackPointExtension>
            <ns3:atemp>20.0</ns3:atemp>
          </ns3:TrackPointExtension>
        </extensions>
      </trkpt>
      <trkpt lat="42.6246660389006137847900390625" lon="19.8847000300884246826171875">
        <ele>1814</ele>
        <time>2026-06-16T11:14:16.000Z</time>
        <extensions>
          <ns3:TrackPointExtension>
            <ns3:atemp>20.0</ns3:atemp>
          </ns3:TrackPointExtension>
        </extensions>
      </trkpt>
      <trkpt lat="42.6246660389006137847900390625" lon="19.8847000300884246826171875">
        <ele>1814</ele>
        <time>2026-06-16T11:14:17.000Z</time>
        <extensions>
          <ns3:TrackPointExtension>
            <ns3:atemp>20.0</ns3:atemp>
          </ns3:TrackPointExtension>
        </extensions>
      </trkpt>
      <trkpt lat="42.6246660389006137847900390625" lon="19.8847000300884246826171875">
        <ele>1814</ele>
        <time>2026-06-16T11:14:18.000Z</time>
        <extensions>
          <ns3:TrackPointExtension>
            <ns3:atemp>20.0</ns3:atemp>
          </ns3:TrackPointExtension>
        </extensions>
      </trkpt>
      <trkpt lat="42.6246660389006137847900390625" lon="19.8847000300884246826171875">
        <ele>1814</ele>
        <time>2026-06-16T11:14:19.000Z</time>
        <extensions>
          <ns3:TrackPointExtension>
            <ns3:atemp>20.0</ns3:atemp>
          </ns3:TrackPointExtension>
        </extensions>
      </trkpt>
      <trkpt lat="42.6246660389006137847900390625" lon="19.8847000300884246826171875">
        <ele>1814</ele>
        <time>2026-06-16T11:14:20.000Z</time>
        <extensions>
          <ns3:TrackPointExtension>
            <ns3:atemp>20.0</ns3:atemp>
          </ns3:TrackPointExtension>
        </extensions>
      </trkpt>
      <trkpt lat="42.6246660389006137847900390625" lon="19.8847000300884246826171875">
        <ele>1814</ele>
        <time>2026-06-16T11:14:21.000Z</time>
        <extensions>
          <ns3:TrackPointExtension>
            <ns3:atemp>20.0</ns3:atemp>
          </ns3:TrackPointExtension>
        </extensions>
      </trkpt>
      <trkpt lat="42.6246660389006137847900390625" lon="19.8847000300884246826171875">
        <ele>1814</ele>
        <time>2026-06-16T11:14:22.000Z</time>
        <extensions>
          <ns3:TrackPointExtension>
            <ns3:atemp>20.0</ns3:atemp>
          </ns3:TrackPointExtension>
        </extensions>
      </trkpt>
      <trkpt lat="42.6246660389006137847900390625" lon="19.8847000300884246826171875">
        <ele>1814</ele>
        <time>2026-06-16T11:14:23.000Z</time>
        <extensions>
          <ns3:TrackPointExtension>
            <ns3:atemp>20.0</ns3:atemp>
          </ns3:TrackPointExtension>
        </extensions>
      </trkpt>
      <trkpt lat="42.6246660389006137847900390625" lon="19.8847000300884246826171875">
        <ele>1814</ele>
        <time>2026-06-16T11:14:24.000Z</time>
        <extensions>
          <ns3:TrackPointExtension>
            <ns3:atemp>20.0</ns3:atemp>
          </ns3:TrackPointExtension>
        </extensions>
      </trkpt>
      <trkpt lat="42.6246660389006137847900390625" lon="19.8847000300884246826171875">
        <ele>1814</ele>
        <time>2026-06-16T11:14:25.000Z</time>
        <extensions>
          <ns3:TrackPointExtension>
            <ns3:atemp>20.0</ns3:atemp>
          </ns3:TrackPointExtension>
        </extensions>
      </trkpt>
      <trkpt lat="42.6246660389006137847900390625" lon="19.8847000300884246826171875">
        <ele>1814</ele>
        <time>2026-06-16T11:14:26.000Z</time>
        <extensions>
          <ns3:TrackPointExtension>
            <ns3:atemp>20.0</ns3:atemp>
          </ns3:TrackPointExtension>
        </extensions>
      </trkpt>
      <trkpt lat="42.6246660389006137847900390625" lon="19.8847000300884246826171875">
        <ele>1814</ele>
        <time>2026-06-16T11:14:27.000Z</time>
        <extensions>
          <ns3:TrackPointExtension>
            <ns3:atemp>20.0</ns3:atemp>
          </ns3:TrackPointExtension>
        </extensions>
      </trkpt>
      <trkpt lat="42.6246660389006137847900390625" lon="19.8847000300884246826171875">
        <ele>1814</ele>
        <time>2026-06-16T11:14:28.000Z</time>
        <extensions>
          <ns3:TrackPointExtension>
            <ns3:atemp>20.0</ns3:atemp>
          </ns3:TrackPointExtension>
        </extensions>
      </trkpt>
      <trkpt lat="42.6246660389006137847900390625" lon="19.8847000300884246826171875">
        <ele>1814</ele>
        <time>2026-06-16T11:14:29.000Z</time>
        <extensions>
          <ns3:TrackPointExtension>
            <ns3:atemp>20.0</ns3:atemp>
          </ns3:TrackPointExtension>
        </extensions>
      </trkpt>
      <trkpt lat="42.6246660389006137847900390625" lon="19.8847000300884246826171875">
        <ele>1814</ele>
        <time>2026-06-16T11:14:30.000Z</time>
        <extensions>
          <ns3:TrackPointExtension>
            <ns3:atemp>20.0</ns3:atemp>
          </ns3:TrackPointExtension>
        </extensions>
      </trkpt>
      <trkpt lat="42.6246660389006137847900390625" lon="19.8847000300884246826171875">
        <ele>1814</ele>
        <time>2026-06-16T11:14:31.000Z</time>
        <extensions>
          <ns3:TrackPointExtension>
            <ns3:atemp>20.0</ns3:atemp>
          </ns3:TrackPointExtension>
        </extensions>
      </trkpt>
      <trkpt lat="42.6246660389006137847900390625" lon="19.8847000300884246826171875">
        <ele>1814</ele>
        <time>2026-06-16T11:14:32.000Z</time>
        <extensions>
          <ns3:TrackPointExtension>
            <ns3:atemp>20.0</ns3:atemp>
          </ns3:TrackPointExtension>
        </extensions>
      </trkpt>
      <trkpt lat="42.6246660389006137847900390625" lon="19.8847000300884246826171875">
        <ele>1814</ele>
        <time>2026-06-16T11:14:33.000Z</time>
        <extensions>
          <ns3:TrackPointExtension>
            <ns3:atemp>20.0</ns3:atemp>
          </ns3:TrackPointExtension>
        </extensions>
      </trkpt>
      <trkpt lat="42.6246660389006137847900390625" lon="19.8847000300884246826171875">
        <ele>1814</ele>
        <time>2026-06-16T11:14:34.000Z</time>
        <extensions>
          <ns3:TrackPointExtension>
            <ns3:atemp>20.0</ns3:atemp>
          </ns3:TrackPointExtension>
        </extensions>
      </trkpt>
      <trkpt lat="42.6246660389006137847900390625" lon="19.8847000300884246826171875">
        <ele>1814</ele>
        <time>2026-06-16T11:14:35.000Z</time>
        <extensions>
          <ns3:TrackPointExtension>
            <ns3:atemp>20.0</ns3:atemp>
          </ns3:TrackPointExtension>
        </extensions>
      </trkpt>
      <trkpt lat="42.6246660389006137847900390625" lon="19.8847000300884246826171875">
        <ele>1814</ele>
        <time>2026-06-16T11:14:36.000Z</time>
        <extensions>
          <ns3:TrackPointExtension>
            <ns3:atemp>20.0</ns3:atemp>
          </ns3:TrackPointExtension>
        </extensions>
      </trkpt>
      <trkpt lat="42.6246660389006137847900390625" lon="19.8847000300884246826171875">
        <ele>1814</ele>
        <time>2026-06-16T11:14:37.000Z</time>
        <extensions>
          <ns3:TrackPointExtension>
            <ns3:atemp>20.0</ns3:atemp>
          </ns3:TrackPointExtension>
        </extensions>
      </trkpt>
      <trkpt lat="42.6246660389006137847900390625" lon="19.8847000300884246826171875">
        <ele>1814</ele>
        <time>2026-06-16T11:14:38.000Z</time>
        <extensions>
          <ns3:TrackPointExtension>
            <ns3:atemp>20.0</ns3:atemp>
          </ns3:TrackPointExtension>
        </extensions>
      </trkpt>
      <trkpt lat="42.6246660389006137847900390625" lon="19.8847000300884246826171875">
        <ele>1814</ele>
        <time>2026-06-16T11:14:39.000Z</time>
        <extensions>
          <ns3:TrackPointExtension>
            <ns3:atemp>20.0</ns3:atemp>
          </ns3:TrackPointExtension>
        </extensions>
      </trkpt>
      <trkpt lat="42.6246660389006137847900390625" lon="19.8847000300884246826171875">
        <ele>1814</ele>
        <time>2026-06-16T11:14:40.000Z</time>
        <extensions>
          <ns3:TrackPointExtension>
            <ns3:atemp>20.0</ns3:atemp>
          </ns3:TrackPointExtension>
        </extensions>
      </trkpt>
      <trkpt lat="42.6246660389006137847900390625" lon="19.8847000300884246826171875">
        <ele>1814</ele>
        <time>2026-06-16T11:14:41.000Z</time>
        <extensions>
          <ns3:TrackPointExtension>
            <ns3:atemp>20.0</ns3:atemp>
          </ns3:TrackPointExtension>
        </extensions>
      </trkpt>
      <trkpt lat="42.6246660389006137847900390625" lon="19.8847000300884246826171875">
        <ele>1814</ele>
        <time>2026-06-16T11:14:42.000Z</time>
        <extensions>
          <ns3:TrackPointExtension>
            <ns3:atemp>20.0</ns3:atemp>
          </ns3:TrackPointExtension>
        </extensions>
      </trkpt>
      <trkpt lat="42.6246660389006137847900390625" lon="19.8847000300884246826171875">
        <ele>1814</ele>
        <time>2026-06-16T11:14:43.000Z</time>
        <extensions>
          <ns3:TrackPointExtension>
            <ns3:atemp>20.0</ns3:atemp>
          </ns3:TrackPointExtension>
        </extensions>
      </trkpt>
      <trkpt lat="42.6246660389006137847900390625" lon="19.8847000300884246826171875">
        <ele>1814</ele>
        <time>2026-06-16T11:14:44.000Z</time>
        <extensions>
          <ns3:TrackPointExtension>
            <ns3:atemp>20.0</ns3:atemp>
          </ns3:TrackPointExtension>
        </extensions>
      </trkpt>
      <trkpt lat="42.6246657036244869232177734375" lon="19.884698353707790374755859375">
        <ele>1814</ele>
        <time>2026-06-16T11:14:45.000Z</time>
        <extensions>
          <ns3:TrackPointExtension>
            <ns3:atemp>20.0</ns3:atemp>
          </ns3:TrackPointExtension>
        </extensions>
      </trkpt>
      <trkpt lat="42.62466645799577236175537109375" lon="19.88470631651580333709716796875">
        <ele>1814</ele>
        <time>2026-06-16T11:14:46.000Z</time>
        <extensions>
          <ns3:TrackPointExtension>
            <ns3:atemp>20.0</ns3:atemp>
          </ns3:TrackPointExtension>
        </extensions>
      </trkpt>
      <trkpt lat="42.624665200710296630859375" lon="19.88470229320228099822998046875">
        <ele>1814</ele>
        <time>2026-06-16T11:14:47.000Z</time>
        <extensions>
          <ns3:TrackPointExtension>
            <ns3:atemp>20.0</ns3:atemp>
          </ns3:TrackPointExtension>
        </extensions>
      </trkpt>
      <trkpt lat="42.62466184794902801513671875" lon="19.88469793461263179779052734375">
        <ele>1814</ele>
        <time>2026-06-16T11:14:48.000Z</time>
        <extensions>
          <ns3:TrackPointExtension>
            <ns3:atemp>20.0</ns3:atemp>
          </ns3:TrackPointExtension>
        </extensions>
      </trkpt>
      <trkpt lat="42.62466050684452056884765625" lon="19.8846944980323314666748046875">
        <ele>1814</ele>
        <time>2026-06-16T11:14:49.000Z</time>
        <extensions>
          <ns3:TrackPointExtension>
            <ns3:atemp>20.0</ns3:atemp>
          </ns3:TrackPointExtension>
        </extensions>
      </trkpt>
      <trkpt lat="42.6246660389006137847900390625" lon="19.8847000300884246826171875">
        <ele>1814</ele>
        <time>2026-06-16T11:14:50.000Z</time>
        <extensions>
          <ns3:TrackPointExtension>
            <ns3:atemp>20.0</ns3:atemp>
          </ns3:TrackPointExtension>
        </extensions>
      </trkpt>
      <trkpt lat="42.6246660389006137847900390625" lon="19.8847000300884246826171875">
        <ele>1814</ele>
        <time>2026-06-16T11:14:51.000Z</time>
        <extensions>
          <ns3:TrackPointExtension>
            <ns3:atemp>20.0</ns3:atemp>
          </ns3:TrackPointExtension>
        </extensions>
      </trkpt>
      <trkpt lat="42.62465941719710826873779296875" lon="19.88469592295587062835693359375">
        <ele>1814</ele>
        <time>2026-06-16T11:14:52.000Z</time>
        <extensions>
          <ns3:TrackPointExtension>
            <ns3:atemp>20.0</ns3:atemp>
          </ns3:TrackPointExtension>
        </extensions>
      </trkpt>
      <trkpt lat="42.6246660389006137847900390625" lon="19.8847000300884246826171875">
        <ele>1814</ele>
        <time>2026-06-16T11:14:53.000Z</time>
        <extensions>
          <ns3:TrackPointExtension>
            <ns3:atemp>20.0</ns3:atemp>
          </ns3:TrackPointExtension>
        </extensions>
      </trkpt>
      <trkpt lat="42.6246660389006137847900390625" lon="19.8847000300884246826171875">
        <ele>1814</ele>
        <time>2026-06-16T11:14:54.000Z</time>
        <extensions>
          <ns3:TrackPointExtension>
            <ns3:atemp>20.0</ns3:atemp>
          </ns3:TrackPointExtension>
        </extensions>
      </trkpt>
      <trkpt lat="42.62465774081647396087646484375" lon="19.88469592295587062835693359375">
        <ele>1814</ele>
        <time>2026-06-16T11:14:55.000Z</time>
        <extensions>
          <ns3:TrackPointExtension>
            <ns3:atemp>20.0</ns3:atemp>
          </ns3:TrackPointExtension>
        </extensions>
      </trkpt>
      <trkpt lat="42.62466587126255035400390625" lon="19.8846884630620479583740234375">
        <ele>1814</ele>
        <time>2026-06-16T11:14:56.000Z</time>
        <extensions>
          <ns3:TrackPointExtension>
            <ns3:atemp>20.0</ns3:atemp>
          </ns3:TrackPointExtension>
        </extensions>
      </trkpt>
      <trkpt lat="42.62466989457607269287109375" lon="19.884685613214969635009765625">
        <ele>1814</ele>
        <time>2026-06-16T11:14:57.000Z</time>
        <extensions>
          <ns3:TrackPointExtension>
            <ns3:atemp>20.0</ns3:atemp>
          </ns3:TrackPointExtension>
        </extensions>
      </trkpt>
      <trkpt lat="42.624671570956707000732421875" lon="19.88468418829143047332763671875">
        <ele>1814</ele>
        <time>2026-06-16T11:14:58.000Z</time>
        <extensions>
          <ns3:TrackPointExtension>
            <ns3:atemp>20.0</ns3:atemp>
          </ns3:TrackPointExtension>
        </extensions>
      </trkpt>
      <trkpt lat="42.6246660389006137847900390625" lon="19.8847000300884246826171875">
        <ele>1814</ele>
        <time>2026-06-16T11:14:59.000Z</time>
        <extensions>
          <ns3:TrackPointExtension>
            <ns3:atemp>20.0</ns3:atemp>
          </ns3:TrackPointExtension>
        </extensions>
      </trkpt>
      <trkpt lat="42.6246660389006137847900390625" lon="19.8847000300884246826171875">
        <ele>1814</ele>
        <time>2026-06-16T11:15:00.000Z</time>
        <extensions>
          <ns3:TrackPointExtension>
            <ns3:atemp>20.0</ns3:atemp>
          </ns3:TrackPointExtension>
        </extensions>
      </trkpt>
      <trkpt lat="42.6246660389006137847900390625" lon="19.8847000300884246826171875">
        <ele>1814</ele>
        <time>2026-06-16T11:15:01.000Z</time>
        <extensions>
          <ns3:TrackPointExtension>
            <ns3:atemp>20.0</ns3:atemp>
          </ns3:TrackPointExtension>
        </extensions>
      </trkpt>
      <trkpt lat="42.6246660389006137847900390625" lon="19.8847000300884246826171875">
        <ele>1814</ele>
        <time>2026-06-16T11:15:02.000Z</time>
        <extensions>
          <ns3:TrackPointExtension>
            <ns3:atemp>20.0</ns3:atemp>
          </ns3:TrackPointExtension>
        </extensions>
      </trkpt>
      <trkpt lat="42.6246660389006137847900390625" lon="19.8847000300884246826171875">
        <ele>1814</ele>
        <time>2026-06-16T11:15:03.000Z</time>
        <extensions>
          <ns3:TrackPointExtension>
            <ns3:atemp>20.0</ns3:atemp>
          </ns3:TrackPointExtension>
        </extensions>
      </trkpt>
      <trkpt lat="42.6246660389006137847900390625" lon="19.8847000300884246826171875">
        <ele>1814</ele>
        <time>2026-06-16T11:15:04.000Z</time>
        <extensions>
          <ns3:TrackPointExtension>
            <ns3:atemp>20.0</ns3:atemp>
          </ns3:TrackPointExtension>
        </extensions>
      </trkpt>
      <trkpt lat="42.6246660389006137847900390625" lon="19.8847000300884246826171875">
        <ele>1814</ele>
        <time>2026-06-16T11:15:05.000Z</time>
        <extensions>
          <ns3:TrackPointExtension>
            <ns3:atemp>20.0</ns3:atemp>
          </ns3:TrackPointExtension>
        </extensions>
      </trkpt>
      <trkpt lat="42.6246719062328338623046875" lon="19.88468603231012821197509765625">
        <ele>1814</ele>
        <time>2026-06-16T11:15:06.000Z</time>
        <extensions>
          <ns3:TrackPointExtension>
            <ns3:atemp>20.0</ns3:atemp>
          </ns3:TrackPointExtension>
        </extensions>
      </trkpt>
      <trkpt lat="42.62467014603316783905029296875" lon="19.88469810225069522857666015625">
        <ele>1814</ele>
        <time>2026-06-16T11:15:07.000Z</time>
        <extensions>
          <ns3:TrackPointExtension>
            <ns3:atemp>20.0</ns3:atemp>
          </ns3:TrackPointExtension>
        </extensions>
      </trkpt>
      <trkpt lat="42.62466394342482089996337890625" lon="19.88470464013516902923583984375">
        <ele>1814</ele>
        <time>2026-06-16T11:15:08.000Z</time>
        <extensions>
          <ns3:TrackPointExtension>
            <ns3:atemp>20.0</ns3:atemp>
          </ns3:TrackPointExtension>
        </extensions>
      </trkpt>
      <trkpt lat="42.6246576569974422454833984375" lon="19.884714446961879730224609375">
        <ele>1814</ele>
        <time>2026-06-16T11:15:09.000Z</time>
        <extensions>
          <ns3:TrackPointExtension>
            <ns3:atemp>20.0</ns3:atemp>
          </ns3:TrackPointExtension>
        </extensions>
      </trkpt>
      <trkpt lat="42.6246499456465244293212890625" lon="19.88473800010979175567626953125">
        <ele>1813.5999755859375</ele>
        <time>2026-06-16T11:15:10.000Z</time>
        <extensions>
          <ns3:TrackPointExtension>
            <ns3:atemp>20.0</ns3:atemp>
          </ns3:TrackPointExtension>
        </extensions>
      </trkpt>
      <trkpt lat="42.62463225983083248138427734375" lon="19.88476197235286235809326171875">
        <ele>1813.4000244140625</ele>
        <time>2026-06-16T11:15:11.000Z</time>
        <extensions>
          <ns3:TrackPointExtension>
            <ns3:atemp>20.0</ns3:atemp>
          </ns3:TrackPointExtension>
        </extensions>
      </trkpt>
      <trkpt lat="42.6246097125113010406494140625" lon="19.8847806639969348907470703125">
        <ele>1812.5999755859375</ele>
        <time>2026-06-16T11:15:12.000Z</time>
        <extensions>
          <ns3:TrackPointExtension>
            <ns3:atemp>20.0</ns3:atemp>
          </ns3:TrackPointExtension>
        </extensions>
      </trkpt>
      <trkpt lat="42.62459613382816314697265625" lon="19.884806312620639801025390625">
        <ele>1812</ele>
        <time>2026-06-16T11:15:13.000Z</time>
        <extensions>
          <ns3:TrackPointExtension>
            <ns3:atemp>20.0</ns3:atemp>
          </ns3:TrackPointExtension>
        </extensions>
      </trkpt>
      <trkpt lat="42.6245895959436893463134765625" lon="19.8848255909979343414306640625">
        <ele>1811.4000244140625</ele>
        <time>2026-06-16T11:15:14.000Z</time>
        <extensions>
          <ns3:TrackPointExtension>
            <ns3:atemp>20.0</ns3:atemp>
          </ns3:TrackPointExtension>
        </extensions>
      </trkpt>
      <trkpt lat="42.62458649463951587677001953125" lon="19.88484428264200687408447265625">
        <ele>1810.5999755859375</ele>
        <time>2026-06-16T11:15:15.000Z</time>
        <extensions>
          <ns3:TrackPointExtension>
            <ns3:atemp>20.0</ns3:atemp>
          </ns3:TrackPointExtension>
        </extensions>
      </trkpt>
      <trkpt lat="42.62458330951631069183349609375" lon="19.88486238755285739898681640625">
        <ele>1810</ele>
        <time>2026-06-16T11:15:16.000Z</time>
        <extensions>
          <ns3:TrackPointExtension>
            <ns3:atemp>20.0</ns3:atemp>
          </ns3:TrackPointExtension>
        </extensions>
      </trkpt>
      <trkpt lat="42.6245852373540401458740234375" lon="19.884873367846012115478515625">
        <ele>1809.199951171875</ele>
        <time>2026-06-16T11:15:17.000Z</time>
        <extensions>
          <ns3:TrackPointExtension>
            <ns3:atemp>20.0</ns3:atemp>
          </ns3:TrackPointExtension>
        </extensions>
      </trkpt>
      <trkpt lat="42.62457861565053462982177734375" lon="19.8848866112530231475830078125">
        <ele>1808.800048828125</ele>
        <time>2026-06-16T11:15:18.000Z</time>
        <extensions>
          <ns3:TrackPointExtension>
            <ns3:atemp>20.0</ns3:atemp>
          </ns3:TrackPointExtension>
        </extensions>
      </trkpt>
      <trkpt lat="42.62456771917641162872314453125" lon="19.88490111194550991058349609375">
        <ele>1808.199951171875</ele>
        <time>2026-06-16T11:15:19.000Z</time>
        <extensions>
          <ns3:TrackPointExtension>
            <ns3:atemp>20.0</ns3:atemp>
          </ns3:TrackPointExtension>
        </extensions>
      </trkpt>
      <trkpt lat="42.6245580799877643585205078125" lon="19.88491795957088470458984375">
        <ele>1807.5999755859375</ele>
        <time>2026-06-16T11:15:20.000Z</time>
        <extensions>
          <ns3:TrackPointExtension>
            <ns3:atemp>20.0</ns3:atemp>
          </ns3:TrackPointExtension>
        </extensions>
      </trkpt>
      <trkpt lat="42.62456017546355724334716796875" lon="19.88492391072213649749755859375">
        <ele>1807</ele>
        <time>2026-06-16T11:15:21.000Z</time>
        <extensions>
          <ns3:TrackPointExtension>
            <ns3:atemp>20.0</ns3:atemp>
          </ns3:TrackPointExtension>
        </extensions>
      </trkpt>
      <trkpt lat="42.6245600916445255279541015625" lon="19.884923994541168212890625">
        <ele>1806.5999755859375</ele>
        <time>2026-06-16T11:15:22.000Z</time>
        <extensions>
          <ns3:TrackPointExtension>
            <ns3:atemp>20.0</ns3:atemp>
          </ns3:TrackPointExtension>
        </extensions>
      </trkpt>
      <trkpt lat="42.624555565416812896728515625" lon="19.88491871394217014312744140625">
        <ele>1806</ele>
        <time>2026-06-16T11:15:23.000Z</time>
        <extensions>
          <ns3:TrackPointExtension>
            <ns3:atemp>20.0</ns3:atemp>
          </ns3:TrackPointExtension>
        </extensions>
      </trkpt>
      <trkpt lat="42.6245493628084659576416015625" lon="19.8849288560450077056884765625">
        <ele>1805.5999755859375</ele>
        <time>2026-06-16T11:15:24.000Z</time>
        <extensions>
          <ns3:TrackPointExtension>
            <ns3:atemp>20.0</ns3:atemp>
          </ns3:TrackPointExtension>
        </extensions>
      </trkpt>
      <trkpt lat="42.62454458512365818023681640625" lon="19.88493514247238636016845703125">
        <ele>1805.199951171875</ele>
        <time>2026-06-16T11:15:25.000Z</time>
        <extensions>
          <ns3:TrackPointExtension>
            <ns3:atemp>20.0</ns3:atemp>
          </ns3:TrackPointExtension>
        </extensions>
      </trkpt>
      <trkpt lat="42.62453000061213970184326171875" lon="19.88494520075619220733642578125">
        <ele>1805</ele>
        <time>2026-06-16T11:15:26.000Z</time>
        <extensions>
          <ns3:TrackPointExtension>
            <ns3:atemp>20.0</ns3:atemp>
          </ns3:TrackPointExtension>
        </extensions>
      </trkpt>
      <trkpt lat="42.62451206333935260772705078125" lon="19.8849630542099475860595703125">
        <ele>1804.5999755859375</ele>
        <time>2026-06-16T11:15:27.000Z</time>
        <extensions>
          <ns3:TrackPointExtension>
            <ns3:atemp>20.0</ns3:atemp>
          </ns3:TrackPointExtension>
        </extensions>
      </trkpt>
      <trkpt lat="42.62449010275304317474365234375" lon="19.8849851824343204498291015625">
        <ele>1804</ele>
        <time>2026-06-16T11:15:28.000Z</time>
        <extensions>
          <ns3:TrackPointExtension>
            <ns3:atemp>20.0</ns3:atemp>
          </ns3:TrackPointExtension>
        </extensions>
      </trkpt>
      <trkpt lat="42.6244776137173175811767578125" lon="19.8850103281438350677490234375">
        <ele>1803.5999755859375</ele>
        <time>2026-06-16T11:15:29.000Z</time>
        <extensions>
          <ns3:TrackPointExtension>
            <ns3:atemp>20.0</ns3:atemp>
          </ns3:TrackPointExtension>
        </extensions>
      </trkpt>
      <trkpt lat="42.62447400949895381927490234375" lon="19.885043688118457794189453125">
        <ele>1802.800048828125</ele>
        <time>2026-06-16T11:15:30.000Z</time>
        <extensions>
          <ns3:TrackPointExtension>
            <ns3:atemp>20.0</ns3:atemp>
          </ns3:TrackPointExtension>
        </extensions>
      </trkpt>
      <trkpt lat="42.624477781355381011962890625" lon="19.88507931120693683624267578125">
        <ele>1802.199951171875</ele>
        <time>2026-06-16T11:15:31.000Z</time>
        <extensions>
          <ns3:TrackPointExtension>
            <ns3:atemp>20.0</ns3:atemp>
          </ns3:TrackPointExtension>
        </extensions>
      </trkpt>
      <trkpt lat="42.62447015382349491119384765625" lon="19.8851209692656993865966796875">
        <ele>1801.4000244140625</ele>
        <time>2026-06-16T11:15:32.000Z</time>
        <extensions>
          <ns3:TrackPointExtension>
            <ns3:atemp>20.0</ns3:atemp>
          </ns3:TrackPointExtension>
        </extensions>
      </trkpt>
      <trkpt lat="42.62445271946489810943603515625" lon="19.88516204059123992919921875">
        <ele>1800.5999755859375</ele>
        <time>2026-06-16T11:15:33.000Z</time>
        <extensions>
          <ns3:TrackPointExtension>
            <ns3:atemp>20.0</ns3:atemp>
          </ns3:TrackPointExtension>
        </extensions>
      </trkpt>
      <trkpt lat="42.62445825152099132537841796875" lon="19.88519263453781604766845703125">
        <ele>1799.5999755859375</ele>
        <time>2026-06-16T11:15:34.000Z</time>
        <extensions>
          <ns3:TrackPointExtension>
            <ns3:atemp>20.0</ns3:atemp>
          </ns3:TrackPointExtension>
        </extensions>
      </trkpt>
      <trkpt lat="42.62447769753634929656982421875" lon="19.88521224819123744964599609375">
        <ele>1798.800048828125</ele>
        <time>2026-06-16T11:15:35.000Z</time>
        <extensions>
          <ns3:TrackPointExtension>
            <ns3:atemp>20.0</ns3:atemp>
          </ns3:TrackPointExtension>
        </extensions>
      </trkpt>
      <trkpt lat="42.62449714355170726776123046875" lon="19.88522985018789768218994140625">
        <ele>1798</ele>
        <time>2026-06-16T11:15:36.000Z</time>
        <extensions>
          <ns3:TrackPointExtension>
            <ns3:atemp>20.0</ns3:atemp>
          </ns3:TrackPointExtension>
        </extensions>
      </trkpt>
      <trkpt lat="42.6245265640318393707275390625" lon="19.88524443469941616058349609375">
        <ele>1797.4000244140625</ele>
        <time>2026-06-16T11:15:37.000Z</time>
        <extensions>
          <ns3:TrackPointExtension>
            <ns3:atemp>20.0</ns3:atemp>
          </ns3:TrackPointExtension>
        </extensions>
      </trkpt>
      <trkpt lat="42.6245592534542083740234375" lon="19.88526119850575923919677734375">
        <ele>1796.800048828125</ele>
        <time>2026-06-16T11:15:38.000Z</time>
        <extensions>
          <ns3:TrackPointExtension>
            <ns3:atemp>20.0</ns3:atemp>
          </ns3:TrackPointExtension>
        </extensions>
      </trkpt>
      <trkpt lat="42.62458272278308868408203125" lon="19.8852822370827198028564453125">
        <ele>1796.199951171875</ele>
        <time>2026-06-16T11:15:39.000Z</time>
        <extensions>
          <ns3:TrackPointExtension>
            <ns3:atemp>20.0</ns3:atemp>
          </ns3:TrackPointExtension>
        </extensions>
      </trkpt>
      <trkpt lat="42.62460057623684406280517578125" lon="19.88530595786869525909423828125">
        <ele>1795.800048828125</ele>
        <time>2026-06-16T11:15:40.000Z</time>
        <extensions>
          <ns3:TrackPointExtension>
            <ns3:atemp>20.0</ns3:atemp>
          </ns3:TrackPointExtension>
        </extensions>
      </trkpt>
      <trkpt lat="42.624614574015140533447265625" lon="19.8853228054940700531005859375">
        <ele>1795.4000244140625</ele>
        <time>2026-06-16T11:15:41.000Z</time>
        <extensions>
          <ns3:TrackPointExtension>
            <ns3:atemp>20.0</ns3:atemp>
          </ns3:TrackPointExtension>
        </extensions>
      </trkpt>
      <trkpt lat="42.624627314507961273193359375" lon="19.88534577190876007080078125">
        <ele>1795.199951171875</ele>
        <time>2026-06-16T11:15:42.000Z</time>
        <extensions>
          <ns3:TrackPointExtension>
            <ns3:atemp>20.0</ns3:atemp>
          </ns3:TrackPointExtension>
        </extensions>
      </trkpt>
      <trkpt lat="42.62462337501347064971923828125" lon="19.88536966033279895782470703125">
        <ele>1794.800048828125</ele>
        <time>2026-06-16T11:15:43.000Z</time>
        <extensions>
          <ns3:TrackPointExtension>
            <ns3:atemp>20.0</ns3:atemp>
          </ns3:TrackPointExtension>
        </extensions>
      </trkpt>
      <trkpt lat="42.6246194355189800262451171875" lon="19.8853958956897258758544921875">
        <ele>1794.5999755859375</ele>
        <time>2026-06-16T11:15:44.000Z</time>
        <extensions>
          <ns3:TrackPointExtension>
            <ns3:atemp>20.0</ns3:atemp>
          </ns3:TrackPointExtension>
        </extensions>
      </trkpt>
      <trkpt lat="42.6246308349072933197021484375" lon="19.8854173533618450164794921875">
        <ele>1794.199951171875</ele>
        <time>2026-06-16T11:15:45.000Z</time>
        <extensions>
          <ns3:TrackPointExtension>
            <ns3:atemp>20.0</ns3:atemp>
          </ns3:TrackPointExtension>
        </extensions>
      </trkpt>
      <trkpt lat="42.6246408931910991668701171875" lon="19.8854354582726955413818359375">
        <ele>1794</ele>
        <time>2026-06-16T11:15:46.000Z</time>
        <extensions>
          <ns3:TrackPointExtension>
            <ns3:atemp>20.0</ns3:atemp>
          </ns3:TrackPointExtension>
        </extensions>
      </trkpt>
      <trkpt lat="42.62465380132198333740234375" lon="19.88545364700257778167724609375">
        <ele>1794</ele>
        <time>2026-06-16T11:15:47.000Z</time>
        <extensions>
          <ns3:TrackPointExtension>
            <ns3:atemp>20.0</ns3:atemp>
          </ns3:TrackPointExtension>
        </extensions>
      </trkpt>
      <trkpt lat="42.6246660389006137847900390625" lon="19.8854699917137622833251953125">
        <ele>1793.800048828125</ele>
        <time>2026-06-16T11:15:48.000Z</time>
        <extensions>
          <ns3:TrackPointExtension>
            <ns3:atemp>20.0</ns3:atemp>
          </ns3:TrackPointExtension>
        </extensions>
      </trkpt>
      <trkpt lat="42.62468104250729084014892578125" lon="19.88548952154815196990966796875">
        <ele>1793.5999755859375</ele>
        <time>2026-06-16T11:15:49.000Z</time>
        <extensions>
          <ns3:TrackPointExtension>
            <ns3:atemp>20.0</ns3:atemp>
          </ns3:TrackPointExtension>
        </extensions>
      </trkpt>
      <trkpt lat="42.6246938668191432952880859375" lon="19.885508380830287933349609375">
        <ele>1793.4000244140625</ele>
        <time>2026-06-16T11:15:50.000Z</time>
        <extensions>
          <ns3:TrackPointExtension>
            <ns3:atemp>20.0</ns3:atemp>
          </ns3:TrackPointExtension>
        </extensions>
      </trkpt>
      <trkpt lat="42.62471172027289867401123046875" lon="19.88553612492978572845458984375">
        <ele>1792.800048828125</ele>
        <time>2026-06-16T11:15:51.000Z</time>
        <extensions>
          <ns3:TrackPointExtension>
            <ns3:atemp>20.0</ns3:atemp>
          </ns3:TrackPointExtension>
        </extensions>
      </trkpt>
      <trkpt lat="42.62471322901546955108642578125" lon="19.8855802975594997406005859375">
        <ele>1792.4000244140625</ele>
        <time>2026-06-16T11:15:52.000Z</time>
        <extensions>
          <ns3:TrackPointExtension>
            <ns3:atemp>20.0</ns3:atemp>
          </ns3:TrackPointExtension>
        </extensions>
      </trkpt>
      <trkpt lat="42.62470501475036144256591796875" lon="19.88562547601759433746337890625">
        <ele>1791.800048828125</ele>
        <time>2026-06-16T11:15:53.000Z</time>
        <extensions>
          <ns3:TrackPointExtension>
            <ns3:atemp>20.0</ns3:atemp>
          </ns3:TrackPointExtension>
        </extensions>
      </trkpt>
      <trkpt lat="42.6246942020952701568603515625" lon="19.8856684751808643341064453125">
        <ele>1791.4000244140625</ele>
        <time>2026-06-16T11:15:54.000Z</time>
        <extensions>
          <ns3:TrackPointExtension>
            <ns3:atemp>20.0</ns3:atemp>
          </ns3:TrackPointExtension>
        </extensions>
      </trkpt>
      <trkpt lat="42.624693699181079864501953125" lon="19.88570694811642169952392578125">
        <ele>1790.800048828125</ele>
        <time>2026-06-16T11:15:55.000Z</time>
        <extensions>
          <ns3:TrackPointExtension>
            <ns3:atemp>20.0</ns3:atemp>
          </ns3:TrackPointExtension>
        </extensions>
      </trkpt>
      <trkpt lat="42.6246958784759044647216796875" lon="19.8857449181377887725830078125">
        <ele>1790.199951171875</ele>
        <time>2026-06-16T11:15:56.000Z</time>
        <extensions>
          <ns3:TrackPointExtension>
            <ns3:atemp>20.0</ns3:atemp>
          </ns3:TrackPointExtension>
        </extensions>
      </trkpt>
      <trkpt lat="42.624701075255870819091796875" lon="19.88578833639621734619140625">
        <ele>1789.800048828125</ele>
        <time>2026-06-16T11:15:57.000Z</time>
        <extensions>
          <ns3:TrackPointExtension>
            <ns3:atemp>20.0</ns3:atemp>
          </ns3:TrackPointExtension>
        </extensions>
      </trkpt>
      <trkpt lat="42.624703086912631988525390625" lon="19.885824210941791534423828125">
        <ele>1789.4000244140625</ele>
        <time>2026-06-16T11:15:58.000Z</time>
        <extensions>
          <ns3:TrackPointExtension>
            <ns3:atemp>20.0</ns3:atemp>
          </ns3:TrackPointExtension>
        </extensions>
      </trkpt>
      <trkpt lat="42.62471415102481842041015625" lon="19.8858632706105709075927734375">
        <ele>1789.199951171875</ele>
        <time>2026-06-16T11:15:59.000Z</time>
        <extensions>
          <ns3:TrackPointExtension>
            <ns3:atemp>20.0</ns3:atemp>
          </ns3:TrackPointExtension>
        </extensions>
      </trkpt>
      <trkpt lat="42.62471926398575305938720703125" lon="19.88590979017317295074462890625">
        <ele>1788.800048828125</ele>
        <time>2026-06-16T11:16:00.000Z</time>
        <extensions>
          <ns3:TrackPointExtension>
            <ns3:atemp>21.0</ns3:atemp>
          </ns3:TrackPointExtension>
        </extensions>
      </trkpt>
      <trkpt lat="42.62471951544284820556640625" lon="19.88595270551741123199462890625">
        <ele>1788.4000244140625</ele>
        <time>2026-06-16T11:16:01.000Z</time>
        <extensions>
          <ns3:TrackPointExtension>
            <ns3:atemp>20.0</ns3:atemp>
          </ns3:TrackPointExtension>
        </extensions>
      </trkpt>
      <trkpt lat="42.62471892870962619781494140625" lon="19.8859856463968753814697265625">
        <ele>1788</ele>
        <time>2026-06-16T11:16:02.000Z</time>
        <extensions>
          <ns3:TrackPointExtension>
            <ns3:atemp>20.0</ns3:atemp>
          </ns3:TrackPointExtension>
        </extensions>
      </trkpt>
      <trkpt lat="42.62471188791096210479736328125" lon="19.88601741380989551544189453125">
        <ele>1787.5999755859375</ele>
        <time>2026-06-16T11:16:03.000Z</time>
        <extensions>
          <ns3:TrackPointExtension>
            <ns3:atemp>20.0</ns3:atemp>
          </ns3:TrackPointExtension>
        </extensions>
      </trkpt>
      <trkpt lat="42.62471389956772327423095703125" lon="19.8860453255474567413330078125">
        <ele>1787.199951171875</ele>
        <time>2026-06-16T11:16:04.000Z</time>
        <extensions>
          <ns3:TrackPointExtension>
            <ns3:atemp>20.0</ns3:atemp>
          </ns3:TrackPointExtension>
        </extensions>
      </trkpt>
      <trkpt lat="42.6247206889092922210693359375" lon="19.8860734887421131134033203125">
        <ele>1786.800048828125</ele>
        <time>2026-06-16T11:16:05.000Z</time>
        <extensions>
          <ns3:TrackPointExtension>
            <ns3:atemp>20.0</ns3:atemp>
          </ns3:TrackPointExtension>
        </extensions>
      </trkpt>
      <trkpt lat="42.62471775524318218231201171875" lon="19.88611958920955657958984375">
        <ele>1786.4000244140625</ele>
        <time>2026-06-16T11:16:06.000Z</time>
        <extensions>
          <ns3:TrackPointExtension>
            <ns3:atemp>21.0</ns3:atemp>
          </ns3:TrackPointExtension>
        </extensions>
      </trkpt>
      <trkpt lat="42.62471943162381649017333984375" lon="19.88616627641022205352783203125">
        <ele>1785.800048828125</ele>
        <time>2026-06-16T11:16:07.000Z</time>
        <extensions>
          <ns3:TrackPointExtension>
            <ns3:atemp>21.0</ns3:atemp>
          </ns3:TrackPointExtension>
        </extensions>
      </trkpt>
      <trkpt lat="42.6247290708124637603759765625" lon="19.88622193224728107452392578125">
        <ele>1785.199951171875</ele>
        <time>2026-06-16T11:16:08.000Z</time>
        <extensions>
          <ns3:TrackPointExtension>
            <ns3:atemp>21.0</ns3:atemp>
          </ns3:TrackPointExtension>
        </extensions>
      </trkpt>
      <trkpt lat="42.6247408054769039154052734375" lon="19.8862852156162261962890625">
        <ele>1784.5999755859375</ele>
        <time>2026-06-16T11:16:09.000Z</time>
        <extensions>
          <ns3:TrackPointExtension>
            <ns3:atemp>21.0</ns3:atemp>
          </ns3:TrackPointExtension>
        </extensions>
      </trkpt>
      <trkpt lat="42.6247604191303253173828125" lon="19.88634430803358554840087890625">
        <ele>1784</ele>
        <time>2026-06-16T11:16:10.000Z</time>
        <extensions>
          <ns3:TrackPointExtension>
            <ns3:atemp>21.0</ns3:atemp>
          </ns3:TrackPointExtension>
        </extensions>
      </trkpt>
      <trkpt lat="42.62479327619075775146484375" lon="19.8863977007567882537841796875">
        <ele>1783.4000244140625</ele>
        <time>2026-06-16T11:16:11.000Z</time>
        <extensions>
          <ns3:TrackPointExtension>
            <ns3:atemp>21.0</ns3:atemp>
          </ns3:TrackPointExtension>
        </extensions>
      </trkpt>
      <trkpt lat="42.6248350180685520172119140625" lon="19.88644606433808803558349609375">
        <ele>1783</ele>
        <time>2026-06-16T11:16:12.000Z</time>
        <extensions>
          <ns3:TrackPointExtension>
            <ns3:atemp>21.0</ns3:atemp>
          </ns3:TrackPointExtension>
        </extensions>
      </trkpt>
      <trkpt lat="42.6248641870915889739990234375" lon="19.8864997923374176025390625">
        <ele>1782.5999755859375</ele>
        <time>2026-06-16T11:16:13.000Z</time>
        <extensions>
          <ns3:TrackPointExtension>
            <ns3:atemp>21.0</ns3:atemp>
          </ns3:TrackPointExtension>
        </extensions>
      </trkpt>
      <trkpt lat="42.6248809508979320526123046875" lon="19.88655947148799896240234375">
        <ele>1782.199951171875</ele>
        <time>2026-06-16T11:16:14.000Z</time>
        <extensions>
          <ns3:TrackPointExtension>
            <ns3:atemp>21.0</ns3:atemp>
          </ns3:TrackPointExtension>
        </extensions>
      </trkpt>
      <trkpt lat="42.62490182183682918548583984375" lon="19.88661303184926509857177734375">
        <ele>1781.5999755859375</ele>
        <time>2026-06-16T11:16:15.000Z</time>
        <extensions>
          <ns3:TrackPointExtension>
            <ns3:atemp>21.0</ns3:atemp>
          </ns3:TrackPointExtension>
        </extensions>
      </trkpt>
      <trkpt lat="42.6249267160892486572265625" lon="19.8866655863821506500244140625">
        <ele>1781.199951171875</ele>
        <time>2026-06-16T11:16:16.000Z</time>
        <extensions>
          <ns3:TrackPointExtension>
            <ns3:atemp>21.0</ns3:atemp>
          </ns3:TrackPointExtension>
        </extensions>
      </trkpt>
      <trkpt lat="42.62493903748691082000732421875" lon="19.88672233186662197113037109375">
        <ele>1780.800048828125</ele>
        <time>2026-06-16T11:16:17.000Z</time>
        <extensions>
          <ns3:TrackPointExtension>
            <ns3:atemp>21.0</ns3:atemp>
          </ns3:TrackPointExtension>
        </extensions>
      </trkpt>
      <trkpt lat="42.62494021095335483551025390625" lon="19.88677203655242919921875">
        <ele>1780.4000244140625</ele>
        <time>2026-06-16T11:16:18.000Z</time>
        <extensions>
          <ns3:TrackPointExtension>
            <ns3:atemp>21.0</ns3:atemp>
          </ns3:TrackPointExtension>
        </extensions>
      </trkpt>
      <trkpt lat="42.62494708411395549774169921875" lon="19.8868184722959995269775390625">
        <ele>1780.199951171875</ele>
        <time>2026-06-16T11:16:19.000Z</time>
        <extensions>
          <ns3:TrackPointExtension>
            <ns3:atemp>21.0</ns3:atemp>
          </ns3:TrackPointExtension>
        </extensions>
      </trkpt>
      <trkpt lat="42.624961920082569122314453125" lon="19.88684889860451221466064453125">
        <ele>1780</ele>
        <time>2026-06-16T11:16:20.000Z</time>
        <extensions>
          <ns3:TrackPointExtension>
            <ns3:atemp>21.0</ns3:atemp>
          </ns3:TrackPointExtension>
        </extensions>
      </trkpt>
      <trkpt lat="42.62498245574533939361572265625" lon="19.88688846118748188018798828125">
        <ele>1779.800048828125</ele>
        <time>2026-06-16T11:16:21.000Z</time>
        <extensions>
          <ns3:TrackPointExtension>
            <ns3:atemp>21.0</ns3:atemp>
          </ns3:TrackPointExtension>
        </extensions>
      </trkpt>
      <trkpt lat="42.624993436038494110107421875" lon="19.886914193630218505859375">
        <ele>1779.800048828125</ele>
        <time>2026-06-16T11:16:22.000Z</time>
        <extensions>
          <ns3:TrackPointExtension>
            <ns3:atemp>21.0</ns3:atemp>
          </ns3:TrackPointExtension>
        </extensions>
      </trkpt>
      <trkpt lat="42.62498748488724231719970703125" lon="19.88694361411035060882568359375">
        <ele>1779.5999755859375</ele>
        <time>2026-06-16T11:16:23.000Z</time>
        <extensions>
          <ns3:TrackPointExtension>
            <ns3:atemp>21.0</ns3:atemp>
          </ns3:TrackPointExtension>
        </extensions>
      </trkpt>
      <trkpt lat="42.6249862276017665863037109375" lon="19.886984266340732574462890625">
        <ele>1779.199951171875</ele>
        <time>2026-06-16T11:16:24.000Z</time>
        <extensions>
          <ns3:TrackPointExtension>
            <ns3:atemp>21.0</ns3:atemp>
          </ns3:TrackPointExtension>
        </extensions>
      </trkpt>
      <trkpt lat="42.62500659562647342681884765625" lon="19.88700781948864459991455078125">
        <ele>1779</ele>
        <time>2026-06-16T11:16:25.000Z</time>
        <extensions>
          <ns3:TrackPointExtension>
            <ns3:atemp>21.0</ns3:atemp>
          </ns3:TrackPointExtension>
        </extensions>
      </trkpt>
      <trkpt lat="42.62502419762313365936279296875" lon="19.8870415985584259033203125">
        <ele>1778.5999755859375</ele>
        <time>2026-06-16T11:16:26.000Z</time>
        <extensions>
          <ns3:TrackPointExtension>
            <ns3:atemp>21.0</ns3:atemp>
          </ns3:TrackPointExtension>
        </extensions>
      </trkpt>
      <trkpt lat="42.62504783459007740020751953125" lon="19.88706179894506931304931640625">
        <ele>1778.4000244140625</ele>
        <time>2026-06-16T11:16:27.000Z</time>
        <extensions>
          <ns3:TrackPointExtension>
            <ns3:atemp>21.0</ns3:atemp>
          </ns3:TrackPointExtension>
        </extensions>
      </trkpt>
      <trkpt lat="42.62507163919508457183837890625" lon="19.88708124496042728424072265625">
        <ele>1778.199951171875</ele>
        <time>2026-06-16T11:16:28.000Z</time>
        <extensions>
          <ns3:TrackPointExtension>
            <ns3:atemp>20.0</ns3:atemp>
          </ns3:TrackPointExtension>
        </extensions>
      </trkpt>
      <trkpt lat="42.6250878162682056427001953125" lon="19.88709599711000919342041015625">
        <ele>1777.800048828125</ele>
        <time>2026-06-16T11:16:29.000Z</time>
        <extensions>
          <ns3:TrackPointExtension>
            <ns3:atemp>20.0</ns3:atemp>
          </ns3:TrackPointExtension>
        </extensions>
      </trkpt>
      <trkpt lat="42.6250985451042652130126953125" lon="19.887118041515350341796875">
        <ele>1777.5999755859375</ele>
        <time>2026-06-16T11:16:30.000Z</time>
        <extensions>
          <ns3:TrackPointExtension>
            <ns3:atemp>20.0</ns3:atemp>
          </ns3:TrackPointExtension>
        </extensions>
      </trkpt>
      <trkpt lat="42.62510776519775390625" lon="19.88714360632002353668212890625">
        <ele>1777.4000244140625</ele>
        <time>2026-06-16T11:16:31.000Z</time>
        <extensions>
          <ns3:TrackPointExtension>
            <ns3:atemp>20.0</ns3:atemp>
          </ns3:TrackPointExtension>
        </extensions>
      </trkpt>
      <trkpt lat="42.62511086650192737579345703125" lon="19.887171685695648193359375">
        <ele>1777.199951171875</ele>
        <time>2026-06-16T11:16:32.000Z</time>
        <extensions>
          <ns3:TrackPointExtension>
            <ns3:atemp>20.0</ns3:atemp>
          </ns3:TrackPointExtension>
        </extensions>
      </trkpt>
      <trkpt lat="42.625115476548671722412109375" lon="19.88720093853771686553955078125">
        <ele>1776.800048828125</ele>
        <time>2026-06-16T11:16:33.000Z</time>
        <extensions>
          <ns3:TrackPointExtension>
            <ns3:atemp>20.0</ns3:atemp>
          </ns3:TrackPointExtension>
        </extensions>
      </trkpt>
      <trkpt lat="42.62511522509157657623291015625" lon="19.88722239620983600616455078125">
        <ele>1776.5999755859375</ele>
        <time>2026-06-16T11:16:34.000Z</time>
        <extensions>
          <ns3:TrackPointExtension>
            <ns3:atemp>20.0</ns3:atemp>
          </ns3:TrackPointExtension>
        </extensions>
      </trkpt>
      <trkpt lat="42.62511421926319599151611328125" lon="19.8872489668428897857666015625">
        <ele>1776.199951171875</ele>
        <time>2026-06-16T11:16:35.000Z</time>
        <extensions>
          <ns3:TrackPointExtension>
            <ns3:atemp>20.0</ns3:atemp>
          </ns3:TrackPointExtension>
        </extensions>
      </trkpt>
      <trkpt lat="42.6251029036939144134521484375" lon="19.8872669041156768798828125">
        <ele>1775.5999755859375</ele>
        <time>2026-06-16T11:16:36.000Z</time>
        <extensions>
          <ns3:TrackPointExtension>
            <ns3:atemp>20.0</ns3:atemp>
          </ns3:TrackPointExtension>
        </extensions>
      </trkpt>
      <trkpt lat="42.62509125284850597381591796875" lon="19.8872865177690982818603515625">
        <ele>1775.199951171875</ele>
        <time>2026-06-16T11:16:37.000Z</time>
        <extensions>
          <ns3:TrackPointExtension>
            <ns3:atemp>20.0</ns3:atemp>
          </ns3:TrackPointExtension>
        </extensions>
      </trkpt>
      <trkpt lat="42.62509192340075969696044921875" lon="19.88731275312602519989013671875">
        <ele>1774.800048828125</ele>
        <time>2026-06-16T11:16:38.000Z</time>
        <extensions>
          <ns3:TrackPointExtension>
            <ns3:atemp>20.0</ns3:atemp>
          </ns3:TrackPointExtension>
        </extensions>
      </trkpt>
      <trkpt lat="42.625099718570709228515625" lon="19.887329600751399993896484375">
        <ele>1774.4000244140625</ele>
        <time>2026-06-16T11:16:39.000Z</time>
        <extensions>
          <ns3:TrackPointExtension>
            <ns3:atemp>20.0</ns3:atemp>
          </ns3:TrackPointExtension>
        </extensions>
      </trkpt>
      <trkpt lat="42.6251082681119441986083984375" lon="19.8873455263674259185791015625">
        <ele>1774</ele>
        <time>2026-06-16T11:16:40.000Z</time>
        <extensions>
          <ns3:TrackPointExtension>
            <ns3:atemp>20.0</ns3:atemp>
          </ns3:TrackPointExtension>
        </extensions>
      </trkpt>
      <trkpt lat="42.62512427754700183868408203125" lon="19.887359775602817535400390625">
        <ele>1773.5999755859375</ele>
        <time>2026-06-16T11:16:41.000Z</time>
        <extensions>
          <ns3:TrackPointExtension>
            <ns3:atemp>21.0</ns3:atemp>
          </ns3:TrackPointExtension>
        </extensions>
      </trkpt>
      <trkpt lat="42.62513567693531513214111328125" lon="19.88737528212368488311767578125">
        <ele>1773.199951171875</ele>
        <time>2026-06-16T11:16:42.000Z</time>
        <extensions>
          <ns3:TrackPointExtension>
            <ns3:atemp>21.0</ns3:atemp>
          </ns3:TrackPointExtension>
        </extensions>
      </trkpt>
      <trkpt lat="42.625147663056850433349609375" lon="19.8873958177864551544189453125">
        <ele>1772.800048828125</ele>
        <time>2026-06-16T11:16:43.000Z</time>
        <extensions>
          <ns3:TrackPointExtension>
            <ns3:atemp>21.0</ns3:atemp>
          </ns3:TrackPointExtension>
        </extensions>
      </trkpt>
      <trkpt lat="42.62514942325651645660400390625" lon="19.88741970621049404144287109375">
        <ele>1772.4000244140625</ele>
        <time>2026-06-16T11:16:44.000Z</time>
        <extensions>
          <ns3:TrackPointExtension>
            <ns3:atemp>21.0</ns3:atemp>
          </ns3:TrackPointExtension>
        </extensions>
      </trkpt>
      <trkpt lat="42.6251428015530109405517578125" lon="19.88744200207293033599853515625">
        <ele>1772</ele>
        <time>2026-06-16T11:16:45.000Z</time>
        <extensions>
          <ns3:TrackPointExtension>
            <ns3:atemp>21.0</ns3:atemp>
          </ns3:TrackPointExtension>
        </extensions>
      </trkpt>
      <trkpt lat="42.6251300610601902008056640625" lon="19.8874658904969692230224609375">
        <ele>1771.5999755859375</ele>
        <time>2026-06-16T11:16:46.000Z</time>
        <extensions>
          <ns3:TrackPointExtension>
            <ns3:atemp>21.0</ns3:atemp>
          </ns3:TrackPointExtension>
        </extensions>
      </trkpt>
      <trkpt lat="42.625128217041492462158203125" lon="19.88747335039079189300537109375">
        <ele>1771.199951171875</ele>
        <time>2026-06-16T11:16:47.000Z</time>
        <extensions>
          <ns3:TrackPointExtension>
            <ns3:atemp>21.0</ns3:atemp>
          </ns3:TrackPointExtension>
        </extensions>
      </trkpt>
      <trkpt lat="42.62513835914433002471923828125" lon="19.88748642615973949432373046875">
        <ele>1770.800048828125</ele>
        <time>2026-06-16T11:16:48.000Z</time>
        <extensions>
          <ns3:TrackPointExtension>
            <ns3:atemp>21.0</ns3:atemp>
          </ns3:TrackPointExtension>
        </extensions>
      </trkpt>
      <trkpt lat="42.62515042908489704132080078125" lon="19.88751106895506381988525390625">
        <ele>1770.4000244140625</ele>
        <time>2026-06-16T11:16:49.000Z</time>
        <extensions>
          <ns3:TrackPointExtension>
            <ns3:atemp>21.0</ns3:atemp>
          </ns3:TrackPointExtension>
        </extensions>
      </trkpt>
      <trkpt lat="42.6251511834561824798583984375" lon="19.88753579556941986083984375">
        <ele>1770</ele>
        <time>2026-06-16T11:16:50.000Z</time>
        <extensions>
          <ns3:TrackPointExtension>
            <ns3:atemp>21.0</ns3:atemp>
          </ns3:TrackPointExtension>
        </extensions>
      </trkpt>
      <trkpt lat="42.62515143491327762603759765625" lon="19.88756974227726459503173828125">
        <ele>1769.5999755859375</ele>
        <time>2026-06-16T11:16:51.000Z</time>
        <extensions>
          <ns3:TrackPointExtension>
            <ns3:atemp>21.0</ns3:atemp>
          </ns3:TrackPointExtension>
        </extensions>
      </trkpt>
      <trkpt lat="42.62514523230493068695068359375" lon="19.88759455271065235137939453125">
        <ele>1769.199951171875</ele>
        <time>2026-06-16T11:16:52.000Z</time>
        <extensions>
          <ns3:TrackPointExtension>
            <ns3:atemp>21.0</ns3:atemp>
          </ns3:TrackPointExtension>
        </extensions>
      </trkpt>
      <trkpt lat="42.6251340843737125396728515625" lon="19.887621290981769561767578125">
        <ele>1768.5999755859375</ele>
        <time>2026-06-16T11:16:53.000Z</time>
        <extensions>
          <ns3:TrackPointExtension>
            <ns3:atemp>21.0</ns3:atemp>
          </ns3:TrackPointExtension>
        </extensions>
      </trkpt>
      <trkpt lat="42.62512578628957271575927734375" lon="19.88764450885355472564697265625">
        <ele>1768</ele>
        <time>2026-06-16T11:16:54.000Z</time>
        <extensions>
          <ns3:TrackPointExtension>
            <ns3:atemp>21.0</ns3:atemp>
          </ns3:TrackPointExtension>
        </extensions>
      </trkpt>
      <trkpt lat="42.62512897141277790069580078125" lon="19.8876677267253398895263671875">
        <ele>1767.5999755859375</ele>
        <time>2026-06-16T11:16:55.000Z</time>
        <extensions>
          <ns3:TrackPointExtension>
            <ns3:atemp>21.0</ns3:atemp>
          </ns3:TrackPointExtension>
        </extensions>
      </trkpt>
      <trkpt lat="42.62514338828623294830322265625" lon="19.887688346207141876220703125">
        <ele>1767.199951171875</ele>
        <time>2026-06-16T11:16:56.000Z</time>
        <extensions>
          <ns3:TrackPointExtension>
            <ns3:atemp>21.0</ns3:atemp>
          </ns3:TrackPointExtension>
        </extensions>
      </trkpt>
      <trkpt lat="42.6251565478742122650146484375" lon="19.8877014219760894775390625">
        <ele>1766.800048828125</ele>
        <time>2026-06-16T11:16:57.000Z</time>
        <extensions>
          <ns3:TrackPointExtension>
            <ns3:atemp>21.0</ns3:atemp>
          </ns3:TrackPointExtension>
        </extensions>
      </trkpt>
      <trkpt lat="42.62516216374933719635009765625" lon="19.88771743141114711761474609375">
        <ele>1766.4000244140625</ele>
        <time>2026-06-16T11:16:58.000Z</time>
        <extensions>
          <ns3:TrackPointExtension>
            <ns3:atemp>21.0</ns3:atemp>
          </ns3:TrackPointExtension>
        </extensions>
      </trkpt>
      <trkpt lat="42.62516476213932037353515625" lon="19.887742660939693450927734375">
        <ele>1765.800048828125</ele>
        <time>2026-06-16T11:16:59.000Z</time>
        <extensions>
          <ns3:TrackPointExtension>
            <ns3:atemp>21.0</ns3:atemp>
          </ns3:TrackPointExtension>
        </extensions>
      </trkpt>
      <trkpt lat="42.62516367249190807342529296875" lon="19.88775833509862422943115234375">
        <ele>1765.199951171875</ele>
        <time>2026-06-16T11:17:00.000Z</time>
        <extensions>
          <ns3:TrackPointExtension>
            <ns3:atemp>21.0</ns3:atemp>
          </ns3:TrackPointExtension>
        </extensions>
      </trkpt>
      <trkpt lat="42.62515143491327762603759765625" lon="19.88777543418109416961669921875">
        <ele>1764.800048828125</ele>
        <time>2026-06-16T11:17:01.000Z</time>
        <extensions>
          <ns3:TrackPointExtension>
            <ns3:atemp>21.0</ns3:atemp>
          </ns3:TrackPointExtension>
        </extensions>
      </trkpt>
      <trkpt lat="42.62514322064816951751708984375" lon="19.8877926170825958251953125">
        <ele>1764.199951171875</ele>
        <time>2026-06-16T11:17:02.000Z</time>
        <extensions>
          <ns3:TrackPointExtension>
            <ns3:atemp>21.0</ns3:atemp>
          </ns3:TrackPointExtension>
        </extensions>
      </trkpt>
      <trkpt lat="42.62514196336269378662109375" lon="19.88782052882015705108642578125">
        <ele>1763.800048828125</ele>
        <time>2026-06-16T11:17:03.000Z</time>
        <extensions>
          <ns3:TrackPointExtension>
            <ns3:atemp>21.0</ns3:atemp>
          </ns3:TrackPointExtension>
        </extensions>
      </trkpt>
      <trkpt lat="42.62514020316302776336669921875" lon="19.8878527991473674774169921875">
        <ele>1763</ele>
        <time>2026-06-16T11:17:04.000Z</time>
        <extensions>
          <ns3:TrackPointExtension>
            <ns3:atemp>21.0</ns3:atemp>
          </ns3:TrackPointExtension>
        </extensions>
      </trkpt>
      <trkpt lat="42.62514037080109119415283203125" lon="19.88787685520946979522705078125">
        <ele>1762.5999755859375</ele>
        <time>2026-06-16T11:17:05.000Z</time>
        <extensions>
          <ns3:TrackPointExtension>
            <ns3:atemp>21.0</ns3:atemp>
          </ns3:TrackPointExtension>
        </extensions>
      </trkpt>
      <trkpt lat="42.62514221481978893280029296875" lon="19.8879010789096355438232421875">
        <ele>1762</ele>
        <time>2026-06-16T11:17:06.000Z</time>
        <extensions>
          <ns3:TrackPointExtension>
            <ns3:atemp>21.0</ns3:atemp>
          </ns3:TrackPointExtension>
        </extensions>
      </trkpt>
      <trkpt lat="42.62515478767454624176025390625" lon="19.887917004525661468505859375">
        <ele>1761.5999755859375</ele>
        <time>2026-06-16T11:17:07.000Z</time>
        <extensions>
          <ns3:TrackPointExtension>
            <ns3:atemp>21.0</ns3:atemp>
          </ns3:TrackPointExtension>
        </extensions>
      </trkpt>
      <trkpt lat="42.6251645945012569427490234375" lon="19.88794424571096897125244140625">
        <ele>1761</ele>
        <time>2026-06-16T11:17:08.000Z</time>
        <extensions>
          <ns3:TrackPointExtension>
            <ns3:atemp>21.0</ns3:atemp>
          </ns3:TrackPointExtension>
        </extensions>
      </trkpt>
      <trkpt lat="42.62516853399574756622314453125" lon="19.88797224126756191253662109375">
        <ele>1760.5999755859375</ele>
        <time>2026-06-16T11:17:09.000Z</time>
        <extensions>
          <ns3:TrackPointExtension>
            <ns3:atemp>21.0</ns3:atemp>
          </ns3:TrackPointExtension>
        </extensions>
      </trkpt>
      <trkpt lat="42.62518546544015407562255859375" lon="19.88800241611897945404052734375">
        <ele>1759.800048828125</ele>
        <time>2026-06-16T11:17:10.000Z</time>
        <extensions>
          <ns3:TrackPointExtension>
            <ns3:atemp>21.0</ns3:atemp>
          </ns3:TrackPointExtension>
        </extensions>
      </trkpt>
      <trkpt lat="42.6251997984945774078369140625" lon="19.88803762011229991912841796875">
        <ele>1759</ele>
        <time>2026-06-16T11:17:11.000Z</time>
        <extensions>
          <ns3:TrackPointExtension>
            <ns3:atemp>21.0</ns3:atemp>
          </ns3:TrackPointExtension>
        </extensions>
      </trkpt>
      <trkpt lat="42.6251997984945774078369140625" lon="19.8880683816969394683837890625">
        <ele>1758.199951171875</ele>
        <time>2026-06-16T11:17:12.000Z</time>
        <extensions>
          <ns3:TrackPointExtension>
            <ns3:atemp>21.0</ns3:atemp>
          </ns3:TrackPointExtension>
        </extensions>
      </trkpt>
      <trkpt lat="42.62519854120910167694091796875" lon="19.8880958743393421173095703125">
        <ele>1757.5999755859375</ele>
        <time>2026-06-16T11:17:13.000Z</time>
        <extensions>
          <ns3:TrackPointExtension>
            <ns3:atemp>21.0</ns3:atemp>
          </ns3:TrackPointExtension>
        </extensions>
      </trkpt>
      <trkpt lat="42.6251977868378162384033203125" lon="19.88813971169292926788330078125">
        <ele>1757</ele>
        <time>2026-06-16T11:17:14.000Z</time>
        <extensions>
          <ns3:TrackPointExtension>
            <ns3:atemp>21.0</ns3:atemp>
          </ns3:TrackPointExtension>
        </extensions>
      </trkpt>
      <trkpt lat="42.62519166804850101470947265625" lon="19.8881867341697216033935546875">
        <ele>1756.199951171875</ele>
        <time>2026-06-16T11:17:15.000Z</time>
        <extensions>
          <ns3:TrackPointExtension>
            <ns3:atemp>21.0</ns3:atemp>
          </ns3:TrackPointExtension>
        </extensions>
      </trkpt>
      <trkpt lat="42.62518948875367641448974609375" lon="19.8882262967526912689208984375">
        <ele>1755.4000244140625</ele>
        <time>2026-06-16T11:17:16.000Z</time>
        <extensions>
          <ns3:TrackPointExtension>
            <ns3:atemp>21.0</ns3:atemp>
          </ns3:TrackPointExtension>
        </extensions>
      </trkpt>
      <trkpt lat="42.62519418261945247650146484375" lon="19.88826158456504344940185546875">
        <ele>1754.800048828125</ele>
        <time>2026-06-16T11:17:17.000Z</time>
        <extensions>
          <ns3:TrackPointExtension>
            <ns3:atemp>21.0</ns3:atemp>
          </ns3:TrackPointExtension>
        </extensions>
      </trkpt>
      <trkpt lat="42.625202648341655731201171875" lon="19.8882956989109516143798828125">
        <ele>1754.199951171875</ele>
        <time>2026-06-16T11:17:18.000Z</time>
        <extensions>
          <ns3:TrackPointExtension>
            <ns3:atemp>21.0</ns3:atemp>
          </ns3:TrackPointExtension>
        </extensions>
      </trkpt>
      <trkpt lat="42.625216729938983917236328125" lon="19.888325035572052001953125">
        <ele>1753.800048828125</ele>
        <time>2026-06-16T11:17:19.000Z</time>
        <extensions>
          <ns3:TrackPointExtension>
            <ns3:atemp>21.0</ns3:atemp>
          </ns3:TrackPointExtension>
        </extensions>
      </trkpt>
      <trkpt lat="42.6252259500324726104736328125" lon="19.88835060037672519683837890625">
        <ele>1753.199951171875</ele>
        <time>2026-06-16T11:17:20.000Z</time>
        <extensions>
          <ns3:TrackPointExtension>
            <ns3:atemp>21.0</ns3:atemp>
          </ns3:TrackPointExtension>
        </extensions>
      </trkpt>
      <trkpt lat="42.6252386905252933502197265625" lon="19.8883754946291446685791015625">
        <ele>1752.800048828125</ele>
        <time>2026-06-16T11:17:21.000Z</time>
        <extensions>
          <ns3:TrackPointExtension>
            <ns3:atemp>21.0</ns3:atemp>
          </ns3:TrackPointExtension>
        </extensions>
      </trkpt>
      <trkpt lat="42.62525000609457492828369140625" lon="19.8883868940174579620361328125">
        <ele>1752.4000244140625</ele>
        <time>2026-06-16T11:17:22.000Z</time>
        <extensions>
          <ns3:TrackPointExtension>
            <ns3:atemp>21.0</ns3:atemp>
          </ns3:TrackPointExtension>
        </extensions>
      </trkpt>
      <trkpt lat="42.6252638362348079681396484375" lon="19.88839142024517059326171875">
        <ele>1752</ele>
        <time>2026-06-16T11:17:23.000Z</time>
        <extensions>
          <ns3:TrackPointExtension>
            <ns3:atemp>21.0</ns3:atemp>
          </ns3:TrackPointExtension>
        </extensions>
      </trkpt>
      <trkpt lat="42.625274397432804107666015625" lon="19.8884063400328159332275390625">
        <ele>1751.5999755859375</ele>
        <time>2026-06-16T11:17:24.000Z</time>
        <extensions>
          <ns3:TrackPointExtension>
            <ns3:atemp>21.0</ns3:atemp>
          </ns3:TrackPointExtension>
        </extensions>
      </trkpt>
      <trkpt lat="42.62527850456535816192626953125" lon="19.8884283006191253662109375">
        <ele>1751.199951171875</ele>
        <time>2026-06-16T11:17:25.000Z</time>
        <extensions>
          <ns3:TrackPointExtension>
            <ns3:atemp>21.0</ns3:atemp>
          </ns3:TrackPointExtension>
        </extensions>
      </trkpt>
      <trkpt lat="42.6252722181379795074462890625" lon="19.8884522728621959686279296875">
        <ele>1750.5999755859375</ele>
        <time>2026-06-16T11:17:26.000Z</time>
        <extensions>
          <ns3:TrackPointExtension>
            <ns3:atemp>21.0</ns3:atemp>
          </ns3:TrackPointExtension>
        </extensions>
      </trkpt>
      <trkpt lat="42.6252725534141063690185546875" lon="19.8884847946465015411376953125">
        <ele>1750.199951171875</ele>
        <time>2026-06-16T11:17:27.000Z</time>
        <extensions>
          <ns3:TrackPointExtension>
            <ns3:atemp>21.0</ns3:atemp>
          </ns3:TrackPointExtension>
        </extensions>
      </trkpt>
      <trkpt lat="42.6252749003469944000244140625" lon="19.888525195419788360595703125">
        <ele>1749.4000244140625</ele>
        <time>2026-06-16T11:17:28.000Z</time>
        <extensions>
          <ns3:TrackPointExtension>
            <ns3:atemp>21.0</ns3:atemp>
          </ns3:TrackPointExtension>
        </extensions>
      </trkpt>
      <trkpt lat="42.625285796821117401123046875" lon="19.88856970332562923431396484375">
        <ele>1748.800048828125</ele>
        <time>2026-06-16T11:17:29.000Z</time>
        <extensions>
          <ns3:TrackPointExtension>
            <ns3:atemp>21.0</ns3:atemp>
          </ns3:TrackPointExtension>
        </extensions>
      </trkpt>
      <trkpt lat="42.62528546154499053955078125" lon="19.88861278630793094635009765625">
        <ele>1748.199951171875</ele>
        <time>2026-06-16T11:17:30.000Z</time>
        <extensions>
          <ns3:TrackPointExtension>
            <ns3:atemp>21.0</ns3:atemp>
          </ns3:TrackPointExtension>
        </extensions>
      </trkpt>
      <trkpt lat="42.62528068386018276214599609375" lon="19.88864849321544170379638671875">
        <ele>1747.5999755859375</ele>
        <time>2026-06-16T11:17:31.000Z</time>
        <extensions>
          <ns3:TrackPointExtension>
            <ns3:atemp>21.0</ns3:atemp>
          </ns3:TrackPointExtension>
        </extensions>
      </trkpt>
      <trkpt lat="42.62528990395367145538330078125" lon="19.888683445751667022705078125">
        <ele>1747</ele>
        <time>2026-06-16T11:17:32.000Z</time>
        <extensions>
          <ns3:TrackPointExtension>
            <ns3:atemp>21.0</ns3:atemp>
          </ns3:TrackPointExtension>
        </extensions>
      </trkpt>
      <trkpt lat="42.625308930873870849609375" lon="19.88871387206017971038818359375">
        <ele>1746.4000244140625</ele>
        <time>2026-06-16T11:17:33.000Z</time>
        <extensions>
          <ns3:TrackPointExtension>
            <ns3:atemp>21.0</ns3:atemp>
          </ns3:TrackPointExtension>
        </extensions>
      </trkpt>
      <trkpt lat="42.62532209046185016632080078125" lon="19.88873952068388462066650390625">
        <ele>1745.800048828125</ele>
        <time>2026-06-16T11:17:34.000Z</time>
        <extensions>
          <ns3:TrackPointExtension>
            <ns3:atemp>21.0</ns3:atemp>
          </ns3:TrackPointExtension>
        </extensions>
      </trkpt>
      <trkpt lat="42.62533734552562236785888671875" lon="19.8887734673917293548583984375">
        <ele>1745.4000244140625</ele>
        <time>2026-06-16T11:17:35.000Z</time>
        <extensions>
          <ns3:TrackPointExtension>
            <ns3:atemp>21.0</ns3:atemp>
          </ns3:TrackPointExtension>
        </extensions>
      </trkpt>
      <trkpt lat="42.6253563724458217620849609375" lon="19.88881026394665241241455078125">
        <ele>1744.800048828125</ele>
        <time>2026-06-16T11:17:36.000Z</time>
        <extensions>
          <ns3:TrackPointExtension>
            <ns3:atemp>21.0</ns3:atemp>
          </ns3:TrackPointExtension>
        </extensions>
      </trkpt>
      <trkpt lat="42.6253828592598438262939453125" lon="19.8888480663299560546875">
        <ele>1744.4000244140625</ele>
        <time>2026-06-16T11:17:37.000Z</time>
        <extensions>
          <ns3:TrackPointExtension>
            <ns3:atemp>21.0</ns3:atemp>
          </ns3:TrackPointExtension>
        </extensions>
      </trkpt>
      <trkpt lat="42.62540942989289760589599609375" lon="19.8888780735433101654052734375">
        <ele>1744</ele>
        <time>2026-06-16T11:17:38.000Z</time>
        <extensions>
          <ns3:TrackPointExtension>
            <ns3:atemp>21.0</ns3:atemp>
          </ns3:TrackPointExtension>
        </extensions>
      </trkpt>
      <trkpt lat="42.62543088756501674652099609375" lon="19.88890380598604679107666015625">
        <ele>1743.4000244140625</ele>
        <time>2026-06-16T11:17:39.000Z</time>
        <extensions>
          <ns3:TrackPointExtension>
            <ns3:atemp>21.0</ns3:atemp>
          </ns3:TrackPointExtension>
        </extensions>
      </trkpt>
      <trkpt lat="42.6254479028284549713134765625" lon="19.888924844563007354736328125">
        <ele>1743</ele>
        <time>2026-06-16T11:17:40.000Z</time>
        <extensions>
          <ns3:TrackPointExtension>
            <ns3:atemp>21.0</ns3:atemp>
          </ns3:TrackPointExtension>
        </extensions>
      </trkpt>
      <trkpt lat="42.62545972131192684173583984375" lon="19.888941943645477294921875">
        <ele>1742.800048828125</ele>
        <time>2026-06-16T11:17:41.000Z</time>
        <extensions>
          <ns3:TrackPointExtension>
            <ns3:atemp>21.0</ns3:atemp>
          </ns3:TrackPointExtension>
        </extensions>
      </trkpt>
      <trkpt lat="42.6254686899483203887939453125" lon="19.8889538459479808807373046875">
        <ele>1742.5999755859375</ele>
        <time>2026-06-16T11:17:42.000Z</time>
        <extensions>
          <ns3:TrackPointExtension>
            <ns3:atemp>21.0</ns3:atemp>
          </ns3:TrackPointExtension>
        </extensions>
      </trkpt>
      <trkpt lat="42.62547665275633335113525390625" lon="19.8889642395079135894775390625">
        <ele>1742.5999755859375</ele>
        <time>2026-06-16T11:17:43.000Z</time>
        <extensions>
          <ns3:TrackPointExtension>
            <ns3:atemp>21.0</ns3:atemp>
          </ns3:TrackPointExtension>
        </extensions>
      </trkpt>
      <trkpt lat="42.62548528611660003662109375" lon="19.8889763094484806060791015625">
        <ele>1742.4000244140625</ele>
        <time>2026-06-16T11:17:44.000Z</time>
        <extensions>
          <ns3:TrackPointExtension>
            <ns3:atemp>21.0</ns3:atemp>
          </ns3:TrackPointExtension>
        </extensions>
      </trkpt>
      <trkpt lat="42.62549375183880329132080078125" lon="19.88898259587585926055908203125">
        <ele>1742.199951171875</ele>
        <time>2026-06-16T11:17:45.000Z</time>
        <extensions>
          <ns3:TrackPointExtension>
            <ns3:atemp>21.0</ns3:atemp>
          </ns3:TrackPointExtension>
        </extensions>
      </trkpt>
      <trkpt lat="42.62550230138003826141357421875" lon="19.8889893852174282073974609375">
        <ele>1742</ele>
        <time>2026-06-16T11:17:46.000Z</time>
        <extensions>
          <ns3:TrackPointExtension>
            <ns3:atemp>21.0</ns3:atemp>
          </ns3:TrackPointExtension>
        </extensions>
      </trkpt>
      <trkpt lat="42.625509090721607208251953125" lon="19.88899433054029941558837890625">
        <ele>1741.800048828125</ele>
        <time>2026-06-16T11:17:47.000Z</time>
        <extensions>
          <ns3:TrackPointExtension>
            <ns3:atemp>21.0</ns3:atemp>
          </ns3:TrackPointExtension>
        </extensions>
      </trkpt>
      <trkpt lat="42.6255159638822078704833984375" lon="19.88899986259639263153076171875">
        <ele>1741.5999755859375</ele>
        <time>2026-06-16T11:17:48.000Z</time>
        <extensions>
          <ns3:TrackPointExtension>
            <ns3:atemp>21.0</ns3:atemp>
          </ns3:TrackPointExtension>
        </extensions>
      </trkpt>
      <trkpt lat="42.6255223341286182403564453125" lon="19.88900296390056610107421875">
        <ele>1741.5999755859375</ele>
        <time>2026-06-16T11:17:49.000Z</time>
        <extensions>
          <ns3:TrackPointExtension>
            <ns3:atemp>21.0</ns3:atemp>
          </ns3:TrackPointExtension>
        </extensions>
      </trkpt>
      <trkpt lat="42.6255266927182674407958984375" lon="19.88900556229054927825927734375">
        <ele>1741.4000244140625</ele>
        <time>2026-06-16T11:17:50.000Z</time>
        <extensions>
          <ns3:TrackPointExtension>
            <ns3:atemp>21.0</ns3:atemp>
          </ns3:TrackPointExtension>
        </extensions>
      </trkpt>
      <trkpt lat="42.62553297914564609527587890625" lon="19.8890084959566593170166015625">
        <ele>1741.199951171875</ele>
        <time>2026-06-16T11:17:51.000Z</time>
        <extensions>
          <ns3:TrackPointExtension>
            <ns3:atemp>21.0</ns3:atemp>
          </ns3:TrackPointExtension>
        </extensions>
      </trkpt>
      <trkpt lat="42.6255417801439762115478515625" lon="19.88901176489889621734619140625">
        <ele>1741.199951171875</ele>
        <time>2026-06-16T11:17:52.000Z</time>
        <extensions>
          <ns3:TrackPointExtension>
            <ns3:atemp>21.0</ns3:atemp>
          </ns3:TrackPointExtension>
        </extensions>
      </trkpt>
      <trkpt lat="42.6255468092858791351318359375" lon="19.88901645876467227935791015625">
        <ele>1741</ele>
        <time>2026-06-16T11:17:53.000Z</time>
        <extensions>
          <ns3:TrackPointExtension>
            <ns3:atemp>21.0</ns3:atemp>
          </ns3:TrackPointExtension>
        </extensions>
      </trkpt>
      <trkpt lat="42.62554924003779888153076171875" lon="19.88901930861175060272216796875">
        <ele>1741</ele>
        <time>2026-06-16T11:17:54.000Z</time>
        <extensions>
          <ns3:TrackPointExtension>
            <ns3:atemp>21.0</ns3:atemp>
          </ns3:TrackPointExtension>
        </extensions>
      </trkpt>
      <trkpt lat="42.6255588792264461517333984375" lon="19.88902450539171695709228515625">
        <ele>1740.800048828125</ele>
        <time>2026-06-16T11:17:55.000Z</time>
        <extensions>
          <ns3:TrackPointExtension>
            <ns3:atemp>21.0</ns3:atemp>
          </ns3:TrackPointExtension>
        </extensions>
      </trkpt>
      <trkpt lat="42.62557539157569408416748046875" lon="19.88903104327619075775146484375">
        <ele>1740.5999755859375</ele>
        <time>2026-06-16T11:17:56.000Z</time>
        <extensions>
          <ns3:TrackPointExtension>
            <ns3:atemp>21.0</ns3:atemp>
          </ns3:TrackPointExtension>
        </extensions>
      </trkpt>
      <trkpt lat="42.625593580305576324462890625" lon="19.88903456367552280426025390625">
        <ele>1740.4000244140625</ele>
        <time>2026-06-16T11:17:57.000Z</time>
        <extensions>
          <ns3:TrackPointExtension>
            <ns3:atemp>21.0</ns3:atemp>
          </ns3:TrackPointExtension>
        </extensions>
      </trkpt>
      <trkpt lat="42.62560523115098476409912109375" lon="19.88903573714196681976318359375">
        <ele>1740.199951171875</ele>
        <time>2026-06-16T11:17:58.000Z</time>
        <extensions>
          <ns3:TrackPointExtension>
            <ns3:atemp>21.0</ns3:atemp>
          </ns3:TrackPointExtension>
        </extensions>
      </trkpt>
      <trkpt lat="42.62560958974063396453857421875" lon="19.88903942517936229705810546875">
        <ele>1740</ele>
        <time>2026-06-16T11:17:59.000Z</time>
        <extensions>
          <ns3:TrackPointExtension>
            <ns3:atemp>21.0</ns3:atemp>
          </ns3:TrackPointExtension>
        </extensions>
      </trkpt>
      <trkpt lat="42.625614702701568603515625" lon="19.8890410177409648895263671875">
        <ele>1739.800048828125</ele>
        <time>2026-06-16T11:18:00.000Z</time>
        <extensions>
          <ns3:TrackPointExtension>
            <ns3:atemp>21.0</ns3:atemp>
          </ns3:TrackPointExtension>
        </extensions>
      </trkpt>
      <trkpt lat="42.62562149204313755035400390625" lon="19.8890425264835357666015625">
        <ele>1739.800048828125</ele>
        <time>2026-06-16T11:18:01.000Z</time>
        <extensions>
          <ns3:TrackPointExtension>
            <ns3:atemp>21.0</ns3:atemp>
          </ns3:TrackPointExtension>
        </extensions>
      </trkpt>
      <trkpt lat="42.62563205324113368988037109375" lon="19.889038503170013427734375">
        <ele>1739.800048828125</ele>
        <time>2026-06-16T11:18:02.000Z</time>
        <extensions>
          <ns3:TrackPointExtension>
            <ns3:atemp>21.0</ns3:atemp>
          </ns3:TrackPointExtension>
        </extensions>
      </trkpt>
      <trkpt lat="42.6256386749446392059326171875" lon="19.88903691060841083526611328125">
        <ele>1739.800048828125</ele>
        <time>2026-06-16T11:18:03.000Z</time>
        <extensions>
          <ns3:TrackPointExtension>
            <ns3:atemp>21.0</ns3:atemp>
          </ns3:TrackPointExtension>
        </extensions>
      </trkpt>
      <trkpt lat="42.6256497390568256378173828125" lon="19.889035485684871673583984375">
        <ele>1739.800048828125</ele>
        <time>2026-06-16T11:18:04.000Z</time>
        <extensions>
          <ns3:TrackPointExtension>
            <ns3:atemp>21.0</ns3:atemp>
          </ns3:TrackPointExtension>
        </extensions>
      </trkpt>
      <trkpt lat="42.625662647187709808349609375" lon="19.88903892226517200469970703125">
        <ele>1739.800048828125</ele>
        <time>2026-06-16T11:18:05.000Z</time>
        <extensions>
          <ns3:TrackPointExtension>
            <ns3:atemp>21.0</ns3:atemp>
          </ns3:TrackPointExtension>
        </extensions>
      </trkpt>
      <trkpt lat="42.62566893361508846282958984375" lon="19.88904026336967945098876953125">
        <ele>1739.800048828125</ele>
        <time>2026-06-16T11:18:06.000Z</time>
        <extensions>
          <ns3:TrackPointExtension>
            <ns3:atemp>21.0</ns3:atemp>
          </ns3:TrackPointExtension>
        </extensions>
      </trkpt>
      <trkpt lat="42.6256758905947208404541015625" lon="19.88904177211225032806396484375">
        <ele>1739.800048828125</ele>
        <time>2026-06-16T11:18:07.000Z</time>
        <extensions>
          <ns3:TrackPointExtension>
            <ns3:atemp>21.0</ns3:atemp>
          </ns3:TrackPointExtension>
        </extensions>
      </trkpt>
      <trkpt lat="42.625684775412082672119140625" lon="19.889043867588043212890625">
        <ele>1739.800048828125</ele>
        <time>2026-06-16T11:18:08.000Z</time>
        <extensions>
          <ns3:TrackPointExtension>
            <ns3:atemp>21.0</ns3:atemp>
          </ns3:TrackPointExtension>
        </extensions>
      </trkpt>
      <trkpt lat="42.62569458223879337310791015625" lon="19.8890467174351215362548828125">
        <ele>1739.5999755859375</ele>
        <time>2026-06-16T11:18:09.000Z</time>
        <extensions>
          <ns3:TrackPointExtension>
            <ns3:atemp>21.0</ns3:atemp>
          </ns3:TrackPointExtension>
        </extensions>
      </trkpt>
      <trkpt lat="42.62570816092193126678466796875" lon="19.889062307775020599365234375">
        <ele>1739.5999755859375</ele>
        <time>2026-06-16T11:18:10.000Z</time>
        <extensions>
          <ns3:TrackPointExtension>
            <ns3:atemp>21.0</ns3:atemp>
          </ns3:TrackPointExtension>
        </extensions>
      </trkpt>
      <trkpt lat="42.62571956031024456024169921875" lon="19.88907714374363422393798828125">
        <ele>1739.4000244140625</ele>
        <time>2026-06-16T11:18:11.000Z</time>
        <extensions>
          <ns3:TrackPointExtension>
            <ns3:atemp>21.0</ns3:atemp>
          </ns3:TrackPointExtension>
        </extensions>
      </trkpt>
      <trkpt lat="42.62573146261274814605712890625" lon="19.88909826613962650299072265625">
        <ele>1739.199951171875</ele>
        <time>2026-06-16T11:18:12.000Z</time>
        <extensions>
          <ns3:TrackPointExtension>
            <ns3:atemp>21.0</ns3:atemp>
          </ns3:TrackPointExtension>
        </extensions>
      </trkpt>
      <trkpt lat="42.6257474720478057861328125" lon="19.889127351343631744384765625">
        <ele>1738.800048828125</ele>
        <time>2026-06-16T11:18:13.000Z</time>
        <extensions>
          <ns3:TrackPointExtension>
            <ns3:atemp>21.0</ns3:atemp>
          </ns3:TrackPointExtension>
        </extensions>
      </trkpt>
      <trkpt lat="42.6257583685219287872314453125" lon="19.88915375433862209320068359375">
        <ele>1738.199951171875</ele>
        <time>2026-06-16T11:18:14.000Z</time>
        <extensions>
          <ns3:TrackPointExtension>
            <ns3:atemp>21.0</ns3:atemp>
          </ns3:TrackPointExtension>
        </extensions>
      </trkpt>
      <trkpt lat="42.6257761381566524505615234375" lon="19.88917730748653411865234375">
        <ele>1737.5999755859375</ele>
        <time>2026-06-16T11:18:15.000Z</time>
        <extensions>
          <ns3:TrackPointExtension>
            <ns3:atemp>21.0</ns3:atemp>
          </ns3:TrackPointExtension>
        </extensions>
      </trkpt>
      <trkpt lat="42.62578946538269519805908203125" lon="19.8891985975205898284912109375">
        <ele>1737.199951171875</ele>
        <time>2026-06-16T11:18:16.000Z</time>
        <extensions>
          <ns3:TrackPointExtension>
            <ns3:atemp>21.0</ns3:atemp>
          </ns3:TrackPointExtension>
        </extensions>
      </trkpt>
      <trkpt lat="42.62580052949488162994384765625" lon="19.8892093263566493988037109375">
        <ele>1736.5999755859375</ele>
        <time>2026-06-16T11:18:17.000Z</time>
        <extensions>
          <ns3:TrackPointExtension>
            <ns3:atemp>21.0</ns3:atemp>
          </ns3:TrackPointExtension>
        </extensions>
      </trkpt>
      <trkpt lat="42.625805474817752838134765625" lon="19.88922500051558017730712890625">
        <ele>1736.4000244140625</ele>
        <time>2026-06-16T11:18:18.000Z</time>
        <extensions>
          <ns3:TrackPointExtension>
            <ns3:atemp>21.0</ns3:atemp>
          </ns3:TrackPointExtension>
        </extensions>
      </trkpt>
      <trkpt lat="42.6258076541125774383544921875" lon="19.88923874683678150177001953125">
        <ele>1736</ele>
        <time>2026-06-16T11:18:19.000Z</time>
        <extensions>
          <ns3:TrackPointExtension>
            <ns3:atemp>21.0</ns3:atemp>
          </ns3:TrackPointExtension>
        </extensions>
      </trkpt>
      <trkpt lat="42.62581058777868747711181640625" lon="19.88925115205347537994384765625">
        <ele>1735.5999755859375</ele>
        <time>2026-06-16T11:18:20.000Z</time>
        <extensions>
          <ns3:TrackPointExtension>
            <ns3:atemp>21.0</ns3:atemp>
          </ns3:TrackPointExtension>
        </extensions>
      </trkpt>
      <trkpt lat="42.6258172094821929931640625" lon="19.889264814555644989013671875">
        <ele>1735.199951171875</ele>
        <time>2026-06-16T11:18:21.000Z</time>
        <extensions>
          <ns3:TrackPointExtension>
            <ns3:atemp>21.0</ns3:atemp>
          </ns3:TrackPointExtension>
        </extensions>
      </trkpt>
      <trkpt lat="42.62582324445247650146484375" lon="19.889282248914241790771484375">
        <ele>1734.800048828125</ele>
        <time>2026-06-16T11:18:22.000Z</time>
        <extensions>
          <ns3:TrackPointExtension>
            <ns3:atemp>21.0</ns3:atemp>
          </ns3:TrackPointExtension>
        </extensions>
      </trkpt>
      <trkpt lat="42.6258279383182525634765625" lon="19.88929825834929943084716796875">
        <ele>1734.5999755859375</ele>
        <time>2026-06-16T11:18:23.000Z</time>
        <extensions>
          <ns3:TrackPointExtension>
            <ns3:atemp>21.0</ns3:atemp>
          </ns3:TrackPointExtension>
        </extensions>
      </trkpt>
      <trkpt lat="42.6258331350982189178466796875" lon="19.889314435422420501708984375">
        <ele>1734.4000244140625</ele>
        <time>2026-06-16T11:18:24.000Z</time>
        <extensions>
          <ns3:TrackPointExtension>
            <ns3:atemp>21.0</ns3:atemp>
          </ns3:TrackPointExtension>
        </extensions>
      </trkpt>
      <trkpt lat="42.62583388946950435638427734375" lon="19.88932843320071697235107421875">
        <ele>1734</ele>
        <time>2026-06-16T11:18:25.000Z</time>
        <extensions>
          <ns3:TrackPointExtension>
            <ns3:atemp>21.0</ns3:atemp>
          </ns3:TrackPointExtension>
        </extensions>
      </trkpt>
      <trkpt lat="42.6258331350982189178466796875" lon="19.889354668557643890380859375">
        <ele>1733.800048828125</ele>
        <time>2026-06-16T11:18:26.000Z</time>
        <extensions>
          <ns3:TrackPointExtension>
            <ns3:atemp>21.0</ns3:atemp>
          </ns3:TrackPointExtension>
        </extensions>
      </trkpt>
      <trkpt lat="42.6258304528892040252685546875" lon="19.88937889225780963897705078125">
        <ele>1733.4000244140625</ele>
        <time>2026-06-16T11:18:27.000Z</time>
        <extensions>
          <ns3:TrackPointExtension>
            <ns3:atemp>21.0</ns3:atemp>
          </ns3:TrackPointExtension>
        </extensions>
      </trkpt>
      <trkpt lat="42.62583154253661632537841796875" lon="19.889400266110897064208984375">
        <ele>1733</ele>
        <time>2026-06-16T11:18:28.000Z</time>
        <extensions>
          <ns3:TrackPointExtension>
            <ns3:atemp>21.0</ns3:atemp>
          </ns3:TrackPointExtension>
        </extensions>
      </trkpt>
      <trkpt lat="42.62583531439304351806640625" lon="19.889418371021747589111328125">
        <ele>1732.5999755859375</ele>
        <time>2026-06-16T11:18:29.000Z</time>
        <extensions>
          <ns3:TrackPointExtension>
            <ns3:atemp>21.0</ns3:atemp>
          </ns3:TrackPointExtension>
        </extensions>
      </trkpt>
      <trkpt lat="42.62584109790623188018798828125" lon="19.8894394934177398681640625">
        <ele>1732.199951171875</ele>
        <time>2026-06-16T11:18:30.000Z</time>
        <extensions>
          <ns3:TrackPointExtension>
            <ns3:atemp>21.0</ns3:atemp>
          </ns3:TrackPointExtension>
        </extensions>
      </trkpt>
      <trkpt lat="42.62584830634295940399169921875" lon="19.8894661478698253631591796875">
        <ele>1731.800048828125</ele>
        <time>2026-06-16T11:18:31.000Z</time>
        <extensions>
          <ns3:TrackPointExtension>
            <ns3:atemp>21.0</ns3:atemp>
          </ns3:TrackPointExtension>
        </extensions>
      </trkpt>
      <trkpt lat="42.62585585005581378936767578125" lon="19.88949305377900600433349609375">
        <ele>1731.199951171875</ele>
        <time>2026-06-16T11:18:32.000Z</time>
        <extensions>
          <ns3:TrackPointExtension>
            <ns3:atemp>21.0</ns3:atemp>
          </ns3:TrackPointExtension>
        </extensions>
      </trkpt>
      <trkpt lat="42.6258609630167484283447265625" lon="19.8895204626023769378662109375">
        <ele>1730.800048828125</ele>
        <time>2026-06-16T11:18:33.000Z</time>
        <extensions>
          <ns3:TrackPointExtension>
            <ns3:atemp>21.0</ns3:atemp>
          </ns3:TrackPointExtension>
        </extensions>
      </trkpt>
      <trkpt lat="42.6258703507483005523681640625" lon="19.88955281674861907958984375">
        <ele>1730.4000244140625</ele>
        <time>2026-06-16T11:18:34.000Z</time>
        <extensions>
          <ns3:TrackPointExtension>
            <ns3:atemp>21.0</ns3:atemp>
          </ns3:TrackPointExtension>
        </extensions>
      </trkpt>
      <trkpt lat="42.6258757151663303375244140625" lon="19.889574609696865081787109375">
        <ele>1730</ele>
        <time>2026-06-16T11:18:35.000Z</time>
        <extensions>
          <ns3:TrackPointExtension>
            <ns3:atemp>21.0</ns3:atemp>
          </ns3:TrackPointExtension>
        </extensions>
      </trkpt>
      <trkpt lat="42.62587881647050380706787109375" lon="19.88958290778100490570068359375">
        <ele>1729.800048828125</ele>
        <time>2026-06-16T11:18:36.000Z</time>
        <extensions>
          <ns3:TrackPointExtension>
            <ns3:atemp>21.0</ns3:atemp>
          </ns3:TrackPointExtension>
        </extensions>
      </trkpt>
      <trkpt lat="42.62587881647050380706787109375" lon="19.88958290778100490570068359375">
        <ele>1729.4000244140625</ele>
        <time>2026-06-16T11:18:37.000Z</time>
        <extensions>
          <ns3:TrackPointExtension>
            <ns3:atemp>21.0</ns3:atemp>
          </ns3:TrackPointExtension>
        </extensions>
      </trkpt>
      <trkpt lat="42.6258794032037258148193359375" lon="19.8895831592381000518798828125">
        <ele>1729</ele>
        <time>2026-06-16T11:18:38.000Z</time>
        <extensions>
          <ns3:TrackPointExtension>
            <ns3:atemp>21.0</ns3:atemp>
          </ns3:TrackPointExtension>
        </extensions>
      </trkpt>
      <trkpt lat="42.62588786892592906951904296875" lon="19.88960201852023601531982421875">
        <ele>1728.800048828125</ele>
        <time>2026-06-16T11:18:39.000Z</time>
        <extensions>
          <ns3:TrackPointExtension>
            <ns3:atemp>21.0</ns3:atemp>
          </ns3:TrackPointExtension>
        </extensions>
      </trkpt>
      <trkpt lat="42.6258928142488002777099609375" lon="19.88962582312524318695068359375">
        <ele>1728.5999755859375</ele>
        <time>2026-06-16T11:18:40.000Z</time>
        <extensions>
          <ns3:TrackPointExtension>
            <ns3:atemp>21.0</ns3:atemp>
          </ns3:TrackPointExtension>
        </extensions>
      </trkpt>
      <trkpt lat="42.62589423917233943939208984375" lon="19.88964711315929889678955078125">
        <ele>1728.4000244140625</ele>
        <time>2026-06-16T11:18:41.000Z</time>
        <extensions>
          <ns3:TrackPointExtension>
            <ns3:atemp>21.0</ns3:atemp>
          </ns3:TrackPointExtension>
        </extensions>
      </trkpt>
      <trkpt lat="42.62589507736265659332275390625" lon="19.88966303877532482147216796875">
        <ele>1728</ele>
        <time>2026-06-16T11:18:42.000Z</time>
        <extensions>
          <ns3:TrackPointExtension>
            <ns3:atemp>21.0</ns3:atemp>
          </ns3:TrackPointExtension>
        </extensions>
      </trkpt>
      <trkpt lat="42.62589474208652973175048828125" lon="19.88967795856297016143798828125">
        <ele>1727.5999755859375</ele>
        <time>2026-06-16T11:18:43.000Z</time>
        <extensions>
          <ns3:TrackPointExtension>
            <ns3:atemp>21.0</ns3:atemp>
          </ns3:TrackPointExtension>
        </extensions>
      </trkpt>
      <trkpt lat="42.62589876540005207061767578125" lon="19.88969027996063232421875">
        <ele>1727.199951171875</ele>
        <time>2026-06-16T11:18:44.000Z</time>
        <extensions>
          <ns3:TrackPointExtension>
            <ns3:atemp>21.0</ns3:atemp>
          </ns3:TrackPointExtension>
        </extensions>
      </trkpt>
      <trkpt lat="42.625898681581020355224609375" lon="19.88969656638801097869873046875">
        <ele>1726.800048828125</ele>
        <time>2026-06-16T11:18:45.000Z</time>
        <extensions>
          <ns3:TrackPointExtension>
            <ns3:atemp>21.0</ns3:atemp>
          </ns3:TrackPointExtension>
        </extensions>
      </trkpt>
      <trkpt lat="42.625895999372005462646484375" lon="19.88970075733959674835205078125">
        <ele>1726.5999755859375</ele>
        <time>2026-06-16T11:18:46.000Z</time>
        <extensions>
          <ns3:TrackPointExtension>
            <ns3:atemp>21.0</ns3:atemp>
          </ns3:TrackPointExtension>
        </extensions>
      </trkpt>
      <trkpt lat="42.62589826248586177825927734375" lon="19.889712743461132049560546875">
        <ele>1726.199951171875</ele>
        <time>2026-06-16T11:18:47.000Z</time>
        <extensions>
          <ns3:TrackPointExtension>
            <ns3:atemp>21.0</ns3:atemp>
          </ns3:TrackPointExtension>
        </extensions>
      </trkpt>
      <trkpt lat="42.62589943595230579376220703125" lon="19.8897212930023670196533203125">
        <ele>1726</ele>
        <time>2026-06-16T11:18:48.000Z</time>
        <extensions>
          <ns3:TrackPointExtension>
            <ns3:atemp>21.0</ns3:atemp>
          </ns3:TrackPointExtension>
        </extensions>
      </trkpt>
      <trkpt lat="42.6258995197713375091552734375" lon="19.8897212930023670196533203125">
        <ele>1725.800048828125</ele>
        <time>2026-06-16T11:18:49.000Z</time>
        <extensions>
          <ns3:TrackPointExtension>
            <ns3:atemp>21.0</ns3:atemp>
          </ns3:TrackPointExtension>
        </extensions>
      </trkpt>
      <trkpt lat="42.6258995197713375091552734375" lon="19.8897212930023670196533203125">
        <ele>1725.5999755859375</ele>
        <time>2026-06-16T11:18:50.000Z</time>
        <extensions>
          <ns3:TrackPointExtension>
            <ns3:atemp>21.0</ns3:atemp>
          </ns3:TrackPointExtension>
        </extensions>
      </trkpt>
      <trkpt lat="42.6258995197713375091552734375" lon="19.8897212930023670196533203125">
        <ele>1725.4000244140625</ele>
        <time>2026-06-16T11:18:51.000Z</time>
        <extensions>
          <ns3:TrackPointExtension>
            <ns3:atemp>21.0</ns3:atemp>
          </ns3:TrackPointExtension>
        </extensions>
      </trkpt>
      <trkpt lat="42.6258995197713375091552734375" lon="19.8897212930023670196533203125">
        <ele>1725.199951171875</ele>
        <time>2026-06-16T11:18:52.000Z</time>
        <extensions>
          <ns3:TrackPointExtension>
            <ns3:atemp>21.0</ns3:atemp>
          </ns3:TrackPointExtension>
        </extensions>
      </trkpt>
      <trkpt lat="42.6258995197713375091552734375" lon="19.8897212930023670196533203125">
        <ele>1725.199951171875</ele>
        <time>2026-06-16T11:18:53.000Z</time>
        <extensions>
          <ns3:TrackPointExtension>
            <ns3:atemp>21.0</ns3:atemp>
          </ns3:TrackPointExtension>
        </extensions>
      </trkpt>
      <trkpt lat="42.6258995197713375091552734375" lon="19.8897212930023670196533203125">
        <ele>1725</ele>
        <time>2026-06-16T11:18:54.000Z</time>
        <extensions>
          <ns3:TrackPointExtension>
            <ns3:atemp>21.0</ns3:atemp>
          </ns3:TrackPointExtension>
        </extensions>
      </trkpt>
      <trkpt lat="42.62590077705681324005126953125" lon="19.8897216282784938812255859375">
        <ele>1725</ele>
        <time>2026-06-16T11:18:55.000Z</time>
        <extensions>
          <ns3:TrackPointExtension>
            <ns3:atemp>21.0</ns3:atemp>
          </ns3:TrackPointExtension>
        </extensions>
      </trkpt>
      <trkpt lat="42.62590379454195499420166015625" lon="19.88974350504577159881591796875">
        <ele>1724.800048828125</ele>
        <time>2026-06-16T11:18:56.000Z</time>
        <extensions>
          <ns3:TrackPointExtension>
            <ns3:atemp>21.0</ns3:atemp>
          </ns3:TrackPointExtension>
        </extensions>
      </trkpt>
      <trkpt lat="42.62590144760906696319580078125" lon="19.88975155167281627655029296875">
        <ele>1724.5999755859375</ele>
        <time>2026-06-16T11:18:57.000Z</time>
        <extensions>
          <ns3:TrackPointExtension>
            <ns3:atemp>21.0</ns3:atemp>
          </ns3:TrackPointExtension>
        </extensions>
      </trkpt>
      <trkpt lat="42.62590496800839900970458984375" lon="19.8897507973015308380126953125">
        <ele>1724.199951171875</ele>
        <time>2026-06-16T11:18:58.000Z</time>
        <extensions>
          <ns3:TrackPointExtension>
            <ns3:atemp>21.0</ns3:atemp>
          </ns3:TrackPointExtension>
        </extensions>
      </trkpt>
      <trkpt lat="42.62590505182743072509765625" lon="19.88975071348249912261962890625">
        <ele>1724</ele>
        <time>2026-06-16T11:18:59.000Z</time>
        <extensions>
          <ns3:TrackPointExtension>
            <ns3:atemp>21.0</ns3:atemp>
          </ns3:TrackPointExtension>
        </extensions>
      </trkpt>
      <trkpt lat="42.62590505182743072509765625" lon="19.88975071348249912261962890625">
        <ele>1723.5999755859375</ele>
        <time>2026-06-16T11:19:00.000Z</time>
        <extensions>
          <ns3:TrackPointExtension>
            <ns3:atemp>21.0</ns3:atemp>
          </ns3:TrackPointExtension>
        </extensions>
      </trkpt>
      <trkpt lat="42.62590505182743072509765625" lon="19.88975071348249912261962890625">
        <ele>1723.4000244140625</ele>
        <time>2026-06-16T11:19:01.000Z</time>
        <extensions>
          <ns3:TrackPointExtension>
            <ns3:atemp>21.0</ns3:atemp>
          </ns3:TrackPointExtension>
        </extensions>
      </trkpt>
      <trkpt lat="42.62590505182743072509765625" lon="19.88975071348249912261962890625">
        <ele>1723.4000244140625</ele>
        <time>2026-06-16T11:19:02.000Z</time>
        <extensions>
          <ns3:TrackPointExtension>
            <ns3:atemp>21.0</ns3:atemp>
          </ns3:TrackPointExtension>
        </extensions>
      </trkpt>
      <trkpt lat="42.62590547092258930206298828125" lon="19.88975021056830883026123046875">
        <ele>1723.5999755859375</ele>
        <time>2026-06-16T11:19:03.000Z</time>
        <extensions>
          <ns3:TrackPointExtension>
            <ns3:atemp>21.0</ns3:atemp>
          </ns3:TrackPointExtension>
        </extensions>
      </trkpt>
      <trkpt lat="42.6259065605700016021728515625" lon="19.8897454328835010528564453125">
        <ele>1723.800048828125</ele>
        <time>2026-06-16T11:19:04.000Z</time>
        <extensions>
          <ns3:TrackPointExtension>
            <ns3:atemp>21.0</ns3:atemp>
          </ns3:TrackPointExtension>
        </extensions>
      </trkpt>
      <trkpt lat="42.62590102851390838623046875" lon="19.88974518142640590667724609375">
        <ele>1723.800048828125</ele>
        <time>2026-06-16T11:19:05.000Z</time>
        <extensions>
          <ns3:TrackPointExtension>
            <ns3:atemp>21.0</ns3:atemp>
          </ns3:TrackPointExtension>
        </extensions>
      </trkpt>
      <trkpt lat="42.62589574791491031646728515625" lon="19.889738224446773529052734375">
        <ele>1723.800048828125</ele>
        <time>2026-06-16T11:19:06.000Z</time>
        <extensions>
          <ns3:TrackPointExtension>
            <ns3:atemp>21.0</ns3:atemp>
          </ns3:TrackPointExtension>
        </extensions>
      </trkpt>
      <trkpt lat="42.62588820420205593109130859375" lon="19.8897303454577922821044921875">
        <ele>1723.5999755859375</ele>
        <time>2026-06-16T11:19:07.000Z</time>
        <extensions>
          <ns3:TrackPointExtension>
            <ns3:atemp>21.0</ns3:atemp>
          </ns3:TrackPointExtension>
        </extensions>
      </trkpt>
      <trkpt lat="42.62589055113494396209716796875" lon="19.88972908817231655120849609375">
        <ele>1723.199951171875</ele>
        <time>2026-06-16T11:19:08.000Z</time>
        <extensions>
          <ns3:TrackPointExtension>
            <ns3:atemp>21.0</ns3:atemp>
          </ns3:TrackPointExtension>
        </extensions>
      </trkpt>
      <trkpt lat="42.62589055113494396209716796875" lon="19.8897291719913482666015625">
        <ele>1723</ele>
        <time>2026-06-16T11:19:09.000Z</time>
        <extensions>
          <ns3:TrackPointExtension>
            <ns3:atemp>21.0</ns3:atemp>
          </ns3:TrackPointExtension>
        </extensions>
      </trkpt>
      <trkpt lat="42.62589055113494396209716796875" lon="19.8897291719913482666015625">
        <ele>1722.5999755859375</ele>
        <time>2026-06-16T11:19:10.000Z</time>
        <extensions>
          <ns3:TrackPointExtension>
            <ns3:atemp>21.0</ns3:atemp>
          </ns3:TrackPointExtension>
        </extensions>
      </trkpt>
      <trkpt lat="42.62589055113494396209716796875" lon="19.8897291719913482666015625">
        <ele>1722.5999755859375</ele>
        <time>2026-06-16T11:19:11.000Z</time>
        <extensions>
          <ns3:TrackPointExtension>
            <ns3:atemp>21.0</ns3:atemp>
          </ns3:TrackPointExtension>
        </extensions>
      </trkpt>
      <trkpt lat="42.62589055113494396209716796875" lon="19.8897291719913482666015625">
        <ele>1722.4000244140625</ele>
        <time>2026-06-16T11:19:12.000Z</time>
        <extensions>
          <ns3:TrackPointExtension>
            <ns3:atemp>21.0</ns3:atemp>
          </ns3:TrackPointExtension>
        </extensions>
      </trkpt>
      <trkpt lat="42.62589055113494396209716796875" lon="19.8897291719913482666015625">
        <ele>1722.4000244140625</ele>
        <time>2026-06-16T11:19:13.000Z</time>
        <extensions>
          <ns3:TrackPointExtension>
            <ns3:atemp>21.0</ns3:atemp>
          </ns3:TrackPointExtension>
        </extensions>
      </trkpt>
      <trkpt lat="42.62589055113494396209716796875" lon="19.8897291719913482666015625">
        <ele>1722.5999755859375</ele>
        <time>2026-06-16T11:19:14.000Z</time>
        <extensions>
          <ns3:TrackPointExtension>
            <ns3:atemp>21.0</ns3:atemp>
          </ns3:TrackPointExtension>
        </extensions>
      </trkpt>
      <trkpt lat="42.62589055113494396209716796875" lon="19.8897291719913482666015625">
        <ele>1722.5999755859375</ele>
        <time>2026-06-16T11:19:15.000Z</time>
        <extensions>
          <ns3:TrackPointExtension>
            <ns3:atemp>21.0</ns3:atemp>
          </ns3:TrackPointExtension>
        </extensions>
      </trkpt>
      <trkpt lat="42.62589055113494396209716796875" lon="19.8897291719913482666015625">
        <ele>1722.5999755859375</ele>
        <time>2026-06-16T11:19:16.000Z</time>
        <extensions>
          <ns3:TrackPointExtension>
            <ns3:atemp>21.0</ns3:atemp>
          </ns3:TrackPointExtension>
        </extensions>
      </trkpt>
      <trkpt lat="42.62589055113494396209716796875" lon="19.8897291719913482666015625">
        <ele>1722.5999755859375</ele>
        <time>2026-06-16T11:19:17.000Z</time>
        <extensions>
          <ns3:TrackPointExtension>
            <ns3:atemp>21.0</ns3:atemp>
          </ns3:TrackPointExtension>
        </extensions>
      </trkpt>
      <trkpt lat="42.62589055113494396209716796875" lon="19.8897291719913482666015625">
        <ele>1722.5999755859375</ele>
        <time>2026-06-16T11:19:18.000Z</time>
        <extensions>
          <ns3:TrackPointExtension>
            <ns3:atemp>21.0</ns3:atemp>
          </ns3:TrackPointExtension>
        </extensions>
      </trkpt>
      <trkpt lat="42.62589055113494396209716796875" lon="19.8897291719913482666015625">
        <ele>1722.5999755859375</ele>
        <time>2026-06-16T11:19:19.000Z</time>
        <extensions>
          <ns3:TrackPointExtension>
            <ns3:atemp>21.0</ns3:atemp>
          </ns3:TrackPointExtension>
        </extensions>
      </trkpt>
      <trkpt lat="42.62589055113494396209716796875" lon="19.8897291719913482666015625">
        <ele>1722.5999755859375</ele>
        <time>2026-06-16T11:19:20.000Z</time>
        <extensions>
          <ns3:TrackPointExtension>
            <ns3:atemp>21.0</ns3:atemp>
          </ns3:TrackPointExtension>
        </extensions>
      </trkpt>
      <trkpt lat="42.62589055113494396209716796875" lon="19.8897291719913482666015625">
        <ele>1722.5999755859375</ele>
        <time>2026-06-16T11:19:21.000Z</time>
        <extensions>
          <ns3:TrackPointExtension>
            <ns3:atemp>21.0</ns3:atemp>
          </ns3:TrackPointExtension>
        </extensions>
      </trkpt>
      <trkpt lat="42.62589055113494396209716796875" lon="19.8897291719913482666015625">
        <ele>1722.5999755859375</ele>
        <time>2026-06-16T11:19:22.000Z</time>
        <extensions>
          <ns3:TrackPointExtension>
            <ns3:atemp>21.0</ns3:atemp>
          </ns3:TrackPointExtension>
        </extensions>
      </trkpt>
      <trkpt lat="42.62589055113494396209716796875" lon="19.8897291719913482666015625">
        <ele>1722.5999755859375</ele>
        <time>2026-06-16T11:19:23.000Z</time>
        <extensions>
          <ns3:TrackPointExtension>
            <ns3:atemp>21.0</ns3:atemp>
          </ns3:TrackPointExtension>
        </extensions>
      </trkpt>
      <trkpt lat="42.62589055113494396209716796875" lon="19.8897291719913482666015625">
        <ele>1722.5999755859375</ele>
        <time>2026-06-16T11:19:24.000Z</time>
        <extensions>
          <ns3:TrackPointExtension>
            <ns3:atemp>21.0</ns3:atemp>
          </ns3:TrackPointExtension>
        </extensions>
      </trkpt>
      <trkpt lat="42.62589055113494396209716796875" lon="19.8897291719913482666015625">
        <ele>1722.5999755859375</ele>
        <time>2026-06-16T11:19:25.000Z</time>
        <extensions>
          <ns3:TrackPointExtension>
            <ns3:atemp>21.0</ns3:atemp>
          </ns3:TrackPointExtension>
        </extensions>
      </trkpt>
      <trkpt lat="42.62589055113494396209716796875" lon="19.8897291719913482666015625">
        <ele>1722.5999755859375</ele>
        <time>2026-06-16T11:19:26.000Z</time>
        <extensions>
          <ns3:TrackPointExtension>
            <ns3:atemp>21.0</ns3:atemp>
          </ns3:TrackPointExtension>
        </extensions>
      </trkpt>
      <trkpt lat="42.62589055113494396209716796875" lon="19.8897291719913482666015625">
        <ele>1722.5999755859375</ele>
        <time>2026-06-16T11:19:27.000Z</time>
        <extensions>
          <ns3:TrackPointExtension>
            <ns3:atemp>21.0</ns3:atemp>
          </ns3:TrackPointExtension>
        </extensions>
      </trkpt>
      <trkpt lat="42.62589055113494396209716796875" lon="19.8897291719913482666015625">
        <ele>1722.5999755859375</ele>
        <time>2026-06-16T11:19:28.000Z</time>
        <extensions>
          <ns3:TrackPointExtension>
            <ns3:atemp>21.0</ns3:atemp>
          </ns3:TrackPointExtension>
        </extensions>
      </trkpt>
      <trkpt lat="42.62589055113494396209716796875" lon="19.8897291719913482666015625">
        <ele>1722.5999755859375</ele>
        <time>2026-06-16T11:19:29.000Z</time>
        <extensions>
          <ns3:TrackPointExtension>
            <ns3:atemp>21.0</ns3:atemp>
          </ns3:TrackPointExtension>
        </extensions>
      </trkpt>
      <trkpt lat="42.62589055113494396209716796875" lon="19.8897291719913482666015625">
        <ele>1722.5999755859375</ele>
        <time>2026-06-16T11:19:30.000Z</time>
        <extensions>
          <ns3:TrackPointExtension>
            <ns3:atemp>21.0</ns3:atemp>
          </ns3:TrackPointExtension>
        </extensions>
      </trkpt>
      <trkpt lat="42.62589055113494396209716796875" lon="19.8897291719913482666015625">
        <ele>1722.5999755859375</ele>
        <time>2026-06-16T11:19:31.000Z</time>
        <extensions>
          <ns3:TrackPointExtension>
            <ns3:atemp>21.0</ns3:atemp>
          </ns3:TrackPointExtension>
        </extensions>
      </trkpt>
      <trkpt lat="42.62589055113494396209716796875" lon="19.8897291719913482666015625">
        <ele>1722.5999755859375</ele>
        <time>2026-06-16T11:19:32.000Z</time>
        <extensions>
          <ns3:TrackPointExtension>
            <ns3:atemp>21.0</ns3:atemp>
          </ns3:TrackPointExtension>
        </extensions>
      </trkpt>
      <trkpt lat="42.62589055113494396209716796875" lon="19.8897291719913482666015625">
        <ele>1722.5999755859375</ele>
        <time>2026-06-16T11:19:33.000Z</time>
        <extensions>
          <ns3:TrackPointExtension>
            <ns3:atemp>21.0</ns3:atemp>
          </ns3:TrackPointExtension>
        </extensions>
      </trkpt>
      <trkpt lat="42.62589055113494396209716796875" lon="19.8897291719913482666015625">
        <ele>1722.5999755859375</ele>
        <time>2026-06-16T11:19:34.000Z</time>
        <extensions>
          <ns3:TrackPointExtension>
            <ns3:atemp>21.0</ns3:atemp>
          </ns3:TrackPointExtension>
        </extensions>
      </trkpt>
      <trkpt lat="42.62589055113494396209716796875" lon="19.8897291719913482666015625">
        <ele>1722.800048828125</ele>
        <time>2026-06-16T11:19:35.000Z</time>
        <extensions>
          <ns3:TrackPointExtension>
            <ns3:atemp>21.0</ns3:atemp>
          </ns3:TrackPointExtension>
        </extensions>
      </trkpt>
      <trkpt lat="42.62589055113494396209716796875" lon="19.8897291719913482666015625">
        <ele>1722.800048828125</ele>
        <time>2026-06-16T11:19:36.000Z</time>
        <extensions>
          <ns3:TrackPointExtension>
            <ns3:atemp>21.0</ns3:atemp>
          </ns3:TrackPointExtension>
        </extensions>
      </trkpt>
      <trkpt lat="42.62589055113494396209716796875" lon="19.8897291719913482666015625">
        <ele>1722.800048828125</ele>
        <time>2026-06-16T11:19:37.000Z</time>
        <extensions>
          <ns3:TrackPointExtension>
            <ns3:atemp>21.0</ns3:atemp>
          </ns3:TrackPointExtension>
        </extensions>
      </trkpt>
      <trkpt lat="42.62589055113494396209716796875" lon="19.8897291719913482666015625">
        <ele>1722.800048828125</ele>
        <time>2026-06-16T11:19:38.000Z</time>
        <extensions>
          <ns3:TrackPointExtension>
            <ns3:atemp>21.0</ns3:atemp>
          </ns3:TrackPointExtension>
        </extensions>
      </trkpt>
      <trkpt lat="42.62589055113494396209716796875" lon="19.8897291719913482666015625">
        <ele>1722.800048828125</ele>
        <time>2026-06-16T11:19:39.000Z</time>
        <extensions>
          <ns3:TrackPointExtension>
            <ns3:atemp>21.0</ns3:atemp>
          </ns3:TrackPointExtension>
        </extensions>
      </trkpt>
      <trkpt lat="42.62589055113494396209716796875" lon="19.8897291719913482666015625">
        <ele>1722.800048828125</ele>
        <time>2026-06-16T11:19:40.000Z</time>
        <extensions>
          <ns3:TrackPointExtension>
            <ns3:atemp>21.0</ns3:atemp>
          </ns3:TrackPointExtension>
        </extensions>
      </trkpt>
      <trkpt lat="42.62589055113494396209716796875" lon="19.8897291719913482666015625">
        <ele>1722.800048828125</ele>
        <time>2026-06-16T11:19:41.000Z</time>
        <extensions>
          <ns3:TrackPointExtension>
            <ns3:atemp>21.0</ns3:atemp>
          </ns3:TrackPointExtension>
        </extensions>
      </trkpt>
      <trkpt lat="42.62589055113494396209716796875" lon="19.8897291719913482666015625">
        <ele>1722.800048828125</ele>
        <time>2026-06-16T11:19:42.000Z</time>
        <extensions>
          <ns3:TrackPointExtension>
            <ns3:atemp>21.0</ns3:atemp>
          </ns3:TrackPointExtension>
        </extensions>
      </trkpt>
      <trkpt lat="42.62589055113494396209716796875" lon="19.8897291719913482666015625">
        <ele>1722.800048828125</ele>
        <time>2026-06-16T11:19:43.000Z</time>
        <extensions>
          <ns3:TrackPointExtension>
            <ns3:atemp>21.0</ns3:atemp>
          </ns3:TrackPointExtension>
        </extensions>
      </trkpt>
      <trkpt lat="42.62589055113494396209716796875" lon="19.8897291719913482666015625">
        <ele>1722.800048828125</ele>
        <time>2026-06-16T11:19:44.000Z</time>
        <extensions>
          <ns3:TrackPointExtension>
            <ns3:atemp>21.0</ns3:atemp>
          </ns3:TrackPointExtension>
        </extensions>
      </trkpt>
      <trkpt lat="42.62589055113494396209716796875" lon="19.8897291719913482666015625">
        <ele>1722.800048828125</ele>
        <time>2026-06-16T11:19:45.000Z</time>
        <extensions>
          <ns3:TrackPointExtension>
            <ns3:atemp>21.0</ns3:atemp>
          </ns3:TrackPointExtension>
        </extensions>
      </trkpt>
      <trkpt lat="42.62589055113494396209716796875" lon="19.8897291719913482666015625">
        <ele>1722.800048828125</ele>
        <time>2026-06-16T11:19:46.000Z</time>
        <extensions>
          <ns3:TrackPointExtension>
            <ns3:atemp>21.0</ns3:atemp>
          </ns3:TrackPointExtension>
        </extensions>
      </trkpt>
      <trkpt lat="42.62589055113494396209716796875" lon="19.8897291719913482666015625">
        <ele>1722.800048828125</ele>
        <time>2026-06-16T11:19:47.000Z</time>
        <extensions>
          <ns3:TrackPointExtension>
            <ns3:atemp>21.0</ns3:atemp>
          </ns3:TrackPointExtension>
        </extensions>
      </trkpt>
      <trkpt lat="42.62589055113494396209716796875" lon="19.8897291719913482666015625">
        <ele>1722.800048828125</ele>
        <time>2026-06-16T11:19:48.000Z</time>
        <extensions>
          <ns3:TrackPointExtension>
            <ns3:atemp>21.0</ns3:atemp>
          </ns3:TrackPointExtension>
        </extensions>
      </trkpt>
      <trkpt lat="42.62589055113494396209716796875" lon="19.8897291719913482666015625">
        <ele>1722.800048828125</ele>
        <time>2026-06-16T11:19:49.000Z</time>
        <extensions>
          <ns3:TrackPointExtension>
            <ns3:atemp>21.0</ns3:atemp>
          </ns3:TrackPointExtension>
        </extensions>
      </trkpt>
      <trkpt lat="42.62589055113494396209716796875" lon="19.8897291719913482666015625">
        <ele>1722.800048828125</ele>
        <time>2026-06-16T11:19:50.000Z</time>
        <extensions>
          <ns3:TrackPointExtension>
            <ns3:atemp>21.0</ns3:atemp>
          </ns3:TrackPointExtension>
        </extensions>
      </trkpt>
      <trkpt lat="42.62589055113494396209716796875" lon="19.8897291719913482666015625">
        <ele>1723</ele>
        <time>2026-06-16T11:19:51.000Z</time>
        <extensions>
          <ns3:TrackPointExtension>
            <ns3:atemp>21.0</ns3:atemp>
          </ns3:TrackPointExtension>
        </extensions>
      </trkpt>
      <trkpt lat="42.62589055113494396209716796875" lon="19.8897291719913482666015625">
        <ele>1723</ele>
        <time>2026-06-16T11:19:52.000Z</time>
        <extensions>
          <ns3:TrackPointExtension>
            <ns3:atemp>21.0</ns3:atemp>
          </ns3:TrackPointExtension>
        </extensions>
      </trkpt>
      <trkpt lat="42.62589055113494396209716796875" lon="19.8897291719913482666015625">
        <ele>1723</ele>
        <time>2026-06-16T11:19:53.000Z</time>
        <extensions>
          <ns3:TrackPointExtension>
            <ns3:atemp>21.0</ns3:atemp>
          </ns3:TrackPointExtension>
        </extensions>
      </trkpt>
      <trkpt lat="42.62589055113494396209716796875" lon="19.8897291719913482666015625">
        <ele>1723</ele>
        <time>2026-06-16T11:19:54.000Z</time>
        <extensions>
          <ns3:TrackPointExtension>
            <ns3:atemp>21.0</ns3:atemp>
          </ns3:TrackPointExtension>
        </extensions>
      </trkpt>
      <trkpt lat="42.62589055113494396209716796875" lon="19.8897291719913482666015625">
        <ele>1723</ele>
        <time>2026-06-16T11:19:55.000Z</time>
        <extensions>
          <ns3:TrackPointExtension>
            <ns3:atemp>21.0</ns3:atemp>
          </ns3:TrackPointExtension>
        </extensions>
      </trkpt>
      <trkpt lat="42.62589055113494396209716796875" lon="19.8897291719913482666015625">
        <ele>1723</ele>
        <time>2026-06-16T11:19:56.000Z</time>
        <extensions>
          <ns3:TrackPointExtension>
            <ns3:atemp>21.0</ns3:atemp>
          </ns3:TrackPointExtension>
        </extensions>
      </trkpt>
      <trkpt lat="42.62589055113494396209716796875" lon="19.8897291719913482666015625">
        <ele>1723</ele>
        <time>2026-06-16T11:19:57.000Z</time>
        <extensions>
          <ns3:TrackPointExtension>
            <ns3:atemp>21.0</ns3:atemp>
          </ns3:TrackPointExtension>
        </extensions>
      </trkpt>
      <trkpt lat="42.62589055113494396209716796875" lon="19.8897291719913482666015625">
        <ele>1723</ele>
        <time>2026-06-16T11:19:58.000Z</time>
        <extensions>
          <ns3:TrackPointExtension>
            <ns3:atemp>21.0</ns3:atemp>
          </ns3:TrackPointExtension>
        </extensions>
      </trkpt>
      <trkpt lat="42.62589055113494396209716796875" lon="19.8897291719913482666015625">
        <ele>1723</ele>
        <time>2026-06-16T11:19:59.000Z</time>
        <extensions>
          <ns3:TrackPointExtension>
            <ns3:atemp>21.0</ns3:atemp>
          </ns3:TrackPointExtension>
        </extensions>
      </trkpt>
      <trkpt lat="42.62589055113494396209716796875" lon="19.8897291719913482666015625">
        <ele>1723</ele>
        <time>2026-06-16T11:20:00.000Z</time>
        <extensions>
          <ns3:TrackPointExtension>
            <ns3:atemp>21.0</ns3:atemp>
          </ns3:TrackPointExtension>
        </extensions>
      </trkpt>
      <trkpt lat="42.62589055113494396209716796875" lon="19.8897291719913482666015625">
        <ele>1723</ele>
        <time>2026-06-16T11:20:01.000Z</time>
        <extensions>
          <ns3:TrackPointExtension>
            <ns3:atemp>21.0</ns3:atemp>
          </ns3:TrackPointExtension>
        </extensions>
      </trkpt>
      <trkpt lat="42.62589055113494396209716796875" lon="19.8897291719913482666015625">
        <ele>1723</ele>
        <time>2026-06-16T11:20:02.000Z</time>
        <extensions>
          <ns3:TrackPointExtension>
            <ns3:atemp>21.0</ns3:atemp>
          </ns3:TrackPointExtension>
        </extensions>
      </trkpt>
      <trkpt lat="42.62589055113494396209716796875" lon="19.8897291719913482666015625">
        <ele>1723</ele>
        <time>2026-06-16T11:20:03.000Z</time>
        <extensions>
          <ns3:TrackPointExtension>
            <ns3:atemp>21.0</ns3:atemp>
          </ns3:TrackPointExtension>
        </extensions>
      </trkpt>
      <trkpt lat="42.62589071877300739288330078125" lon="19.88971634767949581146240234375">
        <ele>1723</ele>
        <time>2026-06-16T11:20:04.000Z</time>
        <extensions>
          <ns3:TrackPointExtension>
            <ns3:atemp>21.0</ns3:atemp>
          </ns3:TrackPointExtension>
        </extensions>
      </trkpt>
      <trkpt lat="42.62587429024279117584228515625" lon="19.889707379043102264404296875">
        <ele>1722.800048828125</ele>
        <time>2026-06-16T11:20:05.000Z</time>
        <extensions>
          <ns3:TrackPointExtension>
            <ns3:atemp>21.0</ns3:atemp>
          </ns3:TrackPointExtension>
        </extensions>
      </trkpt>
      <trkpt lat="42.6258646510541439056396484375" lon="19.88971467129886150360107421875">
        <ele>1722.800048828125</ele>
        <time>2026-06-16T11:20:06.000Z</time>
        <extensions>
          <ns3:TrackPointExtension>
            <ns3:atemp>21.0</ns3:atemp>
          </ns3:TrackPointExtension>
        </extensions>
      </trkpt>
      <trkpt lat="42.6258628070354461669921875" lon="19.8897199518978595733642578125">
        <ele>1722.5999755859375</ele>
        <time>2026-06-16T11:20:07.000Z</time>
        <extensions>
          <ns3:TrackPointExtension>
            <ns3:atemp>21.0</ns3:atemp>
          </ns3:TrackPointExtension>
        </extensions>
      </trkpt>
      <trkpt lat="42.62586372904479503631591796875" lon="19.88973026163876056671142578125">
        <ele>1722.199951171875</ele>
        <time>2026-06-16T11:20:08.000Z</time>
        <extensions>
          <ns3:TrackPointExtension>
            <ns3:atemp>21.0</ns3:atemp>
          </ns3:TrackPointExtension>
        </extensions>
      </trkpt>
      <trkpt lat="42.625865153968334197998046875" lon="19.8897524736821651458740234375">
        <ele>1722</ele>
        <time>2026-06-16T11:20:09.000Z</time>
        <extensions>
          <ns3:TrackPointExtension>
            <ns3:atemp>21.0</ns3:atemp>
          </ns3:TrackPointExtension>
        </extensions>
      </trkpt>
      <trkpt lat="42.625869847834110260009765625" lon="19.88978072069585323333740234375">
        <ele>1721.5999755859375</ele>
        <time>2026-06-16T11:20:10.000Z</time>
        <extensions>
          <ns3:TrackPointExtension>
            <ns3:atemp>21.0</ns3:atemp>
          </ns3:TrackPointExtension>
        </extensions>
      </trkpt>
      <trkpt lat="42.6258743740618228912353515625" lon="19.88980251364409923553466796875">
        <ele>1721.199951171875</ele>
        <time>2026-06-16T11:20:11.000Z</time>
        <extensions>
          <ns3:TrackPointExtension>
            <ns3:atemp>21.0</ns3:atemp>
          </ns3:TrackPointExtension>
        </extensions>
      </trkpt>
      <trkpt lat="42.6258767209947109222412109375" lon="19.88980494439601898193359375">
        <ele>1721</ele>
        <time>2026-06-16T11:20:12.000Z</time>
        <extensions>
          <ns3:TrackPointExtension>
            <ns3:atemp>21.0</ns3:atemp>
          </ns3:TrackPointExtension>
        </extensions>
      </trkpt>
      <trkpt lat="42.62587680481374263763427734375" lon="19.8898051120340824127197265625">
        <ele>1720.800048828125</ele>
        <time>2026-06-16T11:20:13.000Z</time>
        <extensions>
          <ns3:TrackPointExtension>
            <ns3:atemp>21.0</ns3:atemp>
          </ns3:TrackPointExtension>
        </extensions>
      </trkpt>
      <trkpt lat="42.62587680481374263763427734375" lon="19.8898051120340824127197265625">
        <ele>1720.5999755859375</ele>
        <time>2026-06-16T11:20:14.000Z</time>
        <extensions>
          <ns3:TrackPointExtension>
            <ns3:atemp>21.0</ns3:atemp>
          </ns3:TrackPointExtension>
        </extensions>
      </trkpt>
      <trkpt lat="42.62587680481374263763427734375" lon="19.8898051120340824127197265625">
        <ele>1720.4000244140625</ele>
        <time>2026-06-16T11:20:15.000Z</time>
        <extensions>
          <ns3:TrackPointExtension>
            <ns3:atemp>21.0</ns3:atemp>
          </ns3:TrackPointExtension>
        </extensions>
      </trkpt>
      <trkpt lat="42.62587680481374263763427734375" lon="19.8898051120340824127197265625">
        <ele>1720.4000244140625</ele>
        <time>2026-06-16T11:20:16.000Z</time>
        <extensions>
          <ns3:TrackPointExtension>
            <ns3:atemp>21.0</ns3:atemp>
          </ns3:TrackPointExtension>
        </extensions>
      </trkpt>
      <trkpt lat="42.62587680481374263763427734375" lon="19.8898051120340824127197265625">
        <ele>1720.4000244140625</ele>
        <time>2026-06-16T11:20:17.000Z</time>
        <extensions>
          <ns3:TrackPointExtension>
            <ns3:atemp>21.0</ns3:atemp>
          </ns3:TrackPointExtension>
        </extensions>
      </trkpt>
      <trkpt lat="42.62587680481374263763427734375" lon="19.8898051120340824127197265625">
        <ele>1720.199951171875</ele>
        <time>2026-06-16T11:20:18.000Z</time>
        <extensions>
          <ns3:TrackPointExtension>
            <ns3:atemp>21.0</ns3:atemp>
          </ns3:TrackPointExtension>
        </extensions>
      </trkpt>
      <trkpt lat="42.62587680481374263763427734375" lon="19.8898051120340824127197265625">
        <ele>1720.199951171875</ele>
        <time>2026-06-16T11:20:19.000Z</time>
        <extensions>
          <ns3:TrackPointExtension>
            <ns3:atemp>21.0</ns3:atemp>
          </ns3:TrackPointExtension>
        </extensions>
      </trkpt>
      <trkpt lat="42.62587680481374263763427734375" lon="19.8898051120340824127197265625">
        <ele>1720.199951171875</ele>
        <time>2026-06-16T11:20:20.000Z</time>
        <extensions>
          <ns3:TrackPointExtension>
            <ns3:atemp>21.0</ns3:atemp>
          </ns3:TrackPointExtension>
        </extensions>
      </trkpt>
      <trkpt lat="42.62587680481374263763427734375" lon="19.8898051120340824127197265625">
        <ele>1720.199951171875</ele>
        <time>2026-06-16T11:20:21.000Z</time>
        <extensions>
          <ns3:TrackPointExtension>
            <ns3:atemp>21.0</ns3:atemp>
          </ns3:TrackPointExtension>
        </extensions>
      </trkpt>
      <trkpt lat="42.62587688863277435302734375" lon="19.889807961881160736083984375">
        <ele>1720.199951171875</ele>
        <time>2026-06-16T11:20:22.000Z</time>
        <extensions>
          <ns3:TrackPointExtension>
            <ns3:atemp>21.0</ns3:atemp>
          </ns3:TrackPointExtension>
        </extensions>
      </trkpt>
      <trkpt lat="42.62588032521307468414306640625" lon="19.88984383642673492431640625">
        <ele>1720</ele>
        <time>2026-06-16T11:20:23.000Z</time>
        <extensions>
          <ns3:TrackPointExtension>
            <ns3:atemp>21.0</ns3:atemp>
          </ns3:TrackPointExtension>
        </extensions>
      </trkpt>
      <trkpt lat="42.625881247222423553466796875" lon="19.88988063298165798187255859375">
        <ele>1719.800048828125</ele>
        <time>2026-06-16T11:20:24.000Z</time>
        <extensions>
          <ns3:TrackPointExtension>
            <ns3:atemp>21.0</ns3:atemp>
          </ns3:TrackPointExtension>
        </extensions>
      </trkpt>
      <trkpt lat="42.62588736601173877716064453125" lon="19.8899026773869991302490234375">
        <ele>1719.4000244140625</ele>
        <time>2026-06-16T11:20:25.000Z</time>
        <extensions>
          <ns3:TrackPointExtension>
            <ns3:atemp>21.0</ns3:atemp>
          </ns3:TrackPointExtension>
        </extensions>
      </trkpt>
      <trkpt lat="42.6258911378681659698486328125" lon="19.88992874510586261749267578125">
        <ele>1719</ele>
        <time>2026-06-16T11:20:26.000Z</time>
        <extensions>
          <ns3:TrackPointExtension>
            <ns3:atemp>21.0</ns3:atemp>
          </ns3:TrackPointExtension>
        </extensions>
      </trkpt>
      <trkpt lat="42.6258815824985504150390625" lon="19.88994953222572803497314453125">
        <ele>1718.5999755859375</ele>
        <time>2026-06-16T11:20:27.000Z</time>
        <extensions>
          <ns3:TrackPointExtension>
            <ns3:atemp>21.0</ns3:atemp>
          </ns3:TrackPointExtension>
        </extensions>
      </trkpt>
      <trkpt lat="42.62586708180606365203857421875" lon="19.8899549804627895355224609375">
        <ele>1718.199951171875</ele>
        <time>2026-06-16T11:20:28.000Z</time>
        <extensions>
          <ns3:TrackPointExtension>
            <ns3:atemp>21.0</ns3:atemp>
          </ns3:TrackPointExtension>
        </extensions>
      </trkpt>
      <trkpt lat="42.62585735879838466644287109375" lon="19.8899435810744762420654296875">
        <ele>1717.800048828125</ele>
        <time>2026-06-16T11:20:29.000Z</time>
        <extensions>
          <ns3:TrackPointExtension>
            <ns3:atemp>21.0</ns3:atemp>
          </ns3:TrackPointExtension>
        </extensions>
      </trkpt>
      <trkpt lat="42.6258522458374500274658203125" lon="19.889935366809368133544921875">
        <ele>1717.5999755859375</ele>
        <time>2026-06-16T11:20:30.000Z</time>
        <extensions>
          <ns3:TrackPointExtension>
            <ns3:atemp>21.0</ns3:atemp>
          </ns3:TrackPointExtension>
        </extensions>
      </trkpt>
      <trkpt lat="42.62585350312292575836181640625" lon="19.88993704319000244140625">
        <ele>1717.199951171875</ele>
        <time>2026-06-16T11:20:31.000Z</time>
        <extensions>
          <ns3:TrackPointExtension>
            <ns3:atemp>21.0</ns3:atemp>
          </ns3:TrackPointExtension>
        </extensions>
      </trkpt>
      <trkpt lat="42.62585350312292575836181640625" lon="19.88993695937097072601318359375">
        <ele>1717</ele>
        <time>2026-06-16T11:20:32.000Z</time>
        <extensions>
          <ns3:TrackPointExtension>
            <ns3:atemp>21.0</ns3:atemp>
          </ns3:TrackPointExtension>
        </extensions>
      </trkpt>
      <trkpt lat="42.62585350312292575836181640625" lon="19.88993695937097072601318359375">
        <ele>1716.800048828125</ele>
        <time>2026-06-16T11:20:33.000Z</time>
        <extensions>
          <ns3:TrackPointExtension>
            <ns3:atemp>21.0</ns3:atemp>
          </ns3:TrackPointExtension>
        </extensions>
      </trkpt>
      <trkpt lat="42.62585350312292575836181640625" lon="19.88993695937097072601318359375">
        <ele>1716.5999755859375</ele>
        <time>2026-06-16T11:20:34.000Z</time>
        <extensions>
          <ns3:TrackPointExtension>
            <ns3:atemp>21.0</ns3:atemp>
          </ns3:TrackPointExtension>
        </extensions>
      </trkpt>
      <trkpt lat="42.62585350312292575836181640625" lon="19.88993695937097072601318359375">
        <ele>1716.5999755859375</ele>
        <time>2026-06-16T11:20:35.000Z</time>
        <extensions>
          <ns3:TrackPointExtension>
            <ns3:atemp>21.0</ns3:atemp>
          </ns3:TrackPointExtension>
        </extensions>
      </trkpt>
      <trkpt lat="42.62585350312292575836181640625" lon="19.88993695937097072601318359375">
        <ele>1716.4000244140625</ele>
        <time>2026-06-16T11:20:36.000Z</time>
        <extensions>
          <ns3:TrackPointExtension>
            <ns3:atemp>21.0</ns3:atemp>
          </ns3:TrackPointExtension>
        </extensions>
      </trkpt>
      <trkpt lat="42.62585350312292575836181640625" lon="19.88993695937097072601318359375">
        <ele>1716.4000244140625</ele>
        <time>2026-06-16T11:20:37.000Z</time>
        <extensions>
          <ns3:TrackPointExtension>
            <ns3:atemp>20.0</ns3:atemp>
          </ns3:TrackPointExtension>
        </extensions>
      </trkpt>
      <trkpt lat="42.62585350312292575836181640625" lon="19.88993695937097072601318359375">
        <ele>1716.4000244140625</ele>
        <time>2026-06-16T11:20:38.000Z</time>
        <extensions>
          <ns3:TrackPointExtension>
            <ns3:atemp>20.0</ns3:atemp>
          </ns3:TrackPointExtension>
        </extensions>
      </trkpt>
      <trkpt lat="42.62585350312292575836181640625" lon="19.88993695937097072601318359375">
        <ele>1716.4000244140625</ele>
        <time>2026-06-16T11:20:39.000Z</time>
        <extensions>
          <ns3:TrackPointExtension>
            <ns3:atemp>20.0</ns3:atemp>
          </ns3:TrackPointExtension>
        </extensions>
      </trkpt>
      <trkpt lat="42.62585350312292575836181640625" lon="19.88993695937097072601318359375">
        <ele>1716.4000244140625</ele>
        <time>2026-06-16T11:20:40.000Z</time>
        <extensions>
          <ns3:TrackPointExtension>
            <ns3:atemp>20.0</ns3:atemp>
          </ns3:TrackPointExtension>
        </extensions>
      </trkpt>
      <trkpt lat="42.62585350312292575836181640625" lon="19.88993695937097072601318359375">
        <ele>1716.4000244140625</ele>
        <time>2026-06-16T11:20:41.000Z</time>
        <extensions>
          <ns3:TrackPointExtension>
            <ns3:atemp>20.0</ns3:atemp>
          </ns3:TrackPointExtension>
        </extensions>
      </trkpt>
      <trkpt lat="42.62585350312292575836181640625" lon="19.88993695937097072601318359375">
        <ele>1716.4000244140625</ele>
        <time>2026-06-16T11:20:42.000Z</time>
        <extensions>
          <ns3:TrackPointExtension>
            <ns3:atemp>21.0</ns3:atemp>
          </ns3:TrackPointExtension>
        </extensions>
      </trkpt>
      <trkpt lat="42.62585350312292575836181640625" lon="19.88993695937097072601318359375">
        <ele>1716.4000244140625</ele>
        <time>2026-06-16T11:20:43.000Z</time>
        <extensions>
          <ns3:TrackPointExtension>
            <ns3:atemp>21.0</ns3:atemp>
          </ns3:TrackPointExtension>
        </extensions>
      </trkpt>
      <trkpt lat="42.62585350312292575836181640625" lon="19.88993695937097072601318359375">
        <ele>1716.4000244140625</ele>
        <time>2026-06-16T11:20:44.000Z</time>
        <extensions>
          <ns3:TrackPointExtension>
            <ns3:atemp>20.0</ns3:atemp>
          </ns3:TrackPointExtension>
        </extensions>
      </trkpt>
      <trkpt lat="42.62585350312292575836181640625" lon="19.88993695937097072601318359375">
        <ele>1716.4000244140625</ele>
        <time>2026-06-16T11:20:45.000Z</time>
        <extensions>
          <ns3:TrackPointExtension>
            <ns3:atemp>21.0</ns3:atemp>
          </ns3:TrackPointExtension>
        </extensions>
      </trkpt>
      <trkpt lat="42.62585350312292575836181640625" lon="19.88993695937097072601318359375">
        <ele>1716.4000244140625</ele>
        <time>2026-06-16T11:20:46.000Z</time>
        <extensions>
          <ns3:TrackPointExtension>
            <ns3:atemp>21.0</ns3:atemp>
          </ns3:TrackPointExtension>
        </extensions>
      </trkpt>
      <trkpt lat="42.62585350312292575836181640625" lon="19.88993695937097072601318359375">
        <ele>1716.4000244140625</ele>
        <time>2026-06-16T11:20:47.000Z</time>
        <extensions>
          <ns3:TrackPointExtension>
            <ns3:atemp>20.0</ns3:atemp>
          </ns3:TrackPointExtension>
        </extensions>
      </trkpt>
      <trkpt lat="42.62585350312292575836181640625" lon="19.88993695937097072601318359375">
        <ele>1716.4000244140625</ele>
        <time>2026-06-16T11:20:48.000Z</time>
        <extensions>
          <ns3:TrackPointExtension>
            <ns3:atemp>20.0</ns3:atemp>
          </ns3:TrackPointExtension>
        </extensions>
      </trkpt>
      <trkpt lat="42.62585350312292575836181640625" lon="19.88993695937097072601318359375">
        <ele>1716.4000244140625</ele>
        <time>2026-06-16T11:20:49.000Z</time>
        <extensions>
          <ns3:TrackPointExtension>
            <ns3:atemp>20.0</ns3:atemp>
          </ns3:TrackPointExtension>
        </extensions>
      </trkpt>
      <trkpt lat="42.62585350312292575836181640625" lon="19.88993695937097072601318359375">
        <ele>1716.4000244140625</ele>
        <time>2026-06-16T11:20:50.000Z</time>
        <extensions>
          <ns3:TrackPointExtension>
            <ns3:atemp>20.0</ns3:atemp>
          </ns3:TrackPointExtension>
        </extensions>
      </trkpt>
      <trkpt lat="42.62585350312292575836181640625" lon="19.88993695937097072601318359375">
        <ele>1716.4000244140625</ele>
        <time>2026-06-16T11:20:51.000Z</time>
        <extensions>
          <ns3:TrackPointExtension>
            <ns3:atemp>20.0</ns3:atemp>
          </ns3:TrackPointExtension>
        </extensions>
      </trkpt>
      <trkpt lat="42.62585350312292575836181640625" lon="19.88993695937097072601318359375">
        <ele>1716.4000244140625</ele>
        <time>2026-06-16T11:20:52.000Z</time>
        <extensions>
          <ns3:TrackPointExtension>
            <ns3:atemp>20.0</ns3:atemp>
          </ns3:TrackPointExtension>
        </extensions>
      </trkpt>
      <trkpt lat="42.62585350312292575836181640625" lon="19.88993695937097072601318359375">
        <ele>1716.4000244140625</ele>
        <time>2026-06-16T11:20:53.000Z</time>
        <extensions>
          <ns3:TrackPointExtension>
            <ns3:atemp>20.0</ns3:atemp>
          </ns3:TrackPointExtension>
        </extensions>
      </trkpt>
      <trkpt lat="42.62585350312292575836181640625" lon="19.88993695937097072601318359375">
        <ele>1716.4000244140625</ele>
        <time>2026-06-16T11:20:54.000Z</time>
        <extensions>
          <ns3:TrackPointExtension>
            <ns3:atemp>20.0</ns3:atemp>
          </ns3:TrackPointExtension>
        </extensions>
      </trkpt>
      <trkpt lat="42.62585350312292575836181640625" lon="19.88993695937097072601318359375">
        <ele>1716.4000244140625</ele>
        <time>2026-06-16T11:20:55.000Z</time>
        <extensions>
          <ns3:TrackPointExtension>
            <ns3:atemp>20.0</ns3:atemp>
          </ns3:TrackPointExtension>
        </extensions>
      </trkpt>
      <trkpt lat="42.62585350312292575836181640625" lon="19.88993695937097072601318359375">
        <ele>1716.4000244140625</ele>
        <time>2026-06-16T11:20:56.000Z</time>
        <extensions>
          <ns3:TrackPointExtension>
            <ns3:atemp>20.0</ns3:atemp>
          </ns3:TrackPointExtension>
        </extensions>
      </trkpt>
      <trkpt lat="42.62585098855197429656982421875" lon="19.88994752056896686553955078125">
        <ele>1716.4000244140625</ele>
        <time>2026-06-16T11:20:57.000Z</time>
        <extensions>
          <ns3:TrackPointExtension>
            <ns3:atemp>20.0</ns3:atemp>
          </ns3:TrackPointExtension>
        </extensions>
      </trkpt>
      <trkpt lat="42.6258445344865322113037109375" lon="19.889955483376979827880859375">
        <ele>1716.4000244140625</ele>
        <time>2026-06-16T11:20:58.000Z</time>
        <extensions>
          <ns3:TrackPointExtension>
            <ns3:atemp>20.0</ns3:atemp>
          </ns3:TrackPointExtension>
        </extensions>
      </trkpt>
      <trkpt lat="42.62583808042109012603759765625" lon="19.88995070569217205047607421875">
        <ele>1716.199951171875</ele>
        <time>2026-06-16T11:20:59.000Z</time>
        <extensions>
          <ns3:TrackPointExtension>
            <ns3:atemp>20.0</ns3:atemp>
          </ns3:TrackPointExtension>
        </extensions>
      </trkpt>
      <trkpt lat="42.6258304528892040252685546875" lon="19.88993905484676361083984375">
        <ele>1716.199951171875</ele>
        <time>2026-06-16T11:21:00.000Z</time>
        <extensions>
          <ns3:TrackPointExtension>
            <ns3:atemp>20.0</ns3:atemp>
          </ns3:TrackPointExtension>
        </extensions>
      </trkpt>
      <trkpt lat="42.6258183829486370086669921875" lon="19.88992639817297458648681640625">
        <ele>1715.800048828125</ele>
        <time>2026-06-16T11:21:01.000Z</time>
        <extensions>
          <ns3:TrackPointExtension>
            <ns3:atemp>20.0</ns3:atemp>
          </ns3:TrackPointExtension>
        </extensions>
      </trkpt>
      <trkpt lat="42.62580203823745250701904296875" lon="19.88991223275661468505859375">
        <ele>1715.5999755859375</ele>
        <time>2026-06-16T11:21:02.000Z</time>
        <extensions>
          <ns3:TrackPointExtension>
            <ns3:atemp>20.0</ns3:atemp>
          </ns3:TrackPointExtension>
        </extensions>
      </trkpt>
      <trkpt lat="42.62578703463077545166015625" lon="19.8899083770811557769775390625">
        <ele>1715.199951171875</ele>
        <time>2026-06-16T11:21:03.000Z</time>
        <extensions>
          <ns3:TrackPointExtension>
            <ns3:atemp>20.0</ns3:atemp>
          </ns3:TrackPointExtension>
        </extensions>
      </trkpt>
      <trkpt lat="42.62576784007251262664794921875" lon="19.8898989893496036529541015625">
        <ele>1714.800048828125</ele>
        <time>2026-06-16T11:21:04.000Z</time>
        <extensions>
          <ns3:TrackPointExtension>
            <ns3:atemp>20.0</ns3:atemp>
          </ns3:TrackPointExtension>
        </extensions>
      </trkpt>
      <trkpt lat="42.625752501189708709716796875" lon="19.8898942954838275909423828125">
        <ele>1714.4000244140625</ele>
        <time>2026-06-16T11:21:05.000Z</time>
        <extensions>
          <ns3:TrackPointExtension>
            <ns3:atemp>20.0</ns3:atemp>
          </ns3:TrackPointExtension>
        </extensions>
      </trkpt>
      <trkpt lat="42.62573766522109508514404296875" lon="19.88988230936229228973388671875">
        <ele>1713.800048828125</ele>
        <time>2026-06-16T11:21:06.000Z</time>
        <extensions>
          <ns3:TrackPointExtension>
            <ns3:atemp>20.0</ns3:atemp>
          </ns3:TrackPointExtension>
        </extensions>
      </trkpt>
      <trkpt lat="42.62572341598570346832275390625" lon="19.8898785375058650970458984375">
        <ele>1713.4000244140625</ele>
        <time>2026-06-16T11:21:07.000Z</time>
        <extensions>
          <ns3:TrackPointExtension>
            <ns3:atemp>21.0</ns3:atemp>
          </ns3:TrackPointExtension>
        </extensions>
      </trkpt>
      <trkpt lat="42.6257100887596607208251953125" lon="19.88988532684743404388427734375">
        <ele>1712.800048828125</ele>
        <time>2026-06-16T11:21:08.000Z</time>
        <extensions>
          <ns3:TrackPointExtension>
            <ns3:atemp>20.0</ns3:atemp>
          </ns3:TrackPointExtension>
        </extensions>
      </trkpt>
      <trkpt lat="42.6256893016397953033447265625" lon="19.88988264463841915130615234375">
        <ele>1712.199951171875</ele>
        <time>2026-06-16T11:21:09.000Z</time>
        <extensions>
          <ns3:TrackPointExtension>
            <ns3:atemp>20.0</ns3:atemp>
          </ns3:TrackPointExtension>
        </extensions>
      </trkpt>
      <trkpt lat="42.62567396275699138641357421875" lon="19.88987267017364501953125">
        <ele>1711.5999755859375</ele>
        <time>2026-06-16T11:21:10.000Z</time>
        <extensions>
          <ns3:TrackPointExtension>
            <ns3:atemp>20.0</ns3:atemp>
          </ns3:TrackPointExtension>
        </extensions>
      </trkpt>
      <trkpt lat="42.62565602548420429229736328125" lon="19.8898651264607906341552734375">
        <ele>1710.800048828125</ele>
        <time>2026-06-16T11:21:11.000Z</time>
        <extensions>
          <ns3:TrackPointExtension>
            <ns3:atemp>20.0</ns3:atemp>
          </ns3:TrackPointExtension>
        </extensions>
      </trkpt>
      <trkpt lat="42.6256410218775272369384765625" lon="19.8898594267666339874267578125">
        <ele>1710.199951171875</ele>
        <time>2026-06-16T11:21:12.000Z</time>
        <extensions>
          <ns3:TrackPointExtension>
            <ns3:atemp>20.0</ns3:atemp>
          </ns3:TrackPointExtension>
        </extensions>
      </trkpt>
      <trkpt lat="42.6256306283175945281982421875" lon="19.889852888882160186767578125">
        <ele>1709.5999755859375</ele>
        <time>2026-06-16T11:21:13.000Z</time>
        <extensions>
          <ns3:TrackPointExtension>
            <ns3:atemp>20.0</ns3:atemp>
          </ns3:TrackPointExtension>
        </extensions>
      </trkpt>
      <trkpt lat="42.62561579234898090362548828125" lon="19.88984760828316211700439453125">
        <ele>1708.800048828125</ele>
        <time>2026-06-16T11:21:14.000Z</time>
        <extensions>
          <ns3:TrackPointExtension>
            <ns3:atemp>20.0</ns3:atemp>
          </ns3:TrackPointExtension>
        </extensions>
      </trkpt>
      <trkpt lat="42.62559902854263782501220703125" lon="19.889848530292510986328125">
        <ele>1708.199951171875</ele>
        <time>2026-06-16T11:21:15.000Z</time>
        <extensions>
          <ns3:TrackPointExtension>
            <ns3:atemp>20.0</ns3:atemp>
          </ns3:TrackPointExtension>
        </extensions>
      </trkpt>
      <trkpt lat="42.62558343820273876190185546875" lon="19.88985112868249416351318359375">
        <ele>1707.5999755859375</ele>
        <time>2026-06-16T11:21:16.000Z</time>
        <extensions>
          <ns3:TrackPointExtension>
            <ns3:atemp>20.0</ns3:atemp>
          </ns3:TrackPointExtension>
        </extensions>
      </trkpt>
      <trkpt lat="42.6255692727863788604736328125" lon="19.88985213451087474822998046875">
        <ele>1707</ele>
        <time>2026-06-16T11:21:17.000Z</time>
        <extensions>
          <ns3:TrackPointExtension>
            <ns3:atemp>20.0</ns3:atemp>
          </ns3:TrackPointExtension>
        </extensions>
      </trkpt>
      <trkpt lat="42.62555058114230632781982421875" lon="19.8898497037589550018310546875">
        <ele>1706.4000244140625</ele>
        <time>2026-06-16T11:21:18.000Z</time>
        <extensions>
          <ns3:TrackPointExtension>
            <ns3:atemp>20.0</ns3:atemp>
          </ns3:TrackPointExtension>
        </extensions>
      </trkpt>
      <trkpt lat="42.6255350746214389801025390625" lon="19.889848195016384124755859375">
        <ele>1705.800048828125</ele>
        <time>2026-06-16T11:21:19.000Z</time>
        <extensions>
          <ns3:TrackPointExtension>
            <ns3:atemp>20.0</ns3:atemp>
          </ns3:TrackPointExtension>
        </extensions>
      </trkpt>
      <trkpt lat="42.62552686035633087158203125" lon="19.88984056748449802398681640625">
        <ele>1705</ele>
        <time>2026-06-16T11:21:20.000Z</time>
        <extensions>
          <ns3:TrackPointExtension>
            <ns3:atemp>20.0</ns3:atemp>
          </ns3:TrackPointExtension>
        </extensions>
      </trkpt>
      <trkpt lat="42.625518143177032470703125" lon="19.88983922637999057769775390625">
        <ele>1704.5999755859375</ele>
        <time>2026-06-16T11:21:21.000Z</time>
        <extensions>
          <ns3:TrackPointExtension>
            <ns3:atemp>20.0</ns3:atemp>
          </ns3:TrackPointExtension>
        </extensions>
      </trkpt>
      <trkpt lat="42.62550808489322662353515625" lon="19.88983218558132648468017578125">
        <ele>1704</ele>
        <time>2026-06-16T11:21:22.000Z</time>
        <extensions>
          <ns3:TrackPointExtension>
            <ns3:atemp>20.0</ns3:atemp>
          </ns3:TrackPointExtension>
        </extensions>
      </trkpt>
      <trkpt lat="42.62550012208521366119384765625" lon="19.88982531242072582244873046875">
        <ele>1703.5999755859375</ele>
        <time>2026-06-16T11:21:23.000Z</time>
        <extensions>
          <ns3:TrackPointExtension>
            <ns3:atemp>20.0</ns3:atemp>
          </ns3:TrackPointExtension>
        </extensions>
      </trkpt>
      <trkpt lat="42.6254971884191036224365234375" lon="19.889818020164966583251953125">
        <ele>1703.199951171875</ele>
        <time>2026-06-16T11:21:24.000Z</time>
        <extensions>
          <ns3:TrackPointExtension>
            <ns3:atemp>20.0</ns3:atemp>
          </ns3:TrackPointExtension>
        </extensions>
      </trkpt>
      <trkpt lat="42.625497020781040191650390625" lon="19.88981810398399829864501953125">
        <ele>1703</ele>
        <time>2026-06-16T11:21:25.000Z</time>
        <extensions>
          <ns3:TrackPointExtension>
            <ns3:atemp>20.0</ns3:atemp>
          </ns3:TrackPointExtension>
        </extensions>
      </trkpt>
      <trkpt lat="42.625497020781040191650390625" lon="19.88981810398399829864501953125">
        <ele>1702.800048828125</ele>
        <time>2026-06-16T11:21:26.000Z</time>
        <extensions>
          <ns3:TrackPointExtension>
            <ns3:atemp>20.0</ns3:atemp>
          </ns3:TrackPointExtension>
        </extensions>
      </trkpt>
      <trkpt lat="42.625497020781040191650390625" lon="19.88981810398399829864501953125">
        <ele>1702.5999755859375</ele>
        <time>2026-06-16T11:21:27.000Z</time>
        <extensions>
          <ns3:TrackPointExtension>
            <ns3:atemp>20.0</ns3:atemp>
          </ns3:TrackPointExtension>
        </extensions>
      </trkpt>
      <trkpt lat="42.625497020781040191650390625" lon="19.88981810398399829864501953125">
        <ele>1702.5999755859375</ele>
        <time>2026-06-16T11:21:28.000Z</time>
        <extensions>
          <ns3:TrackPointExtension>
            <ns3:atemp>20.0</ns3:atemp>
          </ns3:TrackPointExtension>
        </extensions>
      </trkpt>
      <trkpt lat="42.625497020781040191650390625" lon="19.88981810398399829864501953125">
        <ele>1702.4000244140625</ele>
        <time>2026-06-16T11:21:29.000Z</time>
        <extensions>
          <ns3:TrackPointExtension>
            <ns3:atemp>20.0</ns3:atemp>
          </ns3:TrackPointExtension>
        </extensions>
      </trkpt>
      <trkpt lat="42.625497020781040191650390625" lon="19.88981810398399829864501953125">
        <ele>1702.4000244140625</ele>
        <time>2026-06-16T11:21:30.000Z</time>
        <extensions>
          <ns3:TrackPointExtension>
            <ns3:atemp>20.0</ns3:atemp>
          </ns3:TrackPointExtension>
        </extensions>
      </trkpt>
      <trkpt lat="42.625497020781040191650390625" lon="19.88981810398399829864501953125">
        <ele>1702.4000244140625</ele>
        <time>2026-06-16T11:21:31.000Z</time>
        <extensions>
          <ns3:TrackPointExtension>
            <ns3:atemp>20.0</ns3:atemp>
          </ns3:TrackPointExtension>
        </extensions>
      </trkpt>
      <trkpt lat="42.625497020781040191650390625" lon="19.88981810398399829864501953125">
        <ele>1702.4000244140625</ele>
        <time>2026-06-16T11:21:32.000Z</time>
        <extensions>
          <ns3:TrackPointExtension>
            <ns3:atemp>20.0</ns3:atemp>
          </ns3:TrackPointExtension>
        </extensions>
      </trkpt>
      <trkpt lat="42.625497020781040191650390625" lon="19.88981810398399829864501953125">
        <ele>1702.4000244140625</ele>
        <time>2026-06-16T11:21:33.000Z</time>
        <extensions>
          <ns3:TrackPointExtension>
            <ns3:atemp>20.0</ns3:atemp>
          </ns3:TrackPointExtension>
        </extensions>
      </trkpt>
      <trkpt lat="42.625497020781040191650390625" lon="19.88981810398399829864501953125">
        <ele>1702.4000244140625</ele>
        <time>2026-06-16T11:21:34.000Z</time>
        <extensions>
          <ns3:TrackPointExtension>
            <ns3:atemp>20.0</ns3:atemp>
          </ns3:TrackPointExtension>
        </extensions>
      </trkpt>
      <trkpt lat="42.625497020781040191650390625" lon="19.88981810398399829864501953125">
        <ele>1702.4000244140625</ele>
        <time>2026-06-16T11:21:35.000Z</time>
        <extensions>
          <ns3:TrackPointExtension>
            <ns3:atemp>20.0</ns3:atemp>
          </ns3:TrackPointExtension>
        </extensions>
      </trkpt>
      <trkpt lat="42.625497020781040191650390625" lon="19.88981810398399829864501953125">
        <ele>1702.4000244140625</ele>
        <time>2026-06-16T11:21:36.000Z</time>
        <extensions>
          <ns3:TrackPointExtension>
            <ns3:atemp>20.0</ns3:atemp>
          </ns3:TrackPointExtension>
        </extensions>
      </trkpt>
      <trkpt lat="42.625497020781040191650390625" lon="19.88981810398399829864501953125">
        <ele>1702.4000244140625</ele>
        <time>2026-06-16T11:21:37.000Z</time>
        <extensions>
          <ns3:TrackPointExtension>
            <ns3:atemp>20.0</ns3:atemp>
          </ns3:TrackPointExtension>
        </extensions>
      </trkpt>
      <trkpt lat="42.625497020781040191650390625" lon="19.88981810398399829864501953125">
        <ele>1702.4000244140625</ele>
        <time>2026-06-16T11:21:38.000Z</time>
        <extensions>
          <ns3:TrackPointExtension>
            <ns3:atemp>20.0</ns3:atemp>
          </ns3:TrackPointExtension>
        </extensions>
      </trkpt>
      <trkpt lat="42.625497020781040191650390625" lon="19.88981810398399829864501953125">
        <ele>1702.4000244140625</ele>
        <time>2026-06-16T11:21:39.000Z</time>
        <extensions>
          <ns3:TrackPointExtension>
            <ns3:atemp>20.0</ns3:atemp>
          </ns3:TrackPointExtension>
        </extensions>
      </trkpt>
      <trkpt lat="42.625497020781040191650390625" lon="19.88981810398399829864501953125">
        <ele>1702.4000244140625</ele>
        <time>2026-06-16T11:21:40.000Z</time>
        <extensions>
          <ns3:TrackPointExtension>
            <ns3:atemp>20.0</ns3:atemp>
          </ns3:TrackPointExtension>
        </extensions>
      </trkpt>
      <trkpt lat="42.625497020781040191650390625" lon="19.88981810398399829864501953125">
        <ele>1702.4000244140625</ele>
        <time>2026-06-16T11:21:41.000Z</time>
        <extensions>
          <ns3:TrackPointExtension>
            <ns3:atemp>20.0</ns3:atemp>
          </ns3:TrackPointExtension>
        </extensions>
      </trkpt>
      <trkpt lat="42.625497020781040191650390625" lon="19.88981810398399829864501953125">
        <ele>1702.4000244140625</ele>
        <time>2026-06-16T11:21:42.000Z</time>
        <extensions>
          <ns3:TrackPointExtension>
            <ns3:atemp>20.0</ns3:atemp>
          </ns3:TrackPointExtension>
        </extensions>
      </trkpt>
      <trkpt lat="42.625497020781040191650390625" lon="19.88981810398399829864501953125">
        <ele>1702.4000244140625</ele>
        <time>2026-06-16T11:21:43.000Z</time>
        <extensions>
          <ns3:TrackPointExtension>
            <ns3:atemp>20.0</ns3:atemp>
          </ns3:TrackPointExtension>
        </extensions>
      </trkpt>
      <trkpt lat="42.625497020781040191650390625" lon="19.88981810398399829864501953125">
        <ele>1702.199951171875</ele>
        <time>2026-06-16T11:21:44.000Z</time>
        <extensions>
          <ns3:TrackPointExtension>
            <ns3:atemp>20.0</ns3:atemp>
          </ns3:TrackPointExtension>
        </extensions>
      </trkpt>
      <trkpt lat="42.625497020781040191650390625" lon="19.88981810398399829864501953125">
        <ele>1702.199951171875</ele>
        <time>2026-06-16T11:21:45.000Z</time>
        <extensions>
          <ns3:TrackPointExtension>
            <ns3:atemp>20.0</ns3:atemp>
          </ns3:TrackPointExtension>
        </extensions>
      </trkpt>
      <trkpt lat="42.625497020781040191650390625" lon="19.88981810398399829864501953125">
        <ele>1702.199951171875</ele>
        <time>2026-06-16T11:21:46.000Z</time>
        <extensions>
          <ns3:TrackPointExtension>
            <ns3:atemp>20.0</ns3:atemp>
          </ns3:TrackPointExtension>
        </extensions>
      </trkpt>
      <trkpt lat="42.625497020781040191650390625" lon="19.88981810398399829864501953125">
        <ele>1702.199951171875</ele>
        <time>2026-06-16T11:21:47.000Z</time>
        <extensions>
          <ns3:TrackPointExtension>
            <ns3:atemp>20.0</ns3:atemp>
          </ns3:TrackPointExtension>
        </extensions>
      </trkpt>
      <trkpt lat="42.625497020781040191650390625" lon="19.88981810398399829864501953125">
        <ele>1702.199951171875</ele>
        <time>2026-06-16T11:21:48.000Z</time>
        <extensions>
          <ns3:TrackPointExtension>
            <ns3:atemp>20.0</ns3:atemp>
          </ns3:TrackPointExtension>
        </extensions>
      </trkpt>
      <trkpt lat="42.625497020781040191650390625" lon="19.88981810398399829864501953125">
        <ele>1702.199951171875</ele>
        <time>2026-06-16T11:21:49.000Z</time>
        <extensions>
          <ns3:TrackPointExtension>
            <ns3:atemp>20.0</ns3:atemp>
          </ns3:TrackPointExtension>
        </extensions>
      </trkpt>
      <trkpt lat="42.625497020781040191650390625" lon="19.88981810398399829864501953125">
        <ele>1702.199951171875</ele>
        <time>2026-06-16T11:21:50.000Z</time>
        <extensions>
          <ns3:TrackPointExtension>
            <ns3:atemp>20.0</ns3:atemp>
          </ns3:TrackPointExtension>
        </extensions>
      </trkpt>
      <trkpt lat="42.6254961825907230377197265625" lon="19.889819361269474029541015625">
        <ele>1702.199951171875</ele>
        <time>2026-06-16T11:21:51.000Z</time>
        <extensions>
          <ns3:TrackPointExtension>
            <ns3:atemp>20.0</ns3:atemp>
          </ns3:TrackPointExtension>
        </extensions>
      </trkpt>
      <trkpt lat="42.6254832744598388671875" lon="19.8898165114223957061767578125">
        <ele>1702.199951171875</ele>
        <time>2026-06-16T11:21:52.000Z</time>
        <extensions>
          <ns3:TrackPointExtension>
            <ns3:atemp>20.0</ns3:atemp>
          </ns3:TrackPointExtension>
        </extensions>
      </trkpt>
      <trkpt lat="42.6254723779857158660888671875" lon="19.8898057825863361358642578125">
        <ele>1702</ele>
        <time>2026-06-16T11:21:53.000Z</time>
        <extensions>
          <ns3:TrackPointExtension>
            <ns3:atemp>20.0</ns3:atemp>
          </ns3:TrackPointExtension>
        </extensions>
      </trkpt>
      <trkpt lat="42.6254609785974025726318359375" lon="19.8897989094257354736328125">
        <ele>1701.800048828125</ele>
        <time>2026-06-16T11:21:54.000Z</time>
        <extensions>
          <ns3:TrackPointExtension>
            <ns3:atemp>20.0</ns3:atemp>
          </ns3:TrackPointExtension>
        </extensions>
      </trkpt>
      <trkpt lat="42.62545133940875530242919921875" lon="19.88978843204677104949951171875">
        <ele>1701.4000244140625</ele>
        <time>2026-06-16T11:21:55.000Z</time>
        <extensions>
          <ns3:TrackPointExtension>
            <ns3:atemp>20.0</ns3:atemp>
          </ns3:TrackPointExtension>
        </extensions>
      </trkpt>
      <trkpt lat="42.6254417002201080322265625" lon="19.8897854983806610107421875">
        <ele>1701</ele>
        <time>2026-06-16T11:21:56.000Z</time>
        <extensions>
          <ns3:TrackPointExtension>
            <ns3:atemp>20.0</ns3:atemp>
          </ns3:TrackPointExtension>
        </extensions>
      </trkpt>
      <trkpt lat="42.625433318316936492919921875" lon="19.8897813074290752410888671875">
        <ele>1700.5999755859375</ele>
        <time>2026-06-16T11:21:57.000Z</time>
        <extensions>
          <ns3:TrackPointExtension>
            <ns3:atemp>20.0</ns3:atemp>
          </ns3:TrackPointExtension>
        </extensions>
      </trkpt>
      <trkpt lat="42.625427283346652984619140625" lon="19.8897854983806610107421875">
        <ele>1700</ele>
        <time>2026-06-16T11:21:58.000Z</time>
        <extensions>
          <ns3:TrackPointExtension>
            <ns3:atemp>20.0</ns3:atemp>
          </ns3:TrackPointExtension>
        </extensions>
      </trkpt>
      <trkpt lat="42.62542468495666980743408203125" lon="19.88980167545378208160400390625">
        <ele>1699.5999755859375</ele>
        <time>2026-06-16T11:21:59.000Z</time>
        <extensions>
          <ns3:TrackPointExtension>
            <ns3:atemp>20.0</ns3:atemp>
          </ns3:TrackPointExtension>
        </extensions>
      </trkpt>
      <trkpt lat="42.625419907271862030029296875" lon="19.88981525413691997528076171875">
        <ele>1699.199951171875</ele>
        <time>2026-06-16T11:22:00.000Z</time>
        <extensions>
          <ns3:TrackPointExtension>
            <ns3:atemp>20.0</ns3:atemp>
          </ns3:TrackPointExtension>
        </extensions>
      </trkpt>
      <trkpt lat="42.625421583652496337890625" lon="19.8898222111165523529052734375">
        <ele>1699</ele>
        <time>2026-06-16T11:22:01.000Z</time>
        <extensions>
          <ns3:TrackPointExtension>
            <ns3:atemp>20.0</ns3:atemp>
          </ns3:TrackPointExtension>
        </extensions>
      </trkpt>
      <trkpt lat="42.625421583652496337890625" lon="19.8898222111165523529052734375">
        <ele>1698.5999755859375</ele>
        <time>2026-06-16T11:22:02.000Z</time>
        <extensions>
          <ns3:TrackPointExtension>
            <ns3:atemp>20.0</ns3:atemp>
          </ns3:TrackPointExtension>
        </extensions>
      </trkpt>
      <trkpt lat="42.625421583652496337890625" lon="19.8898222111165523529052734375">
        <ele>1698.199951171875</ele>
        <time>2026-06-16T11:22:03.000Z</time>
        <extensions>
          <ns3:TrackPointExtension>
            <ns3:atemp>20.0</ns3:atemp>
          </ns3:TrackPointExtension>
        </extensions>
      </trkpt>
      <trkpt lat="42.625421583652496337890625" lon="19.8898222111165523529052734375">
        <ele>1698</ele>
        <time>2026-06-16T11:22:04.000Z</time>
        <extensions>
          <ns3:TrackPointExtension>
            <ns3:atemp>20.0</ns3:atemp>
          </ns3:TrackPointExtension>
        </extensions>
      </trkpt>
      <trkpt lat="42.625421583652496337890625" lon="19.8898222111165523529052734375">
        <ele>1698</ele>
        <time>2026-06-16T11:22:05.000Z</time>
        <extensions>
          <ns3:TrackPointExtension>
            <ns3:atemp>20.0</ns3:atemp>
          </ns3:TrackPointExtension>
        </extensions>
      </trkpt>
      <trkpt lat="42.625421583652496337890625" lon="19.8898222111165523529052734375">
        <ele>1697.800048828125</ele>
        <time>2026-06-16T11:22:06.000Z</time>
        <extensions>
          <ns3:TrackPointExtension>
            <ns3:atemp>20.0</ns3:atemp>
          </ns3:TrackPointExtension>
        </extensions>
      </trkpt>
      <trkpt lat="42.625421583652496337890625" lon="19.8898222111165523529052734375">
        <ele>1697.800048828125</ele>
        <time>2026-06-16T11:22:07.000Z</time>
        <extensions>
          <ns3:TrackPointExtension>
            <ns3:atemp>20.0</ns3:atemp>
          </ns3:TrackPointExtension>
        </extensions>
      </trkpt>
      <trkpt lat="42.625421583652496337890625" lon="19.8898222111165523529052734375">
        <ele>1697.800048828125</ele>
        <time>2026-06-16T11:22:08.000Z</time>
        <extensions>
          <ns3:TrackPointExtension>
            <ns3:atemp>20.0</ns3:atemp>
          </ns3:TrackPointExtension>
        </extensions>
      </trkpt>
      <trkpt lat="42.625421583652496337890625" lon="19.8898222111165523529052734375">
        <ele>1697.800048828125</ele>
        <time>2026-06-16T11:22:09.000Z</time>
        <extensions>
          <ns3:TrackPointExtension>
            <ns3:atemp>20.0</ns3:atemp>
          </ns3:TrackPointExtension>
        </extensions>
      </trkpt>
      <trkpt lat="42.62542166747152805328369140625" lon="19.88982162438333034515380859375">
        <ele>1697.800048828125</ele>
        <time>2026-06-16T11:22:10.000Z</time>
        <extensions>
          <ns3:TrackPointExtension>
            <ns3:atemp>20.0</ns3:atemp>
          </ns3:TrackPointExtension>
        </extensions>
      </trkpt>
      <trkpt lat="42.62541211210191249847412109375" lon="19.88981726579368114471435546875">
        <ele>1697.5999755859375</ele>
        <time>2026-06-16T11:22:11.000Z</time>
        <extensions>
          <ns3:TrackPointExtension>
            <ns3:atemp>20.0</ns3:atemp>
          </ns3:TrackPointExtension>
        </extensions>
      </trkpt>
      <trkpt lat="42.62539668940007686614990234375" lon="19.8898123204708099365234375">
        <ele>1697.4000244140625</ele>
        <time>2026-06-16T11:22:12.000Z</time>
        <extensions>
          <ns3:TrackPointExtension>
            <ns3:atemp>20.0</ns3:atemp>
          </ns3:TrackPointExtension>
        </extensions>
      </trkpt>
      <trkpt lat="42.625381015241146087646484375" lon="19.889810644090175628662109375">
        <ele>1697.199951171875</ele>
        <time>2026-06-16T11:22:13.000Z</time>
        <extensions>
          <ns3:TrackPointExtension>
            <ns3:atemp>20.0</ns3:atemp>
          </ns3:TrackPointExtension>
        </extensions>
      </trkpt>
      <trkpt lat="42.62536165304481983184814453125" lon="19.8898057825863361358642578125">
        <ele>1696.800048828125</ele>
        <time>2026-06-16T11:22:14.000Z</time>
        <extensions>
          <ns3:TrackPointExtension>
            <ns3:atemp>20.0</ns3:atemp>
          </ns3:TrackPointExtension>
        </extensions>
      </trkpt>
      <trkpt lat="42.6253496669232845306396484375" lon="19.8897923715412616729736328125">
        <ele>1696</ele>
        <time>2026-06-16T11:22:15.000Z</time>
        <extensions>
          <ns3:TrackPointExtension>
            <ns3:atemp>20.0</ns3:atemp>
          </ns3:TrackPointExtension>
        </extensions>
      </trkpt>
      <trkpt lat="42.6253365911543369293212890625" lon="19.88978709094226360321044921875">
        <ele>1695.5999755859375</ele>
        <time>2026-06-16T11:22:16.000Z</time>
        <extensions>
          <ns3:TrackPointExtension>
            <ns3:atemp>20.0</ns3:atemp>
          </ns3:TrackPointExtension>
        </extensions>
      </trkpt>
      <trkpt lat="42.6253225095570087432861328125" lon="19.88978910259902477264404296875">
        <ele>1695</ele>
        <time>2026-06-16T11:22:17.000Z</time>
        <extensions>
          <ns3:TrackPointExtension>
            <ns3:atemp>20.0</ns3:atemp>
          </ns3:TrackPointExtension>
        </extensions>
      </trkpt>
      <trkpt lat="42.62531387619674205780029296875" lon="19.88980703987181186676025390625">
        <ele>1694.4000244140625</ele>
        <time>2026-06-16T11:22:18.000Z</time>
        <extensions>
          <ns3:TrackPointExtension>
            <ns3:atemp>20.0</ns3:atemp>
          </ns3:TrackPointExtension>
        </extensions>
      </trkpt>
      <trkpt lat="42.62531119398772716522216796875" lon="19.8898238874971866607666015625">
        <ele>1693.5999755859375</ele>
        <time>2026-06-16T11:22:19.000Z</time>
        <extensions>
          <ns3:TrackPointExtension>
            <ns3:atemp>20.0</ns3:atemp>
          </ns3:TrackPointExtension>
        </extensions>
      </trkpt>
      <trkpt lat="42.62530901469290256500244140625" lon="19.8898339457809925079345703125">
        <ele>1693</ele>
        <time>2026-06-16T11:22:20.000Z</time>
        <extensions>
          <ns3:TrackPointExtension>
            <ns3:atemp>20.0</ns3:atemp>
          </ns3:TrackPointExtension>
        </extensions>
      </trkpt>
      <trkpt lat="42.6252980343997478485107421875" lon="19.88984576426446437835693359375">
        <ele>1692.4000244140625</ele>
        <time>2026-06-16T11:22:21.000Z</time>
        <extensions>
          <ns3:TrackPointExtension>
            <ns3:atemp>20.0</ns3:atemp>
          </ns3:TrackPointExtension>
        </extensions>
      </trkpt>
      <trkpt lat="42.62528386898338794708251953125" lon="19.8898453451693058013916015625">
        <ele>1691.800048828125</ele>
        <time>2026-06-16T11:22:22.000Z</time>
        <extensions>
          <ns3:TrackPointExtension>
            <ns3:atemp>20.0</ns3:atemp>
          </ns3:TrackPointExtension>
        </extensions>
      </trkpt>
      <trkpt lat="42.62527213431894779205322265625" lon="19.8898391425609588623046875">
        <ele>1691.199951171875</ele>
        <time>2026-06-16T11:22:23.000Z</time>
        <extensions>
          <ns3:TrackPointExtension>
            <ns3:atemp>20.0</ns3:atemp>
          </ns3:TrackPointExtension>
        </extensions>
      </trkpt>
      <trkpt lat="42.6252628304064273834228515625" lon="19.88983570598065853118896484375">
        <ele>1690.800048828125</ele>
        <time>2026-06-16T11:22:24.000Z</time>
        <extensions>
          <ns3:TrackPointExtension>
            <ns3:atemp>20.0</ns3:atemp>
          </ns3:TrackPointExtension>
        </extensions>
      </trkpt>
      <trkpt lat="42.62525855563580989837646484375" lon="19.88983201794326305389404296875">
        <ele>1690.199951171875</ele>
        <time>2026-06-16T11:22:25.000Z</time>
        <extensions>
          <ns3:TrackPointExtension>
            <ns3:atemp>20.0</ns3:atemp>
          </ns3:TrackPointExtension>
        </extensions>
      </trkpt>
      <trkpt lat="42.62525218538939952850341796875" lon="19.88982514478266239166259765625">
        <ele>1689.800048828125</ele>
        <time>2026-06-16T11:22:26.000Z</time>
        <extensions>
          <ns3:TrackPointExtension>
            <ns3:atemp>20.0</ns3:atemp>
          </ns3:TrackPointExtension>
        </extensions>
      </trkpt>
      <trkpt lat="42.62525193393230438232421875" lon="19.889824725687503814697265625">
        <ele>1689.5999755859375</ele>
        <time>2026-06-16T11:22:27.000Z</time>
        <extensions>
          <ns3:TrackPointExtension>
            <ns3:atemp>20.0</ns3:atemp>
          </ns3:TrackPointExtension>
        </extensions>
      </trkpt>
      <trkpt lat="42.62525193393230438232421875" lon="19.889824725687503814697265625">
        <ele>1689.199951171875</ele>
        <time>2026-06-16T11:22:28.000Z</time>
        <extensions>
          <ns3:TrackPointExtension>
            <ns3:atemp>20.0</ns3:atemp>
          </ns3:TrackPointExtension>
        </extensions>
      </trkpt>
      <trkpt lat="42.62525193393230438232421875" lon="19.889824725687503814697265625">
        <ele>1689.199951171875</ele>
        <time>2026-06-16T11:22:29.000Z</time>
        <extensions>
          <ns3:TrackPointExtension>
            <ns3:atemp>20.0</ns3:atemp>
          </ns3:TrackPointExtension>
        </extensions>
      </trkpt>
      <trkpt lat="42.62525193393230438232421875" lon="19.889824725687503814697265625">
        <ele>1689</ele>
        <time>2026-06-16T11:22:30.000Z</time>
        <extensions>
          <ns3:TrackPointExtension>
            <ns3:atemp>20.0</ns3:atemp>
          </ns3:TrackPointExtension>
        </extensions>
      </trkpt>
      <trkpt lat="42.62525193393230438232421875" lon="19.889824725687503814697265625">
        <ele>1689</ele>
        <time>2026-06-16T11:22:31.000Z</time>
        <extensions>
          <ns3:TrackPointExtension>
            <ns3:atemp>20.0</ns3:atemp>
          </ns3:TrackPointExtension>
        </extensions>
      </trkpt>
      <trkpt lat="42.62525193393230438232421875" lon="19.889824725687503814697265625">
        <ele>1689</ele>
        <time>2026-06-16T11:22:32.000Z</time>
        <extensions>
          <ns3:TrackPointExtension>
            <ns3:atemp>20.0</ns3:atemp>
          </ns3:TrackPointExtension>
        </extensions>
      </trkpt>
      <trkpt lat="42.62524925172328948974609375" lon="19.88982212729752063751220703125">
        <ele>1688.800048828125</ele>
        <time>2026-06-16T11:22:33.000Z</time>
        <extensions>
          <ns3:TrackPointExtension>
            <ns3:atemp>20.0</ns3:atemp>
          </ns3:TrackPointExtension>
        </extensions>
      </trkpt>
      <trkpt lat="42.62522268109023571014404296875" lon="19.88980972208082675933837890625">
        <ele>1688.800048828125</ele>
        <time>2026-06-16T11:22:34.000Z</time>
        <extensions>
          <ns3:TrackPointExtension>
            <ns3:atemp>20.0</ns3:atemp>
          </ns3:TrackPointExtension>
        </extensions>
      </trkpt>
      <trkpt lat="42.6252135448157787322998046875" lon="19.8898081295192241668701171875">
        <ele>1688.5999755859375</ele>
        <time>2026-06-16T11:22:35.000Z</time>
        <extensions>
          <ns3:TrackPointExtension>
            <ns3:atemp>20.0</ns3:atemp>
          </ns3:TrackPointExtension>
        </extensions>
      </trkpt>
      <trkpt lat="42.62521211989223957061767578125" lon="19.8898054473102092742919921875">
        <ele>1688.4000244140625</ele>
        <time>2026-06-16T11:22:36.000Z</time>
        <extensions>
          <ns3:TrackPointExtension>
            <ns3:atemp>20.0</ns3:atemp>
          </ns3:TrackPointExtension>
        </extensions>
      </trkpt>
      <trkpt lat="42.62521228753030300140380859375" lon="19.88980569876730442047119140625">
        <ele>1688</ele>
        <time>2026-06-16T11:22:37.000Z</time>
        <extensions>
          <ns3:TrackPointExtension>
            <ns3:atemp>20.0</ns3:atemp>
          </ns3:TrackPointExtension>
        </extensions>
      </trkpt>
      <trkpt lat="42.6252158917486667633056640625" lon="19.88982045091688632965087890625">
        <ele>1687.800048828125</ele>
        <time>2026-06-16T11:22:38.000Z</time>
        <extensions>
          <ns3:TrackPointExtension>
            <ns3:atemp>20.0</ns3:atemp>
          </ns3:TrackPointExtension>
        </extensions>
      </trkpt>
      <trkpt lat="42.6252189092338085174560546875" lon="19.88983285613358020782470703125">
        <ele>1687.4000244140625</ele>
        <time>2026-06-16T11:22:39.000Z</time>
        <extensions>
          <ns3:TrackPointExtension>
            <ns3:atemp>20.0</ns3:atemp>
          </ns3:TrackPointExtension>
        </extensions>
      </trkpt>
      <trkpt lat="42.62521614320576190948486328125" lon="19.889842160046100616455078125">
        <ele>1687</ele>
        <time>2026-06-16T11:22:40.000Z</time>
        <extensions>
          <ns3:TrackPointExtension>
            <ns3:atemp>20.0</ns3:atemp>
          </ns3:TrackPointExtension>
        </extensions>
      </trkpt>
      <trkpt lat="42.62520633637905120849609375" lon="19.88985280506312847137451171875">
        <ele>1686.800048828125</ele>
        <time>2026-06-16T11:22:41.000Z</time>
        <extensions>
          <ns3:TrackPointExtension>
            <ns3:atemp>20.0</ns3:atemp>
          </ns3:TrackPointExtension>
        </extensions>
      </trkpt>
      <trkpt lat="42.6251984573900699615478515625" lon="19.88985322415828704833984375">
        <ele>1686.4000244140625</ele>
        <time>2026-06-16T11:22:42.000Z</time>
        <extensions>
          <ns3:TrackPointExtension>
            <ns3:atemp>20.0</ns3:atemp>
          </ns3:TrackPointExtension>
        </extensions>
      </trkpt>
      <trkpt lat="42.62519032694399356842041015625" lon="19.8898525536060333251953125">
        <ele>1686</ele>
        <time>2026-06-16T11:22:43.000Z</time>
        <extensions>
          <ns3:TrackPointExtension>
            <ns3:atemp>20.0</ns3:atemp>
          </ns3:TrackPointExtension>
        </extensions>
      </trkpt>
      <trkpt lat="42.6251890696585178375244140625" lon="19.88985783420503139495849609375">
        <ele>1685.800048828125</ele>
        <time>2026-06-16T11:22:44.000Z</time>
        <extensions>
          <ns3:TrackPointExtension>
            <ns3:atemp>20.0</ns3:atemp>
          </ns3:TrackPointExtension>
        </extensions>
      </trkpt>
      <trkpt lat="42.62519015930593013763427734375" lon="19.88985724747180938720703125">
        <ele>1685.4000244140625</ele>
        <time>2026-06-16T11:22:45.000Z</time>
        <extensions>
          <ns3:TrackPointExtension>
            <ns3:atemp>20.0</ns3:atemp>
          </ns3:TrackPointExtension>
        </extensions>
      </trkpt>
      <trkpt lat="42.62519015930593013763427734375" lon="19.88985724747180938720703125">
        <ele>1685.199951171875</ele>
        <time>2026-06-16T11:22:46.000Z</time>
        <extensions>
          <ns3:TrackPointExtension>
            <ns3:atemp>20.0</ns3:atemp>
          </ns3:TrackPointExtension>
        </extensions>
      </trkpt>
      <trkpt lat="42.62519015930593013763427734375" lon="19.88985724747180938720703125">
        <ele>1685</ele>
        <time>2026-06-16T11:22:47.000Z</time>
        <extensions>
          <ns3:TrackPointExtension>
            <ns3:atemp>20.0</ns3:atemp>
          </ns3:TrackPointExtension>
        </extensions>
      </trkpt>
      <trkpt lat="42.62519015930593013763427734375" lon="19.88985724747180938720703125">
        <ele>1685</ele>
        <time>2026-06-16T11:22:48.000Z</time>
        <extensions>
          <ns3:TrackPointExtension>
            <ns3:atemp>20.0</ns3:atemp>
          </ns3:TrackPointExtension>
        </extensions>
      </trkpt>
      <trkpt lat="42.62519015930593013763427734375" lon="19.88985724747180938720703125">
        <ele>1685</ele>
        <time>2026-06-16T11:22:49.000Z</time>
        <extensions>
          <ns3:TrackPointExtension>
            <ns3:atemp>20.0</ns3:atemp>
          </ns3:TrackPointExtension>
        </extensions>
      </trkpt>
      <trkpt lat="42.62519015930593013763427734375" lon="19.88985724747180938720703125">
        <ele>1684.800048828125</ele>
        <time>2026-06-16T11:22:50.000Z</time>
        <extensions>
          <ns3:TrackPointExtension>
            <ns3:atemp>20.0</ns3:atemp>
          </ns3:TrackPointExtension>
        </extensions>
      </trkpt>
      <trkpt lat="42.62519015930593013763427734375" lon="19.88985724747180938720703125">
        <ele>1684.800048828125</ele>
        <time>2026-06-16T11:22:51.000Z</time>
        <extensions>
          <ns3:TrackPointExtension>
            <ns3:atemp>20.0</ns3:atemp>
          </ns3:TrackPointExtension>
        </extensions>
      </trkpt>
      <trkpt lat="42.62519015930593013763427734375" lon="19.88985724747180938720703125">
        <ele>1684.800048828125</ele>
        <time>2026-06-16T11:22:52.000Z</time>
        <extensions>
          <ns3:TrackPointExtension>
            <ns3:atemp>20.0</ns3:atemp>
          </ns3:TrackPointExtension>
        </extensions>
      </trkpt>
      <trkpt lat="42.62519015930593013763427734375" lon="19.88985724747180938720703125">
        <ele>1684.800048828125</ele>
        <time>2026-06-16T11:22:53.000Z</time>
        <extensions>
          <ns3:TrackPointExtension>
            <ns3:atemp>20.0</ns3:atemp>
          </ns3:TrackPointExtension>
        </extensions>
      </trkpt>
      <trkpt lat="42.62519015930593013763427734375" lon="19.88985724747180938720703125">
        <ele>1684.800048828125</ele>
        <time>2026-06-16T11:22:54.000Z</time>
        <extensions>
          <ns3:TrackPointExtension>
            <ns3:atemp>20.0</ns3:atemp>
          </ns3:TrackPointExtension>
        </extensions>
      </trkpt>
      <trkpt lat="42.62519015930593013763427734375" lon="19.88985724747180938720703125">
        <ele>1684.5999755859375</ele>
        <time>2026-06-16T11:22:55.000Z</time>
        <extensions>
          <ns3:TrackPointExtension>
            <ns3:atemp>20.0</ns3:atemp>
          </ns3:TrackPointExtension>
        </extensions>
      </trkpt>
      <trkpt lat="42.62519015930593013763427734375" lon="19.88985724747180938720703125">
        <ele>1684.5999755859375</ele>
        <time>2026-06-16T11:22:56.000Z</time>
        <extensions>
          <ns3:TrackPointExtension>
            <ns3:atemp>20.0</ns3:atemp>
          </ns3:TrackPointExtension>
        </extensions>
      </trkpt>
      <trkpt lat="42.62519015930593013763427734375" lon="19.88985724747180938720703125">
        <ele>1684.5999755859375</ele>
        <time>2026-06-16T11:22:57.000Z</time>
        <extensions>
          <ns3:TrackPointExtension>
            <ns3:atemp>20.0</ns3:atemp>
          </ns3:TrackPointExtension>
        </extensions>
      </trkpt>
      <trkpt lat="42.62519015930593013763427734375" lon="19.88985724747180938720703125">
        <ele>1684.5999755859375</ele>
        <time>2026-06-16T11:22:58.000Z</time>
        <extensions>
          <ns3:TrackPointExtension>
            <ns3:atemp>20.0</ns3:atemp>
          </ns3:TrackPointExtension>
        </extensions>
      </trkpt>
      <trkpt lat="42.62519015930593013763427734375" lon="19.88985724747180938720703125">
        <ele>1684.5999755859375</ele>
        <time>2026-06-16T11:22:59.000Z</time>
        <extensions>
          <ns3:TrackPointExtension>
            <ns3:atemp>20.0</ns3:atemp>
          </ns3:TrackPointExtension>
        </extensions>
      </trkpt>
      <trkpt lat="42.62519015930593013763427734375" lon="19.88985724747180938720703125">
        <ele>1684.5999755859375</ele>
        <time>2026-06-16T11:23:00.000Z</time>
        <extensions>
          <ns3:TrackPointExtension>
            <ns3:atemp>20.0</ns3:atemp>
          </ns3:TrackPointExtension>
        </extensions>
      </trkpt>
      <trkpt lat="42.62519015930593013763427734375" lon="19.88985724747180938720703125">
        <ele>1684.800048828125</ele>
        <time>2026-06-16T11:23:01.000Z</time>
        <extensions>
          <ns3:TrackPointExtension>
            <ns3:atemp>20.0</ns3:atemp>
          </ns3:TrackPointExtension>
        </extensions>
      </trkpt>
      <trkpt lat="42.62519015930593013763427734375" lon="19.88985724747180938720703125">
        <ele>1684.800048828125</ele>
        <time>2026-06-16T11:23:02.000Z</time>
        <extensions>
          <ns3:TrackPointExtension>
            <ns3:atemp>20.0</ns3:atemp>
          </ns3:TrackPointExtension>
        </extensions>
      </trkpt>
      <trkpt lat="42.62519015930593013763427734375" lon="19.88985724747180938720703125">
        <ele>1684.800048828125</ele>
        <time>2026-06-16T11:23:03.000Z</time>
        <extensions>
          <ns3:TrackPointExtension>
            <ns3:atemp>20.0</ns3:atemp>
          </ns3:TrackPointExtension>
        </extensions>
      </trkpt>
      <trkpt lat="42.62519015930593013763427734375" lon="19.88985724747180938720703125">
        <ele>1684.5999755859375</ele>
        <time>2026-06-16T11:23:04.000Z</time>
        <extensions>
          <ns3:TrackPointExtension>
            <ns3:atemp>20.0</ns3:atemp>
          </ns3:TrackPointExtension>
        </extensions>
      </trkpt>
      <trkpt lat="42.62519015930593013763427734375" lon="19.88985724747180938720703125">
        <ele>1684.5999755859375</ele>
        <time>2026-06-16T11:23:05.000Z</time>
        <extensions>
          <ns3:TrackPointExtension>
            <ns3:atemp>20.0</ns3:atemp>
          </ns3:TrackPointExtension>
        </extensions>
      </trkpt>
      <trkpt lat="42.62519015930593013763427734375" lon="19.88985724747180938720703125">
        <ele>1684.5999755859375</ele>
        <time>2026-06-16T11:23:06.000Z</time>
        <extensions>
          <ns3:TrackPointExtension>
            <ns3:atemp>20.0</ns3:atemp>
          </ns3:TrackPointExtension>
        </extensions>
      </trkpt>
      <trkpt lat="42.62519015930593013763427734375" lon="19.88985724747180938720703125">
        <ele>1684.5999755859375</ele>
        <time>2026-06-16T11:23:07.000Z</time>
        <extensions>
          <ns3:TrackPointExtension>
            <ns3:atemp>20.0</ns3:atemp>
          </ns3:TrackPointExtension>
        </extensions>
      </trkpt>
      <trkpt lat="42.62519015930593013763427734375" lon="19.88985724747180938720703125">
        <ele>1684.5999755859375</ele>
        <time>2026-06-16T11:23:08.000Z</time>
        <extensions>
          <ns3:TrackPointExtension>
            <ns3:atemp>20.0</ns3:atemp>
          </ns3:TrackPointExtension>
        </extensions>
      </trkpt>
      <trkpt lat="42.62519015930593013763427734375" lon="19.88985724747180938720703125">
        <ele>1684.5999755859375</ele>
        <time>2026-06-16T11:23:09.000Z</time>
        <extensions>
          <ns3:TrackPointExtension>
            <ns3:atemp>20.0</ns3:atemp>
          </ns3:TrackPointExtension>
        </extensions>
      </trkpt>
      <trkpt lat="42.62519015930593013763427734375" lon="19.88985724747180938720703125">
        <ele>1684.5999755859375</ele>
        <time>2026-06-16T11:23:10.000Z</time>
        <extensions>
          <ns3:TrackPointExtension>
            <ns3:atemp>20.0</ns3:atemp>
          </ns3:TrackPointExtension>
        </extensions>
      </trkpt>
      <trkpt lat="42.62519015930593013763427734375" lon="19.88985724747180938720703125">
        <ele>1684.5999755859375</ele>
        <time>2026-06-16T11:23:11.000Z</time>
        <extensions>
          <ns3:TrackPointExtension>
            <ns3:atemp>20.0</ns3:atemp>
          </ns3:TrackPointExtension>
        </extensions>
      </trkpt>
      <trkpt lat="42.62519015930593013763427734375" lon="19.88985724747180938720703125">
        <ele>1684.5999755859375</ele>
        <time>2026-06-16T11:23:12.000Z</time>
        <extensions>
          <ns3:TrackPointExtension>
            <ns3:atemp>20.0</ns3:atemp>
          </ns3:TrackPointExtension>
        </extensions>
      </trkpt>
      <trkpt lat="42.62519015930593013763427734375" lon="19.88985724747180938720703125">
        <ele>1684.5999755859375</ele>
        <time>2026-06-16T11:23:13.000Z</time>
        <extensions>
          <ns3:TrackPointExtension>
            <ns3:atemp>20.0</ns3:atemp>
          </ns3:TrackPointExtension>
        </extensions>
      </trkpt>
      <trkpt lat="42.62519015930593013763427734375" lon="19.88985724747180938720703125">
        <ele>1684.5999755859375</ele>
        <time>2026-06-16T11:23:14.000Z</time>
        <extensions>
          <ns3:TrackPointExtension>
            <ns3:atemp>20.0</ns3:atemp>
          </ns3:TrackPointExtension>
        </extensions>
      </trkpt>
      <trkpt lat="42.62519015930593013763427734375" lon="19.88985724747180938720703125">
        <ele>1684.5999755859375</ele>
        <time>2026-06-16T11:23:15.000Z</time>
        <extensions>
          <ns3:TrackPointExtension>
            <ns3:atemp>20.0</ns3:atemp>
          </ns3:TrackPointExtension>
        </extensions>
      </trkpt>
      <trkpt lat="42.62519015930593013763427734375" lon="19.88985724747180938720703125">
        <ele>1684.5999755859375</ele>
        <time>2026-06-16T11:23:16.000Z</time>
        <extensions>
          <ns3:TrackPointExtension>
            <ns3:atemp>20.0</ns3:atemp>
          </ns3:TrackPointExtension>
        </extensions>
      </trkpt>
      <trkpt lat="42.62519015930593013763427734375" lon="19.88985724747180938720703125">
        <ele>1684.5999755859375</ele>
        <time>2026-06-16T11:23:17.000Z</time>
        <extensions>
          <ns3:TrackPointExtension>
            <ns3:atemp>20.0</ns3:atemp>
          </ns3:TrackPointExtension>
        </extensions>
      </trkpt>
      <trkpt lat="42.62519015930593013763427734375" lon="19.88985724747180938720703125">
        <ele>1684.5999755859375</ele>
        <time>2026-06-16T11:23:18.000Z</time>
        <extensions>
          <ns3:TrackPointExtension>
            <ns3:atemp>20.0</ns3:atemp>
          </ns3:TrackPointExtension>
        </extensions>
      </trkpt>
      <trkpt lat="42.62519015930593013763427734375" lon="19.88985724747180938720703125">
        <ele>1684.5999755859375</ele>
        <time>2026-06-16T11:23:19.000Z</time>
        <extensions>
          <ns3:TrackPointExtension>
            <ns3:atemp>20.0</ns3:atemp>
          </ns3:TrackPointExtension>
        </extensions>
      </trkpt>
      <trkpt lat="42.62519015930593013763427734375" lon="19.88985724747180938720703125">
        <ele>1684.5999755859375</ele>
        <time>2026-06-16T11:23:20.000Z</time>
        <extensions>
          <ns3:TrackPointExtension>
            <ns3:atemp>20.0</ns3:atemp>
          </ns3:TrackPointExtension>
        </extensions>
      </trkpt>
      <trkpt lat="42.62519015930593013763427734375" lon="19.88985724747180938720703125">
        <ele>1684.5999755859375</ele>
        <time>2026-06-16T11:23:21.000Z</time>
        <extensions>
          <ns3:TrackPointExtension>
            <ns3:atemp>20.0</ns3:atemp>
          </ns3:TrackPointExtension>
        </extensions>
      </trkpt>
      <trkpt lat="42.62519015930593013763427734375" lon="19.88985724747180938720703125">
        <ele>1684.5999755859375</ele>
        <time>2026-06-16T11:23:22.000Z</time>
        <extensions>
          <ns3:TrackPointExtension>
            <ns3:atemp>20.0</ns3:atemp>
          </ns3:TrackPointExtension>
        </extensions>
      </trkpt>
      <trkpt lat="42.62519015930593013763427734375" lon="19.88985724747180938720703125">
        <ele>1684.5999755859375</ele>
        <time>2026-06-16T11:23:23.000Z</time>
        <extensions>
          <ns3:TrackPointExtension>
            <ns3:atemp>20.0</ns3:atemp>
          </ns3:TrackPointExtension>
        </extensions>
      </trkpt>
      <trkpt lat="42.62519015930593013763427734375" lon="19.88985724747180938720703125">
        <ele>1684.800048828125</ele>
        <time>2026-06-16T11:23:24.000Z</time>
        <extensions>
          <ns3:TrackPointExtension>
            <ns3:atemp>20.0</ns3:atemp>
          </ns3:TrackPointExtension>
        </extensions>
      </trkpt>
      <trkpt lat="42.62519015930593013763427734375" lon="19.88985724747180938720703125">
        <ele>1684.800048828125</ele>
        <time>2026-06-16T11:23:25.000Z</time>
        <extensions>
          <ns3:TrackPointExtension>
            <ns3:atemp>20.0</ns3:atemp>
          </ns3:TrackPointExtension>
        </extensions>
      </trkpt>
      <trkpt lat="42.62519015930593013763427734375" lon="19.88985724747180938720703125">
        <ele>1684.800048828125</ele>
        <time>2026-06-16T11:23:26.000Z</time>
        <extensions>
          <ns3:TrackPointExtension>
            <ns3:atemp>20.0</ns3:atemp>
          </ns3:TrackPointExtension>
        </extensions>
      </trkpt>
      <trkpt lat="42.62519015930593013763427734375" lon="19.88985724747180938720703125">
        <ele>1684.800048828125</ele>
        <time>2026-06-16T11:23:27.000Z</time>
        <extensions>
          <ns3:TrackPointExtension>
            <ns3:atemp>20.0</ns3:atemp>
          </ns3:TrackPointExtension>
        </extensions>
      </trkpt>
      <trkpt lat="42.62519015930593013763427734375" lon="19.88985724747180938720703125">
        <ele>1684.800048828125</ele>
        <time>2026-06-16T11:23:28.000Z</time>
        <extensions>
          <ns3:TrackPointExtension>
            <ns3:atemp>20.0</ns3:atemp>
          </ns3:TrackPointExtension>
        </extensions>
      </trkpt>
      <trkpt lat="42.62519015930593013763427734375" lon="19.88985724747180938720703125">
        <ele>1684.800048828125</ele>
        <time>2026-06-16T11:23:29.000Z</time>
        <extensions>
          <ns3:TrackPointExtension>
            <ns3:atemp>20.0</ns3:atemp>
          </ns3:TrackPointExtension>
        </extensions>
      </trkpt>
      <trkpt lat="42.6251857168972492218017578125" lon="19.8898552358150482177734375">
        <ele>1684.800048828125</ele>
        <time>2026-06-16T11:23:30.000Z</time>
        <extensions>
          <ns3:TrackPointExtension>
            <ns3:atemp>20.0</ns3:atemp>
          </ns3:TrackPointExtension>
        </extensions>
      </trkpt>
      <trkpt lat="42.6251656003296375274658203125" lon="19.88984844647347927093505859375">
        <ele>1684.5999755859375</ele>
        <time>2026-06-16T11:23:31.000Z</time>
        <extensions>
          <ns3:TrackPointExtension>
            <ns3:atemp>20.0</ns3:atemp>
          </ns3:TrackPointExtension>
        </extensions>
      </trkpt>
      <trkpt lat="42.62515076436102390289306640625" lon="19.8898399807512760162353515625">
        <ele>1684.4000244140625</ele>
        <time>2026-06-16T11:23:32.000Z</time>
        <extensions>
          <ns3:TrackPointExtension>
            <ns3:atemp>20.0</ns3:atemp>
          </ns3:TrackPointExtension>
        </extensions>
      </trkpt>
      <trkpt lat="42.62513634748756885528564453125" lon="19.88983805291354656219482421875">
        <ele>1684.199951171875</ele>
        <time>2026-06-16T11:23:33.000Z</time>
        <extensions>
          <ns3:TrackPointExtension>
            <ns3:atemp>20.0</ns3:atemp>
          </ns3:TrackPointExtension>
        </extensions>
      </trkpt>
      <trkpt lat="42.6251230202615261077880859375" lon="19.88984291441738605499267578125">
        <ele>1683.800048828125</ele>
        <time>2026-06-16T11:23:34.000Z</time>
        <extensions>
          <ns3:TrackPointExtension>
            <ns3:atemp>20.0</ns3:atemp>
          </ns3:TrackPointExtension>
        </extensions>
      </trkpt>
      <trkpt lat="42.625120170414447784423828125" lon="19.889837801456451416015625">
        <ele>1683.4000244140625</ele>
        <time>2026-06-16T11:23:35.000Z</time>
        <extensions>
          <ns3:TrackPointExtension>
            <ns3:atemp>20.0</ns3:atemp>
          </ns3:TrackPointExtension>
        </extensions>
      </trkpt>
      <trkpt lat="42.62512025423347949981689453125" lon="19.8898376338183879852294921875">
        <ele>1683.199951171875</ele>
        <time>2026-06-16T11:23:36.000Z</time>
        <extensions>
          <ns3:TrackPointExtension>
            <ns3:atemp>20.0</ns3:atemp>
          </ns3:TrackPointExtension>
        </extensions>
      </trkpt>
      <trkpt lat="42.62512025423347949981689453125" lon="19.8898376338183879852294921875">
        <ele>1683</ele>
        <time>2026-06-16T11:23:37.000Z</time>
        <extensions>
          <ns3:TrackPointExtension>
            <ns3:atemp>20.0</ns3:atemp>
          </ns3:TrackPointExtension>
        </extensions>
      </trkpt>
      <trkpt lat="42.62512025423347949981689453125" lon="19.8898376338183879852294921875">
        <ele>1683</ele>
        <time>2026-06-16T11:23:38.000Z</time>
        <extensions>
          <ns3:TrackPointExtension>
            <ns3:atemp>20.0</ns3:atemp>
          </ns3:TrackPointExtension>
        </extensions>
      </trkpt>
      <trkpt lat="42.62512025423347949981689453125" lon="19.8898376338183879852294921875">
        <ele>1682.800048828125</ele>
        <time>2026-06-16T11:23:39.000Z</time>
        <extensions>
          <ns3:TrackPointExtension>
            <ns3:atemp>20.0</ns3:atemp>
          </ns3:TrackPointExtension>
        </extensions>
      </trkpt>
      <trkpt lat="42.62512025423347949981689453125" lon="19.8898376338183879852294921875">
        <ele>1682.800048828125</ele>
        <time>2026-06-16T11:23:40.000Z</time>
        <extensions>
          <ns3:TrackPointExtension>
            <ns3:atemp>20.0</ns3:atemp>
          </ns3:TrackPointExtension>
        </extensions>
      </trkpt>
      <trkpt lat="42.62512025423347949981689453125" lon="19.8898376338183879852294921875">
        <ele>1682.5999755859375</ele>
        <time>2026-06-16T11:23:41.000Z</time>
        <extensions>
          <ns3:TrackPointExtension>
            <ns3:atemp>20.0</ns3:atemp>
          </ns3:TrackPointExtension>
        </extensions>
      </trkpt>
      <trkpt lat="42.62512025423347949981689453125" lon="19.8898376338183879852294921875">
        <ele>1682.5999755859375</ele>
        <time>2026-06-16T11:23:42.000Z</time>
        <extensions>
          <ns3:TrackPointExtension>
            <ns3:atemp>20.0</ns3:atemp>
          </ns3:TrackPointExtension>
        </extensions>
      </trkpt>
      <trkpt lat="42.62512025423347949981689453125" lon="19.8898376338183879852294921875">
        <ele>1682.5999755859375</ele>
        <time>2026-06-16T11:23:43.000Z</time>
        <extensions>
          <ns3:TrackPointExtension>
            <ns3:atemp>20.0</ns3:atemp>
          </ns3:TrackPointExtension>
        </extensions>
      </trkpt>
      <trkpt lat="42.62512025423347949981689453125" lon="19.8898376338183879852294921875">
        <ele>1682.5999755859375</ele>
        <time>2026-06-16T11:23:44.000Z</time>
        <extensions>
          <ns3:TrackPointExtension>
            <ns3:atemp>20.0</ns3:atemp>
          </ns3:TrackPointExtension>
        </extensions>
      </trkpt>
      <trkpt lat="42.62512025423347949981689453125" lon="19.8898376338183879852294921875">
        <ele>1682.4000244140625</ele>
        <time>2026-06-16T11:23:45.000Z</time>
        <extensions>
          <ns3:TrackPointExtension>
            <ns3:atemp>20.0</ns3:atemp>
          </ns3:TrackPointExtension>
        </extensions>
      </trkpt>
      <trkpt lat="42.62512025423347949981689453125" lon="19.8898376338183879852294921875">
        <ele>1682.4000244140625</ele>
        <time>2026-06-16T11:23:46.000Z</time>
        <extensions>
          <ns3:TrackPointExtension>
            <ns3:atemp>20.0</ns3:atemp>
          </ns3:TrackPointExtension>
        </extensions>
      </trkpt>
      <trkpt lat="42.62512025423347949981689453125" lon="19.8898376338183879852294921875">
        <ele>1682.4000244140625</ele>
        <time>2026-06-16T11:23:47.000Z</time>
        <extensions>
          <ns3:TrackPointExtension>
            <ns3:atemp>20.0</ns3:atemp>
          </ns3:TrackPointExtension>
        </extensions>
      </trkpt>
      <trkpt lat="42.62512025423347949981689453125" lon="19.8898376338183879852294921875">
        <ele>1682.4000244140625</ele>
        <time>2026-06-16T11:23:48.000Z</time>
        <extensions>
          <ns3:TrackPointExtension>
            <ns3:atemp>20.0</ns3:atemp>
          </ns3:TrackPointExtension>
        </extensions>
      </trkpt>
      <trkpt lat="42.62512025423347949981689453125" lon="19.8898376338183879852294921875">
        <ele>1682.4000244140625</ele>
        <time>2026-06-16T11:23:49.000Z</time>
        <extensions>
          <ns3:TrackPointExtension>
            <ns3:atemp>20.0</ns3:atemp>
          </ns3:TrackPointExtension>
        </extensions>
      </trkpt>
      <trkpt lat="42.62512025423347949981689453125" lon="19.8898376338183879852294921875">
        <ele>1682.199951171875</ele>
        <time>2026-06-16T11:23:50.000Z</time>
        <extensions>
          <ns3:TrackPointExtension>
            <ns3:atemp>20.0</ns3:atemp>
          </ns3:TrackPointExtension>
        </extensions>
      </trkpt>
      <trkpt lat="42.62511773966252803802490234375" lon="19.8898346163332462310791015625">
        <ele>1682.199951171875</ele>
        <time>2026-06-16T11:23:51.000Z</time>
        <extensions>
          <ns3:TrackPointExtension>
            <ns3:atemp>20.0</ns3:atemp>
          </ns3:TrackPointExtension>
        </extensions>
      </trkpt>
      <trkpt lat="42.6251136325299739837646484375" lon="19.88985934294760227203369140625">
        <ele>1682.199951171875</ele>
        <time>2026-06-16T11:23:52.000Z</time>
        <extensions>
          <ns3:TrackPointExtension>
            <ns3:atemp>20.0</ns3:atemp>
          </ns3:TrackPointExtension>
        </extensions>
      </trkpt>
      <trkpt lat="42.6251117885112762451171875" lon="19.88987736403942108154296875">
        <ele>1682</ele>
        <time>2026-06-16T11:23:53.000Z</time>
        <extensions>
          <ns3:TrackPointExtension>
            <ns3:atemp>20.0</ns3:atemp>
          </ns3:TrackPointExtension>
        </extensions>
      </trkpt>
      <trkpt lat="42.62510851956903934478759765625" lon="19.88989354111254215240478515625">
        <ele>1681.800048828125</ele>
        <time>2026-06-16T11:23:54.000Z</time>
        <extensions>
          <ns3:TrackPointExtension>
            <ns3:atemp>20.0</ns3:atemp>
          </ns3:TrackPointExtension>
        </extensions>
      </trkpt>
      <trkpt lat="42.62510365806519985198974609375" lon="19.8899113945662975311279296875">
        <ele>1681.5999755859375</ele>
        <time>2026-06-16T11:23:55.000Z</time>
        <extensions>
          <ns3:TrackPointExtension>
            <ns3:atemp>20.0</ns3:atemp>
          </ns3:TrackPointExtension>
        </extensions>
      </trkpt>
      <trkpt lat="42.625106759369373321533203125" lon="19.8899174295365810394287109375">
        <ele>1681.199951171875</ele>
        <time>2026-06-16T11:23:56.000Z</time>
        <extensions>
          <ns3:TrackPointExtension>
            <ns3:atemp>20.0</ns3:atemp>
          </ns3:TrackPointExtension>
        </extensions>
      </trkpt>
      <trkpt lat="42.62510684318840503692626953125" lon="19.88991768099367618560791015625">
        <ele>1681</ele>
        <time>2026-06-16T11:23:57.000Z</time>
        <extensions>
          <ns3:TrackPointExtension>
            <ns3:atemp>20.0</ns3:atemp>
          </ns3:TrackPointExtension>
        </extensions>
      </trkpt>
      <trkpt lat="42.62510684318840503692626953125" lon="19.88991768099367618560791015625">
        <ele>1680.5999755859375</ele>
        <time>2026-06-16T11:23:58.000Z</time>
        <extensions>
          <ns3:TrackPointExtension>
            <ns3:atemp>20.0</ns3:atemp>
          </ns3:TrackPointExtension>
        </extensions>
      </trkpt>
      <trkpt lat="42.62510684318840503692626953125" lon="19.88991768099367618560791015625">
        <ele>1680.4000244140625</ele>
        <time>2026-06-16T11:23:59.000Z</time>
        <extensions>
          <ns3:TrackPointExtension>
            <ns3:atemp>20.0</ns3:atemp>
          </ns3:TrackPointExtension>
        </extensions>
      </trkpt>
      <trkpt lat="42.62510684318840503692626953125" lon="19.88991768099367618560791015625">
        <ele>1680.199951171875</ele>
        <time>2026-06-16T11:24:00.000Z</time>
        <extensions>
          <ns3:TrackPointExtension>
            <ns3:atemp>20.0</ns3:atemp>
          </ns3:TrackPointExtension>
        </extensions>
      </trkpt>
      <trkpt lat="42.625107429921627044677734375" lon="19.889918603003025054931640625">
        <ele>1680.199951171875</ele>
        <time>2026-06-16T11:24:01.000Z</time>
        <extensions>
          <ns3:TrackPointExtension>
            <ns3:atemp>20.0</ns3:atemp>
          </ns3:TrackPointExtension>
        </extensions>
      </trkpt>
      <trkpt lat="42.6251079328358173370361328125" lon="19.8899281583726406097412109375">
        <ele>1680.199951171875</ele>
        <time>2026-06-16T11:24:02.000Z</time>
        <extensions>
          <ns3:TrackPointExtension>
            <ns3:atemp>20.0</ns3:atemp>
          </ns3:TrackPointExtension>
        </extensions>
      </trkpt>
      <trkpt lat="42.62510030530393123626708984375" lon="19.88994383253157138824462890625">
        <ele>1680</ele>
        <time>2026-06-16T11:24:03.000Z</time>
        <extensions>
          <ns3:TrackPointExtension>
            <ns3:atemp>20.0</ns3:atemp>
          </ns3:TrackPointExtension>
        </extensions>
      </trkpt>
      <trkpt lat="42.6250968687236309051513671875" lon="19.88995154388248920440673828125">
        <ele>1679.800048828125</ele>
        <time>2026-06-16T11:24:04.000Z</time>
        <extensions>
          <ns3:TrackPointExtension>
            <ns3:atemp>20.0</ns3:atemp>
          </ns3:TrackPointExtension>
        </extensions>
      </trkpt>
      <trkpt lat="42.6250851340591907501220703125" lon="19.889952801167964935302734375">
        <ele>1679.5999755859375</ele>
        <time>2026-06-16T11:24:05.000Z</time>
        <extensions>
          <ns3:TrackPointExtension>
            <ns3:atemp>20.0</ns3:atemp>
          </ns3:TrackPointExtension>
        </extensions>
      </trkpt>
      <trkpt lat="42.62507331557571887969970703125" lon="19.8899653740227222442626953125">
        <ele>1679</ele>
        <time>2026-06-16T11:24:06.000Z</time>
        <extensions>
          <ns3:TrackPointExtension>
            <ns3:atemp>20.0</ns3:atemp>
          </ns3:TrackPointExtension>
        </extensions>
      </trkpt>
      <trkpt lat="42.62507314793765544891357421875" lon="19.88997182808816432952880859375">
        <ele>1678.5999755859375</ele>
        <time>2026-06-16T11:24:07.000Z</time>
        <extensions>
          <ns3:TrackPointExtension>
            <ns3:atemp>20.0</ns3:atemp>
          </ns3:TrackPointExtension>
        </extensions>
      </trkpt>
      <trkpt lat="42.62507314793765544891357421875" lon="19.88997199572622776031494140625">
        <ele>1678.4000244140625</ele>
        <time>2026-06-16T11:24:08.000Z</time>
        <extensions>
          <ns3:TrackPointExtension>
            <ns3:atemp>20.0</ns3:atemp>
          </ns3:TrackPointExtension>
        </extensions>
      </trkpt>
      <trkpt lat="42.62507314793765544891357421875" lon="19.88997199572622776031494140625">
        <ele>1678</ele>
        <time>2026-06-16T11:24:09.000Z</time>
        <extensions>
          <ns3:TrackPointExtension>
            <ns3:atemp>20.0</ns3:atemp>
          </ns3:TrackPointExtension>
        </extensions>
      </trkpt>
      <trkpt lat="42.62507314793765544891357421875" lon="19.88997199572622776031494140625">
        <ele>1677.800048828125</ele>
        <time>2026-06-16T11:24:10.000Z</time>
        <extensions>
          <ns3:TrackPointExtension>
            <ns3:atemp>20.0</ns3:atemp>
          </ns3:TrackPointExtension>
        </extensions>
      </trkpt>
      <trkpt lat="42.62507314793765544891357421875" lon="19.88997199572622776031494140625">
        <ele>1677.5999755859375</ele>
        <time>2026-06-16T11:24:11.000Z</time>
        <extensions>
          <ns3:TrackPointExtension>
            <ns3:atemp>20.0</ns3:atemp>
          </ns3:TrackPointExtension>
        </extensions>
      </trkpt>
      <trkpt lat="42.62507314793765544891357421875" lon="19.88997199572622776031494140625">
        <ele>1677.4000244140625</ele>
        <time>2026-06-16T11:24:12.000Z</time>
        <extensions>
          <ns3:TrackPointExtension>
            <ns3:atemp>20.0</ns3:atemp>
          </ns3:TrackPointExtension>
        </extensions>
      </trkpt>
      <trkpt lat="42.62507314793765544891357421875" lon="19.88997199572622776031494140625">
        <ele>1677.4000244140625</ele>
        <time>2026-06-16T11:24:13.000Z</time>
        <extensions>
          <ns3:TrackPointExtension>
            <ns3:atemp>20.0</ns3:atemp>
          </ns3:TrackPointExtension>
        </extensions>
      </trkpt>
      <trkpt lat="42.62507314793765544891357421875" lon="19.88997199572622776031494140625">
        <ele>1677.4000244140625</ele>
        <time>2026-06-16T11:24:14.000Z</time>
        <extensions>
          <ns3:TrackPointExtension>
            <ns3:atemp>20.0</ns3:atemp>
          </ns3:TrackPointExtension>
        </extensions>
      </trkpt>
      <trkpt lat="42.62507314793765544891357421875" lon="19.88997199572622776031494140625">
        <ele>1677.199951171875</ele>
        <time>2026-06-16T11:24:15.000Z</time>
        <extensions>
          <ns3:TrackPointExtension>
            <ns3:atemp>20.0</ns3:atemp>
          </ns3:TrackPointExtension>
        </extensions>
      </trkpt>
      <trkpt lat="42.62507314793765544891357421875" lon="19.88997199572622776031494140625">
        <ele>1677.199951171875</ele>
        <time>2026-06-16T11:24:16.000Z</time>
        <extensions>
          <ns3:TrackPointExtension>
            <ns3:atemp>20.0</ns3:atemp>
          </ns3:TrackPointExtension>
        </extensions>
      </trkpt>
      <trkpt lat="42.62507314793765544891357421875" lon="19.88997199572622776031494140625">
        <ele>1677.199951171875</ele>
        <time>2026-06-16T11:24:17.000Z</time>
        <extensions>
          <ns3:TrackPointExtension>
            <ns3:atemp>20.0</ns3:atemp>
          </ns3:TrackPointExtension>
        </extensions>
      </trkpt>
      <trkpt lat="42.62507314793765544891357421875" lon="19.88997199572622776031494140625">
        <ele>1677.199951171875</ele>
        <time>2026-06-16T11:24:18.000Z</time>
        <extensions>
          <ns3:TrackPointExtension>
            <ns3:atemp>20.0</ns3:atemp>
          </ns3:TrackPointExtension>
        </extensions>
      </trkpt>
      <trkpt lat="42.62507314793765544891357421875" lon="19.88997199572622776031494140625">
        <ele>1677.199951171875</ele>
        <time>2026-06-16T11:24:19.000Z</time>
        <extensions>
          <ns3:TrackPointExtension>
            <ns3:atemp>20.0</ns3:atemp>
          </ns3:TrackPointExtension>
        </extensions>
      </trkpt>
      <trkpt lat="42.62507314793765544891357421875" lon="19.88997199572622776031494140625">
        <ele>1677.199951171875</ele>
        <time>2026-06-16T11:24:20.000Z</time>
        <extensions>
          <ns3:TrackPointExtension>
            <ns3:atemp>20.0</ns3:atemp>
          </ns3:TrackPointExtension>
        </extensions>
      </trkpt>
      <trkpt lat="42.62507314793765544891357421875" lon="19.88997199572622776031494140625">
        <ele>1677.199951171875</ele>
        <time>2026-06-16T11:24:21.000Z</time>
        <extensions>
          <ns3:TrackPointExtension>
            <ns3:atemp>20.0</ns3:atemp>
          </ns3:TrackPointExtension>
        </extensions>
      </trkpt>
      <trkpt lat="42.62507314793765544891357421875" lon="19.88997199572622776031494140625">
        <ele>1677.199951171875</ele>
        <time>2026-06-16T11:24:22.000Z</time>
        <extensions>
          <ns3:TrackPointExtension>
            <ns3:atemp>20.0</ns3:atemp>
          </ns3:TrackPointExtension>
        </extensions>
      </trkpt>
      <trkpt lat="42.62507314793765544891357421875" lon="19.88997199572622776031494140625">
        <ele>1677.199951171875</ele>
        <time>2026-06-16T11:24:23.000Z</time>
        <extensions>
          <ns3:TrackPointExtension>
            <ns3:atemp>20.0</ns3:atemp>
          </ns3:TrackPointExtension>
        </extensions>
      </trkpt>
      <trkpt lat="42.62507314793765544891357421875" lon="19.88997199572622776031494140625">
        <ele>1677.199951171875</ele>
        <time>2026-06-16T11:24:24.000Z</time>
        <extensions>
          <ns3:TrackPointExtension>
            <ns3:atemp>20.0</ns3:atemp>
          </ns3:TrackPointExtension>
        </extensions>
      </trkpt>
      <trkpt lat="42.62507314793765544891357421875" lon="19.88997199572622776031494140625">
        <ele>1677.199951171875</ele>
        <time>2026-06-16T11:24:25.000Z</time>
        <extensions>
          <ns3:TrackPointExtension>
            <ns3:atemp>20.0</ns3:atemp>
          </ns3:TrackPointExtension>
        </extensions>
      </trkpt>
      <trkpt lat="42.62507314793765544891357421875" lon="19.88997199572622776031494140625">
        <ele>1677.199951171875</ele>
        <time>2026-06-16T11:24:26.000Z</time>
        <extensions>
          <ns3:TrackPointExtension>
            <ns3:atemp>20.0</ns3:atemp>
          </ns3:TrackPointExtension>
        </extensions>
      </trkpt>
      <trkpt lat="42.62507314793765544891357421875" lon="19.889974929392337799072265625">
        <ele>1677.199951171875</ele>
        <time>2026-06-16T11:24:27.000Z</time>
        <extensions>
          <ns3:TrackPointExtension>
            <ns3:atemp>20.0</ns3:atemp>
          </ns3:TrackPointExtension>
        </extensions>
      </trkpt>
      <trkpt lat="42.62507314793765544891357421875" lon="19.88997199572622776031494140625">
        <ele>1677</ele>
        <time>2026-06-16T11:24:28.000Z</time>
        <extensions>
          <ns3:TrackPointExtension>
            <ns3:atemp>20.0</ns3:atemp>
          </ns3:TrackPointExtension>
        </extensions>
      </trkpt>
      <trkpt lat="42.62507314793765544891357421875" lon="19.88997199572622776031494140625">
        <ele>1677</ele>
        <time>2026-06-16T11:24:29.000Z</time>
        <extensions>
          <ns3:TrackPointExtension>
            <ns3:atemp>20.0</ns3:atemp>
          </ns3:TrackPointExtension>
        </extensions>
      </trkpt>
      <trkpt lat="42.62507314793765544891357421875" lon="19.88997199572622776031494140625">
        <ele>1677</ele>
        <time>2026-06-16T11:24:30.000Z</time>
        <extensions>
          <ns3:TrackPointExtension>
            <ns3:atemp>20.0</ns3:atemp>
          </ns3:TrackPointExtension>
        </extensions>
      </trkpt>
      <trkpt lat="42.62507314793765544891357421875" lon="19.88997199572622776031494140625">
        <ele>1676.800048828125</ele>
        <time>2026-06-16T11:24:31.000Z</time>
        <extensions>
          <ns3:TrackPointExtension>
            <ns3:atemp>20.0</ns3:atemp>
          </ns3:TrackPointExtension>
        </extensions>
      </trkpt>
      <trkpt lat="42.62507314793765544891357421875" lon="19.88997199572622776031494140625">
        <ele>1676.800048828125</ele>
        <time>2026-06-16T11:24:32.000Z</time>
        <extensions>
          <ns3:TrackPointExtension>
            <ns3:atemp>20.0</ns3:atemp>
          </ns3:TrackPointExtension>
        </extensions>
      </trkpt>
      <trkpt lat="42.62507298029959201812744140625" lon="19.88998758606612682342529296875">
        <ele>1676.800048828125</ele>
        <time>2026-06-16T11:24:33.000Z</time>
        <extensions>
          <ns3:TrackPointExtension>
            <ns3:atemp>20.0</ns3:atemp>
          </ns3:TrackPointExtension>
        </extensions>
      </trkpt>
      <trkpt lat="42.6250636763870716094970703125" lon="19.89000342786312103271484375">
        <ele>1676.5999755859375</ele>
        <time>2026-06-16T11:24:34.000Z</time>
        <extensions>
          <ns3:TrackPointExtension>
            <ns3:atemp>20.0</ns3:atemp>
          </ns3:TrackPointExtension>
        </extensions>
      </trkpt>
      <trkpt lat="42.6250519417226314544677734375" lon="19.8900180123746395111083984375">
        <ele>1676.5999755859375</ele>
        <time>2026-06-16T11:24:35.000Z</time>
        <extensions>
          <ns3:TrackPointExtension>
            <ns3:atemp>20.0</ns3:atemp>
          </ns3:TrackPointExtension>
        </extensions>
      </trkpt>
      <trkpt lat="42.625047080218791961669921875" lon="19.89002815447747707366943359375">
        <ele>1676.4000244140625</ele>
        <time>2026-06-16T11:24:36.000Z</time>
        <extensions>
          <ns3:TrackPointExtension>
            <ns3:atemp>20.0</ns3:atemp>
          </ns3:TrackPointExtension>
        </extensions>
      </trkpt>
      <trkpt lat="42.62504330836236476898193359375" lon="19.89004324190318584442138671875">
        <ele>1676</ele>
        <time>2026-06-16T11:24:37.000Z</time>
        <extensions>
          <ns3:TrackPointExtension>
            <ns3:atemp>20.0</ns3:atemp>
          </ns3:TrackPointExtension>
        </extensions>
      </trkpt>
      <trkpt lat="42.62503643520176410675048828125" lon="19.8900522105395793914794921875">
        <ele>1675.5999755859375</ele>
        <time>2026-06-16T11:24:38.000Z</time>
        <extensions>
          <ns3:TrackPointExtension>
            <ns3:atemp>20.0</ns3:atemp>
          </ns3:TrackPointExtension>
        </extensions>
      </trkpt>
      <trkpt lat="42.62503073550760746002197265625" lon="19.89006570540368556976318359375">
        <ele>1675.199951171875</ele>
        <time>2026-06-16T11:24:39.000Z</time>
        <extensions>
          <ns3:TrackPointExtension>
            <ns3:atemp>20.0</ns3:atemp>
          </ns3:TrackPointExtension>
        </extensions>
      </trkpt>
      <trkpt lat="42.62503040023148059844970703125" lon="19.89007995463907718658447265625">
        <ele>1674.800048828125</ele>
        <time>2026-06-16T11:24:40.000Z</time>
        <extensions>
          <ns3:TrackPointExtension>
            <ns3:atemp>20.0</ns3:atemp>
          </ns3:TrackPointExtension>
        </extensions>
      </trkpt>
      <trkpt lat="42.6250366866588592529296875" lon="19.8901014961302280426025390625">
        <ele>1674.4000244140625</ele>
        <time>2026-06-16T11:24:41.000Z</time>
        <extensions>
          <ns3:TrackPointExtension>
            <ns3:atemp>20.0</ns3:atemp>
          </ns3:TrackPointExtension>
        </extensions>
      </trkpt>
      <trkpt lat="42.625042386353015899658203125" lon="19.8901239596307277679443359375">
        <ele>1674</ele>
        <time>2026-06-16T11:24:42.000Z</time>
        <extensions>
          <ns3:TrackPointExtension>
            <ns3:atemp>20.0</ns3:atemp>
          </ns3:TrackPointExtension>
        </extensions>
      </trkpt>
      <trkpt lat="42.62504280544817447662353515625" lon="19.890144579112529754638671875">
        <ele>1673.5999755859375</ele>
        <time>2026-06-16T11:24:43.000Z</time>
        <extensions>
          <ns3:TrackPointExtension>
            <ns3:atemp>20.0</ns3:atemp>
          </ns3:TrackPointExtension>
        </extensions>
      </trkpt>
      <trkpt lat="42.625040709972381591796875" lon="19.89016327075660228729248046875">
        <ele>1673.199951171875</ele>
        <time>2026-06-16T11:24:44.000Z</time>
        <extensions>
          <ns3:TrackPointExtension>
            <ns3:atemp>20.0</ns3:atemp>
          </ns3:TrackPointExtension>
        </extensions>
      </trkpt>
      <trkpt lat="42.62503945268690586090087890625" lon="19.8901846446096897125244140625">
        <ele>1672.5999755859375</ele>
        <time>2026-06-16T11:24:45.000Z</time>
        <extensions>
          <ns3:TrackPointExtension>
            <ns3:atemp>20.0</ns3:atemp>
          </ns3:TrackPointExtension>
        </extensions>
      </trkpt>
      <trkpt lat="42.625044398009777069091796875" lon="19.890206269919872283935546875">
        <ele>1672.199951171875</ele>
        <time>2026-06-16T11:24:46.000Z</time>
        <extensions>
          <ns3:TrackPointExtension>
            <ns3:atemp>20.0</ns3:atemp>
          </ns3:TrackPointExtension>
        </extensions>
      </trkpt>
      <trkpt lat="42.6250435598194599151611328125" lon="19.89022311754524707794189453125">
        <ele>1671.5999755859375</ele>
        <time>2026-06-16T11:24:47.000Z</time>
        <extensions>
          <ns3:TrackPointExtension>
            <ns3:atemp>20.0</ns3:atemp>
          </ns3:TrackPointExtension>
        </extensions>
      </trkpt>
      <trkpt lat="42.62504196725785732269287109375" lon="19.89023937843739986419677734375">
        <ele>1671.199951171875</ele>
        <time>2026-06-16T11:24:48.000Z</time>
        <extensions>
          <ns3:TrackPointExtension>
            <ns3:atemp>20.0</ns3:atemp>
          </ns3:TrackPointExtension>
        </extensions>
      </trkpt>
      <trkpt lat="42.6250425539910793304443359375" lon="19.8902580700814723968505859375">
        <ele>1670.5999755859375</ele>
        <time>2026-06-16T11:24:49.000Z</time>
        <extensions>
          <ns3:TrackPointExtension>
            <ns3:atemp>20.0</ns3:atemp>
          </ns3:TrackPointExtension>
        </extensions>
      </trkpt>
      <trkpt lat="42.62504045851528644561767578125" lon="19.89026888273656368255615234375">
        <ele>1670.4000244140625</ele>
        <time>2026-06-16T11:24:50.000Z</time>
        <extensions>
          <ns3:TrackPointExtension>
            <ns3:atemp>20.0</ns3:atemp>
          </ns3:TrackPointExtension>
        </extensions>
      </trkpt>
      <trkpt lat="42.625035345554351806640625" lon="19.89027055911719799041748046875">
        <ele>1670.199951171875</ele>
        <time>2026-06-16T11:24:51.000Z</time>
        <extensions>
          <ns3:TrackPointExtension>
            <ns3:atemp>20.0</ns3:atemp>
          </ns3:TrackPointExtension>
        </extensions>
      </trkpt>
      <trkpt lat="42.625035345554351806640625" lon="19.89027055911719799041748046875">
        <ele>1670</ele>
        <time>2026-06-16T11:24:52.000Z</time>
        <extensions>
          <ns3:TrackPointExtension>
            <ns3:atemp>20.0</ns3:atemp>
          </ns3:TrackPointExtension>
        </extensions>
      </trkpt>
      <trkpt lat="42.625035345554351806640625" lon="19.89027055911719799041748046875">
        <ele>1669.800048828125</ele>
        <time>2026-06-16T11:24:53.000Z</time>
        <extensions>
          <ns3:TrackPointExtension>
            <ns3:atemp>20.0</ns3:atemp>
          </ns3:TrackPointExtension>
        </extensions>
      </trkpt>
      <trkpt lat="42.625035345554351806640625" lon="19.89027055911719799041748046875">
        <ele>1669.800048828125</ele>
        <time>2026-06-16T11:24:54.000Z</time>
        <extensions>
          <ns3:TrackPointExtension>
            <ns3:atemp>20.0</ns3:atemp>
          </ns3:TrackPointExtension>
        </extensions>
      </trkpt>
      <trkpt lat="42.625035345554351806640625" lon="19.89027055911719799041748046875">
        <ele>1669.5999755859375</ele>
        <time>2026-06-16T11:24:55.000Z</time>
        <extensions>
          <ns3:TrackPointExtension>
            <ns3:atemp>20.0</ns3:atemp>
          </ns3:TrackPointExtension>
        </extensions>
      </trkpt>
      <trkpt lat="42.625035345554351806640625" lon="19.89027055911719799041748046875">
        <ele>1669.5999755859375</ele>
        <time>2026-06-16T11:24:56.000Z</time>
        <extensions>
          <ns3:TrackPointExtension>
            <ns3:atemp>20.0</ns3:atemp>
          </ns3:TrackPointExtension>
        </extensions>
      </trkpt>
      <trkpt lat="42.625035345554351806640625" lon="19.89027055911719799041748046875">
        <ele>1669.5999755859375</ele>
        <time>2026-06-16T11:24:57.000Z</time>
        <extensions>
          <ns3:TrackPointExtension>
            <ns3:atemp>20.0</ns3:atemp>
          </ns3:TrackPointExtension>
        </extensions>
      </trkpt>
      <trkpt lat="42.625035345554351806640625" lon="19.89027055911719799041748046875">
        <ele>1669.5999755859375</ele>
        <time>2026-06-16T11:24:58.000Z</time>
        <extensions>
          <ns3:TrackPointExtension>
            <ns3:atemp>20.0</ns3:atemp>
          </ns3:TrackPointExtension>
        </extensions>
      </trkpt>
      <trkpt lat="42.625035345554351806640625" lon="19.89027055911719799041748046875">
        <ele>1669.4000244140625</ele>
        <time>2026-06-16T11:24:59.000Z</time>
        <extensions>
          <ns3:TrackPointExtension>
            <ns3:atemp>20.0</ns3:atemp>
          </ns3:TrackPointExtension>
        </extensions>
      </trkpt>
      <trkpt lat="42.625035345554351806640625" lon="19.89027055911719799041748046875">
        <ele>1669.4000244140625</ele>
        <time>2026-06-16T11:25:00.000Z</time>
        <extensions>
          <ns3:TrackPointExtension>
            <ns3:atemp>20.0</ns3:atemp>
          </ns3:TrackPointExtension>
        </extensions>
      </trkpt>
      <trkpt lat="42.625035345554351806640625" lon="19.89027055911719799041748046875">
        <ele>1669.4000244140625</ele>
        <time>2026-06-16T11:25:01.000Z</time>
        <extensions>
          <ns3:TrackPointExtension>
            <ns3:atemp>20.0</ns3:atemp>
          </ns3:TrackPointExtension>
        </extensions>
      </trkpt>
      <trkpt lat="42.625035345554351806640625" lon="19.89027055911719799041748046875">
        <ele>1669.4000244140625</ele>
        <time>2026-06-16T11:25:02.000Z</time>
        <extensions>
          <ns3:TrackPointExtension>
            <ns3:atemp>20.0</ns3:atemp>
          </ns3:TrackPointExtension>
        </extensions>
      </trkpt>
      <trkpt lat="42.625035345554351806640625" lon="19.89027055911719799041748046875">
        <ele>1669.4000244140625</ele>
        <time>2026-06-16T11:25:03.000Z</time>
        <extensions>
          <ns3:TrackPointExtension>
            <ns3:atemp>20.0</ns3:atemp>
          </ns3:TrackPointExtension>
        </extensions>
      </trkpt>
      <trkpt lat="42.6250288076698780059814453125" lon="19.89027407951653003692626953125">
        <ele>1669.199951171875</ele>
        <time>2026-06-16T11:25:04.000Z</time>
        <extensions>
          <ns3:TrackPointExtension>
            <ns3:atemp>20.0</ns3:atemp>
          </ns3:TrackPointExtension>
        </extensions>
      </trkpt>
      <trkpt lat="42.62501263059675693511962890625" lon="19.89029168151319026947021484375">
        <ele>1669.199951171875</ele>
        <time>2026-06-16T11:25:05.000Z</time>
        <extensions>
          <ns3:TrackPointExtension>
            <ns3:atemp>20.0</ns3:atemp>
          </ns3:TrackPointExtension>
        </extensions>
      </trkpt>
      <trkpt lat="42.62500458396971225738525390625" lon="19.89029251970350742340087890625">
        <ele>1669</ele>
        <time>2026-06-16T11:25:06.000Z</time>
        <extensions>
          <ns3:TrackPointExtension>
            <ns3:atemp>20.0</ns3:atemp>
          </ns3:TrackPointExtension>
        </extensions>
      </trkpt>
      <trkpt lat="42.62500273995101451873779296875" lon="19.89029134623706340789794921875">
        <ele>1668.800048828125</ele>
        <time>2026-06-16T11:25:07.000Z</time>
        <extensions>
          <ns3:TrackPointExtension>
            <ns3:atemp>20.0</ns3:atemp>
          </ns3:TrackPointExtension>
        </extensions>
      </trkpt>
      <trkpt lat="42.62500273995101451873779296875" lon="19.89029151387512683868408203125">
        <ele>1668.5999755859375</ele>
        <time>2026-06-16T11:25:08.000Z</time>
        <extensions>
          <ns3:TrackPointExtension>
            <ns3:atemp>20.0</ns3:atemp>
          </ns3:TrackPointExtension>
        </extensions>
      </trkpt>
      <trkpt lat="42.625002823770046234130859375" lon="19.89029168151319026947021484375">
        <ele>1668.4000244140625</ele>
        <time>2026-06-16T11:25:09.000Z</time>
        <extensions>
          <ns3:TrackPointExtension>
            <ns3:atemp>20.0</ns3:atemp>
          </ns3:TrackPointExtension>
        </extensions>
      </trkpt>
      <trkpt lat="42.625000812113285064697265625" lon="19.8903070203959941864013671875">
        <ele>1668.199951171875</ele>
        <time>2026-06-16T11:25:10.000Z</time>
        <extensions>
          <ns3:TrackPointExtension>
            <ns3:atemp>20.0</ns3:atemp>
          </ns3:TrackPointExtension>
        </extensions>
      </trkpt>
      <trkpt lat="42.6249889098107814788818359375" lon="19.8903127200901508331298828125">
        <ele>1668</ele>
        <time>2026-06-16T11:25:11.000Z</time>
        <extensions>
          <ns3:TrackPointExtension>
            <ns3:atemp>20.0</ns3:atemp>
          </ns3:TrackPointExtension>
        </extensions>
      </trkpt>
      <trkpt lat="42.62496870942413806915283203125" lon="19.89031950943171977996826171875">
        <ele>1667.800048828125</ele>
        <time>2026-06-16T11:25:12.000Z</time>
        <extensions>
          <ns3:TrackPointExtension>
            <ns3:atemp>20.0</ns3:atemp>
          </ns3:TrackPointExtension>
        </extensions>
      </trkpt>
      <trkpt lat="42.624949179589748382568359375" lon="19.89033157937228679656982421875">
        <ele>1667.5999755859375</ele>
        <time>2026-06-16T11:25:13.000Z</time>
        <extensions>
          <ns3:TrackPointExtension>
            <ns3:atemp>20.0</ns3:atemp>
          </ns3:TrackPointExtension>
        </extensions>
      </trkpt>
      <trkpt lat="42.6249423064291477203369140625" lon="19.890340380370616912841796875">
        <ele>1667.199951171875</ele>
        <time>2026-06-16T11:25:14.000Z</time>
        <extensions>
          <ns3:TrackPointExtension>
            <ns3:atemp>20.0</ns3:atemp>
          </ns3:TrackPointExtension>
        </extensions>
      </trkpt>
      <trkpt lat="42.62493551708757877349853515625" lon="19.8903563059866428375244140625">
        <ele>1666.800048828125</ele>
        <time>2026-06-16T11:25:15.000Z</time>
        <extensions>
          <ns3:TrackPointExtension>
            <ns3:atemp>20.0</ns3:atemp>
          </ns3:TrackPointExtension>
        </extensions>
      </trkpt>
      <trkpt lat="42.624928057193756103515625" lon="19.8903697170317173004150390625">
        <ele>1666.5999755859375</ele>
        <time>2026-06-16T11:25:16.000Z</time>
        <extensions>
          <ns3:TrackPointExtension>
            <ns3:atemp>20.0</ns3:atemp>
          </ns3:TrackPointExtension>
        </extensions>
      </trkpt>
      <trkpt lat="42.62491607107222080230712890625" lon="19.89038237370550632476806640625">
        <ele>1666.4000244140625</ele>
        <time>2026-06-16T11:25:17.000Z</time>
        <extensions>
          <ns3:TrackPointExtension>
            <ns3:atemp>20.0</ns3:atemp>
          </ns3:TrackPointExtension>
        </extensions>
      </trkpt>
      <trkpt lat="42.62490651570260524749755859375" lon="19.890390336513519287109375">
        <ele>1666.199951171875</ele>
        <time>2026-06-16T11:25:18.000Z</time>
        <extensions>
          <ns3:TrackPointExtension>
            <ns3:atemp>20.0</ns3:atemp>
          </ns3:TrackPointExtension>
        </extensions>
      </trkpt>
      <trkpt lat="42.624896876513957977294921875" lon="19.8904029093682765960693359375">
        <ele>1666</ele>
        <time>2026-06-16T11:25:19.000Z</time>
        <extensions>
          <ns3:TrackPointExtension>
            <ns3:atemp>20.0</ns3:atemp>
          </ns3:TrackPointExtension>
        </extensions>
      </trkpt>
      <trkpt lat="42.62488623149693012237548828125" lon="19.8904163204133510589599609375">
        <ele>1665.800048828125</ele>
        <time>2026-06-16T11:25:20.000Z</time>
        <extensions>
          <ns3:TrackPointExtension>
            <ns3:atemp>20.0</ns3:atemp>
          </ns3:TrackPointExtension>
        </extensions>
      </trkpt>
      <trkpt lat="42.6248784363269805908203125" lon="19.890433251857757568359375">
        <ele>1665.800048828125</ele>
        <time>2026-06-16T11:25:21.000Z</time>
        <extensions>
          <ns3:TrackPointExtension>
            <ns3:atemp>20.0</ns3:atemp>
          </ns3:TrackPointExtension>
        </extensions>
      </trkpt>
      <trkpt lat="42.62487131170928478240966796875" lon="19.8904350958764553070068359375">
        <ele>1665.800048828125</ele>
        <time>2026-06-16T11:25:22.000Z</time>
        <extensions>
          <ns3:TrackPointExtension>
            <ns3:atemp>20.0</ns3:atemp>
          </ns3:TrackPointExtension>
        </extensions>
      </trkpt>
      <trkpt lat="42.62486678548157215118408203125" lon="19.89043970592319965362548828125">
        <ele>1665.800048828125</ele>
        <time>2026-06-16T11:25:23.000Z</time>
        <extensions>
          <ns3:TrackPointExtension>
            <ns3:atemp>20.0</ns3:atemp>
          </ns3:TrackPointExtension>
        </extensions>
      </trkpt>
      <trkpt lat="42.624858319759368896484375" lon="19.89044423215091228485107421875">
        <ele>1665.5999755859375</ele>
        <time>2026-06-16T11:25:24.000Z</time>
        <extensions>
          <ns3:TrackPointExtension>
            <ns3:atemp>20.0</ns3:atemp>
          </ns3:TrackPointExtension>
        </extensions>
      </trkpt>
      <trkpt lat="42.6248504407703876495361328125" lon="19.89044842310249805450439453125">
        <ele>1665.800048828125</ele>
        <time>2026-06-16T11:25:25.000Z</time>
        <extensions>
          <ns3:TrackPointExtension>
            <ns3:atemp>20.0</ns3:atemp>
          </ns3:TrackPointExtension>
        </extensions>
      </trkpt>
      <trkpt lat="42.62484767474234104156494140625" lon="19.890446998178958892822265625">
        <ele>1665.800048828125</ele>
        <time>2026-06-16T11:25:26.000Z</time>
        <extensions>
          <ns3:TrackPointExtension>
            <ns3:atemp>20.0</ns3:atemp>
          </ns3:TrackPointExtension>
        </extensions>
      </trkpt>
      <trkpt lat="42.62484733946621417999267578125" lon="19.890449009835720062255859375">
        <ele>1665.800048828125</ele>
        <time>2026-06-16T11:25:27.000Z</time>
        <extensions>
          <ns3:TrackPointExtension>
            <ns3:atemp>20.0</ns3:atemp>
          </ns3:TrackPointExtension>
        </extensions>
      </trkpt>
      <trkpt lat="42.624847255647182464599609375" lon="19.8904488421976566314697265625">
        <ele>1665.800048828125</ele>
        <time>2026-06-16T11:25:28.000Z</time>
        <extensions>
          <ns3:TrackPointExtension>
            <ns3:atemp>20.0</ns3:atemp>
          </ns3:TrackPointExtension>
        </extensions>
      </trkpt>
      <trkpt lat="42.624847255647182464599609375" lon="19.8904488421976566314697265625">
        <ele>1666</ele>
        <time>2026-06-16T11:25:29.000Z</time>
        <extensions>
          <ns3:TrackPointExtension>
            <ns3:atemp>20.0</ns3:atemp>
          </ns3:TrackPointExtension>
        </extensions>
      </trkpt>
      <trkpt lat="42.624847255647182464599609375" lon="19.8904488421976566314697265625">
        <ele>1666</ele>
        <time>2026-06-16T11:25:30.000Z</time>
        <extensions>
          <ns3:TrackPointExtension>
            <ns3:atemp>20.0</ns3:atemp>
          </ns3:TrackPointExtension>
        </extensions>
      </trkpt>
      <trkpt lat="42.624847255647182464599609375" lon="19.8904488421976566314697265625">
        <ele>1666</ele>
        <time>2026-06-16T11:25:31.000Z</time>
        <extensions>
          <ns3:TrackPointExtension>
            <ns3:atemp>20.0</ns3:atemp>
          </ns3:TrackPointExtension>
        </extensions>
      </trkpt>
      <trkpt lat="42.624847255647182464599609375" lon="19.8904488421976566314697265625">
        <ele>1666</ele>
        <time>2026-06-16T11:25:32.000Z</time>
        <extensions>
          <ns3:TrackPointExtension>
            <ns3:atemp>20.0</ns3:atemp>
          </ns3:TrackPointExtension>
        </extensions>
      </trkpt>
      <trkpt lat="42.624847255647182464599609375" lon="19.8904488421976566314697265625">
        <ele>1666</ele>
        <time>2026-06-16T11:25:33.000Z</time>
        <extensions>
          <ns3:TrackPointExtension>
            <ns3:atemp>20.0</ns3:atemp>
          </ns3:TrackPointExtension>
        </extensions>
      </trkpt>
      <trkpt lat="42.624847255647182464599609375" lon="19.8904488421976566314697265625">
        <ele>1666</ele>
        <time>2026-06-16T11:25:34.000Z</time>
        <extensions>
          <ns3:TrackPointExtension>
            <ns3:atemp>20.0</ns3:atemp>
          </ns3:TrackPointExtension>
        </extensions>
      </trkpt>
      <trkpt lat="42.624847255647182464599609375" lon="19.8904488421976566314697265625">
        <ele>1666</ele>
        <time>2026-06-16T11:25:35.000Z</time>
        <extensions>
          <ns3:TrackPointExtension>
            <ns3:atemp>20.0</ns3:atemp>
          </ns3:TrackPointExtension>
        </extensions>
      </trkpt>
      <trkpt lat="42.62484683655202388763427734375" lon="19.890448339283466339111328125">
        <ele>1666</ele>
        <time>2026-06-16T11:25:36.000Z</time>
        <extensions>
          <ns3:TrackPointExtension>
            <ns3:atemp>20.0</ns3:atemp>
          </ns3:TrackPointExtension>
        </extensions>
      </trkpt>
      <trkpt lat="42.62483878992497920989990234375" lon="19.8904532007873058319091796875">
        <ele>1666</ele>
        <time>2026-06-16T11:25:37.000Z</time>
        <extensions>
          <ns3:TrackPointExtension>
            <ns3:atemp>20.0</ns3:atemp>
          </ns3:TrackPointExtension>
        </extensions>
      </trkpt>
      <trkpt lat="42.624836862087249755859375" lon="19.89044842310249805450439453125">
        <ele>1666</ele>
        <time>2026-06-16T11:25:38.000Z</time>
        <extensions>
          <ns3:TrackPointExtension>
            <ns3:atemp>20.0</ns3:atemp>
          </ns3:TrackPointExtension>
        </extensions>
      </trkpt>
      <trkpt lat="42.6248274743556976318359375" lon="19.890453033149242401123046875">
        <ele>1666</ele>
        <time>2026-06-16T11:25:39.000Z</time>
        <extensions>
          <ns3:TrackPointExtension>
            <ns3:atemp>20.0</ns3:atemp>
          </ns3:TrackPointExtension>
        </extensions>
      </trkpt>
      <trkpt lat="42.6248263008892536163330078125" lon="19.8904662765562534332275390625">
        <ele>1666</ele>
        <time>2026-06-16T11:25:40.000Z</time>
        <extensions>
          <ns3:TrackPointExtension>
            <ns3:atemp>20.0</ns3:atemp>
          </ns3:TrackPointExtension>
        </extensions>
      </trkpt>
      <trkpt lat="42.62481900863349437713623046875" lon="19.89048413001000881195068359375">
        <ele>1666</ele>
        <time>2026-06-16T11:25:41.000Z</time>
        <extensions>
          <ns3:TrackPointExtension>
            <ns3:atemp>20.0</ns3:atemp>
          </ns3:TrackPointExtension>
        </extensions>
      </trkpt>
      <trkpt lat="42.6248128898441791534423828125" lon="19.89049293100833892822265625">
        <ele>1665.800048828125</ele>
        <time>2026-06-16T11:25:42.000Z</time>
        <extensions>
          <ns3:TrackPointExtension>
            <ns3:atemp>20.0</ns3:atemp>
          </ns3:TrackPointExtension>
        </extensions>
      </trkpt>
      <trkpt lat="42.62481330893933773040771484375" lon="19.89049552939832210540771484375">
        <ele>1665.800048828125</ele>
        <time>2026-06-16T11:25:43.000Z</time>
        <extensions>
          <ns3:TrackPointExtension>
            <ns3:atemp>20.0</ns3:atemp>
          </ns3:TrackPointExtension>
        </extensions>
      </trkpt>
      <trkpt lat="42.6248142309486865997314453125" lon="19.89049293100833892822265625">
        <ele>1666</ele>
        <time>2026-06-16T11:25:44.000Z</time>
        <extensions>
          <ns3:TrackPointExtension>
            <ns3:atemp>20.0</ns3:atemp>
          </ns3:TrackPointExtension>
        </extensions>
      </trkpt>
      <trkpt lat="42.62481045909225940704345703125" lon="19.8905011452734470367431640625">
        <ele>1666</ele>
        <time>2026-06-16T11:25:45.000Z</time>
        <extensions>
          <ns3:TrackPointExtension>
            <ns3:atemp>20.0</ns3:atemp>
          </ns3:TrackPointExtension>
        </extensions>
      </trkpt>
      <trkpt lat="42.624801658093929290771484375" lon="19.89051514305174350738525390625">
        <ele>1666</ele>
        <time>2026-06-16T11:25:46.000Z</time>
        <extensions>
          <ns3:TrackPointExtension>
            <ns3:atemp>20.0</ns3:atemp>
          </ns3:TrackPointExtension>
        </extensions>
      </trkpt>
      <trkpt lat="42.62479620985686779022216796875" lon="19.8905363492667675018310546875">
        <ele>1665.800048828125</ele>
        <time>2026-06-16T11:25:47.000Z</time>
        <extensions>
          <ns3:TrackPointExtension>
            <ns3:atemp>20.0</ns3:atemp>
          </ns3:TrackPointExtension>
        </extensions>
      </trkpt>
      <trkpt lat="42.62479327619075775146484375" lon="19.89056727848947048187255859375">
        <ele>1665.5999755859375</ele>
        <time>2026-06-16T11:25:48.000Z</time>
        <extensions>
          <ns3:TrackPointExtension>
            <ns3:atemp>20.0</ns3:atemp>
          </ns3:TrackPointExtension>
        </extensions>
      </trkpt>
      <trkpt lat="42.62479520402848720550537109375" lon="19.8905946873128414154052734375">
        <ele>1665.4000244140625</ele>
        <time>2026-06-16T11:25:49.000Z</time>
        <extensions>
          <ns3:TrackPointExtension>
            <ns3:atemp>20.0</ns3:atemp>
          </ns3:TrackPointExtension>
        </extensions>
      </trkpt>
      <trkpt lat="42.6247790269553661346435546875" lon="19.89062779583036899566650390625">
        <ele>1665</ele>
        <time>2026-06-16T11:25:50.000Z</time>
        <extensions>
          <ns3:TrackPointExtension>
            <ns3:atemp>20.0</ns3:atemp>
          </ns3:TrackPointExtension>
        </extensions>
      </trkpt>
      <trkpt lat="42.62475840747356414794921875" lon="19.8906654305756092071533203125">
        <ele>1664.4000244140625</ele>
        <time>2026-06-16T11:25:51.000Z</time>
        <extensions>
          <ns3:TrackPointExtension>
            <ns3:atemp>20.0</ns3:atemp>
          </ns3:TrackPointExtension>
        </extensions>
      </trkpt>
      <trkpt lat="42.62474575079977512359619140625" lon="19.89070507697761058807373046875">
        <ele>1663.800048828125</ele>
        <time>2026-06-16T11:25:52.000Z</time>
        <extensions>
          <ns3:TrackPointExtension>
            <ns3:atemp>20.0</ns3:atemp>
          </ns3:TrackPointExtension>
        </extensions>
      </trkpt>
      <trkpt lat="42.6247327588498592376708984375" lon="19.890743382275104522705078125">
        <ele>1663.199951171875</ele>
        <time>2026-06-16T11:25:53.000Z</time>
        <extensions>
          <ns3:TrackPointExtension>
            <ns3:atemp>20.0</ns3:atemp>
          </ns3:TrackPointExtension>
        </extensions>
      </trkpt>
      <trkpt lat="42.62472085654735565185546875" lon="19.89078068174421787261962890625">
        <ele>1662.800048828125</ele>
        <time>2026-06-16T11:25:54.000Z</time>
        <extensions>
          <ns3:TrackPointExtension>
            <ns3:atemp>20.0</ns3:atemp>
          </ns3:TrackPointExtension>
        </extensions>
      </trkpt>
      <trkpt lat="42.62470618821680545806884765625" lon="19.8907955177128314971923828125">
        <ele>1662.4000244140625</ele>
        <time>2026-06-16T11:25:55.000Z</time>
        <extensions>
          <ns3:TrackPointExtension>
            <ns3:atemp>20.0</ns3:atemp>
          </ns3:TrackPointExtension>
        </extensions>
      </trkpt>
      <trkpt lat="42.62469110079109668731689453125" lon="19.8908089287579059600830078125">
        <ele>1662</ele>
        <time>2026-06-16T11:25:56.000Z</time>
        <extensions>
          <ns3:TrackPointExtension>
            <ns3:atemp>20.0</ns3:atemp>
          </ns3:TrackPointExtension>
        </extensions>
      </trkpt>
      <trkpt lat="42.62468473054468631744384765625" lon="19.8908132873475551605224609375">
        <ele>1661.800048828125</ele>
        <time>2026-06-16T11:25:57.000Z</time>
        <extensions>
          <ns3:TrackPointExtension>
            <ns3:atemp>20.0</ns3:atemp>
          </ns3:TrackPointExtension>
        </extensions>
      </trkpt>
      <trkpt lat="42.6246781088411808013916015625" lon="19.89082091487944126129150390625">
        <ele>1661.5999755859375</ele>
        <time>2026-06-16T11:25:58.000Z</time>
        <extensions>
          <ns3:TrackPointExtension>
            <ns3:atemp>20.0</ns3:atemp>
          </ns3:TrackPointExtension>
        </extensions>
      </trkpt>
      <trkpt lat="42.624669559299945831298828125" lon="19.890829883515834808349609375">
        <ele>1661.5999755859375</ele>
        <time>2026-06-16T11:25:59.000Z</time>
        <extensions>
          <ns3:TrackPointExtension>
            <ns3:atemp>20.0</ns3:atemp>
          </ns3:TrackPointExtension>
        </extensions>
      </trkpt>
      <trkpt lat="42.62466025538742542266845703125" lon="19.89083801396191120147705078125">
        <ele>1661.5999755859375</ele>
        <time>2026-06-16T11:26:00.000Z</time>
        <extensions>
          <ns3:TrackPointExtension>
            <ns3:atemp>19.0</ns3:atemp>
          </ns3:TrackPointExtension>
        </extensions>
      </trkpt>
      <trkpt lat="42.6246516220271587371826171875" lon="19.89084941335022449493408203125">
        <ele>1661.4000244140625</ele>
        <time>2026-06-16T11:26:01.000Z</time>
        <extensions>
          <ns3:TrackPointExtension>
            <ns3:atemp>19.0</ns3:atemp>
          </ns3:TrackPointExtension>
        </extensions>
      </trkpt>
      <trkpt lat="42.62464617379009723663330078125" lon="19.8908558674156665802001953125">
        <ele>1661.4000244140625</ele>
        <time>2026-06-16T11:26:02.000Z</time>
        <extensions>
          <ns3:TrackPointExtension>
            <ns3:atemp>19.0</ns3:atemp>
          </ns3:TrackPointExtension>
        </extensions>
      </trkpt>
      <trkpt lat="42.6246424019336700439453125" lon="19.89085905253887176513671875">
        <ele>1661.4000244140625</ele>
        <time>2026-06-16T11:26:03.000Z</time>
        <extensions>
          <ns3:TrackPointExtension>
            <ns3:atemp>19.0</ns3:atemp>
          </ns3:TrackPointExtension>
        </extensions>
      </trkpt>
      <trkpt lat="42.6246424019336700439453125" lon="19.8908592201769351959228515625">
        <ele>1661.4000244140625</ele>
        <time>2026-06-16T11:26:04.000Z</time>
        <extensions>
          <ns3:TrackPointExtension>
            <ns3:atemp>19.0</ns3:atemp>
          </ns3:TrackPointExtension>
        </extensions>
      </trkpt>
      <trkpt lat="42.6246424019336700439453125" lon="19.8908592201769351959228515625">
        <ele>1661.4000244140625</ele>
        <time>2026-06-16T11:26:05.000Z</time>
        <extensions>
          <ns3:TrackPointExtension>
            <ns3:atemp>19.0</ns3:atemp>
          </ns3:TrackPointExtension>
        </extensions>
      </trkpt>
      <trkpt lat="42.6246422342956066131591796875" lon="19.89085947163403034210205078125">
        <ele>1661.4000244140625</ele>
        <time>2026-06-16T11:26:06.000Z</time>
        <extensions>
          <ns3:TrackPointExtension>
            <ns3:atemp>20.0</ns3:atemp>
          </ns3:TrackPointExtension>
        </extensions>
      </trkpt>
      <trkpt lat="42.62463762424886226654052734375" lon="19.89087472669780254364013671875">
        <ele>1661.199951171875</ele>
        <time>2026-06-16T11:26:07.000Z</time>
        <extensions>
          <ns3:TrackPointExtension>
            <ns3:atemp>19.0</ns3:atemp>
          </ns3:TrackPointExtension>
        </extensions>
      </trkpt>
      <trkpt lat="42.6246424019336700439453125" lon="19.8908592201769351959228515625">
        <ele>1661.199951171875</ele>
        <time>2026-06-16T11:26:08.000Z</time>
        <extensions>
          <ns3:TrackPointExtension>
            <ns3:atemp>19.0</ns3:atemp>
          </ns3:TrackPointExtension>
        </extensions>
      </trkpt>
      <trkpt lat="42.6246424019336700439453125" lon="19.8908592201769351959228515625">
        <ele>1661.4000244140625</ele>
        <time>2026-06-16T11:26:09.000Z</time>
        <extensions>
          <ns3:TrackPointExtension>
            <ns3:atemp>19.0</ns3:atemp>
          </ns3:TrackPointExtension>
        </extensions>
      </trkpt>
      <trkpt lat="42.6246424019336700439453125" lon="19.8908592201769351959228515625">
        <ele>1661.4000244140625</ele>
        <time>2026-06-16T11:26:10.000Z</time>
        <extensions>
          <ns3:TrackPointExtension>
            <ns3:atemp>19.0</ns3:atemp>
          </ns3:TrackPointExtension>
        </extensions>
      </trkpt>
      <trkpt lat="42.62463502585887908935546875" lon="19.89087204448878765106201171875">
        <ele>1661.4000244140625</ele>
        <time>2026-06-16T11:26:11.000Z</time>
        <extensions>
          <ns3:TrackPointExtension>
            <ns3:atemp>19.0</ns3:atemp>
          </ns3:TrackPointExtension>
        </extensions>
      </trkpt>
      <trkpt lat="42.624627649784088134765625" lon="19.89088880829513072967529296875">
        <ele>1661.4000244140625</ele>
        <time>2026-06-16T11:26:12.000Z</time>
        <extensions>
          <ns3:TrackPointExtension>
            <ns3:atemp>19.0</ns3:atemp>
          </ns3:TrackPointExtension>
        </extensions>
      </trkpt>
      <trkpt lat="42.624619267880916595458984375" lon="19.89090356044471263885498046875">
        <ele>1661.4000244140625</ele>
        <time>2026-06-16T11:26:13.000Z</time>
        <extensions>
          <ns3:TrackPointExtension>
            <ns3:atemp>19.0</ns3:atemp>
          </ns3:TrackPointExtension>
        </extensions>
      </trkpt>
      <trkpt lat="42.62461314909160137176513671875" lon="19.890921413898468017578125">
        <ele>1661.5999755859375</ele>
        <time>2026-06-16T11:26:14.000Z</time>
        <extensions>
          <ns3:TrackPointExtension>
            <ns3:atemp>19.0</ns3:atemp>
          </ns3:TrackPointExtension>
        </extensions>
      </trkpt>
      <trkpt lat="42.62460510246455669403076171875" lon="19.89093591459095478057861328125">
        <ele>1661.5999755859375</ele>
        <time>2026-06-16T11:26:15.000Z</time>
        <extensions>
          <ns3:TrackPointExtension>
            <ns3:atemp>19.0</ns3:atemp>
          </ns3:TrackPointExtension>
        </extensions>
      </trkpt>
      <trkpt lat="42.62459688819944858551025390625" lon="19.890953265130519866943359375">
        <ele>1661.5999755859375</ele>
        <time>2026-06-16T11:26:16.000Z</time>
        <extensions>
          <ns3:TrackPointExtension>
            <ns3:atemp>19.0</ns3:atemp>
          </ns3:TrackPointExtension>
        </extensions>
      </trkpt>
      <trkpt lat="42.62458934448659420013427734375" lon="19.89097028039395809173583984375">
        <ele>1661.800048828125</ele>
        <time>2026-06-16T11:26:17.000Z</time>
        <extensions>
          <ns3:TrackPointExtension>
            <ns3:atemp>19.0</ns3:atemp>
          </ns3:TrackPointExtension>
        </extensions>
      </trkpt>
      <trkpt lat="42.62458138167858123779296875" lon="19.89098670892417430877685546875">
        <ele>1662</ele>
        <time>2026-06-16T11:26:18.000Z</time>
        <extensions>
          <ns3:TrackPointExtension>
            <ns3:atemp>19.0</ns3:atemp>
          </ns3:TrackPointExtension>
        </extensions>
      </trkpt>
      <trkpt lat="42.62457492761313915252685546875" lon="19.89101336337625980377197265625">
        <ele>1662.199951171875</ele>
        <time>2026-06-16T11:26:19.000Z</time>
        <extensions>
          <ns3:TrackPointExtension>
            <ns3:atemp>20.0</ns3:atemp>
          </ns3:TrackPointExtension>
        </extensions>
      </trkpt>
      <trkpt lat="42.6245654560625553131103515625" lon="19.8910369165241718292236328125">
        <ele>1662.4000244140625</ele>
        <time>2026-06-16T11:26:20.000Z</time>
        <extensions>
          <ns3:TrackPointExtension>
            <ns3:atemp>20.0</ns3:atemp>
          </ns3:TrackPointExtension>
        </extensions>
      </trkpt>
      <trkpt lat="42.62455187737941741943359375" lon="19.891062565147876739501953125">
        <ele>1662.5999755859375</ele>
        <time>2026-06-16T11:26:21.000Z</time>
        <extensions>
          <ns3:TrackPointExtension>
            <ns3:atemp>19.0</ns3:atemp>
          </ns3:TrackPointExtension>
        </extensions>
      </trkpt>
      <trkpt lat="42.62454123236238956451416015625" lon="19.89108041860163211822509765625">
        <ele>1662.800048828125</ele>
        <time>2026-06-16T11:26:22.000Z</time>
        <extensions>
          <ns3:TrackPointExtension>
            <ns3:atemp>19.0</ns3:atemp>
          </ns3:TrackPointExtension>
        </extensions>
      </trkpt>
      <trkpt lat="42.624531090259552001953125" lon="19.891104809939861297607421875">
        <ele>1662.800048828125</ele>
        <time>2026-06-16T11:26:23.000Z</time>
        <extensions>
          <ns3:TrackPointExtension>
            <ns3:atemp>20.0</ns3:atemp>
          </ns3:TrackPointExtension>
        </extensions>
      </trkpt>
      <trkpt lat="42.62452195398509502410888671875" lon="19.89111922681331634521484375">
        <ele>1663</ele>
        <time>2026-06-16T11:26:24.000Z</time>
        <extensions>
          <ns3:TrackPointExtension>
            <ns3:atemp>19.0</ns3:atemp>
          </ns3:TrackPointExtension>
        </extensions>
      </trkpt>
      <trkpt lat="42.62451340444386005401611328125" lon="19.89113573916256427764892578125">
        <ele>1663</ele>
        <time>2026-06-16T11:26:25.000Z</time>
        <extensions>
          <ns3:TrackPointExtension>
            <ns3:atemp>19.0</ns3:atemp>
          </ns3:TrackPointExtension>
        </extensions>
      </trkpt>
      <trkpt lat="42.6245051063597202301025390625" lon="19.89115434698760509490966796875">
        <ele>1663.199951171875</ele>
        <time>2026-06-16T11:26:26.000Z</time>
        <extensions>
          <ns3:TrackPointExtension>
            <ns3:atemp>19.0</ns3:atemp>
          </ns3:TrackPointExtension>
        </extensions>
      </trkpt>
      <trkpt lat="42.624493204057216644287109375" lon="19.8911864496767520904541015625">
        <ele>1663.199951171875</ele>
        <time>2026-06-16T11:26:27.000Z</time>
        <extensions>
          <ns3:TrackPointExtension>
            <ns3:atemp>19.0</ns3:atemp>
          </ns3:TrackPointExtension>
        </extensions>
      </trkpt>
      <trkpt lat="42.62447786517441272735595703125" lon="19.89120966754853725433349609375">
        <ele>1663</ele>
        <time>2026-06-16T11:26:28.000Z</time>
        <extensions>
          <ns3:TrackPointExtension>
            <ns3:atemp>19.0</ns3:atemp>
          </ns3:TrackPointExtension>
        </extensions>
      </trkpt>
      <trkpt lat="42.6244554854929447174072265625" lon="19.89124151878058910369873046875">
        <ele>1662.800048828125</ele>
        <time>2026-06-16T11:26:29.000Z</time>
        <extensions>
          <ns3:TrackPointExtension>
            <ns3:atemp>19.0</ns3:atemp>
          </ns3:TrackPointExtension>
        </extensions>
      </trkpt>
      <trkpt lat="42.6244358718395233154296875" lon="19.89127018488943576812744140625">
        <ele>1662.5999755859375</ele>
        <time>2026-06-16T11:26:30.000Z</time>
        <extensions>
          <ns3:TrackPointExtension>
            <ns3:atemp>19.0</ns3:atemp>
          </ns3:TrackPointExtension>
        </extensions>
      </trkpt>
      <trkpt lat="42.62441642582416534423828125" lon="19.8912991024553775787353515625">
        <ele>1662.5999755859375</ele>
        <time>2026-06-16T11:26:31.000Z</time>
        <extensions>
          <ns3:TrackPointExtension>
            <ns3:atemp>19.0</ns3:atemp>
          </ns3:TrackPointExtension>
        </extensions>
      </trkpt>
      <trkpt lat="42.62440309859812259674072265625" lon="19.89132634364068508148193359375">
        <ele>1662.4000244140625</ele>
        <time>2026-06-16T11:26:32.000Z</time>
        <extensions>
          <ns3:TrackPointExtension>
            <ns3:atemp>19.0</ns3:atemp>
          </ns3:TrackPointExtension>
        </extensions>
      </trkpt>
      <trkpt lat="42.624386250972747802734375" lon="19.8913611285388469696044921875">
        <ele>1662.199951171875</ele>
        <time>2026-06-16T11:26:33.000Z</time>
        <extensions>
          <ns3:TrackPointExtension>
            <ns3:atemp>19.0</ns3:atemp>
          </ns3:TrackPointExtension>
        </extensions>
      </trkpt>
      <trkpt lat="42.6243676431477069854736328125" lon="19.891386441886425018310546875">
        <ele>1662</ele>
        <time>2026-06-16T11:26:34.000Z</time>
        <extensions>
          <ns3:TrackPointExtension>
            <ns3:atemp>19.0</ns3:atemp>
          </ns3:TrackPointExtension>
        </extensions>
      </trkpt>
      <trkpt lat="42.62435012497007846832275390625" lon="19.89140882156789302825927734375">
        <ele>1662</ele>
        <time>2026-06-16T11:26:35.000Z</time>
        <extensions>
          <ns3:TrackPointExtension>
            <ns3:atemp>19.0</ns3:atemp>
          </ns3:TrackPointExtension>
        </extensions>
      </trkpt>
      <trkpt lat="42.624336294829845428466796875" lon="19.89143262617290019989013671875">
        <ele>1661.800048828125</ele>
        <time>2026-06-16T11:26:36.000Z</time>
        <extensions>
          <ns3:TrackPointExtension>
            <ns3:atemp>19.0</ns3:atemp>
          </ns3:TrackPointExtension>
        </extensions>
      </trkpt>
      <trkpt lat="42.62432791292667388916015625" lon="19.89144737832248210906982421875">
        <ele>1661.800048828125</ele>
        <time>2026-06-16T11:26:37.000Z</time>
        <extensions>
          <ns3:TrackPointExtension>
            <ns3:atemp>19.0</ns3:atemp>
          </ns3:TrackPointExtension>
        </extensions>
      </trkpt>
      <trkpt lat="42.6243173517286777496337890625" lon="19.89146414212882518768310546875">
        <ele>1661.800048828125</ele>
        <time>2026-06-16T11:26:38.000Z</time>
        <extensions>
          <ns3:TrackPointExtension>
            <ns3:atemp>19.0</ns3:atemp>
          </ns3:TrackPointExtension>
        </extensions>
      </trkpt>
      <trkpt lat="42.62430368922650814056396484375" lon="19.89148241467773914337158203125">
        <ele>1661.800048828125</ele>
        <time>2026-06-16T11:26:39.000Z</time>
        <extensions>
          <ns3:TrackPointExtension>
            <ns3:atemp>19.0</ns3:atemp>
          </ns3:TrackPointExtension>
        </extensions>
      </trkpt>
      <trkpt lat="42.6242881827056407928466796875" lon="19.89149733446538448333740234375">
        <ele>1661.800048828125</ele>
        <time>2026-06-16T11:26:40.000Z</time>
        <extensions>
          <ns3:TrackPointExtension>
            <ns3:atemp>20.0</ns3:atemp>
          </ns3:TrackPointExtension>
        </extensions>
      </trkpt>
      <trkpt lat="42.624273262917995452880859375" lon="19.89151627756655216217041015625">
        <ele>1661.800048828125</ele>
        <time>2026-06-16T11:26:41.000Z</time>
        <extensions>
          <ns3:TrackPointExtension>
            <ns3:atemp>20.0</ns3:atemp>
          </ns3:TrackPointExtension>
        </extensions>
      </trkpt>
      <trkpt lat="42.624261192977428436279296875" lon="19.891538321971893310546875">
        <ele>1661.800048828125</ele>
        <time>2026-06-16T11:26:42.000Z</time>
        <extensions>
          <ns3:TrackPointExtension>
            <ns3:atemp>20.0</ns3:atemp>
          </ns3:TrackPointExtension>
        </extensions>
      </trkpt>
      <trkpt lat="42.6242435909807682037353515625" lon="19.8915572650730609893798828125">
        <ele>1661.800048828125</ele>
        <time>2026-06-16T11:26:43.000Z</time>
        <extensions>
          <ns3:TrackPointExtension>
            <ns3:atemp>19.0</ns3:atemp>
          </ns3:TrackPointExtension>
        </extensions>
      </trkpt>
      <trkpt lat="42.62422422878444194793701171875" lon="19.89157788455486297607421875">
        <ele>1661.800048828125</ele>
        <time>2026-06-16T11:26:44.000Z</time>
        <extensions>
          <ns3:TrackPointExtension>
            <ns3:atemp>20.0</ns3:atemp>
          </ns3:TrackPointExtension>
        </extensions>
      </trkpt>
      <trkpt lat="42.62420897372066974639892578125" lon="19.89159624092280864715576171875">
        <ele>1662</ele>
        <time>2026-06-16T11:26:45.000Z</time>
        <extensions>
          <ns3:TrackPointExtension>
            <ns3:atemp>20.0</ns3:atemp>
          </ns3:TrackPointExtension>
        </extensions>
      </trkpt>
      <trkpt lat="42.62419606558978557586669921875" lon="19.8916166089475154876708984375">
        <ele>1662</ele>
        <time>2026-06-16T11:26:46.000Z</time>
        <extensions>
          <ns3:TrackPointExtension>
            <ns3:atemp>19.0</ns3:atemp>
          </ns3:TrackPointExtension>
        </extensions>
      </trkpt>
      <trkpt lat="42.6241832412779331207275390625" lon="19.891642592847347259521484375">
        <ele>1662</ele>
        <time>2026-06-16T11:26:47.000Z</time>
        <extensions>
          <ns3:TrackPointExtension>
            <ns3:atemp>19.0</ns3:atemp>
          </ns3:TrackPointExtension>
        </extensions>
      </trkpt>
      <trkpt lat="42.62416371144354343414306640625" lon="19.89166765473783016204833984375">
        <ele>1661.800048828125</ele>
        <time>2026-06-16T11:26:48.000Z</time>
        <extensions>
          <ns3:TrackPointExtension>
            <ns3:atemp>19.0</ns3:atemp>
          </ns3:TrackPointExtension>
        </extensions>
      </trkpt>
      <trkpt lat="42.624143846333026885986328125" lon="19.89168475382030010223388671875">
        <ele>1661.800048828125</ele>
        <time>2026-06-16T11:26:49.000Z</time>
        <extensions>
          <ns3:TrackPointExtension>
            <ns3:atemp>19.0</ns3:atemp>
          </ns3:TrackPointExtension>
        </extensions>
      </trkpt>
      <trkpt lat="42.62412649579346179962158203125" lon="19.8917101509869098663330078125">
        <ele>1661.5999755859375</ele>
        <time>2026-06-16T11:26:50.000Z</time>
        <extensions>
          <ns3:TrackPointExtension>
            <ns3:atemp>19.0</ns3:atemp>
          </ns3:TrackPointExtension>
        </extensions>
      </trkpt>
      <trkpt lat="42.6241094805300235748291015625" lon="19.89173454232513904571533203125">
        <ele>1661.4000244140625</ele>
        <time>2026-06-16T11:26:51.000Z</time>
        <extensions>
          <ns3:TrackPointExtension>
            <ns3:atemp>19.0</ns3:atemp>
          </ns3:TrackPointExtension>
        </extensions>
      </trkpt>
      <trkpt lat="42.62409531511366367340087890625" lon="19.89176689647138118743896484375">
        <ele>1661.199951171875</ele>
        <time>2026-06-16T11:26:52.000Z</time>
        <extensions>
          <ns3:TrackPointExtension>
            <ns3:atemp>19.0</ns3:atemp>
          </ns3:TrackPointExtension>
        </extensions>
      </trkpt>
      <trkpt lat="42.62407100759446620941162109375" lon="19.8917998373508453369140625">
        <ele>1661</ele>
        <time>2026-06-16T11:26:53.000Z</time>
        <extensions>
          <ns3:TrackPointExtension>
            <ns3:atemp>19.0</ns3:atemp>
          </ns3:TrackPointExtension>
        </extensions>
      </trkpt>
      <trkpt lat="42.62404636479914188385009765625" lon="19.89182674326002597808837890625">
        <ele>1660.800048828125</ele>
        <time>2026-06-16T11:26:54.000Z</time>
        <extensions>
          <ns3:TrackPointExtension>
            <ns3:atemp>19.0</ns3:atemp>
          </ns3:TrackPointExtension>
        </extensions>
      </trkpt>
      <trkpt lat="42.62401753105223178863525390625" lon="19.89185658283531665802001953125">
        <ele>1660.5999755859375</ele>
        <time>2026-06-16T11:26:55.000Z</time>
        <extensions>
          <ns3:TrackPointExtension>
            <ns3:atemp>19.0</ns3:atemp>
          </ns3:TrackPointExtension>
        </extensions>
      </trkpt>
      <trkpt lat="42.62398484162986278533935546875" lon="19.891883991658687591552734375">
        <ele>1660.4000244140625</ele>
        <time>2026-06-16T11:26:56.000Z</time>
        <extensions>
          <ns3:TrackPointExtension>
            <ns3:atemp>19.0</ns3:atemp>
          </ns3:TrackPointExtension>
        </extensions>
      </trkpt>
      <trkpt lat="42.6239576004445552825927734375" lon="19.89191592670977115631103515625">
        <ele>1660.199951171875</ele>
        <time>2026-06-16T11:26:57.000Z</time>
        <extensions>
          <ns3:TrackPointExtension>
            <ns3:atemp>20.0</ns3:atemp>
          </ns3:TrackPointExtension>
        </extensions>
      </trkpt>
      <trkpt lat="42.623939327895641326904296875" lon="19.89195113070309162139892578125">
        <ele>1660</ele>
        <time>2026-06-16T11:26:58.000Z</time>
        <extensions>
          <ns3:TrackPointExtension>
            <ns3:atemp>20.0</ns3:atemp>
          </ns3:TrackPointExtension>
        </extensions>
      </trkpt>
      <trkpt lat="42.62391761876642704010009765625" lon="19.89197879098355770111083984375">
        <ele>1660</ele>
        <time>2026-06-16T11:26:59.000Z</time>
        <extensions>
          <ns3:TrackPointExtension>
            <ns3:atemp>19.0</ns3:atemp>
          </ns3:TrackPointExtension>
        </extensions>
      </trkpt>
      <trkpt lat="42.62389515526592731475830078125" lon="19.8919974826276302337646484375">
        <ele>1659.800048828125</ele>
        <time>2026-06-16T11:27:00.000Z</time>
        <extensions>
          <ns3:TrackPointExtension>
            <ns3:atemp>20.0</ns3:atemp>
          </ns3:TrackPointExtension>
        </extensions>
      </trkpt>
      <trkpt lat="42.62387721799314022064208984375" lon="19.89202153868973255157470703125">
        <ele>1659.800048828125</ele>
        <time>2026-06-16T11:27:01.000Z</time>
        <extensions>
          <ns3:TrackPointExtension>
            <ns3:atemp>20.0</ns3:atemp>
          </ns3:TrackPointExtension>
        </extensions>
      </trkpt>
      <trkpt lat="42.623860538005828857421875" lon="19.89204190671443939208984375">
        <ele>1659.800048828125</ele>
        <time>2026-06-16T11:27:02.000Z</time>
        <extensions>
          <ns3:TrackPointExtension>
            <ns3:atemp>20.0</ns3:atemp>
          </ns3:TrackPointExtension>
        </extensions>
      </trkpt>
      <trkpt lat="42.6238404214382171630859375" lon="19.89206110127270221710205078125">
        <ele>1659.800048828125</ele>
        <time>2026-06-16T11:27:03.000Z</time>
        <extensions>
          <ns3:TrackPointExtension>
            <ns3:atemp>19.0</ns3:atemp>
          </ns3:TrackPointExtension>
        </extensions>
      </trkpt>
      <trkpt lat="42.62381988577544689178466796875" lon="19.89208071492612361907958984375">
        <ele>1659.800048828125</ele>
        <time>2026-06-16T11:27:04.000Z</time>
        <extensions>
          <ns3:TrackPointExtension>
            <ns3:atemp>20.0</ns3:atemp>
          </ns3:TrackPointExtension>
        </extensions>
      </trkpt>
      <trkpt lat="42.6238037087023258209228515625" lon="19.8920930363237857818603515625">
        <ele>1660</ele>
        <time>2026-06-16T11:27:05.000Z</time>
        <extensions>
          <ns3:TrackPointExtension>
            <ns3:atemp>20.0</ns3:atemp>
          </ns3:TrackPointExtension>
        </extensions>
      </trkpt>
      <trkpt lat="42.62379222549498081207275390625" lon="19.8921051062643527984619140625">
        <ele>1660</ele>
        <time>2026-06-16T11:27:06.000Z</time>
        <extensions>
          <ns3:TrackPointExtension>
            <ns3:atemp>20.0</ns3:atemp>
          </ns3:TrackPointExtension>
        </extensions>
      </trkpt>
      <trkpt lat="42.623785436153411865234375" lon="19.89211290143430233001708984375">
        <ele>1660</ele>
        <time>2026-06-16T11:27:07.000Z</time>
        <extensions>
          <ns3:TrackPointExtension>
            <ns3:atemp>20.0</ns3:atemp>
          </ns3:TrackPointExtension>
        </extensions>
      </trkpt>
      <trkpt lat="42.62377445586025714874267578125" lon="19.89212396554648876190185546875">
        <ele>1660.199951171875</ele>
        <time>2026-06-16T11:27:08.000Z</time>
        <extensions>
          <ns3:TrackPointExtension>
            <ns3:atemp>20.0</ns3:atemp>
          </ns3:TrackPointExtension>
        </extensions>
      </trkpt>
      <trkpt lat="42.623758614063262939453125" lon="19.89214207045733928680419921875">
        <ele>1660.199951171875</ele>
        <time>2026-06-16T11:27:09.000Z</time>
        <extensions>
          <ns3:TrackPointExtension>
            <ns3:atemp>20.0</ns3:atemp>
          </ns3:TrackPointExtension>
        </extensions>
      </trkpt>
      <trkpt lat="42.6237463764846324920654296875" lon="19.8921513743698596954345703125">
        <ele>1660</ele>
        <time>2026-06-16T11:27:10.000Z</time>
        <extensions>
          <ns3:TrackPointExtension>
            <ns3:atemp>20.0</ns3:atemp>
          </ns3:TrackPointExtension>
        </extensions>
      </trkpt>
      <trkpt lat="42.6237304508686065673828125" lon="19.8921651206910610198974609375">
        <ele>1660</ele>
        <time>2026-06-16T11:27:11.000Z</time>
        <extensions>
          <ns3:TrackPointExtension>
            <ns3:atemp>20.0</ns3:atemp>
          </ns3:TrackPointExtension>
        </extensions>
      </trkpt>
      <trkpt lat="42.62371100485324859619140625" lon="19.892170988023281097412109375">
        <ele>1660</ele>
        <time>2026-06-16T11:27:12.000Z</time>
        <extensions>
          <ns3:TrackPointExtension>
            <ns3:atemp>20.0</ns3:atemp>
          </ns3:TrackPointExtension>
        </extensions>
      </trkpt>
      <trkpt lat="42.6236994378268718719482421875" lon="19.8921781964600086212158203125">
        <ele>1660</ele>
        <time>2026-06-16T11:27:13.000Z</time>
        <extensions>
          <ns3:TrackPointExtension>
            <ns3:atemp>20.0</ns3:atemp>
          </ns3:TrackPointExtension>
        </extensions>
      </trkpt>
      <trkpt lat="42.6236923970282077789306640625" lon="19.8921916075050830841064453125">
        <ele>1660</ele>
        <time>2026-06-16T11:27:14.000Z</time>
        <extensions>
          <ns3:TrackPointExtension>
            <ns3:atemp>20.0</ns3:atemp>
          </ns3:TrackPointExtension>
        </extensions>
      </trkpt>
      <trkpt lat="42.62368896044790744781494140625" lon="19.8922130651772022247314453125">
        <ele>1660</ele>
        <time>2026-06-16T11:27:15.000Z</time>
        <extensions>
          <ns3:TrackPointExtension>
            <ns3:atemp>20.0</ns3:atemp>
          </ns3:TrackPointExtension>
        </extensions>
      </trkpt>
      <trkpt lat="42.62367672286927700042724609375" lon="19.8922335170209407806396484375">
        <ele>1660</ele>
        <time>2026-06-16T11:27:16.000Z</time>
        <extensions>
          <ns3:TrackPointExtension>
            <ns3:atemp>19.0</ns3:atemp>
          </ns3:TrackPointExtension>
        </extensions>
      </trkpt>
      <trkpt lat="42.6236607134342193603515625" lon="19.89225338213145732879638671875">
        <ele>1659.800048828125</ele>
        <time>2026-06-16T11:27:17.000Z</time>
        <extensions>
          <ns3:TrackPointExtension>
            <ns3:atemp>20.0</ns3:atemp>
          </ns3:TrackPointExtension>
        </extensions>
      </trkpt>
      <trkpt lat="42.62363716028630733489990234375" lon="19.89228774793446063995361328125">
        <ele>1659.5999755859375</ele>
        <time>2026-06-16T11:27:18.000Z</time>
        <extensions>
          <ns3:TrackPointExtension>
            <ns3:atemp>20.0</ns3:atemp>
          </ns3:TrackPointExtension>
        </extensions>
      </trkpt>
      <trkpt lat="42.62360966764390468597412109375" lon="19.89233435131609439849853515625">
        <ele>1659.4000244140625</ele>
        <time>2026-06-16T11:27:19.000Z</time>
        <extensions>
          <ns3:TrackPointExtension>
            <ns3:atemp>19.0</ns3:atemp>
          </ns3:TrackPointExtension>
        </extensions>
      </trkpt>
      <trkpt lat="42.62357614003121852874755859375" lon="19.89238598383963108062744140625">
        <ele>1659</ele>
        <time>2026-06-16T11:27:20.000Z</time>
        <extensions>
          <ns3:TrackPointExtension>
            <ns3:atemp>19.0</ns3:atemp>
          </ns3:TrackPointExtension>
        </extensions>
      </trkpt>
      <trkpt lat="42.6235475577414035797119140625" lon="19.89243459887802600860595703125">
        <ele>1658.800048828125</ele>
        <time>2026-06-16T11:27:21.000Z</time>
        <extensions>
          <ns3:TrackPointExtension>
            <ns3:atemp>19.0</ns3:atemp>
          </ns3:TrackPointExtension>
        </extensions>
      </trkpt>
      <trkpt lat="42.62352216057479381561279296875" lon="19.89246142096817493438720703125">
        <ele>1658.4000244140625</ele>
        <time>2026-06-16T11:27:22.000Z</time>
        <extensions>
          <ns3:TrackPointExtension>
            <ns3:atemp>19.0</ns3:atemp>
          </ns3:TrackPointExtension>
        </extensions>
      </trkpt>
      <trkpt lat="42.6235039718449115753173828125" lon="19.8924838006496429443359375">
        <ele>1658.199951171875</ele>
        <time>2026-06-16T11:27:23.000Z</time>
        <extensions>
          <ns3:TrackPointExtension>
            <ns3:atemp>19.0</ns3:atemp>
          </ns3:TrackPointExtension>
        </extensions>
      </trkpt>
      <trkpt lat="42.62348662130534648895263671875" lon="19.89250685088336467742919921875">
        <ele>1658</ele>
        <time>2026-06-16T11:27:24.000Z</time>
        <extensions>
          <ns3:TrackPointExtension>
            <ns3:atemp>19.0</ns3:atemp>
          </ns3:TrackPointExtension>
        </extensions>
      </trkpt>
      <trkpt lat="42.62347438372671604156494140625" lon="19.89251456223428249359130859375">
        <ele>1657.5999755859375</ele>
        <time>2026-06-16T11:27:25.000Z</time>
        <extensions>
          <ns3:TrackPointExtension>
            <ns3:atemp>19.0</ns3:atemp>
          </ns3:TrackPointExtension>
        </extensions>
      </trkpt>
      <trkpt lat="42.62345594353973865509033203125" lon="19.89252344705164432525634765625">
        <ele>1657.4000244140625</ele>
        <time>2026-06-16T11:27:26.000Z</time>
        <extensions>
          <ns3:TrackPointExtension>
            <ns3:atemp>19.0</ns3:atemp>
          </ns3:TrackPointExtension>
        </extensions>
      </trkpt>
      <trkpt lat="42.6234352402389049530029296875" lon="19.8925322480499744415283203125">
        <ele>1657</ele>
        <time>2026-06-16T11:27:27.000Z</time>
        <extensions>
          <ns3:TrackPointExtension>
            <ns3:atemp>20.0</ns3:atemp>
          </ns3:TrackPointExtension>
        </extensions>
      </trkpt>
      <trkpt lat="42.6234164647758007049560546875" lon="19.89254482090473175048828125">
        <ele>1656.800048828125</ele>
        <time>2026-06-16T11:27:28.000Z</time>
        <extensions>
          <ns3:TrackPointExtension>
            <ns3:atemp>19.0</ns3:atemp>
          </ns3:TrackPointExtension>
        </extensions>
      </trkpt>
      <trkpt lat="42.6233960129320621490478515625" lon="19.89256200380623340606689453125">
        <ele>1656.4000244140625</ele>
        <time>2026-06-16T11:27:29.000Z</time>
        <extensions>
          <ns3:TrackPointExtension>
            <ns3:atemp>19.0</ns3:atemp>
          </ns3:TrackPointExtension>
        </extensions>
      </trkpt>
      <trkpt lat="42.62337933294475078582763671875" lon="19.89257960580289363861083984375">
        <ele>1656.199951171875</ele>
        <time>2026-06-16T11:27:30.000Z</time>
        <extensions>
          <ns3:TrackPointExtension>
            <ns3:atemp>19.0</ns3:atemp>
          </ns3:TrackPointExtension>
        </extensions>
      </trkpt>
      <trkpt lat="42.62335435487329959869384765625" lon="19.89259184338152408599853515625">
        <ele>1656.199951171875</ele>
        <time>2026-06-16T11:27:31.000Z</time>
        <extensions>
          <ns3:TrackPointExtension>
            <ns3:atemp>19.0</ns3:atemp>
          </ns3:TrackPointExtension>
        </extensions>
      </trkpt>
      <trkpt lat="42.62333281338214874267578125" lon="19.89260927774012088775634765625">
        <ele>1656.199951171875</ele>
        <time>2026-06-16T11:27:32.000Z</time>
        <extensions>
          <ns3:TrackPointExtension>
            <ns3:atemp>19.0</ns3:atemp>
          </ns3:TrackPointExtension>
        </extensions>
      </trkpt>
      <trkpt lat="42.62331177480518817901611328125" lon="19.89263157360255718231201171875">
        <ele>1656.199951171875</ele>
        <time>2026-06-16T11:27:33.000Z</time>
        <extensions>
          <ns3:TrackPointExtension>
            <ns3:atemp>19.0</ns3:atemp>
          </ns3:TrackPointExtension>
        </extensions>
      </trkpt>
      <trkpt lat="42.62329031713306903839111328125" lon="19.89265236072242259979248046875">
        <ele>1656.199951171875</ele>
        <time>2026-06-16T11:27:34.000Z</time>
        <extensions>
          <ns3:TrackPointExtension>
            <ns3:atemp>19.0</ns3:atemp>
          </ns3:TrackPointExtension>
        </extensions>
      </trkpt>
      <trkpt lat="42.623271457850933074951171875" lon="19.892663843929767608642578125">
        <ele>1656.199951171875</ele>
        <time>2026-06-16T11:27:35.000Z</time>
        <extensions>
          <ns3:TrackPointExtension>
            <ns3:atemp>19.0</ns3:atemp>
          </ns3:TrackPointExtension>
        </extensions>
      </trkpt>
      <trkpt lat="42.62326081283390522003173828125" lon="19.89266744814813137054443359375">
        <ele>1656.199951171875</ele>
        <time>2026-06-16T11:27:36.000Z</time>
        <extensions>
          <ns3:TrackPointExtension>
            <ns3:atemp>19.0</ns3:atemp>
          </ns3:TrackPointExtension>
        </extensions>
      </trkpt>
      <trkpt lat="42.6232448033988475799560546875" lon="19.89267348311841487884521484375">
        <ele>1656.199951171875</ele>
        <time>2026-06-16T11:27:37.000Z</time>
        <extensions>
          <ns3:TrackPointExtension>
            <ns3:atemp>19.0</ns3:atemp>
          </ns3:TrackPointExtension>
        </extensions>
      </trkpt>
      <trkpt lat="42.6232280395925045013427734375" lon="19.89268505014479160308837890625">
        <ele>1656.199951171875</ele>
        <time>2026-06-16T11:27:38.000Z</time>
        <extensions>
          <ns3:TrackPointExtension>
            <ns3:atemp>19.0</ns3:atemp>
          </ns3:TrackPointExtension>
        </extensions>
      </trkpt>
      <trkpt lat="42.62320633046329021453857421875" lon="19.8926904983818531036376953125">
        <ele>1656.199951171875</ele>
        <time>2026-06-16T11:27:39.000Z</time>
        <extensions>
          <ns3:TrackPointExtension>
            <ns3:atemp>19.0</ns3:atemp>
          </ns3:TrackPointExtension>
        </extensions>
      </trkpt>
      <trkpt lat="42.6231861300766468048095703125" lon="19.8927032388746738433837890625">
        <ele>1656.4000244140625</ele>
        <time>2026-06-16T11:27:40.000Z</time>
        <extensions>
          <ns3:TrackPointExtension>
            <ns3:atemp>19.0</ns3:atemp>
          </ns3:TrackPointExtension>
        </extensions>
      </trkpt>
      <trkpt lat="42.62316475622355937957763671875" lon="19.89271488972008228302001953125">
        <ele>1656.4000244140625</ele>
        <time>2026-06-16T11:27:41.000Z</time>
        <extensions>
          <ns3:TrackPointExtension>
            <ns3:atemp>19.0</ns3:atemp>
          </ns3:TrackPointExtension>
        </extensions>
      </trkpt>
      <trkpt lat="42.62314514257013797760009765625" lon="19.8927200026810169219970703125">
        <ele>1656.5999755859375</ele>
        <time>2026-06-16T11:27:42.000Z</time>
        <extensions>
          <ns3:TrackPointExtension>
            <ns3:atemp>19.0</ns3:atemp>
          </ns3:TrackPointExtension>
        </extensions>
      </trkpt>
      <trkpt lat="42.62312854640185832977294921875" lon="19.8927293904125690460205078125">
        <ele>1656.5999755859375</ele>
        <time>2026-06-16T11:27:43.000Z</time>
        <extensions>
          <ns3:TrackPointExtension>
            <ns3:atemp>19.0</ns3:atemp>
          </ns3:TrackPointExtension>
        </extensions>
      </trkpt>
      <trkpt lat="42.6231108605861663818359375" lon="19.89273970015347003936767578125">
        <ele>1656.800048828125</ele>
        <time>2026-06-16T11:27:44.000Z</time>
        <extensions>
          <ns3:TrackPointExtension>
            <ns3:atemp>19.0</ns3:atemp>
          </ns3:TrackPointExtension>
        </extensions>
      </trkpt>
      <trkpt lat="42.62309518642723560333251953125" lon="19.892749004065990447998046875">
        <ele>1657</ele>
        <time>2026-06-16T11:27:45.000Z</time>
        <extensions>
          <ns3:TrackPointExtension>
            <ns3:atemp>19.0</ns3:atemp>
          </ns3:TrackPointExtension>
        </extensions>
      </trkpt>
      <trkpt lat="42.62307926081120967864990234375" lon="19.89276585169136524200439453125">
        <ele>1657.199951171875</ele>
        <time>2026-06-16T11:27:46.000Z</time>
        <extensions>
          <ns3:TrackPointExtension>
            <ns3:atemp>19.0</ns3:atemp>
          </ns3:TrackPointExtension>
        </extensions>
      </trkpt>
      <trkpt lat="42.62305914424359798431396484375" lon="19.89278915338218212127685546875">
        <ele>1657.199951171875</ele>
        <time>2026-06-16T11:27:47.000Z</time>
        <extensions>
          <ns3:TrackPointExtension>
            <ns3:atemp>19.0</ns3:atemp>
          </ns3:TrackPointExtension>
        </extensions>
      </trkpt>
      <trkpt lat="42.6230275444686412811279296875" lon="19.8928056657314300537109375">
        <ele>1657</ele>
        <time>2026-06-16T11:27:48.000Z</time>
        <extensions>
          <ns3:TrackPointExtension>
            <ns3:atemp>19.0</ns3:atemp>
          </ns3:TrackPointExtension>
        </extensions>
      </trkpt>
      <trkpt lat="42.6230035722255706787109375" lon="19.89281564019620418548583984375">
        <ele>1657</ele>
        <time>2026-06-16T11:27:49.000Z</time>
        <extensions>
          <ns3:TrackPointExtension>
            <ns3:atemp>19.0</ns3:atemp>
          </ns3:TrackPointExtension>
        </extensions>
      </trkpt>
      <trkpt lat="42.6229836232960224151611328125" lon="19.89283139817416667938232421875">
        <ele>1657</ele>
        <time>2026-06-16T11:27:50.000Z</time>
        <extensions>
          <ns3:TrackPointExtension>
            <ns3:atemp>19.0</ns3:atemp>
          </ns3:TrackPointExtension>
        </extensions>
      </trkpt>
      <trkpt lat="42.62297113426029682159423828125" lon="19.89284849725663661956787109375">
        <ele>1656.800048828125</ele>
        <time>2026-06-16T11:27:51.000Z</time>
        <extensions>
          <ns3:TrackPointExtension>
            <ns3:atemp>19.0</ns3:atemp>
          </ns3:TrackPointExtension>
        </extensions>
      </trkpt>
      <trkpt lat="42.62295772321522235870361328125" lon="19.89286391995847225189208984375">
        <ele>1657</ele>
        <time>2026-06-16T11:27:52.000Z</time>
        <extensions>
          <ns3:TrackPointExtension>
            <ns3:atemp>19.0</ns3:atemp>
          </ns3:TrackPointExtension>
        </extensions>
      </trkpt>
      <trkpt lat="42.62294657528400421142578125" lon="19.89289090968668460845947265625">
        <ele>1657</ele>
        <time>2026-06-16T11:27:53.000Z</time>
        <extensions>
          <ns3:TrackPointExtension>
            <ns3:atemp>19.0</ns3:atemp>
          </ns3:TrackPointExtension>
        </extensions>
      </trkpt>
      <trkpt lat="42.6229338347911834716796875" lon="19.8929151333868503570556640625">
        <ele>1657.199951171875</ele>
        <time>2026-06-16T11:27:54.000Z</time>
        <extensions>
          <ns3:TrackPointExtension>
            <ns3:atemp>19.0</ns3:atemp>
          </ns3:TrackPointExtension>
        </extensions>
      </trkpt>
      <trkpt lat="42.62291899882256984710693359375" lon="19.8929370939731597900390625">
        <ele>1657.4000244140625</ele>
        <time>2026-06-16T11:27:55.000Z</time>
        <extensions>
          <ns3:TrackPointExtension>
            <ns3:atemp>19.0</ns3:atemp>
          </ns3:TrackPointExtension>
        </extensions>
      </trkpt>
      <trkpt lat="42.62289720587432384490966796875" lon="19.89295729435980319976806640625">
        <ele>1657.5999755859375</ele>
        <time>2026-06-16T11:27:56.000Z</time>
        <extensions>
          <ns3:TrackPointExtension>
            <ns3:atemp>19.0</ns3:atemp>
          </ns3:TrackPointExtension>
        </extensions>
      </trkpt>
      <trkpt lat="42.62288086116313934326171875" lon="19.892969615757465362548828125">
        <ele>1657.800048828125</ele>
        <time>2026-06-16T11:27:57.000Z</time>
        <extensions>
          <ns3:TrackPointExtension>
            <ns3:atemp>19.0</ns3:atemp>
          </ns3:TrackPointExtension>
        </extensions>
      </trkpt>
      <trkpt lat="42.62286066077649593353271484375" lon="19.89297942258417606353759765625">
        <ele>1658</ele>
        <time>2026-06-16T11:27:58.000Z</time>
        <extensions>
          <ns3:TrackPointExtension>
            <ns3:atemp>19.0</ns3:atemp>
          </ns3:TrackPointExtension>
        </extensions>
      </trkpt>
      <trkpt lat="42.6228454895317554473876953125" lon="19.8929905705153942108154296875">
        <ele>1658.199951171875</ele>
        <time>2026-06-16T11:27:59.000Z</time>
        <extensions>
          <ns3:TrackPointExtension>
            <ns3:atemp>19.0</ns3:atemp>
          </ns3:TrackPointExtension>
        </extensions>
      </trkpt>
      <trkpt lat="42.62283501215279102325439453125" lon="19.89300574176013469696044921875">
        <ele>1658.4000244140625</ele>
        <time>2026-06-16T11:28:00.000Z</time>
        <extensions>
          <ns3:TrackPointExtension>
            <ns3:atemp>19.0</ns3:atemp>
          </ns3:TrackPointExtension>
        </extensions>
      </trkpt>
      <trkpt lat="42.6228225231170654296875" lon="19.893024265766143798828125">
        <ele>1658.5999755859375</ele>
        <time>2026-06-16T11:28:01.000Z</time>
        <extensions>
          <ns3:TrackPointExtension>
            <ns3:atemp>19.0</ns3:atemp>
          </ns3:TrackPointExtension>
        </extensions>
      </trkpt>
      <trkpt lat="42.62280953116714954376220703125" lon="19.893035329878330230712890625">
        <ele>1658.800048828125</ele>
        <time>2026-06-16T11:28:02.000Z</time>
        <extensions>
          <ns3:TrackPointExtension>
            <ns3:atemp>19.0</ns3:atemp>
          </ns3:TrackPointExtension>
        </extensions>
      </trkpt>
      <trkpt lat="42.6227945275604724884033203125" lon="19.89304597489535808563232421875">
        <ele>1659</ele>
        <time>2026-06-16T11:28:03.000Z</time>
        <extensions>
          <ns3:TrackPointExtension>
            <ns3:atemp>19.0</ns3:atemp>
          </ns3:TrackPointExtension>
        </extensions>
      </trkpt>
      <trkpt lat="42.62278027832508087158203125" lon="19.8930582962930202484130859375">
        <ele>1659.199951171875</ele>
        <time>2026-06-16T11:28:04.000Z</time>
        <extensions>
          <ns3:TrackPointExtension>
            <ns3:atemp>19.0</ns3:atemp>
          </ns3:TrackPointExtension>
        </extensions>
      </trkpt>
      <trkpt lat="42.62276560999453067779541015625" lon="19.89307145588099956512451171875">
        <ele>1659.5999755859375</ele>
        <time>2026-06-16T11:28:05.000Z</time>
        <extensions>
          <ns3:TrackPointExtension>
            <ns3:atemp>19.0</ns3:atemp>
          </ns3:TrackPointExtension>
        </extensions>
      </trkpt>
      <trkpt lat="42.622753791511058807373046875" lon="19.89308671094477176666259765625">
        <ele>1659.800048828125</ele>
        <time>2026-06-16T11:28:06.000Z</time>
        <extensions>
          <ns3:TrackPointExtension>
            <ns3:atemp>19.0</ns3:atemp>
          </ns3:TrackPointExtension>
        </extensions>
      </trkpt>
      <trkpt lat="42.6227380335330963134765625" lon="19.8931062407791614532470703125">
        <ele>1659.800048828125</ele>
        <time>2026-06-16T11:28:07.000Z</time>
        <extensions>
          <ns3:TrackPointExtension>
            <ns3:atemp>19.0</ns3:atemp>
          </ns3:TrackPointExtension>
        </extensions>
      </trkpt>
      <trkpt lat="42.622712887823581695556640625" lon="19.8931236751377582550048828125">
        <ele>1660</ele>
        <time>2026-06-16T11:28:08.000Z</time>
        <extensions>
          <ns3:TrackPointExtension>
            <ns3:atemp>19.0</ns3:atemp>
          </ns3:TrackPointExtension>
        </extensions>
      </trkpt>
      <trkpt lat="42.62269101105630397796630859375" lon="19.89314421080052852630615234375">
        <ele>1660</ele>
        <time>2026-06-16T11:28:09.000Z</time>
        <extensions>
          <ns3:TrackPointExtension>
            <ns3:atemp>19.0</ns3:atemp>
          </ns3:TrackPointExtension>
        </extensions>
      </trkpt>
      <trkpt lat="42.62266653589904308319091796875" lon="19.89318427629768848419189453125">
        <ele>1660</ele>
        <time>2026-06-16T11:28:10.000Z</time>
        <extensions>
          <ns3:TrackPointExtension>
            <ns3:atemp>19.0</ns3:atemp>
          </ns3:TrackPointExtension>
        </extensions>
      </trkpt>
      <trkpt lat="42.622642815113067626953125" lon="19.89321579225361347198486328125">
        <ele>1660</ele>
        <time>2026-06-16T11:28:11.000Z</time>
        <extensions>
          <ns3:TrackPointExtension>
            <ns3:atemp>19.0</ns3:atemp>
          </ns3:TrackPointExtension>
        </extensions>
      </trkpt>
      <trkpt lat="42.62262403964996337890625" lon="19.8932437039911746978759765625">
        <ele>1659.800048828125</ele>
        <time>2026-06-16T11:28:12.000Z</time>
        <extensions>
          <ns3:TrackPointExtension>
            <ns3:atemp>19.0</ns3:atemp>
          </ns3:TrackPointExtension>
        </extensions>
      </trkpt>
      <trkpt lat="42.6226092875003814697265625" lon="19.8932651616632938385009765625">
        <ele>1659.800048828125</ele>
        <time>2026-06-16T11:28:13.000Z</time>
        <extensions>
          <ns3:TrackPointExtension>
            <ns3:atemp>19.0</ns3:atemp>
          </ns3:TrackPointExtension>
        </extensions>
      </trkpt>
      <trkpt lat="42.6225960440933704376220703125" lon="19.89328620024025440216064453125">
        <ele>1659.800048828125</ele>
        <time>2026-06-16T11:28:14.000Z</time>
        <extensions>
          <ns3:TrackPointExtension>
            <ns3:atemp>19.0</ns3:atemp>
          </ns3:TrackPointExtension>
        </extensions>
      </trkpt>
      <trkpt lat="42.6225853152573108673095703125" lon="19.8933000303804874420166015625">
        <ele>1659.5999755859375</ele>
        <time>2026-06-16T11:28:15.000Z</time>
        <extensions>
          <ns3:TrackPointExtension>
            <ns3:atemp>19.0</ns3:atemp>
          </ns3:TrackPointExtension>
        </extensions>
      </trkpt>
      <trkpt lat="42.62257752008736133575439453125" lon="19.89330246113240718841552734375">
        <ele>1659.5999755859375</ele>
        <time>2026-06-16T11:28:16.000Z</time>
        <extensions>
          <ns3:TrackPointExtension>
            <ns3:atemp>19.0</ns3:atemp>
          </ns3:TrackPointExtension>
        </extensions>
      </trkpt>
      <trkpt lat="42.622577436268329620361328125" lon="19.8933023773133754730224609375">
        <ele>1659.5999755859375</ele>
        <time>2026-06-16T11:28:17.000Z</time>
        <extensions>
          <ns3:TrackPointExtension>
            <ns3:atemp>19.0</ns3:atemp>
          </ns3:TrackPointExtension>
        </extensions>
      </trkpt>
      <trkpt lat="42.622577436268329620361328125" lon="19.8933023773133754730224609375">
        <ele>1659.5999755859375</ele>
        <time>2026-06-16T11:28:18.000Z</time>
        <extensions>
          <ns3:TrackPointExtension>
            <ns3:atemp>19.0</ns3:atemp>
          </ns3:TrackPointExtension>
        </extensions>
      </trkpt>
      <trkpt lat="42.622577436268329620361328125" lon="19.8933023773133754730224609375">
        <ele>1659.5999755859375</ele>
        <time>2026-06-16T11:28:19.000Z</time>
        <extensions>
          <ns3:TrackPointExtension>
            <ns3:atemp>19.0</ns3:atemp>
          </ns3:TrackPointExtension>
        </extensions>
      </trkpt>
      <trkpt lat="42.622577436268329620361328125" lon="19.8933023773133754730224609375">
        <ele>1659.5999755859375</ele>
        <time>2026-06-16T11:28:20.000Z</time>
        <extensions>
          <ns3:TrackPointExtension>
            <ns3:atemp>19.0</ns3:atemp>
          </ns3:TrackPointExtension>
        </extensions>
      </trkpt>
      <trkpt lat="42.622577436268329620361328125" lon="19.8933023773133754730224609375">
        <ele>1659.5999755859375</ele>
        <time>2026-06-16T11:28:21.000Z</time>
        <extensions>
          <ns3:TrackPointExtension>
            <ns3:atemp>19.0</ns3:atemp>
          </ns3:TrackPointExtension>
        </extensions>
      </trkpt>
      <trkpt lat="42.622576765716075897216796875" lon="19.893302209675312042236328125">
        <ele>1659.4000244140625</ele>
        <time>2026-06-16T11:28:22.000Z</time>
        <extensions>
          <ns3:TrackPointExtension>
            <ns3:atemp>19.0</ns3:atemp>
          </ns3:TrackPointExtension>
        </extensions>
      </trkpt>
      <trkpt lat="42.62256762944161891937255859375" lon="19.89330648444592952728271484375">
        <ele>1659.4000244140625</ele>
        <time>2026-06-16T11:28:23.000Z</time>
        <extensions>
          <ns3:TrackPointExtension>
            <ns3:atemp>19.0</ns3:atemp>
          </ns3:TrackPointExtension>
        </extensions>
      </trkpt>
      <trkpt lat="42.62255388312041759490966796875" lon="19.893308244645595550537109375">
        <ele>1659.4000244140625</ele>
        <time>2026-06-16T11:28:24.000Z</time>
        <extensions>
          <ns3:TrackPointExtension>
            <ns3:atemp>19.0</ns3:atemp>
          </ns3:TrackPointExtension>
        </extensions>
      </trkpt>
      <trkpt lat="42.62254960834980010986328125" lon="19.893312267959117889404296875">
        <ele>1659.4000244140625</ele>
        <time>2026-06-16T11:28:25.000Z</time>
        <extensions>
          <ns3:TrackPointExtension>
            <ns3:atemp>19.0</ns3:atemp>
          </ns3:TrackPointExtension>
        </extensions>
      </trkpt>
      <trkpt lat="42.62254198081791400909423828125" lon="19.89331151358783245086669921875">
        <ele>1659.4000244140625</ele>
        <time>2026-06-16T11:28:26.000Z</time>
        <extensions>
          <ns3:TrackPointExtension>
            <ns3:atemp>19.0</ns3:atemp>
          </ns3:TrackPointExtension>
        </extensions>
      </trkpt>
      <trkpt lat="42.62254198081791400909423828125" lon="19.89331168122589588165283203125">
        <ele>1659.4000244140625</ele>
        <time>2026-06-16T11:28:27.000Z</time>
        <extensions>
          <ns3:TrackPointExtension>
            <ns3:atemp>19.0</ns3:atemp>
          </ns3:TrackPointExtension>
        </extensions>
      </trkpt>
      <trkpt lat="42.62254198081791400909423828125" lon="19.89331168122589588165283203125">
        <ele>1659.4000244140625</ele>
        <time>2026-06-16T11:28:28.000Z</time>
        <extensions>
          <ns3:TrackPointExtension>
            <ns3:atemp>19.0</ns3:atemp>
          </ns3:TrackPointExtension>
        </extensions>
      </trkpt>
      <trkpt lat="42.62254198081791400909423828125" lon="19.89331168122589588165283203125">
        <ele>1659.4000244140625</ele>
        <time>2026-06-16T11:28:29.000Z</time>
        <extensions>
          <ns3:TrackPointExtension>
            <ns3:atemp>19.0</ns3:atemp>
          </ns3:TrackPointExtension>
        </extensions>
      </trkpt>
      <trkpt lat="42.62254198081791400909423828125" lon="19.89331168122589588165283203125">
        <ele>1659.4000244140625</ele>
        <time>2026-06-16T11:28:30.000Z</time>
        <extensions>
          <ns3:TrackPointExtension>
            <ns3:atemp>19.0</ns3:atemp>
          </ns3:TrackPointExtension>
        </extensions>
      </trkpt>
      <trkpt lat="42.62254198081791400909423828125" lon="19.89331168122589588165283203125">
        <ele>1659.4000244140625</ele>
        <time>2026-06-16T11:28:31.000Z</time>
        <extensions>
          <ns3:TrackPointExtension>
            <ns3:atemp>19.0</ns3:atemp>
          </ns3:TrackPointExtension>
        </extensions>
      </trkpt>
      <trkpt lat="42.62254198081791400909423828125" lon="19.89331168122589588165283203125">
        <ele>1659.4000244140625</ele>
        <time>2026-06-16T11:28:32.000Z</time>
        <extensions>
          <ns3:TrackPointExtension>
            <ns3:atemp>19.0</ns3:atemp>
          </ns3:TrackPointExtension>
        </extensions>
      </trkpt>
      <trkpt lat="42.62254198081791400909423828125" lon="19.89331168122589588165283203125">
        <ele>1659.4000244140625</ele>
        <time>2026-06-16T11:28:33.000Z</time>
        <extensions>
          <ns3:TrackPointExtension>
            <ns3:atemp>19.0</ns3:atemp>
          </ns3:TrackPointExtension>
        </extensions>
      </trkpt>
      <trkpt lat="42.62254198081791400909423828125" lon="19.89331168122589588165283203125">
        <ele>1659.4000244140625</ele>
        <time>2026-06-16T11:28:34.000Z</time>
        <extensions>
          <ns3:TrackPointExtension>
            <ns3:atemp>19.0</ns3:atemp>
          </ns3:TrackPointExtension>
        </extensions>
      </trkpt>
      <trkpt lat="42.62254198081791400909423828125" lon="19.89331168122589588165283203125">
        <ele>1659.4000244140625</ele>
        <time>2026-06-16T11:28:35.000Z</time>
        <extensions>
          <ns3:TrackPointExtension>
            <ns3:atemp>19.0</ns3:atemp>
          </ns3:TrackPointExtension>
        </extensions>
      </trkpt>
      <trkpt lat="42.62254198081791400909423828125" lon="19.89331168122589588165283203125">
        <ele>1659.4000244140625</ele>
        <time>2026-06-16T11:28:36.000Z</time>
        <extensions>
          <ns3:TrackPointExtension>
            <ns3:atemp>19.0</ns3:atemp>
          </ns3:TrackPointExtension>
        </extensions>
      </trkpt>
      <trkpt lat="42.62254198081791400909423828125" lon="19.89331168122589588165283203125">
        <ele>1659.4000244140625</ele>
        <time>2026-06-16T11:28:37.000Z</time>
        <extensions>
          <ns3:TrackPointExtension>
            <ns3:atemp>19.0</ns3:atemp>
          </ns3:TrackPointExtension>
        </extensions>
      </trkpt>
      <trkpt lat="42.6225427351891994476318359375" lon="19.893310926854610443115234375">
        <ele>1659.199951171875</ele>
        <time>2026-06-16T11:28:38.000Z</time>
        <extensions>
          <ns3:TrackPointExtension>
            <ns3:atemp>19.0</ns3:atemp>
          </ns3:TrackPointExtension>
        </extensions>
      </trkpt>
      <trkpt lat="42.622537873685359954833984375" lon="19.89330329932272434234619140625">
        <ele>1659.4000244140625</ele>
        <time>2026-06-16T11:28:39.000Z</time>
        <extensions>
          <ns3:TrackPointExtension>
            <ns3:atemp>19.0</ns3:atemp>
          </ns3:TrackPointExtension>
        </extensions>
      </trkpt>
      <trkpt lat="42.6225427351891994476318359375" lon="19.89330983720719814300537109375">
        <ele>1659.4000244140625</ele>
        <time>2026-06-16T11:28:40.000Z</time>
        <extensions>
          <ns3:TrackPointExtension>
            <ns3:atemp>19.0</ns3:atemp>
          </ns3:TrackPointExtension>
        </extensions>
      </trkpt>
      <trkpt lat="42.62254063971340656280517578125" lon="19.8933188058435916900634765625">
        <ele>1659.4000244140625</ele>
        <time>2026-06-16T11:28:41.000Z</time>
        <extensions>
          <ns3:TrackPointExtension>
            <ns3:atemp>19.0</ns3:atemp>
          </ns3:TrackPointExtension>
        </extensions>
      </trkpt>
      <trkpt lat="42.62253393419086933135986328125" lon="19.89332710392773151397705078125">
        <ele>1659.5999755859375</ele>
        <time>2026-06-16T11:28:42.000Z</time>
        <extensions>
          <ns3:TrackPointExtension>
            <ns3:atemp>19.0</ns3:atemp>
          </ns3:TrackPointExtension>
        </extensions>
      </trkpt>
      <trkpt lat="42.62253083288669586181640625" lon="19.89333950914442539215087890625">
        <ele>1659.5999755859375</ele>
        <time>2026-06-16T11:28:43.000Z</time>
        <extensions>
          <ns3:TrackPointExtension>
            <ns3:atemp>19.0</ns3:atemp>
          </ns3:TrackPointExtension>
        </extensions>
      </trkpt>
      <trkpt lat="42.62252488173544406890869140625" lon="19.8933476395905017852783203125">
        <ele>1659.800048828125</ele>
        <time>2026-06-16T11:28:44.000Z</time>
        <extensions>
          <ns3:TrackPointExtension>
            <ns3:atemp>19.0</ns3:atemp>
          </ns3:TrackPointExtension>
        </extensions>
      </trkpt>
      <trkpt lat="42.62252035550773143768310546875" lon="19.89334948360919952392578125">
        <ele>1659.800048828125</ele>
        <time>2026-06-16T11:28:45.000Z</time>
        <extensions>
          <ns3:TrackPointExtension>
            <ns3:atemp>19.0</ns3:atemp>
          </ns3:TrackPointExtension>
        </extensions>
      </trkpt>
      <trkpt lat="42.6225165836513042449951171875" lon="19.8933528363704681396484375">
        <ele>1660</ele>
        <time>2026-06-16T11:28:46.000Z</time>
        <extensions>
          <ns3:TrackPointExtension>
            <ns3:atemp>19.0</ns3:atemp>
          </ns3:TrackPointExtension>
        </extensions>
      </trkpt>
      <trkpt lat="42.622516416013240814208984375" lon="19.893353171646595001220703125">
        <ele>1660</ele>
        <time>2026-06-16T11:28:47.000Z</time>
        <extensions>
          <ns3:TrackPointExtension>
            <ns3:atemp>19.0</ns3:atemp>
          </ns3:TrackPointExtension>
        </extensions>
      </trkpt>
      <trkpt lat="42.622516416013240814208984375" lon="19.893353171646595001220703125">
        <ele>1660</ele>
        <time>2026-06-16T11:28:48.000Z</time>
        <extensions>
          <ns3:TrackPointExtension>
            <ns3:atemp>19.0</ns3:atemp>
          </ns3:TrackPointExtension>
        </extensions>
      </trkpt>
      <trkpt lat="42.622516416013240814208984375" lon="19.893353171646595001220703125">
        <ele>1660</ele>
        <time>2026-06-16T11:28:49.000Z</time>
        <extensions>
          <ns3:TrackPointExtension>
            <ns3:atemp>19.0</ns3:atemp>
          </ns3:TrackPointExtension>
        </extensions>
      </trkpt>
      <trkpt lat="42.622516416013240814208984375" lon="19.893353171646595001220703125">
        <ele>1660</ele>
        <time>2026-06-16T11:28:50.000Z</time>
        <extensions>
          <ns3:TrackPointExtension>
            <ns3:atemp>19.0</ns3:atemp>
          </ns3:TrackPointExtension>
        </extensions>
      </trkpt>
      <trkpt lat="42.62251532636582851409912109375" lon="19.89335493184626102447509765625">
        <ele>1659.800048828125</ele>
        <time>2026-06-16T11:28:51.000Z</time>
        <extensions>
          <ns3:TrackPointExtension>
            <ns3:atemp>19.0</ns3:atemp>
          </ns3:TrackPointExtension>
        </extensions>
      </trkpt>
      <trkpt lat="42.622502334415912628173828125" lon="19.89337320439517498016357421875">
        <ele>1659.800048828125</ele>
        <time>2026-06-16T11:28:52.000Z</time>
        <extensions>
          <ns3:TrackPointExtension>
            <ns3:atemp>19.0</ns3:atemp>
          </ns3:TrackPointExtension>
        </extensions>
      </trkpt>
      <trkpt lat="42.622485570609569549560546875" lon="19.89337890408933162689208984375">
        <ele>1659.5999755859375</ele>
        <time>2026-06-16T11:28:53.000Z</time>
        <extensions>
          <ns3:TrackPointExtension>
            <ns3:atemp>19.0</ns3:atemp>
          </ns3:TrackPointExtension>
        </extensions>
      </trkpt>
      <trkpt lat="42.62246972881257534027099609375" lon="19.89338426850736141204833984375">
        <ele>1659.5999755859375</ele>
        <time>2026-06-16T11:28:54.000Z</time>
        <extensions>
          <ns3:TrackPointExtension>
            <ns3:atemp>19.0</ns3:atemp>
          </ns3:TrackPointExtension>
        </extensions>
      </trkpt>
      <trkpt lat="42.6224575750529766082763671875" lon="19.8933851905167102813720703125">
        <ele>1659.4000244140625</ele>
        <time>2026-06-16T11:28:55.000Z</time>
        <extensions>
          <ns3:TrackPointExtension>
            <ns3:atemp>19.0</ns3:atemp>
          </ns3:TrackPointExtension>
        </extensions>
      </trkpt>
      <trkpt lat="42.6224387995898723602294921875" lon="19.89338376559317111968994140625">
        <ele>1659.199951171875</ele>
        <time>2026-06-16T11:28:56.000Z</time>
        <extensions>
          <ns3:TrackPointExtension>
            <ns3:atemp>19.0</ns3:atemp>
          </ns3:TrackPointExtension>
        </extensions>
      </trkpt>
      <trkpt lat="42.6224223710596561431884765625" lon="19.8933875374495983123779296875">
        <ele>1659</ele>
        <time>2026-06-16T11:28:57.000Z</time>
        <extensions>
          <ns3:TrackPointExtension>
            <ns3:atemp>19.0</ns3:atemp>
          </ns3:TrackPointExtension>
        </extensions>
      </trkpt>
      <trkpt lat="42.62240971438586711883544921875" lon="19.8933932371437549591064453125">
        <ele>1659</ele>
        <time>2026-06-16T11:28:58.000Z</time>
        <extensions>
          <ns3:TrackPointExtension>
            <ns3:atemp>19.0</ns3:atemp>
          </ns3:TrackPointExtension>
        </extensions>
      </trkpt>
      <trkpt lat="42.62239613570272922515869140625" lon="19.8933942429721355438232421875">
        <ele>1658.800048828125</ele>
        <time>2026-06-16T11:28:59.000Z</time>
        <extensions>
          <ns3:TrackPointExtension>
            <ns3:atemp>19.0</ns3:atemp>
          </ns3:TrackPointExtension>
        </extensions>
      </trkpt>
      <trkpt lat="42.6223786175251007080078125" lon="19.89339315332472324371337890625">
        <ele>1658.800048828125</ele>
        <time>2026-06-16T11:29:00.000Z</time>
        <extensions>
          <ns3:TrackPointExtension>
            <ns3:atemp>19.0</ns3:atemp>
          </ns3:TrackPointExtension>
        </extensions>
      </trkpt>
      <trkpt lat="42.62236663140356540679931640625" lon="19.8933970928192138671875">
        <ele>1658.800048828125</ele>
        <time>2026-06-16T11:29:01.000Z</time>
        <extensions>
          <ns3:TrackPointExtension>
            <ns3:atemp>19.0</ns3:atemp>
          </ns3:TrackPointExtension>
        </extensions>
      </trkpt>
      <trkpt lat="42.6223445869982242584228515625" lon="19.8934069834649562835693359375">
        <ele>1658.800048828125</ele>
        <time>2026-06-16T11:29:02.000Z</time>
        <extensions>
          <ns3:TrackPointExtension>
            <ns3:atemp>19.0</ns3:atemp>
          </ns3:TrackPointExtension>
        </extensions>
      </trkpt>
      <trkpt lat="42.62232220731675624847412109375" lon="19.89342148415744304656982421875">
        <ele>1658.5999755859375</ele>
        <time>2026-06-16T11:29:03.000Z</time>
        <extensions>
          <ns3:TrackPointExtension>
            <ns3:atemp>19.0</ns3:atemp>
          </ns3:TrackPointExtension>
        </extensions>
      </trkpt>
      <trkpt lat="42.6223035156726837158203125" lon="19.893433637917041778564453125">
        <ele>1658.5999755859375</ele>
        <time>2026-06-16T11:29:04.000Z</time>
        <extensions>
          <ns3:TrackPointExtension>
            <ns3:atemp>19.0</ns3:atemp>
          </ns3:TrackPointExtension>
        </extensions>
      </trkpt>
      <trkpt lat="42.62228675186634063720703125" lon="19.89344428293406963348388671875">
        <ele>1658.5999755859375</ele>
        <time>2026-06-16T11:29:05.000Z</time>
        <extensions>
          <ns3:TrackPointExtension>
            <ns3:atemp>19.0</ns3:atemp>
          </ns3:TrackPointExtension>
        </extensions>
      </trkpt>
      <trkpt lat="42.6222711615264415740966796875" lon="19.8934586159884929656982421875">
        <ele>1658.800048828125</ele>
        <time>2026-06-16T11:29:06.000Z</time>
        <extensions>
          <ns3:TrackPointExtension>
            <ns3:atemp>19.0</ns3:atemp>
          </ns3:TrackPointExtension>
        </extensions>
      </trkpt>
      <trkpt lat="42.6222533918917179107666015625" lon="19.89346825517714023590087890625">
        <ele>1658.800048828125</ele>
        <time>2026-06-16T11:29:07.000Z</time>
        <extensions>
          <ns3:TrackPointExtension>
            <ns3:atemp>19.0</ns3:atemp>
          </ns3:TrackPointExtension>
        </extensions>
      </trkpt>
      <trkpt lat="42.622222714126110076904296875" lon="19.89347579888999462127685546875">
        <ele>1658.800048828125</ele>
        <time>2026-06-16T11:29:08.000Z</time>
        <extensions>
          <ns3:TrackPointExtension>
            <ns3:atemp>19.0</ns3:atemp>
          </ns3:TrackPointExtension>
        </extensions>
      </trkpt>
      <trkpt lat="42.6221943832933902740478515625" lon="19.89346926100552082061767578125">
        <ele>1658.800048828125</ele>
        <time>2026-06-16T11:29:09.000Z</time>
        <extensions>
          <ns3:TrackPointExtension>
            <ns3:atemp>19.0</ns3:atemp>
          </ns3:TrackPointExtension>
        </extensions>
      </trkpt>
      <trkpt lat="42.62217409908771514892578125" lon="19.89346775226294994354248046875">
        <ele>1658.800048828125</ele>
        <time>2026-06-16T11:29:10.000Z</time>
        <extensions>
          <ns3:TrackPointExtension>
            <ns3:atemp>19.0</ns3:atemp>
          </ns3:TrackPointExtension>
        </extensions>
      </trkpt>
      <trkpt lat="42.62215004302561283111572265625" lon="19.893470518290996551513671875">
        <ele>1658.5999755859375</ele>
        <time>2026-06-16T11:29:11.000Z</time>
        <extensions>
          <ns3:TrackPointExtension>
            <ns3:atemp>19.0</ns3:atemp>
          </ns3:TrackPointExtension>
        </extensions>
      </trkpt>
      <trkpt lat="42.622123472392559051513671875" lon="19.893473871052265167236328125">
        <ele>1658.4000244140625</ele>
        <time>2026-06-16T11:29:12.000Z</time>
        <extensions>
          <ns3:TrackPointExtension>
            <ns3:atemp>19.0</ns3:atemp>
          </ns3:TrackPointExtension>
        </extensions>
      </trkpt>
      <trkpt lat="42.6220984943211078643798828125" lon="19.89347982220351696014404296875">
        <ele>1658</ele>
        <time>2026-06-16T11:29:13.000Z</time>
        <extensions>
          <ns3:TrackPointExtension>
            <ns3:atemp>19.0</ns3:atemp>
          </ns3:TrackPointExtension>
        </extensions>
      </trkpt>
      <trkpt lat="42.62207024730741977691650390625" lon="19.89348501898348331451416015625">
        <ele>1657.5999755859375</ele>
        <time>2026-06-16T11:29:14.000Z</time>
        <extensions>
          <ns3:TrackPointExtension>
            <ns3:atemp>19.0</ns3:atemp>
          </ns3:TrackPointExtension>
        </extensions>
      </trkpt>
      <trkpt lat="42.6220394857227802276611328125" lon="19.8934891261160373687744140625">
        <ele>1657</ele>
        <time>2026-06-16T11:29:15.000Z</time>
        <extensions>
          <ns3:TrackPointExtension>
            <ns3:atemp>19.0</ns3:atemp>
          </ns3:TrackPointExtension>
        </extensions>
      </trkpt>
      <trkpt lat="42.6220136694610118865966796875" lon="19.89349968731403350830078125">
        <ele>1656.4000244140625</ele>
        <time>2026-06-16T11:29:16.000Z</time>
        <extensions>
          <ns3:TrackPointExtension>
            <ns3:atemp>19.0</ns3:atemp>
          </ns3:TrackPointExtension>
        </extensions>
      </trkpt>
      <trkpt lat="42.6219895295798778533935546875" lon="19.8935112543404102325439453125">
        <ele>1656.199951171875</ele>
        <time>2026-06-16T11:29:17.000Z</time>
        <extensions>
          <ns3:TrackPointExtension>
            <ns3:atemp>19.0</ns3:atemp>
          </ns3:TrackPointExtension>
        </extensions>
      </trkpt>
      <trkpt lat="42.62196564115583896636962890625" lon="19.89351737312972545623779296875">
        <ele>1655.199951171875</ele>
        <time>2026-06-16T11:29:18.000Z</time>
        <extensions>
          <ns3:TrackPointExtension>
            <ns3:atemp>19.0</ns3:atemp>
          </ns3:TrackPointExtension>
        </extensions>
      </trkpt>
      <trkpt lat="42.621940411627292633056640625" lon="19.89351871423423290252685546875">
        <ele>1654.4000244140625</ele>
        <time>2026-06-16T11:29:19.000Z</time>
        <extensions>
          <ns3:TrackPointExtension>
            <ns3:atemp>19.0</ns3:atemp>
          </ns3:TrackPointExtension>
        </extensions>
      </trkpt>
      <trkpt lat="42.6219231449067592620849609375" lon="19.89352089352905750274658203125">
        <ele>1654</ele>
        <time>2026-06-16T11:29:20.000Z</time>
        <extensions>
          <ns3:TrackPointExtension>
            <ns3:atemp>19.0</ns3:atemp>
          </ns3:TrackPointExtension>
        </extensions>
      </trkpt>
      <trkpt lat="42.62190520763397216796875" lon="19.89352189935743808746337890625">
        <ele>1653.4000244140625</ele>
        <time>2026-06-16T11:29:21.000Z</time>
        <extensions>
          <ns3:TrackPointExtension>
            <ns3:atemp>19.0</ns3:atemp>
          </ns3:TrackPointExtension>
        </extensions>
      </trkpt>
      <trkpt lat="42.621886767446994781494140625" lon="19.8935213126242160797119140625">
        <ele>1653</ele>
        <time>2026-06-16T11:29:22.000Z</time>
        <extensions>
          <ns3:TrackPointExtension>
            <ns3:atemp>19.0</ns3:atemp>
          </ns3:TrackPointExtension>
        </extensions>
      </trkpt>
      <trkpt lat="42.62186639942228794097900390625" lon="19.89352382719516754150390625">
        <ele>1652.5999755859375</ele>
        <time>2026-06-16T11:29:23.000Z</time>
        <extensions>
          <ns3:TrackPointExtension>
            <ns3:atemp>19.0</ns3:atemp>
          </ns3:TrackPointExtension>
        </extensions>
      </trkpt>
      <trkpt lat="42.621838487684726715087890625" lon="19.89352910779416561126708984375">
        <ele>1651.800048828125</ele>
        <time>2026-06-16T11:29:24.000Z</time>
        <extensions>
          <ns3:TrackPointExtension>
            <ns3:atemp>19.0</ns3:atemp>
          </ns3:TrackPointExtension>
        </extensions>
      </trkpt>
      <trkpt lat="42.6218111626803874969482421875" lon="19.89354788325726985931396484375">
        <ele>1651.4000244140625</ele>
        <time>2026-06-16T11:29:25.000Z</time>
        <extensions>
          <ns3:TrackPointExtension>
            <ns3:atemp>19.0</ns3:atemp>
          </ns3:TrackPointExtension>
        </extensions>
      </trkpt>
      <trkpt lat="42.62178442440927028656005859375" lon="19.89356514997780323028564453125">
        <ele>1650.5999755859375</ele>
        <time>2026-06-16T11:29:26.000Z</time>
        <extensions>
          <ns3:TrackPointExtension>
            <ns3:atemp>19.0</ns3:atemp>
          </ns3:TrackPointExtension>
        </extensions>
      </trkpt>
      <trkpt lat="42.6217628829181194305419921875" lon="19.8935513198375701904296875">
        <ele>1649.800048828125</ele>
        <time>2026-06-16T11:29:27.000Z</time>
        <extensions>
          <ns3:TrackPointExtension>
            <ns3:atemp>19.0</ns3:atemp>
          </ns3:TrackPointExtension>
        </extensions>
      </trkpt>
      <trkpt lat="42.621720135211944580078125" lon="19.893534220755100250244140625">
        <ele>1649</ele>
        <time>2026-06-16T11:29:28.000Z</time>
        <extensions>
          <ns3:TrackPointExtension>
            <ns3:atemp>19.0</ns3:atemp>
          </ns3:TrackPointExtension>
        </extensions>
      </trkpt>
      <trkpt lat="42.62167344801127910614013671875" lon="19.89353279583156108856201171875">
        <ele>1648.199951171875</ele>
        <time>2026-06-16T11:29:29.000Z</time>
        <extensions>
          <ns3:TrackPointExtension>
            <ns3:atemp>19.0</ns3:atemp>
          </ns3:TrackPointExtension>
        </extensions>
      </trkpt>
      <trkpt lat="42.62163589708507061004638671875" lon="19.893554337322711944580078125">
        <ele>1647.800048828125</ele>
        <time>2026-06-16T11:29:30.000Z</time>
        <extensions>
          <ns3:TrackPointExtension>
            <ns3:atemp>19.0</ns3:atemp>
          </ns3:TrackPointExtension>
        </extensions>
      </trkpt>
      <trkpt lat="42.62160270474851131439208984375" lon="19.89356582053005695343017578125">
        <ele>1647</ele>
        <time>2026-06-16T11:29:31.000Z</time>
        <extensions>
          <ns3:TrackPointExtension>
            <ns3:atemp>19.0</ns3:atemp>
          </ns3:TrackPointExtension>
        </extensions>
      </trkpt>
      <trkpt lat="42.6215660758316516876220703125" lon="19.89357034675776958465576171875">
        <ele>1646.199951171875</ele>
        <time>2026-06-16T11:29:32.000Z</time>
        <extensions>
          <ns3:TrackPointExtension>
            <ns3:atemp>19.0</ns3:atemp>
          </ns3:TrackPointExtension>
        </extensions>
      </trkpt>
      <trkpt lat="42.6215281896293163299560546875" lon="19.89356213249266147613525390625">
        <ele>1645.5999755859375</ele>
        <time>2026-06-16T11:29:33.000Z</time>
        <extensions>
          <ns3:TrackPointExtension>
            <ns3:atemp>19.0</ns3:atemp>
          </ns3:TrackPointExtension>
        </extensions>
      </trkpt>
      <trkpt lat="42.6214946620166301727294921875" lon="19.89354955963790416717529296875">
        <ele>1645</ele>
        <time>2026-06-16T11:29:34.000Z</time>
        <extensions>
          <ns3:TrackPointExtension>
            <ns3:atemp>19.0</ns3:atemp>
          </ns3:TrackPointExtension>
        </extensions>
      </trkpt>
      <trkpt lat="42.62146809138357639312744140625" lon="19.89352919161319732666015625">
        <ele>1644.4000244140625</ele>
        <time>2026-06-16T11:29:35.000Z</time>
        <extensions>
          <ns3:TrackPointExtension>
            <ns3:atemp>19.0</ns3:atemp>
          </ns3:TrackPointExtension>
        </extensions>
      </trkpt>
      <trkpt lat="42.6214363239705562591552734375" lon="19.893507063388824462890625">
        <ele>1643.5999755859375</ele>
        <time>2026-06-16T11:29:36.000Z</time>
        <extensions>
          <ns3:TrackPointExtension>
            <ns3:atemp>19.0</ns3:atemp>
          </ns3:TrackPointExtension>
        </extensions>
      </trkpt>
      <trkpt lat="42.62139701284468173980712890625" lon="19.89349373616278171539306640625">
        <ele>1642.5999755859375</ele>
        <time>2026-06-16T11:29:37.000Z</time>
        <extensions>
          <ns3:TrackPointExtension>
            <ns3:atemp>19.0</ns3:atemp>
          </ns3:TrackPointExtension>
        </extensions>
      </trkpt>
      <trkpt lat="42.6213696040213108062744140625" lon="19.8934851028025150299072265625">
        <ele>1641.800048828125</ele>
        <time>2026-06-16T11:29:38.000Z</time>
        <extensions>
          <ns3:TrackPointExtension>
            <ns3:atemp>19.0</ns3:atemp>
          </ns3:TrackPointExtension>
        </extensions>
      </trkpt>
      <trkpt lat="42.62134755961596965789794921875" lon="19.893485270440578460693359375">
        <ele>1641</ele>
        <time>2026-06-16T11:29:39.000Z</time>
        <extensions>
          <ns3:TrackPointExtension>
            <ns3:atemp>19.0</ns3:atemp>
          </ns3:TrackPointExtension>
        </extensions>
      </trkpt>
      <trkpt lat="42.6213280297815799713134765625" lon="19.89349256269633769989013671875">
        <ele>1640.199951171875</ele>
        <time>2026-06-16T11:29:40.000Z</time>
        <extensions>
          <ns3:TrackPointExtension>
            <ns3:atemp>19.0</ns3:atemp>
          </ns3:TrackPointExtension>
        </extensions>
      </trkpt>
      <trkpt lat="42.6213059015572071075439453125" lon="19.89349960349500179290771484375">
        <ele>1639.5999755859375</ele>
        <time>2026-06-16T11:29:41.000Z</time>
        <extensions>
          <ns3:TrackPointExtension>
            <ns3:atemp>19.0</ns3:atemp>
          </ns3:TrackPointExtension>
        </extensions>
      </trkpt>
      <trkpt lat="42.6212874613702297210693359375" lon="19.893511421978473663330078125">
        <ele>1639</ele>
        <time>2026-06-16T11:29:42.000Z</time>
        <extensions>
          <ns3:TrackPointExtension>
            <ns3:atemp>19.0</ns3:atemp>
          </ns3:TrackPointExtension>
        </extensions>
      </trkpt>
      <trkpt lat="42.621268518269062042236328125" lon="19.89352047443389892578125">
        <ele>1638.4000244140625</ele>
        <time>2026-06-16T11:29:43.000Z</time>
        <extensions>
          <ns3:TrackPointExtension>
            <ns3:atemp>19.0</ns3:atemp>
          </ns3:TrackPointExtension>
        </extensions>
      </trkpt>
      <trkpt lat="42.62124739587306976318359375" lon="19.89352122880518436431884765625">
        <ele>1637.800048828125</ele>
        <time>2026-06-16T11:29:44.000Z</time>
        <extensions>
          <ns3:TrackPointExtension>
            <ns3:atemp>19.0</ns3:atemp>
          </ns3:TrackPointExtension>
        </extensions>
      </trkpt>
      <trkpt lat="42.621231637895107269287109375" lon="19.89351854659616947174072265625">
        <ele>1637.199951171875</ele>
        <time>2026-06-16T11:29:45.000Z</time>
        <extensions>
          <ns3:TrackPointExtension>
            <ns3:atemp>19.0</ns3:atemp>
          </ns3:TrackPointExtension>
        </extensions>
      </trkpt>
      <trkpt lat="42.62121177278459072113037109375" lon="19.893515445291996002197265625">
        <ele>1636.5999755859375</ele>
        <time>2026-06-16T11:29:46.000Z</time>
        <extensions>
          <ns3:TrackPointExtension>
            <ns3:atemp>19.0</ns3:atemp>
          </ns3:TrackPointExtension>
        </extensions>
      </trkpt>
      <trkpt lat="42.621191404759883880615234375" lon="19.89351309835910797119140625">
        <ele>1635.800048828125</ele>
        <time>2026-06-16T11:29:47.000Z</time>
        <extensions>
          <ns3:TrackPointExtension>
            <ns3:atemp>19.0</ns3:atemp>
          </ns3:TrackPointExtension>
        </extensions>
      </trkpt>
      <trkpt lat="42.62117489241063594818115234375" lon="19.89351066760718822479248046875">
        <ele>1635.199951171875</ele>
        <time>2026-06-16T11:29:48.000Z</time>
        <extensions>
          <ns3:TrackPointExtension>
            <ns3:atemp>19.0</ns3:atemp>
          </ns3:TrackPointExtension>
        </extensions>
      </trkpt>
      <trkpt lat="42.6211634092032909393310546875" lon="19.89351117052137851715087890625">
        <ele>1634.4000244140625</ele>
        <time>2026-06-16T11:29:49.000Z</time>
        <extensions>
          <ns3:TrackPointExtension>
            <ns3:atemp>19.0</ns3:atemp>
          </ns3:TrackPointExtension>
        </extensions>
      </trkpt>
      <trkpt lat="42.62115326710045337677001953125" lon="19.89351267926394939422607421875">
        <ele>1633.800048828125</ele>
        <time>2026-06-16T11:29:50.000Z</time>
        <extensions>
          <ns3:TrackPointExtension>
            <ns3:atemp>19.0</ns3:atemp>
          </ns3:TrackPointExtension>
        </extensions>
      </trkpt>
      <trkpt lat="42.6211453042924404144287109375" lon="19.89351133815944194793701171875">
        <ele>1633.199951171875</ele>
        <time>2026-06-16T11:29:51.000Z</time>
        <extensions>
          <ns3:TrackPointExtension>
            <ns3:atemp>19.0</ns3:atemp>
          </ns3:TrackPointExtension>
        </extensions>
      </trkpt>
      <trkpt lat="42.62114505283534526824951171875" lon="19.89351150579750537872314453125">
        <ele>1632.5999755859375</ele>
        <time>2026-06-16T11:29:52.000Z</time>
        <extensions>
          <ns3:TrackPointExtension>
            <ns3:atemp>19.0</ns3:atemp>
          </ns3:TrackPointExtension>
        </extensions>
      </trkpt>
      <trkpt lat="42.62114505283534526824951171875" lon="19.89351150579750537872314453125">
        <ele>1632.4000244140625</ele>
        <time>2026-06-16T11:29:53.000Z</time>
        <extensions>
          <ns3:TrackPointExtension>
            <ns3:atemp>19.0</ns3:atemp>
          </ns3:TrackPointExtension>
        </extensions>
      </trkpt>
      <trkpt lat="42.62114505283534526824951171875" lon="19.89351150579750537872314453125">
        <ele>1632.199951171875</ele>
        <time>2026-06-16T11:29:54.000Z</time>
        <extensions>
          <ns3:TrackPointExtension>
            <ns3:atemp>19.0</ns3:atemp>
          </ns3:TrackPointExtension>
        </extensions>
      </trkpt>
      <trkpt lat="42.62114505283534526824951171875" lon="19.89351150579750537872314453125">
        <ele>1632</ele>
        <time>2026-06-16T11:29:55.000Z</time>
        <extensions>
          <ns3:TrackPointExtension>
            <ns3:atemp>19.0</ns3:atemp>
          </ns3:TrackPointExtension>
        </extensions>
      </trkpt>
      <trkpt lat="42.62114505283534526824951171875" lon="19.89351150579750537872314453125">
        <ele>1631.800048828125</ele>
        <time>2026-06-16T11:29:56.000Z</time>
        <extensions>
          <ns3:TrackPointExtension>
            <ns3:atemp>19.0</ns3:atemp>
          </ns3:TrackPointExtension>
        </extensions>
      </trkpt>
      <trkpt lat="42.62114505283534526824951171875" lon="19.89351150579750537872314453125">
        <ele>1631.800048828125</ele>
        <time>2026-06-16T11:29:57.000Z</time>
        <extensions>
          <ns3:TrackPointExtension>
            <ns3:atemp>19.0</ns3:atemp>
          </ns3:TrackPointExtension>
        </extensions>
      </trkpt>
      <trkpt lat="42.62114505283534526824951171875" lon="19.89351150579750537872314453125">
        <ele>1631.5999755859375</ele>
        <time>2026-06-16T11:29:58.000Z</time>
        <extensions>
          <ns3:TrackPointExtension>
            <ns3:atemp>19.0</ns3:atemp>
          </ns3:TrackPointExtension>
        </extensions>
      </trkpt>
      <trkpt lat="42.62114505283534526824951171875" lon="19.89351150579750537872314453125">
        <ele>1631.5999755859375</ele>
        <time>2026-06-16T11:29:59.000Z</time>
        <extensions>
          <ns3:TrackPointExtension>
            <ns3:atemp>19.0</ns3:atemp>
          </ns3:TrackPointExtension>
        </extensions>
      </trkpt>
      <trkpt lat="42.62114454992115497589111328125" lon="19.893511421978473663330078125">
        <ele>1631.4000244140625</ele>
        <time>2026-06-16T11:30:00.000Z</time>
        <extensions>
          <ns3:TrackPointExtension>
            <ns3:atemp>19.0</ns3:atemp>
          </ns3:TrackPointExtension>
        </extensions>
      </trkpt>
      <trkpt lat="42.6211406104266643524169921875" lon="19.89351603202521800994873046875">
        <ele>1631.4000244140625</ele>
        <time>2026-06-16T11:30:01.000Z</time>
        <extensions>
          <ns3:TrackPointExtension>
            <ns3:atemp>19.0</ns3:atemp>
          </ns3:TrackPointExtension>
        </extensions>
      </trkpt>
      <trkpt lat="42.62114505283534526824951171875" lon="19.89351150579750537872314453125">
        <ele>1631.4000244140625</ele>
        <time>2026-06-16T11:30:02.000Z</time>
        <extensions>
          <ns3:TrackPointExtension>
            <ns3:atemp>19.0</ns3:atemp>
          </ns3:TrackPointExtension>
        </extensions>
      </trkpt>
      <trkpt lat="42.62114505283534526824951171875" lon="19.89351150579750537872314453125">
        <ele>1631.199951171875</ele>
        <time>2026-06-16T11:30:03.000Z</time>
        <extensions>
          <ns3:TrackPointExtension>
            <ns3:atemp>19.0</ns3:atemp>
          </ns3:TrackPointExtension>
        </extensions>
      </trkpt>
      <trkpt lat="42.62114505283534526824951171875" lon="19.89351150579750537872314453125">
        <ele>1631.199951171875</ele>
        <time>2026-06-16T11:30:04.000Z</time>
        <extensions>
          <ns3:TrackPointExtension>
            <ns3:atemp>19.0</ns3:atemp>
          </ns3:TrackPointExtension>
        </extensions>
      </trkpt>
      <trkpt lat="42.62114505283534526824951171875" lon="19.89351150579750537872314453125">
        <ele>1631.199951171875</ele>
        <time>2026-06-16T11:30:05.000Z</time>
        <extensions>
          <ns3:TrackPointExtension>
            <ns3:atemp>19.0</ns3:atemp>
          </ns3:TrackPointExtension>
        </extensions>
      </trkpt>
      <trkpt lat="42.62114505283534526824951171875" lon="19.89351150579750537872314453125">
        <ele>1631</ele>
        <time>2026-06-16T11:30:06.000Z</time>
        <extensions>
          <ns3:TrackPointExtension>
            <ns3:atemp>19.0</ns3:atemp>
          </ns3:TrackPointExtension>
        </extensions>
      </trkpt>
      <trkpt lat="42.62114505283534526824951171875" lon="19.89351150579750537872314453125">
        <ele>1631</ele>
        <time>2026-06-16T11:30:07.000Z</time>
        <extensions>
          <ns3:TrackPointExtension>
            <ns3:atemp>19.0</ns3:atemp>
          </ns3:TrackPointExtension>
        </extensions>
      </trkpt>
      <trkpt lat="42.62114505283534526824951171875" lon="19.89351150579750537872314453125">
        <ele>1631</ele>
        <time>2026-06-16T11:30:08.000Z</time>
        <extensions>
          <ns3:TrackPointExtension>
            <ns3:atemp>19.0</ns3:atemp>
          </ns3:TrackPointExtension>
        </extensions>
      </trkpt>
      <trkpt lat="42.62114505283534526824951171875" lon="19.89351150579750537872314453125">
        <ele>1631</ele>
        <time>2026-06-16T11:30:09.000Z</time>
        <extensions>
          <ns3:TrackPointExtension>
            <ns3:atemp>19.0</ns3:atemp>
          </ns3:TrackPointExtension>
        </extensions>
      </trkpt>
      <trkpt lat="42.62114505283534526824951171875" lon="19.89351150579750537872314453125">
        <ele>1631</ele>
        <time>2026-06-16T11:30:10.000Z</time>
        <extensions>
          <ns3:TrackPointExtension>
            <ns3:atemp>19.0</ns3:atemp>
          </ns3:TrackPointExtension>
        </extensions>
      </trkpt>
      <trkpt lat="42.62114505283534526824951171875" lon="19.89351150579750537872314453125">
        <ele>1631</ele>
        <time>2026-06-16T11:30:11.000Z</time>
        <extensions>
          <ns3:TrackPointExtension>
            <ns3:atemp>19.0</ns3:atemp>
          </ns3:TrackPointExtension>
        </extensions>
      </trkpt>
      <trkpt lat="42.62113583274185657501220703125" lon="19.89351619966328144073486328125">
        <ele>1631</ele>
        <time>2026-06-16T11:30:12.000Z</time>
        <extensions>
          <ns3:TrackPointExtension>
            <ns3:atemp>19.0</ns3:atemp>
          </ns3:TrackPointExtension>
        </extensions>
      </trkpt>
      <trkpt lat="42.62112895958125591278076171875" lon="19.893514104187488555908203125">
        <ele>1631</ele>
        <time>2026-06-16T11:30:13.000Z</time>
        <extensions>
          <ns3:TrackPointExtension>
            <ns3:atemp>19.0</ns3:atemp>
          </ns3:TrackPointExtension>
        </extensions>
      </trkpt>
      <trkpt lat="42.6211221702396869659423828125" lon="19.89351200871169567108154296875">
        <ele>1631</ele>
        <time>2026-06-16T11:30:14.000Z</time>
        <extensions>
          <ns3:TrackPointExtension>
            <ns3:atemp>19.0</ns3:atemp>
          </ns3:TrackPointExtension>
        </extensions>
      </trkpt>
      <trkpt lat="42.62111973948776721954345703125" lon="19.89350748248398303985595703125">
        <ele>1630.800048828125</ele>
        <time>2026-06-16T11:30:15.000Z</time>
        <extensions>
          <ns3:TrackPointExtension>
            <ns3:atemp>19.0</ns3:atemp>
          </ns3:TrackPointExtension>
        </extensions>
      </trkpt>
      <trkpt lat="42.6211126148700714111328125" lon="19.89350639283657073974609375">
        <ele>1630.5999755859375</ele>
        <time>2026-06-16T11:30:16.000Z</time>
        <extensions>
          <ns3:TrackPointExtension>
            <ns3:atemp>19.0</ns3:atemp>
          </ns3:TrackPointExtension>
        </extensions>
      </trkpt>
      <trkpt lat="42.6211124472320079803466796875" lon="19.893506057560443878173828125">
        <ele>1630.4000244140625</ele>
        <time>2026-06-16T11:30:17.000Z</time>
        <extensions>
          <ns3:TrackPointExtension>
            <ns3:atemp>19.0</ns3:atemp>
          </ns3:TrackPointExtension>
        </extensions>
      </trkpt>
      <trkpt lat="42.6211124472320079803466796875" lon="19.893506057560443878173828125">
        <ele>1630.199951171875</ele>
        <time>2026-06-16T11:30:18.000Z</time>
        <extensions>
          <ns3:TrackPointExtension>
            <ns3:atemp>19.0</ns3:atemp>
          </ns3:TrackPointExtension>
        </extensions>
      </trkpt>
      <trkpt lat="42.6211124472320079803466796875" lon="19.893506057560443878173828125">
        <ele>1630</ele>
        <time>2026-06-16T11:30:19.000Z</time>
        <extensions>
          <ns3:TrackPointExtension>
            <ns3:atemp>19.0</ns3:atemp>
          </ns3:TrackPointExtension>
        </extensions>
      </trkpt>
      <trkpt lat="42.6211124472320079803466796875" lon="19.893506057560443878173828125">
        <ele>1630</ele>
        <time>2026-06-16T11:30:20.000Z</time>
        <extensions>
          <ns3:TrackPointExtension>
            <ns3:atemp>19.0</ns3:atemp>
          </ns3:TrackPointExtension>
        </extensions>
      </trkpt>
      <trkpt lat="42.6211124472320079803466796875" lon="19.893506057560443878173828125">
        <ele>1630</ele>
        <time>2026-06-16T11:30:21.000Z</time>
        <extensions>
          <ns3:TrackPointExtension>
            <ns3:atemp>19.0</ns3:atemp>
          </ns3:TrackPointExtension>
        </extensions>
      </trkpt>
      <trkpt lat="42.62111068703234195709228515625" lon="19.8935045488178730010986328125">
        <ele>1629.800048828125</ele>
        <time>2026-06-16T11:30:22.000Z</time>
        <extensions>
          <ns3:TrackPointExtension>
            <ns3:atemp>19.0</ns3:atemp>
          </ns3:TrackPointExtension>
        </extensions>
      </trkpt>
      <trkpt lat="42.6210750639438629150390625" lon="19.8934958316385746002197265625">
        <ele>1629.800048828125</ele>
        <time>2026-06-16T11:30:23.000Z</time>
        <extensions>
          <ns3:TrackPointExtension>
            <ns3:atemp>19.0</ns3:atemp>
          </ns3:TrackPointExtension>
        </extensions>
      </trkpt>
      <trkpt lat="42.62104799039661884307861328125" lon="19.89348585717380046844482421875">
        <ele>1629.4000244140625</ele>
        <time>2026-06-16T11:30:24.000Z</time>
        <extensions>
          <ns3:TrackPointExtension>
            <ns3:atemp>19.0</ns3:atemp>
          </ns3:TrackPointExtension>
        </extensions>
      </trkpt>
      <trkpt lat="42.62102234177291393280029296875" lon="19.89349809475243091583251953125">
        <ele>1629.199951171875</ele>
        <time>2026-06-16T11:30:25.000Z</time>
        <extensions>
          <ns3:TrackPointExtension>
            <ns3:atemp>19.0</ns3:atemp>
          </ns3:TrackPointExtension>
        </extensions>
      </trkpt>
      <trkpt lat="42.6209940947592258453369140625" lon="19.8935132659971714019775390625">
        <ele>1628.5999755859375</ele>
        <time>2026-06-16T11:30:26.000Z</time>
        <extensions>
          <ns3:TrackPointExtension>
            <ns3:atemp>19.0</ns3:atemp>
          </ns3:TrackPointExtension>
        </extensions>
      </trkpt>
      <trkpt lat="42.62097389437258243560791015625" lon="19.89353262819349765777587890625">
        <ele>1628</ele>
        <time>2026-06-16T11:30:27.000Z</time>
        <extensions>
          <ns3:TrackPointExtension>
            <ns3:atemp>19.0</ns3:atemp>
          </ns3:TrackPointExtension>
        </extensions>
      </trkpt>
      <trkpt lat="42.62094556353986263275146484375" lon="19.89355006255209445953369140625">
        <ele>1627.199951171875</ele>
        <time>2026-06-16T11:30:28.000Z</time>
        <extensions>
          <ns3:TrackPointExtension>
            <ns3:atemp>19.0</ns3:atemp>
          </ns3:TrackPointExtension>
        </extensions>
      </trkpt>
      <trkpt lat="42.62091136537492275238037109375" lon="19.8935494758188724517822265625">
        <ele>1626.5999755859375</ele>
        <time>2026-06-16T11:30:29.000Z</time>
        <extensions>
          <ns3:TrackPointExtension>
            <ns3:atemp>19.0</ns3:atemp>
          </ns3:TrackPointExtension>
        </extensions>
      </trkpt>
      <trkpt lat="42.62087725102901458740234375" lon="19.89354939199984073638916015625">
        <ele>1625.800048828125</ele>
        <time>2026-06-16T11:30:30.000Z</time>
        <extensions>
          <ns3:TrackPointExtension>
            <ns3:atemp>19.0</ns3:atemp>
          </ns3:TrackPointExtension>
        </extensions>
      </trkpt>
      <trkpt lat="42.62084917165338993072509765625" lon="19.89355207420885562896728515625">
        <ele>1625.199951171875</ele>
        <time>2026-06-16T11:30:31.000Z</time>
        <extensions>
          <ns3:TrackPointExtension>
            <ns3:atemp>19.0</ns3:atemp>
          </ns3:TrackPointExtension>
        </extensions>
      </trkpt>
      <trkpt lat="42.6208304800093173980712890625" lon="19.8935682512819766998291015625">
        <ele>1624.4000244140625</ele>
        <time>2026-06-16T11:30:32.000Z</time>
        <extensions>
          <ns3:TrackPointExtension>
            <ns3:atemp>19.0</ns3:atemp>
          </ns3:TrackPointExtension>
        </extensions>
      </trkpt>
      <trkpt lat="42.62081564404070377349853515625" lon="19.89359281025826930999755859375">
        <ele>1623.5999755859375</ele>
        <time>2026-06-16T11:30:33.000Z</time>
        <extensions>
          <ns3:TrackPointExtension>
            <ns3:atemp>19.0</ns3:atemp>
          </ns3:TrackPointExtension>
        </extensions>
      </trkpt>
      <trkpt lat="42.6208070106804370880126953125" lon="19.89361225627362728118896484375">
        <ele>1622.800048828125</ele>
        <time>2026-06-16T11:30:34.000Z</time>
        <extensions>
          <ns3:TrackPointExtension>
            <ns3:atemp>19.0</ns3:atemp>
          </ns3:TrackPointExtension>
        </extensions>
      </trkpt>
      <trkpt lat="42.62078966014087200164794921875" lon="19.89362566731870174407958984375">
        <ele>1622</ele>
        <time>2026-06-16T11:30:35.000Z</time>
        <extensions>
          <ns3:TrackPointExtension>
            <ns3:atemp>19.0</ns3:atemp>
          </ns3:TrackPointExtension>
        </extensions>
      </trkpt>
      <trkpt lat="42.62076786719262599945068359375" lon="19.89363036118447780609130859375">
        <ele>1621.4000244140625</ele>
        <time>2026-06-16T11:30:36.000Z</time>
        <extensions>
          <ns3:TrackPointExtension>
            <ns3:atemp>19.0</ns3:atemp>
          </ns3:TrackPointExtension>
        </extensions>
      </trkpt>
      <trkpt lat="42.62074339203536510467529296875" lon="19.8936292715370655059814453125">
        <ele>1620.5999755859375</ele>
        <time>2026-06-16T11:30:37.000Z</time>
        <extensions>
          <ns3:TrackPointExtension>
            <ns3:atemp>19.0</ns3:atemp>
          </ns3:TrackPointExtension>
        </extensions>
      </trkpt>
      <trkpt lat="42.62071623466908931732177734375" lon="19.89362214691936969757080078125">
        <ele>1619.800048828125</ele>
        <time>2026-06-16T11:30:38.000Z</time>
        <extensions>
          <ns3:TrackPointExtension>
            <ns3:atemp>19.0</ns3:atemp>
          </ns3:TrackPointExtension>
        </extensions>
      </trkpt>
      <trkpt lat="42.62068547308444976806640625" lon="19.89362038671970367431640625">
        <ele>1619.199951171875</ele>
        <time>2026-06-16T11:30:39.000Z</time>
        <extensions>
          <ns3:TrackPointExtension>
            <ns3:atemp>19.0</ns3:atemp>
          </ns3:TrackPointExtension>
        </extensions>
      </trkpt>
      <trkpt lat="42.62064867652952671051025390625" lon="19.89361091516911983489990234375">
        <ele>1618.4000244140625</ele>
        <time>2026-06-16T11:30:40.000Z</time>
        <extensions>
          <ns3:TrackPointExtension>
            <ns3:atemp>19.0</ns3:atemp>
          </ns3:TrackPointExtension>
        </extensions>
      </trkpt>
      <trkpt lat="42.62062671594321727752685546875" lon="19.8935937322676181793212890625">
        <ele>1617.800048828125</ele>
        <time>2026-06-16T11:30:41.000Z</time>
        <extensions>
          <ns3:TrackPointExtension>
            <ns3:atemp>19.0</ns3:atemp>
          </ns3:TrackPointExtension>
        </extensions>
      </trkpt>
      <trkpt lat="42.62061380781233310699462890625" lon="19.8935769684612751007080078125">
        <ele>1617.4000244140625</ele>
        <time>2026-06-16T11:30:42.000Z</time>
        <extensions>
          <ns3:TrackPointExtension>
            <ns3:atemp>19.0</ns3:atemp>
          </ns3:TrackPointExtension>
        </extensions>
      </trkpt>
      <trkpt lat="42.620602659881114959716796875" lon="19.89356028847396373748779296875">
        <ele>1617.199951171875</ele>
        <time>2026-06-16T11:30:43.000Z</time>
        <extensions>
          <ns3:TrackPointExtension>
            <ns3:atemp>19.0</ns3:atemp>
          </ns3:TrackPointExtension>
        </extensions>
      </trkpt>
      <trkpt lat="42.62058891355991363525390625" lon="19.8935484699904918670654296875">
        <ele>1617</ele>
        <time>2026-06-16T11:30:44.000Z</time>
        <extensions>
          <ns3:TrackPointExtension>
            <ns3:atemp>19.0</ns3:atemp>
          </ns3:TrackPointExtension>
        </extensions>
      </trkpt>
      <trkpt lat="42.62057013809680938720703125" lon="19.893544614315032958984375">
        <ele>1616.800048828125</ele>
        <time>2026-06-16T11:30:45.000Z</time>
        <extensions>
          <ns3:TrackPointExtension>
            <ns3:atemp>19.0</ns3:atemp>
          </ns3:TrackPointExtension>
        </extensions>
      </trkpt>
      <trkpt lat="42.62054775841534137725830078125" lon="19.893547631800174713134765625">
        <ele>1616.5999755859375</ele>
        <time>2026-06-16T11:30:46.000Z</time>
        <extensions>
          <ns3:TrackPointExtension>
            <ns3:atemp>19.0</ns3:atemp>
          </ns3:TrackPointExtension>
        </extensions>
      </trkpt>
      <trkpt lat="42.620524875819683074951171875" lon="19.89356397651135921478271484375">
        <ele>1616.4000244140625</ele>
        <time>2026-06-16T11:30:47.000Z</time>
        <extensions>
          <ns3:TrackPointExtension>
            <ns3:atemp>19.0</ns3:atemp>
          </ns3:TrackPointExtension>
        </extensions>
      </trkpt>
      <trkpt lat="42.62050115503370761871337890625" lon="19.89357613027095794677734375">
        <ele>1616.199951171875</ele>
        <time>2026-06-16T11:30:48.000Z</time>
        <extensions>
          <ns3:TrackPointExtension>
            <ns3:atemp>19.0</ns3:atemp>
          </ns3:TrackPointExtension>
        </extensions>
      </trkpt>
      <trkpt lat="42.6204744167625904083251953125" lon="19.893592558801174163818359375">
        <ele>1616</ele>
        <time>2026-06-16T11:30:49.000Z</time>
        <extensions>
          <ns3:TrackPointExtension>
            <ns3:atemp>19.0</ns3:atemp>
          </ns3:TrackPointExtension>
        </extensions>
      </trkpt>
      <trkpt lat="42.62044608592987060546875" lon="19.8936084844172000885009765625">
        <ele>1615.5999755859375</ele>
        <time>2026-06-16T11:30:50.000Z</time>
        <extensions>
          <ns3:TrackPointExtension>
            <ns3:atemp>19.0</ns3:atemp>
          </ns3:TrackPointExtension>
        </extensions>
      </trkpt>
      <trkpt lat="42.62040811590850353240966796875" lon="19.89362063817679882049560546875">
        <ele>1615.199951171875</ele>
        <time>2026-06-16T11:30:51.000Z</time>
        <extensions>
          <ns3:TrackPointExtension>
            <ns3:atemp>19.0</ns3:atemp>
          </ns3:TrackPointExtension>
        </extensions>
      </trkpt>
      <trkpt lat="42.62037157081067562103271484375" lon="19.8936316184699535369873046875">
        <ele>1615</ele>
        <time>2026-06-16T11:30:52.000Z</time>
        <extensions>
          <ns3:TrackPointExtension>
            <ns3:atemp>19.0</ns3:atemp>
          </ns3:TrackPointExtension>
        </extensions>
      </trkpt>
      <trkpt lat="42.620345167815685272216796875" lon="19.8936420120298862457275390625">
        <ele>1614.4000244140625</ele>
        <time>2026-06-16T11:30:53.000Z</time>
        <extensions>
          <ns3:TrackPointExtension>
            <ns3:atemp>19.0</ns3:atemp>
          </ns3:TrackPointExtension>
        </extensions>
      </trkpt>
      <trkpt lat="42.6203342713415622711181640625" lon="19.8936524055898189544677734375">
        <ele>1614</ele>
        <time>2026-06-16T11:30:54.000Z</time>
        <extensions>
          <ns3:TrackPointExtension>
            <ns3:atemp>19.0</ns3:atemp>
          </ns3:TrackPointExtension>
        </extensions>
      </trkpt>
      <trkpt lat="42.6203232072293758392333984375" lon="19.8936560936272144317626953125">
        <ele>1613.5999755859375</ele>
        <time>2026-06-16T11:30:55.000Z</time>
        <extensions>
          <ns3:TrackPointExtension>
            <ns3:atemp>19.0</ns3:atemp>
          </ns3:TrackPointExtension>
        </extensions>
      </trkpt>
      <trkpt lat="42.6203165017068386077880859375" lon="19.8936634697020053863525390625">
        <ele>1613.4000244140625</ele>
        <time>2026-06-16T11:30:56.000Z</time>
        <extensions>
          <ns3:TrackPointExtension>
            <ns3:atemp>19.0</ns3:atemp>
          </ns3:TrackPointExtension>
        </extensions>
      </trkpt>
      <trkpt lat="42.6203165017068386077880859375" lon="19.89366170950233936309814453125">
        <ele>1613.199951171875</ele>
        <time>2026-06-16T11:30:57.000Z</time>
        <extensions>
          <ns3:TrackPointExtension>
            <ns3:atemp>19.0</ns3:atemp>
          </ns3:TrackPointExtension>
        </extensions>
      </trkpt>
      <trkpt lat="42.620314992964267730712890625" lon="19.89365684799849987030029296875">
        <ele>1613</ele>
        <time>2026-06-16T11:30:58.000Z</time>
        <extensions>
          <ns3:TrackPointExtension>
            <ns3:atemp>19.0</ns3:atemp>
          </ns3:TrackPointExtension>
        </extensions>
      </trkpt>
      <trkpt lat="42.620314992964267730712890625" lon="19.89365684799849987030029296875">
        <ele>1612.800048828125</ele>
        <time>2026-06-16T11:30:59.000Z</time>
        <extensions>
          <ns3:TrackPointExtension>
            <ns3:atemp>19.0</ns3:atemp>
          </ns3:TrackPointExtension>
        </extensions>
      </trkpt>
      <trkpt lat="42.620314992964267730712890625" lon="19.89365684799849987030029296875">
        <ele>1612.5999755859375</ele>
        <time>2026-06-16T11:31:00.000Z</time>
        <extensions>
          <ns3:TrackPointExtension>
            <ns3:atemp>19.0</ns3:atemp>
          </ns3:TrackPointExtension>
        </extensions>
      </trkpt>
      <trkpt lat="42.620314992964267730712890625" lon="19.89365684799849987030029296875">
        <ele>1612.5999755859375</ele>
        <time>2026-06-16T11:31:01.000Z</time>
        <extensions>
          <ns3:TrackPointExtension>
            <ns3:atemp>19.0</ns3:atemp>
          </ns3:TrackPointExtension>
        </extensions>
      </trkpt>
      <trkpt lat="42.620314992964267730712890625" lon="19.89365684799849987030029296875">
        <ele>1612.5999755859375</ele>
        <time>2026-06-16T11:31:02.000Z</time>
        <extensions>
          <ns3:TrackPointExtension>
            <ns3:atemp>19.0</ns3:atemp>
          </ns3:TrackPointExtension>
        </extensions>
      </trkpt>
      <trkpt lat="42.620314992964267730712890625" lon="19.89365684799849987030029296875">
        <ele>1612.4000244140625</ele>
        <time>2026-06-16T11:31:03.000Z</time>
        <extensions>
          <ns3:TrackPointExtension>
            <ns3:atemp>19.0</ns3:atemp>
          </ns3:TrackPointExtension>
        </extensions>
      </trkpt>
      <trkpt lat="42.620314992964267730712890625" lon="19.89365684799849987030029296875">
        <ele>1612.4000244140625</ele>
        <time>2026-06-16T11:31:04.000Z</time>
        <extensions>
          <ns3:TrackPointExtension>
            <ns3:atemp>19.0</ns3:atemp>
          </ns3:TrackPointExtension>
        </extensions>
      </trkpt>
      <trkpt lat="42.620314992964267730712890625" lon="19.89365684799849987030029296875">
        <ele>1612.4000244140625</ele>
        <time>2026-06-16T11:31:05.000Z</time>
        <extensions>
          <ns3:TrackPointExtension>
            <ns3:atemp>19.0</ns3:atemp>
          </ns3:TrackPointExtension>
        </extensions>
      </trkpt>
      <trkpt lat="42.620314992964267730712890625" lon="19.89365684799849987030029296875">
        <ele>1612.199951171875</ele>
        <time>2026-06-16T11:31:06.000Z</time>
        <extensions>
          <ns3:TrackPointExtension>
            <ns3:atemp>19.0</ns3:atemp>
          </ns3:TrackPointExtension>
        </extensions>
      </trkpt>
      <trkpt lat="42.620314992964267730712890625" lon="19.89365684799849987030029296875">
        <ele>1612.199951171875</ele>
        <time>2026-06-16T11:31:07.000Z</time>
        <extensions>
          <ns3:TrackPointExtension>
            <ns3:atemp>19.0</ns3:atemp>
          </ns3:TrackPointExtension>
        </extensions>
      </trkpt>
      <trkpt lat="42.620314992964267730712890625" lon="19.89365684799849987030029296875">
        <ele>1612.199951171875</ele>
        <time>2026-06-16T11:31:08.000Z</time>
        <extensions>
          <ns3:TrackPointExtension>
            <ns3:atemp>19.0</ns3:atemp>
          </ns3:TrackPointExtension>
        </extensions>
      </trkpt>
      <trkpt lat="42.620314992964267730712890625" lon="19.89365684799849987030029296875">
        <ele>1612.199951171875</ele>
        <time>2026-06-16T11:31:09.000Z</time>
        <extensions>
          <ns3:TrackPointExtension>
            <ns3:atemp>19.0</ns3:atemp>
          </ns3:TrackPointExtension>
        </extensions>
      </trkpt>
      <trkpt lat="42.620314992964267730712890625" lon="19.89365684799849987030029296875">
        <ele>1612.199951171875</ele>
        <time>2026-06-16T11:31:10.000Z</time>
        <extensions>
          <ns3:TrackPointExtension>
            <ns3:atemp>19.0</ns3:atemp>
          </ns3:TrackPointExtension>
        </extensions>
      </trkpt>
      <trkpt lat="42.620314992964267730712890625" lon="19.89365684799849987030029296875">
        <ele>1612.199951171875</ele>
        <time>2026-06-16T11:31:11.000Z</time>
        <extensions>
          <ns3:TrackPointExtension>
            <ns3:atemp>19.0</ns3:atemp>
          </ns3:TrackPointExtension>
        </extensions>
      </trkpt>
      <trkpt lat="42.620314992964267730712890625" lon="19.89365684799849987030029296875">
        <ele>1612.199951171875</ele>
        <time>2026-06-16T11:31:12.000Z</time>
        <extensions>
          <ns3:TrackPointExtension>
            <ns3:atemp>19.0</ns3:atemp>
          </ns3:TrackPointExtension>
        </extensions>
      </trkpt>
      <trkpt lat="42.620314992964267730712890625" lon="19.89365684799849987030029296875">
        <ele>1612</ele>
        <time>2026-06-16T11:31:13.000Z</time>
        <extensions>
          <ns3:TrackPointExtension>
            <ns3:atemp>19.0</ns3:atemp>
          </ns3:TrackPointExtension>
        </extensions>
      </trkpt>
      <trkpt lat="42.620314992964267730712890625" lon="19.89365684799849987030029296875">
        <ele>1612</ele>
        <time>2026-06-16T11:31:14.000Z</time>
        <extensions>
          <ns3:TrackPointExtension>
            <ns3:atemp>19.0</ns3:atemp>
          </ns3:TrackPointExtension>
        </extensions>
      </trkpt>
      <trkpt lat="42.620314992964267730712890625" lon="19.89365684799849987030029296875">
        <ele>1611.800048828125</ele>
        <time>2026-06-16T11:31:15.000Z</time>
        <extensions>
          <ns3:TrackPointExtension>
            <ns3:atemp>19.0</ns3:atemp>
          </ns3:TrackPointExtension>
        </extensions>
      </trkpt>
      <trkpt lat="42.620314992964267730712890625" lon="19.89365684799849987030029296875">
        <ele>1611.800048828125</ele>
        <time>2026-06-16T11:31:16.000Z</time>
        <extensions>
          <ns3:TrackPointExtension>
            <ns3:atemp>19.0</ns3:atemp>
          </ns3:TrackPointExtension>
        </extensions>
      </trkpt>
      <trkpt lat="42.620314992964267730712890625" lon="19.89365684799849987030029296875">
        <ele>1611.5999755859375</ele>
        <time>2026-06-16T11:31:17.000Z</time>
        <extensions>
          <ns3:TrackPointExtension>
            <ns3:atemp>19.0</ns3:atemp>
          </ns3:TrackPointExtension>
        </extensions>
      </trkpt>
      <trkpt lat="42.620314992964267730712890625" lon="19.89365684799849987030029296875">
        <ele>1611.5999755859375</ele>
        <time>2026-06-16T11:31:18.000Z</time>
        <extensions>
          <ns3:TrackPointExtension>
            <ns3:atemp>19.0</ns3:atemp>
          </ns3:TrackPointExtension>
        </extensions>
      </trkpt>
      <trkpt lat="42.620314992964267730712890625" lon="19.89365684799849987030029296875">
        <ele>1611.4000244140625</ele>
        <time>2026-06-16T11:31:19.000Z</time>
        <extensions>
          <ns3:TrackPointExtension>
            <ns3:atemp>18.0</ns3:atemp>
          </ns3:TrackPointExtension>
        </extensions>
      </trkpt>
      <trkpt lat="42.620314992964267730712890625" lon="19.89365684799849987030029296875">
        <ele>1611.4000244140625</ele>
        <time>2026-06-16T11:31:20.000Z</time>
        <extensions>
          <ns3:TrackPointExtension>
            <ns3:atemp>18.0</ns3:atemp>
          </ns3:TrackPointExtension>
        </extensions>
      </trkpt>
      <trkpt lat="42.620314992964267730712890625" lon="19.89365684799849987030029296875">
        <ele>1611.4000244140625</ele>
        <time>2026-06-16T11:31:21.000Z</time>
        <extensions>
          <ns3:TrackPointExtension>
            <ns3:atemp>18.0</ns3:atemp>
          </ns3:TrackPointExtension>
        </extensions>
      </trkpt>
      <trkpt lat="42.620314992964267730712890625" lon="19.89365684799849987030029296875">
        <ele>1611.199951171875</ele>
        <time>2026-06-16T11:31:22.000Z</time>
        <extensions>
          <ns3:TrackPointExtension>
            <ns3:atemp>18.0</ns3:atemp>
          </ns3:TrackPointExtension>
        </extensions>
      </trkpt>
      <trkpt lat="42.620314992964267730712890625" lon="19.89365684799849987030029296875">
        <ele>1611.199951171875</ele>
        <time>2026-06-16T11:31:23.000Z</time>
        <extensions>
          <ns3:TrackPointExtension>
            <ns3:atemp>18.0</ns3:atemp>
          </ns3:TrackPointExtension>
        </extensions>
      </trkpt>
      <trkpt lat="42.620314992964267730712890625" lon="19.89365684799849987030029296875">
        <ele>1611</ele>
        <time>2026-06-16T11:31:24.000Z</time>
        <extensions>
          <ns3:TrackPointExtension>
            <ns3:atemp>18.0</ns3:atemp>
          </ns3:TrackPointExtension>
        </extensions>
      </trkpt>
      <trkpt lat="42.620314992964267730712890625" lon="19.89365684799849987030029296875">
        <ele>1611</ele>
        <time>2026-06-16T11:31:25.000Z</time>
        <extensions>
          <ns3:TrackPointExtension>
            <ns3:atemp>18.0</ns3:atemp>
          </ns3:TrackPointExtension>
        </extensions>
      </trkpt>
      <trkpt lat="42.620314992964267730712890625" lon="19.89365684799849987030029296875">
        <ele>1611</ele>
        <time>2026-06-16T11:31:26.000Z</time>
        <extensions>
          <ns3:TrackPointExtension>
            <ns3:atemp>18.0</ns3:atemp>
          </ns3:TrackPointExtension>
        </extensions>
      </trkpt>
      <trkpt lat="42.620314992964267730712890625" lon="19.89365684799849987030029296875">
        <ele>1611</ele>
        <time>2026-06-16T11:31:27.000Z</time>
        <extensions>
          <ns3:TrackPointExtension>
            <ns3:atemp>18.0</ns3:atemp>
          </ns3:TrackPointExtension>
        </extensions>
      </trkpt>
      <trkpt lat="42.620314992964267730712890625" lon="19.89365684799849987030029296875">
        <ele>1611</ele>
        <time>2026-06-16T11:31:28.000Z</time>
        <extensions>
          <ns3:TrackPointExtension>
            <ns3:atemp>18.0</ns3:atemp>
          </ns3:TrackPointExtension>
        </extensions>
      </trkpt>
      <trkpt lat="42.620314992964267730712890625" lon="19.89365684799849987030029296875">
        <ele>1611</ele>
        <time>2026-06-16T11:31:29.000Z</time>
        <extensions>
          <ns3:TrackPointExtension>
            <ns3:atemp>18.0</ns3:atemp>
          </ns3:TrackPointExtension>
        </extensions>
      </trkpt>
      <trkpt lat="42.620314992964267730712890625" lon="19.89365684799849987030029296875">
        <ele>1611</ele>
        <time>2026-06-16T11:31:30.000Z</time>
        <extensions>
          <ns3:TrackPointExtension>
            <ns3:atemp>18.0</ns3:atemp>
          </ns3:TrackPointExtension>
        </extensions>
      </trkpt>
      <trkpt lat="42.620314992964267730712890625" lon="19.89365684799849987030029296875">
        <ele>1611</ele>
        <time>2026-06-16T11:31:31.000Z</time>
        <extensions>
          <ns3:TrackPointExtension>
            <ns3:atemp>18.0</ns3:atemp>
          </ns3:TrackPointExtension>
        </extensions>
      </trkpt>
      <trkpt lat="42.620314992964267730712890625" lon="19.89365684799849987030029296875">
        <ele>1611</ele>
        <time>2026-06-16T11:31:32.000Z</time>
        <extensions>
          <ns3:TrackPointExtension>
            <ns3:atemp>18.0</ns3:atemp>
          </ns3:TrackPointExtension>
        </extensions>
      </trkpt>
      <trkpt lat="42.620314992964267730712890625" lon="19.89365684799849987030029296875">
        <ele>1611</ele>
        <time>2026-06-16T11:31:33.000Z</time>
        <extensions>
          <ns3:TrackPointExtension>
            <ns3:atemp>18.0</ns3:atemp>
          </ns3:TrackPointExtension>
        </extensions>
      </trkpt>
      <trkpt lat="42.620314992964267730712890625" lon="19.89365684799849987030029296875">
        <ele>1611</ele>
        <time>2026-06-16T11:31:34.000Z</time>
        <extensions>
          <ns3:TrackPointExtension>
            <ns3:atemp>18.0</ns3:atemp>
          </ns3:TrackPointExtension>
        </extensions>
      </trkpt>
      <trkpt lat="42.62031733989715576171875" lon="19.89365701563656330108642578125">
        <ele>1611</ele>
        <time>2026-06-16T11:31:35.000Z</time>
        <extensions>
          <ns3:TrackPointExtension>
            <ns3:atemp>19.0</ns3:atemp>
          </ns3:TrackPointExtension>
        </extensions>
      </trkpt>
      <trkpt lat="42.620314992964267730712890625" lon="19.89365684799849987030029296875">
        <ele>1610.800048828125</ele>
        <time>2026-06-16T11:31:36.000Z</time>
        <extensions>
          <ns3:TrackPointExtension>
            <ns3:atemp>18.0</ns3:atemp>
          </ns3:TrackPointExtension>
        </extensions>
      </trkpt>
      <trkpt lat="42.620314992964267730712890625" lon="19.89365684799849987030029296875">
        <ele>1610.800048828125</ele>
        <time>2026-06-16T11:31:37.000Z</time>
        <extensions>
          <ns3:TrackPointExtension>
            <ns3:atemp>18.0</ns3:atemp>
          </ns3:TrackPointExtension>
        </extensions>
      </trkpt>
      <trkpt lat="42.620314992964267730712890625" lon="19.89365684799849987030029296875">
        <ele>1610.800048828125</ele>
        <time>2026-06-16T11:31:38.000Z</time>
        <extensions>
          <ns3:TrackPointExtension>
            <ns3:atemp>18.0</ns3:atemp>
          </ns3:TrackPointExtension>
        </extensions>
      </trkpt>
      <trkpt lat="42.620314992964267730712890625" lon="19.89365684799849987030029296875">
        <ele>1610.800048828125</ele>
        <time>2026-06-16T11:31:39.000Z</time>
        <extensions>
          <ns3:TrackPointExtension>
            <ns3:atemp>18.0</ns3:atemp>
          </ns3:TrackPointExtension>
        </extensions>
      </trkpt>
      <trkpt lat="42.620314992964267730712890625" lon="19.89365684799849987030029296875">
        <ele>1610.800048828125</ele>
        <time>2026-06-16T11:31:40.000Z</time>
        <extensions>
          <ns3:TrackPointExtension>
            <ns3:atemp>18.0</ns3:atemp>
          </ns3:TrackPointExtension>
        </extensions>
      </trkpt>
      <trkpt lat="42.620314992964267730712890625" lon="19.89365684799849987030029296875">
        <ele>1610.800048828125</ele>
        <time>2026-06-16T11:31:41.000Z</time>
        <extensions>
          <ns3:TrackPointExtension>
            <ns3:atemp>18.0</ns3:atemp>
          </ns3:TrackPointExtension>
        </extensions>
      </trkpt>
      <trkpt lat="42.620314992964267730712890625" lon="19.89365684799849987030029296875">
        <ele>1611</ele>
        <time>2026-06-16T11:31:42.000Z</time>
        <extensions>
          <ns3:TrackPointExtension>
            <ns3:atemp>18.0</ns3:atemp>
          </ns3:TrackPointExtension>
        </extensions>
      </trkpt>
      <trkpt lat="42.620314992964267730712890625" lon="19.89365684799849987030029296875">
        <ele>1611</ele>
        <time>2026-06-16T11:31:43.000Z</time>
        <extensions>
          <ns3:TrackPointExtension>
            <ns3:atemp>18.0</ns3:atemp>
          </ns3:TrackPointExtension>
        </extensions>
      </trkpt>
      <trkpt lat="42.620314992964267730712890625" lon="19.89365684799849987030029296875">
        <ele>1611</ele>
        <time>2026-06-16T11:31:44.000Z</time>
        <extensions>
          <ns3:TrackPointExtension>
            <ns3:atemp>18.0</ns3:atemp>
          </ns3:TrackPointExtension>
        </extensions>
      </trkpt>
      <trkpt lat="42.620314992964267730712890625" lon="19.89365684799849987030029296875">
        <ele>1611</ele>
        <time>2026-06-16T11:31:45.000Z</time>
        <extensions>
          <ns3:TrackPointExtension>
            <ns3:atemp>18.0</ns3:atemp>
          </ns3:TrackPointExtension>
        </extensions>
      </trkpt>
      <trkpt lat="42.620314992964267730712890625" lon="19.89365684799849987030029296875">
        <ele>1611</ele>
        <time>2026-06-16T11:31:46.000Z</time>
        <extensions>
          <ns3:TrackPointExtension>
            <ns3:atemp>18.0</ns3:atemp>
          </ns3:TrackPointExtension>
        </extensions>
      </trkpt>
      <trkpt lat="42.620314992964267730712890625" lon="19.89365684799849987030029296875">
        <ele>1611</ele>
        <time>2026-06-16T11:31:47.000Z</time>
        <extensions>
          <ns3:TrackPointExtension>
            <ns3:atemp>18.0</ns3:atemp>
          </ns3:TrackPointExtension>
        </extensions>
      </trkpt>
      <trkpt lat="42.620314992964267730712890625" lon="19.89365684799849987030029296875">
        <ele>1610.800048828125</ele>
        <time>2026-06-16T11:31:48.000Z</time>
        <extensions>
          <ns3:TrackPointExtension>
            <ns3:atemp>18.0</ns3:atemp>
          </ns3:TrackPointExtension>
        </extensions>
      </trkpt>
      <trkpt lat="42.620314992964267730712890625" lon="19.89365684799849987030029296875">
        <ele>1610.800048828125</ele>
        <time>2026-06-16T11:31:49.000Z</time>
        <extensions>
          <ns3:TrackPointExtension>
            <ns3:atemp>18.0</ns3:atemp>
          </ns3:TrackPointExtension>
        </extensions>
      </trkpt>
      <trkpt lat="42.620314992964267730712890625" lon="19.89365684799849987030029296875">
        <ele>1610.800048828125</ele>
        <time>2026-06-16T11:31:50.000Z</time>
        <extensions>
          <ns3:TrackPointExtension>
            <ns3:atemp>18.0</ns3:atemp>
          </ns3:TrackPointExtension>
        </extensions>
      </trkpt>
      <trkpt lat="42.620314992964267730712890625" lon="19.89365684799849987030029296875">
        <ele>1610.800048828125</ele>
        <time>2026-06-16T11:31:51.000Z</time>
        <extensions>
          <ns3:TrackPointExtension>
            <ns3:atemp>18.0</ns3:atemp>
          </ns3:TrackPointExtension>
        </extensions>
      </trkpt>
      <trkpt lat="42.620314992964267730712890625" lon="19.89365684799849987030029296875">
        <ele>1610.5999755859375</ele>
        <time>2026-06-16T11:31:52.000Z</time>
        <extensions>
          <ns3:TrackPointExtension>
            <ns3:atemp>18.0</ns3:atemp>
          </ns3:TrackPointExtension>
        </extensions>
      </trkpt>
      <trkpt lat="42.620314992964267730712890625" lon="19.89365684799849987030029296875">
        <ele>1610.5999755859375</ele>
        <time>2026-06-16T11:31:53.000Z</time>
        <extensions>
          <ns3:TrackPointExtension>
            <ns3:atemp>18.0</ns3:atemp>
          </ns3:TrackPointExtension>
        </extensions>
      </trkpt>
      <trkpt lat="42.620314992964267730712890625" lon="19.89365684799849987030029296875">
        <ele>1610.5999755859375</ele>
        <time>2026-06-16T11:31:54.000Z</time>
        <extensions>
          <ns3:TrackPointExtension>
            <ns3:atemp>18.0</ns3:atemp>
          </ns3:TrackPointExtension>
        </extensions>
      </trkpt>
      <trkpt lat="42.620314992964267730712890625" lon="19.89365684799849987030029296875">
        <ele>1610.4000244140625</ele>
        <time>2026-06-16T11:31:55.000Z</time>
        <extensions>
          <ns3:TrackPointExtension>
            <ns3:atemp>18.0</ns3:atemp>
          </ns3:TrackPointExtension>
        </extensions>
      </trkpt>
      <trkpt lat="42.620314992964267730712890625" lon="19.89365684799849987030029296875">
        <ele>1610.4000244140625</ele>
        <time>2026-06-16T11:31:56.000Z</time>
        <extensions>
          <ns3:TrackPointExtension>
            <ns3:atemp>18.0</ns3:atemp>
          </ns3:TrackPointExtension>
        </extensions>
      </trkpt>
      <trkpt lat="42.620314992964267730712890625" lon="19.89365684799849987030029296875">
        <ele>1610.4000244140625</ele>
        <time>2026-06-16T11:31:57.000Z</time>
        <extensions>
          <ns3:TrackPointExtension>
            <ns3:atemp>18.0</ns3:atemp>
          </ns3:TrackPointExtension>
        </extensions>
      </trkpt>
      <trkpt lat="42.620314992964267730712890625" lon="19.89365684799849987030029296875">
        <ele>1610.4000244140625</ele>
        <time>2026-06-16T11:31:58.000Z</time>
        <extensions>
          <ns3:TrackPointExtension>
            <ns3:atemp>18.0</ns3:atemp>
          </ns3:TrackPointExtension>
        </extensions>
      </trkpt>
      <trkpt lat="42.620314992964267730712890625" lon="19.89365684799849987030029296875">
        <ele>1610.199951171875</ele>
        <time>2026-06-16T11:31:59.000Z</time>
        <extensions>
          <ns3:TrackPointExtension>
            <ns3:atemp>18.0</ns3:atemp>
          </ns3:TrackPointExtension>
        </extensions>
      </trkpt>
      <trkpt lat="42.620314992964267730712890625" lon="19.89365684799849987030029296875">
        <ele>1610.199951171875</ele>
        <time>2026-06-16T11:32:00.000Z</time>
        <extensions>
          <ns3:TrackPointExtension>
            <ns3:atemp>18.0</ns3:atemp>
          </ns3:TrackPointExtension>
        </extensions>
      </trkpt>
      <trkpt lat="42.620314992964267730712890625" lon="19.89365684799849987030029296875">
        <ele>1610.199951171875</ele>
        <time>2026-06-16T11:32:01.000Z</time>
        <extensions>
          <ns3:TrackPointExtension>
            <ns3:atemp>18.0</ns3:atemp>
          </ns3:TrackPointExtension>
        </extensions>
      </trkpt>
      <trkpt lat="42.620314992964267730712890625" lon="19.89365684799849987030029296875">
        <ele>1610</ele>
        <time>2026-06-16T11:32:02.000Z</time>
        <extensions>
          <ns3:TrackPointExtension>
            <ns3:atemp>18.0</ns3:atemp>
          </ns3:TrackPointExtension>
        </extensions>
      </trkpt>
      <trkpt lat="42.620314992964267730712890625" lon="19.89365684799849987030029296875">
        <ele>1610</ele>
        <time>2026-06-16T11:32:03.000Z</time>
        <extensions>
          <ns3:TrackPointExtension>
            <ns3:atemp>18.0</ns3:atemp>
          </ns3:TrackPointExtension>
        </extensions>
      </trkpt>
      <trkpt lat="42.620314992964267730712890625" lon="19.89365684799849987030029296875">
        <ele>1610</ele>
        <time>2026-06-16T11:32:04.000Z</time>
        <extensions>
          <ns3:TrackPointExtension>
            <ns3:atemp>18.0</ns3:atemp>
          </ns3:TrackPointExtension>
        </extensions>
      </trkpt>
      <trkpt lat="42.620314992964267730712890625" lon="19.89365684799849987030029296875">
        <ele>1609.800048828125</ele>
        <time>2026-06-16T11:32:05.000Z</time>
        <extensions>
          <ns3:TrackPointExtension>
            <ns3:atemp>18.0</ns3:atemp>
          </ns3:TrackPointExtension>
        </extensions>
      </trkpt>
      <trkpt lat="42.62031742371618747711181640625" lon="19.89365902729332447052001953125">
        <ele>1609.800048828125</ele>
        <time>2026-06-16T11:32:06.000Z</time>
        <extensions>
          <ns3:TrackPointExtension>
            <ns3:atemp>18.0</ns3:atemp>
          </ns3:TrackPointExtension>
        </extensions>
      </trkpt>
      <trkpt lat="42.6203017495572566986083984375" lon="19.893675707280635833740234375">
        <ele>1609.800048828125</ele>
        <time>2026-06-16T11:32:07.000Z</time>
        <extensions>
          <ns3:TrackPointExtension>
            <ns3:atemp>18.0</ns3:atemp>
          </ns3:TrackPointExtension>
        </extensions>
      </trkpt>
      <trkpt lat="42.6202973909676074981689453125" lon="19.89369138143956661224365234375">
        <ele>1609.5999755859375</ele>
        <time>2026-06-16T11:32:08.000Z</time>
        <extensions>
          <ns3:TrackPointExtension>
            <ns3:atemp>18.0</ns3:atemp>
          </ns3:TrackPointExtension>
        </extensions>
      </trkpt>
      <trkpt lat="42.62029521167278289794921875" lon="19.89370822906494140625">
        <ele>1609.4000244140625</ele>
        <time>2026-06-16T11:32:09.000Z</time>
        <extensions>
          <ns3:TrackPointExtension>
            <ns3:atemp>18.0</ns3:atemp>
          </ns3:TrackPointExtension>
        </extensions>
      </trkpt>
      <trkpt lat="42.62029395438730716705322265625" lon="19.89371987991034984588623046875">
        <ele>1609.4000244140625</ele>
        <time>2026-06-16T11:32:10.000Z</time>
        <extensions>
          <ns3:TrackPointExtension>
            <ns3:atemp>18.0</ns3:atemp>
          </ns3:TrackPointExtension>
        </extensions>
      </trkpt>
      <trkpt lat="42.6202926971018314361572265625" lon="19.89373530261218547821044921875">
        <ele>1609.199951171875</ele>
        <time>2026-06-16T11:32:11.000Z</time>
        <extensions>
          <ns3:TrackPointExtension>
            <ns3:atemp>18.0</ns3:atemp>
          </ns3:TrackPointExtension>
        </extensions>
      </trkpt>
      <trkpt lat="42.6202896796166896820068359375" lon="19.89375877194106578826904296875">
        <ele>1609</ele>
        <time>2026-06-16T11:32:12.000Z</time>
        <extensions>
          <ns3:TrackPointExtension>
            <ns3:atemp>18.0</ns3:atemp>
          </ns3:TrackPointExtension>
        </extensions>
      </trkpt>
      <trkpt lat="42.62027836404740810394287109375" lon="19.89378710277378559112548828125">
        <ele>1608.5999755859375</ele>
        <time>2026-06-16T11:32:13.000Z</time>
        <extensions>
          <ns3:TrackPointExtension>
            <ns3:atemp>18.0</ns3:atemp>
          </ns3:TrackPointExtension>
        </extensions>
      </trkpt>
      <trkpt lat="42.62027249671518802642822265625" lon="19.89381593652069568634033203125">
        <ele>1608.4000244140625</ele>
        <time>2026-06-16T11:32:14.000Z</time>
        <extensions>
          <ns3:TrackPointExtension>
            <ns3:atemp>18.0</ns3:atemp>
          </ns3:TrackPointExtension>
        </extensions>
      </trkpt>
      <trkpt lat="42.62026193551719188690185546875" lon="19.8938448540866374969482421875">
        <ele>1608.4000244140625</ele>
        <time>2026-06-16T11:32:15.000Z</time>
        <extensions>
          <ns3:TrackPointExtension>
            <ns3:atemp>18.0</ns3:atemp>
          </ns3:TrackPointExtension>
        </extensions>
      </trkpt>
      <trkpt lat="42.62025891803205013275146484375" lon="19.8938812315464019775390625">
        <ele>1608.199951171875</ele>
        <time>2026-06-16T11:32:16.000Z</time>
        <extensions>
          <ns3:TrackPointExtension>
            <ns3:atemp>18.0</ns3:atemp>
          </ns3:TrackPointExtension>
        </extensions>
      </trkpt>
      <trkpt lat="42.62026243843138217926025390625" lon="19.89391065202653408050537109375">
        <ele>1608.4000244140625</ele>
        <time>2026-06-16T11:32:17.000Z</time>
        <extensions>
          <ns3:TrackPointExtension>
            <ns3:atemp>18.0</ns3:atemp>
          </ns3:TrackPointExtension>
        </extensions>
      </trkpt>
      <trkpt lat="42.620261348783969879150390625" lon="19.89393210969865322113037109375">
        <ele>1608.4000244140625</ele>
        <time>2026-06-16T11:32:18.000Z</time>
        <extensions>
          <ns3:TrackPointExtension>
            <ns3:atemp>18.0</ns3:atemp>
          </ns3:TrackPointExtension>
        </extensions>
      </trkpt>
      <trkpt lat="42.6202578283846378326416015625" lon="19.893950633704662322998046875">
        <ele>1608.5999755859375</ele>
        <time>2026-06-16T11:32:19.000Z</time>
        <extensions>
          <ns3:TrackPointExtension>
            <ns3:atemp>18.0</ns3:atemp>
          </ns3:TrackPointExtension>
        </extensions>
      </trkpt>
      <trkpt lat="42.6202554814517498016357421875" lon="19.893971420824527740478515625">
        <ele>1608.800048828125</ele>
        <time>2026-06-16T11:32:20.000Z</time>
        <extensions>
          <ns3:TrackPointExtension>
            <ns3:atemp>18.0</ns3:atemp>
          </ns3:TrackPointExtension>
        </extensions>
      </trkpt>
      <trkpt lat="42.62025137431919574737548828125" lon="19.893986843526363372802734375">
        <ele>1609.199951171875</ele>
        <time>2026-06-16T11:32:21.000Z</time>
        <extensions>
          <ns3:TrackPointExtension>
            <ns3:atemp>18.0</ns3:atemp>
          </ns3:TrackPointExtension>
        </extensions>
      </trkpt>
      <trkpt lat="42.6202450878918170928955078125" lon="19.893998242914676666259765625">
        <ele>1609.4000244140625</ele>
        <time>2026-06-16T11:32:22.000Z</time>
        <extensions>
          <ns3:TrackPointExtension>
            <ns3:atemp>18.0</ns3:atemp>
          </ns3:TrackPointExtension>
        </extensions>
      </trkpt>
      <trkpt lat="42.620234191417694091796875" lon="19.8940064571797847747802734375">
        <ele>1609.5999755859375</ele>
        <time>2026-06-16T11:32:23.000Z</time>
        <extensions>
          <ns3:TrackPointExtension>
            <ns3:atemp>18.0</ns3:atemp>
          </ns3:TrackPointExtension>
        </extensions>
      </trkpt>
      <trkpt lat="42.620225138962268829345703125" lon="19.89401760511100292205810546875">
        <ele>1609.800048828125</ele>
        <time>2026-06-16T11:32:24.000Z</time>
        <extensions>
          <ns3:TrackPointExtension>
            <ns3:atemp>18.0</ns3:atemp>
          </ns3:TrackPointExtension>
        </extensions>
      </trkpt>
      <trkpt lat="42.6202222891151905059814453125" lon="19.894030429422855377197265625">
        <ele>1609.800048828125</ele>
        <time>2026-06-16T11:32:25.000Z</time>
        <extensions>
          <ns3:TrackPointExtension>
            <ns3:atemp>18.0</ns3:atemp>
          </ns3:TrackPointExtension>
        </extensions>
      </trkpt>
      <trkpt lat="42.62021969072520732879638671875" lon="19.894053898751735687255859375">
        <ele>1610</ele>
        <time>2026-06-16T11:32:26.000Z</time>
        <extensions>
          <ns3:TrackPointExtension>
            <ns3:atemp>19.0</ns3:atemp>
          </ns3:TrackPointExtension>
        </extensions>
      </trkpt>
      <trkpt lat="42.62021583504974842071533203125" lon="19.89405834116041660308837890625">
        <ele>1610.199951171875</ele>
        <time>2026-06-16T11:32:27.000Z</time>
        <extensions>
          <ns3:TrackPointExtension>
            <ns3:atemp>18.0</ns3:atemp>
          </ns3:TrackPointExtension>
        </extensions>
      </trkpt>
      <trkpt lat="42.6202122308313846588134765625" lon="19.89406102336943149566650390625">
        <ele>1610.4000244140625</ele>
        <time>2026-06-16T11:32:28.000Z</time>
        <extensions>
          <ns3:TrackPointExtension>
            <ns3:atemp>18.0</ns3:atemp>
          </ns3:TrackPointExtension>
        </extensions>
      </trkpt>
      <trkpt lat="42.62021231465041637420654296875" lon="19.8940609395503997802734375">
        <ele>1610.5999755859375</ele>
        <time>2026-06-16T11:32:29.000Z</time>
        <extensions>
          <ns3:TrackPointExtension>
            <ns3:atemp>18.0</ns3:atemp>
          </ns3:TrackPointExtension>
        </extensions>
      </trkpt>
      <trkpt lat="42.62021231465041637420654296875" lon="19.8940609395503997802734375">
        <ele>1610.800048828125</ele>
        <time>2026-06-16T11:32:30.000Z</time>
        <extensions>
          <ns3:TrackPointExtension>
            <ns3:atemp>18.0</ns3:atemp>
          </ns3:TrackPointExtension>
        </extensions>
      </trkpt>
      <trkpt lat="42.62021231465041637420654296875" lon="19.8940609395503997802734375">
        <ele>1610.800048828125</ele>
        <time>2026-06-16T11:32:31.000Z</time>
        <extensions>
          <ns3:TrackPointExtension>
            <ns3:atemp>18.0</ns3:atemp>
          </ns3:TrackPointExtension>
        </extensions>
      </trkpt>
      <trkpt lat="42.62021231465041637420654296875" lon="19.8940609395503997802734375">
        <ele>1610.800048828125</ele>
        <time>2026-06-16T11:32:32.000Z</time>
        <extensions>
          <ns3:TrackPointExtension>
            <ns3:atemp>18.0</ns3:atemp>
          </ns3:TrackPointExtension>
        </extensions>
      </trkpt>
      <trkpt lat="42.62021231465041637420654296875" lon="19.8940609395503997802734375">
        <ele>1611</ele>
        <time>2026-06-16T11:32:33.000Z</time>
        <extensions>
          <ns3:TrackPointExtension>
            <ns3:atemp>19.0</ns3:atemp>
          </ns3:TrackPointExtension>
        </extensions>
      </trkpt>
      <trkpt lat="42.62021231465041637420654296875" lon="19.8940609395503997802734375">
        <ele>1611</ele>
        <time>2026-06-16T11:32:34.000Z</time>
        <extensions>
          <ns3:TrackPointExtension>
            <ns3:atemp>18.0</ns3:atemp>
          </ns3:TrackPointExtension>
        </extensions>
      </trkpt>
      <trkpt lat="42.62021231465041637420654296875" lon="19.8940609395503997802734375">
        <ele>1611</ele>
        <time>2026-06-16T11:32:35.000Z</time>
        <extensions>
          <ns3:TrackPointExtension>
            <ns3:atemp>18.0</ns3:atemp>
          </ns3:TrackPointExtension>
        </extensions>
      </trkpt>
      <trkpt lat="42.62021231465041637420654296875" lon="19.8940609395503997802734375">
        <ele>1611</ele>
        <time>2026-06-16T11:32:36.000Z</time>
        <extensions>
          <ns3:TrackPointExtension>
            <ns3:atemp>18.0</ns3:atemp>
          </ns3:TrackPointExtension>
        </extensions>
      </trkpt>
      <trkpt lat="42.62021214701235294342041015625" lon="19.89406026899814605712890625">
        <ele>1611</ele>
        <time>2026-06-16T11:32:37.000Z</time>
        <extensions>
          <ns3:TrackPointExtension>
            <ns3:atemp>18.0</ns3:atemp>
          </ns3:TrackPointExtension>
        </extensions>
      </trkpt>
      <trkpt lat="42.62021231465041637420654296875" lon="19.8940609395503997802734375">
        <ele>1611</ele>
        <time>2026-06-16T11:32:38.000Z</time>
        <extensions>
          <ns3:TrackPointExtension>
            <ns3:atemp>18.0</ns3:atemp>
          </ns3:TrackPointExtension>
        </extensions>
      </trkpt>
      <trkpt lat="42.62021231465041637420654296875" lon="19.8940609395503997802734375">
        <ele>1611</ele>
        <time>2026-06-16T11:32:39.000Z</time>
        <extensions>
          <ns3:TrackPointExtension>
            <ns3:atemp>18.0</ns3:atemp>
          </ns3:TrackPointExtension>
        </extensions>
      </trkpt>
      <trkpt lat="42.6202129013836383819580078125" lon="19.89405465312302112579345703125">
        <ele>1611</ele>
        <time>2026-06-16T11:32:40.000Z</time>
        <extensions>
          <ns3:TrackPointExtension>
            <ns3:atemp>18.0</ns3:atemp>
          </ns3:TrackPointExtension>
        </extensions>
      </trkpt>
      <trkpt lat="42.62021566741168498992919921875" lon="19.894075356423854827880859375">
        <ele>1611</ele>
        <time>2026-06-16T11:32:41.000Z</time>
        <extensions>
          <ns3:TrackPointExtension>
            <ns3:atemp>18.0</ns3:atemp>
          </ns3:TrackPointExtension>
        </extensions>
      </trkpt>
      <trkpt lat="42.62021969072520732879638671875" lon="19.89409287460148334503173828125">
        <ele>1611</ele>
        <time>2026-06-16T11:32:42.000Z</time>
        <extensions>
          <ns3:TrackPointExtension>
            <ns3:atemp>18.0</ns3:atemp>
          </ns3:TrackPointExtension>
        </extensions>
      </trkpt>
      <trkpt lat="42.62022119946777820587158203125" lon="19.89411014132201671600341796875">
        <ele>1610.800048828125</ele>
        <time>2026-06-16T11:32:43.000Z</time>
        <extensions>
          <ns3:TrackPointExtension>
            <ns3:atemp>19.0</ns3:atemp>
          </ns3:TrackPointExtension>
        </extensions>
      </trkpt>
      <trkpt lat="42.62022086419165134429931640625" lon="19.89410963840782642364501953125">
        <ele>1610.800048828125</ele>
        <time>2026-06-16T11:32:44.000Z</time>
        <extensions>
          <ns3:TrackPointExtension>
            <ns3:atemp>19.0</ns3:atemp>
          </ns3:TrackPointExtension>
        </extensions>
      </trkpt>
      <trkpt lat="42.6202209480106830596923828125" lon="19.8941097222268581390380859375">
        <ele>1611</ele>
        <time>2026-06-16T11:32:45.000Z</time>
        <extensions>
          <ns3:TrackPointExtension>
            <ns3:atemp>18.0</ns3:atemp>
          </ns3:TrackPointExtension>
        </extensions>
      </trkpt>
      <trkpt lat="42.6202209480106830596923828125" lon="19.8941097222268581390380859375">
        <ele>1611.199951171875</ele>
        <time>2026-06-16T11:32:46.000Z</time>
        <extensions>
          <ns3:TrackPointExtension>
            <ns3:atemp>18.0</ns3:atemp>
          </ns3:TrackPointExtension>
        </extensions>
      </trkpt>
      <trkpt lat="42.620221115648746490478515625" lon="19.89410997368395328521728515625">
        <ele>1611.4000244140625</ele>
        <time>2026-06-16T11:32:47.000Z</time>
        <extensions>
          <ns3:TrackPointExtension>
            <ns3:atemp>18.0</ns3:atemp>
          </ns3:TrackPointExtension>
        </extensions>
      </trkpt>
      <trkpt lat="42.6202209480106830596923828125" lon="19.8941097222268581390380859375">
        <ele>1611.5999755859375</ele>
        <time>2026-06-16T11:32:48.000Z</time>
        <extensions>
          <ns3:TrackPointExtension>
            <ns3:atemp>18.0</ns3:atemp>
          </ns3:TrackPointExtension>
        </extensions>
      </trkpt>
      <trkpt lat="42.62022488750517368316650390625" lon="19.89411550574004650115966796875">
        <ele>1611.800048828125</ele>
        <time>2026-06-16T11:32:49.000Z</time>
        <extensions>
          <ns3:TrackPointExtension>
            <ns3:atemp>18.0</ns3:atemp>
          </ns3:TrackPointExtension>
        </extensions>
      </trkpt>
      <trkpt lat="42.6202293299138545989990234375" lon="19.89411919377744197845458984375">
        <ele>1612</ele>
        <time>2026-06-16T11:32:50.000Z</time>
        <extensions>
          <ns3:TrackPointExtension>
            <ns3:atemp>18.0</ns3:atemp>
          </ns3:TrackPointExtension>
        </extensions>
      </trkpt>
      <trkpt lat="42.62023620307445526123046875" lon="19.89413277246057987213134765625">
        <ele>1612.199951171875</ele>
        <time>2026-06-16T11:32:51.000Z</time>
        <extensions>
          <ns3:TrackPointExtension>
            <ns3:atemp>19.0</ns3:atemp>
          </ns3:TrackPointExtension>
        </extensions>
      </trkpt>
      <trkpt lat="42.62024299241602420806884765625" lon="19.894147776067256927490234375">
        <ele>1612.199951171875</ele>
        <time>2026-06-16T11:32:52.000Z</time>
        <extensions>
          <ns3:TrackPointExtension>
            <ns3:atemp>19.0</ns3:atemp>
          </ns3:TrackPointExtension>
        </extensions>
      </trkpt>
      <trkpt lat="42.62025120668113231658935546875" lon="19.89415992982685565948486328125">
        <ele>1612.4000244140625</ele>
        <time>2026-06-16T11:32:53.000Z</time>
        <extensions>
          <ns3:TrackPointExtension>
            <ns3:atemp>19.0</ns3:atemp>
          </ns3:TrackPointExtension>
        </extensions>
      </trkpt>
      <trkpt lat="42.62025891803205013275146484375" lon="19.89416546188294887542724609375">
        <ele>1612.4000244140625</ele>
        <time>2026-06-16T11:32:54.000Z</time>
        <extensions>
          <ns3:TrackPointExtension>
            <ns3:atemp>19.0</ns3:atemp>
          </ns3:TrackPointExtension>
        </extensions>
      </trkpt>
      <trkpt lat="42.620265372097492218017578125" lon="19.8941764421761035919189453125">
        <ele>1612.5999755859375</ele>
        <time>2026-06-16T11:32:55.000Z</time>
        <extensions>
          <ns3:TrackPointExtension>
            <ns3:atemp>19.0</ns3:atemp>
          </ns3:TrackPointExtension>
        </extensions>
      </trkpt>
      <trkpt lat="42.6202695630490779876708984375" lon="19.8941895179450511932373046875">
        <ele>1612.800048828125</ele>
        <time>2026-06-16T11:32:56.000Z</time>
        <extensions>
          <ns3:TrackPointExtension>
            <ns3:atemp>19.0</ns3:atemp>
          </ns3:TrackPointExtension>
        </extensions>
      </trkpt>
      <trkpt lat="42.62027517892420291900634765625" lon="19.8942072875797748565673828125">
        <ele>1613</ele>
        <time>2026-06-16T11:32:57.000Z</time>
        <extensions>
          <ns3:TrackPointExtension>
            <ns3:atemp>19.0</ns3:atemp>
          </ns3:TrackPointExtension>
        </extensions>
      </trkpt>
      <trkpt lat="42.62027853168547153472900390625" lon="19.89421558566391468048095703125">
        <ele>1613</ele>
        <time>2026-06-16T11:32:58.000Z</time>
        <extensions>
          <ns3:TrackPointExtension>
            <ns3:atemp>19.0</ns3:atemp>
          </ns3:TrackPointExtension>
        </extensions>
      </trkpt>
      <trkpt lat="42.620276771485805511474609375" lon="19.8942156694829463958740234375">
        <ele>1613.199951171875</ele>
        <time>2026-06-16T11:32:59.000Z</time>
        <extensions>
          <ns3:TrackPointExtension>
            <ns3:atemp>19.0</ns3:atemp>
          </ns3:TrackPointExtension>
        </extensions>
      </trkpt>
      <trkpt lat="42.6202757656574249267578125" lon="19.89421122707426548004150390625">
        <ele>1613.4000244140625</ele>
        <time>2026-06-16T11:33:00.000Z</time>
        <extensions>
          <ns3:TrackPointExtension>
            <ns3:atemp>19.0</ns3:atemp>
          </ns3:TrackPointExtension>
        </extensions>
      </trkpt>
      <trkpt lat="42.6202757656574249267578125" lon="19.8942113108932971954345703125">
        <ele>1613.4000244140625</ele>
        <time>2026-06-16T11:33:01.000Z</time>
        <extensions>
          <ns3:TrackPointExtension>
            <ns3:atemp>19.0</ns3:atemp>
          </ns3:TrackPointExtension>
        </extensions>
      </trkpt>
      <trkpt lat="42.6202757656574249267578125" lon="19.8942113108932971954345703125">
        <ele>1613.4000244140625</ele>
        <time>2026-06-16T11:33:02.000Z</time>
        <extensions>
          <ns3:TrackPointExtension>
            <ns3:atemp>19.0</ns3:atemp>
          </ns3:TrackPointExtension>
        </extensions>
      </trkpt>
      <trkpt lat="42.6202757656574249267578125" lon="19.8942113108932971954345703125">
        <ele>1613.5999755859375</ele>
        <time>2026-06-16T11:33:03.000Z</time>
        <extensions>
          <ns3:TrackPointExtension>
            <ns3:atemp>19.0</ns3:atemp>
          </ns3:TrackPointExtension>
        </extensions>
      </trkpt>
      <trkpt lat="42.6202757656574249267578125" lon="19.8942113108932971954345703125">
        <ele>1613.5999755859375</ele>
        <time>2026-06-16T11:33:04.000Z</time>
        <extensions>
          <ns3:TrackPointExtension>
            <ns3:atemp>19.0</ns3:atemp>
          </ns3:TrackPointExtension>
        </extensions>
      </trkpt>
      <trkpt lat="42.6202757656574249267578125" lon="19.8942113108932971954345703125">
        <ele>1613.5999755859375</ele>
        <time>2026-06-16T11:33:05.000Z</time>
        <extensions>
          <ns3:TrackPointExtension>
            <ns3:atemp>19.0</ns3:atemp>
          </ns3:TrackPointExtension>
        </extensions>
      </trkpt>
      <trkpt lat="42.6202757656574249267578125" lon="19.8942113108932971954345703125">
        <ele>1613.5999755859375</ele>
        <time>2026-06-16T11:33:06.000Z</time>
        <extensions>
          <ns3:TrackPointExtension>
            <ns3:atemp>19.0</ns3:atemp>
          </ns3:TrackPointExtension>
        </extensions>
      </trkpt>
      <trkpt lat="42.6202757656574249267578125" lon="19.8942113108932971954345703125">
        <ele>1613.5999755859375</ele>
        <time>2026-06-16T11:33:07.000Z</time>
        <extensions>
          <ns3:TrackPointExtension>
            <ns3:atemp>19.0</ns3:atemp>
          </ns3:TrackPointExtension>
        </extensions>
      </trkpt>
      <trkpt lat="42.6202757656574249267578125" lon="19.8942113108932971954345703125">
        <ele>1613.800048828125</ele>
        <time>2026-06-16T11:33:08.000Z</time>
        <extensions>
          <ns3:TrackPointExtension>
            <ns3:atemp>19.0</ns3:atemp>
          </ns3:TrackPointExtension>
        </extensions>
      </trkpt>
      <trkpt lat="42.6202757656574249267578125" lon="19.8942113108932971954345703125">
        <ele>1613.800048828125</ele>
        <time>2026-06-16T11:33:09.000Z</time>
        <extensions>
          <ns3:TrackPointExtension>
            <ns3:atemp>19.0</ns3:atemp>
          </ns3:TrackPointExtension>
        </extensions>
      </trkpt>
      <trkpt lat="42.6202757656574249267578125" lon="19.8942113108932971954345703125">
        <ele>1613.800048828125</ele>
        <time>2026-06-16T11:33:10.000Z</time>
        <extensions>
          <ns3:TrackPointExtension>
            <ns3:atemp>19.0</ns3:atemp>
          </ns3:TrackPointExtension>
        </extensions>
      </trkpt>
      <trkpt lat="42.6202757656574249267578125" lon="19.8942113108932971954345703125">
        <ele>1613.800048828125</ele>
        <time>2026-06-16T11:33:11.000Z</time>
        <extensions>
          <ns3:TrackPointExtension>
            <ns3:atemp>19.0</ns3:atemp>
          </ns3:TrackPointExtension>
        </extensions>
      </trkpt>
      <trkpt lat="42.6202757656574249267578125" lon="19.8942113108932971954345703125">
        <ele>1613.800048828125</ele>
        <time>2026-06-16T11:33:12.000Z</time>
        <extensions>
          <ns3:TrackPointExtension>
            <ns3:atemp>19.0</ns3:atemp>
          </ns3:TrackPointExtension>
        </extensions>
      </trkpt>
      <trkpt lat="42.6202757656574249267578125" lon="19.8942113108932971954345703125">
        <ele>1613.800048828125</ele>
        <time>2026-06-16T11:33:13.000Z</time>
        <extensions>
          <ns3:TrackPointExtension>
            <ns3:atemp>19.0</ns3:atemp>
          </ns3:TrackPointExtension>
        </extensions>
      </trkpt>
      <trkpt lat="42.6202757656574249267578125" lon="19.8942113108932971954345703125">
        <ele>1613.800048828125</ele>
        <time>2026-06-16T11:33:14.000Z</time>
        <extensions>
          <ns3:TrackPointExtension>
            <ns3:atemp>19.0</ns3:atemp>
          </ns3:TrackPointExtension>
        </extensions>
      </trkpt>
      <trkpt lat="42.6202757656574249267578125" lon="19.8942113108932971954345703125">
        <ele>1613.800048828125</ele>
        <time>2026-06-16T11:33:15.000Z</time>
        <extensions>
          <ns3:TrackPointExtension>
            <ns3:atemp>19.0</ns3:atemp>
          </ns3:TrackPointExtension>
        </extensions>
      </trkpt>
      <trkpt lat="42.6202757656574249267578125" lon="19.8942113108932971954345703125">
        <ele>1613.800048828125</ele>
        <time>2026-06-16T11:33:16.000Z</time>
        <extensions>
          <ns3:TrackPointExtension>
            <ns3:atemp>19.0</ns3:atemp>
          </ns3:TrackPointExtension>
        </extensions>
      </trkpt>
      <trkpt lat="42.6202757656574249267578125" lon="19.8942113108932971954345703125">
        <ele>1613.800048828125</ele>
        <time>2026-06-16T11:33:17.000Z</time>
        <extensions>
          <ns3:TrackPointExtension>
            <ns3:atemp>19.0</ns3:atemp>
          </ns3:TrackPointExtension>
        </extensions>
      </trkpt>
      <trkpt lat="42.6202757656574249267578125" lon="19.8942113108932971954345703125">
        <ele>1613.800048828125</ele>
        <time>2026-06-16T11:33:18.000Z</time>
        <extensions>
          <ns3:TrackPointExtension>
            <ns3:atemp>19.0</ns3:atemp>
          </ns3:TrackPointExtension>
        </extensions>
      </trkpt>
      <trkpt lat="42.6202757656574249267578125" lon="19.8942113108932971954345703125">
        <ele>1613.800048828125</ele>
        <time>2026-06-16T11:33:19.000Z</time>
        <extensions>
          <ns3:TrackPointExtension>
            <ns3:atemp>19.0</ns3:atemp>
          </ns3:TrackPointExtension>
        </extensions>
      </trkpt>
      <trkpt lat="42.6202757656574249267578125" lon="19.8942113108932971954345703125">
        <ele>1613.800048828125</ele>
        <time>2026-06-16T11:33:20.000Z</time>
        <extensions>
          <ns3:TrackPointExtension>
            <ns3:atemp>19.0</ns3:atemp>
          </ns3:TrackPointExtension>
        </extensions>
      </trkpt>
      <trkpt lat="42.6202757656574249267578125" lon="19.8942113108932971954345703125">
        <ele>1613.800048828125</ele>
        <time>2026-06-16T11:33:21.000Z</time>
        <extensions>
          <ns3:TrackPointExtension>
            <ns3:atemp>19.0</ns3:atemp>
          </ns3:TrackPointExtension>
        </extensions>
      </trkpt>
      <trkpt lat="42.6202757656574249267578125" lon="19.8942113108932971954345703125">
        <ele>1613.800048828125</ele>
        <time>2026-06-16T11:33:22.000Z</time>
        <extensions>
          <ns3:TrackPointExtension>
            <ns3:atemp>19.0</ns3:atemp>
          </ns3:TrackPointExtension>
        </extensions>
      </trkpt>
      <trkpt lat="42.6202757656574249267578125" lon="19.8942113108932971954345703125">
        <ele>1613.800048828125</ele>
        <time>2026-06-16T11:33:23.000Z</time>
        <extensions>
          <ns3:TrackPointExtension>
            <ns3:atemp>19.0</ns3:atemp>
          </ns3:TrackPointExtension>
        </extensions>
      </trkpt>
      <trkpt lat="42.6202757656574249267578125" lon="19.8942113108932971954345703125">
        <ele>1613.800048828125</ele>
        <time>2026-06-16T11:33:24.000Z</time>
        <extensions>
          <ns3:TrackPointExtension>
            <ns3:atemp>19.0</ns3:atemp>
          </ns3:TrackPointExtension>
        </extensions>
      </trkpt>
      <trkpt lat="42.6202757656574249267578125" lon="19.8942113108932971954345703125">
        <ele>1613.5999755859375</ele>
        <time>2026-06-16T11:33:25.000Z</time>
        <extensions>
          <ns3:TrackPointExtension>
            <ns3:atemp>19.0</ns3:atemp>
          </ns3:TrackPointExtension>
        </extensions>
      </trkpt>
      <trkpt lat="42.6202757656574249267578125" lon="19.8942113108932971954345703125">
        <ele>1613.5999755859375</ele>
        <time>2026-06-16T11:33:26.000Z</time>
        <extensions>
          <ns3:TrackPointExtension>
            <ns3:atemp>19.0</ns3:atemp>
          </ns3:TrackPointExtension>
        </extensions>
      </trkpt>
      <trkpt lat="42.6202757656574249267578125" lon="19.8942113108932971954345703125">
        <ele>1613.5999755859375</ele>
        <time>2026-06-16T11:33:27.000Z</time>
        <extensions>
          <ns3:TrackPointExtension>
            <ns3:atemp>19.0</ns3:atemp>
          </ns3:TrackPointExtension>
        </extensions>
      </trkpt>
      <trkpt lat="42.6202757656574249267578125" lon="19.8942113108932971954345703125">
        <ele>1613.5999755859375</ele>
        <time>2026-06-16T11:33:28.000Z</time>
        <extensions>
          <ns3:TrackPointExtension>
            <ns3:atemp>19.0</ns3:atemp>
          </ns3:TrackPointExtension>
        </extensions>
      </trkpt>
      <trkpt lat="42.6202757656574249267578125" lon="19.8942113108932971954345703125">
        <ele>1613.4000244140625</ele>
        <time>2026-06-16T11:33:29.000Z</time>
        <extensions>
          <ns3:TrackPointExtension>
            <ns3:atemp>19.0</ns3:atemp>
          </ns3:TrackPointExtension>
        </extensions>
      </trkpt>
      <trkpt lat="42.6202757656574249267578125" lon="19.8942113108932971954345703125">
        <ele>1613.4000244140625</ele>
        <time>2026-06-16T11:33:30.000Z</time>
        <extensions>
          <ns3:TrackPointExtension>
            <ns3:atemp>19.0</ns3:atemp>
          </ns3:TrackPointExtension>
        </extensions>
      </trkpt>
      <trkpt lat="42.6202757656574249267578125" lon="19.8942113108932971954345703125">
        <ele>1613.4000244140625</ele>
        <time>2026-06-16T11:33:31.000Z</time>
        <extensions>
          <ns3:TrackPointExtension>
            <ns3:atemp>19.0</ns3:atemp>
          </ns3:TrackPointExtension>
        </extensions>
      </trkpt>
      <trkpt lat="42.6202757656574249267578125" lon="19.8942113108932971954345703125">
        <ele>1613.4000244140625</ele>
        <time>2026-06-16T11:33:32.000Z</time>
        <extensions>
          <ns3:TrackPointExtension>
            <ns3:atemp>19.0</ns3:atemp>
          </ns3:TrackPointExtension>
        </extensions>
      </trkpt>
      <trkpt lat="42.6202757656574249267578125" lon="19.8942113108932971954345703125">
        <ele>1613.199951171875</ele>
        <time>2026-06-16T11:33:33.000Z</time>
        <extensions>
          <ns3:TrackPointExtension>
            <ns3:atemp>19.0</ns3:atemp>
          </ns3:TrackPointExtension>
        </extensions>
      </trkpt>
      <trkpt lat="42.6202757656574249267578125" lon="19.8942113108932971954345703125">
        <ele>1613.199951171875</ele>
        <time>2026-06-16T11:33:34.000Z</time>
        <extensions>
          <ns3:TrackPointExtension>
            <ns3:atemp>19.0</ns3:atemp>
          </ns3:TrackPointExtension>
        </extensions>
      </trkpt>
      <trkpt lat="42.6202757656574249267578125" lon="19.8942113108932971954345703125">
        <ele>1613</ele>
        <time>2026-06-16T11:33:35.000Z</time>
        <extensions>
          <ns3:TrackPointExtension>
            <ns3:atemp>19.0</ns3:atemp>
          </ns3:TrackPointExtension>
        </extensions>
      </trkpt>
      <trkpt lat="42.6202757656574249267578125" lon="19.8942113108932971954345703125">
        <ele>1612.800048828125</ele>
        <time>2026-06-16T11:33:36.000Z</time>
        <extensions>
          <ns3:TrackPointExtension>
            <ns3:atemp>19.0</ns3:atemp>
          </ns3:TrackPointExtension>
        </extensions>
      </trkpt>
      <trkpt lat="42.6202757656574249267578125" lon="19.8942113108932971954345703125">
        <ele>1612.800048828125</ele>
        <time>2026-06-16T11:33:37.000Z</time>
        <extensions>
          <ns3:TrackPointExtension>
            <ns3:atemp>19.0</ns3:atemp>
          </ns3:TrackPointExtension>
        </extensions>
      </trkpt>
      <trkpt lat="42.6202757656574249267578125" lon="19.8942113108932971954345703125">
        <ele>1612.5999755859375</ele>
        <time>2026-06-16T11:33:38.000Z</time>
        <extensions>
          <ns3:TrackPointExtension>
            <ns3:atemp>19.0</ns3:atemp>
          </ns3:TrackPointExtension>
        </extensions>
      </trkpt>
      <trkpt lat="42.6202757656574249267578125" lon="19.8942113108932971954345703125">
        <ele>1612.5999755859375</ele>
        <time>2026-06-16T11:33:39.000Z</time>
        <extensions>
          <ns3:TrackPointExtension>
            <ns3:atemp>19.0</ns3:atemp>
          </ns3:TrackPointExtension>
        </extensions>
      </trkpt>
      <trkpt lat="42.6202757656574249267578125" lon="19.8942113108932971954345703125">
        <ele>1612.5999755859375</ele>
        <time>2026-06-16T11:33:40.000Z</time>
        <extensions>
          <ns3:TrackPointExtension>
            <ns3:atemp>19.0</ns3:atemp>
          </ns3:TrackPointExtension>
        </extensions>
      </trkpt>
      <trkpt lat="42.6202757656574249267578125" lon="19.8942113108932971954345703125">
        <ele>1612.800048828125</ele>
        <time>2026-06-16T11:33:41.000Z</time>
        <extensions>
          <ns3:TrackPointExtension>
            <ns3:atemp>19.0</ns3:atemp>
          </ns3:TrackPointExtension>
        </extensions>
      </trkpt>
      <trkpt lat="42.6202757656574249267578125" lon="19.8942113108932971954345703125">
        <ele>1612.800048828125</ele>
        <time>2026-06-16T11:33:42.000Z</time>
        <extensions>
          <ns3:TrackPointExtension>
            <ns3:atemp>19.0</ns3:atemp>
          </ns3:TrackPointExtension>
        </extensions>
      </trkpt>
      <trkpt lat="42.6202757656574249267578125" lon="19.8942113108932971954345703125">
        <ele>1613</ele>
        <time>2026-06-16T11:33:43.000Z</time>
        <extensions>
          <ns3:TrackPointExtension>
            <ns3:atemp>19.0</ns3:atemp>
          </ns3:TrackPointExtension>
        </extensions>
      </trkpt>
      <trkpt lat="42.6202757656574249267578125" lon="19.8942113108932971954345703125">
        <ele>1613</ele>
        <time>2026-06-16T11:33:44.000Z</time>
        <extensions>
          <ns3:TrackPointExtension>
            <ns3:atemp>19.0</ns3:atemp>
          </ns3:TrackPointExtension>
        </extensions>
      </trkpt>
      <trkpt lat="42.6202757656574249267578125" lon="19.8942113108932971954345703125">
        <ele>1613.199951171875</ele>
        <time>2026-06-16T11:33:45.000Z</time>
        <extensions>
          <ns3:TrackPointExtension>
            <ns3:atemp>19.0</ns3:atemp>
          </ns3:TrackPointExtension>
        </extensions>
      </trkpt>
      <trkpt lat="42.6202757656574249267578125" lon="19.8942113108932971954345703125">
        <ele>1613.199951171875</ele>
        <time>2026-06-16T11:33:46.000Z</time>
        <extensions>
          <ns3:TrackPointExtension>
            <ns3:atemp>19.0</ns3:atemp>
          </ns3:TrackPointExtension>
        </extensions>
      </trkpt>
      <trkpt lat="42.6202757656574249267578125" lon="19.8942113108932971954345703125">
        <ele>1613.199951171875</ele>
        <time>2026-06-16T11:33:47.000Z</time>
        <extensions>
          <ns3:TrackPointExtension>
            <ns3:atemp>19.0</ns3:atemp>
          </ns3:TrackPointExtension>
        </extensions>
      </trkpt>
      <trkpt lat="42.6202757656574249267578125" lon="19.8942113108932971954345703125">
        <ele>1613.199951171875</ele>
        <time>2026-06-16T11:33:48.000Z</time>
        <extensions>
          <ns3:TrackPointExtension>
            <ns3:atemp>19.0</ns3:atemp>
          </ns3:TrackPointExtension>
        </extensions>
      </trkpt>
      <trkpt lat="42.6202757656574249267578125" lon="19.8942113108932971954345703125">
        <ele>1613.199951171875</ele>
        <time>2026-06-16T11:33:49.000Z</time>
        <extensions>
          <ns3:TrackPointExtension>
            <ns3:atemp>19.0</ns3:atemp>
          </ns3:TrackPointExtension>
        </extensions>
      </trkpt>
      <trkpt lat="42.6202757656574249267578125" lon="19.8942113108932971954345703125">
        <ele>1613.4000244140625</ele>
        <time>2026-06-16T11:33:50.000Z</time>
        <extensions>
          <ns3:TrackPointExtension>
            <ns3:atemp>19.0</ns3:atemp>
          </ns3:TrackPointExtension>
        </extensions>
      </trkpt>
      <trkpt lat="42.6202757656574249267578125" lon="19.8942113108932971954345703125">
        <ele>1613.4000244140625</ele>
        <time>2026-06-16T11:33:51.000Z</time>
        <extensions>
          <ns3:TrackPointExtension>
            <ns3:atemp>19.0</ns3:atemp>
          </ns3:TrackPointExtension>
        </extensions>
      </trkpt>
      <trkpt lat="42.6202757656574249267578125" lon="19.8942113108932971954345703125">
        <ele>1613.4000244140625</ele>
        <time>2026-06-16T11:33:52.000Z</time>
        <extensions>
          <ns3:TrackPointExtension>
            <ns3:atemp>19.0</ns3:atemp>
          </ns3:TrackPointExtension>
        </extensions>
      </trkpt>
      <trkpt lat="42.6202757656574249267578125" lon="19.8942113108932971954345703125">
        <ele>1613.4000244140625</ele>
        <time>2026-06-16T11:33:53.000Z</time>
        <extensions>
          <ns3:TrackPointExtension>
            <ns3:atemp>19.0</ns3:atemp>
          </ns3:TrackPointExtension>
        </extensions>
      </trkpt>
      <trkpt lat="42.6202757656574249267578125" lon="19.8942113108932971954345703125">
        <ele>1613.4000244140625</ele>
        <time>2026-06-16T11:33:54.000Z</time>
        <extensions>
          <ns3:TrackPointExtension>
            <ns3:atemp>19.0</ns3:atemp>
          </ns3:TrackPointExtension>
        </extensions>
      </trkpt>
      <trkpt lat="42.6202757656574249267578125" lon="19.8942113108932971954345703125">
        <ele>1613.4000244140625</ele>
        <time>2026-06-16T11:33:55.000Z</time>
        <extensions>
          <ns3:TrackPointExtension>
            <ns3:atemp>19.0</ns3:atemp>
          </ns3:TrackPointExtension>
        </extensions>
      </trkpt>
      <trkpt lat="42.6202757656574249267578125" lon="19.8942113108932971954345703125">
        <ele>1613.4000244140625</ele>
        <time>2026-06-16T11:33:56.000Z</time>
        <extensions>
          <ns3:TrackPointExtension>
            <ns3:atemp>19.0</ns3:atemp>
          </ns3:TrackPointExtension>
        </extensions>
      </trkpt>
      <trkpt lat="42.6202757656574249267578125" lon="19.8942113108932971954345703125">
        <ele>1613.4000244140625</ele>
        <time>2026-06-16T11:33:57.000Z</time>
        <extensions>
          <ns3:TrackPointExtension>
            <ns3:atemp>19.0</ns3:atemp>
          </ns3:TrackPointExtension>
        </extensions>
      </trkpt>
      <trkpt lat="42.6202757656574249267578125" lon="19.8942113108932971954345703125">
        <ele>1613.4000244140625</ele>
        <time>2026-06-16T11:33:58.000Z</time>
        <extensions>
          <ns3:TrackPointExtension>
            <ns3:atemp>19.0</ns3:atemp>
          </ns3:TrackPointExtension>
        </extensions>
      </trkpt>
      <trkpt lat="42.6202757656574249267578125" lon="19.8942113108932971954345703125">
        <ele>1613.4000244140625</ele>
        <time>2026-06-16T11:33:59.000Z</time>
        <extensions>
          <ns3:TrackPointExtension>
            <ns3:atemp>19.0</ns3:atemp>
          </ns3:TrackPointExtension>
        </extensions>
      </trkpt>
      <trkpt lat="42.6202757656574249267578125" lon="19.8942113108932971954345703125">
        <ele>1613.5999755859375</ele>
        <time>2026-06-16T11:34:00.000Z</time>
        <extensions>
          <ns3:TrackPointExtension>
            <ns3:atemp>19.0</ns3:atemp>
          </ns3:TrackPointExtension>
        </extensions>
      </trkpt>
      <trkpt lat="42.6202757656574249267578125" lon="19.8942113108932971954345703125">
        <ele>1613.5999755859375</ele>
        <time>2026-06-16T11:34:01.000Z</time>
        <extensions>
          <ns3:TrackPointExtension>
            <ns3:atemp>19.0</ns3:atemp>
          </ns3:TrackPointExtension>
        </extensions>
      </trkpt>
      <trkpt lat="42.6202757656574249267578125" lon="19.8942113108932971954345703125">
        <ele>1613.5999755859375</ele>
        <time>2026-06-16T11:34:02.000Z</time>
        <extensions>
          <ns3:TrackPointExtension>
            <ns3:atemp>19.0</ns3:atemp>
          </ns3:TrackPointExtension>
        </extensions>
      </trkpt>
      <trkpt lat="42.6202757656574249267578125" lon="19.8942113108932971954345703125">
        <ele>1613.5999755859375</ele>
        <time>2026-06-16T11:34:03.000Z</time>
        <extensions>
          <ns3:TrackPointExtension>
            <ns3:atemp>19.0</ns3:atemp>
          </ns3:TrackPointExtension>
        </extensions>
      </trkpt>
      <trkpt lat="42.6202757656574249267578125" lon="19.8942113108932971954345703125">
        <ele>1613.5999755859375</ele>
        <time>2026-06-16T11:34:04.000Z</time>
        <extensions>
          <ns3:TrackPointExtension>
            <ns3:atemp>19.0</ns3:atemp>
          </ns3:TrackPointExtension>
        </extensions>
      </trkpt>
      <trkpt lat="42.6202757656574249267578125" lon="19.8942113108932971954345703125">
        <ele>1613.5999755859375</ele>
        <time>2026-06-16T11:34:05.000Z</time>
        <extensions>
          <ns3:TrackPointExtension>
            <ns3:atemp>19.0</ns3:atemp>
          </ns3:TrackPointExtension>
        </extensions>
      </trkpt>
      <trkpt lat="42.6202757656574249267578125" lon="19.8942113108932971954345703125">
        <ele>1613.5999755859375</ele>
        <time>2026-06-16T11:34:06.000Z</time>
        <extensions>
          <ns3:TrackPointExtension>
            <ns3:atemp>19.0</ns3:atemp>
          </ns3:TrackPointExtension>
        </extensions>
      </trkpt>
      <trkpt lat="42.6202757656574249267578125" lon="19.8942113108932971954345703125">
        <ele>1613.5999755859375</ele>
        <time>2026-06-16T11:34:07.000Z</time>
        <extensions>
          <ns3:TrackPointExtension>
            <ns3:atemp>19.0</ns3:atemp>
          </ns3:TrackPointExtension>
        </extensions>
      </trkpt>
      <trkpt lat="42.6202757656574249267578125" lon="19.8942113108932971954345703125">
        <ele>1613.5999755859375</ele>
        <time>2026-06-16T11:34:08.000Z</time>
        <extensions>
          <ns3:TrackPointExtension>
            <ns3:atemp>19.0</ns3:atemp>
          </ns3:TrackPointExtension>
        </extensions>
      </trkpt>
      <trkpt lat="42.6202757656574249267578125" lon="19.8942113108932971954345703125">
        <ele>1613.5999755859375</ele>
        <time>2026-06-16T11:34:09.000Z</time>
        <extensions>
          <ns3:TrackPointExtension>
            <ns3:atemp>19.0</ns3:atemp>
          </ns3:TrackPointExtension>
        </extensions>
      </trkpt>
      <trkpt lat="42.6202757656574249267578125" lon="19.8942113108932971954345703125">
        <ele>1613.5999755859375</ele>
        <time>2026-06-16T11:34:10.000Z</time>
        <extensions>
          <ns3:TrackPointExtension>
            <ns3:atemp>19.0</ns3:atemp>
          </ns3:TrackPointExtension>
        </extensions>
      </trkpt>
      <trkpt lat="42.6202757656574249267578125" lon="19.8942113108932971954345703125">
        <ele>1613.5999755859375</ele>
        <time>2026-06-16T11:34:11.000Z</time>
        <extensions>
          <ns3:TrackPointExtension>
            <ns3:atemp>19.0</ns3:atemp>
          </ns3:TrackPointExtension>
        </extensions>
      </trkpt>
      <trkpt lat="42.6202757656574249267578125" lon="19.8942113108932971954345703125">
        <ele>1613.5999755859375</ele>
        <time>2026-06-16T11:34:12.000Z</time>
        <extensions>
          <ns3:TrackPointExtension>
            <ns3:atemp>19.0</ns3:atemp>
          </ns3:TrackPointExtension>
        </extensions>
      </trkpt>
      <trkpt lat="42.6202757656574249267578125" lon="19.8942113108932971954345703125">
        <ele>1613.5999755859375</ele>
        <time>2026-06-16T11:34:13.000Z</time>
        <extensions>
          <ns3:TrackPointExtension>
            <ns3:atemp>19.0</ns3:atemp>
          </ns3:TrackPointExtension>
        </extensions>
      </trkpt>
      <trkpt lat="42.6202757656574249267578125" lon="19.8942113108932971954345703125">
        <ele>1613.5999755859375</ele>
        <time>2026-06-16T11:34:14.000Z</time>
        <extensions>
          <ns3:TrackPointExtension>
            <ns3:atemp>19.0</ns3:atemp>
          </ns3:TrackPointExtension>
        </extensions>
      </trkpt>
      <trkpt lat="42.6202757656574249267578125" lon="19.8942113108932971954345703125">
        <ele>1613.5999755859375</ele>
        <time>2026-06-16T11:34:15.000Z</time>
        <extensions>
          <ns3:TrackPointExtension>
            <ns3:atemp>19.0</ns3:atemp>
          </ns3:TrackPointExtension>
        </extensions>
      </trkpt>
      <trkpt lat="42.6202757656574249267578125" lon="19.8942113108932971954345703125">
        <ele>1613.5999755859375</ele>
        <time>2026-06-16T11:34:16.000Z</time>
        <extensions>
          <ns3:TrackPointExtension>
            <ns3:atemp>19.0</ns3:atemp>
          </ns3:TrackPointExtension>
        </extensions>
      </trkpt>
      <trkpt lat="42.6202757656574249267578125" lon="19.8942113108932971954345703125">
        <ele>1613.5999755859375</ele>
        <time>2026-06-16T11:34:17.000Z</time>
        <extensions>
          <ns3:TrackPointExtension>
            <ns3:atemp>19.0</ns3:atemp>
          </ns3:TrackPointExtension>
        </extensions>
      </trkpt>
      <trkpt lat="42.6202757656574249267578125" lon="19.8942113108932971954345703125">
        <ele>1613.5999755859375</ele>
        <time>2026-06-16T11:34:18.000Z</time>
        <extensions>
          <ns3:TrackPointExtension>
            <ns3:atemp>19.0</ns3:atemp>
          </ns3:TrackPointExtension>
        </extensions>
      </trkpt>
      <trkpt lat="42.6202757656574249267578125" lon="19.8942113108932971954345703125">
        <ele>1613.5999755859375</ele>
        <time>2026-06-16T11:34:19.000Z</time>
        <extensions>
          <ns3:TrackPointExtension>
            <ns3:atemp>19.0</ns3:atemp>
          </ns3:TrackPointExtension>
        </extensions>
      </trkpt>
      <trkpt lat="42.6202757656574249267578125" lon="19.8942113108932971954345703125">
        <ele>1613.5999755859375</ele>
        <time>2026-06-16T11:34:20.000Z</time>
        <extensions>
          <ns3:TrackPointExtension>
            <ns3:atemp>19.0</ns3:atemp>
          </ns3:TrackPointExtension>
        </extensions>
      </trkpt>
      <trkpt lat="42.6202757656574249267578125" lon="19.8942113108932971954345703125">
        <ele>1613.5999755859375</ele>
        <time>2026-06-16T11:34:21.000Z</time>
        <extensions>
          <ns3:TrackPointExtension>
            <ns3:atemp>19.0</ns3:atemp>
          </ns3:TrackPointExtension>
        </extensions>
      </trkpt>
      <trkpt lat="42.6202757656574249267578125" lon="19.8942113108932971954345703125">
        <ele>1613.5999755859375</ele>
        <time>2026-06-16T11:34:22.000Z</time>
        <extensions>
          <ns3:TrackPointExtension>
            <ns3:atemp>19.0</ns3:atemp>
          </ns3:TrackPointExtension>
        </extensions>
      </trkpt>
      <trkpt lat="42.6202757656574249267578125" lon="19.8942113108932971954345703125">
        <ele>1613.5999755859375</ele>
        <time>2026-06-16T11:34:23.000Z</time>
        <extensions>
          <ns3:TrackPointExtension>
            <ns3:atemp>19.0</ns3:atemp>
          </ns3:TrackPointExtension>
        </extensions>
      </trkpt>
      <trkpt lat="42.6202757656574249267578125" lon="19.8942113108932971954345703125">
        <ele>1613.5999755859375</ele>
        <time>2026-06-16T11:34:24.000Z</time>
        <extensions>
          <ns3:TrackPointExtension>
            <ns3:atemp>19.0</ns3:atemp>
          </ns3:TrackPointExtension>
        </extensions>
      </trkpt>
      <trkpt lat="42.6202757656574249267578125" lon="19.8942113108932971954345703125">
        <ele>1613.5999755859375</ele>
        <time>2026-06-16T11:34:25.000Z</time>
        <extensions>
          <ns3:TrackPointExtension>
            <ns3:atemp>19.0</ns3:atemp>
          </ns3:TrackPointExtension>
        </extensions>
      </trkpt>
      <trkpt lat="42.6202757656574249267578125" lon="19.8942113108932971954345703125">
        <ele>1613.5999755859375</ele>
        <time>2026-06-16T11:34:26.000Z</time>
        <extensions>
          <ns3:TrackPointExtension>
            <ns3:atemp>19.0</ns3:atemp>
          </ns3:TrackPointExtension>
        </extensions>
      </trkpt>
      <trkpt lat="42.6202757656574249267578125" lon="19.8942113108932971954345703125">
        <ele>1613.5999755859375</ele>
        <time>2026-06-16T11:34:27.000Z</time>
        <extensions>
          <ns3:TrackPointExtension>
            <ns3:atemp>19.0</ns3:atemp>
          </ns3:TrackPointExtension>
        </extensions>
      </trkpt>
      <trkpt lat="42.6202757656574249267578125" lon="19.8942113108932971954345703125">
        <ele>1613.5999755859375</ele>
        <time>2026-06-16T11:34:28.000Z</time>
        <extensions>
          <ns3:TrackPointExtension>
            <ns3:atemp>19.0</ns3:atemp>
          </ns3:TrackPointExtension>
        </extensions>
      </trkpt>
      <trkpt lat="42.6202757656574249267578125" lon="19.8942113108932971954345703125">
        <ele>1613.5999755859375</ele>
        <time>2026-06-16T11:34:29.000Z</time>
        <extensions>
          <ns3:TrackPointExtension>
            <ns3:atemp>19.0</ns3:atemp>
          </ns3:TrackPointExtension>
        </extensions>
      </trkpt>
      <trkpt lat="42.6202757656574249267578125" lon="19.8942113108932971954345703125">
        <ele>1613.5999755859375</ele>
        <time>2026-06-16T11:34:30.000Z</time>
        <extensions>
          <ns3:TrackPointExtension>
            <ns3:atemp>19.0</ns3:atemp>
          </ns3:TrackPointExtension>
        </extensions>
      </trkpt>
      <trkpt lat="42.6202757656574249267578125" lon="19.8942113108932971954345703125">
        <ele>1613.5999755859375</ele>
        <time>2026-06-16T11:34:31.000Z</time>
        <extensions>
          <ns3:TrackPointExtension>
            <ns3:atemp>19.0</ns3:atemp>
          </ns3:TrackPointExtension>
        </extensions>
      </trkpt>
      <trkpt lat="42.6202757656574249267578125" lon="19.8942113108932971954345703125">
        <ele>1613.5999755859375</ele>
        <time>2026-06-16T11:34:32.000Z</time>
        <extensions>
          <ns3:TrackPointExtension>
            <ns3:atemp>19.0</ns3:atemp>
          </ns3:TrackPointExtension>
        </extensions>
      </trkpt>
      <trkpt lat="42.6202757656574249267578125" lon="19.8942113108932971954345703125">
        <ele>1613.5999755859375</ele>
        <time>2026-06-16T11:34:33.000Z</time>
        <extensions>
          <ns3:TrackPointExtension>
            <ns3:atemp>19.0</ns3:atemp>
          </ns3:TrackPointExtension>
        </extensions>
      </trkpt>
      <trkpt lat="42.6202757656574249267578125" lon="19.8942113108932971954345703125">
        <ele>1613.5999755859375</ele>
        <time>2026-06-16T11:34:34.000Z</time>
        <extensions>
          <ns3:TrackPointExtension>
            <ns3:atemp>19.0</ns3:atemp>
          </ns3:TrackPointExtension>
        </extensions>
      </trkpt>
      <trkpt lat="42.6202757656574249267578125" lon="19.8942113108932971954345703125">
        <ele>1613.5999755859375</ele>
        <time>2026-06-16T11:34:35.000Z</time>
        <extensions>
          <ns3:TrackPointExtension>
            <ns3:atemp>19.0</ns3:atemp>
          </ns3:TrackPointExtension>
        </extensions>
      </trkpt>
      <trkpt lat="42.6202757656574249267578125" lon="19.8942113108932971954345703125">
        <ele>1613.5999755859375</ele>
        <time>2026-06-16T11:34:36.000Z</time>
        <extensions>
          <ns3:TrackPointExtension>
            <ns3:atemp>19.0</ns3:atemp>
          </ns3:TrackPointExtension>
        </extensions>
      </trkpt>
      <trkpt lat="42.6202757656574249267578125" lon="19.8942113108932971954345703125">
        <ele>1613.5999755859375</ele>
        <time>2026-06-16T11:34:37.000Z</time>
        <extensions>
          <ns3:TrackPointExtension>
            <ns3:atemp>19.0</ns3:atemp>
          </ns3:TrackPointExtension>
        </extensions>
      </trkpt>
      <trkpt lat="42.6202757656574249267578125" lon="19.8942113108932971954345703125">
        <ele>1613.5999755859375</ele>
        <time>2026-06-16T11:34:38.000Z</time>
        <extensions>
          <ns3:TrackPointExtension>
            <ns3:atemp>19.0</ns3:atemp>
          </ns3:TrackPointExtension>
        </extensions>
      </trkpt>
      <trkpt lat="42.6202757656574249267578125" lon="19.8942113108932971954345703125">
        <ele>1613.5999755859375</ele>
        <time>2026-06-16T11:34:39.000Z</time>
        <extensions>
          <ns3:TrackPointExtension>
            <ns3:atemp>19.0</ns3:atemp>
          </ns3:TrackPointExtension>
        </extensions>
      </trkpt>
      <trkpt lat="42.6202757656574249267578125" lon="19.8942113108932971954345703125">
        <ele>1613.5999755859375</ele>
        <time>2026-06-16T11:34:40.000Z</time>
        <extensions>
          <ns3:TrackPointExtension>
            <ns3:atemp>19.0</ns3:atemp>
          </ns3:TrackPointExtension>
        </extensions>
      </trkpt>
      <trkpt lat="42.6202757656574249267578125" lon="19.8942113108932971954345703125">
        <ele>1613.5999755859375</ele>
        <time>2026-06-16T11:34:41.000Z</time>
        <extensions>
          <ns3:TrackPointExtension>
            <ns3:atemp>19.0</ns3:atemp>
          </ns3:TrackPointExtension>
        </extensions>
      </trkpt>
      <trkpt lat="42.6202757656574249267578125" lon="19.8942113108932971954345703125">
        <ele>1613.5999755859375</ele>
        <time>2026-06-16T11:34:42.000Z</time>
        <extensions>
          <ns3:TrackPointExtension>
            <ns3:atemp>19.0</ns3:atemp>
          </ns3:TrackPointExtension>
        </extensions>
      </trkpt>
      <trkpt lat="42.6202757656574249267578125" lon="19.8942113108932971954345703125">
        <ele>1613.5999755859375</ele>
        <time>2026-06-16T11:34:43.000Z</time>
        <extensions>
          <ns3:TrackPointExtension>
            <ns3:atemp>19.0</ns3:atemp>
          </ns3:TrackPointExtension>
        </extensions>
      </trkpt>
      <trkpt lat="42.6202757656574249267578125" lon="19.8942113108932971954345703125">
        <ele>1613.5999755859375</ele>
        <time>2026-06-16T11:34:44.000Z</time>
        <extensions>
          <ns3:TrackPointExtension>
            <ns3:atemp>19.0</ns3:atemp>
          </ns3:TrackPointExtension>
        </extensions>
      </trkpt>
      <trkpt lat="42.6202757656574249267578125" lon="19.8942113108932971954345703125">
        <ele>1613.5999755859375</ele>
        <time>2026-06-16T11:34:45.000Z</time>
        <extensions>
          <ns3:TrackPointExtension>
            <ns3:atemp>19.0</ns3:atemp>
          </ns3:TrackPointExtension>
        </extensions>
      </trkpt>
      <trkpt lat="42.6202757656574249267578125" lon="19.8942113108932971954345703125">
        <ele>1613.5999755859375</ele>
        <time>2026-06-16T11:34:46.000Z</time>
        <extensions>
          <ns3:TrackPointExtension>
            <ns3:atemp>19.0</ns3:atemp>
          </ns3:TrackPointExtension>
        </extensions>
      </trkpt>
      <trkpt lat="42.6202757656574249267578125" lon="19.8942113108932971954345703125">
        <ele>1613.5999755859375</ele>
        <time>2026-06-16T11:34:47.000Z</time>
        <extensions>
          <ns3:TrackPointExtension>
            <ns3:atemp>19.0</ns3:atemp>
          </ns3:TrackPointExtension>
        </extensions>
      </trkpt>
      <trkpt lat="42.6202757656574249267578125" lon="19.8942113108932971954345703125">
        <ele>1613.5999755859375</ele>
        <time>2026-06-16T11:34:48.000Z</time>
        <extensions>
          <ns3:TrackPointExtension>
            <ns3:atemp>19.0</ns3:atemp>
          </ns3:TrackPointExtension>
        </extensions>
      </trkpt>
      <trkpt lat="42.6202757656574249267578125" lon="19.8942113108932971954345703125">
        <ele>1613.5999755859375</ele>
        <time>2026-06-16T11:34:49.000Z</time>
        <extensions>
          <ns3:TrackPointExtension>
            <ns3:atemp>19.0</ns3:atemp>
          </ns3:TrackPointExtension>
        </extensions>
      </trkpt>
      <trkpt lat="42.6202757656574249267578125" lon="19.8942113108932971954345703125">
        <ele>1613.5999755859375</ele>
        <time>2026-06-16T11:34:50.000Z</time>
        <extensions>
          <ns3:TrackPointExtension>
            <ns3:atemp>19.0</ns3:atemp>
          </ns3:TrackPointExtension>
        </extensions>
      </trkpt>
      <trkpt lat="42.6202757656574249267578125" lon="19.8942113108932971954345703125">
        <ele>1613.5999755859375</ele>
        <time>2026-06-16T11:34:51.000Z</time>
        <extensions>
          <ns3:TrackPointExtension>
            <ns3:atemp>19.0</ns3:atemp>
          </ns3:TrackPointExtension>
        </extensions>
      </trkpt>
      <trkpt lat="42.6202757656574249267578125" lon="19.8942113108932971954345703125">
        <ele>1613.5999755859375</ele>
        <time>2026-06-16T11:34:52.000Z</time>
        <extensions>
          <ns3:TrackPointExtension>
            <ns3:atemp>19.0</ns3:atemp>
          </ns3:TrackPointExtension>
        </extensions>
      </trkpt>
      <trkpt lat="42.6202757656574249267578125" lon="19.8942113108932971954345703125">
        <ele>1613.5999755859375</ele>
        <time>2026-06-16T11:34:53.000Z</time>
        <extensions>
          <ns3:TrackPointExtension>
            <ns3:atemp>19.0</ns3:atemp>
          </ns3:TrackPointExtension>
        </extensions>
      </trkpt>
      <trkpt lat="42.6202757656574249267578125" lon="19.8942113108932971954345703125">
        <ele>1613.5999755859375</ele>
        <time>2026-06-16T11:34:54.000Z</time>
        <extensions>
          <ns3:TrackPointExtension>
            <ns3:atemp>19.0</ns3:atemp>
          </ns3:TrackPointExtension>
        </extensions>
      </trkpt>
      <trkpt lat="42.6202757656574249267578125" lon="19.8942113108932971954345703125">
        <ele>1613.5999755859375</ele>
        <time>2026-06-16T11:34:55.000Z</time>
        <extensions>
          <ns3:TrackPointExtension>
            <ns3:atemp>19.0</ns3:atemp>
          </ns3:TrackPointExtension>
        </extensions>
      </trkpt>
      <trkpt lat="42.6202757656574249267578125" lon="19.8942113108932971954345703125">
        <ele>1613.5999755859375</ele>
        <time>2026-06-16T11:34:56.000Z</time>
        <extensions>
          <ns3:TrackPointExtension>
            <ns3:atemp>19.0</ns3:atemp>
          </ns3:TrackPointExtension>
        </extensions>
      </trkpt>
      <trkpt lat="42.6202757656574249267578125" lon="19.8942113108932971954345703125">
        <ele>1613.5999755859375</ele>
        <time>2026-06-16T11:34:57.000Z</time>
        <extensions>
          <ns3:TrackPointExtension>
            <ns3:atemp>19.0</ns3:atemp>
          </ns3:TrackPointExtension>
        </extensions>
      </trkpt>
      <trkpt lat="42.6202757656574249267578125" lon="19.8942113108932971954345703125">
        <ele>1613.5999755859375</ele>
        <time>2026-06-16T11:34:58.000Z</time>
        <extensions>
          <ns3:TrackPointExtension>
            <ns3:atemp>19.0</ns3:atemp>
          </ns3:TrackPointExtension>
        </extensions>
      </trkpt>
      <trkpt lat="42.6202757656574249267578125" lon="19.8942113108932971954345703125">
        <ele>1613.5999755859375</ele>
        <time>2026-06-16T11:34:59.000Z</time>
        <extensions>
          <ns3:TrackPointExtension>
            <ns3:atemp>19.0</ns3:atemp>
          </ns3:TrackPointExtension>
        </extensions>
      </trkpt>
      <trkpt lat="42.6202757656574249267578125" lon="19.8942113108932971954345703125">
        <ele>1613.5999755859375</ele>
        <time>2026-06-16T11:35:00.000Z</time>
        <extensions>
          <ns3:TrackPointExtension>
            <ns3:atemp>19.0</ns3:atemp>
          </ns3:TrackPointExtension>
        </extensions>
      </trkpt>
      <trkpt lat="42.6202757656574249267578125" lon="19.8942113108932971954345703125">
        <ele>1613.5999755859375</ele>
        <time>2026-06-16T11:35:01.000Z</time>
        <extensions>
          <ns3:TrackPointExtension>
            <ns3:atemp>19.0</ns3:atemp>
          </ns3:TrackPointExtension>
        </extensions>
      </trkpt>
      <trkpt lat="42.6202757656574249267578125" lon="19.8942113108932971954345703125">
        <ele>1613.5999755859375</ele>
        <time>2026-06-16T11:35:02.000Z</time>
        <extensions>
          <ns3:TrackPointExtension>
            <ns3:atemp>19.0</ns3:atemp>
          </ns3:TrackPointExtension>
        </extensions>
      </trkpt>
      <trkpt lat="42.6202757656574249267578125" lon="19.8942113108932971954345703125">
        <ele>1613.5999755859375</ele>
        <time>2026-06-16T11:35:03.000Z</time>
        <extensions>
          <ns3:TrackPointExtension>
            <ns3:atemp>19.0</ns3:atemp>
          </ns3:TrackPointExtension>
        </extensions>
      </trkpt>
      <trkpt lat="42.6202757656574249267578125" lon="19.8942113108932971954345703125">
        <ele>1613.5999755859375</ele>
        <time>2026-06-16T11:35:04.000Z</time>
        <extensions>
          <ns3:TrackPointExtension>
            <ns3:atemp>19.0</ns3:atemp>
          </ns3:TrackPointExtension>
        </extensions>
      </trkpt>
      <trkpt lat="42.6202757656574249267578125" lon="19.8942113108932971954345703125">
        <ele>1613.5999755859375</ele>
        <time>2026-06-16T11:35:05.000Z</time>
        <extensions>
          <ns3:TrackPointExtension>
            <ns3:atemp>19.0</ns3:atemp>
          </ns3:TrackPointExtension>
        </extensions>
      </trkpt>
      <trkpt lat="42.62027509510517120361328125" lon="19.89421047270298004150390625">
        <ele>1613.5999755859375</ele>
        <time>2026-06-16T11:35:06.000Z</time>
        <extensions>
          <ns3:TrackPointExtension>
            <ns3:atemp>19.0</ns3:atemp>
          </ns3:TrackPointExtension>
        </extensions>
      </trkpt>
      <trkpt lat="42.6202757656574249267578125" lon="19.8942113108932971954345703125">
        <ele>1613.5999755859375</ele>
        <time>2026-06-16T11:35:07.000Z</time>
        <extensions>
          <ns3:TrackPointExtension>
            <ns3:atemp>19.0</ns3:atemp>
          </ns3:TrackPointExtension>
        </extensions>
      </trkpt>
      <trkpt lat="42.6202757656574249267578125" lon="19.8942113108932971954345703125">
        <ele>1613.5999755859375</ele>
        <time>2026-06-16T11:35:08.000Z</time>
        <extensions>
          <ns3:TrackPointExtension>
            <ns3:atemp>19.0</ns3:atemp>
          </ns3:TrackPointExtension>
        </extensions>
      </trkpt>
      <trkpt lat="42.6202757656574249267578125" lon="19.8942113108932971954345703125">
        <ele>1613.5999755859375</ele>
        <time>2026-06-16T11:35:09.000Z</time>
        <extensions>
          <ns3:TrackPointExtension>
            <ns3:atemp>19.0</ns3:atemp>
          </ns3:TrackPointExtension>
        </extensions>
      </trkpt>
      <trkpt lat="42.6202757656574249267578125" lon="19.8942113108932971954345703125">
        <ele>1613.5999755859375</ele>
        <time>2026-06-16T11:35:10.000Z</time>
        <extensions>
          <ns3:TrackPointExtension>
            <ns3:atemp>19.0</ns3:atemp>
          </ns3:TrackPointExtension>
        </extensions>
      </trkpt>
      <trkpt lat="42.6202757656574249267578125" lon="19.8942113108932971954345703125">
        <ele>1613.5999755859375</ele>
        <time>2026-06-16T11:35:11.000Z</time>
        <extensions>
          <ns3:TrackPointExtension>
            <ns3:atemp>19.0</ns3:atemp>
          </ns3:TrackPointExtension>
        </extensions>
      </trkpt>
      <trkpt lat="42.6202757656574249267578125" lon="19.8942113108932971954345703125">
        <ele>1613.5999755859375</ele>
        <time>2026-06-16T11:35:12.000Z</time>
        <extensions>
          <ns3:TrackPointExtension>
            <ns3:atemp>19.0</ns3:atemp>
          </ns3:TrackPointExtension>
        </extensions>
      </trkpt>
      <trkpt lat="42.6202757656574249267578125" lon="19.8942113108932971954345703125">
        <ele>1613.5999755859375</ele>
        <time>2026-06-16T11:35:13.000Z</time>
        <extensions>
          <ns3:TrackPointExtension>
            <ns3:atemp>19.0</ns3:atemp>
          </ns3:TrackPointExtension>
        </extensions>
      </trkpt>
      <trkpt lat="42.6202757656574249267578125" lon="19.8942113108932971954345703125">
        <ele>1613.5999755859375</ele>
        <time>2026-06-16T11:35:14.000Z</time>
        <extensions>
          <ns3:TrackPointExtension>
            <ns3:atemp>19.0</ns3:atemp>
          </ns3:TrackPointExtension>
        </extensions>
      </trkpt>
      <trkpt lat="42.6202757656574249267578125" lon="19.8942113108932971954345703125">
        <ele>1613.5999755859375</ele>
        <time>2026-06-16T11:35:15.000Z</time>
        <extensions>
          <ns3:TrackPointExtension>
            <ns3:atemp>19.0</ns3:atemp>
          </ns3:TrackPointExtension>
        </extensions>
      </trkpt>
      <trkpt lat="42.6202757656574249267578125" lon="19.8942113108932971954345703125">
        <ele>1613.5999755859375</ele>
        <time>2026-06-16T11:35:16.000Z</time>
        <extensions>
          <ns3:TrackPointExtension>
            <ns3:atemp>19.0</ns3:atemp>
          </ns3:TrackPointExtension>
        </extensions>
      </trkpt>
      <trkpt lat="42.6202757656574249267578125" lon="19.8942113108932971954345703125">
        <ele>1613.5999755859375</ele>
        <time>2026-06-16T11:35:17.000Z</time>
        <extensions>
          <ns3:TrackPointExtension>
            <ns3:atemp>19.0</ns3:atemp>
          </ns3:TrackPointExtension>
        </extensions>
      </trkpt>
      <trkpt lat="42.6202757656574249267578125" lon="19.8942113108932971954345703125">
        <ele>1613.5999755859375</ele>
        <time>2026-06-16T11:35:18.000Z</time>
        <extensions>
          <ns3:TrackPointExtension>
            <ns3:atemp>19.0</ns3:atemp>
          </ns3:TrackPointExtension>
        </extensions>
      </trkpt>
      <trkpt lat="42.6202757656574249267578125" lon="19.8942113108932971954345703125">
        <ele>1613.5999755859375</ele>
        <time>2026-06-16T11:35:19.000Z</time>
        <extensions>
          <ns3:TrackPointExtension>
            <ns3:atemp>19.0</ns3:atemp>
          </ns3:TrackPointExtension>
        </extensions>
      </trkpt>
      <trkpt lat="42.6202757656574249267578125" lon="19.8942113108932971954345703125">
        <ele>1613.5999755859375</ele>
        <time>2026-06-16T11:35:20.000Z</time>
        <extensions>
          <ns3:TrackPointExtension>
            <ns3:atemp>19.0</ns3:atemp>
          </ns3:TrackPointExtension>
        </extensions>
      </trkpt>
      <trkpt lat="42.6202757656574249267578125" lon="19.8942113108932971954345703125">
        <ele>1613.5999755859375</ele>
        <time>2026-06-16T11:35:21.000Z</time>
        <extensions>
          <ns3:TrackPointExtension>
            <ns3:atemp>19.0</ns3:atemp>
          </ns3:TrackPointExtension>
        </extensions>
      </trkpt>
      <trkpt lat="42.6202757656574249267578125" lon="19.8942113108932971954345703125">
        <ele>1613.5999755859375</ele>
        <time>2026-06-16T11:35:22.000Z</time>
        <extensions>
          <ns3:TrackPointExtension>
            <ns3:atemp>19.0</ns3:atemp>
          </ns3:TrackPointExtension>
        </extensions>
      </trkpt>
      <trkpt lat="42.6202757656574249267578125" lon="19.8942113108932971954345703125">
        <ele>1613.5999755859375</ele>
        <time>2026-06-16T11:35:23.000Z</time>
        <extensions>
          <ns3:TrackPointExtension>
            <ns3:atemp>19.0</ns3:atemp>
          </ns3:TrackPointExtension>
        </extensions>
      </trkpt>
      <trkpt lat="42.6202757656574249267578125" lon="19.8942113108932971954345703125">
        <ele>1613.5999755859375</ele>
        <time>2026-06-16T11:35:24.000Z</time>
        <extensions>
          <ns3:TrackPointExtension>
            <ns3:atemp>19.0</ns3:atemp>
          </ns3:TrackPointExtension>
        </extensions>
      </trkpt>
      <trkpt lat="42.6202757656574249267578125" lon="19.8942113108932971954345703125">
        <ele>1613.5999755859375</ele>
        <time>2026-06-16T11:35:25.000Z</time>
        <extensions>
          <ns3:TrackPointExtension>
            <ns3:atemp>19.0</ns3:atemp>
          </ns3:TrackPointExtension>
        </extensions>
      </trkpt>
      <trkpt lat="42.6202757656574249267578125" lon="19.8942113108932971954345703125">
        <ele>1613.5999755859375</ele>
        <time>2026-06-16T11:35:26.000Z</time>
        <extensions>
          <ns3:TrackPointExtension>
            <ns3:atemp>19.0</ns3:atemp>
          </ns3:TrackPointExtension>
        </extensions>
      </trkpt>
      <trkpt lat="42.6202757656574249267578125" lon="19.8942113108932971954345703125">
        <ele>1613.5999755859375</ele>
        <time>2026-06-16T11:35:27.000Z</time>
        <extensions>
          <ns3:TrackPointExtension>
            <ns3:atemp>19.0</ns3:atemp>
          </ns3:TrackPointExtension>
        </extensions>
      </trkpt>
      <trkpt lat="42.6202757656574249267578125" lon="19.8942113108932971954345703125">
        <ele>1613.5999755859375</ele>
        <time>2026-06-16T11:35:28.000Z</time>
        <extensions>
          <ns3:TrackPointExtension>
            <ns3:atemp>19.0</ns3:atemp>
          </ns3:TrackPointExtension>
        </extensions>
      </trkpt>
      <trkpt lat="42.6202757656574249267578125" lon="19.8942113108932971954345703125">
        <ele>1613.5999755859375</ele>
        <time>2026-06-16T11:35:29.000Z</time>
        <extensions>
          <ns3:TrackPointExtension>
            <ns3:atemp>20.0</ns3:atemp>
          </ns3:TrackPointExtension>
        </extensions>
      </trkpt>
      <trkpt lat="42.6202757656574249267578125" lon="19.8942113108932971954345703125">
        <ele>1613.5999755859375</ele>
        <time>2026-06-16T11:35:30.000Z</time>
        <extensions>
          <ns3:TrackPointExtension>
            <ns3:atemp>20.0</ns3:atemp>
          </ns3:TrackPointExtension>
        </extensions>
      </trkpt>
      <trkpt lat="42.6202757656574249267578125" lon="19.8942113108932971954345703125">
        <ele>1613.5999755859375</ele>
        <time>2026-06-16T11:35:31.000Z</time>
        <extensions>
          <ns3:TrackPointExtension>
            <ns3:atemp>20.0</ns3:atemp>
          </ns3:TrackPointExtension>
        </extensions>
      </trkpt>
      <trkpt lat="42.6202757656574249267578125" lon="19.8942113108932971954345703125">
        <ele>1613.5999755859375</ele>
        <time>2026-06-16T11:35:32.000Z</time>
        <extensions>
          <ns3:TrackPointExtension>
            <ns3:atemp>20.0</ns3:atemp>
          </ns3:TrackPointExtension>
        </extensions>
      </trkpt>
      <trkpt lat="42.6202757656574249267578125" lon="19.8942113108932971954345703125">
        <ele>1613.5999755859375</ele>
        <time>2026-06-16T11:35:33.000Z</time>
        <extensions>
          <ns3:TrackPointExtension>
            <ns3:atemp>20.0</ns3:atemp>
          </ns3:TrackPointExtension>
        </extensions>
      </trkpt>
      <trkpt lat="42.6202757656574249267578125" lon="19.8942113108932971954345703125">
        <ele>1613.5999755859375</ele>
        <time>2026-06-16T11:35:34.000Z</time>
        <extensions>
          <ns3:TrackPointExtension>
            <ns3:atemp>20.0</ns3:atemp>
          </ns3:TrackPointExtension>
        </extensions>
      </trkpt>
      <trkpt lat="42.6202757656574249267578125" lon="19.8942113108932971954345703125">
        <ele>1613.5999755859375</ele>
        <time>2026-06-16T11:35:35.000Z</time>
        <extensions>
          <ns3:TrackPointExtension>
            <ns3:atemp>20.0</ns3:atemp>
          </ns3:TrackPointExtension>
        </extensions>
      </trkpt>
      <trkpt lat="42.6202757656574249267578125" lon="19.8942113108932971954345703125">
        <ele>1613.5999755859375</ele>
        <time>2026-06-16T11:35:36.000Z</time>
        <extensions>
          <ns3:TrackPointExtension>
            <ns3:atemp>20.0</ns3:atemp>
          </ns3:TrackPointExtension>
        </extensions>
      </trkpt>
      <trkpt lat="42.6202757656574249267578125" lon="19.8942113108932971954345703125">
        <ele>1613.5999755859375</ele>
        <time>2026-06-16T11:35:37.000Z</time>
        <extensions>
          <ns3:TrackPointExtension>
            <ns3:atemp>20.0</ns3:atemp>
          </ns3:TrackPointExtension>
        </extensions>
      </trkpt>
      <trkpt lat="42.6202757656574249267578125" lon="19.8942113108932971954345703125">
        <ele>1613.5999755859375</ele>
        <time>2026-06-16T11:35:38.000Z</time>
        <extensions>
          <ns3:TrackPointExtension>
            <ns3:atemp>20.0</ns3:atemp>
          </ns3:TrackPointExtension>
        </extensions>
      </trkpt>
      <trkpt lat="42.6202757656574249267578125" lon="19.8942113108932971954345703125">
        <ele>1613.5999755859375</ele>
        <time>2026-06-16T11:35:39.000Z</time>
        <extensions>
          <ns3:TrackPointExtension>
            <ns3:atemp>20.0</ns3:atemp>
          </ns3:TrackPointExtension>
        </extensions>
      </trkpt>
      <trkpt lat="42.6202757656574249267578125" lon="19.8942113108932971954345703125">
        <ele>1613.5999755859375</ele>
        <time>2026-06-16T11:35:40.000Z</time>
        <extensions>
          <ns3:TrackPointExtension>
            <ns3:atemp>20.0</ns3:atemp>
          </ns3:TrackPointExtension>
        </extensions>
      </trkpt>
      <trkpt lat="42.6202757656574249267578125" lon="19.8942113108932971954345703125">
        <ele>1613.5999755859375</ele>
        <time>2026-06-16T11:35:41.000Z</time>
        <extensions>
          <ns3:TrackPointExtension>
            <ns3:atemp>20.0</ns3:atemp>
          </ns3:TrackPointExtension>
        </extensions>
      </trkpt>
      <trkpt lat="42.6202757656574249267578125" lon="19.8942113108932971954345703125">
        <ele>1613.5999755859375</ele>
        <time>2026-06-16T11:35:42.000Z</time>
        <extensions>
          <ns3:TrackPointExtension>
            <ns3:atemp>20.0</ns3:atemp>
          </ns3:TrackPointExtension>
        </extensions>
      </trkpt>
      <trkpt lat="42.6202757656574249267578125" lon="19.8942113108932971954345703125">
        <ele>1613.5999755859375</ele>
        <time>2026-06-16T11:35:43.000Z</time>
        <extensions>
          <ns3:TrackPointExtension>
            <ns3:atemp>20.0</ns3:atemp>
          </ns3:TrackPointExtension>
        </extensions>
      </trkpt>
      <trkpt lat="42.6202757656574249267578125" lon="19.8942113108932971954345703125">
        <ele>1613.5999755859375</ele>
        <time>2026-06-16T11:35:44.000Z</time>
        <extensions>
          <ns3:TrackPointExtension>
            <ns3:atemp>20.0</ns3:atemp>
          </ns3:TrackPointExtension>
        </extensions>
      </trkpt>
      <trkpt lat="42.6202757656574249267578125" lon="19.8942113108932971954345703125">
        <ele>1613.5999755859375</ele>
        <time>2026-06-16T11:35:45.000Z</time>
        <extensions>
          <ns3:TrackPointExtension>
            <ns3:atemp>20.0</ns3:atemp>
          </ns3:TrackPointExtension>
        </extensions>
      </trkpt>
      <trkpt lat="42.6202757656574249267578125" lon="19.8942113108932971954345703125">
        <ele>1613.5999755859375</ele>
        <time>2026-06-16T11:35:46.000Z</time>
        <extensions>
          <ns3:TrackPointExtension>
            <ns3:atemp>20.0</ns3:atemp>
          </ns3:TrackPointExtension>
        </extensions>
      </trkpt>
      <trkpt lat="42.6202757656574249267578125" lon="19.8942113108932971954345703125">
        <ele>1613.5999755859375</ele>
        <time>2026-06-16T11:35:47.000Z</time>
        <extensions>
          <ns3:TrackPointExtension>
            <ns3:atemp>20.0</ns3:atemp>
          </ns3:TrackPointExtension>
        </extensions>
      </trkpt>
      <trkpt lat="42.6202757656574249267578125" lon="19.8942113108932971954345703125">
        <ele>1613.5999755859375</ele>
        <time>2026-06-16T11:35:48.000Z</time>
        <extensions>
          <ns3:TrackPointExtension>
            <ns3:atemp>20.0</ns3:atemp>
          </ns3:TrackPointExtension>
        </extensions>
      </trkpt>
      <trkpt lat="42.6202757656574249267578125" lon="19.8942113108932971954345703125">
        <ele>1613.5999755859375</ele>
        <time>2026-06-16T11:35:49.000Z</time>
        <extensions>
          <ns3:TrackPointExtension>
            <ns3:atemp>20.0</ns3:atemp>
          </ns3:TrackPointExtension>
        </extensions>
      </trkpt>
      <trkpt lat="42.6202757656574249267578125" lon="19.8942113108932971954345703125">
        <ele>1613.5999755859375</ele>
        <time>2026-06-16T11:35:50.000Z</time>
        <extensions>
          <ns3:TrackPointExtension>
            <ns3:atemp>20.0</ns3:atemp>
          </ns3:TrackPointExtension>
        </extensions>
      </trkpt>
      <trkpt lat="42.6202757656574249267578125" lon="19.8942113108932971954345703125">
        <ele>1613.5999755859375</ele>
        <time>2026-06-16T11:35:51.000Z</time>
        <extensions>
          <ns3:TrackPointExtension>
            <ns3:atemp>20.0</ns3:atemp>
          </ns3:TrackPointExtension>
        </extensions>
      </trkpt>
      <trkpt lat="42.6202757656574249267578125" lon="19.8942113108932971954345703125">
        <ele>1613.5999755859375</ele>
        <time>2026-06-16T11:35:52.000Z</time>
        <extensions>
          <ns3:TrackPointExtension>
            <ns3:atemp>20.0</ns3:atemp>
          </ns3:TrackPointExtension>
        </extensions>
      </trkpt>
      <trkpt lat="42.6202757656574249267578125" lon="19.8942113108932971954345703125">
        <ele>1613.5999755859375</ele>
        <time>2026-06-16T11:35:53.000Z</time>
        <extensions>
          <ns3:TrackPointExtension>
            <ns3:atemp>20.0</ns3:atemp>
          </ns3:TrackPointExtension>
        </extensions>
      </trkpt>
      <trkpt lat="42.6202757656574249267578125" lon="19.8942113108932971954345703125">
        <ele>1613.5999755859375</ele>
        <time>2026-06-16T11:35:54.000Z</time>
        <extensions>
          <ns3:TrackPointExtension>
            <ns3:atemp>20.0</ns3:atemp>
          </ns3:TrackPointExtension>
        </extensions>
      </trkpt>
      <trkpt lat="42.6202757656574249267578125" lon="19.8942113108932971954345703125">
        <ele>1613.5999755859375</ele>
        <time>2026-06-16T11:35:55.000Z</time>
        <extensions>
          <ns3:TrackPointExtension>
            <ns3:atemp>20.0</ns3:atemp>
          </ns3:TrackPointExtension>
        </extensions>
      </trkpt>
      <trkpt lat="42.6202757656574249267578125" lon="19.8942113108932971954345703125">
        <ele>1613.5999755859375</ele>
        <time>2026-06-16T11:35:56.000Z</time>
        <extensions>
          <ns3:TrackPointExtension>
            <ns3:atemp>20.0</ns3:atemp>
          </ns3:TrackPointExtension>
        </extensions>
      </trkpt>
      <trkpt lat="42.6202757656574249267578125" lon="19.8942113108932971954345703125">
        <ele>1613.5999755859375</ele>
        <time>2026-06-16T11:35:57.000Z</time>
        <extensions>
          <ns3:TrackPointExtension>
            <ns3:atemp>20.0</ns3:atemp>
          </ns3:TrackPointExtension>
        </extensions>
      </trkpt>
      <trkpt lat="42.6202757656574249267578125" lon="19.8942113108932971954345703125">
        <ele>1613.5999755859375</ele>
        <time>2026-06-16T11:35:58.000Z</time>
        <extensions>
          <ns3:TrackPointExtension>
            <ns3:atemp>20.0</ns3:atemp>
          </ns3:TrackPointExtension>
        </extensions>
      </trkpt>
      <trkpt lat="42.6202757656574249267578125" lon="19.8942113108932971954345703125">
        <ele>1613.5999755859375</ele>
        <time>2026-06-16T11:35:59.000Z</time>
        <extensions>
          <ns3:TrackPointExtension>
            <ns3:atemp>20.0</ns3:atemp>
          </ns3:TrackPointExtension>
        </extensions>
      </trkpt>
      <trkpt lat="42.6202757656574249267578125" lon="19.8942113108932971954345703125">
        <ele>1613.5999755859375</ele>
        <time>2026-06-16T11:36:00.000Z</time>
        <extensions>
          <ns3:TrackPointExtension>
            <ns3:atemp>20.0</ns3:atemp>
          </ns3:TrackPointExtension>
        </extensions>
      </trkpt>
      <trkpt lat="42.6202757656574249267578125" lon="19.8942113108932971954345703125">
        <ele>1613.5999755859375</ele>
        <time>2026-06-16T11:36:01.000Z</time>
        <extensions>
          <ns3:TrackPointExtension>
            <ns3:atemp>20.0</ns3:atemp>
          </ns3:TrackPointExtension>
        </extensions>
      </trkpt>
      <trkpt lat="42.6202757656574249267578125" lon="19.8942113108932971954345703125">
        <ele>1613.5999755859375</ele>
        <time>2026-06-16T11:36:02.000Z</time>
        <extensions>
          <ns3:TrackPointExtension>
            <ns3:atemp>20.0</ns3:atemp>
          </ns3:TrackPointExtension>
        </extensions>
      </trkpt>
      <trkpt lat="42.6202757656574249267578125" lon="19.8942113108932971954345703125">
        <ele>1613.5999755859375</ele>
        <time>2026-06-16T11:36:03.000Z</time>
        <extensions>
          <ns3:TrackPointExtension>
            <ns3:atemp>20.0</ns3:atemp>
          </ns3:TrackPointExtension>
        </extensions>
      </trkpt>
      <trkpt lat="42.6202757656574249267578125" lon="19.8942113108932971954345703125">
        <ele>1613.5999755859375</ele>
        <time>2026-06-16T11:36:04.000Z</time>
        <extensions>
          <ns3:TrackPointExtension>
            <ns3:atemp>20.0</ns3:atemp>
          </ns3:TrackPointExtension>
        </extensions>
      </trkpt>
      <trkpt lat="42.6202757656574249267578125" lon="19.8942113108932971954345703125">
        <ele>1613.5999755859375</ele>
        <time>2026-06-16T11:36:05.000Z</time>
        <extensions>
          <ns3:TrackPointExtension>
            <ns3:atemp>20.0</ns3:atemp>
          </ns3:TrackPointExtension>
        </extensions>
      </trkpt>
      <trkpt lat="42.6202757656574249267578125" lon="19.8942113108932971954345703125">
        <ele>1613.5999755859375</ele>
        <time>2026-06-16T11:36:06.000Z</time>
        <extensions>
          <ns3:TrackPointExtension>
            <ns3:atemp>20.0</ns3:atemp>
          </ns3:TrackPointExtension>
        </extensions>
      </trkpt>
      <trkpt lat="42.6202757656574249267578125" lon="19.8942113108932971954345703125">
        <ele>1613.5999755859375</ele>
        <time>2026-06-16T11:36:07.000Z</time>
        <extensions>
          <ns3:TrackPointExtension>
            <ns3:atemp>20.0</ns3:atemp>
          </ns3:TrackPointExtension>
        </extensions>
      </trkpt>
      <trkpt lat="42.6202757656574249267578125" lon="19.8942113108932971954345703125">
        <ele>1613.5999755859375</ele>
        <time>2026-06-16T11:36:08.000Z</time>
        <extensions>
          <ns3:TrackPointExtension>
            <ns3:atemp>20.0</ns3:atemp>
          </ns3:TrackPointExtension>
        </extensions>
      </trkpt>
      <trkpt lat="42.6202757656574249267578125" lon="19.8942113108932971954345703125">
        <ele>1613.5999755859375</ele>
        <time>2026-06-16T11:36:09.000Z</time>
        <extensions>
          <ns3:TrackPointExtension>
            <ns3:atemp>20.0</ns3:atemp>
          </ns3:TrackPointExtension>
        </extensions>
      </trkpt>
      <trkpt lat="42.6202757656574249267578125" lon="19.8942113108932971954345703125">
        <ele>1613.5999755859375</ele>
        <time>2026-06-16T11:36:10.000Z</time>
        <extensions>
          <ns3:TrackPointExtension>
            <ns3:atemp>20.0</ns3:atemp>
          </ns3:TrackPointExtension>
        </extensions>
      </trkpt>
      <trkpt lat="42.6202757656574249267578125" lon="19.8942113108932971954345703125">
        <ele>1613.5999755859375</ele>
        <time>2026-06-16T11:36:11.000Z</time>
        <extensions>
          <ns3:TrackPointExtension>
            <ns3:atemp>20.0</ns3:atemp>
          </ns3:TrackPointExtension>
        </extensions>
      </trkpt>
      <trkpt lat="42.6202757656574249267578125" lon="19.8942113108932971954345703125">
        <ele>1613.5999755859375</ele>
        <time>2026-06-16T11:36:12.000Z</time>
        <extensions>
          <ns3:TrackPointExtension>
            <ns3:atemp>20.0</ns3:atemp>
          </ns3:TrackPointExtension>
        </extensions>
      </trkpt>
      <trkpt lat="42.6202757656574249267578125" lon="19.8942113108932971954345703125">
        <ele>1613.5999755859375</ele>
        <time>2026-06-16T11:36:13.000Z</time>
        <extensions>
          <ns3:TrackPointExtension>
            <ns3:atemp>20.0</ns3:atemp>
          </ns3:TrackPointExtension>
        </extensions>
      </trkpt>
      <trkpt lat="42.6202757656574249267578125" lon="19.8942113108932971954345703125">
        <ele>1613.5999755859375</ele>
        <time>2026-06-16T11:36:14.000Z</time>
        <extensions>
          <ns3:TrackPointExtension>
            <ns3:atemp>20.0</ns3:atemp>
          </ns3:TrackPointExtension>
        </extensions>
      </trkpt>
      <trkpt lat="42.6202757656574249267578125" lon="19.8942113108932971954345703125">
        <ele>1613.5999755859375</ele>
        <time>2026-06-16T11:36:15.000Z</time>
        <extensions>
          <ns3:TrackPointExtension>
            <ns3:atemp>20.0</ns3:atemp>
          </ns3:TrackPointExtension>
        </extensions>
      </trkpt>
      <trkpt lat="42.6202757656574249267578125" lon="19.8942113108932971954345703125">
        <ele>1613.5999755859375</ele>
        <time>2026-06-16T11:36:16.000Z</time>
        <extensions>
          <ns3:TrackPointExtension>
            <ns3:atemp>20.0</ns3:atemp>
          </ns3:TrackPointExtension>
        </extensions>
      </trkpt>
      <trkpt lat="42.6202757656574249267578125" lon="19.8942113108932971954345703125">
        <ele>1613.5999755859375</ele>
        <time>2026-06-16T11:36:17.000Z</time>
        <extensions>
          <ns3:TrackPointExtension>
            <ns3:atemp>20.0</ns3:atemp>
          </ns3:TrackPointExtension>
        </extensions>
      </trkpt>
      <trkpt lat="42.6202757656574249267578125" lon="19.8942113108932971954345703125">
        <ele>1613.5999755859375</ele>
        <time>2026-06-16T11:36:18.000Z</time>
        <extensions>
          <ns3:TrackPointExtension>
            <ns3:atemp>20.0</ns3:atemp>
          </ns3:TrackPointExtension>
        </extensions>
      </trkpt>
      <trkpt lat="42.6202757656574249267578125" lon="19.8942113108932971954345703125">
        <ele>1613.5999755859375</ele>
        <time>2026-06-16T11:36:19.000Z</time>
        <extensions>
          <ns3:TrackPointExtension>
            <ns3:atemp>20.0</ns3:atemp>
          </ns3:TrackPointExtension>
        </extensions>
      </trkpt>
      <trkpt lat="42.6202757656574249267578125" lon="19.8942113108932971954345703125">
        <ele>1613.5999755859375</ele>
        <time>2026-06-16T11:36:20.000Z</time>
        <extensions>
          <ns3:TrackPointExtension>
            <ns3:atemp>20.0</ns3:atemp>
          </ns3:TrackPointExtension>
        </extensions>
      </trkpt>
      <trkpt lat="42.6202757656574249267578125" lon="19.8942113108932971954345703125">
        <ele>1613.5999755859375</ele>
        <time>2026-06-16T11:36:21.000Z</time>
        <extensions>
          <ns3:TrackPointExtension>
            <ns3:atemp>20.0</ns3:atemp>
          </ns3:TrackPointExtension>
        </extensions>
      </trkpt>
      <trkpt lat="42.6202757656574249267578125" lon="19.8942113108932971954345703125">
        <ele>1613.5999755859375</ele>
        <time>2026-06-16T11:36:22.000Z</time>
        <extensions>
          <ns3:TrackPointExtension>
            <ns3:atemp>20.0</ns3:atemp>
          </ns3:TrackPointExtension>
        </extensions>
      </trkpt>
      <trkpt lat="42.6202757656574249267578125" lon="19.8942113108932971954345703125">
        <ele>1613.5999755859375</ele>
        <time>2026-06-16T11:36:23.000Z</time>
        <extensions>
          <ns3:TrackPointExtension>
            <ns3:atemp>20.0</ns3:atemp>
          </ns3:TrackPointExtension>
        </extensions>
      </trkpt>
      <trkpt lat="42.6202757656574249267578125" lon="19.8942113108932971954345703125">
        <ele>1613.5999755859375</ele>
        <time>2026-06-16T11:36:24.000Z</time>
        <extensions>
          <ns3:TrackPointExtension>
            <ns3:atemp>20.0</ns3:atemp>
          </ns3:TrackPointExtension>
        </extensions>
      </trkpt>
      <trkpt lat="42.6202757656574249267578125" lon="19.8942113108932971954345703125">
        <ele>1613.5999755859375</ele>
        <time>2026-06-16T11:36:25.000Z</time>
        <extensions>
          <ns3:TrackPointExtension>
            <ns3:atemp>20.0</ns3:atemp>
          </ns3:TrackPointExtension>
        </extensions>
      </trkpt>
      <trkpt lat="42.6202757656574249267578125" lon="19.8942113108932971954345703125">
        <ele>1613.5999755859375</ele>
        <time>2026-06-16T11:36:26.000Z</time>
        <extensions>
          <ns3:TrackPointExtension>
            <ns3:atemp>20.0</ns3:atemp>
          </ns3:TrackPointExtension>
        </extensions>
      </trkpt>
      <trkpt lat="42.6202757656574249267578125" lon="19.8942113108932971954345703125">
        <ele>1613.5999755859375</ele>
        <time>2026-06-16T11:36:27.000Z</time>
        <extensions>
          <ns3:TrackPointExtension>
            <ns3:atemp>20.0</ns3:atemp>
          </ns3:TrackPointExtension>
        </extensions>
      </trkpt>
      <trkpt lat="42.6202757656574249267578125" lon="19.8942113108932971954345703125">
        <ele>1613.5999755859375</ele>
        <time>2026-06-16T11:36:28.000Z</time>
        <extensions>
          <ns3:TrackPointExtension>
            <ns3:atemp>20.0</ns3:atemp>
          </ns3:TrackPointExtension>
        </extensions>
      </trkpt>
      <trkpt lat="42.6202757656574249267578125" lon="19.8942113108932971954345703125">
        <ele>1613.5999755859375</ele>
        <time>2026-06-16T11:36:29.000Z</time>
        <extensions>
          <ns3:TrackPointExtension>
            <ns3:atemp>20.0</ns3:atemp>
          </ns3:TrackPointExtension>
        </extensions>
      </trkpt>
      <trkpt lat="42.6202757656574249267578125" lon="19.8942113108932971954345703125">
        <ele>1613.5999755859375</ele>
        <time>2026-06-16T11:36:30.000Z</time>
        <extensions>
          <ns3:TrackPointExtension>
            <ns3:atemp>20.0</ns3:atemp>
          </ns3:TrackPointExtension>
        </extensions>
      </trkpt>
      <trkpt lat="42.6202757656574249267578125" lon="19.8942113108932971954345703125">
        <ele>1613.5999755859375</ele>
        <time>2026-06-16T11:36:31.000Z</time>
        <extensions>
          <ns3:TrackPointExtension>
            <ns3:atemp>20.0</ns3:atemp>
          </ns3:TrackPointExtension>
        </extensions>
      </trkpt>
      <trkpt lat="42.6202757656574249267578125" lon="19.8942113108932971954345703125">
        <ele>1613.5999755859375</ele>
        <time>2026-06-16T11:36:32.000Z</time>
        <extensions>
          <ns3:TrackPointExtension>
            <ns3:atemp>20.0</ns3:atemp>
          </ns3:TrackPointExtension>
        </extensions>
      </trkpt>
      <trkpt lat="42.6202757656574249267578125" lon="19.8942113108932971954345703125">
        <ele>1613.5999755859375</ele>
        <time>2026-06-16T11:36:33.000Z</time>
        <extensions>
          <ns3:TrackPointExtension>
            <ns3:atemp>20.0</ns3:atemp>
          </ns3:TrackPointExtension>
        </extensions>
      </trkpt>
      <trkpt lat="42.6202757656574249267578125" lon="19.8942113108932971954345703125">
        <ele>1613.5999755859375</ele>
        <time>2026-06-16T11:36:34.000Z</time>
        <extensions>
          <ns3:TrackPointExtension>
            <ns3:atemp>20.0</ns3:atemp>
          </ns3:TrackPointExtension>
        </extensions>
      </trkpt>
      <trkpt lat="42.6202757656574249267578125" lon="19.8942113108932971954345703125">
        <ele>1613.5999755859375</ele>
        <time>2026-06-16T11:36:35.000Z</time>
        <extensions>
          <ns3:TrackPointExtension>
            <ns3:atemp>20.0</ns3:atemp>
          </ns3:TrackPointExtension>
        </extensions>
      </trkpt>
      <trkpt lat="42.6202757656574249267578125" lon="19.8942113108932971954345703125">
        <ele>1613.5999755859375</ele>
        <time>2026-06-16T11:36:36.000Z</time>
        <extensions>
          <ns3:TrackPointExtension>
            <ns3:atemp>20.0</ns3:atemp>
          </ns3:TrackPointExtension>
        </extensions>
      </trkpt>
      <trkpt lat="42.6202757656574249267578125" lon="19.8942113108932971954345703125">
        <ele>1613.5999755859375</ele>
        <time>2026-06-16T11:36:37.000Z</time>
        <extensions>
          <ns3:TrackPointExtension>
            <ns3:atemp>20.0</ns3:atemp>
          </ns3:TrackPointExtension>
        </extensions>
      </trkpt>
      <trkpt lat="42.6202757656574249267578125" lon="19.8942113108932971954345703125">
        <ele>1613.5999755859375</ele>
        <time>2026-06-16T11:36:38.000Z</time>
        <extensions>
          <ns3:TrackPointExtension>
            <ns3:atemp>20.0</ns3:atemp>
          </ns3:TrackPointExtension>
        </extensions>
      </trkpt>
      <trkpt lat="42.6202757656574249267578125" lon="19.8942113108932971954345703125">
        <ele>1613.5999755859375</ele>
        <time>2026-06-16T11:36:39.000Z</time>
        <extensions>
          <ns3:TrackPointExtension>
            <ns3:atemp>20.0</ns3:atemp>
          </ns3:TrackPointExtension>
        </extensions>
      </trkpt>
      <trkpt lat="42.6202757656574249267578125" lon="19.8942113108932971954345703125">
        <ele>1613.5999755859375</ele>
        <time>2026-06-16T11:36:40.000Z</time>
        <extensions>
          <ns3:TrackPointExtension>
            <ns3:atemp>20.0</ns3:atemp>
          </ns3:TrackPointExtension>
        </extensions>
      </trkpt>
      <trkpt lat="42.6202757656574249267578125" lon="19.8942113108932971954345703125">
        <ele>1613.5999755859375</ele>
        <time>2026-06-16T11:36:41.000Z</time>
        <extensions>
          <ns3:TrackPointExtension>
            <ns3:atemp>20.0</ns3:atemp>
          </ns3:TrackPointExtension>
        </extensions>
      </trkpt>
      <trkpt lat="42.6202757656574249267578125" lon="19.8942113108932971954345703125">
        <ele>1613.5999755859375</ele>
        <time>2026-06-16T11:36:42.000Z</time>
        <extensions>
          <ns3:TrackPointExtension>
            <ns3:atemp>20.0</ns3:atemp>
          </ns3:TrackPointExtension>
        </extensions>
      </trkpt>
      <trkpt lat="42.6202757656574249267578125" lon="19.8942113108932971954345703125">
        <ele>1613.5999755859375</ele>
        <time>2026-06-16T11:36:43.000Z</time>
        <extensions>
          <ns3:TrackPointExtension>
            <ns3:atemp>20.0</ns3:atemp>
          </ns3:TrackPointExtension>
        </extensions>
      </trkpt>
      <trkpt lat="42.6202757656574249267578125" lon="19.8942113108932971954345703125">
        <ele>1613.5999755859375</ele>
        <time>2026-06-16T11:36:44.000Z</time>
        <extensions>
          <ns3:TrackPointExtension>
            <ns3:atemp>20.0</ns3:atemp>
          </ns3:TrackPointExtension>
        </extensions>
      </trkpt>
      <trkpt lat="42.6202757656574249267578125" lon="19.8942113108932971954345703125">
        <ele>1613.5999755859375</ele>
        <time>2026-06-16T11:36:45.000Z</time>
        <extensions>
          <ns3:TrackPointExtension>
            <ns3:atemp>20.0</ns3:atemp>
          </ns3:TrackPointExtension>
        </extensions>
      </trkpt>
      <trkpt lat="42.6202757656574249267578125" lon="19.8942113108932971954345703125">
        <ele>1613.5999755859375</ele>
        <time>2026-06-16T11:36:46.000Z</time>
        <extensions>
          <ns3:TrackPointExtension>
            <ns3:atemp>20.0</ns3:atemp>
          </ns3:TrackPointExtension>
        </extensions>
      </trkpt>
      <trkpt lat="42.6202757656574249267578125" lon="19.8942113108932971954345703125">
        <ele>1613.5999755859375</ele>
        <time>2026-06-16T11:36:47.000Z</time>
        <extensions>
          <ns3:TrackPointExtension>
            <ns3:atemp>20.0</ns3:atemp>
          </ns3:TrackPointExtension>
        </extensions>
      </trkpt>
      <trkpt lat="42.6202757656574249267578125" lon="19.8942113108932971954345703125">
        <ele>1613.5999755859375</ele>
        <time>2026-06-16T11:36:48.000Z</time>
        <extensions>
          <ns3:TrackPointExtension>
            <ns3:atemp>20.0</ns3:atemp>
          </ns3:TrackPointExtension>
        </extensions>
      </trkpt>
      <trkpt lat="42.6202757656574249267578125" lon="19.8942113108932971954345703125">
        <ele>1613.5999755859375</ele>
        <time>2026-06-16T11:36:49.000Z</time>
        <extensions>
          <ns3:TrackPointExtension>
            <ns3:atemp>20.0</ns3:atemp>
          </ns3:TrackPointExtension>
        </extensions>
      </trkpt>
      <trkpt lat="42.6202757656574249267578125" lon="19.8942113108932971954345703125">
        <ele>1613.5999755859375</ele>
        <time>2026-06-16T11:36:50.000Z</time>
        <extensions>
          <ns3:TrackPointExtension>
            <ns3:atemp>20.0</ns3:atemp>
          </ns3:TrackPointExtension>
        </extensions>
      </trkpt>
      <trkpt lat="42.6202757656574249267578125" lon="19.8942113108932971954345703125">
        <ele>1613.5999755859375</ele>
        <time>2026-06-16T11:36:51.000Z</time>
        <extensions>
          <ns3:TrackPointExtension>
            <ns3:atemp>20.0</ns3:atemp>
          </ns3:TrackPointExtension>
        </extensions>
      </trkpt>
      <trkpt lat="42.6202757656574249267578125" lon="19.8942113108932971954345703125">
        <ele>1613.5999755859375</ele>
        <time>2026-06-16T11:36:52.000Z</time>
        <extensions>
          <ns3:TrackPointExtension>
            <ns3:atemp>20.0</ns3:atemp>
          </ns3:TrackPointExtension>
        </extensions>
      </trkpt>
      <trkpt lat="42.6202757656574249267578125" lon="19.8942113108932971954345703125">
        <ele>1613.5999755859375</ele>
        <time>2026-06-16T11:36:53.000Z</time>
        <extensions>
          <ns3:TrackPointExtension>
            <ns3:atemp>20.0</ns3:atemp>
          </ns3:TrackPointExtension>
        </extensions>
      </trkpt>
      <trkpt lat="42.6202757656574249267578125" lon="19.8942113108932971954345703125">
        <ele>1613.5999755859375</ele>
        <time>2026-06-16T11:36:54.000Z</time>
        <extensions>
          <ns3:TrackPointExtension>
            <ns3:atemp>20.0</ns3:atemp>
          </ns3:TrackPointExtension>
        </extensions>
      </trkpt>
      <trkpt lat="42.6202757656574249267578125" lon="19.8942113108932971954345703125">
        <ele>1613.5999755859375</ele>
        <time>2026-06-16T11:36:55.000Z</time>
        <extensions>
          <ns3:TrackPointExtension>
            <ns3:atemp>20.0</ns3:atemp>
          </ns3:TrackPointExtension>
        </extensions>
      </trkpt>
      <trkpt lat="42.6202757656574249267578125" lon="19.8942113108932971954345703125">
        <ele>1613.5999755859375</ele>
        <time>2026-06-16T11:36:56.000Z</time>
        <extensions>
          <ns3:TrackPointExtension>
            <ns3:atemp>20.0</ns3:atemp>
          </ns3:TrackPointExtension>
        </extensions>
      </trkpt>
      <trkpt lat="42.6202757656574249267578125" lon="19.8942113108932971954345703125">
        <ele>1613.5999755859375</ele>
        <time>2026-06-16T11:36:57.000Z</time>
        <extensions>
          <ns3:TrackPointExtension>
            <ns3:atemp>20.0</ns3:atemp>
          </ns3:TrackPointExtension>
        </extensions>
      </trkpt>
      <trkpt lat="42.6202757656574249267578125" lon="19.8942113108932971954345703125">
        <ele>1613.5999755859375</ele>
        <time>2026-06-16T11:36:58.000Z</time>
        <extensions>
          <ns3:TrackPointExtension>
            <ns3:atemp>20.0</ns3:atemp>
          </ns3:TrackPointExtension>
        </extensions>
      </trkpt>
      <trkpt lat="42.6202757656574249267578125" lon="19.8942113108932971954345703125">
        <ele>1613.5999755859375</ele>
        <time>2026-06-16T11:36:59.000Z</time>
        <extensions>
          <ns3:TrackPointExtension>
            <ns3:atemp>21.0</ns3:atemp>
          </ns3:TrackPointExtension>
        </extensions>
      </trkpt>
      <trkpt lat="42.6202757656574249267578125" lon="19.8942113108932971954345703125">
        <ele>1613.5999755859375</ele>
        <time>2026-06-16T11:37:00.000Z</time>
        <extensions>
          <ns3:TrackPointExtension>
            <ns3:atemp>21.0</ns3:atemp>
          </ns3:TrackPointExtension>
        </extensions>
      </trkpt>
      <trkpt lat="42.6202757656574249267578125" lon="19.8942113108932971954345703125">
        <ele>1613.5999755859375</ele>
        <time>2026-06-16T11:37:01.000Z</time>
        <extensions>
          <ns3:TrackPointExtension>
            <ns3:atemp>21.0</ns3:atemp>
          </ns3:TrackPointExtension>
        </extensions>
      </trkpt>
      <trkpt lat="42.6202757656574249267578125" lon="19.8942113108932971954345703125">
        <ele>1613.5999755859375</ele>
        <time>2026-06-16T11:37:02.000Z</time>
        <extensions>
          <ns3:TrackPointExtension>
            <ns3:atemp>21.0</ns3:atemp>
          </ns3:TrackPointExtension>
        </extensions>
      </trkpt>
      <trkpt lat="42.6202757656574249267578125" lon="19.8942113108932971954345703125">
        <ele>1613.5999755859375</ele>
        <time>2026-06-16T11:37:03.000Z</time>
        <extensions>
          <ns3:TrackPointExtension>
            <ns3:atemp>21.0</ns3:atemp>
          </ns3:TrackPointExtension>
        </extensions>
      </trkpt>
      <trkpt lat="42.6202757656574249267578125" lon="19.8942113108932971954345703125">
        <ele>1613.5999755859375</ele>
        <time>2026-06-16T11:37:04.000Z</time>
        <extensions>
          <ns3:TrackPointExtension>
            <ns3:atemp>21.0</ns3:atemp>
          </ns3:TrackPointExtension>
        </extensions>
      </trkpt>
      <trkpt lat="42.6202757656574249267578125" lon="19.8942113108932971954345703125">
        <ele>1613.5999755859375</ele>
        <time>2026-06-16T11:37:05.000Z</time>
        <extensions>
          <ns3:TrackPointExtension>
            <ns3:atemp>21.0</ns3:atemp>
          </ns3:TrackPointExtension>
        </extensions>
      </trkpt>
      <trkpt lat="42.6202757656574249267578125" lon="19.8942113108932971954345703125">
        <ele>1613.5999755859375</ele>
        <time>2026-06-16T11:37:06.000Z</time>
        <extensions>
          <ns3:TrackPointExtension>
            <ns3:atemp>21.0</ns3:atemp>
          </ns3:TrackPointExtension>
        </extensions>
      </trkpt>
      <trkpt lat="42.6202757656574249267578125" lon="19.8942113108932971954345703125">
        <ele>1613.5999755859375</ele>
        <time>2026-06-16T11:37:07.000Z</time>
        <extensions>
          <ns3:TrackPointExtension>
            <ns3:atemp>21.0</ns3:atemp>
          </ns3:TrackPointExtension>
        </extensions>
      </trkpt>
      <trkpt lat="42.6202757656574249267578125" lon="19.8942113108932971954345703125">
        <ele>1613.5999755859375</ele>
        <time>2026-06-16T11:37:08.000Z</time>
        <extensions>
          <ns3:TrackPointExtension>
            <ns3:atemp>21.0</ns3:atemp>
          </ns3:TrackPointExtension>
        </extensions>
      </trkpt>
      <trkpt lat="42.6202757656574249267578125" lon="19.8942113108932971954345703125">
        <ele>1613.5999755859375</ele>
        <time>2026-06-16T11:37:09.000Z</time>
        <extensions>
          <ns3:TrackPointExtension>
            <ns3:atemp>21.0</ns3:atemp>
          </ns3:TrackPointExtension>
        </extensions>
      </trkpt>
      <trkpt lat="42.6202757656574249267578125" lon="19.8942113108932971954345703125">
        <ele>1613.5999755859375</ele>
        <time>2026-06-16T11:37:10.000Z</time>
        <extensions>
          <ns3:TrackPointExtension>
            <ns3:atemp>21.0</ns3:atemp>
          </ns3:TrackPointExtension>
        </extensions>
      </trkpt>
      <trkpt lat="42.6202757656574249267578125" lon="19.8942113108932971954345703125">
        <ele>1613.5999755859375</ele>
        <time>2026-06-16T11:37:11.000Z</time>
        <extensions>
          <ns3:TrackPointExtension>
            <ns3:atemp>21.0</ns3:atemp>
          </ns3:TrackPointExtension>
        </extensions>
      </trkpt>
      <trkpt lat="42.6202757656574249267578125" lon="19.8942113108932971954345703125">
        <ele>1613.5999755859375</ele>
        <time>2026-06-16T11:37:12.000Z</time>
        <extensions>
          <ns3:TrackPointExtension>
            <ns3:atemp>21.0</ns3:atemp>
          </ns3:TrackPointExtension>
        </extensions>
      </trkpt>
      <trkpt lat="42.6202757656574249267578125" lon="19.8942113108932971954345703125">
        <ele>1613.5999755859375</ele>
        <time>2026-06-16T11:37:13.000Z</time>
        <extensions>
          <ns3:TrackPointExtension>
            <ns3:atemp>21.0</ns3:atemp>
          </ns3:TrackPointExtension>
        </extensions>
      </trkpt>
      <trkpt lat="42.6202757656574249267578125" lon="19.8942113108932971954345703125">
        <ele>1613.5999755859375</ele>
        <time>2026-06-16T11:37:14.000Z</time>
        <extensions>
          <ns3:TrackPointExtension>
            <ns3:atemp>21.0</ns3:atemp>
          </ns3:TrackPointExtension>
        </extensions>
      </trkpt>
      <trkpt lat="42.6202757656574249267578125" lon="19.8942113108932971954345703125">
        <ele>1613.5999755859375</ele>
        <time>2026-06-16T11:37:15.000Z</time>
        <extensions>
          <ns3:TrackPointExtension>
            <ns3:atemp>21.0</ns3:atemp>
          </ns3:TrackPointExtension>
        </extensions>
      </trkpt>
      <trkpt lat="42.6202757656574249267578125" lon="19.8942113108932971954345703125">
        <ele>1613.5999755859375</ele>
        <time>2026-06-16T11:37:16.000Z</time>
        <extensions>
          <ns3:TrackPointExtension>
            <ns3:atemp>21.0</ns3:atemp>
          </ns3:TrackPointExtension>
        </extensions>
      </trkpt>
      <trkpt lat="42.6202757656574249267578125" lon="19.8942113108932971954345703125">
        <ele>1613.5999755859375</ele>
        <time>2026-06-16T11:37:17.000Z</time>
        <extensions>
          <ns3:TrackPointExtension>
            <ns3:atemp>21.0</ns3:atemp>
          </ns3:TrackPointExtension>
        </extensions>
      </trkpt>
      <trkpt lat="42.6202757656574249267578125" lon="19.8942113108932971954345703125">
        <ele>1613.5999755859375</ele>
        <time>2026-06-16T11:37:18.000Z</time>
        <extensions>
          <ns3:TrackPointExtension>
            <ns3:atemp>21.0</ns3:atemp>
          </ns3:TrackPointExtension>
        </extensions>
      </trkpt>
      <trkpt lat="42.6202757656574249267578125" lon="19.8942113108932971954345703125">
        <ele>1613.5999755859375</ele>
        <time>2026-06-16T11:37:19.000Z</time>
        <extensions>
          <ns3:TrackPointExtension>
            <ns3:atemp>21.0</ns3:atemp>
          </ns3:TrackPointExtension>
        </extensions>
      </trkpt>
      <trkpt lat="42.6202757656574249267578125" lon="19.8942113108932971954345703125">
        <ele>1613.5999755859375</ele>
        <time>2026-06-16T11:37:20.000Z</time>
        <extensions>
          <ns3:TrackPointExtension>
            <ns3:atemp>21.0</ns3:atemp>
          </ns3:TrackPointExtension>
        </extensions>
      </trkpt>
      <trkpt lat="42.6202757656574249267578125" lon="19.8942113108932971954345703125">
        <ele>1613.5999755859375</ele>
        <time>2026-06-16T11:37:21.000Z</time>
        <extensions>
          <ns3:TrackPointExtension>
            <ns3:atemp>21.0</ns3:atemp>
          </ns3:TrackPointExtension>
        </extensions>
      </trkpt>
      <trkpt lat="42.6202757656574249267578125" lon="19.8942113108932971954345703125">
        <ele>1613.5999755859375</ele>
        <time>2026-06-16T11:37:22.000Z</time>
        <extensions>
          <ns3:TrackPointExtension>
            <ns3:atemp>21.0</ns3:atemp>
          </ns3:TrackPointExtension>
        </extensions>
      </trkpt>
      <trkpt lat="42.6202757656574249267578125" lon="19.8942113108932971954345703125">
        <ele>1613.5999755859375</ele>
        <time>2026-06-16T11:37:23.000Z</time>
        <extensions>
          <ns3:TrackPointExtension>
            <ns3:atemp>21.0</ns3:atemp>
          </ns3:TrackPointExtension>
        </extensions>
      </trkpt>
      <trkpt lat="42.6202757656574249267578125" lon="19.8942113108932971954345703125">
        <ele>1613.5999755859375</ele>
        <time>2026-06-16T11:37:24.000Z</time>
        <extensions>
          <ns3:TrackPointExtension>
            <ns3:atemp>21.0</ns3:atemp>
          </ns3:TrackPointExtension>
        </extensions>
      </trkpt>
      <trkpt lat="42.6202757656574249267578125" lon="19.8942113108932971954345703125">
        <ele>1613.5999755859375</ele>
        <time>2026-06-16T11:37:25.000Z</time>
        <extensions>
          <ns3:TrackPointExtension>
            <ns3:atemp>21.0</ns3:atemp>
          </ns3:TrackPointExtension>
        </extensions>
      </trkpt>
      <trkpt lat="42.6202757656574249267578125" lon="19.8942113108932971954345703125">
        <ele>1613.5999755859375</ele>
        <time>2026-06-16T11:37:26.000Z</time>
        <extensions>
          <ns3:TrackPointExtension>
            <ns3:atemp>21.0</ns3:atemp>
          </ns3:TrackPointExtension>
        </extensions>
      </trkpt>
      <trkpt lat="42.6202757656574249267578125" lon="19.8942113108932971954345703125">
        <ele>1613.5999755859375</ele>
        <time>2026-06-16T11:37:27.000Z</time>
        <extensions>
          <ns3:TrackPointExtension>
            <ns3:atemp>21.0</ns3:atemp>
          </ns3:TrackPointExtension>
        </extensions>
      </trkpt>
      <trkpt lat="42.6202757656574249267578125" lon="19.8942113108932971954345703125">
        <ele>1613.5999755859375</ele>
        <time>2026-06-16T11:37:28.000Z</time>
        <extensions>
          <ns3:TrackPointExtension>
            <ns3:atemp>21.0</ns3:atemp>
          </ns3:TrackPointExtension>
        </extensions>
      </trkpt>
      <trkpt lat="42.6202757656574249267578125" lon="19.8942113108932971954345703125">
        <ele>1613.5999755859375</ele>
        <time>2026-06-16T11:37:29.000Z</time>
        <extensions>
          <ns3:TrackPointExtension>
            <ns3:atemp>21.0</ns3:atemp>
          </ns3:TrackPointExtension>
        </extensions>
      </trkpt>
      <trkpt lat="42.6202757656574249267578125" lon="19.8942113108932971954345703125">
        <ele>1613.5999755859375</ele>
        <time>2026-06-16T11:37:30.000Z</time>
        <extensions>
          <ns3:TrackPointExtension>
            <ns3:atemp>21.0</ns3:atemp>
          </ns3:TrackPointExtension>
        </extensions>
      </trkpt>
      <trkpt lat="42.6202757656574249267578125" lon="19.8942113108932971954345703125">
        <ele>1613.5999755859375</ele>
        <time>2026-06-16T11:37:31.000Z</time>
        <extensions>
          <ns3:TrackPointExtension>
            <ns3:atemp>21.0</ns3:atemp>
          </ns3:TrackPointExtension>
        </extensions>
      </trkpt>
      <trkpt lat="42.6202757656574249267578125" lon="19.8942113108932971954345703125">
        <ele>1613.5999755859375</ele>
        <time>2026-06-16T11:37:32.000Z</time>
        <extensions>
          <ns3:TrackPointExtension>
            <ns3:atemp>21.0</ns3:atemp>
          </ns3:TrackPointExtension>
        </extensions>
      </trkpt>
      <trkpt lat="42.6202757656574249267578125" lon="19.8942113108932971954345703125">
        <ele>1613.5999755859375</ele>
        <time>2026-06-16T11:37:33.000Z</time>
        <extensions>
          <ns3:TrackPointExtension>
            <ns3:atemp>21.0</ns3:atemp>
          </ns3:TrackPointExtension>
        </extensions>
      </trkpt>
      <trkpt lat="42.6202757656574249267578125" lon="19.8942113108932971954345703125">
        <ele>1613.5999755859375</ele>
        <time>2026-06-16T11:37:34.000Z</time>
        <extensions>
          <ns3:TrackPointExtension>
            <ns3:atemp>21.0</ns3:atemp>
          </ns3:TrackPointExtension>
        </extensions>
      </trkpt>
      <trkpt lat="42.6202757656574249267578125" lon="19.8942113108932971954345703125">
        <ele>1613.5999755859375</ele>
        <time>2026-06-16T11:37:35.000Z</time>
        <extensions>
          <ns3:TrackPointExtension>
            <ns3:atemp>21.0</ns3:atemp>
          </ns3:TrackPointExtension>
        </extensions>
      </trkpt>
      <trkpt lat="42.6202757656574249267578125" lon="19.8942113108932971954345703125">
        <ele>1613.5999755859375</ele>
        <time>2026-06-16T11:37:36.000Z</time>
        <extensions>
          <ns3:TrackPointExtension>
            <ns3:atemp>21.0</ns3:atemp>
          </ns3:TrackPointExtension>
        </extensions>
      </trkpt>
      <trkpt lat="42.6202757656574249267578125" lon="19.8942113108932971954345703125">
        <ele>1613.5999755859375</ele>
        <time>2026-06-16T11:37:37.000Z</time>
        <extensions>
          <ns3:TrackPointExtension>
            <ns3:atemp>21.0</ns3:atemp>
          </ns3:TrackPointExtension>
        </extensions>
      </trkpt>
      <trkpt lat="42.6202757656574249267578125" lon="19.8942113108932971954345703125">
        <ele>1613.5999755859375</ele>
        <time>2026-06-16T11:37:38.000Z</time>
        <extensions>
          <ns3:TrackPointExtension>
            <ns3:atemp>21.0</ns3:atemp>
          </ns3:TrackPointExtension>
        </extensions>
      </trkpt>
      <trkpt lat="42.6202757656574249267578125" lon="19.8942113108932971954345703125">
        <ele>1613.5999755859375</ele>
        <time>2026-06-16T11:37:39.000Z</time>
        <extensions>
          <ns3:TrackPointExtension>
            <ns3:atemp>21.0</ns3:atemp>
          </ns3:TrackPointExtension>
        </extensions>
      </trkpt>
      <trkpt lat="42.6202757656574249267578125" lon="19.8942113108932971954345703125">
        <ele>1613.5999755859375</ele>
        <time>2026-06-16T11:37:40.000Z</time>
        <extensions>
          <ns3:TrackPointExtension>
            <ns3:atemp>21.0</ns3:atemp>
          </ns3:TrackPointExtension>
        </extensions>
      </trkpt>
      <trkpt lat="42.6202757656574249267578125" lon="19.8942113108932971954345703125">
        <ele>1613.5999755859375</ele>
        <time>2026-06-16T11:37:41.000Z</time>
        <extensions>
          <ns3:TrackPointExtension>
            <ns3:atemp>21.0</ns3:atemp>
          </ns3:TrackPointExtension>
        </extensions>
      </trkpt>
      <trkpt lat="42.6202757656574249267578125" lon="19.8942113108932971954345703125">
        <ele>1613.5999755859375</ele>
        <time>2026-06-16T11:37:42.000Z</time>
        <extensions>
          <ns3:TrackPointExtension>
            <ns3:atemp>21.0</ns3:atemp>
          </ns3:TrackPointExtension>
        </extensions>
      </trkpt>
      <trkpt lat="42.6202757656574249267578125" lon="19.8942113108932971954345703125">
        <ele>1613.5999755859375</ele>
        <time>2026-06-16T11:37:43.000Z</time>
        <extensions>
          <ns3:TrackPointExtension>
            <ns3:atemp>21.0</ns3:atemp>
          </ns3:TrackPointExtension>
        </extensions>
      </trkpt>
      <trkpt lat="42.6202757656574249267578125" lon="19.8942113108932971954345703125">
        <ele>1613.5999755859375</ele>
        <time>2026-06-16T11:37:44.000Z</time>
        <extensions>
          <ns3:TrackPointExtension>
            <ns3:atemp>21.0</ns3:atemp>
          </ns3:TrackPointExtension>
        </extensions>
      </trkpt>
      <trkpt lat="42.6202757656574249267578125" lon="19.8942113108932971954345703125">
        <ele>1613.5999755859375</ele>
        <time>2026-06-16T11:37:45.000Z</time>
        <extensions>
          <ns3:TrackPointExtension>
            <ns3:atemp>21.0</ns3:atemp>
          </ns3:TrackPointExtension>
        </extensions>
      </trkpt>
      <trkpt lat="42.6202757656574249267578125" lon="19.8942113108932971954345703125">
        <ele>1613.5999755859375</ele>
        <time>2026-06-16T11:37:46.000Z</time>
        <extensions>
          <ns3:TrackPointExtension>
            <ns3:atemp>21.0</ns3:atemp>
          </ns3:TrackPointExtension>
        </extensions>
      </trkpt>
      <trkpt lat="42.6202757656574249267578125" lon="19.8942113108932971954345703125">
        <ele>1613.5999755859375</ele>
        <time>2026-06-16T11:37:47.000Z</time>
        <extensions>
          <ns3:TrackPointExtension>
            <ns3:atemp>21.0</ns3:atemp>
          </ns3:TrackPointExtension>
        </extensions>
      </trkpt>
      <trkpt lat="42.6202757656574249267578125" lon="19.8942113108932971954345703125">
        <ele>1613.5999755859375</ele>
        <time>2026-06-16T11:37:48.000Z</time>
        <extensions>
          <ns3:TrackPointExtension>
            <ns3:atemp>21.0</ns3:atemp>
          </ns3:TrackPointExtension>
        </extensions>
      </trkpt>
      <trkpt lat="42.6202757656574249267578125" lon="19.8942113108932971954345703125">
        <ele>1613.5999755859375</ele>
        <time>2026-06-16T11:37:49.000Z</time>
        <extensions>
          <ns3:TrackPointExtension>
            <ns3:atemp>21.0</ns3:atemp>
          </ns3:TrackPointExtension>
        </extensions>
      </trkpt>
      <trkpt lat="42.6202757656574249267578125" lon="19.8942113108932971954345703125">
        <ele>1613.5999755859375</ele>
        <time>2026-06-16T11:37:50.000Z</time>
        <extensions>
          <ns3:TrackPointExtension>
            <ns3:atemp>21.0</ns3:atemp>
          </ns3:TrackPointExtension>
        </extensions>
      </trkpt>
      <trkpt lat="42.6202757656574249267578125" lon="19.8942113108932971954345703125">
        <ele>1613.5999755859375</ele>
        <time>2026-06-16T11:37:51.000Z</time>
        <extensions>
          <ns3:TrackPointExtension>
            <ns3:atemp>21.0</ns3:atemp>
          </ns3:TrackPointExtension>
        </extensions>
      </trkpt>
      <trkpt lat="42.6202757656574249267578125" lon="19.8942113108932971954345703125">
        <ele>1613.5999755859375</ele>
        <time>2026-06-16T11:37:52.000Z</time>
        <extensions>
          <ns3:TrackPointExtension>
            <ns3:atemp>21.0</ns3:atemp>
          </ns3:TrackPointExtension>
        </extensions>
      </trkpt>
      <trkpt lat="42.6202757656574249267578125" lon="19.8942113108932971954345703125">
        <ele>1613.5999755859375</ele>
        <time>2026-06-16T11:37:53.000Z</time>
        <extensions>
          <ns3:TrackPointExtension>
            <ns3:atemp>21.0</ns3:atemp>
          </ns3:TrackPointExtension>
        </extensions>
      </trkpt>
      <trkpt lat="42.6202757656574249267578125" lon="19.8942113108932971954345703125">
        <ele>1613.5999755859375</ele>
        <time>2026-06-16T11:37:54.000Z</time>
        <extensions>
          <ns3:TrackPointExtension>
            <ns3:atemp>21.0</ns3:atemp>
          </ns3:TrackPointExtension>
        </extensions>
      </trkpt>
      <trkpt lat="42.6202757656574249267578125" lon="19.8942113108932971954345703125">
        <ele>1613.5999755859375</ele>
        <time>2026-06-16T11:37:55.000Z</time>
        <extensions>
          <ns3:TrackPointExtension>
            <ns3:atemp>21.0</ns3:atemp>
          </ns3:TrackPointExtension>
        </extensions>
      </trkpt>
      <trkpt lat="42.6202757656574249267578125" lon="19.8942113108932971954345703125">
        <ele>1613.5999755859375</ele>
        <time>2026-06-16T11:37:56.000Z</time>
        <extensions>
          <ns3:TrackPointExtension>
            <ns3:atemp>21.0</ns3:atemp>
          </ns3:TrackPointExtension>
        </extensions>
      </trkpt>
      <trkpt lat="42.6202757656574249267578125" lon="19.8942113108932971954345703125">
        <ele>1613.5999755859375</ele>
        <time>2026-06-16T11:37:57.000Z</time>
        <extensions>
          <ns3:TrackPointExtension>
            <ns3:atemp>21.0</ns3:atemp>
          </ns3:TrackPointExtension>
        </extensions>
      </trkpt>
      <trkpt lat="42.6202757656574249267578125" lon="19.8942113108932971954345703125">
        <ele>1613.5999755859375</ele>
        <time>2026-06-16T11:37:58.000Z</time>
        <extensions>
          <ns3:TrackPointExtension>
            <ns3:atemp>21.0</ns3:atemp>
          </ns3:TrackPointExtension>
        </extensions>
      </trkpt>
      <trkpt lat="42.6202757656574249267578125" lon="19.8942113108932971954345703125">
        <ele>1613.5999755859375</ele>
        <time>2026-06-16T11:37:59.000Z</time>
        <extensions>
          <ns3:TrackPointExtension>
            <ns3:atemp>21.0</ns3:atemp>
          </ns3:TrackPointExtension>
        </extensions>
      </trkpt>
      <trkpt lat="42.6202757656574249267578125" lon="19.8942113108932971954345703125">
        <ele>1613.5999755859375</ele>
        <time>2026-06-16T11:38:00.000Z</time>
        <extensions>
          <ns3:TrackPointExtension>
            <ns3:atemp>21.0</ns3:atemp>
          </ns3:TrackPointExtension>
        </extensions>
      </trkpt>
      <trkpt lat="42.6202757656574249267578125" lon="19.8942113108932971954345703125">
        <ele>1613.5999755859375</ele>
        <time>2026-06-16T11:38:01.000Z</time>
        <extensions>
          <ns3:TrackPointExtension>
            <ns3:atemp>21.0</ns3:atemp>
          </ns3:TrackPointExtension>
        </extensions>
      </trkpt>
      <trkpt lat="42.6202757656574249267578125" lon="19.8942113108932971954345703125">
        <ele>1613.5999755859375</ele>
        <time>2026-06-16T11:38:02.000Z</time>
        <extensions>
          <ns3:TrackPointExtension>
            <ns3:atemp>21.0</ns3:atemp>
          </ns3:TrackPointExtension>
        </extensions>
      </trkpt>
      <trkpt lat="42.6202757656574249267578125" lon="19.8942113108932971954345703125">
        <ele>1613.5999755859375</ele>
        <time>2026-06-16T11:38:03.000Z</time>
        <extensions>
          <ns3:TrackPointExtension>
            <ns3:atemp>21.0</ns3:atemp>
          </ns3:TrackPointExtension>
        </extensions>
      </trkpt>
      <trkpt lat="42.6202757656574249267578125" lon="19.8942113108932971954345703125">
        <ele>1613.5999755859375</ele>
        <time>2026-06-16T11:38:04.000Z</time>
        <extensions>
          <ns3:TrackPointExtension>
            <ns3:atemp>21.0</ns3:atemp>
          </ns3:TrackPointExtension>
        </extensions>
      </trkpt>
      <trkpt lat="42.6202757656574249267578125" lon="19.8942113108932971954345703125">
        <ele>1613.5999755859375</ele>
        <time>2026-06-16T11:38:05.000Z</time>
        <extensions>
          <ns3:TrackPointExtension>
            <ns3:atemp>21.0</ns3:atemp>
          </ns3:TrackPointExtension>
        </extensions>
      </trkpt>
      <trkpt lat="42.6202757656574249267578125" lon="19.8942113108932971954345703125">
        <ele>1613.5999755859375</ele>
        <time>2026-06-16T11:38:06.000Z</time>
        <extensions>
          <ns3:TrackPointExtension>
            <ns3:atemp>21.0</ns3:atemp>
          </ns3:TrackPointExtension>
        </extensions>
      </trkpt>
      <trkpt lat="42.6202757656574249267578125" lon="19.8942113108932971954345703125">
        <ele>1613.5999755859375</ele>
        <time>2026-06-16T11:38:07.000Z</time>
        <extensions>
          <ns3:TrackPointExtension>
            <ns3:atemp>21.0</ns3:atemp>
          </ns3:TrackPointExtension>
        </extensions>
      </trkpt>
      <trkpt lat="42.6202757656574249267578125" lon="19.8942113108932971954345703125">
        <ele>1613.5999755859375</ele>
        <time>2026-06-16T11:38:08.000Z</time>
        <extensions>
          <ns3:TrackPointExtension>
            <ns3:atemp>21.0</ns3:atemp>
          </ns3:TrackPointExtension>
        </extensions>
      </trkpt>
      <trkpt lat="42.6202757656574249267578125" lon="19.8942113108932971954345703125">
        <ele>1613.5999755859375</ele>
        <time>2026-06-16T11:38:09.000Z</time>
        <extensions>
          <ns3:TrackPointExtension>
            <ns3:atemp>21.0</ns3:atemp>
          </ns3:TrackPointExtension>
        </extensions>
      </trkpt>
      <trkpt lat="42.6202757656574249267578125" lon="19.8942113108932971954345703125">
        <ele>1613.5999755859375</ele>
        <time>2026-06-16T11:38:10.000Z</time>
        <extensions>
          <ns3:TrackPointExtension>
            <ns3:atemp>21.0</ns3:atemp>
          </ns3:TrackPointExtension>
        </extensions>
      </trkpt>
      <trkpt lat="42.6202757656574249267578125" lon="19.8942113108932971954345703125">
        <ele>1613.5999755859375</ele>
        <time>2026-06-16T11:38:11.000Z</time>
        <extensions>
          <ns3:TrackPointExtension>
            <ns3:atemp>21.0</ns3:atemp>
          </ns3:TrackPointExtension>
        </extensions>
      </trkpt>
      <trkpt lat="42.6202757656574249267578125" lon="19.8942113108932971954345703125">
        <ele>1613.5999755859375</ele>
        <time>2026-06-16T11:38:12.000Z</time>
        <extensions>
          <ns3:TrackPointExtension>
            <ns3:atemp>21.0</ns3:atemp>
          </ns3:TrackPointExtension>
        </extensions>
      </trkpt>
      <trkpt lat="42.6202757656574249267578125" lon="19.8942113108932971954345703125">
        <ele>1613.5999755859375</ele>
        <time>2026-06-16T11:38:13.000Z</time>
        <extensions>
          <ns3:TrackPointExtension>
            <ns3:atemp>21.0</ns3:atemp>
          </ns3:TrackPointExtension>
        </extensions>
      </trkpt>
      <trkpt lat="42.6202757656574249267578125" lon="19.8942113108932971954345703125">
        <ele>1613.5999755859375</ele>
        <time>2026-06-16T11:38:14.000Z</time>
        <extensions>
          <ns3:TrackPointExtension>
            <ns3:atemp>21.0</ns3:atemp>
          </ns3:TrackPointExtension>
        </extensions>
      </trkpt>
      <trkpt lat="42.6202757656574249267578125" lon="19.8942113108932971954345703125">
        <ele>1613.5999755859375</ele>
        <time>2026-06-16T11:38:15.000Z</time>
        <extensions>
          <ns3:TrackPointExtension>
            <ns3:atemp>21.0</ns3:atemp>
          </ns3:TrackPointExtension>
        </extensions>
      </trkpt>
      <trkpt lat="42.6202757656574249267578125" lon="19.8942113108932971954345703125">
        <ele>1613.5999755859375</ele>
        <time>2026-06-16T11:38:16.000Z</time>
        <extensions>
          <ns3:TrackPointExtension>
            <ns3:atemp>21.0</ns3:atemp>
          </ns3:TrackPointExtension>
        </extensions>
      </trkpt>
      <trkpt lat="42.6202757656574249267578125" lon="19.8942113108932971954345703125">
        <ele>1613.5999755859375</ele>
        <time>2026-06-16T11:38:17.000Z</time>
        <extensions>
          <ns3:TrackPointExtension>
            <ns3:atemp>21.0</ns3:atemp>
          </ns3:TrackPointExtension>
        </extensions>
      </trkpt>
      <trkpt lat="42.6202757656574249267578125" lon="19.8942113108932971954345703125">
        <ele>1613.5999755859375</ele>
        <time>2026-06-16T11:38:18.000Z</time>
        <extensions>
          <ns3:TrackPointExtension>
            <ns3:atemp>21.0</ns3:atemp>
          </ns3:TrackPointExtension>
        </extensions>
      </trkpt>
      <trkpt lat="42.6202757656574249267578125" lon="19.8942113108932971954345703125">
        <ele>1613.5999755859375</ele>
        <time>2026-06-16T11:38:19.000Z</time>
        <extensions>
          <ns3:TrackPointExtension>
            <ns3:atemp>21.0</ns3:atemp>
          </ns3:TrackPointExtension>
        </extensions>
      </trkpt>
      <trkpt lat="42.6202757656574249267578125" lon="19.8942113108932971954345703125">
        <ele>1613.5999755859375</ele>
        <time>2026-06-16T11:38:20.000Z</time>
        <extensions>
          <ns3:TrackPointExtension>
            <ns3:atemp>21.0</ns3:atemp>
          </ns3:TrackPointExtension>
        </extensions>
      </trkpt>
      <trkpt lat="42.6202757656574249267578125" lon="19.8942113108932971954345703125">
        <ele>1613.5999755859375</ele>
        <time>2026-06-16T11:38:21.000Z</time>
        <extensions>
          <ns3:TrackPointExtension>
            <ns3:atemp>21.0</ns3:atemp>
          </ns3:TrackPointExtension>
        </extensions>
      </trkpt>
      <trkpt lat="42.6202757656574249267578125" lon="19.8942113108932971954345703125">
        <ele>1613.5999755859375</ele>
        <time>2026-06-16T11:38:22.000Z</time>
        <extensions>
          <ns3:TrackPointExtension>
            <ns3:atemp>21.0</ns3:atemp>
          </ns3:TrackPointExtension>
        </extensions>
      </trkpt>
      <trkpt lat="42.6202757656574249267578125" lon="19.8942113108932971954345703125">
        <ele>1613.5999755859375</ele>
        <time>2026-06-16T11:38:23.000Z</time>
        <extensions>
          <ns3:TrackPointExtension>
            <ns3:atemp>21.0</ns3:atemp>
          </ns3:TrackPointExtension>
        </extensions>
      </trkpt>
      <trkpt lat="42.6202757656574249267578125" lon="19.8942113108932971954345703125">
        <ele>1613.5999755859375</ele>
        <time>2026-06-16T11:38:24.000Z</time>
        <extensions>
          <ns3:TrackPointExtension>
            <ns3:atemp>21.0</ns3:atemp>
          </ns3:TrackPointExtension>
        </extensions>
      </trkpt>
      <trkpt lat="42.6202757656574249267578125" lon="19.8942113108932971954345703125">
        <ele>1613.5999755859375</ele>
        <time>2026-06-16T11:38:25.000Z</time>
        <extensions>
          <ns3:TrackPointExtension>
            <ns3:atemp>21.0</ns3:atemp>
          </ns3:TrackPointExtension>
        </extensions>
      </trkpt>
      <trkpt lat="42.6202757656574249267578125" lon="19.8942113108932971954345703125">
        <ele>1613.5999755859375</ele>
        <time>2026-06-16T11:38:26.000Z</time>
        <extensions>
          <ns3:TrackPointExtension>
            <ns3:atemp>21.0</ns3:atemp>
          </ns3:TrackPointExtension>
        </extensions>
      </trkpt>
      <trkpt lat="42.6202757656574249267578125" lon="19.8942113108932971954345703125">
        <ele>1613.5999755859375</ele>
        <time>2026-06-16T11:38:27.000Z</time>
        <extensions>
          <ns3:TrackPointExtension>
            <ns3:atemp>21.0</ns3:atemp>
          </ns3:TrackPointExtension>
        </extensions>
      </trkpt>
      <trkpt lat="42.6202757656574249267578125" lon="19.8942113108932971954345703125">
        <ele>1613.5999755859375</ele>
        <time>2026-06-16T11:38:28.000Z</time>
        <extensions>
          <ns3:TrackPointExtension>
            <ns3:atemp>21.0</ns3:atemp>
          </ns3:TrackPointExtension>
        </extensions>
      </trkpt>
      <trkpt lat="42.6202757656574249267578125" lon="19.8942113108932971954345703125">
        <ele>1613.5999755859375</ele>
        <time>2026-06-16T11:38:29.000Z</time>
        <extensions>
          <ns3:TrackPointExtension>
            <ns3:atemp>21.0</ns3:atemp>
          </ns3:TrackPointExtension>
        </extensions>
      </trkpt>
      <trkpt lat="42.6202757656574249267578125" lon="19.8942113108932971954345703125">
        <ele>1613.5999755859375</ele>
        <time>2026-06-16T11:38:30.000Z</time>
        <extensions>
          <ns3:TrackPointExtension>
            <ns3:atemp>21.0</ns3:atemp>
          </ns3:TrackPointExtension>
        </extensions>
      </trkpt>
      <trkpt lat="42.6202757656574249267578125" lon="19.8942113108932971954345703125">
        <ele>1613.5999755859375</ele>
        <time>2026-06-16T11:38:31.000Z</time>
        <extensions>
          <ns3:TrackPointExtension>
            <ns3:atemp>21.0</ns3:atemp>
          </ns3:TrackPointExtension>
        </extensions>
      </trkpt>
      <trkpt lat="42.6202757656574249267578125" lon="19.8942113108932971954345703125">
        <ele>1613.5999755859375</ele>
        <time>2026-06-16T11:38:32.000Z</time>
        <extensions>
          <ns3:TrackPointExtension>
            <ns3:atemp>21.0</ns3:atemp>
          </ns3:TrackPointExtension>
        </extensions>
      </trkpt>
      <trkpt lat="42.6202757656574249267578125" lon="19.8942113108932971954345703125">
        <ele>1613.5999755859375</ele>
        <time>2026-06-16T11:38:33.000Z</time>
        <extensions>
          <ns3:TrackPointExtension>
            <ns3:atemp>21.0</ns3:atemp>
          </ns3:TrackPointExtension>
        </extensions>
      </trkpt>
      <trkpt lat="42.6202757656574249267578125" lon="19.8942113108932971954345703125">
        <ele>1613.5999755859375</ele>
        <time>2026-06-16T11:38:34.000Z</time>
        <extensions>
          <ns3:TrackPointExtension>
            <ns3:atemp>21.0</ns3:atemp>
          </ns3:TrackPointExtension>
        </extensions>
      </trkpt>
      <trkpt lat="42.6202757656574249267578125" lon="19.8942113108932971954345703125">
        <ele>1613.5999755859375</ele>
        <time>2026-06-16T11:38:35.000Z</time>
        <extensions>
          <ns3:TrackPointExtension>
            <ns3:atemp>21.0</ns3:atemp>
          </ns3:TrackPointExtension>
        </extensions>
      </trkpt>
      <trkpt lat="42.6202757656574249267578125" lon="19.8942113108932971954345703125">
        <ele>1613.5999755859375</ele>
        <time>2026-06-16T11:38:36.000Z</time>
        <extensions>
          <ns3:TrackPointExtension>
            <ns3:atemp>21.0</ns3:atemp>
          </ns3:TrackPointExtension>
        </extensions>
      </trkpt>
      <trkpt lat="42.6202757656574249267578125" lon="19.8942113108932971954345703125">
        <ele>1613.5999755859375</ele>
        <time>2026-06-16T11:38:37.000Z</time>
        <extensions>
          <ns3:TrackPointExtension>
            <ns3:atemp>21.0</ns3:atemp>
          </ns3:TrackPointExtension>
        </extensions>
      </trkpt>
      <trkpt lat="42.6202757656574249267578125" lon="19.8942113108932971954345703125">
        <ele>1613.5999755859375</ele>
        <time>2026-06-16T11:38:38.000Z</time>
        <extensions>
          <ns3:TrackPointExtension>
            <ns3:atemp>21.0</ns3:atemp>
          </ns3:TrackPointExtension>
        </extensions>
      </trkpt>
      <trkpt lat="42.6202757656574249267578125" lon="19.8942113108932971954345703125">
        <ele>1613.5999755859375</ele>
        <time>2026-06-16T11:38:39.000Z</time>
        <extensions>
          <ns3:TrackPointExtension>
            <ns3:atemp>21.0</ns3:atemp>
          </ns3:TrackPointExtension>
        </extensions>
      </trkpt>
      <trkpt lat="42.6202757656574249267578125" lon="19.8942113108932971954345703125">
        <ele>1613.5999755859375</ele>
        <time>2026-06-16T11:38:40.000Z</time>
        <extensions>
          <ns3:TrackPointExtension>
            <ns3:atemp>21.0</ns3:atemp>
          </ns3:TrackPointExtension>
        </extensions>
      </trkpt>
      <trkpt lat="42.6202757656574249267578125" lon="19.8942113108932971954345703125">
        <ele>1613.5999755859375</ele>
        <time>2026-06-16T11:38:41.000Z</time>
        <extensions>
          <ns3:TrackPointExtension>
            <ns3:atemp>21.0</ns3:atemp>
          </ns3:TrackPointExtension>
        </extensions>
      </trkpt>
      <trkpt lat="42.6202757656574249267578125" lon="19.8942113108932971954345703125">
        <ele>1613.5999755859375</ele>
        <time>2026-06-16T11:38:42.000Z</time>
        <extensions>
          <ns3:TrackPointExtension>
            <ns3:atemp>21.0</ns3:atemp>
          </ns3:TrackPointExtension>
        </extensions>
      </trkpt>
      <trkpt lat="42.6202757656574249267578125" lon="19.8942113108932971954345703125">
        <ele>1613.5999755859375</ele>
        <time>2026-06-16T11:38:43.000Z</time>
        <extensions>
          <ns3:TrackPointExtension>
            <ns3:atemp>21.0</ns3:atemp>
          </ns3:TrackPointExtension>
        </extensions>
      </trkpt>
      <trkpt lat="42.6202757656574249267578125" lon="19.8942113108932971954345703125">
        <ele>1613.5999755859375</ele>
        <time>2026-06-16T11:38:44.000Z</time>
        <extensions>
          <ns3:TrackPointExtension>
            <ns3:atemp>21.0</ns3:atemp>
          </ns3:TrackPointExtension>
        </extensions>
      </trkpt>
      <trkpt lat="42.6202757656574249267578125" lon="19.8942113108932971954345703125">
        <ele>1613.5999755859375</ele>
        <time>2026-06-16T11:38:45.000Z</time>
        <extensions>
          <ns3:TrackPointExtension>
            <ns3:atemp>21.0</ns3:atemp>
          </ns3:TrackPointExtension>
        </extensions>
      </trkpt>
      <trkpt lat="42.6202757656574249267578125" lon="19.8942113108932971954345703125">
        <ele>1613.5999755859375</ele>
        <time>2026-06-16T11:38:46.000Z</time>
        <extensions>
          <ns3:TrackPointExtension>
            <ns3:atemp>21.0</ns3:atemp>
          </ns3:TrackPointExtension>
        </extensions>
      </trkpt>
      <trkpt lat="42.6202757656574249267578125" lon="19.8942113108932971954345703125">
        <ele>1613.5999755859375</ele>
        <time>2026-06-16T11:38:47.000Z</time>
        <extensions>
          <ns3:TrackPointExtension>
            <ns3:atemp>21.0</ns3:atemp>
          </ns3:TrackPointExtension>
        </extensions>
      </trkpt>
      <trkpt lat="42.6202757656574249267578125" lon="19.8942113108932971954345703125">
        <ele>1613.5999755859375</ele>
        <time>2026-06-16T11:38:48.000Z</time>
        <extensions>
          <ns3:TrackPointExtension>
            <ns3:atemp>21.0</ns3:atemp>
          </ns3:TrackPointExtension>
        </extensions>
      </trkpt>
      <trkpt lat="42.6202757656574249267578125" lon="19.8942113108932971954345703125">
        <ele>1613.5999755859375</ele>
        <time>2026-06-16T11:38:49.000Z</time>
        <extensions>
          <ns3:TrackPointExtension>
            <ns3:atemp>21.0</ns3:atemp>
          </ns3:TrackPointExtension>
        </extensions>
      </trkpt>
      <trkpt lat="42.6202757656574249267578125" lon="19.8942113108932971954345703125">
        <ele>1613.5999755859375</ele>
        <time>2026-06-16T11:38:50.000Z</time>
        <extensions>
          <ns3:TrackPointExtension>
            <ns3:atemp>21.0</ns3:atemp>
          </ns3:TrackPointExtension>
        </extensions>
      </trkpt>
      <trkpt lat="42.6202757656574249267578125" lon="19.8942113108932971954345703125">
        <ele>1613.5999755859375</ele>
        <time>2026-06-16T11:38:51.000Z</time>
        <extensions>
          <ns3:TrackPointExtension>
            <ns3:atemp>21.0</ns3:atemp>
          </ns3:TrackPointExtension>
        </extensions>
      </trkpt>
      <trkpt lat="42.6202757656574249267578125" lon="19.8942113108932971954345703125">
        <ele>1613.5999755859375</ele>
        <time>2026-06-16T11:38:52.000Z</time>
        <extensions>
          <ns3:TrackPointExtension>
            <ns3:atemp>21.0</ns3:atemp>
          </ns3:TrackPointExtension>
        </extensions>
      </trkpt>
      <trkpt lat="42.6202757656574249267578125" lon="19.8942113108932971954345703125">
        <ele>1613.5999755859375</ele>
        <time>2026-06-16T11:38:53.000Z</time>
        <extensions>
          <ns3:TrackPointExtension>
            <ns3:atemp>21.0</ns3:atemp>
          </ns3:TrackPointExtension>
        </extensions>
      </trkpt>
      <trkpt lat="42.6202757656574249267578125" lon="19.8942113108932971954345703125">
        <ele>1613.5999755859375</ele>
        <time>2026-06-16T11:38:54.000Z</time>
        <extensions>
          <ns3:TrackPointExtension>
            <ns3:atemp>21.0</ns3:atemp>
          </ns3:TrackPointExtension>
        </extensions>
      </trkpt>
      <trkpt lat="42.6202757656574249267578125" lon="19.8942113108932971954345703125">
        <ele>1613.5999755859375</ele>
        <time>2026-06-16T11:38:55.000Z</time>
        <extensions>
          <ns3:TrackPointExtension>
            <ns3:atemp>21.0</ns3:atemp>
          </ns3:TrackPointExtension>
        </extensions>
      </trkpt>
      <trkpt lat="42.6202757656574249267578125" lon="19.8942113108932971954345703125">
        <ele>1613.5999755859375</ele>
        <time>2026-06-16T11:38:56.000Z</time>
        <extensions>
          <ns3:TrackPointExtension>
            <ns3:atemp>21.0</ns3:atemp>
          </ns3:TrackPointExtension>
        </extensions>
      </trkpt>
      <trkpt lat="42.6202757656574249267578125" lon="19.8942113108932971954345703125">
        <ele>1613.5999755859375</ele>
        <time>2026-06-16T11:38:57.000Z</time>
        <extensions>
          <ns3:TrackPointExtension>
            <ns3:atemp>21.0</ns3:atemp>
          </ns3:TrackPointExtension>
        </extensions>
      </trkpt>
      <trkpt lat="42.6202757656574249267578125" lon="19.8942113108932971954345703125">
        <ele>1613.5999755859375</ele>
        <time>2026-06-16T11:38:58.000Z</time>
        <extensions>
          <ns3:TrackPointExtension>
            <ns3:atemp>21.0</ns3:atemp>
          </ns3:TrackPointExtension>
        </extensions>
      </trkpt>
      <trkpt lat="42.620274759829044342041015625" lon="19.894204773008823394775390625">
        <ele>1613.5999755859375</ele>
        <time>2026-06-16T11:38:59.000Z</time>
        <extensions>
          <ns3:TrackPointExtension>
            <ns3:atemp>21.0</ns3:atemp>
          </ns3:TrackPointExtension>
        </extensions>
      </trkpt>
      <trkpt lat="42.6202816329896450042724609375" lon="19.8942153342068195343017578125">
        <ele>1613.5999755859375</ele>
        <time>2026-06-16T11:39:00.000Z</time>
        <extensions>
          <ns3:TrackPointExtension>
            <ns3:atemp>21.0</ns3:atemp>
          </ns3:TrackPointExtension>
        </extensions>
      </trkpt>
      <trkpt lat="42.620290182530879974365234375" lon="19.89424265921115875244140625">
        <ele>1613.800048828125</ele>
        <time>2026-06-16T11:39:01.000Z</time>
        <extensions>
          <ns3:TrackPointExtension>
            <ns3:atemp>21.0</ns3:atemp>
          </ns3:TrackPointExtension>
        </extensions>
      </trkpt>
      <trkpt lat="42.6202973909676074981689453125" lon="19.8942696489393711090087890625">
        <ele>1613.5999755859375</ele>
        <time>2026-06-16T11:39:02.000Z</time>
        <extensions>
          <ns3:TrackPointExtension>
            <ns3:atemp>21.0</ns3:atemp>
          </ns3:TrackPointExtension>
        </extensions>
      </trkpt>
      <trkpt lat="42.6203051023185253143310546875" lon="19.894301332533359527587890625">
        <ele>1613.4000244140625</ele>
        <time>2026-06-16T11:39:03.000Z</time>
        <extensions>
          <ns3:TrackPointExtension>
            <ns3:atemp>21.0</ns3:atemp>
          </ns3:TrackPointExtension>
        </extensions>
      </trkpt>
      <trkpt lat="42.6203104667365550994873046875" lon="19.89433653652667999267578125">
        <ele>1613.199951171875</ele>
        <time>2026-06-16T11:39:04.000Z</time>
        <extensions>
          <ns3:TrackPointExtension>
            <ns3:atemp>21.0</ns3:atemp>
          </ns3:TrackPointExtension>
        </extensions>
      </trkpt>
      <trkpt lat="42.6203154958784580230712890625" lon="19.89436612464487552642822265625">
        <ele>1613.199951171875</ele>
        <time>2026-06-16T11:39:05.000Z</time>
        <extensions>
          <ns3:TrackPointExtension>
            <ns3:atemp>21.0</ns3:atemp>
          </ns3:TrackPointExtension>
        </extensions>
      </trkpt>
      <trkpt lat="42.62032681144773960113525390625" lon="19.89438674412667751312255859375">
        <ele>1613</ele>
        <time>2026-06-16T11:39:06.000Z</time>
        <extensions>
          <ns3:TrackPointExtension>
            <ns3:atemp>21.0</ns3:atemp>
          </ns3:TrackPointExtension>
        </extensions>
      </trkpt>
      <trkpt lat="42.62034508399665355682373046875" lon="19.89440166391432285308837890625">
        <ele>1613.199951171875</ele>
        <time>2026-06-16T11:39:07.000Z</time>
        <extensions>
          <ns3:TrackPointExtension>
            <ns3:atemp>21.0</ns3:atemp>
          </ns3:TrackPointExtension>
        </extensions>
      </trkpt>
      <trkpt lat="42.6203617639839649200439453125" lon="19.8944121412932872772216796875">
        <ele>1613.4000244140625</ele>
        <time>2026-06-16T11:39:08.000Z</time>
        <extensions>
          <ns3:TrackPointExtension>
            <ns3:atemp>21.0</ns3:atemp>
          </ns3:TrackPointExtension>
        </extensions>
      </trkpt>
      <trkpt lat="42.62037877924740314483642578125" lon="19.89442094229161739349365234375">
        <ele>1613.5999755859375</ele>
        <time>2026-06-16T11:39:09.000Z</time>
        <extensions>
          <ns3:TrackPointExtension>
            <ns3:atemp>21.0</ns3:atemp>
          </ns3:TrackPointExtension>
        </extensions>
      </trkpt>
      <trkpt lat="42.62039336375892162322998046875" lon="19.89443175494670867919921875">
        <ele>1613.800048828125</ele>
        <time>2026-06-16T11:39:10.000Z</time>
        <extensions>
          <ns3:TrackPointExtension>
            <ns3:atemp>21.0</ns3:atemp>
          </ns3:TrackPointExtension>
        </extensions>
      </trkpt>
      <trkpt lat="42.6204087026417255401611328125" lon="19.89443904720246791839599609375">
        <ele>1614.199951171875</ele>
        <time>2026-06-16T11:39:11.000Z</time>
        <extensions>
          <ns3:TrackPointExtension>
            <ns3:atemp>21.0</ns3:atemp>
          </ns3:TrackPointExtension>
        </extensions>
      </trkpt>
      <trkpt lat="42.62042404152452945709228515625" lon="19.8944500274956226348876953125">
        <ele>1614.4000244140625</ele>
        <time>2026-06-16T11:39:12.000Z</time>
        <extensions>
          <ns3:TrackPointExtension>
            <ns3:atemp>21.0</ns3:atemp>
          </ns3:TrackPointExtension>
        </extensions>
      </trkpt>
      <trkpt lat="42.6204361952841281890869140625" lon="19.8944604210555553436279296875">
        <ele>1614.800048828125</ele>
        <time>2026-06-16T11:39:13.000Z</time>
        <extensions>
          <ns3:TrackPointExtension>
            <ns3:atemp>21.0</ns3:atemp>
          </ns3:TrackPointExtension>
        </extensions>
      </trkpt>
      <trkpt lat="42.62045270763337612152099609375" lon="19.8944751732051372528076171875">
        <ele>1615</ele>
        <time>2026-06-16T11:39:14.000Z</time>
        <extensions>
          <ns3:TrackPointExtension>
            <ns3:atemp>21.0</ns3:atemp>
          </ns3:TrackPointExtension>
        </extensions>
      </trkpt>
      <trkpt lat="42.6204620115458965301513671875" lon="19.894492439925670623779296875">
        <ele>1615.199951171875</ele>
        <time>2026-06-16T11:39:15.000Z</time>
        <extensions>
          <ns3:TrackPointExtension>
            <ns3:atemp>21.0</ns3:atemp>
          </ns3:TrackPointExtension>
        </extensions>
      </trkpt>
      <trkpt lat="42.62046846561133861541748046875" lon="19.8945128917694091796875">
        <ele>1615.4000244140625</ele>
        <time>2026-06-16T11:39:16.000Z</time>
        <extensions>
          <ns3:TrackPointExtension>
            <ns3:atemp>21.0</ns3:atemp>
          </ns3:TrackPointExtension>
        </extensions>
      </trkpt>
      <trkpt lat="42.62047919444739818572998046875" lon="19.894529320299625396728515625">
        <ele>1615.5999755859375</ele>
        <time>2026-06-16T11:39:17.000Z</time>
        <extensions>
          <ns3:TrackPointExtension>
            <ns3:atemp>21.0</ns3:atemp>
          </ns3:TrackPointExtension>
        </extensions>
      </trkpt>
      <trkpt lat="42.62048841454088687896728515625" lon="19.89454935304820537567138671875">
        <ele>1615.800048828125</ele>
        <time>2026-06-16T11:39:18.000Z</time>
        <extensions>
          <ns3:TrackPointExtension>
            <ns3:atemp>21.0</ns3:atemp>
          </ns3:TrackPointExtension>
        </extensions>
      </trkpt>
      <trkpt lat="42.62049159966409206390380859375" lon="19.89456829614937305450439453125">
        <ele>1616</ele>
        <time>2026-06-16T11:39:19.000Z</time>
        <extensions>
          <ns3:TrackPointExtension>
            <ns3:atemp>21.0</ns3:atemp>
          </ns3:TrackPointExtension>
        </extensions>
      </trkpt>
      <trkpt lat="42.6204928569495677947998046875" lon="19.89458975382149219512939453125">
        <ele>1616.199951171875</ele>
        <time>2026-06-16T11:39:20.000Z</time>
        <extensions>
          <ns3:TrackPointExtension>
            <ns3:atemp>21.0</ns3:atemp>
          </ns3:TrackPointExtension>
        </extensions>
      </trkpt>
      <trkpt lat="42.62049310840666294097900390625" lon="19.894609116017818450927734375">
        <ele>1616.5999755859375</ele>
        <time>2026-06-16T11:39:21.000Z</time>
        <extensions>
          <ns3:TrackPointExtension>
            <ns3:atemp>21.0</ns3:atemp>
          </ns3:TrackPointExtension>
        </extensions>
      </trkpt>
      <trkpt lat="42.6204935275018215179443359375" lon="19.8946260474622249603271484375">
        <ele>1616.800048828125</ele>
        <time>2026-06-16T11:39:22.000Z</time>
        <extensions>
          <ns3:TrackPointExtension>
            <ns3:atemp>21.0</ns3:atemp>
          </ns3:TrackPointExtension>
        </extensions>
      </trkpt>
      <trkpt lat="42.62049428187310695648193359375" lon="19.89465060643851757049560546875">
        <ele>1617</ele>
        <time>2026-06-16T11:39:23.000Z</time>
        <extensions>
          <ns3:TrackPointExtension>
            <ns3:atemp>21.0</ns3:atemp>
          </ns3:TrackPointExtension>
        </extensions>
      </trkpt>
      <trkpt lat="42.62049143202602863311767578125" lon="19.89466921426355838775634765625">
        <ele>1617.4000244140625</ele>
        <time>2026-06-16T11:39:24.000Z</time>
        <extensions>
          <ns3:TrackPointExtension>
            <ns3:atemp>21.0</ns3:atemp>
          </ns3:TrackPointExtension>
        </extensions>
      </trkpt>
      <trkpt lat="42.620494365692138671875" lon="19.8946857266128063201904296875">
        <ele>1617.800048828125</ele>
        <time>2026-06-16T11:39:25.000Z</time>
        <extensions>
          <ns3:TrackPointExtension>
            <ns3:atemp>21.0</ns3:atemp>
          </ns3:TrackPointExtension>
        </extensions>
      </trkpt>
      <trkpt lat="42.6205032505095005035400390625" lon="19.89470022730529308319091796875">
        <ele>1618.199951171875</ele>
        <time>2026-06-16T11:39:26.000Z</time>
        <extensions>
          <ns3:TrackPointExtension>
            <ns3:atemp>21.0</ns3:atemp>
          </ns3:TrackPointExtension>
        </extensions>
      </trkpt>
      <trkpt lat="42.62051624245941638946533203125" lon="19.89471984095871448516845703125">
        <ele>1618.5999755859375</ele>
        <time>2026-06-16T11:39:27.000Z</time>
        <extensions>
          <ns3:TrackPointExtension>
            <ns3:atemp>21.0</ns3:atemp>
          </ns3:TrackPointExtension>
        </extensions>
      </trkpt>
      <trkpt lat="42.62052998878061771392822265625" lon="19.89473576657474040985107421875">
        <ele>1618.800048828125</ele>
        <time>2026-06-16T11:39:28.000Z</time>
        <extensions>
          <ns3:TrackPointExtension>
            <ns3:atemp>21.0</ns3:atemp>
          </ns3:TrackPointExtension>
        </extensions>
      </trkpt>
      <trkpt lat="42.6205367781221866607666015625" lon="19.8947527818381786346435546875">
        <ele>1619.4000244140625</ele>
        <time>2026-06-16T11:39:29.000Z</time>
        <extensions>
          <ns3:TrackPointExtension>
            <ns3:atemp>21.0</ns3:atemp>
          </ns3:TrackPointExtension>
        </extensions>
      </trkpt>
      <trkpt lat="42.62054189108312129974365234375" lon="19.894768036901950836181640625">
        <ele>1619.5999755859375</ele>
        <time>2026-06-16T11:39:30.000Z</time>
        <extensions>
          <ns3:TrackPointExtension>
            <ns3:atemp>21.0</ns3:atemp>
          </ns3:TrackPointExtension>
        </extensions>
      </trkpt>
      <trkpt lat="42.62055295519530773162841796875" lon="19.8947836272418498992919921875">
        <ele>1620</ele>
        <time>2026-06-16T11:39:31.000Z</time>
        <extensions>
          <ns3:TrackPointExtension>
            <ns3:atemp>21.0</ns3:atemp>
          </ns3:TrackPointExtension>
        </extensions>
      </trkpt>
      <trkpt lat="42.62056133709847927093505859375" lon="19.8948040790855884552001953125">
        <ele>1620.199951171875</ele>
        <time>2026-06-16T11:39:32.000Z</time>
        <extensions>
          <ns3:TrackPointExtension>
            <ns3:atemp>21.0</ns3:atemp>
          </ns3:TrackPointExtension>
        </extensions>
      </trkpt>
      <trkpt lat="42.6205689646303653717041015625" lon="19.8948288895189762115478515625">
        <ele>1620.5999755859375</ele>
        <time>2026-06-16T11:39:33.000Z</time>
        <extensions>
          <ns3:TrackPointExtension>
            <ns3:atemp>21.0</ns3:atemp>
          </ns3:TrackPointExtension>
        </extensions>
      </trkpt>
      <trkpt lat="42.62057684361934661865234375" lon="19.89484573714435100555419921875">
        <ele>1620.800048828125</ele>
        <time>2026-06-16T11:39:34.000Z</time>
        <extensions>
          <ns3:TrackPointExtension>
            <ns3:atemp>21.0</ns3:atemp>
          </ns3:TrackPointExtension>
        </extensions>
      </trkpt>
      <trkpt lat="42.6205842196941375732421875" lon="19.8948597349226474761962890625">
        <ele>1621.199951171875</ele>
        <time>2026-06-16T11:39:35.000Z</time>
        <extensions>
          <ns3:TrackPointExtension>
            <ns3:atemp>21.0</ns3:atemp>
          </ns3:TrackPointExtension>
        </extensions>
      </trkpt>
      <trkpt lat="42.62059369124472141265869140625" lon="19.8948778398334980010986328125">
        <ele>1621.5999755859375</ele>
        <time>2026-06-16T11:39:36.000Z</time>
        <extensions>
          <ns3:TrackPointExtension>
            <ns3:atemp>21.0</ns3:atemp>
          </ns3:TrackPointExtension>
        </extensions>
      </trkpt>
      <trkpt lat="42.62060240842401981353759765625" lon="19.89489166997373104095458984375">
        <ele>1621.800048828125</ele>
        <time>2026-06-16T11:39:37.000Z</time>
        <extensions>
          <ns3:TrackPointExtension>
            <ns3:atemp>21.0</ns3:atemp>
          </ns3:TrackPointExtension>
        </extensions>
      </trkpt>
      <trkpt lat="42.62061196379363536834716796875" lon="19.89491052925586700439453125">
        <ele>1622</ele>
        <time>2026-06-16T11:39:38.000Z</time>
        <extensions>
          <ns3:TrackPointExtension>
            <ns3:atemp>21.0</ns3:atemp>
          </ns3:TrackPointExtension>
        </extensions>
      </trkpt>
      <trkpt lat="42.62062135152518749237060546875" lon="19.8949261195957660675048828125">
        <ele>1622.4000244140625</ele>
        <time>2026-06-16T11:39:39.000Z</time>
        <extensions>
          <ns3:TrackPointExtension>
            <ns3:atemp>21.0</ns3:atemp>
          </ns3:TrackPointExtension>
        </extensions>
      </trkpt>
      <trkpt lat="42.620631493628025054931640625" lon="19.89493559114634990692138671875">
        <ele>1622.5999755859375</ele>
        <time>2026-06-16T11:39:40.000Z</time>
        <extensions>
          <ns3:TrackPointExtension>
            <ns3:atemp>21.0</ns3:atemp>
          </ns3:TrackPointExtension>
        </extensions>
      </trkpt>
      <trkpt lat="42.6206387020647525787353515625" lon="19.8949487507343292236328125">
        <ele>1623.199951171875</ele>
        <time>2026-06-16T11:39:41.000Z</time>
        <extensions>
          <ns3:TrackPointExtension>
            <ns3:atemp>21.0</ns3:atemp>
          </ns3:TrackPointExtension>
        </extensions>
      </trkpt>
      <trkpt lat="42.62064683251082897186279296875" lon="19.89495419897139072418212890625">
        <ele>1623.4000244140625</ele>
        <time>2026-06-16T11:39:42.000Z</time>
        <extensions>
          <ns3:TrackPointExtension>
            <ns3:atemp>21.0</ns3:atemp>
          </ns3:TrackPointExtension>
        </extensions>
      </trkpt>
      <trkpt lat="42.6206598244607448577880859375" lon="19.8949680291116237640380859375">
        <ele>1623.800048828125</ele>
        <time>2026-06-16T11:39:43.000Z</time>
        <extensions>
          <ns3:TrackPointExtension>
            <ns3:atemp>21.0</ns3:atemp>
          </ns3:TrackPointExtension>
        </extensions>
      </trkpt>
      <trkpt lat="42.620668709278106689453125" lon="19.89498236216604709625244140625">
        <ele>1624.199951171875</ele>
        <time>2026-06-16T11:39:44.000Z</time>
        <extensions>
          <ns3:TrackPointExtension>
            <ns3:atemp>21.0</ns3:atemp>
          </ns3:TrackPointExtension>
        </extensions>
      </trkpt>
      <trkpt lat="42.6206799410283565521240234375" lon="19.894998706877231597900390625">
        <ele>1624.4000244140625</ele>
        <time>2026-06-16T11:39:45.000Z</time>
        <extensions>
          <ns3:TrackPointExtension>
            <ns3:atemp>21.0</ns3:atemp>
          </ns3:TrackPointExtension>
        </extensions>
      </trkpt>
      <trkpt lat="42.62069393880665302276611328125" lon="19.895014464855194091796875">
        <ele>1624.800048828125</ele>
        <time>2026-06-16T11:39:46.000Z</time>
        <extensions>
          <ns3:TrackPointExtension>
            <ns3:atemp>21.0</ns3:atemp>
          </ns3:TrackPointExtension>
        </extensions>
      </trkpt>
      <trkpt lat="42.6207040809094905853271484375" lon="19.8950263671576976776123046875">
        <ele>1625.199951171875</ele>
        <time>2026-06-16T11:39:47.000Z</time>
        <extensions>
          <ns3:TrackPointExtension>
            <ns3:atemp>21.0</ns3:atemp>
          </ns3:TrackPointExtension>
        </extensions>
      </trkpt>
      <trkpt lat="42.620715312659740447998046875" lon="19.89504371769726276397705078125">
        <ele>1625.4000244140625</ele>
        <time>2026-06-16T11:39:48.000Z</time>
        <extensions>
          <ns3:TrackPointExtension>
            <ns3:atemp>21.0</ns3:atemp>
          </ns3:TrackPointExtension>
        </extensions>
      </trkpt>
      <trkpt lat="42.62072511948645114898681640625" lon="19.89505763165652751922607421875">
        <ele>1625.5999755859375</ele>
        <time>2026-06-16T11:39:49.000Z</time>
        <extensions>
          <ns3:TrackPointExtension>
            <ns3:atemp>21.0</ns3:atemp>
          </ns3:TrackPointExtension>
        </extensions>
      </trkpt>
      <trkpt lat="42.62073383666574954986572265625" lon="19.8950769938528537750244140625">
        <ele>1626</ele>
        <time>2026-06-16T11:39:50.000Z</time>
        <extensions>
          <ns3:TrackPointExtension>
            <ns3:atemp>21.0</ns3:atemp>
          </ns3:TrackPointExtension>
        </extensions>
      </trkpt>
      <trkpt lat="42.62073970399796962738037109375" lon="19.89509535022079944610595703125">
        <ele>1626.199951171875</ele>
        <time>2026-06-16T11:39:51.000Z</time>
        <extensions>
          <ns3:TrackPointExtension>
            <ns3:atemp>21.0</ns3:atemp>
          </ns3:TrackPointExtension>
        </extensions>
      </trkpt>
      <trkpt lat="42.62074272148311138153076171875" lon="19.8951150476932525634765625">
        <ele>1626.5999755859375</ele>
        <time>2026-06-16T11:39:52.000Z</time>
        <extensions>
          <ns3:TrackPointExtension>
            <ns3:atemp>21.0</ns3:atemp>
          </ns3:TrackPointExtension>
        </extensions>
      </trkpt>
      <trkpt lat="42.6207473315298557281494140625" lon="19.8951329849660396575927734375">
        <ele>1626.800048828125</ele>
        <time>2026-06-16T11:39:53.000Z</time>
        <extensions>
          <ns3:TrackPointExtension>
            <ns3:atemp>21.0</ns3:atemp>
          </ns3:TrackPointExtension>
        </extensions>
      </trkpt>
      <trkpt lat="42.620749175548553466796875" lon="19.89514614455401897430419921875">
        <ele>1627</ele>
        <time>2026-06-16T11:39:54.000Z</time>
        <extensions>
          <ns3:TrackPointExtension>
            <ns3:atemp>21.0</ns3:atemp>
          </ns3:TrackPointExtension>
        </extensions>
      </trkpt>
      <trkpt lat="42.620754204690456390380859375" lon="19.895160309970378875732421875">
        <ele>1627.199951171875</ele>
        <time>2026-06-16T11:39:55.000Z</time>
        <extensions>
          <ns3:TrackPointExtension>
            <ns3:atemp>21.0</ns3:atemp>
          </ns3:TrackPointExtension>
        </extensions>
      </trkpt>
      <trkpt lat="42.62075655162334442138671875" lon="19.8951794207096099853515625">
        <ele>1627.199951171875</ele>
        <time>2026-06-16T11:39:56.000Z</time>
        <extensions>
          <ns3:TrackPointExtension>
            <ns3:atemp>21.0</ns3:atemp>
          </ns3:TrackPointExtension>
        </extensions>
      </trkpt>
      <trkpt lat="42.6207604072988033294677734375" lon="19.8952054046094417572021484375">
        <ele>1627.4000244140625</ele>
        <time>2026-06-16T11:39:57.000Z</time>
        <extensions>
          <ns3:TrackPointExtension>
            <ns3:atemp>21.0</ns3:atemp>
          </ns3:TrackPointExtension>
        </extensions>
      </trkpt>
      <trkpt lat="42.62076602317392826080322265625" lon="19.89522459916770458221435546875">
        <ele>1627.4000244140625</ele>
        <time>2026-06-16T11:39:58.000Z</time>
        <extensions>
          <ns3:TrackPointExtension>
            <ns3:atemp>21.0</ns3:atemp>
          </ns3:TrackPointExtension>
        </extensions>
      </trkpt>
      <trkpt lat="42.62076300568878650665283203125" lon="19.8952315561473369598388671875">
        <ele>1627.4000244140625</ele>
        <time>2026-06-16T11:39:59.000Z</time>
        <extensions>
          <ns3:TrackPointExtension>
            <ns3:atemp>21.0</ns3:atemp>
          </ns3:TrackPointExtension>
        </extensions>
      </trkpt>
      <trkpt lat="42.6207630895078182220458984375" lon="19.8952315561473369598388671875">
        <ele>1627.4000244140625</ele>
        <time>2026-06-16T11:40:00.000Z</time>
        <extensions>
          <ns3:TrackPointExtension>
            <ns3:atemp>21.0</ns3:atemp>
          </ns3:TrackPointExtension>
        </extensions>
      </trkpt>
      <trkpt lat="42.6207630895078182220458984375" lon="19.8952315561473369598388671875">
        <ele>1627.4000244140625</ele>
        <time>2026-06-16T11:40:01.000Z</time>
        <extensions>
          <ns3:TrackPointExtension>
            <ns3:atemp>21.0</ns3:atemp>
          </ns3:TrackPointExtension>
        </extensions>
      </trkpt>
      <trkpt lat="42.62076317332684993743896484375" lon="19.89523147232830524444580078125">
        <ele>1627.199951171875</ele>
        <time>2026-06-16T11:40:02.000Z</time>
        <extensions>
          <ns3:TrackPointExtension>
            <ns3:atemp>21.0</ns3:atemp>
          </ns3:TrackPointExtension>
        </extensions>
      </trkpt>
      <trkpt lat="42.6207674480974674224853515625" lon="19.89523868076503276824951171875">
        <ele>1627.199951171875</ele>
        <time>2026-06-16T11:40:03.000Z</time>
        <extensions>
          <ns3:TrackPointExtension>
            <ns3:atemp>21.0</ns3:atemp>
          </ns3:TrackPointExtension>
        </extensions>
      </trkpt>
      <trkpt lat="42.62076803483068943023681640625" lon="19.89524689503014087677001953125">
        <ele>1627.199951171875</ele>
        <time>2026-06-16T11:40:04.000Z</time>
        <extensions>
          <ns3:TrackPointExtension>
            <ns3:atemp>21.0</ns3:atemp>
          </ns3:TrackPointExtension>
        </extensions>
      </trkpt>
      <trkpt lat="42.62076971121132373809814453125" lon="19.8952513374388217926025390625">
        <ele>1627.199951171875</ele>
        <time>2026-06-16T11:40:05.000Z</time>
        <extensions>
          <ns3:TrackPointExtension>
            <ns3:atemp>21.0</ns3:atemp>
          </ns3:TrackPointExtension>
        </extensions>
      </trkpt>
      <trkpt lat="42.620770633220672607421875" lon="19.89526097662746906280517578125">
        <ele>1627.199951171875</ele>
        <time>2026-06-16T11:40:06.000Z</time>
        <extensions>
          <ns3:TrackPointExtension>
            <ns3:atemp>21.0</ns3:atemp>
          </ns3:TrackPointExtension>
        </extensions>
      </trkpt>
      <trkpt lat="42.620775662362575531005859375" lon="19.89527396857738494873046875">
        <ele>1627.199951171875</ele>
        <time>2026-06-16T11:40:07.000Z</time>
        <extensions>
          <ns3:TrackPointExtension>
            <ns3:atemp>21.0</ns3:atemp>
          </ns3:TrackPointExtension>
        </extensions>
      </trkpt>
      <trkpt lat="42.62077557854354381561279296875" lon="19.89527396857738494873046875">
        <ele>1627.199951171875</ele>
        <time>2026-06-16T11:40:08.000Z</time>
        <extensions>
          <ns3:TrackPointExtension>
            <ns3:atemp>21.0</ns3:atemp>
          </ns3:TrackPointExtension>
        </extensions>
      </trkpt>
      <trkpt lat="42.6207765005528926849365234375" lon="19.8952813446521759033203125">
        <ele>1627.199951171875</ele>
        <time>2026-06-16T11:40:09.000Z</time>
        <extensions>
          <ns3:TrackPointExtension>
            <ns3:atemp>21.0</ns3:atemp>
          </ns3:TrackPointExtension>
        </extensions>
      </trkpt>
      <trkpt lat="42.62077960185706615447998046875" lon="19.895291067659854888916015625">
        <ele>1627</ele>
        <time>2026-06-16T11:40:10.000Z</time>
        <extensions>
          <ns3:TrackPointExtension>
            <ns3:atemp>21.0</ns3:atemp>
          </ns3:TrackPointExtension>
        </extensions>
      </trkpt>
      <trkpt lat="42.62078077532351016998291015625" lon="19.8952965997159481048583984375">
        <ele>1626.800048828125</ele>
        <time>2026-06-16T11:40:11.000Z</time>
        <extensions>
          <ns3:TrackPointExtension>
            <ns3:atemp>21.0</ns3:atemp>
          </ns3:TrackPointExtension>
        </extensions>
      </trkpt>
      <trkpt lat="42.62078605592250823974609375" lon="19.89531059749424457550048828125">
        <ele>1626.5999755859375</ele>
        <time>2026-06-16T11:40:12.000Z</time>
        <extensions>
          <ns3:TrackPointExtension>
            <ns3:atemp>21.0</ns3:atemp>
          </ns3:TrackPointExtension>
        </extensions>
      </trkpt>
      <trkpt lat="42.62079200707376003265380859375" lon="19.8953237570822238922119140625">
        <ele>1626.4000244140625</ele>
        <time>2026-06-16T11:40:13.000Z</time>
        <extensions>
          <ns3:TrackPointExtension>
            <ns3:atemp>21.0</ns3:atemp>
          </ns3:TrackPointExtension>
        </extensions>
      </trkpt>
      <trkpt lat="42.6208013109862804412841796875" lon="19.895343370735645294189453125">
        <ele>1626.199951171875</ele>
        <time>2026-06-16T11:40:14.000Z</time>
        <extensions>
          <ns3:TrackPointExtension>
            <ns3:atemp>21.0</ns3:atemp>
          </ns3:TrackPointExtension>
        </extensions>
      </trkpt>
      <trkpt lat="42.62080877088010311126708984375" lon="19.89535720087587833404541015625">
        <ele>1626</ele>
        <time>2026-06-16T11:40:15.000Z</time>
        <extensions>
          <ns3:TrackPointExtension>
            <ns3:atemp>21.0</ns3:atemp>
          </ns3:TrackPointExtension>
        </extensions>
      </trkpt>
      <trkpt lat="42.62081882916390895843505859375" lon="19.8953747190535068511962890625">
        <ele>1626</ele>
        <time>2026-06-16T11:40:16.000Z</time>
        <extensions>
          <ns3:TrackPointExtension>
            <ns3:atemp>21.0</ns3:atemp>
          </ns3:TrackPointExtension>
        </extensions>
      </trkpt>
      <trkpt lat="42.62083006091415882110595703125" lon="19.8953913152217864990234375">
        <ele>1626</ele>
        <time>2026-06-16T11:40:17.000Z</time>
        <extensions>
          <ns3:TrackPointExtension>
            <ns3:atemp>21.0</ns3:atemp>
          </ns3:TrackPointExtension>
        </extensions>
      </trkpt>
      <trkpt lat="42.62084095738828182220458984375" lon="19.89541620947420597076416015625">
        <ele>1626</ele>
        <time>2026-06-16T11:40:18.000Z</time>
        <extensions>
          <ns3:TrackPointExtension>
            <ns3:atemp>21.0</ns3:atemp>
          </ns3:TrackPointExtension>
        </extensions>
      </trkpt>
      <trkpt lat="42.62085436843335628509521484375" lon="19.89543112926185131072998046875">
        <ele>1626</ele>
        <time>2026-06-16T11:40:19.000Z</time>
        <extensions>
          <ns3:TrackPointExtension>
            <ns3:atemp>21.0</ns3:atemp>
          </ns3:TrackPointExtension>
        </extensions>
      </trkpt>
      <trkpt lat="42.6208593137562274932861328125" lon="19.89544604904949665069580078125">
        <ele>1626</ele>
        <time>2026-06-16T11:40:20.000Z</time>
        <extensions>
          <ns3:TrackPointExtension>
            <ns3:atemp>21.0</ns3:atemp>
          </ns3:TrackPointExtension>
        </extensions>
      </trkpt>
      <trkpt lat="42.6208656840026378631591796875" lon="19.89546247757971286773681640625">
        <ele>1626.199951171875</ele>
        <time>2026-06-16T11:40:21.000Z</time>
        <extensions>
          <ns3:TrackPointExtension>
            <ns3:atemp>21.0</ns3:atemp>
          </ns3:TrackPointExtension>
        </extensions>
      </trkpt>
      <trkpt lat="42.62087188661098480224609375" lon="19.89547756500542163848876953125">
        <ele>1626.4000244140625</ele>
        <time>2026-06-16T11:40:22.000Z</time>
        <extensions>
          <ns3:TrackPointExtension>
            <ns3:atemp>21.0</ns3:atemp>
          </ns3:TrackPointExtension>
        </extensions>
      </trkpt>
      <trkpt lat="42.6208774186670780181884765625" lon="19.8954937420785427093505859375">
        <ele>1626.5999755859375</ele>
        <time>2026-06-16T11:40:23.000Z</time>
        <extensions>
          <ns3:TrackPointExtension>
            <ns3:atemp>21.0</ns3:atemp>
          </ns3:TrackPointExtension>
        </extensions>
      </trkpt>
      <trkpt lat="42.62088756076991558074951171875" lon="19.8955168761312961578369140625">
        <ele>1626.800048828125</ele>
        <time>2026-06-16T11:40:24.000Z</time>
        <extensions>
          <ns3:TrackPointExtension>
            <ns3:atemp>21.0</ns3:atemp>
          </ns3:TrackPointExtension>
        </extensions>
      </trkpt>
      <trkpt lat="42.62090046890079975128173828125" lon="19.89553707651793956756591796875">
        <ele>1627</ele>
        <time>2026-06-16T11:40:25.000Z</time>
        <extensions>
          <ns3:TrackPointExtension>
            <ns3:atemp>21.0</ns3:atemp>
          </ns3:TrackPointExtension>
        </extensions>
      </trkpt>
      <trkpt lat="42.62091488577425479888916015625" lon="19.8955540917813777923583984375">
        <ele>1627.199951171875</ele>
        <time>2026-06-16T11:40:26.000Z</time>
        <extensions>
          <ns3:TrackPointExtension>
            <ns3:atemp>21.0</ns3:atemp>
          </ns3:TrackPointExtension>
        </extensions>
      </trkpt>
      <trkpt lat="42.62093366123735904693603515625" lon="19.89557546563446521759033203125">
        <ele>1627.4000244140625</ele>
        <time>2026-06-16T11:40:27.000Z</time>
        <extensions>
          <ns3:TrackPointExtension>
            <ns3:atemp>21.0</ns3:atemp>
          </ns3:TrackPointExtension>
        </extensions>
      </trkpt>
      <trkpt lat="42.62095277197659015655517578125" lon="19.8955906368792057037353515625">
        <ele>1627.4000244140625</ele>
        <time>2026-06-16T11:40:28.000Z</time>
        <extensions>
          <ns3:TrackPointExtension>
            <ns3:atemp>21.0</ns3:atemp>
          </ns3:TrackPointExtension>
        </extensions>
      </trkpt>
      <trkpt lat="42.620972804725170135498046875" lon="19.8956131003797054290771484375">
        <ele>1627.5999755859375</ele>
        <time>2026-06-16T11:40:29.000Z</time>
        <extensions>
          <ns3:TrackPointExtension>
            <ns3:atemp>21.0</ns3:atemp>
          </ns3:TrackPointExtension>
        </extensions>
      </trkpt>
      <trkpt lat="42.62099266983568668365478515625" lon="19.89563430659472942352294921875">
        <ele>1627.5999755859375</ele>
        <time>2026-06-16T11:40:30.000Z</time>
        <extensions>
          <ns3:TrackPointExtension>
            <ns3:atemp>21.0</ns3:atemp>
          </ns3:TrackPointExtension>
        </extensions>
      </trkpt>
      <trkpt lat="42.62100993655622005462646484375" lon="19.895652495324611663818359375">
        <ele>1627.5999755859375</ele>
        <time>2026-06-16T11:40:31.000Z</time>
        <extensions>
          <ns3:TrackPointExtension>
            <ns3:atemp>21.0</ns3:atemp>
          </ns3:TrackPointExtension>
        </extensions>
      </trkpt>
      <trkpt lat="42.62102351523935794830322265625" lon="19.8956697620451450347900390625">
        <ele>1627.5999755859375</ele>
        <time>2026-06-16T11:40:32.000Z</time>
        <extensions>
          <ns3:TrackPointExtension>
            <ns3:atemp>21.0</ns3:atemp>
          </ns3:TrackPointExtension>
        </extensions>
      </trkpt>
      <trkpt lat="42.62103089131414890289306640625" lon="19.895684681832790374755859375">
        <ele>1627.5999755859375</ele>
        <time>2026-06-16T11:40:33.000Z</time>
        <extensions>
          <ns3:TrackPointExtension>
            <ns3:atemp>21.0</ns3:atemp>
          </ns3:TrackPointExtension>
        </extensions>
      </trkpt>
      <trkpt lat="42.6210348308086395263671875" lon="19.8956982605159282684326171875">
        <ele>1627.800048828125</ele>
        <time>2026-06-16T11:40:34.000Z</time>
        <extensions>
          <ns3:TrackPointExtension>
            <ns3:atemp>21.0</ns3:atemp>
          </ns3:TrackPointExtension>
        </extensions>
      </trkpt>
      <trkpt lat="42.62104413472115993499755859375" lon="19.89571041427552700042724609375">
        <ele>1627.800048828125</ele>
        <time>2026-06-16T11:40:35.000Z</time>
        <extensions>
          <ns3:TrackPointExtension>
            <ns3:atemp>21.0</ns3:atemp>
          </ns3:TrackPointExtension>
        </extensions>
      </trkpt>
      <trkpt lat="42.6210440509021282196044921875" lon="19.89572013728320598602294921875">
        <ele>1628</ele>
        <time>2026-06-16T11:40:36.000Z</time>
        <extensions>
          <ns3:TrackPointExtension>
            <ns3:atemp>21.0</ns3:atemp>
          </ns3:TrackPointExtension>
        </extensions>
      </trkpt>
      <trkpt lat="42.62104581110179424285888671875" lon="19.89571963436901569366455078125">
        <ele>1628.199951171875</ele>
        <time>2026-06-16T11:40:37.000Z</time>
        <extensions>
          <ns3:TrackPointExtension>
            <ns3:atemp>22.0</ns3:atemp>
          </ns3:TrackPointExtension>
        </extensions>
      </trkpt>
      <trkpt lat="42.62104757130146026611328125" lon="19.8957237415015697479248046875">
        <ele>1628.199951171875</ele>
        <time>2026-06-16T11:40:38.000Z</time>
        <extensions>
          <ns3:TrackPointExtension>
            <ns3:atemp>22.0</ns3:atemp>
          </ns3:TrackPointExtension>
        </extensions>
      </trkpt>
      <trkpt lat="42.621050588786602020263671875" lon="19.89573354832828044891357421875">
        <ele>1628.199951171875</ele>
        <time>2026-06-16T11:40:39.000Z</time>
        <extensions>
          <ns3:TrackPointExtension>
            <ns3:atemp>22.0</ns3:atemp>
          </ns3:TrackPointExtension>
        </extensions>
      </trkpt>
      <trkpt lat="42.62105402536690235137939453125" lon="19.89574335515499114990234375">
        <ele>1628.199951171875</ele>
        <time>2026-06-16T11:40:40.000Z</time>
        <extensions>
          <ns3:TrackPointExtension>
            <ns3:atemp>22.0</ns3:atemp>
          </ns3:TrackPointExtension>
        </extensions>
      </trkpt>
      <trkpt lat="42.62105888687074184417724609375" lon="19.89575802348554134368896484375">
        <ele>1628.199951171875</ele>
        <time>2026-06-16T11:40:41.000Z</time>
        <extensions>
          <ns3:TrackPointExtension>
            <ns3:atemp>22.0</ns3:atemp>
          </ns3:TrackPointExtension>
        </extensions>
      </trkpt>
      <trkpt lat="42.62106609530746936798095703125" lon="19.89576154388487339019775390625">
        <ele>1628.199951171875</ele>
        <time>2026-06-16T11:40:42.000Z</time>
        <extensions>
          <ns3:TrackPointExtension>
            <ns3:atemp>22.0</ns3:atemp>
          </ns3:TrackPointExtension>
        </extensions>
      </trkpt>
      <trkpt lat="42.6210742257535457611083984375" lon="19.89576891995966434478759765625">
        <ele>1628.199951171875</ele>
        <time>2026-06-16T11:40:43.000Z</time>
        <extensions>
          <ns3:TrackPointExtension>
            <ns3:atemp>22.0</ns3:atemp>
          </ns3:TrackPointExtension>
        </extensions>
      </trkpt>
      <trkpt lat="42.6210819371044635772705078125" lon="19.89576657302677631378173828125">
        <ele>1628.199951171875</ele>
        <time>2026-06-16T11:40:44.000Z</time>
        <extensions>
          <ns3:TrackPointExtension>
            <ns3:atemp>22.0</ns3:atemp>
          </ns3:TrackPointExtension>
        </extensions>
      </trkpt>
      <trkpt lat="42.621085457503795623779296875" lon="19.89577160216867923736572265625">
        <ele>1628.199951171875</ele>
        <time>2026-06-16T11:40:45.000Z</time>
        <extensions>
          <ns3:TrackPointExtension>
            <ns3:atemp>22.0</ns3:atemp>
          </ns3:TrackPointExtension>
        </extensions>
      </trkpt>
      <trkpt lat="42.6210943423211574554443359375" lon="19.89577881060540676116943359375">
        <ele>1628.199951171875</ele>
        <time>2026-06-16T11:40:46.000Z</time>
        <extensions>
          <ns3:TrackPointExtension>
            <ns3:atemp>22.0</ns3:atemp>
          </ns3:TrackPointExtension>
        </extensions>
      </trkpt>
      <trkpt lat="42.62110230512917041778564453125" lon="19.8957810737192630767822265625">
        <ele>1628.199951171875</ele>
        <time>2026-06-16T11:40:47.000Z</time>
        <extensions>
          <ns3:TrackPointExtension>
            <ns3:atemp>22.0</ns3:atemp>
          </ns3:TrackPointExtension>
        </extensions>
      </trkpt>
      <trkpt lat="42.621113955974578857421875" lon="19.8957891203463077545166015625">
        <ele>1628.199951171875</ele>
        <time>2026-06-16T11:40:48.000Z</time>
        <extensions>
          <ns3:TrackPointExtension>
            <ns3:atemp>22.0</ns3:atemp>
          </ns3:TrackPointExtension>
        </extensions>
      </trkpt>
      <trkpt lat="42.6211225055158138275146484375" lon="19.89579356275498867034912109375">
        <ele>1628.199951171875</ele>
        <time>2026-06-16T11:40:49.000Z</time>
        <extensions>
          <ns3:TrackPointExtension>
            <ns3:atemp>22.0</ns3:atemp>
          </ns3:TrackPointExtension>
        </extensions>
      </trkpt>
      <trkpt lat="42.62112376280128955841064453125" lon="19.895792640745639801025390625">
        <ele>1628.199951171875</ele>
        <time>2026-06-16T11:40:50.000Z</time>
        <extensions>
          <ns3:TrackPointExtension>
            <ns3:atemp>22.0</ns3:atemp>
          </ns3:TrackPointExtension>
        </extensions>
      </trkpt>
      <trkpt lat="42.62112376280128955841064453125" lon="19.895792640745639801025390625">
        <ele>1628.4000244140625</ele>
        <time>2026-06-16T11:40:51.000Z</time>
        <extensions>
          <ns3:TrackPointExtension>
            <ns3:atemp>22.0</ns3:atemp>
          </ns3:TrackPointExtension>
        </extensions>
      </trkpt>
      <trkpt lat="42.62112376280128955841064453125" lon="19.895792640745639801025390625">
        <ele>1628.4000244140625</ele>
        <time>2026-06-16T11:40:52.000Z</time>
        <extensions>
          <ns3:TrackPointExtension>
            <ns3:atemp>22.0</ns3:atemp>
          </ns3:TrackPointExtension>
        </extensions>
      </trkpt>
      <trkpt lat="42.62112376280128955841064453125" lon="19.895792640745639801025390625">
        <ele>1628.4000244140625</ele>
        <time>2026-06-16T11:40:53.000Z</time>
        <extensions>
          <ns3:TrackPointExtension>
            <ns3:atemp>22.0</ns3:atemp>
          </ns3:TrackPointExtension>
        </extensions>
      </trkpt>
      <trkpt lat="42.62112426571547985076904296875" lon="19.8957931436598300933837890625">
        <ele>1628.4000244140625</ele>
        <time>2026-06-16T11:40:54.000Z</time>
        <extensions>
          <ns3:TrackPointExtension>
            <ns3:atemp>22.0</ns3:atemp>
          </ns3:TrackPointExtension>
        </extensions>
      </trkpt>
      <trkpt lat="42.62112996540963649749755859375" lon="19.89580236375331878662109375">
        <ele>1628.4000244140625</ele>
        <time>2026-06-16T11:40:55.000Z</time>
        <extensions>
          <ns3:TrackPointExtension>
            <ns3:atemp>22.0</ns3:atemp>
          </ns3:TrackPointExtension>
        </extensions>
      </trkpt>
      <trkpt lat="42.621135748922824859619140625" lon="19.895806051790714263916015625">
        <ele>1628.4000244140625</ele>
        <time>2026-06-16T11:40:56.000Z</time>
        <extensions>
          <ns3:TrackPointExtension>
            <ns3:atemp>22.0</ns3:atemp>
          </ns3:TrackPointExtension>
        </extensions>
      </trkpt>
      <trkpt lat="42.62113583274185657501220703125" lon="19.8958062194287776947021484375">
        <ele>1628.4000244140625</ele>
        <time>2026-06-16T11:40:57.000Z</time>
        <extensions>
          <ns3:TrackPointExtension>
            <ns3:atemp>22.0</ns3:atemp>
          </ns3:TrackPointExtension>
        </extensions>
      </trkpt>
      <trkpt lat="42.62114186771214008331298828125" lon="19.8958135955035686492919921875">
        <ele>1628.199951171875</ele>
        <time>2026-06-16T11:40:58.000Z</time>
        <extensions>
          <ns3:TrackPointExtension>
            <ns3:atemp>22.0</ns3:atemp>
          </ns3:TrackPointExtension>
        </extensions>
      </trkpt>
      <trkpt lat="42.621147148311138153076171875" lon="19.8958260007202625274658203125">
        <ele>1628.199951171875</ele>
        <time>2026-06-16T11:40:59.000Z</time>
        <extensions>
          <ns3:TrackPointExtension>
            <ns3:atemp>22.0</ns3:atemp>
          </ns3:TrackPointExtension>
        </extensions>
      </trkpt>
      <trkpt lat="42.6211493276059627532958984375" lon="19.89583664573729038238525390625">
        <ele>1628.4000244140625</ele>
        <time>2026-06-16T11:41:00.000Z</time>
        <extensions>
          <ns3:TrackPointExtension>
            <ns3:atemp>22.0</ns3:atemp>
          </ns3:TrackPointExtension>
        </extensions>
      </trkpt>
      <trkpt lat="42.6211493276059627532958984375" lon="19.89583664573729038238525390625">
        <ele>1628.4000244140625</ele>
        <time>2026-06-16T11:41:01.000Z</time>
        <extensions>
          <ns3:TrackPointExtension>
            <ns3:atemp>22.0</ns3:atemp>
          </ns3:TrackPointExtension>
        </extensions>
      </trkpt>
      <trkpt lat="42.62114941142499446868896484375" lon="19.8958370648324489593505859375">
        <ele>1628.4000244140625</ele>
        <time>2026-06-16T11:41:02.000Z</time>
        <extensions>
          <ns3:TrackPointExtension>
            <ns3:atemp>22.0</ns3:atemp>
          </ns3:TrackPointExtension>
        </extensions>
      </trkpt>
      <trkpt lat="42.6211577095091342926025390625" lon="19.89585877396166324615478515625">
        <ele>1628.4000244140625</ele>
        <time>2026-06-16T11:41:03.000Z</time>
        <extensions>
          <ns3:TrackPointExtension>
            <ns3:atemp>22.0</ns3:atemp>
          </ns3:TrackPointExtension>
        </extensions>
      </trkpt>
      <trkpt lat="42.62117036618292331695556640625" lon="19.89587721414864063262939453125">
        <ele>1628.4000244140625</ele>
        <time>2026-06-16T11:41:04.000Z</time>
        <extensions>
          <ns3:TrackPointExtension>
            <ns3:atemp>22.0</ns3:atemp>
          </ns3:TrackPointExtension>
        </extensions>
      </trkpt>
      <trkpt lat="42.62118528597056865692138671875" lon="19.89589112810790538787841796875">
        <ele>1628.4000244140625</ele>
        <time>2026-06-16T11:41:05.000Z</time>
        <extensions>
          <ns3:TrackPointExtension>
            <ns3:atemp>22.0</ns3:atemp>
          </ns3:TrackPointExtension>
        </extensions>
      </trkpt>
      <trkpt lat="42.6212019659578800201416015625" lon="19.89589934237301349639892578125">
        <ele>1628.4000244140625</ele>
        <time>2026-06-16T11:41:06.000Z</time>
        <extensions>
          <ns3:TrackPointExtension>
            <ns3:atemp>22.0</ns3:atemp>
          </ns3:TrackPointExtension>
        </extensions>
      </trkpt>
      <trkpt lat="42.62121747247874736785888671875" lon="19.89591711200773715972900390625">
        <ele>1628.4000244140625</ele>
        <time>2026-06-16T11:41:07.000Z</time>
        <extensions>
          <ns3:TrackPointExtension>
            <ns3:atemp>22.0</ns3:atemp>
          </ns3:TrackPointExtension>
        </extensions>
      </trkpt>
      <trkpt lat="42.62123943306505680084228515625" lon="19.89593823440372943878173828125">
        <ele>1628.4000244140625</ele>
        <time>2026-06-16T11:41:08.000Z</time>
        <extensions>
          <ns3:TrackPointExtension>
            <ns3:atemp>22.0</ns3:atemp>
          </ns3:TrackPointExtension>
        </extensions>
      </trkpt>
      <trkpt lat="42.62125602923333644866943359375" lon="19.895955584943294525146484375">
        <ele>1628.199951171875</ele>
        <time>2026-06-16T11:41:09.000Z</time>
        <extensions>
          <ns3:TrackPointExtension>
            <ns3:atemp>22.0</ns3:atemp>
          </ns3:TrackPointExtension>
        </extensions>
      </trkpt>
      <trkpt lat="42.62126994319260120391845703125" lon="19.89597880281507968902587890625">
        <ele>1628.199951171875</ele>
        <time>2026-06-16T11:41:10.000Z</time>
        <extensions>
          <ns3:TrackPointExtension>
            <ns3:atemp>22.0</ns3:atemp>
          </ns3:TrackPointExtension>
        </extensions>
      </trkpt>
      <trkpt lat="42.62128402478992938995361328125" lon="19.8960010148584842681884765625">
        <ele>1628.199951171875</ele>
        <time>2026-06-16T11:41:11.000Z</time>
        <extensions>
          <ns3:TrackPointExtension>
            <ns3:atemp>22.0</ns3:atemp>
          </ns3:TrackPointExtension>
        </extensions>
      </trkpt>
      <trkpt lat="42.62129391543567180633544921875" lon="19.8960281722247600555419921875">
        <ele>1628.4000244140625</ele>
        <time>2026-06-16T11:41:12.000Z</time>
        <extensions>
          <ns3:TrackPointExtension>
            <ns3:atemp>22.0</ns3:atemp>
          </ns3:TrackPointExtension>
        </extensions>
      </trkpt>
      <trkpt lat="42.62130615301430225372314453125" lon="19.89605675451457500457763671875">
        <ele>1628.4000244140625</ele>
        <time>2026-06-16T11:41:13.000Z</time>
        <extensions>
          <ns3:TrackPointExtension>
            <ns3:atemp>22.0</ns3:atemp>
          </ns3:TrackPointExtension>
        </extensions>
      </trkpt>
      <trkpt lat="42.62131922878324985504150390625" lon="19.896078296005725860595703125">
        <ele>1628.5999755859375</ele>
        <time>2026-06-16T11:41:14.000Z</time>
        <extensions>
          <ns3:TrackPointExtension>
            <ns3:atemp>22.0</ns3:atemp>
          </ns3:TrackPointExtension>
        </extensions>
      </trkpt>
      <trkpt lat="42.62132911942899227142333984375" lon="19.89609883166849613189697265625">
        <ele>1628.800048828125</ele>
        <time>2026-06-16T11:41:15.000Z</time>
        <extensions>
          <ns3:TrackPointExtension>
            <ns3:atemp>22.0</ns3:atemp>
          </ns3:TrackPointExtension>
        </extensions>
      </trkpt>
      <trkpt lat="42.621346972882747650146484375" lon="19.89611190743744373321533203125">
        <ele>1628.800048828125</ele>
        <time>2026-06-16T11:41:16.000Z</time>
        <extensions>
          <ns3:TrackPointExtension>
            <ns3:atemp>22.0</ns3:atemp>
          </ns3:TrackPointExtension>
        </extensions>
      </trkpt>
      <trkpt lat="42.62136700563132762908935546875" lon="19.8961317725479602813720703125">
        <ele>1629</ele>
        <time>2026-06-16T11:41:17.000Z</time>
        <extensions>
          <ns3:TrackPointExtension>
            <ns3:atemp>22.0</ns3:atemp>
          </ns3:TrackPointExtension>
        </extensions>
      </trkpt>
      <trkpt lat="42.62138561345636844635009765625" lon="19.89615918137133121490478515625">
        <ele>1629</ele>
        <time>2026-06-16T11:41:18.000Z</time>
        <extensions>
          <ns3:TrackPointExtension>
            <ns3:atemp>22.0</ns3:atemp>
          </ns3:TrackPointExtension>
        </extensions>
      </trkpt>
      <trkpt lat="42.62140673585236072540283203125" lon="19.8961860872805118560791015625">
        <ele>1629</ele>
        <time>2026-06-16T11:41:19.000Z</time>
        <extensions>
          <ns3:TrackPointExtension>
            <ns3:atemp>22.0</ns3:atemp>
          </ns3:TrackPointExtension>
        </extensions>
      </trkpt>
      <trkpt lat="42.6214289478957653045654296875" lon="19.89621684886515140533447265625">
        <ele>1629.199951171875</ele>
        <time>2026-06-16T11:41:20.000Z</time>
        <extensions>
          <ns3:TrackPointExtension>
            <ns3:atemp>22.0</ns3:atemp>
          </ns3:TrackPointExtension>
        </extensions>
      </trkpt>
      <trkpt lat="42.62144562788307666778564453125" lon="19.8962387256324291229248046875">
        <ele>1629.199951171875</ele>
        <time>2026-06-16T11:41:21.000Z</time>
        <extensions>
          <ns3:TrackPointExtension>
            <ns3:atemp>22.0</ns3:atemp>
          </ns3:TrackPointExtension>
        </extensions>
      </trkpt>
      <trkpt lat="42.62146331369876861572265625" lon="19.896260015666484832763671875">
        <ele>1629.199951171875</ele>
        <time>2026-06-16T11:41:22.000Z</time>
        <extensions>
          <ns3:TrackPointExtension>
            <ns3:atemp>22.0</ns3:atemp>
          </ns3:TrackPointExtension>
        </extensions>
      </trkpt>
      <trkpt lat="42.62148368172347545623779296875" lon="19.896287508308887481689453125">
        <ele>1629.199951171875</ele>
        <time>2026-06-16T11:41:23.000Z</time>
        <extensions>
          <ns3:TrackPointExtension>
            <ns3:atemp>22.0</ns3:atemp>
          </ns3:TrackPointExtension>
        </extensions>
      </trkpt>
      <trkpt lat="42.6215013675391674041748046875" lon="19.8963139951229095458984375">
        <ele>1629.199951171875</ele>
        <time>2026-06-16T11:41:24.000Z</time>
        <extensions>
          <ns3:TrackPointExtension>
            <ns3:atemp>22.0</ns3:atemp>
          </ns3:TrackPointExtension>
        </extensions>
      </trkpt>
      <trkpt lat="42.6215136051177978515625" lon="19.89633805118501186370849609375">
        <ele>1629.199951171875</ele>
        <time>2026-06-16T11:41:25.000Z</time>
        <extensions>
          <ns3:TrackPointExtension>
            <ns3:atemp>22.0</ns3:atemp>
          </ns3:TrackPointExtension>
        </extensions>
      </trkpt>
      <trkpt lat="42.62153129093348979949951171875" lon="19.89636202342808246612548828125">
        <ele>1629</ele>
        <time>2026-06-16T11:41:26.000Z</time>
        <extensions>
          <ns3:TrackPointExtension>
            <ns3:atemp>22.0</ns3:atemp>
          </ns3:TrackPointExtension>
        </extensions>
      </trkpt>
      <trkpt lat="42.62154285795986652374267578125" lon="19.89637191407382488250732421875">
        <ele>1628.800048828125</ele>
        <time>2026-06-16T11:41:27.000Z</time>
        <extensions>
          <ns3:TrackPointExtension>
            <ns3:atemp>22.0</ns3:atemp>
          </ns3:TrackPointExtension>
        </extensions>
      </trkpt>
      <trkpt lat="42.62155492790043354034423828125" lon="19.89638297818601131439208984375">
        <ele>1628.800048828125</ele>
        <time>2026-06-16T11:41:28.000Z</time>
        <extensions>
          <ns3:TrackPointExtension>
            <ns3:atemp>22.0</ns3:atemp>
          </ns3:TrackPointExtension>
        </extensions>
      </trkpt>
      <trkpt lat="42.62155978940427303314208984375" lon="19.89639521576464176177978515625">
        <ele>1628.800048828125</ele>
        <time>2026-06-16T11:41:29.000Z</time>
        <extensions>
          <ns3:TrackPointExtension>
            <ns3:atemp>22.0</ns3:atemp>
          </ns3:TrackPointExtension>
        </extensions>
      </trkpt>
      <trkpt lat="42.621558867394924163818359375" lon="19.896403849124908447265625">
        <ele>1628.800048828125</ele>
        <time>2026-06-16T11:41:30.000Z</time>
        <extensions>
          <ns3:TrackPointExtension>
            <ns3:atemp>22.0</ns3:atemp>
          </ns3:TrackPointExtension>
        </extensions>
      </trkpt>
      <trkpt lat="42.62156498618423938751220703125" lon="19.89641063846647739410400390625">
        <ele>1628.800048828125</ele>
        <time>2026-06-16T11:41:31.000Z</time>
        <extensions>
          <ns3:TrackPointExtension>
            <ns3:atemp>22.0</ns3:atemp>
          </ns3:TrackPointExtension>
        </extensions>
      </trkpt>
      <trkpt lat="42.62157118879258632659912109375" lon="19.89641197957098484039306640625">
        <ele>1628.5999755859375</ele>
        <time>2026-06-16T11:41:32.000Z</time>
        <extensions>
          <ns3:TrackPointExtension>
            <ns3:atemp>22.0</ns3:atemp>
          </ns3:TrackPointExtension>
        </extensions>
      </trkpt>
      <trkpt lat="42.62157018296420574188232421875" lon="19.8964077048003673553466796875">
        <ele>1628.5999755859375</ele>
        <time>2026-06-16T11:41:33.000Z</time>
        <extensions>
          <ns3:TrackPointExtension>
            <ns3:atemp>22.0</ns3:atemp>
          </ns3:TrackPointExtension>
        </extensions>
      </trkpt>
      <trkpt lat="42.621570266783237457275390625" lon="19.8964077048003673553466796875">
        <ele>1628.5999755859375</ele>
        <time>2026-06-16T11:41:34.000Z</time>
        <extensions>
          <ns3:TrackPointExtension>
            <ns3:atemp>22.0</ns3:atemp>
          </ns3:TrackPointExtension>
        </extensions>
      </trkpt>
      <trkpt lat="42.621570266783237457275390625" lon="19.8964077048003673553466796875">
        <ele>1628.5999755859375</ele>
        <time>2026-06-16T11:41:35.000Z</time>
        <extensions>
          <ns3:TrackPointExtension>
            <ns3:atemp>22.0</ns3:atemp>
          </ns3:TrackPointExtension>
        </extensions>
      </trkpt>
      <trkpt lat="42.621570266783237457275390625" lon="19.8964077048003673553466796875">
        <ele>1628.5999755859375</ele>
        <time>2026-06-16T11:41:36.000Z</time>
        <extensions>
          <ns3:TrackPointExtension>
            <ns3:atemp>22.0</ns3:atemp>
          </ns3:TrackPointExtension>
        </extensions>
      </trkpt>
      <trkpt lat="42.621570266783237457275390625" lon="19.8964077048003673553466796875">
        <ele>1628.5999755859375</ele>
        <time>2026-06-16T11:41:37.000Z</time>
        <extensions>
          <ns3:TrackPointExtension>
            <ns3:atemp>22.0</ns3:atemp>
          </ns3:TrackPointExtension>
        </extensions>
      </trkpt>
      <trkpt lat="42.6215707696974277496337890625" lon="19.89640795625746250152587890625">
        <ele>1628.5999755859375</ele>
        <time>2026-06-16T11:41:38.000Z</time>
        <extensions>
          <ns3:TrackPointExtension>
            <ns3:atemp>22.0</ns3:atemp>
          </ns3:TrackPointExtension>
        </extensions>
      </trkpt>
      <trkpt lat="42.62157957069575786590576171875" lon="19.8964113928377628326416015625">
        <ele>1628.5999755859375</ele>
        <time>2026-06-16T11:41:39.000Z</time>
        <extensions>
          <ns3:TrackPointExtension>
            <ns3:atemp>22.0</ns3:atemp>
          </ns3:TrackPointExtension>
        </extensions>
      </trkpt>
      <trkpt lat="42.62158133089542388916015625" lon="19.896426983177661895751953125">
        <ele>1628.5999755859375</ele>
        <time>2026-06-16T11:41:40.000Z</time>
        <extensions>
          <ns3:TrackPointExtension>
            <ns3:atemp>22.0</ns3:atemp>
          </ns3:TrackPointExtension>
        </extensions>
      </trkpt>
      <trkpt lat="42.62158493511378765106201171875" lon="19.89643779583275318145751953125">
        <ele>1628.5999755859375</ele>
        <time>2026-06-16T11:41:41.000Z</time>
        <extensions>
          <ns3:TrackPointExtension>
            <ns3:atemp>22.0</ns3:atemp>
          </ns3:TrackPointExtension>
        </extensions>
      </trkpt>
      <trkpt lat="42.6215848512947559356689453125" lon="19.89643804728984832763671875">
        <ele>1628.5999755859375</ele>
        <time>2026-06-16T11:41:42.000Z</time>
        <extensions>
          <ns3:TrackPointExtension>
            <ns3:atemp>22.0</ns3:atemp>
          </ns3:TrackPointExtension>
        </extensions>
      </trkpt>
      <trkpt lat="42.62158459983766078948974609375" lon="19.89643846638500690460205078125">
        <ele>1628.800048828125</ele>
        <time>2026-06-16T11:41:43.000Z</time>
        <extensions>
          <ns3:TrackPointExtension>
            <ns3:atemp>22.0</ns3:atemp>
          </ns3:TrackPointExtension>
        </extensions>
      </trkpt>
      <trkpt lat="42.6215804927051067352294921875" lon="19.89645808003842830657958984375">
        <ele>1628.5999755859375</ele>
        <time>2026-06-16T11:41:44.000Z</time>
        <extensions>
          <ns3:TrackPointExtension>
            <ns3:atemp>22.0</ns3:atemp>
          </ns3:TrackPointExtension>
        </extensions>
      </trkpt>
      <trkpt lat="42.62158040888607501983642578125" lon="19.89645824767649173736572265625">
        <ele>1628.5999755859375</ele>
        <time>2026-06-16T11:41:45.000Z</time>
        <extensions>
          <ns3:TrackPointExtension>
            <ns3:atemp>22.0</ns3:atemp>
          </ns3:TrackPointExtension>
        </extensions>
      </trkpt>
      <trkpt lat="42.62158040888607501983642578125" lon="19.89645824767649173736572265625">
        <ele>1628.5999755859375</ele>
        <time>2026-06-16T11:41:46.000Z</time>
        <extensions>
          <ns3:TrackPointExtension>
            <ns3:atemp>22.0</ns3:atemp>
          </ns3:TrackPointExtension>
        </extensions>
      </trkpt>
      <trkpt lat="42.62158040888607501983642578125" lon="19.89645824767649173736572265625">
        <ele>1628.5999755859375</ele>
        <time>2026-06-16T11:41:47.000Z</time>
        <extensions>
          <ns3:TrackPointExtension>
            <ns3:atemp>22.0</ns3:atemp>
          </ns3:TrackPointExtension>
        </extensions>
      </trkpt>
      <trkpt lat="42.62158040888607501983642578125" lon="19.89645925350487232208251953125">
        <ele>1628.5999755859375</ele>
        <time>2026-06-16T11:41:48.000Z</time>
        <extensions>
          <ns3:TrackPointExtension>
            <ns3:atemp>22.0</ns3:atemp>
          </ns3:TrackPointExtension>
        </extensions>
      </trkpt>
      <trkpt lat="42.6215865276753902435302734375" lon="19.89647802896797657012939453125">
        <ele>1628.5999755859375</ele>
        <time>2026-06-16T11:41:49.000Z</time>
        <extensions>
          <ns3:TrackPointExtension>
            <ns3:atemp>22.0</ns3:atemp>
          </ns3:TrackPointExtension>
        </extensions>
      </trkpt>
      <trkpt lat="42.6215972565114498138427734375" lon="19.896485321223735809326171875">
        <ele>1628.4000244140625</ele>
        <time>2026-06-16T11:41:50.000Z</time>
        <extensions>
          <ns3:TrackPointExtension>
            <ns3:atemp>22.0</ns3:atemp>
          </ns3:TrackPointExtension>
        </extensions>
      </trkpt>
      <trkpt lat="42.621604464948177337646484375" lon="19.89649839699268341064453125">
        <ele>1628.4000244140625</ele>
        <time>2026-06-16T11:41:51.000Z</time>
        <extensions>
          <ns3:TrackPointExtension>
            <ns3:atemp>22.0</ns3:atemp>
          </ns3:TrackPointExtension>
        </extensions>
      </trkpt>
      <trkpt lat="42.6216032914817333221435546875" lon="19.89649211056530475616455078125">
        <ele>1628.199951171875</ele>
        <time>2026-06-16T11:41:52.000Z</time>
        <extensions>
          <ns3:TrackPointExtension>
            <ns3:atemp>22.0</ns3:atemp>
          </ns3:TrackPointExtension>
        </extensions>
      </trkpt>
      <trkpt lat="42.62160320766270160675048828125" lon="19.89649211056530475616455078125">
        <ele>1628.199951171875</ele>
        <time>2026-06-16T11:41:53.000Z</time>
        <extensions>
          <ns3:TrackPointExtension>
            <ns3:atemp>22.0</ns3:atemp>
          </ns3:TrackPointExtension>
        </extensions>
      </trkpt>
      <trkpt lat="42.62160320766270160675048828125" lon="19.89649211056530475616455078125">
        <ele>1628.199951171875</ele>
        <time>2026-06-16T11:41:54.000Z</time>
        <extensions>
          <ns3:TrackPointExtension>
            <ns3:atemp>22.0</ns3:atemp>
          </ns3:TrackPointExtension>
        </extensions>
      </trkpt>
      <trkpt lat="42.62160320766270160675048828125" lon="19.89649211056530475616455078125">
        <ele>1628.199951171875</ele>
        <time>2026-06-16T11:41:55.000Z</time>
        <extensions>
          <ns3:TrackPointExtension>
            <ns3:atemp>22.0</ns3:atemp>
          </ns3:TrackPointExtension>
        </extensions>
      </trkpt>
      <trkpt lat="42.62160320766270160675048828125" lon="19.89649211056530475616455078125">
        <ele>1628.199951171875</ele>
        <time>2026-06-16T11:41:56.000Z</time>
        <extensions>
          <ns3:TrackPointExtension>
            <ns3:atemp>22.0</ns3:atemp>
          </ns3:TrackPointExtension>
        </extensions>
      </trkpt>
      <trkpt lat="42.62160320766270160675048828125" lon="19.89649211056530475616455078125">
        <ele>1628.199951171875</ele>
        <time>2026-06-16T11:41:57.000Z</time>
        <extensions>
          <ns3:TrackPointExtension>
            <ns3:atemp>22.0</ns3:atemp>
          </ns3:TrackPointExtension>
        </extensions>
      </trkpt>
      <trkpt lat="42.62160320766270160675048828125" lon="19.89649211056530475616455078125">
        <ele>1628.199951171875</ele>
        <time>2026-06-16T11:41:58.000Z</time>
        <extensions>
          <ns3:TrackPointExtension>
            <ns3:atemp>22.0</ns3:atemp>
          </ns3:TrackPointExtension>
        </extensions>
      </trkpt>
      <trkpt lat="42.62160320766270160675048828125" lon="19.89649211056530475616455078125">
        <ele>1628</ele>
        <time>2026-06-16T11:41:59.000Z</time>
        <extensions>
          <ns3:TrackPointExtension>
            <ns3:atemp>22.0</ns3:atemp>
          </ns3:TrackPointExtension>
        </extensions>
      </trkpt>
      <trkpt lat="42.62160320766270160675048828125" lon="19.89649211056530475616455078125">
        <ele>1628</ele>
        <time>2026-06-16T11:42:00.000Z</time>
        <extensions>
          <ns3:TrackPointExtension>
            <ns3:atemp>22.0</ns3:atemp>
          </ns3:TrackPointExtension>
        </extensions>
      </trkpt>
      <trkpt lat="42.62160320766270160675048828125" lon="19.89649211056530475616455078125">
        <ele>1628</ele>
        <time>2026-06-16T11:42:01.000Z</time>
        <extensions>
          <ns3:TrackPointExtension>
            <ns3:atemp>22.0</ns3:atemp>
          </ns3:TrackPointExtension>
        </extensions>
      </trkpt>
      <trkpt lat="42.62160320766270160675048828125" lon="19.89649211056530475616455078125">
        <ele>1628</ele>
        <time>2026-06-16T11:42:02.000Z</time>
        <extensions>
          <ns3:TrackPointExtension>
            <ns3:atemp>22.0</ns3:atemp>
          </ns3:TrackPointExtension>
        </extensions>
      </trkpt>
      <trkpt lat="42.62160320766270160675048828125" lon="19.89649211056530475616455078125">
        <ele>1628</ele>
        <time>2026-06-16T11:42:03.000Z</time>
        <extensions>
          <ns3:TrackPointExtension>
            <ns3:atemp>22.0</ns3:atemp>
          </ns3:TrackPointExtension>
        </extensions>
      </trkpt>
      <trkpt lat="42.62160320766270160675048828125" lon="19.89649211056530475616455078125">
        <ele>1628</ele>
        <time>2026-06-16T11:42:04.000Z</time>
        <extensions>
          <ns3:TrackPointExtension>
            <ns3:atemp>22.0</ns3:atemp>
          </ns3:TrackPointExtension>
        </extensions>
      </trkpt>
      <trkpt lat="42.62160320766270160675048828125" lon="19.89649211056530475616455078125">
        <ele>1628</ele>
        <time>2026-06-16T11:42:05.000Z</time>
        <extensions>
          <ns3:TrackPointExtension>
            <ns3:atemp>22.0</ns3:atemp>
          </ns3:TrackPointExtension>
        </extensions>
      </trkpt>
      <trkpt lat="42.62160320766270160675048828125" lon="19.89649211056530475616455078125">
        <ele>1628</ele>
        <time>2026-06-16T11:42:06.000Z</time>
        <extensions>
          <ns3:TrackPointExtension>
            <ns3:atemp>22.0</ns3:atemp>
          </ns3:TrackPointExtension>
        </extensions>
      </trkpt>
      <trkpt lat="42.62160320766270160675048828125" lon="19.89649211056530475616455078125">
        <ele>1628</ele>
        <time>2026-06-16T11:42:07.000Z</time>
        <extensions>
          <ns3:TrackPointExtension>
            <ns3:atemp>22.0</ns3:atemp>
          </ns3:TrackPointExtension>
        </extensions>
      </trkpt>
      <trkpt lat="42.62160320766270160675048828125" lon="19.89649211056530475616455078125">
        <ele>1628</ele>
        <time>2026-06-16T11:42:08.000Z</time>
        <extensions>
          <ns3:TrackPointExtension>
            <ns3:atemp>22.0</ns3:atemp>
          </ns3:TrackPointExtension>
        </extensions>
      </trkpt>
      <trkpt lat="42.62160320766270160675048828125" lon="19.89649211056530475616455078125">
        <ele>1628</ele>
        <time>2026-06-16T11:42:09.000Z</time>
        <extensions>
          <ns3:TrackPointExtension>
            <ns3:atemp>22.0</ns3:atemp>
          </ns3:TrackPointExtension>
        </extensions>
      </trkpt>
      <trkpt lat="42.62160320766270160675048828125" lon="19.89649211056530475616455078125">
        <ele>1628</ele>
        <time>2026-06-16T11:42:10.000Z</time>
        <extensions>
          <ns3:TrackPointExtension>
            <ns3:atemp>22.0</ns3:atemp>
          </ns3:TrackPointExtension>
        </extensions>
      </trkpt>
      <trkpt lat="42.62160320766270160675048828125" lon="19.89649211056530475616455078125">
        <ele>1628</ele>
        <time>2026-06-16T11:42:11.000Z</time>
        <extensions>
          <ns3:TrackPointExtension>
            <ns3:atemp>22.0</ns3:atemp>
          </ns3:TrackPointExtension>
        </extensions>
      </trkpt>
      <trkpt lat="42.62160320766270160675048828125" lon="19.89649211056530475616455078125">
        <ele>1628</ele>
        <time>2026-06-16T11:42:12.000Z</time>
        <extensions>
          <ns3:TrackPointExtension>
            <ns3:atemp>22.0</ns3:atemp>
          </ns3:TrackPointExtension>
        </extensions>
      </trkpt>
      <trkpt lat="42.62160320766270160675048828125" lon="19.89649211056530475616455078125">
        <ele>1628</ele>
        <time>2026-06-16T11:42:13.000Z</time>
        <extensions>
          <ns3:TrackPointExtension>
            <ns3:atemp>22.0</ns3:atemp>
          </ns3:TrackPointExtension>
        </extensions>
      </trkpt>
      <trkpt lat="42.62160320766270160675048828125" lon="19.89649211056530475616455078125">
        <ele>1628</ele>
        <time>2026-06-16T11:42:14.000Z</time>
        <extensions>
          <ns3:TrackPointExtension>
            <ns3:atemp>22.0</ns3:atemp>
          </ns3:TrackPointExtension>
        </extensions>
      </trkpt>
      <trkpt lat="42.62160320766270160675048828125" lon="19.89649211056530475616455078125">
        <ele>1628</ele>
        <time>2026-06-16T11:42:15.000Z</time>
        <extensions>
          <ns3:TrackPointExtension>
            <ns3:atemp>22.0</ns3:atemp>
          </ns3:TrackPointExtension>
        </extensions>
      </trkpt>
      <trkpt lat="42.62160320766270160675048828125" lon="19.89649211056530475616455078125">
        <ele>1628</ele>
        <time>2026-06-16T11:42:16.000Z</time>
        <extensions>
          <ns3:TrackPointExtension>
            <ns3:atemp>22.0</ns3:atemp>
          </ns3:TrackPointExtension>
        </extensions>
      </trkpt>
      <trkpt lat="42.62160320766270160675048828125" lon="19.89649211056530475616455078125">
        <ele>1628</ele>
        <time>2026-06-16T11:42:17.000Z</time>
        <extensions>
          <ns3:TrackPointExtension>
            <ns3:atemp>22.0</ns3:atemp>
          </ns3:TrackPointExtension>
        </extensions>
      </trkpt>
      <trkpt lat="42.62160320766270160675048828125" lon="19.89649211056530475616455078125">
        <ele>1628</ele>
        <time>2026-06-16T11:42:18.000Z</time>
        <extensions>
          <ns3:TrackPointExtension>
            <ns3:atemp>22.0</ns3:atemp>
          </ns3:TrackPointExtension>
        </extensions>
      </trkpt>
      <trkpt lat="42.62160320766270160675048828125" lon="19.89649211056530475616455078125">
        <ele>1628</ele>
        <time>2026-06-16T11:42:19.000Z</time>
        <extensions>
          <ns3:TrackPointExtension>
            <ns3:atemp>22.0</ns3:atemp>
          </ns3:TrackPointExtension>
        </extensions>
      </trkpt>
      <trkpt lat="42.62160320766270160675048828125" lon="19.89649211056530475616455078125">
        <ele>1628</ele>
        <time>2026-06-16T11:42:20.000Z</time>
        <extensions>
          <ns3:TrackPointExtension>
            <ns3:atemp>22.0</ns3:atemp>
          </ns3:TrackPointExtension>
        </extensions>
      </trkpt>
      <trkpt lat="42.62160320766270160675048828125" lon="19.89649211056530475616455078125">
        <ele>1628</ele>
        <time>2026-06-16T11:42:21.000Z</time>
        <extensions>
          <ns3:TrackPointExtension>
            <ns3:atemp>22.0</ns3:atemp>
          </ns3:TrackPointExtension>
        </extensions>
      </trkpt>
      <trkpt lat="42.62160320766270160675048828125" lon="19.89649211056530475616455078125">
        <ele>1628</ele>
        <time>2026-06-16T11:42:22.000Z</time>
        <extensions>
          <ns3:TrackPointExtension>
            <ns3:atemp>22.0</ns3:atemp>
          </ns3:TrackPointExtension>
        </extensions>
      </trkpt>
      <trkpt lat="42.62160320766270160675048828125" lon="19.89649211056530475616455078125">
        <ele>1628</ele>
        <time>2026-06-16T11:42:23.000Z</time>
        <extensions>
          <ns3:TrackPointExtension>
            <ns3:atemp>22.0</ns3:atemp>
          </ns3:TrackPointExtension>
        </extensions>
      </trkpt>
      <trkpt lat="42.62160320766270160675048828125" lon="19.89649211056530475616455078125">
        <ele>1628</ele>
        <time>2026-06-16T11:42:24.000Z</time>
        <extensions>
          <ns3:TrackPointExtension>
            <ns3:atemp>22.0</ns3:atemp>
          </ns3:TrackPointExtension>
        </extensions>
      </trkpt>
      <trkpt lat="42.62160320766270160675048828125" lon="19.89649211056530475616455078125">
        <ele>1628</ele>
        <time>2026-06-16T11:42:25.000Z</time>
        <extensions>
          <ns3:TrackPointExtension>
            <ns3:atemp>22.0</ns3:atemp>
          </ns3:TrackPointExtension>
        </extensions>
      </trkpt>
      <trkpt lat="42.62160320766270160675048828125" lon="19.89649211056530475616455078125">
        <ele>1628</ele>
        <time>2026-06-16T11:42:26.000Z</time>
        <extensions>
          <ns3:TrackPointExtension>
            <ns3:atemp>22.0</ns3:atemp>
          </ns3:TrackPointExtension>
        </extensions>
      </trkpt>
      <trkpt lat="42.62160320766270160675048828125" lon="19.89649211056530475616455078125">
        <ele>1628</ele>
        <time>2026-06-16T11:42:27.000Z</time>
        <extensions>
          <ns3:TrackPointExtension>
            <ns3:atemp>22.0</ns3:atemp>
          </ns3:TrackPointExtension>
        </extensions>
      </trkpt>
      <trkpt lat="42.62160320766270160675048828125" lon="19.89649211056530475616455078125">
        <ele>1628</ele>
        <time>2026-06-16T11:42:28.000Z</time>
        <extensions>
          <ns3:TrackPointExtension>
            <ns3:atemp>22.0</ns3:atemp>
          </ns3:TrackPointExtension>
        </extensions>
      </trkpt>
      <trkpt lat="42.62160320766270160675048828125" lon="19.89649211056530475616455078125">
        <ele>1628</ele>
        <time>2026-06-16T11:42:29.000Z</time>
        <extensions>
          <ns3:TrackPointExtension>
            <ns3:atemp>22.0</ns3:atemp>
          </ns3:TrackPointExtension>
        </extensions>
      </trkpt>
      <trkpt lat="42.62160320766270160675048828125" lon="19.89649211056530475616455078125">
        <ele>1628</ele>
        <time>2026-06-16T11:42:30.000Z</time>
        <extensions>
          <ns3:TrackPointExtension>
            <ns3:atemp>22.0</ns3:atemp>
          </ns3:TrackPointExtension>
        </extensions>
      </trkpt>
      <trkpt lat="42.62160320766270160675048828125" lon="19.89649211056530475616455078125">
        <ele>1628</ele>
        <time>2026-06-16T11:42:31.000Z</time>
        <extensions>
          <ns3:TrackPointExtension>
            <ns3:atemp>22.0</ns3:atemp>
          </ns3:TrackPointExtension>
        </extensions>
      </trkpt>
      <trkpt lat="42.62160320766270160675048828125" lon="19.89649211056530475616455078125">
        <ele>1628</ele>
        <time>2026-06-16T11:42:32.000Z</time>
        <extensions>
          <ns3:TrackPointExtension>
            <ns3:atemp>22.0</ns3:atemp>
          </ns3:TrackPointExtension>
        </extensions>
      </trkpt>
      <trkpt lat="42.62160320766270160675048828125" lon="19.89649211056530475616455078125">
        <ele>1628</ele>
        <time>2026-06-16T11:42:33.000Z</time>
        <extensions>
          <ns3:TrackPointExtension>
            <ns3:atemp>22.0</ns3:atemp>
          </ns3:TrackPointExtension>
        </extensions>
      </trkpt>
      <trkpt lat="42.62160320766270160675048828125" lon="19.89649211056530475616455078125">
        <ele>1628</ele>
        <time>2026-06-16T11:42:34.000Z</time>
        <extensions>
          <ns3:TrackPointExtension>
            <ns3:atemp>22.0</ns3:atemp>
          </ns3:TrackPointExtension>
        </extensions>
      </trkpt>
      <trkpt lat="42.62160320766270160675048828125" lon="19.89649211056530475616455078125">
        <ele>1628</ele>
        <time>2026-06-16T11:42:35.000Z</time>
        <extensions>
          <ns3:TrackPointExtension>
            <ns3:atemp>22.0</ns3:atemp>
          </ns3:TrackPointExtension>
        </extensions>
      </trkpt>
      <trkpt lat="42.62160320766270160675048828125" lon="19.89649211056530475616455078125">
        <ele>1628</ele>
        <time>2026-06-16T11:42:36.000Z</time>
        <extensions>
          <ns3:TrackPointExtension>
            <ns3:atemp>22.0</ns3:atemp>
          </ns3:TrackPointExtension>
        </extensions>
      </trkpt>
      <trkpt lat="42.62160320766270160675048828125" lon="19.89649211056530475616455078125">
        <ele>1628</ele>
        <time>2026-06-16T11:42:37.000Z</time>
        <extensions>
          <ns3:TrackPointExtension>
            <ns3:atemp>22.0</ns3:atemp>
          </ns3:TrackPointExtension>
        </extensions>
      </trkpt>
      <trkpt lat="42.62160320766270160675048828125" lon="19.89649211056530475616455078125">
        <ele>1628</ele>
        <time>2026-06-16T11:42:38.000Z</time>
        <extensions>
          <ns3:TrackPointExtension>
            <ns3:atemp>22.0</ns3:atemp>
          </ns3:TrackPointExtension>
        </extensions>
      </trkpt>
      <trkpt lat="42.62160873971879482269287109375" lon="19.8964948765933513641357421875">
        <ele>1628</ele>
        <time>2026-06-16T11:42:39.000Z</time>
        <extensions>
          <ns3:TrackPointExtension>
            <ns3:atemp>22.0</ns3:atemp>
          </ns3:TrackPointExtension>
        </extensions>
      </trkpt>
      <trkpt lat="42.62161460705101490020751953125" lon="19.89651910029351711273193359375">
        <ele>1628</ele>
        <time>2026-06-16T11:42:40.000Z</time>
        <extensions>
          <ns3:TrackPointExtension>
            <ns3:atemp>22.0</ns3:atemp>
          </ns3:TrackPointExtension>
        </extensions>
      </trkpt>
      <trkpt lat="42.62162114493548870086669921875" lon="19.89653804339468479156494140625">
        <ele>1628.199951171875</ele>
        <time>2026-06-16T11:42:41.000Z</time>
        <extensions>
          <ns3:TrackPointExtension>
            <ns3:atemp>22.0</ns3:atemp>
          </ns3:TrackPointExtension>
        </extensions>
      </trkpt>
      <trkpt lat="42.62163287959992885589599609375" lon="19.8965615965425968170166015625">
        <ele>1628</ele>
        <time>2026-06-16T11:42:42.000Z</time>
        <extensions>
          <ns3:TrackPointExtension>
            <ns3:atemp>22.0</ns3:atemp>
          </ns3:TrackPointExtension>
        </extensions>
      </trkpt>
      <trkpt lat="42.62164310552179813385009765625" lon="19.89658162929117679595947265625">
        <ele>1628</ele>
        <time>2026-06-16T11:42:43.000Z</time>
        <extensions>
          <ns3:TrackPointExtension>
            <ns3:atemp>22.0</ns3:atemp>
          </ns3:TrackPointExtension>
        </extensions>
      </trkpt>
      <trkpt lat="42.62165366671979427337646484375" lon="19.89660141058266162872314453125">
        <ele>1628</ele>
        <time>2026-06-16T11:42:44.000Z</time>
        <extensions>
          <ns3:TrackPointExtension>
            <ns3:atemp>22.0</ns3:atemp>
          </ns3:TrackPointExtension>
        </extensions>
      </trkpt>
      <trkpt lat="42.6216571033000946044921875" lon="19.89662714302539825439453125">
        <ele>1628</ele>
        <time>2026-06-16T11:42:45.000Z</time>
        <extensions>
          <ns3:TrackPointExtension>
            <ns3:atemp>22.0</ns3:atemp>
          </ns3:TrackPointExtension>
        </extensions>
      </trkpt>
      <trkpt lat="42.621661461889743804931640625" lon="19.8966537974774837493896484375">
        <ele>1628</ele>
        <time>2026-06-16T11:42:46.000Z</time>
        <extensions>
          <ns3:TrackPointExtension>
            <ns3:atemp>22.0</ns3:atemp>
          </ns3:TrackPointExtension>
        </extensions>
      </trkpt>
      <trkpt lat="42.62166506610810756683349609375" lon="19.89667517133057117462158203125">
        <ele>1628</ele>
        <time>2026-06-16T11:42:47.000Z</time>
        <extensions>
          <ns3:TrackPointExtension>
            <ns3:atemp>22.0</ns3:atemp>
          </ns3:TrackPointExtension>
        </extensions>
      </trkpt>
      <trkpt lat="42.62167059816420078277587890625" lon="19.8966980539262294769287109375">
        <ele>1627.800048828125</ele>
        <time>2026-06-16T11:42:48.000Z</time>
        <extensions>
          <ns3:TrackPointExtension>
            <ns3:atemp>22.0</ns3:atemp>
          </ns3:TrackPointExtension>
        </extensions>
      </trkpt>
      <trkpt lat="42.62168283574283123016357421875" lon="19.89672965370118618011474609375">
        <ele>1627.800048828125</ele>
        <time>2026-06-16T11:42:49.000Z</time>
        <extensions>
          <ns3:TrackPointExtension>
            <ns3:atemp>22.0</ns3:atemp>
          </ns3:TrackPointExtension>
        </extensions>
      </trkpt>
      <trkpt lat="42.62170278467237949371337890625" lon="19.8967664502561092376708984375">
        <ele>1627.5999755859375</ele>
        <time>2026-06-16T11:42:50.000Z</time>
        <extensions>
          <ns3:TrackPointExtension>
            <ns3:atemp>22.0</ns3:atemp>
          </ns3:TrackPointExtension>
        </extensions>
      </trkpt>
      <trkpt lat="42.621723823249340057373046875" lon="19.896805174648761749267578125">
        <ele>1627.4000244140625</ele>
        <time>2026-06-16T11:42:51.000Z</time>
        <extensions>
          <ns3:TrackPointExtension>
            <ns3:atemp>22.0</ns3:atemp>
          </ns3:TrackPointExtension>
        </extensions>
      </trkpt>
      <trkpt lat="42.6217407546937465667724609375" lon="19.89684398286044597625732421875">
        <ele>1627.4000244140625</ele>
        <time>2026-06-16T11:42:52.000Z</time>
        <extensions>
          <ns3:TrackPointExtension>
            <ns3:atemp>22.0</ns3:atemp>
          </ns3:TrackPointExtension>
        </extensions>
      </trkpt>
      <trkpt lat="42.62174888513982295989990234375" lon="19.896862171590328216552734375">
        <ele>1627.199951171875</ele>
        <time>2026-06-16T11:42:53.000Z</time>
        <extensions>
          <ns3:TrackPointExtension>
            <ns3:atemp>22.0</ns3:atemp>
          </ns3:TrackPointExtension>
        </extensions>
      </trkpt>
      <trkpt lat="42.6217575185000896453857421875" lon="19.89686644636094570159912109375">
        <ele>1627.199951171875</ele>
        <time>2026-06-16T11:42:54.000Z</time>
        <extensions>
          <ns3:TrackPointExtension>
            <ns3:atemp>22.0</ns3:atemp>
          </ns3:TrackPointExtension>
        </extensions>
      </trkpt>
      <trkpt lat="42.62175760231912136077880859375" lon="19.8968666978180408477783203125">
        <ele>1627.4000244140625</ele>
        <time>2026-06-16T11:42:55.000Z</time>
        <extensions>
          <ns3:TrackPointExtension>
            <ns3:atemp>22.0</ns3:atemp>
          </ns3:TrackPointExtension>
        </extensions>
      </trkpt>
      <trkpt lat="42.62175760231912136077880859375" lon="19.8968666978180408477783203125">
        <ele>1627.4000244140625</ele>
        <time>2026-06-16T11:42:56.000Z</time>
        <extensions>
          <ns3:TrackPointExtension>
            <ns3:atemp>22.0</ns3:atemp>
          </ns3:TrackPointExtension>
        </extensions>
      </trkpt>
      <trkpt lat="42.62175760231912136077880859375" lon="19.8968666978180408477783203125">
        <ele>1627.4000244140625</ele>
        <time>2026-06-16T11:42:57.000Z</time>
        <extensions>
          <ns3:TrackPointExtension>
            <ns3:atemp>22.0</ns3:atemp>
          </ns3:TrackPointExtension>
        </extensions>
      </trkpt>
      <trkpt lat="42.621758021414279937744140625" lon="19.89686787128448486328125">
        <ele>1627.4000244140625</ele>
        <time>2026-06-16T11:42:58.000Z</time>
        <extensions>
          <ns3:TrackPointExtension>
            <ns3:atemp>22.0</ns3:atemp>
          </ns3:TrackPointExtension>
        </extensions>
      </trkpt>
      <trkpt lat="42.62176799587905406951904296875" lon="19.89688740111887454986572265625">
        <ele>1627.4000244140625</ele>
        <time>2026-06-16T11:42:59.000Z</time>
        <extensions>
          <ns3:TrackPointExtension>
            <ns3:atemp>22.0</ns3:atemp>
          </ns3:TrackPointExtension>
        </extensions>
      </trkpt>
      <trkpt lat="42.62177721597254276275634765625" lon="19.89690215326845645904541015625">
        <ele>1627.4000244140625</ele>
        <time>2026-06-16T11:43:00.000Z</time>
        <extensions>
          <ns3:TrackPointExtension>
            <ns3:atemp>22.0</ns3:atemp>
          </ns3:TrackPointExtension>
        </extensions>
      </trkpt>
      <trkpt lat="42.62179599143564701080322265625" lon="19.89692998118698596954345703125">
        <ele>1627.199951171875</ele>
        <time>2026-06-16T11:43:01.000Z</time>
        <extensions>
          <ns3:TrackPointExtension>
            <ns3:atemp>22.0</ns3:atemp>
          </ns3:TrackPointExtension>
        </extensions>
      </trkpt>
      <trkpt lat="42.62181476689875125885009765625" lon="19.89696736447513103485107421875">
        <ele>1627</ele>
        <time>2026-06-16T11:43:02.000Z</time>
        <extensions>
          <ns3:TrackPointExtension>
            <ns3:atemp>22.0</ns3:atemp>
          </ns3:TrackPointExtension>
        </extensions>
      </trkpt>
      <trkpt lat="42.62181870639324188232421875" lon="19.89700390957295894622802734375">
        <ele>1626.800048828125</ele>
        <time>2026-06-16T11:43:03.000Z</time>
        <extensions>
          <ns3:TrackPointExtension>
            <ns3:atemp>22.0</ns3:atemp>
          </ns3:TrackPointExtension>
        </extensions>
      </trkpt>
      <trkpt lat="42.62181946076452732086181640625" lon="19.897025786340236663818359375">
        <ele>1626.5999755859375</ele>
        <time>2026-06-16T11:43:04.000Z</time>
        <extensions>
          <ns3:TrackPointExtension>
            <ns3:atemp>22.0</ns3:atemp>
          </ns3:TrackPointExtension>
        </extensions>
      </trkpt>
      <trkpt lat="42.62181610800325870513916015625" lon="19.89704682491719722747802734375">
        <ele>1626.5999755859375</ele>
        <time>2026-06-16T11:43:05.000Z</time>
        <extensions>
          <ns3:TrackPointExtension>
            <ns3:atemp>22.0</ns3:atemp>
          </ns3:TrackPointExtension>
        </extensions>
      </trkpt>
      <trkpt lat="42.62181024067103862762451171875" lon="19.89706291817128658294677734375">
        <ele>1626.800048828125</ele>
        <time>2026-06-16T11:43:06.000Z</time>
        <extensions>
          <ns3:TrackPointExtension>
            <ns3:atemp>22.0</ns3:atemp>
          </ns3:TrackPointExtension>
        </extensions>
      </trkpt>
      <trkpt lat="42.62181342579424381256103515625" lon="19.8970802687108516693115234375">
        <ele>1626.800048828125</ele>
        <time>2026-06-16T11:43:07.000Z</time>
        <extensions>
          <ns3:TrackPointExtension>
            <ns3:atemp>22.0</ns3:atemp>
          </ns3:TrackPointExtension>
        </extensions>
      </trkpt>
      <trkpt lat="42.6218140125274658203125" lon="19.89710248075425624847412109375">
        <ele>1627</ele>
        <time>2026-06-16T11:43:08.000Z</time>
        <extensions>
          <ns3:TrackPointExtension>
            <ns3:atemp>22.0</ns3:atemp>
          </ns3:TrackPointExtension>
        </extensions>
      </trkpt>
      <trkpt lat="42.62181711383163928985595703125" lon="19.89715092815458774566650390625">
        <ele>1627</ele>
        <time>2026-06-16T11:43:09.000Z</time>
        <extensions>
          <ns3:TrackPointExtension>
            <ns3:atemp>22.0</ns3:atemp>
          </ns3:TrackPointExtension>
        </extensions>
      </trkpt>
      <trkpt lat="42.6218140125274658203125" lon="19.89720406942069530487060546875">
        <ele>1626.800048828125</ele>
        <time>2026-06-16T11:43:10.000Z</time>
        <extensions>
          <ns3:TrackPointExtension>
            <ns3:atemp>22.0</ns3:atemp>
          </ns3:TrackPointExtension>
        </extensions>
      </trkpt>
      <trkpt lat="42.62180889956653118133544921875" lon="19.89723592065274715423583984375">
        <ele>1626.800048828125</ele>
        <time>2026-06-16T11:43:11.000Z</time>
        <extensions>
          <ns3:TrackPointExtension>
            <ns3:atemp>22.0</ns3:atemp>
          </ns3:TrackPointExtension>
        </extensions>
      </trkpt>
      <trkpt lat="42.62179858982563018798828125" lon="19.89726676605641841888427734375">
        <ele>1626.5999755859375</ele>
        <time>2026-06-16T11:43:12.000Z</time>
        <extensions>
          <ns3:TrackPointExtension>
            <ns3:atemp>22.0</ns3:atemp>
          </ns3:TrackPointExtension>
        </extensions>
      </trkpt>
      <trkpt lat="42.6217850111424922943115234375" lon="19.8972911573946475982666015625">
        <ele>1626.4000244140625</ele>
        <time>2026-06-16T11:43:13.000Z</time>
        <extensions>
          <ns3:TrackPointExtension>
            <ns3:atemp>22.0</ns3:atemp>
          </ns3:TrackPointExtension>
        </extensions>
      </trkpt>
      <trkpt lat="42.621775455772876739501953125" lon="19.8973176442086696624755859375">
        <ele>1626.4000244140625</ele>
        <time>2026-06-16T11:43:14.000Z</time>
        <extensions>
          <ns3:TrackPointExtension>
            <ns3:atemp>22.0</ns3:atemp>
          </ns3:TrackPointExtension>
        </extensions>
      </trkpt>
      <trkpt lat="42.621774785220623016357421875" lon="19.89733516238629817962646484375">
        <ele>1626.199951171875</ele>
        <time>2026-06-16T11:43:15.000Z</time>
        <extensions>
          <ns3:TrackPointExtension>
            <ns3:atemp>22.0</ns3:atemp>
          </ns3:TrackPointExtension>
        </extensions>
      </trkpt>
      <trkpt lat="42.62177134864032268524169921875" lon="19.8973387666046619415283203125">
        <ele>1626</ele>
        <time>2026-06-16T11:43:16.000Z</time>
        <extensions>
          <ns3:TrackPointExtension>
            <ns3:atemp>22.0</ns3:atemp>
          </ns3:TrackPointExtension>
        </extensions>
      </trkpt>
      <trkpt lat="42.62177151627838611602783203125" lon="19.897338934242725372314453125">
        <ele>1626</ele>
        <time>2026-06-16T11:43:17.000Z</time>
        <extensions>
          <ns3:TrackPointExtension>
            <ns3:atemp>22.0</ns3:atemp>
          </ns3:TrackPointExtension>
        </extensions>
      </trkpt>
      <trkpt lat="42.62177151627838611602783203125" lon="19.8973391018807888031005859375">
        <ele>1625.800048828125</ele>
        <time>2026-06-16T11:43:18.000Z</time>
        <extensions>
          <ns3:TrackPointExtension>
            <ns3:atemp>22.0</ns3:atemp>
          </ns3:TrackPointExtension>
        </extensions>
      </trkpt>
      <trkpt lat="42.62178710661828517913818359375" lon="19.8973548598587512969970703125">
        <ele>1625.4000244140625</ele>
        <time>2026-06-16T11:43:19.000Z</time>
        <extensions>
          <ns3:TrackPointExtension>
            <ns3:atemp>22.0</ns3:atemp>
          </ns3:TrackPointExtension>
        </extensions>
      </trkpt>
      <trkpt lat="42.621812336146831512451171875" lon="19.89736952818930149078369140625">
        <ele>1625</ele>
        <time>2026-06-16T11:43:20.000Z</time>
        <extensions>
          <ns3:TrackPointExtension>
            <ns3:atemp>22.0</ns3:atemp>
          </ns3:TrackPointExtension>
        </extensions>
      </trkpt>
      <trkpt lat="42.621841169893741607666015625" lon="19.897387884557247161865234375">
        <ele>1624.5999755859375</ele>
        <time>2026-06-16T11:43:21.000Z</time>
        <extensions>
          <ns3:TrackPointExtension>
            <ns3:atemp>22.0</ns3:atemp>
          </ns3:TrackPointExtension>
        </extensions>
      </trkpt>
      <trkpt lat="42.62186137028038501739501953125" lon="19.8974366672337055206298828125">
        <ele>1624</ele>
        <time>2026-06-16T11:43:22.000Z</time>
        <extensions>
          <ns3:TrackPointExtension>
            <ns3:atemp>22.0</ns3:atemp>
          </ns3:TrackPointExtension>
        </extensions>
      </trkpt>
      <trkpt lat="42.621867321431636810302734375" lon="19.897483102977275848388671875">
        <ele>1623.4000244140625</ele>
        <time>2026-06-16T11:43:23.000Z</time>
        <extensions>
          <ns3:TrackPointExtension>
            <ns3:atemp>22.0</ns3:atemp>
          </ns3:TrackPointExtension>
        </extensions>
      </trkpt>
      <trkpt lat="42.6218762062489986419677734375" lon="19.89752341993153095245361328125">
        <ele>1622.800048828125</ele>
        <time>2026-06-16T11:43:24.000Z</time>
        <extensions>
          <ns3:TrackPointExtension>
            <ns3:atemp>22.0</ns3:atemp>
          </ns3:TrackPointExtension>
        </extensions>
      </trkpt>
      <trkpt lat="42.6218775473535060882568359375" lon="19.89756683818995952606201171875">
        <ele>1622.4000244140625</ele>
        <time>2026-06-16T11:43:25.000Z</time>
        <extensions>
          <ns3:TrackPointExtension>
            <ns3:atemp>22.0</ns3:atemp>
          </ns3:TrackPointExtension>
        </extensions>
      </trkpt>
      <trkpt lat="42.6218889467418193817138671875" lon="19.89760271273553371429443359375">
        <ele>1622.199951171875</ele>
        <time>2026-06-16T11:43:26.000Z</time>
        <extensions>
          <ns3:TrackPointExtension>
            <ns3:atemp>22.0</ns3:atemp>
          </ns3:TrackPointExtension>
        </extensions>
      </trkpt>
      <trkpt lat="42.6219016872346401214599609375" lon="19.897622577846050262451171875">
        <ele>1622</ele>
        <time>2026-06-16T11:43:27.000Z</time>
        <extensions>
          <ns3:TrackPointExtension>
            <ns3:atemp>22.0</ns3:atemp>
          </ns3:TrackPointExtension>
        </extensions>
      </trkpt>
      <trkpt lat="42.62192591093480587005615234375" lon="19.89764411933720111846923828125">
        <ele>1621.800048828125</ele>
        <time>2026-06-16T11:43:28.000Z</time>
        <extensions>
          <ns3:TrackPointExtension>
            <ns3:atemp>22.0</ns3:atemp>
          </ns3:TrackPointExtension>
        </extensions>
      </trkpt>
      <trkpt lat="42.6219456084072589874267578125" lon="19.89766658283770084381103515625">
        <ele>1621.5999755859375</ele>
        <time>2026-06-16T11:43:29.000Z</time>
        <extensions>
          <ns3:TrackPointExtension>
            <ns3:atemp>22.0</ns3:atemp>
          </ns3:TrackPointExtension>
        </extensions>
      </trkpt>
      <trkpt lat="42.62196212075650691986083984375" lon="19.89768804050981998443603515625">
        <ele>1621.4000244140625</ele>
        <time>2026-06-16T11:43:30.000Z</time>
        <extensions>
          <ns3:TrackPointExtension>
            <ns3:atemp>22.0</ns3:atemp>
          </ns3:TrackPointExtension>
        </extensions>
      </trkpt>
      <trkpt lat="42.62197771109640598297119140625" lon="19.89771553315222263336181640625">
        <ele>1621.199951171875</ele>
        <time>2026-06-16T11:43:31.000Z</time>
        <extensions>
          <ns3:TrackPointExtension>
            <ns3:atemp>22.0</ns3:atemp>
          </ns3:TrackPointExtension>
        </extensions>
      </trkpt>
      <trkpt lat="42.62199095450341701507568359375" lon="19.8977343924343585968017578125">
        <ele>1621.199951171875</ele>
        <time>2026-06-16T11:43:32.000Z</time>
        <extensions>
          <ns3:TrackPointExtension>
            <ns3:atemp>22.0</ns3:atemp>
          </ns3:TrackPointExtension>
        </extensions>
      </trkpt>
      <trkpt lat="42.6220052875578403472900390625" lon="19.89775274880230426788330078125">
        <ele>1621.199951171875</ele>
        <time>2026-06-16T11:43:33.000Z</time>
        <extensions>
          <ns3:TrackPointExtension>
            <ns3:atemp>22.0</ns3:atemp>
          </ns3:TrackPointExtension>
        </extensions>
      </trkpt>
      <trkpt lat="42.62201844714581966400146484375" lon="19.8977766372263431549072265625">
        <ele>1621.199951171875</ele>
        <time>2026-06-16T11:43:34.000Z</time>
        <extensions>
          <ns3:TrackPointExtension>
            <ns3:atemp>22.0</ns3:atemp>
          </ns3:TrackPointExtension>
        </extensions>
      </trkpt>
      <trkpt lat="42.62202179990708827972412109375" lon="19.89779868163168430328369140625">
        <ele>1621.4000244140625</ele>
        <time>2026-06-16T11:43:35.000Z</time>
        <extensions>
          <ns3:TrackPointExtension>
            <ns3:atemp>22.0</ns3:atemp>
          </ns3:TrackPointExtension>
        </extensions>
      </trkpt>
      <trkpt lat="42.62203537859022617340087890625" lon="19.89781913347542285919189453125">
        <ele>1621.5999755859375</ele>
        <time>2026-06-16T11:43:36.000Z</time>
        <extensions>
          <ns3:TrackPointExtension>
            <ns3:atemp>22.0</ns3:atemp>
          </ns3:TrackPointExtension>
        </extensions>
      </trkpt>
      <trkpt lat="42.6220441795885562896728515625" lon="19.897843189537525177001953125">
        <ele>1622</ele>
        <time>2026-06-16T11:43:37.000Z</time>
        <extensions>
          <ns3:TrackPointExtension>
            <ns3:atemp>22.0</ns3:atemp>
          </ns3:TrackPointExtension>
        </extensions>
      </trkpt>
      <trkpt lat="42.62205968610942363739013671875" lon="19.89785249345004558563232421875">
        <ele>1622.199951171875</ele>
        <time>2026-06-16T11:43:38.000Z</time>
        <extensions>
          <ns3:TrackPointExtension>
            <ns3:atemp>22.0</ns3:atemp>
          </ns3:TrackPointExtension>
        </extensions>
      </trkpt>
      <trkpt lat="42.62208265252411365509033203125" lon="19.89786095917224884033203125">
        <ele>1622.4000244140625</ele>
        <time>2026-06-16T11:43:39.000Z</time>
        <extensions>
          <ns3:TrackPointExtension>
            <ns3:atemp>22.0</ns3:atemp>
          </ns3:TrackPointExtension>
        </extensions>
      </trkpt>
      <trkpt lat="42.6221149228513240814208984375" lon="19.8978812433779239654541015625">
        <ele>1622.5999755859375</ele>
        <time>2026-06-16T11:43:40.000Z</time>
        <extensions>
          <ns3:TrackPointExtension>
            <ns3:atemp>22.0</ns3:atemp>
          </ns3:TrackPointExtension>
        </extensions>
      </trkpt>
      <trkpt lat="42.6221407391130924224853515625" lon="19.897903539240360260009765625">
        <ele>1622.5999755859375</ele>
        <time>2026-06-16T11:43:41.000Z</time>
        <extensions>
          <ns3:TrackPointExtension>
            <ns3:atemp>22.0</ns3:atemp>
          </ns3:TrackPointExtension>
        </extensions>
      </trkpt>
      <trkpt lat="42.622160017490386962890625" lon="19.89792977459728717803955078125">
        <ele>1622.4000244140625</ele>
        <time>2026-06-16T11:43:42.000Z</time>
        <extensions>
          <ns3:TrackPointExtension>
            <ns3:atemp>22.0</ns3:atemp>
          </ns3:TrackPointExtension>
        </extensions>
      </trkpt>
      <trkpt lat="42.62218709103763103485107421875" lon="19.897965230047702789306640625">
        <ele>1622.4000244140625</ele>
        <time>2026-06-16T11:43:43.000Z</time>
        <extensions>
          <ns3:TrackPointExtension>
            <ns3:atemp>22.0</ns3:atemp>
          </ns3:TrackPointExtension>
        </extensions>
      </trkpt>
      <trkpt lat="42.6222096383571624755859375" lon="19.89798811264336109161376953125">
        <ele>1622.199951171875</ele>
        <time>2026-06-16T11:43:44.000Z</time>
        <extensions>
          <ns3:TrackPointExtension>
            <ns3:atemp>22.0</ns3:atemp>
          </ns3:TrackPointExtension>
        </extensions>
      </trkpt>
      <trkpt lat="42.6222326047718524932861328125" lon="19.89801057614386081695556640625">
        <ele>1622.199951171875</ele>
        <time>2026-06-16T11:43:45.000Z</time>
        <extensions>
          <ns3:TrackPointExtension>
            <ns3:atemp>22.0</ns3:atemp>
          </ns3:TrackPointExtension>
        </extensions>
      </trkpt>
      <trkpt lat="42.6222476921975612640380859375" lon="19.89802331663668155670166015625">
        <ele>1622.199951171875</ele>
        <time>2026-06-16T11:43:46.000Z</time>
        <extensions>
          <ns3:TrackPointExtension>
            <ns3:atemp>22.0</ns3:atemp>
          </ns3:TrackPointExtension>
        </extensions>
      </trkpt>
      <trkpt lat="42.62226470746099948883056640625" lon="19.89804745651781558990478515625">
        <ele>1622.4000244140625</ele>
        <time>2026-06-16T11:43:47.000Z</time>
        <extensions>
          <ns3:TrackPointExtension>
            <ns3:atemp>22.0</ns3:atemp>
          </ns3:TrackPointExtension>
        </extensions>
      </trkpt>
      <trkpt lat="42.62228080071508884429931640625" lon="19.8980612866580486297607421875">
        <ele>1622.4000244140625</ele>
        <time>2026-06-16T11:43:48.000Z</time>
        <extensions>
          <ns3:TrackPointExtension>
            <ns3:atemp>22.0</ns3:atemp>
          </ns3:TrackPointExtension>
        </extensions>
      </trkpt>
      <trkpt lat="42.62229471467435359954833984375" lon="19.8980803973972797393798828125">
        <ele>1622.4000244140625</ele>
        <time>2026-06-16T11:43:49.000Z</time>
        <extensions>
          <ns3:TrackPointExtension>
            <ns3:atemp>22.0</ns3:atemp>
          </ns3:TrackPointExtension>
        </extensions>
      </trkpt>
      <trkpt lat="42.62231281958520412445068359375" lon="19.898091964423656463623046875">
        <ele>1622.4000244140625</ele>
        <time>2026-06-16T11:43:50.000Z</time>
        <extensions>
          <ns3:TrackPointExtension>
            <ns3:atemp>22.0</ns3:atemp>
          </ns3:TrackPointExtension>
        </extensions>
      </trkpt>
      <trkpt lat="42.6223315112292766571044921875" lon="19.898104369640350341796875">
        <ele>1622.199951171875</ele>
        <time>2026-06-16T11:43:51.000Z</time>
        <extensions>
          <ns3:TrackPointExtension>
            <ns3:atemp>22.0</ns3:atemp>
          </ns3:TrackPointExtension>
        </extensions>
      </trkpt>
      <trkpt lat="42.62235305272042751312255859375" lon="19.89812373183667659759521484375">
        <ele>1622.199951171875</ele>
        <time>2026-06-16T11:43:52.000Z</time>
        <extensions>
          <ns3:TrackPointExtension>
            <ns3:atemp>22.0</ns3:atemp>
          </ns3:TrackPointExtension>
        </extensions>
      </trkpt>
      <trkpt lat="42.6223693974316120147705078125" lon="19.89813261665403842926025390625">
        <ele>1622.199951171875</ele>
        <time>2026-06-16T11:43:53.000Z</time>
        <extensions>
          <ns3:TrackPointExtension>
            <ns3:atemp>22.0</ns3:atemp>
          </ns3:TrackPointExtension>
        </extensions>
      </trkpt>
      <trkpt lat="42.6223901845514774322509765625" lon="19.89814686588943004608154296875">
        <ele>1622.199951171875</ele>
        <time>2026-06-16T11:43:54.000Z</time>
        <extensions>
          <ns3:TrackPointExtension>
            <ns3:atemp>22.0</ns3:atemp>
          </ns3:TrackPointExtension>
        </extensions>
      </trkpt>
      <trkpt lat="42.622412145137786865234375" lon="19.89816111512482166290283203125">
        <ele>1622.199951171875</ele>
        <time>2026-06-16T11:43:55.000Z</time>
        <extensions>
          <ns3:TrackPointExtension>
            <ns3:atemp>22.0</ns3:atemp>
          </ns3:TrackPointExtension>
        </extensions>
      </trkpt>
      <trkpt lat="42.62242765165865421295166015625" lon="19.8981727659702301025390625">
        <ele>1622.199951171875</ele>
        <time>2026-06-16T11:43:56.000Z</time>
        <extensions>
          <ns3:TrackPointExtension>
            <ns3:atemp>22.0</ns3:atemp>
          </ns3:TrackPointExtension>
        </extensions>
      </trkpt>
      <trkpt lat="42.6224444992840290069580078125" lon="19.8981850035488605499267578125">
        <ele>1622.199951171875</ele>
        <time>2026-06-16T11:43:57.000Z</time>
        <extensions>
          <ns3:TrackPointExtension>
            <ns3:atemp>22.0</ns3:atemp>
          </ns3:TrackPointExtension>
        </extensions>
      </trkpt>
      <trkpt lat="42.62245983816683292388916015625" lon="19.89819564856588840484619140625">
        <ele>1622.4000244140625</ele>
        <time>2026-06-16T11:43:58.000Z</time>
        <extensions>
          <ns3:TrackPointExtension>
            <ns3:atemp>22.0</ns3:atemp>
          </ns3:TrackPointExtension>
        </extensions>
      </trkpt>
      <trkpt lat="42.62247626669704914093017578125" lon="19.89821006543934345245361328125">
        <ele>1622.4000244140625</ele>
        <time>2026-06-16T11:43:59.000Z</time>
        <extensions>
          <ns3:TrackPointExtension>
            <ns3:atemp>22.0</ns3:atemp>
          </ns3:TrackPointExtension>
        </extensions>
      </trkpt>
      <trkpt lat="42.62249621562659740447998046875" lon="19.89821895025670528411865234375">
        <ele>1622.5999755859375</ele>
        <time>2026-06-16T11:44:00.000Z</time>
        <extensions>
          <ns3:TrackPointExtension>
            <ns3:atemp>22.0</ns3:atemp>
          </ns3:TrackPointExtension>
        </extensions>
      </trkpt>
      <trkpt lat="42.6225196011364459991455078125" lon="19.89823118783533573150634765625">
        <ele>1622.5999755859375</ele>
        <time>2026-06-16T11:44:01.000Z</time>
        <extensions>
          <ns3:TrackPointExtension>
            <ns3:atemp>22.0</ns3:atemp>
          </ns3:TrackPointExtension>
        </extensions>
      </trkpt>
      <trkpt lat="42.622537203133106231689453125" lon="19.89824510179460048675537109375">
        <ele>1622.800048828125</ele>
        <time>2026-06-16T11:44:02.000Z</time>
        <extensions>
          <ns3:TrackPointExtension>
            <ns3:atemp>22.0</ns3:atemp>
          </ns3:TrackPointExtension>
        </extensions>
      </trkpt>
      <trkpt lat="42.6225514523684978485107421875" lon="19.89825448952615261077880859375">
        <ele>1622.800048828125</ele>
        <time>2026-06-16T11:44:03.000Z</time>
        <extensions>
          <ns3:TrackPointExtension>
            <ns3:atemp>22.0</ns3:atemp>
          </ns3:TrackPointExtension>
        </extensions>
      </trkpt>
      <trkpt lat="42.622574083507061004638671875" lon="19.898268319666385650634765625">
        <ele>1623</ele>
        <time>2026-06-16T11:44:04.000Z</time>
        <extensions>
          <ns3:TrackPointExtension>
            <ns3:atemp>22.0</ns3:atemp>
          </ns3:TrackPointExtension>
        </extensions>
      </trkpt>
      <trkpt lat="42.62258891947567462921142578125" lon="19.89828080870211124420166015625">
        <ele>1623</ele>
        <time>2026-06-16T11:44:05.000Z</time>
        <extensions>
          <ns3:TrackPointExtension>
            <ns3:atemp>22.0</ns3:atemp>
          </ns3:TrackPointExtension>
        </extensions>
      </trkpt>
      <trkpt lat="42.62261129915714263916015625" lon="19.898292459547519683837890625">
        <ele>1623.199951171875</ele>
        <time>2026-06-16T11:44:06.000Z</time>
        <extensions>
          <ns3:TrackPointExtension>
            <ns3:atemp>22.0</ns3:atemp>
          </ns3:TrackPointExtension>
        </extensions>
      </trkpt>
      <trkpt lat="42.62263485230505466461181640625" lon="19.898308552801609039306640625">
        <ele>1623.199951171875</ele>
        <time>2026-06-16T11:44:07.000Z</time>
        <extensions>
          <ns3:TrackPointExtension>
            <ns3:atemp>22.0</ns3:atemp>
          </ns3:TrackPointExtension>
        </extensions>
      </trkpt>
      <trkpt lat="42.6226567290723323822021484375" lon="19.89832632243633270263671875">
        <ele>1623.199951171875</ele>
        <time>2026-06-16T11:44:08.000Z</time>
        <extensions>
          <ns3:TrackPointExtension>
            <ns3:atemp>22.0</ns3:atemp>
          </ns3:TrackPointExtension>
        </extensions>
      </trkpt>
      <trkpt lat="42.62267491780221462249755859375" lon="19.89834954030811786651611328125">
        <ele>1623.199951171875</ele>
        <time>2026-06-16T11:44:09.000Z</time>
        <extensions>
          <ns3:TrackPointExtension>
            <ns3:atemp>22.0</ns3:atemp>
          </ns3:TrackPointExtension>
        </extensions>
      </trkpt>
      <trkpt lat="42.62269134633243083953857421875" lon="19.89837183617055416107177734375">
        <ele>1623.199951171875</ele>
        <time>2026-06-16T11:44:10.000Z</time>
        <extensions>
          <ns3:TrackPointExtension>
            <ns3:atemp>22.0</ns3:atemp>
          </ns3:TrackPointExtension>
        </extensions>
      </trkpt>
      <trkpt lat="42.62270660139620304107666015625" lon="19.8983861692249774932861328125">
        <ele>1623.199951171875</ele>
        <time>2026-06-16T11:44:11.000Z</time>
        <extensions>
          <ns3:TrackPointExtension>
            <ns3:atemp>22.0</ns3:atemp>
          </ns3:TrackPointExtension>
        </extensions>
      </trkpt>
      <trkpt lat="42.622726969420909881591796875" lon="19.8984049446880817413330078125">
        <ele>1623.199951171875</ele>
        <time>2026-06-16T11:44:12.000Z</time>
        <extensions>
          <ns3:TrackPointExtension>
            <ns3:atemp>22.0</ns3:atemp>
          </ns3:TrackPointExtension>
        </extensions>
      </trkpt>
      <trkpt lat="42.6227474212646484375" lon="19.89843352697789669036865234375">
        <ele>1623.199951171875</ele>
        <time>2026-06-16T11:44:13.000Z</time>
        <extensions>
          <ns3:TrackPointExtension>
            <ns3:atemp>22.0</ns3:atemp>
          </ns3:TrackPointExtension>
        </extensions>
      </trkpt>
      <trkpt lat="42.62276125140488147735595703125" lon="19.89846135489642620086669921875">
        <ele>1623.199951171875</ele>
        <time>2026-06-16T11:44:14.000Z</time>
        <extensions>
          <ns3:TrackPointExtension>
            <ns3:atemp>22.0</ns3:atemp>
          </ns3:TrackPointExtension>
        </extensions>
      </trkpt>
      <trkpt lat="42.62276980094611644744873046875" lon="19.89848096854984760284423828125">
        <ele>1623.199951171875</ele>
        <time>2026-06-16T11:44:15.000Z</time>
        <extensions>
          <ns3:TrackPointExtension>
            <ns3:atemp>22.0</ns3:atemp>
          </ns3:TrackPointExtension>
        </extensions>
      </trkpt>
      <trkpt lat="42.62278237380087375640869140625" lon="19.89849865436553955078125">
        <ele>1623.4000244140625</ele>
        <time>2026-06-16T11:44:16.000Z</time>
        <extensions>
          <ns3:TrackPointExtension>
            <ns3:atemp>22.0</ns3:atemp>
          </ns3:TrackPointExtension>
        </extensions>
      </trkpt>
      <trkpt lat="42.622792012989521026611328125" lon="19.89851675927639007568359375">
        <ele>1623.4000244140625</ele>
        <time>2026-06-16T11:44:17.000Z</time>
        <extensions>
          <ns3:TrackPointExtension>
            <ns3:atemp>22.0</ns3:atemp>
          </ns3:TrackPointExtension>
        </extensions>
      </trkpt>
      <trkpt lat="42.62280114926397800445556640625" lon="19.89853285253047943115234375">
        <ele>1623.4000244140625</ele>
        <time>2026-06-16T11:44:18.000Z</time>
        <extensions>
          <ns3:TrackPointExtension>
            <ns3:atemp>22.0</ns3:atemp>
          </ns3:TrackPointExtension>
        </extensions>
      </trkpt>
      <trkpt lat="42.6228156499564647674560546875" lon="19.898547269403934478759765625">
        <ele>1623.5999755859375</ele>
        <time>2026-06-16T11:44:19.000Z</time>
        <extensions>
          <ns3:TrackPointExtension>
            <ns3:atemp>22.0</ns3:atemp>
          </ns3:TrackPointExtension>
        </extensions>
      </trkpt>
      <trkpt lat="42.62282847426831722259521484375" lon="19.8985598422586917877197265625">
        <ele>1623.5999755859375</ele>
        <time>2026-06-16T11:44:20.000Z</time>
        <extensions>
          <ns3:TrackPointExtension>
            <ns3:atemp>22.0</ns3:atemp>
          </ns3:TrackPointExtension>
        </extensions>
      </trkpt>
      <trkpt lat="42.62283970601856708526611328125" lon="19.8985719121992588043212890625">
        <ele>1623.5999755859375</ele>
        <time>2026-06-16T11:44:21.000Z</time>
        <extensions>
          <ns3:TrackPointExtension>
            <ns3:atemp>22.0</ns3:atemp>
          </ns3:TrackPointExtension>
        </extensions>
      </trkpt>
      <trkpt lat="42.62284741736948490142822265625" lon="19.89859110675752162933349609375">
        <ele>1623.5999755859375</ele>
        <time>2026-06-16T11:44:22.000Z</time>
        <extensions>
          <ns3:TrackPointExtension>
            <ns3:atemp>22.0</ns3:atemp>
          </ns3:TrackPointExtension>
        </extensions>
      </trkpt>
      <trkpt lat="42.62285579927265644073486328125" lon="19.89861038513481616973876953125">
        <ele>1623.4000244140625</ele>
        <time>2026-06-16T11:44:23.000Z</time>
        <extensions>
          <ns3:TrackPointExtension>
            <ns3:atemp>22.0</ns3:atemp>
          </ns3:TrackPointExtension>
        </extensions>
      </trkpt>
      <trkpt lat="42.62286703102290630340576171875" lon="19.8986299149692058563232421875">
        <ele>1623.4000244140625</ele>
        <time>2026-06-16T11:44:24.000Z</time>
        <extensions>
          <ns3:TrackPointExtension>
            <ns3:atemp>22.0</ns3:atemp>
          </ns3:TrackPointExtension>
        </extensions>
      </trkpt>
      <trkpt lat="42.62288060970604419708251953125" lon="19.89864340983331203460693359375">
        <ele>1623.199951171875</ele>
        <time>2026-06-16T11:44:25.000Z</time>
        <extensions>
          <ns3:TrackPointExtension>
            <ns3:atemp>22.0</ns3:atemp>
          </ns3:TrackPointExtension>
        </extensions>
      </trkpt>
      <trkpt lat="42.62288530357182025909423828125" lon="19.8986590839922428131103515625">
        <ele>1623</ele>
        <time>2026-06-16T11:44:26.000Z</time>
        <extensions>
          <ns3:TrackPointExtension>
            <ns3:atemp>22.0</ns3:atemp>
          </ns3:TrackPointExtension>
        </extensions>
      </trkpt>
      <trkpt lat="42.6228863932192325592041015625" lon="19.89867224358022212982177734375">
        <ele>1623</ele>
        <time>2026-06-16T11:44:27.000Z</time>
        <extensions>
          <ns3:TrackPointExtension>
            <ns3:atemp>22.0</ns3:atemp>
          </ns3:TrackPointExtension>
        </extensions>
      </trkpt>
      <trkpt lat="42.6228894107043743133544921875" lon="19.89867526106536388397216796875">
        <ele>1622.800048828125</ele>
        <time>2026-06-16T11:44:28.000Z</time>
        <extensions>
          <ns3:TrackPointExtension>
            <ns3:atemp>22.0</ns3:atemp>
          </ns3:TrackPointExtension>
        </extensions>
      </trkpt>
      <trkpt lat="42.62289427220821380615234375" lon="19.89867408759891986846923828125">
        <ele>1622.800048828125</ele>
        <time>2026-06-16T11:44:29.000Z</time>
        <extensions>
          <ns3:TrackPointExtension>
            <ns3:atemp>22.0</ns3:atemp>
          </ns3:TrackPointExtension>
        </extensions>
      </trkpt>
      <trkpt lat="42.62289427220821380615234375" lon="19.89867408759891986846923828125">
        <ele>1622.800048828125</ele>
        <time>2026-06-16T11:44:30.000Z</time>
        <extensions>
          <ns3:TrackPointExtension>
            <ns3:atemp>22.0</ns3:atemp>
          </ns3:TrackPointExtension>
        </extensions>
      </trkpt>
      <trkpt lat="42.62289427220821380615234375" lon="19.89867408759891986846923828125">
        <ele>1622.800048828125</ele>
        <time>2026-06-16T11:44:31.000Z</time>
        <extensions>
          <ns3:TrackPointExtension>
            <ns3:atemp>22.0</ns3:atemp>
          </ns3:TrackPointExtension>
        </extensions>
      </trkpt>
      <trkpt lat="42.62289435602724552154541015625" lon="19.8986741714179515838623046875">
        <ele>1622.800048828125</ele>
        <time>2026-06-16T11:44:32.000Z</time>
        <extensions>
          <ns3:TrackPointExtension>
            <ns3:atemp>22.0</ns3:atemp>
          </ns3:TrackPointExtension>
        </extensions>
      </trkpt>
      <trkpt lat="42.6229018159210681915283203125" lon="19.8986815474927425384521484375">
        <ele>1622.5999755859375</ele>
        <time>2026-06-16T11:44:33.000Z</time>
        <extensions>
          <ns3:TrackPointExtension>
            <ns3:atemp>22.0</ns3:atemp>
          </ns3:TrackPointExtension>
        </extensions>
      </trkpt>
      <trkpt lat="42.6229038275778293609619140625" lon="19.89869738928973674774169921875">
        <ele>1622.5999755859375</ele>
        <time>2026-06-16T11:44:34.000Z</time>
        <extensions>
          <ns3:TrackPointExtension>
            <ns3:atemp>22.0</ns3:atemp>
          </ns3:TrackPointExtension>
        </extensions>
      </trkpt>
      <trkpt lat="42.6229068450629711151123046875" lon="19.89870275370776653289794921875">
        <ele>1622.5999755859375</ele>
        <time>2026-06-16T11:44:35.000Z</time>
        <extensions>
          <ns3:TrackPointExtension>
            <ns3:atemp>22.0</ns3:atemp>
          </ns3:TrackPointExtension>
        </extensions>
      </trkpt>
      <trkpt lat="42.62290910817682743072509765625" lon="19.898716919124126434326171875">
        <ele>1622.4000244140625</ele>
        <time>2026-06-16T11:44:36.000Z</time>
        <extensions>
          <ns3:TrackPointExtension>
            <ns3:atemp>22.0</ns3:atemp>
          </ns3:TrackPointExtension>
        </extensions>
      </trkpt>
      <trkpt lat="42.62290894053876399993896484375" lon="19.89871700294315814971923828125">
        <ele>1622.4000244140625</ele>
        <time>2026-06-16T11:44:37.000Z</time>
        <extensions>
          <ns3:TrackPointExtension>
            <ns3:atemp>22.0</ns3:atemp>
          </ns3:TrackPointExtension>
        </extensions>
      </trkpt>
      <trkpt lat="42.62291128747165203094482421875" lon="19.89872991107404232025146484375">
        <ele>1622.5999755859375</ele>
        <time>2026-06-16T11:44:38.000Z</time>
        <extensions>
          <ns3:TrackPointExtension>
            <ns3:atemp>22.0</ns3:atemp>
          </ns3:TrackPointExtension>
        </extensions>
      </trkpt>
      <trkpt lat="42.62291296385228633880615234375" lon="19.8987274803221225738525390625">
        <ele>1622.5999755859375</ele>
        <time>2026-06-16T11:44:39.000Z</time>
        <extensions>
          <ns3:TrackPointExtension>
            <ns3:atemp>22.0</ns3:atemp>
          </ns3:TrackPointExtension>
        </extensions>
      </trkpt>
      <trkpt lat="42.62291296385228633880615234375" lon="19.8987274803221225738525390625">
        <ele>1622.5999755859375</ele>
        <time>2026-06-16T11:44:40.000Z</time>
        <extensions>
          <ns3:TrackPointExtension>
            <ns3:atemp>22.0</ns3:atemp>
          </ns3:TrackPointExtension>
        </extensions>
      </trkpt>
      <trkpt lat="42.62291296385228633880615234375" lon="19.8987274803221225738525390625">
        <ele>1622.5999755859375</ele>
        <time>2026-06-16T11:44:41.000Z</time>
        <extensions>
          <ns3:TrackPointExtension>
            <ns3:atemp>22.0</ns3:atemp>
          </ns3:TrackPointExtension>
        </extensions>
      </trkpt>
      <trkpt lat="42.62291296385228633880615234375" lon="19.8987274803221225738525390625">
        <ele>1622.5999755859375</ele>
        <time>2026-06-16T11:44:42.000Z</time>
        <extensions>
          <ns3:TrackPointExtension>
            <ns3:atemp>22.0</ns3:atemp>
          </ns3:TrackPointExtension>
        </extensions>
      </trkpt>
      <trkpt lat="42.62291296385228633880615234375" lon="19.8987274803221225738525390625">
        <ele>1622.800048828125</ele>
        <time>2026-06-16T11:44:43.000Z</time>
        <extensions>
          <ns3:TrackPointExtension>
            <ns3:atemp>22.0</ns3:atemp>
          </ns3:TrackPointExtension>
        </extensions>
      </trkpt>
      <trkpt lat="42.62291296385228633880615234375" lon="19.8987274803221225738525390625">
        <ele>1622.800048828125</ele>
        <time>2026-06-16T11:44:44.000Z</time>
        <extensions>
          <ns3:TrackPointExtension>
            <ns3:atemp>22.0</ns3:atemp>
          </ns3:TrackPointExtension>
        </extensions>
      </trkpt>
      <trkpt lat="42.62291296385228633880615234375" lon="19.8987274803221225738525390625">
        <ele>1622.800048828125</ele>
        <time>2026-06-16T11:44:45.000Z</time>
        <extensions>
          <ns3:TrackPointExtension>
            <ns3:atemp>22.0</ns3:atemp>
          </ns3:TrackPointExtension>
        </extensions>
      </trkpt>
      <trkpt lat="42.62291296385228633880615234375" lon="19.8987274803221225738525390625">
        <ele>1622.800048828125</ele>
        <time>2026-06-16T11:44:46.000Z</time>
        <extensions>
          <ns3:TrackPointExtension>
            <ns3:atemp>22.0</ns3:atemp>
          </ns3:TrackPointExtension>
        </extensions>
      </trkpt>
      <trkpt lat="42.62291296385228633880615234375" lon="19.8987274803221225738525390625">
        <ele>1622.5999755859375</ele>
        <time>2026-06-16T11:44:47.000Z</time>
        <extensions>
          <ns3:TrackPointExtension>
            <ns3:atemp>22.0</ns3:atemp>
          </ns3:TrackPointExtension>
        </extensions>
      </trkpt>
      <trkpt lat="42.62291296385228633880615234375" lon="19.8987274803221225738525390625">
        <ele>1622.5999755859375</ele>
        <time>2026-06-16T11:44:48.000Z</time>
        <extensions>
          <ns3:TrackPointExtension>
            <ns3:atemp>22.0</ns3:atemp>
          </ns3:TrackPointExtension>
        </extensions>
      </trkpt>
      <trkpt lat="42.62291296385228633880615234375" lon="19.8987274803221225738525390625">
        <ele>1622.5999755859375</ele>
        <time>2026-06-16T11:44:49.000Z</time>
        <extensions>
          <ns3:TrackPointExtension>
            <ns3:atemp>22.0</ns3:atemp>
          </ns3:TrackPointExtension>
        </extensions>
      </trkpt>
      <trkpt lat="42.62291296385228633880615234375" lon="19.8987274803221225738525390625">
        <ele>1622.5999755859375</ele>
        <time>2026-06-16T11:44:50.000Z</time>
        <extensions>
          <ns3:TrackPointExtension>
            <ns3:atemp>22.0</ns3:atemp>
          </ns3:TrackPointExtension>
        </extensions>
      </trkpt>
      <trkpt lat="42.62291296385228633880615234375" lon="19.8987274803221225738525390625">
        <ele>1622.5999755859375</ele>
        <time>2026-06-16T11:44:51.000Z</time>
        <extensions>
          <ns3:TrackPointExtension>
            <ns3:atemp>22.0</ns3:atemp>
          </ns3:TrackPointExtension>
        </extensions>
      </trkpt>
      <trkpt lat="42.62291296385228633880615234375" lon="19.8987274803221225738525390625">
        <ele>1622.5999755859375</ele>
        <time>2026-06-16T11:44:52.000Z</time>
        <extensions>
          <ns3:TrackPointExtension>
            <ns3:atemp>22.0</ns3:atemp>
          </ns3:TrackPointExtension>
        </extensions>
      </trkpt>
      <trkpt lat="42.62291296385228633880615234375" lon="19.8987274803221225738525390625">
        <ele>1622.5999755859375</ele>
        <time>2026-06-16T11:44:53.000Z</time>
        <extensions>
          <ns3:TrackPointExtension>
            <ns3:atemp>22.0</ns3:atemp>
          </ns3:TrackPointExtension>
        </extensions>
      </trkpt>
      <trkpt lat="42.62291296385228633880615234375" lon="19.8987274803221225738525390625">
        <ele>1622.5999755859375</ele>
        <time>2026-06-16T11:44:54.000Z</time>
        <extensions>
          <ns3:TrackPointExtension>
            <ns3:atemp>22.0</ns3:atemp>
          </ns3:TrackPointExtension>
        </extensions>
      </trkpt>
      <trkpt lat="42.62291296385228633880615234375" lon="19.8987274803221225738525390625">
        <ele>1622.5999755859375</ele>
        <time>2026-06-16T11:44:55.000Z</time>
        <extensions>
          <ns3:TrackPointExtension>
            <ns3:atemp>22.0</ns3:atemp>
          </ns3:TrackPointExtension>
        </extensions>
      </trkpt>
      <trkpt lat="42.62291296385228633880615234375" lon="19.8987274803221225738525390625">
        <ele>1622.5999755859375</ele>
        <time>2026-06-16T11:44:56.000Z</time>
        <extensions>
          <ns3:TrackPointExtension>
            <ns3:atemp>22.0</ns3:atemp>
          </ns3:TrackPointExtension>
        </extensions>
      </trkpt>
      <trkpt lat="42.622922100126743316650390625" lon="19.89873468875885009765625">
        <ele>1622.5999755859375</ele>
        <time>2026-06-16T11:44:57.000Z</time>
        <extensions>
          <ns3:TrackPointExtension>
            <ns3:atemp>22.0</ns3:atemp>
          </ns3:TrackPointExtension>
        </extensions>
      </trkpt>
      <trkpt lat="42.62293710373342037200927734375" lon="19.89875790663063526153564453125">
        <ele>1622.4000244140625</ele>
        <time>2026-06-16T11:44:58.000Z</time>
        <extensions>
          <ns3:TrackPointExtension>
            <ns3:atemp>22.0</ns3:atemp>
          </ns3:TrackPointExtension>
        </extensions>
      </trkpt>
      <trkpt lat="42.62294213287532329559326171875" lon="19.89877483807504177093505859375">
        <ele>1622.4000244140625</ele>
        <time>2026-06-16T11:44:59.000Z</time>
        <extensions>
          <ns3:TrackPointExtension>
            <ns3:atemp>22.0</ns3:atemp>
          </ns3:TrackPointExtension>
        </extensions>
      </trkpt>
      <trkpt lat="42.62294900603592395782470703125" lon="19.8987962119281291961669921875">
        <ele>1622.4000244140625</ele>
        <time>2026-06-16T11:45:00.000Z</time>
        <extensions>
          <ns3:TrackPointExtension>
            <ns3:atemp>22.0</ns3:atemp>
          </ns3:TrackPointExtension>
        </extensions>
      </trkpt>
      <trkpt lat="42.62295286171138286590576171875" lon="19.8988166637718677520751953125">
        <ele>1622.4000244140625</ele>
        <time>2026-06-16T11:45:01.000Z</time>
        <extensions>
          <ns3:TrackPointExtension>
            <ns3:atemp>22.0</ns3:atemp>
          </ns3:TrackPointExtension>
        </extensions>
      </trkpt>
      <trkpt lat="42.622952945530414581298828125" lon="19.898834936320781707763671875">
        <ele>1622.199951171875</ele>
        <time>2026-06-16T11:45:02.000Z</time>
        <extensions>
          <ns3:TrackPointExtension>
            <ns3:atemp>22.0</ns3:atemp>
          </ns3:TrackPointExtension>
        </extensions>
      </trkpt>
      <trkpt lat="42.6229511015117168426513671875" lon="19.89885346032679080963134765625">
        <ele>1622.199951171875</ele>
        <time>2026-06-16T11:45:03.000Z</time>
        <extensions>
          <ns3:TrackPointExtension>
            <ns3:atemp>22.0</ns3:atemp>
          </ns3:TrackPointExtension>
        </extensions>
      </trkpt>
      <trkpt lat="42.62295051477849483489990234375" lon="19.89888128824532032012939453125">
        <ele>1622.199951171875</ele>
        <time>2026-06-16T11:45:04.000Z</time>
        <extensions>
          <ns3:TrackPointExtension>
            <ns3:atemp>22.0</ns3:atemp>
          </ns3:TrackPointExtension>
        </extensions>
      </trkpt>
      <trkpt lat="42.6229507662355899810791015625" lon="19.89891531877219676971435546875">
        <ele>1622.199951171875</ele>
        <time>2026-06-16T11:45:05.000Z</time>
        <extensions>
          <ns3:TrackPointExtension>
            <ns3:atemp>22.0</ns3:atemp>
          </ns3:TrackPointExtension>
        </extensions>
      </trkpt>
      <trkpt lat="42.6229494251310825347900390625" lon="19.89894968457520008087158203125">
        <ele>1622</ele>
        <time>2026-06-16T11:45:06.000Z</time>
        <extensions>
          <ns3:TrackPointExtension>
            <ns3:atemp>22.0</ns3:atemp>
          </ns3:TrackPointExtension>
        </extensions>
      </trkpt>
      <trkpt lat="42.6229524426162242889404296875" lon="19.89897617138922214508056640625">
        <ele>1622</ele>
        <time>2026-06-16T11:45:07.000Z</time>
        <extensions>
          <ns3:TrackPointExtension>
            <ns3:atemp>22.0</ns3:atemp>
          </ns3:TrackPointExtension>
        </extensions>
      </trkpt>
      <trkpt lat="42.62295571155846118927001953125" lon="19.89899813197553157806396484375">
        <ele>1621.800048828125</ele>
        <time>2026-06-16T11:45:08.000Z</time>
        <extensions>
          <ns3:TrackPointExtension>
            <ns3:atemp>22.0</ns3:atemp>
          </ns3:TrackPointExtension>
        </extensions>
      </trkpt>
      <trkpt lat="42.622954286634922027587890625" lon="19.8990176618099212646484375">
        <ele>1621.800048828125</ele>
        <time>2026-06-16T11:45:09.000Z</time>
        <extensions>
          <ns3:TrackPointExtension>
            <ns3:atemp>22.0</ns3:atemp>
          </ns3:TrackPointExtension>
        </extensions>
      </trkpt>
      <trkpt lat="42.62295403517782688140869140625" lon="19.89904071204364299774169921875">
        <ele>1621.800048828125</ele>
        <time>2026-06-16T11:45:10.000Z</time>
        <extensions>
          <ns3:TrackPointExtension>
            <ns3:atemp>22.0</ns3:atemp>
          </ns3:TrackPointExtension>
        </extensions>
      </trkpt>
      <trkpt lat="42.622954286634922027587890625" lon="19.89904087968170642852783203125">
        <ele>1622</ele>
        <time>2026-06-16T11:45:11.000Z</time>
        <extensions>
          <ns3:TrackPointExtension>
            <ns3:atemp>22.0</ns3:atemp>
          </ns3:TrackPointExtension>
        </extensions>
      </trkpt>
      <trkpt lat="42.6229611597955226898193359375" lon="19.89906284026801586151123046875">
        <ele>1621.800048828125</ele>
        <time>2026-06-16T11:45:12.000Z</time>
        <extensions>
          <ns3:TrackPointExtension>
            <ns3:atemp>22.0</ns3:atemp>
          </ns3:TrackPointExtension>
        </extensions>
      </trkpt>
      <trkpt lat="42.6229598186910152435302734375" lon="19.89908060990273952484130859375">
        <ele>1621.800048828125</ele>
        <time>2026-06-16T11:45:13.000Z</time>
        <extensions>
          <ns3:TrackPointExtension>
            <ns3:atemp>22.0</ns3:atemp>
          </ns3:TrackPointExtension>
        </extensions>
      </trkpt>
      <trkpt lat="42.62296291999518871307373046875" lon="19.89910458214581012725830078125">
        <ele>1621.800048828125</ele>
        <time>2026-06-16T11:45:14.000Z</time>
        <extensions>
          <ns3:TrackPointExtension>
            <ns3:atemp>22.0</ns3:atemp>
          </ns3:TrackPointExtension>
        </extensions>
      </trkpt>
      <trkpt lat="42.62296744622290134429931640625" lon="19.89913324825465679168701171875">
        <ele>1621.5999755859375</ele>
        <time>2026-06-16T11:45:15.000Z</time>
        <extensions>
          <ns3:TrackPointExtension>
            <ns3:atemp>22.0</ns3:atemp>
          </ns3:TrackPointExtension>
        </extensions>
      </trkpt>
      <trkpt lat="42.62296426109969615936279296875" lon="19.89915185607969760894775390625">
        <ele>1621.5999755859375</ele>
        <time>2026-06-16T11:45:16.000Z</time>
        <extensions>
          <ns3:TrackPointExtension>
            <ns3:atemp>22.0</ns3:atemp>
          </ns3:TrackPointExtension>
        </extensions>
      </trkpt>
      <trkpt lat="42.62296493165194988250732421875" lon="19.89917197264730930328369140625">
        <ele>1621.800048828125</ele>
        <time>2026-06-16T11:45:17.000Z</time>
        <extensions>
          <ns3:TrackPointExtension>
            <ns3:atemp>22.0</ns3:atemp>
          </ns3:TrackPointExtension>
        </extensions>
      </trkpt>
      <trkpt lat="42.622962333261966705322265625" lon="19.89919628016650676727294921875">
        <ele>1621.800048828125</ele>
        <time>2026-06-16T11:45:18.000Z</time>
        <extensions>
          <ns3:TrackPointExtension>
            <ns3:atemp>22.0</ns3:atemp>
          </ns3:TrackPointExtension>
        </extensions>
      </trkpt>
      <trkpt lat="42.622960992157459259033203125" lon="19.89922494627535343170166015625">
        <ele>1621.800048828125</ele>
        <time>2026-06-16T11:45:19.000Z</time>
        <extensions>
          <ns3:TrackPointExtension>
            <ns3:atemp>22.0</ns3:atemp>
          </ns3:TrackPointExtension>
        </extensions>
      </trkpt>
      <trkpt lat="42.62296275235712528228759765625" lon="19.89924690686166286468505859375">
        <ele>1622</ele>
        <time>2026-06-16T11:45:20.000Z</time>
        <extensions>
          <ns3:TrackPointExtension>
            <ns3:atemp>22.0</ns3:atemp>
          </ns3:TrackPointExtension>
        </extensions>
      </trkpt>
      <trkpt lat="42.6229658536612987518310546875" lon="19.89927322603762149810791015625">
        <ele>1622</ele>
        <time>2026-06-16T11:45:21.000Z</time>
        <extensions>
          <ns3:TrackPointExtension>
            <ns3:atemp>22.0</ns3:atemp>
          </ns3:TrackPointExtension>
        </extensions>
      </trkpt>
      <trkpt lat="42.6229685358703136444091796875" lon="19.89930088631808757781982421875">
        <ele>1622</ele>
        <time>2026-06-16T11:45:22.000Z</time>
        <extensions>
          <ns3:TrackPointExtension>
            <ns3:atemp>22.0</ns3:atemp>
          </ns3:TrackPointExtension>
        </extensions>
      </trkpt>
      <trkpt lat="42.62297851033508777618408203125" lon="19.89933609031140804290771484375">
        <ele>1622.199951171875</ele>
        <time>2026-06-16T11:45:23.000Z</time>
        <extensions>
          <ns3:TrackPointExtension>
            <ns3:atemp>22.0</ns3:atemp>
          </ns3:TrackPointExtension>
        </extensions>
      </trkpt>
      <trkpt lat="42.62298085726797580718994140625" lon="19.89936157129704952239990234375">
        <ele>1622.4000244140625</ele>
        <time>2026-06-16T11:45:24.000Z</time>
        <extensions>
          <ns3:TrackPointExtension>
            <ns3:atemp>22.0</ns3:atemp>
          </ns3:TrackPointExtension>
        </extensions>
      </trkpt>
      <trkpt lat="42.6229863055050373077392578125" lon="19.8993904888629913330078125">
        <ele>1622.5999755859375</ele>
        <time>2026-06-16T11:45:25.000Z</time>
        <extensions>
          <ns3:TrackPointExtension>
            <ns3:atemp>22.0</ns3:atemp>
          </ns3:TrackPointExtension>
        </extensions>
      </trkpt>
      <trkpt lat="42.6229941844940185546875" lon="19.89941932260990142822265625">
        <ele>1622.800048828125</ele>
        <time>2026-06-16T11:45:26.000Z</time>
        <extensions>
          <ns3:TrackPointExtension>
            <ns3:atemp>22.0</ns3:atemp>
          </ns3:TrackPointExtension>
        </extensions>
      </trkpt>
      <trkpt lat="42.62300214730203151702880859375" lon="19.89944756962358951568603515625">
        <ele>1623</ele>
        <time>2026-06-16T11:45:27.000Z</time>
        <extensions>
          <ns3:TrackPointExtension>
            <ns3:atemp>22.0</ns3:atemp>
          </ns3:TrackPointExtension>
        </extensions>
      </trkpt>
      <trkpt lat="42.62301119975745677947998046875" lon="19.89948545582592487335205078125">
        <ele>1623.4000244140625</ele>
        <time>2026-06-16T11:45:28.000Z</time>
        <extensions>
          <ns3:TrackPointExtension>
            <ns3:atemp>22.0</ns3:atemp>
          </ns3:TrackPointExtension>
        </extensions>
      </trkpt>
      <trkpt lat="42.62301119975745677947998046875" lon="19.8995113559067249298095703125">
        <ele>1623.4000244140625</ele>
        <time>2026-06-16T11:45:29.000Z</time>
        <extensions>
          <ns3:TrackPointExtension>
            <ns3:atemp>22.0</ns3:atemp>
          </ns3:TrackPointExtension>
        </extensions>
      </trkpt>
      <trkpt lat="42.62300818227231502532958984375" lon="19.89953943528234958648681640625">
        <ele>1623.5999755859375</ele>
        <time>2026-06-16T11:45:30.000Z</time>
        <extensions>
          <ns3:TrackPointExtension>
            <ns3:atemp>22.0</ns3:atemp>
          </ns3:TrackPointExtension>
        </extensions>
      </trkpt>
      <trkpt lat="42.62300969101488590240478515625" lon="19.89957581274211406707763671875">
        <ele>1623.5999755859375</ele>
        <time>2026-06-16T11:45:31.000Z</time>
        <extensions>
          <ns3:TrackPointExtension>
            <ns3:atemp>22.0</ns3:atemp>
          </ns3:TrackPointExtension>
        </extensions>
      </trkpt>
      <trkpt lat="42.62301153503358364105224609375" lon="19.8996059037744998931884765625">
        <ele>1623.800048828125</ele>
        <time>2026-06-16T11:45:32.000Z</time>
        <extensions>
          <ns3:TrackPointExtension>
            <ns3:atemp>22.0</ns3:atemp>
          </ns3:TrackPointExtension>
        </extensions>
      </trkpt>
      <trkpt lat="42.62301036156713962554931640625" lon="19.89964454434812068939208984375">
        <ele>1623.800048828125</ele>
        <time>2026-06-16T11:45:33.000Z</time>
        <extensions>
          <ns3:TrackPointExtension>
            <ns3:atemp>22.0</ns3:atemp>
          </ns3:TrackPointExtension>
        </extensions>
      </trkpt>
      <trkpt lat="42.623018324375152587890625" lon="19.8996853642165660858154296875">
        <ele>1623.800048828125</ele>
        <time>2026-06-16T11:45:34.000Z</time>
        <extensions>
          <ns3:TrackPointExtension>
            <ns3:atemp>22.0</ns3:atemp>
          </ns3:TrackPointExtension>
        </extensions>
      </trkpt>
      <trkpt lat="42.6230188272893428802490234375" lon="19.89972584880888462066650390625">
        <ele>1624</ele>
        <time>2026-06-16T11:45:35.000Z</time>
        <extensions>
          <ns3:TrackPointExtension>
            <ns3:atemp>22.0</ns3:atemp>
          </ns3:TrackPointExtension>
        </extensions>
      </trkpt>
      <trkpt lat="42.6230241917073726654052734375" lon="19.89975518546998500823974609375">
        <ele>1624.199951171875</ele>
        <time>2026-06-16T11:45:36.000Z</time>
        <extensions>
          <ns3:TrackPointExtension>
            <ns3:atemp>22.0</ns3:atemp>
          </ns3:TrackPointExtension>
        </extensions>
      </trkpt>
      <trkpt lat="42.6230312325060367584228515625" lon="19.8997822590172290802001953125">
        <ele>1624.199951171875</ele>
        <time>2026-06-16T11:45:37.000Z</time>
        <extensions>
          <ns3:TrackPointExtension>
            <ns3:atemp>22.0</ns3:atemp>
          </ns3:TrackPointExtension>
        </extensions>
      </trkpt>
      <trkpt lat="42.62303316034376621246337890625" lon="19.89980614744126796722412109375">
        <ele>1624.5999755859375</ele>
        <time>2026-06-16T11:45:38.000Z</time>
        <extensions>
          <ns3:TrackPointExtension>
            <ns3:atemp>22.0</ns3:atemp>
          </ns3:TrackPointExtension>
        </extensions>
      </trkpt>
      <trkpt lat="42.62303248979151248931884765625" lon="19.8998231627047061920166015625">
        <ele>1624.800048828125</ele>
        <time>2026-06-16T11:45:39.000Z</time>
        <extensions>
          <ns3:TrackPointExtension>
            <ns3:atemp>22.0</ns3:atemp>
          </ns3:TrackPointExtension>
        </extensions>
      </trkpt>
      <trkpt lat="42.623030059039592742919921875" lon="19.89983716048300266265869140625">
        <ele>1625</ele>
        <time>2026-06-16T11:45:40.000Z</time>
        <extensions>
          <ns3:TrackPointExtension>
            <ns3:atemp>22.0</ns3:atemp>
          </ns3:TrackPointExtension>
        </extensions>
      </trkpt>
      <trkpt lat="42.6230282150208950042724609375" lon="19.89984990097582340240478515625">
        <ele>1625.4000244140625</ele>
        <time>2026-06-16T11:45:41.000Z</time>
        <extensions>
          <ns3:TrackPointExtension>
            <ns3:atemp>22.0</ns3:atemp>
          </ns3:TrackPointExtension>
        </extensions>
      </trkpt>
      <trkpt lat="42.6230272091925144195556640625" lon="19.89986901171505451202392578125">
        <ele>1625.5999755859375</ele>
        <time>2026-06-16T11:45:42.000Z</time>
        <extensions>
          <ns3:TrackPointExtension>
            <ns3:atemp>22.0</ns3:atemp>
          </ns3:TrackPointExtension>
        </extensions>
      </trkpt>
      <trkpt lat="42.62302863411605358123779296875" lon="19.89988929592072963714599609375">
        <ele>1626</ele>
        <time>2026-06-16T11:45:43.000Z</time>
        <extensions>
          <ns3:TrackPointExtension>
            <ns3:atemp>22.0</ns3:atemp>
          </ns3:TrackPointExtension>
        </extensions>
      </trkpt>
      <trkpt lat="42.6230231858789920806884765625" lon="19.89990807138383388519287109375">
        <ele>1626.199951171875</ele>
        <time>2026-06-16T11:45:44.000Z</time>
        <extensions>
          <ns3:TrackPointExtension>
            <ns3:atemp>22.0</ns3:atemp>
          </ns3:TrackPointExtension>
        </extensions>
      </trkpt>
      <trkpt lat="42.6230196654796600341796875" lon="19.899929277598857879638671875">
        <ele>1626.199951171875</ele>
        <time>2026-06-16T11:45:45.000Z</time>
        <extensions>
          <ns3:TrackPointExtension>
            <ns3:atemp>22.0</ns3:atemp>
          </ns3:TrackPointExtension>
        </extensions>
      </trkpt>
      <trkpt lat="42.6230205036699771881103515625" lon="19.899959452450275421142578125">
        <ele>1626.4000244140625</ele>
        <time>2026-06-16T11:45:46.000Z</time>
        <extensions>
          <ns3:TrackPointExtension>
            <ns3:atemp>22.0</ns3:atemp>
          </ns3:TrackPointExtension>
        </extensions>
      </trkpt>
      <trkpt lat="42.62301891110837459564208984375" lon="19.899990297853946685791015625">
        <ele>1626.5999755859375</ele>
        <time>2026-06-16T11:45:47.000Z</time>
        <extensions>
          <ns3:TrackPointExtension>
            <ns3:atemp>22.0</ns3:atemp>
          </ns3:TrackPointExtension>
        </extensions>
      </trkpt>
      <trkpt lat="42.623024694621562957763671875" lon="19.90001670084893703460693359375">
        <ele>1626.5999755859375</ele>
        <time>2026-06-16T11:45:48.000Z</time>
        <extensions>
          <ns3:TrackPointExtension>
            <ns3:atemp>22.0</ns3:atemp>
          </ns3:TrackPointExtension>
        </extensions>
      </trkpt>
      <trkpt lat="42.62302829883992671966552734375" lon="19.90003899671137332916259765625">
        <ele>1626.800048828125</ele>
        <time>2026-06-16T11:45:49.000Z</time>
        <extensions>
          <ns3:TrackPointExtension>
            <ns3:atemp>22.0</ns3:atemp>
          </ns3:TrackPointExtension>
        </extensions>
      </trkpt>
      <trkpt lat="42.62303282506763935089111328125" lon="19.9000648967921733856201171875">
        <ele>1627</ele>
        <time>2026-06-16T11:45:50.000Z</time>
        <extensions>
          <ns3:TrackPointExtension>
            <ns3:atemp>22.0</ns3:atemp>
          </ns3:TrackPointExtension>
        </extensions>
      </trkpt>
      <trkpt lat="42.62304070405662059783935546875" lon="19.900107644498348236083984375">
        <ele>1627.199951171875</ele>
        <time>2026-06-16T11:45:51.000Z</time>
        <extensions>
          <ns3:TrackPointExtension>
            <ns3:atemp>22.0</ns3:atemp>
          </ns3:TrackPointExtension>
        </extensions>
      </trkpt>
      <trkpt lat="42.62304657138884067535400390625" lon="19.9001510627567768096923828125">
        <ele>1627.199951171875</ele>
        <time>2026-06-16T11:45:52.000Z</time>
        <extensions>
          <ns3:TrackPointExtension>
            <ns3:atemp>22.0</ns3:atemp>
          </ns3:TrackPointExtension>
        </extensions>
      </trkpt>
      <trkpt lat="42.623052857816219329833984375" lon="19.90018350072205066680908203125">
        <ele>1627.4000244140625</ele>
        <time>2026-06-16T11:45:53.000Z</time>
        <extensions>
          <ns3:TrackPointExtension>
            <ns3:atemp>22.0</ns3:atemp>
          </ns3:TrackPointExtension>
        </extensions>
      </trkpt>
      <trkpt lat="42.6230560429394245147705078125" lon="19.9002130888402462005615234375">
        <ele>1627.5999755859375</ele>
        <time>2026-06-16T11:45:54.000Z</time>
        <extensions>
          <ns3:TrackPointExtension>
            <ns3:atemp>22.0</ns3:atemp>
          </ns3:TrackPointExtension>
        </extensions>
      </trkpt>
      <trkpt lat="42.62306299991905689239501953125" lon="19.90024334751069545745849609375">
        <ele>1627.5999755859375</ele>
        <time>2026-06-16T11:45:55.000Z</time>
        <extensions>
          <ns3:TrackPointExtension>
            <ns3:atemp>22.0</ns3:atemp>
          </ns3:TrackPointExtension>
        </extensions>
      </trkpt>
      <trkpt lat="42.6230707950890064239501953125" lon="19.900276623666286468505859375">
        <ele>1627.800048828125</ele>
        <time>2026-06-16T11:45:56.000Z</time>
        <extensions>
          <ns3:TrackPointExtension>
            <ns3:atemp>22.0</ns3:atemp>
          </ns3:TrackPointExtension>
        </extensions>
      </trkpt>
      <trkpt lat="42.6230761595070362091064453125" lon="19.900298751890659332275390625">
        <ele>1627.800048828125</ele>
        <time>2026-06-16T11:45:57.000Z</time>
        <extensions>
          <ns3:TrackPointExtension>
            <ns3:atemp>22.0</ns3:atemp>
          </ns3:TrackPointExtension>
        </extensions>
      </trkpt>
      <trkpt lat="42.62308278121054172515869140625" lon="19.9003133364021778106689453125">
        <ele>1628</ele>
        <time>2026-06-16T11:45:58.000Z</time>
        <extensions>
          <ns3:TrackPointExtension>
            <ns3:atemp>22.0</ns3:atemp>
          </ns3:TrackPointExtension>
        </extensions>
      </trkpt>
      <trkpt lat="42.62308579869568347930908203125" lon="19.9003284238278865814208984375">
        <ele>1628</ele>
        <time>2026-06-16T11:45:59.000Z</time>
        <extensions>
          <ns3:TrackPointExtension>
            <ns3:atemp>22.0</ns3:atemp>
          </ns3:TrackPointExtension>
        </extensions>
      </trkpt>
      <trkpt lat="42.62308848090469837188720703125" lon="19.9003428407013416290283203125">
        <ele>1628</ele>
        <time>2026-06-16T11:46:00.000Z</time>
        <extensions>
          <ns3:TrackPointExtension>
            <ns3:atemp>22.0</ns3:atemp>
          </ns3:TrackPointExtension>
        </extensions>
      </trkpt>
      <trkpt lat="42.623093761503696441650390625" lon="19.900363124907016754150390625">
        <ele>1628.199951171875</ele>
        <time>2026-06-16T11:46:01.000Z</time>
        <extensions>
          <ns3:TrackPointExtension>
            <ns3:atemp>22.0</ns3:atemp>
          </ns3:TrackPointExtension>
        </extensions>
      </trkpt>
      <trkpt lat="42.62309351004660129547119140625" lon="19.90037553012371063232421875">
        <ele>1628.199951171875</ele>
        <time>2026-06-16T11:46:02.000Z</time>
        <extensions>
          <ns3:TrackPointExtension>
            <ns3:atemp>21.0</ns3:atemp>
          </ns3:TrackPointExtension>
        </extensions>
      </trkpt>
      <trkpt lat="42.6230952702462673187255859375" lon="19.90038751624524593353271484375">
        <ele>1628.199951171875</ele>
        <time>2026-06-16T11:46:03.000Z</time>
        <extensions>
          <ns3:TrackPointExtension>
            <ns3:atemp>21.0</ns3:atemp>
          </ns3:TrackPointExtension>
        </extensions>
      </trkpt>
      <trkpt lat="42.623102478682994842529296875" lon="19.9004021845757961273193359375">
        <ele>1628.4000244140625</ele>
        <time>2026-06-16T11:46:04.000Z</time>
        <extensions>
          <ns3:TrackPointExtension>
            <ns3:atemp>21.0</ns3:atemp>
          </ns3:TrackPointExtension>
        </extensions>
      </trkpt>
      <trkpt lat="42.62311211787164211273193359375" lon="19.90042724646627902984619140625">
        <ele>1628.4000244140625</ele>
        <time>2026-06-16T11:46:05.000Z</time>
        <extensions>
          <ns3:TrackPointExtension>
            <ns3:atemp>21.0</ns3:atemp>
          </ns3:TrackPointExtension>
        </extensions>
      </trkpt>
      <trkpt lat="42.62312267906963825225830078125" lon="19.9004615284502506256103515625">
        <ele>1628.4000244140625</ele>
        <time>2026-06-16T11:46:06.000Z</time>
        <extensions>
          <ns3:TrackPointExtension>
            <ns3:atemp>21.0</ns3:atemp>
          </ns3:TrackPointExtension>
        </extensions>
      </trkpt>
      <trkpt lat="42.62312485836446285247802734375" lon="19.9004896916449069976806640625">
        <ele>1628.4000244140625</ele>
        <time>2026-06-16T11:46:07.000Z</time>
        <extensions>
          <ns3:TrackPointExtension>
            <ns3:atemp>21.0</ns3:atemp>
          </ns3:TrackPointExtension>
        </extensions>
      </trkpt>
      <trkpt lat="42.6231241039931774139404296875" lon="19.90052439272403717041015625">
        <ele>1628.5999755859375</ele>
        <time>2026-06-16T11:46:08.000Z</time>
        <extensions>
          <ns3:TrackPointExtension>
            <ns3:atemp>21.0</ns3:atemp>
          </ns3:TrackPointExtension>
        </extensions>
      </trkpt>
      <trkpt lat="42.623127289116382598876953125" lon="19.90054945461452007293701171875">
        <ele>1628.5999755859375</ele>
        <time>2026-06-16T11:46:09.000Z</time>
        <extensions>
          <ns3:TrackPointExtension>
            <ns3:atemp>21.0</ns3:atemp>
          </ns3:TrackPointExtension>
        </extensions>
      </trkpt>
      <trkpt lat="42.62313558720052242279052734375" lon="19.90057661198079586029052734375">
        <ele>1628.5999755859375</ele>
        <time>2026-06-16T11:46:10.000Z</time>
        <extensions>
          <ns3:TrackPointExtension>
            <ns3:atemp>21.0</ns3:atemp>
          </ns3:TrackPointExtension>
        </extensions>
      </trkpt>
      <trkpt lat="42.62314430437982082366943359375" lon="19.900600500404834747314453125">
        <ele>1628.800048828125</ele>
        <time>2026-06-16T11:46:11.000Z</time>
        <extensions>
          <ns3:TrackPointExtension>
            <ns3:atemp>21.0</ns3:atemp>
          </ns3:TrackPointExtension>
        </extensions>
      </trkpt>
      <trkpt lat="42.62315017171204090118408203125" lon="19.90062941797077655792236328125">
        <ele>1628.800048828125</ele>
        <time>2026-06-16T11:46:12.000Z</time>
        <extensions>
          <ns3:TrackPointExtension>
            <ns3:atemp>21.0</ns3:atemp>
          </ns3:TrackPointExtension>
        </extensions>
      </trkpt>
      <trkpt lat="42.62315989471971988677978515625" lon="19.9006512947380542755126953125">
        <ele>1629</ele>
        <time>2026-06-16T11:46:13.000Z</time>
        <extensions>
          <ns3:TrackPointExtension>
            <ns3:atemp>21.0</ns3:atemp>
          </ns3:TrackPointExtension>
        </extensions>
      </trkpt>
      <trkpt lat="42.62317095883190631866455078125" lon="19.90067166276276111602783203125">
        <ele>1629.199951171875</ele>
        <time>2026-06-16T11:46:14.000Z</time>
        <extensions>
          <ns3:TrackPointExtension>
            <ns3:atemp>21.0</ns3:atemp>
          </ns3:TrackPointExtension>
        </extensions>
      </trkpt>
      <trkpt lat="42.62317699380218982696533203125" lon="19.9006928689777851104736328125">
        <ele>1629.4000244140625</ele>
        <time>2026-06-16T11:46:15.000Z</time>
        <extensions>
          <ns3:TrackPointExtension>
            <ns3:atemp>21.0</ns3:atemp>
          </ns3:TrackPointExtension>
        </extensions>
      </trkpt>
      <trkpt lat="42.62318302877247333526611328125" lon="19.90071223117411136627197265625">
        <ele>1629.5999755859375</ele>
        <time>2026-06-16T11:46:16.000Z</time>
        <extensions>
          <ns3:TrackPointExtension>
            <ns3:atemp>21.0</ns3:atemp>
          </ns3:TrackPointExtension>
        </extensions>
      </trkpt>
      <trkpt lat="42.6231886446475982666015625" lon="19.9007307551801204681396484375">
        <ele>1629.800048828125</ele>
        <time>2026-06-16T11:46:17.000Z</time>
        <extensions>
          <ns3:TrackPointExtension>
            <ns3:atemp>21.0</ns3:atemp>
          </ns3:TrackPointExtension>
        </extensions>
      </trkpt>
      <trkpt lat="42.6231894828379154205322265625" lon="19.9007465131580829620361328125">
        <ele>1630</ele>
        <time>2026-06-16T11:46:18.000Z</time>
        <extensions>
          <ns3:TrackPointExtension>
            <ns3:atemp>21.0</ns3:atemp>
          </ns3:TrackPointExtension>
        </extensions>
      </trkpt>
      <trkpt lat="42.623193003237247467041015625" lon="19.90076554007828235626220703125">
        <ele>1630.4000244140625</ele>
        <time>2026-06-16T11:46:19.000Z</time>
        <extensions>
          <ns3:TrackPointExtension>
            <ns3:atemp>21.0</ns3:atemp>
          </ns3:TrackPointExtension>
        </extensions>
      </trkpt>
      <trkpt lat="42.62320163659751415252685546875" lon="19.90078783594071865081787109375">
        <ele>1630.5999755859375</ele>
        <time>2026-06-16T11:46:20.000Z</time>
        <extensions>
          <ns3:TrackPointExtension>
            <ns3:atemp>21.0</ns3:atemp>
          </ns3:TrackPointExtension>
        </extensions>
      </trkpt>
      <trkpt lat="42.623203061521053314208984375" lon="19.90080200135707855224609375">
        <ele>1630.800048828125</ele>
        <time>2026-06-16T11:46:21.000Z</time>
        <extensions>
          <ns3:TrackPointExtension>
            <ns3:atemp>21.0</ns3:atemp>
          </ns3:TrackPointExtension>
        </extensions>
      </trkpt>
      <trkpt lat="42.62321001850068569183349609375" lon="19.90082069300115108489990234375">
        <ele>1630.800048828125</ele>
        <time>2026-06-16T11:46:22.000Z</time>
        <extensions>
          <ns3:TrackPointExtension>
            <ns3:atemp>21.0</ns3:atemp>
          </ns3:TrackPointExtension>
        </extensions>
      </trkpt>
      <trkpt lat="42.62323088943958282470703125" lon="19.90083125419914722442626953125">
        <ele>1630.800048828125</ele>
        <time>2026-06-16T11:46:23.000Z</time>
        <extensions>
          <ns3:TrackPointExtension>
            <ns3:atemp>21.0</ns3:atemp>
          </ns3:TrackPointExtension>
        </extensions>
      </trkpt>
      <trkpt lat="42.62326131574809551239013671875" lon="19.9008440785109996795654296875">
        <ele>1630.800048828125</ele>
        <time>2026-06-16T11:46:24.000Z</time>
        <extensions>
          <ns3:TrackPointExtension>
            <ns3:atemp>21.0</ns3:atemp>
          </ns3:TrackPointExtension>
        </extensions>
      </trkpt>
      <trkpt lat="42.62328377924859523773193359375" lon="19.90086846984922885894775390625">
        <ele>1630.5999755859375</ele>
        <time>2026-06-16T11:46:25.000Z</time>
        <extensions>
          <ns3:TrackPointExtension>
            <ns3:atemp>21.0</ns3:atemp>
          </ns3:TrackPointExtension>
        </extensions>
      </trkpt>
      <trkpt lat="42.623299621045589447021484375" lon="19.9009067751467227935791015625">
        <ele>1630.4000244140625</ele>
        <time>2026-06-16T11:46:26.000Z</time>
        <extensions>
          <ns3:TrackPointExtension>
            <ns3:atemp>21.0</ns3:atemp>
          </ns3:TrackPointExtension>
        </extensions>
      </trkpt>
      <trkpt lat="42.62331512756645679473876953125" lon="19.9009419791400432586669921875">
        <ele>1630.199951171875</ele>
        <time>2026-06-16T11:46:27.000Z</time>
        <extensions>
          <ns3:TrackPointExtension>
            <ns3:atemp>21.0</ns3:atemp>
          </ns3:TrackPointExtension>
        </extensions>
      </trkpt>
      <trkpt lat="42.6233262754976749420166015625" lon="19.90096427500247955322265625">
        <ele>1630</ele>
        <time>2026-06-16T11:46:28.000Z</time>
        <extensions>
          <ns3:TrackPointExtension>
            <ns3:atemp>21.0</ns3:atemp>
          </ns3:TrackPointExtension>
        </extensions>
      </trkpt>
      <trkpt lat="42.6233403570950031280517578125" lon="19.9009875766932964324951171875">
        <ele>1630</ele>
        <time>2026-06-16T11:46:29.000Z</time>
        <extensions>
          <ns3:TrackPointExtension>
            <ns3:atemp>21.0</ns3:atemp>
          </ns3:TrackPointExtension>
        </extensions>
      </trkpt>
      <trkpt lat="42.623355276882648468017578125" lon="19.90100375376641750335693359375">
        <ele>1630</ele>
        <time>2026-06-16T11:46:30.000Z</time>
        <extensions>
          <ns3:TrackPointExtension>
            <ns3:atemp>21.0</ns3:atemp>
          </ns3:TrackPointExtension>
        </extensions>
      </trkpt>
      <trkpt lat="42.62337028048932552337646484375" lon="19.901020266115665435791015625">
        <ele>1630.199951171875</ele>
        <time>2026-06-16T11:46:31.000Z</time>
        <extensions>
          <ns3:TrackPointExtension>
            <ns3:atemp>21.0</ns3:atemp>
          </ns3:TrackPointExtension>
        </extensions>
      </trkpt>
      <trkpt lat="42.623387463390827178955078125" lon="19.90103946067392826080322265625">
        <ele>1630.199951171875</ele>
        <time>2026-06-16T11:46:32.000Z</time>
        <extensions>
          <ns3:TrackPointExtension>
            <ns3:atemp>21.0</ns3:atemp>
          </ns3:TrackPointExtension>
        </extensions>
      </trkpt>
      <trkpt lat="42.623402215540409088134765625" lon="19.90105756558477878570556640625">
        <ele>1630.199951171875</ele>
        <time>2026-06-16T11:46:33.000Z</time>
        <extensions>
          <ns3:TrackPointExtension>
            <ns3:atemp>21.0</ns3:atemp>
          </ns3:TrackPointExtension>
        </extensions>
      </trkpt>
      <trkpt lat="42.62341654859483242034912109375" lon="19.90107349120080471038818359375">
        <ele>1630.199951171875</ele>
        <time>2026-06-16T11:46:34.000Z</time>
        <extensions>
          <ns3:TrackPointExtension>
            <ns3:atemp>21.0</ns3:atemp>
          </ns3:TrackPointExtension>
        </extensions>
      </trkpt>
      <trkpt lat="42.62343046255409717559814453125" lon="19.90109142847359180450439453125">
        <ele>1630.199951171875</ele>
        <time>2026-06-16T11:46:35.000Z</time>
        <extensions>
          <ns3:TrackPointExtension>
            <ns3:atemp>21.0</ns3:atemp>
          </ns3:TrackPointExtension>
        </extensions>
      </trkpt>
      <trkpt lat="42.62343850918114185333251953125" lon="19.90111221559345722198486328125">
        <ele>1630.199951171875</ele>
        <time>2026-06-16T11:46:36.000Z</time>
        <extensions>
          <ns3:TrackPointExtension>
            <ns3:atemp>21.0</ns3:atemp>
          </ns3:TrackPointExtension>
        </extensions>
      </trkpt>
      <trkpt lat="42.62344546616077423095703125" lon="19.90113585256040096282958984375">
        <ele>1630.199951171875</ele>
        <time>2026-06-16T11:46:37.000Z</time>
        <extensions>
          <ns3:TrackPointExtension>
            <ns3:atemp>21.0</ns3:atemp>
          </ns3:TrackPointExtension>
        </extensions>
      </trkpt>
      <trkpt lat="42.62345795519649982452392578125" lon="19.90115529857575893402099609375">
        <ele>1630.199951171875</ele>
        <time>2026-06-16T11:46:38.000Z</time>
        <extensions>
          <ns3:TrackPointExtension>
            <ns3:atemp>21.0</ns3:atemp>
          </ns3:TrackPointExtension>
        </extensions>
      </trkpt>
      <trkpt lat="42.62347471900284290313720703125" lon="19.9011790193617343902587890625">
        <ele>1630.199951171875</ele>
        <time>2026-06-16T11:46:39.000Z</time>
        <extensions>
          <ns3:TrackPointExtension>
            <ns3:atemp>21.0</ns3:atemp>
          </ns3:TrackPointExtension>
        </extensions>
      </trkpt>
      <trkpt lat="42.62348963879048824310302734375" lon="19.90119687281548976898193359375">
        <ele>1630.199951171875</ele>
        <time>2026-06-16T11:46:40.000Z</time>
        <extensions>
          <ns3:TrackPointExtension>
            <ns3:atemp>21.0</ns3:atemp>
          </ns3:TrackPointExtension>
        </extensions>
      </trkpt>
      <trkpt lat="42.6235093362629413604736328125" lon="19.901215732097625732421875">
        <ele>1630</ele>
        <time>2026-06-16T11:46:41.000Z</time>
        <extensions>
          <ns3:TrackPointExtension>
            <ns3:atemp>21.0</ns3:atemp>
          </ns3:TrackPointExtension>
        </extensions>
      </trkpt>
      <trkpt lat="42.6235266029834747314453125" lon="19.90123827941715717315673828125">
        <ele>1630</ele>
        <time>2026-06-16T11:46:42.000Z</time>
        <extensions>
          <ns3:TrackPointExtension>
            <ns3:atemp>21.0</ns3:atemp>
          </ns3:TrackPointExtension>
        </extensions>
      </trkpt>
      <trkpt lat="42.6235455460846424102783203125" lon="19.90126141346991062164306640625">
        <ele>1630</ele>
        <time>2026-06-16T11:46:43.000Z</time>
        <extensions>
          <ns3:TrackPointExtension>
            <ns3:atemp>21.0</ns3:atemp>
          </ns3:TrackPointExtension>
        </extensions>
      </trkpt>
      <trkpt lat="42.6235613040626049041748046875" lon="19.90128186531364917755126953125">
        <ele>1630</ele>
        <time>2026-06-16T11:46:44.000Z</time>
        <extensions>
          <ns3:TrackPointExtension>
            <ns3:atemp>21.0</ns3:atemp>
          </ns3:TrackPointExtension>
        </extensions>
      </trkpt>
      <trkpt lat="42.62357647530734539031982421875" lon="19.90130315534770488739013671875">
        <ele>1630</ele>
        <time>2026-06-16T11:46:45.000Z</time>
        <extensions>
          <ns3:TrackPointExtension>
            <ns3:atemp>21.0</ns3:atemp>
          </ns3:TrackPointExtension>
        </extensions>
      </trkpt>
      <trkpt lat="42.62359105981886386871337890625" lon="19.9013248644769191741943359375">
        <ele>1630</ele>
        <time>2026-06-16T11:46:46.000Z</time>
        <extensions>
          <ns3:TrackPointExtension>
            <ns3:atemp>21.0</ns3:atemp>
          </ns3:TrackPointExtension>
        </extensions>
      </trkpt>
      <trkpt lat="42.623602710664272308349609375" lon="19.90135026164352893829345703125">
        <ele>1630.199951171875</ele>
        <time>2026-06-16T11:46:47.000Z</time>
        <extensions>
          <ns3:TrackPointExtension>
            <ns3:atemp>21.0</ns3:atemp>
          </ns3:TrackPointExtension>
        </extensions>
      </trkpt>
      <trkpt lat="42.62361587025225162506103515625" lon="19.901370964944362640380859375">
        <ele>1630.199951171875</ele>
        <time>2026-06-16T11:46:48.000Z</time>
        <extensions>
          <ns3:TrackPointExtension>
            <ns3:atemp>21.0</ns3:atemp>
          </ns3:TrackPointExtension>
        </extensions>
      </trkpt>
      <trkpt lat="42.6236323826014995574951171875" lon="19.901383705437183380126953125">
        <ele>1630.4000244140625</ele>
        <time>2026-06-16T11:46:49.000Z</time>
        <extensions>
          <ns3:TrackPointExtension>
            <ns3:atemp>21.0</ns3:atemp>
          </ns3:TrackPointExtension>
        </extensions>
      </trkpt>
      <trkpt lat="42.6236524991691112518310546875" lon="19.90140147507190704345703125">
        <ele>1630.5999755859375</ele>
        <time>2026-06-16T11:46:50.000Z</time>
        <extensions>
          <ns3:TrackPointExtension>
            <ns3:atemp>21.0</ns3:atemp>
          </ns3:TrackPointExtension>
        </extensions>
      </trkpt>
      <trkpt lat="42.623669095337390899658203125" lon="19.90141228772699832916259765625">
        <ele>1630.5999755859375</ele>
        <time>2026-06-16T11:46:51.000Z</time>
        <extensions>
          <ns3:TrackPointExtension>
            <ns3:atemp>21.0</ns3:atemp>
          </ns3:TrackPointExtension>
        </extensions>
      </trkpt>
      <trkpt lat="42.623688876628875732421875" lon="19.901424609124660491943359375">
        <ele>1630.800048828125</ele>
        <time>2026-06-16T11:46:52.000Z</time>
        <extensions>
          <ns3:TrackPointExtension>
            <ns3:atemp>21.0</ns3:atemp>
          </ns3:TrackPointExtension>
        </extensions>
      </trkpt>
      <trkpt lat="42.62370874173939228057861328125" lon="19.901440031826496124267578125">
        <ele>1630.800048828125</ele>
        <time>2026-06-16T11:46:53.000Z</time>
        <extensions>
          <ns3:TrackPointExtension>
            <ns3:atemp>21.0</ns3:atemp>
          </ns3:TrackPointExtension>
        </extensions>
      </trkpt>
      <trkpt lat="42.623728774487972259521484375" lon="19.90146006457507610321044921875">
        <ele>1630.800048828125</ele>
        <time>2026-06-16T11:46:54.000Z</time>
        <extensions>
          <ns3:TrackPointExtension>
            <ns3:atemp>21.0</ns3:atemp>
          </ns3:TrackPointExtension>
        </extensions>
      </trkpt>
      <trkpt lat="42.623744197189807891845703125" lon="19.90147657692432403564453125">
        <ele>1631</ele>
        <time>2026-06-16T11:46:55.000Z</time>
        <extensions>
          <ns3:TrackPointExtension>
            <ns3:atemp>21.0</ns3:atemp>
          </ns3:TrackPointExtension>
        </extensions>
      </trkpt>
      <trkpt lat="42.62375450693070888519287109375" lon="19.9014904908835887908935546875">
        <ele>1631</ele>
        <time>2026-06-16T11:46:56.000Z</time>
        <extensions>
          <ns3:TrackPointExtension>
            <ns3:atemp>21.0</ns3:atemp>
          </ns3:TrackPointExtension>
        </extensions>
      </trkpt>
      <trkpt lat="42.62376808561384677886962890625" lon="19.90150130353868007659912109375">
        <ele>1631</ele>
        <time>2026-06-16T11:46:57.000Z</time>
        <extensions>
          <ns3:TrackPointExtension>
            <ns3:atemp>21.0</ns3:atemp>
          </ns3:TrackPointExtension>
        </extensions>
      </trkpt>
      <trkpt lat="42.62378267012536525726318359375" lon="19.90151890553534030914306640625">
        <ele>1630.800048828125</ele>
        <time>2026-06-16T11:46:58.000Z</time>
        <extensions>
          <ns3:TrackPointExtension>
            <ns3:atemp>21.0</ns3:atemp>
          </ns3:TrackPointExtension>
        </extensions>
      </trkpt>
      <trkpt lat="42.6237956620752811431884765625" lon="19.90153633989393711090087890625">
        <ele>1630.800048828125</ele>
        <time>2026-06-16T11:46:59.000Z</time>
        <extensions>
          <ns3:TrackPointExtension>
            <ns3:atemp>21.0</ns3:atemp>
          </ns3:TrackPointExtension>
        </extensions>
      </trkpt>
      <trkpt lat="42.6238171197474002838134765625" lon="19.9015635810792446136474609375">
        <ele>1630.5999755859375</ele>
        <time>2026-06-16T11:47:00.000Z</time>
        <extensions>
          <ns3:TrackPointExtension>
            <ns3:atemp>21.0</ns3:atemp>
          </ns3:TrackPointExtension>
        </extensions>
      </trkpt>
      <trkpt lat="42.62382474727928638458251953125" lon="19.90158646367490291595458984375">
        <ele>1630.5999755859375</ele>
        <time>2026-06-16T11:47:01.000Z</time>
        <extensions>
          <ns3:TrackPointExtension>
            <ns3:atemp>21.0</ns3:atemp>
          </ns3:TrackPointExtension>
        </extensions>
      </trkpt>
      <trkpt lat="42.6238328777253627777099609375" lon="19.9016148783266544342041015625">
        <ele>1630.4000244140625</ele>
        <time>2026-06-16T11:47:02.000Z</time>
        <extensions>
          <ns3:TrackPointExtension>
            <ns3:atemp>21.0</ns3:atemp>
          </ns3:TrackPointExtension>
        </extensions>
      </trkpt>
      <trkpt lat="42.62383547611534595489501953125" lon="19.901642538607120513916015625">
        <ele>1630.4000244140625</ele>
        <time>2026-06-16T11:47:03.000Z</time>
        <extensions>
          <ns3:TrackPointExtension>
            <ns3:atemp>21.0</ns3:atemp>
          </ns3:TrackPointExtension>
        </extensions>
      </trkpt>
      <trkpt lat="42.6238442771136760711669921875" lon="19.9016676843166351318359375">
        <ele>1630.4000244140625</ele>
        <time>2026-06-16T11:47:04.000Z</time>
        <extensions>
          <ns3:TrackPointExtension>
            <ns3:atemp>21.0</ns3:atemp>
          </ns3:TrackPointExtension>
        </extensions>
      </trkpt>
      <trkpt lat="42.62385039590299129486083984375" lon="19.90168847143650054931640625">
        <ele>1630.4000244140625</ele>
        <time>2026-06-16T11:47:05.000Z</time>
        <extensions>
          <ns3:TrackPointExtension>
            <ns3:atemp>21.0</ns3:atemp>
          </ns3:TrackPointExtension>
        </extensions>
      </trkpt>
      <trkpt lat="42.62386548332870006561279296875" lon="19.9017168022692203521728515625">
        <ele>1630.5999755859375</ele>
        <time>2026-06-16T11:47:06.000Z</time>
        <extensions>
          <ns3:TrackPointExtension>
            <ns3:atemp>21.0</ns3:atemp>
          </ns3:TrackPointExtension>
        </extensions>
      </trkpt>
      <trkpt lat="42.6238858513534069061279296875" lon="19.901735074818134307861328125">
        <ele>1630.5999755859375</ele>
        <time>2026-06-16T11:47:07.000Z</time>
        <extensions>
          <ns3:TrackPointExtension>
            <ns3:atemp>21.0</ns3:atemp>
          </ns3:TrackPointExtension>
        </extensions>
      </trkpt>
      <trkpt lat="42.6239069737493991851806640625" lon="19.9017503298819065093994140625">
        <ele>1630.5999755859375</ele>
        <time>2026-06-16T11:47:08.000Z</time>
        <extensions>
          <ns3:TrackPointExtension>
            <ns3:atemp>21.0</ns3:atemp>
          </ns3:TrackPointExtension>
        </extensions>
      </trkpt>
      <trkpt lat="42.6239235699176788330078125" lon="19.9017570354044437408447265625">
        <ele>1630.4000244140625</ele>
        <time>2026-06-16T11:47:09.000Z</time>
        <extensions>
          <ns3:TrackPointExtension>
            <ns3:atemp>21.0</ns3:atemp>
          </ns3:TrackPointExtension>
        </extensions>
      </trkpt>
      <trkpt lat="42.62394695542752742767333984375" lon="19.90177338011562824249267578125">
        <ele>1630.4000244140625</ele>
        <time>2026-06-16T11:47:10.000Z</time>
        <extensions>
          <ns3:TrackPointExtension>
            <ns3:atemp>21.0</ns3:atemp>
          </ns3:TrackPointExtension>
        </extensions>
      </trkpt>
      <trkpt lat="42.6239718496799468994140625" lon="19.90179936401546001434326171875">
        <ele>1630.199951171875</ele>
        <time>2026-06-16T11:47:11.000Z</time>
        <extensions>
          <ns3:TrackPointExtension>
            <ns3:atemp>21.0</ns3:atemp>
          </ns3:TrackPointExtension>
        </extensions>
      </trkpt>
      <trkpt lat="42.623994983732700347900390625" lon="19.90182786248624324798583984375">
        <ele>1630</ele>
        <time>2026-06-16T11:47:12.000Z</time>
        <extensions>
          <ns3:TrackPointExtension>
            <ns3:atemp>21.0</ns3:atemp>
          </ns3:TrackPointExtension>
        </extensions>
      </trkpt>
      <trkpt lat="42.6240206323564052581787109375" lon="19.90185921080410480499267578125">
        <ele>1629.5999755859375</ele>
        <time>2026-06-16T11:47:13.000Z</time>
        <extensions>
          <ns3:TrackPointExtension>
            <ns3:atemp>21.0</ns3:atemp>
          </ns3:TrackPointExtension>
        </extensions>
      </trkpt>
      <trkpt lat="42.62404116801917552947998046875" lon="19.901877902448177337646484375">
        <ele>1629.4000244140625</ele>
        <time>2026-06-16T11:47:14.000Z</time>
        <extensions>
          <ns3:TrackPointExtension>
            <ns3:atemp>21.0</ns3:atemp>
          </ns3:TrackPointExtension>
        </extensions>
      </trkpt>
      <trkpt lat="42.62406329624354839324951171875" lon="19.901898689568042755126953125">
        <ele>1629.199951171875</ele>
        <time>2026-06-16T11:47:15.000Z</time>
        <extensions>
          <ns3:TrackPointExtension>
            <ns3:atemp>21.0</ns3:atemp>
          </ns3:TrackPointExtension>
        </extensions>
      </trkpt>
      <trkpt lat="42.6240846700966358184814453125" lon="19.901916123926639556884765625">
        <ele>1629</ele>
        <time>2026-06-16T11:47:16.000Z</time>
        <extensions>
          <ns3:TrackPointExtension>
            <ns3:atemp>21.0</ns3:atemp>
          </ns3:TrackPointExtension>
        </extensions>
      </trkpt>
      <trkpt lat="42.62410051189363002777099609375" lon="19.90193297155201435089111328125">
        <ele>1628.5999755859375</ele>
        <time>2026-06-16T11:47:17.000Z</time>
        <extensions>
          <ns3:TrackPointExtension>
            <ns3:atemp>21.0</ns3:atemp>
          </ns3:TrackPointExtension>
        </extensions>
      </trkpt>
      <trkpt lat="42.62412213720381259918212890625" lon="19.9019447900354862213134765625">
        <ele>1628.4000244140625</ele>
        <time>2026-06-16T11:47:18.000Z</time>
        <extensions>
          <ns3:TrackPointExtension>
            <ns3:atemp>21.0</ns3:atemp>
          </ns3:TrackPointExtension>
        </extensions>
      </trkpt>
      <trkpt lat="42.62414309196174144744873046875" lon="19.90196331404149532318115234375">
        <ele>1628</ele>
        <time>2026-06-16T11:47:19.000Z</time>
        <extensions>
          <ns3:TrackPointExtension>
            <ns3:atemp>21.0</ns3:atemp>
          </ns3:TrackPointExtension>
        </extensions>
      </trkpt>
      <trkpt lat="42.62416429817676544189453125" lon="19.9019910581409931182861328125">
        <ele>1627.800048828125</ele>
        <time>2026-06-16T11:47:20.000Z</time>
        <extensions>
          <ns3:TrackPointExtension>
            <ns3:atemp>21.0</ns3:atemp>
          </ns3:TrackPointExtension>
        </extensions>
      </trkpt>
      <trkpt lat="42.62418181635439395904541015625" lon="19.9020232446491718292236328125">
        <ele>1627.4000244140625</ele>
        <time>2026-06-16T11:47:21.000Z</time>
        <extensions>
          <ns3:TrackPointExtension>
            <ns3:atemp>21.0</ns3:atemp>
          </ns3:TrackPointExtension>
        </extensions>
      </trkpt>
      <trkpt lat="42.6241983287036418914794921875" lon="19.90206289105117321014404296875">
        <ele>1627.199951171875</ele>
        <time>2026-06-16T11:47:22.000Z</time>
        <extensions>
          <ns3:TrackPointExtension>
            <ns3:atemp>21.0</ns3:atemp>
          </ns3:TrackPointExtension>
        </extensions>
      </trkpt>
      <trkpt lat="42.62421316467225551605224609375" lon="19.90208518691360950469970703125">
        <ele>1626.800048828125</ele>
        <time>2026-06-16T11:47:23.000Z</time>
        <extensions>
          <ns3:TrackPointExtension>
            <ns3:atemp>21.0</ns3:atemp>
          </ns3:TrackPointExtension>
        </extensions>
      </trkpt>
      <trkpt lat="42.624226994812488555908203125" lon="19.9021137692034244537353515625">
        <ele>1626.800048828125</ele>
        <time>2026-06-16T11:47:24.000Z</time>
        <extensions>
          <ns3:TrackPointExtension>
            <ns3:atemp>21.0</ns3:atemp>
          </ns3:TrackPointExtension>
        </extensions>
      </trkpt>
      <trkpt lat="42.62423177249729633331298828125" lon="19.9021375738084316253662109375">
        <ele>1626.5999755859375</ele>
        <time>2026-06-16T11:47:25.000Z</time>
        <extensions>
          <ns3:TrackPointExtension>
            <ns3:atemp>21.0</ns3:atemp>
          </ns3:TrackPointExtension>
        </extensions>
      </trkpt>
      <trkpt lat="42.6242373883724212646484375" lon="19.90216230042278766632080078125">
        <ele>1626.4000244140625</ele>
        <time>2026-06-16T11:47:26.000Z</time>
        <extensions>
          <ns3:TrackPointExtension>
            <ns3:atemp>21.0</ns3:atemp>
          </ns3:TrackPointExtension>
        </extensions>
      </trkpt>
      <trkpt lat="42.62424250133335590362548828125" lon="19.90218627266585826873779296875">
        <ele>1626.4000244140625</ele>
        <time>2026-06-16T11:47:27.000Z</time>
        <extensions>
          <ns3:TrackPointExtension>
            <ns3:atemp>21.0</ns3:atemp>
          </ns3:TrackPointExtension>
        </extensions>
      </trkpt>
      <trkpt lat="42.62424317188560962677001953125" lon="19.9021969176828861236572265625">
        <ele>1626.4000244140625</ele>
        <time>2026-06-16T11:47:28.000Z</time>
        <extensions>
          <ns3:TrackPointExtension>
            <ns3:atemp>21.0</ns3:atemp>
          </ns3:TrackPointExtension>
        </extensions>
      </trkpt>
      <trkpt lat="42.62424317188560962677001953125" lon="19.9021969176828861236572265625">
        <ele>1626.199951171875</ele>
        <time>2026-06-16T11:47:29.000Z</time>
        <extensions>
          <ns3:TrackPointExtension>
            <ns3:atemp>21.0</ns3:atemp>
          </ns3:TrackPointExtension>
        </extensions>
      </trkpt>
      <trkpt lat="42.62424317188560962677001953125" lon="19.9021969176828861236572265625">
        <ele>1626.199951171875</ele>
        <time>2026-06-16T11:47:30.000Z</time>
        <extensions>
          <ns3:TrackPointExtension>
            <ns3:atemp>21.0</ns3:atemp>
          </ns3:TrackPointExtension>
        </extensions>
      </trkpt>
      <trkpt lat="42.62424317188560962677001953125" lon="19.9021969176828861236572265625">
        <ele>1626.199951171875</ele>
        <time>2026-06-16T11:47:31.000Z</time>
        <extensions>
          <ns3:TrackPointExtension>
            <ns3:atemp>21.0</ns3:atemp>
          </ns3:TrackPointExtension>
        </extensions>
      </trkpt>
      <trkpt lat="42.62424317188560962677001953125" lon="19.9021969176828861236572265625">
        <ele>1626.199951171875</ele>
        <time>2026-06-16T11:47:32.000Z</time>
        <extensions>
          <ns3:TrackPointExtension>
            <ns3:atemp>21.0</ns3:atemp>
          </ns3:TrackPointExtension>
        </extensions>
      </trkpt>
      <trkpt lat="42.62424317188560962677001953125" lon="19.9021969176828861236572265625">
        <ele>1626</ele>
        <time>2026-06-16T11:47:33.000Z</time>
        <extensions>
          <ns3:TrackPointExtension>
            <ns3:atemp>21.0</ns3:atemp>
          </ns3:TrackPointExtension>
        </extensions>
      </trkpt>
      <trkpt lat="42.62424317188560962677001953125" lon="19.9021969176828861236572265625">
        <ele>1626</ele>
        <time>2026-06-16T11:47:34.000Z</time>
        <extensions>
          <ns3:TrackPointExtension>
            <ns3:atemp>21.0</ns3:atemp>
          </ns3:TrackPointExtension>
        </extensions>
      </trkpt>
      <trkpt lat="42.62424317188560962677001953125" lon="19.9021969176828861236572265625">
        <ele>1626</ele>
        <time>2026-06-16T11:47:35.000Z</time>
        <extensions>
          <ns3:TrackPointExtension>
            <ns3:atemp>21.0</ns3:atemp>
          </ns3:TrackPointExtension>
        </extensions>
      </trkpt>
      <trkpt lat="42.62424317188560962677001953125" lon="19.9021969176828861236572265625">
        <ele>1626</ele>
        <time>2026-06-16T11:47:36.000Z</time>
        <extensions>
          <ns3:TrackPointExtension>
            <ns3:atemp>21.0</ns3:atemp>
          </ns3:TrackPointExtension>
        </extensions>
      </trkpt>
      <trkpt lat="42.62424317188560962677001953125" lon="19.9021969176828861236572265625">
        <ele>1626</ele>
        <time>2026-06-16T11:47:37.000Z</time>
        <extensions>
          <ns3:TrackPointExtension>
            <ns3:atemp>21.0</ns3:atemp>
          </ns3:TrackPointExtension>
        </extensions>
      </trkpt>
      <trkpt lat="42.62424317188560962677001953125" lon="19.9021969176828861236572265625">
        <ele>1625.800048828125</ele>
        <time>2026-06-16T11:47:38.000Z</time>
        <extensions>
          <ns3:TrackPointExtension>
            <ns3:atemp>21.0</ns3:atemp>
          </ns3:TrackPointExtension>
        </extensions>
      </trkpt>
      <trkpt lat="42.62424317188560962677001953125" lon="19.9021969176828861236572265625">
        <ele>1625.800048828125</ele>
        <time>2026-06-16T11:47:39.000Z</time>
        <extensions>
          <ns3:TrackPointExtension>
            <ns3:atemp>21.0</ns3:atemp>
          </ns3:TrackPointExtension>
        </extensions>
      </trkpt>
      <trkpt lat="42.62424317188560962677001953125" lon="19.9021969176828861236572265625">
        <ele>1625.800048828125</ele>
        <time>2026-06-16T11:47:40.000Z</time>
        <extensions>
          <ns3:TrackPointExtension>
            <ns3:atemp>21.0</ns3:atemp>
          </ns3:TrackPointExtension>
        </extensions>
      </trkpt>
      <trkpt lat="42.62424317188560962677001953125" lon="19.9021969176828861236572265625">
        <ele>1625.800048828125</ele>
        <time>2026-06-16T11:47:41.000Z</time>
        <extensions>
          <ns3:TrackPointExtension>
            <ns3:atemp>21.0</ns3:atemp>
          </ns3:TrackPointExtension>
        </extensions>
      </trkpt>
      <trkpt lat="42.62424317188560962677001953125" lon="19.9021969176828861236572265625">
        <ele>1625.800048828125</ele>
        <time>2026-06-16T11:47:42.000Z</time>
        <extensions>
          <ns3:TrackPointExtension>
            <ns3:atemp>21.0</ns3:atemp>
          </ns3:TrackPointExtension>
        </extensions>
      </trkpt>
      <trkpt lat="42.62424317188560962677001953125" lon="19.9021969176828861236572265625">
        <ele>1625.800048828125</ele>
        <time>2026-06-16T11:47:43.000Z</time>
        <extensions>
          <ns3:TrackPointExtension>
            <ns3:atemp>21.0</ns3:atemp>
          </ns3:TrackPointExtension>
        </extensions>
      </trkpt>
      <trkpt lat="42.62424317188560962677001953125" lon="19.9021969176828861236572265625">
        <ele>1625.800048828125</ele>
        <time>2026-06-16T11:47:44.000Z</time>
        <extensions>
          <ns3:TrackPointExtension>
            <ns3:atemp>21.0</ns3:atemp>
          </ns3:TrackPointExtension>
        </extensions>
      </trkpt>
      <trkpt lat="42.62424317188560962677001953125" lon="19.9021969176828861236572265625">
        <ele>1625.800048828125</ele>
        <time>2026-06-16T11:47:45.000Z</time>
        <extensions>
          <ns3:TrackPointExtension>
            <ns3:atemp>21.0</ns3:atemp>
          </ns3:TrackPointExtension>
        </extensions>
      </trkpt>
      <trkpt lat="42.62424317188560962677001953125" lon="19.9021969176828861236572265625">
        <ele>1625.800048828125</ele>
        <time>2026-06-16T11:47:46.000Z</time>
        <extensions>
          <ns3:TrackPointExtension>
            <ns3:atemp>21.0</ns3:atemp>
          </ns3:TrackPointExtension>
        </extensions>
      </trkpt>
      <trkpt lat="42.62424317188560962677001953125" lon="19.9021969176828861236572265625">
        <ele>1625.800048828125</ele>
        <time>2026-06-16T11:47:47.000Z</time>
        <extensions>
          <ns3:TrackPointExtension>
            <ns3:atemp>21.0</ns3:atemp>
          </ns3:TrackPointExtension>
        </extensions>
      </trkpt>
      <trkpt lat="42.62424317188560962677001953125" lon="19.9021969176828861236572265625">
        <ele>1625.800048828125</ele>
        <time>2026-06-16T11:47:48.000Z</time>
        <extensions>
          <ns3:TrackPointExtension>
            <ns3:atemp>21.0</ns3:atemp>
          </ns3:TrackPointExtension>
        </extensions>
      </trkpt>
      <trkpt lat="42.62424317188560962677001953125" lon="19.9021969176828861236572265625">
        <ele>1625.800048828125</ele>
        <time>2026-06-16T11:47:49.000Z</time>
        <extensions>
          <ns3:TrackPointExtension>
            <ns3:atemp>21.0</ns3:atemp>
          </ns3:TrackPointExtension>
        </extensions>
      </trkpt>
      <trkpt lat="42.62424317188560962677001953125" lon="19.9021969176828861236572265625">
        <ele>1625.5999755859375</ele>
        <time>2026-06-16T11:47:50.000Z</time>
        <extensions>
          <ns3:TrackPointExtension>
            <ns3:atemp>21.0</ns3:atemp>
          </ns3:TrackPointExtension>
        </extensions>
      </trkpt>
      <trkpt lat="42.62424317188560962677001953125" lon="19.9021969176828861236572265625">
        <ele>1625.5999755859375</ele>
        <time>2026-06-16T11:47:51.000Z</time>
        <extensions>
          <ns3:TrackPointExtension>
            <ns3:atemp>21.0</ns3:atemp>
          </ns3:TrackPointExtension>
        </extensions>
      </trkpt>
      <trkpt lat="42.62424317188560962677001953125" lon="19.9021969176828861236572265625">
        <ele>1625.5999755859375</ele>
        <time>2026-06-16T11:47:52.000Z</time>
        <extensions>
          <ns3:TrackPointExtension>
            <ns3:atemp>21.0</ns3:atemp>
          </ns3:TrackPointExtension>
        </extensions>
      </trkpt>
      <trkpt lat="42.62424317188560962677001953125" lon="19.9021969176828861236572265625">
        <ele>1625.5999755859375</ele>
        <time>2026-06-16T11:47:53.000Z</time>
        <extensions>
          <ns3:TrackPointExtension>
            <ns3:atemp>21.0</ns3:atemp>
          </ns3:TrackPointExtension>
        </extensions>
      </trkpt>
      <trkpt lat="42.62424317188560962677001953125" lon="19.9021969176828861236572265625">
        <ele>1625.4000244140625</ele>
        <time>2026-06-16T11:47:54.000Z</time>
        <extensions>
          <ns3:TrackPointExtension>
            <ns3:atemp>21.0</ns3:atemp>
          </ns3:TrackPointExtension>
        </extensions>
      </trkpt>
      <trkpt lat="42.62424317188560962677001953125" lon="19.9021969176828861236572265625">
        <ele>1625.4000244140625</ele>
        <time>2026-06-16T11:47:55.000Z</time>
        <extensions>
          <ns3:TrackPointExtension>
            <ns3:atemp>21.0</ns3:atemp>
          </ns3:TrackPointExtension>
        </extensions>
      </trkpt>
      <trkpt lat="42.62424317188560962677001953125" lon="19.9021969176828861236572265625">
        <ele>1625.4000244140625</ele>
        <time>2026-06-16T11:47:56.000Z</time>
        <extensions>
          <ns3:TrackPointExtension>
            <ns3:atemp>21.0</ns3:atemp>
          </ns3:TrackPointExtension>
        </extensions>
      </trkpt>
      <trkpt lat="42.62424317188560962677001953125" lon="19.9021969176828861236572265625">
        <ele>1625.4000244140625</ele>
        <time>2026-06-16T11:47:57.000Z</time>
        <extensions>
          <ns3:TrackPointExtension>
            <ns3:atemp>21.0</ns3:atemp>
          </ns3:TrackPointExtension>
        </extensions>
      </trkpt>
      <trkpt lat="42.62424317188560962677001953125" lon="19.9021969176828861236572265625">
        <ele>1625.4000244140625</ele>
        <time>2026-06-16T11:47:58.000Z</time>
        <extensions>
          <ns3:TrackPointExtension>
            <ns3:atemp>21.0</ns3:atemp>
          </ns3:TrackPointExtension>
        </extensions>
      </trkpt>
      <trkpt lat="42.62424317188560962677001953125" lon="19.9021969176828861236572265625">
        <ele>1625.4000244140625</ele>
        <time>2026-06-16T11:47:59.000Z</time>
        <extensions>
          <ns3:TrackPointExtension>
            <ns3:atemp>21.0</ns3:atemp>
          </ns3:TrackPointExtension>
        </extensions>
      </trkpt>
      <trkpt lat="42.62424317188560962677001953125" lon="19.9021969176828861236572265625">
        <ele>1625.4000244140625</ele>
        <time>2026-06-16T11:48:00.000Z</time>
        <extensions>
          <ns3:TrackPointExtension>
            <ns3:atemp>21.0</ns3:atemp>
          </ns3:TrackPointExtension>
        </extensions>
      </trkpt>
      <trkpt lat="42.62424317188560962677001953125" lon="19.9021969176828861236572265625">
        <ele>1625.4000244140625</ele>
        <time>2026-06-16T11:48:01.000Z</time>
        <extensions>
          <ns3:TrackPointExtension>
            <ns3:atemp>21.0</ns3:atemp>
          </ns3:TrackPointExtension>
        </extensions>
      </trkpt>
      <trkpt lat="42.62424317188560962677001953125" lon="19.9021969176828861236572265625">
        <ele>1625.4000244140625</ele>
        <time>2026-06-16T11:48:02.000Z</time>
        <extensions>
          <ns3:TrackPointExtension>
            <ns3:atemp>21.0</ns3:atemp>
          </ns3:TrackPointExtension>
        </extensions>
      </trkpt>
      <trkpt lat="42.62424317188560962677001953125" lon="19.9021969176828861236572265625">
        <ele>1625.199951171875</ele>
        <time>2026-06-16T11:48:03.000Z</time>
        <extensions>
          <ns3:TrackPointExtension>
            <ns3:atemp>21.0</ns3:atemp>
          </ns3:TrackPointExtension>
        </extensions>
      </trkpt>
      <trkpt lat="42.62424317188560962677001953125" lon="19.9021969176828861236572265625">
        <ele>1625.199951171875</ele>
        <time>2026-06-16T11:48:04.000Z</time>
        <extensions>
          <ns3:TrackPointExtension>
            <ns3:atemp>21.0</ns3:atemp>
          </ns3:TrackPointExtension>
        </extensions>
      </trkpt>
      <trkpt lat="42.62424317188560962677001953125" lon="19.9021969176828861236572265625">
        <ele>1625.199951171875</ele>
        <time>2026-06-16T11:48:05.000Z</time>
        <extensions>
          <ns3:TrackPointExtension>
            <ns3:atemp>21.0</ns3:atemp>
          </ns3:TrackPointExtension>
        </extensions>
      </trkpt>
      <trkpt lat="42.62424317188560962677001953125" lon="19.9021969176828861236572265625">
        <ele>1625.199951171875</ele>
        <time>2026-06-16T11:48:06.000Z</time>
        <extensions>
          <ns3:TrackPointExtension>
            <ns3:atemp>21.0</ns3:atemp>
          </ns3:TrackPointExtension>
        </extensions>
      </trkpt>
      <trkpt lat="42.62424317188560962677001953125" lon="19.9021969176828861236572265625">
        <ele>1625</ele>
        <time>2026-06-16T11:48:07.000Z</time>
        <extensions>
          <ns3:TrackPointExtension>
            <ns3:atemp>21.0</ns3:atemp>
          </ns3:TrackPointExtension>
        </extensions>
      </trkpt>
      <trkpt lat="42.62424317188560962677001953125" lon="19.9021969176828861236572265625">
        <ele>1625</ele>
        <time>2026-06-16T11:48:08.000Z</time>
        <extensions>
          <ns3:TrackPointExtension>
            <ns3:atemp>21.0</ns3:atemp>
          </ns3:TrackPointExtension>
        </extensions>
      </trkpt>
      <trkpt lat="42.62424317188560962677001953125" lon="19.9021969176828861236572265625">
        <ele>1625.199951171875</ele>
        <time>2026-06-16T11:48:09.000Z</time>
        <extensions>
          <ns3:TrackPointExtension>
            <ns3:atemp>21.0</ns3:atemp>
          </ns3:TrackPointExtension>
        </extensions>
      </trkpt>
      <trkpt lat="42.62424317188560962677001953125" lon="19.9021969176828861236572265625">
        <ele>1625.199951171875</ele>
        <time>2026-06-16T11:48:10.000Z</time>
        <extensions>
          <ns3:TrackPointExtension>
            <ns3:atemp>21.0</ns3:atemp>
          </ns3:TrackPointExtension>
        </extensions>
      </trkpt>
      <trkpt lat="42.62424317188560962677001953125" lon="19.9021969176828861236572265625">
        <ele>1625.4000244140625</ele>
        <time>2026-06-16T11:48:11.000Z</time>
        <extensions>
          <ns3:TrackPointExtension>
            <ns3:atemp>21.0</ns3:atemp>
          </ns3:TrackPointExtension>
        </extensions>
      </trkpt>
      <trkpt lat="42.62424317188560962677001953125" lon="19.9021969176828861236572265625">
        <ele>1625.5999755859375</ele>
        <time>2026-06-16T11:48:12.000Z</time>
        <extensions>
          <ns3:TrackPointExtension>
            <ns3:atemp>21.0</ns3:atemp>
          </ns3:TrackPointExtension>
        </extensions>
      </trkpt>
      <trkpt lat="42.62424317188560962677001953125" lon="19.9021969176828861236572265625">
        <ele>1625.5999755859375</ele>
        <time>2026-06-16T11:48:13.000Z</time>
        <extensions>
          <ns3:TrackPointExtension>
            <ns3:atemp>21.0</ns3:atemp>
          </ns3:TrackPointExtension>
        </extensions>
      </trkpt>
      <trkpt lat="42.62424317188560962677001953125" lon="19.9021969176828861236572265625">
        <ele>1625.5999755859375</ele>
        <time>2026-06-16T11:48:14.000Z</time>
        <extensions>
          <ns3:TrackPointExtension>
            <ns3:atemp>21.0</ns3:atemp>
          </ns3:TrackPointExtension>
        </extensions>
      </trkpt>
      <trkpt lat="42.62424317188560962677001953125" lon="19.9021969176828861236572265625">
        <ele>1625.4000244140625</ele>
        <time>2026-06-16T11:48:15.000Z</time>
        <extensions>
          <ns3:TrackPointExtension>
            <ns3:atemp>21.0</ns3:atemp>
          </ns3:TrackPointExtension>
        </extensions>
      </trkpt>
      <trkpt lat="42.62424317188560962677001953125" lon="19.9021969176828861236572265625">
        <ele>1625.4000244140625</ele>
        <time>2026-06-16T11:48:16.000Z</time>
        <extensions>
          <ns3:TrackPointExtension>
            <ns3:atemp>21.0</ns3:atemp>
          </ns3:TrackPointExtension>
        </extensions>
      </trkpt>
      <trkpt lat="42.62424317188560962677001953125" lon="19.9021969176828861236572265625">
        <ele>1625.4000244140625</ele>
        <time>2026-06-16T11:48:17.000Z</time>
        <extensions>
          <ns3:TrackPointExtension>
            <ns3:atemp>21.0</ns3:atemp>
          </ns3:TrackPointExtension>
        </extensions>
      </trkpt>
      <trkpt lat="42.62424317188560962677001953125" lon="19.9021969176828861236572265625">
        <ele>1625.4000244140625</ele>
        <time>2026-06-16T11:48:18.000Z</time>
        <extensions>
          <ns3:TrackPointExtension>
            <ns3:atemp>21.0</ns3:atemp>
          </ns3:TrackPointExtension>
        </extensions>
      </trkpt>
      <trkpt lat="42.62424317188560962677001953125" lon="19.9021969176828861236572265625">
        <ele>1625.4000244140625</ele>
        <time>2026-06-16T11:48:19.000Z</time>
        <extensions>
          <ns3:TrackPointExtension>
            <ns3:atemp>21.0</ns3:atemp>
          </ns3:TrackPointExtension>
        </extensions>
      </trkpt>
      <trkpt lat="42.62424317188560962677001953125" lon="19.9021969176828861236572265625">
        <ele>1625.4000244140625</ele>
        <time>2026-06-16T11:48:20.000Z</time>
        <extensions>
          <ns3:TrackPointExtension>
            <ns3:atemp>21.0</ns3:atemp>
          </ns3:TrackPointExtension>
        </extensions>
      </trkpt>
      <trkpt lat="42.62424317188560962677001953125" lon="19.9021969176828861236572265625">
        <ele>1625.4000244140625</ele>
        <time>2026-06-16T11:48:21.000Z</time>
        <extensions>
          <ns3:TrackPointExtension>
            <ns3:atemp>21.0</ns3:atemp>
          </ns3:TrackPointExtension>
        </extensions>
      </trkpt>
      <trkpt lat="42.62424317188560962677001953125" lon="19.9021969176828861236572265625">
        <ele>1625.4000244140625</ele>
        <time>2026-06-16T11:48:22.000Z</time>
        <extensions>
          <ns3:TrackPointExtension>
            <ns3:atemp>21.0</ns3:atemp>
          </ns3:TrackPointExtension>
        </extensions>
      </trkpt>
      <trkpt lat="42.62424317188560962677001953125" lon="19.9021969176828861236572265625">
        <ele>1625.4000244140625</ele>
        <time>2026-06-16T11:48:23.000Z</time>
        <extensions>
          <ns3:TrackPointExtension>
            <ns3:atemp>21.0</ns3:atemp>
          </ns3:TrackPointExtension>
        </extensions>
      </trkpt>
      <trkpt lat="42.62424317188560962677001953125" lon="19.9021969176828861236572265625">
        <ele>1625.4000244140625</ele>
        <time>2026-06-16T11:48:24.000Z</time>
        <extensions>
          <ns3:TrackPointExtension>
            <ns3:atemp>21.0</ns3:atemp>
          </ns3:TrackPointExtension>
        </extensions>
      </trkpt>
      <trkpt lat="42.62424317188560962677001953125" lon="19.9021969176828861236572265625">
        <ele>1625.4000244140625</ele>
        <time>2026-06-16T11:48:25.000Z</time>
        <extensions>
          <ns3:TrackPointExtension>
            <ns3:atemp>21.0</ns3:atemp>
          </ns3:TrackPointExtension>
        </extensions>
      </trkpt>
      <trkpt lat="42.62425473891198635101318359375" lon="19.90220219828188419342041015625">
        <ele>1625.199951171875</ele>
        <time>2026-06-16T11:48:26.000Z</time>
        <extensions>
          <ns3:TrackPointExtension>
            <ns3:atemp>21.0</ns3:atemp>
          </ns3:TrackPointExtension>
        </extensions>
      </trkpt>
      <trkpt lat="42.62427401728928089141845703125" lon="19.9022321216762065887451171875">
        <ele>1625.199951171875</ele>
        <time>2026-06-16T11:48:27.000Z</time>
        <extensions>
          <ns3:TrackPointExtension>
            <ns3:atemp>21.0</ns3:atemp>
          </ns3:TrackPointExtension>
        </extensions>
      </trkpt>
      <trkpt lat="42.6242895238101482391357421875" lon="19.9022592790424823760986328125">
        <ele>1625</ele>
        <time>2026-06-16T11:48:28.000Z</time>
        <extensions>
          <ns3:TrackPointExtension>
            <ns3:atemp>21.0</ns3:atemp>
          </ns3:TrackPointExtension>
        </extensions>
      </trkpt>
      <trkpt lat="42.62430511415004730224609375" lon="19.90228719078004360198974609375">
        <ele>1624.800048828125</ele>
        <time>2026-06-16T11:48:29.000Z</time>
        <extensions>
          <ns3:TrackPointExtension>
            <ns3:atemp>21.0</ns3:atemp>
          </ns3:TrackPointExtension>
        </extensions>
      </trkpt>
      <trkpt lat="42.6243093051016330718994140625" lon="19.90232289768755435943603515625">
        <ele>1624.5999755859375</ele>
        <time>2026-06-16T11:48:30.000Z</time>
        <extensions>
          <ns3:TrackPointExtension>
            <ns3:atemp>21.0</ns3:atemp>
          </ns3:TrackPointExtension>
        </extensions>
      </trkpt>
      <trkpt lat="42.62431609444320201873779296875" lon="19.902373440563678741455078125">
        <ele>1624.199951171875</ele>
        <time>2026-06-16T11:48:31.000Z</time>
        <extensions>
          <ns3:TrackPointExtension>
            <ns3:atemp>21.0</ns3:atemp>
          </ns3:TrackPointExtension>
        </extensions>
      </trkpt>
      <trkpt lat="42.6243220455944538116455078125" lon="19.90241526626050472259521484375">
        <ele>1624</ele>
        <time>2026-06-16T11:48:32.000Z</time>
        <extensions>
          <ns3:TrackPointExtension>
            <ns3:atemp>21.0</ns3:atemp>
          </ns3:TrackPointExtension>
        </extensions>
      </trkpt>
      <trkpt lat="42.624342329800128936767578125" lon="19.90246539004147052764892578125">
        <ele>1623.5999755859375</ele>
        <time>2026-06-16T11:48:33.000Z</time>
        <extensions>
          <ns3:TrackPointExtension>
            <ns3:atemp>21.0</ns3:atemp>
          </ns3:TrackPointExtension>
        </extensions>
      </trkpt>
      <trkpt lat="42.624358423054218292236328125" lon="19.90251786075532436370849609375">
        <ele>1623.4000244140625</ele>
        <time>2026-06-16T11:48:34.000Z</time>
        <extensions>
          <ns3:TrackPointExtension>
            <ns3:atemp>21.0</ns3:atemp>
          </ns3:TrackPointExtension>
        </extensions>
      </trkpt>
      <trkpt lat="42.6243679784238338470458984375" lon="19.9025777913630008697509765625">
        <ele>1623</ele>
        <time>2026-06-16T11:48:35.000Z</time>
        <extensions>
          <ns3:TrackPointExtension>
            <ns3:atemp>21.0</ns3:atemp>
          </ns3:TrackPointExtension>
        </extensions>
      </trkpt>
      <trkpt lat="42.62437527067959308624267578125" lon="19.9026448465883731842041015625">
        <ele>1622.4000244140625</ele>
        <time>2026-06-16T11:48:36.000Z</time>
        <extensions>
          <ns3:TrackPointExtension>
            <ns3:atemp>21.0</ns3:atemp>
          </ns3:TrackPointExtension>
        </extensions>
      </trkpt>
      <trkpt lat="42.62437610886991024017333984375" lon="19.9027115665376186370849609375">
        <ele>1621.800048828125</ele>
        <time>2026-06-16T11:48:37.000Z</time>
        <extensions>
          <ns3:TrackPointExtension>
            <ns3:atemp>21.0</ns3:atemp>
          </ns3:TrackPointExtension>
        </extensions>
      </trkpt>
      <trkpt lat="42.6243703253567218780517578125" lon="19.90276336669921875">
        <ele>1621.199951171875</ele>
        <time>2026-06-16T11:48:38.000Z</time>
        <extensions>
          <ns3:TrackPointExtension>
            <ns3:atemp>21.0</ns3:atemp>
          </ns3:TrackPointExtension>
        </extensions>
      </trkpt>
      <trkpt lat="42.62435917742550373077392578125" lon="19.90282095037400722503662109375">
        <ele>1620.4000244140625</ele>
        <time>2026-06-16T11:48:39.000Z</time>
        <extensions>
          <ns3:TrackPointExtension>
            <ns3:atemp>21.0</ns3:atemp>
          </ns3:TrackPointExtension>
        </extensions>
      </trkpt>
      <trkpt lat="42.62434107251465320587158203125" lon="19.90286990068852901458740234375">
        <ele>1619.800048828125</ele>
        <time>2026-06-16T11:48:40.000Z</time>
        <extensions>
          <ns3:TrackPointExtension>
            <ns3:atemp>21.0</ns3:atemp>
          </ns3:TrackPointExtension>
        </extensions>
      </trkpt>
      <trkpt lat="42.6243223808705806732177734375" lon="19.9029242992401123046875">
        <ele>1619</ele>
        <time>2026-06-16T11:48:41.000Z</time>
        <extensions>
          <ns3:TrackPointExtension>
            <ns3:atemp>21.0</ns3:atemp>
          </ns3:TrackPointExtension>
        </extensions>
      </trkpt>
      <trkpt lat="42.62429212220013141632080078125" lon="19.90298054181039333343505859375">
        <ele>1618.199951171875</ele>
        <time>2026-06-16T11:48:42.000Z</time>
        <extensions>
          <ns3:TrackPointExtension>
            <ns3:atemp>21.0</ns3:atemp>
          </ns3:TrackPointExtension>
        </extensions>
      </trkpt>
      <trkpt lat="42.62425691820681095123291015625" lon="19.90303494036197662353515625">
        <ele>1617</ele>
        <time>2026-06-16T11:48:43.000Z</time>
        <extensions>
          <ns3:TrackPointExtension>
            <ns3:atemp>21.0</ns3:atemp>
          </ns3:TrackPointExtension>
        </extensions>
      </trkpt>
      <trkpt lat="42.62420796789228916168212890625" lon="19.9030649475753307342529296875">
        <ele>1616</ele>
        <time>2026-06-16T11:48:44.000Z</time>
        <extensions>
          <ns3:TrackPointExtension>
            <ns3:atemp>21.0</ns3:atemp>
          </ns3:TrackPointExtension>
        </extensions>
      </trkpt>
      <trkpt lat="42.62416723184287548065185546875" lon="19.9030954577028751373291015625">
        <ele>1615</ele>
        <time>2026-06-16T11:48:45.000Z</time>
        <extensions>
          <ns3:TrackPointExtension>
            <ns3:atemp>21.0</ns3:atemp>
          </ns3:TrackPointExtension>
        </extensions>
      </trkpt>
      <trkpt lat="42.624125741422176361083984375" lon="19.903097636997699737548828125">
        <ele>1614</ele>
        <time>2026-06-16T11:48:46.000Z</time>
        <extensions>
          <ns3:TrackPointExtension>
            <ns3:atemp>21.0</ns3:atemp>
          </ns3:TrackPointExtension>
        </extensions>
      </trkpt>
      <trkpt lat="42.6240866817533969879150390625" lon="19.90310006774961948394775390625">
        <ele>1613</ele>
        <time>2026-06-16T11:48:47.000Z</time>
        <extensions>
          <ns3:TrackPointExtension>
            <ns3:atemp>21.0</ns3:atemp>
          </ns3:TrackPointExtension>
        </extensions>
      </trkpt>
      <trkpt lat="42.62404032982885837554931640625" lon="19.90310543216764926910400390625">
        <ele>1611.800048828125</ele>
        <time>2026-06-16T11:48:48.000Z</time>
        <extensions>
          <ns3:TrackPointExtension>
            <ns3:atemp>21.0</ns3:atemp>
          </ns3:TrackPointExtension>
        </extensions>
      </trkpt>
      <trkpt lat="42.623984254896640777587890625" lon="19.90311113186180591583251953125">
        <ele>1610.4000244140625</ele>
        <time>2026-06-16T11:48:49.000Z</time>
        <extensions>
          <ns3:TrackPointExtension>
            <ns3:atemp>21.0</ns3:atemp>
          </ns3:TrackPointExtension>
        </extensions>
      </trkpt>
      <trkpt lat="42.62393253855407238006591796875" lon="19.9031107127666473388671875">
        <ele>1609.4000244140625</ele>
        <time>2026-06-16T11:48:50.000Z</time>
        <extensions>
          <ns3:TrackPointExtension>
            <ns3:atemp>21.0</ns3:atemp>
          </ns3:TrackPointExtension>
        </extensions>
      </trkpt>
      <trkpt lat="42.623885683715343475341796875" lon="19.9031065218150615692138671875">
        <ele>1608.4000244140625</ele>
        <time>2026-06-16T11:48:51.000Z</time>
        <extensions>
          <ns3:TrackPointExtension>
            <ns3:atemp>21.0</ns3:atemp>
          </ns3:TrackPointExtension>
        </extensions>
      </trkpt>
      <trkpt lat="42.62384109199047088623046875" lon="19.903103671967983245849609375">
        <ele>1607.5999755859375</ele>
        <time>2026-06-16T11:48:52.000Z</time>
        <extensions>
          <ns3:TrackPointExtension>
            <ns3:atemp>21.0</ns3:atemp>
          </ns3:TrackPointExtension>
        </extensions>
      </trkpt>
      <trkpt lat="42.62380161322653293609619140625" lon="19.9031053483486175537109375">
        <ele>1606.800048828125</ele>
        <time>2026-06-16T11:48:53.000Z</time>
        <extensions>
          <ns3:TrackPointExtension>
            <ns3:atemp>21.0</ns3:atemp>
          </ns3:TrackPointExtension>
        </extensions>
      </trkpt>
      <trkpt lat="42.6237587817013263702392578125" lon="19.90312018431723117828369140625">
        <ele>1606</ele>
        <time>2026-06-16T11:48:54.000Z</time>
        <extensions>
          <ns3:TrackPointExtension>
            <ns3:atemp>21.0</ns3:atemp>
          </ns3:TrackPointExtension>
        </extensions>
      </trkpt>
      <trkpt lat="42.62371259741485118865966796875" lon="19.90313996560871601104736328125">
        <ele>1604.800048828125</ele>
        <time>2026-06-16T11:48:55.000Z</time>
        <extensions>
          <ns3:TrackPointExtension>
            <ns3:atemp>21.0</ns3:atemp>
          </ns3:TrackPointExtension>
        </extensions>
      </trkpt>
      <trkpt lat="42.6236524991691112518310546875" lon="19.90316368639469146728515625">
        <ele>1603.800048828125</ele>
        <time>2026-06-16T11:48:56.000Z</time>
        <extensions>
          <ns3:TrackPointExtension>
            <ns3:atemp>21.0</ns3:atemp>
          </ns3:TrackPointExtension>
        </extensions>
      </trkpt>
      <trkpt lat="42.62359969317913055419921875" lon="19.90318640135228633880615234375">
        <ele>1602.5999755859375</ele>
        <time>2026-06-16T11:48:57.000Z</time>
        <extensions>
          <ns3:TrackPointExtension>
            <ns3:atemp>21.0</ns3:atemp>
          </ns3:TrackPointExtension>
        </extensions>
      </trkpt>
      <trkpt lat="42.62355987913906574249267578125" lon="19.90321196615695953369140625">
        <ele>1601.5999755859375</ele>
        <time>2026-06-16T11:48:58.000Z</time>
        <extensions>
          <ns3:TrackPointExtension>
            <ns3:atemp>21.0</ns3:atemp>
          </ns3:TrackPointExtension>
        </extensions>
      </trkpt>
      <trkpt lat="42.62351796962320804595947265625" lon="19.90323769859969615936279296875">
        <ele>1600.4000244140625</ele>
        <time>2026-06-16T11:48:59.000Z</time>
        <extensions>
          <ns3:TrackPointExtension>
            <ns3:atemp>21.0</ns3:atemp>
          </ns3:TrackPointExtension>
        </extensions>
      </trkpt>
      <trkpt lat="42.623477987945079803466796875" lon="19.90327407605946063995361328125">
        <ele>1599.4000244140625</ele>
        <time>2026-06-16T11:49:00.000Z</time>
        <extensions>
          <ns3:TrackPointExtension>
            <ns3:atemp>21.0</ns3:atemp>
          </ns3:TrackPointExtension>
        </extensions>
      </trkpt>
      <trkpt lat="42.62344119139015674591064453125" lon="19.90331062115728855133056640625">
        <ele>1598.4000244140625</ele>
        <time>2026-06-16T11:49:01.000Z</time>
        <extensions>
          <ns3:TrackPointExtension>
            <ns3:atemp>21.0</ns3:atemp>
          </ns3:TrackPointExtension>
        </extensions>
      </trkpt>
      <trkpt lat="42.62339676730334758758544921875" lon="19.9033412151038646697998046875">
        <ele>1597.5999755859375</ele>
        <time>2026-06-16T11:49:02.000Z</time>
        <extensions>
          <ns3:TrackPointExtension>
            <ns3:atemp>21.0</ns3:atemp>
          </ns3:TrackPointExtension>
        </extensions>
      </trkpt>
      <trkpt lat="42.623350583016872406005859375" lon="19.90335672162473201751708984375">
        <ele>1596.800048828125</ele>
        <time>2026-06-16T11:49:03.000Z</time>
        <extensions>
          <ns3:TrackPointExtension>
            <ns3:atemp>21.0</ns3:atemp>
          </ns3:TrackPointExtension>
        </extensions>
      </trkpt>
      <trkpt lat="42.62329869903624057769775390625" lon="19.9033787660300731658935546875">
        <ele>1596</ele>
        <time>2026-06-16T11:49:04.000Z</time>
        <extensions>
          <ns3:TrackPointExtension>
            <ns3:atemp>21.0</ns3:atemp>
          </ns3:TrackPointExtension>
        </extensions>
      </trkpt>
      <trkpt lat="42.62323399074375629425048828125" lon="19.9034057557582855224609375">
        <ele>1594.800048828125</ele>
        <time>2026-06-16T11:49:05.000Z</time>
        <extensions>
          <ns3:TrackPointExtension>
            <ns3:atemp>21.0</ns3:atemp>
          </ns3:TrackPointExtension>
        </extensions>
      </trkpt>
      <trkpt lat="42.62316048145294189453125" lon="19.903451688587665557861328125">
        <ele>1593.5999755859375</ele>
        <time>2026-06-16T11:49:06.000Z</time>
        <extensions>
          <ns3:TrackPointExtension>
            <ns3:atemp>21.0</ns3:atemp>
          </ns3:TrackPointExtension>
        </extensions>
      </trkpt>
      <trkpt lat="42.6231162250041961669921875" lon="19.90350843407213687896728515625">
        <ele>1592.4000244140625</ele>
        <time>2026-06-16T11:49:07.000Z</time>
        <extensions>
          <ns3:TrackPointExtension>
            <ns3:atemp>21.0</ns3:atemp>
          </ns3:TrackPointExtension>
        </extensions>
      </trkpt>
      <trkpt lat="42.623071968555450439453125" lon="19.90355654619634151458740234375">
        <ele>1590.800048828125</ele>
        <time>2026-06-16T11:49:08.000Z</time>
        <extensions>
          <ns3:TrackPointExtension>
            <ns3:atemp>21.0</ns3:atemp>
          </ns3:TrackPointExtension>
        </extensions>
      </trkpt>
      <trkpt lat="42.6230305619537830352783203125" lon="19.90359711460769176483154296875">
        <ele>1590</ele>
        <time>2026-06-16T11:49:09.000Z</time>
        <extensions>
          <ns3:TrackPointExtension>
            <ns3:atemp>21.0</ns3:atemp>
          </ns3:TrackPointExtension>
        </extensions>
      </trkpt>
      <trkpt lat="42.62299627996981143951416015625" lon="19.90360985510051250457763671875">
        <ele>1588.800048828125</ele>
        <time>2026-06-16T11:49:10.000Z</time>
        <extensions>
          <ns3:TrackPointExtension>
            <ns3:atemp>21.0</ns3:atemp>
          </ns3:TrackPointExtension>
        </extensions>
      </trkpt>
      <trkpt lat="42.62296157889068126678466796875" lon="19.903621338307857513427734375">
        <ele>1587.5999755859375</ele>
        <time>2026-06-16T11:49:11.000Z</time>
        <extensions>
          <ns3:TrackPointExtension>
            <ns3:atemp>21.0</ns3:atemp>
          </ns3:TrackPointExtension>
        </extensions>
      </trkpt>
      <trkpt lat="42.6229155622422695159912109375" lon="19.90364153869450092315673828125">
        <ele>1586.5999755859375</ele>
        <time>2026-06-16T11:49:12.000Z</time>
        <extensions>
          <ns3:TrackPointExtension>
            <ns3:atemp>21.0</ns3:atemp>
          </ns3:TrackPointExtension>
        </extensions>
      </trkpt>
      <trkpt lat="42.6228635944426059722900390625" lon="19.90365779958665370941162109375">
        <ele>1585.199951171875</ele>
        <time>2026-06-16T11:49:13.000Z</time>
        <extensions>
          <ns3:TrackPointExtension>
            <ns3:atemp>21.0</ns3:atemp>
          </ns3:TrackPointExtension>
        </extensions>
      </trkpt>
      <trkpt lat="42.62281556613743305206298828125" lon="19.90367992781102657318115234375">
        <ele>1583.5999755859375</ele>
        <time>2026-06-16T11:49:14.000Z</time>
        <extensions>
          <ns3:TrackPointExtension>
            <ns3:atemp>21.0</ns3:atemp>
          </ns3:TrackPointExtension>
        </extensions>
      </trkpt>
      <trkpt lat="42.62275907211005687713623046875" lon="19.9037177301943302154541015625">
        <ele>1582</ele>
        <time>2026-06-16T11:49:15.000Z</time>
        <extensions>
          <ns3:TrackPointExtension>
            <ns3:atemp>21.0</ns3:atemp>
          </ns3:TrackPointExtension>
        </extensions>
      </trkpt>
      <trkpt lat="42.62269671075046062469482421875" lon="19.90376458503305912017822265625">
        <ele>1580.4000244140625</ele>
        <time>2026-06-16T11:49:16.000Z</time>
        <extensions>
          <ns3:TrackPointExtension>
            <ns3:atemp>21.0</ns3:atemp>
          </ns3:TrackPointExtension>
        </extensions>
      </trkpt>
      <trkpt lat="42.6226356066763401031494140625" lon="19.90379677154123783111572265625">
        <ele>1578.800048828125</ele>
        <time>2026-06-16T11:49:17.000Z</time>
        <extensions>
          <ns3:TrackPointExtension>
            <ns3:atemp>21.0</ns3:atemp>
          </ns3:TrackPointExtension>
        </extensions>
      </trkpt>
      <trkpt lat="42.62259009294211864471435546875" lon="19.9038307182490825653076171875">
        <ele>1577.199951171875</ele>
        <time>2026-06-16T11:49:18.000Z</time>
        <extensions>
          <ns3:TrackPointExtension>
            <ns3:atemp>21.0</ns3:atemp>
          </ns3:TrackPointExtension>
        </extensions>
      </trkpt>
      <trkpt lat="42.62254885397851467132568359375" lon="19.90385779179632663726806640625">
        <ele>1575.5999755859375</ele>
        <time>2026-06-16T11:49:19.000Z</time>
        <extensions>
          <ns3:TrackPointExtension>
            <ns3:atemp>21.0</ns3:atemp>
          </ns3:TrackPointExtension>
        </extensions>
      </trkpt>
      <trkpt lat="42.62250325642526149749755859375" lon="19.903881847858428955078125">
        <ele>1573.5999755859375</ele>
        <time>2026-06-16T11:49:20.000Z</time>
        <extensions>
          <ns3:TrackPointExtension>
            <ns3:atemp>21.0</ns3:atemp>
          </ns3:TrackPointExtension>
        </extensions>
      </trkpt>
      <trkpt lat="42.62245095334947109222412109375" lon="19.9039235897362232208251953125">
        <ele>1572</ele>
        <time>2026-06-16T11:49:21.000Z</time>
        <extensions>
          <ns3:TrackPointExtension>
            <ns3:atemp>21.0</ns3:atemp>
          </ns3:TrackPointExtension>
        </extensions>
      </trkpt>
      <trkpt lat="42.62240200303494930267333984375" lon="19.9039540998637676239013671875">
        <ele>1570.5999755859375</ele>
        <time>2026-06-16T11:49:22.000Z</time>
        <extensions>
          <ns3:TrackPointExtension>
            <ns3:atemp>21.0</ns3:atemp>
          </ns3:TrackPointExtension>
        </extensions>
      </trkpt>
      <trkpt lat="42.62235523201525211334228515625" lon="19.9039743840694427490234375">
        <ele>1569.199951171875</ele>
        <time>2026-06-16T11:49:23.000Z</time>
        <extensions>
          <ns3:TrackPointExtension>
            <ns3:atemp>21.0</ns3:atemp>
          </ns3:TrackPointExtension>
        </extensions>
      </trkpt>
      <trkpt lat="42.62230594642460346221923828125" lon="19.90400782786309719085693359375">
        <ele>1567.5999755859375</ele>
        <time>2026-06-16T11:49:24.000Z</time>
        <extensions>
          <ns3:TrackPointExtension>
            <ns3:atemp>21.0</ns3:atemp>
          </ns3:TrackPointExtension>
        </extensions>
      </trkpt>
      <trkpt lat="42.62226202525198459625244140625" lon="19.90405124612152576446533203125">
        <ele>1566.199951171875</ele>
        <time>2026-06-16T11:49:25.000Z</time>
        <extensions>
          <ns3:TrackPointExtension>
            <ns3:atemp>21.0</ns3:atemp>
          </ns3:TrackPointExtension>
        </extensions>
      </trkpt>
      <trkpt lat="42.6222215406596660614013671875" lon="19.90409919060766696929931640625">
        <ele>1564.5999755859375</ele>
        <time>2026-06-16T11:49:26.000Z</time>
        <extensions>
          <ns3:TrackPointExtension>
            <ns3:atemp>21.0</ns3:atemp>
          </ns3:TrackPointExtension>
        </extensions>
      </trkpt>
      <trkpt lat="42.62216965667903423309326171875" lon="19.9041433632373809814453125">
        <ele>1563.4000244140625</ele>
        <time>2026-06-16T11:49:27.000Z</time>
        <extensions>
          <ns3:TrackPointExtension>
            <ns3:atemp>21.0</ns3:atemp>
          </ns3:TrackPointExtension>
        </extensions>
      </trkpt>
      <trkpt lat="42.62213109992444515228271484375" lon="19.90417680703103542327880859375">
        <ele>1562</ele>
        <time>2026-06-16T11:49:28.000Z</time>
        <extensions>
          <ns3:TrackPointExtension>
            <ns3:atemp>21.0</ns3:atemp>
          </ns3:TrackPointExtension>
        </extensions>
      </trkpt>
      <trkpt lat="42.62210109271109104156494140625" lon="19.90420480258762836456298828125">
        <ele>1560.800048828125</ele>
        <time>2026-06-16T11:49:29.000Z</time>
        <extensions>
          <ns3:TrackPointExtension>
            <ns3:atemp>21.0</ns3:atemp>
          </ns3:TrackPointExtension>
        </extensions>
      </trkpt>
      <trkpt lat="42.622064463794231414794921875" lon="19.904232211410999298095703125">
        <ele>1559.800048828125</ele>
        <time>2026-06-16T11:49:30.000Z</time>
        <extensions>
          <ns3:TrackPointExtension>
            <ns3:atemp>21.0</ns3:atemp>
          </ns3:TrackPointExtension>
        </extensions>
      </trkpt>
      <trkpt lat="42.622022889554500579833984375" lon="19.90424637682735919952392578125">
        <ele>1558.5999755859375</ele>
        <time>2026-06-16T11:49:31.000Z</time>
        <extensions>
          <ns3:TrackPointExtension>
            <ns3:atemp>21.0</ns3:atemp>
          </ns3:TrackPointExtension>
        </extensions>
      </trkpt>
      <trkpt lat="42.621964551508426666259765625" lon="19.9042605422437191009521484375">
        <ele>1557.4000244140625</ele>
        <time>2026-06-16T11:49:32.000Z</time>
        <extensions>
          <ns3:TrackPointExtension>
            <ns3:atemp>21.0</ns3:atemp>
          </ns3:TrackPointExtension>
        </extensions>
      </trkpt>
      <trkpt lat="42.62189573608338832855224609375" lon="19.90427018143236637115478515625">
        <ele>1556.199951171875</ele>
        <time>2026-06-16T11:49:33.000Z</time>
        <extensions>
          <ns3:TrackPointExtension>
            <ns3:atemp>21.0</ns3:atemp>
          </ns3:TrackPointExtension>
        </extensions>
      </trkpt>
      <trkpt lat="42.62183404527604579925537109375" lon="19.90428845398128032684326171875">
        <ele>1554.800048828125</ele>
        <time>2026-06-16T11:49:34.000Z</time>
        <extensions>
          <ns3:TrackPointExtension>
            <ns3:atemp>21.0</ns3:atemp>
          </ns3:TrackPointExtension>
        </extensions>
      </trkpt>
      <trkpt lat="42.6217672415077686309814453125" lon="19.9043111689388751983642578125">
        <ele>1553.4000244140625</ele>
        <time>2026-06-16T11:49:35.000Z</time>
        <extensions>
          <ns3:TrackPointExtension>
            <ns3:atemp>21.0</ns3:atemp>
          </ns3:TrackPointExtension>
        </extensions>
      </trkpt>
      <trkpt lat="42.6216884516179561614990234375" lon="19.90432801656424999237060546875">
        <ele>1551.800048828125</ele>
        <time>2026-06-16T11:49:36.000Z</time>
        <extensions>
          <ns3:TrackPointExtension>
            <ns3:atemp>21.0</ns3:atemp>
          </ns3:TrackPointExtension>
        </extensions>
      </trkpt>
      <trkpt lat="42.6216146908700466156005859375" lon="19.9043534137308597564697265625">
        <ele>1550</ele>
        <time>2026-06-16T11:49:37.000Z</time>
        <extensions>
          <ns3:TrackPointExtension>
            <ns3:atemp>21.0</ns3:atemp>
          </ns3:TrackPointExtension>
        </extensions>
      </trkpt>
      <trkpt lat="42.6215432770550251007080078125" lon="19.9043678306043148040771484375">
        <ele>1547.4000244140625</ele>
        <time>2026-06-16T11:49:38.000Z</time>
        <extensions>
          <ns3:TrackPointExtension>
            <ns3:atemp>21.0</ns3:atemp>
          </ns3:TrackPointExtension>
        </extensions>
      </trkpt>
      <trkpt lat="42.6214666664600372314453125" lon="19.9043792299926280975341796875">
        <ele>1545.5999755859375</ele>
        <time>2026-06-16T11:49:39.000Z</time>
        <extensions>
          <ns3:TrackPointExtension>
            <ns3:atemp>21.0</ns3:atemp>
          </ns3:TrackPointExtension>
        </extensions>
      </trkpt>
      <trkpt lat="42.6214078254997730255126953125" lon="19.90439523942768573760986328125">
        <ele>1543.5999755859375</ele>
        <time>2026-06-16T11:49:40.000Z</time>
        <extensions>
          <ns3:TrackPointExtension>
            <ns3:atemp>20.0</ns3:atemp>
          </ns3:TrackPointExtension>
        </extensions>
      </trkpt>
      <trkpt lat="42.6213514991104602813720703125" lon="19.904418624937534332275390625">
        <ele>1541.800048828125</ele>
        <time>2026-06-16T11:49:41.000Z</time>
        <extensions>
          <ns3:TrackPointExtension>
            <ns3:atemp>20.0</ns3:atemp>
          </ns3:TrackPointExtension>
        </extensions>
      </trkpt>
      <trkpt lat="42.62130028568208217620849609375" lon="19.90445223636925220489501953125">
        <ele>1540.199951171875</ele>
        <time>2026-06-16T11:49:42.000Z</time>
        <extensions>
          <ns3:TrackPointExtension>
            <ns3:atemp>20.0</ns3:atemp>
          </ns3:TrackPointExtension>
        </extensions>
      </trkpt>
      <trkpt lat="42.62124815024435520172119140625" lon="19.90447805263102054595947265625">
        <ele>1538.5999755859375</ele>
        <time>2026-06-16T11:49:43.000Z</time>
        <extensions>
          <ns3:TrackPointExtension>
            <ns3:atemp>20.0</ns3:atemp>
          </ns3:TrackPointExtension>
        </extensions>
      </trkpt>
      <trkpt lat="42.62120322324335575103759765625" lon="19.904501773416996002197265625">
        <ele>1536.4000244140625</ele>
        <time>2026-06-16T11:49:44.000Z</time>
        <extensions>
          <ns3:TrackPointExtension>
            <ns3:atemp>20.0</ns3:atemp>
          </ns3:TrackPointExtension>
        </extensions>
      </trkpt>
      <trkpt lat="42.6211650855839252471923828125" lon="19.90452867932617664337158203125">
        <ele>1534.800048828125</ele>
        <time>2026-06-16T11:49:45.000Z</time>
        <extensions>
          <ns3:TrackPointExtension>
            <ns3:atemp>20.0</ns3:atemp>
          </ns3:TrackPointExtension>
        </extensions>
      </trkpt>
      <trkpt lat="42.62112577445805072784423828125" lon="19.90453823469579219818115234375">
        <ele>1533.4000244140625</ele>
        <time>2026-06-16T11:49:46.000Z</time>
        <extensions>
          <ns3:TrackPointExtension>
            <ns3:atemp>21.0</ns3:atemp>
          </ns3:TrackPointExtension>
        </extensions>
      </trkpt>
      <trkpt lat="42.6210933364927768707275390625" lon="19.9045671522617340087890625">
        <ele>1531.800048828125</ele>
        <time>2026-06-16T11:49:47.000Z</time>
        <extensions>
          <ns3:TrackPointExtension>
            <ns3:atemp>21.0</ns3:atemp>
          </ns3:TrackPointExtension>
        </extensions>
      </trkpt>
      <trkpt lat="42.6210745610296726226806640625" lon="19.9045985005795955657958984375">
        <ele>1530.4000244140625</ele>
        <time>2026-06-16T11:49:48.000Z</time>
        <extensions>
          <ns3:TrackPointExtension>
            <ns3:atemp>21.0</ns3:atemp>
          </ns3:TrackPointExtension>
        </extensions>
      </trkpt>
      <trkpt lat="42.621076405048370361328125" lon="19.90462414920330047607421875">
        <ele>1529.199951171875</ele>
        <time>2026-06-16T11:49:49.000Z</time>
        <extensions>
          <ns3:TrackPointExtension>
            <ns3:atemp>20.0</ns3:atemp>
          </ns3:TrackPointExtension>
        </extensions>
      </trkpt>
      <trkpt lat="42.62107372283935546875" lon="19.9046497978270053863525390625">
        <ele>1527.800048828125</ele>
        <time>2026-06-16T11:49:50.000Z</time>
        <extensions>
          <ns3:TrackPointExtension>
            <ns3:atemp>20.0</ns3:atemp>
          </ns3:TrackPointExtension>
        </extensions>
      </trkpt>
      <trkpt lat="42.62107246555387973785400390625" lon="19.90467083640396595001220703125">
        <ele>1526.199951171875</ele>
        <time>2026-06-16T11:49:51.000Z</time>
        <extensions>
          <ns3:TrackPointExtension>
            <ns3:atemp>20.0</ns3:atemp>
          </ns3:TrackPointExtension>
        </extensions>
      </trkpt>
      <trkpt lat="42.62106576003134250640869140625" lon="19.90468860603868961334228515625">
        <ele>1525.199951171875</ele>
        <time>2026-06-16T11:49:52.000Z</time>
        <extensions>
          <ns3:TrackPointExtension>
            <ns3:atemp>21.0</ns3:atemp>
          </ns3:TrackPointExtension>
        </extensions>
      </trkpt>
      <trkpt lat="42.6210554502904415130615234375" lon="19.90470788441598415374755859375">
        <ele>1524.199951171875</ele>
        <time>2026-06-16T11:49:53.000Z</time>
        <extensions>
          <ns3:TrackPointExtension>
            <ns3:atemp>21.0</ns3:atemp>
          </ns3:TrackPointExtension>
        </extensions>
      </trkpt>
      <trkpt lat="42.62105603702366352081298828125" lon="19.90472615696489810943603515625">
        <ele>1523.199951171875</ele>
        <time>2026-06-16T11:49:54.000Z</time>
        <extensions>
          <ns3:TrackPointExtension>
            <ns3:atemp>21.0</ns3:atemp>
          </ns3:TrackPointExtension>
        </extensions>
      </trkpt>
      <trkpt lat="42.62105888687074184417724609375" lon="19.90474409423768520355224609375">
        <ele>1522.4000244140625</ele>
        <time>2026-06-16T11:49:55.000Z</time>
        <extensions>
          <ns3:TrackPointExtension>
            <ns3:atemp>21.0</ns3:atemp>
          </ns3:TrackPointExtension>
        </extensions>
      </trkpt>
      <trkpt lat="42.62106592766940593719482421875" lon="19.90476739592850208282470703125">
        <ele>1521.800048828125</ele>
        <time>2026-06-16T11:49:56.000Z</time>
        <extensions>
          <ns3:TrackPointExtension>
            <ns3:atemp>21.0</ns3:atemp>
          </ns3:TrackPointExtension>
        </extensions>
      </trkpt>
      <trkpt lat="42.62108084745705127716064453125" lon="19.90479337982833385467529296875">
        <ele>1521</ele>
        <time>2026-06-16T11:49:57.000Z</time>
        <extensions>
          <ns3:TrackPointExtension>
            <ns3:atemp>21.0</ns3:atemp>
          </ns3:TrackPointExtension>
        </extensions>
      </trkpt>
      <trkpt lat="42.621100880205631256103515625" lon="19.9048154242336750030517578125">
        <ele>1520.4000244140625</ele>
        <time>2026-06-16T11:49:58.000Z</time>
        <extensions>
          <ns3:TrackPointExtension>
            <ns3:atemp>20.0</ns3:atemp>
          </ns3:TrackPointExtension>
        </extensions>
      </trkpt>
      <trkpt lat="42.6211208291351795196533203125" lon="19.90483243949711322784423828125">
        <ele>1519.800048828125</ele>
        <time>2026-06-16T11:49:59.000Z</time>
        <extensions>
          <ns3:TrackPointExtension>
            <ns3:atemp>20.0</ns3:atemp>
          </ns3:TrackPointExtension>
        </extensions>
      </trkpt>
      <trkpt lat="42.6211402751505374908447265625" lon="19.9048439227044582366943359375">
        <ele>1519.4000244140625</ele>
        <time>2026-06-16T11:50:00.000Z</time>
        <extensions>
          <ns3:TrackPointExtension>
            <ns3:atemp>20.0</ns3:atemp>
          </ns3:TrackPointExtension>
        </extensions>
      </trkpt>
      <trkpt lat="42.62116491794586181640625" lon="19.904855825006961822509765625">
        <ele>1519</ele>
        <time>2026-06-16T11:50:01.000Z</time>
        <extensions>
          <ns3:TrackPointExtension>
            <ns3:atemp>20.0</ns3:atemp>
          </ns3:TrackPointExtension>
        </extensions>
      </trkpt>
      <trkpt lat="42.62118830345571041107177734375" lon="19.90486244671046733856201171875">
        <ele>1518.5999755859375</ele>
        <time>2026-06-16T11:50:02.000Z</time>
        <extensions>
          <ns3:TrackPointExtension>
            <ns3:atemp>20.0</ns3:atemp>
          </ns3:TrackPointExtension>
        </extensions>
      </trkpt>
      <trkpt lat="42.6212091743946075439453125" lon="19.904865883290767669677734375">
        <ele>1518.199951171875</ele>
        <time>2026-06-16T11:50:03.000Z</time>
        <extensions>
          <ns3:TrackPointExtension>
            <ns3:atemp>20.0</ns3:atemp>
          </ns3:TrackPointExtension>
        </extensions>
      </trkpt>
      <trkpt lat="42.62121361680328845977783203125" lon="19.9048626981675624847412109375">
        <ele>1518</ele>
        <time>2026-06-16T11:50:04.000Z</time>
        <extensions>
          <ns3:TrackPointExtension>
            <ns3:atemp>20.0</ns3:atemp>
          </ns3:TrackPointExtension>
        </extensions>
      </trkpt>
      <trkpt lat="42.62121529318392276763916015625" lon="19.90486496128141880035400390625">
        <ele>1518</ele>
        <time>2026-06-16T11:50:05.000Z</time>
        <extensions>
          <ns3:TrackPointExtension>
            <ns3:atemp>20.0</ns3:atemp>
          </ns3:TrackPointExtension>
        </extensions>
      </trkpt>
      <trkpt lat="42.6212153770029544830322265625" lon="19.90486512891948223114013671875">
        <ele>1517.800048828125</ele>
        <time>2026-06-16T11:50:06.000Z</time>
        <extensions>
          <ns3:TrackPointExtension>
            <ns3:atemp>20.0</ns3:atemp>
          </ns3:TrackPointExtension>
        </extensions>
      </trkpt>
      <trkpt lat="42.6212153770029544830322265625" lon="19.90486512891948223114013671875">
        <ele>1517.800048828125</ele>
        <time>2026-06-16T11:50:07.000Z</time>
        <extensions>
          <ns3:TrackPointExtension>
            <ns3:atemp>20.0</ns3:atemp>
          </ns3:TrackPointExtension>
        </extensions>
      </trkpt>
      <trkpt lat="42.6212153770029544830322265625" lon="19.90486512891948223114013671875">
        <ele>1517.800048828125</ele>
        <time>2026-06-16T11:50:08.000Z</time>
        <extensions>
          <ns3:TrackPointExtension>
            <ns3:atemp>20.0</ns3:atemp>
          </ns3:TrackPointExtension>
        </extensions>
      </trkpt>
      <trkpt lat="42.6212153770029544830322265625" lon="19.90486512891948223114013671875">
        <ele>1517.5999755859375</ele>
        <time>2026-06-16T11:50:09.000Z</time>
        <extensions>
          <ns3:TrackPointExtension>
            <ns3:atemp>20.0</ns3:atemp>
          </ns3:TrackPointExtension>
        </extensions>
      </trkpt>
      <trkpt lat="42.6212153770029544830322265625" lon="19.90486512891948223114013671875">
        <ele>1517.5999755859375</ele>
        <time>2026-06-16T11:50:10.000Z</time>
        <extensions>
          <ns3:TrackPointExtension>
            <ns3:atemp>20.0</ns3:atemp>
          </ns3:TrackPointExtension>
        </extensions>
      </trkpt>
      <trkpt lat="42.6212153770029544830322265625" lon="19.90486512891948223114013671875">
        <ele>1517.5999755859375</ele>
        <time>2026-06-16T11:50:11.000Z</time>
        <extensions>
          <ns3:TrackPointExtension>
            <ns3:atemp>20.0</ns3:atemp>
          </ns3:TrackPointExtension>
        </extensions>
      </trkpt>
      <trkpt lat="42.6212153770029544830322265625" lon="19.90486512891948223114013671875">
        <ele>1517.4000244140625</ele>
        <time>2026-06-16T11:50:12.000Z</time>
        <extensions>
          <ns3:TrackPointExtension>
            <ns3:atemp>20.0</ns3:atemp>
          </ns3:TrackPointExtension>
        </extensions>
      </trkpt>
      <trkpt lat="42.6212153770029544830322265625" lon="19.90486512891948223114013671875">
        <ele>1517.4000244140625</ele>
        <time>2026-06-16T11:50:13.000Z</time>
        <extensions>
          <ns3:TrackPointExtension>
            <ns3:atemp>20.0</ns3:atemp>
          </ns3:TrackPointExtension>
        </extensions>
      </trkpt>
      <trkpt lat="42.6212153770029544830322265625" lon="19.90486512891948223114013671875">
        <ele>1517.4000244140625</ele>
        <time>2026-06-16T11:50:14.000Z</time>
        <extensions>
          <ns3:TrackPointExtension>
            <ns3:atemp>20.0</ns3:atemp>
          </ns3:TrackPointExtension>
        </extensions>
      </trkpt>
      <trkpt lat="42.6212153770029544830322265625" lon="19.90486512891948223114013671875">
        <ele>1517.4000244140625</ele>
        <time>2026-06-16T11:50:15.000Z</time>
        <extensions>
          <ns3:TrackPointExtension>
            <ns3:atemp>20.0</ns3:atemp>
          </ns3:TrackPointExtension>
        </extensions>
      </trkpt>
      <trkpt lat="42.6212153770029544830322265625" lon="19.90486512891948223114013671875">
        <ele>1517.4000244140625</ele>
        <time>2026-06-16T11:50:16.000Z</time>
        <extensions>
          <ns3:TrackPointExtension>
            <ns3:atemp>20.0</ns3:atemp>
          </ns3:TrackPointExtension>
        </extensions>
      </trkpt>
      <trkpt lat="42.6212153770029544830322265625" lon="19.90486512891948223114013671875">
        <ele>1517.199951171875</ele>
        <time>2026-06-16T11:50:17.000Z</time>
        <extensions>
          <ns3:TrackPointExtension>
            <ns3:atemp>20.0</ns3:atemp>
          </ns3:TrackPointExtension>
        </extensions>
      </trkpt>
      <trkpt lat="42.6212153770029544830322265625" lon="19.90486512891948223114013671875">
        <ele>1517.199951171875</ele>
        <time>2026-06-16T11:50:18.000Z</time>
        <extensions>
          <ns3:TrackPointExtension>
            <ns3:atemp>20.0</ns3:atemp>
          </ns3:TrackPointExtension>
        </extensions>
      </trkpt>
      <trkpt lat="42.6212153770029544830322265625" lon="19.90486512891948223114013671875">
        <ele>1517.199951171875</ele>
        <time>2026-06-16T11:50:19.000Z</time>
        <extensions>
          <ns3:TrackPointExtension>
            <ns3:atemp>20.0</ns3:atemp>
          </ns3:TrackPointExtension>
        </extensions>
      </trkpt>
      <trkpt lat="42.6212153770029544830322265625" lon="19.90486512891948223114013671875">
        <ele>1517.199951171875</ele>
        <time>2026-06-16T11:50:20.000Z</time>
        <extensions>
          <ns3:TrackPointExtension>
            <ns3:atemp>20.0</ns3:atemp>
          </ns3:TrackPointExtension>
        </extensions>
      </trkpt>
      <trkpt lat="42.6212153770029544830322265625" lon="19.90486512891948223114013671875">
        <ele>1517.199951171875</ele>
        <time>2026-06-16T11:50:21.000Z</time>
        <extensions>
          <ns3:TrackPointExtension>
            <ns3:atemp>20.0</ns3:atemp>
          </ns3:TrackPointExtension>
        </extensions>
      </trkpt>
      <trkpt lat="42.6212153770029544830322265625" lon="19.90486512891948223114013671875">
        <ele>1517.199951171875</ele>
        <time>2026-06-16T11:50:22.000Z</time>
        <extensions>
          <ns3:TrackPointExtension>
            <ns3:atemp>20.0</ns3:atemp>
          </ns3:TrackPointExtension>
        </extensions>
      </trkpt>
      <trkpt lat="42.6212153770029544830322265625" lon="19.90486512891948223114013671875">
        <ele>1517.199951171875</ele>
        <time>2026-06-16T11:50:23.000Z</time>
        <extensions>
          <ns3:TrackPointExtension>
            <ns3:atemp>20.0</ns3:atemp>
          </ns3:TrackPointExtension>
        </extensions>
      </trkpt>
      <trkpt lat="42.6212153770029544830322265625" lon="19.90486512891948223114013671875">
        <ele>1517</ele>
        <time>2026-06-16T11:50:24.000Z</time>
        <extensions>
          <ns3:TrackPointExtension>
            <ns3:atemp>20.0</ns3:atemp>
          </ns3:TrackPointExtension>
        </extensions>
      </trkpt>
      <trkpt lat="42.6212153770029544830322265625" lon="19.90486512891948223114013671875">
        <ele>1517</ele>
        <time>2026-06-16T11:50:25.000Z</time>
        <extensions>
          <ns3:TrackPointExtension>
            <ns3:atemp>20.0</ns3:atemp>
          </ns3:TrackPointExtension>
        </extensions>
      </trkpt>
      <trkpt lat="42.6212153770029544830322265625" lon="19.90486512891948223114013671875">
        <ele>1517</ele>
        <time>2026-06-16T11:50:26.000Z</time>
        <extensions>
          <ns3:TrackPointExtension>
            <ns3:atemp>20.0</ns3:atemp>
          </ns3:TrackPointExtension>
        </extensions>
      </trkpt>
      <trkpt lat="42.6212153770029544830322265625" lon="19.90486512891948223114013671875">
        <ele>1517</ele>
        <time>2026-06-16T11:50:27.000Z</time>
        <extensions>
          <ns3:TrackPointExtension>
            <ns3:atemp>20.0</ns3:atemp>
          </ns3:TrackPointExtension>
        </extensions>
      </trkpt>
      <trkpt lat="42.6212153770029544830322265625" lon="19.90486512891948223114013671875">
        <ele>1517</ele>
        <time>2026-06-16T11:50:28.000Z</time>
        <extensions>
          <ns3:TrackPointExtension>
            <ns3:atemp>20.0</ns3:atemp>
          </ns3:TrackPointExtension>
        </extensions>
      </trkpt>
      <trkpt lat="42.6212153770029544830322265625" lon="19.90486512891948223114013671875">
        <ele>1517</ele>
        <time>2026-06-16T11:50:29.000Z</time>
        <extensions>
          <ns3:TrackPointExtension>
            <ns3:atemp>20.0</ns3:atemp>
          </ns3:TrackPointExtension>
        </extensions>
      </trkpt>
      <trkpt lat="42.6212153770029544830322265625" lon="19.90486512891948223114013671875">
        <ele>1517</ele>
        <time>2026-06-16T11:50:30.000Z</time>
        <extensions>
          <ns3:TrackPointExtension>
            <ns3:atemp>20.0</ns3:atemp>
          </ns3:TrackPointExtension>
        </extensions>
      </trkpt>
      <trkpt lat="42.6212153770029544830322265625" lon="19.90486512891948223114013671875">
        <ele>1516.800048828125</ele>
        <time>2026-06-16T11:50:31.000Z</time>
        <extensions>
          <ns3:TrackPointExtension>
            <ns3:atemp>20.0</ns3:atemp>
          </ns3:TrackPointExtension>
        </extensions>
      </trkpt>
      <trkpt lat="42.6212153770029544830322265625" lon="19.90486512891948223114013671875">
        <ele>1516.800048828125</ele>
        <time>2026-06-16T11:50:32.000Z</time>
        <extensions>
          <ns3:TrackPointExtension>
            <ns3:atemp>20.0</ns3:atemp>
          </ns3:TrackPointExtension>
        </extensions>
      </trkpt>
      <trkpt lat="42.6212153770029544830322265625" lon="19.90486512891948223114013671875">
        <ele>1516.800048828125</ele>
        <time>2026-06-16T11:50:33.000Z</time>
        <extensions>
          <ns3:TrackPointExtension>
            <ns3:atemp>20.0</ns3:atemp>
          </ns3:TrackPointExtension>
        </extensions>
      </trkpt>
      <trkpt lat="42.6212153770029544830322265625" lon="19.90486512891948223114013671875">
        <ele>1516.800048828125</ele>
        <time>2026-06-16T11:50:34.000Z</time>
        <extensions>
          <ns3:TrackPointExtension>
            <ns3:atemp>20.0</ns3:atemp>
          </ns3:TrackPointExtension>
        </extensions>
      </trkpt>
      <trkpt lat="42.6212153770029544830322265625" lon="19.90486512891948223114013671875">
        <ele>1516.800048828125</ele>
        <time>2026-06-16T11:50:35.000Z</time>
        <extensions>
          <ns3:TrackPointExtension>
            <ns3:atemp>20.0</ns3:atemp>
          </ns3:TrackPointExtension>
        </extensions>
      </trkpt>
      <trkpt lat="42.6212153770029544830322265625" lon="19.90486512891948223114013671875">
        <ele>1516.800048828125</ele>
        <time>2026-06-16T11:50:36.000Z</time>
        <extensions>
          <ns3:TrackPointExtension>
            <ns3:atemp>20.0</ns3:atemp>
          </ns3:TrackPointExtension>
        </extensions>
      </trkpt>
      <trkpt lat="42.6212153770029544830322265625" lon="19.90486512891948223114013671875">
        <ele>1516.800048828125</ele>
        <time>2026-06-16T11:50:37.000Z</time>
        <extensions>
          <ns3:TrackPointExtension>
            <ns3:atemp>20.0</ns3:atemp>
          </ns3:TrackPointExtension>
        </extensions>
      </trkpt>
      <trkpt lat="42.6212153770029544830322265625" lon="19.90486512891948223114013671875">
        <ele>1516.800048828125</ele>
        <time>2026-06-16T11:50:38.000Z</time>
        <extensions>
          <ns3:TrackPointExtension>
            <ns3:atemp>20.0</ns3:atemp>
          </ns3:TrackPointExtension>
        </extensions>
      </trkpt>
      <trkpt lat="42.6212153770029544830322265625" lon="19.90486512891948223114013671875">
        <ele>1516.800048828125</ele>
        <time>2026-06-16T11:50:39.000Z</time>
        <extensions>
          <ns3:TrackPointExtension>
            <ns3:atemp>20.0</ns3:atemp>
          </ns3:TrackPointExtension>
        </extensions>
      </trkpt>
      <trkpt lat="42.6212153770029544830322265625" lon="19.90486512891948223114013671875">
        <ele>1516.800048828125</ele>
        <time>2026-06-16T11:50:40.000Z</time>
        <extensions>
          <ns3:TrackPointExtension>
            <ns3:atemp>20.0</ns3:atemp>
          </ns3:TrackPointExtension>
        </extensions>
      </trkpt>
      <trkpt lat="42.6212153770029544830322265625" lon="19.90486512891948223114013671875">
        <ele>1516.800048828125</ele>
        <time>2026-06-16T11:50:41.000Z</time>
        <extensions>
          <ns3:TrackPointExtension>
            <ns3:atemp>20.0</ns3:atemp>
          </ns3:TrackPointExtension>
        </extensions>
      </trkpt>
      <trkpt lat="42.6212153770029544830322265625" lon="19.90486512891948223114013671875">
        <ele>1516.800048828125</ele>
        <time>2026-06-16T11:50:42.000Z</time>
        <extensions>
          <ns3:TrackPointExtension>
            <ns3:atemp>20.0</ns3:atemp>
          </ns3:TrackPointExtension>
        </extensions>
      </trkpt>
      <trkpt lat="42.6212153770029544830322265625" lon="19.90486512891948223114013671875">
        <ele>1516.800048828125</ele>
        <time>2026-06-16T11:50:43.000Z</time>
        <extensions>
          <ns3:TrackPointExtension>
            <ns3:atemp>20.0</ns3:atemp>
          </ns3:TrackPointExtension>
        </extensions>
      </trkpt>
      <trkpt lat="42.6212153770029544830322265625" lon="19.90486512891948223114013671875">
        <ele>1516.800048828125</ele>
        <time>2026-06-16T11:50:44.000Z</time>
        <extensions>
          <ns3:TrackPointExtension>
            <ns3:atemp>20.0</ns3:atemp>
          </ns3:TrackPointExtension>
        </extensions>
      </trkpt>
      <trkpt lat="42.6212153770029544830322265625" lon="19.90486512891948223114013671875">
        <ele>1516.800048828125</ele>
        <time>2026-06-16T11:50:45.000Z</time>
        <extensions>
          <ns3:TrackPointExtension>
            <ns3:atemp>20.0</ns3:atemp>
          </ns3:TrackPointExtension>
        </extensions>
      </trkpt>
      <trkpt lat="42.6212153770029544830322265625" lon="19.90486512891948223114013671875">
        <ele>1516.5999755859375</ele>
        <time>2026-06-16T11:50:46.000Z</time>
        <extensions>
          <ns3:TrackPointExtension>
            <ns3:atemp>20.0</ns3:atemp>
          </ns3:TrackPointExtension>
        </extensions>
      </trkpt>
      <trkpt lat="42.6212153770029544830322265625" lon="19.90486512891948223114013671875">
        <ele>1516.5999755859375</ele>
        <time>2026-06-16T11:50:47.000Z</time>
        <extensions>
          <ns3:TrackPointExtension>
            <ns3:atemp>20.0</ns3:atemp>
          </ns3:TrackPointExtension>
        </extensions>
      </trkpt>
      <trkpt lat="42.6212153770029544830322265625" lon="19.90486512891948223114013671875">
        <ele>1516.5999755859375</ele>
        <time>2026-06-16T11:50:48.000Z</time>
        <extensions>
          <ns3:TrackPointExtension>
            <ns3:atemp>20.0</ns3:atemp>
          </ns3:TrackPointExtension>
        </extensions>
      </trkpt>
      <trkpt lat="42.6212153770029544830322265625" lon="19.90486512891948223114013671875">
        <ele>1516.5999755859375</ele>
        <time>2026-06-16T11:50:49.000Z</time>
        <extensions>
          <ns3:TrackPointExtension>
            <ns3:atemp>20.0</ns3:atemp>
          </ns3:TrackPointExtension>
        </extensions>
      </trkpt>
      <trkpt lat="42.6212153770029544830322265625" lon="19.90486512891948223114013671875">
        <ele>1516.5999755859375</ele>
        <time>2026-06-16T11:50:50.000Z</time>
        <extensions>
          <ns3:TrackPointExtension>
            <ns3:atemp>20.0</ns3:atemp>
          </ns3:TrackPointExtension>
        </extensions>
      </trkpt>
      <trkpt lat="42.6212153770029544830322265625" lon="19.90486512891948223114013671875">
        <ele>1516.5999755859375</ele>
        <time>2026-06-16T11:50:51.000Z</time>
        <extensions>
          <ns3:TrackPointExtension>
            <ns3:atemp>20.0</ns3:atemp>
          </ns3:TrackPointExtension>
        </extensions>
      </trkpt>
      <trkpt lat="42.6212153770029544830322265625" lon="19.90486512891948223114013671875">
        <ele>1516.5999755859375</ele>
        <time>2026-06-16T11:50:52.000Z</time>
        <extensions>
          <ns3:TrackPointExtension>
            <ns3:atemp>20.0</ns3:atemp>
          </ns3:TrackPointExtension>
        </extensions>
      </trkpt>
      <trkpt lat="42.6212153770029544830322265625" lon="19.90486512891948223114013671875">
        <ele>1516.5999755859375</ele>
        <time>2026-06-16T11:50:53.000Z</time>
        <extensions>
          <ns3:TrackPointExtension>
            <ns3:atemp>20.0</ns3:atemp>
          </ns3:TrackPointExtension>
        </extensions>
      </trkpt>
      <trkpt lat="42.6212153770029544830322265625" lon="19.90486512891948223114013671875">
        <ele>1516.5999755859375</ele>
        <time>2026-06-16T11:50:54.000Z</time>
        <extensions>
          <ns3:TrackPointExtension>
            <ns3:atemp>20.0</ns3:atemp>
          </ns3:TrackPointExtension>
        </extensions>
      </trkpt>
      <trkpt lat="42.6212153770029544830322265625" lon="19.90486512891948223114013671875">
        <ele>1516.5999755859375</ele>
        <time>2026-06-16T11:50:55.000Z</time>
        <extensions>
          <ns3:TrackPointExtension>
            <ns3:atemp>20.0</ns3:atemp>
          </ns3:TrackPointExtension>
        </extensions>
      </trkpt>
      <trkpt lat="42.6212153770029544830322265625" lon="19.90486512891948223114013671875">
        <ele>1516.5999755859375</ele>
        <time>2026-06-16T11:50:56.000Z</time>
        <extensions>
          <ns3:TrackPointExtension>
            <ns3:atemp>20.0</ns3:atemp>
          </ns3:TrackPointExtension>
        </extensions>
      </trkpt>
      <trkpt lat="42.6212153770029544830322265625" lon="19.90486512891948223114013671875">
        <ele>1516.5999755859375</ele>
        <time>2026-06-16T11:50:57.000Z</time>
        <extensions>
          <ns3:TrackPointExtension>
            <ns3:atemp>20.0</ns3:atemp>
          </ns3:TrackPointExtension>
        </extensions>
      </trkpt>
      <trkpt lat="42.6212153770029544830322265625" lon="19.90486512891948223114013671875">
        <ele>1516.4000244140625</ele>
        <time>2026-06-16T11:50:58.000Z</time>
        <extensions>
          <ns3:TrackPointExtension>
            <ns3:atemp>20.0</ns3:atemp>
          </ns3:TrackPointExtension>
        </extensions>
      </trkpt>
      <trkpt lat="42.6212153770029544830322265625" lon="19.90486512891948223114013671875">
        <ele>1516.4000244140625</ele>
        <time>2026-06-16T11:50:59.000Z</time>
        <extensions>
          <ns3:TrackPointExtension>
            <ns3:atemp>20.0</ns3:atemp>
          </ns3:TrackPointExtension>
        </extensions>
      </trkpt>
      <trkpt lat="42.6212153770029544830322265625" lon="19.90486512891948223114013671875">
        <ele>1516.4000244140625</ele>
        <time>2026-06-16T11:51:00.000Z</time>
        <extensions>
          <ns3:TrackPointExtension>
            <ns3:atemp>20.0</ns3:atemp>
          </ns3:TrackPointExtension>
        </extensions>
      </trkpt>
      <trkpt lat="42.6212153770029544830322265625" lon="19.90486512891948223114013671875">
        <ele>1516.4000244140625</ele>
        <time>2026-06-16T11:51:01.000Z</time>
        <extensions>
          <ns3:TrackPointExtension>
            <ns3:atemp>20.0</ns3:atemp>
          </ns3:TrackPointExtension>
        </extensions>
      </trkpt>
      <trkpt lat="42.6212153770029544830322265625" lon="19.90486512891948223114013671875">
        <ele>1516.4000244140625</ele>
        <time>2026-06-16T11:51:02.000Z</time>
        <extensions>
          <ns3:TrackPointExtension>
            <ns3:atemp>20.0</ns3:atemp>
          </ns3:TrackPointExtension>
        </extensions>
      </trkpt>
      <trkpt lat="42.6212153770029544830322265625" lon="19.90486512891948223114013671875">
        <ele>1516.4000244140625</ele>
        <time>2026-06-16T11:51:03.000Z</time>
        <extensions>
          <ns3:TrackPointExtension>
            <ns3:atemp>20.0</ns3:atemp>
          </ns3:TrackPointExtension>
        </extensions>
      </trkpt>
      <trkpt lat="42.6212153770029544830322265625" lon="19.90486512891948223114013671875">
        <ele>1516.4000244140625</ele>
        <time>2026-06-16T11:51:04.000Z</time>
        <extensions>
          <ns3:TrackPointExtension>
            <ns3:atemp>20.0</ns3:atemp>
          </ns3:TrackPointExtension>
        </extensions>
      </trkpt>
      <trkpt lat="42.6212153770029544830322265625" lon="19.90486512891948223114013671875">
        <ele>1516.4000244140625</ele>
        <time>2026-06-16T11:51:05.000Z</time>
        <extensions>
          <ns3:TrackPointExtension>
            <ns3:atemp>20.0</ns3:atemp>
          </ns3:TrackPointExtension>
        </extensions>
      </trkpt>
      <trkpt lat="42.6212153770029544830322265625" lon="19.90486512891948223114013671875">
        <ele>1516.4000244140625</ele>
        <time>2026-06-16T11:51:06.000Z</time>
        <extensions>
          <ns3:TrackPointExtension>
            <ns3:atemp>20.0</ns3:atemp>
          </ns3:TrackPointExtension>
        </extensions>
      </trkpt>
      <trkpt lat="42.6212153770029544830322265625" lon="19.90486512891948223114013671875">
        <ele>1516.4000244140625</ele>
        <time>2026-06-16T11:51:07.000Z</time>
        <extensions>
          <ns3:TrackPointExtension>
            <ns3:atemp>20.0</ns3:atemp>
          </ns3:TrackPointExtension>
        </extensions>
      </trkpt>
      <trkpt lat="42.6212153770029544830322265625" lon="19.90486512891948223114013671875">
        <ele>1516.4000244140625</ele>
        <time>2026-06-16T11:51:08.000Z</time>
        <extensions>
          <ns3:TrackPointExtension>
            <ns3:atemp>20.0</ns3:atemp>
          </ns3:TrackPointExtension>
        </extensions>
      </trkpt>
      <trkpt lat="42.6212153770029544830322265625" lon="19.90486512891948223114013671875">
        <ele>1516.4000244140625</ele>
        <time>2026-06-16T11:51:09.000Z</time>
        <extensions>
          <ns3:TrackPointExtension>
            <ns3:atemp>20.0</ns3:atemp>
          </ns3:TrackPointExtension>
        </extensions>
      </trkpt>
      <trkpt lat="42.6212153770029544830322265625" lon="19.90486512891948223114013671875">
        <ele>1516.4000244140625</ele>
        <time>2026-06-16T11:51:10.000Z</time>
        <extensions>
          <ns3:TrackPointExtension>
            <ns3:atemp>20.0</ns3:atemp>
          </ns3:TrackPointExtension>
        </extensions>
      </trkpt>
      <trkpt lat="42.6212153770029544830322265625" lon="19.90486512891948223114013671875">
        <ele>1516.4000244140625</ele>
        <time>2026-06-16T11:51:11.000Z</time>
        <extensions>
          <ns3:TrackPointExtension>
            <ns3:atemp>20.0</ns3:atemp>
          </ns3:TrackPointExtension>
        </extensions>
      </trkpt>
      <trkpt lat="42.6212153770029544830322265625" lon="19.90486512891948223114013671875">
        <ele>1516.4000244140625</ele>
        <time>2026-06-16T11:51:12.000Z</time>
        <extensions>
          <ns3:TrackPointExtension>
            <ns3:atemp>20.0</ns3:atemp>
          </ns3:TrackPointExtension>
        </extensions>
      </trkpt>
      <trkpt lat="42.6212153770029544830322265625" lon="19.90486512891948223114013671875">
        <ele>1516.4000244140625</ele>
        <time>2026-06-16T11:51:13.000Z</time>
        <extensions>
          <ns3:TrackPointExtension>
            <ns3:atemp>20.0</ns3:atemp>
          </ns3:TrackPointExtension>
        </extensions>
      </trkpt>
      <trkpt lat="42.6212153770029544830322265625" lon="19.90486512891948223114013671875">
        <ele>1516.4000244140625</ele>
        <time>2026-06-16T11:51:14.000Z</time>
        <extensions>
          <ns3:TrackPointExtension>
            <ns3:atemp>20.0</ns3:atemp>
          </ns3:TrackPointExtension>
        </extensions>
      </trkpt>
      <trkpt lat="42.6212153770029544830322265625" lon="19.90486512891948223114013671875">
        <ele>1516.199951171875</ele>
        <time>2026-06-16T11:51:15.000Z</time>
        <extensions>
          <ns3:TrackPointExtension>
            <ns3:atemp>20.0</ns3:atemp>
          </ns3:TrackPointExtension>
        </extensions>
      </trkpt>
      <trkpt lat="42.6212170533835887908935546875" lon="19.9048677273094654083251953125">
        <ele>1516.199951171875</ele>
        <time>2026-06-16T11:51:16.000Z</time>
        <extensions>
          <ns3:TrackPointExtension>
            <ns3:atemp>20.0</ns3:atemp>
          </ns3:TrackPointExtension>
        </extensions>
      </trkpt>
      <trkpt lat="42.6212334819138050079345703125" lon="19.90488658659160137176513671875">
        <ele>1516.199951171875</ele>
        <time>2026-06-16T11:51:17.000Z</time>
        <extensions>
          <ns3:TrackPointExtension>
            <ns3:atemp>20.0</ns3:atemp>
          </ns3:TrackPointExtension>
        </extensions>
      </trkpt>
      <trkpt lat="42.62125737033784389495849609375" lon="19.90490016527473926544189453125">
        <ele>1515.800048828125</ele>
        <time>2026-06-16T11:51:18.000Z</time>
        <extensions>
          <ns3:TrackPointExtension>
            <ns3:atemp>20.0</ns3:atemp>
          </ns3:TrackPointExtension>
        </extensions>
      </trkpt>
      <trkpt lat="42.6212841086089611053466796875" lon="19.904900081455707550048828125">
        <ele>1515.5999755859375</ele>
        <time>2026-06-16T11:51:19.000Z</time>
        <extensions>
          <ns3:TrackPointExtension>
            <ns3:atemp>20.0</ns3:atemp>
          </ns3:TrackPointExtension>
        </extensions>
      </trkpt>
      <trkpt lat="42.6213022135198116302490234375" lon="19.90489513613283634185791015625">
        <ele>1515.4000244140625</ele>
        <time>2026-06-16T11:51:20.000Z</time>
        <extensions>
          <ns3:TrackPointExtension>
            <ns3:atemp>20.0</ns3:atemp>
          </ns3:TrackPointExtension>
        </extensions>
      </trkpt>
      <trkpt lat="42.6213136129081249237060546875" lon="19.90489161573350429534912109375">
        <ele>1515.4000244140625</ele>
        <time>2026-06-16T11:51:21.000Z</time>
        <extensions>
          <ns3:TrackPointExtension>
            <ns3:atemp>20.0</ns3:atemp>
          </ns3:TrackPointExtension>
        </extensions>
      </trkpt>
      <trkpt lat="42.621329538524150848388671875" lon="19.9048942141234874725341796875">
        <ele>1515.199951171875</ele>
        <time>2026-06-16T11:51:22.000Z</time>
        <extensions>
          <ns3:TrackPointExtension>
            <ns3:atemp>20.0</ns3:atemp>
          </ns3:TrackPointExtension>
        </extensions>
      </trkpt>
      <trkpt lat="42.62135074473917484283447265625" lon="19.9048985727131366729736328125">
        <ele>1515.199951171875</ele>
        <time>2026-06-16T11:51:23.000Z</time>
        <extensions>
          <ns3:TrackPointExtension>
            <ns3:atemp>20.0</ns3:atemp>
          </ns3:TrackPointExtension>
        </extensions>
      </trkpt>
      <trkpt lat="42.62137404642999172210693359375" lon="19.9049015901982784271240234375">
        <ele>1515</ele>
        <time>2026-06-16T11:51:24.000Z</time>
        <extensions>
          <ns3:TrackPointExtension>
            <ns3:atemp>20.0</ns3:atemp>
          </ns3:TrackPointExtension>
        </extensions>
      </trkpt>
      <trkpt lat="42.62139952741563320159912109375" lon="19.904901087284088134765625">
        <ele>1514.800048828125</ele>
        <time>2026-06-16T11:51:25.000Z</time>
        <extensions>
          <ns3:TrackPointExtension>
            <ns3:atemp>20.0</ns3:atemp>
          </ns3:TrackPointExtension>
        </extensions>
      </trkpt>
      <trkpt lat="42.6214259304106235504150390625" lon="19.904906451702117919921875">
        <ele>1514.5999755859375</ele>
        <time>2026-06-16T11:51:26.000Z</time>
        <extensions>
          <ns3:TrackPointExtension>
            <ns3:atemp>20.0</ns3:atemp>
          </ns3:TrackPointExtension>
        </extensions>
      </trkpt>
      <trkpt lat="42.62145568616688251495361328125" lon="19.90491022355854511260986328125">
        <ele>1514.4000244140625</ele>
        <time>2026-06-16T11:51:27.000Z</time>
        <extensions>
          <ns3:TrackPointExtension>
            <ns3:atemp>20.0</ns3:atemp>
          </ns3:TrackPointExtension>
        </extensions>
      </trkpt>
      <trkpt lat="42.62148871086537837982177734375" lon="19.90492983721196651458740234375">
        <ele>1514</ele>
        <time>2026-06-16T11:51:28.000Z</time>
        <extensions>
          <ns3:TrackPointExtension>
            <ns3:atemp>20.0</ns3:atemp>
          </ns3:TrackPointExtension>
        </extensions>
      </trkpt>
      <trkpt lat="42.6215275190770626068115234375" lon="19.9049434997141361236572265625">
        <ele>1513.5999755859375</ele>
        <time>2026-06-16T11:51:29.000Z</time>
        <extensions>
          <ns3:TrackPointExtension>
            <ns3:atemp>20.0</ns3:atemp>
          </ns3:TrackPointExtension>
        </extensions>
      </trkpt>
      <trkpt lat="42.62156934477388858795166015625" lon="19.90496872924268245697021484375">
        <ele>1512.800048828125</ele>
        <time>2026-06-16T11:51:30.000Z</time>
        <extensions>
          <ns3:TrackPointExtension>
            <ns3:atemp>20.0</ns3:atemp>
          </ns3:TrackPointExtension>
        </extensions>
      </trkpt>
      <trkpt lat="42.62162148021161556243896484375" lon="19.90499923937022686004638671875">
        <ele>1512</ele>
        <time>2026-06-16T11:51:31.000Z</time>
        <extensions>
          <ns3:TrackPointExtension>
            <ns3:atemp>20.0</ns3:atemp>
          </ns3:TrackPointExtension>
        </extensions>
      </trkpt>
      <trkpt lat="42.62166942469775676727294921875" lon="19.90503360517323017120361328125">
        <ele>1511.199951171875</ele>
        <time>2026-06-16T11:51:32.000Z</time>
        <extensions>
          <ns3:TrackPointExtension>
            <ns3:atemp>20.0</ns3:atemp>
          </ns3:TrackPointExtension>
        </extensions>
      </trkpt>
      <trkpt lat="42.62170873582363128662109375" lon="19.90506746806204319000244140625">
        <ele>1510.4000244140625</ele>
        <time>2026-06-16T11:51:33.000Z</time>
        <extensions>
          <ns3:TrackPointExtension>
            <ns3:atemp>20.0</ns3:atemp>
          </ns3:TrackPointExtension>
        </extensions>
      </trkpt>
      <trkpt lat="42.6217377372086048126220703125" lon="19.90508817136287689208984375">
        <ele>1509.5999755859375</ele>
        <time>2026-06-16T11:51:34.000Z</time>
        <extensions>
          <ns3:TrackPointExtension>
            <ns3:atemp>20.0</ns3:atemp>
          </ns3:TrackPointExtension>
        </extensions>
      </trkpt>
      <trkpt lat="42.62176548130810260772705078125" lon="19.90509831346571445465087890625">
        <ele>1508.800048828125</ele>
        <time>2026-06-16T11:51:35.000Z</time>
        <extensions>
          <ns3:TrackPointExtension>
            <ns3:atemp>20.0</ns3:atemp>
          </ns3:TrackPointExtension>
        </extensions>
      </trkpt>
      <trkpt lat="42.62179347686469554901123046875" lon="19.9051044322550296783447265625">
        <ele>1508.199951171875</ele>
        <time>2026-06-16T11:51:36.000Z</time>
        <extensions>
          <ns3:TrackPointExtension>
            <ns3:atemp>20.0</ns3:atemp>
          </ns3:TrackPointExtension>
        </extensions>
      </trkpt>
      <trkpt lat="42.62182415463030338287353515625" lon="19.90511633455753326416015625">
        <ele>1507.5999755859375</ele>
        <time>2026-06-16T11:51:37.000Z</time>
        <extensions>
          <ns3:TrackPointExtension>
            <ns3:atemp>20.0</ns3:atemp>
          </ns3:TrackPointExtension>
        </extensions>
      </trkpt>
      <trkpt lat="42.621854580938816070556640625" lon="19.9051372893154621124267578125">
        <ele>1507.199951171875</ele>
        <time>2026-06-16T11:51:38.000Z</time>
        <extensions>
          <ns3:TrackPointExtension>
            <ns3:atemp>20.0</ns3:atemp>
          </ns3:TrackPointExtension>
        </extensions>
      </trkpt>
      <trkpt lat="42.62188551016151905059814453125" lon="19.905168302357196807861328125">
        <ele>1506.5999755859375</ele>
        <time>2026-06-16T11:51:39.000Z</time>
        <extensions>
          <ns3:TrackPointExtension>
            <ns3:atemp>20.0</ns3:atemp>
          </ns3:TrackPointExtension>
        </extensions>
      </trkpt>
      <trkpt lat="42.62192825786769390106201171875" lon="19.905209206044673919677734375">
        <ele>1506.199951171875</ele>
        <time>2026-06-16T11:51:40.000Z</time>
        <extensions>
          <ns3:TrackPointExtension>
            <ns3:atemp>20.0</ns3:atemp>
          </ns3:TrackPointExtension>
        </extensions>
      </trkpt>
      <trkpt lat="42.62195818126201629638671875" lon="19.9052502773702144622802734375">
        <ele>1505.4000244140625</ele>
        <time>2026-06-16T11:51:41.000Z</time>
        <extensions>
          <ns3:TrackPointExtension>
            <ns3:atemp>20.0</ns3:atemp>
          </ns3:TrackPointExtension>
        </extensions>
      </trkpt>
      <trkpt lat="42.62198592536151409149169921875" lon="19.90529763512313365936279296875">
        <ele>1504.4000244140625</ele>
        <time>2026-06-16T11:51:42.000Z</time>
        <extensions>
          <ns3:TrackPointExtension>
            <ns3:atemp>20.0</ns3:atemp>
          </ns3:TrackPointExtension>
        </extensions>
      </trkpt>
      <trkpt lat="42.62201559729874134063720703125" lon="19.90534440614283084869384765625">
        <ele>1503.5999755859375</ele>
        <time>2026-06-16T11:51:43.000Z</time>
        <extensions>
          <ns3:TrackPointExtension>
            <ns3:atemp>20.0</ns3:atemp>
          </ns3:TrackPointExtension>
        </extensions>
      </trkpt>
      <trkpt lat="42.62203705497086048126220703125" lon="19.90539394319057464599609375">
        <ele>1502.5999755859375</ele>
        <time>2026-06-16T11:51:44.000Z</time>
        <extensions>
          <ns3:TrackPointExtension>
            <ns3:atemp>20.0</ns3:atemp>
          </ns3:TrackPointExtension>
        </extensions>
      </trkpt>
      <trkpt lat="42.62205918319523334503173828125" lon="19.90544850938022136688232421875">
        <ele>1501.5999755859375</ele>
        <time>2026-06-16T11:51:45.000Z</time>
        <extensions>
          <ns3:TrackPointExtension>
            <ns3:atemp>20.0</ns3:atemp>
          </ns3:TrackPointExtension>
        </extensions>
      </trkpt>
      <trkpt lat="42.62207762338221073150634765625" lon="19.905496872961521148681640625">
        <ele>1500.5999755859375</ele>
        <time>2026-06-16T11:51:46.000Z</time>
        <extensions>
          <ns3:TrackPointExtension>
            <ns3:atemp>20.0</ns3:atemp>
          </ns3:TrackPointExtension>
        </extensions>
      </trkpt>
      <trkpt lat="42.62209421955049037933349609375" lon="19.90554674528539180755615234375">
        <ele>1499.199951171875</ele>
        <time>2026-06-16T11:51:47.000Z</time>
        <extensions>
          <ns3:TrackPointExtension>
            <ns3:atemp>20.0</ns3:atemp>
          </ns3:TrackPointExtension>
        </extensions>
      </trkpt>
      <trkpt lat="42.62210947461426258087158203125" lon="19.90560323931276798248291015625">
        <ele>1497.800048828125</ele>
        <time>2026-06-16T11:51:48.000Z</time>
        <extensions>
          <ns3:TrackPointExtension>
            <ns3:atemp>20.0</ns3:atemp>
          </ns3:TrackPointExtension>
        </extensions>
      </trkpt>
      <trkpt lat="42.62213143520057201385498046875" lon="19.905668199062347412109375">
        <ele>1496</ele>
        <time>2026-06-16T11:51:49.000Z</time>
        <extensions>
          <ns3:TrackPointExtension>
            <ns3:atemp>20.0</ns3:atemp>
          </ns3:TrackPointExtension>
        </extensions>
      </trkpt>
      <trkpt lat="42.622146271169185638427734375" lon="19.905728213489055633544921875">
        <ele>1494.199951171875</ele>
        <time>2026-06-16T11:51:50.000Z</time>
        <extensions>
          <ns3:TrackPointExtension>
            <ns3:atemp>20.0</ns3:atemp>
          </ns3:TrackPointExtension>
        </extensions>
      </trkpt>
      <trkpt lat="42.62215406633913516998291015625" lon="19.90579987876117229461669921875">
        <ele>1492.800048828125</ele>
        <time>2026-06-16T11:51:51.000Z</time>
        <extensions>
          <ns3:TrackPointExtension>
            <ns3:atemp>20.0</ns3:atemp>
          </ns3:TrackPointExtension>
        </extensions>
      </trkpt>
      <trkpt lat="42.6221786253154277801513671875" lon="19.9058722145855426788330078125">
        <ele>1491</ele>
        <time>2026-06-16T11:51:52.000Z</time>
        <extensions>
          <ns3:TrackPointExtension>
            <ns3:atemp>20.0</ns3:atemp>
          </ns3:TrackPointExtension>
        </extensions>
      </trkpt>
      <trkpt lat="42.6222131587564945220947265625" lon="19.90594337694346904754638671875">
        <ele>1489.4000244140625</ele>
        <time>2026-06-16T11:51:53.000Z</time>
        <extensions>
          <ns3:TrackPointExtension>
            <ns3:atemp>20.0</ns3:atemp>
          </ns3:TrackPointExtension>
        </extensions>
      </trkpt>
      <trkpt lat="42.62225590646266937255859375" lon="19.906013198196887969970703125">
        <ele>1487.800048828125</ele>
        <time>2026-06-16T11:51:54.000Z</time>
        <extensions>
          <ns3:TrackPointExtension>
            <ns3:atemp>20.0</ns3:atemp>
          </ns3:TrackPointExtension>
        </extensions>
      </trkpt>
      <trkpt lat="42.622288428246974945068359375" lon="19.906070195138454437255859375">
        <ele>1485.5999755859375</ele>
        <time>2026-06-16T11:51:55.000Z</time>
        <extensions>
          <ns3:TrackPointExtension>
            <ns3:atemp>20.0</ns3:atemp>
          </ns3:TrackPointExtension>
        </extensions>
      </trkpt>
      <trkpt lat="42.6223224587738513946533203125" lon="19.90612140856683254241943359375">
        <ele>1484.199951171875</ele>
        <time>2026-06-16T11:51:56.000Z</time>
        <extensions>
          <ns3:TrackPointExtension>
            <ns3:atemp>20.0</ns3:atemp>
          </ns3:TrackPointExtension>
        </extensions>
      </trkpt>
      <trkpt lat="42.62233343906700611114501953125" lon="19.90618678741157054901123046875">
        <ele>1482.800048828125</ele>
        <time>2026-06-16T11:51:57.000Z</time>
        <extensions>
          <ns3:TrackPointExtension>
            <ns3:atemp>20.0</ns3:atemp>
          </ns3:TrackPointExtension>
        </extensions>
      </trkpt>
      <trkpt lat="42.62235707603394985198974609375" lon="19.90626038052141666412353515625">
        <ele>1481.4000244140625</ele>
        <time>2026-06-16T11:51:58.000Z</time>
        <extensions>
          <ns3:TrackPointExtension>
            <ns3:atemp>20.0</ns3:atemp>
          </ns3:TrackPointExtension>
        </extensions>
      </trkpt>
      <trkpt lat="42.62238255701959133148193359375" lon="19.90634084679186344146728515625">
        <ele>1480</ele>
        <time>2026-06-16T11:51:59.000Z</time>
        <extensions>
          <ns3:TrackPointExtension>
            <ns3:atemp>20.0</ns3:atemp>
          </ns3:TrackPointExtension>
        </extensions>
      </trkpt>
      <trkpt lat="42.62240250594913959503173828125" lon="19.9063982628285884857177734375">
        <ele>1478.800048828125</ele>
        <time>2026-06-16T11:52:00.000Z</time>
        <extensions>
          <ns3:TrackPointExtension>
            <ns3:atemp>20.0</ns3:atemp>
          </ns3:TrackPointExtension>
        </extensions>
      </trkpt>
      <trkpt lat="42.62241440825164318084716796875" lon="19.90643271245062351226806640625">
        <ele>1477.199951171875</ele>
        <time>2026-06-16T11:52:01.000Z</time>
        <extensions>
          <ns3:TrackPointExtension>
            <ns3:atemp>20.0</ns3:atemp>
          </ns3:TrackPointExtension>
        </extensions>
      </trkpt>
      <trkpt lat="42.6224270649254322052001953125" lon="19.9064634740352630615234375">
        <ele>1476.199951171875</ele>
        <time>2026-06-16T11:52:02.000Z</time>
        <extensions>
          <ns3:TrackPointExtension>
            <ns3:atemp>20.0</ns3:atemp>
          </ns3:TrackPointExtension>
        </extensions>
      </trkpt>
      <trkpt lat="42.62244072742760181427001953125" lon="19.90648501552641391754150390625">
        <ele>1475.4000244140625</ele>
        <time>2026-06-16T11:52:03.000Z</time>
        <extensions>
          <ns3:TrackPointExtension>
            <ns3:atemp>20.0</ns3:atemp>
          </ns3:TrackPointExtension>
        </extensions>
      </trkpt>
      <trkpt lat="42.62245212681591510772705078125" lon="19.90649708546698093414306640625">
        <ele>1474.5999755859375</ele>
        <time>2026-06-16T11:52:04.000Z</time>
        <extensions>
          <ns3:TrackPointExtension>
            <ns3:atemp>20.0</ns3:atemp>
          </ns3:TrackPointExtension>
        </extensions>
      </trkpt>
      <trkpt lat="42.62246017344295978546142578125" lon="19.90650529973208904266357421875">
        <ele>1474</ele>
        <time>2026-06-16T11:52:05.000Z</time>
        <extensions>
          <ns3:TrackPointExtension>
            <ns3:atemp>20.0</ns3:atemp>
          </ns3:TrackPointExtension>
        </extensions>
      </trkpt>
      <trkpt lat="42.6224602572619915008544921875" lon="19.90650563500821590423583984375">
        <ele>1473.4000244140625</ele>
        <time>2026-06-16T11:52:06.000Z</time>
        <extensions>
          <ns3:TrackPointExtension>
            <ns3:atemp>20.0</ns3:atemp>
          </ns3:TrackPointExtension>
        </extensions>
      </trkpt>
      <trkpt lat="42.6224602572619915008544921875" lon="19.90650563500821590423583984375">
        <ele>1472.800048828125</ele>
        <time>2026-06-16T11:52:07.000Z</time>
        <extensions>
          <ns3:TrackPointExtension>
            <ns3:atemp>20.0</ns3:atemp>
          </ns3:TrackPointExtension>
        </extensions>
      </trkpt>
      <trkpt lat="42.6224602572619915008544921875" lon="19.90650563500821590423583984375">
        <ele>1472.5999755859375</ele>
        <time>2026-06-16T11:52:08.000Z</time>
        <extensions>
          <ns3:TrackPointExtension>
            <ns3:atemp>20.0</ns3:atemp>
          </ns3:TrackPointExtension>
        </extensions>
      </trkpt>
      <trkpt lat="42.6224602572619915008544921875" lon="19.90650563500821590423583984375">
        <ele>1472.4000244140625</ele>
        <time>2026-06-16T11:52:09.000Z</time>
        <extensions>
          <ns3:TrackPointExtension>
            <ns3:atemp>20.0</ns3:atemp>
          </ns3:TrackPointExtension>
        </extensions>
      </trkpt>
      <trkpt lat="42.6224602572619915008544921875" lon="19.90650563500821590423583984375">
        <ele>1472.199951171875</ele>
        <time>2026-06-16T11:52:10.000Z</time>
        <extensions>
          <ns3:TrackPointExtension>
            <ns3:atemp>20.0</ns3:atemp>
          </ns3:TrackPointExtension>
        </extensions>
      </trkpt>
      <trkpt lat="42.6224615983664989471435546875" lon="19.90650898776948451995849609375">
        <ele>1472</ele>
        <time>2026-06-16T11:52:11.000Z</time>
        <extensions>
          <ns3:TrackPointExtension>
            <ns3:atemp>20.0</ns3:atemp>
          </ns3:TrackPointExtension>
        </extensions>
      </trkpt>
      <trkpt lat="42.62246218509972095489501953125" lon="19.906533546745777130126953125">
        <ele>1472</ele>
        <time>2026-06-16T11:52:12.000Z</time>
        <extensions>
          <ns3:TrackPointExtension>
            <ns3:atemp>20.0</ns3:atemp>
          </ns3:TrackPointExtension>
        </extensions>
      </trkpt>
      <trkpt lat="42.62247157283127307891845703125" lon="19.9065474607050418853759765625">
        <ele>1472</ele>
        <time>2026-06-16T11:52:13.000Z</time>
        <extensions>
          <ns3:TrackPointExtension>
            <ns3:atemp>20.0</ns3:atemp>
          </ns3:TrackPointExtension>
        </extensions>
      </trkpt>
      <trkpt lat="42.6224780268967151641845703125" lon="19.90655425004661083221435546875">
        <ele>1472</ele>
        <time>2026-06-16T11:52:14.000Z</time>
        <extensions>
          <ns3:TrackPointExtension>
            <ns3:atemp>20.0</ns3:atemp>
          </ns3:TrackPointExtension>
        </extensions>
      </trkpt>
      <trkpt lat="42.62247811071574687957763671875" lon="19.90655425004661083221435546875">
        <ele>1471.800048828125</ele>
        <time>2026-06-16T11:52:15.000Z</time>
        <extensions>
          <ns3:TrackPointExtension>
            <ns3:atemp>20.0</ns3:atemp>
          </ns3:TrackPointExtension>
        </extensions>
      </trkpt>
      <trkpt lat="42.6224847324192523956298828125" lon="19.90654821507632732391357421875">
        <ele>1471.800048828125</ele>
        <time>2026-06-16T11:52:16.000Z</time>
        <extensions>
          <ns3:TrackPointExtension>
            <ns3:atemp>20.0</ns3:atemp>
          </ns3:TrackPointExtension>
        </extensions>
      </trkpt>
      <trkpt lat="42.62249118648469448089599609375" lon="19.90654620341956615447998046875">
        <ele>1471.800048828125</ele>
        <time>2026-06-16T11:52:17.000Z</time>
        <extensions>
          <ns3:TrackPointExtension>
            <ns3:atemp>20.0</ns3:atemp>
          </ns3:TrackPointExtension>
        </extensions>
      </trkpt>
      <trkpt lat="42.622492946684360504150390625" lon="19.9065511487424373626708984375">
        <ele>1471.800048828125</ele>
        <time>2026-06-16T11:52:18.000Z</time>
        <extensions>
          <ns3:TrackPointExtension>
            <ns3:atemp>20.0</ns3:atemp>
          </ns3:TrackPointExtension>
        </extensions>
      </trkpt>
      <trkpt lat="42.62249018065631389617919921875" lon="19.90655265748500823974609375">
        <ele>1471.800048828125</ele>
        <time>2026-06-16T11:52:19.000Z</time>
        <extensions>
          <ns3:TrackPointExtension>
            <ns3:atemp>20.0</ns3:atemp>
          </ns3:TrackPointExtension>
        </extensions>
      </trkpt>
      <trkpt lat="42.62248833663761615753173828125" lon="19.90655894391238689422607421875">
        <ele>1471.800048828125</ele>
        <time>2026-06-16T11:52:20.000Z</time>
        <extensions>
          <ns3:TrackPointExtension>
            <ns3:atemp>20.0</ns3:atemp>
          </ns3:TrackPointExtension>
        </extensions>
      </trkpt>
      <trkpt lat="42.62249328196048736572265625" lon="19.90656916983425617218017578125">
        <ele>1471.800048828125</ele>
        <time>2026-06-16T11:52:21.000Z</time>
        <extensions>
          <ns3:TrackPointExtension>
            <ns3:atemp>20.0</ns3:atemp>
          </ns3:TrackPointExtension>
        </extensions>
      </trkpt>
      <trkpt lat="42.62249889783561229705810546875" lon="19.90657947957515716552734375">
        <ele>1471.800048828125</ele>
        <time>2026-06-16T11:52:22.000Z</time>
        <extensions>
          <ns3:TrackPointExtension>
            <ns3:atemp>20.0</ns3:atemp>
          </ns3:TrackPointExtension>
        </extensions>
      </trkpt>
      <trkpt lat="42.62250761501491069793701171875" lon="19.9065913818776607513427734375">
        <ele>1471.5999755859375</ele>
        <time>2026-06-16T11:52:23.000Z</time>
        <extensions>
          <ns3:TrackPointExtension>
            <ns3:atemp>20.0</ns3:atemp>
          </ns3:TrackPointExtension>
        </extensions>
      </trkpt>
      <trkpt lat="42.62251985259354114532470703125" lon="19.90659800358116626739501953125">
        <ele>1471.4000244140625</ele>
        <time>2026-06-16T11:52:24.000Z</time>
        <extensions>
          <ns3:TrackPointExtension>
            <ns3:atemp>20.0</ns3:atemp>
          </ns3:TrackPointExtension>
        </extensions>
      </trkpt>
      <trkpt lat="42.62253041379153728485107421875" lon="19.90660873241722583770751953125">
        <ele>1471.199951171875</ele>
        <time>2026-06-16T11:52:25.000Z</time>
        <extensions>
          <ns3:TrackPointExtension>
            <ns3:atemp>20.0</ns3:atemp>
          </ns3:TrackPointExtension>
        </extensions>
      </trkpt>
      <trkpt lat="42.622534520924091339111328125" lon="19.90662834607064723968505859375">
        <ele>1471</ele>
        <time>2026-06-16T11:52:26.000Z</time>
        <extensions>
          <ns3:TrackPointExtension>
            <ns3:atemp>20.0</ns3:atemp>
          </ns3:TrackPointExtension>
        </extensions>
      </trkpt>
      <trkpt lat="42.62253862805664539337158203125" lon="19.90664561279118061065673828125">
        <ele>1470.800048828125</ele>
        <time>2026-06-16T11:52:27.000Z</time>
        <extensions>
          <ns3:TrackPointExtension>
            <ns3:atemp>20.0</ns3:atemp>
          </ns3:TrackPointExtension>
        </extensions>
      </trkpt>
      <trkpt lat="42.62253820896148681640625" lon="19.90665298886597156524658203125">
        <ele>1470.4000244140625</ele>
        <time>2026-06-16T11:52:28.000Z</time>
        <extensions>
          <ns3:TrackPointExtension>
            <ns3:atemp>20.0</ns3:atemp>
          </ns3:TrackPointExtension>
        </extensions>
      </trkpt>
      <trkpt lat="42.6225373707711696624755859375" lon="19.90666220895946025848388671875">
        <ele>1470.199951171875</ele>
        <time>2026-06-16T11:52:29.000Z</time>
        <extensions>
          <ns3:TrackPointExtension>
            <ns3:atemp>20.0</ns3:atemp>
          </ns3:TrackPointExtension>
        </extensions>
      </trkpt>
      <trkpt lat="42.62253393419086933135986328125" lon="19.9066792242228984832763671875">
        <ele>1470</ele>
        <time>2026-06-16T11:52:30.000Z</time>
        <extensions>
          <ns3:TrackPointExtension>
            <ns3:atemp>20.0</ns3:atemp>
          </ns3:TrackPointExtension>
        </extensions>
      </trkpt>
      <trkpt lat="42.622528485953807830810546875" lon="19.90669137798249721527099609375">
        <ele>1469.5999755859375</ele>
        <time>2026-06-16T11:52:31.000Z</time>
        <extensions>
          <ns3:TrackPointExtension>
            <ns3:atemp>20.0</ns3:atemp>
          </ns3:TrackPointExtension>
        </extensions>
      </trkpt>
      <trkpt lat="42.6225185953080654144287109375" lon="19.9067036993801593780517578125">
        <ele>1469.199951171875</ele>
        <time>2026-06-16T11:52:32.000Z</time>
        <extensions>
          <ns3:TrackPointExtension>
            <ns3:atemp>20.0</ns3:atemp>
          </ns3:TrackPointExtension>
        </extensions>
      </trkpt>
      <trkpt lat="42.62250996194779872894287109375" lon="19.906722642481327056884765625">
        <ele>1468.800048828125</ele>
        <time>2026-06-16T11:52:33.000Z</time>
        <extensions>
          <ns3:TrackPointExtension>
            <ns3:atemp>20.0</ns3:atemp>
          </ns3:TrackPointExtension>
        </extensions>
      </trkpt>
      <trkpt lat="42.6225046813488006591796875" lon="19.90674200467765331268310546875">
        <ele>1468.4000244140625</ele>
        <time>2026-06-16T11:52:34.000Z</time>
        <extensions>
          <ns3:TrackPointExtension>
            <ns3:atemp>20.0</ns3:atemp>
          </ns3:TrackPointExtension>
        </extensions>
      </trkpt>
      <trkpt lat="42.6225006580352783203125" lon="19.906766228377819061279296875">
        <ele>1468</ele>
        <time>2026-06-16T11:52:35.000Z</time>
        <extensions>
          <ns3:TrackPointExtension>
            <ns3:atemp>20.0</ns3:atemp>
          </ns3:TrackPointExtension>
        </extensions>
      </trkpt>
      <trkpt lat="42.62250074185431003570556640625" lon="19.90678156726062297821044921875">
        <ele>1467.4000244140625</ele>
        <time>2026-06-16T11:52:36.000Z</time>
        <extensions>
          <ns3:TrackPointExtension>
            <ns3:atemp>20.0</ns3:atemp>
          </ns3:TrackPointExtension>
        </extensions>
      </trkpt>
      <trkpt lat="42.62251012958586215972900390625" lon="19.90679145790636539459228515625">
        <ele>1466.800048828125</ele>
        <time>2026-06-16T11:52:37.000Z</time>
        <extensions>
          <ns3:TrackPointExtension>
            <ns3:atemp>20.0</ns3:atemp>
          </ns3:TrackPointExtension>
        </extensions>
      </trkpt>
      <trkpt lat="42.6225212775170803070068359375" lon="19.9067959003150463104248046875">
        <ele>1466</ele>
        <time>2026-06-16T11:52:38.000Z</time>
        <extensions>
          <ns3:TrackPointExtension>
            <ns3:atemp>20.0</ns3:atemp>
          </ns3:TrackPointExtension>
        </extensions>
      </trkpt>
      <trkpt lat="42.62253007851541042327880859375" lon="19.90680051036179065704345703125">
        <ele>1465.5999755859375</ele>
        <time>2026-06-16T11:52:39.000Z</time>
        <extensions>
          <ns3:TrackPointExtension>
            <ns3:atemp>20.0</ns3:atemp>
          </ns3:TrackPointExtension>
        </extensions>
      </trkpt>
      <trkpt lat="42.62254835106432437896728515625" lon="19.90680470131337642669677734375">
        <ele>1465</ele>
        <time>2026-06-16T11:52:40.000Z</time>
        <extensions>
          <ns3:TrackPointExtension>
            <ns3:atemp>20.0</ns3:atemp>
          </ns3:TrackPointExtension>
        </extensions>
      </trkpt>
      <trkpt lat="42.6225719042122364044189453125" lon="19.90681543014943599700927734375">
        <ele>1464.5999755859375</ele>
        <time>2026-06-16T11:52:41.000Z</time>
        <extensions>
          <ns3:TrackPointExtension>
            <ns3:atemp>20.0</ns3:atemp>
          </ns3:TrackPointExtension>
        </extensions>
      </trkpt>
      <trkpt lat="42.6226119697093963623046875" lon="19.9068287573754787445068359375">
        <ele>1464</ele>
        <time>2026-06-16T11:52:42.000Z</time>
        <extensions>
          <ns3:TrackPointExtension>
            <ns3:atemp>20.0</ns3:atemp>
          </ns3:TrackPointExtension>
        </extensions>
      </trkpt>
      <trkpt lat="42.6226443238556385040283203125" lon="19.906843006610870361328125">
        <ele>1463.4000244140625</ele>
        <time>2026-06-16T11:52:43.000Z</time>
        <extensions>
          <ns3:TrackPointExtension>
            <ns3:atemp>20.0</ns3:atemp>
          </ns3:TrackPointExtension>
        </extensions>
      </trkpt>
      <trkpt lat="42.6226815395057201385498046875" lon="19.90685616619884967803955078125">
        <ele>1462.199951171875</ele>
        <time>2026-06-16T11:52:44.000Z</time>
        <extensions>
          <ns3:TrackPointExtension>
            <ns3:atemp>20.0</ns3:atemp>
          </ns3:TrackPointExtension>
        </extensions>
      </trkpt>
      <trkpt lat="42.6227200962603092193603515625" lon="19.90687108598649501800537109375">
        <ele>1461.4000244140625</ele>
        <time>2026-06-16T11:52:45.000Z</time>
        <extensions>
          <ns3:TrackPointExtension>
            <ns3:atemp>20.0</ns3:atemp>
          </ns3:TrackPointExtension>
        </extensions>
      </trkpt>
      <trkpt lat="42.62274633161723613739013671875" lon="19.90689287893474102020263671875">
        <ele>1460.5999755859375</ele>
        <time>2026-06-16T11:52:46.000Z</time>
        <extensions>
          <ns3:TrackPointExtension>
            <ns3:atemp>20.0</ns3:atemp>
          </ns3:TrackPointExtension>
        </extensions>
      </trkpt>
      <trkpt lat="42.62276845984160900115966796875" lon="19.90691098384559154510498046875">
        <ele>1459.5999755859375</ele>
        <time>2026-06-16T11:52:47.000Z</time>
        <extensions>
          <ns3:TrackPointExtension>
            <ns3:atemp>20.0</ns3:atemp>
          </ns3:TrackPointExtension>
        </extensions>
      </trkpt>
      <trkpt lat="42.62279234826564788818359375" lon="19.90692422725260257720947265625">
        <ele>1458.800048828125</ele>
        <time>2026-06-16T11:52:48.000Z</time>
        <extensions>
          <ns3:TrackPointExtension>
            <ns3:atemp>20.0</ns3:atemp>
          </ns3:TrackPointExtension>
        </extensions>
      </trkpt>
      <trkpt lat="42.62281036935746669769287109375" lon="19.9069430865347385406494140625">
        <ele>1457.800048828125</ele>
        <time>2026-06-16T11:52:49.000Z</time>
        <extensions>
          <ns3:TrackPointExtension>
            <ns3:atemp>20.0</ns3:atemp>
          </ns3:TrackPointExtension>
        </extensions>
      </trkpt>
      <trkpt lat="42.622820176184177398681640625" lon="19.906962029635906219482421875">
        <ele>1456.800048828125</ele>
        <time>2026-06-16T11:52:50.000Z</time>
        <extensions>
          <ns3:TrackPointExtension>
            <ns3:atemp>20.0</ns3:atemp>
          </ns3:TrackPointExtension>
        </extensions>
      </trkpt>
      <trkpt lat="42.6228226907551288604736328125" lon="19.90698675625026226043701171875">
        <ele>1456</ele>
        <time>2026-06-16T11:52:51.000Z</time>
        <extensions>
          <ns3:TrackPointExtension>
            <ns3:atemp>20.0</ns3:atemp>
          </ns3:TrackPointExtension>
        </extensions>
      </trkpt>
      <trkpt lat="42.62282495386898517608642578125" lon="19.90701709873974323272705078125">
        <ele>1455.199951171875</ele>
        <time>2026-06-16T11:52:52.000Z</time>
        <extensions>
          <ns3:TrackPointExtension>
            <ns3:atemp>20.0</ns3:atemp>
          </ns3:TrackPointExtension>
        </extensions>
      </trkpt>
      <trkpt lat="42.62282981537282466888427734375" lon="19.9070466868579387664794921875">
        <ele>1454.4000244140625</ele>
        <time>2026-06-16T11:52:53.000Z</time>
        <extensions>
          <ns3:TrackPointExtension>
            <ns3:atemp>20.0</ns3:atemp>
          </ns3:TrackPointExtension>
        </extensions>
      </trkpt>
      <trkpt lat="42.6228367723524570465087890625" lon="19.90708247758448123931884765625">
        <ele>1453.5999755859375</ele>
        <time>2026-06-16T11:52:54.000Z</time>
        <extensions>
          <ns3:TrackPointExtension>
            <ns3:atemp>20.0</ns3:atemp>
          </ns3:TrackPointExtension>
        </extensions>
      </trkpt>
      <trkpt lat="42.62284138239920139312744140625" lon="19.90711114369332790374755859375">
        <ele>1452.5999755859375</ele>
        <time>2026-06-16T11:52:55.000Z</time>
        <extensions>
          <ns3:TrackPointExtension>
            <ns3:atemp>20.0</ns3:atemp>
          </ns3:TrackPointExtension>
        </extensions>
      </trkpt>
      <trkpt lat="42.62284758500754833221435546875" lon="19.90714115090668201446533203125">
        <ele>1451.800048828125</ele>
        <time>2026-06-16T11:52:56.000Z</time>
        <extensions>
          <ns3:TrackPointExtension>
            <ns3:atemp>20.0</ns3:atemp>
          </ns3:TrackPointExtension>
        </extensions>
      </trkpt>
      <trkpt lat="42.62286468409001827239990234375" lon="19.90715154446661472320556640625">
        <ele>1450.5999755859375</ele>
        <time>2026-06-16T11:52:57.000Z</time>
        <extensions>
          <ns3:TrackPointExtension>
            <ns3:atemp>20.0</ns3:atemp>
          </ns3:TrackPointExtension>
        </extensions>
      </trkpt>
      <trkpt lat="42.62289402075111865997314453125" lon="19.9071647040545940399169921875">
        <ele>1449.800048828125</ele>
        <time>2026-06-16T11:52:58.000Z</time>
        <extensions>
          <ns3:TrackPointExtension>
            <ns3:atemp>20.0</ns3:atemp>
          </ns3:TrackPointExtension>
        </extensions>
      </trkpt>
      <trkpt lat="42.6229333318769931793212890625" lon="19.907184652984142303466796875">
        <ele>1448.800048828125</ele>
        <time>2026-06-16T11:52:59.000Z</time>
        <extensions>
          <ns3:TrackPointExtension>
            <ns3:atemp>20.0</ns3:atemp>
          </ns3:TrackPointExtension>
        </extensions>
      </trkpt>
      <trkpt lat="42.62296124361455440521240234375" lon="19.90721650421619415283203125">
        <ele>1448</ele>
        <time>2026-06-16T11:53:00.000Z</time>
        <extensions>
          <ns3:TrackPointExtension>
            <ns3:atemp>20.0</ns3:atemp>
          </ns3:TrackPointExtension>
        </extensions>
      </trkpt>
      <trkpt lat="42.62297876179218292236328125" lon="19.90725832991302013397216796875">
        <ele>1447</ele>
        <time>2026-06-16T11:53:01.000Z</time>
        <extensions>
          <ns3:TrackPointExtension>
            <ns3:atemp>20.0</ns3:atemp>
          </ns3:TrackPointExtension>
        </extensions>
      </trkpt>
      <trkpt lat="42.6230087690055370330810546875" lon="19.90730644203722476959228515625">
        <ele>1446</ele>
        <time>2026-06-16T11:53:02.000Z</time>
        <extensions>
          <ns3:TrackPointExtension>
            <ns3:atemp>20.0</ns3:atemp>
          </ns3:TrackPointExtension>
        </extensions>
      </trkpt>
      <trkpt lat="42.62304204516112804412841796875" lon="19.9073641933500766754150390625">
        <ele>1444.5999755859375</ele>
        <time>2026-06-16T11:53:03.000Z</time>
        <extensions>
          <ns3:TrackPointExtension>
            <ns3:atemp>20.0</ns3:atemp>
          </ns3:TrackPointExtension>
        </extensions>
      </trkpt>
      <trkpt lat="42.62308462522923946380615234375" lon="19.9074403010308742523193359375">
        <ele>1443.4000244140625</ele>
        <time>2026-06-16T11:53:04.000Z</time>
        <extensions>
          <ns3:TrackPointExtension>
            <ns3:atemp>20.0</ns3:atemp>
          </ns3:TrackPointExtension>
        </extensions>
      </trkpt>
      <trkpt lat="42.62313843704760074615478515625" lon="19.907515235245227813720703125">
        <ele>1441.800048828125</ele>
        <time>2026-06-16T11:53:05.000Z</time>
        <extensions>
          <ns3:TrackPointExtension>
            <ns3:atemp>20.0</ns3:atemp>
          </ns3:TrackPointExtension>
        </extensions>
      </trkpt>
      <trkpt lat="42.62318621389567852020263671875" lon="19.9075925163924694061279296875">
        <ele>1440.199951171875</ele>
        <time>2026-06-16T11:53:06.000Z</time>
        <extensions>
          <ns3:TrackPointExtension>
            <ns3:atemp>20.0</ns3:atemp>
          </ns3:TrackPointExtension>
        </extensions>
      </trkpt>
      <trkpt lat="42.62325192801654338836669921875" lon="19.9076811969280242919921875">
        <ele>1438.5999755859375</ele>
        <time>2026-06-16T11:53:07.000Z</time>
        <extensions>
          <ns3:TrackPointExtension>
            <ns3:atemp>20.0</ns3:atemp>
          </ns3:TrackPointExtension>
        </extensions>
      </trkpt>
      <trkpt lat="42.62330339290201663970947265625" lon="19.90775923244655132293701171875">
        <ele>1437</ele>
        <time>2026-06-16T11:53:08.000Z</time>
        <extensions>
          <ns3:TrackPointExtension>
            <ns3:atemp>20.0</ns3:atemp>
          </ns3:TrackPointExtension>
        </extensions>
      </trkpt>
      <trkpt lat="42.62335502542555332183837890625" lon="19.907833747565746307373046875">
        <ele>1435</ele>
        <time>2026-06-16T11:53:09.000Z</time>
        <extensions>
          <ns3:TrackPointExtension>
            <ns3:atemp>20.0</ns3:atemp>
          </ns3:TrackPointExtension>
        </extensions>
      </trkpt>
      <trkpt lat="42.62340548448264598846435546875" lon="19.90790340118110179901123046875">
        <ele>1434</ele>
        <time>2026-06-16T11:53:10.000Z</time>
        <extensions>
          <ns3:TrackPointExtension>
            <ns3:atemp>20.0</ns3:atemp>
          </ns3:TrackPointExtension>
        </extensions>
      </trkpt>
      <trkpt lat="42.6234603859484195709228515625" lon="19.90797816775739192962646484375">
        <ele>1432.800048828125</ele>
        <time>2026-06-16T11:53:11.000Z</time>
        <extensions>
          <ns3:TrackPointExtension>
            <ns3:atemp>20.0</ns3:atemp>
          </ns3:TrackPointExtension>
        </extensions>
      </trkpt>
      <trkpt lat="42.62351796962320804595947265625" lon="19.9080511741340160369873046875">
        <ele>1431.800048828125</ele>
        <time>2026-06-16T11:53:12.000Z</time>
        <extensions>
          <ns3:TrackPointExtension>
            <ns3:atemp>20.0</ns3:atemp>
          </ns3:TrackPointExtension>
        </extensions>
      </trkpt>
      <trkpt lat="42.6235643215477466583251953125" lon="19.90811630152165889739990234375">
        <ele>1430.800048828125</ele>
        <time>2026-06-16T11:53:13.000Z</time>
        <extensions>
          <ns3:TrackPointExtension>
            <ns3:atemp>20.0</ns3:atemp>
          </ns3:TrackPointExtension>
        </extensions>
      </trkpt>
      <trkpt lat="42.62360732071101665496826171875" lon="19.90816709585487842559814453125">
        <ele>1430</ele>
        <time>2026-06-16T11:53:14.000Z</time>
        <extensions>
          <ns3:TrackPointExtension>
            <ns3:atemp>20.0</ns3:atemp>
          </ns3:TrackPointExtension>
        </extensions>
      </trkpt>
      <trkpt lat="42.6236266829073429107666015625" lon="19.90820229984819889068603515625">
        <ele>1429</ele>
        <time>2026-06-16T11:53:15.000Z</time>
        <extensions>
          <ns3:TrackPointExtension>
            <ns3:atemp>20.0</ns3:atemp>
          </ns3:TrackPointExtension>
        </extensions>
      </trkpt>
      <trkpt lat="42.623638249933719635009765625" lon="19.9082417786121368408203125">
        <ele>1428.199951171875</ele>
        <time>2026-06-16T11:53:16.000Z</time>
        <extensions>
          <ns3:TrackPointExtension>
            <ns3:atemp>20.0</ns3:atemp>
          </ns3:TrackPointExtension>
        </extensions>
      </trkpt>
      <trkpt lat="42.62364663183689117431640625" lon="19.908264577388763427734375">
        <ele>1427.5999755859375</ele>
        <time>2026-06-16T11:53:17.000Z</time>
        <extensions>
          <ns3:TrackPointExtension>
            <ns3:atemp>20.0</ns3:atemp>
          </ns3:TrackPointExtension>
        </extensions>
      </trkpt>
      <trkpt lat="42.6236633956432342529296875" lon="19.90828226320445537567138671875">
        <ele>1427.199951171875</ele>
        <time>2026-06-16T11:53:18.000Z</time>
        <extensions>
          <ns3:TrackPointExtension>
            <ns3:atemp>20.0</ns3:atemp>
          </ns3:TrackPointExtension>
        </extensions>
      </trkpt>
      <trkpt lat="42.62368275783956050872802734375" lon="19.9082969315350055694580078125">
        <ele>1426.5999755859375</ele>
        <time>2026-06-16T11:53:19.000Z</time>
        <extensions>
          <ns3:TrackPointExtension>
            <ns3:atemp>20.0</ns3:atemp>
          </ns3:TrackPointExtension>
        </extensions>
      </trkpt>
      <trkpt lat="42.623701952397823333740234375" lon="19.90830455906689167022705078125">
        <ele>1426.199951171875</ele>
        <time>2026-06-16T11:53:20.000Z</time>
        <extensions>
          <ns3:TrackPointExtension>
            <ns3:atemp>20.0</ns3:atemp>
          </ns3:TrackPointExtension>
        </extensions>
      </trkpt>
      <trkpt lat="42.62371142394840717315673828125" lon="19.908311180770397186279296875">
        <ele>1425.800048828125</ele>
        <time>2026-06-16T11:53:21.000Z</time>
        <extensions>
          <ns3:TrackPointExtension>
            <ns3:atemp>20.0</ns3:atemp>
          </ns3:TrackPointExtension>
        </extensions>
      </trkpt>
      <trkpt lat="42.62371175922453403472900390625" lon="19.90832400508224964141845703125">
        <ele>1425.5999755859375</ele>
        <time>2026-06-16T11:53:22.000Z</time>
        <extensions>
          <ns3:TrackPointExtension>
            <ns3:atemp>20.0</ns3:atemp>
          </ns3:TrackPointExtension>
        </extensions>
      </trkpt>
      <trkpt lat="42.62371175922453403472900390625" lon="19.90832400508224964141845703125">
        <ele>1425.4000244140625</ele>
        <time>2026-06-16T11:53:23.000Z</time>
        <extensions>
          <ns3:TrackPointExtension>
            <ns3:atemp>20.0</ns3:atemp>
          </ns3:TrackPointExtension>
        </extensions>
      </trkpt>
      <trkpt lat="42.62371175922453403472900390625" lon="19.90832400508224964141845703125">
        <ele>1425.4000244140625</ele>
        <time>2026-06-16T11:53:24.000Z</time>
        <extensions>
          <ns3:TrackPointExtension>
            <ns3:atemp>20.0</ns3:atemp>
          </ns3:TrackPointExtension>
        </extensions>
      </trkpt>
      <trkpt lat="42.62371175922453403472900390625" lon="19.90832400508224964141845703125">
        <ele>1425.4000244140625</ele>
        <time>2026-06-16T11:53:25.000Z</time>
        <extensions>
          <ns3:TrackPointExtension>
            <ns3:atemp>20.0</ns3:atemp>
          </ns3:TrackPointExtension>
        </extensions>
      </trkpt>
      <trkpt lat="42.6237121783196926116943359375" lon="19.90832484327256679534912109375">
        <ele>1425.4000244140625</ele>
        <time>2026-06-16T11:53:26.000Z</time>
        <extensions>
          <ns3:TrackPointExtension>
            <ns3:atemp>20.0</ns3:atemp>
          </ns3:TrackPointExtension>
        </extensions>
      </trkpt>
      <trkpt lat="42.62372232042253017425537109375" lon="19.9083311296999454498291015625">
        <ele>1425.199951171875</ele>
        <time>2026-06-16T11:53:27.000Z</time>
        <extensions>
          <ns3:TrackPointExtension>
            <ns3:atemp>20.0</ns3:atemp>
          </ns3:TrackPointExtension>
        </extensions>
      </trkpt>
      <trkpt lat="42.62373908422887325286865234375" lon="19.90833096206188201904296875">
        <ele>1425.199951171875</ele>
        <time>2026-06-16T11:53:28.000Z</time>
        <extensions>
          <ns3:TrackPointExtension>
            <ns3:atemp>20.0</ns3:atemp>
          </ns3:TrackPointExtension>
        </extensions>
      </trkpt>
      <trkpt lat="42.62375802733004093170166015625" lon="19.90832635201513767242431640625">
        <ele>1425</ele>
        <time>2026-06-16T11:53:29.000Z</time>
        <extensions>
          <ns3:TrackPointExtension>
            <ns3:atemp>20.0</ns3:atemp>
          </ns3:TrackPointExtension>
        </extensions>
      </trkpt>
      <trkpt lat="42.62377261184155941009521484375" lon="19.90832853130996227264404296875">
        <ele>1425</ele>
        <time>2026-06-16T11:53:30.000Z</time>
        <extensions>
          <ns3:TrackPointExtension>
            <ns3:atemp>20.0</ns3:atemp>
          </ns3:TrackPointExtension>
        </extensions>
      </trkpt>
      <trkpt lat="42.62378065846860408782958984375" lon="19.9083301238715648651123046875">
        <ele>1425</ele>
        <time>2026-06-16T11:53:31.000Z</time>
        <extensions>
          <ns3:TrackPointExtension>
            <ns3:atemp>20.0</ns3:atemp>
          </ns3:TrackPointExtension>
        </extensions>
      </trkpt>
      <trkpt lat="42.6238003559410572052001953125" lon="19.90833372808992862701416015625">
        <ele>1424.800048828125</ele>
        <time>2026-06-16T11:53:32.000Z</time>
        <extensions>
          <ns3:TrackPointExtension>
            <ns3:atemp>20.0</ns3:atemp>
          </ns3:TrackPointExtension>
        </extensions>
      </trkpt>
      <trkpt lat="42.62382089160382747650146484375" lon="19.90833456628024578094482421875">
        <ele>1424.800048828125</ele>
        <time>2026-06-16T11:53:33.000Z</time>
        <extensions>
          <ns3:TrackPointExtension>
            <ns3:atemp>20.0</ns3:atemp>
          </ns3:TrackPointExtension>
        </extensions>
      </trkpt>
      <trkpt lat="42.62385022826492786407470703125" lon="19.9083391763269901275634765625">
        <ele>1424.5999755859375</ele>
        <time>2026-06-16T11:53:34.000Z</time>
        <extensions>
          <ns3:TrackPointExtension>
            <ns3:atemp>20.0</ns3:atemp>
          </ns3:TrackPointExtension>
        </extensions>
      </trkpt>
      <trkpt lat="42.6238821633160114288330078125" lon="19.9083410203456878662109375">
        <ele>1424.5999755859375</ele>
        <time>2026-06-16T11:53:35.000Z</time>
        <extensions>
          <ns3:TrackPointExtension>
            <ns3:atemp>20.0</ns3:atemp>
          </ns3:TrackPointExtension>
        </extensions>
      </trkpt>
      <trkpt lat="42.62390839867293834686279296875" lon="19.90835552103817462921142578125">
        <ele>1424.4000244140625</ele>
        <time>2026-06-16T11:53:36.000Z</time>
        <extensions>
          <ns3:TrackPointExtension>
            <ns3:atemp>20.0</ns3:atemp>
          </ns3:TrackPointExtension>
        </extensions>
      </trkpt>
      <trkpt lat="42.6239384897053241729736328125" lon="19.9083773978054523468017578125">
        <ele>1424.199951171875</ele>
        <time>2026-06-16T11:53:37.000Z</time>
        <extensions>
          <ns3:TrackPointExtension>
            <ns3:atemp>20.0</ns3:atemp>
          </ns3:TrackPointExtension>
        </extensions>
      </trkpt>
      <trkpt lat="42.62396581470966339111328125" lon="19.9084000289440155029296875">
        <ele>1423.800048828125</ele>
        <time>2026-06-16T11:53:38.000Z</time>
        <extensions>
          <ns3:TrackPointExtension>
            <ns3:atemp>20.0</ns3:atemp>
          </ns3:TrackPointExtension>
        </extensions>
      </trkpt>
      <trkpt lat="42.62399540282785892486572265625" lon="19.9084189720451831817626953125">
        <ele>1423.5999755859375</ele>
        <time>2026-06-16T11:53:39.000Z</time>
        <extensions>
          <ns3:TrackPointExtension>
            <ns3:atemp>20.0</ns3:atemp>
          </ns3:TrackPointExtension>
        </extensions>
      </trkpt>
      <trkpt lat="42.6240347139537334442138671875" lon="19.90844571031630039215087890625">
        <ele>1423.199951171875</ele>
        <time>2026-06-16T11:53:40.000Z</time>
        <extensions>
          <ns3:TrackPointExtension>
            <ns3:atemp>20.0</ns3:atemp>
          </ns3:TrackPointExtension>
        </extensions>
      </trkpt>
      <trkpt lat="42.62408374808728694915771484375" lon="19.9084746278822422027587890625">
        <ele>1423</ele>
        <time>2026-06-16T11:53:41.000Z</time>
        <extensions>
          <ns3:TrackPointExtension>
            <ns3:atemp>20.0</ns3:atemp>
          </ns3:TrackPointExtension>
        </extensions>
      </trkpt>
      <trkpt lat="42.62412901036441326141357421875" lon="19.90850522182881832122802734375">
        <ele>1422.800048828125</ele>
        <time>2026-06-16T11:53:42.000Z</time>
        <extensions>
          <ns3:TrackPointExtension>
            <ns3:atemp>20.0</ns3:atemp>
          </ns3:TrackPointExtension>
        </extensions>
      </trkpt>
      <trkpt lat="42.6241627894341945648193359375" lon="19.908543527126312255859375">
        <ele>1422.5999755859375</ele>
        <time>2026-06-16T11:53:43.000Z</time>
        <extensions>
          <ns3:TrackPointExtension>
            <ns3:atemp>20.0</ns3:atemp>
          </ns3:TrackPointExtension>
        </extensions>
      </trkpt>
      <trkpt lat="42.62420260347425937652587890625" lon="19.908582083880901336669921875">
        <ele>1422.199951171875</ele>
        <time>2026-06-16T11:53:44.000Z</time>
        <extensions>
          <ns3:TrackPointExtension>
            <ns3:atemp>20.0</ns3:atemp>
          </ns3:TrackPointExtension>
        </extensions>
      </trkpt>
      <trkpt lat="42.6242506317794322967529296875" lon="19.9086000211536884307861328125">
        <ele>1421.800048828125</ele>
        <time>2026-06-16T11:53:45.000Z</time>
        <extensions>
          <ns3:TrackPointExtension>
            <ns3:atemp>20.0</ns3:atemp>
          </ns3:TrackPointExtension>
        </extensions>
      </trkpt>
      <trkpt lat="42.62429329566657543182373046875" lon="19.90862441249191761016845703125">
        <ele>1421.4000244140625</ele>
        <time>2026-06-16T11:53:46.000Z</time>
        <extensions>
          <ns3:TrackPointExtension>
            <ns3:atemp>20.0</ns3:atemp>
          </ns3:TrackPointExtension>
        </extensions>
      </trkpt>
      <trkpt lat="42.62433595955371856689453125" lon="19.9086516536772251129150390625">
        <ele>1421</ele>
        <time>2026-06-16T11:53:47.000Z</time>
        <extensions>
          <ns3:TrackPointExtension>
            <ns3:atemp>20.0</ns3:atemp>
          </ns3:TrackPointExtension>
        </extensions>
      </trkpt>
      <trkpt lat="42.62437191791832447052001953125" lon="19.90867160260677337646484375">
        <ele>1420.800048828125</ele>
        <time>2026-06-16T11:53:48.000Z</time>
        <extensions>
          <ns3:TrackPointExtension>
            <ns3:atemp>20.0</ns3:atemp>
          </ns3:TrackPointExtension>
        </extensions>
      </trkpt>
      <trkpt lat="42.624402344226837158203125" lon="19.90868912078440189361572265625">
        <ele>1420.5999755859375</ele>
        <time>2026-06-16T11:53:49.000Z</time>
        <extensions>
          <ns3:TrackPointExtension>
            <ns3:atemp>20.0</ns3:atemp>
          </ns3:TrackPointExtension>
        </extensions>
      </trkpt>
      <trkpt lat="42.62442254461348056793212890625" lon="19.90870437584817409515380859375">
        <ele>1420.4000244140625</ele>
        <time>2026-06-16T11:53:50.000Z</time>
        <extensions>
          <ns3:TrackPointExtension>
            <ns3:atemp>20.0</ns3:atemp>
          </ns3:TrackPointExtension>
        </extensions>
      </trkpt>
      <trkpt lat="42.62443344108760356903076171875" lon="19.9087019450962543487548828125">
        <ele>1420.199951171875</ele>
        <time>2026-06-16T11:53:51.000Z</time>
        <extensions>
          <ns3:TrackPointExtension>
            <ns3:atemp>20.0</ns3:atemp>
          </ns3:TrackPointExtension>
        </extensions>
      </trkpt>
      <trkpt lat="42.624433524906635284423828125" lon="19.90870169363915920257568359375">
        <ele>1420.199951171875</ele>
        <time>2026-06-16T11:53:52.000Z</time>
        <extensions>
          <ns3:TrackPointExtension>
            <ns3:atemp>20.0</ns3:atemp>
          </ns3:TrackPointExtension>
        </extensions>
      </trkpt>
      <trkpt lat="42.624433524906635284423828125" lon="19.90870169363915920257568359375">
        <ele>1420.199951171875</ele>
        <time>2026-06-16T11:53:53.000Z</time>
        <extensions>
          <ns3:TrackPointExtension>
            <ns3:atemp>20.0</ns3:atemp>
          </ns3:TrackPointExtension>
        </extensions>
      </trkpt>
      <trkpt lat="42.624433524906635284423828125" lon="19.90870169363915920257568359375">
        <ele>1420.199951171875</ele>
        <time>2026-06-16T11:53:54.000Z</time>
        <extensions>
          <ns3:TrackPointExtension>
            <ns3:atemp>20.0</ns3:atemp>
          </ns3:TrackPointExtension>
        </extensions>
      </trkpt>
      <trkpt lat="42.624433524906635284423828125" lon="19.90870169363915920257568359375">
        <ele>1420</ele>
        <time>2026-06-16T11:53:55.000Z</time>
        <extensions>
          <ns3:TrackPointExtension>
            <ns3:atemp>20.0</ns3:atemp>
          </ns3:TrackPointExtension>
        </extensions>
      </trkpt>
      <trkpt lat="42.624433524906635284423828125" lon="19.90870169363915920257568359375">
        <ele>1420</ele>
        <time>2026-06-16T11:53:56.000Z</time>
        <extensions>
          <ns3:TrackPointExtension>
            <ns3:atemp>20.0</ns3:atemp>
          </ns3:TrackPointExtension>
        </extensions>
      </trkpt>
      <trkpt lat="42.624433524906635284423828125" lon="19.90870169363915920257568359375">
        <ele>1419.800048828125</ele>
        <time>2026-06-16T11:53:57.000Z</time>
        <extensions>
          <ns3:TrackPointExtension>
            <ns3:atemp>20.0</ns3:atemp>
          </ns3:TrackPointExtension>
        </extensions>
      </trkpt>
      <trkpt lat="42.624433524906635284423828125" lon="19.90870169363915920257568359375">
        <ele>1419.800048828125</ele>
        <time>2026-06-16T11:53:58.000Z</time>
        <extensions>
          <ns3:TrackPointExtension>
            <ns3:atemp>20.0</ns3:atemp>
          </ns3:TrackPointExtension>
        </extensions>
      </trkpt>
      <trkpt lat="42.624433524906635284423828125" lon="19.90870169363915920257568359375">
        <ele>1419.5999755859375</ele>
        <time>2026-06-16T11:53:59.000Z</time>
        <extensions>
          <ns3:TrackPointExtension>
            <ns3:atemp>20.0</ns3:atemp>
          </ns3:TrackPointExtension>
        </extensions>
      </trkpt>
      <trkpt lat="42.624433524906635284423828125" lon="19.90870169363915920257568359375">
        <ele>1419.5999755859375</ele>
        <time>2026-06-16T11:54:00.000Z</time>
        <extensions>
          <ns3:TrackPointExtension>
            <ns3:atemp>20.0</ns3:atemp>
          </ns3:TrackPointExtension>
        </extensions>
      </trkpt>
      <trkpt lat="42.624433524906635284423828125" lon="19.90870169363915920257568359375">
        <ele>1419.5999755859375</ele>
        <time>2026-06-16T11:54:01.000Z</time>
        <extensions>
          <ns3:TrackPointExtension>
            <ns3:atemp>20.0</ns3:atemp>
          </ns3:TrackPointExtension>
        </extensions>
      </trkpt>
      <trkpt lat="42.624433524906635284423828125" lon="19.90870169363915920257568359375">
        <ele>1419.5999755859375</ele>
        <time>2026-06-16T11:54:02.000Z</time>
        <extensions>
          <ns3:TrackPointExtension>
            <ns3:atemp>20.0</ns3:atemp>
          </ns3:TrackPointExtension>
        </extensions>
      </trkpt>
      <trkpt lat="42.624433524906635284423828125" lon="19.90870169363915920257568359375">
        <ele>1419.5999755859375</ele>
        <time>2026-06-16T11:54:03.000Z</time>
        <extensions>
          <ns3:TrackPointExtension>
            <ns3:atemp>20.0</ns3:atemp>
          </ns3:TrackPointExtension>
        </extensions>
      </trkpt>
      <trkpt lat="42.624433524906635284423828125" lon="19.90870169363915920257568359375">
        <ele>1419.5999755859375</ele>
        <time>2026-06-16T11:54:04.000Z</time>
        <extensions>
          <ns3:TrackPointExtension>
            <ns3:atemp>20.0</ns3:atemp>
          </ns3:TrackPointExtension>
        </extensions>
      </trkpt>
      <trkpt lat="42.624433524906635284423828125" lon="19.90870169363915920257568359375">
        <ele>1419.5999755859375</ele>
        <time>2026-06-16T11:54:05.000Z</time>
        <extensions>
          <ns3:TrackPointExtension>
            <ns3:atemp>20.0</ns3:atemp>
          </ns3:TrackPointExtension>
        </extensions>
      </trkpt>
      <trkpt lat="42.624433524906635284423828125" lon="19.90870169363915920257568359375">
        <ele>1419.5999755859375</ele>
        <time>2026-06-16T11:54:06.000Z</time>
        <extensions>
          <ns3:TrackPointExtension>
            <ns3:atemp>20.0</ns3:atemp>
          </ns3:TrackPointExtension>
        </extensions>
      </trkpt>
      <trkpt lat="42.624433524906635284423828125" lon="19.90870169363915920257568359375">
        <ele>1419.5999755859375</ele>
        <time>2026-06-16T11:54:07.000Z</time>
        <extensions>
          <ns3:TrackPointExtension>
            <ns3:atemp>20.0</ns3:atemp>
          </ns3:TrackPointExtension>
        </extensions>
      </trkpt>
      <trkpt lat="42.624433524906635284423828125" lon="19.90870169363915920257568359375">
        <ele>1419.5999755859375</ele>
        <time>2026-06-16T11:54:08.000Z</time>
        <extensions>
          <ns3:TrackPointExtension>
            <ns3:atemp>20.0</ns3:atemp>
          </ns3:TrackPointExtension>
        </extensions>
      </trkpt>
      <trkpt lat="42.624433524906635284423828125" lon="19.90870169363915920257568359375">
        <ele>1419.5999755859375</ele>
        <time>2026-06-16T11:54:09.000Z</time>
        <extensions>
          <ns3:TrackPointExtension>
            <ns3:atemp>20.0</ns3:atemp>
          </ns3:TrackPointExtension>
        </extensions>
      </trkpt>
      <trkpt lat="42.624433524906635284423828125" lon="19.90870169363915920257568359375">
        <ele>1419.5999755859375</ele>
        <time>2026-06-16T11:54:10.000Z</time>
        <extensions>
          <ns3:TrackPointExtension>
            <ns3:atemp>20.0</ns3:atemp>
          </ns3:TrackPointExtension>
        </extensions>
      </trkpt>
      <trkpt lat="42.624433524906635284423828125" lon="19.90870169363915920257568359375">
        <ele>1419.5999755859375</ele>
        <time>2026-06-16T11:54:11.000Z</time>
        <extensions>
          <ns3:TrackPointExtension>
            <ns3:atemp>20.0</ns3:atemp>
          </ns3:TrackPointExtension>
        </extensions>
      </trkpt>
      <trkpt lat="42.624433524906635284423828125" lon="19.90870169363915920257568359375">
        <ele>1419.5999755859375</ele>
        <time>2026-06-16T11:54:12.000Z</time>
        <extensions>
          <ns3:TrackPointExtension>
            <ns3:atemp>20.0</ns3:atemp>
          </ns3:TrackPointExtension>
        </extensions>
      </trkpt>
      <trkpt lat="42.624433524906635284423828125" lon="19.90870169363915920257568359375">
        <ele>1419.4000244140625</ele>
        <time>2026-06-16T11:54:13.000Z</time>
        <extensions>
          <ns3:TrackPointExtension>
            <ns3:atemp>20.0</ns3:atemp>
          </ns3:TrackPointExtension>
        </extensions>
      </trkpt>
      <trkpt lat="42.624433524906635284423828125" lon="19.90870169363915920257568359375">
        <ele>1419.4000244140625</ele>
        <time>2026-06-16T11:54:14.000Z</time>
        <extensions>
          <ns3:TrackPointExtension>
            <ns3:atemp>20.0</ns3:atemp>
          </ns3:TrackPointExtension>
        </extensions>
      </trkpt>
      <trkpt lat="42.624433524906635284423828125" lon="19.90870169363915920257568359375">
        <ele>1419.4000244140625</ele>
        <time>2026-06-16T11:54:15.000Z</time>
        <extensions>
          <ns3:TrackPointExtension>
            <ns3:atemp>20.0</ns3:atemp>
          </ns3:TrackPointExtension>
        </extensions>
      </trkpt>
      <trkpt lat="42.624433524906635284423828125" lon="19.90870169363915920257568359375">
        <ele>1419.4000244140625</ele>
        <time>2026-06-16T11:54:16.000Z</time>
        <extensions>
          <ns3:TrackPointExtension>
            <ns3:atemp>20.0</ns3:atemp>
          </ns3:TrackPointExtension>
        </extensions>
      </trkpt>
      <trkpt lat="42.624433524906635284423828125" lon="19.90870169363915920257568359375">
        <ele>1419.4000244140625</ele>
        <time>2026-06-16T11:54:17.000Z</time>
        <extensions>
          <ns3:TrackPointExtension>
            <ns3:atemp>20.0</ns3:atemp>
          </ns3:TrackPointExtension>
        </extensions>
      </trkpt>
      <trkpt lat="42.624433524906635284423828125" lon="19.90870169363915920257568359375">
        <ele>1419.4000244140625</ele>
        <time>2026-06-16T11:54:18.000Z</time>
        <extensions>
          <ns3:TrackPointExtension>
            <ns3:atemp>20.0</ns3:atemp>
          </ns3:TrackPointExtension>
        </extensions>
      </trkpt>
      <trkpt lat="42.624433524906635284423828125" lon="19.90870169363915920257568359375">
        <ele>1419.4000244140625</ele>
        <time>2026-06-16T11:54:19.000Z</time>
        <extensions>
          <ns3:TrackPointExtension>
            <ns3:atemp>20.0</ns3:atemp>
          </ns3:TrackPointExtension>
        </extensions>
      </trkpt>
      <trkpt lat="42.624433524906635284423828125" lon="19.90870169363915920257568359375">
        <ele>1419.4000244140625</ele>
        <time>2026-06-16T11:54:20.000Z</time>
        <extensions>
          <ns3:TrackPointExtension>
            <ns3:atemp>20.0</ns3:atemp>
          </ns3:TrackPointExtension>
        </extensions>
      </trkpt>
      <trkpt lat="42.624433524906635284423828125" lon="19.90870169363915920257568359375">
        <ele>1419.4000244140625</ele>
        <time>2026-06-16T11:54:21.000Z</time>
        <extensions>
          <ns3:TrackPointExtension>
            <ns3:atemp>20.0</ns3:atemp>
          </ns3:TrackPointExtension>
        </extensions>
      </trkpt>
      <trkpt lat="42.624433524906635284423828125" lon="19.90870169363915920257568359375">
        <ele>1419.4000244140625</ele>
        <time>2026-06-16T11:54:22.000Z</time>
        <extensions>
          <ns3:TrackPointExtension>
            <ns3:atemp>20.0</ns3:atemp>
          </ns3:TrackPointExtension>
        </extensions>
      </trkpt>
      <trkpt lat="42.624433524906635284423828125" lon="19.90870169363915920257568359375">
        <ele>1419.4000244140625</ele>
        <time>2026-06-16T11:54:23.000Z</time>
        <extensions>
          <ns3:TrackPointExtension>
            <ns3:atemp>20.0</ns3:atemp>
          </ns3:TrackPointExtension>
        </extensions>
      </trkpt>
      <trkpt lat="42.624433524906635284423828125" lon="19.90870169363915920257568359375">
        <ele>1419.199951171875</ele>
        <time>2026-06-16T11:54:24.000Z</time>
        <extensions>
          <ns3:TrackPointExtension>
            <ns3:atemp>20.0</ns3:atemp>
          </ns3:TrackPointExtension>
        </extensions>
      </trkpt>
      <trkpt lat="42.624433524906635284423828125" lon="19.90870169363915920257568359375">
        <ele>1419.199951171875</ele>
        <time>2026-06-16T11:54:25.000Z</time>
        <extensions>
          <ns3:TrackPointExtension>
            <ns3:atemp>20.0</ns3:atemp>
          </ns3:TrackPointExtension>
        </extensions>
      </trkpt>
      <trkpt lat="42.624433524906635284423828125" lon="19.90870169363915920257568359375">
        <ele>1419.199951171875</ele>
        <time>2026-06-16T11:54:26.000Z</time>
        <extensions>
          <ns3:TrackPointExtension>
            <ns3:atemp>20.0</ns3:atemp>
          </ns3:TrackPointExtension>
        </extensions>
      </trkpt>
      <trkpt lat="42.624433524906635284423828125" lon="19.90870169363915920257568359375">
        <ele>1419.199951171875</ele>
        <time>2026-06-16T11:54:27.000Z</time>
        <extensions>
          <ns3:TrackPointExtension>
            <ns3:atemp>20.0</ns3:atemp>
          </ns3:TrackPointExtension>
        </extensions>
      </trkpt>
      <trkpt lat="42.624433524906635284423828125" lon="19.90870169363915920257568359375">
        <ele>1419.199951171875</ele>
        <time>2026-06-16T11:54:28.000Z</time>
        <extensions>
          <ns3:TrackPointExtension>
            <ns3:atemp>20.0</ns3:atemp>
          </ns3:TrackPointExtension>
        </extensions>
      </trkpt>
      <trkpt lat="42.624433524906635284423828125" lon="19.90870169363915920257568359375">
        <ele>1419.199951171875</ele>
        <time>2026-06-16T11:54:29.000Z</time>
        <extensions>
          <ns3:TrackPointExtension>
            <ns3:atemp>20.0</ns3:atemp>
          </ns3:TrackPointExtension>
        </extensions>
      </trkpt>
      <trkpt lat="42.624433524906635284423828125" lon="19.90870169363915920257568359375">
        <ele>1419.199951171875</ele>
        <time>2026-06-16T11:54:30.000Z</time>
        <extensions>
          <ns3:TrackPointExtension>
            <ns3:atemp>20.0</ns3:atemp>
          </ns3:TrackPointExtension>
        </extensions>
      </trkpt>
      <trkpt lat="42.624433524906635284423828125" lon="19.90870169363915920257568359375">
        <ele>1419.199951171875</ele>
        <time>2026-06-16T11:54:31.000Z</time>
        <extensions>
          <ns3:TrackPointExtension>
            <ns3:atemp>20.0</ns3:atemp>
          </ns3:TrackPointExtension>
        </extensions>
      </trkpt>
      <trkpt lat="42.624433524906635284423828125" lon="19.90870169363915920257568359375">
        <ele>1419.199951171875</ele>
        <time>2026-06-16T11:54:32.000Z</time>
        <extensions>
          <ns3:TrackPointExtension>
            <ns3:atemp>20.0</ns3:atemp>
          </ns3:TrackPointExtension>
        </extensions>
      </trkpt>
      <trkpt lat="42.62443478219211101531982421875" lon="19.9087130092084407806396484375">
        <ele>1419</ele>
        <time>2026-06-16T11:54:33.000Z</time>
        <extensions>
          <ns3:TrackPointExtension>
            <ns3:atemp>20.0</ns3:atemp>
          </ns3:TrackPointExtension>
        </extensions>
      </trkpt>
      <trkpt lat="42.62445154599845409393310546875" lon="19.908753745257854461669921875">
        <ele>1419</ele>
        <time>2026-06-16T11:54:34.000Z</time>
        <extensions>
          <ns3:TrackPointExtension>
            <ns3:atemp>20.0</ns3:atemp>
          </ns3:TrackPointExtension>
        </extensions>
      </trkpt>
      <trkpt lat="42.62447048909962177276611328125" lon="19.9087723530828952789306640625">
        <ele>1419</ele>
        <time>2026-06-16T11:54:35.000Z</time>
        <extensions>
          <ns3:TrackPointExtension>
            <ns3:atemp>20.0</ns3:atemp>
          </ns3:TrackPointExtension>
        </extensions>
      </trkpt>
      <trkpt lat="42.6244920305907726287841796875" lon="19.9087844230234622955322265625">
        <ele>1418.800048828125</ele>
        <time>2026-06-16T11:54:36.000Z</time>
        <extensions>
          <ns3:TrackPointExtension>
            <ns3:atemp>20.0</ns3:atemp>
          </ns3:TrackPointExtension>
        </extensions>
      </trkpt>
      <trkpt lat="42.62452371418476104736328125" lon="19.90879942663013935089111328125">
        <ele>1418.5999755859375</ele>
        <time>2026-06-16T11:54:37.000Z</time>
        <extensions>
          <ns3:TrackPointExtension>
            <ns3:atemp>20.0</ns3:atemp>
          </ns3:TrackPointExtension>
        </extensions>
      </trkpt>
      <trkpt lat="42.6245631091296672821044921875" lon="19.90882038138806819915771484375">
        <ele>1418.199951171875</ele>
        <time>2026-06-16T11:54:38.000Z</time>
        <extensions>
          <ns3:TrackPointExtension>
            <ns3:atemp>20.0</ns3:atemp>
          </ns3:TrackPointExtension>
        </extensions>
      </trkpt>
      <trkpt lat="42.6246020011603832244873046875" lon="19.90885323844850063323974609375">
        <ele>1418</ele>
        <time>2026-06-16T11:54:39.000Z</time>
        <extensions>
          <ns3:TrackPointExtension>
            <ns3:atemp>20.0</ns3:atemp>
          </ns3:TrackPointExtension>
        </extensions>
      </trkpt>
      <trkpt lat="42.62463376857340335845947265625" lon="19.9088876880705356597900390625">
        <ele>1417.5999755859375</ele>
        <time>2026-06-16T11:54:40.000Z</time>
        <extensions>
          <ns3:TrackPointExtension>
            <ns3:atemp>20.0</ns3:atemp>
          </ns3:TrackPointExtension>
        </extensions>
      </trkpt>
      <trkpt lat="42.62466184794902801513671875" lon="19.908912666141986846923828125">
        <ele>1417.4000244140625</ele>
        <time>2026-06-16T11:54:41.000Z</time>
        <extensions>
          <ns3:TrackPointExtension>
            <ns3:atemp>20.0</ns3:atemp>
          </ns3:TrackPointExtension>
        </extensions>
      </trkpt>
      <trkpt lat="42.6246925257146358489990234375" lon="19.908935464918613433837890625">
        <ele>1417.199951171875</ele>
        <time>2026-06-16T11:54:42.000Z</time>
        <extensions>
          <ns3:TrackPointExtension>
            <ns3:atemp>20.0</ns3:atemp>
          </ns3:TrackPointExtension>
        </extensions>
      </trkpt>
      <trkpt lat="42.624725215137004852294921875" lon="19.90894678048789501190185546875">
        <ele>1417</ele>
        <time>2026-06-16T11:54:43.000Z</time>
        <extensions>
          <ns3:TrackPointExtension>
            <ns3:atemp>20.0</ns3:atemp>
          </ns3:TrackPointExtension>
        </extensions>
      </trkpt>
      <trkpt lat="42.62476108968257904052734375" lon="19.90894879214465618133544921875">
        <ele>1416.800048828125</ele>
        <time>2026-06-16T11:54:44.000Z</time>
        <extensions>
          <ns3:TrackPointExtension>
            <ns3:atemp>20.0</ns3:atemp>
          </ns3:TrackPointExtension>
        </extensions>
      </trkpt>
      <trkpt lat="42.6247967965900897979736328125" lon="19.90894921123981475830078125">
        <ele>1416.5999755859375</ele>
        <time>2026-06-16T11:54:45.000Z</time>
        <extensions>
          <ns3:TrackPointExtension>
            <ns3:atemp>20.0</ns3:atemp>
          </ns3:TrackPointExtension>
        </extensions>
      </trkpt>
      <trkpt lat="42.62483677826821804046630859375" lon="19.908948875963687896728515625">
        <ele>1416.5999755859375</ele>
        <time>2026-06-16T11:54:46.000Z</time>
        <extensions>
          <ns3:TrackPointExtension>
            <ns3:atemp>20.0</ns3:atemp>
          </ns3:TrackPointExtension>
        </extensions>
      </trkpt>
      <trkpt lat="42.62488103471696376800537109375" lon="19.9089520610868930816650390625">
        <ele>1416.4000244140625</ele>
        <time>2026-06-16T11:54:47.000Z</time>
        <extensions>
          <ns3:TrackPointExtension>
            <ns3:atemp>20.0</ns3:atemp>
          </ns3:TrackPointExtension>
        </extensions>
      </trkpt>
      <trkpt lat="42.624925710260868072509765625" lon="19.90896522067487239837646484375">
        <ele>1416.199951171875</ele>
        <time>2026-06-16T11:54:48.000Z</time>
        <extensions>
          <ns3:TrackPointExtension>
            <ns3:atemp>20.0</ns3:atemp>
          </ns3:TrackPointExtension>
        </extensions>
      </trkpt>
      <trkpt lat="42.62497943826019763946533203125" lon="19.90898701362311840057373046875">
        <ele>1415.800048828125</ele>
        <time>2026-06-16T11:54:49.000Z</time>
        <extensions>
          <ns3:TrackPointExtension>
            <ns3:atemp>20.0</ns3:atemp>
          </ns3:TrackPointExtension>
        </extensions>
      </trkpt>
      <trkpt lat="42.62504280544817447662353515625" lon="19.908999837934970855712890625">
        <ele>1415.199951171875</ele>
        <time>2026-06-16T11:54:50.000Z</time>
        <extensions>
          <ns3:TrackPointExtension>
            <ns3:atemp>20.0</ns3:atemp>
          </ns3:TrackPointExtension>
        </extensions>
      </trkpt>
      <trkpt lat="42.62510952539741992950439453125" lon="19.9090177752077579498291015625">
        <ele>1414.800048828125</ele>
        <time>2026-06-16T11:54:51.000Z</time>
        <extensions>
          <ns3:TrackPointExtension>
            <ns3:atemp>20.0</ns3:atemp>
          </ns3:TrackPointExtension>
        </extensions>
      </trkpt>
      <trkpt lat="42.6251796819269657135009765625" lon="19.9090466089546680450439453125">
        <ele>1414.199951171875</ele>
        <time>2026-06-16T11:54:52.000Z</time>
        <extensions>
          <ns3:TrackPointExtension>
            <ns3:atemp>20.0</ns3:atemp>
          </ns3:TrackPointExtension>
        </extensions>
      </trkpt>
      <trkpt lat="42.62525084428489208221435546875" lon="19.90907636471092700958251953125">
        <ele>1413.800048828125</ele>
        <time>2026-06-16T11:54:53.000Z</time>
        <extensions>
          <ns3:TrackPointExtension>
            <ns3:atemp>20.0</ns3:atemp>
          </ns3:TrackPointExtension>
        </extensions>
      </trkpt>
      <trkpt lat="42.62531630694866180419921875" lon="19.90910368971526622772216796875">
        <ele>1413</ele>
        <time>2026-06-16T11:54:54.000Z</time>
        <extensions>
          <ns3:TrackPointExtension>
            <ns3:atemp>20.0</ns3:atemp>
          </ns3:TrackPointExtension>
        </extensions>
      </trkpt>
      <trkpt lat="42.62535662390291690826416015625" lon="19.90911978296935558319091796875">
        <ele>1412.4000244140625</ele>
        <time>2026-06-16T11:54:55.000Z</time>
        <extensions>
          <ns3:TrackPointExtension>
            <ns3:atemp>20.0</ns3:atemp>
          </ns3:TrackPointExtension>
        </extensions>
      </trkpt>
      <trkpt lat="42.62537774629890918731689453125" lon="19.90912489593029022216796875">
        <ele>1412</ele>
        <time>2026-06-16T11:54:56.000Z</time>
        <extensions>
          <ns3:TrackPointExtension>
            <ns3:atemp>20.0</ns3:atemp>
          </ns3:TrackPointExtension>
        </extensions>
      </trkpt>
      <trkpt lat="42.62538813985884189605712890625" lon="19.909124560654163360595703125">
        <ele>1411.5999755859375</ele>
        <time>2026-06-16T11:54:57.000Z</time>
        <extensions>
          <ns3:TrackPointExtension>
            <ns3:atemp>20.0</ns3:atemp>
          </ns3:TrackPointExtension>
        </extensions>
      </trkpt>
      <trkpt lat="42.625400125980377197265625" lon="19.90914576686918735504150390625">
        <ele>1411.5999755859375</ele>
        <time>2026-06-16T11:54:58.000Z</time>
        <extensions>
          <ns3:TrackPointExtension>
            <ns3:atemp>20.0</ns3:atemp>
          </ns3:TrackPointExtension>
        </extensions>
      </trkpt>
      <trkpt lat="42.62540490366518497467041015625" lon="19.9091616086661815643310546875">
        <ele>1411.4000244140625</ele>
        <time>2026-06-16T11:54:59.000Z</time>
        <extensions>
          <ns3:TrackPointExtension>
            <ns3:atemp>20.0</ns3:atemp>
          </ns3:TrackPointExtension>
        </extensions>
      </trkpt>
      <trkpt lat="42.62540658004581928253173828125" lon="19.9091716669499874114990234375">
        <ele>1411.4000244140625</ele>
        <time>2026-06-16T11:55:00.000Z</time>
        <extensions>
          <ns3:TrackPointExtension>
            <ns3:atemp>20.0</ns3:atemp>
          </ns3:TrackPointExtension>
        </extensions>
      </trkpt>
      <trkpt lat="42.6253976114094257354736328125" lon="19.9091857485473155975341796875">
        <ele>1411.199951171875</ele>
        <time>2026-06-16T11:55:01.000Z</time>
        <extensions>
          <ns3:TrackPointExtension>
            <ns3:atemp>20.0</ns3:atemp>
          </ns3:TrackPointExtension>
        </extensions>
      </trkpt>
      <trkpt lat="42.6253872178494930267333984375" lon="19.90919974632561206817626953125">
        <ele>1411.199951171875</ele>
        <time>2026-06-16T11:55:02.000Z</time>
        <extensions>
          <ns3:TrackPointExtension>
            <ns3:atemp>20.0</ns3:atemp>
          </ns3:TrackPointExtension>
        </extensions>
      </trkpt>
      <trkpt lat="42.62537992559373378753662109375" lon="19.909229837357997894287109375">
        <ele>1411</ele>
        <time>2026-06-16T11:55:03.000Z</time>
        <extensions>
          <ns3:TrackPointExtension>
            <ns3:atemp>20.0</ns3:atemp>
          </ns3:TrackPointExtension>
        </extensions>
      </trkpt>
      <trkpt lat="42.62537003494799137115478515625" lon="19.90927266888320446014404296875">
        <ele>1410.800048828125</ele>
        <time>2026-06-16T11:55:04.000Z</time>
        <extensions>
          <ns3:TrackPointExtension>
            <ns3:atemp>20.0</ns3:atemp>
          </ns3:TrackPointExtension>
        </extensions>
      </trkpt>
      <trkpt lat="42.62535477988421916961669921875" lon="19.9093232117593288421630859375">
        <ele>1410.4000244140625</ele>
        <time>2026-06-16T11:55:05.000Z</time>
        <extensions>
          <ns3:TrackPointExtension>
            <ns3:atemp>20.0</ns3:atemp>
          </ns3:TrackPointExtension>
        </extensions>
      </trkpt>
      <trkpt lat="42.62534036301076412200927734375" lon="19.90939202718436717987060546875">
        <ele>1410</ele>
        <time>2026-06-16T11:55:06.000Z</time>
        <extensions>
          <ns3:TrackPointExtension>
            <ns3:atemp>20.0</ns3:atemp>
          </ns3:TrackPointExtension>
        </extensions>
      </trkpt>
      <trkpt lat="42.62534656561911106109619140625" lon="19.90945002995431423187255859375">
        <ele>1409.5999755859375</ele>
        <time>2026-06-16T11:55:07.000Z</time>
        <extensions>
          <ns3:TrackPointExtension>
            <ns3:atemp>20.0</ns3:atemp>
          </ns3:TrackPointExtension>
        </extensions>
      </trkpt>
      <trkpt lat="42.625368274748325347900390625" lon="19.90949244238436222076416015625">
        <ele>1409</ele>
        <time>2026-06-16T11:55:08.000Z</time>
        <extensions>
          <ns3:TrackPointExtension>
            <ns3:atemp>20.0</ns3:atemp>
          </ns3:TrackPointExtension>
        </extensions>
      </trkpt>
      <trkpt lat="42.62538604438304901123046875" lon="19.909524880349636077880859375">
        <ele>1408.4000244140625</ele>
        <time>2026-06-16T11:55:09.000Z</time>
        <extensions>
          <ns3:TrackPointExtension>
            <ns3:atemp>20.0</ns3:atemp>
          </ns3:TrackPointExtension>
        </extensions>
      </trkpt>
      <trkpt lat="42.6254116930067539215087890625" lon="19.9095572344958782196044921875">
        <ele>1408</ele>
        <time>2026-06-16T11:55:10.000Z</time>
        <extensions>
          <ns3:TrackPointExtension>
            <ns3:atemp>20.0</ns3:atemp>
          </ns3:TrackPointExtension>
        </extensions>
      </trkpt>
      <trkpt lat="42.62543675489723682403564453125" lon="19.90957978181540966033935546875">
        <ele>1407.800048828125</ele>
        <time>2026-06-16T11:55:11.000Z</time>
        <extensions>
          <ns3:TrackPointExtension>
            <ns3:atemp>20.0</ns3:atemp>
          </ns3:TrackPointExtension>
        </extensions>
      </trkpt>
      <trkpt lat="42.625474892556667327880859375" lon="19.909597299993038177490234375">
        <ele>1407.4000244140625</ele>
        <time>2026-06-16T11:55:12.000Z</time>
        <extensions>
          <ns3:TrackPointExtension>
            <ns3:atemp>20.0</ns3:atemp>
          </ns3:TrackPointExtension>
        </extensions>
      </trkpt>
      <trkpt lat="42.62551076710224151611328125" lon="19.90963392890989780426025390625">
        <ele>1407.199951171875</ele>
        <time>2026-06-16T11:55:13.000Z</time>
        <extensions>
          <ns3:TrackPointExtension>
            <ns3:atemp>20.0</ns3:atemp>
          </ns3:TrackPointExtension>
        </extensions>
      </trkpt>
      <trkpt lat="42.62553683482110500335693359375" lon="19.90968673489987850189208984375">
        <ele>1406.5999755859375</ele>
        <time>2026-06-16T11:55:14.000Z</time>
        <extensions>
          <ns3:TrackPointExtension>
            <ns3:atemp>20.0</ns3:atemp>
          </ns3:TrackPointExtension>
        </extensions>
      </trkpt>
      <trkpt lat="42.625562064349651336669921875" lon="19.90973099134862422943115234375">
        <ele>1406.199951171875</ele>
        <time>2026-06-16T11:55:15.000Z</time>
        <extensions>
          <ns3:TrackPointExtension>
            <ns3:atemp>20.0</ns3:atemp>
          </ns3:TrackPointExtension>
        </extensions>
      </trkpt>
      <trkpt lat="42.62558519840240478515625" lon="19.9097701348364353179931640625">
        <ele>1405.5999755859375</ele>
        <time>2026-06-16T11:55:16.000Z</time>
        <extensions>
          <ns3:TrackPointExtension>
            <ns3:atemp>20.0</ns3:atemp>
          </ns3:TrackPointExtension>
        </extensions>
      </trkpt>
      <trkpt lat="42.62560623697936534881591796875" lon="19.90978111512959003448486328125">
        <ele>1405</ele>
        <time>2026-06-16T11:55:17.000Z</time>
        <extensions>
          <ns3:TrackPointExtension>
            <ns3:atemp>20.0</ns3:atemp>
          </ns3:TrackPointExtension>
        </extensions>
      </trkpt>
      <trkpt lat="42.6256185583770275115966796875" lon="19.9097920954227447509765625">
        <ele>1404.4000244140625</ele>
        <time>2026-06-16T11:55:18.000Z</time>
        <extensions>
          <ns3:TrackPointExtension>
            <ns3:atemp>20.0</ns3:atemp>
          </ns3:TrackPointExtension>
        </extensions>
      </trkpt>
      <trkpt lat="42.62562769465148448944091796875" lon="19.90979947149753570556640625">
        <ele>1404</ele>
        <time>2026-06-16T11:55:19.000Z</time>
        <extensions>
          <ns3:TrackPointExtension>
            <ns3:atemp>20.0</ns3:atemp>
          </ns3:TrackPointExtension>
        </extensions>
      </trkpt>
      <trkpt lat="42.62564009986817836761474609375" lon="19.90979989059269428253173828125">
        <ele>1403.4000244140625</ele>
        <time>2026-06-16T11:55:20.000Z</time>
        <extensions>
          <ns3:TrackPointExtension>
            <ns3:atemp>20.0</ns3:atemp>
          </ns3:TrackPointExtension>
        </extensions>
      </trkpt>
      <trkpt lat="42.62566097080707550048828125" lon="19.90980056114494800567626953125">
        <ele>1403</ele>
        <time>2026-06-16T11:55:21.000Z</time>
        <extensions>
          <ns3:TrackPointExtension>
            <ns3:atemp>20.0</ns3:atemp>
          </ns3:TrackPointExtension>
        </extensions>
      </trkpt>
      <trkpt lat="42.625682763755321502685546875" lon="19.90981145761907100677490234375">
        <ele>1402.5999755859375</ele>
        <time>2026-06-16T11:55:22.000Z</time>
        <extensions>
          <ns3:TrackPointExtension>
            <ns3:atemp>20.0</ns3:atemp>
          </ns3:TrackPointExtension>
        </extensions>
      </trkpt>
      <trkpt lat="42.62570447288453578948974609375" lon="19.9098267965018749237060546875">
        <ele>1402.199951171875</ele>
        <time>2026-06-16T11:55:23.000Z</time>
        <extensions>
          <ns3:TrackPointExtension>
            <ns3:atemp>20.0</ns3:atemp>
          </ns3:TrackPointExtension>
        </extensions>
      </trkpt>
      <trkpt lat="42.62572802603244781494140625" lon="19.90985856391489505767822265625">
        <ele>1401.800048828125</ele>
        <time>2026-06-16T11:55:24.000Z</time>
        <extensions>
          <ns3:TrackPointExtension>
            <ns3:atemp>20.0</ns3:atemp>
          </ns3:TrackPointExtension>
        </extensions>
      </trkpt>
      <trkpt lat="42.6257657445967197418212890625" lon="19.90988773293793201446533203125">
        <ele>1401</ele>
        <time>2026-06-16T11:55:25.000Z</time>
        <extensions>
          <ns3:TrackPointExtension>
            <ns3:atemp>20.0</ns3:atemp>
          </ns3:TrackPointExtension>
        </extensions>
      </trkpt>
      <trkpt lat="42.62581125833094120025634765625" lon="19.90991857834160327911376953125">
        <ele>1400</ele>
        <time>2026-06-16T11:55:26.000Z</time>
        <extensions>
          <ns3:TrackPointExtension>
            <ns3:atemp>20.0</ns3:atemp>
          </ns3:TrackPointExtension>
        </extensions>
      </trkpt>
      <trkpt lat="42.62586154974997043609619140625" lon="19.90994288586080074310302734375">
        <ele>1399</ele>
        <time>2026-06-16T11:55:27.000Z</time>
        <extensions>
          <ns3:TrackPointExtension>
            <ns3:atemp>20.0</ns3:atemp>
          </ns3:TrackPointExtension>
        </extensions>
      </trkpt>
      <trkpt lat="42.625912763178348541259765625" lon="19.90995126776397228240966796875">
        <ele>1398</ele>
        <time>2026-06-16T11:55:28.000Z</time>
        <extensions>
          <ns3:TrackPointExtension>
            <ns3:atemp>20.0</ns3:atemp>
          </ns3:TrackPointExtension>
        </extensions>
      </trkpt>
      <trkpt lat="42.62594939209520816802978515625" lon="19.90998261608183383941650390625">
        <ele>1397</ele>
        <time>2026-06-16T11:55:29.000Z</time>
        <extensions>
          <ns3:TrackPointExtension>
            <ns3:atemp>20.0</ns3:atemp>
          </ns3:TrackPointExtension>
        </extensions>
      </trkpt>
      <trkpt lat="42.6259732805192470550537109375" lon="19.910024441778659820556640625">
        <ele>1396.199951171875</ele>
        <time>2026-06-16T11:55:30.000Z</time>
        <extensions>
          <ns3:TrackPointExtension>
            <ns3:atemp>20.0</ns3:atemp>
          </ns3:TrackPointExtension>
        </extensions>
      </trkpt>
      <trkpt lat="42.62598962523043155670166015625" lon="19.91006894968450069427490234375">
        <ele>1395.4000244140625</ele>
        <time>2026-06-16T11:55:31.000Z</time>
        <extensions>
          <ns3:TrackPointExtension>
            <ns3:atemp>20.0</ns3:atemp>
          </ns3:TrackPointExtension>
        </extensions>
      </trkpt>
      <trkpt lat="42.62599146924912929534912109375" lon="19.9101282097399234771728515625">
        <ele>1394.800048828125</ele>
        <time>2026-06-16T11:55:32.000Z</time>
        <extensions>
          <ns3:TrackPointExtension>
            <ns3:atemp>20.0</ns3:atemp>
          </ns3:TrackPointExtension>
        </extensions>
      </trkpt>
      <trkpt lat="42.62598677538335323333740234375" lon="19.91018839180469512939453125">
        <ele>1394</ele>
        <time>2026-06-16T11:55:33.000Z</time>
        <extensions>
          <ns3:TrackPointExtension>
            <ns3:atemp>20.0</ns3:atemp>
          </ns3:TrackPointExtension>
        </extensions>
      </trkpt>
      <trkpt lat="42.62595945037901401519775390625" lon="19.9102522619068622589111328125">
        <ele>1393.199951171875</ele>
        <time>2026-06-16T11:55:34.000Z</time>
        <extensions>
          <ns3:TrackPointExtension>
            <ns3:atemp>20.0</ns3:atemp>
          </ns3:TrackPointExtension>
        </extensions>
      </trkpt>
      <trkpt lat="42.6259390823543071746826171875" lon="19.9103230051696300506591796875">
        <ele>1392</ele>
        <time>2026-06-16T11:55:35.000Z</time>
        <extensions>
          <ns3:TrackPointExtension>
            <ns3:atemp>20.0</ns3:atemp>
          </ns3:TrackPointExtension>
        </extensions>
      </trkpt>
      <trkpt lat="42.62592525221407413482666015625" lon="19.91038779728114604949951171875">
        <ele>1391</ele>
        <time>2026-06-16T11:55:36.000Z</time>
        <extensions>
          <ns3:TrackPointExtension>
            <ns3:atemp>20.0</ns3:atemp>
          </ns3:TrackPointExtension>
        </extensions>
      </trkpt>
      <trkpt lat="42.62592139653861522674560546875" lon="19.91045485250651836395263671875">
        <ele>1389.800048828125</ele>
        <time>2026-06-16T11:55:37.000Z</time>
        <extensions>
          <ns3:TrackPointExtension>
            <ns3:atemp>20.0</ns3:atemp>
          </ns3:TrackPointExtension>
        </extensions>
      </trkpt>
      <trkpt lat="42.62593262828886508941650390625" lon="19.9105315469205379486083984375">
        <ele>1389</ele>
        <time>2026-06-16T11:55:38.000Z</time>
        <extensions>
          <ns3:TrackPointExtension>
            <ns3:atemp>20.0</ns3:atemp>
          </ns3:TrackPointExtension>
        </extensions>
      </trkpt>
      <trkpt lat="42.62593598105013370513916015625" lon="19.9105975963175296783447265625">
        <ele>1387.5999755859375</ele>
        <time>2026-06-16T11:55:39.000Z</time>
        <extensions>
          <ns3:TrackPointExtension>
            <ns3:atemp>20.0</ns3:atemp>
          </ns3:TrackPointExtension>
        </extensions>
      </trkpt>
      <trkpt lat="42.62593246065080165863037109375" lon="19.91064344532787799835205078125">
        <ele>1386.5999755859375</ele>
        <time>2026-06-16T11:55:40.000Z</time>
        <extensions>
          <ns3:TrackPointExtension>
            <ns3:atemp>20.0</ns3:atemp>
          </ns3:TrackPointExtension>
        </extensions>
      </trkpt>
      <trkpt lat="42.625921480357646942138671875" lon="19.91069625131785869598388671875">
        <ele>1385.5999755859375</ele>
        <time>2026-06-16T11:55:41.000Z</time>
        <extensions>
          <ns3:TrackPointExtension>
            <ns3:atemp>20.0</ns3:atemp>
          </ns3:TrackPointExtension>
        </extensions>
      </trkpt>
      <trkpt lat="42.625904716551303863525390625" lon="19.91075299680233001708984375">
        <ele>1384.5999755859375</ele>
        <time>2026-06-16T11:55:42.000Z</time>
        <extensions>
          <ns3:TrackPointExtension>
            <ns3:atemp>20.0</ns3:atemp>
          </ns3:TrackPointExtension>
        </extensions>
      </trkpt>
      <trkpt lat="42.6258743740618228912353515625" lon="19.9107980914413928985595703125">
        <ele>1383.199951171875</ele>
        <time>2026-06-16T11:55:43.000Z</time>
        <extensions>
          <ns3:TrackPointExtension>
            <ns3:atemp>20.0</ns3:atemp>
          </ns3:TrackPointExtension>
        </extensions>
      </trkpt>
      <trkpt lat="42.6258368231356143951416015625" lon="19.9108460359275341033935546875">
        <ele>1382</ele>
        <time>2026-06-16T11:55:44.000Z</time>
        <extensions>
          <ns3:TrackPointExtension>
            <ns3:atemp>20.0</ns3:atemp>
          </ns3:TrackPointExtension>
        </extensions>
      </trkpt>
      <trkpt lat="42.6257918961346149444580078125" lon="19.91089917719364166259765625">
        <ele>1380.4000244140625</ele>
        <time>2026-06-16T11:55:45.000Z</time>
        <extensions>
          <ns3:TrackPointExtension>
            <ns3:atemp>20.0</ns3:atemp>
          </ns3:TrackPointExtension>
        </extensions>
      </trkpt>
      <trkpt lat="42.6257409341633319854736328125" lon="19.91094770841300487518310546875">
        <ele>1379.199951171875</ele>
        <time>2026-06-16T11:55:46.000Z</time>
        <extensions>
          <ns3:TrackPointExtension>
            <ns3:atemp>20.0</ns3:atemp>
          </ns3:TrackPointExtension>
        </extensions>
      </trkpt>
      <trkpt lat="42.62570514343678951263427734375" lon="19.9109912104904651641845703125">
        <ele>1378</ele>
        <time>2026-06-16T11:55:47.000Z</time>
        <extensions>
          <ns3:TrackPointExtension>
            <ns3:atemp>20.0</ns3:atemp>
          </ns3:TrackPointExtension>
        </extensions>
      </trkpt>
      <trkpt lat="42.6256882958114147186279296875" lon="19.911018200218677520751953125">
        <ele>1377</ele>
        <time>2026-06-16T11:55:48.000Z</time>
        <extensions>
          <ns3:TrackPointExtension>
            <ns3:atemp>20.0</ns3:atemp>
          </ns3:TrackPointExtension>
        </extensions>
      </trkpt>
      <trkpt lat="42.6256752200424671173095703125" lon="19.91104845888912677764892578125">
        <ele>1376.4000244140625</ele>
        <time>2026-06-16T11:55:49.000Z</time>
        <extensions>
          <ns3:TrackPointExtension>
            <ns3:atemp>20.0</ns3:atemp>
          </ns3:TrackPointExtension>
        </extensions>
      </trkpt>
      <trkpt lat="42.6256618089973926544189453125" lon="19.91107595153152942657470703125">
        <ele>1375.800048828125</ele>
        <time>2026-06-16T11:55:50.000Z</time>
        <extensions>
          <ns3:TrackPointExtension>
            <ns3:atemp>20.0</ns3:atemp>
          </ns3:TrackPointExtension>
        </extensions>
      </trkpt>
      <trkpt lat="42.625645883381366729736328125" lon="19.91109338589012622833251953125">
        <ele>1375.199951171875</ele>
        <time>2026-06-16T11:55:51.000Z</time>
        <extensions>
          <ns3:TrackPointExtension>
            <ns3:atemp>20.0</ns3:atemp>
          </ns3:TrackPointExtension>
        </extensions>
      </trkpt>
      <trkpt lat="42.6256323046982288360595703125" lon="19.91111082024872303009033203125">
        <ele>1374.5999755859375</ele>
        <time>2026-06-16T11:55:52.000Z</time>
        <extensions>
          <ns3:TrackPointExtension>
            <ns3:atemp>20.0</ns3:atemp>
          </ns3:TrackPointExtension>
        </extensions>
      </trkpt>
      <trkpt lat="42.6256321370601654052734375" lon="19.9111233092844486236572265625">
        <ele>1374.199951171875</ele>
        <time>2026-06-16T11:55:53.000Z</time>
        <extensions>
          <ns3:TrackPointExtension>
            <ns3:atemp>20.0</ns3:atemp>
          </ns3:TrackPointExtension>
        </extensions>
      </trkpt>
      <trkpt lat="42.62562987394630908966064453125" lon="19.91112875752151012420654296875">
        <ele>1373.800048828125</ele>
        <time>2026-06-16T11:55:54.000Z</time>
        <extensions>
          <ns3:TrackPointExtension>
            <ns3:atemp>20.0</ns3:atemp>
          </ns3:TrackPointExtension>
        </extensions>
      </trkpt>
      <trkpt lat="42.625629790127277374267578125" lon="19.911128841340541839599609375">
        <ele>1373.4000244140625</ele>
        <time>2026-06-16T11:55:55.000Z</time>
        <extensions>
          <ns3:TrackPointExtension>
            <ns3:atemp>20.0</ns3:atemp>
          </ns3:TrackPointExtension>
        </extensions>
      </trkpt>
      <trkpt lat="42.625629790127277374267578125" lon="19.911128841340541839599609375">
        <ele>1373</ele>
        <time>2026-06-16T11:55:56.000Z</time>
        <extensions>
          <ns3:TrackPointExtension>
            <ns3:atemp>20.0</ns3:atemp>
          </ns3:TrackPointExtension>
        </extensions>
      </trkpt>
      <trkpt lat="42.625629790127277374267578125" lon="19.911128841340541839599609375">
        <ele>1372.800048828125</ele>
        <time>2026-06-16T11:55:57.000Z</time>
        <extensions>
          <ns3:TrackPointExtension>
            <ns3:atemp>20.0</ns3:atemp>
          </ns3:TrackPointExtension>
        </extensions>
      </trkpt>
      <trkpt lat="42.625629790127277374267578125" lon="19.911128841340541839599609375">
        <ele>1372.5999755859375</ele>
        <time>2026-06-16T11:55:58.000Z</time>
        <extensions>
          <ns3:TrackPointExtension>
            <ns3:atemp>20.0</ns3:atemp>
          </ns3:TrackPointExtension>
        </extensions>
      </trkpt>
      <trkpt lat="42.625629790127277374267578125" lon="19.911128841340541839599609375">
        <ele>1372.5999755859375</ele>
        <time>2026-06-16T11:55:59.000Z</time>
        <extensions>
          <ns3:TrackPointExtension>
            <ns3:atemp>20.0</ns3:atemp>
          </ns3:TrackPointExtension>
        </extensions>
      </trkpt>
      <trkpt lat="42.625629790127277374267578125" lon="19.911128841340541839599609375">
        <ele>1372.4000244140625</ele>
        <time>2026-06-16T11:56:00.000Z</time>
        <extensions>
          <ns3:TrackPointExtension>
            <ns3:atemp>20.0</ns3:atemp>
          </ns3:TrackPointExtension>
        </extensions>
      </trkpt>
      <trkpt lat="42.625629790127277374267578125" lon="19.911128841340541839599609375">
        <ele>1372.4000244140625</ele>
        <time>2026-06-16T11:56:01.000Z</time>
        <extensions>
          <ns3:TrackPointExtension>
            <ns3:atemp>20.0</ns3:atemp>
          </ns3:TrackPointExtension>
        </extensions>
      </trkpt>
      <trkpt lat="42.625629790127277374267578125" lon="19.911128841340541839599609375">
        <ele>1372.4000244140625</ele>
        <time>2026-06-16T11:56:02.000Z</time>
        <extensions>
          <ns3:TrackPointExtension>
            <ns3:atemp>20.0</ns3:atemp>
          </ns3:TrackPointExtension>
        </extensions>
      </trkpt>
      <trkpt lat="42.625629790127277374267578125" lon="19.911128841340541839599609375">
        <ele>1372.4000244140625</ele>
        <time>2026-06-16T11:56:03.000Z</time>
        <extensions>
          <ns3:TrackPointExtension>
            <ns3:atemp>20.0</ns3:atemp>
          </ns3:TrackPointExtension>
        </extensions>
      </trkpt>
      <trkpt lat="42.625629790127277374267578125" lon="19.911128841340541839599609375">
        <ele>1372.4000244140625</ele>
        <time>2026-06-16T11:56:04.000Z</time>
        <extensions>
          <ns3:TrackPointExtension>
            <ns3:atemp>20.0</ns3:atemp>
          </ns3:TrackPointExtension>
        </extensions>
      </trkpt>
      <trkpt lat="42.625629790127277374267578125" lon="19.911128841340541839599609375">
        <ele>1372.199951171875</ele>
        <time>2026-06-16T11:56:05.000Z</time>
        <extensions>
          <ns3:TrackPointExtension>
            <ns3:atemp>20.0</ns3:atemp>
          </ns3:TrackPointExtension>
        </extensions>
      </trkpt>
      <trkpt lat="42.625629790127277374267578125" lon="19.911128841340541839599609375">
        <ele>1372.199951171875</ele>
        <time>2026-06-16T11:56:06.000Z</time>
        <extensions>
          <ns3:TrackPointExtension>
            <ns3:atemp>20.0</ns3:atemp>
          </ns3:TrackPointExtension>
        </extensions>
      </trkpt>
      <trkpt lat="42.625629790127277374267578125" lon="19.911128841340541839599609375">
        <ele>1372.199951171875</ele>
        <time>2026-06-16T11:56:07.000Z</time>
        <extensions>
          <ns3:TrackPointExtension>
            <ns3:atemp>20.0</ns3:atemp>
          </ns3:TrackPointExtension>
        </extensions>
      </trkpt>
      <trkpt lat="42.625629790127277374267578125" lon="19.911128841340541839599609375">
        <ele>1372.199951171875</ele>
        <time>2026-06-16T11:56:08.000Z</time>
        <extensions>
          <ns3:TrackPointExtension>
            <ns3:atemp>20.0</ns3:atemp>
          </ns3:TrackPointExtension>
        </extensions>
      </trkpt>
      <trkpt lat="42.625629790127277374267578125" lon="19.911128841340541839599609375">
        <ele>1372.199951171875</ele>
        <time>2026-06-16T11:56:09.000Z</time>
        <extensions>
          <ns3:TrackPointExtension>
            <ns3:atemp>20.0</ns3:atemp>
          </ns3:TrackPointExtension>
        </extensions>
      </trkpt>
      <trkpt lat="42.625629790127277374267578125" lon="19.911128841340541839599609375">
        <ele>1372.199951171875</ele>
        <time>2026-06-16T11:56:10.000Z</time>
        <extensions>
          <ns3:TrackPointExtension>
            <ns3:atemp>20.0</ns3:atemp>
          </ns3:TrackPointExtension>
        </extensions>
      </trkpt>
      <trkpt lat="42.625629790127277374267578125" lon="19.911128841340541839599609375">
        <ele>1372</ele>
        <time>2026-06-16T11:56:11.000Z</time>
        <extensions>
          <ns3:TrackPointExtension>
            <ns3:atemp>20.0</ns3:atemp>
          </ns3:TrackPointExtension>
        </extensions>
      </trkpt>
      <trkpt lat="42.62562233023345470428466796875" lon="19.91113789379596710205078125">
        <ele>1372</ele>
        <time>2026-06-16T11:56:12.000Z</time>
        <extensions>
          <ns3:TrackPointExtension>
            <ns3:atemp>20.0</ns3:atemp>
          </ns3:TrackPointExtension>
        </extensions>
      </trkpt>
      <trkpt lat="42.625586874783039093017578125" lon="19.91117519326508045196533203125">
        <ele>1372</ele>
        <time>2026-06-16T11:56:13.000Z</time>
        <extensions>
          <ns3:TrackPointExtension>
            <ns3:atemp>20.0</ns3:atemp>
          </ns3:TrackPointExtension>
        </extensions>
      </trkpt>
      <trkpt lat="42.62557111680507659912109375" lon="19.91120092570781707763671875">
        <ele>1371.5999755859375</ele>
        <time>2026-06-16T11:56:14.000Z</time>
        <extensions>
          <ns3:TrackPointExtension>
            <ns3:atemp>20.0</ns3:atemp>
          </ns3:TrackPointExtension>
        </extensions>
      </trkpt>
      <trkpt lat="42.6255618967115879058837890625" lon="19.91122498176991939544677734375">
        <ele>1371.4000244140625</ele>
        <time>2026-06-16T11:56:15.000Z</time>
        <extensions>
          <ns3:TrackPointExtension>
            <ns3:atemp>20.0</ns3:atemp>
          </ns3:TrackPointExtension>
        </extensions>
      </trkpt>
      <trkpt lat="42.62554639019072055816650390625" lon="19.9112533964216709136962890625">
        <ele>1371</ele>
        <time>2026-06-16T11:56:16.000Z</time>
        <extensions>
          <ns3:TrackPointExtension>
            <ns3:atemp>20.0</ns3:atemp>
          </ns3:TrackPointExtension>
        </extensions>
      </trkpt>
      <trkpt lat="42.6255243457853794097900390625" lon="19.91128399036824703216552734375">
        <ele>1370.199951171875</ele>
        <time>2026-06-16T11:56:17.000Z</time>
        <extensions>
          <ns3:TrackPointExtension>
            <ns3:atemp>20.0</ns3:atemp>
          </ns3:TrackPointExtension>
        </extensions>
      </trkpt>
      <trkpt lat="42.62551688589155673980712890625" lon="19.91131299175322055816650390625">
        <ele>1369.4000244140625</ele>
        <time>2026-06-16T11:56:18.000Z</time>
        <extensions>
          <ns3:TrackPointExtension>
            <ns3:atemp>20.0</ns3:atemp>
          </ns3:TrackPointExtension>
        </extensions>
      </trkpt>
      <trkpt lat="42.62549291364848613739013671875" lon="19.91134920157492160797119140625">
        <ele>1368.800048828125</ele>
        <time>2026-06-16T11:56:19.000Z</time>
        <extensions>
          <ns3:TrackPointExtension>
            <ns3:atemp>20.0</ns3:atemp>
          </ns3:TrackPointExtension>
        </extensions>
      </trkpt>
      <trkpt lat="42.6254646666347980499267578125" lon="19.91136998869478702545166015625">
        <ele>1368.199951171875</ele>
        <time>2026-06-16T11:56:20.000Z</time>
        <extensions>
          <ns3:TrackPointExtension>
            <ns3:atemp>20.0</ns3:atemp>
          </ns3:TrackPointExtension>
        </extensions>
      </trkpt>
      <trkpt lat="42.6254220865666866302490234375" lon="19.91140552796423435211181640625">
        <ele>1367</ele>
        <time>2026-06-16T11:56:21.000Z</time>
        <extensions>
          <ns3:TrackPointExtension>
            <ns3:atemp>20.0</ns3:atemp>
          </ns3:TrackPointExtension>
        </extensions>
      </trkpt>
      <trkpt lat="42.62537791393697261810302734375" lon="19.9114284105598926544189453125">
        <ele>1365.5999755859375</ele>
        <time>2026-06-16T11:56:22.000Z</time>
        <extensions>
          <ns3:TrackPointExtension>
            <ns3:atemp>20.0</ns3:atemp>
          </ns3:TrackPointExtension>
        </extensions>
      </trkpt>
      <trkpt lat="42.62532175518572330474853515625" lon="19.91143503226339817047119140625">
        <ele>1363.800048828125</ele>
        <time>2026-06-16T11:56:23.000Z</time>
        <extensions>
          <ns3:TrackPointExtension>
            <ns3:atemp>20.0</ns3:atemp>
          </ns3:TrackPointExtension>
        </extensions>
      </trkpt>
      <trkpt lat="42.62527045793831348419189453125" lon="19.91144039668142795562744140625">
        <ele>1362.199951171875</ele>
        <time>2026-06-16T11:56:24.000Z</time>
        <extensions>
          <ns3:TrackPointExtension>
            <ns3:atemp>20.0</ns3:atemp>
          </ns3:TrackPointExtension>
        </extensions>
      </trkpt>
      <trkpt lat="42.625212706625461578369140625" lon="19.911456741392612457275390625">
        <ele>1361.199951171875</ele>
        <time>2026-06-16T11:56:25.000Z</time>
        <extensions>
          <ns3:TrackPointExtension>
            <ns3:atemp>20.0</ns3:atemp>
          </ns3:TrackPointExtension>
        </extensions>
      </trkpt>
      <trkpt lat="42.62516149319708347320556640625" lon="19.91146378219127655029296875">
        <ele>1359.800048828125</ele>
        <time>2026-06-16T11:56:26.000Z</time>
        <extensions>
          <ns3:TrackPointExtension>
            <ns3:atemp>20.0</ns3:atemp>
          </ns3:TrackPointExtension>
        </extensions>
      </trkpt>
      <trkpt lat="42.625102736055850982666015625" lon="19.911464788019657135009765625">
        <ele>1358.199951171875</ele>
        <time>2026-06-16T11:56:27.000Z</time>
        <extensions>
          <ns3:TrackPointExtension>
            <ns3:atemp>20.0</ns3:atemp>
          </ns3:TrackPointExtension>
        </extensions>
      </trkpt>
      <trkpt lat="42.6250425539910793304443359375" lon="19.9114632792770862579345703125">
        <ele>1356.5999755859375</ele>
        <time>2026-06-16T11:56:28.000Z</time>
        <extensions>
          <ns3:TrackPointExtension>
            <ns3:atemp>20.0</ns3:atemp>
          </ns3:TrackPointExtension>
        </extensions>
      </trkpt>
      <trkpt lat="42.624966613948345184326171875" lon="19.91145414300262928009033203125">
        <ele>1354.4000244140625</ele>
        <time>2026-06-16T11:56:29.000Z</time>
        <extensions>
          <ns3:TrackPointExtension>
            <ns3:atemp>20.0</ns3:atemp>
          </ns3:TrackPointExtension>
        </extensions>
      </trkpt>
      <trkpt lat="42.62489922344684600830078125" lon="19.911448024213314056396484375">
        <ele>1352.800048828125</ele>
        <time>2026-06-16T11:56:30.000Z</time>
        <extensions>
          <ns3:TrackPointExtension>
            <ns3:atemp>20.0</ns3:atemp>
          </ns3:TrackPointExtension>
        </extensions>
      </trkpt>
      <trkpt lat="42.624826468527317047119140625" lon="19.911458082497119903564453125">
        <ele>1351.199951171875</ele>
        <time>2026-06-16T11:56:31.000Z</time>
        <extensions>
          <ns3:TrackPointExtension>
            <ns3:atemp>20.0</ns3:atemp>
          </ns3:TrackPointExtension>
        </extensions>
      </trkpt>
      <trkpt lat="42.62474834918975830078125" lon="19.911472164094448089599609375">
        <ele>1349.4000244140625</ele>
        <time>2026-06-16T11:56:32.000Z</time>
        <extensions>
          <ns3:TrackPointExtension>
            <ns3:atemp>20.0</ns3:atemp>
          </ns3:TrackPointExtension>
        </extensions>
      </trkpt>
      <trkpt lat="42.62467819266021251678466796875" lon="19.9114780314266681671142578125">
        <ele>1347.800048828125</ele>
        <time>2026-06-16T11:56:33.000Z</time>
        <extensions>
          <ns3:TrackPointExtension>
            <ns3:atemp>20.0</ns3:atemp>
          </ns3:TrackPointExtension>
        </extensions>
      </trkpt>
      <trkpt lat="42.62460929341614246368408203125" lon="19.91150024347007274627685546875">
        <ele>1346.199951171875</ele>
        <time>2026-06-16T11:56:34.000Z</time>
        <extensions>
          <ns3:TrackPointExtension>
            <ns3:atemp>20.0</ns3:atemp>
          </ns3:TrackPointExtension>
        </extensions>
      </trkpt>
      <trkpt lat="42.62455397285521030426025390625" lon="19.91153175942599773406982421875">
        <ele>1344.199951171875</ele>
        <time>2026-06-16T11:56:35.000Z</time>
        <extensions>
          <ns3:TrackPointExtension>
            <ns3:atemp>20.0</ns3:atemp>
          </ns3:TrackPointExtension>
        </extensions>
      </trkpt>
      <trkpt lat="42.62449127621948719024658203125" lon="19.91154500283300876617431640625">
        <ele>1342.5999755859375</ele>
        <time>2026-06-16T11:56:36.000Z</time>
        <extensions>
          <ns3:TrackPointExtension>
            <ns3:atemp>20.0</ns3:atemp>
          </ns3:TrackPointExtension>
        </extensions>
      </trkpt>
      <trkpt lat="42.6244283281266689300537109375" lon="19.91155053488910198211669921875">
        <ele>1341.199951171875</ele>
        <time>2026-06-16T11:56:37.000Z</time>
        <extensions>
          <ns3:TrackPointExtension>
            <ns3:atemp>20.0</ns3:atemp>
          </ns3:TrackPointExtension>
        </extensions>
      </trkpt>
      <trkpt lat="42.62436504475772380828857421875" lon="19.9115749262273311614990234375">
        <ele>1339.4000244140625</ele>
        <time>2026-06-16T11:56:38.000Z</time>
        <extensions>
          <ns3:TrackPointExtension>
            <ns3:atemp>20.0</ns3:atemp>
          </ns3:TrackPointExtension>
        </extensions>
      </trkpt>
      <trkpt lat="42.62432363815605640411376953125" lon="19.91163234226405620574951171875">
        <ele>1337.800048828125</ele>
        <time>2026-06-16T11:56:39.000Z</time>
        <extensions>
          <ns3:TrackPointExtension>
            <ns3:atemp>20.0</ns3:atemp>
          </ns3:TrackPointExtension>
        </extensions>
      </trkpt>
      <trkpt lat="42.6242844946682453155517578125" lon="19.91166905499994754791259765625">
        <ele>1336</ele>
        <time>2026-06-16T11:56:40.000Z</time>
        <extensions>
          <ns3:TrackPointExtension>
            <ns3:atemp>20.0</ns3:atemp>
          </ns3:TrackPointExtension>
        </extensions>
      </trkpt>
      <trkpt lat="42.62425138615071773529052734375" lon="19.91169922985136508941650390625">
        <ele>1334.5999755859375</ele>
        <time>2026-06-16T11:56:41.000Z</time>
        <extensions>
          <ns3:TrackPointExtension>
            <ns3:atemp>20.0</ns3:atemp>
          </ns3:TrackPointExtension>
        </extensions>
      </trkpt>
      <trkpt lat="42.62422288767993450164794921875" lon="19.9117313325405120849609375">
        <ele>1332.800048828125</ele>
        <time>2026-06-16T11:56:42.000Z</time>
        <extensions>
          <ns3:TrackPointExtension>
            <ns3:atemp>20.0</ns3:atemp>
          </ns3:TrackPointExtension>
        </extensions>
      </trkpt>
      <trkpt lat="42.6241832412779331207275390625" lon="19.91176041774451732635498046875">
        <ele>1331.4000244140625</ele>
        <time>2026-06-16T11:56:43.000Z</time>
        <extensions>
          <ns3:TrackPointExtension>
            <ns3:atemp>20.0</ns3:atemp>
          </ns3:TrackPointExtension>
        </extensions>
      </trkpt>
      <trkpt lat="42.62412817217409610748291015625" lon="19.91179981268942356109619140625">
        <ele>1330</ele>
        <time>2026-06-16T11:56:44.000Z</time>
        <extensions>
          <ns3:TrackPointExtension>
            <ns3:atemp>20.0</ns3:atemp>
          </ns3:TrackPointExtension>
        </extensions>
      </trkpt>
      <trkpt lat="42.6240776292979717254638671875" lon="19.9118183366954326629638671875">
        <ele>1328.5999755859375</ele>
        <time>2026-06-16T11:56:45.000Z</time>
        <extensions>
          <ns3:TrackPointExtension>
            <ns3:atemp>20.0</ns3:atemp>
          </ns3:TrackPointExtension>
        </extensions>
      </trkpt>
      <trkpt lat="42.62403077445924282073974609375" lon="19.9118190072476863861083984375">
        <ele>1327.4000244140625</ele>
        <time>2026-06-16T11:56:46.000Z</time>
        <extensions>
          <ns3:TrackPointExtension>
            <ns3:atemp>20.0</ns3:atemp>
          </ns3:TrackPointExtension>
        </extensions>
      </trkpt>
      <trkpt lat="42.623984254896640777587890625" lon="19.91181540302932262420654296875">
        <ele>1326.199951171875</ele>
        <time>2026-06-16T11:56:47.000Z</time>
        <extensions>
          <ns3:TrackPointExtension>
            <ns3:atemp>20.0</ns3:atemp>
          </ns3:TrackPointExtension>
        </extensions>
      </trkpt>
      <trkpt lat="42.6239503920078277587890625" lon="19.91183451376855373382568359375">
        <ele>1324.5999755859375</ele>
        <time>2026-06-16T11:56:48.000Z</time>
        <extensions>
          <ns3:TrackPointExtension>
            <ns3:atemp>20.0</ns3:atemp>
          </ns3:TrackPointExtension>
        </extensions>
      </trkpt>
      <trkpt lat="42.623929940164089202880859375" lon="19.91184306330978870391845703125">
        <ele>1323.5999755859375</ele>
        <time>2026-06-16T11:56:49.000Z</time>
        <extensions>
          <ns3:TrackPointExtension>
            <ns3:atemp>20.0</ns3:atemp>
          </ns3:TrackPointExtension>
        </extensions>
      </trkpt>
      <trkpt lat="42.623929269611835479736328125" lon="19.9118359386920928955078125">
        <ele>1322.800048828125</ele>
        <time>2026-06-16T11:56:50.000Z</time>
        <extensions>
          <ns3:TrackPointExtension>
            <ns3:atemp>20.0</ns3:atemp>
          </ns3:TrackPointExtension>
        </extensions>
      </trkpt>
      <trkpt lat="42.62392885051667690277099609375" lon="19.911836273968219757080078125">
        <ele>1322.199951171875</ele>
        <time>2026-06-16T11:56:51.000Z</time>
        <extensions>
          <ns3:TrackPointExtension>
            <ns3:atemp>20.0</ns3:atemp>
          </ns3:TrackPointExtension>
        </extensions>
      </trkpt>
      <trkpt lat="42.62392885051667690277099609375" lon="19.911836273968219757080078125">
        <ele>1321.5999755859375</ele>
        <time>2026-06-16T11:56:52.000Z</time>
        <extensions>
          <ns3:TrackPointExtension>
            <ns3:atemp>20.0</ns3:atemp>
          </ns3:TrackPointExtension>
        </extensions>
      </trkpt>
      <trkpt lat="42.62392885051667690277099609375" lon="19.911836273968219757080078125">
        <ele>1321.199951171875</ele>
        <time>2026-06-16T11:56:53.000Z</time>
        <extensions>
          <ns3:TrackPointExtension>
            <ns3:atemp>20.0</ns3:atemp>
          </ns3:TrackPointExtension>
        </extensions>
      </trkpt>
      <trkpt lat="42.62392885051667690277099609375" lon="19.911836273968219757080078125">
        <ele>1320.800048828125</ele>
        <time>2026-06-16T11:56:54.000Z</time>
        <extensions>
          <ns3:TrackPointExtension>
            <ns3:atemp>20.0</ns3:atemp>
          </ns3:TrackPointExtension>
        </extensions>
      </trkpt>
      <trkpt lat="42.62392885051667690277099609375" lon="19.911836273968219757080078125">
        <ele>1320.5999755859375</ele>
        <time>2026-06-16T11:56:55.000Z</time>
        <extensions>
          <ns3:TrackPointExtension>
            <ns3:atemp>20.0</ns3:atemp>
          </ns3:TrackPointExtension>
        </extensions>
      </trkpt>
      <trkpt lat="42.62392885051667690277099609375" lon="19.911836273968219757080078125">
        <ele>1320.4000244140625</ele>
        <time>2026-06-16T11:56:56.000Z</time>
        <extensions>
          <ns3:TrackPointExtension>
            <ns3:atemp>20.0</ns3:atemp>
          </ns3:TrackPointExtension>
        </extensions>
      </trkpt>
      <trkpt lat="42.62392885051667690277099609375" lon="19.911836273968219757080078125">
        <ele>1320.4000244140625</ele>
        <time>2026-06-16T11:56:57.000Z</time>
        <extensions>
          <ns3:TrackPointExtension>
            <ns3:atemp>20.0</ns3:atemp>
          </ns3:TrackPointExtension>
        </extensions>
      </trkpt>
      <trkpt lat="42.62392885051667690277099609375" lon="19.911836273968219757080078125">
        <ele>1320.199951171875</ele>
        <time>2026-06-16T11:56:58.000Z</time>
        <extensions>
          <ns3:TrackPointExtension>
            <ns3:atemp>20.0</ns3:atemp>
          </ns3:TrackPointExtension>
        </extensions>
      </trkpt>
      <trkpt lat="42.62392885051667690277099609375" lon="19.911836273968219757080078125">
        <ele>1320.199951171875</ele>
        <time>2026-06-16T11:56:59.000Z</time>
        <extensions>
          <ns3:TrackPointExtension>
            <ns3:atemp>20.0</ns3:atemp>
          </ns3:TrackPointExtension>
        </extensions>
      </trkpt>
      <trkpt lat="42.62392885051667690277099609375" lon="19.911836273968219757080078125">
        <ele>1320</ele>
        <time>2026-06-16T11:57:00.000Z</time>
        <extensions>
          <ns3:TrackPointExtension>
            <ns3:atemp>20.0</ns3:atemp>
          </ns3:TrackPointExtension>
        </extensions>
      </trkpt>
      <trkpt lat="42.62392885051667690277099609375" lon="19.911836273968219757080078125">
        <ele>1320</ele>
        <time>2026-06-16T11:57:01.000Z</time>
        <extensions>
          <ns3:TrackPointExtension>
            <ns3:atemp>20.0</ns3:atemp>
          </ns3:TrackPointExtension>
        </extensions>
      </trkpt>
      <trkpt lat="42.62392885051667690277099609375" lon="19.911836273968219757080078125">
        <ele>1320</ele>
        <time>2026-06-16T11:57:02.000Z</time>
        <extensions>
          <ns3:TrackPointExtension>
            <ns3:atemp>20.0</ns3:atemp>
          </ns3:TrackPointExtension>
        </extensions>
      </trkpt>
      <trkpt lat="42.62392885051667690277099609375" lon="19.911836273968219757080078125">
        <ele>1320</ele>
        <time>2026-06-16T11:57:03.000Z</time>
        <extensions>
          <ns3:TrackPointExtension>
            <ns3:atemp>20.0</ns3:atemp>
          </ns3:TrackPointExtension>
        </extensions>
      </trkpt>
      <trkpt lat="42.62392885051667690277099609375" lon="19.911836273968219757080078125">
        <ele>1320</ele>
        <time>2026-06-16T11:57:04.000Z</time>
        <extensions>
          <ns3:TrackPointExtension>
            <ns3:atemp>20.0</ns3:atemp>
          </ns3:TrackPointExtension>
        </extensions>
      </trkpt>
      <trkpt lat="42.62392885051667690277099609375" lon="19.911836273968219757080078125">
        <ele>1320</ele>
        <time>2026-06-16T11:57:05.000Z</time>
        <extensions>
          <ns3:TrackPointExtension>
            <ns3:atemp>20.0</ns3:atemp>
          </ns3:TrackPointExtension>
        </extensions>
      </trkpt>
      <trkpt lat="42.62392885051667690277099609375" lon="19.911836273968219757080078125">
        <ele>1319.800048828125</ele>
        <time>2026-06-16T11:57:06.000Z</time>
        <extensions>
          <ns3:TrackPointExtension>
            <ns3:atemp>20.0</ns3:atemp>
          </ns3:TrackPointExtension>
        </extensions>
      </trkpt>
      <trkpt lat="42.62392885051667690277099609375" lon="19.911836273968219757080078125">
        <ele>1319.800048828125</ele>
        <time>2026-06-16T11:57:07.000Z</time>
        <extensions>
          <ns3:TrackPointExtension>
            <ns3:atemp>20.0</ns3:atemp>
          </ns3:TrackPointExtension>
        </extensions>
      </trkpt>
      <trkpt lat="42.62392885051667690277099609375" lon="19.911836273968219757080078125">
        <ele>1319.800048828125</ele>
        <time>2026-06-16T11:57:08.000Z</time>
        <extensions>
          <ns3:TrackPointExtension>
            <ns3:atemp>20.0</ns3:atemp>
          </ns3:TrackPointExtension>
        </extensions>
      </trkpt>
      <trkpt lat="42.62392885051667690277099609375" lon="19.911836273968219757080078125">
        <ele>1319.800048828125</ele>
        <time>2026-06-16T11:57:09.000Z</time>
        <extensions>
          <ns3:TrackPointExtension>
            <ns3:atemp>20.0</ns3:atemp>
          </ns3:TrackPointExtension>
        </extensions>
      </trkpt>
      <trkpt lat="42.62392885051667690277099609375" lon="19.911836273968219757080078125">
        <ele>1319.800048828125</ele>
        <time>2026-06-16T11:57:10.000Z</time>
        <extensions>
          <ns3:TrackPointExtension>
            <ns3:atemp>20.0</ns3:atemp>
          </ns3:TrackPointExtension>
        </extensions>
      </trkpt>
      <trkpt lat="42.62392885051667690277099609375" lon="19.911836273968219757080078125">
        <ele>1319.800048828125</ele>
        <time>2026-06-16T11:57:11.000Z</time>
        <extensions>
          <ns3:TrackPointExtension>
            <ns3:atemp>20.0</ns3:atemp>
          </ns3:TrackPointExtension>
        </extensions>
      </trkpt>
      <trkpt lat="42.62392885051667690277099609375" lon="19.911836273968219757080078125">
        <ele>1319.5999755859375</ele>
        <time>2026-06-16T11:57:12.000Z</time>
        <extensions>
          <ns3:TrackPointExtension>
            <ns3:atemp>20.0</ns3:atemp>
          </ns3:TrackPointExtension>
        </extensions>
      </trkpt>
      <trkpt lat="42.62392885051667690277099609375" lon="19.911836273968219757080078125">
        <ele>1319.5999755859375</ele>
        <time>2026-06-16T11:57:13.000Z</time>
        <extensions>
          <ns3:TrackPointExtension>
            <ns3:atemp>20.0</ns3:atemp>
          </ns3:TrackPointExtension>
        </extensions>
      </trkpt>
      <trkpt lat="42.62392885051667690277099609375" lon="19.911836273968219757080078125">
        <ele>1319.5999755859375</ele>
        <time>2026-06-16T11:57:14.000Z</time>
        <extensions>
          <ns3:TrackPointExtension>
            <ns3:atemp>20.0</ns3:atemp>
          </ns3:TrackPointExtension>
        </extensions>
      </trkpt>
      <trkpt lat="42.62392885051667690277099609375" lon="19.911836273968219757080078125">
        <ele>1319.5999755859375</ele>
        <time>2026-06-16T11:57:15.000Z</time>
        <extensions>
          <ns3:TrackPointExtension>
            <ns3:atemp>20.0</ns3:atemp>
          </ns3:TrackPointExtension>
        </extensions>
      </trkpt>
      <trkpt lat="42.62392885051667690277099609375" lon="19.911836273968219757080078125">
        <ele>1319.5999755859375</ele>
        <time>2026-06-16T11:57:16.000Z</time>
        <extensions>
          <ns3:TrackPointExtension>
            <ns3:atemp>20.0</ns3:atemp>
          </ns3:TrackPointExtension>
        </extensions>
      </trkpt>
      <trkpt lat="42.62392885051667690277099609375" lon="19.911836273968219757080078125">
        <ele>1319.4000244140625</ele>
        <time>2026-06-16T11:57:17.000Z</time>
        <extensions>
          <ns3:TrackPointExtension>
            <ns3:atemp>20.0</ns3:atemp>
          </ns3:TrackPointExtension>
        </extensions>
      </trkpt>
      <trkpt lat="42.62392885051667690277099609375" lon="19.911836273968219757080078125">
        <ele>1319.4000244140625</ele>
        <time>2026-06-16T11:57:18.000Z</time>
        <extensions>
          <ns3:TrackPointExtension>
            <ns3:atemp>20.0</ns3:atemp>
          </ns3:TrackPointExtension>
        </extensions>
      </trkpt>
      <trkpt lat="42.62392885051667690277099609375" lon="19.911836273968219757080078125">
        <ele>1319.4000244140625</ele>
        <time>2026-06-16T11:57:19.000Z</time>
        <extensions>
          <ns3:TrackPointExtension>
            <ns3:atemp>20.0</ns3:atemp>
          </ns3:TrackPointExtension>
        </extensions>
      </trkpt>
      <trkpt lat="42.62392885051667690277099609375" lon="19.911836273968219757080078125">
        <ele>1319.4000244140625</ele>
        <time>2026-06-16T11:57:20.000Z</time>
        <extensions>
          <ns3:TrackPointExtension>
            <ns3:atemp>20.0</ns3:atemp>
          </ns3:TrackPointExtension>
        </extensions>
      </trkpt>
      <trkpt lat="42.62392885051667690277099609375" lon="19.911836273968219757080078125">
        <ele>1319.4000244140625</ele>
        <time>2026-06-16T11:57:21.000Z</time>
        <extensions>
          <ns3:TrackPointExtension>
            <ns3:atemp>20.0</ns3:atemp>
          </ns3:TrackPointExtension>
        </extensions>
      </trkpt>
      <trkpt lat="42.62392885051667690277099609375" lon="19.911836273968219757080078125">
        <ele>1319.4000244140625</ele>
        <time>2026-06-16T11:57:22.000Z</time>
        <extensions>
          <ns3:TrackPointExtension>
            <ns3:atemp>20.0</ns3:atemp>
          </ns3:TrackPointExtension>
        </extensions>
      </trkpt>
      <trkpt lat="42.62392885051667690277099609375" lon="19.911836273968219757080078125">
        <ele>1319.199951171875</ele>
        <time>2026-06-16T11:57:23.000Z</time>
        <extensions>
          <ns3:TrackPointExtension>
            <ns3:atemp>20.0</ns3:atemp>
          </ns3:TrackPointExtension>
        </extensions>
      </trkpt>
      <trkpt lat="42.62392885051667690277099609375" lon="19.911836273968219757080078125">
        <ele>1319.199951171875</ele>
        <time>2026-06-16T11:57:24.000Z</time>
        <extensions>
          <ns3:TrackPointExtension>
            <ns3:atemp>20.0</ns3:atemp>
          </ns3:TrackPointExtension>
        </extensions>
      </trkpt>
      <trkpt lat="42.62392885051667690277099609375" lon="19.911836273968219757080078125">
        <ele>1319.199951171875</ele>
        <time>2026-06-16T11:57:25.000Z</time>
        <extensions>
          <ns3:TrackPointExtension>
            <ns3:atemp>20.0</ns3:atemp>
          </ns3:TrackPointExtension>
        </extensions>
      </trkpt>
      <trkpt lat="42.62392885051667690277099609375" lon="19.911836273968219757080078125">
        <ele>1319.199951171875</ele>
        <time>2026-06-16T11:57:26.000Z</time>
        <extensions>
          <ns3:TrackPointExtension>
            <ns3:atemp>20.0</ns3:atemp>
          </ns3:TrackPointExtension>
        </extensions>
      </trkpt>
      <trkpt lat="42.62392885051667690277099609375" lon="19.911836273968219757080078125">
        <ele>1319</ele>
        <time>2026-06-16T11:57:27.000Z</time>
        <extensions>
          <ns3:TrackPointExtension>
            <ns3:atemp>20.0</ns3:atemp>
          </ns3:TrackPointExtension>
        </extensions>
      </trkpt>
      <trkpt lat="42.62392885051667690277099609375" lon="19.911836273968219757080078125">
        <ele>1319</ele>
        <time>2026-06-16T11:57:28.000Z</time>
        <extensions>
          <ns3:TrackPointExtension>
            <ns3:atemp>20.0</ns3:atemp>
          </ns3:TrackPointExtension>
        </extensions>
      </trkpt>
      <trkpt lat="42.62392885051667690277099609375" lon="19.911836273968219757080078125">
        <ele>1319</ele>
        <time>2026-06-16T11:57:29.000Z</time>
        <extensions>
          <ns3:TrackPointExtension>
            <ns3:atemp>20.0</ns3:atemp>
          </ns3:TrackPointExtension>
        </extensions>
      </trkpt>
      <trkpt lat="42.62392885051667690277099609375" lon="19.911836273968219757080078125">
        <ele>1318.800048828125</ele>
        <time>2026-06-16T11:57:30.000Z</time>
        <extensions>
          <ns3:TrackPointExtension>
            <ns3:atemp>20.0</ns3:atemp>
          </ns3:TrackPointExtension>
        </extensions>
      </trkpt>
      <trkpt lat="42.62392885051667690277099609375" lon="19.911836273968219757080078125">
        <ele>1318.800048828125</ele>
        <time>2026-06-16T11:57:31.000Z</time>
        <extensions>
          <ns3:TrackPointExtension>
            <ns3:atemp>20.0</ns3:atemp>
          </ns3:TrackPointExtension>
        </extensions>
      </trkpt>
      <trkpt lat="42.62392885051667690277099609375" lon="19.911836273968219757080078125">
        <ele>1318.800048828125</ele>
        <time>2026-06-16T11:57:32.000Z</time>
        <extensions>
          <ns3:TrackPointExtension>
            <ns3:atemp>20.0</ns3:atemp>
          </ns3:TrackPointExtension>
        </extensions>
      </trkpt>
      <trkpt lat="42.62392885051667690277099609375" lon="19.911836273968219757080078125">
        <ele>1318.5999755859375</ele>
        <time>2026-06-16T11:57:33.000Z</time>
        <extensions>
          <ns3:TrackPointExtension>
            <ns3:atemp>20.0</ns3:atemp>
          </ns3:TrackPointExtension>
        </extensions>
      </trkpt>
      <trkpt lat="42.62392885051667690277099609375" lon="19.911836273968219757080078125">
        <ele>1318.5999755859375</ele>
        <time>2026-06-16T11:57:34.000Z</time>
        <extensions>
          <ns3:TrackPointExtension>
            <ns3:atemp>20.0</ns3:atemp>
          </ns3:TrackPointExtension>
        </extensions>
      </trkpt>
      <trkpt lat="42.62392885051667690277099609375" lon="19.911836273968219757080078125">
        <ele>1318.5999755859375</ele>
        <time>2026-06-16T11:57:35.000Z</time>
        <extensions>
          <ns3:TrackPointExtension>
            <ns3:atemp>20.0</ns3:atemp>
          </ns3:TrackPointExtension>
        </extensions>
      </trkpt>
      <trkpt lat="42.62392885051667690277099609375" lon="19.911836273968219757080078125">
        <ele>1318.5999755859375</ele>
        <time>2026-06-16T11:57:36.000Z</time>
        <extensions>
          <ns3:TrackPointExtension>
            <ns3:atemp>20.0</ns3:atemp>
          </ns3:TrackPointExtension>
        </extensions>
      </trkpt>
      <trkpt lat="42.62392885051667690277099609375" lon="19.911836273968219757080078125">
        <ele>1318.5999755859375</ele>
        <time>2026-06-16T11:57:37.000Z</time>
        <extensions>
          <ns3:TrackPointExtension>
            <ns3:atemp>20.0</ns3:atemp>
          </ns3:TrackPointExtension>
        </extensions>
      </trkpt>
      <trkpt lat="42.62392885051667690277099609375" lon="19.911836273968219757080078125">
        <ele>1318.4000244140625</ele>
        <time>2026-06-16T11:57:38.000Z</time>
        <extensions>
          <ns3:TrackPointExtension>
            <ns3:atemp>20.0</ns3:atemp>
          </ns3:TrackPointExtension>
        </extensions>
      </trkpt>
      <trkpt lat="42.62392885051667690277099609375" lon="19.911836273968219757080078125">
        <ele>1318.4000244140625</ele>
        <time>2026-06-16T11:57:39.000Z</time>
        <extensions>
          <ns3:TrackPointExtension>
            <ns3:atemp>20.0</ns3:atemp>
          </ns3:TrackPointExtension>
        </extensions>
      </trkpt>
      <trkpt lat="42.62392885051667690277099609375" lon="19.911836273968219757080078125">
        <ele>1318.4000244140625</ele>
        <time>2026-06-16T11:57:40.000Z</time>
        <extensions>
          <ns3:TrackPointExtension>
            <ns3:atemp>20.0</ns3:atemp>
          </ns3:TrackPointExtension>
        </extensions>
      </trkpt>
      <trkpt lat="42.62392885051667690277099609375" lon="19.911836273968219757080078125">
        <ele>1318.4000244140625</ele>
        <time>2026-06-16T11:57:41.000Z</time>
        <extensions>
          <ns3:TrackPointExtension>
            <ns3:atemp>20.0</ns3:atemp>
          </ns3:TrackPointExtension>
        </extensions>
      </trkpt>
      <trkpt lat="42.62392885051667690277099609375" lon="19.911836273968219757080078125">
        <ele>1318.199951171875</ele>
        <time>2026-06-16T11:57:42.000Z</time>
        <extensions>
          <ns3:TrackPointExtension>
            <ns3:atemp>20.0</ns3:atemp>
          </ns3:TrackPointExtension>
        </extensions>
      </trkpt>
      <trkpt lat="42.62392885051667690277099609375" lon="19.911836273968219757080078125">
        <ele>1318.199951171875</ele>
        <time>2026-06-16T11:57:43.000Z</time>
        <extensions>
          <ns3:TrackPointExtension>
            <ns3:atemp>20.0</ns3:atemp>
          </ns3:TrackPointExtension>
        </extensions>
      </trkpt>
      <trkpt lat="42.62392885051667690277099609375" lon="19.911836273968219757080078125">
        <ele>1318.199951171875</ele>
        <time>2026-06-16T11:57:44.000Z</time>
        <extensions>
          <ns3:TrackPointExtension>
            <ns3:atemp>20.0</ns3:atemp>
          </ns3:TrackPointExtension>
        </extensions>
      </trkpt>
      <trkpt lat="42.62392885051667690277099609375" lon="19.911836273968219757080078125">
        <ele>1318.199951171875</ele>
        <time>2026-06-16T11:57:45.000Z</time>
        <extensions>
          <ns3:TrackPointExtension>
            <ns3:atemp>20.0</ns3:atemp>
          </ns3:TrackPointExtension>
        </extensions>
      </trkpt>
      <trkpt lat="42.62392885051667690277099609375" lon="19.911836273968219757080078125">
        <ele>1318.199951171875</ele>
        <time>2026-06-16T11:57:46.000Z</time>
        <extensions>
          <ns3:TrackPointExtension>
            <ns3:atemp>20.0</ns3:atemp>
          </ns3:TrackPointExtension>
        </extensions>
      </trkpt>
      <trkpt lat="42.62392885051667690277099609375" lon="19.911836273968219757080078125">
        <ele>1318.199951171875</ele>
        <time>2026-06-16T11:57:47.000Z</time>
        <extensions>
          <ns3:TrackPointExtension>
            <ns3:atemp>20.0</ns3:atemp>
          </ns3:TrackPointExtension>
        </extensions>
      </trkpt>
      <trkpt lat="42.62392885051667690277099609375" lon="19.911836273968219757080078125">
        <ele>1318.199951171875</ele>
        <time>2026-06-16T11:57:48.000Z</time>
        <extensions>
          <ns3:TrackPointExtension>
            <ns3:atemp>20.0</ns3:atemp>
          </ns3:TrackPointExtension>
        </extensions>
      </trkpt>
      <trkpt lat="42.62392885051667690277099609375" lon="19.911836273968219757080078125">
        <ele>1318.199951171875</ele>
        <time>2026-06-16T11:57:49.000Z</time>
        <extensions>
          <ns3:TrackPointExtension>
            <ns3:atemp>20.0</ns3:atemp>
          </ns3:TrackPointExtension>
        </extensions>
      </trkpt>
      <trkpt lat="42.62392885051667690277099609375" lon="19.911836273968219757080078125">
        <ele>1318</ele>
        <time>2026-06-16T11:57:50.000Z</time>
        <extensions>
          <ns3:TrackPointExtension>
            <ns3:atemp>20.0</ns3:atemp>
          </ns3:TrackPointExtension>
        </extensions>
      </trkpt>
      <trkpt lat="42.62392885051667690277099609375" lon="19.911836273968219757080078125">
        <ele>1318</ele>
        <time>2026-06-16T11:57:51.000Z</time>
        <extensions>
          <ns3:TrackPointExtension>
            <ns3:atemp>20.0</ns3:atemp>
          </ns3:TrackPointExtension>
        </extensions>
      </trkpt>
      <trkpt lat="42.62392885051667690277099609375" lon="19.911836273968219757080078125">
        <ele>1318</ele>
        <time>2026-06-16T11:57:52.000Z</time>
        <extensions>
          <ns3:TrackPointExtension>
            <ns3:atemp>20.0</ns3:atemp>
          </ns3:TrackPointExtension>
        </extensions>
      </trkpt>
      <trkpt lat="42.62392885051667690277099609375" lon="19.911836273968219757080078125">
        <ele>1318</ele>
        <time>2026-06-16T11:57:53.000Z</time>
        <extensions>
          <ns3:TrackPointExtension>
            <ns3:atemp>20.0</ns3:atemp>
          </ns3:TrackPointExtension>
        </extensions>
      </trkpt>
      <trkpt lat="42.62392885051667690277099609375" lon="19.911836273968219757080078125">
        <ele>1318</ele>
        <time>2026-06-16T11:57:54.000Z</time>
        <extensions>
          <ns3:TrackPointExtension>
            <ns3:atemp>20.0</ns3:atemp>
          </ns3:TrackPointExtension>
        </extensions>
      </trkpt>
      <trkpt lat="42.62392885051667690277099609375" lon="19.911836273968219757080078125">
        <ele>1318</ele>
        <time>2026-06-16T11:57:55.000Z</time>
        <extensions>
          <ns3:TrackPointExtension>
            <ns3:atemp>20.0</ns3:atemp>
          </ns3:TrackPointExtension>
        </extensions>
      </trkpt>
      <trkpt lat="42.62392885051667690277099609375" lon="19.911836273968219757080078125">
        <ele>1318</ele>
        <time>2026-06-16T11:57:56.000Z</time>
        <extensions>
          <ns3:TrackPointExtension>
            <ns3:atemp>20.0</ns3:atemp>
          </ns3:TrackPointExtension>
        </extensions>
      </trkpt>
      <trkpt lat="42.62392885051667690277099609375" lon="19.911836273968219757080078125">
        <ele>1318</ele>
        <time>2026-06-16T11:57:57.000Z</time>
        <extensions>
          <ns3:TrackPointExtension>
            <ns3:atemp>20.0</ns3:atemp>
          </ns3:TrackPointExtension>
        </extensions>
      </trkpt>
      <trkpt lat="42.62392885051667690277099609375" lon="19.911836273968219757080078125">
        <ele>1318</ele>
        <time>2026-06-16T11:57:58.000Z</time>
        <extensions>
          <ns3:TrackPointExtension>
            <ns3:atemp>19.0</ns3:atemp>
          </ns3:TrackPointExtension>
        </extensions>
      </trkpt>
      <trkpt lat="42.62392885051667690277099609375" lon="19.911836273968219757080078125">
        <ele>1318</ele>
        <time>2026-06-16T11:57:59.000Z</time>
        <extensions>
          <ns3:TrackPointExtension>
            <ns3:atemp>20.0</ns3:atemp>
          </ns3:TrackPointExtension>
        </extensions>
      </trkpt>
      <trkpt lat="42.62392885051667690277099609375" lon="19.911836273968219757080078125">
        <ele>1318</ele>
        <time>2026-06-16T11:58:00.000Z</time>
        <extensions>
          <ns3:TrackPointExtension>
            <ns3:atemp>20.0</ns3:atemp>
          </ns3:TrackPointExtension>
        </extensions>
      </trkpt>
      <trkpt lat="42.62392885051667690277099609375" lon="19.911836273968219757080078125">
        <ele>1318</ele>
        <time>2026-06-16T11:58:01.000Z</time>
        <extensions>
          <ns3:TrackPointExtension>
            <ns3:atemp>19.0</ns3:atemp>
          </ns3:TrackPointExtension>
        </extensions>
      </trkpt>
      <trkpt lat="42.62392885051667690277099609375" lon="19.911836273968219757080078125">
        <ele>1318</ele>
        <time>2026-06-16T11:58:02.000Z</time>
        <extensions>
          <ns3:TrackPointExtension>
            <ns3:atemp>20.0</ns3:atemp>
          </ns3:TrackPointExtension>
        </extensions>
      </trkpt>
      <trkpt lat="42.62392885051667690277099609375" lon="19.911836273968219757080078125">
        <ele>1318</ele>
        <time>2026-06-16T11:58:03.000Z</time>
        <extensions>
          <ns3:TrackPointExtension>
            <ns3:atemp>20.0</ns3:atemp>
          </ns3:TrackPointExtension>
        </extensions>
      </trkpt>
      <trkpt lat="42.62392885051667690277099609375" lon="19.911836273968219757080078125">
        <ele>1318</ele>
        <time>2026-06-16T11:58:04.000Z</time>
        <extensions>
          <ns3:TrackPointExtension>
            <ns3:atemp>20.0</ns3:atemp>
          </ns3:TrackPointExtension>
        </extensions>
      </trkpt>
      <trkpt lat="42.62392885051667690277099609375" lon="19.911836273968219757080078125">
        <ele>1318</ele>
        <time>2026-06-16T11:58:05.000Z</time>
        <extensions>
          <ns3:TrackPointExtension>
            <ns3:atemp>20.0</ns3:atemp>
          </ns3:TrackPointExtension>
        </extensions>
      </trkpt>
      <trkpt lat="42.62392885051667690277099609375" lon="19.911836273968219757080078125">
        <ele>1318</ele>
        <time>2026-06-16T11:58:06.000Z</time>
        <extensions>
          <ns3:TrackPointExtension>
            <ns3:atemp>20.0</ns3:atemp>
          </ns3:TrackPointExtension>
        </extensions>
      </trkpt>
      <trkpt lat="42.62392885051667690277099609375" lon="19.911836273968219757080078125">
        <ele>1318</ele>
        <time>2026-06-16T11:58:07.000Z</time>
        <extensions>
          <ns3:TrackPointExtension>
            <ns3:atemp>20.0</ns3:atemp>
          </ns3:TrackPointExtension>
        </extensions>
      </trkpt>
      <trkpt lat="42.62392885051667690277099609375" lon="19.911836273968219757080078125">
        <ele>1318</ele>
        <time>2026-06-16T11:58:08.000Z</time>
        <extensions>
          <ns3:TrackPointExtension>
            <ns3:atemp>20.0</ns3:atemp>
          </ns3:TrackPointExtension>
        </extensions>
      </trkpt>
      <trkpt lat="42.62392885051667690277099609375" lon="19.911836273968219757080078125">
        <ele>1318</ele>
        <time>2026-06-16T11:58:09.000Z</time>
        <extensions>
          <ns3:TrackPointExtension>
            <ns3:atemp>20.0</ns3:atemp>
          </ns3:TrackPointExtension>
        </extensions>
      </trkpt>
      <trkpt lat="42.62392885051667690277099609375" lon="19.911836273968219757080078125">
        <ele>1318</ele>
        <time>2026-06-16T11:58:10.000Z</time>
        <extensions>
          <ns3:TrackPointExtension>
            <ns3:atemp>20.0</ns3:atemp>
          </ns3:TrackPointExtension>
        </extensions>
      </trkpt>
      <trkpt lat="42.62392885051667690277099609375" lon="19.911836273968219757080078125">
        <ele>1318</ele>
        <time>2026-06-16T11:58:11.000Z</time>
        <extensions>
          <ns3:TrackPointExtension>
            <ns3:atemp>20.0</ns3:atemp>
          </ns3:TrackPointExtension>
        </extensions>
      </trkpt>
      <trkpt lat="42.62392885051667690277099609375" lon="19.911836273968219757080078125">
        <ele>1318</ele>
        <time>2026-06-16T11:58:12.000Z</time>
        <extensions>
          <ns3:TrackPointExtension>
            <ns3:atemp>20.0</ns3:atemp>
          </ns3:TrackPointExtension>
        </extensions>
      </trkpt>
      <trkpt lat="42.62392885051667690277099609375" lon="19.911836273968219757080078125">
        <ele>1318</ele>
        <time>2026-06-16T11:58:13.000Z</time>
        <extensions>
          <ns3:TrackPointExtension>
            <ns3:atemp>20.0</ns3:atemp>
          </ns3:TrackPointExtension>
        </extensions>
      </trkpt>
      <trkpt lat="42.62392851524055004119873046875" lon="19.91183795034885406494140625">
        <ele>1318</ele>
        <time>2026-06-16T11:58:14.000Z</time>
        <extensions>
          <ns3:TrackPointExtension>
            <ns3:atemp>20.0</ns3:atemp>
          </ns3:TrackPointExtension>
        </extensions>
      </trkpt>
      <trkpt lat="42.623904459178447723388671875" lon="19.9118441529572010040283203125">
        <ele>1317.800048828125</ele>
        <time>2026-06-16T11:58:15.000Z</time>
        <extensions>
          <ns3:TrackPointExtension>
            <ns3:atemp>20.0</ns3:atemp>
          </ns3:TrackPointExtension>
        </extensions>
      </trkpt>
      <trkpt lat="42.62388157658278942108154296875" lon="19.91185110993683338165283203125">
        <ele>1317.5999755859375</ele>
        <time>2026-06-16T11:58:16.000Z</time>
        <extensions>
          <ns3:TrackPointExtension>
            <ns3:atemp>20.0</ns3:atemp>
          </ns3:TrackPointExtension>
        </extensions>
      </trkpt>
      <trkpt lat="42.6238484680652618408203125" lon="19.911855719983577728271484375">
        <ele>1317.4000244140625</ele>
        <time>2026-06-16T11:58:17.000Z</time>
        <extensions>
          <ns3:TrackPointExtension>
            <ns3:atemp>20.0</ns3:atemp>
          </ns3:TrackPointExtension>
        </extensions>
      </trkpt>
      <trkpt lat="42.62381016276776790618896484375" lon="19.91186670027673244476318359375">
        <ele>1316.800048828125</ele>
        <time>2026-06-16T11:58:18.000Z</time>
        <extensions>
          <ns3:TrackPointExtension>
            <ns3:atemp>20.0</ns3:atemp>
          </ns3:TrackPointExtension>
        </extensions>
      </trkpt>
      <trkpt lat="42.6237601228058338165283203125" lon="19.91187357343733310699462890625">
        <ele>1316.199951171875</ele>
        <time>2026-06-16T11:58:19.000Z</time>
        <extensions>
          <ns3:TrackPointExtension>
            <ns3:atemp>20.0</ns3:atemp>
          </ns3:TrackPointExtension>
        </extensions>
      </trkpt>
      <trkpt lat="42.62371779419481754302978515625" lon="19.9118788540363311767578125">
        <ele>1315.199951171875</ele>
        <time>2026-06-16T11:58:20.000Z</time>
        <extensions>
          <ns3:TrackPointExtension>
            <ns3:atemp>20.0</ns3:atemp>
          </ns3:TrackPointExtension>
        </extensions>
      </trkpt>
      <trkpt lat="42.62366666458547115325927734375" lon="19.9118998087942600250244140625">
        <ele>1314.4000244140625</ele>
        <time>2026-06-16T11:58:21.000Z</time>
        <extensions>
          <ns3:TrackPointExtension>
            <ns3:atemp>20.0</ns3:atemp>
          </ns3:TrackPointExtension>
        </extensions>
      </trkpt>
      <trkpt lat="42.62361989356577396392822265625" lon="19.911918081343173980712890625">
        <ele>1312.5999755859375</ele>
        <time>2026-06-16T11:58:22.000Z</time>
        <extensions>
          <ns3:TrackPointExtension>
            <ns3:atemp>20.0</ns3:atemp>
          </ns3:TrackPointExtension>
        </extensions>
      </trkpt>
      <trkpt lat="42.62356608174741268157958984375" lon="19.9119557999074459075927734375">
        <ele>1311</ele>
        <time>2026-06-16T11:58:23.000Z</time>
        <extensions>
          <ns3:TrackPointExtension>
            <ns3:atemp>20.0</ns3:atemp>
          </ns3:TrackPointExtension>
        </extensions>
      </trkpt>
      <trkpt lat="42.62352635152637958526611328125" lon="19.91197935305535793304443359375">
        <ele>1309.199951171875</ele>
        <time>2026-06-16T11:58:24.000Z</time>
        <extensions>
          <ns3:TrackPointExtension>
            <ns3:atemp>20.0</ns3:atemp>
          </ns3:TrackPointExtension>
        </extensions>
      </trkpt>
      <trkpt lat="42.62349382974207401275634765625" lon="19.9119819514453411102294921875">
        <ele>1307.5999755859375</ele>
        <time>2026-06-16T11:58:25.000Z</time>
        <extensions>
          <ns3:TrackPointExtension>
            <ns3:atemp>20.0</ns3:atemp>
          </ns3:TrackPointExtension>
        </extensions>
      </trkpt>
      <trkpt lat="42.62346415780484676361083984375" lon="19.91198169998824596405029296875">
        <ele>1306.199951171875</ele>
        <time>2026-06-16T11:58:26.000Z</time>
        <extensions>
          <ns3:TrackPointExtension>
            <ns3:atemp>20.0</ns3:atemp>
          </ns3:TrackPointExtension>
        </extensions>
      </trkpt>
      <trkpt lat="42.62342744506895542144775390625" lon="19.9119861423969268798828125">
        <ele>1304.5999755859375</ele>
        <time>2026-06-16T11:58:27.000Z</time>
        <extensions>
          <ns3:TrackPointExtension>
            <ns3:atemp>20.0</ns3:atemp>
          </ns3:TrackPointExtension>
        </extensions>
      </trkpt>
      <trkpt lat="42.62339073233306407928466796875" lon="19.91199879907071590423583984375">
        <ele>1303</ele>
        <time>2026-06-16T11:58:28.000Z</time>
        <extensions>
          <ns3:TrackPointExtension>
            <ns3:atemp>20.0</ns3:atemp>
          </ns3:TrackPointExtension>
        </extensions>
      </trkpt>
      <trkpt lat="42.62335217557847499847412109375" lon="19.912007264792919158935546875">
        <ele>1301.199951171875</ele>
        <time>2026-06-16T11:58:29.000Z</time>
        <extensions>
          <ns3:TrackPointExtension>
            <ns3:atemp>20.0</ns3:atemp>
          </ns3:TrackPointExtension>
        </extensions>
      </trkpt>
      <trkpt lat="42.6233021356165409088134765625" lon="19.91201640106737613677978515625">
        <ele>1299.5999755859375</ele>
        <time>2026-06-16T11:58:30.000Z</time>
        <extensions>
          <ns3:TrackPointExtension>
            <ns3:atemp>20.0</ns3:atemp>
          </ns3:TrackPointExtension>
        </extensions>
      </trkpt>
      <trkpt lat="42.62324371375143527984619140625" lon="19.91201992146670818328857421875">
        <ele>1297.800048828125</ele>
        <time>2026-06-16T11:58:31.000Z</time>
        <extensions>
          <ns3:TrackPointExtension>
            <ns3:atemp>20.0</ns3:atemp>
          </ns3:TrackPointExtension>
        </extensions>
      </trkpt>
      <trkpt lat="42.62320264242589473724365234375" lon="19.9120151437819004058837890625">
        <ele>1296.4000244140625</ele>
        <time>2026-06-16T11:58:32.000Z</time>
        <extensions>
          <ns3:TrackPointExtension>
            <ns3:atemp>20.0</ns3:atemp>
          </ns3:TrackPointExtension>
        </extensions>
      </trkpt>
      <trkpt lat="42.6231562905013561248779296875" lon="19.9120171554386615753173828125">
        <ele>1294.800048828125</ele>
        <time>2026-06-16T11:58:33.000Z</time>
        <extensions>
          <ns3:TrackPointExtension>
            <ns3:atemp>20.0</ns3:atemp>
          </ns3:TrackPointExtension>
        </extensions>
      </trkpt>
      <trkpt lat="42.62311496771872043609619140625" lon="19.9120315723121166229248046875">
        <ele>1293.199951171875</ele>
        <time>2026-06-16T11:58:34.000Z</time>
        <extensions>
          <ns3:TrackPointExtension>
            <ns3:atemp>20.0</ns3:atemp>
          </ns3:TrackPointExtension>
        </extensions>
      </trkpt>
      <trkpt lat="42.62307825498282909393310546875" lon="19.9120583944022655487060546875">
        <ele>1291.199951171875</ele>
        <time>2026-06-16T11:58:35.000Z</time>
        <extensions>
          <ns3:TrackPointExtension>
            <ns3:atemp>20.0</ns3:atemp>
          </ns3:TrackPointExtension>
        </extensions>
      </trkpt>
      <trkpt lat="42.62303751893341541290283203125" lon="19.912083707749843597412109375">
        <ele>1290</ele>
        <time>2026-06-16T11:58:36.000Z</time>
        <extensions>
          <ns3:TrackPointExtension>
            <ns3:atemp>20.0</ns3:atemp>
          </ns3:TrackPointExtension>
        </extensions>
      </trkpt>
      <trkpt lat="42.6229950226843357086181640625" lon="19.9121187441051006317138671875">
        <ele>1288.4000244140625</ele>
        <time>2026-06-16T11:58:37.000Z</time>
        <extensions>
          <ns3:TrackPointExtension>
            <ns3:atemp>20.0</ns3:atemp>
          </ns3:TrackPointExtension>
        </extensions>
      </trkpt>
      <trkpt lat="42.62295118533074855804443359375" lon="19.9121529422700405120849609375">
        <ele>1287</ele>
        <time>2026-06-16T11:58:38.000Z</time>
        <extensions>
          <ns3:TrackPointExtension>
            <ns3:atemp>20.0</ns3:atemp>
          </ns3:TrackPointExtension>
        </extensions>
      </trkpt>
      <trkpt lat="42.62290709652006626129150390625" lon="19.91217347793281078338623046875">
        <ele>1285.800048828125</ele>
        <time>2026-06-16T11:58:39.000Z</time>
        <extensions>
          <ns3:TrackPointExtension>
            <ns3:atemp>20.0</ns3:atemp>
          </ns3:TrackPointExtension>
        </extensions>
      </trkpt>
      <trkpt lat="42.62287474237382411956787109375" lon="19.9122012220323085784912109375">
        <ele>1284.4000244140625</ele>
        <time>2026-06-16T11:58:40.000Z</time>
        <extensions>
          <ns3:TrackPointExtension>
            <ns3:atemp>20.0</ns3:atemp>
          </ns3:TrackPointExtension>
        </extensions>
      </trkpt>
      <trkpt lat="42.6228475011885166168212890625" lon="19.91223583929240703582763671875">
        <ele>1282.5999755859375</ele>
        <time>2026-06-16T11:58:41.000Z</time>
        <extensions>
          <ns3:TrackPointExtension>
            <ns3:atemp>20.0</ns3:atemp>
          </ns3:TrackPointExtension>
        </extensions>
      </trkpt>
      <trkpt lat="42.622825540602207183837890625" lon="19.9122535251080989837646484375">
        <ele>1281.4000244140625</ele>
        <time>2026-06-16T11:58:42.000Z</time>
        <extensions>
          <ns3:TrackPointExtension>
            <ns3:atemp>20.0</ns3:atemp>
          </ns3:TrackPointExtension>
        </extensions>
      </trkpt>
      <trkpt lat="42.62280450202524662017822265625" lon="19.91227624006569385528564453125">
        <ele>1280.4000244140625</ele>
        <time>2026-06-16T11:58:43.000Z</time>
        <extensions>
          <ns3:TrackPointExtension>
            <ns3:atemp>20.0</ns3:atemp>
          </ns3:TrackPointExtension>
        </extensions>
      </trkpt>
      <trkpt lat="42.622780613601207733154296875" lon="19.912302978336811065673828125">
        <ele>1279.4000244140625</ele>
        <time>2026-06-16T11:58:44.000Z</time>
        <extensions>
          <ns3:TrackPointExtension>
            <ns3:atemp>20.0</ns3:atemp>
          </ns3:TrackPointExtension>
        </extensions>
      </trkpt>
      <trkpt lat="42.6227693818509578704833984375" lon="19.912327788770198822021484375">
        <ele>1278.4000244140625</ele>
        <time>2026-06-16T11:58:45.000Z</time>
        <extensions>
          <ns3:TrackPointExtension>
            <ns3:atemp>20.0</ns3:atemp>
          </ns3:TrackPointExtension>
        </extensions>
      </trkpt>
      <trkpt lat="42.62274809181690216064453125" lon="19.91235922090709209442138671875">
        <ele>1277.5999755859375</ele>
        <time>2026-06-16T11:58:46.000Z</time>
        <extensions>
          <ns3:TrackPointExtension>
            <ns3:atemp>20.0</ns3:atemp>
          </ns3:TrackPointExtension>
        </extensions>
      </trkpt>
      <trkpt lat="42.62272319756448268890380859375" lon="19.912389814853668212890625">
        <ele>1276.5999755859375</ele>
        <time>2026-06-16T11:58:47.000Z</time>
        <extensions>
          <ns3:TrackPointExtension>
            <ns3:atemp>20.0</ns3:atemp>
          </ns3:TrackPointExtension>
        </extensions>
      </trkpt>
      <trkpt lat="42.62269788421690464019775390625" lon="19.91241772659122943878173828125">
        <ele>1275.4000244140625</ele>
        <time>2026-06-16T11:58:48.000Z</time>
        <extensions>
          <ns3:TrackPointExtension>
            <ns3:atemp>20.0</ns3:atemp>
          </ns3:TrackPointExtension>
        </extensions>
      </trkpt>
      <trkpt lat="42.6226734928786754608154296875" lon="19.91242711432278156280517578125">
        <ele>1274.5999755859375</ele>
        <time>2026-06-16T11:58:49.000Z</time>
        <extensions>
          <ns3:TrackPointExtension>
            <ns3:atemp>20.0</ns3:atemp>
          </ns3:TrackPointExtension>
        </extensions>
      </trkpt>
      <trkpt lat="42.62265379540622234344482421875" lon="19.91244136355817317962646484375">
        <ele>1273.800048828125</ele>
        <time>2026-06-16T11:58:50.000Z</time>
        <extensions>
          <ns3:TrackPointExtension>
            <ns3:atemp>20.0</ns3:atemp>
          </ns3:TrackPointExtension>
        </extensions>
      </trkpt>
      <trkpt lat="42.62264356948435306549072265625" lon="19.91246432997286319732666015625">
        <ele>1273</ele>
        <time>2026-06-16T11:58:51.000Z</time>
        <extensions>
          <ns3:TrackPointExtension>
            <ns3:atemp>20.0</ns3:atemp>
          </ns3:TrackPointExtension>
        </extensions>
      </trkpt>
      <trkpt lat="42.62263736687600612640380859375" lon="19.91248813457787036895751953125">
        <ele>1272.199951171875</ele>
        <time>2026-06-16T11:58:52.000Z</time>
        <extensions>
          <ns3:TrackPointExtension>
            <ns3:atemp>20.0</ns3:atemp>
          </ns3:TrackPointExtension>
        </extensions>
      </trkpt>
      <trkpt lat="42.6226198486983776092529296875" lon="19.91250590421259403228759765625">
        <ele>1271.4000244140625</ele>
        <time>2026-06-16T11:58:53.000Z</time>
        <extensions>
          <ns3:TrackPointExtension>
            <ns3:atemp>20.0</ns3:atemp>
          </ns3:TrackPointExtension>
        </extensions>
      </trkpt>
      <trkpt lat="42.62259663082659244537353515625" lon="19.912522248923778533935546875">
        <ele>1270.5999755859375</ele>
        <time>2026-06-16T11:58:54.000Z</time>
        <extensions>
          <ns3:TrackPointExtension>
            <ns3:atemp>20.0</ns3:atemp>
          </ns3:TrackPointExtension>
        </extensions>
      </trkpt>
      <trkpt lat="42.62257148511707782745361328125" lon="19.91254932247102260589599609375">
        <ele>1269.800048828125</ele>
        <time>2026-06-16T11:58:55.000Z</time>
        <extensions>
          <ns3:TrackPointExtension>
            <ns3:atemp>20.0</ns3:atemp>
          </ns3:TrackPointExtension>
        </extensions>
      </trkpt>
      <trkpt lat="42.6225556433200836181640625" lon="19.91257564164698123931884765625">
        <ele>1268.800048828125</ele>
        <time>2026-06-16T11:58:56.000Z</time>
        <extensions>
          <ns3:TrackPointExtension>
            <ns3:atemp>20.0</ns3:atemp>
          </ns3:TrackPointExtension>
        </extensions>
      </trkpt>
      <trkpt lat="42.62253209017217159271240234375" lon="19.91260548122227191925048828125">
        <ele>1268</ele>
        <time>2026-06-16T11:58:57.000Z</time>
        <extensions>
          <ns3:TrackPointExtension>
            <ns3:atemp>20.0</ns3:atemp>
          </ns3:TrackPointExtension>
        </extensions>
      </trkpt>
      <trkpt lat="42.622508704662322998046875" lon="19.912642277777194976806640625">
        <ele>1266.800048828125</ele>
        <time>2026-06-16T11:58:58.000Z</time>
        <extensions>
          <ns3:TrackPointExtension>
            <ns3:atemp>20.0</ns3:atemp>
          </ns3:TrackPointExtension>
        </extensions>
      </trkpt>
      <trkpt lat="42.62248565442860126495361328125" lon="19.912679158151149749755859375">
        <ele>1265.800048828125</ele>
        <time>2026-06-16T11:58:59.000Z</time>
        <extensions>
          <ns3:TrackPointExtension>
            <ns3:atemp>20.0</ns3:atemp>
          </ns3:TrackPointExtension>
        </extensions>
      </trkpt>
      <trkpt lat="42.62245598249137401580810546875" lon="19.9127111770212650299072265625">
        <ele>1264.5999755859375</ele>
        <time>2026-06-16T11:59:00.000Z</time>
        <extensions>
          <ns3:TrackPointExtension>
            <ns3:atemp>20.0</ns3:atemp>
          </ns3:TrackPointExtension>
        </extensions>
      </trkpt>
      <trkpt lat="42.6224488578736782073974609375" lon="19.9127398431301116943359375">
        <ele>1263.5999755859375</ele>
        <time>2026-06-16T11:59:01.000Z</time>
        <extensions>
          <ns3:TrackPointExtension>
            <ns3:atemp>20.0</ns3:atemp>
          </ns3:TrackPointExtension>
        </extensions>
      </trkpt>
      <trkpt lat="42.6224456727504730224609375" lon="19.91277060471475124359130859375">
        <ele>1262.5999755859375</ele>
        <time>2026-06-16T11:59:02.000Z</time>
        <extensions>
          <ns3:TrackPointExtension>
            <ns3:atemp>20.0</ns3:atemp>
          </ns3:TrackPointExtension>
        </extensions>
      </trkpt>
      <trkpt lat="42.62244424782693386077880859375" lon="19.91279742680490016937255859375">
        <ele>1261.800048828125</ele>
        <time>2026-06-16T11:59:03.000Z</time>
        <extensions>
          <ns3:TrackPointExtension>
            <ns3:atemp>20.0</ns3:atemp>
          </ns3:TrackPointExtension>
        </extensions>
      </trkpt>
      <trkpt lat="42.6224337704479694366455078125" lon="19.9128261767327785491943359375">
        <ele>1261</ele>
        <time>2026-06-16T11:59:04.000Z</time>
        <extensions>
          <ns3:TrackPointExtension>
            <ns3:atemp>20.0</ns3:atemp>
          </ns3:TrackPointExtension>
        </extensions>
      </trkpt>
      <trkpt lat="42.62241491116583347320556640625" lon="19.9128524959087371826171875">
        <ele>1260.199951171875</ele>
        <time>2026-06-16T11:59:05.000Z</time>
        <extensions>
          <ns3:TrackPointExtension>
            <ns3:atemp>20.0</ns3:atemp>
          </ns3:TrackPointExtension>
        </extensions>
      </trkpt>
      <trkpt lat="42.62238356284797191619873046875" lon="19.91288107819855213165283203125">
        <ele>1259.199951171875</ele>
        <time>2026-06-16T11:59:06.000Z</time>
        <extensions>
          <ns3:TrackPointExtension>
            <ns3:atemp>20.0</ns3:atemp>
          </ns3:TrackPointExtension>
        </extensions>
      </trkpt>
      <trkpt lat="42.62234567664563655853271484375" lon="19.91289365105330944061279296875">
        <ele>1258.4000244140625</ele>
        <time>2026-06-16T11:59:07.000Z</time>
        <extensions>
          <ns3:TrackPointExtension>
            <ns3:atemp>20.0</ns3:atemp>
          </ns3:TrackPointExtension>
        </extensions>
      </trkpt>
      <trkpt lat="42.6223110593855381011962890625" lon="19.91290974430739879608154296875">
        <ele>1257.4000244140625</ele>
        <time>2026-06-16T11:59:08.000Z</time>
        <extensions>
          <ns3:TrackPointExtension>
            <ns3:atemp>20.0</ns3:atemp>
          </ns3:TrackPointExtension>
        </extensions>
      </trkpt>
      <trkpt lat="42.6222882606089115142822265625" lon="19.91294645704329013824462890625">
        <ele>1256.4000244140625</ele>
        <time>2026-06-16T11:59:09.000Z</time>
        <extensions>
          <ns3:TrackPointExtension>
            <ns3:atemp>20.0</ns3:atemp>
          </ns3:TrackPointExtension>
        </extensions>
      </trkpt>
      <trkpt lat="42.6222664676606655120849609375" lon="19.9129914678633213043212890625">
        <ele>1255.5999755859375</ele>
        <time>2026-06-16T11:59:10.000Z</time>
        <extensions>
          <ns3:TrackPointExtension>
            <ns3:atemp>20.0</ns3:atemp>
          </ns3:TrackPointExtension>
        </extensions>
      </trkpt>
      <trkpt lat="42.622258923947811126708984375" lon="19.91304234601557254791259765625">
        <ele>1254.5999755859375</ele>
        <time>2026-06-16T11:59:11.000Z</time>
        <extensions>
          <ns3:TrackPointExtension>
            <ns3:atemp>20.0</ns3:atemp>
          </ns3:TrackPointExtension>
        </extensions>
      </trkpt>
      <trkpt lat="42.62226889841258525848388671875" lon="19.9130856804549694061279296875">
        <ele>1253.5999755859375</ele>
        <time>2026-06-16T11:59:12.000Z</time>
        <extensions>
          <ns3:TrackPointExtension>
            <ns3:atemp>20.0</ns3:atemp>
          </ns3:TrackPointExtension>
        </extensions>
      </trkpt>
      <trkpt lat="42.62228147126734256744384765625" lon="19.9131272546947002410888671875">
        <ele>1252.5999755859375</ele>
        <time>2026-06-16T11:59:13.000Z</time>
        <extensions>
          <ns3:TrackPointExtension>
            <ns3:atemp>20.0</ns3:atemp>
          </ns3:TrackPointExtension>
        </extensions>
      </trkpt>
      <trkpt lat="42.6222793757915496826171875" lon="19.913165979087352752685546875">
        <ele>1251.800048828125</ele>
        <time>2026-06-16T11:59:14.000Z</time>
        <extensions>
          <ns3:TrackPointExtension>
            <ns3:atemp>20.0</ns3:atemp>
          </ns3:TrackPointExtension>
        </extensions>
      </trkpt>
      <trkpt lat="42.62227694503962993621826171875" lon="19.913204871118068695068359375">
        <ele>1251</ele>
        <time>2026-06-16T11:59:15.000Z</time>
        <extensions>
          <ns3:TrackPointExtension>
            <ns3:atemp>20.0</ns3:atemp>
          </ns3:TrackPointExtension>
        </extensions>
      </trkpt>
      <trkpt lat="42.62225431390106678009033203125" lon="19.91322691552340984344482421875">
        <ele>1250.4000244140625</ele>
        <time>2026-06-16T11:59:16.000Z</time>
        <extensions>
          <ns3:TrackPointExtension>
            <ns3:atemp>19.0</ns3:atemp>
          </ns3:TrackPointExtension>
        </extensions>
      </trkpt>
      <trkpt lat="42.622230760753154754638671875" lon="19.9132238142192363739013671875">
        <ele>1249.800048828125</ele>
        <time>2026-06-16T11:59:17.000Z</time>
        <extensions>
          <ns3:TrackPointExtension>
            <ns3:atemp>20.0</ns3:atemp>
          </ns3:TrackPointExtension>
        </extensions>
      </trkpt>
      <trkpt lat="42.6222069561481475830078125" lon="19.91323328576982021331787109375">
        <ele>1249</ele>
        <time>2026-06-16T11:59:18.000Z</time>
        <extensions>
          <ns3:TrackPointExtension>
            <ns3:atemp>19.0</ns3:atemp>
          </ns3:TrackPointExtension>
        </extensions>
      </trkpt>
      <trkpt lat="42.62218021787703037261962890625" lon="19.91324502043426036834716796875">
        <ele>1248.199951171875</ele>
        <time>2026-06-16T11:59:19.000Z</time>
        <extensions>
          <ns3:TrackPointExtension>
            <ns3:atemp>19.0</ns3:atemp>
          </ns3:TrackPointExtension>
        </extensions>
      </trkpt>
      <trkpt lat="42.62215264141559600830078125" lon="19.91324669681489467620849609375">
        <ele>1247.5999755859375</ele>
        <time>2026-06-16T11:59:20.000Z</time>
        <extensions>
          <ns3:TrackPointExtension>
            <ns3:atemp>19.0</ns3:atemp>
          </ns3:TrackPointExtension>
        </extensions>
      </trkpt>
      <trkpt lat="42.62212858535349369049072265625" lon="19.91323940455913543701171875">
        <ele>1247</ele>
        <time>2026-06-16T11:59:21.000Z</time>
        <extensions>
          <ns3:TrackPointExtension>
            <ns3:atemp>19.0</ns3:atemp>
          </ns3:TrackPointExtension>
        </extensions>
      </trkpt>
      <trkpt lat="42.62212179601192474365234375" lon="19.9132345430552959442138671875">
        <ele>1246.5999755859375</ele>
        <time>2026-06-16T11:59:22.000Z</time>
        <extensions>
          <ns3:TrackPointExtension>
            <ns3:atemp>19.0</ns3:atemp>
          </ns3:TrackPointExtension>
        </extensions>
      </trkpt>
      <trkpt lat="42.6221222989261150360107421875" lon="19.9132378958165645599365234375">
        <ele>1246.199951171875</ele>
        <time>2026-06-16T11:59:23.000Z</time>
        <extensions>
          <ns3:TrackPointExtension>
            <ns3:atemp>19.0</ns3:atemp>
          </ns3:TrackPointExtension>
        </extensions>
      </trkpt>
      <trkpt lat="42.6221222989261150360107421875" lon="19.91323797963559627532958984375">
        <ele>1245.800048828125</ele>
        <time>2026-06-16T11:59:24.000Z</time>
        <extensions>
          <ns3:TrackPointExtension>
            <ns3:atemp>19.0</ns3:atemp>
          </ns3:TrackPointExtension>
        </extensions>
      </trkpt>
      <trkpt lat="42.6221222989261150360107421875" lon="19.91323797963559627532958984375">
        <ele>1245.5999755859375</ele>
        <time>2026-06-16T11:59:25.000Z</time>
        <extensions>
          <ns3:TrackPointExtension>
            <ns3:atemp>19.0</ns3:atemp>
          </ns3:TrackPointExtension>
        </extensions>
      </trkpt>
      <trkpt lat="42.6221222989261150360107421875" lon="19.91323797963559627532958984375">
        <ele>1245.4000244140625</ele>
        <time>2026-06-16T11:59:26.000Z</time>
        <extensions>
          <ns3:TrackPointExtension>
            <ns3:atemp>19.0</ns3:atemp>
          </ns3:TrackPointExtension>
        </extensions>
      </trkpt>
      <trkpt lat="42.6221222989261150360107421875" lon="19.91323797963559627532958984375">
        <ele>1245.199951171875</ele>
        <time>2026-06-16T11:59:27.000Z</time>
        <extensions>
          <ns3:TrackPointExtension>
            <ns3:atemp>19.0</ns3:atemp>
          </ns3:TrackPointExtension>
        </extensions>
      </trkpt>
      <trkpt lat="42.6221222989261150360107421875" lon="19.91323797963559627532958984375">
        <ele>1245</ele>
        <time>2026-06-16T11:59:28.000Z</time>
        <extensions>
          <ns3:TrackPointExtension>
            <ns3:atemp>19.0</ns3:atemp>
          </ns3:TrackPointExtension>
        </extensions>
      </trkpt>
      <trkpt lat="42.6221222989261150360107421875" lon="19.91323797963559627532958984375">
        <ele>1245</ele>
        <time>2026-06-16T11:59:29.000Z</time>
        <extensions>
          <ns3:TrackPointExtension>
            <ns3:atemp>19.0</ns3:atemp>
          </ns3:TrackPointExtension>
        </extensions>
      </trkpt>
      <trkpt lat="42.6221222989261150360107421875" lon="19.91323797963559627532958984375">
        <ele>1245</ele>
        <time>2026-06-16T11:59:30.000Z</time>
        <extensions>
          <ns3:TrackPointExtension>
            <ns3:atemp>19.0</ns3:atemp>
          </ns3:TrackPointExtension>
        </extensions>
      </trkpt>
      <trkpt lat="42.6221222989261150360107421875" lon="19.91323797963559627532958984375">
        <ele>1244.800048828125</ele>
        <time>2026-06-16T11:59:31.000Z</time>
        <extensions>
          <ns3:TrackPointExtension>
            <ns3:atemp>19.0</ns3:atemp>
          </ns3:TrackPointExtension>
        </extensions>
      </trkpt>
      <trkpt lat="42.6221222989261150360107421875" lon="19.91323797963559627532958984375">
        <ele>1244.800048828125</ele>
        <time>2026-06-16T11:59:32.000Z</time>
        <extensions>
          <ns3:TrackPointExtension>
            <ns3:atemp>19.0</ns3:atemp>
          </ns3:TrackPointExtension>
        </extensions>
      </trkpt>
      <trkpt lat="42.6221222989261150360107421875" lon="19.91323797963559627532958984375">
        <ele>1244.800048828125</ele>
        <time>2026-06-16T11:59:33.000Z</time>
        <extensions>
          <ns3:TrackPointExtension>
            <ns3:atemp>19.0</ns3:atemp>
          </ns3:TrackPointExtension>
        </extensions>
      </trkpt>
      <trkpt lat="42.6221222989261150360107421875" lon="19.91323797963559627532958984375">
        <ele>1244.5999755859375</ele>
        <time>2026-06-16T11:59:34.000Z</time>
        <extensions>
          <ns3:TrackPointExtension>
            <ns3:atemp>19.0</ns3:atemp>
          </ns3:TrackPointExtension>
        </extensions>
      </trkpt>
      <trkpt lat="42.6221222989261150360107421875" lon="19.91323797963559627532958984375">
        <ele>1244.5999755859375</ele>
        <time>2026-06-16T11:59:35.000Z</time>
        <extensions>
          <ns3:TrackPointExtension>
            <ns3:atemp>19.0</ns3:atemp>
          </ns3:TrackPointExtension>
        </extensions>
      </trkpt>
      <trkpt lat="42.6221222989261150360107421875" lon="19.91323797963559627532958984375">
        <ele>1244.5999755859375</ele>
        <time>2026-06-16T11:59:36.000Z</time>
        <extensions>
          <ns3:TrackPointExtension>
            <ns3:atemp>19.0</ns3:atemp>
          </ns3:TrackPointExtension>
        </extensions>
      </trkpt>
      <trkpt lat="42.6221222989261150360107421875" lon="19.91323797963559627532958984375">
        <ele>1244.5999755859375</ele>
        <time>2026-06-16T11:59:37.000Z</time>
        <extensions>
          <ns3:TrackPointExtension>
            <ns3:atemp>19.0</ns3:atemp>
          </ns3:TrackPointExtension>
        </extensions>
      </trkpt>
      <trkpt lat="42.6221222989261150360107421875" lon="19.91323797963559627532958984375">
        <ele>1244.5999755859375</ele>
        <time>2026-06-16T11:59:38.000Z</time>
        <extensions>
          <ns3:TrackPointExtension>
            <ns3:atemp>19.0</ns3:atemp>
          </ns3:TrackPointExtension>
        </extensions>
      </trkpt>
      <trkpt lat="42.6221222989261150360107421875" lon="19.91323797963559627532958984375">
        <ele>1244.5999755859375</ele>
        <time>2026-06-16T11:59:39.000Z</time>
        <extensions>
          <ns3:TrackPointExtension>
            <ns3:atemp>19.0</ns3:atemp>
          </ns3:TrackPointExtension>
        </extensions>
      </trkpt>
      <trkpt lat="42.6221222989261150360107421875" lon="19.91323797963559627532958984375">
        <ele>1244.4000244140625</ele>
        <time>2026-06-16T11:59:40.000Z</time>
        <extensions>
          <ns3:TrackPointExtension>
            <ns3:atemp>19.0</ns3:atemp>
          </ns3:TrackPointExtension>
        </extensions>
      </trkpt>
      <trkpt lat="42.6221222989261150360107421875" lon="19.91323797963559627532958984375">
        <ele>1244.4000244140625</ele>
        <time>2026-06-16T11:59:41.000Z</time>
        <extensions>
          <ns3:TrackPointExtension>
            <ns3:atemp>19.0</ns3:atemp>
          </ns3:TrackPointExtension>
        </extensions>
      </trkpt>
      <trkpt lat="42.6221222989261150360107421875" lon="19.91323797963559627532958984375">
        <ele>1244.4000244140625</ele>
        <time>2026-06-16T11:59:42.000Z</time>
        <extensions>
          <ns3:TrackPointExtension>
            <ns3:atemp>19.0</ns3:atemp>
          </ns3:TrackPointExtension>
        </extensions>
      </trkpt>
      <trkpt lat="42.6221222989261150360107421875" lon="19.91323797963559627532958984375">
        <ele>1244.4000244140625</ele>
        <time>2026-06-16T11:59:43.000Z</time>
        <extensions>
          <ns3:TrackPointExtension>
            <ns3:atemp>19.0</ns3:atemp>
          </ns3:TrackPointExtension>
        </extensions>
      </trkpt>
      <trkpt lat="42.6221222989261150360107421875" lon="19.91323797963559627532958984375">
        <ele>1244.4000244140625</ele>
        <time>2026-06-16T11:59:44.000Z</time>
        <extensions>
          <ns3:TrackPointExtension>
            <ns3:atemp>19.0</ns3:atemp>
          </ns3:TrackPointExtension>
        </extensions>
      </trkpt>
      <trkpt lat="42.6221222989261150360107421875" lon="19.91323797963559627532958984375">
        <ele>1244.4000244140625</ele>
        <time>2026-06-16T11:59:45.000Z</time>
        <extensions>
          <ns3:TrackPointExtension>
            <ns3:atemp>19.0</ns3:atemp>
          </ns3:TrackPointExtension>
        </extensions>
      </trkpt>
      <trkpt lat="42.6221222989261150360107421875" lon="19.91323797963559627532958984375">
        <ele>1244.4000244140625</ele>
        <time>2026-06-16T11:59:46.000Z</time>
        <extensions>
          <ns3:TrackPointExtension>
            <ns3:atemp>19.0</ns3:atemp>
          </ns3:TrackPointExtension>
        </extensions>
      </trkpt>
      <trkpt lat="42.6221222989261150360107421875" lon="19.91323797963559627532958984375">
        <ele>1244.199951171875</ele>
        <time>2026-06-16T11:59:47.000Z</time>
        <extensions>
          <ns3:TrackPointExtension>
            <ns3:atemp>19.0</ns3:atemp>
          </ns3:TrackPointExtension>
        </extensions>
      </trkpt>
      <trkpt lat="42.6221222989261150360107421875" lon="19.91323797963559627532958984375">
        <ele>1244.199951171875</ele>
        <time>2026-06-16T11:59:48.000Z</time>
        <extensions>
          <ns3:TrackPointExtension>
            <ns3:atemp>19.0</ns3:atemp>
          </ns3:TrackPointExtension>
        </extensions>
      </trkpt>
      <trkpt lat="42.6221222989261150360107421875" lon="19.91323797963559627532958984375">
        <ele>1244.199951171875</ele>
        <time>2026-06-16T11:59:49.000Z</time>
        <extensions>
          <ns3:TrackPointExtension>
            <ns3:atemp>19.0</ns3:atemp>
          </ns3:TrackPointExtension>
        </extensions>
      </trkpt>
      <trkpt lat="42.6221222989261150360107421875" lon="19.91323797963559627532958984375">
        <ele>1244.199951171875</ele>
        <time>2026-06-16T11:59:50.000Z</time>
        <extensions>
          <ns3:TrackPointExtension>
            <ns3:atemp>19.0</ns3:atemp>
          </ns3:TrackPointExtension>
        </extensions>
      </trkpt>
      <trkpt lat="42.6221222989261150360107421875" lon="19.91323797963559627532958984375">
        <ele>1244</ele>
        <time>2026-06-16T11:59:51.000Z</time>
        <extensions>
          <ns3:TrackPointExtension>
            <ns3:atemp>19.0</ns3:atemp>
          </ns3:TrackPointExtension>
        </extensions>
      </trkpt>
      <trkpt lat="42.6221222989261150360107421875" lon="19.91323797963559627532958984375">
        <ele>1244</ele>
        <time>2026-06-16T11:59:52.000Z</time>
        <extensions>
          <ns3:TrackPointExtension>
            <ns3:atemp>19.0</ns3:atemp>
          </ns3:TrackPointExtension>
        </extensions>
      </trkpt>
      <trkpt lat="42.6221222989261150360107421875" lon="19.91323797963559627532958984375">
        <ele>1244</ele>
        <time>2026-06-16T11:59:53.000Z</time>
        <extensions>
          <ns3:TrackPointExtension>
            <ns3:atemp>19.0</ns3:atemp>
          </ns3:TrackPointExtension>
        </extensions>
      </trkpt>
      <trkpt lat="42.6221222989261150360107421875" lon="19.91323797963559627532958984375">
        <ele>1244</ele>
        <time>2026-06-16T11:59:54.000Z</time>
        <extensions>
          <ns3:TrackPointExtension>
            <ns3:atemp>19.0</ns3:atemp>
          </ns3:TrackPointExtension>
        </extensions>
      </trkpt>
      <trkpt lat="42.6221222989261150360107421875" lon="19.91323797963559627532958984375">
        <ele>1244</ele>
        <time>2026-06-16T11:59:55.000Z</time>
        <extensions>
          <ns3:TrackPointExtension>
            <ns3:atemp>19.0</ns3:atemp>
          </ns3:TrackPointExtension>
        </extensions>
      </trkpt>
      <trkpt lat="42.6221222989261150360107421875" lon="19.91323797963559627532958984375">
        <ele>1244</ele>
        <time>2026-06-16T11:59:56.000Z</time>
        <extensions>
          <ns3:TrackPointExtension>
            <ns3:atemp>19.0</ns3:atemp>
          </ns3:TrackPointExtension>
        </extensions>
      </trkpt>
      <trkpt lat="42.6221222989261150360107421875" lon="19.91323797963559627532958984375">
        <ele>1243.800048828125</ele>
        <time>2026-06-16T11:59:57.000Z</time>
        <extensions>
          <ns3:TrackPointExtension>
            <ns3:atemp>19.0</ns3:atemp>
          </ns3:TrackPointExtension>
        </extensions>
      </trkpt>
      <trkpt lat="42.6221222989261150360107421875" lon="19.91323797963559627532958984375">
        <ele>1243.800048828125</ele>
        <time>2026-06-16T11:59:58.000Z</time>
        <extensions>
          <ns3:TrackPointExtension>
            <ns3:atemp>19.0</ns3:atemp>
          </ns3:TrackPointExtension>
        </extensions>
      </trkpt>
      <trkpt lat="42.6221222989261150360107421875" lon="19.91323797963559627532958984375">
        <ele>1243.800048828125</ele>
        <time>2026-06-16T11:59:59.000Z</time>
        <extensions>
          <ns3:TrackPointExtension>
            <ns3:atemp>19.0</ns3:atemp>
          </ns3:TrackPointExtension>
        </extensions>
      </trkpt>
      <trkpt lat="42.6221222989261150360107421875" lon="19.91323797963559627532958984375">
        <ele>1243.800048828125</ele>
        <time>2026-06-16T12:00:00.000Z</time>
        <extensions>
          <ns3:TrackPointExtension>
            <ns3:atemp>19.0</ns3:atemp>
          </ns3:TrackPointExtension>
        </extensions>
      </trkpt>
      <trkpt lat="42.6221222989261150360107421875" lon="19.91323797963559627532958984375">
        <ele>1243.800048828125</ele>
        <time>2026-06-16T12:00:01.000Z</time>
        <extensions>
          <ns3:TrackPointExtension>
            <ns3:atemp>19.0</ns3:atemp>
          </ns3:TrackPointExtension>
        </extensions>
      </trkpt>
      <trkpt lat="42.6221222989261150360107421875" lon="19.91323797963559627532958984375">
        <ele>1243.5999755859375</ele>
        <time>2026-06-16T12:00:02.000Z</time>
        <extensions>
          <ns3:TrackPointExtension>
            <ns3:atemp>19.0</ns3:atemp>
          </ns3:TrackPointExtension>
        </extensions>
      </trkpt>
      <trkpt lat="42.6221222989261150360107421875" lon="19.91323797963559627532958984375">
        <ele>1243.5999755859375</ele>
        <time>2026-06-16T12:00:03.000Z</time>
        <extensions>
          <ns3:TrackPointExtension>
            <ns3:atemp>19.0</ns3:atemp>
          </ns3:TrackPointExtension>
        </extensions>
      </trkpt>
      <trkpt lat="42.6221222989261150360107421875" lon="19.91323797963559627532958984375">
        <ele>1243.5999755859375</ele>
        <time>2026-06-16T12:00:04.000Z</time>
        <extensions>
          <ns3:TrackPointExtension>
            <ns3:atemp>19.0</ns3:atemp>
          </ns3:TrackPointExtension>
        </extensions>
      </trkpt>
      <trkpt lat="42.6221222989261150360107421875" lon="19.91323797963559627532958984375">
        <ele>1243.5999755859375</ele>
        <time>2026-06-16T12:00:05.000Z</time>
        <extensions>
          <ns3:TrackPointExtension>
            <ns3:atemp>19.0</ns3:atemp>
          </ns3:TrackPointExtension>
        </extensions>
      </trkpt>
      <trkpt lat="42.6221222989261150360107421875" lon="19.91323797963559627532958984375">
        <ele>1243.5999755859375</ele>
        <time>2026-06-16T12:00:06.000Z</time>
        <extensions>
          <ns3:TrackPointExtension>
            <ns3:atemp>19.0</ns3:atemp>
          </ns3:TrackPointExtension>
        </extensions>
      </trkpt>
      <trkpt lat="42.6221222989261150360107421875" lon="19.91323797963559627532958984375">
        <ele>1243.5999755859375</ele>
        <time>2026-06-16T12:00:07.000Z</time>
        <extensions>
          <ns3:TrackPointExtension>
            <ns3:atemp>19.0</ns3:atemp>
          </ns3:TrackPointExtension>
        </extensions>
      </trkpt>
      <trkpt lat="42.6221222989261150360107421875" lon="19.91323797963559627532958984375">
        <ele>1243.5999755859375</ele>
        <time>2026-06-16T12:00:08.000Z</time>
        <extensions>
          <ns3:TrackPointExtension>
            <ns3:atemp>19.0</ns3:atemp>
          </ns3:TrackPointExtension>
        </extensions>
      </trkpt>
      <trkpt lat="42.6221222989261150360107421875" lon="19.91323797963559627532958984375">
        <ele>1243.4000244140625</ele>
        <time>2026-06-16T12:00:09.000Z</time>
        <extensions>
          <ns3:TrackPointExtension>
            <ns3:atemp>19.0</ns3:atemp>
          </ns3:TrackPointExtension>
        </extensions>
      </trkpt>
      <trkpt lat="42.6221222989261150360107421875" lon="19.91323797963559627532958984375">
        <ele>1243.4000244140625</ele>
        <time>2026-06-16T12:00:10.000Z</time>
        <extensions>
          <ns3:TrackPointExtension>
            <ns3:atemp>19.0</ns3:atemp>
          </ns3:TrackPointExtension>
        </extensions>
      </trkpt>
      <trkpt lat="42.6221222989261150360107421875" lon="19.91323797963559627532958984375">
        <ele>1243.4000244140625</ele>
        <time>2026-06-16T12:00:11.000Z</time>
        <extensions>
          <ns3:TrackPointExtension>
            <ns3:atemp>19.0</ns3:atemp>
          </ns3:TrackPointExtension>
        </extensions>
      </trkpt>
      <trkpt lat="42.6221222989261150360107421875" lon="19.91323797963559627532958984375">
        <ele>1243.4000244140625</ele>
        <time>2026-06-16T12:00:12.000Z</time>
        <extensions>
          <ns3:TrackPointExtension>
            <ns3:atemp>19.0</ns3:atemp>
          </ns3:TrackPointExtension>
        </extensions>
      </trkpt>
      <trkpt lat="42.6221222989261150360107421875" lon="19.91323797963559627532958984375">
        <ele>1243.4000244140625</ele>
        <time>2026-06-16T12:00:13.000Z</time>
        <extensions>
          <ns3:TrackPointExtension>
            <ns3:atemp>19.0</ns3:atemp>
          </ns3:TrackPointExtension>
        </extensions>
      </trkpt>
      <trkpt lat="42.6221222989261150360107421875" lon="19.91323797963559627532958984375">
        <ele>1243.4000244140625</ele>
        <time>2026-06-16T12:00:14.000Z</time>
        <extensions>
          <ns3:TrackPointExtension>
            <ns3:atemp>19.0</ns3:atemp>
          </ns3:TrackPointExtension>
        </extensions>
      </trkpt>
      <trkpt lat="42.6221222989261150360107421875" lon="19.91323797963559627532958984375">
        <ele>1243.199951171875</ele>
        <time>2026-06-16T12:00:15.000Z</time>
        <extensions>
          <ns3:TrackPointExtension>
            <ns3:atemp>19.0</ns3:atemp>
          </ns3:TrackPointExtension>
        </extensions>
      </trkpt>
      <trkpt lat="42.6221199519932270050048828125" lon="19.91323965601623058319091796875">
        <ele>1243.199951171875</ele>
        <time>2026-06-16T12:00:16.000Z</time>
        <extensions>
          <ns3:TrackPointExtension>
            <ns3:atemp>19.0</ns3:atemp>
          </ns3:TrackPointExtension>
        </extensions>
      </trkpt>
      <trkpt lat="42.6220911182463169097900390625" lon="19.913240410387516021728515625">
        <ele>1243</ele>
        <time>2026-06-16T12:00:17.000Z</time>
        <extensions>
          <ns3:TrackPointExtension>
            <ns3:atemp>19.0</ns3:atemp>
          </ns3:TrackPointExtension>
        </extensions>
      </trkpt>
      <trkpt lat="42.6220716722309589385986328125" lon="19.91322607733309268951416015625">
        <ele>1243</ele>
        <time>2026-06-16T12:00:18.000Z</time>
        <extensions>
          <ns3:TrackPointExtension>
            <ns3:atemp>19.0</ns3:atemp>
          </ns3:TrackPointExtension>
        </extensions>
      </trkpt>
      <trkpt lat="42.622056417167186737060546875" lon="19.91320746950805187225341796875">
        <ele>1242.800048828125</ele>
        <time>2026-06-16T12:00:19.000Z</time>
        <extensions>
          <ns3:TrackPointExtension>
            <ns3:atemp>19.0</ns3:atemp>
          </ns3:TrackPointExtension>
        </extensions>
      </trkpt>
      <trkpt lat="42.622049041092395782470703125" lon="19.913189113140106201171875">
        <ele>1242.5999755859375</ele>
        <time>2026-06-16T12:00:20.000Z</time>
        <extensions>
          <ns3:TrackPointExtension>
            <ns3:atemp>19.0</ns3:atemp>
          </ns3:TrackPointExtension>
        </extensions>
      </trkpt>
      <trkpt lat="42.62204610742628574371337890625" lon="19.91317109204828739166259765625">
        <ele>1242.4000244140625</ele>
        <time>2026-06-16T12:00:21.000Z</time>
        <extensions>
          <ns3:TrackPointExtension>
            <ns3:atemp>19.0</ns3:atemp>
          </ns3:TrackPointExtension>
        </extensions>
      </trkpt>
      <trkpt lat="42.622041665017604827880859375" lon="19.91315030492842197418212890625">
        <ele>1242.4000244140625</ele>
        <time>2026-06-16T12:00:22.000Z</time>
        <extensions>
          <ns3:TrackPointExtension>
            <ns3:atemp>19.0</ns3:atemp>
          </ns3:TrackPointExtension>
        </extensions>
      </trkpt>
      <trkpt lat="42.6220347918570041656494140625" lon="19.91312884725630283355712890625">
        <ele>1242.199951171875</ele>
        <time>2026-06-16T12:00:23.000Z</time>
        <extensions>
          <ns3:TrackPointExtension>
            <ns3:atemp>19.0</ns3:atemp>
          </ns3:TrackPointExtension>
        </extensions>
      </trkpt>
      <trkpt lat="42.6220274157822132110595703125" lon="19.9130967445671558380126953125">
        <ele>1242.199951171875</ele>
        <time>2026-06-16T12:00:24.000Z</time>
        <extensions>
          <ns3:TrackPointExtension>
            <ns3:atemp>19.0</ns3:atemp>
          </ns3:TrackPointExtension>
        </extensions>
      </trkpt>
      <trkpt lat="42.6220046170055866241455078125" lon="19.91306900046765804290771484375">
        <ele>1242</ele>
        <time>2026-06-16T12:00:25.000Z</time>
        <extensions>
          <ns3:TrackPointExtension>
            <ns3:atemp>19.0</ns3:atemp>
          </ns3:TrackPointExtension>
        </extensions>
      </trkpt>
      <trkpt lat="42.6219814829528331756591796875" lon="19.91303849034011363983154296875">
        <ele>1241.5999755859375</ele>
        <time>2026-06-16T12:00:26.000Z</time>
        <extensions>
          <ns3:TrackPointExtension>
            <ns3:atemp>19.0</ns3:atemp>
          </ns3:TrackPointExtension>
        </extensions>
      </trkpt>
      <trkpt lat="42.62195524759590625762939453125" lon="19.9130135960876941680908203125">
        <ele>1241.4000244140625</ele>
        <time>2026-06-16T12:00:27.000Z</time>
        <extensions>
          <ns3:TrackPointExtension>
            <ns3:atemp>19.0</ns3:atemp>
          </ns3:TrackPointExtension>
        </extensions>
      </trkpt>
      <trkpt lat="42.62193328700959682464599609375" lon="19.91299725137650966644287109375">
        <ele>1241</ele>
        <time>2026-06-16T12:00:28.000Z</time>
        <extensions>
          <ns3:TrackPointExtension>
            <ns3:atemp>19.0</ns3:atemp>
          </ns3:TrackPointExtension>
        </extensions>
      </trkpt>
      <trkpt lat="42.621917612850666046142578125" lon="19.9129840917885303497314453125">
        <ele>1240.800048828125</ele>
        <time>2026-06-16T12:00:29.000Z</time>
        <extensions>
          <ns3:TrackPointExtension>
            <ns3:atemp>19.0</ns3:atemp>
          </ns3:TrackPointExtension>
        </extensions>
      </trkpt>
      <trkpt lat="42.6219013519585132598876953125" lon="19.91296372376382350921630859375">
        <ele>1240.5999755859375</ele>
        <time>2026-06-16T12:00:30.000Z</time>
        <extensions>
          <ns3:TrackPointExtension>
            <ns3:atemp>19.0</ns3:atemp>
          </ns3:TrackPointExtension>
        </extensions>
      </trkpt>
      <trkpt lat="42.62188844382762908935546875" lon="19.91295299492776393890380859375">
        <ele>1240.4000244140625</ele>
        <time>2026-06-16T12:00:31.000Z</time>
        <extensions>
          <ns3:TrackPointExtension>
            <ns3:atemp>19.0</ns3:atemp>
          </ns3:TrackPointExtension>
        </extensions>
      </trkpt>
      <trkpt lat="42.62187981046736240386962890625" lon="19.9129428528249263763427734375">
        <ele>1240.4000244140625</ele>
        <time>2026-06-16T12:00:32.000Z</time>
        <extensions>
          <ns3:TrackPointExtension>
            <ns3:atemp>19.0</ns3:atemp>
          </ns3:TrackPointExtension>
        </extensions>
      </trkpt>
      <trkpt lat="42.62186422012746334075927734375" lon="19.91292969323694705963134765625">
        <ele>1240.199951171875</ele>
        <time>2026-06-16T12:00:33.000Z</time>
        <extensions>
          <ns3:TrackPointExtension>
            <ns3:atemp>19.0</ns3:atemp>
          </ns3:TrackPointExtension>
        </extensions>
      </trkpt>
      <trkpt lat="42.62184955179691314697265625" lon="19.91291477344930171966552734375">
        <ele>1240</ele>
        <time>2026-06-16T12:00:34.000Z</time>
        <extensions>
          <ns3:TrackPointExtension>
            <ns3:atemp>19.0</ns3:atemp>
          </ns3:TrackPointExtension>
        </extensions>
      </trkpt>
      <trkpt lat="42.62182599864900112152099609375" lon="19.91290748119354248046875">
        <ele>1240</ele>
        <time>2026-06-16T12:00:35.000Z</time>
        <extensions>
          <ns3:TrackPointExtension>
            <ns3:atemp>19.0</ns3:atemp>
          </ns3:TrackPointExtension>
        </extensions>
      </trkpt>
      <trkpt lat="42.621804289519786834716796875" lon="19.9129235744476318359375">
        <ele>1239.800048828125</ele>
        <time>2026-06-16T12:00:36.000Z</time>
        <extensions>
          <ns3:TrackPointExtension>
            <ns3:atemp>19.0</ns3:atemp>
          </ns3:TrackPointExtension>
        </extensions>
      </trkpt>
      <trkpt lat="42.6217853464186191558837890625" lon="19.91294444538652896881103515625">
        <ele>1239.800048828125</ele>
        <time>2026-06-16T12:00:37.000Z</time>
        <extensions>
          <ns3:TrackPointExtension>
            <ns3:atemp>19.0</ns3:atemp>
          </ns3:TrackPointExtension>
        </extensions>
      </trkpt>
      <trkpt lat="42.62176481075584888458251953125" lon="19.91295014508068561553955078125">
        <ele>1239.5999755859375</ele>
        <time>2026-06-16T12:00:38.000Z</time>
        <extensions>
          <ns3:TrackPointExtension>
            <ns3:atemp>19.0</ns3:atemp>
          </ns3:TrackPointExtension>
        </extensions>
      </trkpt>
      <trkpt lat="42.621745951473712921142578125" lon="19.91294712759554386138916015625">
        <ele>1239.4000244140625</ele>
        <time>2026-06-16T12:00:39.000Z</time>
        <extensions>
          <ns3:TrackPointExtension>
            <ns3:atemp>19.0</ns3:atemp>
          </ns3:TrackPointExtension>
        </extensions>
      </trkpt>
      <trkpt lat="42.6217214763164520263671875" lon="19.912944026291370391845703125">
        <ele>1239.199951171875</ele>
        <time>2026-06-16T12:00:40.000Z</time>
        <extensions>
          <ns3:TrackPointExtension>
            <ns3:atemp>19.0</ns3:atemp>
          </ns3:TrackPointExtension>
        </extensions>
      </trkpt>
      <trkpt lat="42.62170596979558467864990234375" lon="19.9129555933177471160888671875">
        <ele>1238.800048828125</ele>
        <time>2026-06-16T12:00:41.000Z</time>
        <extensions>
          <ns3:TrackPointExtension>
            <ns3:atemp>19.0</ns3:atemp>
          </ns3:TrackPointExtension>
        </extensions>
      </trkpt>
      <trkpt lat="42.62169876135885715484619140625" lon="19.91297864355146884918212890625">
        <ele>1238.5999755859375</ele>
        <time>2026-06-16T12:00:42.000Z</time>
        <extensions>
          <ns3:TrackPointExtension>
            <ns3:atemp>19.0</ns3:atemp>
          </ns3:TrackPointExtension>
        </extensions>
      </trkpt>
      <trkpt lat="42.6216919720172882080078125" lon="19.91300647146999835968017578125">
        <ele>1238.199951171875</ele>
        <time>2026-06-16T12:00:43.000Z</time>
        <extensions>
          <ns3:TrackPointExtension>
            <ns3:atemp>19.0</ns3:atemp>
          </ns3:TrackPointExtension>
        </extensions>
      </trkpt>
      <trkpt lat="42.62169490568339824676513671875" lon="19.91304628551006317138671875">
        <ele>1237.800048828125</ele>
        <time>2026-06-16T12:00:44.000Z</time>
        <extensions>
          <ns3:TrackPointExtension>
            <ns3:atemp>19.0</ns3:atemp>
          </ns3:TrackPointExtension>
        </extensions>
      </trkpt>
      <trkpt lat="42.6216971687972545623779296875" lon="19.9130858480930328369140625">
        <ele>1237.5999755859375</ele>
        <time>2026-06-16T12:00:45.000Z</time>
        <extensions>
          <ns3:TrackPointExtension>
            <ns3:atemp>19.0</ns3:atemp>
          </ns3:TrackPointExtension>
        </extensions>
      </trkpt>
      <trkpt lat="42.6216928102076053619384765625" lon="19.9131232313811779022216796875">
        <ele>1237</ele>
        <time>2026-06-16T12:00:46.000Z</time>
        <extensions>
          <ns3:TrackPointExtension>
            <ns3:atemp>19.0</ns3:atemp>
          </ns3:TrackPointExtension>
        </extensions>
      </trkpt>
      <trkpt lat="42.62168333865702152252197265625" lon="19.9131611175835132598876953125">
        <ele>1236.4000244140625</ele>
        <time>2026-06-16T12:00:47.000Z</time>
        <extensions>
          <ns3:TrackPointExtension>
            <ns3:atemp>19.0</ns3:atemp>
          </ns3:TrackPointExtension>
        </extensions>
      </trkpt>
      <trkpt lat="42.6216750405728816986083984375" lon="19.913201518356800079345703125">
        <ele>1236</ele>
        <time>2026-06-16T12:00:48.000Z</time>
        <extensions>
          <ns3:TrackPointExtension>
            <ns3:atemp>19.0</ns3:atemp>
          </ns3:TrackPointExtension>
        </extensions>
      </trkpt>
      <trkpt lat="42.6216666586697101593017578125" lon="19.91324736736714839935302734375">
        <ele>1235.4000244140625</ele>
        <time>2026-06-16T12:00:49.000Z</time>
        <extensions>
          <ns3:TrackPointExtension>
            <ns3:atemp>19.0</ns3:atemp>
          </ns3:TrackPointExtension>
        </extensions>
      </trkpt>
      <trkpt lat="42.6216713525354862213134765625" lon="19.91329262964427471160888671875">
        <ele>1234.5999755859375</ele>
        <time>2026-06-16T12:00:50.000Z</time>
        <extensions>
          <ns3:TrackPointExtension>
            <ns3:atemp>19.0</ns3:atemp>
          </ns3:TrackPointExtension>
        </extensions>
      </trkpt>
      <trkpt lat="42.62168803252279758453369140625" lon="19.913341663777828216552734375">
        <ele>1234</ele>
        <time>2026-06-16T12:00:51.000Z</time>
        <extensions>
          <ns3:TrackPointExtension>
            <ns3:atemp>19.0</ns3:atemp>
          </ns3:TrackPointExtension>
        </extensions>
      </trkpt>
      <trkpt lat="42.62170496396720409393310546875" lon="19.91339606232941150665283203125">
        <ele>1233</ele>
        <time>2026-06-16T12:00:52.000Z</time>
        <extensions>
          <ns3:TrackPointExtension>
            <ns3:atemp>19.0</ns3:atemp>
          </ns3:TrackPointExtension>
        </extensions>
      </trkpt>
      <trkpt lat="42.62173379771411418914794921875" lon="19.91346538066864013671875">
        <ele>1231.800048828125</ele>
        <time>2026-06-16T12:00:53.000Z</time>
        <extensions>
          <ns3:TrackPointExtension>
            <ns3:atemp>19.0</ns3:atemp>
          </ns3:TrackPointExtension>
        </extensions>
      </trkpt>
      <trkpt lat="42.621756680309772491455078125" lon="19.9135391414165496826171875">
        <ele>1230.800048828125</ele>
        <time>2026-06-16T12:00:54.000Z</time>
        <extensions>
          <ns3:TrackPointExtension>
            <ns3:atemp>19.0</ns3:atemp>
          </ns3:TrackPointExtension>
        </extensions>
      </trkpt>
      <trkpt lat="42.6217722706496715545654296875" lon="19.91358800791203975677490234375">
        <ele>1229.800048828125</ele>
        <time>2026-06-16T12:00:55.000Z</time>
        <extensions>
          <ns3:TrackPointExtension>
            <ns3:atemp>19.0</ns3:atemp>
          </ns3:TrackPointExtension>
        </extensions>
      </trkpt>
      <trkpt lat="42.62178140692412853240966796875" lon="19.91361684165894985198974609375">
        <ele>1228.800048828125</ele>
        <time>2026-06-16T12:00:56.000Z</time>
        <extensions>
          <ns3:TrackPointExtension>
            <ns3:atemp>19.0</ns3:atemp>
          </ns3:TrackPointExtension>
        </extensions>
      </trkpt>
      <trkpt lat="42.62179146520793437957763671875" lon="19.91362052969634532928466796875">
        <ele>1228</ele>
        <time>2026-06-16T12:00:57.000Z</time>
        <extensions>
          <ns3:TrackPointExtension>
            <ns3:atemp>19.0</ns3:atemp>
          </ns3:TrackPointExtension>
        </extensions>
      </trkpt>
      <trkpt lat="42.6217947341501712799072265625" lon="19.9136330187320709228515625">
        <ele>1227.4000244140625</ele>
        <time>2026-06-16T12:00:58.000Z</time>
        <extensions>
          <ns3:TrackPointExtension>
            <ns3:atemp>19.0</ns3:atemp>
          </ns3:TrackPointExtension>
        </extensions>
      </trkpt>
      <trkpt lat="42.62179481796920299530029296875" lon="19.9136331863701343536376953125">
        <ele>1226.800048828125</ele>
        <time>2026-06-16T12:00:59.000Z</time>
        <extensions>
          <ns3:TrackPointExtension>
            <ns3:atemp>19.0</ns3:atemp>
          </ns3:TrackPointExtension>
        </extensions>
      </trkpt>
      <trkpt lat="42.62179481796920299530029296875" lon="19.9136331863701343536376953125">
        <ele>1226.4000244140625</ele>
        <time>2026-06-16T12:01:00.000Z</time>
        <extensions>
          <ns3:TrackPointExtension>
            <ns3:atemp>19.0</ns3:atemp>
          </ns3:TrackPointExtension>
        </extensions>
      </trkpt>
      <trkpt lat="42.62179481796920299530029296875" lon="19.9136331863701343536376953125">
        <ele>1226.199951171875</ele>
        <time>2026-06-16T12:01:01.000Z</time>
        <extensions>
          <ns3:TrackPointExtension>
            <ns3:atemp>19.0</ns3:atemp>
          </ns3:TrackPointExtension>
        </extensions>
      </trkpt>
      <trkpt lat="42.6217950694262981414794921875" lon="19.9136335216462612152099609375">
        <ele>1226</ele>
        <time>2026-06-16T12:01:02.000Z</time>
        <extensions>
          <ns3:TrackPointExtension>
            <ns3:atemp>19.0</ns3:atemp>
          </ns3:TrackPointExtension>
        </extensions>
      </trkpt>
      <trkpt lat="42.62179649434983730316162109375" lon="19.913647435605525970458984375">
        <ele>1225.800048828125</ele>
        <time>2026-06-16T12:01:03.000Z</time>
        <extensions>
          <ns3:TrackPointExtension>
            <ns3:atemp>19.0</ns3:atemp>
          </ns3:TrackPointExtension>
        </extensions>
      </trkpt>
      <trkpt lat="42.62179632671177387237548828125" lon="19.91365724243223667144775390625">
        <ele>1225.800048828125</ele>
        <time>2026-06-16T12:01:04.000Z</time>
        <extensions>
          <ns3:TrackPointExtension>
            <ns3:atemp>19.0</ns3:atemp>
          </ns3:TrackPointExtension>
        </extensions>
      </trkpt>
      <trkpt lat="42.62179867364466190338134765625" lon="19.913666546344757080078125">
        <ele>1225.5999755859375</ele>
        <time>2026-06-16T12:01:05.000Z</time>
        <extensions>
          <ns3:TrackPointExtension>
            <ns3:atemp>19.0</ns3:atemp>
          </ns3:TrackPointExtension>
        </extensions>
      </trkpt>
      <trkpt lat="42.6217987574636936187744140625" lon="19.9136734195053577423095703125">
        <ele>1225.4000244140625</ele>
        <time>2026-06-16T12:01:06.000Z</time>
        <extensions>
          <ns3:TrackPointExtension>
            <ns3:atemp>19.0</ns3:atemp>
          </ns3:TrackPointExtension>
        </extensions>
      </trkpt>
      <trkpt lat="42.62179884128272533416748046875" lon="19.913673587143421173095703125">
        <ele>1225.4000244140625</ele>
        <time>2026-06-16T12:01:07.000Z</time>
        <extensions>
          <ns3:TrackPointExtension>
            <ns3:atemp>19.0</ns3:atemp>
          </ns3:TrackPointExtension>
        </extensions>
      </trkpt>
      <trkpt lat="42.62179884128272533416748046875" lon="19.91367392241954803466796875">
        <ele>1225.199951171875</ele>
        <time>2026-06-16T12:01:08.000Z</time>
        <extensions>
          <ns3:TrackPointExtension>
            <ns3:atemp>19.0</ns3:atemp>
          </ns3:TrackPointExtension>
        </extensions>
      </trkpt>
      <trkpt lat="42.6217977516353130340576171875" lon="19.91369864903390407562255859375">
        <ele>1225</ele>
        <time>2026-06-16T12:01:09.000Z</time>
        <extensions>
          <ns3:TrackPointExtension>
            <ns3:atemp>19.0</ns3:atemp>
          </ns3:TrackPointExtension>
        </extensions>
      </trkpt>
      <trkpt lat="42.62180261313915252685546875" lon="19.91372681222856044769287109375">
        <ele>1224.800048828125</ele>
        <time>2026-06-16T12:01:10.000Z</time>
        <extensions>
          <ns3:TrackPointExtension>
            <ns3:atemp>19.0</ns3:atemp>
          </ns3:TrackPointExtension>
        </extensions>
      </trkpt>
      <trkpt lat="42.621814347803592681884765625" lon="19.9137552268803119659423828125">
        <ele>1224.5999755859375</ele>
        <time>2026-06-16T12:01:11.000Z</time>
        <extensions>
          <ns3:TrackPointExtension>
            <ns3:atemp>19.0</ns3:atemp>
          </ns3:TrackPointExtension>
        </extensions>
      </trkpt>
      <trkpt lat="42.62183337472379207611083984375" lon="19.91379059851169586181640625">
        <ele>1224.4000244140625</ele>
        <time>2026-06-16T12:01:12.000Z</time>
        <extensions>
          <ns3:TrackPointExtension>
            <ns3:atemp>19.0</ns3:atemp>
          </ns3:TrackPointExtension>
        </extensions>
      </trkpt>
      <trkpt lat="42.62185231782495975494384765625" lon="19.91382890380918979644775390625">
        <ele>1224</ele>
        <time>2026-06-16T12:01:13.000Z</time>
        <extensions>
          <ns3:TrackPointExtension>
            <ns3:atemp>19.0</ns3:atemp>
          </ns3:TrackPointExtension>
        </extensions>
      </trkpt>
      <trkpt lat="42.62187930755317211151123046875" lon="19.9138677120208740234375">
        <ele>1223.800048828125</ele>
        <time>2026-06-16T12:01:14.000Z</time>
        <extensions>
          <ns3:TrackPointExtension>
            <ns3:atemp>19.0</ns3:atemp>
          </ns3:TrackPointExtension>
        </extensions>
      </trkpt>
      <trkpt lat="42.62189741246402263641357421875" lon="19.9139044247567653656005859375">
        <ele>1223.4000244140625</ele>
        <time>2026-06-16T12:01:15.000Z</time>
        <extensions>
          <ns3:TrackPointExtension>
            <ns3:atemp>19.0</ns3:atemp>
          </ns3:TrackPointExtension>
        </extensions>
      </trkpt>
      <trkpt lat="42.621910572052001953125" lon="19.91394557990133762359619140625">
        <ele>1223</ele>
        <time>2026-06-16T12:01:16.000Z</time>
        <extensions>
          <ns3:TrackPointExtension>
            <ns3:atemp>19.0</ns3:atemp>
          </ns3:TrackPointExtension>
        </extensions>
      </trkpt>
      <trkpt lat="42.62192205525934696197509765625" lon="19.9139977991580963134765625">
        <ele>1222.4000244140625</ele>
        <time>2026-06-16T12:01:17.000Z</time>
        <extensions>
          <ns3:TrackPointExtension>
            <ns3:atemp>20.0</ns3:atemp>
          </ns3:TrackPointExtension>
        </extensions>
      </trkpt>
      <trkpt lat="42.62193613685667514801025390625" lon="19.9140556342899799346923828125">
        <ele>1222</ele>
        <time>2026-06-16T12:01:18.000Z</time>
        <extensions>
          <ns3:TrackPointExtension>
            <ns3:atemp>20.0</ns3:atemp>
          </ns3:TrackPointExtension>
        </extensions>
      </trkpt>
      <trkpt lat="42.62195826508104801177978515625" lon="19.9141099490225315093994140625">
        <ele>1221.4000244140625</ele>
        <time>2026-06-16T12:01:19.000Z</time>
        <extensions>
          <ns3:TrackPointExtension>
            <ns3:atemp>20.0</ns3:atemp>
          </ns3:TrackPointExtension>
        </extensions>
      </trkpt>
      <trkpt lat="42.62196832336485385894775390625" lon="19.9141280539333820343017578125">
        <ele>1221</ele>
        <time>2026-06-16T12:01:20.000Z</time>
        <extensions>
          <ns3:TrackPointExtension>
            <ns3:atemp>20.0</ns3:atemp>
          </ns3:TrackPointExtension>
        </extensions>
      </trkpt>
      <trkpt lat="42.62197972275316715240478515625" lon="19.9141414649784564971923828125">
        <ele>1220.5999755859375</ele>
        <time>2026-06-16T12:01:21.000Z</time>
        <extensions>
          <ns3:TrackPointExtension>
            <ns3:atemp>20.0</ns3:atemp>
          </ns3:TrackPointExtension>
        </extensions>
      </trkpt>
      <trkpt lat="42.62197989039123058319091796875" lon="19.91414171643555164337158203125">
        <ele>1220.4000244140625</ele>
        <time>2026-06-16T12:01:22.000Z</time>
        <extensions>
          <ns3:TrackPointExtension>
            <ns3:atemp>20.0</ns3:atemp>
          </ns3:TrackPointExtension>
        </extensions>
      </trkpt>
      <trkpt lat="42.62197989039123058319091796875" lon="19.91414171643555164337158203125">
        <ele>1220.199951171875</ele>
        <time>2026-06-16T12:01:23.000Z</time>
        <extensions>
          <ns3:TrackPointExtension>
            <ns3:atemp>20.0</ns3:atemp>
          </ns3:TrackPointExtension>
        </extensions>
      </trkpt>
      <trkpt lat="42.62197989039123058319091796875" lon="19.91414171643555164337158203125">
        <ele>1220</ele>
        <time>2026-06-16T12:01:24.000Z</time>
        <extensions>
          <ns3:TrackPointExtension>
            <ns3:atemp>20.0</ns3:atemp>
          </ns3:TrackPointExtension>
        </extensions>
      </trkpt>
      <trkpt lat="42.62197989039123058319091796875" lon="19.91414171643555164337158203125">
        <ele>1219.800048828125</ele>
        <time>2026-06-16T12:01:25.000Z</time>
        <extensions>
          <ns3:TrackPointExtension>
            <ns3:atemp>20.0</ns3:atemp>
          </ns3:TrackPointExtension>
        </extensions>
      </trkpt>
      <trkpt lat="42.62197989039123058319091796875" lon="19.91414171643555164337158203125">
        <ele>1219.5999755859375</ele>
        <time>2026-06-16T12:01:26.000Z</time>
        <extensions>
          <ns3:TrackPointExtension>
            <ns3:atemp>20.0</ns3:atemp>
          </ns3:TrackPointExtension>
        </extensions>
      </trkpt>
      <trkpt lat="42.62197989039123058319091796875" lon="19.91414171643555164337158203125">
        <ele>1219.5999755859375</ele>
        <time>2026-06-16T12:01:27.000Z</time>
        <extensions>
          <ns3:TrackPointExtension>
            <ns3:atemp>20.0</ns3:atemp>
          </ns3:TrackPointExtension>
        </extensions>
      </trkpt>
      <trkpt lat="42.62197989039123058319091796875" lon="19.91414171643555164337158203125">
        <ele>1219.4000244140625</ele>
        <time>2026-06-16T12:01:28.000Z</time>
        <extensions>
          <ns3:TrackPointExtension>
            <ns3:atemp>20.0</ns3:atemp>
          </ns3:TrackPointExtension>
        </extensions>
      </trkpt>
      <trkpt lat="42.62197989039123058319091796875" lon="19.91414171643555164337158203125">
        <ele>1219.4000244140625</ele>
        <time>2026-06-16T12:01:29.000Z</time>
        <extensions>
          <ns3:TrackPointExtension>
            <ns3:atemp>20.0</ns3:atemp>
          </ns3:TrackPointExtension>
        </extensions>
      </trkpt>
      <trkpt lat="42.62198223732411861419677734375" lon="19.91414506919682025909423828125">
        <ele>1219.199951171875</ele>
        <time>2026-06-16T12:01:30.000Z</time>
        <extensions>
          <ns3:TrackPointExtension>
            <ns3:atemp>20.0</ns3:atemp>
          </ns3:TrackPointExtension>
        </extensions>
      </trkpt>
      <trkpt lat="42.6220093108713626861572265625" lon="19.91418764926493167877197265625">
        <ele>1219.199951171875</ele>
        <time>2026-06-16T12:01:31.000Z</time>
        <extensions>
          <ns3:TrackPointExtension>
            <ns3:atemp>20.0</ns3:atemp>
          </ns3:TrackPointExtension>
        </extensions>
      </trkpt>
      <trkpt lat="42.62202699668705463409423828125" lon="19.914222769439220428466796875">
        <ele>1219</ele>
        <time>2026-06-16T12:01:32.000Z</time>
        <extensions>
          <ns3:TrackPointExtension>
            <ns3:atemp>20.0</ns3:atemp>
          </ns3:TrackPointExtension>
        </extensions>
      </trkpt>
      <trkpt lat="42.6220314390957355499267578125" lon="19.9142675288021564483642578125">
        <ele>1218.5999755859375</ele>
        <time>2026-06-16T12:01:33.000Z</time>
        <extensions>
          <ns3:TrackPointExtension>
            <ns3:atemp>20.0</ns3:atemp>
          </ns3:TrackPointExtension>
        </extensions>
      </trkpt>
      <trkpt lat="42.62204132974147796630859375" lon="19.914324693381786346435546875">
        <ele>1218</ele>
        <time>2026-06-16T12:01:34.000Z</time>
        <extensions>
          <ns3:TrackPointExtension>
            <ns3:atemp>20.0</ns3:atemp>
          </ns3:TrackPointExtension>
        </extensions>
      </trkpt>
      <trkpt lat="42.62205281294882297515869140625" lon="19.91438143886625766754150390625">
        <ele>1217.199951171875</ele>
        <time>2026-06-16T12:01:35.000Z</time>
        <extensions>
          <ns3:TrackPointExtension>
            <ns3:atemp>20.0</ns3:atemp>
          </ns3:TrackPointExtension>
        </extensions>
      </trkpt>
      <trkpt lat="42.62205532751977443695068359375" lon="19.91443969309329986572265625">
        <ele>1216.199951171875</ele>
        <time>2026-06-16T12:01:36.000Z</time>
        <extensions>
          <ns3:TrackPointExtension>
            <ns3:atemp>20.0</ns3:atemp>
          </ns3:TrackPointExtension>
        </extensions>
      </trkpt>
      <trkpt lat="42.622080557048320770263671875" lon="19.91448889486491680145263671875">
        <ele>1215.199951171875</ele>
        <time>2026-06-16T12:01:37.000Z</time>
        <extensions>
          <ns3:TrackPointExtension>
            <ns3:atemp>20.0</ns3:atemp>
          </ns3:TrackPointExtension>
        </extensions>
      </trkpt>
      <trkpt lat="42.6221152581274509429931640625" lon="19.91452611051499843597412109375">
        <ele>1214</ele>
        <time>2026-06-16T12:01:38.000Z</time>
        <extensions>
          <ns3:TrackPointExtension>
            <ns3:atemp>20.0</ns3:atemp>
          </ns3:TrackPointExtension>
        </extensions>
      </trkpt>
      <trkpt lat="42.622152306139469146728515625" lon="19.91455276496708393096923828125">
        <ele>1213</ele>
        <time>2026-06-16T12:01:39.000Z</time>
        <extensions>
          <ns3:TrackPointExtension>
            <ns3:atemp>20.0</ns3:atemp>
          </ns3:TrackPointExtension>
        </extensions>
      </trkpt>
      <trkpt lat="42.62217736802995204925537109375" lon="19.91459098644554615020751953125">
        <ele>1212</ele>
        <time>2026-06-16T12:01:40.000Z</time>
        <extensions>
          <ns3:TrackPointExtension>
            <ns3:atemp>20.0</ns3:atemp>
          </ns3:TrackPointExtension>
        </extensions>
      </trkpt>
      <trkpt lat="42.6221937127411365509033203125" lon="19.9146346561610698699951171875">
        <ele>1211</ele>
        <time>2026-06-16T12:01:41.000Z</time>
        <extensions>
          <ns3:TrackPointExtension>
            <ns3:atemp>20.0</ns3:atemp>
          </ns3:TrackPointExtension>
        </extensions>
      </trkpt>
      <trkpt lat="42.6221870072185993194580078125" lon="19.91467706859111785888671875">
        <ele>1209.800048828125</ele>
        <time>2026-06-16T12:01:42.000Z</time>
        <extensions>
          <ns3:TrackPointExtension>
            <ns3:atemp>20.0</ns3:atemp>
          </ns3:TrackPointExtension>
        </extensions>
      </trkpt>
      <trkpt lat="42.62217544019222259521484375" lon="19.91470715962350368499755859375">
        <ele>1209</ele>
        <time>2026-06-16T12:01:43.000Z</time>
        <extensions>
          <ns3:TrackPointExtension>
            <ns3:atemp>20.0</ns3:atemp>
          </ns3:TrackPointExtension>
        </extensions>
      </trkpt>
      <trkpt lat="42.62215591035783290863037109375" lon="19.914714284241199493408203125">
        <ele>1208</ele>
        <time>2026-06-16T12:01:44.000Z</time>
        <extensions>
          <ns3:TrackPointExtension>
            <ns3:atemp>20.0</ns3:atemp>
          </ns3:TrackPointExtension>
        </extensions>
      </trkpt>
      <trkpt lat="42.62215490452945232391357421875" lon="19.91471420042216777801513671875">
        <ele>1207.199951171875</ele>
        <time>2026-06-16T12:01:45.000Z</time>
        <extensions>
          <ns3:TrackPointExtension>
            <ns3:atemp>20.0</ns3:atemp>
          </ns3:TrackPointExtension>
        </extensions>
      </trkpt>
      <trkpt lat="42.62215557508170604705810546875" lon="19.91472040303051471710205078125">
        <ele>1206.5999755859375</ele>
        <time>2026-06-16T12:01:46.000Z</time>
        <extensions>
          <ns3:TrackPointExtension>
            <ns3:atemp>20.0</ns3:atemp>
          </ns3:TrackPointExtension>
        </extensions>
      </trkpt>
      <trkpt lat="42.622155658900737762451171875" lon="19.9147204868495464324951171875">
        <ele>1206.199951171875</ele>
        <time>2026-06-16T12:01:47.000Z</time>
        <extensions>
          <ns3:TrackPointExtension>
            <ns3:atemp>20.0</ns3:atemp>
          </ns3:TrackPointExtension>
        </extensions>
      </trkpt>
      <trkpt lat="42.622155658900737762451171875" lon="19.9147204868495464324951171875">
        <ele>1205.5999755859375</ele>
        <time>2026-06-16T12:01:48.000Z</time>
        <extensions>
          <ns3:TrackPointExtension>
            <ns3:atemp>20.0</ns3:atemp>
          </ns3:TrackPointExtension>
        </extensions>
      </trkpt>
      <trkpt lat="42.622155658900737762451171875" lon="19.9147204868495464324951171875">
        <ele>1205.4000244140625</ele>
        <time>2026-06-16T12:01:49.000Z</time>
        <extensions>
          <ns3:TrackPointExtension>
            <ns3:atemp>20.0</ns3:atemp>
          </ns3:TrackPointExtension>
        </extensions>
      </trkpt>
      <trkpt lat="42.622155658900737762451171875" lon="19.9147204868495464324951171875">
        <ele>1205.199951171875</ele>
        <time>2026-06-16T12:01:50.000Z</time>
        <extensions>
          <ns3:TrackPointExtension>
            <ns3:atemp>20.0</ns3:atemp>
          </ns3:TrackPointExtension>
        </extensions>
      </trkpt>
      <trkpt lat="42.622155658900737762451171875" lon="19.9147204868495464324951171875">
        <ele>1205</ele>
        <time>2026-06-16T12:01:51.000Z</time>
        <extensions>
          <ns3:TrackPointExtension>
            <ns3:atemp>20.0</ns3:atemp>
          </ns3:TrackPointExtension>
        </extensions>
      </trkpt>
      <trkpt lat="42.622155658900737762451171875" lon="19.9147204868495464324951171875">
        <ele>1205</ele>
        <time>2026-06-16T12:01:52.000Z</time>
        <extensions>
          <ns3:TrackPointExtension>
            <ns3:atemp>20.0</ns3:atemp>
          </ns3:TrackPointExtension>
        </extensions>
      </trkpt>
      <trkpt lat="42.622155658900737762451171875" lon="19.9147204868495464324951171875">
        <ele>1205</ele>
        <time>2026-06-16T12:01:53.000Z</time>
        <extensions>
          <ns3:TrackPointExtension>
            <ns3:atemp>20.0</ns3:atemp>
          </ns3:TrackPointExtension>
        </extensions>
      </trkpt>
      <trkpt lat="42.6221564970910549163818359375" lon="19.914720989763736724853515625">
        <ele>1204.800048828125</ele>
        <time>2026-06-16T12:01:54.000Z</time>
        <extensions>
          <ns3:TrackPointExtension>
            <ns3:atemp>20.0</ns3:atemp>
          </ns3:TrackPointExtension>
        </extensions>
      </trkpt>
      <trkpt lat="42.6221479475498199462890625" lon="19.91474144160747528076171875">
        <ele>1204.800048828125</ele>
        <time>2026-06-16T12:01:55.000Z</time>
        <extensions>
          <ns3:TrackPointExtension>
            <ns3:atemp>20.0</ns3:atemp>
          </ns3:TrackPointExtension>
        </extensions>
      </trkpt>
      <trkpt lat="42.62213495559990406036376953125" lon="19.91476382128894329071044921875">
        <ele>1204.5999755859375</ele>
        <time>2026-06-16T12:01:56.000Z</time>
        <extensions>
          <ns3:TrackPointExtension>
            <ns3:atemp>20.0</ns3:atemp>
          </ns3:TrackPointExtension>
        </extensions>
      </trkpt>
      <trkpt lat="42.62211701832711696624755859375" lon="19.91478192619979381561279296875">
        <ele>1204.4000244140625</ele>
        <time>2026-06-16T12:01:57.000Z</time>
        <extensions>
          <ns3:TrackPointExtension>
            <ns3:atemp>20.0</ns3:atemp>
          </ns3:TrackPointExtension>
        </extensions>
      </trkpt>
      <trkpt lat="42.622102685272693634033203125" lon="19.914800785481929779052734375">
        <ele>1204.199951171875</ele>
        <time>2026-06-16T12:01:58.000Z</time>
        <extensions>
          <ns3:TrackPointExtension>
            <ns3:atemp>20.0</ns3:atemp>
          </ns3:TrackPointExtension>
        </extensions>
      </trkpt>
      <trkpt lat="42.62208701111376285552978515625" lon="19.91481008939445018768310546875">
        <ele>1203.800048828125</ele>
        <time>2026-06-16T12:01:59.000Z</time>
        <extensions>
          <ns3:TrackPointExtension>
            <ns3:atemp>20.0</ns3:atemp>
          </ns3:TrackPointExtension>
        </extensions>
      </trkpt>
      <trkpt lat="42.62206857092678546905517578125" lon="19.9148214049637317657470703125">
        <ele>1203.199951171875</ele>
        <time>2026-06-16T12:02:00.000Z</time>
        <extensions>
          <ns3:TrackPointExtension>
            <ns3:atemp>20.0</ns3:atemp>
          </ns3:TrackPointExtension>
        </extensions>
      </trkpt>
      <trkpt lat="42.622044347226619720458984375" lon="19.91483640857040882110595703125">
        <ele>1202.5999755859375</ele>
        <time>2026-06-16T12:02:01.000Z</time>
        <extensions>
          <ns3:TrackPointExtension>
            <ns3:atemp>20.0</ns3:atemp>
          </ns3:TrackPointExtension>
        </extensions>
      </trkpt>
      <trkpt lat="42.622008807957172393798828125" lon="19.9148478917777538299560546875">
        <ele>1202</ele>
        <time>2026-06-16T12:02:02.000Z</time>
        <extensions>
          <ns3:TrackPointExtension>
            <ns3:atemp>20.0</ns3:atemp>
          </ns3:TrackPointExtension>
        </extensions>
      </trkpt>
      <trkpt lat="42.6219710893929004669189453125" lon="19.914858452975749969482421875">
        <ele>1201.199951171875</ele>
        <time>2026-06-16T12:02:03.000Z</time>
        <extensions>
          <ns3:TrackPointExtension>
            <ns3:atemp>20.0</ns3:atemp>
          </ns3:TrackPointExtension>
        </extensions>
      </trkpt>
      <trkpt lat="42.6219382323324680328369140625" lon="19.91488167084753513336181640625">
        <ele>1200.199951171875</ele>
        <time>2026-06-16T12:02:04.000Z</time>
        <extensions>
          <ns3:TrackPointExtension>
            <ns3:atemp>20.0</ns3:atemp>
          </ns3:TrackPointExtension>
        </extensions>
      </trkpt>
      <trkpt lat="42.6219011843204498291015625" lon="19.914884604513645172119140625">
        <ele>1199.199951171875</ele>
        <time>2026-06-16T12:02:05.000Z</time>
        <extensions>
          <ns3:TrackPointExtension>
            <ns3:atemp>20.0</ns3:atemp>
          </ns3:TrackPointExtension>
        </extensions>
      </trkpt>
      <trkpt lat="42.62186757288873195648193359375" lon="19.914877228438854217529296875">
        <ele>1198</ele>
        <time>2026-06-16T12:02:06.000Z</time>
        <extensions>
          <ns3:TrackPointExtension>
            <ns3:atemp>20.0</ns3:atemp>
          </ns3:TrackPointExtension>
        </extensions>
      </trkpt>
      <trkpt lat="42.621829099953174591064453125" lon="19.91487152874469757080078125">
        <ele>1196.800048828125</ele>
        <time>2026-06-16T12:02:07.000Z</time>
        <extensions>
          <ns3:TrackPointExtension>
            <ns3:atemp>20.0</ns3:atemp>
          </ns3:TrackPointExtension>
        </extensions>
      </trkpt>
      <trkpt lat="42.62179481796920299530029296875" lon="19.91486390121281147003173828125">
        <ele>1195.5999755859375</ele>
        <time>2026-06-16T12:02:08.000Z</time>
        <extensions>
          <ns3:TrackPointExtension>
            <ns3:atemp>20.0</ns3:atemp>
          </ns3:TrackPointExtension>
        </extensions>
      </trkpt>
      <trkpt lat="42.6217602007091045379638671875" lon="19.914861805737018585205078125">
        <ele>1194.5999755859375</ele>
        <time>2026-06-16T12:02:09.000Z</time>
        <extensions>
          <ns3:TrackPointExtension>
            <ns3:atemp>20.0</ns3:atemp>
          </ns3:TrackPointExtension>
        </extensions>
      </trkpt>
      <trkpt lat="42.6217199675738811492919921875" lon="19.91487127728760242462158203125">
        <ele>1193.199951171875</ele>
        <time>2026-06-16T12:02:10.000Z</time>
        <extensions>
          <ns3:TrackPointExtension>
            <ns3:atemp>20.0</ns3:atemp>
          </ns3:TrackPointExtension>
        </extensions>
      </trkpt>
      <trkpt lat="42.62168417684733867645263671875" lon="19.91488032974302768707275390625">
        <ele>1192.199951171875</ele>
        <time>2026-06-16T12:02:11.000Z</time>
        <extensions>
          <ns3:TrackPointExtension>
            <ns3:atemp>20.0</ns3:atemp>
          </ns3:TrackPointExtension>
        </extensions>
      </trkpt>
      <trkpt lat="42.6216463744640350341796875" lon="19.91488737054169178009033203125">
        <ele>1190.800048828125</ele>
        <time>2026-06-16T12:02:12.000Z</time>
        <extensions>
          <ns3:TrackPointExtension>
            <ns3:atemp>20.0</ns3:atemp>
          </ns3:TrackPointExtension>
        </extensions>
      </trkpt>
      <trkpt lat="42.62161619961261749267578125" lon="19.9148944951593875885009765625">
        <ele>1189.800048828125</ele>
        <time>2026-06-16T12:02:13.000Z</time>
        <extensions>
          <ns3:TrackPointExtension>
            <ns3:atemp>20.0</ns3:atemp>
          </ns3:TrackPointExtension>
        </extensions>
      </trkpt>
      <trkpt lat="42.62159080244600772857666015625" lon="19.91490346379578113555908203125">
        <ele>1188.800048828125</ele>
        <time>2026-06-16T12:02:14.000Z</time>
        <extensions>
          <ns3:TrackPointExtension>
            <ns3:atemp>20.0</ns3:atemp>
          </ns3:TrackPointExtension>
        </extensions>
      </trkpt>
      <trkpt lat="42.62157152406871318817138671875" lon="19.914926178753376007080078125">
        <ele>1187.800048828125</ele>
        <time>2026-06-16T12:02:15.000Z</time>
        <extensions>
          <ns3:TrackPointExtension>
            <ns3:atemp>20.0</ns3:atemp>
          </ns3:TrackPointExtension>
        </extensions>
      </trkpt>
      <trkpt lat="42.62154956348240375518798828125" lon="19.91495677269995212554931640625">
        <ele>1187</ele>
        <time>2026-06-16T12:02:16.000Z</time>
        <extensions>
          <ns3:TrackPointExtension>
            <ns3:atemp>20.0</ns3:atemp>
          </ns3:TrackPointExtension>
        </extensions>
      </trkpt>
      <trkpt lat="42.62151855044066905975341796875" lon="19.91498007439076900482177734375">
        <ele>1186.199951171875</ele>
        <time>2026-06-16T12:02:17.000Z</time>
        <extensions>
          <ns3:TrackPointExtension>
            <ns3:atemp>20.0</ns3:atemp>
          </ns3:TrackPointExtension>
        </extensions>
      </trkpt>
      <trkpt lat="42.62148552574217319488525390625" lon="19.915001280605792999267578125">
        <ele>1185.4000244140625</ele>
        <time>2026-06-16T12:02:18.000Z</time>
        <extensions>
          <ns3:TrackPointExtension>
            <ns3:atemp>20.0</ns3:atemp>
          </ns3:TrackPointExtension>
        </extensions>
      </trkpt>
      <trkpt lat="42.62146742083132266998291015625" lon="19.915038160979747772216796875">
        <ele>1184.199951171875</ele>
        <time>2026-06-16T12:02:19.000Z</time>
        <extensions>
          <ns3:TrackPointExtension>
            <ns3:atemp>20.0</ns3:atemp>
          </ns3:TrackPointExtension>
        </extensions>
      </trkpt>
      <trkpt lat="42.6214309595525264739990234375" lon="19.91506087593734264373779296875">
        <ele>1183.4000244140625</ele>
        <time>2026-06-16T12:02:20.000Z</time>
        <extensions>
          <ns3:TrackPointExtension>
            <ns3:atemp>20.0</ns3:atemp>
          </ns3:TrackPointExtension>
        </extensions>
      </trkpt>
      <trkpt lat="42.62139357626438140869140625" lon="19.9150581099092960357666015625">
        <ele>1182.5999755859375</ele>
        <time>2026-06-16T12:02:21.000Z</time>
        <extensions>
          <ns3:TrackPointExtension>
            <ns3:atemp>20.0</ns3:atemp>
          </ns3:TrackPointExtension>
        </extensions>
      </trkpt>
      <trkpt lat="42.6213612221181392669677734375" lon="19.9150473810732364654541015625">
        <ele>1181.800048828125</ele>
        <time>2026-06-16T12:02:22.000Z</time>
        <extensions>
          <ns3:TrackPointExtension>
            <ns3:atemp>20.0</ns3:atemp>
          </ns3:TrackPointExtension>
        </extensions>
      </trkpt>
      <trkpt lat="42.62134202755987644195556640625" lon="19.91503707133233547210693359375">
        <ele>1181</ele>
        <time>2026-06-16T12:02:23.000Z</time>
        <extensions>
          <ns3:TrackPointExtension>
            <ns3:atemp>20.0</ns3:atemp>
          </ns3:TrackPointExtension>
        </extensions>
      </trkpt>
      <trkpt lat="42.6213276945054531097412109375" lon="19.9150423519313335418701171875">
        <ele>1180.5999755859375</ele>
        <time>2026-06-16T12:02:24.000Z</time>
        <extensions>
          <ns3:TrackPointExtension>
            <ns3:atemp>20.0</ns3:atemp>
          </ns3:TrackPointExtension>
        </extensions>
      </trkpt>
      <trkpt lat="42.621316798031330108642578125" lon="19.915050230920314788818359375">
        <ele>1179.800048828125</ele>
        <time>2026-06-16T12:02:25.000Z</time>
        <extensions>
          <ns3:TrackPointExtension>
            <ns3:atemp>20.0</ns3:atemp>
          </ns3:TrackPointExtension>
        </extensions>
      </trkpt>
      <trkpt lat="42.62130615301430225372314453125" lon="19.91506020538508892059326171875">
        <ele>1179.4000244140625</ele>
        <time>2026-06-16T12:02:26.000Z</time>
        <extensions>
          <ns3:TrackPointExtension>
            <ns3:atemp>20.0</ns3:atemp>
          </ns3:TrackPointExtension>
        </extensions>
      </trkpt>
      <trkpt lat="42.62130439281463623046875" lon="19.91505886428058147430419921875">
        <ele>1179.199951171875</ele>
        <time>2026-06-16T12:02:27.000Z</time>
        <extensions>
          <ns3:TrackPointExtension>
            <ns3:atemp>20.0</ns3:atemp>
          </ns3:TrackPointExtension>
        </extensions>
      </trkpt>
      <trkpt lat="42.62130439281463623046875" lon="19.91505886428058147430419921875">
        <ele>1178.800048828125</ele>
        <time>2026-06-16T12:02:28.000Z</time>
        <extensions>
          <ns3:TrackPointExtension>
            <ns3:atemp>20.0</ns3:atemp>
          </ns3:TrackPointExtension>
        </extensions>
      </trkpt>
      <trkpt lat="42.62130439281463623046875" lon="19.91505886428058147430419921875">
        <ele>1178.5999755859375</ele>
        <time>2026-06-16T12:02:29.000Z</time>
        <extensions>
          <ns3:TrackPointExtension>
            <ns3:atemp>20.0</ns3:atemp>
          </ns3:TrackPointExtension>
        </extensions>
      </trkpt>
      <trkpt lat="42.62130439281463623046875" lon="19.91505886428058147430419921875">
        <ele>1178.199951171875</ele>
        <time>2026-06-16T12:02:30.000Z</time>
        <extensions>
          <ns3:TrackPointExtension>
            <ns3:atemp>20.0</ns3:atemp>
          </ns3:TrackPointExtension>
        </extensions>
      </trkpt>
      <trkpt lat="42.62130439281463623046875" lon="19.91505886428058147430419921875">
        <ele>1178</ele>
        <time>2026-06-16T12:02:31.000Z</time>
        <extensions>
          <ns3:TrackPointExtension>
            <ns3:atemp>20.0</ns3:atemp>
          </ns3:TrackPointExtension>
        </extensions>
      </trkpt>
      <trkpt lat="42.62130439281463623046875" lon="19.91505886428058147430419921875">
        <ele>1178</ele>
        <time>2026-06-16T12:02:32.000Z</time>
        <extensions>
          <ns3:TrackPointExtension>
            <ns3:atemp>20.0</ns3:atemp>
          </ns3:TrackPointExtension>
        </extensions>
      </trkpt>
      <trkpt lat="42.62130439281463623046875" lon="19.91505886428058147430419921875">
        <ele>1177.800048828125</ele>
        <time>2026-06-16T12:02:33.000Z</time>
        <extensions>
          <ns3:TrackPointExtension>
            <ns3:atemp>20.0</ns3:atemp>
          </ns3:TrackPointExtension>
        </extensions>
      </trkpt>
      <trkpt lat="42.62130439281463623046875" lon="19.91505886428058147430419921875">
        <ele>1177.800048828125</ele>
        <time>2026-06-16T12:02:34.000Z</time>
        <extensions>
          <ns3:TrackPointExtension>
            <ns3:atemp>20.0</ns3:atemp>
          </ns3:TrackPointExtension>
        </extensions>
      </trkpt>
      <trkpt lat="42.62130439281463623046875" lon="19.91505886428058147430419921875">
        <ele>1177.800048828125</ele>
        <time>2026-06-16T12:02:35.000Z</time>
        <extensions>
          <ns3:TrackPointExtension>
            <ns3:atemp>20.0</ns3:atemp>
          </ns3:TrackPointExtension>
        </extensions>
      </trkpt>
      <trkpt lat="42.62130439281463623046875" lon="19.91505886428058147430419921875">
        <ele>1177.800048828125</ele>
        <time>2026-06-16T12:02:36.000Z</time>
        <extensions>
          <ns3:TrackPointExtension>
            <ns3:atemp>20.0</ns3:atemp>
          </ns3:TrackPointExtension>
        </extensions>
      </trkpt>
      <trkpt lat="42.62130439281463623046875" lon="19.91505886428058147430419921875">
        <ele>1177.800048828125</ele>
        <time>2026-06-16T12:02:37.000Z</time>
        <extensions>
          <ns3:TrackPointExtension>
            <ns3:atemp>20.0</ns3:atemp>
          </ns3:TrackPointExtension>
        </extensions>
      </trkpt>
      <trkpt lat="42.62130439281463623046875" lon="19.91505886428058147430419921875">
        <ele>1177.5999755859375</ele>
        <time>2026-06-16T12:02:38.000Z</time>
        <extensions>
          <ns3:TrackPointExtension>
            <ns3:atemp>20.0</ns3:atemp>
          </ns3:TrackPointExtension>
        </extensions>
      </trkpt>
      <trkpt lat="42.62130439281463623046875" lon="19.91505886428058147430419921875">
        <ele>1177.5999755859375</ele>
        <time>2026-06-16T12:02:39.000Z</time>
        <extensions>
          <ns3:TrackPointExtension>
            <ns3:atemp>20.0</ns3:atemp>
          </ns3:TrackPointExtension>
        </extensions>
      </trkpt>
      <trkpt lat="42.62130439281463623046875" lon="19.91505886428058147430419921875">
        <ele>1177.5999755859375</ele>
        <time>2026-06-16T12:02:40.000Z</time>
        <extensions>
          <ns3:TrackPointExtension>
            <ns3:atemp>20.0</ns3:atemp>
          </ns3:TrackPointExtension>
        </extensions>
      </trkpt>
      <trkpt lat="42.62130439281463623046875" lon="19.91505886428058147430419921875">
        <ele>1177.5999755859375</ele>
        <time>2026-06-16T12:02:41.000Z</time>
        <extensions>
          <ns3:TrackPointExtension>
            <ns3:atemp>20.0</ns3:atemp>
          </ns3:TrackPointExtension>
        </extensions>
      </trkpt>
      <trkpt lat="42.62130439281463623046875" lon="19.91505886428058147430419921875">
        <ele>1177.5999755859375</ele>
        <time>2026-06-16T12:02:42.000Z</time>
        <extensions>
          <ns3:TrackPointExtension>
            <ns3:atemp>20.0</ns3:atemp>
          </ns3:TrackPointExtension>
        </extensions>
      </trkpt>
      <trkpt lat="42.62130439281463623046875" lon="19.91505886428058147430419921875">
        <ele>1177.5999755859375</ele>
        <time>2026-06-16T12:02:43.000Z</time>
        <extensions>
          <ns3:TrackPointExtension>
            <ns3:atemp>20.0</ns3:atemp>
          </ns3:TrackPointExtension>
        </extensions>
      </trkpt>
      <trkpt lat="42.62130439281463623046875" lon="19.91505886428058147430419921875">
        <ele>1177.4000244140625</ele>
        <time>2026-06-16T12:02:44.000Z</time>
        <extensions>
          <ns3:TrackPointExtension>
            <ns3:atemp>20.0</ns3:atemp>
          </ns3:TrackPointExtension>
        </extensions>
      </trkpt>
      <trkpt lat="42.62130439281463623046875" lon="19.91505886428058147430419921875">
        <ele>1177.4000244140625</ele>
        <time>2026-06-16T12:02:45.000Z</time>
        <extensions>
          <ns3:TrackPointExtension>
            <ns3:atemp>20.0</ns3:atemp>
          </ns3:TrackPointExtension>
        </extensions>
      </trkpt>
      <trkpt lat="42.62130313552916049957275390625" lon="19.91506556980311870574951171875">
        <ele>1177.4000244140625</ele>
        <time>2026-06-16T12:02:46.000Z</time>
        <extensions>
          <ns3:TrackPointExtension>
            <ns3:atemp>20.0</ns3:atemp>
          </ns3:TrackPointExtension>
        </extensions>
      </trkpt>
      <trkpt lat="42.62130162678658962249755859375" lon="19.91508652456104755401611328125">
        <ele>1177.4000244140625</ele>
        <time>2026-06-16T12:02:47.000Z</time>
        <extensions>
          <ns3:TrackPointExtension>
            <ns3:atemp>20.0</ns3:atemp>
          </ns3:TrackPointExtension>
        </extensions>
      </trkpt>
      <trkpt lat="42.6213059015572071075439453125" lon="19.91509591229259967803955078125">
        <ele>1177.4000244140625</ele>
        <time>2026-06-16T12:02:48.000Z</time>
        <extensions>
          <ns3:TrackPointExtension>
            <ns3:atemp>20.0</ns3:atemp>
          </ns3:TrackPointExtension>
        </extensions>
      </trkpt>
      <trkpt lat="42.62130883522331714630126953125" lon="19.9151030369102954864501953125">
        <ele>1177.199951171875</ele>
        <time>2026-06-16T12:02:49.000Z</time>
        <extensions>
          <ns3:TrackPointExtension>
            <ns3:atemp>20.0</ns3:atemp>
          </ns3:TrackPointExtension>
        </extensions>
      </trkpt>
      <trkpt lat="42.6213102601468563079833984375" lon="19.91510597057640552520751953125">
        <ele>1177.199951171875</ele>
        <time>2026-06-16T12:02:50.000Z</time>
        <extensions>
          <ns3:TrackPointExtension>
            <ns3:atemp>20.0</ns3:atemp>
          </ns3:TrackPointExtension>
        </extensions>
      </trkpt>
      <trkpt lat="42.6213112659752368927001953125" lon="19.9151043780148029327392578125">
        <ele>1177.199951171875</ele>
        <time>2026-06-16T12:02:51.000Z</time>
        <extensions>
          <ns3:TrackPointExtension>
            <ns3:atemp>20.0</ns3:atemp>
          </ns3:TrackPointExtension>
        </extensions>
      </trkpt>
      <trkpt lat="42.6213112659752368927001953125" lon="19.9151043780148029327392578125">
        <ele>1177.199951171875</ele>
        <time>2026-06-16T12:02:52.000Z</time>
        <extensions>
          <ns3:TrackPointExtension>
            <ns3:atemp>20.0</ns3:atemp>
          </ns3:TrackPointExtension>
        </extensions>
      </trkpt>
      <trkpt lat="42.6213112659752368927001953125" lon="19.9151043780148029327392578125">
        <ele>1177</ele>
        <time>2026-06-16T12:02:53.000Z</time>
        <extensions>
          <ns3:TrackPointExtension>
            <ns3:atemp>20.0</ns3:atemp>
          </ns3:TrackPointExtension>
        </extensions>
      </trkpt>
      <trkpt lat="42.6213112659752368927001953125" lon="19.9151043780148029327392578125">
        <ele>1177</ele>
        <time>2026-06-16T12:02:54.000Z</time>
        <extensions>
          <ns3:TrackPointExtension>
            <ns3:atemp>20.0</ns3:atemp>
          </ns3:TrackPointExtension>
        </extensions>
      </trkpt>
      <trkpt lat="42.6213112659752368927001953125" lon="19.9151043780148029327392578125">
        <ele>1177</ele>
        <time>2026-06-16T12:02:55.000Z</time>
        <extensions>
          <ns3:TrackPointExtension>
            <ns3:atemp>20.0</ns3:atemp>
          </ns3:TrackPointExtension>
        </extensions>
      </trkpt>
      <trkpt lat="42.6213112659752368927001953125" lon="19.9151043780148029327392578125">
        <ele>1176.800048828125</ele>
        <time>2026-06-16T12:02:56.000Z</time>
        <extensions>
          <ns3:TrackPointExtension>
            <ns3:atemp>20.0</ns3:atemp>
          </ns3:TrackPointExtension>
        </extensions>
      </trkpt>
      <trkpt lat="42.6213112659752368927001953125" lon="19.9151043780148029327392578125">
        <ele>1176.800048828125</ele>
        <time>2026-06-16T12:02:57.000Z</time>
        <extensions>
          <ns3:TrackPointExtension>
            <ns3:atemp>20.0</ns3:atemp>
          </ns3:TrackPointExtension>
        </extensions>
      </trkpt>
      <trkpt lat="42.6213112659752368927001953125" lon="19.9151043780148029327392578125">
        <ele>1176.800048828125</ele>
        <time>2026-06-16T12:02:58.000Z</time>
        <extensions>
          <ns3:TrackPointExtension>
            <ns3:atemp>20.0</ns3:atemp>
          </ns3:TrackPointExtension>
        </extensions>
      </trkpt>
      <trkpt lat="42.6213112659752368927001953125" lon="19.9151043780148029327392578125">
        <ele>1176.800048828125</ele>
        <time>2026-06-16T12:02:59.000Z</time>
        <extensions>
          <ns3:TrackPointExtension>
            <ns3:atemp>20.0</ns3:atemp>
          </ns3:TrackPointExtension>
        </extensions>
      </trkpt>
      <trkpt lat="42.6213112659752368927001953125" lon="19.9151043780148029327392578125">
        <ele>1176.800048828125</ele>
        <time>2026-06-16T12:03:00.000Z</time>
        <extensions>
          <ns3:TrackPointExtension>
            <ns3:atemp>20.0</ns3:atemp>
          </ns3:TrackPointExtension>
        </extensions>
      </trkpt>
      <trkpt lat="42.6213112659752368927001953125" lon="19.9151043780148029327392578125">
        <ele>1176.800048828125</ele>
        <time>2026-06-16T12:03:01.000Z</time>
        <extensions>
          <ns3:TrackPointExtension>
            <ns3:atemp>20.0</ns3:atemp>
          </ns3:TrackPointExtension>
        </extensions>
      </trkpt>
      <trkpt lat="42.6213112659752368927001953125" lon="19.9151043780148029327392578125">
        <ele>1176.5999755859375</ele>
        <time>2026-06-16T12:03:02.000Z</time>
        <extensions>
          <ns3:TrackPointExtension>
            <ns3:atemp>20.0</ns3:atemp>
          </ns3:TrackPointExtension>
        </extensions>
      </trkpt>
      <trkpt lat="42.6213112659752368927001953125" lon="19.9151043780148029327392578125">
        <ele>1176.5999755859375</ele>
        <time>2026-06-16T12:03:03.000Z</time>
        <extensions>
          <ns3:TrackPointExtension>
            <ns3:atemp>20.0</ns3:atemp>
          </ns3:TrackPointExtension>
        </extensions>
      </trkpt>
      <trkpt lat="42.6213112659752368927001953125" lon="19.9151043780148029327392578125">
        <ele>1176.5999755859375</ele>
        <time>2026-06-16T12:03:04.000Z</time>
        <extensions>
          <ns3:TrackPointExtension>
            <ns3:atemp>20.0</ns3:atemp>
          </ns3:TrackPointExtension>
        </extensions>
      </trkpt>
      <trkpt lat="42.6213112659752368927001953125" lon="19.9151043780148029327392578125">
        <ele>1176.5999755859375</ele>
        <time>2026-06-16T12:03:05.000Z</time>
        <extensions>
          <ns3:TrackPointExtension>
            <ns3:atemp>20.0</ns3:atemp>
          </ns3:TrackPointExtension>
        </extensions>
      </trkpt>
      <trkpt lat="42.6213112659752368927001953125" lon="19.9151043780148029327392578125">
        <ele>1176.5999755859375</ele>
        <time>2026-06-16T12:03:06.000Z</time>
        <extensions>
          <ns3:TrackPointExtension>
            <ns3:atemp>20.0</ns3:atemp>
          </ns3:TrackPointExtension>
        </extensions>
      </trkpt>
      <trkpt lat="42.6213112659752368927001953125" lon="19.9151043780148029327392578125">
        <ele>1176.5999755859375</ele>
        <time>2026-06-16T12:03:07.000Z</time>
        <extensions>
          <ns3:TrackPointExtension>
            <ns3:atemp>20.0</ns3:atemp>
          </ns3:TrackPointExtension>
        </extensions>
      </trkpt>
      <trkpt lat="42.6213112659752368927001953125" lon="19.9151043780148029327392578125">
        <ele>1176.5999755859375</ele>
        <time>2026-06-16T12:03:08.000Z</time>
        <extensions>
          <ns3:TrackPointExtension>
            <ns3:atemp>20.0</ns3:atemp>
          </ns3:TrackPointExtension>
        </extensions>
      </trkpt>
      <trkpt lat="42.6213112659752368927001953125" lon="19.9151043780148029327392578125">
        <ele>1176.5999755859375</ele>
        <time>2026-06-16T12:03:09.000Z</time>
        <extensions>
          <ns3:TrackPointExtension>
            <ns3:atemp>20.0</ns3:atemp>
          </ns3:TrackPointExtension>
        </extensions>
      </trkpt>
      <trkpt lat="42.6213112659752368927001953125" lon="19.9151043780148029327392578125">
        <ele>1176.5999755859375</ele>
        <time>2026-06-16T12:03:10.000Z</time>
        <extensions>
          <ns3:TrackPointExtension>
            <ns3:atemp>20.0</ns3:atemp>
          </ns3:TrackPointExtension>
        </extensions>
      </trkpt>
      <trkpt lat="42.6213112659752368927001953125" lon="19.9151043780148029327392578125">
        <ele>1176.5999755859375</ele>
        <time>2026-06-16T12:03:11.000Z</time>
        <extensions>
          <ns3:TrackPointExtension>
            <ns3:atemp>20.0</ns3:atemp>
          </ns3:TrackPointExtension>
        </extensions>
      </trkpt>
      <trkpt lat="42.6213112659752368927001953125" lon="19.9151043780148029327392578125">
        <ele>1176.5999755859375</ele>
        <time>2026-06-16T12:03:12.000Z</time>
        <extensions>
          <ns3:TrackPointExtension>
            <ns3:atemp>20.0</ns3:atemp>
          </ns3:TrackPointExtension>
        </extensions>
      </trkpt>
      <trkpt lat="42.6213112659752368927001953125" lon="19.9151043780148029327392578125">
        <ele>1176.5999755859375</ele>
        <time>2026-06-16T12:03:13.000Z</time>
        <extensions>
          <ns3:TrackPointExtension>
            <ns3:atemp>20.0</ns3:atemp>
          </ns3:TrackPointExtension>
        </extensions>
      </trkpt>
      <trkpt lat="42.6213112659752368927001953125" lon="19.9151043780148029327392578125">
        <ele>1176.5999755859375</ele>
        <time>2026-06-16T12:03:14.000Z</time>
        <extensions>
          <ns3:TrackPointExtension>
            <ns3:atemp>20.0</ns3:atemp>
          </ns3:TrackPointExtension>
        </extensions>
      </trkpt>
      <trkpt lat="42.6213112659752368927001953125" lon="19.9151043780148029327392578125">
        <ele>1176.5999755859375</ele>
        <time>2026-06-16T12:03:15.000Z</time>
        <extensions>
          <ns3:TrackPointExtension>
            <ns3:atemp>20.0</ns3:atemp>
          </ns3:TrackPointExtension>
        </extensions>
      </trkpt>
      <trkpt lat="42.6213112659752368927001953125" lon="19.9151043780148029327392578125">
        <ele>1176.4000244140625</ele>
        <time>2026-06-16T12:03:16.000Z</time>
        <extensions>
          <ns3:TrackPointExtension>
            <ns3:atemp>20.0</ns3:atemp>
          </ns3:TrackPointExtension>
        </extensions>
      </trkpt>
      <trkpt lat="42.6213112659752368927001953125" lon="19.9151043780148029327392578125">
        <ele>1176.4000244140625</ele>
        <time>2026-06-16T12:03:17.000Z</time>
        <extensions>
          <ns3:TrackPointExtension>
            <ns3:atemp>20.0</ns3:atemp>
          </ns3:TrackPointExtension>
        </extensions>
      </trkpt>
      <trkpt lat="42.6213112659752368927001953125" lon="19.9151043780148029327392578125">
        <ele>1176.4000244140625</ele>
        <time>2026-06-16T12:03:18.000Z</time>
        <extensions>
          <ns3:TrackPointExtension>
            <ns3:atemp>20.0</ns3:atemp>
          </ns3:TrackPointExtension>
        </extensions>
      </trkpt>
      <trkpt lat="42.6213112659752368927001953125" lon="19.9151043780148029327392578125">
        <ele>1176.4000244140625</ele>
        <time>2026-06-16T12:03:19.000Z</time>
        <extensions>
          <ns3:TrackPointExtension>
            <ns3:atemp>20.0</ns3:atemp>
          </ns3:TrackPointExtension>
        </extensions>
      </trkpt>
      <trkpt lat="42.6213112659752368927001953125" lon="19.9151043780148029327392578125">
        <ele>1176.4000244140625</ele>
        <time>2026-06-16T12:03:20.000Z</time>
        <extensions>
          <ns3:TrackPointExtension>
            <ns3:atemp>20.0</ns3:atemp>
          </ns3:TrackPointExtension>
        </extensions>
      </trkpt>
      <trkpt lat="42.6213112659752368927001953125" lon="19.9151043780148029327392578125">
        <ele>1176.4000244140625</ele>
        <time>2026-06-16T12:03:21.000Z</time>
        <extensions>
          <ns3:TrackPointExtension>
            <ns3:atemp>20.0</ns3:atemp>
          </ns3:TrackPointExtension>
        </extensions>
      </trkpt>
      <trkpt lat="42.6213112659752368927001953125" lon="19.9151043780148029327392578125">
        <ele>1176.4000244140625</ele>
        <time>2026-06-16T12:03:22.000Z</time>
        <extensions>
          <ns3:TrackPointExtension>
            <ns3:atemp>20.0</ns3:atemp>
          </ns3:TrackPointExtension>
        </extensions>
      </trkpt>
      <trkpt lat="42.6213112659752368927001953125" lon="19.9151043780148029327392578125">
        <ele>1176.4000244140625</ele>
        <time>2026-06-16T12:03:23.000Z</time>
        <extensions>
          <ns3:TrackPointExtension>
            <ns3:atemp>20.0</ns3:atemp>
          </ns3:TrackPointExtension>
        </extensions>
      </trkpt>
      <trkpt lat="42.6213112659752368927001953125" lon="19.9151043780148029327392578125">
        <ele>1176.4000244140625</ele>
        <time>2026-06-16T12:03:24.000Z</time>
        <extensions>
          <ns3:TrackPointExtension>
            <ns3:atemp>20.0</ns3:atemp>
          </ns3:TrackPointExtension>
        </extensions>
      </trkpt>
      <trkpt lat="42.6213112659752368927001953125" lon="19.9151043780148029327392578125">
        <ele>1176.4000244140625</ele>
        <time>2026-06-16T12:03:25.000Z</time>
        <extensions>
          <ns3:TrackPointExtension>
            <ns3:atemp>20.0</ns3:atemp>
          </ns3:TrackPointExtension>
        </extensions>
      </trkpt>
      <trkpt lat="42.6213112659752368927001953125" lon="19.9151043780148029327392578125">
        <ele>1176.4000244140625</ele>
        <time>2026-06-16T12:03:26.000Z</time>
        <extensions>
          <ns3:TrackPointExtension>
            <ns3:atemp>20.0</ns3:atemp>
          </ns3:TrackPointExtension>
        </extensions>
      </trkpt>
      <trkpt lat="42.6213112659752368927001953125" lon="19.9151043780148029327392578125">
        <ele>1176.4000244140625</ele>
        <time>2026-06-16T12:03:27.000Z</time>
        <extensions>
          <ns3:TrackPointExtension>
            <ns3:atemp>20.0</ns3:atemp>
          </ns3:TrackPointExtension>
        </extensions>
      </trkpt>
      <trkpt lat="42.6213112659752368927001953125" lon="19.9151043780148029327392578125">
        <ele>1176.4000244140625</ele>
        <time>2026-06-16T12:03:28.000Z</time>
        <extensions>
          <ns3:TrackPointExtension>
            <ns3:atemp>20.0</ns3:atemp>
          </ns3:TrackPointExtension>
        </extensions>
      </trkpt>
      <trkpt lat="42.6213112659752368927001953125" lon="19.9151043780148029327392578125">
        <ele>1176.199951171875</ele>
        <time>2026-06-16T12:03:29.000Z</time>
        <extensions>
          <ns3:TrackPointExtension>
            <ns3:atemp>20.0</ns3:atemp>
          </ns3:TrackPointExtension>
        </extensions>
      </trkpt>
      <trkpt lat="42.6213112659752368927001953125" lon="19.9151043780148029327392578125">
        <ele>1176.199951171875</ele>
        <time>2026-06-16T12:03:30.000Z</time>
        <extensions>
          <ns3:TrackPointExtension>
            <ns3:atemp>20.0</ns3:atemp>
          </ns3:TrackPointExtension>
        </extensions>
      </trkpt>
      <trkpt lat="42.6213112659752368927001953125" lon="19.9151043780148029327392578125">
        <ele>1176.199951171875</ele>
        <time>2026-06-16T12:03:31.000Z</time>
        <extensions>
          <ns3:TrackPointExtension>
            <ns3:atemp>20.0</ns3:atemp>
          </ns3:TrackPointExtension>
        </extensions>
      </trkpt>
      <trkpt lat="42.6213112659752368927001953125" lon="19.9151043780148029327392578125">
        <ele>1176.199951171875</ele>
        <time>2026-06-16T12:03:32.000Z</time>
        <extensions>
          <ns3:TrackPointExtension>
            <ns3:atemp>20.0</ns3:atemp>
          </ns3:TrackPointExtension>
        </extensions>
      </trkpt>
      <trkpt lat="42.6213112659752368927001953125" lon="19.9151043780148029327392578125">
        <ele>1176.199951171875</ele>
        <time>2026-06-16T12:03:33.000Z</time>
        <extensions>
          <ns3:TrackPointExtension>
            <ns3:atemp>20.0</ns3:atemp>
          </ns3:TrackPointExtension>
        </extensions>
      </trkpt>
      <trkpt lat="42.62131319381296634674072265625" lon="19.91510177962481975555419921875">
        <ele>1176.199951171875</ele>
        <time>2026-06-16T12:03:34.000Z</time>
        <extensions>
          <ns3:TrackPointExtension>
            <ns3:atemp>20.0</ns3:atemp>
          </ns3:TrackPointExtension>
        </extensions>
      </trkpt>
      <trkpt lat="42.6213119365274906158447265625" lon="19.9151114188134670257568359375">
        <ele>1176</ele>
        <time>2026-06-16T12:03:35.000Z</time>
        <extensions>
          <ns3:TrackPointExtension>
            <ns3:atemp>20.0</ns3:atemp>
          </ns3:TrackPointExtension>
        </extensions>
      </trkpt>
      <trkpt lat="42.62130615301430225372314453125" lon="19.915134049952030181884765625">
        <ele>1176</ele>
        <time>2026-06-16T12:03:36.000Z</time>
        <extensions>
          <ns3:TrackPointExtension>
            <ns3:atemp>20.0</ns3:atemp>
          </ns3:TrackPointExtension>
        </extensions>
      </trkpt>
      <trkpt lat="42.62129492126405239105224609375" lon="19.9151617102324962615966796875">
        <ele>1175.800048828125</ele>
        <time>2026-06-16T12:03:37.000Z</time>
        <extensions>
          <ns3:TrackPointExtension>
            <ns3:atemp>20.0</ns3:atemp>
          </ns3:TrackPointExtension>
        </extensions>
      </trkpt>
      <trkpt lat="42.6212794147431850433349609375" lon="19.915190376341342926025390625">
        <ele>1175.4000244140625</ele>
        <time>2026-06-16T12:03:38.000Z</time>
        <extensions>
          <ns3:TrackPointExtension>
            <ns3:atemp>20.0</ns3:atemp>
          </ns3:TrackPointExtension>
        </extensions>
      </trkpt>
      <trkpt lat="42.62126441113650798797607421875" lon="19.91522130556404590606689453125">
        <ele>1175.199951171875</ele>
        <time>2026-06-16T12:03:39.000Z</time>
        <extensions>
          <ns3:TrackPointExtension>
            <ns3:atemp>20.0</ns3:atemp>
          </ns3:TrackPointExtension>
        </extensions>
      </trkpt>
      <trkpt lat="42.6212494075298309326171875" lon="19.915258102118968963623046875">
        <ele>1174.800048828125</ele>
        <time>2026-06-16T12:03:40.000Z</time>
        <extensions>
          <ns3:TrackPointExtension>
            <ns3:atemp>20.0</ns3:atemp>
          </ns3:TrackPointExtension>
        </extensions>
      </trkpt>
      <trkpt lat="42.621232308447360992431640625" lon="19.91529506631195545196533203125">
        <ele>1174.199951171875</ele>
        <time>2026-06-16T12:03:41.000Z</time>
        <extensions>
          <ns3:TrackPointExtension>
            <ns3:atemp>20.0</ns3:atemp>
          </ns3:TrackPointExtension>
        </extensions>
      </trkpt>
      <trkpt lat="42.62121747247874736785888671875" lon="19.91532155312597751617431640625">
        <ele>1173.800048828125</ele>
        <time>2026-06-16T12:03:42.000Z</time>
        <extensions>
          <ns3:TrackPointExtension>
            <ns3:atemp>20.0</ns3:atemp>
          </ns3:TrackPointExtension>
        </extensions>
      </trkpt>
      <trkpt lat="42.62121126987040042877197265625" lon="19.9153347127139568328857421875">
        <ele>1173.199951171875</ele>
        <time>2026-06-16T12:03:43.000Z</time>
        <extensions>
          <ns3:TrackPointExtension>
            <ns3:atemp>20.0</ns3:atemp>
          </ns3:TrackPointExtension>
        </extensions>
      </trkpt>
      <trkpt lat="42.62121076695621013641357421875" lon="19.91533580236136913299560546875">
        <ele>1172.5999755859375</ele>
        <time>2026-06-16T12:03:44.000Z</time>
        <extensions>
          <ns3:TrackPointExtension>
            <ns3:atemp>20.0</ns3:atemp>
          </ns3:TrackPointExtension>
        </extensions>
      </trkpt>
      <trkpt lat="42.62121076695621013641357421875" lon="19.91533580236136913299560546875">
        <ele>1172.199951171875</ele>
        <time>2026-06-16T12:03:45.000Z</time>
        <extensions>
          <ns3:TrackPointExtension>
            <ns3:atemp>20.0</ns3:atemp>
          </ns3:TrackPointExtension>
        </extensions>
      </trkpt>
      <trkpt lat="42.62121076695621013641357421875" lon="19.91533580236136913299560546875">
        <ele>1171.800048828125</ele>
        <time>2026-06-16T12:03:46.000Z</time>
        <extensions>
          <ns3:TrackPointExtension>
            <ns3:atemp>20.0</ns3:atemp>
          </ns3:TrackPointExtension>
        </extensions>
      </trkpt>
      <trkpt lat="42.62121076695621013641357421875" lon="19.91533580236136913299560546875">
        <ele>1171.5999755859375</ele>
        <time>2026-06-16T12:03:47.000Z</time>
        <extensions>
          <ns3:TrackPointExtension>
            <ns3:atemp>20.0</ns3:atemp>
          </ns3:TrackPointExtension>
        </extensions>
      </trkpt>
      <trkpt lat="42.62121076695621013641357421875" lon="19.91533580236136913299560546875">
        <ele>1171.4000244140625</ele>
        <time>2026-06-16T12:03:48.000Z</time>
        <extensions>
          <ns3:TrackPointExtension>
            <ns3:atemp>20.0</ns3:atemp>
          </ns3:TrackPointExtension>
        </extensions>
      </trkpt>
      <trkpt lat="42.62121076695621013641357421875" lon="19.91533580236136913299560546875">
        <ele>1171.4000244140625</ele>
        <time>2026-06-16T12:03:49.000Z</time>
        <extensions>
          <ns3:TrackPointExtension>
            <ns3:atemp>20.0</ns3:atemp>
          </ns3:TrackPointExtension>
        </extensions>
      </trkpt>
      <trkpt lat="42.62121076695621013641357421875" lon="19.91533580236136913299560546875">
        <ele>1171.199951171875</ele>
        <time>2026-06-16T12:03:50.000Z</time>
        <extensions>
          <ns3:TrackPointExtension>
            <ns3:atemp>20.0</ns3:atemp>
          </ns3:TrackPointExtension>
        </extensions>
      </trkpt>
      <trkpt lat="42.62121076695621013641357421875" lon="19.91533580236136913299560546875">
        <ele>1171.199951171875</ele>
        <time>2026-06-16T12:03:51.000Z</time>
        <extensions>
          <ns3:TrackPointExtension>
            <ns3:atemp>20.0</ns3:atemp>
          </ns3:TrackPointExtension>
        </extensions>
      </trkpt>
      <trkpt lat="42.62121076695621013641357421875" lon="19.91533580236136913299560546875">
        <ele>1171</ele>
        <time>2026-06-16T12:03:52.000Z</time>
        <extensions>
          <ns3:TrackPointExtension>
            <ns3:atemp>20.0</ns3:atemp>
          </ns3:TrackPointExtension>
        </extensions>
      </trkpt>
      <trkpt lat="42.62121076695621013641357421875" lon="19.91533580236136913299560546875">
        <ele>1171</ele>
        <time>2026-06-16T12:03:53.000Z</time>
        <extensions>
          <ns3:TrackPointExtension>
            <ns3:atemp>20.0</ns3:atemp>
          </ns3:TrackPointExtension>
        </extensions>
      </trkpt>
      <trkpt lat="42.62121076695621013641357421875" lon="19.91533580236136913299560546875">
        <ele>1171</ele>
        <time>2026-06-16T12:03:54.000Z</time>
        <extensions>
          <ns3:TrackPointExtension>
            <ns3:atemp>20.0</ns3:atemp>
          </ns3:TrackPointExtension>
        </extensions>
      </trkpt>
      <trkpt lat="42.62121076695621013641357421875" lon="19.91533580236136913299560546875">
        <ele>1171</ele>
        <time>2026-06-16T12:03:55.000Z</time>
        <extensions>
          <ns3:TrackPointExtension>
            <ns3:atemp>20.0</ns3:atemp>
          </ns3:TrackPointExtension>
        </extensions>
      </trkpt>
      <trkpt lat="42.62121076695621013641357421875" lon="19.91533580236136913299560546875">
        <ele>1171</ele>
        <time>2026-06-16T12:03:56.000Z</time>
        <extensions>
          <ns3:TrackPointExtension>
            <ns3:atemp>20.0</ns3:atemp>
          </ns3:TrackPointExtension>
        </extensions>
      </trkpt>
      <trkpt lat="42.62121076695621013641357421875" lon="19.91533580236136913299560546875">
        <ele>1170.800048828125</ele>
        <time>2026-06-16T12:03:57.000Z</time>
        <extensions>
          <ns3:TrackPointExtension>
            <ns3:atemp>20.0</ns3:atemp>
          </ns3:TrackPointExtension>
        </extensions>
      </trkpt>
      <trkpt lat="42.62121076695621013641357421875" lon="19.91533580236136913299560546875">
        <ele>1170.800048828125</ele>
        <time>2026-06-16T12:03:58.000Z</time>
        <extensions>
          <ns3:TrackPointExtension>
            <ns3:atemp>20.0</ns3:atemp>
          </ns3:TrackPointExtension>
        </extensions>
      </trkpt>
      <trkpt lat="42.621211521327495574951171875" lon="19.91533689200878143310546875">
        <ele>1170.800048828125</ele>
        <time>2026-06-16T12:03:59.000Z</time>
        <extensions>
          <ns3:TrackPointExtension>
            <ns3:atemp>20.0</ns3:atemp>
          </ns3:TrackPointExtension>
        </extensions>
      </trkpt>
      <trkpt lat="42.6212049834430217742919921875" lon="19.915354661643505096435546875">
        <ele>1170.800048828125</ele>
        <time>2026-06-16T12:04:00.000Z</time>
        <extensions>
          <ns3:TrackPointExtension>
            <ns3:atemp>20.0</ns3:atemp>
          </ns3:TrackPointExtension>
        </extensions>
      </trkpt>
      <trkpt lat="42.6211930811405181884765625" lon="19.9153689108788967132568359375">
        <ele>1170.5999755859375</ele>
        <time>2026-06-16T12:04:01.000Z</time>
        <extensions>
          <ns3:TrackPointExtension>
            <ns3:atemp>20.0</ns3:atemp>
          </ns3:TrackPointExtension>
        </extensions>
      </trkpt>
      <trkpt lat="42.6211751438677310943603515625" lon="19.91538517177104949951171875">
        <ele>1170.4000244140625</ele>
        <time>2026-06-16T12:04:02.000Z</time>
        <extensions>
          <ns3:TrackPointExtension>
            <ns3:atemp>20.0</ns3:atemp>
          </ns3:TrackPointExtension>
        </extensions>
      </trkpt>
      <trkpt lat="42.62115678749978542327880859375" lon="19.9154057912528514862060546875">
        <ele>1170.199951171875</ele>
        <time>2026-06-16T12:04:03.000Z</time>
        <extensions>
          <ns3:TrackPointExtension>
            <ns3:atemp>20.0</ns3:atemp>
          </ns3:TrackPointExtension>
        </extensions>
      </trkpt>
      <trkpt lat="42.621135078370571136474609375" lon="19.91542934440076351165771484375">
        <ele>1169.800048828125</ele>
        <time>2026-06-16T12:04:04.000Z</time>
        <extensions>
          <ns3:TrackPointExtension>
            <ns3:atemp>20.0</ns3:atemp>
          </ns3:TrackPointExtension>
        </extensions>
      </trkpt>
      <trkpt lat="42.62111219577491283416748046875" lon="19.915452897548675537109375">
        <ele>1169.4000244140625</ele>
        <time>2026-06-16T12:04:05.000Z</time>
        <extensions>
          <ns3:TrackPointExtension>
            <ns3:atemp>20.0</ns3:atemp>
          </ns3:TrackPointExtension>
        </extensions>
      </trkpt>
      <trkpt lat="42.62109090574085712432861328125" lon="19.915475361049175262451171875">
        <ele>1169</ele>
        <time>2026-06-16T12:04:06.000Z</time>
        <extensions>
          <ns3:TrackPointExtension>
            <ns3:atemp>20.0</ns3:atemp>
          </ns3:TrackPointExtension>
        </extensions>
      </trkpt>
      <trkpt lat="42.62107481248676776885986328125" lon="19.91550612263381481170654296875">
        <ele>1168.5999755859375</ele>
        <time>2026-06-16T12:04:07.000Z</time>
        <extensions>
          <ns3:TrackPointExtension>
            <ns3:atemp>20.0</ns3:atemp>
          </ns3:TrackPointExtension>
        </extensions>
      </trkpt>
      <trkpt lat="42.62105989269912242889404296875" lon="19.91553931497037410736083984375">
        <ele>1168</ele>
        <time>2026-06-16T12:04:08.000Z</time>
        <extensions>
          <ns3:TrackPointExtension>
            <ns3:atemp>20.0</ns3:atemp>
          </ns3:TrackPointExtension>
        </extensions>
      </trkpt>
      <trkpt lat="42.62104597873985767364501953125" lon="19.915566556155681610107421875">
        <ele>1167.4000244140625</ele>
        <time>2026-06-16T12:04:09.000Z</time>
        <extensions>
          <ns3:TrackPointExtension>
            <ns3:atemp>20.0</ns3:atemp>
          </ns3:TrackPointExtension>
        </extensions>
      </trkpt>
      <trkpt lat="42.621033824980258941650390625" lon="19.9155888520181179046630859375">
        <ele>1166.800048828125</ele>
        <time>2026-06-16T12:04:10.000Z</time>
        <extensions>
          <ns3:TrackPointExtension>
            <ns3:atemp>20.0</ns3:atemp>
          </ns3:TrackPointExtension>
        </extensions>
      </trkpt>
      <trkpt lat="42.621020413935184478759765625" lon="19.9156240560114383697509765625">
        <ele>1166.4000244140625</ele>
        <time>2026-06-16T12:04:11.000Z</time>
        <extensions>
          <ns3:TrackPointExtension>
            <ns3:atemp>20.0</ns3:atemp>
          </ns3:TrackPointExtension>
        </extensions>
      </trkpt>
      <trkpt lat="42.62100859545171260833740234375" lon="19.91566185839474201202392578125">
        <ele>1165.5999755859375</ele>
        <time>2026-06-16T12:04:12.000Z</time>
        <extensions>
          <ns3:TrackPointExtension>
            <ns3:atemp>20.0</ns3:atemp>
          </ns3:TrackPointExtension>
        </extensions>
      </trkpt>
      <trkpt lat="42.62099417857825756072998046875" lon="19.91569924168288707733154296875">
        <ele>1165</ele>
        <time>2026-06-16T12:04:13.000Z</time>
        <extensions>
          <ns3:TrackPointExtension>
            <ns3:atemp>20.0</ns3:atemp>
          </ns3:TrackPointExtension>
        </extensions>
      </trkpt>
      <trkpt lat="42.6209810189902782440185546875" lon="19.915734194219112396240234375">
        <ele>1164.199951171875</ele>
        <time>2026-06-16T12:04:14.000Z</time>
        <extensions>
          <ns3:TrackPointExtension>
            <ns3:atemp>20.0</ns3:atemp>
          </ns3:TrackPointExtension>
        </extensions>
      </trkpt>
      <trkpt lat="42.6209682784974575042724609375" lon="19.91576964966952800750732421875">
        <ele>1163.5999755859375</ele>
        <time>2026-06-16T12:04:15.000Z</time>
        <extensions>
          <ns3:TrackPointExtension>
            <ns3:atemp>20.0</ns3:atemp>
          </ns3:TrackPointExtension>
        </extensions>
      </trkpt>
      <trkpt lat="42.6209552027285099029541015625" lon="19.9158034287393093109130859375">
        <ele>1162.800048828125</ele>
        <time>2026-06-16T12:04:16.000Z</time>
        <extensions>
          <ns3:TrackPointExtension>
            <ns3:atemp>20.0</ns3:atemp>
          </ns3:TrackPointExtension>
        </extensions>
      </trkpt>
      <trkpt lat="42.62095126323401927947998046875" lon="19.915834106504917144775390625">
        <ele>1162.199951171875</ele>
        <time>2026-06-16T12:04:17.000Z</time>
        <extensions>
          <ns3:TrackPointExtension>
            <ns3:atemp>20.0</ns3:atemp>
          </ns3:TrackPointExtension>
        </extensions>
      </trkpt>
      <trkpt lat="42.6209538616240024566650390625" lon="19.91586771793663501739501953125">
        <ele>1161.800048828125</ele>
        <time>2026-06-16T12:04:18.000Z</time>
        <extensions>
          <ns3:TrackPointExtension>
            <ns3:atemp>20.0</ns3:atemp>
          </ns3:TrackPointExtension>
        </extensions>
      </trkpt>
      <trkpt lat="42.62096249498426914215087890625" lon="19.91589202545583248138427734375">
        <ele>1161.199951171875</ele>
        <time>2026-06-16T12:04:19.000Z</time>
        <extensions>
          <ns3:TrackPointExtension>
            <ns3:atemp>20.0</ns3:atemp>
          </ns3:TrackPointExtension>
        </extensions>
      </trkpt>
      <trkpt lat="42.6209706254303455352783203125" lon="19.91591348312795162200927734375">
        <ele>1160.800048828125</ele>
        <time>2026-06-16T12:04:20.000Z</time>
        <extensions>
          <ns3:TrackPointExtension>
            <ns3:atemp>20.0</ns3:atemp>
          </ns3:TrackPointExtension>
        </extensions>
      </trkpt>
      <trkpt lat="42.62097909115254878997802734375" lon="19.9159276485443115234375">
        <ele>1160.4000244140625</ele>
        <time>2026-06-16T12:04:21.000Z</time>
        <extensions>
          <ns3:TrackPointExtension>
            <ns3:atemp>20.0</ns3:atemp>
          </ns3:TrackPointExtension>
        </extensions>
      </trkpt>
      <trkpt lat="42.620988897979259490966796875" lon="19.91594634018838405609130859375">
        <ele>1160.199951171875</ele>
        <time>2026-06-16T12:04:22.000Z</time>
        <extensions>
          <ns3:TrackPointExtension>
            <ns3:atemp>20.0</ns3:atemp>
          </ns3:TrackPointExtension>
        </extensions>
      </trkpt>
      <trkpt lat="42.62099853716790676116943359375" lon="19.91596276871860027313232421875">
        <ele>1160.199951171875</ele>
        <time>2026-06-16T12:04:23.000Z</time>
        <extensions>
          <ns3:TrackPointExtension>
            <ns3:atemp>20.0</ns3:atemp>
          </ns3:TrackPointExtension>
        </extensions>
      </trkpt>
      <trkpt lat="42.62100976891815662384033203125" lon="19.9159757606685161590576171875">
        <ele>1160</ele>
        <time>2026-06-16T12:04:24.000Z</time>
        <extensions>
          <ns3:TrackPointExtension>
            <ns3:atemp>20.0</ns3:atemp>
          </ns3:TrackPointExtension>
        </extensions>
      </trkpt>
      <trkpt lat="42.621015720069408416748046875" lon="19.91597970016300678253173828125">
        <ele>1160</ele>
        <time>2026-06-16T12:04:25.000Z</time>
        <extensions>
          <ns3:TrackPointExtension>
            <ns3:atemp>20.0</ns3:atemp>
          </ns3:TrackPointExtension>
        </extensions>
      </trkpt>
      <trkpt lat="42.6210175640881061553955078125" lon="19.91598707623779773712158203125">
        <ele>1160.199951171875</ele>
        <time>2026-06-16T12:04:26.000Z</time>
        <extensions>
          <ns3:TrackPointExtension>
            <ns3:atemp>20.0</ns3:atemp>
          </ns3:TrackPointExtension>
        </extensions>
      </trkpt>
      <trkpt lat="42.62102217413485050201416015625" lon="19.9159920215606689453125">
        <ele>1160.199951171875</ele>
        <time>2026-06-16T12:04:27.000Z</time>
        <extensions>
          <ns3:TrackPointExtension>
            <ns3:atemp>20.0</ns3:atemp>
          </ns3:TrackPointExtension>
        </extensions>
      </trkpt>
      <trkpt lat="42.62102217413485050201416015625" lon="19.9159920215606689453125">
        <ele>1160.199951171875</ele>
        <time>2026-06-16T12:04:28.000Z</time>
        <extensions>
          <ns3:TrackPointExtension>
            <ns3:atemp>20.0</ns3:atemp>
          </ns3:TrackPointExtension>
        </extensions>
      </trkpt>
      <trkpt lat="42.62102217413485050201416015625" lon="19.9159920215606689453125">
        <ele>1160.199951171875</ele>
        <time>2026-06-16T12:04:29.000Z</time>
        <extensions>
          <ns3:TrackPointExtension>
            <ns3:atemp>20.0</ns3:atemp>
          </ns3:TrackPointExtension>
        </extensions>
      </trkpt>
      <trkpt lat="42.62102217413485050201416015625" lon="19.9159920215606689453125">
        <ele>1160.199951171875</ele>
        <time>2026-06-16T12:04:30.000Z</time>
        <extensions>
          <ns3:TrackPointExtension>
            <ns3:atemp>20.0</ns3:atemp>
          </ns3:TrackPointExtension>
        </extensions>
      </trkpt>
      <trkpt lat="42.62102217413485050201416015625" lon="19.9159920215606689453125">
        <ele>1160.199951171875</ele>
        <time>2026-06-16T12:04:31.000Z</time>
        <extensions>
          <ns3:TrackPointExtension>
            <ns3:atemp>20.0</ns3:atemp>
          </ns3:TrackPointExtension>
        </extensions>
      </trkpt>
      <trkpt lat="42.62102217413485050201416015625" lon="19.9159920215606689453125">
        <ele>1160.4000244140625</ele>
        <time>2026-06-16T12:04:32.000Z</time>
        <extensions>
          <ns3:TrackPointExtension>
            <ns3:atemp>20.0</ns3:atemp>
          </ns3:TrackPointExtension>
        </extensions>
      </trkpt>
      <trkpt lat="42.62102217413485050201416015625" lon="19.9159920215606689453125">
        <ele>1160.4000244140625</ele>
        <time>2026-06-16T12:04:33.000Z</time>
        <extensions>
          <ns3:TrackPointExtension>
            <ns3:atemp>20.0</ns3:atemp>
          </ns3:TrackPointExtension>
        </extensions>
      </trkpt>
      <trkpt lat="42.62102217413485050201416015625" lon="19.9159920215606689453125">
        <ele>1160.4000244140625</ele>
        <time>2026-06-16T12:04:34.000Z</time>
        <extensions>
          <ns3:TrackPointExtension>
            <ns3:atemp>20.0</ns3:atemp>
          </ns3:TrackPointExtension>
        </extensions>
      </trkpt>
      <trkpt lat="42.62102217413485050201416015625" lon="19.9159920215606689453125">
        <ele>1160.4000244140625</ele>
        <time>2026-06-16T12:04:35.000Z</time>
        <extensions>
          <ns3:TrackPointExtension>
            <ns3:atemp>20.0</ns3:atemp>
          </ns3:TrackPointExtension>
        </extensions>
      </trkpt>
      <trkpt lat="42.62102217413485050201416015625" lon="19.9159920215606689453125">
        <ele>1160.4000244140625</ele>
        <time>2026-06-16T12:04:36.000Z</time>
        <extensions>
          <ns3:TrackPointExtension>
            <ns3:atemp>20.0</ns3:atemp>
          </ns3:TrackPointExtension>
        </extensions>
      </trkpt>
      <trkpt lat="42.62102217413485050201416015625" lon="19.9159920215606689453125">
        <ele>1160.4000244140625</ele>
        <time>2026-06-16T12:04:37.000Z</time>
        <extensions>
          <ns3:TrackPointExtension>
            <ns3:atemp>20.0</ns3:atemp>
          </ns3:TrackPointExtension>
        </extensions>
      </trkpt>
      <trkpt lat="42.62102217413485050201416015625" lon="19.9159920215606689453125">
        <ele>1160.4000244140625</ele>
        <time>2026-06-16T12:04:38.000Z</time>
        <extensions>
          <ns3:TrackPointExtension>
            <ns3:atemp>20.0</ns3:atemp>
          </ns3:TrackPointExtension>
        </extensions>
      </trkpt>
      <trkpt lat="42.62102217413485050201416015625" lon="19.9159920215606689453125">
        <ele>1160.4000244140625</ele>
        <time>2026-06-16T12:04:39.000Z</time>
        <extensions>
          <ns3:TrackPointExtension>
            <ns3:atemp>20.0</ns3:atemp>
          </ns3:TrackPointExtension>
        </extensions>
      </trkpt>
      <trkpt lat="42.62102217413485050201416015625" lon="19.9159920215606689453125">
        <ele>1160.4000244140625</ele>
        <time>2026-06-16T12:04:40.000Z</time>
        <extensions>
          <ns3:TrackPointExtension>
            <ns3:atemp>20.0</ns3:atemp>
          </ns3:TrackPointExtension>
        </extensions>
      </trkpt>
      <trkpt lat="42.62102217413485050201416015625" lon="19.9159920215606689453125">
        <ele>1160.4000244140625</ele>
        <time>2026-06-16T12:04:41.000Z</time>
        <extensions>
          <ns3:TrackPointExtension>
            <ns3:atemp>20.0</ns3:atemp>
          </ns3:TrackPointExtension>
        </extensions>
      </trkpt>
      <trkpt lat="42.62102217413485050201416015625" lon="19.9159920215606689453125">
        <ele>1160.4000244140625</ele>
        <time>2026-06-16T12:04:42.000Z</time>
        <extensions>
          <ns3:TrackPointExtension>
            <ns3:atemp>20.0</ns3:atemp>
          </ns3:TrackPointExtension>
        </extensions>
      </trkpt>
      <trkpt lat="42.62102401815354824066162109375" lon="19.9159911833703517913818359375">
        <ele>1160.4000244140625</ele>
        <time>2026-06-16T12:04:43.000Z</time>
        <extensions>
          <ns3:TrackPointExtension>
            <ns3:atemp>20.0</ns3:atemp>
          </ns3:TrackPointExtension>
        </extensions>
      </trkpt>
      <trkpt lat="42.62102217413485050201416015625" lon="19.9159920215606689453125">
        <ele>1160.4000244140625</ele>
        <time>2026-06-16T12:04:44.000Z</time>
        <extensions>
          <ns3:TrackPointExtension>
            <ns3:atemp>20.0</ns3:atemp>
          </ns3:TrackPointExtension>
        </extensions>
      </trkpt>
      <trkpt lat="42.62102217413485050201416015625" lon="19.9159920215606689453125">
        <ele>1160.4000244140625</ele>
        <time>2026-06-16T12:04:45.000Z</time>
        <extensions>
          <ns3:TrackPointExtension>
            <ns3:atemp>20.0</ns3:atemp>
          </ns3:TrackPointExtension>
        </extensions>
      </trkpt>
      <trkpt lat="42.62102217413485050201416015625" lon="19.9159920215606689453125">
        <ele>1160.4000244140625</ele>
        <time>2026-06-16T12:04:46.000Z</time>
        <extensions>
          <ns3:TrackPointExtension>
            <ns3:atemp>20.0</ns3:atemp>
          </ns3:TrackPointExtension>
        </extensions>
      </trkpt>
      <trkpt lat="42.62102854438126087188720703125" lon="19.91599042899906635284423828125">
        <ele>1160.4000244140625</ele>
        <time>2026-06-16T12:04:47.000Z</time>
        <extensions>
          <ns3:TrackPointExtension>
            <ns3:atemp>20.0</ns3:atemp>
          </ns3:TrackPointExtension>
        </extensions>
      </trkpt>
      <trkpt lat="42.6210406981408596038818359375" lon="19.91598037071526050567626953125">
        <ele>1160.4000244140625</ele>
        <time>2026-06-16T12:04:48.000Z</time>
        <extensions>
          <ns3:TrackPointExtension>
            <ns3:atemp>20.0</ns3:atemp>
          </ns3:TrackPointExtension>
        </extensions>
      </trkpt>
      <trkpt lat="42.6210490800440311431884765625" lon="19.9159640260040760040283203125">
        <ele>1160.4000244140625</ele>
        <time>2026-06-16T12:04:49.000Z</time>
        <extensions>
          <ns3:TrackPointExtension>
            <ns3:atemp>20.0</ns3:atemp>
          </ns3:TrackPointExtension>
        </extensions>
      </trkpt>
      <trkpt lat="42.62105687521398067474365234375" lon="19.91594499908387660980224609375">
        <ele>1160.5999755859375</ele>
        <time>2026-06-16T12:04:50.000Z</time>
        <extensions>
          <ns3:TrackPointExtension>
            <ns3:atemp>20.0</ns3:atemp>
          </ns3:TrackPointExtension>
        </extensions>
      </trkpt>
      <trkpt lat="42.6210668496787548065185546875" lon="19.91592538543045520782470703125">
        <ele>1160.5999755859375</ele>
        <time>2026-06-16T12:04:51.000Z</time>
        <extensions>
          <ns3:TrackPointExtension>
            <ns3:atemp>20.0</ns3:atemp>
          </ns3:TrackPointExtension>
        </extensions>
      </trkpt>
      <trkpt lat="42.62108302675187587738037109375" lon="19.9159073643386363983154296875">
        <ele>1161</ele>
        <time>2026-06-16T12:04:52.000Z</time>
        <extensions>
          <ns3:TrackPointExtension>
            <ns3:atemp>20.0</ns3:atemp>
          </ns3:TrackPointExtension>
        </extensions>
      </trkpt>
      <trkpt lat="42.621101550757884979248046875" lon="19.91589604876935482025146484375">
        <ele>1161.199951171875</ele>
        <time>2026-06-16T12:04:53.000Z</time>
        <extensions>
          <ns3:TrackPointExtension>
            <ns3:atemp>20.0</ns3:atemp>
          </ns3:TrackPointExtension>
        </extensions>
      </trkpt>
      <trkpt lat="42.6211214996874332427978515625" lon="19.91588942706584930419921875">
        <ele>1161.4000244140625</ele>
        <time>2026-06-16T12:04:54.000Z</time>
        <extensions>
          <ns3:TrackPointExtension>
            <ns3:atemp>20.0</ns3:atemp>
          </ns3:TrackPointExtension>
        </extensions>
      </trkpt>
      <trkpt lat="42.62113868258893489837646484375" lon="19.91587869822978973388671875">
        <ele>1161.800048828125</ele>
        <time>2026-06-16T12:04:55.000Z</time>
        <extensions>
          <ns3:TrackPointExtension>
            <ns3:atemp>20.0</ns3:atemp>
          </ns3:TrackPointExtension>
        </extensions>
      </trkpt>
      <trkpt lat="42.62115209363400936126708984375" lon="19.91586151532828807830810546875">
        <ele>1162.199951171875</ele>
        <time>2026-06-16T12:04:56.000Z</time>
        <extensions>
          <ns3:TrackPointExtension>
            <ns3:atemp>20.0</ns3:atemp>
          </ns3:TrackPointExtension>
        </extensions>
      </trkpt>
      <trkpt lat="42.6211627386510372161865234375" lon="19.9158436618745326995849609375">
        <ele>1162.5999755859375</ele>
        <time>2026-06-16T12:04:57.000Z</time>
        <extensions>
          <ns3:TrackPointExtension>
            <ns3:atemp>20.0</ns3:atemp>
          </ns3:TrackPointExtension>
        </extensions>
      </trkpt>
      <trkpt lat="42.62117204256355762481689453125" lon="19.915823377668857574462890625">
        <ele>1163</ele>
        <time>2026-06-16T12:04:58.000Z</time>
        <extensions>
          <ns3:TrackPointExtension>
            <ns3:atemp>20.0</ns3:atemp>
          </ns3:TrackPointExtension>
        </extensions>
      </trkpt>
      <trkpt lat="42.6211798377335071563720703125" lon="19.915805272758007049560546875">
        <ele>1163.199951171875</ele>
        <time>2026-06-16T12:04:59.000Z</time>
        <extensions>
          <ns3:TrackPointExtension>
            <ns3:atemp>20.0</ns3:atemp>
          </ns3:TrackPointExtension>
        </extensions>
      </trkpt>
      <trkpt lat="42.6211848668754100799560546875" lon="19.91578842513263225555419921875">
        <ele>1163.5999755859375</ele>
        <time>2026-06-16T12:05:00.000Z</time>
        <extensions>
          <ns3:TrackPointExtension>
            <ns3:atemp>20.0</ns3:atemp>
          </ns3:TrackPointExtension>
        </extensions>
      </trkpt>
      <trkpt lat="42.6211925782263278961181640625" lon="19.9157702364027500152587890625">
        <ele>1164</ele>
        <time>2026-06-16T12:05:01.000Z</time>
        <extensions>
          <ns3:TrackPointExtension>
            <ns3:atemp>20.0</ns3:atemp>
          </ns3:TrackPointExtension>
        </extensions>
      </trkpt>
      <trkpt lat="42.62120154686272144317626953125" lon="19.91574852727353572845458984375">
        <ele>1164.4000244140625</ele>
        <time>2026-06-16T12:05:02.000Z</time>
        <extensions>
          <ns3:TrackPointExtension>
            <ns3:atemp>20.0</ns3:atemp>
          </ns3:TrackPointExtension>
        </extensions>
      </trkpt>
      <trkpt lat="42.62121026404201984405517578125" lon="19.91572572849690914154052734375">
        <ele>1164.5999755859375</ele>
        <time>2026-06-16T12:05:03.000Z</time>
        <extensions>
          <ns3:TrackPointExtension>
            <ns3:atemp>20.0</ns3:atemp>
          </ns3:TrackPointExtension>
        </extensions>
      </trkpt>
      <trkpt lat="42.62121076695621013641357421875" lon="19.91571097634732723236083984375">
        <ele>1165</ele>
        <time>2026-06-16T12:05:04.000Z</time>
        <extensions>
          <ns3:TrackPointExtension>
            <ns3:atemp>20.0</ns3:atemp>
          </ns3:TrackPointExtension>
        </extensions>
      </trkpt>
      <trkpt lat="42.62120322324335575103759765625" lon="19.91569253616034984588623046875">
        <ele>1165.199951171875</ele>
        <time>2026-06-16T12:05:05.000Z</time>
        <extensions>
          <ns3:TrackPointExtension>
            <ns3:atemp>20.0</ns3:atemp>
          </ns3:TrackPointExtension>
        </extensions>
      </trkpt>
      <trkpt lat="42.621193416416645050048828125" lon="19.915674515068531036376953125">
        <ele>1165.4000244140625</ele>
        <time>2026-06-16T12:05:06.000Z</time>
        <extensions>
          <ns3:TrackPointExtension>
            <ns3:atemp>20.0</ns3:atemp>
          </ns3:TrackPointExtension>
        </extensions>
      </trkpt>
      <trkpt lat="42.6211922429502010345458984375" lon="19.915667474269866943359375">
        <ele>1165.4000244140625</ele>
        <time>2026-06-16T12:05:07.000Z</time>
        <extensions>
          <ns3:TrackPointExtension>
            <ns3:atemp>20.0</ns3:atemp>
          </ns3:TrackPointExtension>
        </extensions>
      </trkpt>
      <trkpt lat="42.6211922429502010345458984375" lon="19.915667474269866943359375">
        <ele>1165.5999755859375</ele>
        <time>2026-06-16T12:05:08.000Z</time>
        <extensions>
          <ns3:TrackPointExtension>
            <ns3:atemp>20.0</ns3:atemp>
          </ns3:TrackPointExtension>
        </extensions>
      </trkpt>
      <trkpt lat="42.6211922429502010345458984375" lon="19.915667474269866943359375">
        <ele>1165.5999755859375</ele>
        <time>2026-06-16T12:05:09.000Z</time>
        <extensions>
          <ns3:TrackPointExtension>
            <ns3:atemp>20.0</ns3:atemp>
          </ns3:TrackPointExtension>
        </extensions>
      </trkpt>
      <trkpt lat="42.6211922429502010345458984375" lon="19.915667474269866943359375">
        <ele>1165.5999755859375</ele>
        <time>2026-06-16T12:05:10.000Z</time>
        <extensions>
          <ns3:TrackPointExtension>
            <ns3:atemp>20.0</ns3:atemp>
          </ns3:TrackPointExtension>
        </extensions>
      </trkpt>
      <trkpt lat="42.6211922429502010345458984375" lon="19.915667474269866943359375">
        <ele>1165.5999755859375</ele>
        <time>2026-06-16T12:05:11.000Z</time>
        <extensions>
          <ns3:TrackPointExtension>
            <ns3:atemp>20.0</ns3:atemp>
          </ns3:TrackPointExtension>
        </extensions>
      </trkpt>
      <trkpt lat="42.6211922429502010345458984375" lon="19.915667474269866943359375">
        <ele>1165.5999755859375</ele>
        <time>2026-06-16T12:05:12.000Z</time>
        <extensions>
          <ns3:TrackPointExtension>
            <ns3:atemp>20.0</ns3:atemp>
          </ns3:TrackPointExtension>
        </extensions>
      </trkpt>
      <trkpt lat="42.6211922429502010345458984375" lon="19.915667474269866943359375">
        <ele>1165.5999755859375</ele>
        <time>2026-06-16T12:05:13.000Z</time>
        <extensions>
          <ns3:TrackPointExtension>
            <ns3:atemp>20.0</ns3:atemp>
          </ns3:TrackPointExtension>
        </extensions>
      </trkpt>
      <trkpt lat="42.6211922429502010345458984375" lon="19.915667474269866943359375">
        <ele>1165.4000244140625</ele>
        <time>2026-06-16T12:05:14.000Z</time>
        <extensions>
          <ns3:TrackPointExtension>
            <ns3:atemp>20.0</ns3:atemp>
          </ns3:TrackPointExtension>
        </extensions>
      </trkpt>
      <trkpt lat="42.6211922429502010345458984375" lon="19.915667474269866943359375">
        <ele>1165.4000244140625</ele>
        <time>2026-06-16T12:05:15.000Z</time>
        <extensions>
          <ns3:TrackPointExtension>
            <ns3:atemp>20.0</ns3:atemp>
          </ns3:TrackPointExtension>
        </extensions>
      </trkpt>
      <trkpt lat="42.6211922429502010345458984375" lon="19.915667474269866943359375">
        <ele>1165.4000244140625</ele>
        <time>2026-06-16T12:05:16.000Z</time>
        <extensions>
          <ns3:TrackPointExtension>
            <ns3:atemp>20.0</ns3:atemp>
          </ns3:TrackPointExtension>
        </extensions>
      </trkpt>
      <trkpt lat="42.6211922429502010345458984375" lon="19.915667474269866943359375">
        <ele>1165.4000244140625</ele>
        <time>2026-06-16T12:05:17.000Z</time>
        <extensions>
          <ns3:TrackPointExtension>
            <ns3:atemp>20.0</ns3:atemp>
          </ns3:TrackPointExtension>
        </extensions>
      </trkpt>
      <trkpt lat="42.6211922429502010345458984375" lon="19.915667474269866943359375">
        <ele>1165.199951171875</ele>
        <time>2026-06-16T12:05:18.000Z</time>
        <extensions>
          <ns3:TrackPointExtension>
            <ns3:atemp>20.0</ns3:atemp>
          </ns3:TrackPointExtension>
        </extensions>
      </trkpt>
      <trkpt lat="42.6211922429502010345458984375" lon="19.915667474269866943359375">
        <ele>1165.199951171875</ele>
        <time>2026-06-16T12:05:19.000Z</time>
        <extensions>
          <ns3:TrackPointExtension>
            <ns3:atemp>20.0</ns3:atemp>
          </ns3:TrackPointExtension>
        </extensions>
      </trkpt>
      <trkpt lat="42.6211922429502010345458984375" lon="19.915667474269866943359375">
        <ele>1165.199951171875</ele>
        <time>2026-06-16T12:05:20.000Z</time>
        <extensions>
          <ns3:TrackPointExtension>
            <ns3:atemp>20.0</ns3:atemp>
          </ns3:TrackPointExtension>
        </extensions>
      </trkpt>
      <trkpt lat="42.6211922429502010345458984375" lon="19.915667474269866943359375">
        <ele>1165.199951171875</ele>
        <time>2026-06-16T12:05:21.000Z</time>
        <extensions>
          <ns3:TrackPointExtension>
            <ns3:atemp>20.0</ns3:atemp>
          </ns3:TrackPointExtension>
        </extensions>
      </trkpt>
      <trkpt lat="42.6211922429502010345458984375" lon="19.915667474269866943359375">
        <ele>1165</ele>
        <time>2026-06-16T12:05:22.000Z</time>
        <extensions>
          <ns3:TrackPointExtension>
            <ns3:atemp>20.0</ns3:atemp>
          </ns3:TrackPointExtension>
        </extensions>
      </trkpt>
      <trkpt lat="42.6211922429502010345458984375" lon="19.915667474269866943359375">
        <ele>1165</ele>
        <time>2026-06-16T12:05:23.000Z</time>
        <extensions>
          <ns3:TrackPointExtension>
            <ns3:atemp>20.0</ns3:atemp>
          </ns3:TrackPointExtension>
        </extensions>
      </trkpt>
      <trkpt lat="42.621194757521152496337890625" lon="19.91566303186118602752685546875">
        <ele>1165</ele>
        <time>2026-06-16T12:05:24.000Z</time>
        <extensions>
          <ns3:TrackPointExtension>
            <ns3:atemp>20.0</ns3:atemp>
          </ns3:TrackPointExtension>
        </extensions>
      </trkpt>
      <trkpt lat="42.6211831904947757720947265625" lon="19.9156740121543407440185546875">
        <ele>1165</ele>
        <time>2026-06-16T12:05:25.000Z</time>
        <extensions>
          <ns3:TrackPointExtension>
            <ns3:atemp>20.0</ns3:atemp>
          </ns3:TrackPointExtension>
        </extensions>
      </trkpt>
      <trkpt lat="42.62116433121263980865478515625" lon="19.91568868048489093780517578125">
        <ele>1164.800048828125</ele>
        <time>2026-06-16T12:05:26.000Z</time>
        <extensions>
          <ns3:TrackPointExtension>
            <ns3:atemp>20.0</ns3:atemp>
          </ns3:TrackPointExtension>
        </extensions>
      </trkpt>
      <trkpt lat="42.62113247998058795928955078125" lon="19.9157196097075939178466796875">
        <ele>1164.5999755859375</ele>
        <time>2026-06-16T12:05:27.000Z</time>
        <extensions>
          <ns3:TrackPointExtension>
            <ns3:atemp>20.0</ns3:atemp>
          </ns3:TrackPointExtension>
        </extensions>
      </trkpt>
      <trkpt lat="42.62111286632716655731201171875" lon="19.91576202213764190673828125">
        <ele>1164.199951171875</ele>
        <time>2026-06-16T12:05:28.000Z</time>
        <extensions>
          <ns3:TrackPointExtension>
            <ns3:atemp>20.0</ns3:atemp>
          </ns3:TrackPointExtension>
        </extensions>
      </trkpt>
      <trkpt lat="42.6211077533662319183349609375" lon="19.91581709124147891998291015625">
        <ele>1163.5999755859375</ele>
        <time>2026-06-16T12:05:29.000Z</time>
        <extensions>
          <ns3:TrackPointExtension>
            <ns3:atemp>20.0</ns3:atemp>
          </ns3:TrackPointExtension>
        </extensions>
      </trkpt>
      <trkpt lat="42.62109526433050632476806640625" lon="19.9158701486885547637939453125">
        <ele>1163.199951171875</ele>
        <time>2026-06-16T12:05:30.000Z</time>
        <extensions>
          <ns3:TrackPointExtension>
            <ns3:atemp>20.0</ns3:atemp>
          </ns3:TrackPointExtension>
        </extensions>
      </trkpt>
      <trkpt lat="42.6210688613355159759521484375" lon="19.9159063585102558135986328125">
        <ele>1162.4000244140625</ele>
        <time>2026-06-16T12:05:31.000Z</time>
        <extensions>
          <ns3:TrackPointExtension>
            <ns3:atemp>20.0</ns3:atemp>
          </ns3:TrackPointExtension>
        </extensions>
      </trkpt>
      <trkpt lat="42.62104363180696964263916015625" lon="19.9159425683319568634033203125">
        <ele>1161.800048828125</ele>
        <time>2026-06-16T12:05:32.000Z</time>
        <extensions>
          <ns3:TrackPointExtension>
            <ns3:atemp>20.0</ns3:atemp>
          </ns3:TrackPointExtension>
        </extensions>
      </trkpt>
      <trkpt lat="42.6210375130176544189453125" lon="19.91597819142043590545654296875">
        <ele>1161.199951171875</ele>
        <time>2026-06-16T12:05:33.000Z</time>
        <extensions>
          <ns3:TrackPointExtension>
            <ns3:atemp>20.0</ns3:atemp>
          </ns3:TrackPointExtension>
        </extensions>
      </trkpt>
      <trkpt lat="42.62103575281798839569091796875" lon="19.9159824661910533905029296875">
        <ele>1160.5999755859375</ele>
        <time>2026-06-16T12:05:34.000Z</time>
        <extensions>
          <ns3:TrackPointExtension>
            <ns3:atemp>20.0</ns3:atemp>
          </ns3:TrackPointExtension>
        </extensions>
      </trkpt>
      <trkpt lat="42.6210356689989566802978515625" lon="19.91598255001008510589599609375">
        <ele>1160.199951171875</ele>
        <time>2026-06-16T12:05:35.000Z</time>
        <extensions>
          <ns3:TrackPointExtension>
            <ns3:atemp>20.0</ns3:atemp>
          </ns3:TrackPointExtension>
        </extensions>
      </trkpt>
      <trkpt lat="42.6210356689989566802978515625" lon="19.91598255001008510589599609375">
        <ele>1159.800048828125</ele>
        <time>2026-06-16T12:05:36.000Z</time>
        <extensions>
          <ns3:TrackPointExtension>
            <ns3:atemp>20.0</ns3:atemp>
          </ns3:TrackPointExtension>
        </extensions>
      </trkpt>
      <trkpt lat="42.6210356689989566802978515625" lon="19.91598255001008510589599609375">
        <ele>1159.5999755859375</ele>
        <time>2026-06-16T12:05:37.000Z</time>
        <extensions>
          <ns3:TrackPointExtension>
            <ns3:atemp>20.0</ns3:atemp>
          </ns3:TrackPointExtension>
        </extensions>
      </trkpt>
      <trkpt lat="42.6210356689989566802978515625" lon="19.91598255001008510589599609375">
        <ele>1159.4000244140625</ele>
        <time>2026-06-16T12:05:38.000Z</time>
        <extensions>
          <ns3:TrackPointExtension>
            <ns3:atemp>20.0</ns3:atemp>
          </ns3:TrackPointExtension>
        </extensions>
      </trkpt>
      <trkpt lat="42.6210356689989566802978515625" lon="19.91598255001008510589599609375">
        <ele>1159.199951171875</ele>
        <time>2026-06-16T12:05:39.000Z</time>
        <extensions>
          <ns3:TrackPointExtension>
            <ns3:atemp>20.0</ns3:atemp>
          </ns3:TrackPointExtension>
        </extensions>
      </trkpt>
      <trkpt lat="42.6210356689989566802978515625" lon="19.91598255001008510589599609375">
        <ele>1159.199951171875</ele>
        <time>2026-06-16T12:05:40.000Z</time>
        <extensions>
          <ns3:TrackPointExtension>
            <ns3:atemp>20.0</ns3:atemp>
          </ns3:TrackPointExtension>
        </extensions>
      </trkpt>
      <trkpt lat="42.6210356689989566802978515625" lon="19.91598255001008510589599609375">
        <ele>1159</ele>
        <time>2026-06-16T12:05:41.000Z</time>
        <extensions>
          <ns3:TrackPointExtension>
            <ns3:atemp>20.0</ns3:atemp>
          </ns3:TrackPointExtension>
        </extensions>
      </trkpt>
      <trkpt lat="42.6210356689989566802978515625" lon="19.91598255001008510589599609375">
        <ele>1159</ele>
        <time>2026-06-16T12:05:42.000Z</time>
        <extensions>
          <ns3:TrackPointExtension>
            <ns3:atemp>20.0</ns3:atemp>
          </ns3:TrackPointExtension>
        </extensions>
      </trkpt>
      <trkpt lat="42.6210356689989566802978515625" lon="19.91598255001008510589599609375">
        <ele>1159</ele>
        <time>2026-06-16T12:05:43.000Z</time>
        <extensions>
          <ns3:TrackPointExtension>
            <ns3:atemp>20.0</ns3:atemp>
          </ns3:TrackPointExtension>
        </extensions>
      </trkpt>
      <trkpt lat="42.6210356689989566802978515625" lon="19.91598255001008510589599609375">
        <ele>1159</ele>
        <time>2026-06-16T12:05:44.000Z</time>
        <extensions>
          <ns3:TrackPointExtension>
            <ns3:atemp>20.0</ns3:atemp>
          </ns3:TrackPointExtension>
        </extensions>
      </trkpt>
      <trkpt lat="42.6210356689989566802978515625" lon="19.91598255001008510589599609375">
        <ele>1159</ele>
        <time>2026-06-16T12:05:45.000Z</time>
        <extensions>
          <ns3:TrackPointExtension>
            <ns3:atemp>20.0</ns3:atemp>
          </ns3:TrackPointExtension>
        </extensions>
      </trkpt>
      <trkpt lat="42.6210356689989566802978515625" lon="19.91598255001008510589599609375">
        <ele>1159</ele>
        <time>2026-06-16T12:05:46.000Z</time>
        <extensions>
          <ns3:TrackPointExtension>
            <ns3:atemp>20.0</ns3:atemp>
          </ns3:TrackPointExtension>
        </extensions>
      </trkpt>
      <trkpt lat="42.6210356689989566802978515625" lon="19.91598255001008510589599609375">
        <ele>1159</ele>
        <time>2026-06-16T12:05:47.000Z</time>
        <extensions>
          <ns3:TrackPointExtension>
            <ns3:atemp>20.0</ns3:atemp>
          </ns3:TrackPointExtension>
        </extensions>
      </trkpt>
      <trkpt lat="42.6210356689989566802978515625" lon="19.91598255001008510589599609375">
        <ele>1159</ele>
        <time>2026-06-16T12:05:48.000Z</time>
        <extensions>
          <ns3:TrackPointExtension>
            <ns3:atemp>20.0</ns3:atemp>
          </ns3:TrackPointExtension>
        </extensions>
      </trkpt>
      <trkpt lat="42.6210356689989566802978515625" lon="19.91598255001008510589599609375">
        <ele>1159</ele>
        <time>2026-06-16T12:05:49.000Z</time>
        <extensions>
          <ns3:TrackPointExtension>
            <ns3:atemp>20.0</ns3:atemp>
          </ns3:TrackPointExtension>
        </extensions>
      </trkpt>
      <trkpt lat="42.6210356689989566802978515625" lon="19.91598255001008510589599609375">
        <ele>1159</ele>
        <time>2026-06-16T12:05:50.000Z</time>
        <extensions>
          <ns3:TrackPointExtension>
            <ns3:atemp>20.0</ns3:atemp>
          </ns3:TrackPointExtension>
        </extensions>
      </trkpt>
      <trkpt lat="42.6210356689989566802978515625" lon="19.91598255001008510589599609375">
        <ele>1159</ele>
        <time>2026-06-16T12:05:51.000Z</time>
        <extensions>
          <ns3:TrackPointExtension>
            <ns3:atemp>20.0</ns3:atemp>
          </ns3:TrackPointExtension>
        </extensions>
      </trkpt>
      <trkpt lat="42.6210356689989566802978515625" lon="19.91598255001008510589599609375">
        <ele>1159</ele>
        <time>2026-06-16T12:05:52.000Z</time>
        <extensions>
          <ns3:TrackPointExtension>
            <ns3:atemp>20.0</ns3:atemp>
          </ns3:TrackPointExtension>
        </extensions>
      </trkpt>
      <trkpt lat="42.6210356689989566802978515625" lon="19.91598255001008510589599609375">
        <ele>1158.800048828125</ele>
        <time>2026-06-16T12:05:53.000Z</time>
        <extensions>
          <ns3:TrackPointExtension>
            <ns3:atemp>20.0</ns3:atemp>
          </ns3:TrackPointExtension>
        </extensions>
      </trkpt>
      <trkpt lat="42.6210356689989566802978515625" lon="19.91598255001008510589599609375">
        <ele>1158.800048828125</ele>
        <time>2026-06-16T12:05:54.000Z</time>
        <extensions>
          <ns3:TrackPointExtension>
            <ns3:atemp>20.0</ns3:atemp>
          </ns3:TrackPointExtension>
        </extensions>
      </trkpt>
      <trkpt lat="42.6210356689989566802978515625" lon="19.91598255001008510589599609375">
        <ele>1158.800048828125</ele>
        <time>2026-06-16T12:05:55.000Z</time>
        <extensions>
          <ns3:TrackPointExtension>
            <ns3:atemp>20.0</ns3:atemp>
          </ns3:TrackPointExtension>
        </extensions>
      </trkpt>
      <trkpt lat="42.6210356689989566802978515625" lon="19.91598255001008510589599609375">
        <ele>1158.800048828125</ele>
        <time>2026-06-16T12:05:56.000Z</time>
        <extensions>
          <ns3:TrackPointExtension>
            <ns3:atemp>20.0</ns3:atemp>
          </ns3:TrackPointExtension>
        </extensions>
      </trkpt>
      <trkpt lat="42.6210356689989566802978515625" lon="19.91598255001008510589599609375">
        <ele>1158.800048828125</ele>
        <time>2026-06-16T12:05:57.000Z</time>
        <extensions>
          <ns3:TrackPointExtension>
            <ns3:atemp>20.0</ns3:atemp>
          </ns3:TrackPointExtension>
        </extensions>
      </trkpt>
      <trkpt lat="42.6210356689989566802978515625" lon="19.91598255001008510589599609375">
        <ele>1158.800048828125</ele>
        <time>2026-06-16T12:05:58.000Z</time>
        <extensions>
          <ns3:TrackPointExtension>
            <ns3:atemp>20.0</ns3:atemp>
          </ns3:TrackPointExtension>
        </extensions>
      </trkpt>
      <trkpt lat="42.6210356689989566802978515625" lon="19.91598255001008510589599609375">
        <ele>1158.800048828125</ele>
        <time>2026-06-16T12:05:59.000Z</time>
        <extensions>
          <ns3:TrackPointExtension>
            <ns3:atemp>20.0</ns3:atemp>
          </ns3:TrackPointExtension>
        </extensions>
      </trkpt>
      <trkpt lat="42.6210356689989566802978515625" lon="19.91598255001008510589599609375">
        <ele>1158.800048828125</ele>
        <time>2026-06-16T12:06:00.000Z</time>
        <extensions>
          <ns3:TrackPointExtension>
            <ns3:atemp>20.0</ns3:atemp>
          </ns3:TrackPointExtension>
        </extensions>
      </trkpt>
      <trkpt lat="42.6210356689989566802978515625" lon="19.91598255001008510589599609375">
        <ele>1158.800048828125</ele>
        <time>2026-06-16T12:06:01.000Z</time>
        <extensions>
          <ns3:TrackPointExtension>
            <ns3:atemp>20.0</ns3:atemp>
          </ns3:TrackPointExtension>
        </extensions>
      </trkpt>
      <trkpt lat="42.62103541754186153411865234375" lon="19.9159799516201019287109375">
        <ele>1158.800048828125</ele>
        <time>2026-06-16T12:06:02.000Z</time>
        <extensions>
          <ns3:TrackPointExtension>
            <ns3:atemp>20.0</ns3:atemp>
          </ns3:TrackPointExtension>
        </extensions>
      </trkpt>
      <trkpt lat="42.62103424407541751861572265625" lon="19.91596964187920093536376953125">
        <ele>1158.800048828125</ele>
        <time>2026-06-16T12:06:03.000Z</time>
        <extensions>
          <ns3:TrackPointExtension>
            <ns3:atemp>20.0</ns3:atemp>
          </ns3:TrackPointExtension>
        </extensions>
      </trkpt>
      <trkpt lat="42.6210356689989566802978515625" lon="19.91598255001008510589599609375">
        <ele>1158.5999755859375</ele>
        <time>2026-06-16T12:06:04.000Z</time>
        <extensions>
          <ns3:TrackPointExtension>
            <ns3:atemp>20.0</ns3:atemp>
          </ns3:TrackPointExtension>
        </extensions>
      </trkpt>
      <trkpt lat="42.6210356689989566802978515625" lon="19.91598255001008510589599609375">
        <ele>1158.5999755859375</ele>
        <time>2026-06-16T12:06:05.000Z</time>
        <extensions>
          <ns3:TrackPointExtension>
            <ns3:atemp>20.0</ns3:atemp>
          </ns3:TrackPointExtension>
        </extensions>
      </trkpt>
      <trkpt lat="42.6210356689989566802978515625" lon="19.91598255001008510589599609375">
        <ele>1158.5999755859375</ele>
        <time>2026-06-16T12:06:06.000Z</time>
        <extensions>
          <ns3:TrackPointExtension>
            <ns3:atemp>20.0</ns3:atemp>
          </ns3:TrackPointExtension>
        </extensions>
      </trkpt>
      <trkpt lat="42.6210356689989566802978515625" lon="19.91598255001008510589599609375">
        <ele>1158.4000244140625</ele>
        <time>2026-06-16T12:06:07.000Z</time>
        <extensions>
          <ns3:TrackPointExtension>
            <ns3:atemp>20.0</ns3:atemp>
          </ns3:TrackPointExtension>
        </extensions>
      </trkpt>
      <trkpt lat="42.6210356689989566802978515625" lon="19.91598255001008510589599609375">
        <ele>1158.199951171875</ele>
        <time>2026-06-16T12:06:08.000Z</time>
        <extensions>
          <ns3:TrackPointExtension>
            <ns3:atemp>20.0</ns3:atemp>
          </ns3:TrackPointExtension>
        </extensions>
      </trkpt>
      <trkpt lat="42.6210356689989566802978515625" lon="19.91598255001008510589599609375">
        <ele>1158.199951171875</ele>
        <time>2026-06-16T12:06:09.000Z</time>
        <extensions>
          <ns3:TrackPointExtension>
            <ns3:atemp>20.0</ns3:atemp>
          </ns3:TrackPointExtension>
        </extensions>
      </trkpt>
      <trkpt lat="42.6210356689989566802978515625" lon="19.91598255001008510589599609375">
        <ele>1158</ele>
        <time>2026-06-16T12:06:10.000Z</time>
        <extensions>
          <ns3:TrackPointExtension>
            <ns3:atemp>20.0</ns3:atemp>
          </ns3:TrackPointExtension>
        </extensions>
      </trkpt>
      <trkpt lat="42.6210356689989566802978515625" lon="19.91598255001008510589599609375">
        <ele>1158</ele>
        <time>2026-06-16T12:06:11.000Z</time>
        <extensions>
          <ns3:TrackPointExtension>
            <ns3:atemp>20.0</ns3:atemp>
          </ns3:TrackPointExtension>
        </extensions>
      </trkpt>
      <trkpt lat="42.6210356689989566802978515625" lon="19.91598255001008510589599609375">
        <ele>1158</ele>
        <time>2026-06-16T12:06:12.000Z</time>
        <extensions>
          <ns3:TrackPointExtension>
            <ns3:atemp>20.0</ns3:atemp>
          </ns3:TrackPointExtension>
        </extensions>
      </trkpt>
      <trkpt lat="42.6210356689989566802978515625" lon="19.91598255001008510589599609375">
        <ele>1158</ele>
        <time>2026-06-16T12:06:13.000Z</time>
        <extensions>
          <ns3:TrackPointExtension>
            <ns3:atemp>20.0</ns3:atemp>
          </ns3:TrackPointExtension>
        </extensions>
      </trkpt>
      <trkpt lat="42.6210356689989566802978515625" lon="19.91598255001008510589599609375">
        <ele>1157.800048828125</ele>
        <time>2026-06-16T12:06:14.000Z</time>
        <extensions>
          <ns3:TrackPointExtension>
            <ns3:atemp>20.0</ns3:atemp>
          </ns3:TrackPointExtension>
        </extensions>
      </trkpt>
      <trkpt lat="42.6210356689989566802978515625" lon="19.91598255001008510589599609375">
        <ele>1157.800048828125</ele>
        <time>2026-06-16T12:06:15.000Z</time>
        <extensions>
          <ns3:TrackPointExtension>
            <ns3:atemp>20.0</ns3:atemp>
          </ns3:TrackPointExtension>
        </extensions>
      </trkpt>
      <trkpt lat="42.6210356689989566802978515625" lon="19.91598255001008510589599609375">
        <ele>1157.800048828125</ele>
        <time>2026-06-16T12:06:16.000Z</time>
        <extensions>
          <ns3:TrackPointExtension>
            <ns3:atemp>20.0</ns3:atemp>
          </ns3:TrackPointExtension>
        </extensions>
      </trkpt>
      <trkpt lat="42.6210356689989566802978515625" lon="19.91598255001008510589599609375">
        <ele>1157.800048828125</ele>
        <time>2026-06-16T12:06:17.000Z</time>
        <extensions>
          <ns3:TrackPointExtension>
            <ns3:atemp>20.0</ns3:atemp>
          </ns3:TrackPointExtension>
        </extensions>
      </trkpt>
      <trkpt lat="42.6210356689989566802978515625" lon="19.91598255001008510589599609375">
        <ele>1157.800048828125</ele>
        <time>2026-06-16T12:06:18.000Z</time>
        <extensions>
          <ns3:TrackPointExtension>
            <ns3:atemp>20.0</ns3:atemp>
          </ns3:TrackPointExtension>
        </extensions>
      </trkpt>
      <trkpt lat="42.6210356689989566802978515625" lon="19.91598255001008510589599609375">
        <ele>1157.800048828125</ele>
        <time>2026-06-16T12:06:19.000Z</time>
        <extensions>
          <ns3:TrackPointExtension>
            <ns3:atemp>21.0</ns3:atemp>
          </ns3:TrackPointExtension>
        </extensions>
      </trkpt>
      <trkpt lat="42.6210356689989566802978515625" lon="19.91598255001008510589599609375">
        <ele>1157.800048828125</ele>
        <time>2026-06-16T12:06:20.000Z</time>
        <extensions>
          <ns3:TrackPointExtension>
            <ns3:atemp>21.0</ns3:atemp>
          </ns3:TrackPointExtension>
        </extensions>
      </trkpt>
      <trkpt lat="42.6210356689989566802978515625" lon="19.91598255001008510589599609375">
        <ele>1157.800048828125</ele>
        <time>2026-06-16T12:06:21.000Z</time>
        <extensions>
          <ns3:TrackPointExtension>
            <ns3:atemp>21.0</ns3:atemp>
          </ns3:TrackPointExtension>
        </extensions>
      </trkpt>
      <trkpt lat="42.6210356689989566802978515625" lon="19.91598255001008510589599609375">
        <ele>1157.800048828125</ele>
        <time>2026-06-16T12:06:22.000Z</time>
        <extensions>
          <ns3:TrackPointExtension>
            <ns3:atemp>21.0</ns3:atemp>
          </ns3:TrackPointExtension>
        </extensions>
      </trkpt>
      <trkpt lat="42.6210356689989566802978515625" lon="19.91598255001008510589599609375">
        <ele>1157.800048828125</ele>
        <time>2026-06-16T12:06:23.000Z</time>
        <extensions>
          <ns3:TrackPointExtension>
            <ns3:atemp>21.0</ns3:atemp>
          </ns3:TrackPointExtension>
        </extensions>
      </trkpt>
      <trkpt lat="42.6210356689989566802978515625" lon="19.91598255001008510589599609375">
        <ele>1157.800048828125</ele>
        <time>2026-06-16T12:06:24.000Z</time>
        <extensions>
          <ns3:TrackPointExtension>
            <ns3:atemp>21.0</ns3:atemp>
          </ns3:TrackPointExtension>
        </extensions>
      </trkpt>
      <trkpt lat="42.6210356689989566802978515625" lon="19.91598255001008510589599609375">
        <ele>1157.800048828125</ele>
        <time>2026-06-16T12:06:25.000Z</time>
        <extensions>
          <ns3:TrackPointExtension>
            <ns3:atemp>21.0</ns3:atemp>
          </ns3:TrackPointExtension>
        </extensions>
      </trkpt>
      <trkpt lat="42.6210356689989566802978515625" lon="19.91598255001008510589599609375">
        <ele>1157.800048828125</ele>
        <time>2026-06-16T12:06:26.000Z</time>
        <extensions>
          <ns3:TrackPointExtension>
            <ns3:atemp>21.0</ns3:atemp>
          </ns3:TrackPointExtension>
        </extensions>
      </trkpt>
      <trkpt lat="42.6210356689989566802978515625" lon="19.91598255001008510589599609375">
        <ele>1157.800048828125</ele>
        <time>2026-06-16T12:06:27.000Z</time>
        <extensions>
          <ns3:TrackPointExtension>
            <ns3:atemp>21.0</ns3:atemp>
          </ns3:TrackPointExtension>
        </extensions>
      </trkpt>
      <trkpt lat="42.6210356689989566802978515625" lon="19.91598255001008510589599609375">
        <ele>1157.800048828125</ele>
        <time>2026-06-16T12:06:28.000Z</time>
        <extensions>
          <ns3:TrackPointExtension>
            <ns3:atemp>21.0</ns3:atemp>
          </ns3:TrackPointExtension>
        </extensions>
      </trkpt>
      <trkpt lat="42.6210356689989566802978515625" lon="19.91598255001008510589599609375">
        <ele>1157.800048828125</ele>
        <time>2026-06-16T12:06:29.000Z</time>
        <extensions>
          <ns3:TrackPointExtension>
            <ns3:atemp>21.0</ns3:atemp>
          </ns3:TrackPointExtension>
        </extensions>
      </trkpt>
      <trkpt lat="42.6210356689989566802978515625" lon="19.91598255001008510589599609375">
        <ele>1157.5999755859375</ele>
        <time>2026-06-16T12:06:30.000Z</time>
        <extensions>
          <ns3:TrackPointExtension>
            <ns3:atemp>21.0</ns3:atemp>
          </ns3:TrackPointExtension>
        </extensions>
      </trkpt>
      <trkpt lat="42.6210356689989566802978515625" lon="19.91598255001008510589599609375">
        <ele>1157.5999755859375</ele>
        <time>2026-06-16T12:06:31.000Z</time>
        <extensions>
          <ns3:TrackPointExtension>
            <ns3:atemp>21.0</ns3:atemp>
          </ns3:TrackPointExtension>
        </extensions>
      </trkpt>
      <trkpt lat="42.6210356689989566802978515625" lon="19.91598255001008510589599609375">
        <ele>1157.5999755859375</ele>
        <time>2026-06-16T12:06:32.000Z</time>
        <extensions>
          <ns3:TrackPointExtension>
            <ns3:atemp>21.0</ns3:atemp>
          </ns3:TrackPointExtension>
        </extensions>
      </trkpt>
      <trkpt lat="42.6210356689989566802978515625" lon="19.91598255001008510589599609375">
        <ele>1157.5999755859375</ele>
        <time>2026-06-16T12:06:33.000Z</time>
        <extensions>
          <ns3:TrackPointExtension>
            <ns3:atemp>21.0</ns3:atemp>
          </ns3:TrackPointExtension>
        </extensions>
      </trkpt>
      <trkpt lat="42.6210356689989566802978515625" lon="19.91598255001008510589599609375">
        <ele>1157.5999755859375</ele>
        <time>2026-06-16T12:06:34.000Z</time>
        <extensions>
          <ns3:TrackPointExtension>
            <ns3:atemp>21.0</ns3:atemp>
          </ns3:TrackPointExtension>
        </extensions>
      </trkpt>
      <trkpt lat="42.6210356689989566802978515625" lon="19.91598255001008510589599609375">
        <ele>1157.5999755859375</ele>
        <time>2026-06-16T12:06:35.000Z</time>
        <extensions>
          <ns3:TrackPointExtension>
            <ns3:atemp>21.0</ns3:atemp>
          </ns3:TrackPointExtension>
        </extensions>
      </trkpt>
      <trkpt lat="42.6210356689989566802978515625" lon="19.91598255001008510589599609375">
        <ele>1157.5999755859375</ele>
        <time>2026-06-16T12:06:36.000Z</time>
        <extensions>
          <ns3:TrackPointExtension>
            <ns3:atemp>21.0</ns3:atemp>
          </ns3:TrackPointExtension>
        </extensions>
      </trkpt>
      <trkpt lat="42.6210356689989566802978515625" lon="19.91598255001008510589599609375">
        <ele>1157.5999755859375</ele>
        <time>2026-06-16T12:06:37.000Z</time>
        <extensions>
          <ns3:TrackPointExtension>
            <ns3:atemp>21.0</ns3:atemp>
          </ns3:TrackPointExtension>
        </extensions>
      </trkpt>
      <trkpt lat="42.6210356689989566802978515625" lon="19.91598255001008510589599609375">
        <ele>1157.5999755859375</ele>
        <time>2026-06-16T12:06:38.000Z</time>
        <extensions>
          <ns3:TrackPointExtension>
            <ns3:atemp>21.0</ns3:atemp>
          </ns3:TrackPointExtension>
        </extensions>
      </trkpt>
      <trkpt lat="42.6210356689989566802978515625" lon="19.91598255001008510589599609375">
        <ele>1157.5999755859375</ele>
        <time>2026-06-16T12:06:39.000Z</time>
        <extensions>
          <ns3:TrackPointExtension>
            <ns3:atemp>21.0</ns3:atemp>
          </ns3:TrackPointExtension>
        </extensions>
      </trkpt>
      <trkpt lat="42.621036507189273834228515625" lon="19.9159673787653446197509765625">
        <ele>1157.5999755859375</ele>
        <time>2026-06-16T12:06:40.000Z</time>
        <extensions>
          <ns3:TrackPointExtension>
            <ns3:atemp>21.0</ns3:atemp>
          </ns3:TrackPointExtension>
        </extensions>
      </trkpt>
      <trkpt lat="42.62103944085538387298583984375" lon="19.915974251925945281982421875">
        <ele>1157.5999755859375</ele>
        <time>2026-06-16T12:06:41.000Z</time>
        <extensions>
          <ns3:TrackPointExtension>
            <ns3:atemp>21.0</ns3:atemp>
          </ns3:TrackPointExtension>
        </extensions>
      </trkpt>
      <trkpt lat="42.62104748748242855072021484375" lon="19.91598841734230518341064453125">
        <ele>1157.5999755859375</ele>
        <time>2026-06-16T12:06:42.000Z</time>
        <extensions>
          <ns3:TrackPointExtension>
            <ns3:atemp>21.0</ns3:atemp>
          </ns3:TrackPointExtension>
        </extensions>
      </trkpt>
      <trkpt lat="42.62104799039661884307861328125" lon="19.91601255722343921661376953125">
        <ele>1157.5999755859375</ele>
        <time>2026-06-16T12:06:43.000Z</time>
        <extensions>
          <ns3:TrackPointExtension>
            <ns3:atemp>21.0</ns3:atemp>
          </ns3:TrackPointExtension>
        </extensions>
      </trkpt>
      <trkpt lat="42.621031813323497772216796875" lon="19.91604390554130077362060546875">
        <ele>1157.5999755859375</ele>
        <time>2026-06-16T12:06:44.000Z</time>
        <extensions>
          <ns3:TrackPointExtension>
            <ns3:atemp>21.0</ns3:atemp>
          </ns3:TrackPointExtension>
        </extensions>
      </trkpt>
      <trkpt lat="42.62101312167942523956298828125" lon="19.9160830490291118621826171875">
        <ele>1157.199951171875</ele>
        <time>2026-06-16T12:06:45.000Z</time>
        <extensions>
          <ns3:TrackPointExtension>
            <ns3:atemp>21.0</ns3:atemp>
          </ns3:TrackPointExtension>
        </extensions>
      </trkpt>
      <trkpt lat="42.621007002890110015869140625" lon="19.91612420417368412017822265625">
        <ele>1156.800048828125</ele>
        <time>2026-06-16T12:06:46.000Z</time>
        <extensions>
          <ns3:TrackPointExtension>
            <ns3:atemp>21.0</ns3:atemp>
          </ns3:TrackPointExtension>
        </extensions>
      </trkpt>
      <trkpt lat="42.6210148818790912628173828125" lon="19.91616896353662014007568359375">
        <ele>1156.199951171875</ele>
        <time>2026-06-16T12:06:47.000Z</time>
        <extensions>
          <ns3:TrackPointExtension>
            <ns3:atemp>21.0</ns3:atemp>
          </ns3:TrackPointExtension>
        </extensions>
      </trkpt>
      <trkpt lat="42.6210306398570537567138671875" lon="19.91621623747050762176513671875">
        <ele>1155</ele>
        <time>2026-06-16T12:06:48.000Z</time>
        <extensions>
          <ns3:TrackPointExtension>
            <ns3:atemp>21.0</ns3:atemp>
          </ns3:TrackPointExtension>
        </extensions>
      </trkpt>
      <trkpt lat="42.62105335481464862823486328125" lon="19.91627323441207408905029296875">
        <ele>1154.199951171875</ele>
        <time>2026-06-16T12:06:49.000Z</time>
        <extensions>
          <ns3:TrackPointExtension>
            <ns3:atemp>21.0</ns3:atemp>
          </ns3:TrackPointExtension>
        </extensions>
      </trkpt>
      <trkpt lat="42.62108453549444675445556640625" lon="19.916322268545627593994140625">
        <ele>1153.4000244140625</ele>
        <time>2026-06-16T12:06:50.000Z</time>
        <extensions>
          <ns3:TrackPointExtension>
            <ns3:atemp>21.0</ns3:atemp>
          </ns3:TrackPointExtension>
        </extensions>
      </trkpt>
      <trkpt lat="42.62111169286072254180908203125" lon="19.9163489229977130889892578125">
        <ele>1152.4000244140625</ele>
        <time>2026-06-16T12:06:51.000Z</time>
        <extensions>
          <ns3:TrackPointExtension>
            <ns3:atemp>21.0</ns3:atemp>
          </ns3:TrackPointExtension>
        </extensions>
      </trkpt>
      <trkpt lat="42.6211355812847614288330078125" lon="19.9163663573563098907470703125">
        <ele>1151.4000244140625</ele>
        <time>2026-06-16T12:06:52.000Z</time>
        <extensions>
          <ns3:TrackPointExtension>
            <ns3:atemp>21.0</ns3:atemp>
          </ns3:TrackPointExtension>
        </extensions>
      </trkpt>
      <trkpt lat="42.62114287354052066802978515625" lon="19.91639661602675914764404296875">
        <ele>1150.800048828125</ele>
        <time>2026-06-16T12:06:53.000Z</time>
        <extensions>
          <ns3:TrackPointExtension>
            <ns3:atemp>21.0</ns3:atemp>
          </ns3:TrackPointExtension>
        </extensions>
      </trkpt>
      <trkpt lat="42.62114052660763263702392578125" lon="19.9164233542978763580322265625">
        <ele>1149.800048828125</ele>
        <time>2026-06-16T12:06:54.000Z</time>
        <extensions>
          <ns3:TrackPointExtension>
            <ns3:atemp>21.0</ns3:atemp>
          </ns3:TrackPointExtension>
        </extensions>
      </trkpt>
      <trkpt lat="42.6211396045982837677001953125" lon="19.916450344026088714599609375">
        <ele>1149.199951171875</ele>
        <time>2026-06-16T12:06:55.000Z</time>
        <extensions>
          <ns3:TrackPointExtension>
            <ns3:atemp>21.0</ns3:atemp>
          </ns3:TrackPointExtension>
        </extensions>
      </trkpt>
      <trkpt lat="42.62115092016756534576416015625" lon="19.9164746515452861785888671875">
        <ele>1148.4000244140625</ele>
        <time>2026-06-16T12:06:56.000Z</time>
        <extensions>
          <ns3:TrackPointExtension>
            <ns3:atemp>21.0</ns3:atemp>
          </ns3:TrackPointExtension>
        </extensions>
      </trkpt>
      <trkpt lat="42.62117631733417510986328125" lon="19.9164964444935321807861328125">
        <ele>1147.800048828125</ele>
        <time>2026-06-16T12:06:57.000Z</time>
        <extensions>
          <ns3:TrackPointExtension>
            <ns3:atemp>21.0</ns3:atemp>
          </ns3:TrackPointExtension>
        </extensions>
      </trkpt>
      <trkpt lat="42.62120976112782955169677734375" lon="19.91652536205947399139404296875">
        <ele>1146.800048828125</ele>
        <time>2026-06-16T12:06:58.000Z</time>
        <extensions>
          <ns3:TrackPointExtension>
            <ns3:atemp>21.0</ns3:atemp>
          </ns3:TrackPointExtension>
        </extensions>
      </trkpt>
      <trkpt lat="42.62123641557991504669189453125" lon="19.91656207479536533355712890625">
        <ele>1146</ele>
        <time>2026-06-16T12:06:59.000Z</time>
        <extensions>
          <ns3:TrackPointExtension>
            <ns3:atemp>21.0</ns3:atemp>
          </ns3:TrackPointExtension>
        </extensions>
      </trkpt>
      <trkpt lat="42.62124513275921344757080078125" lon="19.91659308783710002899169921875">
        <ele>1144.800048828125</ele>
        <time>2026-06-16T12:07:00.000Z</time>
        <extensions>
          <ns3:TrackPointExtension>
            <ns3:atemp>21.0</ns3:atemp>
          </ns3:TrackPointExtension>
        </extensions>
      </trkpt>
      <trkpt lat="42.621238343417644500732421875" lon="19.9166248552501201629638671875">
        <ele>1144</ele>
        <time>2026-06-16T12:07:01.000Z</time>
        <extensions>
          <ns3:TrackPointExtension>
            <ns3:atemp>21.0</ns3:atemp>
          </ns3:TrackPointExtension>
        </extensions>
      </trkpt>
      <trkpt lat="42.6212237589061260223388671875" lon="19.91665511392056941986083984375">
        <ele>1143</ele>
        <time>2026-06-16T12:07:02.000Z</time>
        <extensions>
          <ns3:TrackPointExtension>
            <ns3:atemp>21.0</ns3:atemp>
          </ns3:TrackPointExtension>
        </extensions>
      </trkpt>
      <trkpt lat="42.62120179831981658935546875" lon="19.916681014001369476318359375">
        <ele>1142</ele>
        <time>2026-06-16T12:07:03.000Z</time>
        <extensions>
          <ns3:TrackPointExtension>
            <ns3:atemp>21.0</ns3:atemp>
          </ns3:TrackPointExtension>
        </extensions>
      </trkpt>
      <trkpt lat="42.62118813581764698028564453125" lon="19.91671831347048282623291015625">
        <ele>1141.199951171875</ele>
        <time>2026-06-16T12:07:04.000Z</time>
        <extensions>
          <ns3:TrackPointExtension>
            <ns3:atemp>21.0</ns3:atemp>
          </ns3:TrackPointExtension>
        </extensions>
      </trkpt>
      <trkpt lat="42.62117874808609485626220703125" lon="19.91675619967281818389892578125">
        <ele>1140.199951171875</ele>
        <time>2026-06-16T12:07:05.000Z</time>
        <extensions>
          <ns3:TrackPointExtension>
            <ns3:atemp>21.0</ns3:atemp>
          </ns3:TrackPointExtension>
        </extensions>
      </trkpt>
      <trkpt lat="42.62116533704102039337158203125" lon="19.916778914630413055419921875">
        <ele>1139.199951171875</ele>
        <time>2026-06-16T12:07:06.000Z</time>
        <extensions>
          <ns3:TrackPointExtension>
            <ns3:atemp>21.0</ns3:atemp>
          </ns3:TrackPointExtension>
        </extensions>
      </trkpt>
      <trkpt lat="42.621144466102123260498046875" lon="19.91679039783775806427001953125">
        <ele>1138.4000244140625</ele>
        <time>2026-06-16T12:07:07.000Z</time>
        <extensions>
          <ns3:TrackPointExtension>
            <ns3:atemp>21.0</ns3:atemp>
          </ns3:TrackPointExtension>
        </extensions>
      </trkpt>
      <trkpt lat="42.62112141586840152740478515625" lon="19.91681302897632122039794921875">
        <ele>1137.5999755859375</ele>
        <time>2026-06-16T12:07:08.000Z</time>
        <extensions>
          <ns3:TrackPointExtension>
            <ns3:atemp>21.0</ns3:atemp>
          </ns3:TrackPointExtension>
        </extensions>
      </trkpt>
      <trkpt lat="42.62110733427107334136962890625" lon="19.916830547153949737548828125">
        <ele>1136.800048828125</ele>
        <time>2026-06-16T12:07:09.000Z</time>
        <extensions>
          <ns3:TrackPointExtension>
            <ns3:atemp>21.0</ns3:atemp>
          </ns3:TrackPointExtension>
        </extensions>
      </trkpt>
      <trkpt lat="42.62109048664569854736328125" lon="19.91684605367481708526611328125">
        <ele>1136</ele>
        <time>2026-06-16T12:07:10.000Z</time>
        <extensions>
          <ns3:TrackPointExtension>
            <ns3:atemp>21.0</ns3:atemp>
          </ns3:TrackPointExtension>
        </extensions>
      </trkpt>
      <trkpt lat="42.62107129208743572235107421875" lon="19.916860051453113555908203125">
        <ele>1135.199951171875</ele>
        <time>2026-06-16T12:07:11.000Z</time>
        <extensions>
          <ns3:TrackPointExtension>
            <ns3:atemp>21.0</ns3:atemp>
          </ns3:TrackPointExtension>
        </extensions>
      </trkpt>
      <trkpt lat="42.62104547582566738128662109375" lon="19.91686969064176082611083984375">
        <ele>1134.4000244140625</ele>
        <time>2026-06-16T12:07:12.000Z</time>
        <extensions>
          <ns3:TrackPointExtension>
            <ns3:atemp>21.0</ns3:atemp>
          </ns3:TrackPointExtension>
        </extensions>
      </trkpt>
      <trkpt lat="42.62102049775421619415283203125" lon="19.91689936257898807525634765625">
        <ele>1133.5999755859375</ele>
        <time>2026-06-16T12:07:13.000Z</time>
        <extensions>
          <ns3:TrackPointExtension>
            <ns3:atemp>21.0</ns3:atemp>
          </ns3:TrackPointExtension>
        </extensions>
      </trkpt>
      <trkpt lat="42.6210091821849346160888671875" lon="19.9169470556080341339111328125">
        <ele>1132.800048828125</ele>
        <time>2026-06-16T12:07:14.000Z</time>
        <extensions>
          <ns3:TrackPointExtension>
            <ns3:atemp>21.0</ns3:atemp>
          </ns3:TrackPointExtension>
        </extensions>
      </trkpt>
      <trkpt lat="42.62100373394787311553955078125" lon="19.91699810139834880828857421875">
        <ele>1131.800048828125</ele>
        <time>2026-06-16T12:07:15.000Z</time>
        <extensions>
          <ns3:TrackPointExtension>
            <ns3:atemp>21.0</ns3:atemp>
          </ns3:TrackPointExtension>
        </extensions>
      </trkpt>
      <trkpt lat="42.62099535204470157623291015625" lon="19.91703934036195278167724609375">
        <ele>1131</ele>
        <time>2026-06-16T12:07:16.000Z</time>
        <extensions>
          <ns3:TrackPointExtension>
            <ns3:atemp>21.0</ns3:atemp>
          </ns3:TrackPointExtension>
        </extensions>
      </trkpt>
      <trkpt lat="42.621002309024333953857421875" lon="19.9170798249542713165283203125">
        <ele>1130</ele>
        <time>2026-06-16T12:07:17.000Z</time>
        <extensions>
          <ns3:TrackPointExtension>
            <ns3:atemp>21.0</ns3:atemp>
          </ns3:TrackPointExtension>
        </extensions>
      </trkpt>
      <trkpt lat="42.62102284468710422515869140625" lon="19.91711041890084743499755859375">
        <ele>1128.800048828125</ele>
        <time>2026-06-16T12:07:18.000Z</time>
        <extensions>
          <ns3:TrackPointExtension>
            <ns3:atemp>21.0</ns3:atemp>
          </ns3:TrackPointExtension>
        </extensions>
      </trkpt>
      <trkpt lat="42.62103617191314697265625" lon="19.917147718369960784912109375">
        <ele>1128</ele>
        <time>2026-06-16T12:07:19.000Z</time>
        <extensions>
          <ns3:TrackPointExtension>
            <ns3:atemp>21.0</ns3:atemp>
          </ns3:TrackPointExtension>
        </extensions>
      </trkpt>
      <trkpt lat="42.62103692628443241119384765625" lon="19.91716741584241390228271484375">
        <ele>1127.199951171875</ele>
        <time>2026-06-16T12:07:20.000Z</time>
        <extensions>
          <ns3:TrackPointExtension>
            <ns3:atemp>21.0</ns3:atemp>
          </ns3:TrackPointExtension>
        </extensions>
      </trkpt>
      <trkpt lat="42.621027790009975433349609375" lon="19.91719038225710391998291015625">
        <ele>1126.4000244140625</ele>
        <time>2026-06-16T12:07:21.000Z</time>
        <extensions>
          <ns3:TrackPointExtension>
            <ns3:atemp>21.0</ns3:atemp>
          </ns3:TrackPointExtension>
        </extensions>
      </trkpt>
      <trkpt lat="42.6210209168493747711181640625" lon="19.9172333814203739166259765625">
        <ele>1125.800048828125</ele>
        <time>2026-06-16T12:07:22.000Z</time>
        <extensions>
          <ns3:TrackPointExtension>
            <ns3:atemp>21.0</ns3:atemp>
          </ns3:TrackPointExtension>
        </extensions>
      </trkpt>
      <trkpt lat="42.62100608088076114654541015625" lon="19.91727210581302642822265625">
        <ele>1124.800048828125</ele>
        <time>2026-06-16T12:07:23.000Z</time>
        <extensions>
          <ns3:TrackPointExtension>
            <ns3:atemp>21.0</ns3:atemp>
          </ns3:TrackPointExtension>
        </extensions>
      </trkpt>
      <trkpt lat="42.6209981180727481842041015625" lon="19.91731845773756504058837890625">
        <ele>1123.4000244140625</ele>
        <time>2026-06-16T12:07:24.000Z</time>
        <extensions>
          <ns3:TrackPointExtension>
            <ns3:atemp>21.0</ns3:atemp>
          </ns3:TrackPointExtension>
        </extensions>
      </trkpt>
      <trkpt lat="42.62100306339561939239501953125" lon="19.91736941970884799957275390625">
        <ele>1122</ele>
        <time>2026-06-16T12:07:25.000Z</time>
        <extensions>
          <ns3:TrackPointExtension>
            <ns3:atemp>21.0</ns3:atemp>
          </ns3:TrackPointExtension>
        </extensions>
      </trkpt>
      <trkpt lat="42.6210148818790912628173828125" lon="19.917418621480464935302734375">
        <ele>1120.800048828125</ele>
        <time>2026-06-16T12:07:26.000Z</time>
        <extensions>
          <ns3:TrackPointExtension>
            <ns3:atemp>21.0</ns3:atemp>
          </ns3:TrackPointExtension>
        </extensions>
      </trkpt>
      <trkpt lat="42.62102569453418254852294921875" lon="19.91746061481535434722900390625">
        <ele>1119.4000244140625</ele>
        <time>2026-06-16T12:07:27.000Z</time>
        <extensions>
          <ns3:TrackPointExtension>
            <ns3:atemp>21.0</ns3:atemp>
          </ns3:TrackPointExtension>
        </extensions>
      </trkpt>
      <trkpt lat="42.6210232637822628021240234375" lon="19.917507804930210113525390625">
        <ele>1118.199951171875</ele>
        <time>2026-06-16T12:07:28.000Z</time>
        <extensions>
          <ns3:TrackPointExtension>
            <ns3:atemp>21.0</ns3:atemp>
          </ns3:TrackPointExtension>
        </extensions>
      </trkpt>
      <trkpt lat="42.6210192404687404632568359375" lon="19.91755834780633449554443359375">
        <ele>1116.800048828125</ele>
        <time>2026-06-16T12:07:29.000Z</time>
        <extensions>
          <ns3:TrackPointExtension>
            <ns3:atemp>21.0</ns3:atemp>
          </ns3:TrackPointExtension>
        </extensions>
      </trkpt>
      <trkpt lat="42.62102988548576831817626953125" lon="19.91760210134088993072509765625">
        <ele>1115.199951171875</ele>
        <time>2026-06-16T12:07:30.000Z</time>
        <extensions>
          <ns3:TrackPointExtension>
            <ns3:atemp>21.0</ns3:atemp>
          </ns3:TrackPointExtension>
        </extensions>
      </trkpt>
      <trkpt lat="42.62105067260563373565673828125" lon="19.91763764061033725738525390625">
        <ele>1114</ele>
        <time>2026-06-16T12:07:31.000Z</time>
        <extensions>
          <ns3:TrackPointExtension>
            <ns3:atemp>21.0</ns3:atemp>
          </ns3:TrackPointExtension>
        </extensions>
      </trkpt>
      <trkpt lat="42.6210696995258331298828125" lon="19.9176776222884654998779296875">
        <ele>1112.800048828125</ele>
        <time>2026-06-16T12:07:32.000Z</time>
        <extensions>
          <ns3:TrackPointExtension>
            <ns3:atemp>21.0</ns3:atemp>
          </ns3:TrackPointExtension>
        </extensions>
      </trkpt>
      <trkpt lat="42.62107950635254383087158203125" lon="19.91773034445941448211669921875">
        <ele>1111.5999755859375</ele>
        <time>2026-06-16T12:07:33.000Z</time>
        <extensions>
          <ns3:TrackPointExtension>
            <ns3:atemp>21.0</ns3:atemp>
          </ns3:TrackPointExtension>
        </extensions>
      </trkpt>
      <trkpt lat="42.6210911571979522705078125" lon="19.91777778603136539459228515625">
        <ele>1110.5999755859375</ele>
        <time>2026-06-16T12:07:34.000Z</time>
        <extensions>
          <ns3:TrackPointExtension>
            <ns3:atemp>21.0</ns3:atemp>
          </ns3:TrackPointExtension>
        </extensions>
      </trkpt>
      <trkpt lat="42.6211208291351795196533203125" lon="19.9178214557468891143798828125">
        <ele>1109.199951171875</ele>
        <time>2026-06-16T12:07:35.000Z</time>
        <extensions>
          <ns3:TrackPointExtension>
            <ns3:atemp>21.0</ns3:atemp>
          </ns3:TrackPointExtension>
        </extensions>
      </trkpt>
      <trkpt lat="42.6211486570537090301513671875" lon="19.91786998696625232696533203125">
        <ele>1108.199951171875</ele>
        <time>2026-06-16T12:07:36.000Z</time>
        <extensions>
          <ns3:TrackPointExtension>
            <ns3:atemp>21.0</ns3:atemp>
          </ns3:TrackPointExtension>
        </extensions>
      </trkpt>
      <trkpt lat="42.62116919271647930145263671875" lon="19.91792664863169193267822265625">
        <ele>1107</ele>
        <time>2026-06-16T12:07:37.000Z</time>
        <extensions>
          <ns3:TrackPointExtension>
            <ns3:atemp>21.0</ns3:atemp>
          </ns3:TrackPointExtension>
        </extensions>
      </trkpt>
      <trkpt lat="42.62119601480662822723388671875" lon="19.91795984096825122833251953125">
        <ele>1106</ele>
        <time>2026-06-16T12:07:38.000Z</time>
        <extensions>
          <ns3:TrackPointExtension>
            <ns3:atemp>21.0</ns3:atemp>
          </ns3:TrackPointExtension>
        </extensions>
      </trkpt>
      <trkpt lat="42.62122065760195255279541015625" lon="19.91798951290547847747802734375">
        <ele>1105</ele>
        <time>2026-06-16T12:07:39.000Z</time>
        <extensions>
          <ns3:TrackPointExtension>
            <ns3:atemp>21.0</ns3:atemp>
          </ns3:TrackPointExtension>
        </extensions>
      </trkpt>
      <trkpt lat="42.621237002313137054443359375" lon="19.91801910102367401123046875">
        <ele>1104</ele>
        <time>2026-06-16T12:07:40.000Z</time>
        <extensions>
          <ns3:TrackPointExtension>
            <ns3:atemp>21.0</ns3:atemp>
          </ns3:TrackPointExtension>
        </extensions>
      </trkpt>
      <trkpt lat="42.62125351466238498687744140625" lon="19.9180531315505504608154296875">
        <ele>1103</ele>
        <time>2026-06-16T12:07:41.000Z</time>
        <extensions>
          <ns3:TrackPointExtension>
            <ns3:atemp>21.0</ns3:atemp>
          </ns3:TrackPointExtension>
        </extensions>
      </trkpt>
      <trkpt lat="42.62126323767006397247314453125" lon="19.9180962145328521728515625">
        <ele>1102.199951171875</ele>
        <time>2026-06-16T12:07:42.000Z</time>
        <extensions>
          <ns3:TrackPointExtension>
            <ns3:atemp>21.0</ns3:atemp>
          </ns3:TrackPointExtension>
        </extensions>
      </trkpt>
      <trkpt lat="42.6212790794670581817626953125" lon="19.91814323700964450836181640625">
        <ele>1101.4000244140625</ele>
        <time>2026-06-16T12:07:43.000Z</time>
        <extensions>
          <ns3:TrackPointExtension>
            <ns3:atemp>21.0</ns3:atemp>
          </ns3:TrackPointExtension>
        </extensions>
      </trkpt>
      <trkpt lat="42.62128938920795917510986328125" lon="19.91818866692483425140380859375">
        <ele>1100.5999755859375</ele>
        <time>2026-06-16T12:07:44.000Z</time>
        <extensions>
          <ns3:TrackPointExtension>
            <ns3:atemp>21.0</ns3:atemp>
          </ns3:TrackPointExtension>
        </extensions>
      </trkpt>
      <trkpt lat="42.621305398643016815185546875" lon="19.91822035051882266998291015625">
        <ele>1099.800048828125</ele>
        <time>2026-06-16T12:07:45.000Z</time>
        <extensions>
          <ns3:TrackPointExtension>
            <ns3:atemp>21.0</ns3:atemp>
          </ns3:TrackPointExtension>
        </extensions>
      </trkpt>
      <trkpt lat="42.621321491897106170654296875" lon="19.91825656034052371978759765625">
        <ele>1098.800048828125</ele>
        <time>2026-06-16T12:07:46.000Z</time>
        <extensions>
          <ns3:TrackPointExtension>
            <ns3:atemp>21.0</ns3:atemp>
          </ns3:TrackPointExtension>
        </extensions>
      </trkpt>
      <trkpt lat="42.6213447935879230499267578125" lon="19.91828463971614837646484375">
        <ele>1097.5999755859375</ele>
        <time>2026-06-16T12:07:47.000Z</time>
        <extensions>
          <ns3:TrackPointExtension>
            <ns3:atemp>21.0</ns3:atemp>
          </ns3:TrackPointExtension>
        </extensions>
      </trkpt>
      <trkpt lat="42.62136734090745449066162109375" lon="19.91830919869244098663330078125">
        <ele>1096.800048828125</ele>
        <time>2026-06-16T12:07:48.000Z</time>
        <extensions>
          <ns3:TrackPointExtension>
            <ns3:atemp>21.0</ns3:atemp>
          </ns3:TrackPointExtension>
        </extensions>
      </trkpt>
      <trkpt lat="42.62139600701630115509033203125" lon="19.91833291947841644287109375">
        <ele>1096</ele>
        <time>2026-06-16T12:07:49.000Z</time>
        <extensions>
          <ns3:TrackPointExtension>
            <ns3:atemp>21.0</ns3:atemp>
          </ns3:TrackPointExtension>
        </extensions>
      </trkpt>
      <trkpt lat="42.62142308056354522705078125" lon="19.918369464576244354248046875">
        <ele>1095</ele>
        <time>2026-06-16T12:07:50.000Z</time>
        <extensions>
          <ns3:TrackPointExtension>
            <ns3:atemp>21.0</ns3:atemp>
          </ns3:TrackPointExtension>
        </extensions>
      </trkpt>
      <trkpt lat="42.6214386709034442901611328125" lon="19.91842101328074932098388671875">
        <ele>1094</ele>
        <time>2026-06-16T12:07:51.000Z</time>
        <extensions>
          <ns3:TrackPointExtension>
            <ns3:atemp>21.0</ns3:atemp>
          </ns3:TrackPointExtension>
        </extensions>
      </trkpt>
      <trkpt lat="42.621448896825313568115234375" lon="19.91846191696822643280029296875">
        <ele>1093.199951171875</ele>
        <time>2026-06-16T12:07:52.000Z</time>
        <extensions>
          <ns3:TrackPointExtension>
            <ns3:atemp>21.0</ns3:atemp>
          </ns3:TrackPointExtension>
        </extensions>
      </trkpt>
      <trkpt lat="42.621459625661373138427734375" lon="19.91850231774151325225830078125">
        <ele>1092.199951171875</ele>
        <time>2026-06-16T12:07:53.000Z</time>
        <extensions>
          <ns3:TrackPointExtension>
            <ns3:atemp>21.0</ns3:atemp>
          </ns3:TrackPointExtension>
        </extensions>
      </trkpt>
      <trkpt lat="42.62146909721195697784423828125" lon="19.9185355938971042633056640625">
        <ele>1091.4000244140625</ele>
        <time>2026-06-16T12:07:54.000Z</time>
        <extensions>
          <ns3:TrackPointExtension>
            <ns3:atemp>21.0</ns3:atemp>
          </ns3:TrackPointExtension>
        </extensions>
      </trkpt>
      <trkpt lat="42.621483094990253448486328125" lon="19.9185761623084545135498046875">
        <ele>1090.800048828125</ele>
        <time>2026-06-16T12:07:55.000Z</time>
        <extensions>
          <ns3:TrackPointExtension>
            <ns3:atemp>21.0</ns3:atemp>
          </ns3:TrackPointExtension>
        </extensions>
      </trkpt>
      <trkpt lat="42.62150027789175510406494140625" lon="19.9186100251972675323486328125">
        <ele>1090.199951171875</ele>
        <time>2026-06-16T12:07:56.000Z</time>
        <extensions>
          <ns3:TrackPointExtension>
            <ns3:atemp>21.0</ns3:atemp>
          </ns3:TrackPointExtension>
        </extensions>
      </trkpt>
      <trkpt lat="42.621527016162872314453125" lon="19.9186353385448455810546875">
        <ele>1089.4000244140625</ele>
        <time>2026-06-16T12:07:57.000Z</time>
        <extensions>
          <ns3:TrackPointExtension>
            <ns3:atemp>21.0</ns3:atemp>
          </ns3:TrackPointExtension>
        </extensions>
      </trkpt>
      <trkpt lat="42.62154956348240375518798828125" lon="19.91864531300961971282958984375">
        <ele>1088.5999755859375</ele>
        <time>2026-06-16T12:07:58.000Z</time>
        <extensions>
          <ns3:TrackPointExtension>
            <ns3:atemp>21.0</ns3:atemp>
          </ns3:TrackPointExtension>
        </extensions>
      </trkpt>
      <trkpt lat="42.62156900949776172637939453125" lon="19.91866107098758220672607421875">
        <ele>1087.800048828125</ele>
        <time>2026-06-16T12:07:59.000Z</time>
        <extensions>
          <ns3:TrackPointExtension>
            <ns3:atemp>21.0</ns3:atemp>
          </ns3:TrackPointExtension>
        </extensions>
      </trkpt>
      <trkpt lat="42.62158124707639217376708984375" lon="19.9186904914677143096923828125">
        <ele>1087.199951171875</ele>
        <time>2026-06-16T12:08:00.000Z</time>
        <extensions>
          <ns3:TrackPointExtension>
            <ns3:atemp>21.0</ns3:atemp>
          </ns3:TrackPointExtension>
        </extensions>
      </trkpt>
      <trkpt lat="42.6215848512947559356689453125" lon="19.91872183978557586669921875">
        <ele>1086.5999755859375</ele>
        <time>2026-06-16T12:08:01.000Z</time>
        <extensions>
          <ns3:TrackPointExtension>
            <ns3:atemp>21.0</ns3:atemp>
          </ns3:TrackPointExtension>
        </extensions>
      </trkpt>
      <trkpt lat="42.621577642858028411865234375" lon="19.9187615700066089630126953125">
        <ele>1086</ele>
        <time>2026-06-16T12:08:02.000Z</time>
        <extensions>
          <ns3:TrackPointExtension>
            <ns3:atemp>21.0</ns3:atemp>
          </ns3:TrackPointExtension>
        </extensions>
      </trkpt>
      <trkpt lat="42.6215627230703830718994140625" lon="19.91878545843064785003662109375">
        <ele>1085.4000244140625</ele>
        <time>2026-06-16T12:08:03.000Z</time>
        <extensions>
          <ns3:TrackPointExtension>
            <ns3:atemp>21.0</ns3:atemp>
          </ns3:TrackPointExtension>
        </extensions>
      </trkpt>
      <trkpt lat="42.6215429417788982391357421875" lon="19.91880322806537151336669921875">
        <ele>1084.800048828125</ele>
        <time>2026-06-16T12:08:04.000Z</time>
        <extensions>
          <ns3:TrackPointExtension>
            <ns3:atemp>21.0</ns3:atemp>
          </ns3:TrackPointExtension>
        </extensions>
      </trkpt>
      <trkpt lat="42.6215359009802341461181640625" lon="19.9188303016126155853271484375">
        <ele>1084</ele>
        <time>2026-06-16T12:08:05.000Z</time>
        <extensions>
          <ns3:TrackPointExtension>
            <ns3:atemp>21.0</ns3:atemp>
          </ns3:TrackPointExtension>
        </extensions>
      </trkpt>
      <trkpt lat="42.621543109416961669921875" lon="19.9188713729381561279296875">
        <ele>1083.4000244140625</ele>
        <time>2026-06-16T12:08:06.000Z</time>
        <extensions>
          <ns3:TrackPointExtension>
            <ns3:atemp>21.0</ns3:atemp>
          </ns3:TrackPointExtension>
        </extensions>
      </trkpt>
      <trkpt lat="42.62156263925135135650634765625" lon="19.91891420446336269378662109375">
        <ele>1082.5999755859375</ele>
        <time>2026-06-16T12:08:07.000Z</time>
        <extensions>
          <ns3:TrackPointExtension>
            <ns3:atemp>21.0</ns3:atemp>
          </ns3:TrackPointExtension>
        </extensions>
      </trkpt>
      <trkpt lat="42.6215831749141216278076171875" lon="19.918943457305431365966796875">
        <ele>1082</ele>
        <time>2026-06-16T12:08:08.000Z</time>
        <extensions>
          <ns3:TrackPointExtension>
            <ns3:atemp>21.0</ns3:atemp>
          </ns3:TrackPointExtension>
        </extensions>
      </trkpt>
      <trkpt lat="42.62160672806203365325927734375" lon="19.91894069127738475799560546875">
        <ele>1081.199951171875</ele>
        <time>2026-06-16T12:08:09.000Z</time>
        <extensions>
          <ns3:TrackPointExtension>
            <ns3:atemp>21.0</ns3:atemp>
          </ns3:TrackPointExtension>
        </extensions>
      </trkpt>
      <trkpt lat="42.62163204140961170196533203125" lon="19.91895510815083980560302734375">
        <ele>1081</ele>
        <time>2026-06-16T12:08:10.000Z</time>
        <extensions>
          <ns3:TrackPointExtension>
            <ns3:atemp>21.0</ns3:atemp>
          </ns3:TrackPointExtension>
        </extensions>
      </trkpt>
      <trkpt lat="42.6216649822890758514404296875" lon="19.9189714528620243072509765625">
        <ele>1079.5999755859375</ele>
        <time>2026-06-16T12:08:11.000Z</time>
        <extensions>
          <ns3:TrackPointExtension>
            <ns3:atemp>21.0</ns3:atemp>
          </ns3:TrackPointExtension>
        </extensions>
      </trkpt>
      <trkpt lat="42.6217001862823963165283203125" lon="19.9189902283251285552978515625">
        <ele>1078.5999755859375</ele>
        <time>2026-06-16T12:08:12.000Z</time>
        <extensions>
          <ns3:TrackPointExtension>
            <ns3:atemp>21.0</ns3:atemp>
          </ns3:TrackPointExtension>
        </extensions>
      </trkpt>
      <trkpt lat="42.62173329479992389678955078125" lon="19.91901026107370853424072265625">
        <ele>1077.5999755859375</ele>
        <time>2026-06-16T12:08:13.000Z</time>
        <extensions>
          <ns3:TrackPointExtension>
            <ns3:atemp>21.0</ns3:atemp>
          </ns3:TrackPointExtension>
        </extensions>
      </trkpt>
      <trkpt lat="42.62176346965134143829345703125" lon="19.91903188638389110565185546875">
        <ele>1076.5999755859375</ele>
        <time>2026-06-16T12:08:14.000Z</time>
        <extensions>
          <ns3:TrackPointExtension>
            <ns3:atemp>21.0</ns3:atemp>
          </ns3:TrackPointExtension>
        </extensions>
      </trkpt>
      <trkpt lat="42.621779479086399078369140625" lon="19.91905468516051769256591796875">
        <ele>1076</ele>
        <time>2026-06-16T12:08:15.000Z</time>
        <extensions>
          <ns3:TrackPointExtension>
            <ns3:atemp>21.0</ns3:atemp>
          </ns3:TrackPointExtension>
        </extensions>
      </trkpt>
      <trkpt lat="42.62177805416285991668701171875" lon="19.9190784059464931488037109375">
        <ele>1075.199951171875</ele>
        <time>2026-06-16T12:08:16.000Z</time>
        <extensions>
          <ns3:TrackPointExtension>
            <ns3:atemp>21.0</ns3:atemp>
          </ns3:TrackPointExtension>
        </extensions>
      </trkpt>
      <trkpt lat="42.6217806525528430938720703125" lon="19.9191112630069255828857421875">
        <ele>1074.4000244140625</ele>
        <time>2026-06-16T12:08:17.000Z</time>
        <extensions>
          <ns3:TrackPointExtension>
            <ns3:atemp>21.0</ns3:atemp>
          </ns3:TrackPointExtension>
        </extensions>
      </trkpt>
      <trkpt lat="42.62178978882730007171630859375" lon="19.91913800127804279327392578125">
        <ele>1073.800048828125</ele>
        <time>2026-06-16T12:08:18.000Z</time>
        <extensions>
          <ns3:TrackPointExtension>
            <ns3:atemp>21.0</ns3:atemp>
          </ns3:TrackPointExtension>
        </extensions>
      </trkpt>
      <trkpt lat="42.62180152349174022674560546875" lon="19.91916306316852569580078125">
        <ele>1073.199951171875</ele>
        <time>2026-06-16T12:08:19.000Z</time>
        <extensions>
          <ns3:TrackPointExtension>
            <ns3:atemp>21.0</ns3:atemp>
          </ns3:TrackPointExtension>
        </extensions>
      </trkpt>
      <trkpt lat="42.621808312833309173583984375" lon="19.91917756386101245880126953125">
        <ele>1072.800048828125</ele>
        <time>2026-06-16T12:08:20.000Z</time>
        <extensions>
          <ns3:TrackPointExtension>
            <ns3:atemp>21.0</ns3:atemp>
          </ns3:TrackPointExtension>
        </extensions>
      </trkpt>
      <trkpt lat="42.621815688908100128173828125" lon="19.91918183863162994384765625">
        <ele>1072.199951171875</ele>
        <time>2026-06-16T12:08:21.000Z</time>
        <extensions>
          <ns3:TrackPointExtension>
            <ns3:atemp>21.0</ns3:atemp>
          </ns3:TrackPointExtension>
        </extensions>
      </trkpt>
      <trkpt lat="42.62182197533547878265380859375" lon="19.91919617168605327606201171875">
        <ele>1071.800048828125</ele>
        <time>2026-06-16T12:08:22.000Z</time>
        <extensions>
          <ns3:TrackPointExtension>
            <ns3:atemp>21.0</ns3:atemp>
          </ns3:TrackPointExtension>
        </extensions>
      </trkpt>
      <trkpt lat="42.6218195445835590362548828125" lon="19.91920019499957561492919921875">
        <ele>1071.4000244140625</ele>
        <time>2026-06-16T12:08:23.000Z</time>
        <extensions>
          <ns3:TrackPointExtension>
            <ns3:atemp>21.0</ns3:atemp>
          </ns3:TrackPointExtension>
        </extensions>
      </trkpt>
      <trkpt lat="42.62181728146970272064208984375" lon="19.91920304484665393829345703125">
        <ele>1071</ele>
        <time>2026-06-16T12:08:24.000Z</time>
        <extensions>
          <ns3:TrackPointExtension>
            <ns3:atemp>21.0</ns3:atemp>
          </ns3:TrackPointExtension>
        </extensions>
      </trkpt>
      <trkpt lat="42.62181728146970272064208984375" lon="19.919202961027622222900390625">
        <ele>1070.800048828125</ele>
        <time>2026-06-16T12:08:25.000Z</time>
        <extensions>
          <ns3:TrackPointExtension>
            <ns3:atemp>21.0</ns3:atemp>
          </ns3:TrackPointExtension>
        </extensions>
      </trkpt>
      <trkpt lat="42.62181728146970272064208984375" lon="19.919202961027622222900390625">
        <ele>1070.5999755859375</ele>
        <time>2026-06-16T12:08:26.000Z</time>
        <extensions>
          <ns3:TrackPointExtension>
            <ns3:atemp>21.0</ns3:atemp>
          </ns3:TrackPointExtension>
        </extensions>
      </trkpt>
      <trkpt lat="42.62181728146970272064208984375" lon="19.919202961027622222900390625">
        <ele>1070.4000244140625</ele>
        <time>2026-06-16T12:08:27.000Z</time>
        <extensions>
          <ns3:TrackPointExtension>
            <ns3:atemp>21.0</ns3:atemp>
          </ns3:TrackPointExtension>
        </extensions>
      </trkpt>
      <trkpt lat="42.62181728146970272064208984375" lon="19.919202961027622222900390625">
        <ele>1070.199951171875</ele>
        <time>2026-06-16T12:08:28.000Z</time>
        <extensions>
          <ns3:TrackPointExtension>
            <ns3:atemp>21.0</ns3:atemp>
          </ns3:TrackPointExtension>
        </extensions>
      </trkpt>
      <trkpt lat="42.62181728146970272064208984375" lon="19.919202961027622222900390625">
        <ele>1070</ele>
        <time>2026-06-16T12:08:29.000Z</time>
        <extensions>
          <ns3:TrackPointExtension>
            <ns3:atemp>21.0</ns3:atemp>
          </ns3:TrackPointExtension>
        </extensions>
      </trkpt>
      <trkpt lat="42.62181728146970272064208984375" lon="19.919202961027622222900390625">
        <ele>1070</ele>
        <time>2026-06-16T12:08:30.000Z</time>
        <extensions>
          <ns3:TrackPointExtension>
            <ns3:atemp>21.0</ns3:atemp>
          </ns3:TrackPointExtension>
        </extensions>
      </trkpt>
      <trkpt lat="42.62181728146970272064208984375" lon="19.919202961027622222900390625">
        <ele>1070</ele>
        <time>2026-06-16T12:08:31.000Z</time>
        <extensions>
          <ns3:TrackPointExtension>
            <ns3:atemp>21.0</ns3:atemp>
          </ns3:TrackPointExtension>
        </extensions>
      </trkpt>
      <trkpt lat="42.62181728146970272064208984375" lon="19.919202961027622222900390625">
        <ele>1069.800048828125</ele>
        <time>2026-06-16T12:08:32.000Z</time>
        <extensions>
          <ns3:TrackPointExtension>
            <ns3:atemp>21.0</ns3:atemp>
          </ns3:TrackPointExtension>
        </extensions>
      </trkpt>
      <trkpt lat="42.62181728146970272064208984375" lon="19.919202961027622222900390625">
        <ele>1069.800048828125</ele>
        <time>2026-06-16T12:08:33.000Z</time>
        <extensions>
          <ns3:TrackPointExtension>
            <ns3:atemp>21.0</ns3:atemp>
          </ns3:TrackPointExtension>
        </extensions>
      </trkpt>
      <trkpt lat="42.62181728146970272064208984375" lon="19.919202961027622222900390625">
        <ele>1069.800048828125</ele>
        <time>2026-06-16T12:08:34.000Z</time>
        <extensions>
          <ns3:TrackPointExtension>
            <ns3:atemp>21.0</ns3:atemp>
          </ns3:TrackPointExtension>
        </extensions>
      </trkpt>
      <trkpt lat="42.62181728146970272064208984375" lon="19.919202961027622222900390625">
        <ele>1069.5999755859375</ele>
        <time>2026-06-16T12:08:35.000Z</time>
        <extensions>
          <ns3:TrackPointExtension>
            <ns3:atemp>21.0</ns3:atemp>
          </ns3:TrackPointExtension>
        </extensions>
      </trkpt>
      <trkpt lat="42.62181728146970272064208984375" lon="19.919202961027622222900390625">
        <ele>1069.5999755859375</ele>
        <time>2026-06-16T12:08:36.000Z</time>
        <extensions>
          <ns3:TrackPointExtension>
            <ns3:atemp>21.0</ns3:atemp>
          </ns3:TrackPointExtension>
        </extensions>
      </trkpt>
      <trkpt lat="42.62181728146970272064208984375" lon="19.919202961027622222900390625">
        <ele>1069.5999755859375</ele>
        <time>2026-06-16T12:08:37.000Z</time>
        <extensions>
          <ns3:TrackPointExtension>
            <ns3:atemp>21.0</ns3:atemp>
          </ns3:TrackPointExtension>
        </extensions>
      </trkpt>
      <trkpt lat="42.62181728146970272064208984375" lon="19.919202961027622222900390625">
        <ele>1069.5999755859375</ele>
        <time>2026-06-16T12:08:38.000Z</time>
        <extensions>
          <ns3:TrackPointExtension>
            <ns3:atemp>21.0</ns3:atemp>
          </ns3:TrackPointExtension>
        </extensions>
      </trkpt>
      <trkpt lat="42.62181728146970272064208984375" lon="19.919202961027622222900390625">
        <ele>1069.5999755859375</ele>
        <time>2026-06-16T12:08:39.000Z</time>
        <extensions>
          <ns3:TrackPointExtension>
            <ns3:atemp>21.0</ns3:atemp>
          </ns3:TrackPointExtension>
        </extensions>
      </trkpt>
      <trkpt lat="42.62181728146970272064208984375" lon="19.919202961027622222900390625">
        <ele>1069.5999755859375</ele>
        <time>2026-06-16T12:08:40.000Z</time>
        <extensions>
          <ns3:TrackPointExtension>
            <ns3:atemp>21.0</ns3:atemp>
          </ns3:TrackPointExtension>
        </extensions>
      </trkpt>
      <trkpt lat="42.62181728146970272064208984375" lon="19.919202961027622222900390625">
        <ele>1069.5999755859375</ele>
        <time>2026-06-16T12:08:41.000Z</time>
        <extensions>
          <ns3:TrackPointExtension>
            <ns3:atemp>21.0</ns3:atemp>
          </ns3:TrackPointExtension>
        </extensions>
      </trkpt>
      <trkpt lat="42.62181728146970272064208984375" lon="19.919202961027622222900390625">
        <ele>1069.4000244140625</ele>
        <time>2026-06-16T12:08:42.000Z</time>
        <extensions>
          <ns3:TrackPointExtension>
            <ns3:atemp>21.0</ns3:atemp>
          </ns3:TrackPointExtension>
        </extensions>
      </trkpt>
      <trkpt lat="42.62181728146970272064208984375" lon="19.919202961027622222900390625">
        <ele>1069.4000244140625</ele>
        <time>2026-06-16T12:08:43.000Z</time>
        <extensions>
          <ns3:TrackPointExtension>
            <ns3:atemp>21.0</ns3:atemp>
          </ns3:TrackPointExtension>
        </extensions>
      </trkpt>
      <trkpt lat="42.62181728146970272064208984375" lon="19.919202961027622222900390625">
        <ele>1069.4000244140625</ele>
        <time>2026-06-16T12:08:44.000Z</time>
        <extensions>
          <ns3:TrackPointExtension>
            <ns3:atemp>21.0</ns3:atemp>
          </ns3:TrackPointExtension>
        </extensions>
      </trkpt>
      <trkpt lat="42.62181728146970272064208984375" lon="19.919202961027622222900390625">
        <ele>1069.199951171875</ele>
        <time>2026-06-16T12:08:45.000Z</time>
        <extensions>
          <ns3:TrackPointExtension>
            <ns3:atemp>21.0</ns3:atemp>
          </ns3:TrackPointExtension>
        </extensions>
      </trkpt>
      <trkpt lat="42.62181728146970272064208984375" lon="19.919202961027622222900390625">
        <ele>1069.199951171875</ele>
        <time>2026-06-16T12:08:46.000Z</time>
        <extensions>
          <ns3:TrackPointExtension>
            <ns3:atemp>21.0</ns3:atemp>
          </ns3:TrackPointExtension>
        </extensions>
      </trkpt>
      <trkpt lat="42.62181728146970272064208984375" lon="19.919202961027622222900390625">
        <ele>1069.199951171875</ele>
        <time>2026-06-16T12:08:47.000Z</time>
        <extensions>
          <ns3:TrackPointExtension>
            <ns3:atemp>21.0</ns3:atemp>
          </ns3:TrackPointExtension>
        </extensions>
      </trkpt>
      <trkpt lat="42.62181728146970272064208984375" lon="19.919202961027622222900390625">
        <ele>1069.199951171875</ele>
        <time>2026-06-16T12:08:48.000Z</time>
        <extensions>
          <ns3:TrackPointExtension>
            <ns3:atemp>21.0</ns3:atemp>
          </ns3:TrackPointExtension>
        </extensions>
      </trkpt>
      <trkpt lat="42.62181728146970272064208984375" lon="19.919202961027622222900390625">
        <ele>1069.199951171875</ele>
        <time>2026-06-16T12:08:49.000Z</time>
        <extensions>
          <ns3:TrackPointExtension>
            <ns3:atemp>21.0</ns3:atemp>
          </ns3:TrackPointExtension>
        </extensions>
      </trkpt>
      <trkpt lat="42.62181728146970272064208984375" lon="19.919202961027622222900390625">
        <ele>1069.199951171875</ele>
        <time>2026-06-16T12:08:50.000Z</time>
        <extensions>
          <ns3:TrackPointExtension>
            <ns3:atemp>21.0</ns3:atemp>
          </ns3:TrackPointExtension>
        </extensions>
      </trkpt>
      <trkpt lat="42.62181728146970272064208984375" lon="19.919202961027622222900390625">
        <ele>1069.199951171875</ele>
        <time>2026-06-16T12:08:51.000Z</time>
        <extensions>
          <ns3:TrackPointExtension>
            <ns3:atemp>21.0</ns3:atemp>
          </ns3:TrackPointExtension>
        </extensions>
      </trkpt>
      <trkpt lat="42.6218182034790515899658203125" lon="19.919211007654666900634765625">
        <ele>1069</ele>
        <time>2026-06-16T12:08:52.000Z</time>
        <extensions>
          <ns3:TrackPointExtension>
            <ns3:atemp>21.0</ns3:atemp>
          </ns3:TrackPointExtension>
        </extensions>
      </trkpt>
      <trkpt lat="42.6218180358409881591796875" lon="19.9192292802035808563232421875">
        <ele>1069</ele>
        <time>2026-06-16T12:08:53.000Z</time>
        <extensions>
          <ns3:TrackPointExtension>
            <ns3:atemp>21.0</ns3:atemp>
          </ns3:TrackPointExtension>
        </extensions>
      </trkpt>
      <trkpt lat="42.62181677855551242828369140625" lon="19.9192393384873867034912109375">
        <ele>1068.800048828125</ele>
        <time>2026-06-16T12:08:54.000Z</time>
        <extensions>
          <ns3:TrackPointExtension>
            <ns3:atemp>21.0</ns3:atemp>
          </ns3:TrackPointExtension>
        </extensions>
      </trkpt>
      <trkpt lat="42.621810995042324066162109375" lon="19.9192436970770359039306640625">
        <ele>1068.800048828125</ele>
        <time>2026-06-16T12:08:55.000Z</time>
        <extensions>
          <ns3:TrackPointExtension>
            <ns3:atemp>21.0</ns3:atemp>
          </ns3:TrackPointExtension>
        </extensions>
      </trkpt>
      <trkpt lat="42.6218014396727085113525390625" lon="19.9192468822002410888671875">
        <ele>1068.5999755859375</ele>
        <time>2026-06-16T12:08:56.000Z</time>
        <extensions>
          <ns3:TrackPointExtension>
            <ns3:atemp>21.0</ns3:atemp>
          </ns3:TrackPointExtension>
        </extensions>
      </trkpt>
      <trkpt lat="42.62179858982563018798828125" lon="19.91927043534815311431884765625">
        <ele>1068.5999755859375</ele>
        <time>2026-06-16T12:08:57.000Z</time>
        <extensions>
          <ns3:TrackPointExtension>
            <ns3:atemp>21.0</ns3:atemp>
          </ns3:TrackPointExtension>
        </extensions>
      </trkpt>
      <trkpt lat="42.62179850600659847259521484375" lon="19.91930656135082244873046875">
        <ele>1068.4000244140625</ele>
        <time>2026-06-16T12:08:58.000Z</time>
        <extensions>
          <ns3:TrackPointExtension>
            <ns3:atemp>21.0</ns3:atemp>
          </ns3:TrackPointExtension>
        </extensions>
      </trkpt>
      <trkpt lat="42.6217917166650295257568359375" lon="19.91933899931609630584716796875">
        <ele>1068</ele>
        <time>2026-06-16T12:08:59.000Z</time>
        <extensions>
          <ns3:TrackPointExtension>
            <ns3:atemp>21.0</ns3:atemp>
          </ns3:TrackPointExtension>
        </extensions>
      </trkpt>
      <trkpt lat="42.62177981436252593994140625" lon="19.91937839426100254058837890625">
        <ele>1067.800048828125</ele>
        <time>2026-06-16T12:09:00.000Z</time>
        <extensions>
          <ns3:TrackPointExtension>
            <ns3:atemp>21.0</ns3:atemp>
          </ns3:TrackPointExtension>
        </extensions>
      </trkpt>
      <trkpt lat="42.62176238000392913818359375" lon="19.91941812448203563690185546875">
        <ele>1067.199951171875</ele>
        <time>2026-06-16T12:09:01.000Z</time>
        <extensions>
          <ns3:TrackPointExtension>
            <ns3:atemp>21.0</ns3:atemp>
          </ns3:TrackPointExtension>
        </extensions>
      </trkpt>
      <trkpt lat="42.62174854986369609832763671875" lon="19.91945668123662471771240234375">
        <ele>1066.5999755859375</ele>
        <time>2026-06-16T12:09:02.000Z</time>
        <extensions>
          <ns3:TrackPointExtension>
            <ns3:atemp>21.0</ns3:atemp>
          </ns3:TrackPointExtension>
        </extensions>
      </trkpt>
      <trkpt lat="42.62172843329608440399169921875" lon="19.9194911308586597442626953125">
        <ele>1066.199951171875</ele>
        <time>2026-06-16T12:09:03.000Z</time>
        <extensions>
          <ns3:TrackPointExtension>
            <ns3:atemp>21.0</ns3:atemp>
          </ns3:TrackPointExtension>
        </extensions>
      </trkpt>
      <trkpt lat="42.6216995157301425933837890625" lon="19.9195072241127490997314453125">
        <ele>1065.199951171875</ele>
        <time>2026-06-16T12:09:04.000Z</time>
        <extensions>
          <ns3:TrackPointExtension>
            <ns3:atemp>21.0</ns3:atemp>
          </ns3:TrackPointExtension>
        </extensions>
      </trkpt>
      <trkpt lat="42.62167093344032764434814453125" lon="19.91951703093945980072021484375">
        <ele>1064.5999755859375</ele>
        <time>2026-06-16T12:09:05.000Z</time>
        <extensions>
          <ns3:TrackPointExtension>
            <ns3:atemp>21.0</ns3:atemp>
          </ns3:TrackPointExtension>
        </extensions>
      </trkpt>
      <trkpt lat="42.621637992560863494873046875" lon="19.91951585747301578521728515625">
        <ele>1063.800048828125</ele>
        <time>2026-06-16T12:09:06.000Z</time>
        <extensions>
          <ns3:TrackPointExtension>
            <ns3:atemp>21.0</ns3:atemp>
          </ns3:TrackPointExtension>
        </extensions>
      </trkpt>
      <trkpt lat="42.6216066442430019378662109375" lon="19.91951082833111286163330078125">
        <ele>1063.199951171875</ele>
        <time>2026-06-16T12:09:07.000Z</time>
        <extensions>
          <ns3:TrackPointExtension>
            <ns3:atemp>21.0</ns3:atemp>
          </ns3:TrackPointExtension>
        </extensions>
      </trkpt>
      <trkpt lat="42.621577642858028411865234375" lon="19.9195202998816967010498046875">
        <ele>1062.199951171875</ele>
        <time>2026-06-16T12:09:08.000Z</time>
        <extensions>
          <ns3:TrackPointExtension>
            <ns3:atemp>21.0</ns3:atemp>
          </ns3:TrackPointExtension>
        </extensions>
      </trkpt>
      <trkpt lat="42.62154201976954936981201171875" lon="19.91952784359455108642578125">
        <ele>1061.4000244140625</ele>
        <time>2026-06-16T12:09:09.000Z</time>
        <extensions>
          <ns3:TrackPointExtension>
            <ns3:atemp>21.0</ns3:atemp>
          </ns3:TrackPointExtension>
        </extensions>
      </trkpt>
      <trkpt lat="42.6215097494423389434814453125" lon="19.9195343814790248870849609375">
        <ele>1060.4000244140625</ele>
        <time>2026-06-16T12:09:10.000Z</time>
        <extensions>
          <ns3:TrackPointExtension>
            <ns3:atemp>21.0</ns3:atemp>
          </ns3:TrackPointExtension>
        </extensions>
      </trkpt>
      <trkpt lat="42.62147697620093822479248046875" lon="19.9195454455912113189697265625">
        <ele>1059.5999755859375</ele>
        <time>2026-06-16T12:09:11.000Z</time>
        <extensions>
          <ns3:TrackPointExtension>
            <ns3:atemp>21.0</ns3:atemp>
          </ns3:TrackPointExtension>
        </extensions>
      </trkpt>
      <trkpt lat="42.6214460469782352447509765625" lon="19.91952675394713878631591796875">
        <ele>1058.5999755859375</ele>
        <time>2026-06-16T12:09:12.000Z</time>
        <extensions>
          <ns3:TrackPointExtension>
            <ns3:atemp>21.0</ns3:atemp>
          </ns3:TrackPointExtension>
        </extensions>
      </trkpt>
      <trkpt lat="42.62141008861362934112548828125" lon="19.919522143900394439697265625">
        <ele>1057.800048828125</ele>
        <time>2026-06-16T12:09:13.000Z</time>
        <extensions>
          <ns3:TrackPointExtension>
            <ns3:atemp>21.0</ns3:atemp>
          </ns3:TrackPointExtension>
        </extensions>
      </trkpt>
      <trkpt lat="42.6213746331632137298583984375" lon="19.91953480057418346405029296875">
        <ele>1056.800048828125</ele>
        <time>2026-06-16T12:09:14.000Z</time>
        <extensions>
          <ns3:TrackPointExtension>
            <ns3:atemp>21.0</ns3:atemp>
          </ns3:TrackPointExtension>
        </extensions>
      </trkpt>
      <trkpt lat="42.62134035117924213409423828125" lon="19.91953832097351551055908203125">
        <ele>1055.800048828125</ele>
        <time>2026-06-16T12:09:15.000Z</time>
        <extensions>
          <ns3:TrackPointExtension>
            <ns3:atemp>21.0</ns3:atemp>
          </ns3:TrackPointExtension>
        </extensions>
      </trkpt>
      <trkpt lat="42.62130238115787506103515625" lon="19.91953278891742229461669921875">
        <ele>1054.5999755859375</ele>
        <time>2026-06-16T12:09:16.000Z</time>
        <extensions>
          <ns3:TrackPointExtension>
            <ns3:atemp>21.0</ns3:atemp>
          </ns3:TrackPointExtension>
        </extensions>
      </trkpt>
      <trkpt lat="42.621265836060047149658203125" lon="19.91952071897685527801513671875">
        <ele>1053.800048828125</ele>
        <time>2026-06-16T12:09:17.000Z</time>
        <extensions>
          <ns3:TrackPointExtension>
            <ns3:atemp>21.0</ns3:atemp>
          </ns3:TrackPointExtension>
        </extensions>
      </trkpt>
      <trkpt lat="42.6212307997047901153564453125" lon="19.91950370371341705322265625">
        <ele>1052.5999755859375</ele>
        <time>2026-06-16T12:09:18.000Z</time>
        <extensions>
          <ns3:TrackPointExtension>
            <ns3:atemp>21.0</ns3:atemp>
          </ns3:TrackPointExtension>
        </extensions>
      </trkpt>
      <trkpt lat="42.62120045721530914306640625" lon="19.9194882810115814208984375">
        <ele>1051.5999755859375</ele>
        <time>2026-06-16T12:09:19.000Z</time>
        <extensions>
          <ns3:TrackPointExtension>
            <ns3:atemp>21.0</ns3:atemp>
          </ns3:TrackPointExtension>
        </extensions>
      </trkpt>
      <trkpt lat="42.6211684383451938629150390625" lon="19.91946883499622344970703125">
        <ele>1050.5999755859375</ele>
        <time>2026-06-16T12:09:20.000Z</time>
        <extensions>
          <ns3:TrackPointExtension>
            <ns3:atemp>21.0</ns3:atemp>
          </ns3:TrackPointExtension>
        </extensions>
      </trkpt>
      <trkpt lat="42.62113750912249088287353515625" lon="19.9194458685815334320068359375">
        <ele>1049.800048828125</ele>
        <time>2026-06-16T12:09:21.000Z</time>
        <extensions>
          <ns3:TrackPointExtension>
            <ns3:atemp>21.0</ns3:atemp>
          </ns3:TrackPointExtension>
        </extensions>
      </trkpt>
      <trkpt lat="42.62110766954720020294189453125" lon="19.91942063905298709869384765625">
        <ele>1048.5999755859375</ele>
        <time>2026-06-16T12:09:22.000Z</time>
        <extensions>
          <ns3:TrackPointExtension>
            <ns3:atemp>21.0</ns3:atemp>
          </ns3:TrackPointExtension>
        </extensions>
      </trkpt>
      <trkpt lat="42.6210752315819263458251953125" lon="19.9193949066102504730224609375">
        <ele>1047.5999755859375</ele>
        <time>2026-06-16T12:09:23.000Z</time>
        <extensions>
          <ns3:TrackPointExtension>
            <ns3:atemp>21.0</ns3:atemp>
          </ns3:TrackPointExtension>
        </extensions>
      </trkpt>
      <trkpt lat="42.6210406981408596038818359375" lon="19.9193674139678478240966796875">
        <ele>1046.800048828125</ele>
        <time>2026-06-16T12:09:24.000Z</time>
        <extensions>
          <ns3:TrackPointExtension>
            <ns3:atemp>21.0</ns3:atemp>
          </ns3:TrackPointExtension>
        </extensions>
      </trkpt>
      <trkpt lat="42.62100205756723880767822265625" lon="19.91935978643596172332763671875">
        <ele>1046</ele>
        <time>2026-06-16T12:09:25.000Z</time>
        <extensions>
          <ns3:TrackPointExtension>
            <ns3:atemp>21.0</ns3:atemp>
          </ns3:TrackPointExtension>
        </extensions>
      </trkpt>
      <trkpt lat="42.6209562085568904876708984375" lon="19.91934620775282382965087890625">
        <ele>1045</ele>
        <time>2026-06-16T12:09:26.000Z</time>
        <extensions>
          <ns3:TrackPointExtension>
            <ns3:atemp>21.0</ns3:atemp>
          </ns3:TrackPointExtension>
        </extensions>
      </trkpt>
      <trkpt lat="42.62091572396457195281982421875" lon="19.91933581419289112091064453125">
        <ele>1044.199951171875</ele>
        <time>2026-06-16T12:09:27.000Z</time>
        <extensions>
          <ns3:TrackPointExtension>
            <ns3:atemp>21.0</ns3:atemp>
          </ns3:TrackPointExtension>
        </extensions>
      </trkpt>
      <trkpt lat="42.62087850831449031829833984375" lon="19.9193300306797027587890625">
        <ele>1043</ele>
        <time>2026-06-16T12:09:28.000Z</time>
        <extensions>
          <ns3:TrackPointExtension>
            <ns3:atemp>21.0</ns3:atemp>
          </ns3:TrackPointExtension>
        </extensions>
      </trkpt>
      <trkpt lat="42.62084699235856533050537109375" lon="19.91933816112577915191650390625">
        <ele>1042.199951171875</ele>
        <time>2026-06-16T12:09:29.000Z</time>
        <extensions>
          <ns3:TrackPointExtension>
            <ns3:atemp>21.0</ns3:atemp>
          </ns3:TrackPointExtension>
        </extensions>
      </trkpt>
      <trkpt lat="42.62081287801265716552734375" lon="19.9193389154970645904541015625">
        <ele>1041.4000244140625</ele>
        <time>2026-06-16T12:09:30.000Z</time>
        <extensions>
          <ns3:TrackPointExtension>
            <ns3:atemp>21.0</ns3:atemp>
          </ns3:TrackPointExtension>
        </extensions>
      </trkpt>
      <trkpt lat="42.620778344571590423583984375" lon="19.9193399213254451751708984375">
        <ele>1040.5999755859375</ele>
        <time>2026-06-16T12:09:31.000Z</time>
        <extensions>
          <ns3:TrackPointExtension>
            <ns3:atemp>21.0</ns3:atemp>
          </ns3:TrackPointExtension>
        </extensions>
      </trkpt>
      <trkpt lat="42.62074791826307773590087890625" lon="19.91933883167803287506103515625">
        <ele>1039.800048828125</ele>
        <time>2026-06-16T12:09:32.000Z</time>
        <extensions>
          <ns3:TrackPointExtension>
            <ns3:atemp>21.0</ns3:atemp>
          </ns3:TrackPointExtension>
        </extensions>
      </trkpt>
      <trkpt lat="42.62071631848812103271484375" lon="19.91933313198387622833251953125">
        <ele>1039</ele>
        <time>2026-06-16T12:09:33.000Z</time>
        <extensions>
          <ns3:TrackPointExtension>
            <ns3:atemp>21.0</ns3:atemp>
          </ns3:TrackPointExtension>
        </extensions>
      </trkpt>
      <trkpt lat="42.62067667208611965179443359375" lon="19.91933195851743221282958984375">
        <ele>1037.800048828125</ele>
        <time>2026-06-16T12:09:34.000Z</time>
        <extensions>
          <ns3:TrackPointExtension>
            <ns3:atemp>21.0</ns3:atemp>
          </ns3:TrackPointExtension>
        </extensions>
      </trkpt>
      <trkpt lat="42.620649598538875579833984375" lon="19.91932810284197330474853515625">
        <ele>1037</ele>
        <time>2026-06-16T12:09:35.000Z</time>
        <extensions>
          <ns3:TrackPointExtension>
            <ns3:atemp>21.0</ns3:atemp>
          </ns3:TrackPointExtension>
        </extensions>
      </trkpt>
      <trkpt lat="42.62061112560331821441650390625" lon="19.9193228222429752349853515625">
        <ele>1036.4000244140625</ele>
        <time>2026-06-16T12:09:36.000Z</time>
        <extensions>
          <ns3:TrackPointExtension>
            <ns3:atemp>21.0</ns3:atemp>
          </ns3:TrackPointExtension>
        </extensions>
      </trkpt>
      <trkpt lat="42.62057022191584110260009765625" lon="19.91931687109172344207763671875">
        <ele>1035.4000244140625</ele>
        <time>2026-06-16T12:09:37.000Z</time>
        <extensions>
          <ns3:TrackPointExtension>
            <ns3:atemp>21.0</ns3:atemp>
          </ns3:TrackPointExtension>
        </extensions>
      </trkpt>
      <trkpt lat="42.620534598827362060546875" lon="19.9193077348172664642333984375">
        <ele>1034.5999755859375</ele>
        <time>2026-06-16T12:09:38.000Z</time>
        <extensions>
          <ns3:TrackPointExtension>
            <ns3:atemp>21.0</ns3:atemp>
          </ns3:TrackPointExtension>
        </extensions>
      </trkpt>
      <trkpt lat="42.62049931101500988006591796875" lon="19.91930228658020496368408203125">
        <ele>1033.800048828125</ele>
        <time>2026-06-16T12:09:39.000Z</time>
        <extensions>
          <ns3:TrackPointExtension>
            <ns3:atemp>21.0</ns3:atemp>
          </ns3:TrackPointExtension>
        </extensions>
      </trkpt>
      <trkpt lat="42.62047098018229007720947265625" lon="19.9193013645708560943603515625">
        <ele>1032.800048828125</ele>
        <time>2026-06-16T12:09:40.000Z</time>
        <extensions>
          <ns3:TrackPointExtension>
            <ns3:atemp>21.0</ns3:atemp>
          </ns3:TrackPointExtension>
        </extensions>
      </trkpt>
      <trkpt lat="42.62043979950249195098876953125" lon="19.91929574869573116302490234375">
        <ele>1031.800048828125</ele>
        <time>2026-06-16T12:09:41.000Z</time>
        <extensions>
          <ns3:TrackPointExtension>
            <ns3:atemp>21.0</ns3:atemp>
          </ns3:TrackPointExtension>
        </extensions>
      </trkpt>
      <trkpt lat="42.620402835309505462646484375" lon="19.91930178366601467132568359375">
        <ele>1031</ele>
        <time>2026-06-16T12:09:42.000Z</time>
        <extensions>
          <ns3:TrackPointExtension>
            <ns3:atemp>21.0</ns3:atemp>
          </ns3:TrackPointExtension>
        </extensions>
      </trkpt>
      <trkpt lat="42.6203664578497409820556640625" lon="19.91930211894214153289794921875">
        <ele>1030.199951171875</ele>
        <time>2026-06-16T12:09:43.000Z</time>
        <extensions>
          <ns3:TrackPointExtension>
            <ns3:atemp>21.0</ns3:atemp>
          </ns3:TrackPointExtension>
        </extensions>
      </trkpt>
      <trkpt lat="42.62033385224640369415283203125" lon="19.919302873313426971435546875">
        <ele>1029.4000244140625</ele>
        <time>2026-06-16T12:09:44.000Z</time>
        <extensions>
          <ns3:TrackPointExtension>
            <ns3:atemp>21.0</ns3:atemp>
          </ns3:TrackPointExtension>
        </extensions>
      </trkpt>
      <trkpt lat="42.620301581919193267822265625" lon="19.91931083612143993377685546875">
        <ele>1028.5999755859375</ele>
        <time>2026-06-16T12:09:45.000Z</time>
        <extensions>
          <ns3:TrackPointExtension>
            <ns3:atemp>21.0</ns3:atemp>
          </ns3:TrackPointExtension>
        </extensions>
      </trkpt>
      <trkpt lat="42.62027216143906116485595703125" lon="19.91932005621492862701416015625">
        <ele>1027.800048828125</ele>
        <time>2026-06-16T12:09:46.000Z</time>
        <extensions>
          <ns3:TrackPointExtension>
            <ns3:atemp>21.0</ns3:atemp>
          </ns3:TrackPointExtension>
        </extensions>
      </trkpt>
      <trkpt lat="42.62024936266243457794189453125" lon="19.919333718717098236083984375">
        <ele>1027</ele>
        <time>2026-06-16T12:09:47.000Z</time>
        <extensions>
          <ns3:TrackPointExtension>
            <ns3:atemp>21.0</ns3:atemp>
          </ns3:TrackPointExtension>
        </extensions>
      </trkpt>
      <trkpt lat="42.6202261447906494140625" lon="19.91934637539088726043701171875">
        <ele>1026.4000244140625</ele>
        <time>2026-06-16T12:09:48.000Z</time>
        <extensions>
          <ns3:TrackPointExtension>
            <ns3:atemp>21.0</ns3:atemp>
          </ns3:TrackPointExtension>
        </extensions>
      </trkpt>
      <trkpt lat="42.6202015019953250885009765625" lon="19.91936397738754749298095703125">
        <ele>1025.5999755859375</ele>
        <time>2026-06-16T12:09:49.000Z</time>
        <extensions>
          <ns3:TrackPointExtension>
            <ns3:atemp>21.0</ns3:atemp>
          </ns3:TrackPointExtension>
        </extensions>
      </trkpt>
      <trkpt lat="42.62017912231385707855224609375" lon="19.919386021792888641357421875">
        <ele>1025</ele>
        <time>2026-06-16T12:09:50.000Z</time>
        <extensions>
          <ns3:TrackPointExtension>
            <ns3:atemp>21.0</ns3:atemp>
          </ns3:TrackPointExtension>
        </extensions>
      </trkpt>
      <trkpt lat="42.62015850283205509185791015625" lon="19.9194012768566608428955078125">
        <ele>1024.4000244140625</ele>
        <time>2026-06-16T12:09:51.000Z</time>
        <extensions>
          <ns3:TrackPointExtension>
            <ns3:atemp>21.0</ns3:atemp>
          </ns3:TrackPointExtension>
        </extensions>
      </trkpt>
      <trkpt lat="42.62013888917863368988037109375" lon="19.9194197170436382293701171875">
        <ele>1023.5999755859375</ele>
        <time>2026-06-16T12:09:52.000Z</time>
        <extensions>
          <ns3:TrackPointExtension>
            <ns3:atemp>21.0</ns3:atemp>
          </ns3:TrackPointExtension>
        </extensions>
      </trkpt>
      <trkpt lat="42.62011659331619739532470703125" lon="19.9194453656673431396484375">
        <ele>1023</ele>
        <time>2026-06-16T12:09:53.000Z</time>
        <extensions>
          <ns3:TrackPointExtension>
            <ns3:atemp>21.0</ns3:atemp>
          </ns3:TrackPointExtension>
        </extensions>
      </trkpt>
      <trkpt lat="42.62009647674858570098876953125" lon="19.91946992464363574981689453125">
        <ele>1022.4000244140625</ele>
        <time>2026-06-16T12:09:54.000Z</time>
        <extensions>
          <ns3:TrackPointExtension>
            <ns3:atemp>21.0</ns3:atemp>
          </ns3:TrackPointExtension>
        </extensions>
      </trkpt>
      <trkpt lat="42.6200787909328937530517578125" lon="19.919492639601230621337890625">
        <ele>1021.79998779296875</ele>
        <time>2026-06-16T12:09:55.000Z</time>
        <extensions>
          <ns3:TrackPointExtension>
            <ns3:atemp>21.0</ns3:atemp>
          </ns3:TrackPointExtension>
        </extensions>
      </trkpt>
      <trkpt lat="42.6200596801936626434326171875" lon="19.91951434873044490814208984375">
        <ele>1021.20001220703125</ele>
        <time>2026-06-16T12:09:56.000Z</time>
        <extensions>
          <ns3:TrackPointExtension>
            <ns3:atemp>21.0</ns3:atemp>
          </ns3:TrackPointExtension>
        </extensions>
      </trkpt>
      <trkpt lat="42.6200432516634464263916015625" lon="19.91953345946967601776123046875">
        <ele>1020.4000244140625</ele>
        <time>2026-06-16T12:09:57.000Z</time>
        <extensions>
          <ns3:TrackPointExtension>
            <ns3:atemp>21.0</ns3:atemp>
          </ns3:TrackPointExtension>
        </extensions>
      </trkpt>
      <trkpt lat="42.6200281642377376556396484375" lon="19.91955273784697055816650390625">
        <ele>1019.5999755859375</ele>
        <time>2026-06-16T12:09:58.000Z</time>
        <extensions>
          <ns3:TrackPointExtension>
            <ns3:atemp>21.0</ns3:atemp>
          </ns3:TrackPointExtension>
        </extensions>
      </trkpt>
      <trkpt lat="42.62001081369817256927490234375" lon="19.91956950165331363677978515625">
        <ele>1019</ele>
        <time>2026-06-16T12:09:59.000Z</time>
        <extensions>
          <ns3:TrackPointExtension>
            <ns3:atemp>21.0</ns3:atemp>
          </ns3:TrackPointExtension>
        </extensions>
      </trkpt>
      <trkpt lat="42.620005197823047637939453125" lon="19.919573776423931121826171875">
        <ele>1018.5999755859375</ele>
        <time>2026-06-16T12:10:00.000Z</time>
        <extensions>
          <ns3:TrackPointExtension>
            <ns3:atemp>21.0</ns3:atemp>
          </ns3:TrackPointExtension>
        </extensions>
      </trkpt>
      <trkpt lat="42.62000511400401592254638671875" lon="19.91957386024296283721923828125">
        <ele>1018</ele>
        <time>2026-06-16T12:10:01.000Z</time>
        <extensions>
          <ns3:TrackPointExtension>
            <ns3:atemp>21.0</ns3:atemp>
          </ns3:TrackPointExtension>
        </extensions>
      </trkpt>
      <trkpt lat="42.61999254114925861358642578125" lon="19.9195977486670017242431640625">
        <ele>1017.4000244140625</ele>
        <time>2026-06-16T12:10:02.000Z</time>
        <extensions>
          <ns3:TrackPointExtension>
            <ns3:atemp>21.0</ns3:atemp>
          </ns3:TrackPointExtension>
        </extensions>
      </trkpt>
      <trkpt lat="42.6199728436768054962158203125" lon="19.91962800733745098114013671875">
        <ele>1017</ele>
        <time>2026-06-16T12:10:03.000Z</time>
        <extensions>
          <ns3:TrackPointExtension>
            <ns3:atemp>21.0</ns3:atemp>
          </ns3:TrackPointExtension>
        </extensions>
      </trkpt>
      <trkpt lat="42.61995549313724040985107421875" lon="19.91965591907501220703125">
        <ele>1016.4000244140625</ele>
        <time>2026-06-16T12:10:04.000Z</time>
        <extensions>
          <ns3:TrackPointExtension>
            <ns3:atemp>21.0</ns3:atemp>
          </ns3:TrackPointExtension>
        </extensions>
      </trkpt>
      <trkpt lat="42.61994241736829280853271484375" lon="19.919679053127765655517578125">
        <ele>1016</ele>
        <time>2026-06-16T12:10:05.000Z</time>
        <extensions>
          <ns3:TrackPointExtension>
            <ns3:atemp>21.0</ns3:atemp>
          </ns3:TrackPointExtension>
        </extensions>
      </trkpt>
      <trkpt lat="42.61993177235126495361328125" lon="19.9197001755237579345703125">
        <ele>1015.4000244140625</ele>
        <time>2026-06-16T12:10:06.000Z</time>
        <extensions>
          <ns3:TrackPointExtension>
            <ns3:atemp>21.0</ns3:atemp>
          </ns3:TrackPointExtension>
        </extensions>
      </trkpt>
      <trkpt lat="42.6199185289442539215087890625" lon="19.9197244830429553985595703125">
        <ele>1015</ele>
        <time>2026-06-16T12:10:07.000Z</time>
        <extensions>
          <ns3:TrackPointExtension>
            <ns3:atemp>21.0</ns3:atemp>
          </ns3:TrackPointExtension>
        </extensions>
      </trkpt>
      <trkpt lat="42.61990285478532314300537109375" lon="19.91974853910505771636962890625">
        <ele>1014.5999755859375</ele>
        <time>2026-06-16T12:10:08.000Z</time>
        <extensions>
          <ns3:TrackPointExtension>
            <ns3:atemp>21.0</ns3:atemp>
          </ns3:TrackPointExtension>
        </extensions>
      </trkpt>
      <trkpt lat="42.6198900304734706878662109375" lon="19.91977049969136714935302734375">
        <ele>1014</ele>
        <time>2026-06-16T12:10:09.000Z</time>
        <extensions>
          <ns3:TrackPointExtension>
            <ns3:atemp>21.0</ns3:atemp>
          </ns3:TrackPointExtension>
        </extensions>
      </trkpt>
      <trkpt lat="42.6198759488761425018310546875" lon="19.91979011334478855133056640625">
        <ele>1013.4000244140625</ele>
        <time>2026-06-16T12:10:10.000Z</time>
        <extensions>
          <ns3:TrackPointExtension>
            <ns3:atemp>21.0</ns3:atemp>
          </ns3:TrackPointExtension>
        </extensions>
      </trkpt>
      <trkpt lat="42.61986547149717807769775390625" lon="19.91980838589370250701904296875">
        <ele>1013</ele>
        <time>2026-06-16T12:10:11.000Z</time>
        <extensions>
          <ns3:TrackPointExtension>
            <ns3:atemp>21.0</ns3:atemp>
          </ns3:TrackPointExtension>
        </extensions>
      </trkpt>
      <trkpt lat="42.61985306628048419952392578125" lon="19.9198311008512973785400390625">
        <ele>1012.4000244140625</ele>
        <time>2026-06-16T12:10:12.000Z</time>
        <extensions>
          <ns3:TrackPointExtension>
            <ns3:atemp>21.0</ns3:atemp>
          </ns3:TrackPointExtension>
        </extensions>
      </trkpt>
      <trkpt lat="42.6198387332260608673095703125" lon="19.919852055609226226806640625">
        <ele>1012</ele>
        <time>2026-06-16T12:10:13.000Z</time>
        <extensions>
          <ns3:TrackPointExtension>
            <ns3:atemp>21.0</ns3:atemp>
          </ns3:TrackPointExtension>
        </extensions>
      </trkpt>
      <trkpt lat="42.61982389725744724273681640625" lon="19.91987611167132854461669921875">
        <ele>1011.4000244140625</ele>
        <time>2026-06-16T12:10:14.000Z</time>
        <extensions>
          <ns3:TrackPointExtension>
            <ns3:atemp>21.0</ns3:atemp>
          </ns3:TrackPointExtension>
        </extensions>
      </trkpt>
      <trkpt lat="42.619814760982990264892578125" lon="19.91989170201122760772705078125">
        <ele>1010.79998779296875</ele>
        <time>2026-06-16T12:10:15.000Z</time>
        <extensions>
          <ns3:TrackPointExtension>
            <ns3:atemp>21.0</ns3:atemp>
          </ns3:TrackPointExtension>
        </extensions>
      </trkpt>
      <trkpt lat="42.61981165967881679534912109375" lon="19.9199048615992069244384765625">
        <ele>1010.4000244140625</ele>
        <time>2026-06-16T12:10:16.000Z</time>
        <extensions>
          <ns3:TrackPointExtension>
            <ns3:atemp>21.0</ns3:atemp>
          </ns3:TrackPointExtension>
        </extensions>
      </trkpt>
      <trkpt lat="42.61980629526078701019287109375" lon="19.919913075864315032958984375">
        <ele>1010</ele>
        <time>2026-06-16T12:10:17.000Z</time>
        <extensions>
          <ns3:TrackPointExtension>
            <ns3:atemp>21.0</ns3:atemp>
          </ns3:TrackPointExtension>
        </extensions>
      </trkpt>
      <trkpt lat="42.6197981648147106170654296875" lon="19.91992707364261150360107421875">
        <ele>1009.5999755859375</ele>
        <time>2026-06-16T12:10:18.000Z</time>
        <extensions>
          <ns3:TrackPointExtension>
            <ns3:atemp>21.0</ns3:atemp>
          </ns3:TrackPointExtension>
        </extensions>
      </trkpt>
      <trkpt lat="42.61979774571955204010009765625" lon="19.91994769312441349029541015625">
        <ele>1009.20001220703125</ele>
        <time>2026-06-16T12:10:19.000Z</time>
        <extensions>
          <ns3:TrackPointExtension>
            <ns3:atemp>21.0</ns3:atemp>
          </ns3:TrackPointExtension>
        </extensions>
      </trkpt>
      <trkpt lat="42.61978114955127239227294921875" lon="19.919981472194194793701171875">
        <ele>1008.5999755859375</ele>
        <time>2026-06-16T12:10:20.000Z</time>
        <extensions>
          <ns3:TrackPointExtension>
            <ns3:atemp>21.0</ns3:atemp>
          </ns3:TrackPointExtension>
        </extensions>
      </trkpt>
      <trkpt lat="42.61976681649684906005859375" lon="19.9200061149895191192626953125">
        <ele>1008</ele>
        <time>2026-06-16T12:10:21.000Z</time>
        <extensions>
          <ns3:TrackPointExtension>
            <ns3:atemp>21.0</ns3:atemp>
          </ns3:TrackPointExtension>
        </extensions>
      </trkpt>
      <trkpt lat="42.61975784786045551300048828125" lon="19.920022375881671905517578125">
        <ele>1007.4000244140625</ele>
        <time>2026-06-16T12:10:22.000Z</time>
        <extensions>
          <ns3:TrackPointExtension>
            <ns3:atemp>21.0</ns3:atemp>
          </ns3:TrackPointExtension>
        </extensions>
      </trkpt>
      <trkpt lat="42.61975248344242572784423828125" lon="19.920036792755126953125">
        <ele>1006.79998779296875</ele>
        <time>2026-06-16T12:10:23.000Z</time>
        <extensions>
          <ns3:TrackPointExtension>
            <ns3:atemp>21.0</ns3:atemp>
          </ns3:TrackPointExtension>
        </extensions>
      </trkpt>
      <trkpt lat="42.61974125169217586517333984375" lon="19.920048527419567108154296875">
        <ele>1006.20001220703125</ele>
        <time>2026-06-16T12:10:24.000Z</time>
        <extensions>
          <ns3:TrackPointExtension>
            <ns3:atemp>21.0</ns3:atemp>
          </ns3:TrackPointExtension>
        </extensions>
      </trkpt>
      <trkpt lat="42.61972767300903797149658203125" lon="19.92007660679519176483154296875">
        <ele>1005.5999755859375</ele>
        <time>2026-06-16T12:10:25.000Z</time>
        <extensions>
          <ns3:TrackPointExtension>
            <ns3:atemp>21.0</ns3:atemp>
          </ns3:TrackPointExtension>
        </extensions>
      </trkpt>
      <trkpt lat="42.61970839463174343109130859375" lon="19.92010812275111675262451171875">
        <ele>1005</ele>
        <time>2026-06-16T12:10:26.000Z</time>
        <extensions>
          <ns3:TrackPointExtension>
            <ns3:atemp>21.0</ns3:atemp>
          </ns3:TrackPointExtension>
        </extensions>
      </trkpt>
      <trkpt lat="42.6196925528347492218017578125" lon="19.9201392196118831634521484375">
        <ele>1004</ele>
        <time>2026-06-16T12:10:27.000Z</time>
        <extensions>
          <ns3:TrackPointExtension>
            <ns3:atemp>21.0</ns3:atemp>
          </ns3:TrackPointExtension>
        </extensions>
      </trkpt>
      <trkpt lat="42.61968274600803852081298828125" lon="19.92015522904694080352783203125">
        <ele>1003.4000244140625</ele>
        <time>2026-06-16T12:10:28.000Z</time>
        <extensions>
          <ns3:TrackPointExtension>
            <ns3:atemp>21.0</ns3:atemp>
          </ns3:TrackPointExtension>
        </extensions>
      </trkpt>
      <trkpt lat="42.61967738159000873565673828125" lon="19.92017065174877643585205078125">
        <ele>1002.5999755859375</ele>
        <time>2026-06-16T12:10:29.000Z</time>
        <extensions>
          <ns3:TrackPointExtension>
            <ns3:atemp>21.0</ns3:atemp>
          </ns3:TrackPointExtension>
        </extensions>
      </trkpt>
      <trkpt lat="42.619666568934917449951171875" lon="19.9201858229935169219970703125">
        <ele>1002</ele>
        <time>2026-06-16T12:10:30.000Z</time>
        <extensions>
          <ns3:TrackPointExtension>
            <ns3:atemp>21.0</ns3:atemp>
          </ns3:TrackPointExtension>
        </extensions>
      </trkpt>
      <trkpt lat="42.6196489669382572174072265625" lon="19.92020937614142894744873046875">
        <ele>1001.4000244140625</ele>
        <time>2026-06-16T12:10:31.000Z</time>
        <extensions>
          <ns3:TrackPointExtension>
            <ns3:atemp>21.0</ns3:atemp>
          </ns3:TrackPointExtension>
        </extensions>
      </trkpt>
      <trkpt lat="42.619633711874485015869140625" lon="19.920232929289340972900390625">
        <ele>1000.5999755859375</ele>
        <time>2026-06-16T12:10:32.000Z</time>
        <extensions>
          <ns3:TrackPointExtension>
            <ns3:atemp>21.0</ns3:atemp>
          </ns3:TrackPointExtension>
        </extensions>
      </trkpt>
      <trkpt lat="42.6196164451539516448974609375" lon="19.92025204002857208251953125">
        <ele>999.79998779296875</ele>
        <time>2026-06-16T12:10:33.000Z</time>
        <extensions>
          <ns3:TrackPointExtension>
            <ns3:atemp>21.0</ns3:atemp>
          </ns3:TrackPointExtension>
        </extensions>
      </trkpt>
      <trkpt lat="42.619605548679828643798828125" lon="19.92026922293007373809814453125">
        <ele>999</ele>
        <time>2026-06-16T12:10:34.000Z</time>
        <extensions>
          <ns3:TrackPointExtension>
            <ns3:atemp>21.0</ns3:atemp>
          </ns3:TrackPointExtension>
        </extensions>
      </trkpt>
      <trkpt lat="42.619592808187007904052734375" lon="19.92028129287064075469970703125">
        <ele>998.20001220703125</ele>
        <time>2026-06-16T12:10:35.000Z</time>
        <extensions>
          <ns3:TrackPointExtension>
            <ns3:atemp>21.0</ns3:atemp>
          </ns3:TrackPointExtension>
        </extensions>
      </trkpt>
      <trkpt lat="42.61958333663642406463623046875" lon="19.92029872722923755645751953125">
        <ele>997.4000244140625</ele>
        <time>2026-06-16T12:10:36.000Z</time>
        <extensions>
          <ns3:TrackPointExtension>
            <ns3:atemp>21.0</ns3:atemp>
          </ns3:TrackPointExtension>
        </extensions>
      </trkpt>
      <trkpt lat="42.6195755414664745330810546875" lon="19.92032102309167385101318359375">
        <ele>996.79998779296875</ele>
        <time>2026-06-16T12:10:37.000Z</time>
        <extensions>
          <ns3:TrackPointExtension>
            <ns3:atemp>21.0</ns3:atemp>
          </ns3:TrackPointExtension>
        </extensions>
      </trkpt>
      <trkpt lat="42.61956439353525638580322265625" lon="19.92034030146896839141845703125">
        <ele>996</ele>
        <time>2026-06-16T12:10:38.000Z</time>
        <extensions>
          <ns3:TrackPointExtension>
            <ns3:atemp>21.0</ns3:atemp>
          </ns3:TrackPointExtension>
        </extensions>
      </trkpt>
      <trkpt lat="42.61955752037465572357177734375" lon="19.920362345874309539794921875">
        <ele>995</ele>
        <time>2026-06-16T12:10:39.000Z</time>
        <extensions>
          <ns3:TrackPointExtension>
            <ns3:atemp>21.0</ns3:atemp>
          </ns3:TrackPointExtension>
        </extensions>
      </trkpt>
      <trkpt lat="42.61955198831856250762939453125" lon="19.920387826859951019287109375">
        <ele>994.20001220703125</ele>
        <time>2026-06-16T12:10:40.000Z</time>
        <extensions>
          <ns3:TrackPointExtension>
            <ns3:atemp>21.0</ns3:atemp>
          </ns3:TrackPointExtension>
        </extensions>
      </trkpt>
      <trkpt lat="42.61955215595662593841552734375" lon="19.92042026482522487640380859375">
        <ele>993.4000244140625</ele>
        <time>2026-06-16T12:10:41.000Z</time>
        <extensions>
          <ns3:TrackPointExtension>
            <ns3:atemp>21.0</ns3:atemp>
          </ns3:TrackPointExtension>
        </extensions>
      </trkpt>
      <trkpt lat="42.619551904499530792236328125" lon="19.920453540980815887451171875">
        <ele>992.5999755859375</ele>
        <time>2026-06-16T12:10:42.000Z</time>
        <extensions>
          <ns3:TrackPointExtension>
            <ns3:atemp>21.0</ns3:atemp>
          </ns3:TrackPointExtension>
        </extensions>
      </trkpt>
      <trkpt lat="42.61955366469919681549072265625" lon="19.92047189734876155853271484375">
        <ele>991.79998779296875</ele>
        <time>2026-06-16T12:10:43.000Z</time>
        <extensions>
          <ns3:TrackPointExtension>
            <ns3:atemp>21.0</ns3:atemp>
          </ns3:TrackPointExtension>
        </extensions>
      </trkpt>
      <trkpt lat="42.61955634690821170806884765625" lon="19.9204912595450878143310546875">
        <ele>991</ele>
        <time>2026-06-16T12:10:44.000Z</time>
        <extensions>
          <ns3:TrackPointExtension>
            <ns3:atemp>21.0</ns3:atemp>
          </ns3:TrackPointExtension>
        </extensions>
      </trkpt>
      <trkpt lat="42.619556598365306854248046875" lon="19.92050559259951114654541015625">
        <ele>990</ele>
        <time>2026-06-16T12:10:45.000Z</time>
        <extensions>
          <ns3:TrackPointExtension>
            <ns3:atemp>21.0</ns3:atemp>
          </ns3:TrackPointExtension>
        </extensions>
      </trkpt>
      <trkpt lat="42.619552910327911376953125" lon="19.9205217696726322174072265625">
        <ele>989.4000244140625</ele>
        <time>2026-06-16T12:10:46.000Z</time>
        <extensions>
          <ns3:TrackPointExtension>
            <ns3:atemp>21.0</ns3:atemp>
          </ns3:TrackPointExtension>
        </extensions>
      </trkpt>
      <trkpt lat="42.61955332942306995391845703125" lon="19.920542724430561065673828125">
        <ele>988.79998779296875</ele>
        <time>2026-06-16T12:10:47.000Z</time>
        <extensions>
          <ns3:TrackPointExtension>
            <ns3:atemp>21.0</ns3:atemp>
          </ns3:TrackPointExtension>
        </extensions>
      </trkpt>
      <trkpt lat="42.61954712681472301483154296875" lon="19.92056577466428279876708984375">
        <ele>988.20001220703125</ele>
        <time>2026-06-16T12:10:48.000Z</time>
        <extensions>
          <ns3:TrackPointExtension>
            <ns3:atemp>21.0</ns3:atemp>
          </ns3:TrackPointExtension>
        </extensions>
      </trkpt>
      <trkpt lat="42.6195530779659748077392578125" lon="19.9205772578716278076171875">
        <ele>987.4000244140625</ele>
        <time>2026-06-16T12:10:49.000Z</time>
        <extensions>
          <ns3:TrackPointExtension>
            <ns3:atemp>21.0</ns3:atemp>
          </ns3:TrackPointExtension>
        </extensions>
      </trkpt>
      <trkpt lat="42.61955433525145053863525390625" lon="19.92058656178414821624755859375">
        <ele>986.79998779296875</ele>
        <time>2026-06-16T12:10:50.000Z</time>
        <extensions>
          <ns3:TrackPointExtension>
            <ns3:atemp>21.0</ns3:atemp>
          </ns3:TrackPointExtension>
        </extensions>
      </trkpt>
      <trkpt lat="42.61955249123275279998779296875" lon="19.92059511132538318634033203125">
        <ele>986</ele>
        <time>2026-06-16T12:10:51.000Z</time>
        <extensions>
          <ns3:TrackPointExtension>
            <ns3:atemp>21.0</ns3:atemp>
          </ns3:TrackPointExtension>
        </extensions>
      </trkpt>
      <trkpt lat="42.61955014429986476898193359375" lon="19.9206072650849819183349609375">
        <ele>985.5999755859375</ele>
        <time>2026-06-16T12:10:52.000Z</time>
        <extensions>
          <ns3:TrackPointExtension>
            <ns3:atemp>21.0</ns3:atemp>
          </ns3:TrackPointExtension>
        </extensions>
      </trkpt>
      <trkpt lat="42.61954209767282009124755859375" lon="19.92062620818614959716796875">
        <ele>985</ele>
        <time>2026-06-16T12:10:53.000Z</time>
        <extensions>
          <ns3:TrackPointExtension>
            <ns3:atemp>21.0</ns3:atemp>
          </ns3:TrackPointExtension>
        </extensions>
      </trkpt>
      <trkpt lat="42.61953455395996570587158203125" lon="19.9206428043544292449951171875">
        <ele>984.79998779296875</ele>
        <time>2026-06-16T12:10:54.000Z</time>
        <extensions>
          <ns3:TrackPointExtension>
            <ns3:atemp>21.0</ns3:atemp>
          </ns3:TrackPointExtension>
        </extensions>
      </trkpt>
      <trkpt lat="42.61952935717999935150146484375" lon="19.9206558801233768463134765625">
        <ele>984.4000244140625</ele>
        <time>2026-06-16T12:10:55.000Z</time>
        <extensions>
          <ns3:TrackPointExtension>
            <ns3:atemp>21.0</ns3:atemp>
          </ns3:TrackPointExtension>
        </extensions>
      </trkpt>
      <trkpt lat="42.6195262558758258819580078125" lon="19.9206736497581005096435546875">
        <ele>984.20001220703125</ele>
        <time>2026-06-16T12:10:56.000Z</time>
        <extensions>
          <ns3:TrackPointExtension>
            <ns3:atemp>21.0</ns3:atemp>
          </ns3:TrackPointExtension>
        </extensions>
      </trkpt>
      <trkpt lat="42.619523741304874420166015625" lon="19.920680187642574310302734375">
        <ele>983.79998779296875</ele>
        <time>2026-06-16T12:10:57.000Z</time>
        <extensions>
          <ns3:TrackPointExtension>
            <ns3:atemp>21.0</ns3:atemp>
          </ns3:TrackPointExtension>
        </extensions>
      </trkpt>
      <trkpt lat="42.619523741304874420166015625" lon="19.920680187642574310302734375">
        <ele>983.5999755859375</ele>
        <time>2026-06-16T12:10:58.000Z</time>
        <extensions>
          <ns3:TrackPointExtension>
            <ns3:atemp>21.0</ns3:atemp>
          </ns3:TrackPointExtension>
        </extensions>
      </trkpt>
      <trkpt lat="42.619523741304874420166015625" lon="19.920680187642574310302734375">
        <ele>983.4000244140625</ele>
        <time>2026-06-16T12:10:59.000Z</time>
        <extensions>
          <ns3:TrackPointExtension>
            <ns3:atemp>21.0</ns3:atemp>
          </ns3:TrackPointExtension>
        </extensions>
      </trkpt>
      <trkpt lat="42.619523741304874420166015625" lon="19.920680187642574310302734375">
        <ele>983.20001220703125</ele>
        <time>2026-06-16T12:11:00.000Z</time>
        <extensions>
          <ns3:TrackPointExtension>
            <ns3:atemp>21.0</ns3:atemp>
          </ns3:TrackPointExtension>
        </extensions>
      </trkpt>
      <trkpt lat="42.619523741304874420166015625" lon="19.920680187642574310302734375">
        <ele>983</ele>
        <time>2026-06-16T12:11:01.000Z</time>
        <extensions>
          <ns3:TrackPointExtension>
            <ns3:atemp>21.0</ns3:atemp>
          </ns3:TrackPointExtension>
        </extensions>
      </trkpt>
      <trkpt lat="42.619523741304874420166015625" lon="19.920680187642574310302734375">
        <ele>983</ele>
        <time>2026-06-16T12:11:02.000Z</time>
        <extensions>
          <ns3:TrackPointExtension>
            <ns3:atemp>21.0</ns3:atemp>
          </ns3:TrackPointExtension>
        </extensions>
      </trkpt>
      <trkpt lat="42.619523741304874420166015625" lon="19.920680187642574310302734375">
        <ele>983</ele>
        <time>2026-06-16T12:11:03.000Z</time>
        <extensions>
          <ns3:TrackPointExtension>
            <ns3:atemp>21.0</ns3:atemp>
          </ns3:TrackPointExtension>
        </extensions>
      </trkpt>
      <trkpt lat="42.619523741304874420166015625" lon="19.920680187642574310302734375">
        <ele>983</ele>
        <time>2026-06-16T12:11:04.000Z</time>
        <extensions>
          <ns3:TrackPointExtension>
            <ns3:atemp>21.0</ns3:atemp>
          </ns3:TrackPointExtension>
        </extensions>
      </trkpt>
      <trkpt lat="42.619523741304874420166015625" lon="19.920680187642574310302734375">
        <ele>982.79998779296875</ele>
        <time>2026-06-16T12:11:05.000Z</time>
        <extensions>
          <ns3:TrackPointExtension>
            <ns3:atemp>21.0</ns3:atemp>
          </ns3:TrackPointExtension>
        </extensions>
      </trkpt>
      <trkpt lat="42.619523741304874420166015625" lon="19.920680187642574310302734375">
        <ele>982.79998779296875</ele>
        <time>2026-06-16T12:11:06.000Z</time>
        <extensions>
          <ns3:TrackPointExtension>
            <ns3:atemp>21.0</ns3:atemp>
          </ns3:TrackPointExtension>
        </extensions>
      </trkpt>
      <trkpt lat="42.619523741304874420166015625" lon="19.920680187642574310302734375">
        <ele>982.79998779296875</ele>
        <time>2026-06-16T12:11:07.000Z</time>
        <extensions>
          <ns3:TrackPointExtension>
            <ns3:atemp>21.0</ns3:atemp>
          </ns3:TrackPointExtension>
        </extensions>
      </trkpt>
      <trkpt lat="42.619523741304874420166015625" lon="19.920680187642574310302734375">
        <ele>982.79998779296875</ele>
        <time>2026-06-16T12:11:08.000Z</time>
        <extensions>
          <ns3:TrackPointExtension>
            <ns3:atemp>21.0</ns3:atemp>
          </ns3:TrackPointExtension>
        </extensions>
      </trkpt>
      <trkpt lat="42.619523741304874420166015625" lon="19.920680187642574310302734375">
        <ele>982.79998779296875</ele>
        <time>2026-06-16T12:11:09.000Z</time>
        <extensions>
          <ns3:TrackPointExtension>
            <ns3:atemp>21.0</ns3:atemp>
          </ns3:TrackPointExtension>
        </extensions>
      </trkpt>
      <trkpt lat="42.61952181346714496612548828125" lon="19.92068530060350894927978515625">
        <ele>982.5999755859375</ele>
        <time>2026-06-16T12:11:10.000Z</time>
        <extensions>
          <ns3:TrackPointExtension>
            <ns3:atemp>21.0</ns3:atemp>
          </ns3:TrackPointExtension>
        </extensions>
      </trkpt>
      <trkpt lat="42.6195145212113857269287109375" lon="19.920703656971454620361328125">
        <ele>982.5999755859375</ele>
        <time>2026-06-16T12:11:11.000Z</time>
        <extensions>
          <ns3:TrackPointExtension>
            <ns3:atemp>21.0</ns3:atemp>
          </ns3:TrackPointExtension>
        </extensions>
      </trkpt>
      <trkpt lat="42.61951192282140254974365234375" lon="19.920711703598499298095703125">
        <ele>982.4000244140625</ele>
        <time>2026-06-16T12:11:12.000Z</time>
        <extensions>
          <ns3:TrackPointExtension>
            <ns3:atemp>21.0</ns3:atemp>
          </ns3:TrackPointExtension>
        </extensions>
      </trkpt>
      <trkpt lat="42.61951192282140254974365234375" lon="19.9207118712365627288818359375">
        <ele>982.20001220703125</ele>
        <time>2026-06-16T12:11:13.000Z</time>
        <extensions>
          <ns3:TrackPointExtension>
            <ns3:atemp>21.0</ns3:atemp>
          </ns3:TrackPointExtension>
        </extensions>
      </trkpt>
      <trkpt lat="42.61951192282140254974365234375" lon="19.92071212269365787506103515625">
        <ele>982</ele>
        <time>2026-06-16T12:11:14.000Z</time>
        <extensions>
          <ns3:TrackPointExtension>
            <ns3:atemp>21.0</ns3:atemp>
          </ns3:TrackPointExtension>
        </extensions>
      </trkpt>
      <trkpt lat="42.6195061393082141876220703125" lon="19.920729808509349822998046875">
        <ele>981.79998779296875</ele>
        <time>2026-06-16T12:11:15.000Z</time>
        <extensions>
          <ns3:TrackPointExtension>
            <ns3:atemp>21.0</ns3:atemp>
          </ns3:TrackPointExtension>
        </extensions>
      </trkpt>
      <trkpt lat="42.6194816641509532928466796875" lon="19.92074958980083465576171875">
        <ele>981.5999755859375</ele>
        <time>2026-06-16T12:11:16.000Z</time>
        <extensions>
          <ns3:TrackPointExtension>
            <ns3:atemp>21.0</ns3:atemp>
          </ns3:TrackPointExtension>
        </extensions>
      </trkpt>
      <trkpt lat="42.6194652356207370758056640625" lon="19.92075403220951557159423828125">
        <ele>981.20001220703125</ele>
        <time>2026-06-16T12:11:17.000Z</time>
        <extensions>
          <ns3:TrackPointExtension>
            <ns3:atemp>21.0</ns3:atemp>
          </ns3:TrackPointExtension>
        </extensions>
      </trkpt>
      <trkpt lat="42.61946246959269046783447265625" lon="19.92075520567595958709716796875">
        <ele>981</ele>
        <time>2026-06-16T12:11:18.000Z</time>
        <extensions>
          <ns3:TrackPointExtension>
            <ns3:atemp>21.0</ns3:atemp>
          </ns3:TrackPointExtension>
        </extensions>
      </trkpt>
      <trkpt lat="42.6194638945162296295166015625" lon="19.92075302638113498687744140625">
        <ele>980.5999755859375</ele>
        <time>2026-06-16T12:11:19.000Z</time>
        <extensions>
          <ns3:TrackPointExtension>
            <ns3:atemp>21.0</ns3:atemp>
          </ns3:TrackPointExtension>
        </extensions>
      </trkpt>
      <trkpt lat="42.6194638945162296295166015625" lon="19.92075302638113498687744140625">
        <ele>980.4000244140625</ele>
        <time>2026-06-16T12:11:20.000Z</time>
        <extensions>
          <ns3:TrackPointExtension>
            <ns3:atemp>21.0</ns3:atemp>
          </ns3:TrackPointExtension>
        </extensions>
      </trkpt>
      <trkpt lat="42.6194638945162296295166015625" lon="19.92075302638113498687744140625">
        <ele>980.20001220703125</ele>
        <time>2026-06-16T12:11:21.000Z</time>
        <extensions>
          <ns3:TrackPointExtension>
            <ns3:atemp>21.0</ns3:atemp>
          </ns3:TrackPointExtension>
        </extensions>
      </trkpt>
      <trkpt lat="42.6194638945162296295166015625" lon="19.92075302638113498687744140625">
        <ele>980</ele>
        <time>2026-06-16T12:11:22.000Z</time>
        <extensions>
          <ns3:TrackPointExtension>
            <ns3:atemp>21.0</ns3:atemp>
          </ns3:TrackPointExtension>
        </extensions>
      </trkpt>
      <trkpt lat="42.6194638945162296295166015625" lon="19.92075302638113498687744140625">
        <ele>980</ele>
        <time>2026-06-16T12:11:23.000Z</time>
        <extensions>
          <ns3:TrackPointExtension>
            <ns3:atemp>21.0</ns3:atemp>
          </ns3:TrackPointExtension>
        </extensions>
      </trkpt>
      <trkpt lat="42.6194638945162296295166015625" lon="19.92075302638113498687744140625">
        <ele>979.79998779296875</ele>
        <time>2026-06-16T12:11:24.000Z</time>
        <extensions>
          <ns3:TrackPointExtension>
            <ns3:atemp>21.0</ns3:atemp>
          </ns3:TrackPointExtension>
        </extensions>
      </trkpt>
      <trkpt lat="42.6194638945162296295166015625" lon="19.92075302638113498687744140625">
        <ele>979.79998779296875</ele>
        <time>2026-06-16T12:11:25.000Z</time>
        <extensions>
          <ns3:TrackPointExtension>
            <ns3:atemp>21.0</ns3:atemp>
          </ns3:TrackPointExtension>
        </extensions>
      </trkpt>
      <trkpt lat="42.6194638945162296295166015625" lon="19.92075302638113498687744140625">
        <ele>979.5999755859375</ele>
        <time>2026-06-16T12:11:26.000Z</time>
        <extensions>
          <ns3:TrackPointExtension>
            <ns3:atemp>21.0</ns3:atemp>
          </ns3:TrackPointExtension>
        </extensions>
      </trkpt>
      <trkpt lat="42.6194638945162296295166015625" lon="19.92075302638113498687744140625">
        <ele>979.5999755859375</ele>
        <time>2026-06-16T12:11:27.000Z</time>
        <extensions>
          <ns3:TrackPointExtension>
            <ns3:atemp>21.0</ns3:atemp>
          </ns3:TrackPointExtension>
        </extensions>
      </trkpt>
      <trkpt lat="42.6194638945162296295166015625" lon="19.92075302638113498687744140625">
        <ele>979.5999755859375</ele>
        <time>2026-06-16T12:11:28.000Z</time>
        <extensions>
          <ns3:TrackPointExtension>
            <ns3:atemp>21.0</ns3:atemp>
          </ns3:TrackPointExtension>
        </extensions>
      </trkpt>
      <trkpt lat="42.6194638945162296295166015625" lon="19.92075302638113498687744140625">
        <ele>979.4000244140625</ele>
        <time>2026-06-16T12:11:29.000Z</time>
        <extensions>
          <ns3:TrackPointExtension>
            <ns3:atemp>21.0</ns3:atemp>
          </ns3:TrackPointExtension>
        </extensions>
      </trkpt>
      <trkpt lat="42.6194638945162296295166015625" lon="19.92075302638113498687744140625">
        <ele>979.4000244140625</ele>
        <time>2026-06-16T12:11:30.000Z</time>
        <extensions>
          <ns3:TrackPointExtension>
            <ns3:atemp>21.0</ns3:atemp>
          </ns3:TrackPointExtension>
        </extensions>
      </trkpt>
      <trkpt lat="42.6194638945162296295166015625" lon="19.92075302638113498687744140625">
        <ele>979.4000244140625</ele>
        <time>2026-06-16T12:11:31.000Z</time>
        <extensions>
          <ns3:TrackPointExtension>
            <ns3:atemp>21.0</ns3:atemp>
          </ns3:TrackPointExtension>
        </extensions>
      </trkpt>
      <trkpt lat="42.6194638945162296295166015625" lon="19.92075302638113498687744140625">
        <ele>979.4000244140625</ele>
        <time>2026-06-16T12:11:32.000Z</time>
        <extensions>
          <ns3:TrackPointExtension>
            <ns3:atemp>21.0</ns3:atemp>
          </ns3:TrackPointExtension>
        </extensions>
      </trkpt>
      <trkpt lat="42.6194638945162296295166015625" lon="19.92075302638113498687744140625">
        <ele>979.20001220703125</ele>
        <time>2026-06-16T12:11:33.000Z</time>
        <extensions>
          <ns3:TrackPointExtension>
            <ns3:atemp>21.0</ns3:atemp>
          </ns3:TrackPointExtension>
        </extensions>
      </trkpt>
      <trkpt lat="42.6194638945162296295166015625" lon="19.92075302638113498687744140625">
        <ele>979.20001220703125</ele>
        <time>2026-06-16T12:11:34.000Z</time>
        <extensions>
          <ns3:TrackPointExtension>
            <ns3:atemp>21.0</ns3:atemp>
          </ns3:TrackPointExtension>
        </extensions>
      </trkpt>
      <trkpt lat="42.6194638945162296295166015625" lon="19.92075302638113498687744140625">
        <ele>979.20001220703125</ele>
        <time>2026-06-16T12:11:35.000Z</time>
        <extensions>
          <ns3:TrackPointExtension>
            <ns3:atemp>21.0</ns3:atemp>
          </ns3:TrackPointExtension>
        </extensions>
      </trkpt>
      <trkpt lat="42.6194638945162296295166015625" lon="19.92075302638113498687744140625">
        <ele>979.20001220703125</ele>
        <time>2026-06-16T12:11:36.000Z</time>
        <extensions>
          <ns3:TrackPointExtension>
            <ns3:atemp>21.0</ns3:atemp>
          </ns3:TrackPointExtension>
        </extensions>
      </trkpt>
      <trkpt lat="42.6194638945162296295166015625" lon="19.92075302638113498687744140625">
        <ele>979.20001220703125</ele>
        <time>2026-06-16T12:11:37.000Z</time>
        <extensions>
          <ns3:TrackPointExtension>
            <ns3:atemp>21.0</ns3:atemp>
          </ns3:TrackPointExtension>
        </extensions>
      </trkpt>
      <trkpt lat="42.6194638945162296295166015625" lon="19.92075302638113498687744140625">
        <ele>979</ele>
        <time>2026-06-16T12:11:38.000Z</time>
        <extensions>
          <ns3:TrackPointExtension>
            <ns3:atemp>21.0</ns3:atemp>
          </ns3:TrackPointExtension>
        </extensions>
      </trkpt>
      <trkpt lat="42.6194638945162296295166015625" lon="19.92075302638113498687744140625">
        <ele>979</ele>
        <time>2026-06-16T12:11:39.000Z</time>
        <extensions>
          <ns3:TrackPointExtension>
            <ns3:atemp>21.0</ns3:atemp>
          </ns3:TrackPointExtension>
        </extensions>
      </trkpt>
      <trkpt lat="42.6194638945162296295166015625" lon="19.92075302638113498687744140625">
        <ele>979</ele>
        <time>2026-06-16T12:11:40.000Z</time>
        <extensions>
          <ns3:TrackPointExtension>
            <ns3:atemp>21.0</ns3:atemp>
          </ns3:TrackPointExtension>
        </extensions>
      </trkpt>
      <trkpt lat="42.6194638945162296295166015625" lon="19.92075302638113498687744140625">
        <ele>979</ele>
        <time>2026-06-16T12:11:41.000Z</time>
        <extensions>
          <ns3:TrackPointExtension>
            <ns3:atemp>21.0</ns3:atemp>
          </ns3:TrackPointExtension>
        </extensions>
      </trkpt>
      <trkpt lat="42.6194638945162296295166015625" lon="19.92075302638113498687744140625">
        <ele>979</ele>
        <time>2026-06-16T12:11:42.000Z</time>
        <extensions>
          <ns3:TrackPointExtension>
            <ns3:atemp>21.0</ns3:atemp>
          </ns3:TrackPointExtension>
        </extensions>
      </trkpt>
      <trkpt lat="42.6194638945162296295166015625" lon="19.92075302638113498687744140625">
        <ele>978.79998779296875</ele>
        <time>2026-06-16T12:11:43.000Z</time>
        <extensions>
          <ns3:TrackPointExtension>
            <ns3:atemp>21.0</ns3:atemp>
          </ns3:TrackPointExtension>
        </extensions>
      </trkpt>
      <trkpt lat="42.6194638945162296295166015625" lon="19.92075302638113498687744140625">
        <ele>978.79998779296875</ele>
        <time>2026-06-16T12:11:44.000Z</time>
        <extensions>
          <ns3:TrackPointExtension>
            <ns3:atemp>21.0</ns3:atemp>
          </ns3:TrackPointExtension>
        </extensions>
      </trkpt>
      <trkpt lat="42.6194638945162296295166015625" lon="19.92075302638113498687744140625">
        <ele>978.79998779296875</ele>
        <time>2026-06-16T12:11:45.000Z</time>
        <extensions>
          <ns3:TrackPointExtension>
            <ns3:atemp>21.0</ns3:atemp>
          </ns3:TrackPointExtension>
        </extensions>
      </trkpt>
      <trkpt lat="42.6194638945162296295166015625" lon="19.92075302638113498687744140625">
        <ele>978.79998779296875</ele>
        <time>2026-06-16T12:11:46.000Z</time>
        <extensions>
          <ns3:TrackPointExtension>
            <ns3:atemp>21.0</ns3:atemp>
          </ns3:TrackPointExtension>
        </extensions>
      </trkpt>
      <trkpt lat="42.6194638945162296295166015625" lon="19.92075302638113498687744140625">
        <ele>978.5999755859375</ele>
        <time>2026-06-16T12:11:47.000Z</time>
        <extensions>
          <ns3:TrackPointExtension>
            <ns3:atemp>21.0</ns3:atemp>
          </ns3:TrackPointExtension>
        </extensions>
      </trkpt>
      <trkpt lat="42.6194638945162296295166015625" lon="19.92075302638113498687744140625">
        <ele>978.5999755859375</ele>
        <time>2026-06-16T12:11:48.000Z</time>
        <extensions>
          <ns3:TrackPointExtension>
            <ns3:atemp>21.0</ns3:atemp>
          </ns3:TrackPointExtension>
        </extensions>
      </trkpt>
      <trkpt lat="42.6194638945162296295166015625" lon="19.92075302638113498687744140625">
        <ele>978.5999755859375</ele>
        <time>2026-06-16T12:11:49.000Z</time>
        <extensions>
          <ns3:TrackPointExtension>
            <ns3:atemp>21.0</ns3:atemp>
          </ns3:TrackPointExtension>
        </extensions>
      </trkpt>
      <trkpt lat="42.6194638945162296295166015625" lon="19.92075302638113498687744140625">
        <ele>978.4000244140625</ele>
        <time>2026-06-16T12:11:50.000Z</time>
        <extensions>
          <ns3:TrackPointExtension>
            <ns3:atemp>21.0</ns3:atemp>
          </ns3:TrackPointExtension>
        </extensions>
      </trkpt>
      <trkpt lat="42.6194638945162296295166015625" lon="19.92075302638113498687744140625">
        <ele>978.4000244140625</ele>
        <time>2026-06-16T12:11:51.000Z</time>
        <extensions>
          <ns3:TrackPointExtension>
            <ns3:atemp>21.0</ns3:atemp>
          </ns3:TrackPointExtension>
        </extensions>
      </trkpt>
      <trkpt lat="42.6194638945162296295166015625" lon="19.92075302638113498687744140625">
        <ele>978.4000244140625</ele>
        <time>2026-06-16T12:11:52.000Z</time>
        <extensions>
          <ns3:TrackPointExtension>
            <ns3:atemp>21.0</ns3:atemp>
          </ns3:TrackPointExtension>
        </extensions>
      </trkpt>
      <trkpt lat="42.6194638945162296295166015625" lon="19.92075302638113498687744140625">
        <ele>978.4000244140625</ele>
        <time>2026-06-16T12:11:53.000Z</time>
        <extensions>
          <ns3:TrackPointExtension>
            <ns3:atemp>21.0</ns3:atemp>
          </ns3:TrackPointExtension>
        </extensions>
      </trkpt>
      <trkpt lat="42.6194638945162296295166015625" lon="19.92075302638113498687744140625">
        <ele>978.4000244140625</ele>
        <time>2026-06-16T12:11:54.000Z</time>
        <extensions>
          <ns3:TrackPointExtension>
            <ns3:atemp>21.0</ns3:atemp>
          </ns3:TrackPointExtension>
        </extensions>
      </trkpt>
      <trkpt lat="42.6194638945162296295166015625" lon="19.92075302638113498687744140625">
        <ele>978.4000244140625</ele>
        <time>2026-06-16T12:11:55.000Z</time>
        <extensions>
          <ns3:TrackPointExtension>
            <ns3:atemp>21.0</ns3:atemp>
          </ns3:TrackPointExtension>
        </extensions>
      </trkpt>
      <trkpt lat="42.6194638945162296295166015625" lon="19.92075302638113498687744140625">
        <ele>978.4000244140625</ele>
        <time>2026-06-16T12:11:56.000Z</time>
        <extensions>
          <ns3:TrackPointExtension>
            <ns3:atemp>21.0</ns3:atemp>
          </ns3:TrackPointExtension>
        </extensions>
      </trkpt>
      <trkpt lat="42.6194638945162296295166015625" lon="19.92075302638113498687744140625">
        <ele>978.4000244140625</ele>
        <time>2026-06-16T12:11:57.000Z</time>
        <extensions>
          <ns3:TrackPointExtension>
            <ns3:atemp>21.0</ns3:atemp>
          </ns3:TrackPointExtension>
        </extensions>
      </trkpt>
      <trkpt lat="42.6194638945162296295166015625" lon="19.92075302638113498687744140625">
        <ele>978.20001220703125</ele>
        <time>2026-06-16T12:11:58.000Z</time>
        <extensions>
          <ns3:TrackPointExtension>
            <ns3:atemp>21.0</ns3:atemp>
          </ns3:TrackPointExtension>
        </extensions>
      </trkpt>
      <trkpt lat="42.6194638945162296295166015625" lon="19.92075302638113498687744140625">
        <ele>978.20001220703125</ele>
        <time>2026-06-16T12:11:59.000Z</time>
        <extensions>
          <ns3:TrackPointExtension>
            <ns3:atemp>21.0</ns3:atemp>
          </ns3:TrackPointExtension>
        </extensions>
      </trkpt>
      <trkpt lat="42.6194638945162296295166015625" lon="19.92075302638113498687744140625">
        <ele>978</ele>
        <time>2026-06-16T12:12:00.000Z</time>
        <extensions>
          <ns3:TrackPointExtension>
            <ns3:atemp>21.0</ns3:atemp>
          </ns3:TrackPointExtension>
        </extensions>
      </trkpt>
      <trkpt lat="42.6194638945162296295166015625" lon="19.92075302638113498687744140625">
        <ele>977.79998779296875</ele>
        <time>2026-06-16T12:12:01.000Z</time>
        <extensions>
          <ns3:TrackPointExtension>
            <ns3:atemp>21.0</ns3:atemp>
          </ns3:TrackPointExtension>
        </extensions>
      </trkpt>
      <trkpt lat="42.6194638945162296295166015625" lon="19.92075302638113498687744140625">
        <ele>977.79998779296875</ele>
        <time>2026-06-16T12:12:02.000Z</time>
        <extensions>
          <ns3:TrackPointExtension>
            <ns3:atemp>21.0</ns3:atemp>
          </ns3:TrackPointExtension>
        </extensions>
      </trkpt>
      <trkpt lat="42.6194638945162296295166015625" lon="19.92075302638113498687744140625">
        <ele>977.79998779296875</ele>
        <time>2026-06-16T12:12:03.000Z</time>
        <extensions>
          <ns3:TrackPointExtension>
            <ns3:atemp>21.0</ns3:atemp>
          </ns3:TrackPointExtension>
        </extensions>
      </trkpt>
      <trkpt lat="42.6194638945162296295166015625" lon="19.92075302638113498687744140625">
        <ele>977.5999755859375</ele>
        <time>2026-06-16T12:12:04.000Z</time>
        <extensions>
          <ns3:TrackPointExtension>
            <ns3:atemp>21.0</ns3:atemp>
          </ns3:TrackPointExtension>
        </extensions>
      </trkpt>
      <trkpt lat="42.6194638945162296295166015625" lon="19.92075302638113498687744140625">
        <ele>977.5999755859375</ele>
        <time>2026-06-16T12:12:05.000Z</time>
        <extensions>
          <ns3:TrackPointExtension>
            <ns3:atemp>21.0</ns3:atemp>
          </ns3:TrackPointExtension>
        </extensions>
      </trkpt>
      <trkpt lat="42.6194628886878490447998046875" lon="19.92074749432504177093505859375">
        <ele>977.5999755859375</ele>
        <time>2026-06-16T12:12:06.000Z</time>
        <extensions>
          <ns3:TrackPointExtension>
            <ns3:atemp>21.0</ns3:atemp>
          </ns3:TrackPointExtension>
        </extensions>
      </trkpt>
      <trkpt lat="42.61944738216698169708251953125" lon="19.9207457341253757476806640625">
        <ele>977.5999755859375</ele>
        <time>2026-06-16T12:12:07.000Z</time>
        <extensions>
          <ns3:TrackPointExtension>
            <ns3:atemp>21.0</ns3:atemp>
          </ns3:TrackPointExtension>
        </extensions>
      </trkpt>
      <trkpt lat="42.61943313293159008026123046875" lon="19.92075336165726184844970703125">
        <ele>977.5999755859375</ele>
        <time>2026-06-16T12:12:08.000Z</time>
        <extensions>
          <ns3:TrackPointExtension>
            <ns3:atemp>21.0</ns3:atemp>
          </ns3:TrackPointExtension>
        </extensions>
      </trkpt>
      <trkpt lat="42.61941603384912014007568359375" lon="19.92077850736677646636962890625">
        <ele>977.4000244140625</ele>
        <time>2026-06-16T12:12:09.000Z</time>
        <extensions>
          <ns3:TrackPointExtension>
            <ns3:atemp>21.0</ns3:atemp>
          </ns3:TrackPointExtension>
        </extensions>
      </trkpt>
      <trkpt lat="42.61938971467316150665283203125" lon="19.92080901749432086944580078125">
        <ele>977</ele>
        <time>2026-06-16T12:12:10.000Z</time>
        <extensions>
          <ns3:TrackPointExtension>
            <ns3:atemp>21.0</ns3:atemp>
          </ns3:TrackPointExtension>
        </extensions>
      </trkpt>
      <trkpt lat="42.61935777962207794189453125" lon="19.9208312295377254486083984375">
        <ele>976.5999755859375</ele>
        <time>2026-06-16T12:12:11.000Z</time>
        <extensions>
          <ns3:TrackPointExtension>
            <ns3:atemp>21.0</ns3:atemp>
          </ns3:TrackPointExtension>
        </extensions>
      </trkpt>
      <trkpt lat="42.619322575628757476806640625" lon="19.9208429642021656036376953125">
        <ele>976</ele>
        <time>2026-06-16T12:12:12.000Z</time>
        <extensions>
          <ns3:TrackPointExtension>
            <ns3:atemp>21.0</ns3:atemp>
          </ns3:TrackPointExtension>
        </extensions>
      </trkpt>
      <trkpt lat="42.6192892156541347503662109375" lon="19.9208567105233669281005859375">
        <ele>975.20001220703125</ele>
        <time>2026-06-16T12:12:13.000Z</time>
        <extensions>
          <ns3:TrackPointExtension>
            <ns3:atemp>21.0</ns3:atemp>
          </ns3:TrackPointExtension>
        </extensions>
      </trkpt>
      <trkpt lat="42.6192627288401126861572265625" lon="19.920887388288974761962890625">
        <ele>974.4000244140625</ele>
        <time>2026-06-16T12:12:14.000Z</time>
        <extensions>
          <ns3:TrackPointExtension>
            <ns3:atemp>21.0</ns3:atemp>
          </ns3:TrackPointExtension>
        </extensions>
      </trkpt>
      <trkpt lat="42.61924252845346927642822265625" lon="19.9209227599203586578369140625">
        <ele>973.5999755859375</ele>
        <time>2026-06-16T12:12:15.000Z</time>
        <extensions>
          <ns3:TrackPointExtension>
            <ns3:atemp>21.0</ns3:atemp>
          </ns3:TrackPointExtension>
        </extensions>
      </trkpt>
      <trkpt lat="42.61922576464712619781494140625" lon="19.9209790863096714019775390625">
        <ele>972.79998779296875</ele>
        <time>2026-06-16T12:12:16.000Z</time>
        <extensions>
          <ns3:TrackPointExtension>
            <ns3:atemp>21.0</ns3:atemp>
          </ns3:TrackPointExtension>
        </extensions>
      </trkpt>
      <trkpt lat="42.6192097552120685577392578125" lon="19.92105393670499324798583984375">
        <ele>971.79998779296875</ele>
        <time>2026-06-16T12:12:17.000Z</time>
        <extensions>
          <ns3:TrackPointExtension>
            <ns3:atemp>21.0</ns3:atemp>
          </ns3:TrackPointExtension>
        </extensions>
      </trkpt>
      <trkpt lat="42.61919894255697727203369140625" lon="19.92114597000181674957275390625">
        <ele>971</ele>
        <time>2026-06-16T12:12:18.000Z</time>
        <extensions>
          <ns3:TrackPointExtension>
            <ns3:atemp>21.0</ns3:atemp>
          </ns3:TrackPointExtension>
        </extensions>
      </trkpt>
      <trkpt lat="42.61918301694095134735107421875" lon="19.92124588228762149810791015625">
        <ele>969.4000244140625</ele>
        <time>2026-06-16T12:12:19.000Z</time>
        <extensions>
          <ns3:TrackPointExtension>
            <ns3:atemp>21.0</ns3:atemp>
          </ns3:TrackPointExtension>
        </extensions>
      </trkpt>
      <trkpt lat="42.61916390620172023773193359375" lon="19.92134881205856800079345703125">
        <ele>968.4000244140625</ele>
        <time>2026-06-16T12:12:20.000Z</time>
        <extensions>
          <ns3:TrackPointExtension>
            <ns3:atemp>21.0</ns3:atemp>
          </ns3:TrackPointExtension>
        </extensions>
      </trkpt>
      <trkpt lat="42.61914898641407489776611328125" lon="19.92144822143018245697021484375">
        <ele>966.79998779296875</ele>
        <time>2026-06-16T12:12:21.000Z</time>
        <extensions>
          <ns3:TrackPointExtension>
            <ns3:atemp>21.0</ns3:atemp>
          </ns3:TrackPointExtension>
        </extensions>
      </trkpt>
      <trkpt lat="42.61913373135030269622802734375" lon="19.9215544201433658599853515625">
        <ele>965.4000244140625</ele>
        <time>2026-06-16T12:12:22.000Z</time>
        <extensions>
          <ns3:TrackPointExtension>
            <ns3:atemp>21.0</ns3:atemp>
          </ns3:TrackPointExtension>
        </extensions>
      </trkpt>
      <trkpt lat="42.61912065558135509490966796875" lon="19.92167000658810138702392578125">
        <ele>964.4000244140625</ele>
        <time>2026-06-16T12:12:23.000Z</time>
        <extensions>
          <ns3:TrackPointExtension>
            <ns3:atemp>21.0</ns3:atemp>
          </ns3:TrackPointExtension>
        </extensions>
      </trkpt>
      <trkpt lat="42.61909349821507930755615234375" lon="19.92178651504218578338623046875">
        <ele>963</ele>
        <time>2026-06-16T12:12:24.000Z</time>
        <extensions>
          <ns3:TrackPointExtension>
            <ns3:atemp>21.0</ns3:atemp>
          </ns3:TrackPointExtension>
        </extensions>
      </trkpt>
      <trkpt lat="42.61906969361007213592529296875" lon="19.92190469987690448760986328125">
        <ele>961.4000244140625</ele>
        <time>2026-06-16T12:12:25.000Z</time>
        <extensions>
          <ns3:TrackPointExtension>
            <ns3:atemp>21.0</ns3:atemp>
          </ns3:TrackPointExtension>
        </extensions>
      </trkpt>
      <trkpt lat="42.619046978652477264404296875" lon="19.92201886139810085296630859375">
        <ele>960.20001220703125</ele>
        <time>2026-06-16T12:12:26.000Z</time>
        <extensions>
          <ns3:TrackPointExtension>
            <ns3:atemp>21.0</ns3:atemp>
          </ns3:TrackPointExtension>
        </extensions>
      </trkpt>
      <trkpt lat="42.61902124620974063873291015625" lon="19.92212296463549137115478515625">
        <ele>959</ele>
        <time>2026-06-16T12:12:27.000Z</time>
        <extensions>
          <ns3:TrackPointExtension>
            <ns3:atemp>21.0</ns3:atemp>
          </ns3:TrackPointExtension>
        </extensions>
      </trkpt>
      <trkpt lat="42.6189680211246013641357421875" lon="19.9222008325159549713134765625">
        <ele>957.5999755859375</ele>
        <time>2026-06-16T12:12:28.000Z</time>
        <extensions>
          <ns3:TrackPointExtension>
            <ns3:atemp>21.0</ns3:atemp>
          </ns3:TrackPointExtension>
        </extensions>
      </trkpt>
      <trkpt lat="42.61889920569956302642822265625" lon="19.92225288413465023040771484375">
        <ele>956.20001220703125</ele>
        <time>2026-06-16T12:12:29.000Z</time>
        <extensions>
          <ns3:TrackPointExtension>
            <ns3:atemp>21.0</ns3:atemp>
          </ns3:TrackPointExtension>
        </extensions>
      </trkpt>
      <trkpt lat="42.6188171468675136566162109375" lon="19.92228515446186065673828125">
        <ele>954.79998779296875</ele>
        <time>2026-06-16T12:12:30.000Z</time>
        <extensions>
          <ns3:TrackPointExtension>
            <ns3:atemp>21.0</ns3:atemp>
          </ns3:TrackPointExtension>
        </extensions>
      </trkpt>
      <trkpt lat="42.6187232695519924163818359375" lon="19.922307617962360382080078125">
        <ele>953.20001220703125</ele>
        <time>2026-06-16T12:12:31.000Z</time>
        <extensions>
          <ns3:TrackPointExtension>
            <ns3:atemp>21.0</ns3:atemp>
          </ns3:TrackPointExtension>
        </extensions>
      </trkpt>
      <trkpt lat="42.61863266117870807647705078125" lon="19.9223426543176174163818359375">
        <ele>951.5999755859375</ele>
        <time>2026-06-16T12:12:32.000Z</time>
        <extensions>
          <ns3:TrackPointExtension>
            <ns3:atemp>21.0</ns3:atemp>
          </ns3:TrackPointExtension>
        </extensions>
      </trkpt>
      <trkpt lat="42.61853744275867938995361328125" lon="19.92239068262279033660888671875">
        <ele>950.4000244140625</ele>
        <time>2026-06-16T12:12:33.000Z</time>
        <extensions>
          <ns3:TrackPointExtension>
            <ns3:atemp>21.0</ns3:atemp>
          </ns3:TrackPointExtension>
        </extensions>
      </trkpt>
      <trkpt lat="42.61843241751194000244140625" lon="19.9224177561700344085693359375">
        <ele>948.79998779296875</ele>
        <time>2026-06-16T12:12:34.000Z</time>
        <extensions>
          <ns3:TrackPointExtension>
            <ns3:atemp>21.0</ns3:atemp>
          </ns3:TrackPointExtension>
        </extensions>
      </trkpt>
      <trkpt lat="42.61831850744783878326416015625" lon="19.92243376560509204864501953125">
        <ele>947.5999755859375</ele>
        <time>2026-06-16T12:12:35.000Z</time>
        <extensions>
          <ns3:TrackPointExtension>
            <ns3:atemp>21.0</ns3:atemp>
          </ns3:TrackPointExtension>
        </extensions>
      </trkpt>
      <trkpt lat="42.61820375919342041015625" lon="19.92245153523981571197509765625">
        <ele>946.20001220703125</ele>
        <time>2026-06-16T12:12:36.000Z</time>
        <extensions>
          <ns3:TrackPointExtension>
            <ns3:atemp>21.0</ns3:atemp>
          </ns3:TrackPointExtension>
        </extensions>
      </trkpt>
      <trkpt lat="42.61808448471128940582275390625" lon="19.9224717356264591217041015625">
        <ele>944.79998779296875</ele>
        <time>2026-06-16T12:12:37.000Z</time>
        <extensions>
          <ns3:TrackPointExtension>
            <ns3:atemp>21.0</ns3:atemp>
          </ns3:TrackPointExtension>
        </extensions>
      </trkpt>
      <trkpt lat="42.61796898208558559417724609375" lon="19.92250149138271808624267578125">
        <ele>943.5999755859375</ele>
        <time>2026-06-16T12:12:38.000Z</time>
        <extensions>
          <ns3:TrackPointExtension>
            <ns3:atemp>21.0</ns3:atemp>
          </ns3:TrackPointExtension>
        </extensions>
      </trkpt>
      <trkpt lat="42.6178617775440216064453125" lon="19.922551028430461883544921875">
        <ele>942.5999755859375</ele>
        <time>2026-06-16T12:12:39.000Z</time>
        <extensions>
          <ns3:TrackPointExtension>
            <ns3:atemp>21.0</ns3:atemp>
          </ns3:TrackPointExtension>
        </extensions>
      </trkpt>
      <trkpt lat="42.61776278726756572723388671875" lon="19.92262269370257854461669921875">
        <ele>941.79998779296875</ele>
        <time>2026-06-16T12:12:40.000Z</time>
        <extensions>
          <ns3:TrackPointExtension>
            <ns3:atemp>21.0</ns3:atemp>
          </ns3:TrackPointExtension>
        </extensions>
      </trkpt>
      <trkpt lat="42.61767796240746974945068359375" lon="19.92270684801042079925537109375">
        <ele>941</ele>
        <time>2026-06-16T12:12:41.000Z</time>
        <extensions>
          <ns3:TrackPointExtension>
            <ns3:atemp>21.0</ns3:atemp>
          </ns3:TrackPointExtension>
        </extensions>
      </trkpt>
      <trkpt lat="42.61759615503251552581787109375" lon="19.92279502563178539276123046875">
        <ele>940.20001220703125</ele>
        <time>2026-06-16T12:12:42.000Z</time>
        <extensions>
          <ns3:TrackPointExtension>
            <ns3:atemp>21.0</ns3:atemp>
          </ns3:TrackPointExtension>
        </extensions>
      </trkpt>
      <trkpt lat="42.61750563047826290130615234375" lon="19.922872222959995269775390625">
        <ele>939.4000244140625</ele>
        <time>2026-06-16T12:12:43.000Z</time>
        <extensions>
          <ns3:TrackPointExtension>
            <ns3:atemp>21.0</ns3:atemp>
          </ns3:TrackPointExtension>
        </extensions>
      </trkpt>
      <trkpt lat="42.617415525019168853759765625" lon="19.922949336469173431396484375">
        <ele>938.79998779296875</ele>
        <time>2026-06-16T12:12:44.000Z</time>
        <extensions>
          <ns3:TrackPointExtension>
            <ns3:atemp>21.0</ns3:atemp>
          </ns3:TrackPointExtension>
        </extensions>
      </trkpt>
      <trkpt lat="42.6173231564462184906005859375" lon="19.9230346642434597015380859375">
        <ele>938.20001220703125</ele>
        <time>2026-06-16T12:12:45.000Z</time>
        <extensions>
          <ns3:TrackPointExtension>
            <ns3:atemp>21.0</ns3:atemp>
          </ns3:TrackPointExtension>
        </extensions>
      </trkpt>
      <trkpt lat="42.61723204515874385833740234375" lon="19.92312208749353885650634765625">
        <ele>937.4000244140625</ele>
        <time>2026-06-16T12:12:46.000Z</time>
        <extensions>
          <ns3:TrackPointExtension>
            <ns3:atemp>21.0</ns3:atemp>
          </ns3:TrackPointExtension>
        </extensions>
      </trkpt>
      <trkpt lat="42.61714571155607700347900390625" lon="19.923214875161647796630859375">
        <ele>936.5999755859375</ele>
        <time>2026-06-16T12:12:47.000Z</time>
        <extensions>
          <ns3:TrackPointExtension>
            <ns3:atemp>21.0</ns3:atemp>
          </ns3:TrackPointExtension>
        </extensions>
      </trkpt>
      <trkpt lat="42.6170606352388858795166015625" lon="19.92331017740070819854736328125">
        <ele>935.5999755859375</ele>
        <time>2026-06-16T12:12:48.000Z</time>
        <extensions>
          <ns3:TrackPointExtension>
            <ns3:atemp>21.0</ns3:atemp>
          </ns3:TrackPointExtension>
        </extensions>
      </trkpt>
      <trkpt lat="42.61697254143655300140380859375" lon="19.92340271361172199249267578125">
        <ele>934.79998779296875</ele>
        <time>2026-06-16T12:12:49.000Z</time>
        <extensions>
          <ns3:TrackPointExtension>
            <ns3:atemp>21.0</ns3:atemp>
          </ns3:TrackPointExtension>
        </extensions>
      </trkpt>
      <trkpt lat="42.61688302271068096160888671875" lon="19.923488460481166839599609375">
        <ele>934.20001220703125</ele>
        <time>2026-06-16T12:12:50.000Z</time>
        <extensions>
          <ns3:TrackPointExtension>
            <ns3:atemp>21.0</ns3:atemp>
          </ns3:TrackPointExtension>
        </extensions>
      </trkpt>
      <trkpt lat="42.61679015122354030609130859375" lon="19.92357286624610424041748046875">
        <ele>933.5999755859375</ele>
        <time>2026-06-16T12:12:51.000Z</time>
        <extensions>
          <ns3:TrackPointExtension>
            <ns3:atemp>21.0</ns3:atemp>
          </ns3:TrackPointExtension>
        </extensions>
      </trkpt>
      <trkpt lat="42.61669929139316082000732421875" lon="19.92365752346813678741455078125">
        <ele>933</ele>
        <time>2026-06-16T12:12:52.000Z</time>
        <extensions>
          <ns3:TrackPointExtension>
            <ns3:atemp>21.0</ns3:atemp>
          </ns3:TrackPointExtension>
        </extensions>
      </trkpt>
      <trkpt lat="42.6166207529604434967041015625" lon="19.92375022731721401214599609375">
        <ele>932.5999755859375</ele>
        <time>2026-06-16T12:12:53.000Z</time>
        <extensions>
          <ns3:TrackPointExtension>
            <ns3:atemp>21.0</ns3:atemp>
          </ns3:TrackPointExtension>
        </extensions>
      </trkpt>
      <trkpt lat="42.6165528595447540283203125" lon="19.92384980432689189910888671875">
        <ele>932</ele>
        <time>2026-06-16T12:12:54.000Z</time>
        <extensions>
          <ns3:TrackPointExtension>
            <ns3:atemp>21.0</ns3:atemp>
          </ns3:TrackPointExtension>
        </extensions>
      </trkpt>
      <trkpt lat="42.61649142019450664520263671875" lon="19.92395089007914066314697265625">
        <ele>931.5999755859375</ele>
        <time>2026-06-16T12:12:55.000Z</time>
        <extensions>
          <ns3:TrackPointExtension>
            <ns3:atemp>21.0</ns3:atemp>
          </ns3:TrackPointExtension>
        </extensions>
      </trkpt>
      <trkpt lat="42.61643425561487674713134765625" lon="19.92405683733522891998291015625">
        <ele>931.20001220703125</ele>
        <time>2026-06-16T12:12:56.000Z</time>
        <extensions>
          <ns3:TrackPointExtension>
            <ns3:atemp>21.0</ns3:atemp>
          </ns3:TrackPointExtension>
        </extensions>
      </trkpt>
      <trkpt lat="42.61637574993073940277099609375" lon="19.9241608567535877227783203125">
        <ele>931</ele>
        <time>2026-06-16T12:12:57.000Z</time>
        <extensions>
          <ns3:TrackPointExtension>
            <ns3:atemp>21.0</ns3:atemp>
          </ns3:TrackPointExtension>
        </extensions>
      </trkpt>
      <trkpt lat="42.61631883680820465087890625" lon="19.92426596581935882568359375">
        <ele>930.5999755859375</ele>
        <time>2026-06-16T12:12:58.000Z</time>
        <extensions>
          <ns3:TrackPointExtension>
            <ns3:atemp>21.0</ns3:atemp>
          </ns3:TrackPointExtension>
        </extensions>
      </trkpt>
      <trkpt lat="42.61626644991338253021240234375" lon="19.92436747066676616668701171875">
        <ele>930.20001220703125</ele>
        <time>2026-06-16T12:12:59.000Z</time>
        <extensions>
          <ns3:TrackPointExtension>
            <ns3:atemp>21.0</ns3:atemp>
          </ns3:TrackPointExtension>
        </extensions>
      </trkpt>
      <trkpt lat="42.61621196754276752471923828125" lon="19.92446805350482463836669921875">
        <ele>929.79998779296875</ele>
        <time>2026-06-16T12:13:00.000Z</time>
        <extensions>
          <ns3:TrackPointExtension>
            <ns3:atemp>21.0</ns3:atemp>
          </ns3:TrackPointExtension>
        </extensions>
      </trkpt>
      <trkpt lat="42.61614709161221981048583984375" lon="19.924558661878108978271484375">
        <ele>929.4000244140625</ele>
        <time>2026-06-16T12:13:01.000Z</time>
        <extensions>
          <ns3:TrackPointExtension>
            <ns3:atemp>21.0</ns3:atemp>
          </ns3:TrackPointExtension>
        </extensions>
      </trkpt>
      <trkpt lat="42.61607970111072063446044921875" lon="19.9246299080550670623779296875">
        <ele>929</ele>
        <time>2026-06-16T12:13:02.000Z</time>
        <extensions>
          <ns3:TrackPointExtension>
            <ns3:atemp>21.0</ns3:atemp>
          </ns3:TrackPointExtension>
        </extensions>
      </trkpt>
      <trkpt lat="42.61601281352341175079345703125" lon="19.92470559664070606231689453125">
        <ele>928.5999755859375</ele>
        <time>2026-06-16T12:13:03.000Z</time>
        <extensions>
          <ns3:TrackPointExtension>
            <ns3:atemp>21.0</ns3:atemp>
          </ns3:TrackPointExtension>
        </extensions>
      </trkpt>
      <trkpt lat="42.61596352793276309967041015625" lon="19.9247972108423709869384765625">
        <ele>928.4000244140625</ele>
        <time>2026-06-16T12:13:04.000Z</time>
        <extensions>
          <ns3:TrackPointExtension>
            <ns3:atemp>21.0</ns3:atemp>
          </ns3:TrackPointExtension>
        </extensions>
      </trkpt>
      <trkpt lat="42.6159173436462879180908203125" lon="19.9248954467475414276123046875">
        <ele>928</ele>
        <time>2026-06-16T12:13:05.000Z</time>
        <extensions>
          <ns3:TrackPointExtension>
            <ns3:atemp>21.0</ns3:atemp>
          </ns3:TrackPointExtension>
        </extensions>
      </trkpt>
      <trkpt lat="42.6158757694065570831298828125" lon="19.92499192245304584503173828125">
        <ele>927.5999755859375</ele>
        <time>2026-06-16T12:13:06.000Z</time>
        <extensions>
          <ns3:TrackPointExtension>
            <ns3:atemp>21.0</ns3:atemp>
          </ns3:TrackPointExtension>
        </extensions>
      </trkpt>
      <trkpt lat="42.61583662591874599456787109375" lon="19.92509267292916774749755859375">
        <ele>927.4000244140625</ele>
        <time>2026-06-16T12:13:07.000Z</time>
        <extensions>
          <ns3:TrackPointExtension>
            <ns3:atemp>21.0</ns3:atemp>
          </ns3:TrackPointExtension>
        </extensions>
      </trkpt>
      <trkpt lat="42.6157969795167446136474609375" lon="19.92518923245370388031005859375">
        <ele>927.4000244140625</ele>
        <time>2026-06-16T12:13:08.000Z</time>
        <extensions>
          <ns3:TrackPointExtension>
            <ns3:atemp>21.0</ns3:atemp>
          </ns3:TrackPointExtension>
        </extensions>
      </trkpt>
      <trkpt lat="42.6157567463815212249755859375" lon="19.9252845346927642822265625">
        <ele>927.20001220703125</ele>
        <time>2026-06-16T12:13:09.000Z</time>
        <extensions>
          <ns3:TrackPointExtension>
            <ns3:atemp>21.0</ns3:atemp>
          </ns3:TrackPointExtension>
        </extensions>
      </trkpt>
      <trkpt lat="42.61570863425731658935546875" lon="19.925372041761875152587890625">
        <ele>927</ele>
        <time>2026-06-16T12:13:10.000Z</time>
        <extensions>
          <ns3:TrackPointExtension>
            <ns3:atemp>21.0</ns3:atemp>
          </ns3:TrackPointExtension>
        </extensions>
      </trkpt>
      <trkpt lat="42.6156477816402912139892578125" lon="19.9254442937672138214111328125">
        <ele>926.4000244140625</ele>
        <time>2026-06-16T12:13:11.000Z</time>
        <extensions>
          <ns3:TrackPointExtension>
            <ns3:atemp>21.0</ns3:atemp>
          </ns3:TrackPointExtension>
        </extensions>
      </trkpt>
      <trkpt lat="42.61558114551007747650146484375" lon="19.92550288327038288116455078125">
        <ele>925.79998779296875</ele>
        <time>2026-06-16T12:13:12.000Z</time>
        <extensions>
          <ns3:TrackPointExtension>
            <ns3:atemp>21.0</ns3:atemp>
          </ns3:TrackPointExtension>
        </extensions>
      </trkpt>
      <trkpt lat="42.615515179932117462158203125" lon="19.92556826211512088775634765625">
        <ele>925.20001220703125</ele>
        <time>2026-06-16T12:13:13.000Z</time>
        <extensions>
          <ns3:TrackPointExtension>
            <ns3:atemp>21.0</ns3:atemp>
          </ns3:TrackPointExtension>
        </extensions>
      </trkpt>
      <trkpt lat="42.6154653914272785186767578125" lon="19.92564436979591846466064453125">
        <ele>924.5999755859375</ele>
        <time>2026-06-16T12:13:14.000Z</time>
        <extensions>
          <ns3:TrackPointExtension>
            <ns3:atemp>21.0</ns3:atemp>
          </ns3:TrackPointExtension>
        </extensions>
      </trkpt>
      <trkpt lat="42.6154362224042415618896484375" lon="19.9257324635982513427734375">
        <ele>924.20001220703125</ele>
        <time>2026-06-16T12:13:15.000Z</time>
        <extensions>
          <ns3:TrackPointExtension>
            <ns3:atemp>21.0</ns3:atemp>
          </ns3:TrackPointExtension>
        </extensions>
      </trkpt>
      <trkpt lat="42.61542029678821563720703125" lon="19.92581494152545928955078125">
        <ele>924</ele>
        <time>2026-06-16T12:13:16.000Z</time>
        <extensions>
          <ns3:TrackPointExtension>
            <ns3:atemp>21.0</ns3:atemp>
          </ns3:TrackPointExtension>
        </extensions>
      </trkpt>
      <trkpt lat="42.61539221741259098052978515625" lon="19.92588006891310214996337890625">
        <ele>923.5999755859375</ele>
        <time>2026-06-16T12:13:17.000Z</time>
        <extensions>
          <ns3:TrackPointExtension>
            <ns3:atemp>21.0</ns3:atemp>
          </ns3:TrackPointExtension>
        </extensions>
      </trkpt>
      <trkpt lat="42.6153540797531604766845703125" lon="19.9259160272777080535888671875">
        <ele>923.4000244140625</ele>
        <time>2026-06-16T12:13:18.000Z</time>
        <extensions>
          <ns3:TrackPointExtension>
            <ns3:atemp>21.0</ns3:atemp>
          </ns3:TrackPointExtension>
        </extensions>
      </trkpt>
      <trkpt lat="42.61531569063663482666015625" lon="19.92591946385800838470458984375">
        <ele>923.20001220703125</ele>
        <time>2026-06-16T12:13:19.000Z</time>
        <extensions>
          <ns3:TrackPointExtension>
            <ns3:atemp>21.0</ns3:atemp>
          </ns3:TrackPointExtension>
        </extensions>
      </trkpt>
      <trkpt lat="42.61527772061526775360107421875" lon="19.92590655572712421417236328125">
        <ele>923</ele>
        <time>2026-06-16T12:13:20.000Z</time>
        <extensions>
          <ns3:TrackPointExtension>
            <ns3:atemp>21.0</ns3:atemp>
          </ns3:TrackPointExtension>
        </extensions>
      </trkpt>
      <trkpt lat="42.61524268426001071929931640625" lon="19.92588006891310214996337890625">
        <ele>923</ele>
        <time>2026-06-16T12:13:21.000Z</time>
        <extensions>
          <ns3:TrackPointExtension>
            <ns3:atemp>21.0</ns3:atemp>
          </ns3:TrackPointExtension>
        </extensions>
      </trkpt>
      <trkpt lat="42.6152135990560054779052734375" lon="19.9258489720523357391357421875">
        <ele>922.79998779296875</ele>
        <time>2026-06-16T12:13:22.000Z</time>
        <extensions>
          <ns3:TrackPointExtension>
            <ns3:atemp>21.0</ns3:atemp>
          </ns3:TrackPointExtension>
        </extensions>
      </trkpt>
      <trkpt lat="42.61518434621393680572509765625" lon="19.925830364227294921875">
        <ele>922.79998779296875</ele>
        <time>2026-06-16T12:13:23.000Z</time>
        <extensions>
          <ns3:TrackPointExtension>
            <ns3:atemp>21.0</ns3:atemp>
          </ns3:TrackPointExtension>
        </extensions>
      </trkpt>
      <trkpt lat="42.61515903286635875701904296875" lon="19.92581821046769618988037109375">
        <ele>922.79998779296875</ele>
        <time>2026-06-16T12:13:24.000Z</time>
        <extensions>
          <ns3:TrackPointExtension>
            <ns3:atemp>21.0</ns3:atemp>
          </ns3:TrackPointExtension>
        </extensions>
      </trkpt>
      <trkpt lat="42.6151314564049243927001953125" lon="19.92580555379390716552734375">
        <ele>923</ele>
        <time>2026-06-16T12:13:25.000Z</time>
        <extensions>
          <ns3:TrackPointExtension>
            <ns3:atemp>21.0</ns3:atemp>
          </ns3:TrackPointExtension>
        </extensions>
      </trkpt>
      <trkpt lat="42.61509935371577739715576171875" lon="19.9257963337004184722900390625">
        <ele>923</ele>
        <time>2026-06-16T12:13:26.000Z</time>
        <extensions>
          <ns3:TrackPointExtension>
            <ns3:atemp>21.0</ns3:atemp>
          </ns3:TrackPointExtension>
        </extensions>
      </trkpt>
      <trkpt lat="42.61506515555083751678466796875" lon="19.92578677833080291748046875">
        <ele>923.20001220703125</ele>
        <time>2026-06-16T12:13:27.000Z</time>
        <extensions>
          <ns3:TrackPointExtension>
            <ns3:atemp>21.0</ns3:atemp>
          </ns3:TrackPointExtension>
        </extensions>
      </trkpt>
      <trkpt lat="42.61503229849040508270263671875" lon="19.92577596567571163177490234375">
        <ele>923</ele>
        <time>2026-06-16T12:13:28.000Z</time>
        <extensions>
          <ns3:TrackPointExtension>
            <ns3:atemp>21.0</ns3:atemp>
          </ns3:TrackPointExtension>
        </extensions>
      </trkpt>
      <trkpt lat="42.6149983517825603485107421875" lon="19.92576708085834980010986328125">
        <ele>922.79998779296875</ele>
        <time>2026-06-16T12:13:29.000Z</time>
        <extensions>
          <ns3:TrackPointExtension>
            <ns3:atemp>21.0</ns3:atemp>
          </ns3:TrackPointExtension>
        </extensions>
      </trkpt>
      <trkpt lat="42.61496566236019134521484375" lon="19.9257584474980831146240234375">
        <ele>922.79998779296875</ele>
        <time>2026-06-16T12:13:30.000Z</time>
        <extensions>
          <ns3:TrackPointExtension>
            <ns3:atemp>21.0</ns3:atemp>
          </ns3:TrackPointExtension>
        </extensions>
      </trkpt>
      <trkpt lat="42.6149323023855686187744140625" lon="19.925747551023960113525390625">
        <ele>922.5999755859375</ele>
        <time>2026-06-16T12:13:31.000Z</time>
        <extensions>
          <ns3:TrackPointExtension>
            <ns3:atemp>21.0</ns3:atemp>
          </ns3:TrackPointExtension>
        </extensions>
      </trkpt>
      <trkpt lat="42.61489533819258213043212890625" lon="19.92574495263397693634033203125">
        <ele>922.4000244140625</ele>
        <time>2026-06-16T12:13:32.000Z</time>
        <extensions>
          <ns3:TrackPointExtension>
            <ns3:atemp>21.0</ns3:atemp>
          </ns3:TrackPointExtension>
        </extensions>
      </trkpt>
      <trkpt lat="42.61485644616186618804931640625" lon="19.9257440306246280670166015625">
        <ele>922.4000244140625</ele>
        <time>2026-06-16T12:13:33.000Z</time>
        <extensions>
          <ns3:TrackPointExtension>
            <ns3:atemp>21.0</ns3:atemp>
          </ns3:TrackPointExtension>
        </extensions>
      </trkpt>
      <trkpt lat="42.61481814086437225341796875" lon="19.92574294097721576690673828125">
        <ele>922.4000244140625</ele>
        <time>2026-06-16T12:13:34.000Z</time>
        <extensions>
          <ns3:TrackPointExtension>
            <ns3:atemp>21.0</ns3:atemp>
          </ns3:TrackPointExtension>
        </extensions>
      </trkpt>
      <trkpt lat="42.6147807575762271881103515625" lon="19.92574193514883518218994140625">
        <ele>922.4000244140625</ele>
        <time>2026-06-16T12:13:35.000Z</time>
        <extensions>
          <ns3:TrackPointExtension>
            <ns3:atemp>21.0</ns3:atemp>
          </ns3:TrackPointExtension>
        </extensions>
      </trkpt>
      <trkpt lat="42.61474010534584522247314453125" lon="19.92574797011911869049072265625">
        <ele>922.4000244140625</ele>
        <time>2026-06-16T12:13:36.000Z</time>
        <extensions>
          <ns3:TrackPointExtension>
            <ns3:atemp>21.0</ns3:atemp>
          </ns3:TrackPointExtension>
        </extensions>
      </trkpt>
      <trkpt lat="42.614699788391590118408203125" lon="19.92575752548873424530029296875">
        <ele>922.4000244140625</ele>
        <time>2026-06-16T12:13:37.000Z</time>
        <extensions>
          <ns3:TrackPointExtension>
            <ns3:atemp>21.0</ns3:atemp>
          </ns3:TrackPointExtension>
        </extensions>
      </trkpt>
      <trkpt lat="42.61465913616120815277099609375" lon="19.9257674999535083770751953125">
        <ele>922.4000244140625</ele>
        <time>2026-06-16T12:13:38.000Z</time>
        <extensions>
          <ns3:TrackPointExtension>
            <ns3:atemp>21.0</ns3:atemp>
          </ns3:TrackPointExtension>
        </extensions>
      </trkpt>
      <trkpt lat="42.6146201603114604949951171875" lon="19.92578015662729740142822265625">
        <ele>922.20001220703125</ele>
        <time>2026-06-16T12:13:39.000Z</time>
        <extensions>
          <ns3:TrackPointExtension>
            <ns3:atemp>21.0</ns3:atemp>
          </ns3:TrackPointExtension>
        </extensions>
      </trkpt>
      <trkpt lat="42.61458202265202999114990234375" lon="19.92579557932913303375244140625">
        <ele>922.20001220703125</ele>
        <time>2026-06-16T12:13:40.000Z</time>
        <extensions>
          <ns3:TrackPointExtension>
            <ns3:atemp>22.0</ns3:atemp>
          </ns3:TrackPointExtension>
        </extensions>
      </trkpt>
      <trkpt lat="42.61454480700194835662841796875" lon="19.92581049911677837371826171875">
        <ele>922.20001220703125</ele>
        <time>2026-06-16T12:13:41.000Z</time>
        <extensions>
          <ns3:TrackPointExtension>
            <ns3:atemp>21.0</ns3:atemp>
          </ns3:TrackPointExtension>
        </extensions>
      </trkpt>
      <trkpt lat="42.61451077647507190704345703125" lon="19.92582642473280429840087890625">
        <ele>922</ele>
        <time>2026-06-16T12:13:42.000Z</time>
        <extensions>
          <ns3:TrackPointExtension>
            <ns3:atemp>21.0</ns3:atemp>
          </ns3:TrackPointExtension>
        </extensions>
      </trkpt>
      <trkpt lat="42.6144756563007831573486328125" lon="19.925843439996242523193359375">
        <ele>922</ele>
        <time>2026-06-16T12:13:43.000Z</time>
        <extensions>
          <ns3:TrackPointExtension>
            <ns3:atemp>21.0</ns3:atemp>
          </ns3:TrackPointExtension>
        </extensions>
      </trkpt>
      <trkpt lat="42.61443869210779666900634765625" lon="19.92586263455450534820556640625">
        <ele>922</ele>
        <time>2026-06-16T12:13:44.000Z</time>
        <extensions>
          <ns3:TrackPointExtension>
            <ns3:atemp>21.0</ns3:atemp>
          </ns3:TrackPointExtension>
        </extensions>
      </trkpt>
      <trkpt lat="42.6144032366573810577392578125" lon="19.92588006891310214996337890625">
        <ele>922</ele>
        <time>2026-06-16T12:13:45.000Z</time>
        <extensions>
          <ns3:TrackPointExtension>
            <ns3:atemp>21.0</ns3:atemp>
          </ns3:TrackPointExtension>
        </extensions>
      </trkpt>
      <trkpt lat="42.6143690384924411773681640625" lon="19.92589364759624004364013671875">
        <ele>922</ele>
        <time>2026-06-16T12:13:46.000Z</time>
        <extensions>
          <ns3:TrackPointExtension>
            <ns3:atemp>21.0</ns3:atemp>
          </ns3:TrackPointExtension>
        </extensions>
      </trkpt>
      <trkpt lat="42.61433475650846958160400390625" lon="19.92590722627937793731689453125">
        <ele>922</ele>
        <time>2026-06-16T12:13:47.000Z</time>
        <extensions>
          <ns3:TrackPointExtension>
            <ns3:atemp>21.0</ns3:atemp>
          </ns3:TrackPointExtension>
        </extensions>
      </trkpt>
      <trkpt lat="42.614302150905132293701171875" lon="19.92592147551476955413818359375">
        <ele>921.79998779296875</ele>
        <time>2026-06-16T12:13:48.000Z</time>
        <extensions>
          <ns3:TrackPointExtension>
            <ns3:atemp>21.0</ns3:atemp>
          </ns3:TrackPointExtension>
        </extensions>
      </trkpt>
      <trkpt lat="42.61427004821598529815673828125" lon="19.925938658416271209716796875">
        <ele>921.79998779296875</ele>
        <time>2026-06-16T12:13:49.000Z</time>
        <extensions>
          <ns3:TrackPointExtension>
            <ns3:atemp>21.0</ns3:atemp>
          </ns3:TrackPointExtension>
        </extensions>
      </trkpt>
      <trkpt lat="42.6142362691462039947509765625" lon="19.9259572662413120269775390625">
        <ele>921.79998779296875</ele>
        <time>2026-06-16T12:13:50.000Z</time>
        <extensions>
          <ns3:TrackPointExtension>
            <ns3:atemp>21.0</ns3:atemp>
          </ns3:TrackPointExtension>
        </extensions>
      </trkpt>
      <trkpt lat="42.61420399881899356842041015625" lon="19.92597545497119426727294921875">
        <ele>921.79998779296875</ele>
        <time>2026-06-16T12:13:51.000Z</time>
        <extensions>
          <ns3:TrackPointExtension>
            <ns3:atemp>21.0</ns3:atemp>
          </ns3:TrackPointExtension>
        </extensions>
      </trkpt>
      <trkpt lat="42.61417038738727569580078125" lon="19.925996325910091400146484375">
        <ele>921.79998779296875</ele>
        <time>2026-06-16T12:13:52.000Z</time>
        <extensions>
          <ns3:TrackPointExtension>
            <ns3:atemp>22.0</ns3:atemp>
          </ns3:TrackPointExtension>
        </extensions>
      </trkpt>
      <trkpt lat="42.61413476429879665374755859375" lon="19.926015771925449371337890625">
        <ele>921.79998779296875</ele>
        <time>2026-06-16T12:13:53.000Z</time>
        <extensions>
          <ns3:TrackPointExtension>
            <ns3:atemp>22.0</ns3:atemp>
          </ns3:TrackPointExtension>
        </extensions>
      </trkpt>
      <trkpt lat="42.6140994764864444732666015625" lon="19.92603488266468048095703125">
        <ele>921.79998779296875</ele>
        <time>2026-06-16T12:13:54.000Z</time>
        <extensions>
          <ns3:TrackPointExtension>
            <ns3:atemp>22.0</ns3:atemp>
          </ns3:TrackPointExtension>
        </extensions>
      </trkpt>
      <trkpt lat="42.61406217701733112335205078125" lon="19.9260543286800384521484375">
        <ele>921.79998779296875</ele>
        <time>2026-06-16T12:13:55.000Z</time>
        <extensions>
          <ns3:TrackPointExtension>
            <ns3:atemp>22.0</ns3:atemp>
          </ns3:TrackPointExtension>
        </extensions>
      </trkpt>
      <trkpt lat="42.6140253804624080657958984375" lon="19.92607469670474529266357421875">
        <ele>921.79998779296875</ele>
        <time>2026-06-16T12:13:56.000Z</time>
        <extensions>
          <ns3:TrackPointExtension>
            <ns3:atemp>22.0</ns3:atemp>
          </ns3:TrackPointExtension>
        </extensions>
      </trkpt>
      <trkpt lat="42.6139885000884532928466796875" lon="19.926094897091388702392578125">
        <ele>921.5999755859375</ele>
        <time>2026-06-16T12:13:57.000Z</time>
        <extensions>
          <ns3:TrackPointExtension>
            <ns3:atemp>22.0</ns3:atemp>
          </ns3:TrackPointExtension>
        </extensions>
      </trkpt>
      <trkpt lat="42.61395044624805450439453125" lon="19.9261124990880489349365234375">
        <ele>921.5999755859375</ele>
        <time>2026-06-16T12:13:58.000Z</time>
        <extensions>
          <ns3:TrackPointExtension>
            <ns3:atemp>22.0</ns3:atemp>
          </ns3:TrackPointExtension>
        </extensions>
      </trkpt>
      <trkpt lat="42.61391063220798969268798828125" lon="19.92613538168370723724365234375">
        <ele>921.5999755859375</ele>
        <time>2026-06-16T12:13:59.000Z</time>
        <extensions>
          <ns3:TrackPointExtension>
            <ns3:atemp>22.0</ns3:atemp>
          </ns3:TrackPointExtension>
        </extensions>
      </trkpt>
      <trkpt lat="42.61387006379663944244384765625" lon="19.92615759372711181640625">
        <ele>921.4000244140625</ele>
        <time>2026-06-16T12:14:00.000Z</time>
        <extensions>
          <ns3:TrackPointExtension>
            <ns3:atemp>22.0</ns3:atemp>
          </ns3:TrackPointExtension>
        </extensions>
      </trkpt>
      <trkpt lat="42.61383251287043094635009765625" lon="19.92618014104664325714111328125">
        <ele>921.4000244140625</ele>
        <time>2026-06-16T12:14:01.000Z</time>
        <extensions>
          <ns3:TrackPointExtension>
            <ns3:atemp>22.0</ns3:atemp>
          </ns3:TrackPointExtension>
        </extensions>
      </trkpt>
      <trkpt lat="42.6137970574200153350830078125" lon="19.9262013472616672515869140625">
        <ele>921.4000244140625</ele>
        <time>2026-06-16T12:14:02.000Z</time>
        <extensions>
          <ns3:TrackPointExtension>
            <ns3:atemp>22.0</ns3:atemp>
          </ns3:TrackPointExtension>
        </extensions>
      </trkpt>
      <trkpt lat="42.61376244015991687774658203125" lon="19.9262244813144207000732421875">
        <ele>921.4000244140625</ele>
        <time>2026-06-16T12:14:03.000Z</time>
        <extensions>
          <ns3:TrackPointExtension>
            <ns3:atemp>22.0</ns3:atemp>
          </ns3:TrackPointExtension>
        </extensions>
      </trkpt>
      <trkpt lat="42.61372807435691356658935546875" lon="19.92625105194747447967529296875">
        <ele>921.4000244140625</ele>
        <time>2026-06-16T12:14:04.000Z</time>
        <extensions>
          <ns3:TrackPointExtension>
            <ns3:atemp>22.0</ns3:atemp>
          </ns3:TrackPointExtension>
        </extensions>
      </trkpt>
      <trkpt lat="42.61369085870683193206787109375" lon="19.92627628147602081298828125">
        <ele>921.4000244140625</ele>
        <time>2026-06-16T12:14:05.000Z</time>
        <extensions>
          <ns3:TrackPointExtension>
            <ns3:atemp>22.0</ns3:atemp>
          </ns3:TrackPointExtension>
        </extensions>
      </trkpt>
      <trkpt lat="42.613648362457752227783203125" lon="19.92629748769104480743408203125">
        <ele>921.4000244140625</ele>
        <time>2026-06-16T12:14:06.000Z</time>
        <extensions>
          <ns3:TrackPointExtension>
            <ns3:atemp>22.0</ns3:atemp>
          </ns3:TrackPointExtension>
        </extensions>
      </trkpt>
      <trkpt lat="42.61360284872353076934814453125" lon="19.9263183586299419403076171875">
        <ele>921.4000244140625</ele>
        <time>2026-06-16T12:14:07.000Z</time>
        <extensions>
          <ns3:TrackPointExtension>
            <ns3:atemp>22.0</ns3:atemp>
          </ns3:TrackPointExtension>
        </extensions>
      </trkpt>
      <trkpt lat="42.61355943046510219573974609375" lon="19.92634207941591739654541015625">
        <ele>921.4000244140625</ele>
        <time>2026-06-16T12:14:08.000Z</time>
        <extensions>
          <ns3:TrackPointExtension>
            <ns3:atemp>22.0</ns3:atemp>
          </ns3:TrackPointExtension>
        </extensions>
      </trkpt>
      <trkpt lat="42.61351534165441989898681640625" lon="19.92636638693511486053466796875">
        <ele>921.4000244140625</ele>
        <time>2026-06-16T12:14:09.000Z</time>
        <extensions>
          <ns3:TrackPointExtension>
            <ns3:atemp>22.0</ns3:atemp>
          </ns3:TrackPointExtension>
        </extensions>
      </trkpt>
      <trkpt lat="42.61347209103405475616455078125" lon="19.92639170028269290924072265625">
        <ele>921.20001220703125</ele>
        <time>2026-06-16T12:14:10.000Z</time>
        <extensions>
          <ns3:TrackPointExtension>
            <ns3:atemp>22.0</ns3:atemp>
          </ns3:TrackPointExtension>
        </extensions>
      </trkpt>
      <trkpt lat="42.6134262420237064361572265625" lon="19.926411397755146026611328125">
        <ele>921.20001220703125</ele>
        <time>2026-06-16T12:14:11.000Z</time>
        <extensions>
          <ns3:TrackPointExtension>
            <ns3:atemp>22.0</ns3:atemp>
          </ns3:TrackPointExtension>
        </extensions>
      </trkpt>
      <trkpt lat="42.61337989009916782379150390625" lon="19.9264320172369480133056640625">
        <ele>921.20001220703125</ele>
        <time>2026-06-16T12:14:12.000Z</time>
        <extensions>
          <ns3:TrackPointExtension>
            <ns3:atemp>22.0</ns3:atemp>
          </ns3:TrackPointExtension>
        </extensions>
      </trkpt>
      <trkpt lat="42.6133360527455806732177734375" lon="19.926459006965160369873046875">
        <ele>921</ele>
        <time>2026-06-16T12:14:13.000Z</time>
        <extensions>
          <ns3:TrackPointExtension>
            <ns3:atemp>22.0</ns3:atemp>
          </ns3:TrackPointExtension>
        </extensions>
      </trkpt>
      <trkpt lat="42.61328919790685176849365234375" lon="19.9264876730740070343017578125">
        <ele>921</ele>
        <time>2026-06-16T12:14:14.000Z</time>
        <extensions>
          <ns3:TrackPointExtension>
            <ns3:atemp>22.0</ns3:atemp>
          </ns3:TrackPointExtension>
        </extensions>
      </trkpt>
      <trkpt lat="42.61324007995426654815673828125" lon="19.92650971747934818267822265625">
        <ele>921</ele>
        <time>2026-06-16T12:14:15.000Z</time>
        <extensions>
          <ns3:TrackPointExtension>
            <ns3:atemp>22.0</ns3:atemp>
          </ns3:TrackPointExtension>
        </extensions>
      </trkpt>
      <trkpt lat="42.61319012381136417388916015625" lon="19.92653050459921360015869140625">
        <ele>921</ele>
        <time>2026-06-16T12:14:16.000Z</time>
        <extensions>
          <ns3:TrackPointExtension>
            <ns3:atemp>22.0</ns3:atemp>
          </ns3:TrackPointExtension>
        </extensions>
      </trkpt>
      <trkpt lat="42.61313966475427150726318359375" lon="19.9265559017658233642578125">
        <ele>921</ele>
        <time>2026-06-16T12:14:17.000Z</time>
        <extensions>
          <ns3:TrackPointExtension>
            <ns3:atemp>22.0</ns3:atemp>
          </ns3:TrackPointExtension>
        </extensions>
      </trkpt>
      <trkpt lat="42.613096497952938079833984375" lon="19.9265852384269237518310546875">
        <ele>921</ele>
        <time>2026-06-16T12:14:18.000Z</time>
        <extensions>
          <ns3:TrackPointExtension>
            <ns3:atemp>22.0</ns3:atemp>
          </ns3:TrackPointExtension>
        </extensions>
      </trkpt>
      <trkpt lat="42.6130514033138751983642578125" lon="19.9266135692596435546875">
        <ele>921</ele>
        <time>2026-06-16T12:14:19.000Z</time>
        <extensions>
          <ns3:TrackPointExtension>
            <ns3:atemp>22.0</ns3:atemp>
          </ns3:TrackPointExtension>
        </extensions>
      </trkpt>
      <trkpt lat="42.61300371028482913970947265625" lon="19.92663678713142871856689453125">
        <ele>921</ele>
        <time>2026-06-16T12:14:20.000Z</time>
        <extensions>
          <ns3:TrackPointExtension>
            <ns3:atemp>22.0</ns3:atemp>
          </ns3:TrackPointExtension>
        </extensions>
      </trkpt>
      <trkpt lat="42.61295802891254425048828125" lon="19.92666042409837245941162109375">
        <ele>921</ele>
        <time>2026-06-16T12:14:21.000Z</time>
        <extensions>
          <ns3:TrackPointExtension>
            <ns3:atemp>22.0</ns3:atemp>
          </ns3:TrackPointExtension>
        </extensions>
      </trkpt>
      <trkpt lat="42.61291637085378170013427734375" lon="19.92668171413242816925048828125">
        <ele>921</ele>
        <time>2026-06-16T12:14:22.000Z</time>
        <extensions>
          <ns3:TrackPointExtension>
            <ns3:atemp>22.0</ns3:atemp>
          </ns3:TrackPointExtension>
        </extensions>
      </trkpt>
      <trkpt lat="42.612869851291179656982421875" lon="19.92670602165162563323974609375">
        <ele>921</ele>
        <time>2026-06-16T12:14:23.000Z</time>
        <extensions>
          <ns3:TrackPointExtension>
            <ns3:atemp>22.0</ns3:atemp>
          </ns3:TrackPointExtension>
        </extensions>
      </trkpt>
      <trkpt lat="42.61282165534794330596923828125" lon="19.9267297424376010894775390625">
        <ele>921</ele>
        <time>2026-06-16T12:14:24.000Z</time>
        <extensions>
          <ns3:TrackPointExtension>
            <ns3:atemp>22.0</ns3:atemp>
          </ns3:TrackPointExtension>
        </extensions>
      </trkpt>
      <trkpt lat="42.6127709448337554931640625" lon="19.9267532117664813995361328125">
        <ele>920.79998779296875</ele>
        <time>2026-06-16T12:14:25.000Z</time>
        <extensions>
          <ns3:TrackPointExtension>
            <ns3:atemp>22.0</ns3:atemp>
          </ns3:TrackPointExtension>
        </extensions>
      </trkpt>
      <trkpt lat="42.61272174306213855743408203125" lon="19.92678347043693065643310546875">
        <ele>920.79998779296875</ele>
        <time>2026-06-16T12:14:26.000Z</time>
        <extensions>
          <ns3:TrackPointExtension>
            <ns3:atemp>22.0</ns3:atemp>
          </ns3:TrackPointExtension>
        </extensions>
      </trkpt>
      <trkpt lat="42.612673379480838775634765625" lon="19.926813729107379913330078125">
        <ele>920.79998779296875</ele>
        <time>2026-06-16T12:14:27.000Z</time>
        <extensions>
          <ns3:TrackPointExtension>
            <ns3:atemp>22.0</ns3:atemp>
          </ns3:TrackPointExtension>
        </extensions>
      </trkpt>
      <trkpt lat="42.61262275278568267822265625" lon="19.92684113793075084686279296875">
        <ele>920.79998779296875</ele>
        <time>2026-06-16T12:14:28.000Z</time>
        <extensions>
          <ns3:TrackPointExtension>
            <ns3:atemp>22.0</ns3:atemp>
          </ns3:TrackPointExtension>
        </extensions>
      </trkpt>
      <trkpt lat="42.6125729642808437347412109375" lon="19.9268665350973606109619140625">
        <ele>920.79998779296875</ele>
        <time>2026-06-16T12:14:29.000Z</time>
        <extensions>
          <ns3:TrackPointExtension>
            <ns3:atemp>22.0</ns3:atemp>
          </ns3:TrackPointExtension>
        </extensions>
      </trkpt>
      <trkpt lat="42.612525522708892822265625" lon="19.92689277045428752899169921875">
        <ele>920.79998779296875</ele>
        <time>2026-06-16T12:14:30.000Z</time>
        <extensions>
          <ns3:TrackPointExtension>
            <ns3:atemp>22.0</ns3:atemp>
          </ns3:TrackPointExtension>
        </extensions>
      </trkpt>
      <trkpt lat="42.612478919327259063720703125" lon="19.9269185028970241546630859375">
        <ele>920.79998779296875</ele>
        <time>2026-06-16T12:14:31.000Z</time>
        <extensions>
          <ns3:TrackPointExtension>
            <ns3:atemp>22.0</ns3:atemp>
          </ns3:TrackPointExtension>
        </extensions>
      </trkpt>
      <trkpt lat="42.6124331541359424591064453125" lon="19.9269449897110462188720703125">
        <ele>921</ele>
        <time>2026-06-16T12:14:32.000Z</time>
        <extensions>
          <ns3:TrackPointExtension>
            <ns3:atemp>22.0</ns3:atemp>
          </ns3:TrackPointExtension>
        </extensions>
      </trkpt>
      <trkpt lat="42.6123875565826892852783203125" lon="19.92697097361087799072265625">
        <ele>921</ele>
        <time>2026-06-16T12:14:33.000Z</time>
        <extensions>
          <ns3:TrackPointExtension>
            <ns3:atemp>22.0</ns3:atemp>
          </ns3:TrackPointExtension>
        </extensions>
      </trkpt>
      <trkpt lat="42.61234405450522899627685546875" lon="19.9269915930926799774169921875">
        <ele>921</ele>
        <time>2026-06-16T12:14:34.000Z</time>
        <extensions>
          <ns3:TrackPointExtension>
            <ns3:atemp>22.0</ns3:atemp>
          </ns3:TrackPointExtension>
        </extensions>
      </trkpt>
      <trkpt lat="42.612301893532276153564453125" lon="19.9270096980035305023193359375">
        <ele>921</ele>
        <time>2026-06-16T12:14:35.000Z</time>
        <extensions>
          <ns3:TrackPointExtension>
            <ns3:atemp>22.0</ns3:atemp>
          </ns3:TrackPointExtension>
        </extensions>
      </trkpt>
      <trkpt lat="42.61225453577935695648193359375" lon="19.92702822200953960418701171875">
        <ele>921</ele>
        <time>2026-06-16T12:14:36.000Z</time>
        <extensions>
          <ns3:TrackPointExtension>
            <ns3:atemp>22.0</ns3:atemp>
          </ns3:TrackPointExtension>
        </extensions>
      </trkpt>
      <trkpt lat="42.6122058369219303131103515625" lon="19.92705219425261020660400390625">
        <ele>921</ele>
        <time>2026-06-16T12:14:37.000Z</time>
        <extensions>
          <ns3:TrackPointExtension>
            <ns3:atemp>22.0</ns3:atemp>
          </ns3:TrackPointExtension>
        </extensions>
      </trkpt>
      <trkpt lat="42.612153701484203338623046875" lon="19.92707650177180767059326171875">
        <ele>921.20001220703125</ele>
        <time>2026-06-16T12:14:38.000Z</time>
        <extensions>
          <ns3:TrackPointExtension>
            <ns3:atemp>22.0</ns3:atemp>
          </ns3:TrackPointExtension>
        </extensions>
      </trkpt>
      <trkpt lat="42.61210416443645954132080078125" lon="19.927094690501689910888671875">
        <ele>921.20001220703125</ele>
        <time>2026-06-16T12:14:39.000Z</time>
        <extensions>
          <ns3:TrackPointExtension>
            <ns3:atemp>22.0</ns3:atemp>
          </ns3:TrackPointExtension>
        </extensions>
      </trkpt>
      <trkpt lat="42.61205655522644519805908203125" lon="19.92710785008966922760009765625">
        <ele>921.20001220703125</ele>
        <time>2026-06-16T12:14:40.000Z</time>
        <extensions>
          <ns3:TrackPointExtension>
            <ns3:atemp>22.0</ns3:atemp>
          </ns3:TrackPointExtension>
        </extensions>
      </trkpt>
      <trkpt lat="42.61201079003512859344482421875" lon="19.92711086757481098175048828125">
        <ele>921.4000244140625</ele>
        <time>2026-06-16T12:14:41.000Z</time>
        <extensions>
          <ns3:TrackPointExtension>
            <ns3:atemp>22.0</ns3:atemp>
          </ns3:TrackPointExtension>
        </extensions>
      </trkpt>
      <trkpt lat="42.61196024715900421142578125" lon="19.92710902355611324310302734375">
        <ele>921.4000244140625</ele>
        <time>2026-06-16T12:14:42.000Z</time>
        <extensions>
          <ns3:TrackPointExtension>
            <ns3:atemp>22.0</ns3:atemp>
          </ns3:TrackPointExtension>
        </extensions>
      </trkpt>
      <trkpt lat="42.61190928518772125244140625" lon="19.92710667662322521209716796875">
        <ele>921.5999755859375</ele>
        <time>2026-06-16T12:14:43.000Z</time>
        <extensions>
          <ns3:TrackPointExtension>
            <ns3:atemp>22.0</ns3:atemp>
          </ns3:TrackPointExtension>
        </extensions>
      </trkpt>
      <trkpt lat="42.61185773648321628570556640625" lon="19.92710315622389316558837890625">
        <ele>921.79998779296875</ele>
        <time>2026-06-16T12:14:44.000Z</time>
        <extensions>
          <ns3:TrackPointExtension>
            <ns3:atemp>22.0</ns3:atemp>
          </ns3:TrackPointExtension>
        </extensions>
      </trkpt>
      <trkpt lat="42.6118092052638530731201171875" lon="19.9270869791507720947265625">
        <ele>921.79998779296875</ele>
        <time>2026-06-16T12:14:45.000Z</time>
        <extensions>
          <ns3:TrackPointExtension>
            <ns3:atemp>22.0</ns3:atemp>
          </ns3:TrackPointExtension>
        </extensions>
      </trkpt>
      <trkpt lat="42.611758746206760406494140625" lon="19.92706493474543094635009765625">
        <ele>922</ele>
        <time>2026-06-16T12:14:46.000Z</time>
        <extensions>
          <ns3:TrackPointExtension>
            <ns3:atemp>22.0</ns3:atemp>
          </ns3:TrackPointExtension>
        </extensions>
      </trkpt>
      <trkpt lat="42.61171004734933376312255859375" lon="19.9270388670265674591064453125">
        <ele>922</ele>
        <time>2026-06-16T12:14:47.000Z</time>
        <extensions>
          <ns3:TrackPointExtension>
            <ns3:atemp>22.0</ns3:atemp>
          </ns3:TrackPointExtension>
        </extensions>
      </trkpt>
      <trkpt lat="42.61166444979608058929443359375" lon="19.9270073510706424713134765625">
        <ele>922.20001220703125</ele>
        <time>2026-06-16T12:14:48.000Z</time>
        <extensions>
          <ns3:TrackPointExtension>
            <ns3:atemp>22.0</ns3:atemp>
          </ns3:TrackPointExtension>
        </extensions>
      </trkpt>
      <trkpt lat="42.61161960661411285400390625" lon="19.92697524838149547576904296875">
        <ele>922.20001220703125</ele>
        <time>2026-06-16T12:14:49.000Z</time>
        <extensions>
          <ns3:TrackPointExtension>
            <ns3:atemp>22.0</ns3:atemp>
          </ns3:TrackPointExtension>
        </extensions>
      </trkpt>
      <trkpt lat="42.61157711036503314971923828125" lon="19.92694188840687274932861328125">
        <ele>922.4000244140625</ele>
        <time>2026-06-16T12:14:50.000Z</time>
        <extensions>
          <ns3:TrackPointExtension>
            <ns3:atemp>22.0</ns3:atemp>
          </ns3:TrackPointExtension>
        </extensions>
      </trkpt>
      <trkpt lat="42.61153243482112884521484375" lon="19.9269101209938526153564453125">
        <ele>922.5999755859375</ele>
        <time>2026-06-16T12:14:51.000Z</time>
        <extensions>
          <ns3:TrackPointExtension>
            <ns3:atemp>22.0</ns3:atemp>
          </ns3:TrackPointExtension>
        </extensions>
      </trkpt>
      <trkpt lat="42.6114880107343196868896484375" lon="19.92688137106597423553466796875">
        <ele>922.5999755859375</ele>
        <time>2026-06-16T12:14:52.000Z</time>
        <extensions>
          <ns3:TrackPointExtension>
            <ns3:atemp>22.0</ns3:atemp>
          </ns3:TrackPointExtension>
        </extensions>
      </trkpt>
      <trkpt lat="42.611442245543003082275390625" lon="19.9268524535000324249267578125">
        <ele>922.79998779296875</ele>
        <time>2026-06-16T12:14:53.000Z</time>
        <extensions>
          <ns3:TrackPointExtension>
            <ns3:atemp>22.0</ns3:atemp>
          </ns3:TrackPointExtension>
        </extensions>
      </trkpt>
      <trkpt lat="42.61139488779008388519287109375" lon="19.926821105182170867919921875">
        <ele>922.79998779296875</ele>
        <time>2026-06-16T12:14:54.000Z</time>
        <extensions>
          <ns3:TrackPointExtension>
            <ns3:atemp>22.0</ns3:atemp>
          </ns3:TrackPointExtension>
        </extensions>
      </trkpt>
      <trkpt lat="42.61134962551295757293701171875" lon="19.92679059505462646484375">
        <ele>923</ele>
        <time>2026-06-16T12:14:55.000Z</time>
        <extensions>
          <ns3:TrackPointExtension>
            <ns3:atemp>22.0</ns3:atemp>
          </ns3:TrackPointExtension>
        </extensions>
      </trkpt>
      <trkpt lat="42.611306793987751007080078125" lon="19.9267609231173992156982421875">
        <ele>923</ele>
        <time>2026-06-16T12:14:56.000Z</time>
        <extensions>
          <ns3:TrackPointExtension>
            <ns3:atemp>22.0</ns3:atemp>
          </ns3:TrackPointExtension>
        </extensions>
      </trkpt>
      <trkpt lat="42.61126362718641757965087890625" lon="19.92673016153275966644287109375">
        <ele>923</ele>
        <time>2026-06-16T12:14:57.000Z</time>
        <extensions>
          <ns3:TrackPointExtension>
            <ns3:atemp>22.0</ns3:atemp>
          </ns3:TrackPointExtension>
        </extensions>
      </trkpt>
      <trkpt lat="42.61122104711830615997314453125" lon="19.92669797502458095550537109375">
        <ele>923</ele>
        <time>2026-06-16T12:14:58.000Z</time>
        <extensions>
          <ns3:TrackPointExtension>
            <ns3:atemp>22.0</ns3:atemp>
          </ns3:TrackPointExtension>
        </extensions>
      </trkpt>
      <trkpt lat="42.61117813177406787872314453125" lon="19.9266683869063854217529296875">
        <ele>923.20001220703125</ele>
        <time>2026-06-16T12:14:59.000Z</time>
        <extensions>
          <ns3:TrackPointExtension>
            <ns3:atemp>22.0</ns3:atemp>
          </ns3:TrackPointExtension>
        </extensions>
      </trkpt>
      <trkpt lat="42.61113437823951244354248046875" lon="19.9266415648162364959716796875">
        <ele>923.20001220703125</ele>
        <time>2026-06-16T12:15:00.000Z</time>
        <extensions>
          <ns3:TrackPointExtension>
            <ns3:atemp>22.0</ns3:atemp>
          </ns3:TrackPointExtension>
        </extensions>
      </trkpt>
      <trkpt lat="42.61109146289527416229248046875" lon="19.9266122281551361083984375">
        <ele>923.20001220703125</ele>
        <time>2026-06-16T12:15:01.000Z</time>
        <extensions>
          <ns3:TrackPointExtension>
            <ns3:atemp>22.0</ns3:atemp>
          </ns3:TrackPointExtension>
        </extensions>
      </trkpt>
      <trkpt lat="42.611049972474575042724609375" lon="19.9265835620462894439697265625">
        <ele>923.4000244140625</ele>
        <time>2026-06-16T12:15:02.000Z</time>
        <extensions>
          <ns3:TrackPointExtension>
            <ns3:atemp>22.0</ns3:atemp>
          </ns3:TrackPointExtension>
        </extensions>
      </trkpt>
      <trkpt lat="42.61100831441581249237060546875" lon="19.92655389010906219482421875">
        <ele>923.5999755859375</ele>
        <time>2026-06-16T12:15:03.000Z</time>
        <extensions>
          <ns3:TrackPointExtension>
            <ns3:atemp>22.0</ns3:atemp>
          </ns3:TrackPointExtension>
        </extensions>
      </trkpt>
      <trkpt lat="42.610964812338352203369140625" lon="19.92652178741991519927978515625">
        <ele>923.5999755859375</ele>
        <time>2026-06-16T12:15:04.000Z</time>
        <extensions>
          <ns3:TrackPointExtension>
            <ns3:atemp>22.0</ns3:atemp>
          </ns3:TrackPointExtension>
        </extensions>
      </trkpt>
      <trkpt lat="42.61092164553701877593994140625" lon="19.9264937080442905426025390625">
        <ele>923.79998779296875</ele>
        <time>2026-06-16T12:15:05.000Z</time>
        <extensions>
          <ns3:TrackPointExtension>
            <ns3:atemp>22.0</ns3:atemp>
          </ns3:TrackPointExtension>
        </extensions>
      </trkpt>
      <trkpt lat="42.61087797582149505615234375" lon="19.92646411992609500885009765625">
        <ele>924.20001220703125</ele>
        <time>2026-06-16T12:15:06.000Z</time>
        <extensions>
          <ns3:TrackPointExtension>
            <ns3:atemp>22.0</ns3:atemp>
          </ns3:TrackPointExtension>
        </extensions>
      </trkpt>
      <trkpt lat="42.61083346791565418243408203125" lon="19.9264370463788509368896484375">
        <ele>924.20001220703125</ele>
        <time>2026-06-16T12:15:07.000Z</time>
        <extensions>
          <ns3:TrackPointExtension>
            <ns3:atemp>22.0</ns3:atemp>
          </ns3:TrackPointExtension>
        </extensions>
      </trkpt>
      <trkpt lat="42.6107886247336864471435546875" lon="19.92641416378319263458251953125">
        <ele>924.20001220703125</ele>
        <time>2026-06-16T12:15:08.000Z</time>
        <extensions>
          <ns3:TrackPointExtension>
            <ns3:atemp>22.0</ns3:atemp>
          </ns3:TrackPointExtension>
        </extensions>
      </trkpt>
      <trkpt lat="42.610743530094623565673828125" lon="19.9263904429972171783447265625">
        <ele>924.4000244140625</ele>
        <time>2026-06-16T12:15:09.000Z</time>
        <extensions>
          <ns3:TrackPointExtension>
            <ns3:atemp>22.0</ns3:atemp>
          </ns3:TrackPointExtension>
        </extensions>
      </trkpt>
      <trkpt lat="42.61069499887526035308837890625" lon="19.9263666383922100067138671875">
        <ele>924.4000244140625</ele>
        <time>2026-06-16T12:15:10.000Z</time>
        <extensions>
          <ns3:TrackPointExtension>
            <ns3:atemp>22.0</ns3:atemp>
          </ns3:TrackPointExtension>
        </extensions>
      </trkpt>
      <trkpt lat="42.61064705438911914825439453125" lon="19.92634124122560024261474609375">
        <ele>924.4000244140625</ele>
        <time>2026-06-16T12:15:11.000Z</time>
        <extensions>
          <ns3:TrackPointExtension>
            <ns3:atemp>22.0</ns3:atemp>
          </ns3:TrackPointExtension>
        </extensions>
      </trkpt>
      <trkpt lat="42.61059743352234363555908203125" lon="19.926316849887371063232421875">
        <ele>924.5999755859375</ele>
        <time>2026-06-16T12:15:12.000Z</time>
        <extensions>
          <ns3:TrackPointExtension>
            <ns3:atemp>22.0</ns3:atemp>
          </ns3:TrackPointExtension>
        </extensions>
      </trkpt>
      <trkpt lat="42.6105472259223461151123046875" lon="19.9262984097003936767578125">
        <ele>924.5999755859375</ele>
        <time>2026-06-16T12:15:13.000Z</time>
        <extensions>
          <ns3:TrackPointExtension>
            <ns3:atemp>22.0</ns3:atemp>
          </ns3:TrackPointExtension>
        </extensions>
      </trkpt>
      <trkpt lat="42.6104979403316974639892578125" lon="19.9262818135321140289306640625">
        <ele>924.5999755859375</ele>
        <time>2026-06-16T12:15:14.000Z</time>
        <extensions>
          <ns3:TrackPointExtension>
            <ns3:atemp>22.0</ns3:atemp>
          </ns3:TrackPointExtension>
        </extensions>
      </trkpt>
      <trkpt lat="42.61044739745557308197021484375" lon="19.92626513354480266571044921875">
        <ele>924.79998779296875</ele>
        <time>2026-06-16T12:15:15.000Z</time>
        <extensions>
          <ns3:TrackPointExtension>
            <ns3:atemp>22.0</ns3:atemp>
          </ns3:TrackPointExtension>
        </extensions>
      </trkpt>
      <trkpt lat="42.6103950105607509613037109375" lon="19.926251135766506195068359375">
        <ele>924.79998779296875</ele>
        <time>2026-06-16T12:15:16.000Z</time>
        <extensions>
          <ns3:TrackPointExtension>
            <ns3:atemp>22.0</ns3:atemp>
          </ns3:TrackPointExtension>
        </extensions>
      </trkpt>
      <trkpt lat="42.61034228838980197906494140625" lon="19.9262409098446369171142578125">
        <ele>924.79998779296875</ele>
        <time>2026-06-16T12:15:17.000Z</time>
        <extensions>
          <ns3:TrackPointExtension>
            <ns3:atemp>22.0</ns3:atemp>
          </ns3:TrackPointExtension>
        </extensions>
      </trkpt>
      <trkpt lat="42.61029115878045558929443359375" lon="19.92622942663729190826416015625">
        <ele>925</ele>
        <time>2026-06-16T12:15:18.000Z</time>
        <extensions>
          <ns3:TrackPointExtension>
            <ns3:atemp>22.0</ns3:atemp>
          </ns3:TrackPointExtension>
        </extensions>
      </trkpt>
      <trkpt lat="42.61023969389498233795166015625" lon="19.926218278706073760986328125">
        <ele>925</ele>
        <time>2026-06-16T12:15:19.000Z</time>
        <extensions>
          <ns3:TrackPointExtension>
            <ns3:atemp>22.0</ns3:atemp>
          </ns3:TrackPointExtension>
        </extensions>
      </trkpt>
      <trkpt lat="42.610190995037555694580078125" lon="19.9262098968029022216796875">
        <ele>925.20001220703125</ele>
        <time>2026-06-16T12:15:20.000Z</time>
        <extensions>
          <ns3:TrackPointExtension>
            <ns3:atemp>22.0</ns3:atemp>
          </ns3:TrackPointExtension>
        </extensions>
      </trkpt>
      <trkpt lat="42.61014028452336788177490234375" lon="19.92620461620390415191650390625">
        <ele>925.4000244140625</ele>
        <time>2026-06-16T12:15:21.000Z</time>
        <extensions>
          <ns3:TrackPointExtension>
            <ns3:atemp>22.0</ns3:atemp>
          </ns3:TrackPointExtension>
        </extensions>
      </trkpt>
      <trkpt lat="42.61008798144757747650146484375" lon="19.92619724012911319732666015625">
        <ele>925.4000244140625</ele>
        <time>2026-06-16T12:15:22.000Z</time>
        <extensions>
          <ns3:TrackPointExtension>
            <ns3:atemp>22.0</ns3:atemp>
          </ns3:TrackPointExtension>
        </extensions>
      </trkpt>
      <trkpt lat="42.61003517545759677886962890625" lon="19.9261911213397979736328125">
        <ele>925.5999755859375</ele>
        <time>2026-06-16T12:15:23.000Z</time>
        <extensions>
          <ns3:TrackPointExtension>
            <ns3:atemp>22.0</ns3:atemp>
          </ns3:TrackPointExtension>
        </extensions>
      </trkpt>
      <trkpt lat="42.60998404584825038909912109375" lon="19.926185421645641326904296875">
        <ele>925.5999755859375</ele>
        <time>2026-06-16T12:15:24.000Z</time>
        <extensions>
          <ns3:TrackPointExtension>
            <ns3:atemp>22.0</ns3:atemp>
          </ns3:TrackPointExtension>
        </extensions>
      </trkpt>
      <trkpt lat="42.609932832419872283935546875" lon="19.9261768721044063568115234375">
        <ele>925.5999755859375</ele>
        <time>2026-06-16T12:15:25.000Z</time>
        <extensions>
          <ns3:TrackPointExtension>
            <ns3:atemp>22.0</ns3:atemp>
          </ns3:TrackPointExtension>
        </extensions>
      </trkpt>
      <trkpt lat="42.60988430120050907135009765625" lon="19.92616790346801280975341796875">
        <ele>925.5999755859375</ele>
        <time>2026-06-16T12:15:26.000Z</time>
        <extensions>
          <ns3:TrackPointExtension>
            <ns3:atemp>22.0</ns3:atemp>
          </ns3:TrackPointExtension>
        </extensions>
      </trkpt>
      <trkpt lat="42.60983702726662158966064453125" lon="19.92616136558353900909423828125">
        <ele>925.79998779296875</ele>
        <time>2026-06-16T12:15:27.000Z</time>
        <extensions>
          <ns3:TrackPointExtension>
            <ns3:atemp>22.0</ns3:atemp>
          </ns3:TrackPointExtension>
        </extensions>
      </trkpt>
      <trkpt lat="42.60978925041854381561279296875" lon="19.92615482769906520843505859375">
        <ele>925.79998779296875</ele>
        <time>2026-06-16T12:15:28.000Z</time>
        <extensions>
          <ns3:TrackPointExtension>
            <ns3:atemp>22.0</ns3:atemp>
          </ns3:TrackPointExtension>
        </extensions>
      </trkpt>
      <trkpt lat="42.609740383923053741455078125" lon="19.92614678107202053070068359375">
        <ele>925.79998779296875</ele>
        <time>2026-06-16T12:15:29.000Z</time>
        <extensions>
          <ns3:TrackPointExtension>
            <ns3:atemp>22.0</ns3:atemp>
          </ns3:TrackPointExtension>
        </extensions>
      </trkpt>
      <trkpt lat="42.609690763056278228759765625" lon="19.92613940499722957611083984375">
        <ele>925.79998779296875</ele>
        <time>2026-06-16T12:15:30.000Z</time>
        <extensions>
          <ns3:TrackPointExtension>
            <ns3:atemp>22.0</ns3:atemp>
          </ns3:TrackPointExtension>
        </extensions>
      </trkpt>
      <trkpt lat="42.609640471637248992919921875" lon="19.9261302687227725982666015625">
        <ele>925.79998779296875</ele>
        <time>2026-06-16T12:15:31.000Z</time>
        <extensions>
          <ns3:TrackPointExtension>
            <ns3:atemp>22.0</ns3:atemp>
          </ns3:TrackPointExtension>
        </extensions>
      </trkpt>
      <trkpt lat="42.609587498009204864501953125" lon="19.92612280882894992828369140625">
        <ele>926</ele>
        <time>2026-06-16T12:15:32.000Z</time>
        <extensions>
          <ns3:TrackPointExtension>
            <ns3:atemp>22.0</ns3:atemp>
          </ns3:TrackPointExtension>
        </extensions>
      </trkpt>
      <trkpt lat="42.6095340214669704437255859375" lon="19.92611492983996868133544921875">
        <ele>926</ele>
        <time>2026-06-16T12:15:33.000Z</time>
        <extensions>
          <ns3:TrackPointExtension>
            <ns3:atemp>22.0</ns3:atemp>
          </ns3:TrackPointExtension>
        </extensions>
      </trkpt>
      <trkpt lat="42.609478868544101715087890625" lon="19.92610654793679714202880859375">
        <ele>926.20001220703125</ele>
        <time>2026-06-16T12:15:34.000Z</time>
        <extensions>
          <ns3:TrackPointExtension>
            <ns3:atemp>22.0</ns3:atemp>
          </ns3:TrackPointExtension>
        </extensions>
      </trkpt>
      <trkpt lat="42.60942815802991390228271484375" lon="19.9261007644236087799072265625">
        <ele>926.20001220703125</ele>
        <time>2026-06-16T12:15:35.000Z</time>
        <extensions>
          <ns3:TrackPointExtension>
            <ns3:atemp>22.0</ns3:atemp>
          </ns3:TrackPointExtension>
        </extensions>
      </trkpt>
      <trkpt lat="42.6093781180679798126220703125" lon="19.92610118351876735687255859375">
        <ele>926.20001220703125</ele>
        <time>2026-06-16T12:15:36.000Z</time>
        <extensions>
          <ns3:TrackPointExtension>
            <ns3:atemp>22.0</ns3:atemp>
          </ns3:TrackPointExtension>
        </extensions>
      </trkpt>
      <trkpt lat="42.60932556353509426116943359375" lon="19.92610730230808258056640625">
        <ele>926</ele>
        <time>2026-06-16T12:15:37.000Z</time>
        <extensions>
          <ns3:TrackPointExtension>
            <ns3:atemp>22.0</ns3:atemp>
          </ns3:TrackPointExtension>
        </extensions>
      </trkpt>
      <trkpt lat="42.6092768646776676177978515625" lon="19.926111996173858642578125">
        <ele>926</ele>
        <time>2026-06-16T12:15:38.000Z</time>
        <extensions>
          <ns3:TrackPointExtension>
            <ns3:atemp>22.0</ns3:atemp>
          </ns3:TrackPointExtension>
        </extensions>
      </trkpt>
      <trkpt lat="42.60922833345830440521240234375" lon="19.92612364701926708221435546875">
        <ele>926</ele>
        <time>2026-06-16T12:15:39.000Z</time>
        <extensions>
          <ns3:TrackPointExtension>
            <ns3:atemp>22.0</ns3:atemp>
          </ns3:TrackPointExtension>
        </extensions>
      </trkpt>
      <trkpt lat="42.60918055661022663116455078125" lon="19.92613655515015125274658203125">
        <ele>925.79998779296875</ele>
        <time>2026-06-16T12:15:40.000Z</time>
        <extensions>
          <ns3:TrackPointExtension>
            <ns3:atemp>22.0</ns3:atemp>
          </ns3:TrackPointExtension>
        </extensions>
      </trkpt>
      <trkpt lat="42.6091350428760051727294921875" lon="19.92615717463195323944091796875">
        <ele>925.79998779296875</ele>
        <time>2026-06-16T12:15:41.000Z</time>
        <extensions>
          <ns3:TrackPointExtension>
            <ns3:atemp>22.0</ns3:atemp>
          </ns3:TrackPointExtension>
        </extensions>
      </trkpt>
      <trkpt lat="42.60909304954111576080322265625" lon="19.9261822365224361419677734375">
        <ele>925.5999755859375</ele>
        <time>2026-06-16T12:15:42.000Z</time>
        <extensions>
          <ns3:TrackPointExtension>
            <ns3:atemp>22.0</ns3:atemp>
          </ns3:TrackPointExtension>
        </extensions>
      </trkpt>
      <trkpt lat="42.609048373997211456298828125" lon="19.92620796896517276763916015625">
        <ele>925.4000244140625</ele>
        <time>2026-06-16T12:15:43.000Z</time>
        <extensions>
          <ns3:TrackPointExtension>
            <ns3:atemp>22.0</ns3:atemp>
          </ns3:TrackPointExtension>
        </extensions>
      </trkpt>
      <trkpt lat="42.60900177061557769775390625" lon="19.92623470723628997802734375">
        <ele>925.4000244140625</ele>
        <time>2026-06-16T12:15:44.000Z</time>
        <extensions>
          <ns3:TrackPointExtension>
            <ns3:atemp>22.0</ns3:atemp>
          </ns3:TrackPointExtension>
        </extensions>
      </trkpt>
      <trkpt lat="42.6089549995958805084228515625" lon="19.92626664228737354278564453125">
        <ele>925.20001220703125</ele>
        <time>2026-06-16T12:15:45.000Z</time>
        <extensions>
          <ns3:TrackPointExtension>
            <ns3:atemp>22.0</ns3:atemp>
          </ns3:TrackPointExtension>
        </extensions>
      </trkpt>
      <trkpt lat="42.60890931822359561920166015625" lon="19.92629514075815677642822265625">
        <ele>925.20001220703125</ele>
        <time>2026-06-16T12:15:46.000Z</time>
        <extensions>
          <ns3:TrackPointExtension>
            <ns3:atemp>22.0</ns3:atemp>
          </ns3:TrackPointExtension>
        </extensions>
      </trkpt>
      <trkpt lat="42.60886095464229583740234375" lon="19.9263237230479717254638671875">
        <ele>925</ele>
        <time>2026-06-16T12:15:47.000Z</time>
        <extensions>
          <ns3:TrackPointExtension>
            <ns3:atemp>22.0</ns3:atemp>
          </ns3:TrackPointExtension>
        </extensions>
      </trkpt>
      <trkpt lat="42.60881602764129638671875" lon="19.92635766975581645965576171875">
        <ele>924.79998779296875</ele>
        <time>2026-06-16T12:15:48.000Z</time>
        <extensions>
          <ns3:TrackPointExtension>
            <ns3:atemp>22.0</ns3:atemp>
          </ns3:TrackPointExtension>
        </extensions>
      </trkpt>
      <trkpt lat="42.6087665744125843048095703125" lon="19.926393292844295501708984375">
        <ele>924.5999755859375</ele>
        <time>2026-06-16T12:15:49.000Z</time>
        <extensions>
          <ns3:TrackPointExtension>
            <ns3:atemp>22.0</ns3:atemp>
          </ns3:TrackPointExtension>
        </extensions>
      </trkpt>
      <trkpt lat="42.60871611535549163818359375" lon="19.92642405442893505096435546875">
        <ele>924.4000244140625</ele>
        <time>2026-06-16T12:15:50.000Z</time>
        <extensions>
          <ns3:TrackPointExtension>
            <ns3:atemp>22.0</ns3:atemp>
          </ns3:TrackPointExtension>
        </extensions>
      </trkpt>
      <trkpt lat="42.60866272263228893280029296875" lon="19.92644819431006908416748046875">
        <ele>924.20001220703125</ele>
        <time>2026-06-16T12:15:51.000Z</time>
        <extensions>
          <ns3:TrackPointExtension>
            <ns3:atemp>22.0</ns3:atemp>
          </ns3:TrackPointExtension>
        </extensions>
      </trkpt>
      <trkpt lat="42.60861176066100597381591796875" lon="19.9264652095735073089599609375">
        <ele>924</ele>
        <time>2026-06-16T12:15:52.000Z</time>
        <extensions>
          <ns3:TrackPointExtension>
            <ns3:atemp>22.0</ns3:atemp>
          </ns3:TrackPointExtension>
        </extensions>
      </trkpt>
      <trkpt lat="42.60855711065232753753662109375" lon="19.9264749325811862945556640625">
        <ele>923.79998779296875</ele>
        <time>2026-06-16T12:15:53.000Z</time>
        <extensions>
          <ns3:TrackPointExtension>
            <ns3:atemp>22.0</ns3:atemp>
          </ns3:TrackPointExtension>
        </extensions>
      </trkpt>
      <trkpt lat="42.608501203358173370361328125" lon="19.92647434584796428680419921875">
        <ele>923.5999755859375</ele>
        <time>2026-06-16T12:15:54.000Z</time>
        <extensions>
          <ns3:TrackPointExtension>
            <ns3:atemp>22.0</ns3:atemp>
          </ns3:TrackPointExtension>
        </extensions>
      </trkpt>
      <trkpt lat="42.608445547521114349365234375" lon="19.92646596394479274749755859375">
        <ele>923.4000244140625</ele>
        <time>2026-06-16T12:15:55.000Z</time>
        <extensions>
          <ns3:TrackPointExtension>
            <ns3:atemp>22.0</ns3:atemp>
          </ns3:TrackPointExtension>
        </extensions>
      </trkpt>
      <trkpt lat="42.60839425027370452880859375" lon="19.9264447577297687530517578125">
        <ele>923.4000244140625</ele>
        <time>2026-06-16T12:15:56.000Z</time>
        <extensions>
          <ns3:TrackPointExtension>
            <ns3:atemp>22.0</ns3:atemp>
          </ns3:TrackPointExtension>
        </extensions>
      </trkpt>
      <trkpt lat="42.60834421031177043914794921875" lon="19.9264186061918735504150390625">
        <ele>923.20001220703125</ele>
        <time>2026-06-16T12:15:57.000Z</time>
        <extensions>
          <ns3:TrackPointExtension>
            <ns3:atemp>22.0</ns3:atemp>
          </ns3:TrackPointExtension>
        </extensions>
      </trkpt>
      <trkpt lat="42.6082904823124408721923828125" lon="19.9264289997518062591552734375">
        <ele>923.20001220703125</ele>
        <time>2026-06-16T12:15:58.000Z</time>
        <extensions>
          <ns3:TrackPointExtension>
            <ns3:atemp>22.0</ns3:atemp>
          </ns3:TrackPointExtension>
        </extensions>
      </trkpt>
      <trkpt lat="42.60825770907104015350341796875" lon="19.9264662154018878936767578125">
        <ele>923.20001220703125</ele>
        <time>2026-06-16T12:15:59.000Z</time>
        <extensions>
          <ns3:TrackPointExtension>
            <ns3:atemp>22.0</ns3:atemp>
          </ns3:TrackPointExtension>
        </extensions>
      </trkpt>
      <trkpt lat="42.60824429802596569061279296875" lon="19.92652245797216892242431640625">
        <ele>923.20001220703125</ele>
        <time>2026-06-16T12:16:00.000Z</time>
        <extensions>
          <ns3:TrackPointExtension>
            <ns3:atemp>22.0</ns3:atemp>
          </ns3:TrackPointExtension>
        </extensions>
      </trkpt>
      <trkpt lat="42.60824060998857021331787109375" lon="19.9265932850539684295654296875">
        <ele>923.20001220703125</ele>
        <time>2026-06-16T12:16:01.000Z</time>
        <extensions>
          <ns3:TrackPointExtension>
            <ns3:atemp>22.0</ns3:atemp>
          </ns3:TrackPointExtension>
        </extensions>
      </trkpt>
      <trkpt lat="42.6082448847591876983642578125" lon="19.926662184298038482666015625">
        <ele>923.20001220703125</ele>
        <time>2026-06-16T12:16:02.000Z</time>
        <extensions>
          <ns3:TrackPointExtension>
            <ns3:atemp>22.0</ns3:atemp>
          </ns3:TrackPointExtension>
        </extensions>
      </trkpt>
      <trkpt lat="42.60824781842529773712158203125" lon="19.926736615598201751708984375">
        <ele>923.20001220703125</ele>
        <time>2026-06-16T12:16:03.000Z</time>
        <extensions>
          <ns3:TrackPointExtension>
            <ns3:atemp>22.0</ns3:atemp>
          </ns3:TrackPointExtension>
        </extensions>
      </trkpt>
      <trkpt lat="42.6082445494830608367919921875" lon="19.92681263945996761322021484375">
        <ele>923.20001220703125</ele>
        <time>2026-06-16T12:16:04.000Z</time>
        <extensions>
          <ns3:TrackPointExtension>
            <ns3:atemp>22.0</ns3:atemp>
          </ns3:TrackPointExtension>
        </extensions>
      </trkpt>
      <trkpt lat="42.60823734104633331298828125" lon="19.9268926866352558135986328125">
        <ele>923</ele>
        <time>2026-06-16T12:16:05.000Z</time>
        <extensions>
          <ns3:TrackPointExtension>
            <ns3:atemp>22.0</ns3:atemp>
          </ns3:TrackPointExtension>
        </extensions>
      </trkpt>
      <trkpt lat="42.6082287915050983428955078125" lon="19.92697457782924175262451171875">
        <ele>923</ele>
        <time>2026-06-16T12:16:06.000Z</time>
        <extensions>
          <ns3:TrackPointExtension>
            <ns3:atemp>22.0</ns3:atemp>
          </ns3:TrackPointExtension>
        </extensions>
      </trkpt>
      <trkpt lat="42.60821915231645107269287109375" lon="19.92705269716680049896240234375">
        <ele>922.79998779296875</ele>
        <time>2026-06-16T12:16:07.000Z</time>
        <extensions>
          <ns3:TrackPointExtension>
            <ns3:atemp>22.0</ns3:atemp>
          </ns3:TrackPointExtension>
        </extensions>
      </trkpt>
      <trkpt lat="42.60820825584232807159423828125" lon="19.9271379411220550537109375">
        <ele>922.79998779296875</ele>
        <time>2026-06-16T12:16:08.000Z</time>
        <extensions>
          <ns3:TrackPointExtension>
            <ns3:atemp>22.0</ns3:atemp>
          </ns3:TrackPointExtension>
        </extensions>
      </trkpt>
      <trkpt lat="42.60819886811077594757080078125" lon="19.92722016759216785430908203125">
        <ele>922.5999755859375</ele>
        <time>2026-06-16T12:16:09.000Z</time>
        <extensions>
          <ns3:TrackPointExtension>
            <ns3:atemp>22.0</ns3:atemp>
          </ns3:TrackPointExtension>
        </extensions>
      </trkpt>
      <trkpt lat="42.60819040238857269287109375" lon="19.92730147205293178558349609375">
        <ele>922.5999755859375</ele>
        <time>2026-06-16T12:16:10.000Z</time>
        <extensions>
          <ns3:TrackPointExtension>
            <ns3:atemp>22.0</ns3:atemp>
          </ns3:TrackPointExtension>
        </extensions>
      </trkpt>
      <trkpt lat="42.60818059556186199188232421875" lon="19.92738403379917144775390625">
        <ele>922.5999755859375</ele>
        <time>2026-06-16T12:16:11.000Z</time>
        <extensions>
          <ns3:TrackPointExtension>
            <ns3:atemp>22.0</ns3:atemp>
          </ns3:TrackPointExtension>
        </extensions>
      </trkpt>
      <trkpt lat="42.6081681065261363983154296875" lon="19.9274624884128570556640625">
        <ele>922.5999755859375</ele>
        <time>2026-06-16T12:16:12.000Z</time>
        <extensions>
          <ns3:TrackPointExtension>
            <ns3:atemp>22.0</ns3:atemp>
          </ns3:TrackPointExtension>
        </extensions>
      </trkpt>
      <trkpt lat="42.6081557013094425201416015625" lon="19.9275394342839717864990234375">
        <ele>922.4000244140625</ele>
        <time>2026-06-16T12:16:13.000Z</time>
        <extensions>
          <ns3:TrackPointExtension>
            <ns3:atemp>22.0</ns3:atemp>
          </ns3:TrackPointExtension>
        </extensions>
      </trkpt>
      <trkpt lat="42.608139775693416595458984375" lon="19.92761881090700626373291015625">
        <ele>922.4000244140625</ele>
        <time>2026-06-16T12:16:14.000Z</time>
        <extensions>
          <ns3:TrackPointExtension>
            <ns3:atemp>22.0</ns3:atemp>
          </ns3:TrackPointExtension>
        </extensions>
      </trkpt>
      <trkpt lat="42.6081199944019317626953125" lon="19.92769139818847179412841796875">
        <ele>922.4000244140625</ele>
        <time>2026-06-16T12:16:15.000Z</time>
        <extensions>
          <ns3:TrackPointExtension>
            <ns3:atemp>22.0</ns3:atemp>
          </ns3:TrackPointExtension>
        </extensions>
      </trkpt>
      <trkpt lat="42.60809694416821002960205078125" lon="19.92777027189731597900390625">
        <ele>922.4000244140625</ele>
        <time>2026-06-16T12:16:16.000Z</time>
        <extensions>
          <ns3:TrackPointExtension>
            <ns3:atemp>22.0</ns3:atemp>
          </ns3:TrackPointExtension>
        </extensions>
      </trkpt>
      <trkpt lat="42.60807146318256855010986328125" lon="19.92784939706325531005859375">
        <ele>922.4000244140625</ele>
        <time>2026-06-16T12:16:17.000Z</time>
        <extensions>
          <ns3:TrackPointExtension>
            <ns3:atemp>22.0</ns3:atemp>
          </ns3:TrackPointExtension>
        </extensions>
      </trkpt>
      <trkpt lat="42.60804413817822933197021484375" lon="19.92792190052568912506103515625">
        <ele>922.4000244140625</ele>
        <time>2026-06-16T12:16:18.000Z</time>
        <extensions>
          <ns3:TrackPointExtension>
            <ns3:atemp>22.0</ns3:atemp>
          </ns3:TrackPointExtension>
        </extensions>
      </trkpt>
      <trkpt lat="42.6080127060413360595703125" lon="19.92799113504588603973388671875">
        <ele>922.4000244140625</ele>
        <time>2026-06-16T12:16:19.000Z</time>
        <extensions>
          <ns3:TrackPointExtension>
            <ns3:atemp>22.0</ns3:atemp>
          </ns3:TrackPointExtension>
        </extensions>
      </trkpt>
      <trkpt lat="42.60797448456287384033203125" lon="19.92804779671132564544677734375">
        <ele>922.5999755859375</ele>
        <time>2026-06-16T12:16:20.000Z</time>
        <extensions>
          <ns3:TrackPointExtension>
            <ns3:atemp>22.0</ns3:atemp>
          </ns3:TrackPointExtension>
        </extensions>
      </trkpt>
      <trkpt lat="42.607934586703777313232421875" lon="19.92809724994003772735595703125">
        <ele>922.5999755859375</ele>
        <time>2026-06-16T12:16:21.000Z</time>
        <extensions>
          <ns3:TrackPointExtension>
            <ns3:atemp>22.0</ns3:atemp>
          </ns3:TrackPointExtension>
        </extensions>
      </trkpt>
      <trkpt lat="42.607890330255031585693359375" lon="19.928145110607147216796875">
        <ele>922.5999755859375</ele>
        <time>2026-06-16T12:16:22.000Z</time>
        <extensions>
          <ns3:TrackPointExtension>
            <ns3:atemp>22.0</ns3:atemp>
          </ns3:TrackPointExtension>
        </extensions>
      </trkpt>
      <trkpt lat="42.6078442297875881195068359375" lon="19.92818861268460750579833984375">
        <ele>922.79998779296875</ele>
        <time>2026-06-16T12:16:23.000Z</time>
        <extensions>
          <ns3:TrackPointExtension>
            <ns3:atemp>22.0</ns3:atemp>
          </ns3:TrackPointExtension>
        </extensions>
      </trkpt>
      <trkpt lat="42.60779603384435176849365234375" lon="19.92823286913335323333740234375">
        <ele>922.79998779296875</ele>
        <time>2026-06-16T12:16:24.000Z</time>
        <extensions>
          <ns3:TrackPointExtension>
            <ns3:atemp>22.0</ns3:atemp>
          </ns3:TrackPointExtension>
        </extensions>
      </trkpt>
      <trkpt lat="42.6077506877481937408447265625" lon="19.9282817356288433074951171875">
        <ele>923</ele>
        <time>2026-06-16T12:16:25.000Z</time>
        <extensions>
          <ns3:TrackPointExtension>
            <ns3:atemp>22.0</ns3:atemp>
          </ns3:TrackPointExtension>
        </extensions>
      </trkpt>
      <trkpt lat="42.60770517401397228240966796875" lon="19.9283288419246673583984375">
        <ele>923</ele>
        <time>2026-06-16T12:16:26.000Z</time>
        <extensions>
          <ns3:TrackPointExtension>
            <ns3:atemp>22.0</ns3:atemp>
          </ns3:TrackPointExtension>
        </extensions>
      </trkpt>
      <trkpt lat="42.6076584868133068084716796875" lon="19.92837242782115936279296875">
        <ele>923</ele>
        <time>2026-06-16T12:16:27.000Z</time>
        <extensions>
          <ns3:TrackPointExtension>
            <ns3:atemp>22.0</ns3:atemp>
          </ns3:TrackPointExtension>
        </extensions>
      </trkpt>
      <trkpt lat="42.60761381126940250396728515625" lon="19.92841592989861965179443359375">
        <ele>923.20001220703125</ele>
        <time>2026-06-16T12:16:28.000Z</time>
        <extensions>
          <ns3:TrackPointExtension>
            <ns3:atemp>22.0</ns3:atemp>
          </ns3:TrackPointExtension>
        </extensions>
      </trkpt>
      <trkpt lat="42.607567124068737030029296875" lon="19.92846152745187282562255859375">
        <ele>923.20001220703125</ele>
        <time>2026-06-16T12:16:29.000Z</time>
        <extensions>
          <ns3:TrackPointExtension>
            <ns3:atemp>22.0</ns3:atemp>
          </ns3:TrackPointExtension>
        </extensions>
      </trkpt>
      <trkpt lat="42.60751909576356410980224609375" lon="19.92851081304252147674560546875">
        <ele>923.4000244140625</ele>
        <time>2026-06-16T12:16:30.000Z</time>
        <extensions>
          <ns3:TrackPointExtension>
            <ns3:atemp>22.0</ns3:atemp>
          </ns3:TrackPointExtension>
        </extensions>
      </trkpt>
      <trkpt lat="42.60747299529612064361572265625" lon="19.9285580031573772430419921875">
        <ele>923.4000244140625</ele>
        <time>2026-06-16T12:16:31.000Z</time>
        <extensions>
          <ns3:TrackPointExtension>
            <ns3:atemp>22.0</ns3:atemp>
          </ns3:TrackPointExtension>
        </extensions>
      </trkpt>
      <trkpt lat="42.60742664337158203125" lon="19.92860418744385242462158203125">
        <ele>923.5999755859375</ele>
        <time>2026-06-16T12:16:32.000Z</time>
        <extensions>
          <ns3:TrackPointExtension>
            <ns3:atemp>22.0</ns3:atemp>
          </ns3:TrackPointExtension>
        </extensions>
      </trkpt>
      <trkpt lat="42.6073828898370265960693359375" lon="19.928651042282581329345703125">
        <ele>923.79998779296875</ele>
        <time>2026-06-16T12:16:33.000Z</time>
        <extensions>
          <ns3:TrackPointExtension>
            <ns3:atemp>22.0</ns3:atemp>
          </ns3:TrackPointExtension>
        </extensions>
      </trkpt>
      <trkpt lat="42.6073372922837734222412109375" lon="19.92869957350194454193115234375">
        <ele>923.79998779296875</ele>
        <time>2026-06-16T12:16:34.000Z</time>
        <extensions>
          <ns3:TrackPointExtension>
            <ns3:atemp>22.0</ns3:atemp>
          </ns3:TrackPointExtension>
        </extensions>
      </trkpt>
      <trkpt lat="42.60729228146374225616455078125" lon="19.92874382995069026947021484375">
        <ele>923.79998779296875</ele>
        <time>2026-06-16T12:16:35.000Z</time>
        <extensions>
          <ns3:TrackPointExtension>
            <ns3:atemp>22.0</ns3:atemp>
          </ns3:TrackPointExtension>
        </extensions>
      </trkpt>
      <trkpt lat="42.6072454266250133514404296875" lon="19.92878657765686511993408203125">
        <ele>924</ele>
        <time>2026-06-16T12:16:36.000Z</time>
        <extensions>
          <ns3:TrackPointExtension>
            <ns3:atemp>22.0</ns3:atemp>
          </ns3:TrackPointExtension>
        </extensions>
      </trkpt>
      <trkpt lat="42.60719873942434787750244140625" lon="19.92883234284818172454833984375">
        <ele>924.20001220703125</ele>
        <time>2026-06-16T12:16:37.000Z</time>
        <extensions>
          <ns3:TrackPointExtension>
            <ns3:atemp>22.0</ns3:atemp>
          </ns3:TrackPointExtension>
        </extensions>
      </trkpt>
      <trkpt lat="42.6071512140333652496337890625" lon="19.92887928150594234466552734375">
        <ele>924.20001220703125</ele>
        <time>2026-06-16T12:16:38.000Z</time>
        <extensions>
          <ns3:TrackPointExtension>
            <ns3:atemp>22.0</ns3:atemp>
          </ns3:TrackPointExtension>
        </extensions>
      </trkpt>
      <trkpt lat="42.60710117407143115997314453125" lon="19.9289298243820667266845703125">
        <ele>924.20001220703125</ele>
        <time>2026-06-16T12:16:39.000Z</time>
        <extensions>
          <ns3:TrackPointExtension>
            <ns3:atemp>23.0</ns3:atemp>
          </ns3:TrackPointExtension>
        </extensions>
      </trkpt>
      <trkpt lat="42.60705088265240192413330078125" lon="19.92897994816303253173828125">
        <ele>924.4000244140625</ele>
        <time>2026-06-16T12:16:40.000Z</time>
        <extensions>
          <ns3:TrackPointExtension>
            <ns3:atemp>23.0</ns3:atemp>
          </ns3:TrackPointExtension>
        </extensions>
      </trkpt>
      <trkpt lat="42.6070023514330387115478515625" lon="19.929026551544666290283203125">
        <ele>924.5999755859375</ele>
        <time>2026-06-16T12:16:41.000Z</time>
        <extensions>
          <ns3:TrackPointExtension>
            <ns3:atemp>22.0</ns3:atemp>
          </ns3:TrackPointExtension>
        </extensions>
      </trkpt>
      <trkpt lat="42.60695390403270721435546875" lon="19.929076172411441802978515625">
        <ele>924.4000244140625</ele>
        <time>2026-06-16T12:16:42.000Z</time>
        <extensions>
          <ns3:TrackPointExtension>
            <ns3:atemp>22.0</ns3:atemp>
          </ns3:TrackPointExtension>
        </extensions>
      </trkpt>
      <trkpt lat="42.60690419934689998626708984375" lon="19.929129816591739654541015625">
        <ele>924.20001220703125</ele>
        <time>2026-06-16T12:16:43.000Z</time>
        <extensions>
          <ns3:TrackPointExtension>
            <ns3:atemp>22.0</ns3:atemp>
          </ns3:TrackPointExtension>
        </extensions>
      </trkpt>
      <trkpt lat="42.6068575121462345123291015625" lon="19.92917851544916629791259765625">
        <ele>924.20001220703125</ele>
        <time>2026-06-16T12:16:44.000Z</time>
        <extensions>
          <ns3:TrackPointExtension>
            <ns3:atemp>22.0</ns3:atemp>
          </ns3:TrackPointExtension>
        </extensions>
      </trkpt>
      <trkpt lat="42.60681082494556903839111328125" lon="19.92922511883080005645751953125">
        <ele>924</ele>
        <time>2026-06-16T12:16:45.000Z</time>
        <extensions>
          <ns3:TrackPointExtension>
            <ns3:atemp>23.0</ns3:atemp>
          </ns3:TrackPointExtension>
        </extensions>
      </trkpt>
      <trkpt lat="42.606765143573284149169921875" lon="19.92926887236535549163818359375">
        <ele>924</ele>
        <time>2026-06-16T12:16:46.000Z</time>
        <extensions>
          <ns3:TrackPointExtension>
            <ns3:atemp>23.0</ns3:atemp>
          </ns3:TrackPointExtension>
        </extensions>
      </trkpt>
      <trkpt lat="42.6067190431058406829833984375" lon="19.9293132126331329345703125">
        <ele>924</ele>
        <time>2026-06-16T12:16:47.000Z</time>
        <extensions>
          <ns3:TrackPointExtension>
            <ns3:atemp>23.0</ns3:atemp>
          </ns3:TrackPointExtension>
        </extensions>
      </trkpt>
      <trkpt lat="42.60667470283806324005126953125" lon="19.92935906164348125457763671875">
        <ele>924.20001220703125</ele>
        <time>2026-06-16T12:16:48.000Z</time>
        <extensions>
          <ns3:TrackPointExtension>
            <ns3:atemp>23.0</ns3:atemp>
          </ns3:TrackPointExtension>
        </extensions>
      </trkpt>
      <trkpt lat="42.606629021465778350830078125" lon="19.92940432392060756683349609375">
        <ele>924.4000244140625</ele>
        <time>2026-06-16T12:16:49.000Z</time>
        <extensions>
          <ns3:TrackPointExtension>
            <ns3:atemp>23.0</ns3:atemp>
          </ns3:TrackPointExtension>
        </extensions>
      </trkpt>
      <trkpt lat="42.606584094464778900146484375" lon="19.929450340569019317626953125">
        <ele>924.5999755859375</ele>
        <time>2026-06-16T12:16:50.000Z</time>
        <extensions>
          <ns3:TrackPointExtension>
            <ns3:atemp>23.0</ns3:atemp>
          </ns3:TrackPointExtension>
        </extensions>
      </trkpt>
      <trkpt lat="42.6065401732921600341796875" lon="19.929496608674526214599609375">
        <ele>924.79998779296875</ele>
        <time>2026-06-16T12:16:51.000Z</time>
        <extensions>
          <ns3:TrackPointExtension>
            <ns3:atemp>23.0</ns3:atemp>
          </ns3:TrackPointExtension>
        </extensions>
      </trkpt>
      <trkpt lat="42.606494911015033721923828125" lon="19.92954296059906482696533203125">
        <ele>925</ele>
        <time>2026-06-16T12:16:52.000Z</time>
        <extensions>
          <ns3:TrackPointExtension>
            <ns3:atemp>23.0</ns3:atemp>
          </ns3:TrackPointExtension>
        </extensions>
      </trkpt>
      <trkpt lat="42.60644973255693912506103515625" lon="19.92959191091358661651611328125">
        <ele>925.20001220703125</ele>
        <time>2026-06-16T12:16:53.000Z</time>
        <extensions>
          <ns3:TrackPointExtension>
            <ns3:atemp>23.0</ns3:atemp>
          </ns3:TrackPointExtension>
        </extensions>
      </trkpt>
      <trkpt lat="42.60640379972755908966064453125" lon="19.92964421398937702178955078125">
        <ele>925.20001220703125</ele>
        <time>2026-06-16T12:16:54.000Z</time>
        <extensions>
          <ns3:TrackPointExtension>
            <ns3:atemp>23.0</ns3:atemp>
          </ns3:TrackPointExtension>
        </extensions>
      </trkpt>
      <trkpt lat="42.60636323131620883941650390625" lon="19.92969400249421596527099609375">
        <ele>925.4000244140625</ele>
        <time>2026-06-16T12:16:55.000Z</time>
        <extensions>
          <ns3:TrackPointExtension>
            <ns3:atemp>23.0</ns3:atemp>
          </ns3:TrackPointExtension>
        </extensions>
      </trkpt>
      <trkpt lat="42.60632266290485858917236328125" lon="19.9297425337135791778564453125">
        <ele>925.5999755859375</ele>
        <time>2026-06-16T12:16:56.000Z</time>
        <extensions>
          <ns3:TrackPointExtension>
            <ns3:atemp>23.0</ns3:atemp>
          </ns3:TrackPointExtension>
        </extensions>
      </trkpt>
      <trkpt lat="42.60628360323607921600341796875" lon="19.9297933280467987060546875">
        <ele>925.79998779296875</ele>
        <time>2026-06-16T12:16:57.000Z</time>
        <extensions>
          <ns3:TrackPointExtension>
            <ns3:atemp>23.0</ns3:atemp>
          </ns3:TrackPointExtension>
        </extensions>
      </trkpt>
      <trkpt lat="42.6062486506998538970947265625" lon="19.92983984760940074920654296875">
        <ele>926</ele>
        <time>2026-06-16T12:16:58.000Z</time>
        <extensions>
          <ns3:TrackPointExtension>
            <ns3:atemp>23.0</ns3:atemp>
          </ns3:TrackPointExtension>
        </extensions>
      </trkpt>
      <trkpt lat="42.60621168650686740875244140625" lon="19.929890893399715423583984375">
        <ele>926.20001220703125</ele>
        <time>2026-06-16T12:16:59.000Z</time>
        <extensions>
          <ns3:TrackPointExtension>
            <ns3:atemp>23.0</ns3:atemp>
          </ns3:TrackPointExtension>
        </extensions>
      </trkpt>
      <trkpt lat="42.60617463849484920501708984375" lon="19.92994286119937896728515625">
        <ele>926.20001220703125</ele>
        <time>2026-06-16T12:17:00.000Z</time>
        <extensions>
          <ns3:TrackPointExtension>
            <ns3:atemp>23.0</ns3:atemp>
          </ns3:TrackPointExtension>
        </extensions>
      </trkpt>
      <trkpt lat="42.606138177216053009033203125" lon="19.92999122478067874908447265625">
        <ele>926.4000244140625</ele>
        <time>2026-06-16T12:17:01.000Z</time>
        <extensions>
          <ns3:TrackPointExtension>
            <ns3:atemp>23.0</ns3:atemp>
          </ns3:TrackPointExtension>
        </extensions>
      </trkpt>
      <trkpt lat="42.60610389523208141326904296875" lon="19.93003967218101024627685546875">
        <ele>926.79998779296875</ele>
        <time>2026-06-16T12:17:02.000Z</time>
        <extensions>
          <ns3:TrackPointExtension>
            <ns3:atemp>23.0</ns3:atemp>
          </ns3:TrackPointExtension>
        </extensions>
      </trkpt>
      <trkpt lat="42.60606986470520496368408203125" lon="19.9300895445048809051513671875">
        <ele>927</ele>
        <time>2026-06-16T12:17:03.000Z</time>
        <extensions>
          <ns3:TrackPointExtension>
            <ns3:atemp>23.0</ns3:atemp>
          </ns3:TrackPointExtension>
        </extensions>
      </trkpt>
      <trkpt lat="42.60603767819702625274658203125" lon="19.9301448650658130645751953125">
        <ele>927.20001220703125</ele>
        <time>2026-06-16T12:17:04.000Z</time>
        <extensions>
          <ns3:TrackPointExtension>
            <ns3:atemp>23.0</ns3:atemp>
          </ns3:TrackPointExtension>
        </extensions>
      </trkpt>
      <trkpt lat="42.60600632987916469573974609375" lon="19.93019809015095233917236328125">
        <ele>927.4000244140625</ele>
        <time>2026-06-16T12:17:05.000Z</time>
        <extensions>
          <ns3:TrackPointExtension>
            <ns3:atemp>23.0</ns3:atemp>
          </ns3:TrackPointExtension>
        </extensions>
      </trkpt>
      <trkpt lat="42.60597749613225460052490234375" lon="19.93024620227515697479248046875">
        <ele>927.4000244140625</ele>
        <time>2026-06-16T12:17:06.000Z</time>
        <extensions>
          <ns3:TrackPointExtension>
            <ns3:atemp>23.0</ns3:atemp>
          </ns3:TrackPointExtension>
        </extensions>
      </trkpt>
      <trkpt lat="42.60594547726213932037353515625" lon="19.9302957393229007720947265625">
        <ele>927.79998779296875</ele>
        <time>2026-06-16T12:17:07.000Z</time>
        <extensions>
          <ns3:TrackPointExtension>
            <ns3:atemp>23.0</ns3:atemp>
          </ns3:TrackPointExtension>
        </extensions>
      </trkpt>
      <trkpt lat="42.60591211728751659393310546875" lon="19.9303473718464374542236328125">
        <ele>928</ele>
        <time>2026-06-16T12:17:08.000Z</time>
        <extensions>
          <ns3:TrackPointExtension>
            <ns3:atemp>23.0</ns3:atemp>
          </ns3:TrackPointExtension>
        </extensions>
      </trkpt>
      <trkpt lat="42.60587632656097412109375" lon="19.9304003454744815826416015625">
        <ele>928.20001220703125</ele>
        <time>2026-06-16T12:17:09.000Z</time>
        <extensions>
          <ns3:TrackPointExtension>
            <ns3:atemp>23.0</ns3:atemp>
          </ns3:TrackPointExtension>
        </extensions>
      </trkpt>
      <trkpt lat="42.60583986528217792510986328125" lon="19.93045222945511341094970703125">
        <ele>928.4000244140625</ele>
        <time>2026-06-16T12:17:10.000Z</time>
        <extensions>
          <ns3:TrackPointExtension>
            <ns3:atemp>23.0</ns3:atemp>
          </ns3:TrackPointExtension>
        </extensions>
      </trkpt>
      <trkpt lat="42.605806924402713775634765625" lon="19.93050520308315753936767578125">
        <ele>928.5999755859375</ele>
        <time>2026-06-16T12:17:11.000Z</time>
        <extensions>
          <ns3:TrackPointExtension>
            <ns3:atemp>23.0</ns3:atemp>
          </ns3:TrackPointExtension>
        </extensions>
      </trkpt>
      <trkpt lat="42.605774067342281341552734375" lon="19.93055935017764568328857421875">
        <ele>928.79998779296875</ele>
        <time>2026-06-16T12:17:12.000Z</time>
        <extensions>
          <ns3:TrackPointExtension>
            <ns3:atemp>23.0</ns3:atemp>
          </ns3:TrackPointExtension>
        </extensions>
      </trkpt>
      <trkpt lat="42.60574045591056346893310546875" lon="19.93061969988048076629638671875">
        <ele>929</ele>
        <time>2026-06-16T12:17:13.000Z</time>
        <extensions>
          <ns3:TrackPointExtension>
            <ns3:atemp>23.0</ns3:atemp>
          </ns3:TrackPointExtension>
        </extensions>
      </trkpt>
      <trkpt lat="42.60570676065981388092041015625" lon="19.930679798126220703125">
        <ele>929.20001220703125</ele>
        <time>2026-06-16T12:17:14.000Z</time>
        <extensions>
          <ns3:TrackPointExtension>
            <ns3:atemp>23.0</ns3:atemp>
          </ns3:TrackPointExtension>
        </extensions>
      </trkpt>
      <trkpt lat="42.6056706346571445465087890625" lon="19.93073654361069202423095703125">
        <ele>929.4000244140625</ele>
        <time>2026-06-16T12:17:15.000Z</time>
        <extensions>
          <ns3:TrackPointExtension>
            <ns3:atemp>23.0</ns3:atemp>
          </ns3:TrackPointExtension>
        </extensions>
      </trkpt>
      <trkpt lat="42.60563534684479236602783203125" lon="19.93079303763806819915771484375">
        <ele>929.5999755859375</ele>
        <time>2026-06-16T12:17:16.000Z</time>
        <extensions>
          <ns3:TrackPointExtension>
            <ns3:atemp>23.0</ns3:atemp>
          </ns3:TrackPointExtension>
        </extensions>
      </trkpt>
      <trkpt lat="42.6056008972227573394775390625" lon="19.9308469332754611968994140625">
        <ele>929.79998779296875</ele>
        <time>2026-06-16T12:17:17.000Z</time>
        <extensions>
          <ns3:TrackPointExtension>
            <ns3:atemp>23.0</ns3:atemp>
          </ns3:TrackPointExtension>
        </extensions>
      </trkpt>
      <trkpt lat="42.60556594468653202056884765625" lon="19.9309012480080127716064453125">
        <ele>930</ele>
        <time>2026-06-16T12:17:18.000Z</time>
        <extensions>
          <ns3:TrackPointExtension>
            <ns3:atemp>23.0</ns3:atemp>
          </ns3:TrackPointExtension>
        </extensions>
      </trkpt>
      <trkpt lat="42.6055348478257656097412109375" lon="19.9309569038450717926025390625">
        <ele>930.20001220703125</ele>
        <time>2026-06-16T12:17:19.000Z</time>
        <extensions>
          <ns3:TrackPointExtension>
            <ns3:atemp>23.0</ns3:atemp>
          </ns3:TrackPointExtension>
        </extensions>
      </trkpt>
      <trkpt lat="42.60550282895565032958984375" lon="19.93100895546376705169677734375">
        <ele>930.4000244140625</ele>
        <time>2026-06-16T12:17:20.000Z</time>
        <extensions>
          <ns3:TrackPointExtension>
            <ns3:atemp>23.0</ns3:atemp>
          </ns3:TrackPointExtension>
        </extensions>
      </trkpt>
      <trkpt lat="42.6054701395332813262939453125" lon="19.93106343783438205718994140625">
        <ele>930.5999755859375</ele>
        <time>2026-06-16T12:17:21.000Z</time>
        <extensions>
          <ns3:TrackPointExtension>
            <ns3:atemp>23.0</ns3:atemp>
          </ns3:TrackPointExtension>
        </extensions>
      </trkpt>
      <trkpt lat="42.605440132319927215576171875" lon="19.93112009949982166290283203125">
        <ele>930.79998779296875</ele>
        <time>2026-06-16T12:17:22.000Z</time>
        <extensions>
          <ns3:TrackPointExtension>
            <ns3:atemp>23.0</ns3:atemp>
          </ns3:TrackPointExtension>
        </extensions>
      </trkpt>
      <trkpt lat="42.60540534742176532745361328125" lon="19.93117642588913440704345703125">
        <ele>931</ele>
        <time>2026-06-16T12:17:23.000Z</time>
        <extensions>
          <ns3:TrackPointExtension>
            <ns3:atemp>23.0</ns3:atemp>
          </ns3:TrackPointExtension>
        </extensions>
      </trkpt>
      <trkpt lat="42.6053708977997303009033203125" lon="19.93122654967010021209716796875">
        <ele>931.20001220703125</ele>
        <time>2026-06-16T12:17:24.000Z</time>
        <extensions>
          <ns3:TrackPointExtension>
            <ns3:atemp>23.0</ns3:atemp>
          </ns3:TrackPointExtension>
        </extensions>
      </trkpt>
      <trkpt lat="42.60533359833061695098876953125" lon="19.93127734400331974029541015625">
        <ele>931.4000244140625</ele>
        <time>2026-06-16T12:17:25.000Z</time>
        <extensions>
          <ns3:TrackPointExtension>
            <ns3:atemp>23.0</ns3:atemp>
          </ns3:TrackPointExtension>
        </extensions>
      </trkpt>
      <trkpt lat="42.60529696941375732421875" lon="19.9313324131071567535400390625">
        <ele>931.4000244140625</ele>
        <time>2026-06-16T12:17:26.000Z</time>
        <extensions>
          <ns3:TrackPointExtension>
            <ns3:atemp>23.0</ns3:atemp>
          </ns3:TrackPointExtension>
        </extensions>
      </trkpt>
      <trkpt lat="42.60526008903980255126953125" lon="19.93138111196458339691162109375">
        <ele>931.5999755859375</ele>
        <time>2026-06-16T12:17:27.000Z</time>
        <extensions>
          <ns3:TrackPointExtension>
            <ns3:atemp>23.0</ns3:atemp>
          </ns3:TrackPointExtension>
        </extensions>
      </trkpt>
      <trkpt lat="42.60522186756134033203125" lon="19.9314272962510585784912109375">
        <ele>931.5999755859375</ele>
        <time>2026-06-16T12:17:28.000Z</time>
        <extensions>
          <ns3:TrackPointExtension>
            <ns3:atemp>23.0</ns3:atemp>
          </ns3:TrackPointExtension>
        </extensions>
      </trkpt>
      <trkpt lat="42.605182640254497528076171875" lon="19.93147314526140689849853515625">
        <ele>931.5999755859375</ele>
        <time>2026-06-16T12:17:29.000Z</time>
        <extensions>
          <ns3:TrackPointExtension>
            <ns3:atemp>23.0</ns3:atemp>
          </ns3:TrackPointExtension>
        </extensions>
      </trkpt>
      <trkpt lat="42.60514148510992527008056640625" lon="19.9315161444246768951416015625">
        <ele>931.5999755859375</ele>
        <time>2026-06-16T12:17:30.000Z</time>
        <extensions>
          <ns3:TrackPointExtension>
            <ns3:atemp>23.0</ns3:atemp>
          </ns3:TrackPointExtension>
        </extensions>
      </trkpt>
      <trkpt lat="42.6050996594130992889404296875" lon="19.9315567128360271453857421875">
        <ele>931.79998779296875</ele>
        <time>2026-06-16T12:17:31.000Z</time>
        <extensions>
          <ns3:TrackPointExtension>
            <ns3:atemp>23.0</ns3:atemp>
          </ns3:TrackPointExtension>
        </extensions>
      </trkpt>
      <trkpt lat="42.60505615733563899993896484375" lon="19.93159468285739421844482421875">
        <ele>931.79998779296875</ele>
        <time>2026-06-16T12:17:32.000Z</time>
        <extensions>
          <ns3:TrackPointExtension>
            <ns3:atemp>23.0</ns3:atemp>
          </ns3:TrackPointExtension>
        </extensions>
      </trkpt>
      <trkpt lat="42.6050054468214511871337890625" lon="19.9316267855465412139892578125">
        <ele>931.79998779296875</ele>
        <time>2026-06-16T12:17:33.000Z</time>
        <extensions>
          <ns3:TrackPointExtension>
            <ns3:atemp>23.0</ns3:atemp>
          </ns3:TrackPointExtension>
        </extensions>
      </trkpt>
      <trkpt lat="42.60495423339307308197021484375" lon="19.9316599778831005096435546875">
        <ele>932</ele>
        <time>2026-06-16T12:17:34.000Z</time>
        <extensions>
          <ns3:TrackPointExtension>
            <ns3:atemp>23.0</ns3:atemp>
          </ns3:TrackPointExtension>
        </extensions>
      </trkpt>
      <trkpt lat="42.60490737855434417724609375" lon="19.93169040419161319732666015625">
        <ele>932</ele>
        <time>2026-06-16T12:17:35.000Z</time>
        <extensions>
          <ns3:TrackPointExtension>
            <ns3:atemp>23.0</ns3:atemp>
          </ns3:TrackPointExtension>
        </extensions>
      </trkpt>
      <trkpt lat="42.604858092963695526123046875" lon="19.93171940557658672332763671875">
        <ele>932</ele>
        <time>2026-06-16T12:17:36.000Z</time>
        <extensions>
          <ns3:TrackPointExtension>
            <ns3:atemp>23.0</ns3:atemp>
          </ns3:TrackPointExtension>
        </extensions>
      </trkpt>
      <trkpt lat="42.60480687953531742095947265625" lon="19.93174924515187740325927734375">
        <ele>932</ele>
        <time>2026-06-16T12:17:37.000Z</time>
        <extensions>
          <ns3:TrackPointExtension>
            <ns3:atemp>23.0</ns3:atemp>
          </ns3:TrackPointExtension>
        </extensions>
      </trkpt>
      <trkpt lat="42.60475449264049530029296875" lon="19.9317810125648975372314453125">
        <ele>932</ele>
        <time>2026-06-16T12:17:38.000Z</time>
        <extensions>
          <ns3:TrackPointExtension>
            <ns3:atemp>23.0</ns3:atemp>
          </ns3:TrackPointExtension>
        </extensions>
      </trkpt>
      <trkpt lat="42.604704536497592926025390625" lon="19.93181244470179080963134765625">
        <ele>932</ele>
        <time>2026-06-16T12:17:39.000Z</time>
        <extensions>
          <ns3:TrackPointExtension>
            <ns3:atemp>23.0</ns3:atemp>
          </ns3:TrackPointExtension>
        </extensions>
      </trkpt>
      <trkpt lat="42.60465650819242000579833984375" lon="19.9318420328199863433837890625">
        <ele>931.79998779296875</ele>
        <time>2026-06-16T12:17:40.000Z</time>
        <extensions>
          <ns3:TrackPointExtension>
            <ns3:atemp>23.0</ns3:atemp>
          </ns3:TrackPointExtension>
        </extensions>
      </trkpt>
      <trkpt lat="42.60460604913532733917236328125" lon="19.93187245912849903106689453125">
        <ele>931.79998779296875</ele>
        <time>2026-06-16T12:17:41.000Z</time>
        <extensions>
          <ns3:TrackPointExtension>
            <ns3:atemp>23.0</ns3:atemp>
          </ns3:TrackPointExtension>
        </extensions>
      </trkpt>
      <trkpt lat="42.60455642826855182647705078125" lon="19.9319090880453586578369140625">
        <ele>931.79998779296875</ele>
        <time>2026-06-16T12:17:42.000Z</time>
        <extensions>
          <ns3:TrackPointExtension>
            <ns3:atemp>23.0</ns3:atemp>
          </ns3:TrackPointExtension>
        </extensions>
      </trkpt>
      <trkpt lat="42.6045078970491886138916015625" lon="19.9319459684193134307861328125">
        <ele>931.79998779296875</ele>
        <time>2026-06-16T12:17:43.000Z</time>
        <extensions>
          <ns3:TrackPointExtension>
            <ns3:atemp>23.0</ns3:atemp>
          </ns3:TrackPointExtension>
        </extensions>
      </trkpt>
      <trkpt lat="42.6044565998017787933349609375" lon="19.93198477663099765777587890625">
        <ele>931.79998779296875</ele>
        <time>2026-06-16T12:17:44.000Z</time>
        <extensions>
          <ns3:TrackPointExtension>
            <ns3:atemp>23.0</ns3:atemp>
          </ns3:TrackPointExtension>
        </extensions>
      </trkpt>
      <trkpt lat="42.6044049672782421112060546875" lon="19.9320190586149692535400390625">
        <ele>931.79998779296875</ele>
        <time>2026-06-16T12:17:45.000Z</time>
        <extensions>
          <ns3:TrackPointExtension>
            <ns3:atemp>23.0</ns3:atemp>
          </ns3:TrackPointExtension>
        </extensions>
      </trkpt>
      <trkpt lat="42.604357860982418060302734375" lon="19.93206180632114410400390625">
        <ele>931.79998779296875</ele>
        <time>2026-06-16T12:17:46.000Z</time>
        <extensions>
          <ns3:TrackPointExtension>
            <ns3:atemp>23.0</ns3:atemp>
          </ns3:TrackPointExtension>
        </extensions>
      </trkpt>
      <trkpt lat="42.6043166220188140869140625" lon="19.9321085773408412933349609375">
        <ele>931.79998779296875</ele>
        <time>2026-06-16T12:17:47.000Z</time>
        <extensions>
          <ns3:TrackPointExtension>
            <ns3:atemp>23.0</ns3:atemp>
          </ns3:TrackPointExtension>
        </extensions>
      </trkpt>
      <trkpt lat="42.6042698509991168975830078125" lon="19.9321622215211391448974609375">
        <ele>931.79998779296875</ele>
        <time>2026-06-16T12:17:48.000Z</time>
        <extensions>
          <ns3:TrackPointExtension>
            <ns3:atemp>23.0</ns3:atemp>
          </ns3:TrackPointExtension>
        </extensions>
      </trkpt>
      <trkpt lat="42.60422517545521259307861328125" lon="19.93221561424434185028076171875">
        <ele>931.79998779296875</ele>
        <time>2026-06-16T12:17:49.000Z</time>
        <extensions>
          <ns3:TrackPointExtension>
            <ns3:atemp>23.0</ns3:atemp>
          </ns3:TrackPointExtension>
        </extensions>
      </trkpt>
      <trkpt lat="42.604180164635181427001953125" lon="19.932272024452686309814453125">
        <ele>931.79998779296875</ele>
        <time>2026-06-16T12:17:50.000Z</time>
        <extensions>
          <ns3:TrackPointExtension>
            <ns3:atemp>23.0</ns3:atemp>
          </ns3:TrackPointExtension>
        </extensions>
      </trkpt>
      <trkpt lat="42.604135237634181976318359375" lon="19.93232927285134792327880859375">
        <ele>931.5999755859375</ele>
        <time>2026-06-16T12:17:51.000Z</time>
        <extensions>
          <ns3:TrackPointExtension>
            <ns3:atemp>23.0</ns3:atemp>
          </ns3:TrackPointExtension>
        </extensions>
      </trkpt>
      <trkpt lat="42.6040928252041339874267578125" lon="19.9323895387351512908935546875">
        <ele>931.5999755859375</ele>
        <time>2026-06-16T12:17:52.000Z</time>
        <extensions>
          <ns3:TrackPointExtension>
            <ns3:atemp>23.0</ns3:atemp>
          </ns3:TrackPointExtension>
        </extensions>
      </trkpt>
      <trkpt lat="42.60405535809695720672607421875" lon="19.9324445240199565887451171875">
        <ele>931.5999755859375</ele>
        <time>2026-06-16T12:17:53.000Z</time>
        <extensions>
          <ns3:TrackPointExtension>
            <ns3:atemp>23.0</ns3:atemp>
          </ns3:TrackPointExtension>
        </extensions>
      </trkpt>
      <trkpt lat="42.604017220437526702880859375" lon="19.93250227533280849456787109375">
        <ele>931.4000244140625</ele>
        <time>2026-06-16T12:17:54.000Z</time>
        <extensions>
          <ns3:TrackPointExtension>
            <ns3:atemp>23.0</ns3:atemp>
          </ns3:TrackPointExtension>
        </extensions>
      </trkpt>
      <trkpt lat="42.6039840281009674072265625" lon="19.9325635470449924468994140625">
        <ele>931.5999755859375</ele>
        <time>2026-06-16T12:17:55.000Z</time>
        <extensions>
          <ns3:TrackPointExtension>
            <ns3:atemp>23.0</ns3:atemp>
          </ns3:TrackPointExtension>
        </extensions>
      </trkpt>
      <trkpt lat="42.603946812450885772705078125" lon="19.9326284229755401611328125">
        <ele>931.5999755859375</ele>
        <time>2026-06-16T12:17:56.000Z</time>
        <extensions>
          <ns3:TrackPointExtension>
            <ns3:atemp>23.0</ns3:atemp>
          </ns3:TrackPointExtension>
        </extensions>
      </trkpt>
      <trkpt lat="42.60390800423920154571533203125" lon="19.9326956458389759063720703125">
        <ele>931.5999755859375</ele>
        <time>2026-06-16T12:17:57.000Z</time>
        <extensions>
          <ns3:TrackPointExtension>
            <ns3:atemp>23.0</ns3:atemp>
          </ns3:TrackPointExtension>
        </extensions>
      </trkpt>
      <trkpt lat="42.60387129150331020355224609375" lon="19.932762868702411651611328125">
        <ele>931.4000244140625</ele>
        <time>2026-06-16T12:17:58.000Z</time>
        <extensions>
          <ns3:TrackPointExtension>
            <ns3:atemp>23.0</ns3:atemp>
          </ns3:TrackPointExtension>
        </extensions>
      </trkpt>
      <trkpt lat="42.60383575223386287689208984375" lon="19.93283268995583057403564453125">
        <ele>931.4000244140625</ele>
        <time>2026-06-16T12:17:59.000Z</time>
        <extensions>
          <ns3:TrackPointExtension>
            <ns3:atemp>23.0</ns3:atemp>
          </ns3:TrackPointExtension>
        </extensions>
      </trkpt>
      <trkpt lat="42.6038004644215106964111328125" lon="19.93290175683796405792236328125">
        <ele>931.4000244140625</ele>
        <time>2026-06-16T12:18:00.000Z</time>
        <extensions>
          <ns3:TrackPointExtension>
            <ns3:atemp>23.0</ns3:atemp>
          </ns3:TrackPointExtension>
        </extensions>
      </trkpt>
      <trkpt lat="42.603763081133365631103515625" lon="19.93296244181692600250244140625">
        <ele>931.4000244140625</ele>
        <time>2026-06-16T12:18:01.000Z</time>
        <extensions>
          <ns3:TrackPointExtension>
            <ns3:atemp>23.0</ns3:atemp>
          </ns3:TrackPointExtension>
        </extensions>
      </trkpt>
      <trkpt lat="42.60372427292168140411376953125" lon="19.93302463553845882415771484375">
        <ele>931.5999755859375</ele>
        <time>2026-06-16T12:18:02.000Z</time>
        <extensions>
          <ns3:TrackPointExtension>
            <ns3:atemp>23.0</ns3:atemp>
          </ns3:TrackPointExtension>
        </extensions>
      </trkpt>
      <trkpt lat="42.60368403978645801544189453125" lon="19.93308867327868938446044921875">
        <ele>931.5999755859375</ele>
        <time>2026-06-16T12:18:03.000Z</time>
        <extensions>
          <ns3:TrackPointExtension>
            <ns3:atemp>23.0</ns3:atemp>
          </ns3:TrackPointExtension>
        </extensions>
      </trkpt>
      <trkpt lat="42.603645063936710357666015625" lon="19.93314583785831928253173828125">
        <ele>931.79998779296875</ele>
        <time>2026-06-16T12:18:04.000Z</time>
        <extensions>
          <ns3:TrackPointExtension>
            <ns3:atemp>23.0</ns3:atemp>
          </ns3:TrackPointExtension>
        </extensions>
      </trkpt>
      <trkpt lat="42.6036049984395503997802734375" lon="19.93320434354245662689208984375">
        <ele>931.79998779296875</ele>
        <time>2026-06-16T12:18:05.000Z</time>
        <extensions>
          <ns3:TrackPointExtension>
            <ns3:atemp>23.0</ns3:atemp>
          </ns3:TrackPointExtension>
        </extensions>
      </trkpt>
      <trkpt lat="42.60356887243688106536865234375" lon="19.93325748480856418609619140625">
        <ele>931.79998779296875</ele>
        <time>2026-06-16T12:18:06.000Z</time>
        <extensions>
          <ns3:TrackPointExtension>
            <ns3:atemp>23.0</ns3:atemp>
          </ns3:TrackPointExtension>
        </extensions>
      </trkpt>
      <trkpt lat="42.6035285554826259613037109375" lon="19.93330878205597400665283203125">
        <ele>932</ele>
        <time>2026-06-16T12:18:07.000Z</time>
        <extensions>
          <ns3:TrackPointExtension>
            <ns3:atemp>23.0</ns3:atemp>
          </ns3:TrackPointExtension>
        </extensions>
      </trkpt>
      <trkpt lat="42.60348522104322910308837890625" lon="19.93335655890405178070068359375">
        <ele>932.20001220703125</ele>
        <time>2026-06-16T12:18:08.000Z</time>
        <extensions>
          <ns3:TrackPointExtension>
            <ns3:atemp>23.0</ns3:atemp>
          </ns3:TrackPointExtension>
        </extensions>
      </trkpt>
      <trkpt lat="42.60344314388930797576904296875" lon="19.93340115062892436981201171875">
        <ele>932.4000244140625</ele>
        <time>2026-06-16T12:18:09.000Z</time>
        <extensions>
          <ns3:TrackPointExtension>
            <ns3:atemp>23.0</ns3:atemp>
          </ns3:TrackPointExtension>
        </extensions>
      </trkpt>
      <trkpt lat="42.603397630155086517333984375" lon="19.93344389833509922027587890625">
        <ele>932.5999755859375</ele>
        <time>2026-06-16T12:18:10.000Z</time>
        <extensions>
          <ns3:TrackPointExtension>
            <ns3:atemp>23.0</ns3:atemp>
          </ns3:TrackPointExtension>
        </extensions>
      </trkpt>
      <trkpt lat="42.6033528707921504974365234375" lon="19.93348329328000545501708984375">
        <ele>932.5999755859375</ele>
        <time>2026-06-16T12:18:11.000Z</time>
        <extensions>
          <ns3:TrackPointExtension>
            <ns3:atemp>23.0</ns3:atemp>
          </ns3:TrackPointExtension>
        </extensions>
      </trkpt>
      <trkpt lat="42.603309452533721923828125" lon="19.9335204251110553741455078125">
        <ele>932.79998779296875</ele>
        <time>2026-06-16T12:18:12.000Z</time>
        <extensions>
          <ns3:TrackPointExtension>
            <ns3:atemp>23.0</ns3:atemp>
          </ns3:TrackPointExtension>
        </extensions>
      </trkpt>
      <trkpt lat="42.60326360352337360382080078125" lon="19.9335539527237415313720703125">
        <ele>933</ele>
        <time>2026-06-16T12:18:13.000Z</time>
        <extensions>
          <ns3:TrackPointExtension>
            <ns3:atemp>23.0</ns3:atemp>
          </ns3:TrackPointExtension>
        </extensions>
      </trkpt>
      <trkpt lat="42.60322102345526218414306640625" lon="19.93357901461422443389892578125">
        <ele>933.20001220703125</ele>
        <time>2026-06-16T12:18:14.000Z</time>
        <extensions>
          <ns3:TrackPointExtension>
            <ns3:atemp>23.0</ns3:atemp>
          </ns3:TrackPointExtension>
        </extensions>
      </trkpt>
      <trkpt lat="42.603176347911357879638671875" lon="19.93360516615211963653564453125">
        <ele>933.5999755859375</ele>
        <time>2026-06-16T12:18:15.000Z</time>
        <extensions>
          <ns3:TrackPointExtension>
            <ns3:atemp>23.0</ns3:atemp>
          </ns3:TrackPointExtension>
        </extensions>
      </trkpt>
      <trkpt lat="42.60313133709132671356201171875" lon="19.933631904423236846923828125">
        <ele>933.79998779296875</ele>
        <time>2026-06-16T12:18:16.000Z</time>
        <extensions>
          <ns3:TrackPointExtension>
            <ns3:atemp>23.0</ns3:atemp>
          </ns3:TrackPointExtension>
        </extensions>
      </trkpt>
      <trkpt lat="42.60308456607162952423095703125" lon="19.9336609058082103729248046875">
        <ele>934.20001220703125</ele>
        <time>2026-06-16T12:18:17.000Z</time>
        <extensions>
          <ns3:TrackPointExtension>
            <ns3:atemp>23.0</ns3:atemp>
          </ns3:TrackPointExtension>
        </extensions>
      </trkpt>
      <trkpt lat="42.60304517112672328948974609375" lon="19.93368948809802532196044921875">
        <ele>934.4000244140625</ele>
        <time>2026-06-16T12:18:18.000Z</time>
        <extensions>
          <ns3:TrackPointExtension>
            <ns3:atemp>23.0</ns3:atemp>
          </ns3:TrackPointExtension>
        </extensions>
      </trkpt>
      <trkpt lat="42.6030078716576099395751953125" lon="19.93371513672173023223876953125">
        <ele>934.79998779296875</ele>
        <time>2026-06-16T12:18:19.000Z</time>
        <extensions>
          <ns3:TrackPointExtension>
            <ns3:atemp>23.0</ns3:atemp>
          </ns3:TrackPointExtension>
        </extensions>
      </trkpt>
      <trkpt lat="42.60297241620719432830810546875" lon="19.9337430484592914581298828125">
        <ele>935</ele>
        <time>2026-06-16T12:18:20.000Z</time>
        <extensions>
          <ns3:TrackPointExtension>
            <ns3:atemp>23.0</ns3:atemp>
          </ns3:TrackPointExtension>
        </extensions>
      </trkpt>
      <trkpt lat="42.6029367931187152862548828125" lon="19.9337722174823284149169921875">
        <ele>935.20001220703125</ele>
        <time>2026-06-16T12:18:21.000Z</time>
        <extensions>
          <ns3:TrackPointExtension>
            <ns3:atemp>23.0</ns3:atemp>
          </ns3:TrackPointExtension>
        </extensions>
      </trkpt>
      <trkpt lat="42.6028985716402530670166015625" lon="19.93380549363791942596435546875">
        <ele>935.5999755859375</ele>
        <time>2026-06-16T12:18:22.000Z</time>
        <extensions>
          <ns3:TrackPointExtension>
            <ns3:atemp>23.0</ns3:atemp>
          </ns3:TrackPointExtension>
        </extensions>
      </trkpt>
      <trkpt lat="42.60286353528499603271484375" lon="19.933839775621891021728515625">
        <ele>935.79998779296875</ele>
        <time>2026-06-16T12:18:23.000Z</time>
        <extensions>
          <ns3:TrackPointExtension>
            <ns3:atemp>23.0</ns3:atemp>
          </ns3:TrackPointExtension>
        </extensions>
      </trkpt>
      <trkpt lat="42.60282807983458042144775390625" lon="19.93387154303491115570068359375">
        <ele>936</ele>
        <time>2026-06-16T12:18:24.000Z</time>
        <extensions>
          <ns3:TrackPointExtension>
            <ns3:atemp>23.0</ns3:atemp>
          </ns3:TrackPointExtension>
        </extensions>
      </trkpt>
      <trkpt lat="42.6027916185557842254638671875" lon="19.93390540592372417449951171875">
        <ele>936</ele>
        <time>2026-06-16T12:18:25.000Z</time>
        <extensions>
          <ns3:TrackPointExtension>
            <ns3:atemp>23.0</ns3:atemp>
          </ns3:TrackPointExtension>
        </extensions>
      </trkpt>
      <trkpt lat="42.6027510501444339752197265625" lon="19.93393725715577602386474609375">
        <ele>936.20001220703125</ele>
        <time>2026-06-16T12:18:26.000Z</time>
        <extensions>
          <ns3:TrackPointExtension>
            <ns3:atemp>23.0</ns3:atemp>
          </ns3:TrackPointExtension>
        </extensions>
      </trkpt>
      <trkpt lat="42.60271123610436916351318359375" lon="19.9339707009494304656982421875">
        <ele>936.4000244140625</ele>
        <time>2026-06-16T12:18:27.000Z</time>
        <extensions>
          <ns3:TrackPointExtension>
            <ns3:atemp>23.0</ns3:atemp>
          </ns3:TrackPointExtension>
        </extensions>
      </trkpt>
      <trkpt lat="42.60267133824527263641357421875" lon="19.9340048991143703460693359375">
        <ele>936.5999755859375</ele>
        <time>2026-06-16T12:18:28.000Z</time>
        <extensions>
          <ns3:TrackPointExtension>
            <ns3:atemp>23.0</ns3:atemp>
          </ns3:TrackPointExtension>
        </extensions>
      </trkpt>
      <trkpt lat="42.602632530033588409423828125" lon="19.93404102511703968048095703125">
        <ele>936.79998779296875</ele>
        <time>2026-06-16T12:18:29.000Z</time>
        <extensions>
          <ns3:TrackPointExtension>
            <ns3:atemp>23.0</ns3:atemp>
          </ns3:TrackPointExtension>
        </extensions>
      </trkpt>
      <trkpt lat="42.60259707458317279815673828125" lon="19.93407472036778926849365234375">
        <ele>937</ele>
        <time>2026-06-16T12:18:30.000Z</time>
        <extensions>
          <ns3:TrackPointExtension>
            <ns3:atemp>23.0</ns3:atemp>
          </ns3:TrackPointExtension>
        </extensions>
      </trkpt>
      <trkpt lat="42.60256136767566204071044921875" lon="19.93410841561853885650634765625">
        <ele>937.20001220703125</ele>
        <time>2026-06-16T12:18:31.000Z</time>
        <extensions>
          <ns3:TrackPointExtension>
            <ns3:atemp>23.0</ns3:atemp>
          </ns3:TrackPointExtension>
        </extensions>
      </trkpt>
      <trkpt lat="42.602523900568485260009765625" lon="19.9341430328786373138427734375">
        <ele>937.4000244140625</ele>
        <time>2026-06-16T12:18:32.000Z</time>
        <extensions>
          <ns3:TrackPointExtension>
            <ns3:atemp>23.0</ns3:atemp>
          </ns3:TrackPointExtension>
        </extensions>
      </trkpt>
      <trkpt lat="42.60248760692775249481201171875" lon="19.9341779015958309173583984375">
        <ele>937.5999755859375</ele>
        <time>2026-06-16T12:18:33.000Z</time>
        <extensions>
          <ns3:TrackPointExtension>
            <ns3:atemp>23.0</ns3:atemp>
          </ns3:TrackPointExtension>
        </extensions>
      </trkpt>
      <trkpt lat="42.60245625860989093780517578125" lon="19.9342097528278827667236328125">
        <ele>937.79998779296875</ele>
        <time>2026-06-16T12:18:34.000Z</time>
        <extensions>
          <ns3:TrackPointExtension>
            <ns3:atemp>23.0</ns3:atemp>
          </ns3:TrackPointExtension>
        </extensions>
      </trkpt>
      <trkpt lat="42.602424658834934234619140625" lon="19.9342412687838077545166015625">
        <ele>938</ele>
        <time>2026-06-16T12:18:35.000Z</time>
        <extensions>
          <ns3:TrackPointExtension>
            <ns3:atemp>23.0</ns3:atemp>
          </ns3:TrackPointExtension>
        </extensions>
      </trkpt>
      <trkpt lat="42.60239020921289920806884765625" lon="19.93427328765392303466796875">
        <ele>938.20001220703125</ele>
        <time>2026-06-16T12:18:36.000Z</time>
        <extensions>
          <ns3:TrackPointExtension>
            <ns3:atemp>23.0</ns3:atemp>
          </ns3:TrackPointExtension>
        </extensions>
      </trkpt>
      <trkpt lat="42.60235349647700786590576171875" lon="19.934307821094989776611328125">
        <ele>938.4000244140625</ele>
        <time>2026-06-16T12:18:37.000Z</time>
        <extensions>
          <ns3:TrackPointExtension>
            <ns3:atemp>23.0</ns3:atemp>
          </ns3:TrackPointExtension>
        </extensions>
      </trkpt>
      <trkpt lat="42.6023161970078945159912109375" lon="19.9343423545360565185546875">
        <ele>938.5999755859375</ele>
        <time>2026-06-16T12:18:38.000Z</time>
        <extensions>
          <ns3:TrackPointExtension>
            <ns3:atemp>23.0</ns3:atemp>
          </ns3:TrackPointExtension>
        </extensions>
      </trkpt>
      <trkpt lat="42.60227822698652744293212890625" lon="19.93437630124390125274658203125">
        <ele>938.79998779296875</ele>
        <time>2026-06-16T12:18:39.000Z</time>
        <extensions>
          <ns3:TrackPointExtension>
            <ns3:atemp>23.0</ns3:atemp>
          </ns3:TrackPointExtension>
        </extensions>
      </trkpt>
      <trkpt lat="42.60224260389804840087890625" lon="19.934410750865936279296875">
        <ele>939</ele>
        <time>2026-06-16T12:18:40.000Z</time>
        <extensions>
          <ns3:TrackPointExtension>
            <ns3:atemp>23.0</ns3:atemp>
          </ns3:TrackPointExtension>
        </extensions>
      </trkpt>
      <trkpt lat="42.60220614261925220489501953125" lon="19.934442602097988128662109375">
        <ele>939.20001220703125</ele>
        <time>2026-06-16T12:18:41.000Z</time>
        <extensions>
          <ns3:TrackPointExtension>
            <ns3:atemp>23.0</ns3:atemp>
          </ns3:TrackPointExtension>
        </extensions>
      </trkpt>
      <trkpt lat="42.6021708548069000244140625" lon="19.93447269313037395477294921875">
        <ele>939.4000244140625</ele>
        <time>2026-06-16T12:18:42.000Z</time>
        <extensions>
          <ns3:TrackPointExtension>
            <ns3:atemp>23.0</ns3:atemp>
          </ns3:TrackPointExtension>
        </extensions>
      </trkpt>
      <trkpt lat="42.6021361537277698516845703125" lon="19.9345011077821254730224609375">
        <ele>939.5999755859375</ele>
        <time>2026-06-16T12:18:43.000Z</time>
        <extensions>
          <ns3:TrackPointExtension>
            <ns3:atemp>23.0</ns3:atemp>
          </ns3:TrackPointExtension>
        </extensions>
      </trkpt>
      <trkpt lat="42.60210002772510051727294921875" lon="19.93452935479581356048583984375">
        <ele>939.5999755859375</ele>
        <time>2026-06-16T12:18:44.000Z</time>
        <extensions>
          <ns3:TrackPointExtension>
            <ns3:atemp>23.0</ns3:atemp>
          </ns3:TrackPointExtension>
        </extensions>
      </trkpt>
      <trkpt lat="42.6020613871514797210693359375" lon="19.93455919437110424041748046875">
        <ele>939.79998779296875</ele>
        <time>2026-06-16T12:18:45.000Z</time>
        <extensions>
          <ns3:TrackPointExtension>
            <ns3:atemp>23.0</ns3:atemp>
          </ns3:TrackPointExtension>
        </extensions>
      </trkpt>
      <trkpt lat="42.60202609933912754058837890625" lon="19.93458853103220462799072265625">
        <ele>940</ele>
        <time>2026-06-16T12:18:46.000Z</time>
        <extensions>
          <ns3:TrackPointExtension>
            <ns3:atemp>23.0</ns3:atemp>
          </ns3:TrackPointExtension>
        </extensions>
      </trkpt>
      <trkpt lat="42.60199173353612422943115234375" lon="19.9346174485981464385986328125">
        <ele>940</ele>
        <time>2026-06-16T12:18:47.000Z</time>
        <extensions>
          <ns3:TrackPointExtension>
            <ns3:atemp>23.0</ns3:atemp>
          </ns3:TrackPointExtension>
        </extensions>
      </trkpt>
      <trkpt lat="42.6019557751715183258056640625" lon="19.9346462823450565338134765625">
        <ele>940.20001220703125</ele>
        <time>2026-06-16T12:18:48.000Z</time>
        <extensions>
          <ns3:TrackPointExtension>
            <ns3:atemp>23.0</ns3:atemp>
          </ns3:TrackPointExtension>
        </extensions>
      </trkpt>
      <trkpt lat="42.60191830806434154510498046875" lon="19.93467888794839382171630859375">
        <ele>940.20001220703125</ele>
        <time>2026-06-16T12:18:49.000Z</time>
        <extensions>
          <ns3:TrackPointExtension>
            <ns3:atemp>23.0</ns3:atemp>
          </ns3:TrackPointExtension>
        </extensions>
      </trkpt>
      <trkpt lat="42.601881511509418487548828125" lon="19.934706799685955047607421875">
        <ele>940.4000244140625</ele>
        <time>2026-06-16T12:18:50.000Z</time>
        <extensions>
          <ns3:TrackPointExtension>
            <ns3:atemp>23.0</ns3:atemp>
          </ns3:TrackPointExtension>
        </extensions>
      </trkpt>
      <trkpt lat="42.6018437929451465606689453125" lon="19.93473387323319911956787109375">
        <ele>940.4000244140625</ele>
        <time>2026-06-16T12:18:51.000Z</time>
        <extensions>
          <ns3:TrackPointExtension>
            <ns3:atemp>23.0</ns3:atemp>
          </ns3:TrackPointExtension>
        </extensions>
      </trkpt>
      <trkpt lat="42.6018032245337963104248046875" lon="19.93476270698010921478271484375">
        <ele>940.4000244140625</ele>
        <time>2026-06-16T12:18:52.000Z</time>
        <extensions>
          <ns3:TrackPointExtension>
            <ns3:atemp>23.0</ns3:atemp>
          </ns3:TrackPointExtension>
        </extensions>
      </trkpt>
      <trkpt lat="42.6017631590366363525390625" lon="19.93478885851800441741943359375">
        <ele>940.4000244140625</ele>
        <time>2026-06-16T12:18:53.000Z</time>
        <extensions>
          <ns3:TrackPointExtension>
            <ns3:atemp>23.0</ns3:atemp>
          </ns3:TrackPointExtension>
        </extensions>
      </trkpt>
      <trkpt lat="42.6017230935394763946533203125" lon="19.93481081910431385040283203125">
        <ele>940.5999755859375</ele>
        <time>2026-06-16T12:18:54.000Z</time>
        <extensions>
          <ns3:TrackPointExtension>
            <ns3:atemp>23.0</ns3:atemp>
          </ns3:TrackPointExtension>
        </extensions>
      </trkpt>
      <trkpt lat="42.60168696753680706024169921875" lon="19.9348310194909572601318359375">
        <ele>940.5999755859375</ele>
        <time>2026-06-16T12:18:55.000Z</time>
        <extensions>
          <ns3:TrackPointExtension>
            <ns3:atemp>23.0</ns3:atemp>
          </ns3:TrackPointExtension>
        </extensions>
      </trkpt>
      <trkpt lat="42.60164841078221797943115234375" lon="19.93485004641115665435791015625">
        <ele>940.79998779296875</ele>
        <time>2026-06-16T12:18:56.000Z</time>
        <extensions>
          <ns3:TrackPointExtension>
            <ns3:atemp>23.0</ns3:atemp>
          </ns3:TrackPointExtension>
        </extensions>
      </trkpt>
      <trkpt lat="42.60160817764699459075927734375" lon="19.93487502448260784149169921875">
        <ele>941</ele>
        <time>2026-06-16T12:18:57.000Z</time>
        <extensions>
          <ns3:TrackPointExtension>
            <ns3:atemp>23.0</ns3:atemp>
          </ns3:TrackPointExtension>
        </extensions>
      </trkpt>
      <trkpt lat="42.6015678606927394866943359375" lon="19.9349007569253444671630859375">
        <ele>941</ele>
        <time>2026-06-16T12:18:58.000Z</time>
        <extensions>
          <ns3:TrackPointExtension>
            <ns3:atemp>23.0</ns3:atemp>
          </ns3:TrackPointExtension>
        </extensions>
      </trkpt>
      <trkpt lat="42.6015271246433258056640625" lon="19.93492648936808109283447265625">
        <ele>941</ele>
        <time>2026-06-16T12:18:59.000Z</time>
        <extensions>
          <ns3:TrackPointExtension>
            <ns3:atemp>23.0</ns3:atemp>
          </ns3:TrackPointExtension>
        </extensions>
      </trkpt>
      <trkpt lat="42.60148580186069011688232421875" lon="19.9349537305533885955810546875">
        <ele>941</ele>
        <time>2026-06-16T12:19:00.000Z</time>
        <extensions>
          <ns3:TrackPointExtension>
            <ns3:atemp>23.0</ns3:atemp>
          </ns3:TrackPointExtension>
        </extensions>
      </trkpt>
      <trkpt lat="42.60140902362763881683349609375" lon="19.9350097216665744781494140625">
        <ele>941.20001220703125</ele>
        <time>2026-06-16T12:19:01.000Z</time>
        <extensions>
          <ns3:TrackPointExtension>
            <ns3:atemp>23.0</ns3:atemp>
          </ns3:TrackPointExtension>
        </extensions>
      </trkpt>
      <trkpt lat="42.60140902362763881683349609375" lon="19.9350097216665744781494140625">
        <ele>941.20001220703125</ele>
        <time>2026-06-16T12:19:02.000Z</time>
        <extensions>
          <ns3:TrackPointExtension>
            <ns3:atemp>23.0</ns3:atemp>
          </ns3:TrackPointExtension>
        </extensions>
      </trkpt>
      <trkpt lat="42.60136962868273258209228515625" lon="19.935040064156055450439453125">
        <ele>941.20001220703125</ele>
        <time>2026-06-16T12:19:03.000Z</time>
        <extensions>
          <ns3:TrackPointExtension>
            <ns3:atemp>23.0</ns3:atemp>
          </ns3:TrackPointExtension>
        </extensions>
      </trkpt>
      <trkpt lat="42.6012884080410003662109375" lon="19.93511038832366466522216796875">
        <ele>941.20001220703125</ele>
        <time>2026-06-16T12:19:04.000Z</time>
        <extensions>
          <ns3:TrackPointExtension>
            <ns3:atemp>23.0</ns3:atemp>
          </ns3:TrackPointExtension>
        </extensions>
      </trkpt>
      <trkpt lat="42.6012884080410003662109375" lon="19.93511038832366466522216796875">
        <ele>941.4000244140625</ele>
        <time>2026-06-16T12:19:05.000Z</time>
        <extensions>
          <ns3:TrackPointExtension>
            <ns3:atemp>23.0</ns3:atemp>
          </ns3:TrackPointExtension>
        </extensions>
      </trkpt>
      <trkpt lat="42.601250521838665008544921875" lon="19.935146011412143707275390625">
        <ele>941.4000244140625</ele>
        <time>2026-06-16T12:19:06.000Z</time>
        <extensions>
          <ns3:TrackPointExtension>
            <ns3:atemp>23.0</ns3:atemp>
          </ns3:TrackPointExtension>
        </extensions>
      </trkpt>
      <trkpt lat="42.60121255181729793548583984375" lon="19.935180209577083587646484375">
        <ele>941.5999755859375</ele>
        <time>2026-06-16T12:19:07.000Z</time>
        <extensions>
          <ns3:TrackPointExtension>
            <ns3:atemp>23.0</ns3:atemp>
          </ns3:TrackPointExtension>
        </extensions>
      </trkpt>
      <trkpt lat="42.60117550380527973175048828125" lon="19.93521247990429401397705078125">
        <ele>941.5999755859375</ele>
        <time>2026-06-16T12:19:08.000Z</time>
        <extensions>
          <ns3:TrackPointExtension>
            <ns3:atemp>23.0</ns3:atemp>
          </ns3:TrackPointExtension>
        </extensions>
      </trkpt>
      <trkpt lat="42.6011373661458492279052734375" lon="19.9352464266121387481689453125">
        <ele>941.79998779296875</ele>
        <time>2026-06-16T12:19:09.000Z</time>
        <extensions>
          <ns3:TrackPointExtension>
            <ns3:atemp>23.0</ns3:atemp>
          </ns3:TrackPointExtension>
        </extensions>
      </trkpt>
      <trkpt lat="42.60109855793416500091552734375" lon="19.9352812953293323516845703125">
        <ele>941.79998779296875</ele>
        <time>2026-06-16T12:19:10.000Z</time>
        <extensions>
          <ns3:TrackPointExtension>
            <ns3:atemp>23.0</ns3:atemp>
          </ns3:TrackPointExtension>
        </extensions>
      </trkpt>
      <trkpt lat="42.60105899535119533538818359375" lon="19.93531666696071624755859375">
        <ele>941.79998779296875</ele>
        <time>2026-06-16T12:19:11.000Z</time>
        <extensions>
          <ns3:TrackPointExtension>
            <ns3:atemp>23.0</ns3:atemp>
          </ns3:TrackPointExtension>
        </extensions>
      </trkpt>
      <trkpt lat="42.6010190136730670928955078125" lon="19.93535698391497135162353515625">
        <ele>941.79998779296875</ele>
        <time>2026-06-16T12:19:12.000Z</time>
        <extensions>
          <ns3:TrackPointExtension>
            <ns3:atemp>23.0</ns3:atemp>
          </ns3:TrackPointExtension>
        </extensions>
      </trkpt>
      <trkpt lat="42.60097526013851165771484375" lon="19.9353966303169727325439453125">
        <ele>942</ele>
        <time>2026-06-16T12:19:13.000Z</time>
        <extensions>
          <ns3:TrackPointExtension>
            <ns3:atemp>23.0</ns3:atemp>
          </ns3:TrackPointExtension>
        </extensions>
      </trkpt>
      <trkpt lat="42.60093192569911479949951171875" lon="19.93543325923383235931396484375">
        <ele>942</ele>
        <time>2026-06-16T12:19:14.000Z</time>
        <extensions>
          <ns3:TrackPointExtension>
            <ns3:atemp>23.0</ns3:atemp>
          </ns3:TrackPointExtension>
        </extensions>
      </trkpt>
      <trkpt lat="42.6008892618119716644287109375" lon="19.9354667030274868011474609375">
        <ele>942</ele>
        <time>2026-06-16T12:19:15.000Z</time>
        <extensions>
          <ns3:TrackPointExtension>
            <ns3:atemp>23.0</ns3:atemp>
          </ns3:TrackPointExtension>
        </extensions>
      </trkpt>
      <trkpt lat="42.60080359876155853271484375" lon="19.93552696891129016876220703125">
        <ele>942.20001220703125</ele>
        <time>2026-06-16T12:19:16.000Z</time>
        <extensions>
          <ns3:TrackPointExtension>
            <ns3:atemp>23.0</ns3:atemp>
          </ns3:TrackPointExtension>
        </extensions>
      </trkpt>
      <trkpt lat="42.60080359876155853271484375" lon="19.93552696891129016876220703125">
        <ele>942.20001220703125</ele>
        <time>2026-06-16T12:19:17.000Z</time>
        <extensions>
          <ns3:TrackPointExtension>
            <ns3:atemp>23.0</ns3:atemp>
          </ns3:TrackPointExtension>
        </extensions>
      </trkpt>
      <trkpt lat="42.600761353969573974609375" lon="19.93555479682981967926025390625">
        <ele>942.20001220703125</ele>
        <time>2026-06-16T12:19:18.000Z</time>
        <extensions>
          <ns3:TrackPointExtension>
            <ns3:atemp>23.0</ns3:atemp>
          </ns3:TrackPointExtension>
        </extensions>
      </trkpt>
      <trkpt lat="42.600718438625335693359375" lon="19.93558363057672977447509765625">
        <ele>942.4000244140625</ele>
        <time>2026-06-16T12:19:19.000Z</time>
        <extensions>
          <ns3:TrackPointExtension>
            <ns3:atemp>24.0</ns3:atemp>
          </ns3:TrackPointExtension>
        </extensions>
      </trkpt>
      <trkpt lat="42.600674517452716827392578125" lon="19.9356091953814029693603515625">
        <ele>942.4000244140625</ele>
        <time>2026-06-16T12:19:20.000Z</time>
        <extensions>
          <ns3:TrackPointExtension>
            <ns3:atemp>24.0</ns3:atemp>
          </ns3:TrackPointExtension>
        </extensions>
      </trkpt>
      <trkpt lat="42.600631602108478546142578125" lon="19.9356353469192981719970703125">
        <ele>942.4000244140625</ele>
        <time>2026-06-16T12:19:21.000Z</time>
        <extensions>
          <ns3:TrackPointExtension>
            <ns3:atemp>24.0</ns3:atemp>
          </ns3:TrackPointExtension>
        </extensions>
      </trkpt>
      <trkpt lat="42.60059094987809658050537109375" lon="19.9356568045914173126220703125">
        <ele>942.4000244140625</ele>
        <time>2026-06-16T12:19:22.000Z</time>
        <extensions>
          <ns3:TrackPointExtension>
            <ns3:atemp>24.0</ns3:atemp>
          </ns3:TrackPointExtension>
        </extensions>
      </trkpt>
      <trkpt lat="42.60054937563836574554443359375" lon="19.93567666970193386077880859375">
        <ele>942.4000244140625</ele>
        <time>2026-06-16T12:19:23.000Z</time>
        <extensions>
          <ns3:TrackPointExtension>
            <ns3:atemp>24.0</ns3:atemp>
          </ns3:TrackPointExtension>
        </extensions>
      </trkpt>
      <trkpt lat="42.60050646029412746429443359375" lon="19.9356973730027675628662109375">
        <ele>942.5999755859375</ele>
        <time>2026-06-16T12:19:24.000Z</time>
        <extensions>
          <ns3:TrackPointExtension>
            <ns3:atemp>24.0</ns3:atemp>
          </ns3:TrackPointExtension>
        </extensions>
      </trkpt>
      <trkpt lat="42.60045968927443027496337890625" lon="19.93571572937071323394775390625">
        <ele>942.5999755859375</ele>
        <time>2026-06-16T12:19:25.000Z</time>
        <extensions>
          <ns3:TrackPointExtension>
            <ns3:atemp>24.0</ns3:atemp>
          </ns3:TrackPointExtension>
        </extensions>
      </trkpt>
      <trkpt lat="42.60041425935924053192138671875" lon="19.93573953397572040557861328125">
        <ele>942.79998779296875</ele>
        <time>2026-06-16T12:19:26.000Z</time>
        <extensions>
          <ns3:TrackPointExtension>
            <ns3:atemp>24.0</ns3:atemp>
          </ns3:TrackPointExtension>
        </extensions>
      </trkpt>
      <trkpt lat="42.6003709249198436737060546875" lon="19.935768283903598785400390625">
        <ele>942.79998779296875</ele>
        <time>2026-06-16T12:19:27.000Z</time>
        <extensions>
          <ns3:TrackPointExtension>
            <ns3:atemp>24.0</ns3:atemp>
          </ns3:TrackPointExtension>
        </extensions>
      </trkpt>
      <trkpt lat="42.6002847589552402496337890625" lon="19.93583056144416332244873046875">
        <ele>943</ele>
        <time>2026-06-16T12:19:28.000Z</time>
        <extensions>
          <ns3:TrackPointExtension>
            <ns3:atemp>24.0</ns3:atemp>
          </ns3:TrackPointExtension>
        </extensions>
      </trkpt>
      <trkpt lat="42.6002847589552402496337890625" lon="19.93583056144416332244873046875">
        <ele>943</ele>
        <time>2026-06-16T12:19:29.000Z</time>
        <extensions>
          <ns3:TrackPointExtension>
            <ns3:atemp>24.0</ns3:atemp>
          </ns3:TrackPointExtension>
        </extensions>
      </trkpt>
      <trkpt lat="42.60023991577327251434326171875" lon="19.93586459197103977203369140625">
        <ele>943.20001220703125</ele>
        <time>2026-06-16T12:19:30.000Z</time>
        <extensions>
          <ns3:TrackPointExtension>
            <ns3:atemp>24.0</ns3:atemp>
          </ns3:TrackPointExtension>
        </extensions>
      </trkpt>
      <trkpt lat="42.6001975871622562408447265625" lon="19.93590281344950199127197265625">
        <ele>943.20001220703125</ele>
        <time>2026-06-16T12:19:31.000Z</time>
        <extensions>
          <ns3:TrackPointExtension>
            <ns3:atemp>24.0</ns3:atemp>
          </ns3:TrackPointExtension>
        </extensions>
      </trkpt>
      <trkpt lat="42.60015794076025485992431640625" lon="19.93594505824148654937744140625">
        <ele>943.4000244140625</ele>
        <time>2026-06-16T12:19:32.000Z</time>
        <extensions>
          <ns3:TrackPointExtension>
            <ns3:atemp>24.0</ns3:atemp>
          </ns3:TrackPointExtension>
        </extensions>
      </trkpt>
      <trkpt lat="42.6001234911382198333740234375" lon="19.93599585257470607757568359375">
        <ele>943.4000244140625</ele>
        <time>2026-06-16T12:19:33.000Z</time>
        <extensions>
          <ns3:TrackPointExtension>
            <ns3:atemp>24.0</ns3:atemp>
          </ns3:TrackPointExtension>
        </extensions>
      </trkpt>
      <trkpt lat="42.60005232878029346466064453125" lon="19.9361010454595088958740234375">
        <ele>943.4000244140625</ele>
        <time>2026-06-16T12:19:34.000Z</time>
        <extensions>
          <ns3:TrackPointExtension>
            <ns3:atemp>24.0</ns3:atemp>
          </ns3:TrackPointExtension>
        </extensions>
      </trkpt>
      <trkpt lat="42.60005232878029346466064453125" lon="19.9361010454595088958740234375">
        <ele>943.4000244140625</ele>
        <time>2026-06-16T12:19:35.000Z</time>
        <extensions>
          <ns3:TrackPointExtension>
            <ns3:atemp>24.0</ns3:atemp>
          </ns3:TrackPointExtension>
        </extensions>
      </trkpt>
      <trkpt lat="42.60001645423471927642822265625" lon="19.93614840321242809295654296875">
        <ele>943.4000244140625</ele>
        <time>2026-06-16T12:19:36.000Z</time>
        <extensions>
          <ns3:TrackPointExtension>
            <ns3:atemp>24.0</ns3:atemp>
          </ns3:TrackPointExtension>
        </extensions>
      </trkpt>
      <trkpt lat="42.599980831146240234375" lon="19.936206154525279998779296875">
        <ele>943.5999755859375</ele>
        <time>2026-06-16T12:19:37.000Z</time>
        <extensions>
          <ns3:TrackPointExtension>
            <ns3:atemp>24.0</ns3:atemp>
          </ns3:TrackPointExtension>
        </extensions>
      </trkpt>
      <trkpt lat="42.5999183021485805511474609375" lon="19.936309419572353363037109375">
        <ele>943.5999755859375</ele>
        <time>2026-06-16T12:19:38.000Z</time>
        <extensions>
          <ns3:TrackPointExtension>
            <ns3:atemp>24.0</ns3:atemp>
          </ns3:TrackPointExtension>
        </extensions>
      </trkpt>
      <trkpt lat="42.5999183021485805511474609375" lon="19.936309419572353363037109375">
        <ele>943.79998779296875</ele>
        <time>2026-06-16T12:19:39.000Z</time>
        <extensions>
          <ns3:TrackPointExtension>
            <ns3:atemp>24.0</ns3:atemp>
          </ns3:TrackPointExtension>
        </extensions>
      </trkpt>
      <trkpt lat="42.59985988028347492218017578125" lon="19.93641142733395099639892578125">
        <ele>943.79998779296875</ele>
        <time>2026-06-16T12:19:40.000Z</time>
        <extensions>
          <ns3:TrackPointExtension>
            <ns3:atemp>24.0</ns3:atemp>
          </ns3:TrackPointExtension>
        </extensions>
      </trkpt>
      <trkpt lat="42.59985988028347492218017578125" lon="19.93641142733395099639892578125">
        <ele>943.79998779296875</ele>
        <time>2026-06-16T12:19:41.000Z</time>
        <extensions>
          <ns3:TrackPointExtension>
            <ns3:atemp>24.0</ns3:atemp>
          </ns3:TrackPointExtension>
        </extensions>
      </trkpt>
      <trkpt lat="42.59982853196561336517333984375" lon="19.93646104820072650909423828125">
        <ele>943.79998779296875</ele>
        <time>2026-06-16T12:19:42.000Z</time>
        <extensions>
          <ns3:TrackPointExtension>
            <ns3:atemp>24.0</ns3:atemp>
          </ns3:TrackPointExtension>
        </extensions>
      </trkpt>
      <trkpt lat="42.59976164437830448150634765625" lon="19.9365462921559810638427734375">
        <ele>943.79998779296875</ele>
        <time>2026-06-16T12:19:43.000Z</time>
        <extensions>
          <ns3:TrackPointExtension>
            <ns3:atemp>24.0</ns3:atemp>
          </ns3:TrackPointExtension>
        </extensions>
      </trkpt>
      <trkpt lat="42.59976164437830448150634765625" lon="19.9365462921559810638427734375">
        <ele>943.79998779296875</ele>
        <time>2026-06-16T12:19:44.000Z</time>
        <extensions>
          <ns3:TrackPointExtension>
            <ns3:atemp>24.0</ns3:atemp>
          </ns3:TrackPointExtension>
        </extensions>
      </trkpt>
      <trkpt lat="42.59972576983273029327392578125" lon="19.936587028205394744873046875">
        <ele>943.79998779296875</ele>
        <time>2026-06-16T12:19:45.000Z</time>
        <extensions>
          <ns3:TrackPointExtension>
            <ns3:atemp>24.0</ns3:atemp>
          </ns3:TrackPointExtension>
        </extensions>
      </trkpt>
      <trkpt lat="42.59969324804842472076416015625" lon="19.93663388304412364959716796875">
        <ele>943.79998779296875</ele>
        <time>2026-06-16T12:19:46.000Z</time>
        <extensions>
          <ns3:TrackPointExtension>
            <ns3:atemp>24.0</ns3:atemp>
          </ns3:TrackPointExtension>
        </extensions>
      </trkpt>
      <trkpt lat="42.5996587984263896942138671875" lon="19.9366820789873600006103515625">
        <ele>943.79998779296875</ele>
        <time>2026-06-16T12:19:47.000Z</time>
        <extensions>
          <ns3:TrackPointExtension>
            <ns3:atemp>24.0</ns3:atemp>
          </ns3:TrackPointExtension>
        </extensions>
      </trkpt>
      <trkpt lat="42.599625773727893829345703125" lon="19.9367367289960384368896484375">
        <ele>943.79998779296875</ele>
        <time>2026-06-16T12:19:48.000Z</time>
        <extensions>
          <ns3:TrackPointExtension>
            <ns3:atemp>24.0</ns3:atemp>
          </ns3:TrackPointExtension>
        </extensions>
      </trkpt>
      <trkpt lat="42.59955779649317264556884765625" lon="19.9368537403643131256103515625">
        <ele>943.5999755859375</ele>
        <time>2026-06-16T12:19:49.000Z</time>
        <extensions>
          <ns3:TrackPointExtension>
            <ns3:atemp>24.0</ns3:atemp>
          </ns3:TrackPointExtension>
        </extensions>
      </trkpt>
      <trkpt lat="42.59955779649317264556884765625" lon="19.9368537403643131256103515625">
        <ele>943.5999755859375</ele>
        <time>2026-06-16T12:19:50.000Z</time>
        <extensions>
          <ns3:TrackPointExtension>
            <ns3:atemp>24.0</ns3:atemp>
          </ns3:TrackPointExtension>
        </extensions>
      </trkpt>
      <trkpt lat="42.59951370768249034881591796875" lon="19.93689841590821743011474609375">
        <ele>943.5999755859375</ele>
        <time>2026-06-16T12:19:51.000Z</time>
        <extensions>
          <ns3:TrackPointExtension>
            <ns3:atemp>24.0</ns3:atemp>
          </ns3:TrackPointExtension>
        </extensions>
      </trkpt>
      <trkpt lat="42.59946224279701709747314453125" lon="19.936915598809719085693359375">
        <ele>943.5999755859375</ele>
        <time>2026-06-16T12:19:52.000Z</time>
        <extensions>
          <ns3:TrackPointExtension>
            <ns3:atemp>24.0</ns3:atemp>
          </ns3:TrackPointExtension>
        </extensions>
      </trkpt>
      <trkpt lat="42.5994043238461017608642578125" lon="19.9369053728878498077392578125">
        <ele>943.4000244140625</ele>
        <time>2026-06-16T12:19:53.000Z</time>
        <extensions>
          <ns3:TrackPointExtension>
            <ns3:atemp>24.0</ns3:atemp>
          </ns3:TrackPointExtension>
        </extensions>
      </trkpt>
      <trkpt lat="42.59928940795361995697021484375" lon="19.936916269361972808837890625">
        <ele>943.4000244140625</ele>
        <time>2026-06-16T12:19:54.000Z</time>
        <extensions>
          <ns3:TrackPointExtension>
            <ns3:atemp>24.0</ns3:atemp>
          </ns3:TrackPointExtension>
        </extensions>
      </trkpt>
      <trkpt lat="42.59928940795361995697021484375" lon="19.936916269361972808837890625">
        <ele>943.4000244140625</ele>
        <time>2026-06-16T12:19:55.000Z</time>
        <extensions>
          <ns3:TrackPointExtension>
            <ns3:atemp>24.0</ns3:atemp>
          </ns3:TrackPointExtension>
        </extensions>
      </trkpt>
      <trkpt lat="42.5991840474307537078857421875" lon="19.93694099597632884979248046875">
        <ele>943.20001220703125</ele>
        <time>2026-06-16T12:19:56.000Z</time>
        <extensions>
          <ns3:TrackPointExtension>
            <ns3:atemp>24.0</ns3:atemp>
          </ns3:TrackPointExtension>
        </extensions>
      </trkpt>
      <trkpt lat="42.5991840474307537078857421875" lon="19.93694099597632884979248046875">
        <ele>943</ele>
        <time>2026-06-16T12:19:57.000Z</time>
        <extensions>
          <ns3:TrackPointExtension>
            <ns3:atemp>24.0</ns3:atemp>
          </ns3:TrackPointExtension>
        </extensions>
      </trkpt>
      <trkpt lat="42.59913124144077301025390625" lon="19.9369539879262447357177734375">
        <ele>943</ele>
        <time>2026-06-16T12:19:58.000Z</time>
        <extensions>
          <ns3:TrackPointExtension>
            <ns3:atemp>24.0</ns3:atemp>
          </ns3:TrackPointExtension>
        </extensions>
      </trkpt>
      <trkpt lat="42.5990214385092258453369140625" lon="19.93697368539869785308837890625">
        <ele>942.79998779296875</ele>
        <time>2026-06-16T12:19:59.000Z</time>
        <extensions>
          <ns3:TrackPointExtension>
            <ns3:atemp>24.0</ns3:atemp>
          </ns3:TrackPointExtension>
        </extensions>
      </trkpt>
      <trkpt lat="42.5990214385092258453369140625" lon="19.93697368539869785308837890625">
        <ele>942.5999755859375</ele>
        <time>2026-06-16T12:20:00.000Z</time>
        <extensions>
          <ns3:TrackPointExtension>
            <ns3:atemp>24.0</ns3:atemp>
          </ns3:TrackPointExtension>
        </extensions>
      </trkpt>
      <trkpt lat="42.5989225320518016815185546875" lon="19.9369787983596324920654296875">
        <ele>942.4000244140625</ele>
        <time>2026-06-16T12:20:01.000Z</time>
        <extensions>
          <ns3:TrackPointExtension>
            <ns3:atemp>24.0</ns3:atemp>
          </ns3:TrackPointExtension>
        </extensions>
      </trkpt>
      <trkpt lat="42.5989225320518016815185546875" lon="19.9369787983596324920654296875">
        <ele>942.4000244140625</ele>
        <time>2026-06-16T12:20:02.000Z</time>
        <extensions>
          <ns3:TrackPointExtension>
            <ns3:atemp>24.0</ns3:atemp>
          </ns3:TrackPointExtension>
        </extensions>
      </trkpt>
      <trkpt lat="42.5988769344985485076904296875" lon="19.93698097765445709228515625">
        <ele>942.20001220703125</ele>
        <time>2026-06-16T12:20:03.000Z</time>
        <extensions>
          <ns3:TrackPointExtension>
            <ns3:atemp>24.0</ns3:atemp>
          </ns3:TrackPointExtension>
        </extensions>
      </trkpt>
      <trkpt lat="42.5988306663930416107177734375" lon="19.9369724281132221221923828125">
        <ele>942.20001220703125</ele>
        <time>2026-06-16T12:20:04.000Z</time>
        <extensions>
          <ns3:TrackPointExtension>
            <ns3:atemp>24.0</ns3:atemp>
          </ns3:TrackPointExtension>
        </extensions>
      </trkpt>
      <trkpt lat="42.59879219345748424530029296875" lon="19.9369533173739910125732421875">
        <ele>942.20001220703125</ele>
        <time>2026-06-16T12:20:05.000Z</time>
        <extensions>
          <ns3:TrackPointExtension>
            <ns3:atemp>24.0</ns3:atemp>
          </ns3:TrackPointExtension>
        </extensions>
      </trkpt>
      <trkpt lat="42.5987535528838634490966796875" lon="19.9369244836270809173583984375">
        <ele>942</ele>
        <time>2026-06-16T12:20:06.000Z</time>
        <extensions>
          <ns3:TrackPointExtension>
            <ns3:atemp>24.0</ns3:atemp>
          </ns3:TrackPointExtension>
        </extensions>
      </trkpt>
      <trkpt lat="42.598722875118255615234375" lon="19.93688131682574748992919921875">
        <ele>942</ele>
        <time>2026-06-16T12:20:07.000Z</time>
        <extensions>
          <ns3:TrackPointExtension>
            <ns3:atemp>24.0</ns3:atemp>
          </ns3:TrackPointExtension>
        </extensions>
      </trkpt>
      <trkpt lat="42.59869731031358242034912109375" lon="19.9368302710354328155517578125">
        <ele>942</ele>
        <time>2026-06-16T12:20:08.000Z</time>
        <extensions>
          <ns3:TrackPointExtension>
            <ns3:atemp>24.0</ns3:atemp>
          </ns3:TrackPointExtension>
        </extensions>
      </trkpt>
      <trkpt lat="42.59866990149021148681640625" lon="19.93677972815930843353271484375">
        <ele>941.79998779296875</ele>
        <time>2026-06-16T12:20:09.000Z</time>
        <extensions>
          <ns3:TrackPointExtension>
            <ns3:atemp>24.0</ns3:atemp>
          </ns3:TrackPointExtension>
        </extensions>
      </trkpt>
      <trkpt lat="42.5986378826200962066650390625" lon="19.93673346005380153656005859375">
        <ele>941.79998779296875</ele>
        <time>2026-06-16T12:20:10.000Z</time>
        <extensions>
          <ns3:TrackPointExtension>
            <ns3:atemp>24.0</ns3:atemp>
          </ns3:TrackPointExtension>
        </extensions>
      </trkpt>
      <trkpt lat="42.5986003316938877105712890625" lon="19.93669171817600727081298828125">
        <ele>941.4000244140625</ele>
        <time>2026-06-16T12:20:11.000Z</time>
        <extensions>
          <ns3:TrackPointExtension>
            <ns3:atemp>24.0</ns3:atemp>
          </ns3:TrackPointExtension>
        </extensions>
      </trkpt>
      <trkpt lat="42.598556913435459136962890625" lon="19.93665433488786220550537109375">
        <ele>941.20001220703125</ele>
        <time>2026-06-16T12:20:12.000Z</time>
        <extensions>
          <ns3:TrackPointExtension>
            <ns3:atemp>24.0</ns3:atemp>
          </ns3:TrackPointExtension>
        </extensions>
      </trkpt>
      <trkpt lat="42.59850285016000270843505859375" lon="19.9366314522922039031982421875">
        <ele>940.79998779296875</ele>
        <time>2026-06-16T12:20:13.000Z</time>
        <extensions>
          <ns3:TrackPointExtension>
            <ns3:atemp>24.0</ns3:atemp>
          </ns3:TrackPointExtension>
        </extensions>
      </trkpt>
      <trkpt lat="42.59845289401710033416748046875" lon="19.93662768043577671051025390625">
        <ele>940.4000244140625</ele>
        <time>2026-06-16T12:20:14.000Z</time>
        <extensions>
          <ns3:TrackPointExtension>
            <ns3:atemp>24.0</ns3:atemp>
          </ns3:TrackPointExtension>
        </extensions>
      </trkpt>
      <trkpt lat="42.59840176440775394439697265625" lon="19.93663321249186992645263671875">
        <ele>940.20001220703125</ele>
        <time>2026-06-16T12:20:15.000Z</time>
        <extensions>
          <ns3:TrackPointExtension>
            <ns3:atemp>24.0</ns3:atemp>
          </ns3:TrackPointExtension>
        </extensions>
      </trkpt>
      <trkpt lat="42.5983522273600101470947265625" lon="19.93664695881307125091552734375">
        <ele>939.79998779296875</ele>
        <time>2026-06-16T12:20:16.000Z</time>
        <extensions>
          <ns3:TrackPointExtension>
            <ns3:atemp>24.0</ns3:atemp>
          </ns3:TrackPointExtension>
        </extensions>
      </trkpt>
      <trkpt lat="42.59830922819674015045166015625" lon="19.9366314522922039031982421875">
        <ele>939.4000244140625</ele>
        <time>2026-06-16T12:20:17.000Z</time>
        <extensions>
          <ns3:TrackPointExtension>
            <ns3:atemp>24.0</ns3:atemp>
          </ns3:TrackPointExtension>
        </extensions>
      </trkpt>
      <trkpt lat="42.598265223205089569091796875" lon="19.936603792011737823486328125">
        <ele>939</ele>
        <time>2026-06-16T12:20:18.000Z</time>
        <extensions>
          <ns3:TrackPointExtension>
            <ns3:atemp>24.0</ns3:atemp>
          </ns3:TrackPointExtension>
        </extensions>
      </trkpt>
      <trkpt lat="42.59821568615734577178955078125" lon="19.9366006068885326385498046875">
        <ele>938.79998779296875</ele>
        <time>2026-06-16T12:20:19.000Z</time>
        <extensions>
          <ns3:TrackPointExtension>
            <ns3:atemp>24.0</ns3:atemp>
          </ns3:TrackPointExtension>
        </extensions>
      </trkpt>
      <trkpt lat="42.598165981471538543701171875" lon="19.9366254173219203948974609375">
        <ele>938.4000244140625</ele>
        <time>2026-06-16T12:20:20.000Z</time>
        <extensions>
          <ns3:TrackPointExtension>
            <ns3:atemp>24.0</ns3:atemp>
          </ns3:TrackPointExtension>
        </extensions>
      </trkpt>
      <trkpt lat="42.598113007843494415283203125" lon="19.9366586096584796905517578125">
        <ele>937.79998779296875</ele>
        <time>2026-06-16T12:20:21.000Z</time>
        <extensions>
          <ns3:TrackPointExtension>
            <ns3:atemp>24.0</ns3:atemp>
          </ns3:TrackPointExtension>
        </extensions>
      </trkpt>
      <trkpt lat="42.5980528257787227630615234375" lon="19.93668727576732635498046875">
        <ele>937.4000244140625</ele>
        <time>2026-06-16T12:20:22.000Z</time>
        <extensions>
          <ns3:TrackPointExtension>
            <ns3:atemp>24.0</ns3:atemp>
          </ns3:TrackPointExtension>
        </extensions>
      </trkpt>
      <trkpt lat="42.597907818853855133056640625" lon="19.93672859854996204376220703125">
        <ele>937</ele>
        <time>2026-06-16T12:20:23.000Z</time>
        <extensions>
          <ns3:TrackPointExtension>
            <ns3:atemp>24.0</ns3:atemp>
          </ns3:TrackPointExtension>
        </extensions>
      </trkpt>
      <trkpt lat="42.597907818853855133056640625" lon="19.93672859854996204376220703125">
        <ele>936.4000244140625</ele>
        <time>2026-06-16T12:20:24.000Z</time>
        <extensions>
          <ns3:TrackPointExtension>
            <ns3:atemp>24.0</ns3:atemp>
          </ns3:TrackPointExtension>
        </extensions>
      </trkpt>
      <trkpt lat="42.59783347137272357940673828125" lon="19.9367444403469562530517578125">
        <ele>935.79998779296875</ele>
        <time>2026-06-16T12:20:25.000Z</time>
        <extensions>
          <ns3:TrackPointExtension>
            <ns3:atemp>24.0</ns3:atemp>
          </ns3:TrackPointExtension>
        </extensions>
      </trkpt>
      <trkpt lat="42.597757615149021148681640625" lon="19.9367447756230831146240234375">
        <ele>934.79998779296875</ele>
        <time>2026-06-16T12:20:26.000Z</time>
        <extensions>
          <ns3:TrackPointExtension>
            <ns3:atemp>24.0</ns3:atemp>
          </ns3:TrackPointExtension>
        </extensions>
      </trkpt>
      <trkpt lat="42.59761269204318523406982421875" lon="19.93675994686782360076904296875">
        <ele>934.20001220703125</ele>
        <time>2026-06-16T12:20:27.000Z</time>
        <extensions>
          <ns3:TrackPointExtension>
            <ns3:atemp>24.0</ns3:atemp>
          </ns3:TrackPointExtension>
        </extensions>
      </trkpt>
      <trkpt lat="42.59761269204318523406982421875" lon="19.93675994686782360076904296875">
        <ele>933.20001220703125</ele>
        <time>2026-06-16T12:20:28.000Z</time>
        <extensions>
          <ns3:TrackPointExtension>
            <ns3:atemp>24.0</ns3:atemp>
          </ns3:TrackPointExtension>
        </extensions>
      </trkpt>
      <trkpt lat="42.59754278697073459625244140625" lon="19.936753995716571807861328125">
        <ele>932.4000244140625</ele>
        <time>2026-06-16T12:20:29.000Z</time>
        <extensions>
          <ns3:TrackPointExtension>
            <ns3:atemp>24.0</ns3:atemp>
          </ns3:TrackPointExtension>
        </extensions>
      </trkpt>
      <trkpt lat="42.59742242284119129180908203125" lon="19.9366918019950389862060546875">
        <ele>931.5999755859375</ele>
        <time>2026-06-16T12:20:30.000Z</time>
        <extensions>
          <ns3:TrackPointExtension>
            <ns3:atemp>24.0</ns3:atemp>
          </ns3:TrackPointExtension>
        </extensions>
      </trkpt>
      <trkpt lat="42.59742242284119129180908203125" lon="19.9366918019950389862060546875">
        <ele>931</ele>
        <time>2026-06-16T12:20:31.000Z</time>
        <extensions>
          <ns3:TrackPointExtension>
            <ns3:atemp>24.0</ns3:atemp>
          </ns3:TrackPointExtension>
        </extensions>
      </trkpt>
      <trkpt lat="42.5973992049694061279296875" lon="19.93661460466682910919189453125">
        <ele>930</ele>
        <time>2026-06-16T12:20:32.000Z</time>
        <extensions>
          <ns3:TrackPointExtension>
            <ns3:atemp>24.0</ns3:atemp>
          </ns3:TrackPointExtension>
        </extensions>
      </trkpt>
      <trkpt lat="42.5973903201520442962646484375" lon="19.93641796521842479705810546875">
        <ele>929.20001220703125</ele>
        <time>2026-06-16T12:20:33.000Z</time>
        <extensions>
          <ns3:TrackPointExtension>
            <ns3:atemp>24.0</ns3:atemp>
          </ns3:TrackPointExtension>
        </extensions>
      </trkpt>
      <trkpt lat="42.59737984277307987213134765625" lon="19.9363172985613346099853515625">
        <ele>928.4000244140625</ele>
        <time>2026-06-16T12:20:34.000Z</time>
        <extensions>
          <ns3:TrackPointExtension>
            <ns3:atemp>24.0</ns3:atemp>
          </ns3:TrackPointExtension>
        </extensions>
      </trkpt>
      <trkpt lat="42.59737984277307987213134765625" lon="19.9363172985613346099853515625">
        <ele>927.5999755859375</ele>
        <time>2026-06-16T12:20:35.000Z</time>
        <extensions>
          <ns3:TrackPointExtension>
            <ns3:atemp>24.0</ns3:atemp>
          </ns3:TrackPointExtension>
        </extensions>
      </trkpt>
      <trkpt lat="42.59736634790897369384765625" lon="19.93622886948287487030029296875">
        <ele>926.79998779296875</ele>
        <time>2026-06-16T12:20:36.000Z</time>
        <extensions>
          <ns3:TrackPointExtension>
            <ns3:atemp>24.0</ns3:atemp>
          </ns3:TrackPointExtension>
        </extensions>
      </trkpt>
      <trkpt lat="42.59734891355037689208984375" lon="19.93607682175934314727783203125">
        <ele>926</ele>
        <time>2026-06-16T12:20:37.000Z</time>
        <extensions>
          <ns3:TrackPointExtension>
            <ns3:atemp>24.0</ns3:atemp>
          </ns3:TrackPointExtension>
        </extensions>
      </trkpt>
      <trkpt lat="42.59734891355037689208984375" lon="19.93607682175934314727783203125">
        <ele>925.4000244140625</ele>
        <time>2026-06-16T12:20:38.000Z</time>
        <extensions>
          <ns3:TrackPointExtension>
            <ns3:atemp>24.0</ns3:atemp>
          </ns3:TrackPointExtension>
        </extensions>
      </trkpt>
      <trkpt lat="42.5973386876285076141357421875" lon="19.93601479567587375640869140625">
        <ele>925</ele>
        <time>2026-06-16T12:20:39.000Z</time>
        <extensions>
          <ns3:TrackPointExtension>
            <ns3:atemp>24.0</ns3:atemp>
          </ns3:TrackPointExtension>
        </extensions>
      </trkpt>
      <trkpt lat="42.59734296239912509918212890625" lon="19.93592142127454280853271484375">
        <ele>924.4000244140625</ele>
        <time>2026-06-16T12:20:40.000Z</time>
        <extensions>
          <ns3:TrackPointExtension>
            <ns3:atemp>24.0</ns3:atemp>
          </ns3:TrackPointExtension>
        </extensions>
      </trkpt>
      <trkpt lat="42.59735469706356525421142578125" lon="19.93587884120643138885498046875">
        <ele>924</ele>
        <time>2026-06-16T12:20:41.000Z</time>
        <extensions>
          <ns3:TrackPointExtension>
            <ns3:atemp>24.0</ns3:atemp>
          </ns3:TrackPointExtension>
        </extensions>
      </trkpt>
      <trkpt lat="42.59736190550029277801513671875" lon="19.93584581650793552398681640625">
        <ele>923.4000244140625</ele>
        <time>2026-06-16T12:20:42.000Z</time>
        <extensions>
          <ns3:TrackPointExtension>
            <ns3:atemp>24.0</ns3:atemp>
          </ns3:TrackPointExtension>
        </extensions>
      </trkpt>
      <trkpt lat="42.59736693464219570159912109375" lon="19.935813210904598236083984375">
        <ele>923.20001220703125</ele>
        <time>2026-06-16T12:20:43.000Z</time>
        <extensions>
          <ns3:TrackPointExtension>
            <ns3:atemp>24.0</ns3:atemp>
          </ns3:TrackPointExtension>
        </extensions>
      </trkpt>
      <trkpt lat="42.59736693464219570159912109375" lon="19.935813210904598236083984375">
        <ele>922.79998779296875</ele>
        <time>2026-06-16T12:20:44.000Z</time>
        <extensions>
          <ns3:TrackPointExtension>
            <ns3:atemp>24.0</ns3:atemp>
          </ns3:TrackPointExtension>
        </extensions>
      </trkpt>
      <trkpt lat="42.59737045504152774810791015625" lon="19.935789071023464202880859375">
        <ele>922.5999755859375</ele>
        <time>2026-06-16T12:20:45.000Z</time>
        <extensions>
          <ns3:TrackPointExtension>
            <ns3:atemp>24.0</ns3:atemp>
          </ns3:TrackPointExtension>
        </extensions>
      </trkpt>
      <trkpt lat="42.59737045504152774810791015625" lon="19.935789071023464202880859375">
        <ele>922.4000244140625</ele>
        <time>2026-06-16T12:20:46.000Z</time>
        <extensions>
          <ns3:TrackPointExtension>
            <ns3:atemp>24.0</ns3:atemp>
          </ns3:TrackPointExtension>
        </extensions>
      </trkpt>
      <trkpt lat="42.59737045504152774810791015625" lon="19.935789071023464202880859375">
        <ele>922.20001220703125</ele>
        <time>2026-06-16T12:20:47.000Z</time>
        <extensions>
          <ns3:TrackPointExtension>
            <ns3:atemp>24.0</ns3:atemp>
          </ns3:TrackPointExtension>
        </extensions>
      </trkpt>
      <trkpt lat="42.59737045504152774810791015625" lon="19.935789071023464202880859375">
        <ele>922</ele>
        <time>2026-06-16T12:20:48.000Z</time>
        <extensions>
          <ns3:TrackPointExtension>
            <ns3:atemp>24.0</ns3:atemp>
          </ns3:TrackPointExtension>
        </extensions>
      </trkpt>
      <trkpt lat="42.59737045504152774810791015625" lon="19.935789071023464202880859375">
        <ele>922</ele>
        <time>2026-06-16T12:20:49.000Z</time>
        <extensions>
          <ns3:TrackPointExtension>
            <ns3:atemp>24.0</ns3:atemp>
          </ns3:TrackPointExtension>
        </extensions>
      </trkpt>
      <trkpt lat="42.59737045504152774810791015625" lon="19.935789071023464202880859375">
        <ele>922</ele>
        <time>2026-06-16T12:20:50.000Z</time>
        <extensions>
          <ns3:TrackPointExtension>
            <ns3:atemp>24.0</ns3:atemp>
          </ns3:TrackPointExtension>
        </extensions>
      </trkpt>
      <trkpt lat="42.59737045504152774810791015625" lon="19.935789071023464202880859375">
        <ele>921.79998779296875</ele>
        <time>2026-06-16T12:20:51.000Z</time>
        <extensions>
          <ns3:TrackPointExtension>
            <ns3:atemp>24.0</ns3:atemp>
          </ns3:TrackPointExtension>
        </extensions>
      </trkpt>
      <trkpt lat="42.59737045504152774810791015625" lon="19.935789071023464202880859375">
        <ele>921.79998779296875</ele>
        <time>2026-06-16T12:20:52.000Z</time>
        <extensions>
          <ns3:TrackPointExtension>
            <ns3:atemp>24.0</ns3:atemp>
          </ns3:TrackPointExtension>
        </extensions>
      </trkpt>
      <trkpt lat="42.59737045504152774810791015625" lon="19.935789071023464202880859375">
        <ele>921.79998779296875</ele>
        <time>2026-06-16T12:20:53.000Z</time>
        <extensions>
          <ns3:TrackPointExtension>
            <ns3:atemp>24.0</ns3:atemp>
          </ns3:TrackPointExtension>
        </extensions>
      </trkpt>
      <trkpt lat="42.59737045504152774810791015625" lon="19.935789071023464202880859375">
        <ele>921.79998779296875</ele>
        <time>2026-06-16T12:20:54.000Z</time>
        <extensions>
          <ns3:TrackPointExtension>
            <ns3:atemp>24.0</ns3:atemp>
          </ns3:TrackPointExtension>
        </extensions>
      </trkpt>
      <trkpt lat="42.59737045504152774810791015625" lon="19.935789071023464202880859375">
        <ele>921.5999755859375</ele>
        <time>2026-06-16T12:20:55.000Z</time>
        <extensions>
          <ns3:TrackPointExtension>
            <ns3:atemp>24.0</ns3:atemp>
          </ns3:TrackPointExtension>
        </extensions>
      </trkpt>
      <trkpt lat="42.59737045504152774810791015625" lon="19.935789071023464202880859375">
        <ele>921.5999755859375</ele>
        <time>2026-06-16T12:20:56.000Z</time>
        <extensions>
          <ns3:TrackPointExtension>
            <ns3:atemp>24.0</ns3:atemp>
          </ns3:TrackPointExtension>
        </extensions>
      </trkpt>
      <trkpt lat="42.59737045504152774810791015625" lon="19.935789071023464202880859375">
        <ele>921.5999755859375</ele>
        <time>2026-06-16T12:20:57.000Z</time>
        <extensions>
          <ns3:TrackPointExtension>
            <ns3:atemp>24.0</ns3:atemp>
          </ns3:TrackPointExtension>
        </extensions>
      </trkpt>
      <trkpt lat="42.59737045504152774810791015625" lon="19.935789071023464202880859375">
        <ele>921.4000244140625</ele>
        <time>2026-06-16T12:20:58.000Z</time>
        <extensions>
          <ns3:TrackPointExtension>
            <ns3:atemp>24.0</ns3:atemp>
          </ns3:TrackPointExtension>
        </extensions>
      </trkpt>
      <trkpt lat="42.59737045504152774810791015625" lon="19.935789071023464202880859375">
        <ele>921.4000244140625</ele>
        <time>2026-06-16T12:20:59.000Z</time>
        <extensions>
          <ns3:TrackPointExtension>
            <ns3:atemp>24.0</ns3:atemp>
          </ns3:TrackPointExtension>
        </extensions>
      </trkpt>
      <trkpt lat="42.59737045504152774810791015625" lon="19.935789071023464202880859375">
        <ele>921.4000244140625</ele>
        <time>2026-06-16T12:21:00.000Z</time>
        <extensions>
          <ns3:TrackPointExtension>
            <ns3:atemp>24.0</ns3:atemp>
          </ns3:TrackPointExtension>
        </extensions>
      </trkpt>
      <trkpt lat="42.59737045504152774810791015625" lon="19.935789071023464202880859375">
        <ele>921.20001220703125</ele>
        <time>2026-06-16T12:21:01.000Z</time>
        <extensions>
          <ns3:TrackPointExtension>
            <ns3:atemp>24.0</ns3:atemp>
          </ns3:TrackPointExtension>
        </extensions>
      </trkpt>
      <trkpt lat="42.59737045504152774810791015625" lon="19.935789071023464202880859375">
        <ele>921.20001220703125</ele>
        <time>2026-06-16T12:21:02.000Z</time>
        <extensions>
          <ns3:TrackPointExtension>
            <ns3:atemp>24.0</ns3:atemp>
          </ns3:TrackPointExtension>
        </extensions>
      </trkpt>
      <trkpt lat="42.59737045504152774810791015625" lon="19.935789071023464202880859375">
        <ele>921.20001220703125</ele>
        <time>2026-06-16T12:21:03.000Z</time>
        <extensions>
          <ns3:TrackPointExtension>
            <ns3:atemp>24.0</ns3:atemp>
          </ns3:TrackPointExtension>
        </extensions>
      </trkpt>
      <trkpt lat="42.597360312938690185546875" lon="19.93576250039041042327880859375">
        <ele>921</ele>
        <time>2026-06-16T12:21:04.000Z</time>
        <extensions>
          <ns3:TrackPointExtension>
            <ns3:atemp>24.0</ns3:atemp>
          </ns3:TrackPointExtension>
        </extensions>
      </trkpt>
      <trkpt lat="42.597360312938690185546875" lon="19.93576250039041042327880859375">
        <ele>921</ele>
        <time>2026-06-16T12:21:05.000Z</time>
        <extensions>
          <ns3:TrackPointExtension>
            <ns3:atemp>24.0</ns3:atemp>
          </ns3:TrackPointExtension>
        </extensions>
      </trkpt>
      <trkpt lat="42.5973541103303432464599609375" lon="19.93573148734867572784423828125">
        <ele>920.79998779296875</ele>
        <time>2026-06-16T12:21:06.000Z</time>
        <extensions>
          <ns3:TrackPointExtension>
            <ns3:atemp>24.0</ns3:atemp>
          </ns3:TrackPointExtension>
        </extensions>
      </trkpt>
      <trkpt lat="42.5973463989794254302978515625" lon="19.93568354286253452301025390625">
        <ele>920.5999755859375</ele>
        <time>2026-06-16T12:21:07.000Z</time>
        <extensions>
          <ns3:TrackPointExtension>
            <ns3:atemp>24.0</ns3:atemp>
          </ns3:TrackPointExtension>
        </extensions>
      </trkpt>
      <trkpt lat="42.59733256883919239044189453125" lon="19.93563123978674411773681640625">
        <ele>920.4000244140625</ele>
        <time>2026-06-16T12:21:08.000Z</time>
        <extensions>
          <ns3:TrackPointExtension>
            <ns3:atemp>24.0</ns3:atemp>
          </ns3:TrackPointExtension>
        </extensions>
      </trkpt>
      <trkpt lat="42.59729099459946155548095703125" lon="19.935498721897602081298828125">
        <ele>920</ele>
        <time>2026-06-16T12:21:09.000Z</time>
        <extensions>
          <ns3:TrackPointExtension>
            <ns3:atemp>24.0</ns3:atemp>
          </ns3:TrackPointExtension>
        </extensions>
      </trkpt>
      <trkpt lat="42.59729099459946155548095703125" lon="19.935498721897602081298828125">
        <ele>919.5999755859375</ele>
        <time>2026-06-16T12:21:10.000Z</time>
        <extensions>
          <ns3:TrackPointExtension>
            <ns3:atemp>24.0</ns3:atemp>
          </ns3:TrackPointExtension>
        </extensions>
      </trkpt>
      <trkpt lat="42.59727305732667446136474609375" lon="19.93532530032098293304443359375">
        <ele>919</ele>
        <time>2026-06-16T12:21:11.000Z</time>
        <extensions>
          <ns3:TrackPointExtension>
            <ns3:atemp>24.0</ns3:atemp>
          </ns3:TrackPointExtension>
        </extensions>
      </trkpt>
      <trkpt lat="42.59727305732667446136474609375" lon="19.93532530032098293304443359375">
        <ele>918.4000244140625</ele>
        <time>2026-06-16T12:21:12.000Z</time>
        <extensions>
          <ns3:TrackPointExtension>
            <ns3:atemp>24.0</ns3:atemp>
          </ns3:TrackPointExtension>
        </extensions>
      </trkpt>
      <trkpt lat="42.59724908508360385894775390625" lon="19.935237877070903778076171875">
        <ele>918</ele>
        <time>2026-06-16T12:21:13.000Z</time>
        <extensions>
          <ns3:TrackPointExtension>
            <ns3:atemp>24.0</ns3:atemp>
          </ns3:TrackPointExtension>
        </extensions>
      </trkpt>
      <trkpt lat="42.59721186943352222442626953125" lon="19.9351545609533786773681640625">
        <ele>917.20001220703125</ele>
        <time>2026-06-16T12:21:14.000Z</time>
        <extensions>
          <ns3:TrackPointExtension>
            <ns3:atemp>24.0</ns3:atemp>
          </ns3:TrackPointExtension>
        </extensions>
      </trkpt>
      <trkpt lat="42.59716115891933441162109375" lon="19.93507954291999340057373046875">
        <ele>916.5999755859375</ele>
        <time>2026-06-16T12:21:15.000Z</time>
        <extensions>
          <ns3:TrackPointExtension>
            <ns3:atemp>24.0</ns3:atemp>
          </ns3:TrackPointExtension>
        </extensions>
      </trkpt>
      <trkpt lat="42.59710357524454593658447265625" lon="19.9350249767303466796875">
        <ele>916.20001220703125</ele>
        <time>2026-06-16T12:21:16.000Z</time>
        <extensions>
          <ns3:TrackPointExtension>
            <ns3:atemp>24.0</ns3:atemp>
          </ns3:TrackPointExtension>
        </extensions>
      </trkpt>
      <trkpt lat="42.5970379449427127838134765625" lon="19.934995807707309722900390625">
        <ele>916</ele>
        <time>2026-06-16T12:21:17.000Z</time>
        <extensions>
          <ns3:TrackPointExtension>
            <ns3:atemp>24.0</ns3:atemp>
          </ns3:TrackPointExtension>
        </extensions>
      </trkpt>
      <trkpt lat="42.59697549976408481597900390625" lon="19.9349887669086456298828125">
        <ele>915.79998779296875</ele>
        <time>2026-06-16T12:21:18.000Z</time>
        <extensions>
          <ns3:TrackPointExtension>
            <ns3:atemp>24.0</ns3:atemp>
          </ns3:TrackPointExtension>
        </extensions>
      </trkpt>
      <trkpt lat="42.5969262979924678802490234375" lon="19.934967644512653350830078125">
        <ele>915.79998779296875</ele>
        <time>2026-06-16T12:21:19.000Z</time>
        <extensions>
          <ns3:TrackPointExtension>
            <ns3:atemp>24.0</ns3:atemp>
          </ns3:TrackPointExtension>
        </extensions>
      </trkpt>
      <trkpt lat="42.596892602741718292236328125" lon="19.934934116899967193603515625">
        <ele>915.79998779296875</ele>
        <time>2026-06-16T12:21:20.000Z</time>
        <extensions>
          <ns3:TrackPointExtension>
            <ns3:atemp>24.0</ns3:atemp>
          </ns3:TrackPointExtension>
        </extensions>
      </trkpt>
      <trkpt lat="42.596872486174106597900390625" lon="19.9348940514028072357177734375">
        <ele>915.79998779296875</ele>
        <time>2026-06-16T12:21:21.000Z</time>
        <extensions>
          <ns3:TrackPointExtension>
            <ns3:atemp>24.0</ns3:atemp>
          </ns3:TrackPointExtension>
        </extensions>
      </trkpt>
      <trkpt lat="42.59683669544756412506103515625" lon="19.934780895709991455078125">
        <ele>915.5999755859375</ele>
        <time>2026-06-16T12:21:22.000Z</time>
        <extensions>
          <ns3:TrackPointExtension>
            <ns3:atemp>24.0</ns3:atemp>
          </ns3:TrackPointExtension>
        </extensions>
      </trkpt>
      <trkpt lat="42.59683669544756412506103515625" lon="19.934780895709991455078125">
        <ele>915.4000244140625</ele>
        <time>2026-06-16T12:21:23.000Z</time>
        <extensions>
          <ns3:TrackPointExtension>
            <ns3:atemp>24.0</ns3:atemp>
          </ns3:TrackPointExtension>
        </extensions>
      </trkpt>
      <trkpt lat="42.5968203507363796234130859375" lon="19.9346606992185115814208984375">
        <ele>915.20001220703125</ele>
        <time>2026-06-16T12:21:24.000Z</time>
        <extensions>
          <ns3:TrackPointExtension>
            <ns3:atemp>24.0</ns3:atemp>
          </ns3:TrackPointExtension>
        </extensions>
      </trkpt>
      <trkpt lat="42.5968153215944766998291015625" lon="19.93460227735340595245361328125">
        <ele>914.79998779296875</ele>
        <time>2026-06-16T12:21:25.000Z</time>
        <extensions>
          <ns3:TrackPointExtension>
            <ns3:atemp>24.0</ns3:atemp>
          </ns3:TrackPointExtension>
        </extensions>
      </trkpt>
      <trkpt lat="42.5968153215944766998291015625" lon="19.93460227735340595245361328125">
        <ele>914.79998779296875</ele>
        <time>2026-06-16T12:21:26.000Z</time>
        <extensions>
          <ns3:TrackPointExtension>
            <ns3:atemp>24.0</ns3:atemp>
          </ns3:TrackPointExtension>
        </extensions>
      </trkpt>
      <trkpt lat="42.59678623639047145843505859375" lon="19.934490881860256195068359375">
        <ele>914.5999755859375</ele>
        <time>2026-06-16T12:21:27.000Z</time>
        <extensions>
          <ns3:TrackPointExtension>
            <ns3:atemp>24.0</ns3:atemp>
          </ns3:TrackPointExtension>
        </extensions>
      </trkpt>
      <trkpt lat="42.59677014313638210296630859375" lon="19.93444100953638553619384765625">
        <ele>914.5999755859375</ele>
        <time>2026-06-16T12:21:28.000Z</time>
        <extensions>
          <ns3:TrackPointExtension>
            <ns3:atemp>24.0</ns3:atemp>
          </ns3:TrackPointExtension>
        </extensions>
      </trkpt>
      <trkpt lat="42.59677014313638210296630859375" lon="19.93444100953638553619384765625">
        <ele>914.5999755859375</ele>
        <time>2026-06-16T12:21:29.000Z</time>
        <extensions>
          <ns3:TrackPointExtension>
            <ns3:atemp>24.0</ns3:atemp>
          </ns3:TrackPointExtension>
        </extensions>
      </trkpt>
      <trkpt lat="42.5967526249587535858154296875" lon="19.9343938194215297698974609375">
        <ele>914.5999755859375</ele>
        <time>2026-06-16T12:21:30.000Z</time>
        <extensions>
          <ns3:TrackPointExtension>
            <ns3:atemp>24.0</ns3:atemp>
          </ns3:TrackPointExtension>
        </extensions>
      </trkpt>
      <trkpt lat="42.59673024527728557586669921875" lon="19.9343123473227024078369140625">
        <ele>914.5999755859375</ele>
        <time>2026-06-16T12:21:31.000Z</time>
        <extensions>
          <ns3:TrackPointExtension>
            <ns3:atemp>24.0</ns3:atemp>
          </ns3:TrackPointExtension>
        </extensions>
      </trkpt>
      <trkpt lat="42.59673024527728557586669921875" lon="19.9343123473227024078369140625">
        <ele>914.5999755859375</ele>
        <time>2026-06-16T12:21:32.000Z</time>
        <extensions>
          <ns3:TrackPointExtension>
            <ns3:atemp>24.0</ns3:atemp>
          </ns3:TrackPointExtension>
        </extensions>
      </trkpt>
      <trkpt lat="42.59670929051935672760009765625" lon="19.9342416040599346160888671875">
        <ele>914.5999755859375</ele>
        <time>2026-06-16T12:21:33.000Z</time>
        <extensions>
          <ns3:TrackPointExtension>
            <ns3:atemp>24.0</ns3:atemp>
          </ns3:TrackPointExtension>
        </extensions>
      </trkpt>
      <trkpt lat="42.59670929051935672760009765625" lon="19.9342416040599346160888671875">
        <ele>914.5999755859375</ele>
        <time>2026-06-16T12:21:34.000Z</time>
        <extensions>
          <ns3:TrackPointExtension>
            <ns3:atemp>24.0</ns3:atemp>
          </ns3:TrackPointExtension>
        </extensions>
      </trkpt>
      <trkpt lat="42.596694789826869964599609375" lon="19.9341856129467487335205078125">
        <ele>914.5999755859375</ele>
        <time>2026-06-16T12:21:35.000Z</time>
        <extensions>
          <ns3:TrackPointExtension>
            <ns3:atemp>24.0</ns3:atemp>
          </ns3:TrackPointExtension>
        </extensions>
      </trkpt>
      <trkpt lat="42.59669034741818904876708984375" lon="19.934168346226215362548828125">
        <ele>914.5999755859375</ele>
        <time>2026-06-16T12:21:36.000Z</time>
        <extensions>
          <ns3:TrackPointExtension>
            <ns3:atemp>24.0</ns3:atemp>
          </ns3:TrackPointExtension>
        </extensions>
      </trkpt>
      <trkpt lat="42.5966869108378887176513671875" lon="19.93415418080985546112060546875">
        <ele>914.5999755859375</ele>
        <time>2026-06-16T12:21:37.000Z</time>
        <extensions>
          <ns3:TrackPointExtension>
            <ns3:atemp>24.0</ns3:atemp>
          </ns3:TrackPointExtension>
        </extensions>
      </trkpt>
      <trkpt lat="42.5966870784759521484375" lon="19.9341410212218761444091796875">
        <ele>914.5999755859375</ele>
        <time>2026-06-16T12:21:38.000Z</time>
        <extensions>
          <ns3:TrackPointExtension>
            <ns3:atemp>24.0</ns3:atemp>
          </ns3:TrackPointExtension>
        </extensions>
      </trkpt>
      <trkpt lat="42.5966870784759521484375" lon="19.9341410212218761444091796875">
        <ele>914.5999755859375</ele>
        <time>2026-06-16T12:21:39.000Z</time>
        <extensions>
          <ns3:TrackPointExtension>
            <ns3:atemp>24.0</ns3:atemp>
          </ns3:TrackPointExtension>
        </extensions>
      </trkpt>
      <trkpt lat="42.59668163023889064788818359375" lon="19.93411411531269550323486328125">
        <ele>914.5999755859375</ele>
        <time>2026-06-16T12:21:40.000Z</time>
        <extensions>
          <ns3:TrackPointExtension>
            <ns3:atemp>24.0</ns3:atemp>
          </ns3:TrackPointExtension>
        </extensions>
      </trkpt>
      <trkpt lat="42.59667567908763885498046875" lon="19.93410053662955760955810546875">
        <ele>914.5999755859375</ele>
        <time>2026-06-16T12:21:41.000Z</time>
        <extensions>
          <ns3:TrackPointExtension>
            <ns3:atemp>24.0</ns3:atemp>
          </ns3:TrackPointExtension>
        </extensions>
      </trkpt>
      <trkpt lat="42.59667542763054370880126953125" lon="19.93409081362187862396240234375">
        <ele>914.4000244140625</ele>
        <time>2026-06-16T12:21:42.000Z</time>
        <extensions>
          <ns3:TrackPointExtension>
            <ns3:atemp>24.0</ns3:atemp>
          </ns3:TrackPointExtension>
        </extensions>
      </trkpt>
      <trkpt lat="42.59667098522186279296875" lon="19.9340830184519290924072265625">
        <ele>914.4000244140625</ele>
        <time>2026-06-16T12:21:43.000Z</time>
        <extensions>
          <ns3:TrackPointExtension>
            <ns3:atemp>24.0</ns3:atemp>
          </ns3:TrackPointExtension>
        </extensions>
      </trkpt>
      <trkpt lat="42.59666821919381618499755859375" lon="19.93407673202455043792724609375">
        <ele>914.4000244140625</ele>
        <time>2026-06-16T12:21:44.000Z</time>
        <extensions>
          <ns3:TrackPointExtension>
            <ns3:atemp>24.0</ns3:atemp>
          </ns3:TrackPointExtension>
        </extensions>
      </trkpt>
      <trkpt lat="42.59666821919381618499755859375" lon="19.93407673202455043792724609375">
        <ele>914.4000244140625</ele>
        <time>2026-06-16T12:21:45.000Z</time>
        <extensions>
          <ns3:TrackPointExtension>
            <ns3:atemp>24.0</ns3:atemp>
          </ns3:TrackPointExtension>
        </extensions>
      </trkpt>
      <trkpt lat="42.5966678000986576080322265625" lon="19.9340796656906604766845703125">
        <ele>914.20001220703125</ele>
        <time>2026-06-16T12:21:46.000Z</time>
        <extensions>
          <ns3:TrackPointExtension>
            <ns3:atemp>24.0</ns3:atemp>
          </ns3:TrackPointExtension>
        </extensions>
      </trkpt>
      <trkpt lat="42.5966678000986576080322265625" lon="19.9340796656906604766845703125">
        <ele>914.20001220703125</ele>
        <time>2026-06-16T12:21:47.000Z</time>
        <extensions>
          <ns3:TrackPointExtension>
            <ns3:atemp>24.0</ns3:atemp>
          </ns3:TrackPointExtension>
        </extensions>
      </trkpt>
      <trkpt lat="42.5966654531657695770263671875" lon="19.9340652488172054290771484375">
        <ele>914.20001220703125</ele>
        <time>2026-06-16T12:21:48.000Z</time>
        <extensions>
          <ns3:TrackPointExtension>
            <ns3:atemp>24.0</ns3:atemp>
          </ns3:TrackPointExtension>
        </extensions>
      </trkpt>
      <trkpt lat="42.596662938594818115234375" lon="19.93404454551637172698974609375">
        <ele>914.20001220703125</ele>
        <time>2026-06-16T12:21:49.000Z</time>
        <extensions>
          <ns3:TrackPointExtension>
            <ns3:atemp>24.0</ns3:atemp>
          </ns3:TrackPointExtension>
        </extensions>
      </trkpt>
      <trkpt lat="42.59665681980550289154052734375" lon="19.93401235900819301605224609375">
        <ele>914</ele>
        <time>2026-06-16T12:21:50.000Z</time>
        <extensions>
          <ns3:TrackPointExtension>
            <ns3:atemp>24.0</ns3:atemp>
          </ns3:TrackPointExtension>
        </extensions>
      </trkpt>
      <trkpt lat="42.59664994664490222930908203125" lon="19.93397179059684276580810546875">
        <ele>913.79998779296875</ele>
        <time>2026-06-16T12:21:51.000Z</time>
        <extensions>
          <ns3:TrackPointExtension>
            <ns3:atemp>24.0</ns3:atemp>
          </ns3:TrackPointExtension>
        </extensions>
      </trkpt>
      <trkpt lat="42.596641816198825836181640625" lon="19.933933317661285400390625">
        <ele>913.79998779296875</ele>
        <time>2026-06-16T12:21:52.000Z</time>
        <extensions>
          <ns3:TrackPointExtension>
            <ns3:atemp>24.0</ns3:atemp>
          </ns3:TrackPointExtension>
        </extensions>
      </trkpt>
      <trkpt lat="42.5966302491724491119384765625" lon="19.9338944256305694580078125">
        <ele>913.5999755859375</ele>
        <time>2026-06-16T12:21:53.000Z</time>
        <extensions>
          <ns3:TrackPointExtension>
            <ns3:atemp>24.0</ns3:atemp>
          </ns3:TrackPointExtension>
        </extensions>
      </trkpt>
      <trkpt lat="42.59661910124123096466064453125" lon="19.933854527771472930908203125">
        <ele>913.5999755859375</ele>
        <time>2026-06-16T12:21:54.000Z</time>
        <extensions>
          <ns3:TrackPointExtension>
            <ns3:atemp>24.0</ns3:atemp>
          </ns3:TrackPointExtension>
        </extensions>
      </trkpt>
      <trkpt lat="42.59660569019615650177001953125" lon="19.93381521664559841156005859375">
        <ele>913.4000244140625</ele>
        <time>2026-06-16T12:21:55.000Z</time>
        <extensions>
          <ns3:TrackPointExtension>
            <ns3:atemp>24.0</ns3:atemp>
          </ns3:TrackPointExtension>
        </extensions>
      </trkpt>
      <trkpt lat="42.59660569019615650177001953125" lon="19.93381521664559841156005859375">
        <ele>913.4000244140625</ele>
        <time>2026-06-16T12:21:56.000Z</time>
        <extensions>
          <ns3:TrackPointExtension>
            <ns3:atemp>24.0</ns3:atemp>
          </ns3:TrackPointExtension>
        </extensions>
      </trkpt>
      <trkpt lat="42.59657920338213443756103515625" lon="19.93373944424092769622802734375">
        <ele>913.4000244140625</ele>
        <time>2026-06-16T12:21:57.000Z</time>
        <extensions>
          <ns3:TrackPointExtension>
            <ns3:atemp>24.0</ns3:atemp>
          </ns3:TrackPointExtension>
        </extensions>
      </trkpt>
      <trkpt lat="42.59657249785959720611572265625" lon="19.93370558135211467742919921875">
        <ele>913.4000244140625</ele>
        <time>2026-06-16T12:21:58.000Z</time>
        <extensions>
          <ns3:TrackPointExtension>
            <ns3:atemp>24.0</ns3:atemp>
          </ns3:TrackPointExtension>
        </extensions>
      </trkpt>
      <trkpt lat="42.59656311012804508209228515625" lon="19.93367892690002918243408203125">
        <ele>913.4000244140625</ele>
        <time>2026-06-16T12:21:59.000Z</time>
        <extensions>
          <ns3:TrackPointExtension>
            <ns3:atemp>24.0</ns3:atemp>
          </ns3:TrackPointExtension>
        </extensions>
      </trkpt>
      <trkpt lat="42.596560008823871612548828125" lon="19.93365914560854434967041015625">
        <ele>913.5999755859375</ele>
        <time>2026-06-16T12:22:00.000Z</time>
        <extensions>
          <ns3:TrackPointExtension>
            <ns3:atemp>24.0</ns3:atemp>
          </ns3:TrackPointExtension>
        </extensions>
      </trkpt>
      <trkpt lat="42.59655070491135120391845703125" lon="19.93364791385829448699951171875">
        <ele>913.5999755859375</ele>
        <time>2026-06-16T12:22:01.000Z</time>
        <extensions>
          <ns3:TrackPointExtension>
            <ns3:atemp>24.0</ns3:atemp>
          </ns3:TrackPointExtension>
        </extensions>
      </trkpt>
      <trkpt lat="42.59654902853071689605712890625" lon="19.93364254944026470184326171875">
        <ele>913.5999755859375</ele>
        <time>2026-06-16T12:22:02.000Z</time>
        <extensions>
          <ns3:TrackPointExtension>
            <ns3:atemp>24.0</ns3:atemp>
          </ns3:TrackPointExtension>
        </extensions>
      </trkpt>
      <trkpt lat="42.59654768742620944976806640625" lon="19.9336337484419345855712890625">
        <ele>913.79998779296875</ele>
        <time>2026-06-16T12:22:03.000Z</time>
        <extensions>
          <ns3:TrackPointExtension>
            <ns3:atemp>24.0</ns3:atemp>
          </ns3:TrackPointExtension>
        </extensions>
      </trkpt>
      <trkpt lat="42.5965430773794651031494140625" lon="19.93361421860754489898681640625">
        <ele>913.79998779296875</ele>
        <time>2026-06-16T12:22:04.000Z</time>
        <extensions>
          <ns3:TrackPointExtension>
            <ns3:atemp>24.0</ns3:atemp>
          </ns3:TrackPointExtension>
        </extensions>
      </trkpt>
      <trkpt lat="42.59654047898948192596435546875" lon="19.93358974345028400421142578125">
        <ele>913.79998779296875</ele>
        <time>2026-06-16T12:22:05.000Z</time>
        <extensions>
          <ns3:TrackPointExtension>
            <ns3:atemp>24.0</ns3:atemp>
          </ns3:TrackPointExtension>
        </extensions>
      </trkpt>
      <trkpt lat="42.596534527838230133056640625" lon="19.933560825884342193603515625">
        <ele>913.79998779296875</ele>
        <time>2026-06-16T12:22:06.000Z</time>
        <extensions>
          <ns3:TrackPointExtension>
            <ns3:atemp>24.0</ns3:atemp>
          </ns3:TrackPointExtension>
        </extensions>
      </trkpt>
      <trkpt lat="42.59652547538280487060546875" lon="19.93352889083325862884521484375">
        <ele>913.79998779296875</ele>
        <time>2026-06-16T12:22:07.000Z</time>
        <extensions>
          <ns3:TrackPointExtension>
            <ns3:atemp>24.0</ns3:atemp>
          </ns3:TrackPointExtension>
        </extensions>
      </trkpt>
      <trkpt lat="42.5965142436325550079345703125" lon="19.9335013143718242645263671875">
        <ele>913.5999755859375</ele>
        <time>2026-06-16T12:22:08.000Z</time>
        <extensions>
          <ns3:TrackPointExtension>
            <ns3:atemp>24.0</ns3:atemp>
          </ns3:TrackPointExtension>
        </extensions>
      </trkpt>
      <trkpt lat="42.59650426916778087615966796875" lon="19.93347239680588245391845703125">
        <ele>913.5999755859375</ele>
        <time>2026-06-16T12:22:09.000Z</time>
        <extensions>
          <ns3:TrackPointExtension>
            <ns3:atemp>24.0</ns3:atemp>
          </ns3:TrackPointExtension>
        </extensions>
      </trkpt>
      <trkpt lat="42.5964958034455776214599609375" lon="19.93344373069703578948974609375">
        <ele>913.5999755859375</ele>
        <time>2026-06-16T12:22:10.000Z</time>
        <extensions>
          <ns3:TrackPointExtension>
            <ns3:atemp>24.0</ns3:atemp>
          </ns3:TrackPointExtension>
        </extensions>
      </trkpt>
      <trkpt lat="42.59648792445659637451171875" lon="19.93340718559920787811279296875">
        <ele>913.4000244140625</ele>
        <time>2026-06-16T12:22:11.000Z</time>
        <extensions>
          <ns3:TrackPointExtension>
            <ns3:atemp>24.0</ns3:atemp>
          </ns3:TrackPointExtension>
        </extensions>
      </trkpt>
      <trkpt lat="42.59648792445659637451171875" lon="19.93340718559920787811279296875">
        <ele>913.4000244140625</ele>
        <time>2026-06-16T12:22:12.000Z</time>
        <extensions>
          <ns3:TrackPointExtension>
            <ns3:atemp>24.0</ns3:atemp>
          </ns3:TrackPointExtension>
        </extensions>
      </trkpt>
      <trkpt lat="42.5964787043631076812744140625" lon="19.9333727359771728515625">
        <ele>913.4000244140625</ele>
        <time>2026-06-16T12:22:13.000Z</time>
        <extensions>
          <ns3:TrackPointExtension>
            <ns3:atemp>24.0</ns3:atemp>
          </ns3:TrackPointExtension>
        </extensions>
      </trkpt>
      <trkpt lat="42.596459090709686279296875" lon="19.9333088658750057220458984375">
        <ele>913.4000244140625</ele>
        <time>2026-06-16T12:22:14.000Z</time>
        <extensions>
          <ns3:TrackPointExtension>
            <ns3:atemp>24.0</ns3:atemp>
          </ns3:TrackPointExtension>
        </extensions>
      </trkpt>
      <trkpt lat="42.5964497029781341552734375" lon="19.933273494243621826171875">
        <ele>913.4000244140625</ele>
        <time>2026-06-16T12:22:15.000Z</time>
        <extensions>
          <ns3:TrackPointExtension>
            <ns3:atemp>24.0</ns3:atemp>
          </ns3:TrackPointExtension>
        </extensions>
      </trkpt>
      <trkpt lat="42.59644031524658203125" lon="19.93324206210672855377197265625">
        <ele>913.4000244140625</ele>
        <time>2026-06-16T12:22:16.000Z</time>
        <extensions>
          <ns3:TrackPointExtension>
            <ns3:atemp>24.0</ns3:atemp>
          </ns3:TrackPointExtension>
        </extensions>
      </trkpt>
      <trkpt lat="42.59643159806728363037109375" lon="19.93320886977016925811767578125">
        <ele>913.4000244140625</ele>
        <time>2026-06-16T12:22:17.000Z</time>
        <extensions>
          <ns3:TrackPointExtension>
            <ns3:atemp>24.0</ns3:atemp>
          </ns3:TrackPointExtension>
        </extensions>
      </trkpt>
      <trkpt lat="42.59643159806728363037109375" lon="19.93320886977016925811767578125">
        <ele>913.4000244140625</ele>
        <time>2026-06-16T12:22:18.000Z</time>
        <extensions>
          <ns3:TrackPointExtension>
            <ns3:atemp>24.0</ns3:atemp>
          </ns3:TrackPointExtension>
        </extensions>
      </trkpt>
      <trkpt lat="42.59641148149967193603515625" lon="19.93314147926867008209228515625">
        <ele>913.4000244140625</ele>
        <time>2026-06-16T12:22:19.000Z</time>
        <extensions>
          <ns3:TrackPointExtension>
            <ns3:atemp>24.0</ns3:atemp>
          </ns3:TrackPointExtension>
        </extensions>
      </trkpt>
      <trkpt lat="42.59640066884458065032958984375" lon="19.9331058561801910400390625">
        <ele>913.4000244140625</ele>
        <time>2026-06-16T12:22:20.000Z</time>
        <extensions>
          <ns3:TrackPointExtension>
            <ns3:atemp>24.0</ns3:atemp>
          </ns3:TrackPointExtension>
        </extensions>
      </trkpt>
      <trkpt lat="42.5963915325701236724853515625" lon="19.93307056836783885955810546875">
        <ele>913.4000244140625</ele>
        <time>2026-06-16T12:22:21.000Z</time>
        <extensions>
          <ns3:TrackPointExtension>
            <ns3:atemp>24.0</ns3:atemp>
          </ns3:TrackPointExtension>
        </extensions>
      </trkpt>
      <trkpt lat="42.5963838212192058563232421875" lon="19.9330356158316135406494140625">
        <ele>913.5999755859375</ele>
        <time>2026-06-16T12:22:22.000Z</time>
        <extensions>
          <ns3:TrackPointExtension>
            <ns3:atemp>24.0</ns3:atemp>
          </ns3:TrackPointExtension>
        </extensions>
      </trkpt>
      <trkpt lat="42.5963761098682880401611328125" lon="19.93300451897084712982177734375">
        <ele>913.5999755859375</ele>
        <time>2026-06-16T12:22:23.000Z</time>
        <extensions>
          <ns3:TrackPointExtension>
            <ns3:atemp>24.0</ns3:atemp>
          </ns3:TrackPointExtension>
        </extensions>
      </trkpt>
      <trkpt lat="42.5963660515844821929931640625" lon="19.93297585286200046539306640625">
        <ele>913.5999755859375</ele>
        <time>2026-06-16T12:22:24.000Z</time>
        <extensions>
          <ns3:TrackPointExtension>
            <ns3:atemp>24.0</ns3:atemp>
          </ns3:TrackPointExtension>
        </extensions>
      </trkpt>
      <trkpt lat="42.5963566638529300689697265625" lon="19.93294953368604183197021484375">
        <ele>913.5999755859375</ele>
        <time>2026-06-16T12:22:25.000Z</time>
        <extensions>
          <ns3:TrackPointExtension>
            <ns3:atemp>24.0</ns3:atemp>
          </ns3:TrackPointExtension>
        </extensions>
      </trkpt>
      <trkpt lat="42.59634844958782196044921875" lon="19.93292145431041717529296875">
        <ele>913.79998779296875</ele>
        <time>2026-06-16T12:22:26.000Z</time>
        <extensions>
          <ns3:TrackPointExtension>
            <ns3:atemp>24.0</ns3:atemp>
          </ns3:TrackPointExtension>
        </extensions>
      </trkpt>
      <trkpt lat="42.59634174406528472900390625" lon="19.9328954704105854034423828125">
        <ele>913.79998779296875</ele>
        <time>2026-06-16T12:22:27.000Z</time>
        <extensions>
          <ns3:TrackPointExtension>
            <ns3:atemp>24.0</ns3:atemp>
          </ns3:TrackPointExtension>
        </extensions>
      </trkpt>
      <trkpt lat="42.59634174406528472900390625" lon="19.9328954704105854034423828125">
        <ele>913.5999755859375</ele>
        <time>2026-06-16T12:22:28.000Z</time>
        <extensions>
          <ns3:TrackPointExtension>
            <ns3:atemp>24.0</ns3:atemp>
          </ns3:TrackPointExtension>
        </extensions>
      </trkpt>
      <trkpt lat="42.5963258184492588043212890625" lon="19.932838976383209228515625">
        <ele>913.5999755859375</ele>
        <time>2026-06-16T12:22:29.000Z</time>
        <extensions>
          <ns3:TrackPointExtension>
            <ns3:atemp>24.0</ns3:atemp>
          </ns3:TrackPointExtension>
        </extensions>
      </trkpt>
      <trkpt lat="42.5963144190609455108642578125" lon="19.93280905298888683319091796875">
        <ele>913.5999755859375</ele>
        <time>2026-06-16T12:22:30.000Z</time>
        <extensions>
          <ns3:TrackPointExtension>
            <ns3:atemp>24.0</ns3:atemp>
          </ns3:TrackPointExtension>
        </extensions>
      </trkpt>
      <trkpt lat="42.5963033549487590789794921875" lon="19.9327759444713592529296875">
        <ele>913.5999755859375</ele>
        <time>2026-06-16T12:22:31.000Z</time>
        <extensions>
          <ns3:TrackPointExtension>
            <ns3:atemp>24.0</ns3:atemp>
          </ns3:TrackPointExtension>
        </extensions>
      </trkpt>
      <trkpt lat="42.59629287756979465484619140625" lon="19.93274266831576824188232421875">
        <ele>913.5999755859375</ele>
        <time>2026-06-16T12:22:32.000Z</time>
        <extensions>
          <ns3:TrackPointExtension>
            <ns3:atemp>24.0</ns3:atemp>
          </ns3:TrackPointExtension>
        </extensions>
      </trkpt>
      <trkpt lat="42.596285082399845123291015625" lon="19.93270930834114551544189453125">
        <ele>913.5999755859375</ele>
        <time>2026-06-16T12:22:33.000Z</time>
        <extensions>
          <ns3:TrackPointExtension>
            <ns3:atemp>24.0</ns3:atemp>
          </ns3:TrackPointExtension>
        </extensions>
      </trkpt>
      <trkpt lat="42.5962753593921661376953125" lon="19.93267561309039592742919921875">
        <ele>913.4000244140625</ele>
        <time>2026-06-16T12:22:34.000Z</time>
        <extensions>
          <ns3:TrackPointExtension>
            <ns3:atemp>24.0</ns3:atemp>
          </ns3:TrackPointExtension>
        </extensions>
      </trkpt>
      <trkpt lat="42.5962674804031848907470703125" lon="19.93264158256351947784423828125">
        <ele>913.5999755859375</ele>
        <time>2026-06-16T12:22:35.000Z</time>
        <extensions>
          <ns3:TrackPointExtension>
            <ns3:atemp>24.0</ns3:atemp>
          </ns3:TrackPointExtension>
        </extensions>
      </trkpt>
      <trkpt lat="42.59625901468098163604736328125" lon="19.9326069653034210205078125">
        <ele>913.5999755859375</ele>
        <time>2026-06-16T12:22:36.000Z</time>
        <extensions>
          <ns3:TrackPointExtension>
            <ns3:atemp>24.0</ns3:atemp>
          </ns3:TrackPointExtension>
        </extensions>
      </trkpt>
      <trkpt lat="42.59624845348298549652099609375" lon="19.93257435970008373260498046875">
        <ele>913.5999755859375</ele>
        <time>2026-06-16T12:22:37.000Z</time>
        <extensions>
          <ns3:TrackPointExtension>
            <ns3:atemp>24.0</ns3:atemp>
          </ns3:TrackPointExtension>
        </extensions>
      </trkpt>
      <trkpt lat="42.59623839519917964935302734375" lon="19.9325407482683658599853515625">
        <ele>913.5999755859375</ele>
        <time>2026-06-16T12:22:38.000Z</time>
        <extensions>
          <ns3:TrackPointExtension>
            <ns3:atemp>24.0</ns3:atemp>
          </ns3:TrackPointExtension>
        </extensions>
      </trkpt>
      <trkpt lat="42.5962282530963420867919921875" lon="19.93250562809407711029052734375">
        <ele>913.79998779296875</ele>
        <time>2026-06-16T12:22:39.000Z</time>
        <extensions>
          <ns3:TrackPointExtension>
            <ns3:atemp>24.0</ns3:atemp>
          </ns3:TrackPointExtension>
        </extensions>
      </trkpt>
      <trkpt lat="42.5962195359170436859130859375" lon="19.93247042410075664520263671875">
        <ele>913.79998779296875</ele>
        <time>2026-06-16T12:22:40.000Z</time>
        <extensions>
          <ns3:TrackPointExtension>
            <ns3:atemp>24.0</ns3:atemp>
          </ns3:TrackPointExtension>
        </extensions>
      </trkpt>
      <trkpt lat="42.59621073491871356964111328125" lon="19.9324405007064342498779296875">
        <ele>913.79998779296875</ele>
        <time>2026-06-16T12:22:41.000Z</time>
        <extensions>
          <ns3:TrackPointExtension>
            <ns3:atemp>24.0</ns3:atemp>
          </ns3:TrackPointExtension>
        </extensions>
      </trkpt>
      <trkpt lat="42.59620386175811290740966796875" lon="19.93241426534950733184814453125">
        <ele>914</ele>
        <time>2026-06-16T12:22:42.000Z</time>
        <extensions>
          <ns3:TrackPointExtension>
            <ns3:atemp>24.0</ns3:atemp>
          </ns3:TrackPointExtension>
        </extensions>
      </trkpt>
      <trkpt lat="42.59619397111237049102783203125" lon="19.93239498697221279144287109375">
        <ele>914</ele>
        <time>2026-06-16T12:22:43.000Z</time>
        <extensions>
          <ns3:TrackPointExtension>
            <ns3:atemp>24.0</ns3:atemp>
          </ns3:TrackPointExtension>
        </extensions>
      </trkpt>
      <trkpt lat="42.59619397111237049102783203125" lon="19.93239498697221279144287109375">
        <ele>914</ele>
        <time>2026-06-16T12:22:44.000Z</time>
        <extensions>
          <ns3:TrackPointExtension>
            <ns3:atemp>24.0</ns3:atemp>
          </ns3:TrackPointExtension>
        </extensions>
      </trkpt>
      <trkpt lat="42.59618927724659442901611328125" lon="19.93237788788974285125732421875">
        <ele>914.20001220703125</ele>
        <time>2026-06-16T12:22:45.000Z</time>
        <extensions>
          <ns3:TrackPointExtension>
            <ns3:atemp>24.0</ns3:atemp>
          </ns3:TrackPointExtension>
        </extensions>
      </trkpt>
      <trkpt lat="42.596189193427562713623046875" lon="19.93237772025167942047119140625">
        <ele>914.20001220703125</ele>
        <time>2026-06-16T12:22:46.000Z</time>
        <extensions>
          <ns3:TrackPointExtension>
            <ns3:atemp>24.0</ns3:atemp>
          </ns3:TrackPointExtension>
        </extensions>
      </trkpt>
      <trkpt lat="42.59618910960853099822998046875" lon="19.93237755261361598968505859375">
        <ele>914.4000244140625</ele>
        <time>2026-06-16T12:22:47.000Z</time>
        <extensions>
          <ns3:TrackPointExtension>
            <ns3:atemp>24.0</ns3:atemp>
          </ns3:TrackPointExtension>
        </extensions>
      </trkpt>
      <trkpt lat="42.596189193427562713623046875" lon="19.93237772025167942047119140625">
        <ele>914.4000244140625</ele>
        <time>2026-06-16T12:22:48.000Z</time>
        <extensions>
          <ns3:TrackPointExtension>
            <ns3:atemp>24.0</ns3:atemp>
          </ns3:TrackPointExtension>
        </extensions>
      </trkpt>
      <trkpt lat="42.596189193427562713623046875" lon="19.93237772025167942047119140625">
        <ele>914.4000244140625</ele>
        <time>2026-06-16T12:22:49.000Z</time>
        <extensions>
          <ns3:TrackPointExtension>
            <ns3:atemp>24.0</ns3:atemp>
          </ns3:TrackPointExtension>
        </extensions>
      </trkpt>
      <trkpt lat="42.596189193427562713623046875" lon="19.93237772025167942047119140625">
        <ele>914.4000244140625</ele>
        <time>2026-06-16T12:22:50.000Z</time>
        <extensions>
          <ns3:TrackPointExtension>
            <ns3:atemp>24.0</ns3:atemp>
          </ns3:TrackPointExtension>
        </extensions>
      </trkpt>
      <trkpt lat="42.596189193427562713623046875" lon="19.93237772025167942047119140625">
        <ele>914.4000244140625</ele>
        <time>2026-06-16T12:22:51.000Z</time>
        <extensions>
          <ns3:TrackPointExtension>
            <ns3:atemp>24.0</ns3:atemp>
          </ns3:TrackPointExtension>
        </extensions>
      </trkpt>
      <trkpt lat="42.596189193427562713623046875" lon="19.93237772025167942047119140625">
        <ele>914.4000244140625</ele>
        <time>2026-06-16T12:22:52.000Z</time>
        <extensions>
          <ns3:TrackPointExtension>
            <ns3:atemp>24.0</ns3:atemp>
          </ns3:TrackPointExtension>
        </extensions>
      </trkpt>
      <trkpt lat="42.596189193427562713623046875" lon="19.93237772025167942047119140625">
        <ele>914.4000244140625</ele>
        <time>2026-06-16T12:22:53.000Z</time>
        <extensions>
          <ns3:TrackPointExtension>
            <ns3:atemp>24.0</ns3:atemp>
          </ns3:TrackPointExtension>
        </extensions>
      </trkpt>
      <trkpt lat="42.596189193427562713623046875" lon="19.93237772025167942047119140625">
        <ele>914.4000244140625</ele>
        <time>2026-06-16T12:22:54.000Z</time>
        <extensions>
          <ns3:TrackPointExtension>
            <ns3:atemp>24.0</ns3:atemp>
          </ns3:TrackPointExtension>
        </extensions>
      </trkpt>
      <trkpt lat="42.5961762852966785430908203125" lon="19.93236732669174671173095703125">
        <ele>914.4000244140625</ele>
        <time>2026-06-16T12:22:55.000Z</time>
        <extensions>
          <ns3:TrackPointExtension>
            <ns3:atemp>24.0</ns3:atemp>
          </ns3:TrackPointExtension>
        </extensions>
      </trkpt>
      <trkpt lat="42.596173770725727081298828125" lon="19.93237051181495189666748046875">
        <ele>914.4000244140625</ele>
        <time>2026-06-16T12:22:56.000Z</time>
        <extensions>
          <ns3:TrackPointExtension>
            <ns3:atemp>24.0</ns3:atemp>
          </ns3:TrackPointExtension>
        </extensions>
      </trkpt>
      <trkpt lat="42.596173770725727081298828125" lon="19.93237051181495189666748046875">
        <ele>914.4000244140625</ele>
        <time>2026-06-16T12:22:57.000Z</time>
        <extensions>
          <ns3:TrackPointExtension>
            <ns3:atemp>24.0</ns3:atemp>
          </ns3:TrackPointExtension>
        </extensions>
      </trkpt>
      <trkpt lat="42.596173770725727081298828125" lon="19.93237051181495189666748046875">
        <ele>914.4000244140625</ele>
        <time>2026-06-16T12:22:58.000Z</time>
        <extensions>
          <ns3:TrackPointExtension>
            <ns3:atemp>24.0</ns3:atemp>
          </ns3:TrackPointExtension>
        </extensions>
      </trkpt>
      <trkpt lat="42.596173770725727081298828125" lon="19.93237051181495189666748046875">
        <ele>914.4000244140625</ele>
        <time>2026-06-16T12:22:59.000Z</time>
        <extensions>
          <ns3:TrackPointExtension>
            <ns3:atemp>24.0</ns3:atemp>
          </ns3:TrackPointExtension>
        </extensions>
      </trkpt>
      <trkpt lat="42.596173770725727081298828125" lon="19.93237051181495189666748046875">
        <ele>914.4000244140625</ele>
        <time>2026-06-16T12:23:00.000Z</time>
        <extensions>
          <ns3:TrackPointExtension>
            <ns3:atemp>24.0</ns3:atemp>
          </ns3:TrackPointExtension>
        </extensions>
      </trkpt>
      <trkpt lat="42.596173770725727081298828125" lon="19.93237051181495189666748046875">
        <ele>914.4000244140625</ele>
        <time>2026-06-16T12:23:01.000Z</time>
        <extensions>
          <ns3:TrackPointExtension>
            <ns3:atemp>24.0</ns3:atemp>
          </ns3:TrackPointExtension>
        </extensions>
      </trkpt>
      <trkpt lat="42.596173770725727081298828125" lon="19.93237051181495189666748046875">
        <ele>914.4000244140625</ele>
        <time>2026-06-16T12:23:02.000Z</time>
        <extensions>
          <ns3:TrackPointExtension>
            <ns3:atemp>24.0</ns3:atemp>
          </ns3:TrackPointExtension>
        </extensions>
      </trkpt>
      <trkpt lat="42.596173770725727081298828125" lon="19.93237051181495189666748046875">
        <ele>914.4000244140625</ele>
        <time>2026-06-16T12:23:03.000Z</time>
        <extensions>
          <ns3:TrackPointExtension>
            <ns3:atemp>24.0</ns3:atemp>
          </ns3:TrackPointExtension>
        </extensions>
      </trkpt>
      <trkpt lat="42.596173770725727081298828125" lon="19.93237051181495189666748046875">
        <ele>914.4000244140625</ele>
        <time>2026-06-16T12:23:04.000Z</time>
        <extensions>
          <ns3:TrackPointExtension>
            <ns3:atemp>24.0</ns3:atemp>
          </ns3:TrackPointExtension>
        </extensions>
      </trkpt>
      <trkpt lat="42.596173770725727081298828125" lon="19.93237051181495189666748046875">
        <ele>914.4000244140625</ele>
        <time>2026-06-16T12:23:05.000Z</time>
        <extensions>
          <ns3:TrackPointExtension>
            <ns3:atemp>24.0</ns3:atemp>
          </ns3:TrackPointExtension>
        </extensions>
      </trkpt>
      <trkpt lat="42.596173770725727081298828125" lon="19.93237051181495189666748046875">
        <ele>914.4000244140625</ele>
        <time>2026-06-16T12:23:06.000Z</time>
        <extensions>
          <ns3:TrackPointExtension>
            <ns3:atemp>24.0</ns3:atemp>
          </ns3:TrackPointExtension>
        </extensions>
      </trkpt>
      <trkpt lat="42.596173770725727081298828125" lon="19.93237051181495189666748046875">
        <ele>914.4000244140625</ele>
        <time>2026-06-16T12:23:07.000Z</time>
        <extensions>
          <ns3:TrackPointExtension>
            <ns3:atemp>24.0</ns3:atemp>
          </ns3:TrackPointExtension>
        </extensions>
      </trkpt>
      <trkpt lat="42.596173770725727081298828125" lon="19.93237051181495189666748046875">
        <ele>914.4000244140625</ele>
        <time>2026-06-16T12:23:08.000Z</time>
        <extensions>
          <ns3:TrackPointExtension>
            <ns3:atemp>24.0</ns3:atemp>
          </ns3:TrackPointExtension>
        </extensions>
      </trkpt>
      <trkpt lat="42.596173770725727081298828125" lon="19.93237051181495189666748046875">
        <ele>914.4000244140625</ele>
        <time>2026-06-16T12:23:09.000Z</time>
        <extensions>
          <ns3:TrackPointExtension>
            <ns3:atemp>24.0</ns3:atemp>
          </ns3:TrackPointExtension>
        </extensions>
      </trkpt>
      <trkpt lat="42.596173770725727081298828125" lon="19.93237051181495189666748046875">
        <ele>914.4000244140625</ele>
        <time>2026-06-16T12:23:10.000Z</time>
        <extensions>
          <ns3:TrackPointExtension>
            <ns3:atemp>24.0</ns3:atemp>
          </ns3:TrackPointExtension>
        </extensions>
      </trkpt>
      <trkpt lat="42.596173770725727081298828125" lon="19.93237051181495189666748046875">
        <ele>914.4000244140625</ele>
        <time>2026-06-16T12:23:11.000Z</time>
        <extensions>
          <ns3:TrackPointExtension>
            <ns3:atemp>24.0</ns3:atemp>
          </ns3:TrackPointExtension>
        </extensions>
      </trkpt>
      <trkpt lat="42.596173770725727081298828125" lon="19.93237051181495189666748046875">
        <ele>914.4000244140625</ele>
        <time>2026-06-16T12:23:12.000Z</time>
        <extensions>
          <ns3:TrackPointExtension>
            <ns3:atemp>24.0</ns3:atemp>
          </ns3:TrackPointExtension>
        </extensions>
      </trkpt>
      <trkpt lat="42.596173770725727081298828125" lon="19.93237051181495189666748046875">
        <ele>914.4000244140625</ele>
        <time>2026-06-16T12:23:13.000Z</time>
        <extensions>
          <ns3:TrackPointExtension>
            <ns3:atemp>24.0</ns3:atemp>
          </ns3:TrackPointExtension>
        </extensions>
      </trkpt>
      <trkpt lat="42.596173770725727081298828125" lon="19.93237051181495189666748046875">
        <ele>914.4000244140625</ele>
        <time>2026-06-16T12:23:14.000Z</time>
        <extensions>
          <ns3:TrackPointExtension>
            <ns3:atemp>24.0</ns3:atemp>
          </ns3:TrackPointExtension>
        </extensions>
      </trkpt>
      <trkpt lat="42.596173770725727081298828125" lon="19.93237051181495189666748046875">
        <ele>914.4000244140625</ele>
        <time>2026-06-16T12:23:15.000Z</time>
        <extensions>
          <ns3:TrackPointExtension>
            <ns3:atemp>24.0</ns3:atemp>
          </ns3:TrackPointExtension>
        </extensions>
      </trkpt>
      <trkpt lat="42.596173770725727081298828125" lon="19.93237051181495189666748046875">
        <ele>914.4000244140625</ele>
        <time>2026-06-16T12:23:16.000Z</time>
        <extensions>
          <ns3:TrackPointExtension>
            <ns3:atemp>24.0</ns3:atemp>
          </ns3:TrackPointExtension>
        </extensions>
      </trkpt>
      <trkpt lat="42.596173770725727081298828125" lon="19.93237051181495189666748046875">
        <ele>914.4000244140625</ele>
        <time>2026-06-16T12:23:17.000Z</time>
        <extensions>
          <ns3:TrackPointExtension>
            <ns3:atemp>24.0</ns3:atemp>
          </ns3:TrackPointExtension>
        </extensions>
      </trkpt>
      <trkpt lat="42.596173770725727081298828125" lon="19.93237051181495189666748046875">
        <ele>914.4000244140625</ele>
        <time>2026-06-16T12:23:18.000Z</time>
        <extensions>
          <ns3:TrackPointExtension>
            <ns3:atemp>24.0</ns3:atemp>
          </ns3:TrackPointExtension>
        </extensions>
      </trkpt>
      <trkpt lat="42.596173770725727081298828125" lon="19.93237051181495189666748046875">
        <ele>914.4000244140625</ele>
        <time>2026-06-16T12:23:19.000Z</time>
        <extensions>
          <ns3:TrackPointExtension>
            <ns3:atemp>24.0</ns3:atemp>
          </ns3:TrackPointExtension>
        </extensions>
      </trkpt>
      <trkpt lat="42.596173770725727081298828125" lon="19.93237051181495189666748046875">
        <ele>914.4000244140625</ele>
        <time>2026-06-16T12:23:20.000Z</time>
        <extensions>
          <ns3:TrackPointExtension>
            <ns3:atemp>24.0</ns3:atemp>
          </ns3:TrackPointExtension>
        </extensions>
      </trkpt>
      <trkpt lat="42.596173770725727081298828125" lon="19.93237051181495189666748046875">
        <ele>914.4000244140625</ele>
        <time>2026-06-16T12:23:21.000Z</time>
        <extensions>
          <ns3:TrackPointExtension>
            <ns3:atemp>24.0</ns3:atemp>
          </ns3:TrackPointExtension>
        </extensions>
      </trkpt>
      <trkpt lat="42.596173770725727081298828125" lon="19.93237051181495189666748046875">
        <ele>914.4000244140625</ele>
        <time>2026-06-16T12:23:22.000Z</time>
        <extensions>
          <ns3:TrackPointExtension>
            <ns3:atemp>24.0</ns3:atemp>
          </ns3:TrackPointExtension>
        </extensions>
      </trkpt>
      <trkpt lat="42.596173770725727081298828125" lon="19.93237051181495189666748046875">
        <ele>914.4000244140625</ele>
        <time>2026-06-16T12:23:23.000Z</time>
        <extensions>
          <ns3:TrackPointExtension>
            <ns3:atemp>24.0</ns3:atemp>
          </ns3:TrackPointExtension>
        </extensions>
      </trkpt>
      <trkpt lat="42.596173770725727081298828125" lon="19.93237051181495189666748046875">
        <ele>914.4000244140625</ele>
        <time>2026-06-16T12:23:24.000Z</time>
        <extensions>
          <ns3:TrackPointExtension>
            <ns3:atemp>24.0</ns3:atemp>
          </ns3:TrackPointExtension>
        </extensions>
      </trkpt>
      <trkpt lat="42.596173770725727081298828125" lon="19.93237051181495189666748046875">
        <ele>914.4000244140625</ele>
        <time>2026-06-16T12:23:25.000Z</time>
        <extensions>
          <ns3:TrackPointExtension>
            <ns3:atemp>25.0</ns3:atemp>
          </ns3:TrackPointExtension>
        </extensions>
      </trkpt>
      <trkpt lat="42.596173770725727081298828125" lon="19.93237051181495189666748046875">
        <ele>914.4000244140625</ele>
        <time>2026-06-16T12:23:26.000Z</time>
        <extensions>
          <ns3:TrackPointExtension>
            <ns3:atemp>24.0</ns3:atemp>
          </ns3:TrackPointExtension>
        </extensions>
      </trkpt>
      <trkpt lat="42.596173770725727081298828125" lon="19.93237051181495189666748046875">
        <ele>914.4000244140625</ele>
        <time>2026-06-16T12:23:27.000Z</time>
        <extensions>
          <ns3:TrackPointExtension>
            <ns3:atemp>24.0</ns3:atemp>
          </ns3:TrackPointExtension>
        </extensions>
      </trkpt>
      <trkpt lat="42.596173770725727081298828125" lon="19.93237051181495189666748046875">
        <ele>914.4000244140625</ele>
        <time>2026-06-16T12:23:28.000Z</time>
        <extensions>
          <ns3:TrackPointExtension>
            <ns3:atemp>24.0</ns3:atemp>
          </ns3:TrackPointExtension>
        </extensions>
      </trkpt>
      <trkpt lat="42.596173770725727081298828125" lon="19.93237051181495189666748046875">
        <ele>914.4000244140625</ele>
        <time>2026-06-16T12:23:29.000Z</time>
        <extensions>
          <ns3:TrackPointExtension>
            <ns3:atemp>24.0</ns3:atemp>
          </ns3:TrackPointExtension>
        </extensions>
      </trkpt>
      <trkpt lat="42.596173770725727081298828125" lon="19.93237051181495189666748046875">
        <ele>914.4000244140625</ele>
        <time>2026-06-16T12:23:30.000Z</time>
        <extensions>
          <ns3:TrackPointExtension>
            <ns3:atemp>24.0</ns3:atemp>
          </ns3:TrackPointExtension>
        </extensions>
      </trkpt>
      <trkpt lat="42.596173770725727081298828125" lon="19.93237051181495189666748046875">
        <ele>914.4000244140625</ele>
        <time>2026-06-16T12:23:31.000Z</time>
        <extensions>
          <ns3:TrackPointExtension>
            <ns3:atemp>24.0</ns3:atemp>
          </ns3:TrackPointExtension>
        </extensions>
      </trkpt>
      <trkpt lat="42.596173770725727081298828125" lon="19.93237051181495189666748046875">
        <ele>914.4000244140625</ele>
        <time>2026-06-16T12:23:32.000Z</time>
        <extensions>
          <ns3:TrackPointExtension>
            <ns3:atemp>24.0</ns3:atemp>
          </ns3:TrackPointExtension>
        </extensions>
      </trkpt>
      <trkpt lat="42.596173770725727081298828125" lon="19.93237051181495189666748046875">
        <ele>914.4000244140625</ele>
        <time>2026-06-16T12:23:33.000Z</time>
        <extensions>
          <ns3:TrackPointExtension>
            <ns3:atemp>24.0</ns3:atemp>
          </ns3:TrackPointExtension>
        </extensions>
      </trkpt>
      <trkpt lat="42.596173770725727081298828125" lon="19.93237051181495189666748046875">
        <ele>914.4000244140625</ele>
        <time>2026-06-16T12:23:34.000Z</time>
        <extensions>
          <ns3:TrackPointExtension>
            <ns3:atemp>24.0</ns3:atemp>
          </ns3:TrackPointExtension>
        </extensions>
      </trkpt>
      <trkpt lat="42.596173770725727081298828125" lon="19.93237051181495189666748046875">
        <ele>914.4000244140625</ele>
        <time>2026-06-16T12:23:35.000Z</time>
        <extensions>
          <ns3:TrackPointExtension>
            <ns3:atemp>24.0</ns3:atemp>
          </ns3:TrackPointExtension>
        </extensions>
      </trkpt>
      <trkpt lat="42.596173770725727081298828125" lon="19.93237051181495189666748046875">
        <ele>914.4000244140625</ele>
        <time>2026-06-16T12:23:36.000Z</time>
        <extensions>
          <ns3:TrackPointExtension>
            <ns3:atemp>24.0</ns3:atemp>
          </ns3:TrackPointExtension>
        </extensions>
      </trkpt>
      <trkpt lat="42.596173770725727081298828125" lon="19.93237051181495189666748046875">
        <ele>914.4000244140625</ele>
        <time>2026-06-16T12:23:37.000Z</time>
        <extensions>
          <ns3:TrackPointExtension>
            <ns3:atemp>25.0</ns3:atemp>
          </ns3:TrackPointExtension>
        </extensions>
      </trkpt>
      <trkpt lat="42.596173770725727081298828125" lon="19.93237051181495189666748046875">
        <ele>914.4000244140625</ele>
        <time>2026-06-16T12:23:38.000Z</time>
        <extensions>
          <ns3:TrackPointExtension>
            <ns3:atemp>24.0</ns3:atemp>
          </ns3:TrackPointExtension>
        </extensions>
      </trkpt>
      <trkpt lat="42.596173770725727081298828125" lon="19.93237051181495189666748046875">
        <ele>914.4000244140625</ele>
        <time>2026-06-16T12:23:39.000Z</time>
        <extensions>
          <ns3:TrackPointExtension>
            <ns3:atemp>25.0</ns3:atemp>
          </ns3:TrackPointExtension>
        </extensions>
      </trkpt>
      <trkpt lat="42.596173770725727081298828125" lon="19.93237051181495189666748046875">
        <ele>914.4000244140625</ele>
        <time>2026-06-16T12:23:40.000Z</time>
        <extensions>
          <ns3:TrackPointExtension>
            <ns3:atemp>25.0</ns3:atemp>
          </ns3:TrackPointExtension>
        </extensions>
      </trkpt>
      <trkpt lat="42.596173770725727081298828125" lon="19.93237051181495189666748046875">
        <ele>914.4000244140625</ele>
        <time>2026-06-16T12:23:41.000Z</time>
        <extensions>
          <ns3:TrackPointExtension>
            <ns3:atemp>25.0</ns3:atemp>
          </ns3:TrackPointExtension>
        </extensions>
      </trkpt>
      <trkpt lat="42.596173770725727081298828125" lon="19.93237051181495189666748046875">
        <ele>914.4000244140625</ele>
        <time>2026-06-16T12:23:42.000Z</time>
        <extensions>
          <ns3:TrackPointExtension>
            <ns3:atemp>24.0</ns3:atemp>
          </ns3:TrackPointExtension>
        </extensions>
      </trkpt>
      <trkpt lat="42.596173770725727081298828125" lon="19.93237051181495189666748046875">
        <ele>914.4000244140625</ele>
        <time>2026-06-16T12:23:43.000Z</time>
        <extensions>
          <ns3:TrackPointExtension>
            <ns3:atemp>25.0</ns3:atemp>
          </ns3:TrackPointExtension>
        </extensions>
      </trkpt>
      <trkpt lat="42.596173770725727081298828125" lon="19.93237051181495189666748046875">
        <ele>914.4000244140625</ele>
        <time>2026-06-16T12:23:44.000Z</time>
        <extensions>
          <ns3:TrackPointExtension>
            <ns3:atemp>25.0</ns3:atemp>
          </ns3:TrackPointExtension>
        </extensions>
      </trkpt>
      <trkpt lat="42.596173770725727081298828125" lon="19.93237051181495189666748046875">
        <ele>914.4000244140625</ele>
        <time>2026-06-16T12:23:45.000Z</time>
        <extensions>
          <ns3:TrackPointExtension>
            <ns3:atemp>24.0</ns3:atemp>
          </ns3:TrackPointExtension>
        </extensions>
      </trkpt>
      <trkpt lat="42.596173770725727081298828125" lon="19.93237051181495189666748046875">
        <ele>914.4000244140625</ele>
        <time>2026-06-16T12:23:46.000Z</time>
        <extensions>
          <ns3:TrackPointExtension>
            <ns3:atemp>24.0</ns3:atemp>
          </ns3:TrackPointExtension>
        </extensions>
      </trkpt>
      <trkpt lat="42.596173770725727081298828125" lon="19.93237051181495189666748046875">
        <ele>914.4000244140625</ele>
        <time>2026-06-16T12:23:47.000Z</time>
        <extensions>
          <ns3:TrackPointExtension>
            <ns3:atemp>24.0</ns3:atemp>
          </ns3:TrackPointExtension>
        </extensions>
      </trkpt>
      <trkpt lat="42.596173770725727081298828125" lon="19.93237051181495189666748046875">
        <ele>914.4000244140625</ele>
        <time>2026-06-16T12:23:48.000Z</time>
        <extensions>
          <ns3:TrackPointExtension>
            <ns3:atemp>25.0</ns3:atemp>
          </ns3:TrackPointExtension>
        </extensions>
      </trkpt>
      <trkpt lat="42.596173770725727081298828125" lon="19.93237051181495189666748046875">
        <ele>914.4000244140625</ele>
        <time>2026-06-16T12:23:49.000Z</time>
        <extensions>
          <ns3:TrackPointExtension>
            <ns3:atemp>25.0</ns3:atemp>
          </ns3:TrackPointExtension>
        </extensions>
      </trkpt>
      <trkpt lat="42.596173770725727081298828125" lon="19.93237051181495189666748046875">
        <ele>914.4000244140625</ele>
        <time>2026-06-16T12:23:50.000Z</time>
        <extensions>
          <ns3:TrackPointExtension>
            <ns3:atemp>25.0</ns3:atemp>
          </ns3:TrackPointExtension>
        </extensions>
      </trkpt>
      <trkpt lat="42.596173770725727081298828125" lon="19.93237051181495189666748046875">
        <ele>914.4000244140625</ele>
        <time>2026-06-16T12:23:51.000Z</time>
        <extensions>
          <ns3:TrackPointExtension>
            <ns3:atemp>25.0</ns3:atemp>
          </ns3:TrackPointExtension>
        </extensions>
      </trkpt>
      <trkpt lat="42.596173770725727081298828125" lon="19.93237051181495189666748046875">
        <ele>914.4000244140625</ele>
        <time>2026-06-16T12:23:52.000Z</time>
        <extensions>
          <ns3:TrackPointExtension>
            <ns3:atemp>25.0</ns3:atemp>
          </ns3:TrackPointExtension>
        </extensions>
      </trkpt>
      <trkpt lat="42.596173770725727081298828125" lon="19.93237051181495189666748046875">
        <ele>914.4000244140625</ele>
        <time>2026-06-16T12:23:53.000Z</time>
        <extensions>
          <ns3:TrackPointExtension>
            <ns3:atemp>25.0</ns3:atemp>
          </ns3:TrackPointExtension>
        </extensions>
      </trkpt>
      <trkpt lat="42.596173770725727081298828125" lon="19.93237051181495189666748046875">
        <ele>914.4000244140625</ele>
        <time>2026-06-16T12:23:54.000Z</time>
        <extensions>
          <ns3:TrackPointExtension>
            <ns3:atemp>25.0</ns3:atemp>
          </ns3:TrackPointExtension>
        </extensions>
      </trkpt>
      <trkpt lat="42.596173770725727081298828125" lon="19.93237051181495189666748046875">
        <ele>914.4000244140625</ele>
        <time>2026-06-16T12:23:55.000Z</time>
        <extensions>
          <ns3:TrackPointExtension>
            <ns3:atemp>25.0</ns3:atemp>
          </ns3:TrackPointExtension>
        </extensions>
      </trkpt>
      <trkpt lat="42.596173770725727081298828125" lon="19.93237051181495189666748046875">
        <ele>914.4000244140625</ele>
        <time>2026-06-16T12:23:56.000Z</time>
        <extensions>
          <ns3:TrackPointExtension>
            <ns3:atemp>25.0</ns3:atemp>
          </ns3:TrackPointExtension>
        </extensions>
      </trkpt>
      <trkpt lat="42.596173770725727081298828125" lon="19.93237051181495189666748046875">
        <ele>914.4000244140625</ele>
        <time>2026-06-16T12:23:57.000Z</time>
        <extensions>
          <ns3:TrackPointExtension>
            <ns3:atemp>25.0</ns3:atemp>
          </ns3:TrackPointExtension>
        </extensions>
      </trkpt>
      <trkpt lat="42.596173770725727081298828125" lon="19.93237051181495189666748046875">
        <ele>914.4000244140625</ele>
        <time>2026-06-16T12:23:58.000Z</time>
        <extensions>
          <ns3:TrackPointExtension>
            <ns3:atemp>25.0</ns3:atemp>
          </ns3:TrackPointExtension>
        </extensions>
      </trkpt>
      <trkpt lat="42.596173770725727081298828125" lon="19.93237051181495189666748046875">
        <ele>914.4000244140625</ele>
        <time>2026-06-16T12:23:59.000Z</time>
        <extensions>
          <ns3:TrackPointExtension>
            <ns3:atemp>25.0</ns3:atemp>
          </ns3:TrackPointExtension>
        </extensions>
      </trkpt>
      <trkpt lat="42.596173770725727081298828125" lon="19.93237051181495189666748046875">
        <ele>914.4000244140625</ele>
        <time>2026-06-16T12:24:00.000Z</time>
        <extensions>
          <ns3:TrackPointExtension>
            <ns3:atemp>25.0</ns3:atemp>
          </ns3:TrackPointExtension>
        </extensions>
      </trkpt>
      <trkpt lat="42.596173770725727081298828125" lon="19.93237051181495189666748046875">
        <ele>914.4000244140625</ele>
        <time>2026-06-16T12:24:01.000Z</time>
        <extensions>
          <ns3:TrackPointExtension>
            <ns3:atemp>25.0</ns3:atemp>
          </ns3:TrackPointExtension>
        </extensions>
      </trkpt>
      <trkpt lat="42.596173770725727081298828125" lon="19.93237051181495189666748046875">
        <ele>914.4000244140625</ele>
        <time>2026-06-16T12:24:02.000Z</time>
        <extensions>
          <ns3:TrackPointExtension>
            <ns3:atemp>25.0</ns3:atemp>
          </ns3:TrackPointExtension>
        </extensions>
      </trkpt>
      <trkpt lat="42.596173770725727081298828125" lon="19.93237051181495189666748046875">
        <ele>914.4000244140625</ele>
        <time>2026-06-16T12:24:03.000Z</time>
        <extensions>
          <ns3:TrackPointExtension>
            <ns3:atemp>25.0</ns3:atemp>
          </ns3:TrackPointExtension>
        </extensions>
      </trkpt>
      <trkpt lat="42.596173770725727081298828125" lon="19.93237051181495189666748046875">
        <ele>914.4000244140625</ele>
        <time>2026-06-16T12:24:04.000Z</time>
        <extensions>
          <ns3:TrackPointExtension>
            <ns3:atemp>25.0</ns3:atemp>
          </ns3:TrackPointExtension>
        </extensions>
      </trkpt>
      <trkpt lat="42.596173770725727081298828125" lon="19.93237051181495189666748046875">
        <ele>914.4000244140625</ele>
        <time>2026-06-16T12:24:05.000Z</time>
        <extensions>
          <ns3:TrackPointExtension>
            <ns3:atemp>25.0</ns3:atemp>
          </ns3:TrackPointExtension>
        </extensions>
      </trkpt>
      <trkpt lat="42.596173770725727081298828125" lon="19.93237051181495189666748046875">
        <ele>914.4000244140625</ele>
        <time>2026-06-16T12:24:06.000Z</time>
        <extensions>
          <ns3:TrackPointExtension>
            <ns3:atemp>25.0</ns3:atemp>
          </ns3:TrackPointExtension>
        </extensions>
      </trkpt>
      <trkpt lat="42.596173770725727081298828125" lon="19.93237051181495189666748046875">
        <ele>914.4000244140625</ele>
        <time>2026-06-16T12:24:07.000Z</time>
        <extensions>
          <ns3:TrackPointExtension>
            <ns3:atemp>25.0</ns3:atemp>
          </ns3:TrackPointExtension>
        </extensions>
      </trkpt>
      <trkpt lat="42.596173770725727081298828125" lon="19.93237051181495189666748046875">
        <ele>914.4000244140625</ele>
        <time>2026-06-16T12:24:08.000Z</time>
        <extensions>
          <ns3:TrackPointExtension>
            <ns3:atemp>25.0</ns3:atemp>
          </ns3:TrackPointExtension>
        </extensions>
      </trkpt>
      <trkpt lat="42.596173770725727081298828125" lon="19.93237051181495189666748046875">
        <ele>914.4000244140625</ele>
        <time>2026-06-16T12:24:09.000Z</time>
        <extensions>
          <ns3:TrackPointExtension>
            <ns3:atemp>25.0</ns3:atemp>
          </ns3:TrackPointExtension>
        </extensions>
      </trkpt>
      <trkpt lat="42.596173770725727081298828125" lon="19.93237051181495189666748046875">
        <ele>914.4000244140625</ele>
        <time>2026-06-16T12:24:10.000Z</time>
        <extensions>
          <ns3:TrackPointExtension>
            <ns3:atemp>25.0</ns3:atemp>
          </ns3:TrackPointExtension>
        </extensions>
      </trkpt>
      <trkpt lat="42.596173770725727081298828125" lon="19.93237051181495189666748046875">
        <ele>914.4000244140625</ele>
        <time>2026-06-16T12:24:11.000Z</time>
        <extensions>
          <ns3:TrackPointExtension>
            <ns3:atemp>25.0</ns3:atemp>
          </ns3:TrackPointExtension>
        </extensions>
      </trkpt>
      <trkpt lat="42.596173770725727081298828125" lon="19.93237051181495189666748046875">
        <ele>914.4000244140625</ele>
        <time>2026-06-16T12:24:12.000Z</time>
        <extensions>
          <ns3:TrackPointExtension>
            <ns3:atemp>25.0</ns3:atemp>
          </ns3:TrackPointExtension>
        </extensions>
      </trkpt>
      <trkpt lat="42.596173770725727081298828125" lon="19.93237051181495189666748046875">
        <ele>914.4000244140625</ele>
        <time>2026-06-16T12:24:13.000Z</time>
        <extensions>
          <ns3:TrackPointExtension>
            <ns3:atemp>25.0</ns3:atemp>
          </ns3:TrackPointExtension>
        </extensions>
      </trkpt>
      <trkpt lat="42.596173770725727081298828125" lon="19.93237051181495189666748046875">
        <ele>914.4000244140625</ele>
        <time>2026-06-16T12:24:14.000Z</time>
        <extensions>
          <ns3:TrackPointExtension>
            <ns3:atemp>25.0</ns3:atemp>
          </ns3:TrackPointExtension>
        </extensions>
      </trkpt>
      <trkpt lat="42.596173770725727081298828125" lon="19.93237051181495189666748046875">
        <ele>914.4000244140625</ele>
        <time>2026-06-16T12:24:15.000Z</time>
        <extensions>
          <ns3:TrackPointExtension>
            <ns3:atemp>25.0</ns3:atemp>
          </ns3:TrackPointExtension>
        </extensions>
      </trkpt>
      <trkpt lat="42.596173770725727081298828125" lon="19.93237051181495189666748046875">
        <ele>914.4000244140625</ele>
        <time>2026-06-16T12:24:16.000Z</time>
        <extensions>
          <ns3:TrackPointExtension>
            <ns3:atemp>25.0</ns3:atemp>
          </ns3:TrackPointExtension>
        </extensions>
      </trkpt>
      <trkpt lat="42.596173770725727081298828125" lon="19.93237051181495189666748046875">
        <ele>914.4000244140625</ele>
        <time>2026-06-16T12:24:17.000Z</time>
        <extensions>
          <ns3:TrackPointExtension>
            <ns3:atemp>25.0</ns3:atemp>
          </ns3:TrackPointExtension>
        </extensions>
      </trkpt>
      <trkpt lat="42.596173770725727081298828125" lon="19.93237051181495189666748046875">
        <ele>914.4000244140625</ele>
        <time>2026-06-16T12:24:18.000Z</time>
        <extensions>
          <ns3:TrackPointExtension>
            <ns3:atemp>25.0</ns3:atemp>
          </ns3:TrackPointExtension>
        </extensions>
      </trkpt>
      <trkpt lat="42.596173770725727081298828125" lon="19.93237051181495189666748046875">
        <ele>914.4000244140625</ele>
        <time>2026-06-16T12:24:19.000Z</time>
        <extensions>
          <ns3:TrackPointExtension>
            <ns3:atemp>25.0</ns3:atemp>
          </ns3:TrackPointExtension>
        </extensions>
      </trkpt>
      <trkpt lat="42.596173770725727081298828125" lon="19.93237051181495189666748046875">
        <ele>914.4000244140625</ele>
        <time>2026-06-16T12:24:20.000Z</time>
        <extensions>
          <ns3:TrackPointExtension>
            <ns3:atemp>25.0</ns3:atemp>
          </ns3:TrackPointExtension>
        </extensions>
      </trkpt>
      <trkpt lat="42.596173770725727081298828125" lon="19.93237051181495189666748046875">
        <ele>914.4000244140625</ele>
        <time>2026-06-16T12:24:21.000Z</time>
        <extensions>
          <ns3:TrackPointExtension>
            <ns3:atemp>25.0</ns3:atemp>
          </ns3:TrackPointExtension>
        </extensions>
      </trkpt>
      <trkpt lat="42.596173770725727081298828125" lon="19.93237051181495189666748046875">
        <ele>914.4000244140625</ele>
        <time>2026-06-16T12:24:22.000Z</time>
        <extensions>
          <ns3:TrackPointExtension>
            <ns3:atemp>25.0</ns3:atemp>
          </ns3:TrackPointExtension>
        </extensions>
      </trkpt>
      <trkpt lat="42.596173770725727081298828125" lon="19.93237051181495189666748046875">
        <ele>914.4000244140625</ele>
        <time>2026-06-16T12:24:23.000Z</time>
        <extensions>
          <ns3:TrackPointExtension>
            <ns3:atemp>25.0</ns3:atemp>
          </ns3:TrackPointExtension>
        </extensions>
      </trkpt>
      <trkpt lat="42.596173770725727081298828125" lon="19.93237051181495189666748046875">
        <ele>914.4000244140625</ele>
        <time>2026-06-16T12:24:24.000Z</time>
        <extensions>
          <ns3:TrackPointExtension>
            <ns3:atemp>25.0</ns3:atemp>
          </ns3:TrackPointExtension>
        </extensions>
      </trkpt>
      <trkpt lat="42.596173770725727081298828125" lon="19.93237051181495189666748046875">
        <ele>914.4000244140625</ele>
        <time>2026-06-16T12:24:25.000Z</time>
        <extensions>
          <ns3:TrackPointExtension>
            <ns3:atemp>25.0</ns3:atemp>
          </ns3:TrackPointExtension>
        </extensions>
      </trkpt>
      <trkpt lat="42.596173770725727081298828125" lon="19.93237051181495189666748046875">
        <ele>914.4000244140625</ele>
        <time>2026-06-16T12:24:26.000Z</time>
        <extensions>
          <ns3:TrackPointExtension>
            <ns3:atemp>25.0</ns3:atemp>
          </ns3:TrackPointExtension>
        </extensions>
      </trkpt>
      <trkpt lat="42.596173770725727081298828125" lon="19.93237051181495189666748046875">
        <ele>914.4000244140625</ele>
        <time>2026-06-16T12:24:27.000Z</time>
        <extensions>
          <ns3:TrackPointExtension>
            <ns3:atemp>25.0</ns3:atemp>
          </ns3:TrackPointExtension>
        </extensions>
      </trkpt>
      <trkpt lat="42.596173770725727081298828125" lon="19.93237051181495189666748046875">
        <ele>914.4000244140625</ele>
        <time>2026-06-16T12:24:28.000Z</time>
        <extensions>
          <ns3:TrackPointExtension>
            <ns3:atemp>25.0</ns3:atemp>
          </ns3:TrackPointExtension>
        </extensions>
      </trkpt>
      <trkpt lat="42.596173770725727081298828125" lon="19.93237051181495189666748046875">
        <ele>914.4000244140625</ele>
        <time>2026-06-16T12:24:29.000Z</time>
        <extensions>
          <ns3:TrackPointExtension>
            <ns3:atemp>25.0</ns3:atemp>
          </ns3:TrackPointExtension>
        </extensions>
      </trkpt>
      <trkpt lat="42.596173770725727081298828125" lon="19.93237051181495189666748046875">
        <ele>914.4000244140625</ele>
        <time>2026-06-16T12:24:30.000Z</time>
        <extensions>
          <ns3:TrackPointExtension>
            <ns3:atemp>25.0</ns3:atemp>
          </ns3:TrackPointExtension>
        </extensions>
      </trkpt>
      <trkpt lat="42.596173770725727081298828125" lon="19.93237051181495189666748046875">
        <ele>914.4000244140625</ele>
        <time>2026-06-16T12:24:31.000Z</time>
        <extensions>
          <ns3:TrackPointExtension>
            <ns3:atemp>25.0</ns3:atemp>
          </ns3:TrackPointExtension>
        </extensions>
      </trkpt>
      <trkpt lat="42.596173770725727081298828125" lon="19.93237051181495189666748046875">
        <ele>914.4000244140625</ele>
        <time>2026-06-16T12:24:32.000Z</time>
        <extensions>
          <ns3:TrackPointExtension>
            <ns3:atemp>25.0</ns3:atemp>
          </ns3:TrackPointExtension>
        </extensions>
      </trkpt>
      <trkpt lat="42.596173770725727081298828125" lon="19.93237051181495189666748046875">
        <ele>914.4000244140625</ele>
        <time>2026-06-16T12:24:33.000Z</time>
        <extensions>
          <ns3:TrackPointExtension>
            <ns3:atemp>25.0</ns3:atemp>
          </ns3:TrackPointExtension>
        </extensions>
      </trkpt>
      <trkpt lat="42.596173770725727081298828125" lon="19.93237051181495189666748046875">
        <ele>914.4000244140625</ele>
        <time>2026-06-16T12:24:34.000Z</time>
        <extensions>
          <ns3:TrackPointExtension>
            <ns3:atemp>25.0</ns3:atemp>
          </ns3:TrackPointExtension>
        </extensions>
      </trkpt>
      <trkpt lat="42.596173770725727081298828125" lon="19.93237051181495189666748046875">
        <ele>914.4000244140625</ele>
        <time>2026-06-16T12:24:35.000Z</time>
        <extensions>
          <ns3:TrackPointExtension>
            <ns3:atemp>25.0</ns3:atemp>
          </ns3:TrackPointExtension>
        </extensions>
      </trkpt>
      <trkpt lat="42.596173770725727081298828125" lon="19.93237051181495189666748046875">
        <ele>914.4000244140625</ele>
        <time>2026-06-16T12:24:36.000Z</time>
        <extensions>
          <ns3:TrackPointExtension>
            <ns3:atemp>25.0</ns3:atemp>
          </ns3:TrackPointExtension>
        </extensions>
      </trkpt>
      <trkpt lat="42.596173770725727081298828125" lon="19.93237051181495189666748046875">
        <ele>914.4000244140625</ele>
        <time>2026-06-16T12:24:37.000Z</time>
        <extensions>
          <ns3:TrackPointExtension>
            <ns3:atemp>25.0</ns3:atemp>
          </ns3:TrackPointExtension>
        </extensions>
      </trkpt>
      <trkpt lat="42.596173770725727081298828125" lon="19.93237051181495189666748046875">
        <ele>914.4000244140625</ele>
        <time>2026-06-16T12:24:38.000Z</time>
        <extensions>
          <ns3:TrackPointExtension>
            <ns3:atemp>25.0</ns3:atemp>
          </ns3:TrackPointExtension>
        </extensions>
      </trkpt>
      <trkpt lat="42.596173770725727081298828125" lon="19.93237051181495189666748046875">
        <ele>914.4000244140625</ele>
        <time>2026-06-16T12:24:39.000Z</time>
        <extensions>
          <ns3:TrackPointExtension>
            <ns3:atemp>25.0</ns3:atemp>
          </ns3:TrackPointExtension>
        </extensions>
      </trkpt>
      <trkpt lat="42.596173770725727081298828125" lon="19.93237051181495189666748046875">
        <ele>914.4000244140625</ele>
        <time>2026-06-16T12:24:40.000Z</time>
        <extensions>
          <ns3:TrackPointExtension>
            <ns3:atemp>25.0</ns3:atemp>
          </ns3:TrackPointExtension>
        </extensions>
      </trkpt>
      <trkpt lat="42.596173770725727081298828125" lon="19.93237051181495189666748046875">
        <ele>914.4000244140625</ele>
        <time>2026-06-16T12:24:41.000Z</time>
        <extensions>
          <ns3:TrackPointExtension>
            <ns3:atemp>25.0</ns3:atemp>
          </ns3:TrackPointExtension>
        </extensions>
      </trkpt>
      <trkpt lat="42.596173770725727081298828125" lon="19.93237051181495189666748046875">
        <ele>914.4000244140625</ele>
        <time>2026-06-16T12:24:42.000Z</time>
        <extensions>
          <ns3:TrackPointExtension>
            <ns3:atemp>25.0</ns3:atemp>
          </ns3:TrackPointExtension>
        </extensions>
      </trkpt>
      <trkpt lat="42.596173770725727081298828125" lon="19.93237051181495189666748046875">
        <ele>914.4000244140625</ele>
        <time>2026-06-16T12:24:43.000Z</time>
        <extensions>
          <ns3:TrackPointExtension>
            <ns3:atemp>25.0</ns3:atemp>
          </ns3:TrackPointExtension>
        </extensions>
      </trkpt>
      <trkpt lat="42.596173770725727081298828125" lon="19.93237051181495189666748046875">
        <ele>914.4000244140625</ele>
        <time>2026-06-16T12:24:44.000Z</time>
        <extensions>
          <ns3:TrackPointExtension>
            <ns3:atemp>25.0</ns3:atemp>
          </ns3:TrackPointExtension>
        </extensions>
      </trkpt>
      <trkpt lat="42.596173770725727081298828125" lon="19.93237051181495189666748046875">
        <ele>914.4000244140625</ele>
        <time>2026-06-16T12:24:45.000Z</time>
        <extensions>
          <ns3:TrackPointExtension>
            <ns3:atemp>25.0</ns3:atemp>
          </ns3:TrackPointExtension>
        </extensions>
      </trkpt>
      <trkpt lat="42.596173770725727081298828125" lon="19.93237051181495189666748046875">
        <ele>914.4000244140625</ele>
        <time>2026-06-16T12:24:46.000Z</time>
        <extensions>
          <ns3:TrackPointExtension>
            <ns3:atemp>25.0</ns3:atemp>
          </ns3:TrackPointExtension>
        </extensions>
      </trkpt>
      <trkpt lat="42.596173770725727081298828125" lon="19.93237051181495189666748046875">
        <ele>914.4000244140625</ele>
        <time>2026-06-16T12:24:47.000Z</time>
        <extensions>
          <ns3:TrackPointExtension>
            <ns3:atemp>25.0</ns3:atemp>
          </ns3:TrackPointExtension>
        </extensions>
      </trkpt>
      <trkpt lat="42.596173770725727081298828125" lon="19.93237051181495189666748046875">
        <ele>914.4000244140625</ele>
        <time>2026-06-16T12:24:48.000Z</time>
        <extensions>
          <ns3:TrackPointExtension>
            <ns3:atemp>25.0</ns3:atemp>
          </ns3:TrackPointExtension>
        </extensions>
      </trkpt>
      <trkpt lat="42.596173770725727081298828125" lon="19.93237051181495189666748046875">
        <ele>914.4000244140625</ele>
        <time>2026-06-16T12:24:49.000Z</time>
        <extensions>
          <ns3:TrackPointExtension>
            <ns3:atemp>25.0</ns3:atemp>
          </ns3:TrackPointExtension>
        </extensions>
      </trkpt>
      <trkpt lat="42.596173770725727081298828125" lon="19.93237051181495189666748046875">
        <ele>914.4000244140625</ele>
        <time>2026-06-16T12:24:50.000Z</time>
        <extensions>
          <ns3:TrackPointExtension>
            <ns3:atemp>25.0</ns3:atemp>
          </ns3:TrackPointExtension>
        </extensions>
      </trkpt>
      <trkpt lat="42.596173770725727081298828125" lon="19.93237051181495189666748046875">
        <ele>914.4000244140625</ele>
        <time>2026-06-16T12:24:51.000Z</time>
        <extensions>
          <ns3:TrackPointExtension>
            <ns3:atemp>25.0</ns3:atemp>
          </ns3:TrackPointExtension>
        </extensions>
      </trkpt>
      <trkpt lat="42.596173770725727081298828125" lon="19.93237051181495189666748046875">
        <ele>914.4000244140625</ele>
        <time>2026-06-16T12:24:52.000Z</time>
        <extensions>
          <ns3:TrackPointExtension>
            <ns3:atemp>25.0</ns3:atemp>
          </ns3:TrackPointExtension>
        </extensions>
      </trkpt>
      <trkpt lat="42.596173770725727081298828125" lon="19.93237051181495189666748046875">
        <ele>914.4000244140625</ele>
        <time>2026-06-16T12:24:53.000Z</time>
        <extensions>
          <ns3:TrackPointExtension>
            <ns3:atemp>25.0</ns3:atemp>
          </ns3:TrackPointExtension>
        </extensions>
      </trkpt>
      <trkpt lat="42.596173770725727081298828125" lon="19.93237051181495189666748046875">
        <ele>914.4000244140625</ele>
        <time>2026-06-16T12:24:54.000Z</time>
        <extensions>
          <ns3:TrackPointExtension>
            <ns3:atemp>25.0</ns3:atemp>
          </ns3:TrackPointExtension>
        </extensions>
      </trkpt>
      <trkpt lat="42.596173770725727081298828125" lon="19.93237051181495189666748046875">
        <ele>914.4000244140625</ele>
        <time>2026-06-16T12:24:55.000Z</time>
        <extensions>
          <ns3:TrackPointExtension>
            <ns3:atemp>25.0</ns3:atemp>
          </ns3:TrackPointExtension>
        </extensions>
      </trkpt>
      <trkpt lat="42.596173770725727081298828125" lon="19.93237051181495189666748046875">
        <ele>914.4000244140625</ele>
        <time>2026-06-16T12:24:56.000Z</time>
        <extensions>
          <ns3:TrackPointExtension>
            <ns3:atemp>25.0</ns3:atemp>
          </ns3:TrackPointExtension>
        </extensions>
      </trkpt>
      <trkpt lat="42.596173770725727081298828125" lon="19.93237051181495189666748046875">
        <ele>914.4000244140625</ele>
        <time>2026-06-16T12:24:57.000Z</time>
        <extensions>
          <ns3:TrackPointExtension>
            <ns3:atemp>25.0</ns3:atemp>
          </ns3:TrackPointExtension>
        </extensions>
      </trkpt>
      <trkpt lat="42.596173770725727081298828125" lon="19.93237051181495189666748046875">
        <ele>914.4000244140625</ele>
        <time>2026-06-16T12:24:58.000Z</time>
        <extensions>
          <ns3:TrackPointExtension>
            <ns3:atemp>25.0</ns3:atemp>
          </ns3:TrackPointExtension>
        </extensions>
      </trkpt>
      <trkpt lat="42.596173770725727081298828125" lon="19.93237051181495189666748046875">
        <ele>914.4000244140625</ele>
        <time>2026-06-16T12:24:59.000Z</time>
        <extensions>
          <ns3:TrackPointExtension>
            <ns3:atemp>25.0</ns3:atemp>
          </ns3:TrackPointExtension>
        </extensions>
      </trkpt>
      <trkpt lat="42.596173770725727081298828125" lon="19.93237051181495189666748046875">
        <ele>914.4000244140625</ele>
        <time>2026-06-16T12:25:00.000Z</time>
        <extensions>
          <ns3:TrackPointExtension>
            <ns3:atemp>25.0</ns3:atemp>
          </ns3:TrackPointExtension>
        </extensions>
      </trkpt>
      <trkpt lat="42.596173770725727081298828125" lon="19.93237051181495189666748046875">
        <ele>914.4000244140625</ele>
        <time>2026-06-16T12:25:01.000Z</time>
        <extensions>
          <ns3:TrackPointExtension>
            <ns3:atemp>25.0</ns3:atemp>
          </ns3:TrackPointExtension>
        </extensions>
      </trkpt>
      <trkpt lat="42.596173770725727081298828125" lon="19.93237051181495189666748046875">
        <ele>914.4000244140625</ele>
        <time>2026-06-16T12:25:02.000Z</time>
        <extensions>
          <ns3:TrackPointExtension>
            <ns3:atemp>25.0</ns3:atemp>
          </ns3:TrackPointExtension>
        </extensions>
      </trkpt>
      <trkpt lat="42.596173770725727081298828125" lon="19.93237051181495189666748046875">
        <ele>914.4000244140625</ele>
        <time>2026-06-16T12:25:03.000Z</time>
        <extensions>
          <ns3:TrackPointExtension>
            <ns3:atemp>25.0</ns3:atemp>
          </ns3:TrackPointExtension>
        </extensions>
      </trkpt>
      <trkpt lat="42.596173770725727081298828125" lon="19.93237051181495189666748046875">
        <ele>914.4000244140625</ele>
        <time>2026-06-16T12:25:04.000Z</time>
        <extensions>
          <ns3:TrackPointExtension>
            <ns3:atemp>25.0</ns3:atemp>
          </ns3:TrackPointExtension>
        </extensions>
      </trkpt>
      <trkpt lat="42.596173770725727081298828125" lon="19.93237051181495189666748046875">
        <ele>914.4000244140625</ele>
        <time>2026-06-16T12:25:05.000Z</time>
        <extensions>
          <ns3:TrackPointExtension>
            <ns3:atemp>25.0</ns3:atemp>
          </ns3:TrackPointExtension>
        </extensions>
      </trkpt>
      <trkpt lat="42.596173770725727081298828125" lon="19.93237051181495189666748046875">
        <ele>914.4000244140625</ele>
        <time>2026-06-16T12:25:06.000Z</time>
        <extensions>
          <ns3:TrackPointExtension>
            <ns3:atemp>25.0</ns3:atemp>
          </ns3:TrackPointExtension>
        </extensions>
      </trkpt>
      <trkpt lat="42.596173770725727081298828125" lon="19.93237051181495189666748046875">
        <ele>914.4000244140625</ele>
        <time>2026-06-16T12:25:07.000Z</time>
        <extensions>
          <ns3:TrackPointExtension>
            <ns3:atemp>25.0</ns3:atemp>
          </ns3:TrackPointExtension>
        </extensions>
      </trkpt>
      <trkpt lat="42.596173770725727081298828125" lon="19.93237051181495189666748046875">
        <ele>914.4000244140625</ele>
        <time>2026-06-16T12:25:08.000Z</time>
        <extensions>
          <ns3:TrackPointExtension>
            <ns3:atemp>25.0</ns3:atemp>
          </ns3:TrackPointExtension>
        </extensions>
      </trkpt>
      <trkpt lat="42.596173770725727081298828125" lon="19.93237051181495189666748046875">
        <ele>914.4000244140625</ele>
        <time>2026-06-16T12:25:09.000Z</time>
        <extensions>
          <ns3:TrackPointExtension>
            <ns3:atemp>25.0</ns3:atemp>
          </ns3:TrackPointExtension>
        </extensions>
      </trkpt>
      <trkpt lat="42.596173770725727081298828125" lon="19.93237051181495189666748046875">
        <ele>914.4000244140625</ele>
        <time>2026-06-16T12:25:10.000Z</time>
        <extensions>
          <ns3:TrackPointExtension>
            <ns3:atemp>25.0</ns3:atemp>
          </ns3:TrackPointExtension>
        </extensions>
      </trkpt>
      <trkpt lat="42.596173770725727081298828125" lon="19.93237051181495189666748046875">
        <ele>914.4000244140625</ele>
        <time>2026-06-16T12:25:11.000Z</time>
        <extensions>
          <ns3:TrackPointExtension>
            <ns3:atemp>25.0</ns3:atemp>
          </ns3:TrackPointExtension>
        </extensions>
      </trkpt>
      <trkpt lat="42.596173770725727081298828125" lon="19.93237051181495189666748046875">
        <ele>914.4000244140625</ele>
        <time>2026-06-16T12:25:12.000Z</time>
        <extensions>
          <ns3:TrackPointExtension>
            <ns3:atemp>25.0</ns3:atemp>
          </ns3:TrackPointExtension>
        </extensions>
      </trkpt>
      <trkpt lat="42.596173770725727081298828125" lon="19.93237051181495189666748046875">
        <ele>914.4000244140625</ele>
        <time>2026-06-16T12:25:13.000Z</time>
        <extensions>
          <ns3:TrackPointExtension>
            <ns3:atemp>25.0</ns3:atemp>
          </ns3:TrackPointExtension>
        </extensions>
      </trkpt>
      <trkpt lat="42.596173770725727081298828125" lon="19.93237051181495189666748046875">
        <ele>914.4000244140625</ele>
        <time>2026-06-16T12:25:14.000Z</time>
        <extensions>
          <ns3:TrackPointExtension>
            <ns3:atemp>25.0</ns3:atemp>
          </ns3:TrackPointExtension>
        </extensions>
      </trkpt>
      <trkpt lat="42.596173770725727081298828125" lon="19.93237051181495189666748046875">
        <ele>914.4000244140625</ele>
        <time>2026-06-16T12:25:15.000Z</time>
        <extensions>
          <ns3:TrackPointExtension>
            <ns3:atemp>25.0</ns3:atemp>
          </ns3:TrackPointExtension>
        </extensions>
      </trkpt>
      <trkpt lat="42.596173770725727081298828125" lon="19.93237051181495189666748046875">
        <ele>914.4000244140625</ele>
        <time>2026-06-16T12:25:16.000Z</time>
        <extensions>
          <ns3:TrackPointExtension>
            <ns3:atemp>25.0</ns3:atemp>
          </ns3:TrackPointExtension>
        </extensions>
      </trkpt>
      <trkpt lat="42.596173770725727081298828125" lon="19.93237051181495189666748046875">
        <ele>914.4000244140625</ele>
        <time>2026-06-16T12:25:17.000Z</time>
        <extensions>
          <ns3:TrackPointExtension>
            <ns3:atemp>25.0</ns3:atemp>
          </ns3:TrackPointExtension>
        </extensions>
      </trkpt>
      <trkpt lat="42.596173770725727081298828125" lon="19.93237051181495189666748046875">
        <ele>914.4000244140625</ele>
        <time>2026-06-16T12:25:18.000Z</time>
        <extensions>
          <ns3:TrackPointExtension>
            <ns3:atemp>25.0</ns3:atemp>
          </ns3:TrackPointExtension>
        </extensions>
      </trkpt>
      <trkpt lat="42.596173770725727081298828125" lon="19.93237051181495189666748046875">
        <ele>914.4000244140625</ele>
        <time>2026-06-16T12:25:19.000Z</time>
        <extensions>
          <ns3:TrackPointExtension>
            <ns3:atemp>25.0</ns3:atemp>
          </ns3:TrackPointExtension>
        </extensions>
      </trkpt>
      <trkpt lat="42.596173770725727081298828125" lon="19.93237051181495189666748046875">
        <ele>914.4000244140625</ele>
        <time>2026-06-16T12:25:20.000Z</time>
        <extensions>
          <ns3:TrackPointExtension>
            <ns3:atemp>25.0</ns3:atemp>
          </ns3:TrackPointExtension>
        </extensions>
      </trkpt>
      <trkpt lat="42.596173770725727081298828125" lon="19.93237051181495189666748046875">
        <ele>914.4000244140625</ele>
        <time>2026-06-16T12:25:21.000Z</time>
        <extensions>
          <ns3:TrackPointExtension>
            <ns3:atemp>25.0</ns3:atemp>
          </ns3:TrackPointExtension>
        </extensions>
      </trkpt>
      <trkpt lat="42.596173770725727081298828125" lon="19.93237051181495189666748046875">
        <ele>914.4000244140625</ele>
        <time>2026-06-16T12:25:22.000Z</time>
        <extensions>
          <ns3:TrackPointExtension>
            <ns3:atemp>25.0</ns3:atemp>
          </ns3:TrackPointExtension>
        </extensions>
      </trkpt>
      <trkpt lat="42.596173770725727081298828125" lon="19.93237051181495189666748046875">
        <ele>914.4000244140625</ele>
        <time>2026-06-16T12:25:23.000Z</time>
        <extensions>
          <ns3:TrackPointExtension>
            <ns3:atemp>25.0</ns3:atemp>
          </ns3:TrackPointExtension>
        </extensions>
      </trkpt>
      <trkpt lat="42.596173770725727081298828125" lon="19.93237051181495189666748046875">
        <ele>914.4000244140625</ele>
        <time>2026-06-16T12:25:24.000Z</time>
        <extensions>
          <ns3:TrackPointExtension>
            <ns3:atemp>25.0</ns3:atemp>
          </ns3:TrackPointExtension>
        </extensions>
      </trkpt>
      <trkpt lat="42.596173770725727081298828125" lon="19.93237051181495189666748046875">
        <ele>914.4000244140625</ele>
        <time>2026-06-16T12:25:25.000Z</time>
        <extensions>
          <ns3:TrackPointExtension>
            <ns3:atemp>25.0</ns3:atemp>
          </ns3:TrackPointExtension>
        </extensions>
      </trkpt>
      <trkpt lat="42.596173770725727081298828125" lon="19.93237051181495189666748046875">
        <ele>914.4000244140625</ele>
        <time>2026-06-16T12:25:26.000Z</time>
        <extensions>
          <ns3:TrackPointExtension>
            <ns3:atemp>25.0</ns3:atemp>
          </ns3:TrackPointExtension>
        </extensions>
      </trkpt>
      <trkpt lat="42.596173770725727081298828125" lon="19.93237051181495189666748046875">
        <ele>914.4000244140625</ele>
        <time>2026-06-16T12:25:27.000Z</time>
        <extensions>
          <ns3:TrackPointExtension>
            <ns3:atemp>25.0</ns3:atemp>
          </ns3:TrackPointExtension>
        </extensions>
      </trkpt>
      <trkpt lat="42.596173770725727081298828125" lon="19.93237051181495189666748046875">
        <ele>914.4000244140625</ele>
        <time>2026-06-16T12:25:28.000Z</time>
        <extensions>
          <ns3:TrackPointExtension>
            <ns3:atemp>25.0</ns3:atemp>
          </ns3:TrackPointExtension>
        </extensions>
      </trkpt>
      <trkpt lat="42.596173770725727081298828125" lon="19.93237051181495189666748046875">
        <ele>914.4000244140625</ele>
        <time>2026-06-16T12:25:29.000Z</time>
        <extensions>
          <ns3:TrackPointExtension>
            <ns3:atemp>25.0</ns3:atemp>
          </ns3:TrackPointExtension>
        </extensions>
      </trkpt>
      <trkpt lat="42.596173770725727081298828125" lon="19.93237051181495189666748046875">
        <ele>914.4000244140625</ele>
        <time>2026-06-16T12:25:30.000Z</time>
        <extensions>
          <ns3:TrackPointExtension>
            <ns3:atemp>25.0</ns3:atemp>
          </ns3:TrackPointExtension>
        </extensions>
      </trkpt>
      <trkpt lat="42.596173770725727081298828125" lon="19.93237051181495189666748046875">
        <ele>914.4000244140625</ele>
        <time>2026-06-16T12:25:31.000Z</time>
        <extensions>
          <ns3:TrackPointExtension>
            <ns3:atemp>25.0</ns3:atemp>
          </ns3:TrackPointExtension>
        </extensions>
      </trkpt>
      <trkpt lat="42.596173770725727081298828125" lon="19.93237051181495189666748046875">
        <ele>914.4000244140625</ele>
        <time>2026-06-16T12:25:32.000Z</time>
        <extensions>
          <ns3:TrackPointExtension>
            <ns3:atemp>25.0</ns3:atemp>
          </ns3:TrackPointExtension>
        </extensions>
      </trkpt>
      <trkpt lat="42.596173770725727081298828125" lon="19.93237051181495189666748046875">
        <ele>914.4000244140625</ele>
        <time>2026-06-16T12:25:33.000Z</time>
        <extensions>
          <ns3:TrackPointExtension>
            <ns3:atemp>25.0</ns3:atemp>
          </ns3:TrackPointExtension>
        </extensions>
      </trkpt>
      <trkpt lat="42.596173770725727081298828125" lon="19.93237051181495189666748046875">
        <ele>914.4000244140625</ele>
        <time>2026-06-16T12:25:34.000Z</time>
        <extensions>
          <ns3:TrackPointExtension>
            <ns3:atemp>25.0</ns3:atemp>
          </ns3:TrackPointExtension>
        </extensions>
      </trkpt>
      <trkpt lat="42.596173770725727081298828125" lon="19.93237051181495189666748046875">
        <ele>914.4000244140625</ele>
        <time>2026-06-16T12:25:35.000Z</time>
        <extensions>
          <ns3:TrackPointExtension>
            <ns3:atemp>25.0</ns3:atemp>
          </ns3:TrackPointExtension>
        </extensions>
      </trkpt>
      <trkpt lat="42.596173770725727081298828125" lon="19.93237051181495189666748046875">
        <ele>914.4000244140625</ele>
        <time>2026-06-16T12:25:36.000Z</time>
        <extensions>
          <ns3:TrackPointExtension>
            <ns3:atemp>25.0</ns3:atemp>
          </ns3:TrackPointExtension>
        </extensions>
      </trkpt>
      <trkpt lat="42.596173770725727081298828125" lon="19.93237051181495189666748046875">
        <ele>914.4000244140625</ele>
        <time>2026-06-16T12:25:37.000Z</time>
        <extensions>
          <ns3:TrackPointExtension>
            <ns3:atemp>25.0</ns3:atemp>
          </ns3:TrackPointExtension>
        </extensions>
      </trkpt>
      <trkpt lat="42.596173770725727081298828125" lon="19.93237051181495189666748046875">
        <ele>914.4000244140625</ele>
        <time>2026-06-16T12:25:38.000Z</time>
        <extensions>
          <ns3:TrackPointExtension>
            <ns3:atemp>25.0</ns3:atemp>
          </ns3:TrackPointExtension>
        </extensions>
      </trkpt>
      <trkpt lat="42.596173770725727081298828125" lon="19.93237051181495189666748046875">
        <ele>914.4000244140625</ele>
        <time>2026-06-16T12:25:39.000Z</time>
        <extensions>
          <ns3:TrackPointExtension>
            <ns3:atemp>25.0</ns3:atemp>
          </ns3:TrackPointExtension>
        </extensions>
      </trkpt>
      <trkpt lat="42.596173770725727081298828125" lon="19.93237051181495189666748046875">
        <ele>914.4000244140625</ele>
        <time>2026-06-16T12:25:40.000Z</time>
        <extensions>
          <ns3:TrackPointExtension>
            <ns3:atemp>25.0</ns3:atemp>
          </ns3:TrackPointExtension>
        </extensions>
      </trkpt>
      <trkpt lat="42.596173770725727081298828125" lon="19.93237051181495189666748046875">
        <ele>914.4000244140625</ele>
        <time>2026-06-16T12:25:41.000Z</time>
        <extensions>
          <ns3:TrackPointExtension>
            <ns3:atemp>25.0</ns3:atemp>
          </ns3:TrackPointExtension>
        </extensions>
      </trkpt>
      <trkpt lat="42.596173770725727081298828125" lon="19.93237051181495189666748046875">
        <ele>914.4000244140625</ele>
        <time>2026-06-16T12:25:42.000Z</time>
        <extensions>
          <ns3:TrackPointExtension>
            <ns3:atemp>25.0</ns3:atemp>
          </ns3:TrackPointExtension>
        </extensions>
      </trkpt>
      <trkpt lat="42.596173770725727081298828125" lon="19.93237051181495189666748046875">
        <ele>914.4000244140625</ele>
        <time>2026-06-16T12:25:43.000Z</time>
        <extensions>
          <ns3:TrackPointExtension>
            <ns3:atemp>25.0</ns3:atemp>
          </ns3:TrackPointExtension>
        </extensions>
      </trkpt>
      <trkpt lat="42.596173770725727081298828125" lon="19.93237051181495189666748046875">
        <ele>914.4000244140625</ele>
        <time>2026-06-16T12:25:44.000Z</time>
        <extensions>
          <ns3:TrackPointExtension>
            <ns3:atemp>25.0</ns3:atemp>
          </ns3:TrackPointExtension>
        </extensions>
      </trkpt>
      <trkpt lat="42.596173770725727081298828125" lon="19.93237051181495189666748046875">
        <ele>914.4000244140625</ele>
        <time>2026-06-16T12:25:45.000Z</time>
        <extensions>
          <ns3:TrackPointExtension>
            <ns3:atemp>25.0</ns3:atemp>
          </ns3:TrackPointExtension>
        </extensions>
      </trkpt>
      <trkpt lat="42.596173770725727081298828125" lon="19.93237051181495189666748046875">
        <ele>914.4000244140625</ele>
        <time>2026-06-16T12:25:46.000Z</time>
        <extensions>
          <ns3:TrackPointExtension>
            <ns3:atemp>25.0</ns3:atemp>
          </ns3:TrackPointExtension>
        </extensions>
      </trkpt>
      <trkpt lat="42.596173770725727081298828125" lon="19.93237051181495189666748046875">
        <ele>914.4000244140625</ele>
        <time>2026-06-16T12:25:47.000Z</time>
        <extensions>
          <ns3:TrackPointExtension>
            <ns3:atemp>25.0</ns3:atemp>
          </ns3:TrackPointExtension>
        </extensions>
      </trkpt>
      <trkpt lat="42.596173770725727081298828125" lon="19.93237051181495189666748046875">
        <ele>914.4000244140625</ele>
        <time>2026-06-16T12:25:48.000Z</time>
        <extensions>
          <ns3:TrackPointExtension>
            <ns3:atemp>25.0</ns3:atemp>
          </ns3:TrackPointExtension>
        </extensions>
      </trkpt>
      <trkpt lat="42.596173770725727081298828125" lon="19.93237051181495189666748046875">
        <ele>914.4000244140625</ele>
        <time>2026-06-16T12:25:49.000Z</time>
        <extensions>
          <ns3:TrackPointExtension>
            <ns3:atemp>25.0</ns3:atemp>
          </ns3:TrackPointExtension>
        </extensions>
      </trkpt>
      <trkpt lat="42.596173770725727081298828125" lon="19.93237051181495189666748046875">
        <ele>914.4000244140625</ele>
        <time>2026-06-16T12:25:50.000Z</time>
        <extensions>
          <ns3:TrackPointExtension>
            <ns3:atemp>25.0</ns3:atemp>
          </ns3:TrackPointExtension>
        </extensions>
      </trkpt>
      <trkpt lat="42.596173770725727081298828125" lon="19.93237051181495189666748046875">
        <ele>914.4000244140625</ele>
        <time>2026-06-16T12:25:51.000Z</time>
        <extensions>
          <ns3:TrackPointExtension>
            <ns3:atemp>25.0</ns3:atemp>
          </ns3:TrackPointExtension>
        </extensions>
      </trkpt>
      <trkpt lat="42.596173770725727081298828125" lon="19.93237051181495189666748046875">
        <ele>914.4000244140625</ele>
        <time>2026-06-16T12:25:52.000Z</time>
        <extensions>
          <ns3:TrackPointExtension>
            <ns3:atemp>25.0</ns3:atemp>
          </ns3:TrackPointExtension>
        </extensions>
      </trkpt>
      <trkpt lat="42.596173770725727081298828125" lon="19.93237051181495189666748046875">
        <ele>914.4000244140625</ele>
        <time>2026-06-16T12:25:53.000Z</time>
        <extensions>
          <ns3:TrackPointExtension>
            <ns3:atemp>25.0</ns3:atemp>
          </ns3:TrackPointExtension>
        </extensions>
      </trkpt>
      <trkpt lat="42.596173770725727081298828125" lon="19.93237051181495189666748046875">
        <ele>914.4000244140625</ele>
        <time>2026-06-16T12:25:54.000Z</time>
        <extensions>
          <ns3:TrackPointExtension>
            <ns3:atemp>25.0</ns3:atemp>
          </ns3:TrackPointExtension>
        </extensions>
      </trkpt>
      <trkpt lat="42.596173770725727081298828125" lon="19.93237051181495189666748046875">
        <ele>914.4000244140625</ele>
        <time>2026-06-16T12:25:55.000Z</time>
        <extensions>
          <ns3:TrackPointExtension>
            <ns3:atemp>25.0</ns3:atemp>
          </ns3:TrackPointExtension>
        </extensions>
      </trkpt>
      <trkpt lat="42.596173770725727081298828125" lon="19.93237051181495189666748046875">
        <ele>914.4000244140625</ele>
        <time>2026-06-16T12:25:56.000Z</time>
        <extensions>
          <ns3:TrackPointExtension>
            <ns3:atemp>25.0</ns3:atemp>
          </ns3:TrackPointExtension>
        </extensions>
      </trkpt>
      <trkpt lat="42.596173770725727081298828125" lon="19.93237051181495189666748046875">
        <ele>914.4000244140625</ele>
        <time>2026-06-16T12:25:57.000Z</time>
        <extensions>
          <ns3:TrackPointExtension>
            <ns3:atemp>25.0</ns3:atemp>
          </ns3:TrackPointExtension>
        </extensions>
      </trkpt>
      <trkpt lat="42.596173770725727081298828125" lon="19.93237051181495189666748046875">
        <ele>914.4000244140625</ele>
        <time>2026-06-16T12:25:58.000Z</time>
        <extensions>
          <ns3:TrackPointExtension>
            <ns3:atemp>25.0</ns3:atemp>
          </ns3:TrackPointExtension>
        </extensions>
      </trkpt>
      <trkpt lat="42.596173770725727081298828125" lon="19.93237051181495189666748046875">
        <ele>914.4000244140625</ele>
        <time>2026-06-16T12:25:59.000Z</time>
        <extensions>
          <ns3:TrackPointExtension>
            <ns3:atemp>25.0</ns3:atemp>
          </ns3:TrackPointExtension>
        </extensions>
      </trkpt>
      <trkpt lat="42.596173770725727081298828125" lon="19.93237051181495189666748046875">
        <ele>914.4000244140625</ele>
        <time>2026-06-16T12:26:00.000Z</time>
        <extensions>
          <ns3:TrackPointExtension>
            <ns3:atemp>25.0</ns3:atemp>
          </ns3:TrackPointExtension>
        </extensions>
      </trkpt>
      <trkpt lat="42.596173770725727081298828125" lon="19.93237051181495189666748046875">
        <ele>914.4000244140625</ele>
        <time>2026-06-16T12:26:01.000Z</time>
        <extensions>
          <ns3:TrackPointExtension>
            <ns3:atemp>25.0</ns3:atemp>
          </ns3:TrackPointExtension>
        </extensions>
      </trkpt>
      <trkpt lat="42.596173770725727081298828125" lon="19.93237051181495189666748046875">
        <ele>914.4000244140625</ele>
        <time>2026-06-16T12:26:02.000Z</time>
        <extensions>
          <ns3:TrackPointExtension>
            <ns3:atemp>25.0</ns3:atemp>
          </ns3:TrackPointExtension>
        </extensions>
      </trkpt>
      <trkpt lat="42.596173770725727081298828125" lon="19.93237051181495189666748046875">
        <ele>914.4000244140625</ele>
        <time>2026-06-16T12:26:03.000Z</time>
        <extensions>
          <ns3:TrackPointExtension>
            <ns3:atemp>25.0</ns3:atemp>
          </ns3:TrackPointExtension>
        </extensions>
      </trkpt>
      <trkpt lat="42.596173770725727081298828125" lon="19.93237051181495189666748046875">
        <ele>914.4000244140625</ele>
        <time>2026-06-16T12:26:04.000Z</time>
        <extensions>
          <ns3:TrackPointExtension>
            <ns3:atemp>25.0</ns3:atemp>
          </ns3:TrackPointExtension>
        </extensions>
      </trkpt>
      <trkpt lat="42.596173770725727081298828125" lon="19.93237051181495189666748046875">
        <ele>914.4000244140625</ele>
        <time>2026-06-16T12:26:05.000Z</time>
        <extensions>
          <ns3:TrackPointExtension>
            <ns3:atemp>25.0</ns3:atemp>
          </ns3:TrackPointExtension>
        </extensions>
      </trkpt>
      <trkpt lat="42.596173770725727081298828125" lon="19.93237051181495189666748046875">
        <ele>914.4000244140625</ele>
        <time>2026-06-16T12:26:06.000Z</time>
        <extensions>
          <ns3:TrackPointExtension>
            <ns3:atemp>25.0</ns3:atemp>
          </ns3:TrackPointExtension>
        </extensions>
      </trkpt>
      <trkpt lat="42.596173770725727081298828125" lon="19.93237051181495189666748046875">
        <ele>914.4000244140625</ele>
        <time>2026-06-16T12:26:07.000Z</time>
        <extensions>
          <ns3:TrackPointExtension>
            <ns3:atemp>25.0</ns3:atemp>
          </ns3:TrackPointExtension>
        </extensions>
      </trkpt>
      <trkpt lat="42.596173770725727081298828125" lon="19.93237051181495189666748046875">
        <ele>914.4000244140625</ele>
        <time>2026-06-16T12:26:08.000Z</time>
        <extensions>
          <ns3:TrackPointExtension>
            <ns3:atemp>25.0</ns3:atemp>
          </ns3:TrackPointExtension>
        </extensions>
      </trkpt>
      <trkpt lat="42.596173770725727081298828125" lon="19.93237051181495189666748046875">
        <ele>914.4000244140625</ele>
        <time>2026-06-16T12:26:09.000Z</time>
        <extensions>
          <ns3:TrackPointExtension>
            <ns3:atemp>25.0</ns3:atemp>
          </ns3:TrackPointExtension>
        </extensions>
      </trkpt>
      <trkpt lat="42.596173770725727081298828125" lon="19.93237051181495189666748046875">
        <ele>914.4000244140625</ele>
        <time>2026-06-16T12:26:10.000Z</time>
        <extensions>
          <ns3:TrackPointExtension>
            <ns3:atemp>25.0</ns3:atemp>
          </ns3:TrackPointExtension>
        </extensions>
      </trkpt>
      <trkpt lat="42.596173770725727081298828125" lon="19.93237051181495189666748046875">
        <ele>914.4000244140625</ele>
        <time>2026-06-16T12:26:11.000Z</time>
        <extensions>
          <ns3:TrackPointExtension>
            <ns3:atemp>25.0</ns3:atemp>
          </ns3:TrackPointExtension>
        </extensions>
      </trkpt>
      <trkpt lat="42.596173770725727081298828125" lon="19.93237051181495189666748046875">
        <ele>914.4000244140625</ele>
        <time>2026-06-16T12:26:12.000Z</time>
        <extensions>
          <ns3:TrackPointExtension>
            <ns3:atemp>25.0</ns3:atemp>
          </ns3:TrackPointExtension>
        </extensions>
      </trkpt>
      <trkpt lat="42.596173770725727081298828125" lon="19.93237051181495189666748046875">
        <ele>914.4000244140625</ele>
        <time>2026-06-16T12:26:13.000Z</time>
        <extensions>
          <ns3:TrackPointExtension>
            <ns3:atemp>25.0</ns3:atemp>
          </ns3:TrackPointExtension>
        </extensions>
      </trkpt>
      <trkpt lat="42.596173770725727081298828125" lon="19.93237051181495189666748046875">
        <ele>914.4000244140625</ele>
        <time>2026-06-16T12:26:14.000Z</time>
        <extensions>
          <ns3:TrackPointExtension>
            <ns3:atemp>25.0</ns3:atemp>
          </ns3:TrackPointExtension>
        </extensions>
      </trkpt>
      <trkpt lat="42.596173770725727081298828125" lon="19.93237051181495189666748046875">
        <ele>914.4000244140625</ele>
        <time>2026-06-16T12:26:15.000Z</time>
        <extensions>
          <ns3:TrackPointExtension>
            <ns3:atemp>25.0</ns3:atemp>
          </ns3:TrackPointExtension>
        </extensions>
      </trkpt>
      <trkpt lat="42.596173770725727081298828125" lon="19.93237051181495189666748046875">
        <ele>914.4000244140625</ele>
        <time>2026-06-16T12:26:16.000Z</time>
        <extensions>
          <ns3:TrackPointExtension>
            <ns3:atemp>25.0</ns3:atemp>
          </ns3:TrackPointExtension>
        </extensions>
      </trkpt>
      <trkpt lat="42.596173770725727081298828125" lon="19.93237051181495189666748046875">
        <ele>914.4000244140625</ele>
        <time>2026-06-16T12:26:17.000Z</time>
        <extensions>
          <ns3:TrackPointExtension>
            <ns3:atemp>25.0</ns3:atemp>
          </ns3:TrackPointExtension>
        </extensions>
      </trkpt>
      <trkpt lat="42.596173770725727081298828125" lon="19.93237051181495189666748046875">
        <ele>914.4000244140625</ele>
        <time>2026-06-16T12:26:18.000Z</time>
        <extensions>
          <ns3:TrackPointExtension>
            <ns3:atemp>25.0</ns3:atemp>
          </ns3:TrackPointExtension>
        </extensions>
      </trkpt>
      <trkpt lat="42.596173770725727081298828125" lon="19.93237051181495189666748046875">
        <ele>914.4000244140625</ele>
        <time>2026-06-16T12:26:19.000Z</time>
        <extensions>
          <ns3:TrackPointExtension>
            <ns3:atemp>25.0</ns3:atemp>
          </ns3:TrackPointExtension>
        </extensions>
      </trkpt>
      <trkpt lat="42.596173770725727081298828125" lon="19.93237051181495189666748046875">
        <ele>914.4000244140625</ele>
        <time>2026-06-16T12:26:20.000Z</time>
        <extensions>
          <ns3:TrackPointExtension>
            <ns3:atemp>25.0</ns3:atemp>
          </ns3:TrackPointExtension>
        </extensions>
      </trkpt>
      <trkpt lat="42.596173770725727081298828125" lon="19.93237051181495189666748046875">
        <ele>914.4000244140625</ele>
        <time>2026-06-16T12:26:21.000Z</time>
        <extensions>
          <ns3:TrackPointExtension>
            <ns3:atemp>25.0</ns3:atemp>
          </ns3:TrackPointExtension>
        </extensions>
      </trkpt>
      <trkpt lat="42.596173770725727081298828125" lon="19.93237051181495189666748046875">
        <ele>914.4000244140625</ele>
        <time>2026-06-16T12:26:22.000Z</time>
        <extensions>
          <ns3:TrackPointExtension>
            <ns3:atemp>25.0</ns3:atemp>
          </ns3:TrackPointExtension>
        </extensions>
      </trkpt>
      <trkpt lat="42.596173770725727081298828125" lon="19.93237051181495189666748046875">
        <ele>914.4000244140625</ele>
        <time>2026-06-16T12:26:23.000Z</time>
        <extensions>
          <ns3:TrackPointExtension>
            <ns3:atemp>25.0</ns3:atemp>
          </ns3:TrackPointExtension>
        </extensions>
      </trkpt>
      <trkpt lat="42.596173770725727081298828125" lon="19.93237051181495189666748046875">
        <ele>914.4000244140625</ele>
        <time>2026-06-16T12:26:24.000Z</time>
        <extensions>
          <ns3:TrackPointExtension>
            <ns3:atemp>25.0</ns3:atemp>
          </ns3:TrackPointExtension>
        </extensions>
      </trkpt>
      <trkpt lat="42.596173770725727081298828125" lon="19.93237051181495189666748046875">
        <ele>914.4000244140625</ele>
        <time>2026-06-16T12:26:25.000Z</time>
        <extensions>
          <ns3:TrackPointExtension>
            <ns3:atemp>25.0</ns3:atemp>
          </ns3:TrackPointExtension>
        </extensions>
      </trkpt>
      <trkpt lat="42.596173770725727081298828125" lon="19.93237051181495189666748046875">
        <ele>914.4000244140625</ele>
        <time>2026-06-16T12:26:26.000Z</time>
        <extensions>
          <ns3:TrackPointExtension>
            <ns3:atemp>25.0</ns3:atemp>
          </ns3:TrackPointExtension>
        </extensions>
      </trkpt>
      <trkpt lat="42.596173770725727081298828125" lon="19.93237051181495189666748046875">
        <ele>914.4000244140625</ele>
        <time>2026-06-16T12:26:27.000Z</time>
        <extensions>
          <ns3:TrackPointExtension>
            <ns3:atemp>25.0</ns3:atemp>
          </ns3:TrackPointExtension>
        </extensions>
      </trkpt>
      <trkpt lat="42.596173770725727081298828125" lon="19.93237051181495189666748046875">
        <ele>914.4000244140625</ele>
        <time>2026-06-16T12:26:28.000Z</time>
        <extensions>
          <ns3:TrackPointExtension>
            <ns3:atemp>25.0</ns3:atemp>
          </ns3:TrackPointExtension>
        </extensions>
      </trkpt>
      <trkpt lat="42.596173770725727081298828125" lon="19.93237051181495189666748046875">
        <ele>914.4000244140625</ele>
        <time>2026-06-16T12:26:29.000Z</time>
        <extensions>
          <ns3:TrackPointExtension>
            <ns3:atemp>25.0</ns3:atemp>
          </ns3:TrackPointExtension>
        </extensions>
      </trkpt>
      <trkpt lat="42.596173770725727081298828125" lon="19.93237051181495189666748046875">
        <ele>914.4000244140625</ele>
        <time>2026-06-16T12:26:30.000Z</time>
        <extensions>
          <ns3:TrackPointExtension>
            <ns3:atemp>25.0</ns3:atemp>
          </ns3:TrackPointExtension>
        </extensions>
      </trkpt>
      <trkpt lat="42.596173770725727081298828125" lon="19.93237051181495189666748046875">
        <ele>914.4000244140625</ele>
        <time>2026-06-16T12:26:31.000Z</time>
        <extensions>
          <ns3:TrackPointExtension>
            <ns3:atemp>25.0</ns3:atemp>
          </ns3:TrackPointExtension>
        </extensions>
      </trkpt>
      <trkpt lat="42.596173770725727081298828125" lon="19.93237051181495189666748046875">
        <ele>914.4000244140625</ele>
        <time>2026-06-16T12:26:32.000Z</time>
        <extensions>
          <ns3:TrackPointExtension>
            <ns3:atemp>25.0</ns3:atemp>
          </ns3:TrackPointExtension>
        </extensions>
      </trkpt>
      <trkpt lat="42.596173770725727081298828125" lon="19.93237051181495189666748046875">
        <ele>914.4000244140625</ele>
        <time>2026-06-16T12:26:33.000Z</time>
        <extensions>
          <ns3:TrackPointExtension>
            <ns3:atemp>25.0</ns3:atemp>
          </ns3:TrackPointExtension>
        </extensions>
      </trkpt>
      <trkpt lat="42.596173770725727081298828125" lon="19.93237051181495189666748046875">
        <ele>914.4000244140625</ele>
        <time>2026-06-16T12:26:34.000Z</time>
        <extensions>
          <ns3:TrackPointExtension>
            <ns3:atemp>25.0</ns3:atemp>
          </ns3:TrackPointExtension>
        </extensions>
      </trkpt>
      <trkpt lat="42.596173770725727081298828125" lon="19.93237051181495189666748046875">
        <ele>914.4000244140625</ele>
        <time>2026-06-16T12:26:35.000Z</time>
        <extensions>
          <ns3:TrackPointExtension>
            <ns3:atemp>25.0</ns3:atemp>
          </ns3:TrackPointExtension>
        </extensions>
      </trkpt>
      <trkpt lat="42.596173770725727081298828125" lon="19.93237051181495189666748046875">
        <ele>914.4000244140625</ele>
        <time>2026-06-16T12:26:36.000Z</time>
        <extensions>
          <ns3:TrackPointExtension>
            <ns3:atemp>25.0</ns3:atemp>
          </ns3:TrackPointExtension>
        </extensions>
      </trkpt>
      <trkpt lat="42.596173770725727081298828125" lon="19.93237051181495189666748046875">
        <ele>914.4000244140625</ele>
        <time>2026-06-16T12:26:37.000Z</time>
        <extensions>
          <ns3:TrackPointExtension>
            <ns3:atemp>25.0</ns3:atemp>
          </ns3:TrackPointExtension>
        </extensions>
      </trkpt>
      <trkpt lat="42.596173770725727081298828125" lon="19.93237051181495189666748046875">
        <ele>914.4000244140625</ele>
        <time>2026-06-16T12:26:38.000Z</time>
        <extensions>
          <ns3:TrackPointExtension>
            <ns3:atemp>25.0</ns3:atemp>
          </ns3:TrackPointExtension>
        </extensions>
      </trkpt>
      <trkpt lat="42.596173770725727081298828125" lon="19.93237051181495189666748046875">
        <ele>914.4000244140625</ele>
        <time>2026-06-16T12:26:39.000Z</time>
        <extensions>
          <ns3:TrackPointExtension>
            <ns3:atemp>25.0</ns3:atemp>
          </ns3:TrackPointExtension>
        </extensions>
      </trkpt>
      <trkpt lat="42.596173770725727081298828125" lon="19.93237051181495189666748046875">
        <ele>914.4000244140625</ele>
        <time>2026-06-16T12:26:40.000Z</time>
        <extensions>
          <ns3:TrackPointExtension>
            <ns3:atemp>25.0</ns3:atemp>
          </ns3:TrackPointExtension>
        </extensions>
      </trkpt>
      <trkpt lat="42.596173770725727081298828125" lon="19.93237051181495189666748046875">
        <ele>914.4000244140625</ele>
        <time>2026-06-16T12:26:41.000Z</time>
        <extensions>
          <ns3:TrackPointExtension>
            <ns3:atemp>25.0</ns3:atemp>
          </ns3:TrackPointExtension>
        </extensions>
      </trkpt>
      <trkpt lat="42.596173770725727081298828125" lon="19.93237051181495189666748046875">
        <ele>914.4000244140625</ele>
        <time>2026-06-16T12:26:42.000Z</time>
        <extensions>
          <ns3:TrackPointExtension>
            <ns3:atemp>25.0</ns3:atemp>
          </ns3:TrackPointExtension>
        </extensions>
      </trkpt>
      <trkpt lat="42.596173770725727081298828125" lon="19.93237051181495189666748046875">
        <ele>914.4000244140625</ele>
        <time>2026-06-16T12:26:43.000Z</time>
        <extensions>
          <ns3:TrackPointExtension>
            <ns3:atemp>25.0</ns3:atemp>
          </ns3:TrackPointExtension>
        </extensions>
      </trkpt>
      <trkpt lat="42.596173770725727081298828125" lon="19.93237051181495189666748046875">
        <ele>914.4000244140625</ele>
        <time>2026-06-16T12:26:44.000Z</time>
        <extensions>
          <ns3:TrackPointExtension>
            <ns3:atemp>25.0</ns3:atemp>
          </ns3:TrackPointExtension>
        </extensions>
      </trkpt>
      <trkpt lat="42.596173770725727081298828125" lon="19.93237051181495189666748046875">
        <ele>914.4000244140625</ele>
        <time>2026-06-16T12:26:45.000Z</time>
        <extensions>
          <ns3:TrackPointExtension>
            <ns3:atemp>25.0</ns3:atemp>
          </ns3:TrackPointExtension>
        </extensions>
      </trkpt>
      <trkpt lat="42.596173770725727081298828125" lon="19.93237051181495189666748046875">
        <ele>914.4000244140625</ele>
        <time>2026-06-16T12:26:46.000Z</time>
        <extensions>
          <ns3:TrackPointExtension>
            <ns3:atemp>25.0</ns3:atemp>
          </ns3:TrackPointExtension>
        </extensions>
      </trkpt>
      <trkpt lat="42.596173770725727081298828125" lon="19.93237051181495189666748046875">
        <ele>914.4000244140625</ele>
        <time>2026-06-16T12:26:47.000Z</time>
        <extensions>
          <ns3:TrackPointExtension>
            <ns3:atemp>25.0</ns3:atemp>
          </ns3:TrackPointExtension>
        </extensions>
      </trkpt>
      <trkpt lat="42.596173770725727081298828125" lon="19.93237051181495189666748046875">
        <ele>914.4000244140625</ele>
        <time>2026-06-16T12:26:48.000Z</time>
        <extensions>
          <ns3:TrackPointExtension>
            <ns3:atemp>25.0</ns3:atemp>
          </ns3:TrackPointExtension>
        </extensions>
      </trkpt>
      <trkpt lat="42.596173770725727081298828125" lon="19.93237051181495189666748046875">
        <ele>914.4000244140625</ele>
        <time>2026-06-16T12:26:49.000Z</time>
        <extensions>
          <ns3:TrackPointExtension>
            <ns3:atemp>25.0</ns3:atemp>
          </ns3:TrackPointExtension>
        </extensions>
      </trkpt>
      <trkpt lat="42.596173770725727081298828125" lon="19.93237051181495189666748046875">
        <ele>914.4000244140625</ele>
        <time>2026-06-16T12:26:50.000Z</time>
        <extensions>
          <ns3:TrackPointExtension>
            <ns3:atemp>25.0</ns3:atemp>
          </ns3:TrackPointExtension>
        </extensions>
      </trkpt>
      <trkpt lat="42.596173770725727081298828125" lon="19.93237051181495189666748046875">
        <ele>914.4000244140625</ele>
        <time>2026-06-16T12:26:51.000Z</time>
        <extensions>
          <ns3:TrackPointExtension>
            <ns3:atemp>25.0</ns3:atemp>
          </ns3:TrackPointExtension>
        </extensions>
      </trkpt>
      <trkpt lat="42.596173770725727081298828125" lon="19.93237051181495189666748046875">
        <ele>914.4000244140625</ele>
        <time>2026-06-16T12:26:52.000Z</time>
        <extensions>
          <ns3:TrackPointExtension>
            <ns3:atemp>25.0</ns3:atemp>
          </ns3:TrackPointExtension>
        </extensions>
      </trkpt>
      <trkpt lat="42.596173770725727081298828125" lon="19.93237051181495189666748046875">
        <ele>914.4000244140625</ele>
        <time>2026-06-16T12:26:53.000Z</time>
        <extensions>
          <ns3:TrackPointExtension>
            <ns3:atemp>25.0</ns3:atemp>
          </ns3:TrackPointExtension>
        </extensions>
      </trkpt>
      <trkpt lat="42.596173770725727081298828125" lon="19.93237051181495189666748046875">
        <ele>914.4000244140625</ele>
        <time>2026-06-16T12:26:54.000Z</time>
        <extensions>
          <ns3:TrackPointExtension>
            <ns3:atemp>25.0</ns3:atemp>
          </ns3:TrackPointExtension>
        </extensions>
      </trkpt>
      <trkpt lat="42.596173770725727081298828125" lon="19.93237051181495189666748046875">
        <ele>914.4000244140625</ele>
        <time>2026-06-16T12:26:55.000Z</time>
        <extensions>
          <ns3:TrackPointExtension>
            <ns3:atemp>25.0</ns3:atemp>
          </ns3:TrackPointExtension>
        </extensions>
      </trkpt>
      <trkpt lat="42.596173770725727081298828125" lon="19.93237051181495189666748046875">
        <ele>914.4000244140625</ele>
        <time>2026-06-16T12:26:56.000Z</time>
        <extensions>
          <ns3:TrackPointExtension>
            <ns3:atemp>25.0</ns3:atemp>
          </ns3:TrackPointExtension>
        </extensions>
      </trkpt>
      <trkpt lat="42.59617486037313938140869140625" lon="19.93237202055752277374267578125">
        <ele>914.4000244140625</ele>
        <time>2026-06-16T12:26:57.000Z</time>
        <extensions>
          <ns3:TrackPointExtension>
            <ns3:atemp>25.0</ns3:atemp>
          </ns3:TrackPointExtension>
        </extensions>
      </trkpt>
      <trkpt lat="42.5961782969534397125244140625" lon="19.93238057009875774383544921875">
        <ele>914.4000244140625</ele>
        <time>2026-06-16T12:26:58.000Z</time>
        <extensions>
          <ns3:TrackPointExtension>
            <ns3:atemp>25.0</ns3:atemp>
          </ns3:TrackPointExtension>
        </extensions>
      </trkpt>
      <trkpt lat="42.5961779616773128509521484375" lon="19.93239096365869045257568359375">
        <ele>914.4000244140625</ele>
        <time>2026-06-16T12:26:59.000Z</time>
        <extensions>
          <ns3:TrackPointExtension>
            <ns3:atemp>25.0</ns3:atemp>
          </ns3:TrackPointExtension>
        </extensions>
      </trkpt>
      <trkpt lat="42.59617838077247142791748046875" lon="19.93239649571478366851806640625">
        <ele>914.4000244140625</ele>
        <time>2026-06-16T12:27:00.000Z</time>
        <extensions>
          <ns3:TrackPointExtension>
            <ns3:atemp>25.0</ns3:atemp>
          </ns3:TrackPointExtension>
        </extensions>
      </trkpt>
      <trkpt lat="42.596179135143756866455078125" lon="19.93239632807672023773193359375">
        <ele>914.4000244140625</ele>
        <time>2026-06-16T12:27:01.000Z</time>
        <extensions>
          <ns3:TrackPointExtension>
            <ns3:atemp>25.0</ns3:atemp>
          </ns3:TrackPointExtension>
        </extensions>
      </trkpt>
      <trkpt lat="42.596179135143756866455078125" lon="19.93239632807672023773193359375">
        <ele>914.4000244140625</ele>
        <time>2026-06-16T12:27:02.000Z</time>
        <extensions>
          <ns3:TrackPointExtension>
            <ns3:atemp>25.0</ns3:atemp>
          </ns3:TrackPointExtension>
        </extensions>
      </trkpt>
      <trkpt lat="42.596179135143756866455078125" lon="19.93239632807672023773193359375">
        <ele>914.4000244140625</ele>
        <time>2026-06-16T12:27:03.000Z</time>
        <extensions>
          <ns3:TrackPointExtension>
            <ns3:atemp>25.0</ns3:atemp>
          </ns3:TrackPointExtension>
        </extensions>
      </trkpt>
      <trkpt lat="42.596179135143756866455078125" lon="19.93239632807672023773193359375">
        <ele>914.4000244140625</ele>
        <time>2026-06-16T12:27:04.000Z</time>
        <extensions>
          <ns3:TrackPointExtension>
            <ns3:atemp>25.0</ns3:atemp>
          </ns3:TrackPointExtension>
        </extensions>
      </trkpt>
      <trkpt lat="42.596179135143756866455078125" lon="19.93239632807672023773193359375">
        <ele>914.4000244140625</ele>
        <time>2026-06-16T12:27:05.000Z</time>
        <extensions>
          <ns3:TrackPointExtension>
            <ns3:atemp>25.0</ns3:atemp>
          </ns3:TrackPointExtension>
        </extensions>
      </trkpt>
      <trkpt lat="42.596179135143756866455078125" lon="19.93239632807672023773193359375">
        <ele>914.4000244140625</ele>
        <time>2026-06-16T12:27:06.000Z</time>
        <extensions>
          <ns3:TrackPointExtension>
            <ns3:atemp>25.0</ns3:atemp>
          </ns3:TrackPointExtension>
        </extensions>
      </trkpt>
      <trkpt lat="42.596179135143756866455078125" lon="19.93239632807672023773193359375">
        <ele>914.4000244140625</ele>
        <time>2026-06-16T12:27:07.000Z</time>
        <extensions>
          <ns3:TrackPointExtension>
            <ns3:atemp>25.0</ns3:atemp>
          </ns3:TrackPointExtension>
        </extensions>
      </trkpt>
      <trkpt lat="42.596179135143756866455078125" lon="19.93239632807672023773193359375">
        <ele>914.4000244140625</ele>
        <time>2026-06-16T12:27:08.000Z</time>
        <extensions>
          <ns3:TrackPointExtension>
            <ns3:atemp>25.0</ns3:atemp>
          </ns3:TrackPointExtension>
        </extensions>
      </trkpt>
      <trkpt lat="42.596179135143756866455078125" lon="19.93239632807672023773193359375">
        <ele>914.4000244140625</ele>
        <time>2026-06-16T12:27:09.000Z</time>
        <extensions>
          <ns3:TrackPointExtension>
            <ns3:atemp>25.0</ns3:atemp>
          </ns3:TrackPointExtension>
        </extensions>
      </trkpt>
      <trkpt lat="42.596179135143756866455078125" lon="19.93239632807672023773193359375">
        <ele>914.4000244140625</ele>
        <time>2026-06-16T12:27:10.000Z</time>
        <extensions>
          <ns3:TrackPointExtension>
            <ns3:atemp>25.0</ns3:atemp>
          </ns3:TrackPointExtension>
        </extensions>
      </trkpt>
      <trkpt lat="42.596179135143756866455078125" lon="19.93239632807672023773193359375">
        <ele>914.4000244140625</ele>
        <time>2026-06-16T12:27:11.000Z</time>
        <extensions>
          <ns3:TrackPointExtension>
            <ns3:atemp>25.0</ns3:atemp>
          </ns3:TrackPointExtension>
        </extensions>
      </trkpt>
      <trkpt lat="42.596179135143756866455078125" lon="19.93239632807672023773193359375">
        <ele>914.4000244140625</ele>
        <time>2026-06-16T12:27:12.000Z</time>
        <extensions>
          <ns3:TrackPointExtension>
            <ns3:atemp>25.0</ns3:atemp>
          </ns3:TrackPointExtension>
        </extensions>
      </trkpt>
      <trkpt lat="42.596179135143756866455078125" lon="19.93239632807672023773193359375">
        <ele>914.4000244140625</ele>
        <time>2026-06-16T12:27:13.000Z</time>
        <extensions>
          <ns3:TrackPointExtension>
            <ns3:atemp>25.0</ns3:atemp>
          </ns3:TrackPointExtension>
        </extensions>
      </trkpt>
      <trkpt lat="42.596179135143756866455078125" lon="19.93239632807672023773193359375">
        <ele>914.4000244140625</ele>
        <time>2026-06-16T12:27:14.000Z</time>
        <extensions>
          <ns3:TrackPointExtension>
            <ns3:atemp>25.0</ns3:atemp>
          </ns3:TrackPointExtension>
        </extensions>
      </trkpt>
      <trkpt lat="42.596179135143756866455078125" lon="19.93239632807672023773193359375">
        <ele>914.4000244140625</ele>
        <time>2026-06-16T12:27:15.000Z</time>
        <extensions>
          <ns3:TrackPointExtension>
            <ns3:atemp>25.0</ns3:atemp>
          </ns3:TrackPointExtension>
        </extensions>
      </trkpt>
      <trkpt lat="42.596179135143756866455078125" lon="19.93239632807672023773193359375">
        <ele>914.4000244140625</ele>
        <time>2026-06-16T12:27:16.000Z</time>
        <extensions>
          <ns3:TrackPointExtension>
            <ns3:atemp>25.0</ns3:atemp>
          </ns3:TrackPointExtension>
        </extensions>
      </trkpt>
      <trkpt lat="42.596179135143756866455078125" lon="19.93239632807672023773193359375">
        <ele>914.4000244140625</ele>
        <time>2026-06-16T12:27:17.000Z</time>
        <extensions>
          <ns3:TrackPointExtension>
            <ns3:atemp>25.0</ns3:atemp>
          </ns3:TrackPointExtension>
        </extensions>
      </trkpt>
      <trkpt lat="42.596179135143756866455078125" lon="19.93239632807672023773193359375">
        <ele>914.4000244140625</ele>
        <time>2026-06-16T12:27:18.000Z</time>
        <extensions>
          <ns3:TrackPointExtension>
            <ns3:atemp>25.0</ns3:atemp>
          </ns3:TrackPointExtension>
        </extensions>
      </trkpt>
      <trkpt lat="42.596179135143756866455078125" lon="19.93239632807672023773193359375">
        <ele>914.4000244140625</ele>
        <time>2026-06-16T12:27:19.000Z</time>
        <extensions>
          <ns3:TrackPointExtension>
            <ns3:atemp>25.0</ns3:atemp>
          </ns3:TrackPointExtension>
        </extensions>
      </trkpt>
      <trkpt lat="42.59618190117180347442626953125" lon="19.932398088276386260986328125">
        <ele>914.4000244140625</ele>
        <time>2026-06-16T12:27:20.000Z</time>
        <extensions>
          <ns3:TrackPointExtension>
            <ns3:atemp>25.0</ns3:atemp>
          </ns3:TrackPointExtension>
        </extensions>
      </trkpt>
      <trkpt lat="42.5961933843791484832763671875" lon="19.9324165284633636474609375">
        <ele>914.4000244140625</ele>
        <time>2026-06-16T12:27:21.000Z</time>
        <extensions>
          <ns3:TrackPointExtension>
            <ns3:atemp>25.0</ns3:atemp>
          </ns3:TrackPointExtension>
        </extensions>
      </trkpt>
      <trkpt lat="42.59620352648198604583740234375" lon="19.93243454955518245697021484375">
        <ele>914.4000244140625</ele>
        <time>2026-06-16T12:27:22.000Z</time>
        <extensions>
          <ns3:TrackPointExtension>
            <ns3:atemp>25.0</ns3:atemp>
          </ns3:TrackPointExtension>
        </extensions>
      </trkpt>
      <trkpt lat="42.596212662756443023681640625" lon="19.93245466612279415130615234375">
        <ele>914.4000244140625</ele>
        <time>2026-06-16T12:27:23.000Z</time>
        <extensions>
          <ns3:TrackPointExtension>
            <ns3:atemp>25.0</ns3:atemp>
          </ns3:TrackPointExtension>
        </extensions>
      </trkpt>
      <trkpt lat="42.59622179903090000152587890625" lon="19.93248232640326023101806640625">
        <ele>914.4000244140625</ele>
        <time>2026-06-16T12:27:24.000Z</time>
        <extensions>
          <ns3:TrackPointExtension>
            <ns3:atemp>25.0</ns3:atemp>
          </ns3:TrackPointExtension>
        </extensions>
      </trkpt>
      <trkpt lat="42.59623001329600811004638671875" lon="19.93251082487404346466064453125">
        <ele>914.4000244140625</ele>
        <time>2026-06-16T12:27:25.000Z</time>
        <extensions>
          <ns3:TrackPointExtension>
            <ns3:atemp>25.0</ns3:atemp>
          </ns3:TrackPointExtension>
        </extensions>
      </trkpt>
      <trkpt lat="42.5962373055517673492431640625" lon="19.9325437657535076141357421875">
        <ele>914.20001220703125</ele>
        <time>2026-06-16T12:27:26.000Z</time>
        <extensions>
          <ns3:TrackPointExtension>
            <ns3:atemp>25.0</ns3:atemp>
          </ns3:TrackPointExtension>
        </extensions>
      </trkpt>
      <trkpt lat="42.5962430052459239959716796875" lon="19.93257469497621059417724609375">
        <ele>914.20001220703125</ele>
        <time>2026-06-16T12:27:27.000Z</time>
        <extensions>
          <ns3:TrackPointExtension>
            <ns3:atemp>25.0</ns3:atemp>
          </ns3:TrackPointExtension>
        </extensions>
      </trkpt>
      <trkpt lat="42.5962470285594463348388671875" lon="19.93260369636118412017822265625">
        <ele>914.20001220703125</ele>
        <time>2026-06-16T12:27:28.000Z</time>
        <extensions>
          <ns3:TrackPointExtension>
            <ns3:atemp>25.0</ns3:atemp>
          </ns3:TrackPointExtension>
        </extensions>
      </trkpt>
      <trkpt lat="42.59625189006328582763671875" lon="19.9326295964419841766357421875">
        <ele>914</ele>
        <time>2026-06-16T12:27:29.000Z</time>
        <extensions>
          <ns3:TrackPointExtension>
            <ns3:atemp>25.0</ns3:atemp>
          </ns3:TrackPointExtension>
        </extensions>
      </trkpt>
      <trkpt lat="42.59625993669033050537109375" lon="19.9326601065695285797119140625">
        <ele>914</ele>
        <time>2026-06-16T12:27:30.000Z</time>
        <extensions>
          <ns3:TrackPointExtension>
            <ns3:atemp>25.0</ns3:atemp>
          </ns3:TrackPointExtension>
        </extensions>
      </trkpt>
      <trkpt lat="42.5962694920599460601806640625" lon="19.93269103579223155975341796875">
        <ele>914.20001220703125</ele>
        <time>2026-06-16T12:27:31.000Z</time>
        <extensions>
          <ns3:TrackPointExtension>
            <ns3:atemp>25.0</ns3:atemp>
          </ns3:TrackPointExtension>
        </extensions>
      </trkpt>
      <trkpt lat="42.5962808914482593536376953125" lon="19.932728670537471771240234375">
        <ele>914.20001220703125</ele>
        <time>2026-06-16T12:27:32.000Z</time>
        <extensions>
          <ns3:TrackPointExtension>
            <ns3:atemp>25.0</ns3:atemp>
          </ns3:TrackPointExtension>
        </extensions>
      </trkpt>
      <trkpt lat="42.5962966494262218475341796875" lon="19.9327576719224452972412109375">
        <ele>914.20001220703125</ele>
        <time>2026-06-16T12:27:33.000Z</time>
        <extensions>
          <ns3:TrackPointExtension>
            <ns3:atemp>25.0</ns3:atemp>
          </ns3:TrackPointExtension>
        </extensions>
      </trkpt>
      <trkpt lat="42.59631232358515262603759765625" lon="19.93278290145099163055419921875">
        <ele>914.20001220703125</ele>
        <time>2026-06-16T12:27:34.000Z</time>
        <extensions>
          <ns3:TrackPointExtension>
            <ns3:atemp>25.0</ns3:atemp>
          </ns3:TrackPointExtension>
        </extensions>
      </trkpt>
      <trkpt lat="42.596326656639575958251953125" lon="19.9328116513788700103759765625">
        <ele>914</ele>
        <time>2026-06-16T12:27:35.000Z</time>
        <extensions>
          <ns3:TrackPointExtension>
            <ns3:atemp>25.0</ns3:atemp>
          </ns3:TrackPointExtension>
        </extensions>
      </trkpt>
      <trkpt lat="42.59633696638047695159912109375" lon="19.93284023366868495941162109375">
        <ele>914</ele>
        <time>2026-06-16T12:27:36.000Z</time>
        <extensions>
          <ns3:TrackPointExtension>
            <ns3:atemp>25.0</ns3:atemp>
          </ns3:TrackPointExtension>
        </extensions>
      </trkpt>
      <trkpt lat="42.59634417481720447540283203125" lon="19.93287585675716400146484375">
        <ele>914</ele>
        <time>2026-06-16T12:27:37.000Z</time>
        <extensions>
          <ns3:TrackPointExtension>
            <ns3:atemp>25.0</ns3:atemp>
          </ns3:TrackPointExtension>
        </extensions>
      </trkpt>
      <trkpt lat="42.59635339491069316864013671875" lon="19.9329127371311187744140625">
        <ele>914</ele>
        <time>2026-06-16T12:27:38.000Z</time>
        <extensions>
          <ns3:TrackPointExtension>
            <ns3:atemp>25.0</ns3:atemp>
          </ns3:TrackPointExtension>
        </extensions>
      </trkpt>
      <trkpt lat="42.59636311791837215423583984375" lon="19.93294768966734409332275390625">
        <ele>914</ele>
        <time>2026-06-16T12:27:39.000Z</time>
        <extensions>
          <ns3:TrackPointExtension>
            <ns3:atemp>25.0</ns3:atemp>
          </ns3:TrackPointExtension>
        </extensions>
      </trkpt>
      <trkpt lat="42.59637418203055858612060546875" lon="19.93298524059355258941650390625">
        <ele>914</ele>
        <time>2026-06-16T12:27:40.000Z</time>
        <extensions>
          <ns3:TrackPointExtension>
            <ns3:atemp>25.0</ns3:atemp>
          </ns3:TrackPointExtension>
        </extensions>
      </trkpt>
      <trkpt lat="42.596384994685649871826171875" lon="19.9330188520252704620361328125">
        <ele>914</ele>
        <time>2026-06-16T12:27:41.000Z</time>
        <extensions>
          <ns3:TrackPointExtension>
            <ns3:atemp>25.0</ns3:atemp>
          </ns3:TrackPointExtension>
        </extensions>
      </trkpt>
      <trkpt lat="42.59639312513172626495361328125" lon="19.933053217828273773193359375">
        <ele>913.79998779296875</ele>
        <time>2026-06-16T12:27:42.000Z</time>
        <extensions>
          <ns3:TrackPointExtension>
            <ns3:atemp>25.0</ns3:atemp>
          </ns3:TrackPointExtension>
        </extensions>
      </trkpt>
      <trkpt lat="42.5964009203016757965087890625" lon="19.93308833800256252288818359375">
        <ele>913.79998779296875</ele>
        <time>2026-06-16T12:27:43.000Z</time>
        <extensions>
          <ns3:TrackPointExtension>
            <ns3:atemp>25.0</ns3:atemp>
          </ns3:TrackPointExtension>
        </extensions>
      </trkpt>
      <trkpt lat="42.596410475671291351318359375" lon="19.93312186561524868011474609375">
        <ele>913.79998779296875</ele>
        <time>2026-06-16T12:27:44.000Z</time>
        <extensions>
          <ns3:TrackPointExtension>
            <ns3:atemp>25.0</ns3:atemp>
          </ns3:TrackPointExtension>
        </extensions>
      </trkpt>
      <trkpt lat="42.59642279706895351409912109375" lon="19.93315874598920345306396484375">
        <ele>913.79998779296875</ele>
        <time>2026-06-16T12:27:45.000Z</time>
        <extensions>
          <ns3:TrackPointExtension>
            <ns3:atemp>25.0</ns3:atemp>
          </ns3:TrackPointExtension>
        </extensions>
      </trkpt>
      <trkpt lat="42.5964336097240447998046875" lon="19.93319529108703136444091796875">
        <ele>913.79998779296875</ele>
        <time>2026-06-16T12:27:46.000Z</time>
        <extensions>
          <ns3:TrackPointExtension>
            <ns3:atemp>25.0</ns3:atemp>
          </ns3:TrackPointExtension>
        </extensions>
      </trkpt>
      <trkpt lat="42.59644559584558010101318359375" lon="19.9332320876419544219970703125">
        <ele>913.79998779296875</ele>
        <time>2026-06-16T12:27:47.000Z</time>
        <extensions>
          <ns3:TrackPointExtension>
            <ns3:atemp>25.0</ns3:atemp>
          </ns3:TrackPointExtension>
        </extensions>
      </trkpt>
      <trkpt lat="42.5964575819671154022216796875" lon="19.933271147310733795166015625">
        <ele>913.79998779296875</ele>
        <time>2026-06-16T12:27:48.000Z</time>
        <extensions>
          <ns3:TrackPointExtension>
            <ns3:atemp>25.0</ns3:atemp>
          </ns3:TrackPointExtension>
        </extensions>
      </trkpt>
      <trkpt lat="42.59646914899349212646484375" lon="19.9333095364272594451904296875">
        <ele>913.79998779296875</ele>
        <time>2026-06-16T12:27:49.000Z</time>
        <extensions>
          <ns3:TrackPointExtension>
            <ns3:atemp>25.0</ns3:atemp>
          </ns3:TrackPointExtension>
        </extensions>
      </trkpt>
      <trkpt lat="42.59648163802921772003173828125" lon="19.9333521164953708648681640625">
        <ele>913.79998779296875</ele>
        <time>2026-06-16T12:27:50.000Z</time>
        <extensions>
          <ns3:TrackPointExtension>
            <ns3:atemp>25.0</ns3:atemp>
          </ns3:TrackPointExtension>
        </extensions>
      </trkpt>
      <trkpt lat="42.59649102576076984405517578125" lon="19.93339695967733860015869140625">
        <ele>913.79998779296875</ele>
        <time>2026-06-16T12:27:51.000Z</time>
        <extensions>
          <ns3:TrackPointExtension>
            <ns3:atemp>25.0</ns3:atemp>
          </ns3:TrackPointExtension>
        </extensions>
      </trkpt>
      <trkpt lat="42.59650141932070255279541015625" lon="19.93343316949903964996337890625">
        <ele>913.79998779296875</ele>
        <time>2026-06-16T12:27:52.000Z</time>
        <extensions>
          <ns3:TrackPointExtension>
            <ns3:atemp>25.0</ns3:atemp>
          </ns3:TrackPointExtension>
        </extensions>
      </trkpt>
      <trkpt lat="42.596511729061603546142578125" lon="19.93347390554845333099365234375">
        <ele>913.79998779296875</ele>
        <time>2026-06-16T12:27:53.000Z</time>
        <extensions>
          <ns3:TrackPointExtension>
            <ns3:atemp>25.0</ns3:atemp>
          </ns3:TrackPointExtension>
        </extensions>
      </trkpt>
      <trkpt lat="42.59652279317378997802734375" lon="19.9335164017975330352783203125">
        <ele>913.79998779296875</ele>
        <time>2026-06-16T12:27:54.000Z</time>
        <extensions>
          <ns3:TrackPointExtension>
            <ns3:atemp>25.0</ns3:atemp>
          </ns3:TrackPointExtension>
        </extensions>
      </trkpt>
      <trkpt lat="42.59653477929532527923583984375" lon="19.9335573054850101470947265625">
        <ele>913.79998779296875</ele>
        <time>2026-06-16T12:27:55.000Z</time>
        <extensions>
          <ns3:TrackPointExtension>
            <ns3:atemp>25.0</ns3:atemp>
          </ns3:TrackPointExtension>
        </extensions>
      </trkpt>
      <trkpt lat="42.596543915569782257080078125" lon="19.933598376810550689697265625">
        <ele>913.79998779296875</ele>
        <time>2026-06-16T12:27:56.000Z</time>
        <extensions>
          <ns3:TrackPointExtension>
            <ns3:atemp>25.0</ns3:atemp>
          </ns3:TrackPointExtension>
        </extensions>
      </trkpt>
      <trkpt lat="42.59655405767261981964111328125" lon="19.93364037014544010162353515625">
        <ele>913.79998779296875</ele>
        <time>2026-06-16T12:27:57.000Z</time>
        <extensions>
          <ns3:TrackPointExtension>
            <ns3:atemp>25.0</ns3:atemp>
          </ns3:TrackPointExtension>
        </extensions>
      </trkpt>
      <trkpt lat="42.59656528942286968231201171875" lon="19.9336803518235683441162109375">
        <ele>913.79998779296875</ele>
        <time>2026-06-16T12:27:58.000Z</time>
        <extensions>
          <ns3:TrackPointExtension>
            <ns3:atemp>25.0</ns3:atemp>
          </ns3:TrackPointExtension>
        </extensions>
      </trkpt>
      <trkpt lat="42.5965739227831363677978515625" lon="19.93371949531137943267822265625">
        <ele>913.79998779296875</ele>
        <time>2026-06-16T12:27:59.000Z</time>
        <extensions>
          <ns3:TrackPointExtension>
            <ns3:atemp>25.0</ns3:atemp>
          </ns3:TrackPointExtension>
        </extensions>
      </trkpt>
      <trkpt lat="42.596582472324371337890625" lon="19.93375964462757110595703125">
        <ele>913.5999755859375</ele>
        <time>2026-06-16T12:28:00.000Z</time>
        <extensions>
          <ns3:TrackPointExtension>
            <ns3:atemp>25.0</ns3:atemp>
          </ns3:TrackPointExtension>
        </extensions>
      </trkpt>
      <trkpt lat="42.5965953804552555084228515625" lon="19.933796189725399017333984375">
        <ele>913.5999755859375</ele>
        <time>2026-06-16T12:28:01.000Z</time>
        <extensions>
          <ns3:TrackPointExtension>
            <ns3:atemp>25.0</ns3:atemp>
          </ns3:TrackPointExtension>
        </extensions>
      </trkpt>
      <trkpt lat="42.59660837240517139434814453125" lon="19.9338362552225589752197265625">
        <ele>913.5999755859375</ele>
        <time>2026-06-16T12:28:02.000Z</time>
        <extensions>
          <ns3:TrackPointExtension>
            <ns3:atemp>25.0</ns3:atemp>
          </ns3:TrackPointExtension>
        </extensions>
      </trkpt>
      <trkpt lat="42.596623040735721588134765625" lon="19.93387590162456035614013671875">
        <ele>913.5999755859375</ele>
        <time>2026-06-16T12:28:03.000Z</time>
        <extensions>
          <ns3:TrackPointExtension>
            <ns3:atemp>25.0</ns3:atemp>
          </ns3:TrackPointExtension>
        </extensions>
      </trkpt>
      <trkpt lat="42.5966349430382251739501953125" lon="19.9339197389781475067138671875">
        <ele>913.5999755859375</ele>
        <time>2026-06-16T12:28:04.000Z</time>
        <extensions>
          <ns3:TrackPointExtension>
            <ns3:atemp>25.0</ns3:atemp>
          </ns3:TrackPointExtension>
        </extensions>
      </trkpt>
      <trkpt lat="42.59664676152169704437255859375" lon="19.93396072648465633392333984375">
        <ele>913.5999755859375</ele>
        <time>2026-06-16T12:28:05.000Z</time>
        <extensions>
          <ns3:TrackPointExtension>
            <ns3:atemp>25.0</ns3:atemp>
          </ns3:TrackPointExtension>
        </extensions>
      </trkpt>
      <trkpt lat="42.59665732271969318389892578125" lon="19.93400163017213344573974609375">
        <ele>913.5999755859375</ele>
        <time>2026-06-16T12:28:06.000Z</time>
        <extensions>
          <ns3:TrackPointExtension>
            <ns3:atemp>25.0</ns3:atemp>
          </ns3:TrackPointExtension>
        </extensions>
      </trkpt>
      <trkpt lat="42.59666436351835727691650390625" lon="19.93403163738548755645751953125">
        <ele>913.5999755859375</ele>
        <time>2026-06-16T12:28:07.000Z</time>
        <extensions>
          <ns3:TrackPointExtension>
            <ns3:atemp>25.0</ns3:atemp>
          </ns3:TrackPointExtension>
        </extensions>
      </trkpt>
      <trkpt lat="42.59666972793638706207275390625" lon="19.934062398970127105712890625">
        <ele>913.5999755859375</ele>
        <time>2026-06-16T12:28:08.000Z</time>
        <extensions>
          <ns3:TrackPointExtension>
            <ns3:atemp>25.0</ns3:atemp>
          </ns3:TrackPointExtension>
        </extensions>
      </trkpt>
      <trkpt lat="42.59666754864156246185302734375" lon="19.9340984411537647247314453125">
        <ele>913.79998779296875</ele>
        <time>2026-06-16T12:28:09.000Z</time>
        <extensions>
          <ns3:TrackPointExtension>
            <ns3:atemp>25.0</ns3:atemp>
          </ns3:TrackPointExtension>
        </extensions>
      </trkpt>
      <trkpt lat="42.59667593054473400115966796875" lon="19.93413926102221012115478515625">
        <ele>913.79998779296875</ele>
        <time>2026-06-16T12:28:10.000Z</time>
        <extensions>
          <ns3:TrackPointExtension>
            <ns3:atemp>25.0</ns3:atemp>
          </ns3:TrackPointExtension>
        </extensions>
      </trkpt>
      <trkpt lat="42.59669017978012561798095703125" lon="19.93417848832905292510986328125">
        <ele>913.79998779296875</ele>
        <time>2026-06-16T12:28:11.000Z</time>
        <extensions>
          <ns3:TrackPointExtension>
            <ns3:atemp>25.0</ns3:atemp>
          </ns3:TrackPointExtension>
        </extensions>
      </trkpt>
      <trkpt lat="42.5967070274055004119873046875" lon="19.93422978557646274566650390625">
        <ele>913.79998779296875</ele>
        <time>2026-06-16T12:28:12.000Z</time>
        <extensions>
          <ns3:TrackPointExtension>
            <ns3:atemp>25.0</ns3:atemp>
          </ns3:TrackPointExtension>
        </extensions>
      </trkpt>
      <trkpt lat="42.5967237912118434906005859375" lon="19.93428695015609264373779296875">
        <ele>913.79998779296875</ele>
        <time>2026-06-16T12:28:13.000Z</time>
        <extensions>
          <ns3:TrackPointExtension>
            <ns3:atemp>25.0</ns3:atemp>
          </ns3:TrackPointExtension>
        </extensions>
      </trkpt>
      <trkpt lat="42.59674273431301116943359375" lon="19.93434570729732513427734375">
        <ele>913.5999755859375</ele>
        <time>2026-06-16T12:28:14.000Z</time>
        <extensions>
          <ns3:TrackPointExtension>
            <ns3:atemp>25.0</ns3:atemp>
          </ns3:TrackPointExtension>
        </extensions>
      </trkpt>
      <trkpt lat="42.59676192887127399444580078125" lon="19.9344119243323802947998046875">
        <ele>913.5999755859375</ele>
        <time>2026-06-16T12:28:15.000Z</time>
        <extensions>
          <ns3:TrackPointExtension>
            <ns3:atemp>25.0</ns3:atemp>
          </ns3:TrackPointExtension>
        </extensions>
      </trkpt>
      <trkpt lat="42.59677902795374393463134765625" lon="19.93447302840650081634521484375">
        <ele>913.79998779296875</ele>
        <time>2026-06-16T12:28:16.000Z</time>
        <extensions>
          <ns3:TrackPointExtension>
            <ns3:atemp>25.0</ns3:atemp>
          </ns3:TrackPointExtension>
        </extensions>
      </trkpt>
      <trkpt lat="42.59679646231234073638916015625" lon="19.93454142473638057708740234375">
        <ele>913.5999755859375</ele>
        <time>2026-06-16T12:28:17.000Z</time>
        <extensions>
          <ns3:TrackPointExtension>
            <ns3:atemp>25.0</ns3:atemp>
          </ns3:TrackPointExtension>
        </extensions>
      </trkpt>
      <trkpt lat="42.59681557305157184600830078125" lon="19.934608228504657745361328125">
        <ele>913.5999755859375</ele>
        <time>2026-06-16T12:28:18.000Z</time>
        <extensions>
          <ns3:TrackPointExtension>
            <ns3:atemp>25.0</ns3:atemp>
          </ns3:TrackPointExtension>
        </extensions>
      </trkpt>
      <trkpt lat="42.5968354381620883941650390625" lon="19.93467637337744235992431640625">
        <ele>913.5999755859375</ele>
        <time>2026-06-16T12:28:19.000Z</time>
        <extensions>
          <ns3:TrackPointExtension>
            <ns3:atemp>25.0</ns3:atemp>
          </ns3:TrackPointExtension>
        </extensions>
      </trkpt>
      <trkpt lat="42.59685748256742954254150390625" lon="19.9347458593547344207763671875">
        <ele>913.5999755859375</ele>
        <time>2026-06-16T12:28:20.000Z</time>
        <extensions>
          <ns3:TrackPointExtension>
            <ns3:atemp>25.0</ns3:atemp>
          </ns3:TrackPointExtension>
        </extensions>
      </trkpt>
      <trkpt lat="42.5968783535063266754150390625" lon="19.9348102323710918426513671875">
        <ele>913.5999755859375</ele>
        <time>2026-06-16T12:28:21.000Z</time>
        <extensions>
          <ns3:TrackPointExtension>
            <ns3:atemp>25.0</ns3:atemp>
          </ns3:TrackPointExtension>
        </extensions>
      </trkpt>
      <trkpt lat="42.59690157137811183929443359375" lon="19.9348776228725910186767578125">
        <ele>913.5999755859375</ele>
        <time>2026-06-16T12:28:22.000Z</time>
        <extensions>
          <ns3:TrackPointExtension>
            <ns3:atemp>25.0</ns3:atemp>
          </ns3:TrackPointExtension>
        </extensions>
      </trkpt>
      <trkpt lat="42.5969376973807811737060546875" lon="19.93492380715906620025634765625">
        <ele>913.79998779296875</ele>
        <time>2026-06-16T12:28:23.000Z</time>
        <extensions>
          <ns3:TrackPointExtension>
            <ns3:atemp>25.0</ns3:atemp>
          </ns3:TrackPointExtension>
        </extensions>
      </trkpt>
      <trkpt lat="42.59698069654405117034912109375" lon="19.9349413253366947174072265625">
        <ele>913.79998779296875</ele>
        <time>2026-06-16T12:28:24.000Z</time>
        <extensions>
          <ns3:TrackPointExtension>
            <ns3:atemp>25.0</ns3:atemp>
          </ns3:TrackPointExtension>
        </extensions>
      </trkpt>
      <trkpt lat="42.597027383744716644287109375" lon="19.9349473603069782257080078125">
        <ele>914</ele>
        <time>2026-06-16T12:28:25.000Z</time>
        <extensions>
          <ns3:TrackPointExtension>
            <ns3:atemp>25.0</ns3:atemp>
          </ns3:TrackPointExtension>
        </extensions>
      </trkpt>
      <trkpt lat="42.59707641787827014923095703125" lon="19.9349564127624034881591796875">
        <ele>914</ele>
        <time>2026-06-16T12:28:26.000Z</time>
        <extensions>
          <ns3:TrackPointExtension>
            <ns3:atemp>25.0</ns3:atemp>
          </ns3:TrackPointExtension>
        </extensions>
      </trkpt>
      <trkpt lat="42.59712503291666507720947265625" lon="19.93497845716774463653564453125">
        <ele>914</ele>
        <time>2026-06-16T12:28:27.000Z</time>
        <extensions>
          <ns3:TrackPointExtension>
            <ns3:atemp>25.0</ns3:atemp>
          </ns3:TrackPointExtension>
        </extensions>
      </trkpt>
      <trkpt lat="42.5971698760986328125" lon="19.9350137449800968170166015625">
        <ele>914</ele>
        <time>2026-06-16T12:28:28.000Z</time>
        <extensions>
          <ns3:TrackPointExtension>
            <ns3:atemp>25.0</ns3:atemp>
          </ns3:TrackPointExtension>
        </extensions>
      </trkpt>
      <trkpt lat="42.59720918722450733184814453125" lon="19.93506110273301601409912109375">
        <ele>914</ele>
        <time>2026-06-16T12:28:29.000Z</time>
        <extensions>
          <ns3:TrackPointExtension>
            <ns3:atemp>25.0</ns3:atemp>
          </ns3:TrackPointExtension>
        </extensions>
      </trkpt>
      <trkpt lat="42.59724296629428863525390625" lon="19.93511608801782131195068359375">
        <ele>914</ele>
        <time>2026-06-16T12:28:30.000Z</time>
        <extensions>
          <ns3:TrackPointExtension>
            <ns3:atemp>25.0</ns3:atemp>
          </ns3:TrackPointExtension>
        </extensions>
      </trkpt>
      <trkpt lat="42.59726953692734241485595703125" lon="19.93517274968326091766357421875">
        <ele>914</ele>
        <time>2026-06-16T12:28:31.000Z</time>
        <extensions>
          <ns3:TrackPointExtension>
            <ns3:atemp>25.0</ns3:atemp>
          </ns3:TrackPointExtension>
        </extensions>
      </trkpt>
      <trkpt lat="42.5972865521907806396484375" lon="19.9352306686341762542724609375">
        <ele>914.20001220703125</ele>
        <time>2026-06-16T12:28:32.000Z</time>
        <extensions>
          <ns3:TrackPointExtension>
            <ns3:atemp>25.0</ns3:atemp>
          </ns3:TrackPointExtension>
        </extensions>
      </trkpt>
      <trkpt lat="42.59729518555104732513427734375" lon="19.93528992868959903717041015625">
        <ele>914.5999755859375</ele>
        <time>2026-06-16T12:28:33.000Z</time>
        <extensions>
          <ns3:TrackPointExtension>
            <ns3:atemp>25.0</ns3:atemp>
          </ns3:TrackPointExtension>
        </extensions>
      </trkpt>
      <trkpt lat="42.59729937650263309478759765625" lon="19.93534843437373638153076171875">
        <ele>914.79998779296875</ele>
        <time>2026-06-16T12:28:34.000Z</time>
        <extensions>
          <ns3:TrackPointExtension>
            <ns3:atemp>25.0</ns3:atemp>
          </ns3:TrackPointExtension>
        </extensions>
      </trkpt>
      <trkpt lat="42.5973001308739185333251953125" lon="19.93539981544017791748046875">
        <ele>915</ele>
        <time>2026-06-16T12:28:35.000Z</time>
        <extensions>
          <ns3:TrackPointExtension>
            <ns3:atemp>25.0</ns3:atemp>
          </ns3:TrackPointExtension>
        </extensions>
      </trkpt>
      <trkpt lat="42.59730423800647258758544921875" lon="19.9354452453553676605224609375">
        <ele>915.4000244140625</ele>
        <time>2026-06-16T12:28:36.000Z</time>
        <extensions>
          <ns3:TrackPointExtension>
            <ns3:atemp>25.0</ns3:atemp>
          </ns3:TrackPointExtension>
        </extensions>
      </trkpt>
      <trkpt lat="42.5973132066428661346435546875" lon="19.935494698584079742431640625">
        <ele>915.5999755859375</ele>
        <time>2026-06-16T12:28:37.000Z</time>
        <extensions>
          <ns3:TrackPointExtension>
            <ns3:atemp>25.0</ns3:atemp>
          </ns3:TrackPointExtension>
        </extensions>
      </trkpt>
      <trkpt lat="42.5973215885460376739501953125" lon="19.93553920648992061614990234375">
        <ele>915.79998779296875</ele>
        <time>2026-06-16T12:28:38.000Z</time>
        <extensions>
          <ns3:TrackPointExtension>
            <ns3:atemp>25.0</ns3:atemp>
          </ns3:TrackPointExtension>
        </extensions>
      </trkpt>
      <trkpt lat="42.59732636623084545135498046875" lon="19.93558279238641262054443359375">
        <ele>916</ele>
        <time>2026-06-16T12:28:39.000Z</time>
        <extensions>
          <ns3:TrackPointExtension>
            <ns3:atemp>25.0</ns3:atemp>
          </ns3:TrackPointExtension>
        </extensions>
      </trkpt>
      <trkpt lat="42.5973326526582241058349609375" lon="19.93562201969325542449951171875">
        <ele>916.20001220703125</ele>
        <time>2026-06-16T12:28:40.000Z</time>
        <extensions>
          <ns3:TrackPointExtension>
            <ns3:atemp>25.0</ns3:atemp>
          </ns3:TrackPointExtension>
        </extensions>
      </trkpt>
      <trkpt lat="42.597337849438190460205078125" lon="19.93566258810460567474365234375">
        <ele>916.5999755859375</ele>
        <time>2026-06-16T12:28:41.000Z</time>
        <extensions>
          <ns3:TrackPointExtension>
            <ns3:atemp>25.0</ns3:atemp>
          </ns3:TrackPointExtension>
        </extensions>
      </trkpt>
      <trkpt lat="42.5973373465240001678466796875" lon="19.9357022345066070556640625">
        <ele>916.79998779296875</ele>
        <time>2026-06-16T12:28:42.000Z</time>
        <extensions>
          <ns3:TrackPointExtension>
            <ns3:atemp>25.0</ns3:atemp>
          </ns3:TrackPointExtension>
        </extensions>
      </trkpt>
      <trkpt lat="42.59733843617141246795654296875" lon="19.9357355944812297821044921875">
        <ele>917</ele>
        <time>2026-06-16T12:28:43.000Z</time>
        <extensions>
          <ns3:TrackPointExtension>
            <ns3:atemp>25.0</ns3:atemp>
          </ns3:TrackPointExtension>
        </extensions>
      </trkpt>
      <trkpt lat="42.5973380170762538909912109375" lon="19.9357671104371547698974609375">
        <ele>917.4000244140625</ele>
        <time>2026-06-16T12:28:44.000Z</time>
        <extensions>
          <ns3:TrackPointExtension>
            <ns3:atemp>25.0</ns3:atemp>
          </ns3:TrackPointExtension>
        </extensions>
      </trkpt>
      <trkpt lat="42.59735159575939178466796875" lon="19.9357895739376544952392578125">
        <ele>917.5999755859375</ele>
        <time>2026-06-16T12:28:45.000Z</time>
        <extensions>
          <ns3:TrackPointExtension>
            <ns3:atemp>25.0</ns3:atemp>
          </ns3:TrackPointExtension>
        </extensions>
      </trkpt>
      <trkpt lat="42.59736768901348114013671875" lon="19.93578379042446613311767578125">
        <ele>917.79998779296875</ele>
        <time>2026-06-16T12:28:46.000Z</time>
        <extensions>
          <ns3:TrackPointExtension>
            <ns3:atemp>25.0</ns3:atemp>
          </ns3:TrackPointExtension>
        </extensions>
      </trkpt>
      <trkpt lat="42.59737146086990833282470703125" lon="19.93575713597238063812255859375">
        <ele>918</ele>
        <time>2026-06-16T12:28:47.000Z</time>
        <extensions>
          <ns3:TrackPointExtension>
            <ns3:atemp>25.0</ns3:atemp>
          </ns3:TrackPointExtension>
        </extensions>
      </trkpt>
      <trkpt lat="42.597372047603130340576171875" lon="19.93572696112096309661865234375">
        <ele>918.20001220703125</ele>
        <time>2026-06-16T12:28:48.000Z</time>
        <extensions>
          <ns3:TrackPointExtension>
            <ns3:atemp>25.0</ns3:atemp>
          </ns3:TrackPointExtension>
        </extensions>
      </trkpt>
      <trkpt lat="42.59736944921314716339111328125" lon="19.93570097722113132476806640625">
        <ele>918.20001220703125</ele>
        <time>2026-06-16T12:28:49.000Z</time>
        <extensions>
          <ns3:TrackPointExtension>
            <ns3:atemp>25.0</ns3:atemp>
          </ns3:TrackPointExtension>
        </extensions>
      </trkpt>
      <trkpt lat="42.59736794047057628631591796875" lon="19.93567205965518951416015625">
        <ele>918.20001220703125</ele>
        <time>2026-06-16T12:28:50.000Z</time>
        <extensions>
          <ns3:TrackPointExtension>
            <ns3:atemp>25.0</ns3:atemp>
          </ns3:TrackPointExtension>
        </extensions>
      </trkpt>
      <trkpt lat="42.597369365394115447998046875" lon="19.93564364500343799591064453125">
        <ele>918.20001220703125</ele>
        <time>2026-06-16T12:28:51.000Z</time>
        <extensions>
          <ns3:TrackPointExtension>
            <ns3:atemp>25.0</ns3:atemp>
          </ns3:TrackPointExtension>
        </extensions>
      </trkpt>
      <trkpt lat="42.59736576117575168609619140625" lon="19.93561849929392337799072265625">
        <ele>918.20001220703125</ele>
        <time>2026-06-16T12:28:52.000Z</time>
        <extensions>
          <ns3:TrackPointExtension>
            <ns3:atemp>25.0</ns3:atemp>
          </ns3:TrackPointExtension>
        </extensions>
      </trkpt>
      <trkpt lat="42.5973628275096416473388671875" lon="19.93559637106955051422119140625">
        <ele>918.20001220703125</ele>
        <time>2026-06-16T12:28:53.000Z</time>
        <extensions>
          <ns3:TrackPointExtension>
            <ns3:atemp>25.0</ns3:atemp>
          </ns3:TrackPointExtension>
        </extensions>
      </trkpt>
      <trkpt lat="42.597366683185100555419921875" lon="19.93559050373733043670654296875">
        <ele>918.20001220703125</ele>
        <time>2026-06-16T12:28:54.000Z</time>
        <extensions>
          <ns3:TrackPointExtension>
            <ns3:atemp>25.0</ns3:atemp>
          </ns3:TrackPointExtension>
        </extensions>
      </trkpt>
      <trkpt lat="42.597366012632846832275390625" lon="19.93558815680444240570068359375">
        <ele>918.4000244140625</ele>
        <time>2026-06-16T12:28:55.000Z</time>
        <extensions>
          <ns3:TrackPointExtension>
            <ns3:atemp>25.0</ns3:atemp>
          </ns3:TrackPointExtension>
        </extensions>
      </trkpt>
      <trkpt lat="42.597366012632846832275390625" lon="19.9355880729854106903076171875">
        <ele>918.4000244140625</ele>
        <time>2026-06-16T12:28:56.000Z</time>
        <extensions>
          <ns3:TrackPointExtension>
            <ns3:atemp>25.0</ns3:atemp>
          </ns3:TrackPointExtension>
        </extensions>
      </trkpt>
      <trkpt lat="42.597366012632846832275390625" lon="19.935587905347347259521484375">
        <ele>918.4000244140625</ele>
        <time>2026-06-16T12:28:57.000Z</time>
        <extensions>
          <ns3:TrackPointExtension>
            <ns3:atemp>25.0</ns3:atemp>
          </ns3:TrackPointExtension>
        </extensions>
      </trkpt>
      <trkpt lat="42.59736190550029277801513671875" lon="19.9355766735970973968505859375">
        <ele>918.4000244140625</ele>
        <time>2026-06-16T12:28:58.000Z</time>
        <extensions>
          <ns3:TrackPointExtension>
            <ns3:atemp>25.0</ns3:atemp>
          </ns3:TrackPointExtension>
        </extensions>
      </trkpt>
      <trkpt lat="42.59735888801515102386474609375" lon="19.93557139299809932708740234375">
        <ele>918.4000244140625</ele>
        <time>2026-06-16T12:28:59.000Z</time>
        <extensions>
          <ns3:TrackPointExtension>
            <ns3:atemp>25.0</ns3:atemp>
          </ns3:TrackPointExtension>
        </extensions>
      </trkpt>
      <trkpt lat="42.5973588041961193084716796875" lon="19.93557139299809932708740234375">
        <ele>918.20001220703125</ele>
        <time>2026-06-16T12:29:00.000Z</time>
        <extensions>
          <ns3:TrackPointExtension>
            <ns3:atemp>25.0</ns3:atemp>
          </ns3:TrackPointExtension>
        </extensions>
      </trkpt>
      <trkpt lat="42.5973691977560520172119140625" lon="19.935693182051181793212890625">
        <ele>918.79998779296875</ele>
        <time>2026-06-16T13:33:49.000Z</time>
        <extensions>
          <ns3:TrackPointExtension>
            <ns3:atemp>31.0</ns3:atemp>
          </ns3:TrackPointExtension>
        </extensions>
      </trkpt>
      <trkpt lat="42.5973755680024623870849609375" lon="19.93570835329592227935791015625">
        <ele>918.79998779296875</ele>
        <time>2026-06-16T13:33:50.000Z</time>
        <extensions>
          <ns3:TrackPointExtension>
            <ns3:atemp>31.0</ns3:atemp>
          </ns3:TrackPointExtension>
        </extensions>
      </trkpt>
      <trkpt lat="42.59738503955304622650146484375" lon="19.93571522645652294158935546875">
        <ele>918.5999755859375</ele>
        <time>2026-06-16T13:33:51.000Z</time>
        <extensions>
          <ns3:TrackPointExtension>
            <ns3:atemp>31.0</ns3:atemp>
          </ns3:TrackPointExtension>
        </extensions>
      </trkpt>
      <trkpt lat="42.5973930023610591888427734375" lon="19.9357168190181255340576171875">
        <ele>918.5999755859375</ele>
        <time>2026-06-16T13:33:52.000Z</time>
        <extensions>
          <ns3:TrackPointExtension>
            <ns3:atemp>30.0</ns3:atemp>
          </ns3:TrackPointExtension>
        </extensions>
      </trkpt>
      <trkpt lat="42.59740616194903850555419921875" lon="19.93570952676236629486083984375">
        <ele>918.5999755859375</ele>
        <time>2026-06-16T13:33:53.000Z</time>
        <extensions>
          <ns3:TrackPointExtension>
            <ns3:atemp>30.0</ns3:atemp>
          </ns3:TrackPointExtension>
        </extensions>
      </trkpt>
      <trkpt lat="42.59741370566189289093017578125" lon="19.9356967024505138397216796875">
        <ele>918.4000244140625</ele>
        <time>2026-06-16T13:33:54.000Z</time>
        <extensions>
          <ns3:TrackPointExtension>
            <ns3:atemp>30.0</ns3:atemp>
          </ns3:TrackPointExtension>
        </extensions>
      </trkpt>
      <trkpt lat="42.5974126160144805908203125" lon="19.93568169884383678436279296875">
        <ele>918.4000244140625</ele>
        <time>2026-06-16T13:33:55.000Z</time>
        <extensions>
          <ns3:TrackPointExtension>
            <ns3:atemp>30.0</ns3:atemp>
          </ns3:TrackPointExtension>
        </extensions>
      </trkpt>
      <trkpt lat="42.59740482084453105926513671875" lon="19.9356715567409992218017578125">
        <ele>918.4000244140625</ele>
        <time>2026-06-16T13:33:56.000Z</time>
        <extensions>
          <ns3:TrackPointExtension>
            <ns3:atemp>30.0</ns3:atemp>
          </ns3:TrackPointExtension>
        </extensions>
      </trkpt>
      <trkpt lat="42.59739451110363006591796875" lon="19.9356655217707157135009765625">
        <ele>918.4000244140625</ele>
        <time>2026-06-16T13:33:57.000Z</time>
        <extensions>
          <ns3:TrackPointExtension>
            <ns3:atemp>30.0</ns3:atemp>
          </ns3:TrackPointExtension>
        </extensions>
      </trkpt>
      <trkpt lat="42.597385458648204803466796875" lon="19.9356620013713836669921875">
        <ele>918.20001220703125</ele>
        <time>2026-06-16T13:33:58.000Z</time>
        <extensions>
          <ns3:TrackPointExtension>
            <ns3:atemp>30.0</ns3:atemp>
          </ns3:TrackPointExtension>
        </extensions>
      </trkpt>
      <trkpt lat="42.5973775796592235565185546875" lon="19.93565739132463932037353515625">
        <ele>918.20001220703125</ele>
        <time>2026-06-16T13:33:59.000Z</time>
        <extensions>
          <ns3:TrackPointExtension>
            <ns3:atemp>30.0</ns3:atemp>
          </ns3:TrackPointExtension>
        </extensions>
      </trkpt>
      <trkpt lat="42.59737573564052581787109375" lon="19.9356554634869098663330078125">
        <ele>918.20001220703125</ele>
        <time>2026-06-16T13:34:00.000Z</time>
        <extensions>
          <ns3:TrackPointExtension>
            <ns3:atemp>30.0</ns3:atemp>
          </ns3:TrackPointExtension>
        </extensions>
      </trkpt>
      <trkpt lat="42.59737573564052581787109375" lon="19.9356554634869098663330078125">
        <ele>918.20001220703125</ele>
        <time>2026-06-16T13:34:01.000Z</time>
        <extensions>
          <ns3:TrackPointExtension>
            <ns3:atemp>30.0</ns3:atemp>
          </ns3:TrackPointExtension>
        </extensions>
      </trkpt>
      <trkpt lat="42.59737573564052581787109375" lon="19.9356554634869098663330078125">
        <ele>918</ele>
        <time>2026-06-16T13:34:02.000Z</time>
        <extensions>
          <ns3:TrackPointExtension>
            <ns3:atemp>30.0</ns3:atemp>
          </ns3:TrackPointExtension>
        </extensions>
      </trkpt>
      <trkpt lat="42.59737573564052581787109375" lon="19.9356554634869098663330078125">
        <ele>918</ele>
        <time>2026-06-16T13:34:03.000Z</time>
        <extensions>
          <ns3:TrackPointExtension>
            <ns3:atemp>30.0</ns3:atemp>
          </ns3:TrackPointExtension>
        </extensions>
      </trkpt>
      <trkpt lat="42.59737573564052581787109375" lon="19.9356554634869098663330078125">
        <ele>918</ele>
        <time>2026-06-16T13:34:04.000Z</time>
        <extensions>
          <ns3:TrackPointExtension>
            <ns3:atemp>30.0</ns3:atemp>
          </ns3:TrackPointExtension>
        </extensions>
      </trkpt>
      <trkpt lat="42.59737573564052581787109375" lon="19.9356554634869098663330078125">
        <ele>918</ele>
        <time>2026-06-16T13:34:05.000Z</time>
        <extensions>
          <ns3:TrackPointExtension>
            <ns3:atemp>30.0</ns3:atemp>
          </ns3:TrackPointExtension>
        </extensions>
      </trkpt>
      <trkpt lat="42.59737573564052581787109375" lon="19.9356554634869098663330078125">
        <ele>918</ele>
        <time>2026-06-16T13:34:06.000Z</time>
        <extensions>
          <ns3:TrackPointExtension>
            <ns3:atemp>30.0</ns3:atemp>
          </ns3:TrackPointExtension>
        </extensions>
      </trkpt>
      <trkpt lat="42.59737573564052581787109375" lon="19.9356554634869098663330078125">
        <ele>918</ele>
        <time>2026-06-16T13:34:07.000Z</time>
        <extensions>
          <ns3:TrackPointExtension>
            <ns3:atemp>30.0</ns3:atemp>
          </ns3:TrackPointExtension>
        </extensions>
      </trkpt>
      <trkpt lat="42.59737573564052581787109375" lon="19.9356554634869098663330078125">
        <ele>918</ele>
        <time>2026-06-16T13:34:08.000Z</time>
        <extensions>
          <ns3:TrackPointExtension>
            <ns3:atemp>30.0</ns3:atemp>
          </ns3:TrackPointExtension>
        </extensions>
      </trkpt>
      <trkpt lat="42.59737573564052581787109375" lon="19.9356554634869098663330078125">
        <ele>918</ele>
        <time>2026-06-16T13:34:09.000Z</time>
        <extensions>
          <ns3:TrackPointExtension>
            <ns3:atemp>30.0</ns3:atemp>
          </ns3:TrackPointExtension>
        </extensions>
      </trkpt>
      <trkpt lat="42.59737573564052581787109375" lon="19.9356554634869098663330078125">
        <ele>918</ele>
        <time>2026-06-16T13:34:10.000Z</time>
        <extensions>
          <ns3:TrackPointExtension>
            <ns3:atemp>30.0</ns3:atemp>
          </ns3:TrackPointExtension>
        </extensions>
      </trkpt>
      <trkpt lat="42.59737573564052581787109375" lon="19.9356554634869098663330078125">
        <ele>918</ele>
        <time>2026-06-16T13:34:11.000Z</time>
        <extensions>
          <ns3:TrackPointExtension>
            <ns3:atemp>30.0</ns3:atemp>
          </ns3:TrackPointExtension>
        </extensions>
      </trkpt>
      <trkpt lat="42.59737573564052581787109375" lon="19.9356554634869098663330078125">
        <ele>918</ele>
        <time>2026-06-16T13:34:12.000Z</time>
        <extensions>
          <ns3:TrackPointExtension>
            <ns3:atemp>30.0</ns3:atemp>
          </ns3:TrackPointExtension>
        </extensions>
      </trkpt>
      <trkpt lat="42.59737573564052581787109375" lon="19.9356554634869098663330078125">
        <ele>917.79998779296875</ele>
        <time>2026-06-16T13:34:13.000Z</time>
        <extensions>
          <ns3:TrackPointExtension>
            <ns3:atemp>30.0</ns3:atemp>
          </ns3:TrackPointExtension>
        </extensions>
      </trkpt>
      <trkpt lat="42.59737573564052581787109375" lon="19.9356554634869098663330078125">
        <ele>917.79998779296875</ele>
        <time>2026-06-16T13:34:14.000Z</time>
        <extensions>
          <ns3:TrackPointExtension>
            <ns3:atemp>30.0</ns3:atemp>
          </ns3:TrackPointExtension>
        </extensions>
      </trkpt>
      <trkpt lat="42.59737573564052581787109375" lon="19.9356554634869098663330078125">
        <ele>917.79998779296875</ele>
        <time>2026-06-16T13:34:15.000Z</time>
        <extensions>
          <ns3:TrackPointExtension>
            <ns3:atemp>30.0</ns3:atemp>
          </ns3:TrackPointExtension>
        </extensions>
      </trkpt>
      <trkpt lat="42.59737573564052581787109375" lon="19.9356554634869098663330078125">
        <ele>917.79998779296875</ele>
        <time>2026-06-16T13:34:16.000Z</time>
        <extensions>
          <ns3:TrackPointExtension>
            <ns3:atemp>30.0</ns3:atemp>
          </ns3:TrackPointExtension>
        </extensions>
      </trkpt>
      <trkpt lat="42.59737573564052581787109375" lon="19.9356554634869098663330078125">
        <ele>917.79998779296875</ele>
        <time>2026-06-16T13:34:17.000Z</time>
        <extensions>
          <ns3:TrackPointExtension>
            <ns3:atemp>30.0</ns3:atemp>
          </ns3:TrackPointExtension>
        </extensions>
      </trkpt>
      <trkpt lat="42.59737573564052581787109375" lon="19.9356554634869098663330078125">
        <ele>917.79998779296875</ele>
        <time>2026-06-16T13:34:18.000Z</time>
        <extensions>
          <ns3:TrackPointExtension>
            <ns3:atemp>30.0</ns3:atemp>
          </ns3:TrackPointExtension>
        </extensions>
      </trkpt>
      <trkpt lat="42.59737573564052581787109375" lon="19.9356554634869098663330078125">
        <ele>917.79998779296875</ele>
        <time>2026-06-16T13:34:19.000Z</time>
        <extensions>
          <ns3:TrackPointExtension>
            <ns3:atemp>30.0</ns3:atemp>
          </ns3:TrackPointExtension>
        </extensions>
      </trkpt>
      <trkpt lat="42.59737573564052581787109375" lon="19.9356554634869098663330078125">
        <ele>917.5999755859375</ele>
        <time>2026-06-16T13:34:20.000Z</time>
        <extensions>
          <ns3:TrackPointExtension>
            <ns3:atemp>30.0</ns3:atemp>
          </ns3:TrackPointExtension>
        </extensions>
      </trkpt>
      <trkpt lat="42.59737573564052581787109375" lon="19.9356554634869098663330078125">
        <ele>917.5999755859375</ele>
        <time>2026-06-16T13:34:21.000Z</time>
        <extensions>
          <ns3:TrackPointExtension>
            <ns3:atemp>30.0</ns3:atemp>
          </ns3:TrackPointExtension>
        </extensions>
      </trkpt>
      <trkpt lat="42.59737573564052581787109375" lon="19.9356554634869098663330078125">
        <ele>917.5999755859375</ele>
        <time>2026-06-16T13:34:22.000Z</time>
        <extensions>
          <ns3:TrackPointExtension>
            <ns3:atemp>30.0</ns3:atemp>
          </ns3:TrackPointExtension>
        </extensions>
      </trkpt>
      <trkpt lat="42.59737573564052581787109375" lon="19.9356554634869098663330078125">
        <ele>917.5999755859375</ele>
        <time>2026-06-16T13:34:23.000Z</time>
        <extensions>
          <ns3:TrackPointExtension>
            <ns3:atemp>30.0</ns3:atemp>
          </ns3:TrackPointExtension>
        </extensions>
      </trkpt>
      <trkpt lat="42.59737573564052581787109375" lon="19.9356554634869098663330078125">
        <ele>917.5999755859375</ele>
        <time>2026-06-16T13:34:24.000Z</time>
        <extensions>
          <ns3:TrackPointExtension>
            <ns3:atemp>30.0</ns3:atemp>
          </ns3:TrackPointExtension>
        </extensions>
      </trkpt>
      <trkpt lat="42.59737573564052581787109375" lon="19.9356554634869098663330078125">
        <ele>917.5999755859375</ele>
        <time>2026-06-16T13:34:25.000Z</time>
        <extensions>
          <ns3:TrackPointExtension>
            <ns3:atemp>30.0</ns3:atemp>
          </ns3:TrackPointExtension>
        </extensions>
      </trkpt>
      <trkpt lat="42.59737573564052581787109375" lon="19.9356554634869098663330078125">
        <ele>917.5999755859375</ele>
        <time>2026-06-16T13:34:26.000Z</time>
        <extensions>
          <ns3:TrackPointExtension>
            <ns3:atemp>30.0</ns3:atemp>
          </ns3:TrackPointExtension>
        </extensions>
      </trkpt>
      <trkpt lat="42.59737573564052581787109375" lon="19.9356554634869098663330078125">
        <ele>917.5999755859375</ele>
        <time>2026-06-16T13:34:27.000Z</time>
        <extensions>
          <ns3:TrackPointExtension>
            <ns3:atemp>30.0</ns3:atemp>
          </ns3:TrackPointExtension>
        </extensions>
      </trkpt>
      <trkpt lat="42.59737573564052581787109375" lon="19.9356554634869098663330078125">
        <ele>917.5999755859375</ele>
        <time>2026-06-16T13:34:28.000Z</time>
        <extensions>
          <ns3:TrackPointExtension>
            <ns3:atemp>30.0</ns3:atemp>
          </ns3:TrackPointExtension>
        </extensions>
      </trkpt>
      <trkpt lat="42.59737573564052581787109375" lon="19.9356554634869098663330078125">
        <ele>917.5999755859375</ele>
        <time>2026-06-16T13:34:29.000Z</time>
        <extensions>
          <ns3:TrackPointExtension>
            <ns3:atemp>30.0</ns3:atemp>
          </ns3:TrackPointExtension>
        </extensions>
      </trkpt>
      <trkpt lat="42.59737573564052581787109375" lon="19.9356554634869098663330078125">
        <ele>917.5999755859375</ele>
        <time>2026-06-16T13:34:30.000Z</time>
        <extensions>
          <ns3:TrackPointExtension>
            <ns3:atemp>30.0</ns3:atemp>
          </ns3:TrackPointExtension>
        </extensions>
      </trkpt>
      <trkpt lat="42.59737573564052581787109375" lon="19.9356554634869098663330078125">
        <ele>917.5999755859375</ele>
        <time>2026-06-16T13:34:31.000Z</time>
        <extensions>
          <ns3:TrackPointExtension>
            <ns3:atemp>30.0</ns3:atemp>
          </ns3:TrackPointExtension>
        </extensions>
      </trkpt>
      <trkpt lat="42.59737573564052581787109375" lon="19.9356554634869098663330078125">
        <ele>917.4000244140625</ele>
        <time>2026-06-16T13:34:32.000Z</time>
        <extensions>
          <ns3:TrackPointExtension>
            <ns3:atemp>30.0</ns3:atemp>
          </ns3:TrackPointExtension>
        </extensions>
      </trkpt>
      <trkpt lat="42.59737573564052581787109375" lon="19.9356554634869098663330078125">
        <ele>917.4000244140625</ele>
        <time>2026-06-16T13:34:33.000Z</time>
        <extensions>
          <ns3:TrackPointExtension>
            <ns3:atemp>30.0</ns3:atemp>
          </ns3:TrackPointExtension>
        </extensions>
      </trkpt>
      <trkpt lat="42.597374059259891510009765625" lon="19.935655295848846435546875">
        <ele>917.4000244140625</ele>
        <time>2026-06-16T13:34:34.000Z</time>
        <extensions>
          <ns3:TrackPointExtension>
            <ns3:atemp>29.0</ns3:atemp>
          </ns3:TrackPointExtension>
        </extensions>
      </trkpt>
      <trkpt lat="42.59736810810863971710205078125" lon="19.9356671981513500213623046875">
        <ele>917.4000244140625</ele>
        <time>2026-06-16T13:34:35.000Z</time>
        <extensions>
          <ns3:TrackPointExtension>
            <ns3:atemp>29.0</ns3:atemp>
          </ns3:TrackPointExtension>
        </extensions>
      </trkpt>
      <trkpt lat="42.59736425243318080902099609375" lon="19.9356769211590290069580078125">
        <ele>917.20001220703125</ele>
        <time>2026-06-16T13:34:36.000Z</time>
        <extensions>
          <ns3:TrackPointExtension>
            <ns3:atemp>29.0</ns3:atemp>
          </ns3:TrackPointExtension>
        </extensions>
      </trkpt>
      <trkpt lat="42.5973645038902759552001953125" lon="19.93569108657538890838623046875">
        <ele>917.20001220703125</ele>
        <time>2026-06-16T13:34:37.000Z</time>
        <extensions>
          <ns3:TrackPointExtension>
            <ns3:atemp>29.0</ns3:atemp>
          </ns3:TrackPointExtension>
        </extensions>
      </trkpt>
      <trkpt lat="42.59737079031765460968017578125" lon="19.93571321479976177215576171875">
        <ele>917.20001220703125</ele>
        <time>2026-06-16T13:34:38.000Z</time>
        <extensions>
          <ns3:TrackPointExtension>
            <ns3:atemp>29.0</ns3:atemp>
          </ns3:TrackPointExtension>
        </extensions>
      </trkpt>
      <trkpt lat="42.5973762385547161102294921875" lon="19.93573785759508609771728515625">
        <ele>917.20001220703125</ele>
        <time>2026-06-16T13:34:39.000Z</time>
        <extensions>
          <ns3:TrackPointExtension>
            <ns3:atemp>29.0</ns3:atemp>
          </ns3:TrackPointExtension>
        </extensions>
      </trkpt>
      <trkpt lat="42.59738286025822162628173828125" lon="19.93576132692396640777587890625">
        <ele>917.20001220703125</ele>
        <time>2026-06-16T13:34:40.000Z</time>
        <extensions>
          <ns3:TrackPointExtension>
            <ns3:atemp>29.0</ns3:atemp>
          </ns3:TrackPointExtension>
        </extensions>
      </trkpt>
      <trkpt lat="42.59738554246723651885986328125" lon="19.93577943183481693267822265625">
        <ele>917.20001220703125</ele>
        <time>2026-06-16T13:34:41.000Z</time>
        <extensions>
          <ns3:TrackPointExtension>
            <ns3:atemp>29.0</ns3:atemp>
          </ns3:TrackPointExtension>
        </extensions>
      </trkpt>
      <trkpt lat="42.597385458648204803466796875" lon="19.9357907474040985107421875">
        <ele>917.20001220703125</ele>
        <time>2026-06-16T13:34:42.000Z</time>
        <extensions>
          <ns3:TrackPointExtension>
            <ns3:atemp>29.0</ns3:atemp>
          </ns3:TrackPointExtension>
        </extensions>
      </trkpt>
      <trkpt lat="42.5973826088011264801025390625" lon="19.93579904548823833465576171875">
        <ele>917.20001220703125</ele>
        <time>2026-06-16T13:34:43.000Z</time>
        <extensions>
          <ns3:TrackPointExtension>
            <ns3:atemp>29.0</ns3:atemp>
          </ns3:TrackPointExtension>
        </extensions>
      </trkpt>
      <trkpt lat="42.59738235734403133392333984375" lon="19.935809187591075897216796875">
        <ele>917.20001220703125</ele>
        <time>2026-06-16T13:34:44.000Z</time>
        <extensions>
          <ns3:TrackPointExtension>
            <ns3:atemp>29.0</ns3:atemp>
          </ns3:TrackPointExtension>
        </extensions>
      </trkpt>
      <trkpt lat="42.5973816029727458953857421875" lon="19.9358202517032623291015625">
        <ele>917.20001220703125</ele>
        <time>2026-06-16T13:34:45.000Z</time>
        <extensions>
          <ns3:TrackPointExtension>
            <ns3:atemp>29.0</ns3:atemp>
          </ns3:TrackPointExtension>
        </extensions>
      </trkpt>
      <trkpt lat="42.597382776439189910888671875" lon="19.93583475239574909210205078125">
        <ele>917.20001220703125</ele>
        <time>2026-06-16T13:34:46.000Z</time>
        <extensions>
          <ns3:TrackPointExtension>
            <ns3:atemp>29.0</ns3:atemp>
          </ns3:TrackPointExtension>
        </extensions>
      </trkpt>
      <trkpt lat="42.59738101623952388763427734375" lon="19.93585872463881969451904296875">
        <ele>917.20001220703125</ele>
        <time>2026-06-16T13:34:47.000Z</time>
        <extensions>
          <ns3:TrackPointExtension>
            <ns3:atemp>29.0</ns3:atemp>
          </ns3:TrackPointExtension>
        </extensions>
      </trkpt>
      <trkpt lat="42.59738084860146045684814453125" lon="19.93588504381477832794189453125">
        <ele>917.20001220703125</ele>
        <time>2026-06-16T13:34:48.000Z</time>
        <extensions>
          <ns3:TrackPointExtension>
            <ns3:atemp>29.0</ns3:atemp>
          </ns3:TrackPointExtension>
        </extensions>
      </trkpt>
      <trkpt lat="42.5973748974502086639404296875" lon="19.93590465746819972991943359375">
        <ele>917.4000244140625</ele>
        <time>2026-06-16T13:34:49.000Z</time>
        <extensions>
          <ns3:TrackPointExtension>
            <ns3:atemp>29.0</ns3:atemp>
          </ns3:TrackPointExtension>
        </extensions>
      </trkpt>
      <trkpt lat="42.5973675213754177093505859375" lon="19.935922510921955108642578125">
        <ele>917.4000244140625</ele>
        <time>2026-06-16T13:34:50.000Z</time>
        <extensions>
          <ns3:TrackPointExtension>
            <ns3:atemp>29.0</ns3:atemp>
          </ns3:TrackPointExtension>
        </extensions>
      </trkpt>
      <trkpt lat="42.59736307896673679351806640625" lon="19.93594304658472537994384765625">
        <ele>917.5999755859375</ele>
        <time>2026-06-16T13:34:51.000Z</time>
        <extensions>
          <ns3:TrackPointExtension>
            <ns3:atemp>29.0</ns3:atemp>
          </ns3:TrackPointExtension>
        </extensions>
      </trkpt>
      <trkpt lat="42.59736140258610248565673828125" lon="19.93596098385751247406005859375">
        <ele>917.5999755859375</ele>
        <time>2026-06-16T13:34:52.000Z</time>
        <extensions>
          <ns3:TrackPointExtension>
            <ns3:atemp>29.0</ns3:atemp>
          </ns3:TrackPointExtension>
        </extensions>
      </trkpt>
      <trkpt lat="42.59735788218677043914794921875" lon="19.93597783148288726806640625">
        <ele>917.79998779296875</ele>
        <time>2026-06-16T13:34:53.000Z</time>
        <extensions>
          <ns3:TrackPointExtension>
            <ns3:atemp>29.0</ns3:atemp>
          </ns3:TrackPointExtension>
        </extensions>
      </trkpt>
      <trkpt lat="42.59736098349094390869140625" lon="19.93599317036569118499755859375">
        <ele>918</ele>
        <time>2026-06-16T13:34:54.000Z</time>
        <extensions>
          <ns3:TrackPointExtension>
            <ns3:atemp>29.0</ns3:atemp>
          </ns3:TrackPointExtension>
        </extensions>
      </trkpt>
      <trkpt lat="42.59735402651131153106689453125" lon="19.93600658141076564788818359375">
        <ele>918.20001220703125</ele>
        <time>2026-06-16T13:34:55.000Z</time>
        <extensions>
          <ns3:TrackPointExtension>
            <ns3:atemp>29.0</ns3:atemp>
          </ns3:TrackPointExtension>
        </extensions>
      </trkpt>
      <trkpt lat="42.59734530933201313018798828125" lon="19.93602854199707508087158203125">
        <ele>918.20001220703125</ele>
        <time>2026-06-16T13:34:56.000Z</time>
        <extensions>
          <ns3:TrackPointExtension>
            <ns3:atemp>29.0</ns3:atemp>
          </ns3:TrackPointExtension>
        </extensions>
      </trkpt>
      <trkpt lat="42.59734313003718852996826171875" lon="19.93605670519173145294189453125">
        <ele>918.4000244140625</ele>
        <time>2026-06-16T13:34:57.000Z</time>
        <extensions>
          <ns3:TrackPointExtension>
            <ns3:atemp>29.0</ns3:atemp>
          </ns3:TrackPointExtension>
        </extensions>
      </trkpt>
      <trkpt lat="42.5973455607891082763671875" lon="19.93608243763446807861328125">
        <ele>918.4000244140625</ele>
        <time>2026-06-16T13:34:58.000Z</time>
        <extensions>
          <ns3:TrackPointExtension>
            <ns3:atemp>29.0</ns3:atemp>
          </ns3:TrackPointExtension>
        </extensions>
      </trkpt>
      <trkpt lat="42.5973494164645671844482421875" lon="19.936104230582714080810546875">
        <ele>918.5999755859375</ele>
        <time>2026-06-16T13:34:59.000Z</time>
        <extensions>
          <ns3:TrackPointExtension>
            <ns3:atemp>29.0</ns3:atemp>
          </ns3:TrackPointExtension>
        </extensions>
      </trkpt>
      <trkpt lat="42.59735293686389923095703125" lon="19.93612946011126041412353515625">
        <ele>918.79998779296875</ele>
        <time>2026-06-16T13:35:00.000Z</time>
        <extensions>
          <ns3:TrackPointExtension>
            <ns3:atemp>29.0</ns3:atemp>
          </ns3:TrackPointExtension>
        </extensions>
      </trkpt>
      <trkpt lat="42.59735553525388240814208984375" lon="19.9361600540578365325927734375">
        <ele>919</ele>
        <time>2026-06-16T13:35:01.000Z</time>
        <extensions>
          <ns3:TrackPointExtension>
            <ns3:atemp>29.0</ns3:atemp>
          </ns3:TrackPointExtension>
        </extensions>
      </trkpt>
      <trkpt lat="42.597359307110309600830078125" lon="19.93618461303412914276123046875">
        <ele>919.20001220703125</ele>
        <time>2026-06-16T13:35:02.000Z</time>
        <extensions>
          <ns3:TrackPointExtension>
            <ns3:atemp>29.0</ns3:atemp>
          </ns3:TrackPointExtension>
        </extensions>
      </trkpt>
      <trkpt lat="42.59736542589962482452392578125" lon="19.93620992638170719146728515625">
        <ele>919.5999755859375</ele>
        <time>2026-06-16T13:35:03.000Z</time>
        <extensions>
          <ns3:TrackPointExtension>
            <ns3:atemp>29.0</ns3:atemp>
          </ns3:TrackPointExtension>
        </extensions>
      </trkpt>
      <trkpt lat="42.59737280197441577911376953125" lon="19.93624362163245677947998046875">
        <ele>919.79998779296875</ele>
        <time>2026-06-16T13:35:04.000Z</time>
        <extensions>
          <ns3:TrackPointExtension>
            <ns3:atemp>29.0</ns3:atemp>
          </ns3:TrackPointExtension>
        </extensions>
      </trkpt>
      <trkpt lat="42.5973742268979549407958984375" lon="19.936283938586711883544921875">
        <ele>920</ele>
        <time>2026-06-16T13:35:05.000Z</time>
        <extensions>
          <ns3:TrackPointExtension>
            <ns3:atemp>29.0</ns3:atemp>
          </ns3:TrackPointExtension>
        </extensions>
      </trkpt>
      <trkpt lat="42.597375400364398956298828125" lon="19.936320148408412933349609375">
        <ele>920</ele>
        <time>2026-06-16T13:35:06.000Z</time>
        <extensions>
          <ns3:TrackPointExtension>
            <ns3:atemp>29.0</ns3:atemp>
          </ns3:TrackPointExtension>
        </extensions>
      </trkpt>
      <trkpt lat="42.59737464599311351776123046875" lon="19.93635359220206737518310546875">
        <ele>920.20001220703125</ele>
        <time>2026-06-16T13:35:07.000Z</time>
        <extensions>
          <ns3:TrackPointExtension>
            <ns3:atemp>29.0</ns3:atemp>
          </ns3:TrackPointExtension>
        </extensions>
      </trkpt>
      <trkpt lat="42.59737498126924037933349609375" lon="19.9363883771002292633056640625">
        <ele>920.4000244140625</ele>
        <time>2026-06-16T13:35:08.000Z</time>
        <extensions>
          <ns3:TrackPointExtension>
            <ns3:atemp>29.0</ns3:atemp>
          </ns3:TrackPointExtension>
        </extensions>
      </trkpt>
      <trkpt lat="42.5973769091069698333740234375" lon="19.93641846813261508941650390625">
        <ele>920.4000244140625</ele>
        <time>2026-06-16T13:35:09.000Z</time>
        <extensions>
          <ns3:TrackPointExtension>
            <ns3:atemp>29.0</ns3:atemp>
          </ns3:TrackPointExtension>
        </extensions>
      </trkpt>
      <trkpt lat="42.59737900458276271820068359375" lon="19.93644990026950836181640625">
        <ele>920.5999755859375</ele>
        <time>2026-06-16T13:35:10.000Z</time>
        <extensions>
          <ns3:TrackPointExtension>
            <ns3:atemp>29.0</ns3:atemp>
          </ns3:TrackPointExtension>
        </extensions>
      </trkpt>
      <trkpt lat="42.59738110005855560302734375" lon="19.9364758841693401336669921875">
        <ele>920.79998779296875</ele>
        <time>2026-06-16T13:35:11.000Z</time>
        <extensions>
          <ns3:TrackPointExtension>
            <ns3:atemp>29.0</ns3:atemp>
          </ns3:TrackPointExtension>
        </extensions>
      </trkpt>
      <trkpt lat="42.59738571010529994964599609375" lon="19.93650563992559909820556640625">
        <ele>921</ele>
        <time>2026-06-16T13:35:12.000Z</time>
        <extensions>
          <ns3:TrackPointExtension>
            <ns3:atemp>29.0</ns3:atemp>
          </ns3:TrackPointExtension>
        </extensions>
      </trkpt>
      <trkpt lat="42.59738872759044170379638671875" lon="19.93653665296733379364013671875">
        <ele>921.20001220703125</ele>
        <time>2026-06-16T13:35:13.000Z</time>
        <extensions>
          <ns3:TrackPointExtension>
            <ns3:atemp>29.0</ns3:atemp>
          </ns3:TrackPointExtension>
        </extensions>
      </trkpt>
      <trkpt lat="42.59739208035171031951904296875" lon="19.9365654028952121734619140625">
        <ele>921.5999755859375</ele>
        <time>2026-06-16T13:35:14.000Z</time>
        <extensions>
          <ns3:TrackPointExtension>
            <ns3:atemp>29.0</ns3:atemp>
          </ns3:TrackPointExtension>
        </extensions>
      </trkpt>
      <trkpt lat="42.597397528588771820068359375" lon="19.9365945719182491302490234375">
        <ele>921.79998779296875</ele>
        <time>2026-06-16T13:35:15.000Z</time>
        <extensions>
          <ns3:TrackPointExtension>
            <ns3:atemp>29.0</ns3:atemp>
          </ns3:TrackPointExtension>
        </extensions>
      </trkpt>
      <trkpt lat="42.5974045693874359130859375" lon="19.9366264231503009796142578125">
        <ele>922.20001220703125</ele>
        <time>2026-06-16T13:35:16.000Z</time>
        <extensions>
          <ns3:TrackPointExtension>
            <ns3:atemp>29.0</ns3:atemp>
          </ns3:TrackPointExtension>
        </extensions>
      </trkpt>
      <trkpt lat="42.5974134542047977447509765625" lon="19.936660788953304290771484375">
        <ele>922.4000244140625</ele>
        <time>2026-06-16T13:35:17.000Z</time>
        <extensions>
          <ns3:TrackPointExtension>
            <ns3:atemp>29.0</ns3:atemp>
          </ns3:TrackPointExtension>
        </extensions>
      </trkpt>
      <trkpt lat="42.59742560796439647674560546875" lon="19.93669171817600727081298828125">
        <ele>922.5999755859375</ele>
        <time>2026-06-16T13:35:18.000Z</time>
        <extensions>
          <ns3:TrackPointExtension>
            <ns3:atemp>29.0</ns3:atemp>
          </ns3:TrackPointExtension>
        </extensions>
      </trkpt>
      <trkpt lat="42.59743801318109035491943359375" lon="19.9367156066000461578369140625">
        <ele>922.79998779296875</ele>
        <time>2026-06-16T13:35:19.000Z</time>
        <extensions>
          <ns3:TrackPointExtension>
            <ns3:atemp>29.0</ns3:atemp>
          </ns3:TrackPointExtension>
        </extensions>
      </trkpt>
      <trkpt lat="42.59745217859745025634765625" lon="19.93673178367316722869873046875">
        <ele>923.20001220703125</ele>
        <time>2026-06-16T13:35:20.000Z</time>
        <extensions>
          <ns3:TrackPointExtension>
            <ns3:atemp>29.0</ns3:atemp>
          </ns3:TrackPointExtension>
        </extensions>
      </trkpt>
      <trkpt lat="42.59746751748025417327880859375" lon="19.93674200959503650665283203125">
        <ele>923.4000244140625</ele>
        <time>2026-06-16T13:35:21.000Z</time>
        <extensions>
          <ns3:TrackPointExtension>
            <ns3:atemp>29.0</ns3:atemp>
          </ns3:TrackPointExtension>
        </extensions>
      </trkpt>
      <trkpt lat="42.59748411364853382110595703125" lon="19.93675030767917633056640625">
        <ele>923.5999755859375</ele>
        <time>2026-06-16T13:35:22.000Z</time>
        <extensions>
          <ns3:TrackPointExtension>
            <ns3:atemp>29.0</ns3:atemp>
          </ns3:TrackPointExtension>
        </extensions>
      </trkpt>
      <trkpt lat="42.59750305674970149993896484375" lon="19.93675424717366695404052734375">
        <ele>924</ele>
        <time>2026-06-16T13:35:23.000Z</time>
        <extensions>
          <ns3:TrackPointExtension>
            <ns3:atemp>29.0</ns3:atemp>
          </ns3:TrackPointExtension>
        </extensions>
      </trkpt>
      <trkpt lat="42.59752736426889896392822265625" lon="19.93675625883042812347412109375">
        <ele>924.20001220703125</ele>
        <time>2026-06-16T13:35:24.000Z</time>
        <extensions>
          <ns3:TrackPointExtension>
            <ns3:atemp>29.0</ns3:atemp>
          </ns3:TrackPointExtension>
        </extensions>
      </trkpt>
      <trkpt lat="42.5975494086742401123046875" lon="19.9367588572204113006591796875">
        <ele>924.4000244140625</ele>
        <time>2026-06-16T13:35:25.000Z</time>
        <extensions>
          <ns3:TrackPointExtension>
            <ns3:atemp>29.0</ns3:atemp>
          </ns3:TrackPointExtension>
        </extensions>
      </trkpt>
      <trkpt lat="42.59757145307958126068115234375" lon="19.93675944395363330841064453125">
        <ele>924.79998779296875</ele>
        <time>2026-06-16T13:35:26.000Z</time>
        <extensions>
          <ns3:TrackPointExtension>
            <ns3:atemp>29.0</ns3:atemp>
          </ns3:TrackPointExtension>
        </extensions>
      </trkpt>
      <trkpt lat="42.59759156964719295501708984375" lon="19.93676363490521907806396484375">
        <ele>925</ele>
        <time>2026-06-16T13:35:27.000Z</time>
        <extensions>
          <ns3:TrackPointExtension>
            <ns3:atemp>29.0</ns3:atemp>
          </ns3:TrackPointExtension>
        </extensions>
      </trkpt>
      <trkpt lat="42.5976152904331684112548828125" lon="19.93676849640905857086181640625">
        <ele>925.20001220703125</ele>
        <time>2026-06-16T13:35:28.000Z</time>
        <extensions>
          <ns3:TrackPointExtension>
            <ns3:atemp>29.0</ns3:atemp>
          </ns3:TrackPointExtension>
        </extensions>
      </trkpt>
      <trkpt lat="42.59764194488525390625" lon="19.93676665239036083221435546875">
        <ele>925.4000244140625</ele>
        <time>2026-06-16T13:35:29.000Z</time>
        <extensions>
          <ns3:TrackPointExtension>
            <ns3:atemp>29.0</ns3:atemp>
          </ns3:TrackPointExtension>
        </extensions>
      </trkpt>
      <trkpt lat="42.59766600094735622406005859375" lon="19.93676497600972652435302734375">
        <ele>925.79998779296875</ele>
        <time>2026-06-16T13:35:30.000Z</time>
        <extensions>
          <ns3:TrackPointExtension>
            <ns3:atemp>29.0</ns3:atemp>
          </ns3:TrackPointExtension>
        </extensions>
      </trkpt>
      <trkpt lat="42.5976893864572048187255859375" lon="19.93676715530455112457275390625">
        <ele>926.20001220703125</ele>
        <time>2026-06-16T13:35:31.000Z</time>
        <extensions>
          <ns3:TrackPointExtension>
            <ns3:atemp>29.0</ns3:atemp>
          </ns3:TrackPointExtension>
        </extensions>
      </trkpt>
      <trkpt lat="42.5977135263383388519287109375" lon="19.93676950223743915557861328125">
        <ele>926.4000244140625</ele>
        <time>2026-06-16T13:35:32.000Z</time>
        <extensions>
          <ns3:TrackPointExtension>
            <ns3:atemp>29.0</ns3:atemp>
          </ns3:TrackPointExtension>
        </extensions>
      </trkpt>
      <trkpt lat="42.5977386720478534698486328125" lon="19.93676614947617053985595703125">
        <ele>926.79998779296875</ele>
        <time>2026-06-16T13:35:33.000Z</time>
        <extensions>
          <ns3:TrackPointExtension>
            <ns3:atemp>29.0</ns3:atemp>
          </ns3:TrackPointExtension>
        </extensions>
      </trkpt>
      <trkpt lat="42.59776532649993896484375" lon="19.9367598630487918853759765625">
        <ele>927</ele>
        <time>2026-06-16T13:35:34.000Z</time>
        <extensions>
          <ns3:TrackPointExtension>
            <ns3:atemp>29.0</ns3:atemp>
          </ns3:TrackPointExtension>
        </extensions>
      </trkpt>
      <trkpt lat="42.597792483866214752197265625" lon="19.93675542064011096954345703125">
        <ele>927.4000244140625</ele>
        <time>2026-06-16T13:35:35.000Z</time>
        <extensions>
          <ns3:TrackPointExtension>
            <ns3:atemp>29.0</ns3:atemp>
          </ns3:TrackPointExtension>
        </extensions>
      </trkpt>
      <trkpt lat="42.59781687520444393157958984375" lon="19.9367531575262546539306640625">
        <ele>927.5999755859375</ele>
        <time>2026-06-16T13:35:36.000Z</time>
        <extensions>
          <ns3:TrackPointExtension>
            <ns3:atemp>29.0</ns3:atemp>
          </ns3:TrackPointExtension>
        </extensions>
      </trkpt>
      <trkpt lat="42.597842775285243988037109375" lon="19.93674854747951030731201171875">
        <ele>928</ele>
        <time>2026-06-16T13:35:37.000Z</time>
        <extensions>
          <ns3:TrackPointExtension>
            <ns3:atemp>29.0</ns3:atemp>
          </ns3:TrackPointExtension>
        </extensions>
      </trkpt>
      <trkpt lat="42.5978690944612026214599609375" lon="19.93674226105213165283203125">
        <ele>928.4000244140625</ele>
        <time>2026-06-16T13:35:38.000Z</time>
        <extensions>
          <ns3:TrackPointExtension>
            <ns3:atemp>29.0</ns3:atemp>
          </ns3:TrackPointExtension>
        </extensions>
      </trkpt>
      <trkpt lat="42.59789348579943180084228515625" lon="19.936735890805721282958984375">
        <ele>928.5999755859375</ele>
        <time>2026-06-16T13:35:39.000Z</time>
        <extensions>
          <ns3:TrackPointExtension>
            <ns3:atemp>29.0</ns3:atemp>
          </ns3:TrackPointExtension>
        </extensions>
      </trkpt>
      <trkpt lat="42.59791997261345386505126953125" lon="19.93672993965446949005126953125">
        <ele>929</ele>
        <time>2026-06-16T13:35:40.000Z</time>
        <extensions>
          <ns3:TrackPointExtension>
            <ns3:atemp>29.0</ns3:atemp>
          </ns3:TrackPointExtension>
        </extensions>
      </trkpt>
      <trkpt lat="42.59794344194233417510986328125" lon="19.93672348558902740478515625">
        <ele>929.4000244140625</ele>
        <time>2026-06-16T13:35:41.000Z</time>
        <extensions>
          <ns3:TrackPointExtension>
            <ns3:atemp>29.0</ns3:atemp>
          </ns3:TrackPointExtension>
        </extensions>
      </trkpt>
      <trkpt lat="42.5979693420231342315673828125" lon="19.93671451695263385772705078125">
        <ele>929.5999755859375</ele>
        <time>2026-06-16T13:35:42.000Z</time>
        <extensions>
          <ns3:TrackPointExtension>
            <ns3:atemp>29.0</ns3:atemp>
          </ns3:TrackPointExtension>
        </extensions>
      </trkpt>
      <trkpt lat="42.59799356572329998016357421875" lon="19.93670730851590633392333984375">
        <ele>929.79998779296875</ele>
        <time>2026-06-16T13:35:43.000Z</time>
        <extensions>
          <ns3:TrackPointExtension>
            <ns3:atemp>29.0</ns3:atemp>
          </ns3:TrackPointExtension>
        </extensions>
      </trkpt>
      <trkpt lat="42.5980162806808948516845703125" lon="19.93669222109019756317138671875">
        <ele>930.20001220703125</ele>
        <time>2026-06-16T13:35:44.000Z</time>
        <extensions>
          <ns3:TrackPointExtension>
            <ns3:atemp>29.0</ns3:atemp>
          </ns3:TrackPointExtension>
        </extensions>
      </trkpt>
      <trkpt lat="42.59804067201912403106689453125" lon="19.93668333627283573150634765625">
        <ele>930.4000244140625</ele>
        <time>2026-06-16T13:35:45.000Z</time>
        <extensions>
          <ns3:TrackPointExtension>
            <ns3:atemp>29.0</ns3:atemp>
          </ns3:TrackPointExtension>
        </extensions>
      </trkpt>
      <trkpt lat="42.59806397370994091033935546875" lon="19.9366723559796810150146484375">
        <ele>930.79998779296875</ele>
        <time>2026-06-16T13:35:46.000Z</time>
        <extensions>
          <ns3:TrackPointExtension>
            <ns3:atemp>29.0</ns3:atemp>
          </ns3:TrackPointExtension>
        </extensions>
      </trkpt>
      <trkpt lat="42.59808576665818691253662109375" lon="19.93666087277233600616455078125">
        <ele>931</ele>
        <time>2026-06-16T13:35:47.000Z</time>
        <extensions>
          <ns3:TrackPointExtension>
            <ns3:atemp>29.0</ns3:atemp>
          </ns3:TrackPointExtension>
        </extensions>
      </trkpt>
      <trkpt lat="42.5981088168919086456298828125" lon="19.936644695699214935302734375">
        <ele>931.4000244140625</ele>
        <time>2026-06-16T13:35:48.000Z</time>
        <extensions>
          <ns3:TrackPointExtension>
            <ns3:atemp>29.0</ns3:atemp>
          </ns3:TrackPointExtension>
        </extensions>
      </trkpt>
      <trkpt lat="42.59813102893531322479248046875" lon="19.93662902154028415679931640625">
        <ele>931.5999755859375</ele>
        <time>2026-06-16T13:35:49.000Z</time>
        <extensions>
          <ns3:TrackPointExtension>
            <ns3:atemp>29.0</ns3:atemp>
          </ns3:TrackPointExtension>
        </extensions>
      </trkpt>
      <trkpt lat="42.5981555879116058349609375" lon="19.93661778979003429412841796875">
        <ele>932</ele>
        <time>2026-06-16T13:35:50.000Z</time>
        <extensions>
          <ns3:TrackPointExtension>
            <ns3:atemp>29.0</ns3:atemp>
          </ns3:TrackPointExtension>
        </extensions>
      </trkpt>
      <trkpt lat="42.5981770455837249755859375" lon="19.93660504929721355438232421875">
        <ele>932.4000244140625</ele>
        <time>2026-06-16T13:35:51.000Z</time>
        <extensions>
          <ns3:TrackPointExtension>
            <ns3:atemp>29.0</ns3:atemp>
          </ns3:TrackPointExtension>
        </extensions>
      </trkpt>
      <trkpt lat="42.59819858707487583160400390625" lon="19.93658996187150478363037109375">
        <ele>932.5999755859375</ele>
        <time>2026-06-16T13:35:52.000Z</time>
        <extensions>
          <ns3:TrackPointExtension>
            <ns3:atemp>29.0</ns3:atemp>
          </ns3:TrackPointExtension>
        </extensions>
      </trkpt>
      <trkpt lat="42.59822172112762928009033203125" lon="19.9365913867950439453125">
        <ele>933</ele>
        <time>2026-06-16T13:35:53.000Z</time>
        <extensions>
          <ns3:TrackPointExtension>
            <ns3:atemp>29.0</ns3:atemp>
          </ns3:TrackPointExtension>
        </extensions>
      </trkpt>
      <trkpt lat="42.598243094980716705322265625" lon="19.9366046302020549774169921875">
        <ele>933.20001220703125</ele>
        <time>2026-06-16T13:35:54.000Z</time>
        <extensions>
          <ns3:TrackPointExtension>
            <ns3:atemp>29.0</ns3:atemp>
          </ns3:TrackPointExtension>
        </extensions>
      </trkpt>
      <trkpt lat="42.59825742803514003753662109375" lon="19.9366190470755100250244140625">
        <ele>933.5999755859375</ele>
        <time>2026-06-16T13:35:55.000Z</time>
        <extensions>
          <ns3:TrackPointExtension>
            <ns3:atemp>29.0</ns3:atemp>
          </ns3:TrackPointExtension>
        </extensions>
      </trkpt>
      <trkpt lat="42.5982663966715335845947265625" lon="19.93663053028285503387451171875">
        <ele>933.79998779296875</ele>
        <time>2026-06-16T13:35:56.000Z</time>
        <extensions>
          <ns3:TrackPointExtension>
            <ns3:atemp>29.0</ns3:atemp>
          </ns3:TrackPointExtension>
        </extensions>
      </trkpt>
      <trkpt lat="42.598272264003753662109375" lon="19.93663539178669452667236328125">
        <ele>934</ele>
        <time>2026-06-16T13:35:57.000Z</time>
        <extensions>
          <ns3:TrackPointExtension>
            <ns3:atemp>29.0</ns3:atemp>
          </ns3:TrackPointExtension>
        </extensions>
      </trkpt>
      <trkpt lat="42.5982767902314662933349609375" lon="19.93664192967116832733154296875">
        <ele>934.20001220703125</ele>
        <time>2026-06-16T13:35:58.000Z</time>
        <extensions>
          <ns3:TrackPointExtension>
            <ns3:atemp>29.0</ns3:atemp>
          </ns3:TrackPointExtension>
        </extensions>
      </trkpt>
      <trkpt lat="42.5982788018882274627685546875" lon="19.93665098212659358978271484375">
        <ele>934.4000244140625</ele>
        <time>2026-06-16T13:35:59.000Z</time>
        <extensions>
          <ns3:TrackPointExtension>
            <ns3:atemp>29.0</ns3:atemp>
          </ns3:TrackPointExtension>
        </extensions>
      </trkpt>
      <trkpt lat="42.598283998668193817138671875" lon="19.93666020222008228302001953125">
        <ele>934.5999755859375</ele>
        <time>2026-06-16T13:36:00.000Z</time>
        <extensions>
          <ns3:TrackPointExtension>
            <ns3:atemp>29.0</ns3:atemp>
          </ns3:TrackPointExtension>
        </extensions>
      </trkpt>
      <trkpt lat="42.59829950518906116485595703125" lon="19.9366772174835205078125">
        <ele>934.5999755859375</ele>
        <time>2026-06-16T13:36:01.000Z</time>
        <extensions>
          <ns3:TrackPointExtension>
            <ns3:atemp>29.0</ns3:atemp>
          </ns3:TrackPointExtension>
        </extensions>
      </trkpt>
      <trkpt lat="42.59832649491727352142333984375" lon="19.93668903596699237823486328125">
        <ele>934.5999755859375</ele>
        <time>2026-06-16T13:36:02.000Z</time>
        <extensions>
          <ns3:TrackPointExtension>
            <ns3:atemp>29.0</ns3:atemp>
          </ns3:TrackPointExtension>
        </extensions>
      </trkpt>
      <trkpt lat="42.59835683740675449371337890625" lon="19.93669071234762668609619140625">
        <ele>934.5999755859375</ele>
        <time>2026-06-16T13:36:03.000Z</time>
        <extensions>
          <ns3:TrackPointExtension>
            <ns3:atemp>29.0</ns3:atemp>
          </ns3:TrackPointExtension>
        </extensions>
      </trkpt>
      <trkpt lat="42.5983917899429798126220703125" lon="19.93668618611991405487060546875">
        <ele>934.5999755859375</ele>
        <time>2026-06-16T13:36:04.000Z</time>
        <extensions>
          <ns3:TrackPointExtension>
            <ns3:atemp>29.0</ns3:atemp>
          </ns3:TrackPointExtension>
        </extensions>
      </trkpt>
      <trkpt lat="42.5984246470034122467041015625" lon="19.9366780556738376617431640625">
        <ele>934.5999755859375</ele>
        <time>2026-06-16T13:36:05.000Z</time>
        <extensions>
          <ns3:TrackPointExtension>
            <ns3:atemp>29.0</ns3:atemp>
          </ns3:TrackPointExtension>
        </extensions>
      </trkpt>
      <trkpt lat="42.59845708496868610382080078125" lon="19.93667311035096645355224609375">
        <ele>934.79998779296875</ele>
        <time>2026-06-16T13:36:06.000Z</time>
        <extensions>
          <ns3:TrackPointExtension>
            <ns3:atemp>29.0</ns3:atemp>
          </ns3:TrackPointExtension>
        </extensions>
      </trkpt>
      <trkpt lat="42.5984896905720233917236328125" lon="19.93668635375797748565673828125">
        <ele>934.79998779296875</ele>
        <time>2026-06-16T13:36:07.000Z</time>
        <extensions>
          <ns3:TrackPointExtension>
            <ns3:atemp>29.0</ns3:atemp>
          </ns3:TrackPointExtension>
        </extensions>
      </trkpt>
      <trkpt lat="42.59852430783212184906005859375" lon="19.93670873343944549560546875">
        <ele>935</ele>
        <time>2026-06-16T13:36:08.000Z</time>
        <extensions>
          <ns3:TrackPointExtension>
            <ns3:atemp>29.0</ns3:atemp>
          </ns3:TrackPointExtension>
        </extensions>
      </trkpt>
      <trkpt lat="42.59855615906417369842529296875" lon="19.936731867492198944091796875">
        <ele>935.20001220703125</ele>
        <time>2026-06-16T13:36:09.000Z</time>
        <extensions>
          <ns3:TrackPointExtension>
            <ns3:atemp>29.0</ns3:atemp>
          </ns3:TrackPointExtension>
        </extensions>
      </trkpt>
      <trkpt lat="42.59858532808721065521240234375" lon="19.93675894103944301605224609375">
        <ele>935.4000244140625</ele>
        <time>2026-06-16T13:36:10.000Z</time>
        <extensions>
          <ns3:TrackPointExtension>
            <ns3:atemp>28.0</ns3:atemp>
          </ns3:TrackPointExtension>
        </extensions>
      </trkpt>
      <trkpt lat="42.598611898720264434814453125" lon="19.93678861297667026519775390625">
        <ele>935.79998779296875</ele>
        <time>2026-06-16T13:36:11.000Z</time>
        <extensions>
          <ns3:TrackPointExtension>
            <ns3:atemp>28.0</ns3:atemp>
          </ns3:TrackPointExtension>
        </extensions>
      </trkpt>
      <trkpt lat="42.5986295007169246673583984375" lon="19.9368245713412761688232421875">
        <ele>936</ele>
        <time>2026-06-16T13:36:12.000Z</time>
        <extensions>
          <ns3:TrackPointExtension>
            <ns3:atemp>28.0</ns3:atemp>
          </ns3:TrackPointExtension>
        </extensions>
      </trkpt>
      <trkpt lat="42.59864618070423603057861328125" lon="19.93685566820204257965087890625">
        <ele>936.20001220703125</ele>
        <time>2026-06-16T13:36:13.000Z</time>
        <extensions>
          <ns3:TrackPointExtension>
            <ns3:atemp>29.0</ns3:atemp>
          </ns3:TrackPointExtension>
        </extensions>
      </trkpt>
      <trkpt lat="42.59866311214864253997802734375" lon="19.936885423958301544189453125">
        <ele>936.4000244140625</ele>
        <time>2026-06-16T13:36:14.000Z</time>
        <extensions>
          <ns3:TrackPointExtension>
            <ns3:atemp>28.0</ns3:atemp>
          </ns3:TrackPointExtension>
        </extensions>
      </trkpt>
      <trkpt lat="42.598679959774017333984375" lon="19.936913587152957916259765625">
        <ele>936.5999755859375</ele>
        <time>2026-06-16T13:36:15.000Z</time>
        <extensions>
          <ns3:TrackPointExtension>
            <ns3:atemp>29.0</ns3:atemp>
          </ns3:TrackPointExtension>
        </extensions>
      </trkpt>
      <trkpt lat="42.59869965724647045135498046875" lon="19.93694736622273921966552734375">
        <ele>936.79998779296875</ele>
        <time>2026-06-16T13:36:16.000Z</time>
        <extensions>
          <ns3:TrackPointExtension>
            <ns3:atemp>28.0</ns3:atemp>
          </ns3:TrackPointExtension>
        </extensions>
      </trkpt>
      <trkpt lat="42.59872832335531711578369140625" lon="19.936973266303539276123046875">
        <ele>937</ele>
        <time>2026-06-16T13:36:17.000Z</time>
        <extensions>
          <ns3:TrackPointExtension>
            <ns3:atemp>28.0</ns3:atemp>
          </ns3:TrackPointExtension>
        </extensions>
      </trkpt>
      <trkpt lat="42.59876436553895473480224609375" lon="19.93699648417532444000244140625">
        <ele>937</ele>
        <time>2026-06-16T13:36:18.000Z</time>
        <extensions>
          <ns3:TrackPointExtension>
            <ns3:atemp>28.0</ns3:atemp>
          </ns3:TrackPointExtension>
        </extensions>
      </trkpt>
      <trkpt lat="42.59880325756967067718505859375" lon="19.93701048195362091064453125">
        <ele>937.20001220703125</ele>
        <time>2026-06-16T13:36:19.000Z</time>
        <extensions>
          <ns3:TrackPointExtension>
            <ns3:atemp>28.0</ns3:atemp>
          </ns3:TrackPointExtension>
        </extensions>
      </trkpt>
      <trkpt lat="42.59884516708552837371826171875" lon="19.9370183609426021575927734375">
        <ele>937.4000244140625</ele>
        <time>2026-06-16T13:36:20.000Z</time>
        <extensions>
          <ns3:TrackPointExtension>
            <ns3:atemp>28.0</ns3:atemp>
          </ns3:TrackPointExtension>
        </extensions>
      </trkpt>
      <trkpt lat="42.5988876633346080780029296875" lon="19.93702255189418792724609375">
        <ele>937.4000244140625</ele>
        <time>2026-06-16T13:36:21.000Z</time>
        <extensions>
          <ns3:TrackPointExtension>
            <ns3:atemp>28.0</ns3:atemp>
          </ns3:TrackPointExtension>
        </extensions>
      </trkpt>
      <trkpt lat="42.5989305786788463592529296875" lon="19.937020204961299896240234375">
        <ele>937.5999755859375</ele>
        <time>2026-06-16T13:36:22.000Z</time>
        <extensions>
          <ns3:TrackPointExtension>
            <ns3:atemp>28.0</ns3:atemp>
          </ns3:TrackPointExtension>
        </extensions>
      </trkpt>
      <trkpt lat="42.5989701412618160247802734375" lon="19.937015511095523834228515625">
        <ele>937.5999755859375</ele>
        <time>2026-06-16T13:36:23.000Z</time>
        <extensions>
          <ns3:TrackPointExtension>
            <ns3:atemp>28.0</ns3:atemp>
          </ns3:TrackPointExtension>
        </extensions>
      </trkpt>
      <trkpt lat="42.59900962002575397491455078125" lon="19.9370096437633037567138671875">
        <ele>937.5999755859375</ele>
        <time>2026-06-16T13:36:24.000Z</time>
        <extensions>
          <ns3:TrackPointExtension>
            <ns3:atemp>28.0</ns3:atemp>
          </ns3:TrackPointExtension>
        </extensions>
      </trkpt>
      <trkpt lat="42.599047087132930755615234375" lon="19.93699866347014904022216796875">
        <ele>937.5999755859375</ele>
        <time>2026-06-16T13:36:25.000Z</time>
        <extensions>
          <ns3:TrackPointExtension>
            <ns3:atemp>28.0</ns3:atemp>
          </ns3:TrackPointExtension>
        </extensions>
      </trkpt>
      <trkpt lat="42.59908572770655155181884765625" lon="19.9369896948337554931640625">
        <ele>937.79998779296875</ele>
        <time>2026-06-16T13:36:26.000Z</time>
        <extensions>
          <ns3:TrackPointExtension>
            <ns3:atemp>28.0</ns3:atemp>
          </ns3:TrackPointExtension>
        </extensions>
      </trkpt>
      <trkpt lat="42.5991196744143962860107421875" lon="19.93698005564510822296142578125">
        <ele>937.79998779296875</ele>
        <time>2026-06-16T13:36:27.000Z</time>
        <extensions>
          <ns3:TrackPointExtension>
            <ns3:atemp>28.0</ns3:atemp>
          </ns3:TrackPointExtension>
        </extensions>
      </trkpt>
      <trkpt lat="42.599151693284511566162109375" lon="19.9369741044938564300537109375">
        <ele>938</ele>
        <time>2026-06-16T13:36:28.000Z</time>
        <extensions>
          <ns3:TrackPointExtension>
            <ns3:atemp>28.0</ns3:atemp>
          </ns3:TrackPointExtension>
        </extensions>
      </trkpt>
      <trkpt lat="42.599186562001705169677734375" lon="19.93696697987616062164306640625">
        <ele>938</ele>
        <time>2026-06-16T13:36:29.000Z</time>
        <extensions>
          <ns3:TrackPointExtension>
            <ns3:atemp>28.0</ns3:atemp>
          </ns3:TrackPointExtension>
        </extensions>
      </trkpt>
      <trkpt lat="42.5992212630808353424072265625" lon="19.93696781806647777557373046875">
        <ele>938.20001220703125</ele>
        <time>2026-06-16T13:36:30.000Z</time>
        <extensions>
          <ns3:TrackPointExtension>
            <ns3:atemp>28.0</ns3:atemp>
          </ns3:TrackPointExtension>
        </extensions>
      </trkpt>
      <trkpt lat="42.5992551259696483612060546875" lon="19.93696480058133602142333984375">
        <ele>938.20001220703125</ele>
        <time>2026-06-16T13:36:31.000Z</time>
        <extensions>
          <ns3:TrackPointExtension>
            <ns3:atemp>28.0</ns3:atemp>
          </ns3:TrackPointExtension>
        </extensions>
      </trkpt>
      <trkpt lat="42.599288485944271087646484375" lon="19.9369539879262447357177734375">
        <ele>938.4000244140625</ele>
        <time>2026-06-16T13:36:32.000Z</time>
        <extensions>
          <ns3:TrackPointExtension>
            <ns3:atemp>28.0</ns3:atemp>
          </ns3:TrackPointExtension>
        </extensions>
      </trkpt>
      <trkpt lat="42.59932477958500385284423828125" lon="19.93694602511823177337646484375">
        <ele>938.4000244140625</ele>
        <time>2026-06-16T13:36:33.000Z</time>
        <extensions>
          <ns3:TrackPointExtension>
            <ns3:atemp>28.0</ns3:atemp>
          </ns3:TrackPointExtension>
        </extensions>
      </trkpt>
      <trkpt lat="42.59935981594026088714599609375" lon="19.9369456060230731964111328125">
        <ele>938.5999755859375</ele>
        <time>2026-06-16T13:36:34.000Z</time>
        <extensions>
          <ns3:TrackPointExtension>
            <ns3:atemp>28.0</ns3:atemp>
          </ns3:TrackPointExtension>
        </extensions>
      </trkpt>
      <trkpt lat="42.599389739334583282470703125" lon="19.9369575083255767822265625">
        <ele>938.5999755859375</ele>
        <time>2026-06-16T13:36:35.000Z</time>
        <extensions>
          <ns3:TrackPointExtension>
            <ns3:atemp>28.0</ns3:atemp>
          </ns3:TrackPointExtension>
        </extensions>
      </trkpt>
      <trkpt lat="42.5994108617305755615234375" lon="19.936986677348613739013671875">
        <ele>938.79998779296875</ele>
        <time>2026-06-16T13:36:36.000Z</time>
        <extensions>
          <ns3:TrackPointExtension>
            <ns3:atemp>28.0</ns3:atemp>
          </ns3:TrackPointExtension>
        </extensions>
      </trkpt>
      <trkpt lat="42.59942452423274517059326171875" lon="19.93702389299869537353515625">
        <ele>938.79998779296875</ele>
        <time>2026-06-16T13:36:37.000Z</time>
        <extensions>
          <ns3:TrackPointExtension>
            <ns3:atemp>28.0</ns3:atemp>
          </ns3:TrackPointExtension>
        </extensions>
      </trkpt>
      <trkpt lat="42.5994284637272357940673828125" lon="19.93706814944744110107421875">
        <ele>938.79998779296875</ele>
        <time>2026-06-16T13:36:38.000Z</time>
        <extensions>
          <ns3:TrackPointExtension>
            <ns3:atemp>28.0</ns3:atemp>
          </ns3:TrackPointExtension>
        </extensions>
      </trkpt>
      <trkpt lat="42.5994157232344150543212890625" lon="19.9371216259896755218505859375">
        <ele>938.79998779296875</ele>
        <time>2026-06-16T13:36:39.000Z</time>
        <extensions>
          <ns3:TrackPointExtension>
            <ns3:atemp>28.0</ns3:atemp>
          </ns3:TrackPointExtension>
        </extensions>
      </trkpt>
      <trkpt lat="42.59939652867615222930908203125" lon="19.937168397009372711181640625">
        <ele>939</ele>
        <time>2026-06-16T13:36:40.000Z</time>
        <extensions>
          <ns3:TrackPointExtension>
            <ns3:atemp>28.0</ns3:atemp>
          </ns3:TrackPointExtension>
        </extensions>
      </trkpt>
      <trkpt lat="42.59937356226146221160888671875" lon="19.93720921687781810760498046875">
        <ele>939</ele>
        <time>2026-06-16T13:36:41.000Z</time>
        <extensions>
          <ns3:TrackPointExtension>
            <ns3:atemp>28.0</ns3:atemp>
          </ns3:TrackPointExtension>
        </extensions>
      </trkpt>
      <trkpt lat="42.59934984147548675537109375" lon="19.93725447915494441986083984375">
        <ele>939.20001220703125</ele>
        <time>2026-06-16T13:36:42.000Z</time>
        <extensions>
          <ns3:TrackPointExtension>
            <ns3:atemp>28.0</ns3:atemp>
          </ns3:TrackPointExtension>
        </extensions>
      </trkpt>
      <trkpt lat="42.59932972490787506103515625" lon="19.937294460833072662353515625">
        <ele>939.4000244140625</ele>
        <time>2026-06-16T13:36:43.000Z</time>
        <extensions>
          <ns3:TrackPointExtension>
            <ns3:atemp>28.0</ns3:atemp>
          </ns3:TrackPointExtension>
        </extensions>
      </trkpt>
      <trkpt lat="42.599302232265472412109375" lon="19.937332682311534881591796875">
        <ele>939.5999755859375</ele>
        <time>2026-06-16T13:36:44.000Z</time>
        <extensions>
          <ns3:TrackPointExtension>
            <ns3:atemp>28.0</ns3:atemp>
          </ns3:TrackPointExtension>
        </extensions>
      </trkpt>
      <trkpt lat="42.59927398525178432464599609375" lon="19.9373740889132022857666015625">
        <ele>939.79998779296875</ele>
        <time>2026-06-16T13:36:45.000Z</time>
        <extensions>
          <ns3:TrackPointExtension>
            <ns3:atemp>28.0</ns3:atemp>
          </ns3:TrackPointExtension>
        </extensions>
      </trkpt>
      <trkpt lat="42.59925001300871372222900390625" lon="19.93742329068481922149658203125">
        <ele>940.20001220703125</ele>
        <time>2026-06-16T13:36:46.000Z</time>
        <extensions>
          <ns3:TrackPointExtension>
            <ns3:atemp>28.0</ns3:atemp>
          </ns3:TrackPointExtension>
        </extensions>
      </trkpt>
      <trkpt lat="42.5992279686033725738525390625" lon="19.9374706484377384185791015625">
        <ele>940.20001220703125</ele>
        <time>2026-06-16T13:36:47.000Z</time>
        <extensions>
          <ns3:TrackPointExtension>
            <ns3:atemp>28.0</ns3:atemp>
          </ns3:TrackPointExtension>
        </extensions>
      </trkpt>
      <trkpt lat="42.5992078520357608795166015625" lon="19.9375179223716259002685546875">
        <ele>940.4000244140625</ele>
        <time>2026-06-16T13:36:48.000Z</time>
        <extensions>
          <ns3:TrackPointExtension>
            <ns3:atemp>28.0</ns3:atemp>
          </ns3:TrackPointExtension>
        </extensions>
      </trkpt>
      <trkpt lat="42.59918228723108768463134765625" lon="19.9375625140964984893798828125">
        <ele>940.5999755859375</ele>
        <time>2026-06-16T13:36:49.000Z</time>
        <extensions>
          <ns3:TrackPointExtension>
            <ns3:atemp>28.0</ns3:atemp>
          </ns3:TrackPointExtension>
        </extensions>
      </trkpt>
      <trkpt lat="42.5991585664451122283935546875" lon="19.9376087822020053863525390625">
        <ele>941</ele>
        <time>2026-06-16T13:36:50.000Z</time>
        <extensions>
          <ns3:TrackPointExtension>
            <ns3:atemp>28.0</ns3:atemp>
          </ns3:TrackPointExtension>
        </extensions>
      </trkpt>
      <trkpt lat="42.59913870133459568023681640625" lon="19.93765312246978282928466796875">
        <ele>941.20001220703125</ele>
        <time>2026-06-16T13:36:51.000Z</time>
        <extensions>
          <ns3:TrackPointExtension>
            <ns3:atemp>28.0</ns3:atemp>
          </ns3:TrackPointExtension>
        </extensions>
      </trkpt>
      <trkpt lat="42.59911715984344482421875" lon="19.93769704364240169525146484375">
        <ele>941.5999755859375</ele>
        <time>2026-06-16T13:36:52.000Z</time>
        <extensions>
          <ns3:TrackPointExtension>
            <ns3:atemp>28.0</ns3:atemp>
          </ns3:TrackPointExtension>
        </extensions>
      </trkpt>
      <trkpt lat="42.59909528307616710662841796875" lon="19.937741048634052276611328125">
        <ele>941.79998779296875</ele>
        <time>2026-06-16T13:36:53.000Z</time>
        <extensions>
          <ns3:TrackPointExtension>
            <ns3:atemp>28.0</ns3:atemp>
          </ns3:TrackPointExtension>
        </extensions>
      </trkpt>
      <trkpt lat="42.59907080791890621185302734375" lon="19.93778874166309833526611328125">
        <ele>942</ele>
        <time>2026-06-16T13:36:54.000Z</time>
        <extensions>
          <ns3:TrackPointExtension>
            <ns3:atemp>28.0</ns3:atemp>
          </ns3:TrackPointExtension>
        </extensions>
      </trkpt>
      <trkpt lat="42.5990487635135650634765625" lon="19.93783115409314632415771484375">
        <ele>942.20001220703125</ele>
        <time>2026-06-16T13:36:55.000Z</time>
        <extensions>
          <ns3:TrackPointExtension>
            <ns3:atemp>28.0</ns3:atemp>
          </ns3:TrackPointExtension>
        </extensions>
      </trkpt>
      <trkpt lat="42.59902671910822391510009765625" lon="19.937872476875782012939453125">
        <ele>942.4000244140625</ele>
        <time>2026-06-16T13:36:56.000Z</time>
        <extensions>
          <ns3:TrackPointExtension>
            <ns3:atemp>28.0</ns3:atemp>
          </ns3:TrackPointExtension>
        </extensions>
      </trkpt>
      <trkpt lat="42.59900626726448535919189453125" lon="19.9379165656864643096923828125">
        <ele>942.5999755859375</ele>
        <time>2026-06-16T13:36:57.000Z</time>
        <extensions>
          <ns3:TrackPointExtension>
            <ns3:atemp>28.0</ns3:atemp>
          </ns3:TrackPointExtension>
        </extensions>
      </trkpt>
      <trkpt lat="42.5989869050681591033935546875" lon="19.93795587681233882904052734375">
        <ele>942.79998779296875</ele>
        <time>2026-06-16T13:36:58.000Z</time>
        <extensions>
          <ns3:TrackPointExtension>
            <ns3:atemp>28.0</ns3:atemp>
          </ns3:TrackPointExtension>
        </extensions>
      </trkpt>
      <trkpt lat="42.59896268136799335479736328125" lon="19.937999881803989410400390625">
        <ele>943</ele>
        <time>2026-06-16T13:36:59.000Z</time>
        <extensions>
          <ns3:TrackPointExtension>
            <ns3:atemp>28.0</ns3:atemp>
          </ns3:TrackPointExtension>
        </extensions>
      </trkpt>
      <trkpt lat="42.5989387929439544677734375" lon="19.938045479357242584228515625">
        <ele>943.20001220703125</ele>
        <time>2026-06-16T13:37:00.000Z</time>
        <extensions>
          <ns3:TrackPointExtension>
            <ns3:atemp>28.0</ns3:atemp>
          </ns3:TrackPointExtension>
        </extensions>
      </trkpt>
      <trkpt lat="42.598916329443454742431640625" lon="19.93808881379663944244384765625">
        <ele>943.4000244140625</ele>
        <time>2026-06-16T13:37:01.000Z</time>
        <extensions>
          <ns3:TrackPointExtension>
            <ns3:atemp>28.0</ns3:atemp>
          </ns3:TrackPointExtension>
        </extensions>
      </trkpt>
      <trkpt lat="42.59889462031424045562744140625" lon="19.93813592009246349334716796875">
        <ele>943.79998779296875</ele>
        <time>2026-06-16T13:37:02.000Z</time>
        <extensions>
          <ns3:TrackPointExtension>
            <ns3:atemp>28.0</ns3:atemp>
          </ns3:TrackPointExtension>
        </extensions>
      </trkpt>
      <trkpt lat="42.59887165389955043792724609375" lon="19.9381827749311923980712890625">
        <ele>944</ele>
        <time>2026-06-16T13:37:03.000Z</time>
        <extensions>
          <ns3:TrackPointExtension>
            <ns3:atemp>28.0</ns3:atemp>
          </ns3:TrackPointExtension>
        </extensions>
      </trkpt>
      <trkpt lat="42.59884734638035297393798828125" lon="19.93823365308344364166259765625">
        <ele>944.20001220703125</ele>
        <time>2026-06-16T13:37:04.000Z</time>
        <extensions>
          <ns3:TrackPointExtension>
            <ns3:atemp>28.0</ns3:atemp>
          </ns3:TrackPointExtension>
        </extensions>
      </trkpt>
      <trkpt lat="42.59882320649921894073486328125" lon="19.93828293867409229278564453125">
        <ele>944.5999755859375</ele>
        <time>2026-06-16T13:37:05.000Z</time>
        <extensions>
          <ns3:TrackPointExtension>
            <ns3:atemp>28.0</ns3:atemp>
          </ns3:TrackPointExtension>
        </extensions>
      </trkpt>
      <trkpt lat="42.598799653351306915283203125" lon="19.9383296258747577667236328125">
        <ele>944.79998779296875</ele>
        <time>2026-06-16T13:37:06.000Z</time>
        <extensions>
          <ns3:TrackPointExtension>
            <ns3:atemp>28.0</ns3:atemp>
          </ns3:TrackPointExtension>
        </extensions>
      </trkpt>
      <trkpt lat="42.5987780280411243438720703125" lon="19.9383701942861080169677734375">
        <ele>945.20001220703125</ele>
        <time>2026-06-16T13:37:07.000Z</time>
        <extensions>
          <ns3:TrackPointExtension>
            <ns3:atemp>28.0</ns3:atemp>
          </ns3:TrackPointExtension>
        </extensions>
      </trkpt>
      <trkpt lat="42.59875682182610034942626953125" lon="19.93840917013585567474365234375">
        <ele>945.4000244140625</ele>
        <time>2026-06-16T13:37:08.000Z</time>
        <extensions>
          <ns3:TrackPointExtension>
            <ns3:atemp>28.0</ns3:atemp>
          </ns3:TrackPointExtension>
        </extensions>
      </trkpt>
      <trkpt lat="42.59873318485915660858154296875" lon="19.93845493532717227935791015625">
        <ele>945.5999755859375</ele>
        <time>2026-06-16T13:37:09.000Z</time>
        <extensions>
          <ns3:TrackPointExtension>
            <ns3:atemp>28.0</ns3:atemp>
          </ns3:TrackPointExtension>
        </extensions>
      </trkpt>
      <trkpt lat="42.59871038608253002166748046875" lon="19.93850673548877239227294921875">
        <ele>945.79998779296875</ele>
        <time>2026-06-16T13:37:10.000Z</time>
        <extensions>
          <ns3:TrackPointExtension>
            <ns3:atemp>28.0</ns3:atemp>
          </ns3:TrackPointExtension>
        </extensions>
      </trkpt>
      <trkpt lat="42.5986864976584911346435546875" lon="19.93855736218392848968505859375">
        <ele>946</ele>
        <time>2026-06-16T13:37:11.000Z</time>
        <extensions>
          <ns3:TrackPointExtension>
            <ns3:atemp>28.0</ns3:atemp>
          </ns3:TrackPointExtension>
        </extensions>
      </trkpt>
      <trkpt lat="42.59866319596767425537109375" lon="19.93860446847975254058837890625">
        <ele>946.20001220703125</ele>
        <time>2026-06-16T13:37:12.000Z</time>
        <extensions>
          <ns3:TrackPointExtension>
            <ns3:atemp>28.0</ns3:atemp>
          </ns3:TrackPointExtension>
        </extensions>
      </trkpt>
      <trkpt lat="42.59864064864814281463623046875" lon="19.9386446177959442138671875">
        <ele>946.20001220703125</ele>
        <time>2026-06-16T13:37:13.000Z</time>
        <extensions>
          <ns3:TrackPointExtension>
            <ns3:atemp>28.0</ns3:atemp>
          </ns3:TrackPointExtension>
        </extensions>
      </trkpt>
      <trkpt lat="42.5986154191195964813232421875" lon="19.938693232834339141845703125">
        <ele>946.4000244140625</ele>
        <time>2026-06-16T13:37:14.000Z</time>
        <extensions>
          <ns3:TrackPointExtension>
            <ns3:atemp>28.0</ns3:atemp>
          </ns3:TrackPointExtension>
        </extensions>
      </trkpt>
      <trkpt lat="42.59859119541943073272705078125" lon="19.9387426860630512237548828125">
        <ele>946.5999755859375</ele>
        <time>2026-06-16T13:37:15.000Z</time>
        <extensions>
          <ns3:TrackPointExtension>
            <ns3:atemp>28.0</ns3:atemp>
          </ns3:TrackPointExtension>
        </extensions>
      </trkpt>
      <trkpt lat="42.598566301167011260986328125" lon="19.93879272602498531341552734375">
        <ele>946.79998779296875</ele>
        <time>2026-06-16T13:37:16.000Z</time>
        <extensions>
          <ns3:TrackPointExtension>
            <ns3:atemp>28.0</ns3:atemp>
          </ns3:TrackPointExtension>
        </extensions>
      </trkpt>
      <trkpt lat="42.5985413230955600738525390625" lon="19.93884217925369739532470703125">
        <ele>946.79998779296875</ele>
        <time>2026-06-16T13:37:17.000Z</time>
        <extensions>
          <ns3:TrackPointExtension>
            <ns3:atemp>28.0</ns3:atemp>
          </ns3:TrackPointExtension>
        </extensions>
      </trkpt>
      <trkpt lat="42.59851760230958461761474609375" lon="19.9388922192156314849853515625">
        <ele>946.79998779296875</ele>
        <time>2026-06-16T13:37:18.000Z</time>
        <extensions>
          <ns3:TrackPointExtension>
            <ns3:atemp>28.0</ns3:atemp>
          </ns3:TrackPointExtension>
        </extensions>
      </trkpt>
      <trkpt lat="42.5984947197139263153076171875" lon="19.93893974460661411285400390625">
        <ele>946.79998779296875</ele>
        <time>2026-06-16T13:37:19.000Z</time>
        <extensions>
          <ns3:TrackPointExtension>
            <ns3:atemp>28.0</ns3:atemp>
          </ns3:TrackPointExtension>
        </extensions>
      </trkpt>
      <trkpt lat="42.59847401641309261322021484375" lon="19.9389825761318206787109375">
        <ele>946.79998779296875</ele>
        <time>2026-06-16T13:37:20.000Z</time>
        <extensions>
          <ns3:TrackPointExtension>
            <ns3:atemp>28.0</ns3:atemp>
          </ns3:TrackPointExtension>
        </extensions>
      </trkpt>
      <trkpt lat="42.59845205582678318023681640625" lon="19.9390223063528537750244140625">
        <ele>946.79998779296875</ele>
        <time>2026-06-16T13:37:21.000Z</time>
        <extensions>
          <ns3:TrackPointExtension>
            <ns3:atemp>28.0</ns3:atemp>
          </ns3:TrackPointExtension>
        </extensions>
      </trkpt>
      <trkpt lat="42.59842959232628345489501953125" lon="19.93906564079225063323974609375">
        <ele>946.5999755859375</ele>
        <time>2026-06-16T13:37:22.000Z</time>
        <extensions>
          <ns3:TrackPointExtension>
            <ns3:atemp>28.0</ns3:atemp>
          </ns3:TrackPointExtension>
        </extensions>
      </trkpt>
      <trkpt lat="42.59840696118772029876708984375" lon="19.9391059577465057373046875">
        <ele>946.79998779296875</ele>
        <time>2026-06-16T13:37:23.000Z</time>
        <extensions>
          <ns3:TrackPointExtension>
            <ns3:atemp>28.0</ns3:atemp>
          </ns3:TrackPointExtension>
        </extensions>
      </trkpt>
      <trkpt lat="42.59838399477303028106689453125" lon="19.93915021419525146484375">
        <ele>946.79998779296875</ele>
        <time>2026-06-16T13:37:24.000Z</time>
        <extensions>
          <ns3:TrackPointExtension>
            <ns3:atemp>28.0</ns3:atemp>
          </ns3:TrackPointExtension>
        </extensions>
      </trkpt>
      <trkpt lat="42.59835968725383281707763671875" lon="19.93919623084366321563720703125">
        <ele>946.79998779296875</ele>
        <time>2026-06-16T13:37:25.000Z</time>
        <extensions>
          <ns3:TrackPointExtension>
            <ns3:atemp>28.0</ns3:atemp>
          </ns3:TrackPointExtension>
        </extensions>
      </trkpt>
      <trkpt lat="42.59833521209657192230224609375" lon="19.939247108995914459228515625">
        <ele>946.5999755859375</ele>
        <time>2026-06-16T13:37:26.000Z</time>
        <extensions>
          <ns3:TrackPointExtension>
            <ns3:atemp>28.0</ns3:atemp>
          </ns3:TrackPointExtension>
        </extensions>
      </trkpt>
      <trkpt lat="42.59831207804381847381591796875" lon="19.9392965622246265411376953125">
        <ele>946.5999755859375</ele>
        <time>2026-06-16T13:37:27.000Z</time>
        <extensions>
          <ns3:TrackPointExtension>
            <ns3:atemp>28.0</ns3:atemp>
          </ns3:TrackPointExtension>
        </extensions>
      </trkpt>
      <trkpt lat="42.5982868485152721405029296875" lon="19.93934257887303829193115234375">
        <ele>946.5999755859375</ele>
        <time>2026-06-16T13:37:28.000Z</time>
        <extensions>
          <ns3:TrackPointExtension>
            <ns3:atemp>28.0</ns3:atemp>
          </ns3:TrackPointExtension>
        </extensions>
      </trkpt>
      <trkpt lat="42.59826086461544036865234375" lon="19.93938951753079891204833984375">
        <ele>946.5999755859375</ele>
        <time>2026-06-16T13:37:29.000Z</time>
        <extensions>
          <ns3:TrackPointExtension>
            <ns3:atemp>28.0</ns3:atemp>
          </ns3:TrackPointExtension>
        </extensions>
      </trkpt>
      <trkpt lat="42.598234377801418304443359375" lon="19.939438216388225555419921875">
        <ele>946.79998779296875</ele>
        <time>2026-06-16T13:37:30.000Z</time>
        <extensions>
          <ns3:TrackPointExtension>
            <ns3:atemp>28.0</ns3:atemp>
          </ns3:TrackPointExtension>
        </extensions>
      </trkpt>
      <trkpt lat="42.59820763953030109405517578125" lon="19.93948758579790592193603515625">
        <ele>946.79998779296875</ele>
        <time>2026-06-16T13:37:31.000Z</time>
        <extensions>
          <ns3:TrackPointExtension>
            <ns3:atemp>28.0</ns3:atemp>
          </ns3:TrackPointExtension>
        </extensions>
      </trkpt>
      <trkpt lat="42.598181404173374176025390625" lon="19.93953787721693515777587890625">
        <ele>946.79998779296875</ele>
        <time>2026-06-16T13:37:32.000Z</time>
        <extensions>
          <ns3:TrackPointExtension>
            <ns3:atemp>28.0</ns3:atemp>
          </ns3:TrackPointExtension>
        </extensions>
      </trkpt>
      <trkpt lat="42.598155923187732696533203125" lon="19.9395882524549961090087890625">
        <ele>946.79998779296875</ele>
        <time>2026-06-16T13:37:33.000Z</time>
        <extensions>
          <ns3:TrackPointExtension>
            <ns3:atemp>28.0</ns3:atemp>
          </ns3:TrackPointExtension>
        </extensions>
      </trkpt>
      <trkpt lat="42.5981275923550128936767578125" lon="19.93963963352143764495849609375">
        <ele>946.79998779296875</ele>
        <time>2026-06-16T13:37:34.000Z</time>
        <extensions>
          <ns3:TrackPointExtension>
            <ns3:atemp>28.0</ns3:atemp>
          </ns3:TrackPointExtension>
        </extensions>
      </trkpt>
      <trkpt lat="42.5981027819216251373291015625" lon="19.93969126604497432708740234375">
        <ele>946.5999755859375</ele>
        <time>2026-06-16T13:37:35.000Z</time>
        <extensions>
          <ns3:TrackPointExtension>
            <ns3:atemp>28.0</ns3:atemp>
          </ns3:TrackPointExtension>
        </extensions>
      </trkpt>
      <trkpt lat="42.59807772003114223480224609375" lon="19.93974390439689159393310546875">
        <ele>946.5999755859375</ele>
        <time>2026-06-16T13:37:36.000Z</time>
        <extensions>
          <ns3:TrackPointExtension>
            <ns3:atemp>28.0</ns3:atemp>
          </ns3:TrackPointExtension>
        </extensions>
      </trkpt>
      <trkpt lat="42.5980508141219615936279296875" lon="19.9397964589297771453857421875">
        <ele>946.5999755859375</ele>
        <time>2026-06-16T13:37:37.000Z</time>
        <extensions>
          <ns3:TrackPointExtension>
            <ns3:atemp>28.0</ns3:atemp>
          </ns3:TrackPointExtension>
        </extensions>
      </trkpt>
      <trkpt lat="42.5980256684124469757080078125" lon="19.93984901346266269683837890625">
        <ele>946.5999755859375</ele>
        <time>2026-06-16T13:37:38.000Z</time>
        <extensions>
          <ns3:TrackPointExtension>
            <ns3:atemp>28.0</ns3:atemp>
          </ns3:TrackPointExtension>
        </extensions>
      </trkpt>
      <trkpt lat="42.597999684512615203857421875" lon="19.93990533985197544097900390625">
        <ele>946.5999755859375</ele>
        <time>2026-06-16T13:37:39.000Z</time>
        <extensions>
          <ns3:TrackPointExtension>
            <ns3:atemp>28.0</ns3:atemp>
          </ns3:TrackPointExtension>
        </extensions>
      </trkpt>
      <trkpt lat="42.59796976111829280853271484375" lon="19.9399600736796855926513671875">
        <ele>946.5999755859375</ele>
        <time>2026-06-16T13:37:40.000Z</time>
        <extensions>
          <ns3:TrackPointExtension>
            <ns3:atemp>28.0</ns3:atemp>
          </ns3:TrackPointExtension>
        </extensions>
      </trkpt>
      <trkpt lat="42.597941346466541290283203125" lon="19.94001665152609348297119140625">
        <ele>946.4000244140625</ele>
        <time>2026-06-16T13:37:41.000Z</time>
        <extensions>
          <ns3:TrackPointExtension>
            <ns3:atemp>28.0</ns3:atemp>
          </ns3:TrackPointExtension>
        </extensions>
      </trkpt>
      <trkpt lat="42.5979136861860752105712890625" lon="19.94007850997149944305419921875">
        <ele>946.4000244140625</ele>
        <time>2026-06-16T13:37:42.000Z</time>
        <extensions>
          <ns3:TrackPointExtension>
            <ns3:atemp>28.0</ns3:atemp>
          </ns3:TrackPointExtension>
        </extensions>
      </trkpt>
      <trkpt lat="42.59788393042981624603271484375" lon="19.94014103896915912628173828125">
        <ele>946.4000244140625</ele>
        <time>2026-06-16T13:37:43.000Z</time>
        <extensions>
          <ns3:TrackPointExtension>
            <ns3:atemp>28.0</ns3:atemp>
          </ns3:TrackPointExtension>
        </extensions>
      </trkpt>
      <trkpt lat="42.59785342030227184295654296875" lon="19.94019937701523303985595703125">
        <ele>946.4000244140625</ele>
        <time>2026-06-16T13:37:44.000Z</time>
        <extensions>
          <ns3:TrackPointExtension>
            <ns3:atemp>28.0</ns3:atemp>
          </ns3:TrackPointExtension>
        </extensions>
      </trkpt>
      <trkpt lat="42.59782441891729831695556640625" lon="19.94025595486164093017578125">
        <ele>946.4000244140625</ele>
        <time>2026-06-16T13:37:45.000Z</time>
        <extensions>
          <ns3:TrackPointExtension>
            <ns3:atemp>28.0</ns3:atemp>
          </ns3:TrackPointExtension>
        </extensions>
      </trkpt>
      <trkpt lat="42.59779441170394420623779296875" lon="19.94031253270804882049560546875">
        <ele>946.5999755859375</ele>
        <time>2026-06-16T13:37:46.000Z</time>
        <extensions>
          <ns3:TrackPointExtension>
            <ns3:atemp>28.0</ns3:atemp>
          </ns3:TrackPointExtension>
        </extensions>
      </trkpt>
      <trkpt lat="42.5977668352425098419189453125" lon="19.9403657577931880950927734375">
        <ele>946.5999755859375</ele>
        <time>2026-06-16T13:37:47.000Z</time>
        <extensions>
          <ns3:TrackPointExtension>
            <ns3:atemp>28.0</ns3:atemp>
          </ns3:TrackPointExtension>
        </extensions>
      </trkpt>
      <trkpt lat="42.5977403484284877777099609375" lon="19.9404180608689785003662109375">
        <ele>946.5999755859375</ele>
        <time>2026-06-16T13:37:48.000Z</time>
        <extensions>
          <ns3:TrackPointExtension>
            <ns3:atemp>28.0</ns3:atemp>
          </ns3:TrackPointExtension>
        </extensions>
      </trkpt>
      <trkpt lat="42.59771293960511684417724609375" lon="19.94045938365161418914794921875">
        <ele>946.5999755859375</ele>
        <time>2026-06-16T13:37:49.000Z</time>
        <extensions>
          <ns3:TrackPointExtension>
            <ns3:atemp>28.0</ns3:atemp>
          </ns3:TrackPointExtension>
        </extensions>
      </trkpt>
      <trkpt lat="42.59768997319042682647705078125" lon="19.94050674140453338623046875">
        <ele>946.5999755859375</ele>
        <time>2026-06-16T13:37:50.000Z</time>
        <extensions>
          <ns3:TrackPointExtension>
            <ns3:atemp>28.0</ns3:atemp>
          </ns3:TrackPointExtension>
        </extensions>
      </trkpt>
      <trkpt lat="42.59767077863216400146484375" lon="19.94055761955678462982177734375">
        <ele>946.5999755859375</ele>
        <time>2026-06-16T13:37:51.000Z</time>
        <extensions>
          <ns3:TrackPointExtension>
            <ns3:atemp>28.0</ns3:atemp>
          </ns3:TrackPointExtension>
        </extensions>
      </trkpt>
      <trkpt lat="42.597649991512298583984375" lon="19.9406011216342449188232421875">
        <ele>946.5999755859375</ele>
        <time>2026-06-16T13:37:52.000Z</time>
        <extensions>
          <ns3:TrackPointExtension>
            <ns3:atemp>28.0</ns3:atemp>
          </ns3:TrackPointExtension>
        </extensions>
      </trkpt>
      <trkpt lat="42.59762677364051342010498046875" lon="19.9406406842172145843505859375">
        <ele>946.5999755859375</ele>
        <time>2026-06-16T13:37:53.000Z</time>
        <extensions>
          <ns3:TrackPointExtension>
            <ns3:atemp>28.0</ns3:atemp>
          </ns3:TrackPointExtension>
        </extensions>
      </trkpt>
      <trkpt lat="42.59760062210261821746826171875" lon="19.94068100117146968841552734375">
        <ele>946.5999755859375</ele>
        <time>2026-06-16T13:37:54.000Z</time>
        <extensions>
          <ns3:TrackPointExtension>
            <ns3:atemp>28.0</ns3:atemp>
          </ns3:TrackPointExtension>
        </extensions>
      </trkpt>
      <trkpt lat="42.5975735485553741455078125" lon="19.9407302029430866241455078125">
        <ele>946.79998779296875</ele>
        <time>2026-06-16T13:37:55.000Z</time>
        <extensions>
          <ns3:TrackPointExtension>
            <ns3:atemp>28.0</ns3:atemp>
          </ns3:TrackPointExtension>
        </extensions>
      </trkpt>
      <trkpt lat="42.5975468941032886505126953125" lon="19.9407769739627838134765625">
        <ele>946.79998779296875</ele>
        <time>2026-06-16T13:37:56.000Z</time>
        <extensions>
          <ns3:TrackPointExtension>
            <ns3:atemp>28.0</ns3:atemp>
          </ns3:TrackPointExtension>
        </extensions>
      </trkpt>
      <trkpt lat="42.59751613251864910125732421875" lon="19.94081729091703891754150390625">
        <ele>946.79998779296875</ele>
        <time>2026-06-16T13:37:57.000Z</time>
        <extensions>
          <ns3:TrackPointExtension>
            <ns3:atemp>28.0</ns3:atemp>
          </ns3:TrackPointExtension>
        </extensions>
      </trkpt>
      <trkpt lat="42.59748495183885097503662109375" lon="19.94085945188999176025390625">
        <ele>946.79998779296875</ele>
        <time>2026-06-16T13:37:58.000Z</time>
        <extensions>
          <ns3:TrackPointExtension>
            <ns3:atemp>28.0</ns3:atemp>
          </ns3:TrackPointExtension>
        </extensions>
      </trkpt>
      <trkpt lat="42.597457878291606903076171875" lon="19.94090060703456401824951171875">
        <ele>946.79998779296875</ele>
        <time>2026-06-16T13:37:59.000Z</time>
        <extensions>
          <ns3:TrackPointExtension>
            <ns3:atemp>28.0</ns3:atemp>
          </ns3:TrackPointExtension>
        </extensions>
      </trkpt>
      <trkpt lat="42.597430050373077392578125" lon="19.9409407563507556915283203125">
        <ele>946.79998779296875</ele>
        <time>2026-06-16T13:38:00.000Z</time>
        <extensions>
          <ns3:TrackPointExtension>
            <ns3:atemp>28.0</ns3:atemp>
          </ns3:TrackPointExtension>
        </extensions>
      </trkpt>
      <trkpt lat="42.59740280918776988983154296875" lon="19.94098476134240627288818359375">
        <ele>946.79998779296875</ele>
        <time>2026-06-16T13:38:01.000Z</time>
        <extensions>
          <ns3:TrackPointExtension>
            <ns3:atemp>28.0</ns3:atemp>
          </ns3:TrackPointExtension>
        </extensions>
      </trkpt>
      <trkpt lat="42.59737464599311351776123046875" lon="19.94103270582854747772216796875">
        <ele>946.5999755859375</ele>
        <time>2026-06-16T13:38:02.000Z</time>
        <extensions>
          <ns3:TrackPointExtension>
            <ns3:atemp>27.0</ns3:atemp>
          </ns3:TrackPointExtension>
        </extensions>
      </trkpt>
      <trkpt lat="42.59734145365655422210693359375" lon="19.94107578881084918975830078125">
        <ele>946.5999755859375</ele>
        <time>2026-06-16T13:38:03.000Z</time>
        <extensions>
          <ns3:TrackPointExtension>
            <ns3:atemp>27.0</ns3:atemp>
          </ns3:TrackPointExtension>
        </extensions>
      </trkpt>
      <trkpt lat="42.59731044061481952667236328125" lon="19.9411161057651042938232421875">
        <ele>946.5999755859375</ele>
        <time>2026-06-16T13:38:04.000Z</time>
        <extensions>
          <ns3:TrackPointExtension>
            <ns3:atemp>28.0</ns3:atemp>
          </ns3:TrackPointExtension>
        </extensions>
      </trkpt>
      <trkpt lat="42.59727691300213336944580078125" lon="19.941156171262264251708984375">
        <ele>946.5999755859375</ele>
        <time>2026-06-16T13:38:05.000Z</time>
        <extensions>
          <ns3:TrackPointExtension>
            <ns3:atemp>27.0</ns3:atemp>
          </ns3:TrackPointExtension>
        </extensions>
      </trkpt>
      <trkpt lat="42.59724657051265239715576171875" lon="19.94119875133037567138671875">
        <ele>946.5999755859375</ele>
        <time>2026-06-16T13:38:06.000Z</time>
        <extensions>
          <ns3:TrackPointExtension>
            <ns3:atemp>27.0</ns3:atemp>
          </ns3:TrackPointExtension>
        </extensions>
      </trkpt>
      <trkpt lat="42.59721807204186916351318359375" lon="19.94124443270266056060791015625">
        <ele>946.79998779296875</ele>
        <time>2026-06-16T13:38:07.000Z</time>
        <extensions>
          <ns3:TrackPointExtension>
            <ns3:atemp>27.0</ns3:atemp>
          </ns3:TrackPointExtension>
        </extensions>
      </trkpt>
      <trkpt lat="42.59718957357108592987060546875" lon="19.94129103608429431915283203125">
        <ele>947</ele>
        <time>2026-06-16T13:38:08.000Z</time>
        <extensions>
          <ns3:TrackPointExtension>
            <ns3:atemp>27.0</ns3:atemp>
          </ns3:TrackPointExtension>
        </extensions>
      </trkpt>
      <trkpt lat="42.59715847671031951904296875" lon="19.94133747182786464691162109375">
        <ele>947.20001220703125</ele>
        <time>2026-06-16T13:38:09.000Z</time>
        <extensions>
          <ns3:TrackPointExtension>
            <ns3:atemp>27.0</ns3:atemp>
          </ns3:TrackPointExtension>
        </extensions>
      </trkpt>
      <trkpt lat="42.59712385945022106170654296875" lon="19.9413799680769443511962890625">
        <ele>947.5999755859375</ele>
        <time>2026-06-16T13:38:10.000Z</time>
        <extensions>
          <ns3:TrackPointExtension>
            <ns3:atemp>27.0</ns3:atemp>
          </ns3:TrackPointExtension>
        </extensions>
      </trkpt>
      <trkpt lat="42.59709133766591548919677734375" lon="19.9414207041263580322265625">
        <ele>947.79998779296875</ele>
        <time>2026-06-16T13:38:11.000Z</time>
        <extensions>
          <ns3:TrackPointExtension>
            <ns3:atemp>27.0</ns3:atemp>
          </ns3:TrackPointExtension>
        </extensions>
      </trkpt>
      <trkpt lat="42.59705479256808757781982421875" lon="19.941458590328693389892578125">
        <ele>948</ele>
        <time>2026-06-16T13:38:12.000Z</time>
        <extensions>
          <ns3:TrackPointExtension>
            <ns3:atemp>27.0</ns3:atemp>
          </ns3:TrackPointExtension>
        </extensions>
      </trkpt>
      <trkpt lat="42.59701271541416645050048828125" lon="19.94148750789463520050048828125">
        <ele>948.20001220703125</ele>
        <time>2026-06-16T13:38:13.000Z</time>
        <extensions>
          <ns3:TrackPointExtension>
            <ns3:atemp>27.0</ns3:atemp>
          </ns3:TrackPointExtension>
        </extensions>
      </trkpt>
      <trkpt lat="42.59697214700281620025634765625" lon="19.9415184371173381805419921875">
        <ele>948.5999755859375</ele>
        <time>2026-06-16T13:38:14.000Z</time>
        <extensions>
          <ns3:TrackPointExtension>
            <ns3:atemp>27.0</ns3:atemp>
          </ns3:TrackPointExtension>
        </extensions>
      </trkpt>
      <trkpt lat="42.59693644009530544281005859375" lon="19.94155087508261203765869140625">
        <ele>948.79998779296875</ele>
        <time>2026-06-16T13:38:15.000Z</time>
        <extensions>
          <ns3:TrackPointExtension>
            <ns3:atemp>27.0</ns3:atemp>
          </ns3:TrackPointExtension>
        </extensions>
      </trkpt>
      <trkpt lat="42.59689989499747753143310546875" lon="19.94158406741917133331298828125">
        <ele>949</ele>
        <time>2026-06-16T13:38:16.000Z</time>
        <extensions>
          <ns3:TrackPointExtension>
            <ns3:atemp>27.0</ns3:atemp>
          </ns3:TrackPointExtension>
        </extensions>
      </trkpt>
      <trkpt lat="42.596861422061920166015625" lon="19.94160242378711700439453125">
        <ele>949.20001220703125</ele>
        <time>2026-06-16T13:38:17.000Z</time>
        <extensions>
          <ns3:TrackPointExtension>
            <ns3:atemp>27.0</ns3:atemp>
          </ns3:TrackPointExtension>
        </extensions>
      </trkpt>
      <trkpt lat="42.5968210212886333465576171875" lon="19.941616840660572052001953125">
        <ele>949.20001220703125</ele>
        <time>2026-06-16T13:38:18.000Z</time>
        <extensions>
          <ns3:TrackPointExtension>
            <ns3:atemp>27.0</ns3:atemp>
          </ns3:TrackPointExtension>
        </extensions>
      </trkpt>
      <trkpt lat="42.59678296744823455810546875" lon="19.94164542295038700103759765625">
        <ele>949.4000244140625</ele>
        <time>2026-06-16T13:38:19.000Z</time>
        <extensions>
          <ns3:TrackPointExtension>
            <ns3:atemp>27.0</ns3:atemp>
          </ns3:TrackPointExtension>
        </extensions>
      </trkpt>
      <trkpt lat="42.59674541652202606201171875" lon="19.94167811237275600433349609375">
        <ele>949.5999755859375</ele>
        <time>2026-06-16T13:38:20.000Z</time>
        <extensions>
          <ns3:TrackPointExtension>
            <ns3:atemp>27.0</ns3:atemp>
          </ns3:TrackPointExtension>
        </extensions>
      </trkpt>
      <trkpt lat="42.59670627303421497344970703125" lon="19.9417139030992984771728515625">
        <ele>949.79998779296875</ele>
        <time>2026-06-16T13:38:21.000Z</time>
        <extensions>
          <ns3:TrackPointExtension>
            <ns3:atemp>27.0</ns3:atemp>
          </ns3:TrackPointExtension>
        </extensions>
      </trkpt>
      <trkpt lat="42.59666587226092815399169921875" lon="19.94174986146390438079833984375">
        <ele>950</ele>
        <time>2026-06-16T13:38:22.000Z</time>
        <extensions>
          <ns3:TrackPointExtension>
            <ns3:atemp>27.0</ns3:atemp>
          </ns3:TrackPointExtension>
        </extensions>
      </trkpt>
      <trkpt lat="42.59662748314440250396728515625" lon="19.9417839758098125457763671875">
        <ele>950.20001220703125</ele>
        <time>2026-06-16T13:38:23.000Z</time>
        <extensions>
          <ns3:TrackPointExtension>
            <ns3:atemp>27.0</ns3:atemp>
          </ns3:TrackPointExtension>
        </extensions>
      </trkpt>
      <trkpt lat="42.59658859111368656158447265625" lon="19.94181741960346698760986328125">
        <ele>950.4000244140625</ele>
        <time>2026-06-16T13:38:24.000Z</time>
        <extensions>
          <ns3:TrackPointExtension>
            <ns3:atemp>27.0</ns3:atemp>
          </ns3:TrackPointExtension>
        </extensions>
      </trkpt>
      <trkpt lat="42.596553973853588104248046875" lon="19.9418547190725803375244140625">
        <ele>950.5999755859375</ele>
        <time>2026-06-16T13:38:25.000Z</time>
        <extensions>
          <ns3:TrackPointExtension>
            <ns3:atemp>27.0</ns3:atemp>
          </ns3:TrackPointExtension>
        </extensions>
      </trkpt>
      <trkpt lat="42.59652438573539257049560546875" lon="19.9418875761330127716064453125">
        <ele>950.79998779296875</ele>
        <time>2026-06-16T13:38:26.000Z</time>
        <extensions>
          <ns3:TrackPointExtension>
            <ns3:atemp>27.0</ns3:atemp>
          </ns3:TrackPointExtension>
        </extensions>
      </trkpt>
      <trkpt lat="42.59649773128330707550048828125" lon="19.94192202575504779815673828125">
        <ele>951</ele>
        <time>2026-06-16T13:38:27.000Z</time>
        <extensions>
          <ns3:TrackPointExtension>
            <ns3:atemp>27.0</ns3:atemp>
          </ns3:TrackPointExtension>
        </extensions>
      </trkpt>
      <trkpt lat="42.59646906517446041107177734375" lon="19.94196393527090549468994140625">
        <ele>951.20001220703125</ele>
        <time>2026-06-16T13:38:28.000Z</time>
        <extensions>
          <ns3:TrackPointExtension>
            <ns3:atemp>27.0</ns3:atemp>
          </ns3:TrackPointExtension>
        </extensions>
      </trkpt>
      <trkpt lat="42.5964362919330596923828125" lon="19.94198924861848354339599609375">
        <ele>951.20001220703125</ele>
        <time>2026-06-16T13:38:29.000Z</time>
        <extensions>
          <ns3:TrackPointExtension>
            <ns3:atemp>27.0</ns3:atemp>
          </ns3:TrackPointExtension>
        </extensions>
      </trkpt>
      <trkpt lat="42.59640636853873729705810546875" lon="19.94201540015637874603271484375">
        <ele>951.4000244140625</ele>
        <time>2026-06-16T13:38:30.000Z</time>
        <extensions>
          <ns3:TrackPointExtension>
            <ns3:atemp>27.0</ns3:atemp>
          </ns3:TrackPointExtension>
        </extensions>
      </trkpt>
      <trkpt lat="42.59637602604925632476806640625" lon="19.9420510232448577880859375">
        <ele>951.5999755859375</ele>
        <time>2026-06-16T13:38:31.000Z</time>
        <extensions>
          <ns3:TrackPointExtension>
            <ns3:atemp>27.0</ns3:atemp>
          </ns3:TrackPointExtension>
        </extensions>
      </trkpt>
      <trkpt lat="42.5963479466736316680908203125" lon="19.94209100492298603057861328125">
        <ele>951.5999755859375</ele>
        <time>2026-06-16T13:38:32.000Z</time>
        <extensions>
          <ns3:TrackPointExtension>
            <ns3:atemp>27.0</ns3:atemp>
          </ns3:TrackPointExtension>
        </extensions>
      </trkpt>
      <trkpt lat="42.59631567634642124176025390625" lon="19.94212922640144824981689453125">
        <ele>951.5999755859375</ele>
        <time>2026-06-16T13:38:33.000Z</time>
        <extensions>
          <ns3:TrackPointExtension>
            <ns3:atemp>27.0</ns3:atemp>
          </ns3:TrackPointExtension>
        </extensions>
      </trkpt>
      <trkpt lat="42.5962805561721324920654296875" lon="19.9421678669750690460205078125">
        <ele>951.79998779296875</ele>
        <time>2026-06-16T13:38:34.000Z</time>
        <extensions>
          <ns3:TrackPointExtension>
            <ns3:atemp>27.0</ns3:atemp>
          </ns3:TrackPointExtension>
        </extensions>
      </trkpt>
      <trkpt lat="42.5962537340819835662841796875" lon="19.94220701046288013458251953125">
        <ele>951.79998779296875</ele>
        <time>2026-06-16T13:38:35.000Z</time>
        <extensions>
          <ns3:TrackPointExtension>
            <ns3:atemp>27.0</ns3:atemp>
          </ns3:TrackPointExtension>
        </extensions>
      </trkpt>
      <trkpt lat="42.59623303078114986419677734375" lon="19.94225512258708477020263671875">
        <ele>951.79998779296875</ele>
        <time>2026-06-16T13:38:36.000Z</time>
        <extensions>
          <ns3:TrackPointExtension>
            <ns3:atemp>27.0</ns3:atemp>
          </ns3:TrackPointExtension>
        </extensions>
      </trkpt>
      <trkpt lat="42.59622733108699321746826171875" lon="19.942316226661205291748046875">
        <ele>952</ele>
        <time>2026-06-16T13:38:37.000Z</time>
        <extensions>
          <ns3:TrackPointExtension>
            <ns3:atemp>27.0</ns3:atemp>
          </ns3:TrackPointExtension>
        </extensions>
      </trkpt>
      <trkpt lat="42.59622775018215179443359375" lon="19.94237422943115234375">
        <ele>952</ele>
        <time>2026-06-16T13:38:38.000Z</time>
        <extensions>
          <ns3:TrackPointExtension>
            <ns3:atemp>27.0</ns3:atemp>
          </ns3:TrackPointExtension>
        </extensions>
      </trkpt>
      <trkpt lat="42.59623303078114986419677734375" lon="19.94242846034467220306396484375">
        <ele>951.79998779296875</ele>
        <time>2026-06-16T13:38:39.000Z</time>
        <extensions>
          <ns3:TrackPointExtension>
            <ns3:atemp>27.0</ns3:atemp>
          </ns3:TrackPointExtension>
        </extensions>
      </trkpt>
      <trkpt lat="42.59624258615076541900634765625" lon="19.9424887262284755706787109375">
        <ele>951.79998779296875</ele>
        <time>2026-06-16T13:38:40.000Z</time>
        <extensions>
          <ns3:TrackPointExtension>
            <ns3:atemp>27.0</ns3:atemp>
          </ns3:TrackPointExtension>
        </extensions>
      </trkpt>
      <trkpt lat="42.59624786674976348876953125" lon="19.94255234487354755401611328125">
        <ele>951.79998779296875</ele>
        <time>2026-06-16T13:38:41.000Z</time>
        <extensions>
          <ns3:TrackPointExtension>
            <ns3:atemp>27.0</ns3:atemp>
          </ns3:TrackPointExtension>
        </extensions>
      </trkpt>
      <trkpt lat="42.59624828584492206573486328125" lon="19.94261973537504673004150390625">
        <ele>951.5999755859375</ele>
        <time>2026-06-16T13:38:42.000Z</time>
        <extensions>
          <ns3:TrackPointExtension>
            <ns3:atemp>27.0</ns3:atemp>
          </ns3:TrackPointExtension>
        </extensions>
      </trkpt>
      <trkpt lat="42.596251554787158966064453125" lon="19.94268067181110382080078125">
        <ele>951.5999755859375</ele>
        <time>2026-06-16T13:38:43.000Z</time>
        <extensions>
          <ns3:TrackPointExtension>
            <ns3:atemp>27.0</ns3:atemp>
          </ns3:TrackPointExtension>
        </extensions>
      </trkpt>
      <trkpt lat="42.59625968523323535919189453125" lon="19.942744709551334381103515625">
        <ele>951.5999755859375</ele>
        <time>2026-06-16T13:38:44.000Z</time>
        <extensions>
          <ns3:TrackPointExtension>
            <ns3:atemp>27.0</ns3:atemp>
          </ns3:TrackPointExtension>
        </extensions>
      </trkpt>
      <trkpt lat="42.59627259336411952972412109375" lon="19.9428115971386432647705078125">
        <ele>951.5999755859375</ele>
        <time>2026-06-16T13:38:45.000Z</time>
        <extensions>
          <ns3:TrackPointExtension>
            <ns3:atemp>27.0</ns3:atemp>
          </ns3:TrackPointExtension>
        </extensions>
      </trkpt>
      <trkpt lat="42.596280388534069061279296875" lon="19.94287940673530101776123046875">
        <ele>951.5999755859375</ele>
        <time>2026-06-16T13:38:46.000Z</time>
        <extensions>
          <ns3:TrackPointExtension>
            <ns3:atemp>27.0</ns3:atemp>
          </ns3:TrackPointExtension>
        </extensions>
      </trkpt>
      <trkpt lat="42.5962865911424160003662109375" lon="19.942945539951324462890625">
        <ele>951.5999755859375</ele>
        <time>2026-06-16T13:38:47.000Z</time>
        <extensions>
          <ns3:TrackPointExtension>
            <ns3:atemp>27.0</ns3:atemp>
          </ns3:TrackPointExtension>
        </extensions>
      </trkpt>
      <trkpt lat="42.59629438631236553192138671875" lon="19.9430104158818721771240234375">
        <ele>951.5999755859375</ele>
        <time>2026-06-16T13:38:48.000Z</time>
        <extensions>
          <ns3:TrackPointExtension>
            <ns3:atemp>27.0</ns3:atemp>
          </ns3:TrackPointExtension>
        </extensions>
      </trkpt>
      <trkpt lat="42.5963000021874904632568359375" lon="19.943074285984039306640625">
        <ele>951.5999755859375</ele>
        <time>2026-06-16T13:38:49.000Z</time>
        <extensions>
          <ns3:TrackPointExtension>
            <ns3:atemp>27.0</ns3:atemp>
          </ns3:TrackPointExtension>
        </extensions>
      </trkpt>
      <trkpt lat="42.5963057018816471099853515625" lon="19.94313170202076435089111328125">
        <ele>951.5999755859375</ele>
        <time>2026-06-16T13:38:50.000Z</time>
        <extensions>
          <ns3:TrackPointExtension>
            <ns3:atemp>27.0</ns3:atemp>
          </ns3:TrackPointExtension>
        </extensions>
      </trkpt>
      <trkpt lat="42.5963120721280574798583984375" lon="19.94318970479071140289306640625">
        <ele>951.79998779296875</ele>
        <time>2026-06-16T13:38:51.000Z</time>
        <extensions>
          <ns3:TrackPointExtension>
            <ns3:atemp>27.0</ns3:atemp>
          </ns3:TrackPointExtension>
        </extensions>
      </trkpt>
      <trkpt lat="42.5963207893073558807373046875" lon="19.94325206615030765533447265625">
        <ele>951.79998779296875</ele>
        <time>2026-06-16T13:38:52.000Z</time>
        <extensions>
          <ns3:TrackPointExtension>
            <ns3:atemp>27.0</ns3:atemp>
          </ns3:TrackPointExtension>
        </extensions>
      </trkpt>
      <trkpt lat="42.5963288359344005584716796875" lon="19.943316690623760223388671875">
        <ele>952</ele>
        <time>2026-06-16T13:38:53.000Z</time>
        <extensions>
          <ns3:TrackPointExtension>
            <ns3:atemp>27.0</ns3:atemp>
          </ns3:TrackPointExtension>
        </extensions>
      </trkpt>
      <trkpt lat="42.59633763693273067474365234375" lon="19.94337997399270534515380859375">
        <ele>952</ele>
        <time>2026-06-16T13:38:54.000Z</time>
        <extensions>
          <ns3:TrackPointExtension>
            <ns3:atemp>27.0</ns3:atemp>
          </ns3:TrackPointExtension>
        </extensions>
      </trkpt>
      <trkpt lat="42.5963455997407436370849609375" lon="19.94344049133360385894775390625">
        <ele>952</ele>
        <time>2026-06-16T13:38:55.000Z</time>
        <extensions>
          <ns3:TrackPointExtension>
            <ns3:atemp>27.0</ns3:atemp>
          </ns3:TrackPointExtension>
        </extensions>
      </trkpt>
      <trkpt lat="42.5963529758155345916748046875" lon="19.9435009248554706573486328125">
        <ele>952.20001220703125</ele>
        <time>2026-06-16T13:38:56.000Z</time>
        <extensions>
          <ns3:TrackPointExtension>
            <ns3:atemp>27.0</ns3:atemp>
          </ns3:TrackPointExtension>
        </extensions>
      </trkpt>
      <trkpt lat="42.5963611900806427001953125" lon="19.94356043636798858642578125">
        <ele>952.20001220703125</ele>
        <time>2026-06-16T13:38:57.000Z</time>
        <extensions>
          <ns3:TrackPointExtension>
            <ns3:atemp>27.0</ns3:atemp>
          </ns3:TrackPointExtension>
        </extensions>
      </trkpt>
      <trkpt lat="42.59637116454541683197021484375" lon="19.94361550547182559967041015625">
        <ele>952.4000244140625</ele>
        <time>2026-06-16T13:38:58.000Z</time>
        <extensions>
          <ns3:TrackPointExtension>
            <ns3:atemp>27.0</ns3:atemp>
          </ns3:TrackPointExtension>
        </extensions>
      </trkpt>
      <trkpt lat="42.59637602604925632476806640625" lon="19.9436776153743267059326171875">
        <ele>952.4000244140625</ele>
        <time>2026-06-16T13:38:59.000Z</time>
        <extensions>
          <ns3:TrackPointExtension>
            <ns3:atemp>27.0</ns3:atemp>
          </ns3:TrackPointExtension>
        </extensions>
      </trkpt>
      <trkpt lat="42.5963781215250492095947265625" lon="19.943737126886844635009765625">
        <ele>952.5999755859375</ele>
        <time>2026-06-16T13:39:00.000Z</time>
        <extensions>
          <ns3:TrackPointExtension>
            <ns3:atemp>27.0</ns3:atemp>
          </ns3:TrackPointExtension>
        </extensions>
      </trkpt>
      <trkpt lat="42.59638130664825439453125" lon="19.94379839859902858734130859375">
        <ele>952.79998779296875</ele>
        <time>2026-06-16T13:39:01.000Z</time>
        <extensions>
          <ns3:TrackPointExtension>
            <ns3:atemp>27.0</ns3:atemp>
          </ns3:TrackPointExtension>
        </extensions>
      </trkpt>
      <trkpt lat="42.5963841564953327178955078125" lon="19.9438586644828319549560546875">
        <ele>952.79998779296875</ele>
        <time>2026-06-16T13:39:02.000Z</time>
        <extensions>
          <ns3:TrackPointExtension>
            <ns3:atemp>27.0</ns3:atemp>
          </ns3:TrackPointExtension>
        </extensions>
      </trkpt>
      <trkpt lat="42.596389353275299072265625" lon="19.9439205229282379150390625">
        <ele>953.20001220703125</ele>
        <time>2026-06-16T13:39:03.000Z</time>
        <extensions>
          <ns3:TrackPointExtension>
            <ns3:atemp>27.0</ns3:atemp>
          </ns3:TrackPointExtension>
        </extensions>
      </trkpt>
      <trkpt lat="42.59639547206461429595947265625" lon="19.94397391565144062042236328125">
        <ele>953.4000244140625</ele>
        <time>2026-06-16T13:39:04.000Z</time>
        <extensions>
          <ns3:TrackPointExtension>
            <ns3:atemp>27.0</ns3:atemp>
          </ns3:TrackPointExtension>
        </extensions>
      </trkpt>
      <trkpt lat="42.59639396332204341888427734375" lon="19.94401775300502777099609375">
        <ele>953.79998779296875</ele>
        <time>2026-06-16T13:39:05.000Z</time>
        <extensions>
          <ns3:TrackPointExtension>
            <ns3:atemp>27.0</ns3:atemp>
          </ns3:TrackPointExtension>
        </extensions>
      </trkpt>
      <trkpt lat="42.59637971408665180206298828125" lon="19.94406712241470813751220703125">
        <ele>954.4000244140625</ele>
        <time>2026-06-16T13:39:06.000Z</time>
        <extensions>
          <ns3:TrackPointExtension>
            <ns3:atemp>27.0</ns3:atemp>
          </ns3:TrackPointExtension>
        </extensions>
      </trkpt>
      <trkpt lat="42.5963499583303928375244140625" lon="19.94410903193056583404541015625">
        <ele>955</ele>
        <time>2026-06-16T13:39:07.000Z</time>
        <extensions>
          <ns3:TrackPointExtension>
            <ns3:atemp>27.0</ns3:atemp>
          </ns3:TrackPointExtension>
        </extensions>
      </trkpt>
      <trkpt lat="42.59631115011870861053466796875" lon="19.94412998668849468231201171875">
        <ele>955.4000244140625</ele>
        <time>2026-06-16T13:39:08.000Z</time>
        <extensions>
          <ns3:TrackPointExtension>
            <ns3:atemp>27.0</ns3:atemp>
          </ns3:TrackPointExtension>
        </extensions>
      </trkpt>
      <trkpt lat="42.596274353563785552978515625" lon="19.94414859451353549957275390625">
        <ele>955.79998779296875</ele>
        <time>2026-06-16T13:39:09.000Z</time>
        <extensions>
          <ns3:TrackPointExtension>
            <ns3:atemp>27.0</ns3:atemp>
          </ns3:TrackPointExtension>
        </extensions>
      </trkpt>
      <trkpt lat="42.5962336175143718719482421875" lon="19.94415999390184879302978515625">
        <ele>956.4000244140625</ele>
        <time>2026-06-16T13:39:10.000Z</time>
        <extensions>
          <ns3:TrackPointExtension>
            <ns3:atemp>27.0</ns3:atemp>
          </ns3:TrackPointExtension>
        </extensions>
      </trkpt>
      <trkpt lat="42.5961948931217193603515625" lon="19.94417524896562099456787109375">
        <ele>956.79998779296875</ele>
        <time>2026-06-16T13:39:11.000Z</time>
        <extensions>
          <ns3:TrackPointExtension>
            <ns3:atemp>27.0</ns3:atemp>
          </ns3:TrackPointExtension>
        </extensions>
      </trkpt>
      <trkpt lat="42.59615491144359111785888671875" lon="19.94418899528682231903076171875">
        <ele>957.4000244140625</ele>
        <time>2026-06-16T13:39:12.000Z</time>
        <extensions>
          <ns3:TrackPointExtension>
            <ns3:atemp>27.0</ns3:atemp>
          </ns3:TrackPointExtension>
        </extensions>
      </trkpt>
      <trkpt lat="42.59611099027097225189208984375" lon="19.94419402442872524261474609375">
        <ele>957.79998779296875</ele>
        <time>2026-06-16T13:39:13.000Z</time>
        <extensions>
          <ns3:TrackPointExtension>
            <ns3:atemp>27.0</ns3:atemp>
          </ns3:TrackPointExtension>
        </extensions>
      </trkpt>
      <trkpt lat="42.59606606326997280120849609375" lon="19.9441989697515964508056640625">
        <ele>958</ele>
        <time>2026-06-16T13:39:14.000Z</time>
        <extensions>
          <ns3:TrackPointExtension>
            <ns3:atemp>27.0</ns3:atemp>
          </ns3:TrackPointExtension>
        </extensions>
      </trkpt>
      <trkpt lat="42.59602499194443225860595703125" lon="19.94420349597930908203125">
        <ele>958.4000244140625</ele>
        <time>2026-06-16T13:39:15.000Z</time>
        <extensions>
          <ns3:TrackPointExtension>
            <ns3:atemp>27.0</ns3:atemp>
          </ns3:TrackPointExtension>
        </extensions>
      </trkpt>
      <trkpt lat="42.5959838367998600006103515625" lon="19.94420818984508514404296875">
        <ele>958.5999755859375</ele>
        <time>2026-06-16T13:39:16.000Z</time>
        <extensions>
          <ns3:TrackPointExtension>
            <ns3:atemp>27.0</ns3:atemp>
          </ns3:TrackPointExtension>
        </extensions>
      </trkpt>
      <trkpt lat="42.59595123119652271270751953125" lon="19.94421212933957576751708984375">
        <ele>959</ele>
        <time>2026-06-16T13:39:17.000Z</time>
        <extensions>
          <ns3:TrackPointExtension>
            <ns3:atemp>27.0</ns3:atemp>
          </ns3:TrackPointExtension>
        </extensions>
      </trkpt>
      <trkpt lat="42.59592273272573947906494140625" lon="19.94421757757663726806640625">
        <ele>959.20001220703125</ele>
        <time>2026-06-16T13:39:18.000Z</time>
        <extensions>
          <ns3:TrackPointExtension>
            <ns3:atemp>27.0</ns3:atemp>
          </ns3:TrackPointExtension>
        </extensions>
      </trkpt>
      <trkpt lat="42.59589775465428829193115234375" lon="19.94422369636595249176025390625">
        <ele>959.4000244140625</ele>
        <time>2026-06-16T13:39:19.000Z</time>
        <extensions>
          <ns3:TrackPointExtension>
            <ns3:atemp>27.0</ns3:atemp>
          </ns3:TrackPointExtension>
        </extensions>
      </trkpt>
      <trkpt lat="42.59587545879185199737548828125" lon="19.944225959479808807373046875">
        <ele>959.5999755859375</ele>
        <time>2026-06-16T13:39:20.000Z</time>
        <extensions>
          <ns3:TrackPointExtension>
            <ns3:atemp>27.0</ns3:atemp>
          </ns3:TrackPointExtension>
        </extensions>
      </trkpt>
      <trkpt lat="42.5958514027297496795654296875" lon="19.94422989897429943084716796875">
        <ele>959.5999755859375</ele>
        <time>2026-06-16T13:39:21.000Z</time>
        <extensions>
          <ns3:TrackPointExtension>
            <ns3:atemp>27.0</ns3:atemp>
          </ns3:TrackPointExtension>
        </extensions>
      </trkpt>
      <trkpt lat="42.59582181461155414581298828125" lon="19.9442262947559356689453125">
        <ele>959.79998779296875</ele>
        <time>2026-06-16T13:39:22.000Z</time>
        <extensions>
          <ns3:TrackPointExtension>
            <ns3:atemp>27.0</ns3:atemp>
          </ns3:TrackPointExtension>
        </extensions>
      </trkpt>
      <trkpt lat="42.59578711353242397308349609375" lon="19.94422185234725475311279296875">
        <ele>959.79998779296875</ele>
        <time>2026-06-16T13:39:23.000Z</time>
        <extensions>
          <ns3:TrackPointExtension>
            <ns3:atemp>27.0</ns3:atemp>
          </ns3:TrackPointExtension>
        </extensions>
      </trkpt>
      <trkpt lat="42.59574830532073974609375" lon="19.94421665556728839874267578125">
        <ele>959.79998779296875</ele>
        <time>2026-06-16T13:39:24.000Z</time>
        <extensions>
          <ns3:TrackPointExtension>
            <ns3:atemp>27.0</ns3:atemp>
          </ns3:TrackPointExtension>
        </extensions>
      </trkpt>
      <trkpt lat="42.59570413269102573394775390625" lon="19.94420282542705535888671875">
        <ele>960</ele>
        <time>2026-06-16T13:39:25.000Z</time>
        <extensions>
          <ns3:TrackPointExtension>
            <ns3:atemp>27.0</ns3:atemp>
          </ns3:TrackPointExtension>
        </extensions>
      </trkpt>
      <trkpt lat="42.595659792423248291015625" lon="19.9441818706691265106201171875">
        <ele>960</ele>
        <time>2026-06-16T13:39:26.000Z</time>
        <extensions>
          <ns3:TrackPointExtension>
            <ns3:atemp>27.0</ns3:atemp>
          </ns3:TrackPointExtension>
        </extensions>
      </trkpt>
      <trkpt lat="42.595616877079010009765625" lon="19.9441594071686267852783203125">
        <ele>959.79998779296875</ele>
        <time>2026-06-16T13:39:27.000Z</time>
        <extensions>
          <ns3:TrackPointExtension>
            <ns3:atemp>27.0</ns3:atemp>
          </ns3:TrackPointExtension>
        </extensions>
      </trkpt>
      <trkpt lat="42.59557195007801055908203125" lon="19.9441404640674591064453125">
        <ele>959.79998779296875</ele>
        <time>2026-06-16T13:39:28.000Z</time>
        <extensions>
          <ns3:TrackPointExtension>
            <ns3:atemp>27.0</ns3:atemp>
          </ns3:TrackPointExtension>
        </extensions>
      </trkpt>
      <trkpt lat="42.5955268554389476776123046875" lon="19.9441185034811496734619140625">
        <ele>959.79998779296875</ele>
        <time>2026-06-16T13:39:29.000Z</time>
        <extensions>
          <ns3:TrackPointExtension>
            <ns3:atemp>27.0</ns3:atemp>
          </ns3:TrackPointExtension>
        </extensions>
      </trkpt>
      <trkpt lat="42.59548385627567768096923828125" lon="19.944090507924556732177734375">
        <ele>959.79998779296875</ele>
        <time>2026-06-16T13:39:30.000Z</time>
        <extensions>
          <ns3:TrackPointExtension>
            <ns3:atemp>27.0</ns3:atemp>
          </ns3:TrackPointExtension>
        </extensions>
      </trkpt>
      <trkpt lat="42.59543918073177337646484375" lon="19.94406175799667835235595703125">
        <ele>959.79998779296875</ele>
        <time>2026-06-16T13:39:31.000Z</time>
        <extensions>
          <ns3:TrackPointExtension>
            <ns3:atemp>27.0</ns3:atemp>
          </ns3:TrackPointExtension>
        </extensions>
      </trkpt>
      <trkpt lat="42.59539433754980564117431640625" lon="19.944032840430736541748046875">
        <ele>960</ele>
        <time>2026-06-16T13:39:32.000Z</time>
        <extensions>
          <ns3:TrackPointExtension>
            <ns3:atemp>27.0</ns3:atemp>
          </ns3:TrackPointExtension>
        </extensions>
      </trkpt>
      <trkpt lat="42.59535091929137706756591796875" lon="19.94400207884609699249267578125">
        <ele>960</ele>
        <time>2026-06-16T13:39:33.000Z</time>
        <extensions>
          <ns3:TrackPointExtension>
            <ns3:atemp>27.0</ns3:atemp>
          </ns3:TrackPointExtension>
        </extensions>
      </trkpt>
      <trkpt lat="42.5953124463558197021484375" lon="19.94397156871855258941650390625">
        <ele>960</ele>
        <time>2026-06-16T13:39:34.000Z</time>
        <extensions>
          <ns3:TrackPointExtension>
            <ns3:atemp>27.0</ns3:atemp>
          </ns3:TrackPointExtension>
        </extensions>
      </trkpt>
      <trkpt lat="42.595269195735454559326171875" lon="19.94394776411354541778564453125">
        <ele>960</ele>
        <time>2026-06-16T13:39:35.000Z</time>
        <extensions>
          <ns3:TrackPointExtension>
            <ns3:atemp>27.0</ns3:atemp>
          </ns3:TrackPointExtension>
        </extensions>
      </trkpt>
      <trkpt lat="42.595227621495723724365234375" lon="19.94392094202339649200439453125">
        <ele>960.20001220703125</ele>
        <time>2026-06-16T13:39:36.000Z</time>
        <extensions>
          <ns3:TrackPointExtension>
            <ns3:atemp>27.0</ns3:atemp>
          </ns3:TrackPointExtension>
        </extensions>
      </trkpt>
      <trkpt lat="42.59518797509372234344482421875" lon="19.943900071084499359130859375">
        <ele>960.20001220703125</ele>
        <time>2026-06-16T13:39:37.000Z</time>
        <extensions>
          <ns3:TrackPointExtension>
            <ns3:atemp>27.0</ns3:atemp>
          </ns3:TrackPointExtension>
        </extensions>
      </trkpt>
      <trkpt lat="42.59514841251075267791748046875" lon="19.9438747577369213104248046875">
        <ele>960.20001220703125</ele>
        <time>2026-06-16T13:39:38.000Z</time>
        <extensions>
          <ns3:TrackPointExtension>
            <ns3:atemp>27.0</ns3:atemp>
          </ns3:TrackPointExtension>
        </extensions>
      </trkpt>
      <trkpt lat="42.5951040722429752349853515625" lon="19.94385279715061187744140625">
        <ele>960.20001220703125</ele>
        <time>2026-06-16T13:39:39.000Z</time>
        <extensions>
          <ns3:TrackPointExtension>
            <ns3:atemp>27.0</ns3:atemp>
          </ns3:TrackPointExtension>
        </extensions>
      </trkpt>
      <trkpt lat="42.5950603187084197998046875" lon="19.9438291601836681365966796875">
        <ele>960.4000244140625</ele>
        <time>2026-06-16T13:39:40.000Z</time>
        <extensions>
          <ns3:TrackPointExtension>
            <ns3:atemp>27.0</ns3:atemp>
          </ns3:TrackPointExtension>
        </extensions>
      </trkpt>
      <trkpt lat="42.59502067230641841888427734375" lon="19.94380996562540531158447265625">
        <ele>960.4000244140625</ele>
        <time>2026-06-16T13:39:41.000Z</time>
        <extensions>
          <ns3:TrackPointExtension>
            <ns3:atemp>27.0</ns3:atemp>
          </ns3:TrackPointExtension>
        </extensions>
      </trkpt>
      <trkpt lat="42.59498530067503452301025390625" lon="19.94379521347582340240478515625">
        <ele>960.4000244140625</ele>
        <time>2026-06-16T13:39:42.000Z</time>
        <extensions>
          <ns3:TrackPointExtension>
            <ns3:atemp>27.0</ns3:atemp>
          </ns3:TrackPointExtension>
        </extensions>
      </trkpt>
      <trkpt lat="42.594951689243316650390625" lon="19.94378347881138324737548828125">
        <ele>960.4000244140625</ele>
        <time>2026-06-16T13:39:43.000Z</time>
        <extensions>
          <ns3:TrackPointExtension>
            <ns3:atemp>27.0</ns3:atemp>
          </ns3:TrackPointExtension>
        </extensions>
      </trkpt>
      <trkpt lat="42.594913803040981292724609375" lon="19.94376503862440586090087890625">
        <ele>960.4000244140625</ele>
        <time>2026-06-16T13:39:44.000Z</time>
        <extensions>
          <ns3:TrackPointExtension>
            <ns3:atemp>27.0</ns3:atemp>
          </ns3:TrackPointExtension>
        </extensions>
      </trkpt>
      <trkpt lat="42.59487591683864593505859375" lon="19.94373519904911518096923828125">
        <ele>960.4000244140625</ele>
        <time>2026-06-16T13:39:45.000Z</time>
        <extensions>
          <ns3:TrackPointExtension>
            <ns3:atemp>27.0</ns3:atemp>
          </ns3:TrackPointExtension>
        </extensions>
      </trkpt>
      <trkpt lat="42.594841383397579193115234375" lon="19.94369982741773128509521484375">
        <ele>960.4000244140625</ele>
        <time>2026-06-16T13:39:46.000Z</time>
        <extensions>
          <ns3:TrackPointExtension>
            <ns3:atemp>27.0</ns3:atemp>
          </ns3:TrackPointExtension>
        </extensions>
      </trkpt>
      <trkpt lat="42.5948046706616878509521484375" lon="19.9436658807098865509033203125">
        <ele>960.4000244140625</ele>
        <time>2026-06-16T13:39:47.000Z</time>
        <extensions>
          <ns3:TrackPointExtension>
            <ns3:atemp>27.0</ns3:atemp>
          </ns3:TrackPointExtension>
        </extensions>
      </trkpt>
      <trkpt lat="42.5947671197354793548583984375" lon="19.94362154044210910797119140625">
        <ele>960.20001220703125</ele>
        <time>2026-06-16T13:39:48.000Z</time>
        <extensions>
          <ns3:TrackPointExtension>
            <ns3:atemp>27.0</ns3:atemp>
          </ns3:TrackPointExtension>
        </extensions>
      </trkpt>
      <trkpt lat="42.59473619051277637481689453125" lon="19.9435743503272533416748046875">
        <ele>960</ele>
        <time>2026-06-16T13:39:49.000Z</time>
        <extensions>
          <ns3:TrackPointExtension>
            <ns3:atemp>27.0</ns3:atemp>
          </ns3:TrackPointExtension>
        </extensions>
      </trkpt>
      <trkpt lat="42.59469897486269474029541015625" lon="19.9435213766992092132568359375">
        <ele>959.79998779296875</ele>
        <time>2026-06-16T13:39:50.000Z</time>
        <extensions>
          <ns3:TrackPointExtension>
            <ns3:atemp>27.0</ns3:atemp>
          </ns3:TrackPointExtension>
        </extensions>
      </trkpt>
      <trkpt lat="42.594664357602596282958984375" lon="19.943466894328594207763671875">
        <ele>959.5999755859375</ele>
        <time>2026-06-16T13:39:51.000Z</time>
        <extensions>
          <ns3:TrackPointExtension>
            <ns3:atemp>27.0</ns3:atemp>
          </ns3:TrackPointExtension>
        </extensions>
      </trkpt>
      <trkpt lat="42.5946299917995929718017578125" lon="19.94341232813894748687744140625">
        <ele>959.4000244140625</ele>
        <time>2026-06-16T13:39:52.000Z</time>
        <extensions>
          <ns3:TrackPointExtension>
            <ns3:atemp>27.0</ns3:atemp>
          </ns3:TrackPointExtension>
        </extensions>
      </trkpt>
      <trkpt lat="42.59459428489208221435546875" lon="19.94335683993995189666748046875">
        <ele>959.20001220703125</ele>
        <time>2026-06-16T13:39:53.000Z</time>
        <extensions>
          <ns3:TrackPointExtension>
            <ns3:atemp>27.0</ns3:atemp>
          </ns3:TrackPointExtension>
        </extensions>
      </trkpt>
      <trkpt lat="42.59456352330744266510009765625" lon="19.94329984299838542938232421875">
        <ele>959.20001220703125</ele>
        <time>2026-06-16T13:39:54.000Z</time>
        <extensions>
          <ns3:TrackPointExtension>
            <ns3:atemp>27.0</ns3:atemp>
          </ns3:TrackPointExtension>
        </extensions>
      </trkpt>
      <trkpt lat="42.594540305435657501220703125" lon="19.94324536062777042388916015625">
        <ele>959.20001220703125</ele>
        <time>2026-06-16T13:39:55.000Z</time>
        <extensions>
          <ns3:TrackPointExtension>
            <ns3:atemp>27.0</ns3:atemp>
          </ns3:TrackPointExtension>
        </extensions>
      </trkpt>
      <trkpt lat="42.59452295489609241485595703125" lon="19.943193979561328887939453125">
        <ele>959</ele>
        <time>2026-06-16T13:39:56.000Z</time>
        <extensions>
          <ns3:TrackPointExtension>
            <ns3:atemp>27.0</ns3:atemp>
          </ns3:TrackPointExtension>
        </extensions>
      </trkpt>
      <trkpt lat="42.59450736455619335174560546875" lon="19.94314326904714107513427734375">
        <ele>959</ele>
        <time>2026-06-16T13:39:57.000Z</time>
        <extensions>
          <ns3:TrackPointExtension>
            <ns3:atemp>27.0</ns3:atemp>
          </ns3:TrackPointExtension>
        </extensions>
      </trkpt>
      <trkpt lat="42.59449412114918231964111328125" lon="19.943090714514255523681640625">
        <ele>959</ele>
        <time>2026-06-16T13:39:58.000Z</time>
        <extensions>
          <ns3:TrackPointExtension>
            <ns3:atemp>27.0</ns3:atemp>
          </ns3:TrackPointExtension>
        </extensions>
      </trkpt>
      <trkpt lat="42.594479620456695556640625" lon="19.94304411113262176513671875">
        <ele>959</ele>
        <time>2026-06-16T13:39:59.000Z</time>
        <extensions>
          <ns3:TrackPointExtension>
            <ns3:atemp>27.0</ns3:atemp>
          </ns3:TrackPointExtension>
        </extensions>
      </trkpt>
      <trkpt lat="42.59446545504033565521240234375" lon="19.94300211779773235321044921875">
        <ele>959</ele>
        <time>2026-06-16T13:40:00.000Z</time>
        <extensions>
          <ns3:TrackPointExtension>
            <ns3:atemp>27.0</ns3:atemp>
          </ns3:TrackPointExtension>
        </extensions>
      </trkpt>
      <trkpt lat="42.5944499485194683074951171875" lon="19.94297244586050510406494140625">
        <ele>959</ele>
        <time>2026-06-16T13:40:01.000Z</time>
        <extensions>
          <ns3:TrackPointExtension>
            <ns3:atemp>27.0</ns3:atemp>
          </ns3:TrackPointExtension>
        </extensions>
      </trkpt>
    </trkseg>
  </trk>
</gpx>
